<?xml version="1.0" encoding="UTF-8"?>
<gpx version="1.1" creator="https://www.youtrack.es" xsi:schemaLocation="http://www.topografix.com/GPX/1/1 http://www.topografix.com/GPX/1/1/gpx.xsd http://www.garmin.com/xmlschemas/GpxExtensions/v3 http://www.garmin.com/xmlschemas/GpxExtensionsv3.xsd http://www.garmin.com/xmlschemas/TrackPointExtension/v1 http://www.garmin.com/xmlschemas/TrackPointExtensionv1.xsd" xmlns:gpxtpx="http://www.garmin.com/xmlschemas/TrackPointExtension/v1" xmlns:gpxx="http://www.garmin.com/xmlschemas/GpxExtensions/v3" xmlns:xsi="http://www.w3.org/2001/XMLSchema-instance">
  <metadata>
    <link href="https://www.youtrack.es">
      <text>YouTrack.es</text>
    </link>
    <time>2026-05-09T03:14:11Z</time>
  </metadata>
  <trk>
    <src>https://www.youtrack.es</src>
    <link href="https://www.youtrack.es/ruta/35699-gtj">
      <text>YouTrack.es</text>
    </link>
    <trkseg>
      <trkpt lat="47.5103540" lon="6.8005860">
        <ele>321.6</ele>
        <time>2022-07-20T11:54:16Z</time>
      </trkpt>
      <trkpt lat="47.5104350" lon="6.8009680">
        <ele>321.4</ele>
        <time>2022-07-20T11:54:23Z</time>
      </trkpt>
      <trkpt lat="47.5104410" lon="6.8009980">
        <ele>321.4</ele>
        <time>2022-07-20T11:54:24Z</time>
      </trkpt>
      <trkpt lat="47.5104110" lon="6.8012000">
        <ele>321.2</ele>
        <time>2022-07-20T11:55:14Z</time>
      </trkpt>
      <trkpt lat="47.5103830" lon="6.8011480">
        <ele>321.4</ele>
        <time>2022-07-20T11:55:16Z</time>
      </trkpt>
      <trkpt lat="47.5102770" lon="6.8010390">
        <ele>321.4</ele>
        <time>2022-07-20T11:55:21Z</time>
      </trkpt>
      <trkpt lat="47.5101840" lon="6.8011300">
        <ele>321.4</ele>
        <time>2022-07-20T11:55:25Z</time>
      </trkpt>
      <trkpt lat="47.5100210" lon="6.8012630">
        <ele>321.4</ele>
        <time>2022-07-20T11:55:32Z</time>
      </trkpt>
      <trkpt lat="47.5099130" lon="6.8013280">
        <ele>321.4</ele>
        <time>2022-07-20T11:55:37Z</time>
      </trkpt>
      <trkpt lat="47.5098960" lon="6.8013260">
        <ele>321.2</ele>
        <time>2022-07-20T11:55:38Z</time>
      </trkpt>
      <trkpt lat="47.5097770" lon="6.8013320">
        <ele>321.0</ele>
        <time>2022-07-20T11:55:44Z</time>
      </trkpt>
      <trkpt lat="47.5096250" lon="6.8015120">
        <ele>320.8</ele>
        <time>2022-07-20T11:55:50Z</time>
      </trkpt>
      <trkpt lat="47.5094180" lon="6.8016570">
        <ele>321.0</ele>
        <time>2022-07-20T11:55:57Z</time>
      </trkpt>
      <trkpt lat="47.5092380" lon="6.8017980">
        <ele>321.2</ele>
        <time>2022-07-20T11:56:02Z</time>
      </trkpt>
      <trkpt lat="47.5090720" lon="6.8019110">
        <ele>321.2</ele>
        <time>2022-07-20T11:56:08Z</time>
      </trkpt>
      <trkpt lat="47.5090010" lon="6.8019210">
        <ele>320.6</ele>
        <time>2022-07-20T11:56:11Z</time>
      </trkpt>
      <trkpt lat="47.5089420" lon="6.8019000">
        <ele>320.2</ele>
        <time>2022-07-20T11:56:13Z</time>
      </trkpt>
      <trkpt lat="47.5087560" lon="6.8017480">
        <ele>319.4</ele>
        <time>2022-07-20T11:56:19Z</time>
      </trkpt>
      <trkpt lat="47.5087270" lon="6.8017200">
        <ele>319.4</ele>
        <time>2022-07-20T11:56:20Z</time>
      </trkpt>
      <trkpt lat="47.5085410" lon="6.8014660">
        <ele>319.2</ele>
        <time>2022-07-20T11:56:27Z</time>
      </trkpt>
      <trkpt lat="47.5083710" lon="6.8011090">
        <ele>319.0</ele>
        <time>2022-07-20T11:56:35Z</time>
      </trkpt>
      <trkpt lat="47.5082800" lon="6.8009250">
        <ele>319.0</ele>
        <time>2022-07-20T11:56:41Z</time>
      </trkpt>
      <trkpt lat="47.5081890" lon="6.8006540">
        <ele>319.2</ele>
        <time>2022-07-20T11:56:48Z</time>
      </trkpt>
      <trkpt lat="47.5080650" lon="6.8004020">
        <ele>319.2</ele>
        <time>2022-07-20T11:56:54Z</time>
      </trkpt>
      <trkpt lat="47.5079290" lon="6.8001900">
        <ele>319.0</ele>
        <time>2022-07-20T11:57:01Z</time>
      </trkpt>
      <trkpt lat="47.5078960" lon="6.8001510">
        <ele>319.0</ele>
        <time>2022-07-20T11:57:03Z</time>
      </trkpt>
      <trkpt lat="47.5078340" lon="6.8000660">
        <ele>319.0</ele>
        <time>2022-07-20T11:57:06Z</time>
      </trkpt>
      <trkpt lat="47.5077440" lon="6.7999220">
        <ele>319.0</ele>
        <time>2022-07-20T11:57:12Z</time>
      </trkpt>
      <trkpt lat="47.5076910" lon="6.7997670">
        <ele>318.8</ele>
        <time>2022-07-20T11:57:18Z</time>
      </trkpt>
      <trkpt lat="47.5076870" lon="6.7997080">
        <ele>318.8</ele>
        <time>2022-07-20T11:57:21Z</time>
      </trkpt>
      <trkpt lat="47.5076860" lon="6.7996990">
        <ele>318.8</ele>
        <time>2022-07-20T11:57:22Z</time>
      </trkpt>
      <trkpt lat="47.5076880" lon="6.7996670">
        <ele>318.8</ele>
        <time>2022-07-20T11:57:24Z</time>
      </trkpt>
      <trkpt lat="47.5076740" lon="6.7996770">
        <ele>318.8</ele>
        <time>2022-07-20T11:57:26Z</time>
      </trkpt>
      <trkpt lat="47.5076790" lon="6.7997680">
        <ele>318.6</ele>
        <time>2022-07-20T11:57:31Z</time>
      </trkpt>
      <trkpt lat="47.5076700" lon="6.7997720">
        <ele>318.6</ele>
        <time>2022-07-20T11:57:32Z</time>
      </trkpt>
      <trkpt lat="47.5076630" lon="6.7997640">
        <ele>318.6</ele>
        <time>2022-07-20T11:57:33Z</time>
      </trkpt>
      <trkpt lat="47.5076430" lon="6.7997320">
        <ele>318.6</ele>
        <time>2022-07-20T11:57:35Z</time>
      </trkpt>
      <trkpt lat="47.5076240" lon="6.7996780">
        <ele>318.6</ele>
        <time>2022-07-20T11:57:37Z</time>
      </trkpt>
      <trkpt lat="47.5075860" lon="6.7995960">
        <ele>318.8</ele>
        <time>2022-07-20T11:57:40Z</time>
      </trkpt>
      <trkpt lat="47.5075090" lon="6.7994440">
        <ele>318.8</ele>
        <time>2022-07-20T11:57:45Z</time>
      </trkpt>
      <trkpt lat="47.5075110" lon="6.7993740">
        <ele>318.8</ele>
        <time>2022-07-20T11:57:48Z</time>
      </trkpt>
      <trkpt lat="47.5074800" lon="6.7992920">
        <ele>318.8</ele>
        <time>2022-07-20T11:57:51Z</time>
      </trkpt>
      <trkpt lat="47.5074040" lon="6.7992860">
        <ele>318.6</ele>
        <time>2022-07-20T11:57:55Z</time>
      </trkpt>
      <trkpt lat="47.5073870" lon="6.7993060">
        <ele>318.6</ele>
        <time>2022-07-20T11:57:56Z</time>
      </trkpt>
      <trkpt lat="47.5072860" lon="6.7994060">
        <ele>318.6</ele>
        <time>2022-07-20T11:58:01Z</time>
      </trkpt>
      <trkpt lat="47.5071540" lon="6.7995880">
        <ele>318.6</ele>
        <time>2022-07-20T11:58:07Z</time>
      </trkpt>
      <trkpt lat="47.5071190" lon="6.7997730">
        <ele>318.6</ele>
        <time>2022-07-20T11:58:11Z</time>
      </trkpt>
      <trkpt lat="47.5071080" lon="6.8001420">
        <ele>318.6</ele>
        <time>2022-07-20T11:58:18Z</time>
      </trkpt>
      <trkpt lat="47.5070520" lon="6.8005860">
        <ele>318.6</ele>
        <time>2022-07-20T11:58:26Z</time>
      </trkpt>
      <trkpt lat="47.5070200" lon="6.8007530">
        <ele>318.6</ele>
        <time>2022-07-20T11:58:29Z</time>
      </trkpt>
      <trkpt lat="47.5069520" lon="6.8011150">
        <ele>318.6</ele>
        <time>2022-07-20T11:58:36Z</time>
      </trkpt>
      <trkpt lat="47.5068940" lon="6.8013550">
        <ele>318.6</ele>
        <time>2022-07-20T11:58:42Z</time>
      </trkpt>
      <trkpt lat="47.5068350" lon="6.8015620">
        <ele>318.6</ele>
        <time>2022-07-20T11:58:49Z</time>
      </trkpt>
      <trkpt lat="47.5068210" lon="6.8016160">
        <ele>318.6</ele>
        <time>2022-07-20T11:58:52Z</time>
      </trkpt>
      <trkpt lat="47.5068000" lon="6.8016280">
        <ele>318.8</ele>
        <time>2022-07-20T11:58:55Z</time>
      </trkpt>
      <trkpt lat="47.5067970" lon="6.8016250">
        <ele>318.8</ele>
        <time>2022-07-20T11:58:56Z</time>
      </trkpt>
      <trkpt lat="47.5067540" lon="6.8016460">
        <ele>319.6</ele>
        <time>2022-07-20T11:59:06Z</time>
      </trkpt>
      <trkpt lat="47.5067200" lon="6.8016610">
        <ele>319.8</ele>
        <time>2022-07-20T11:59:08Z</time>
      </trkpt>
      <trkpt lat="47.5065110" lon="6.8017400">
        <ele>320.4</ele>
        <time>2022-07-20T11:59:17Z</time>
      </trkpt>
      <trkpt lat="47.5062880" lon="6.8018430">
        <ele>320.6</ele>
        <time>2022-07-20T11:59:24Z</time>
      </trkpt>
      <trkpt lat="47.5061670" lon="6.8020000">
        <ele>320.6</ele>
        <time>2022-07-20T11:59:29Z</time>
      </trkpt>
      <trkpt lat="47.5061630" lon="6.8023900">
        <ele>319.8</ele>
        <time>2022-07-20T11:59:36Z</time>
      </trkpt>
      <trkpt lat="47.5062330" lon="6.8026310">
        <ele>319.6</ele>
        <time>2022-07-20T11:59:41Z</time>
      </trkpt>
      <trkpt lat="47.5063530" lon="6.8028620">
        <ele>319.4</ele>
        <time>2022-07-20T11:59:46Z</time>
      </trkpt>
      <trkpt lat="47.5063730" lon="6.8031190">
        <ele>319.4</ele>
        <time>2022-07-20T11:59:51Z</time>
      </trkpt>
      <trkpt lat="47.5063640" lon="6.8034350">
        <ele>319.4</ele>
        <time>2022-07-20T11:59:58Z</time>
      </trkpt>
      <trkpt lat="47.5062870" lon="6.8037150">
        <ele>319.6</ele>
        <time>2022-07-20T12:00:04Z</time>
      </trkpt>
      <trkpt lat="47.5062100" lon="6.8040070">
        <ele>319.8</ele>
        <time>2022-07-20T12:00:10Z</time>
      </trkpt>
      <trkpt lat="47.5060960" lon="6.8042550">
        <ele>319.8</ele>
        <time>2022-07-20T12:00:16Z</time>
      </trkpt>
      <trkpt lat="47.5059630" lon="6.8044020">
        <ele>319.8</ele>
        <time>2022-07-20T12:00:22Z</time>
      </trkpt>
      <trkpt lat="47.5059110" lon="6.8044290">
        <ele>319.8</ele>
        <time>2022-07-20T12:00:25Z</time>
      </trkpt>
      <trkpt lat="47.5058920" lon="6.8044700">
        <ele>320.0</ele>
        <time>2022-07-20T12:00:27Z</time>
      </trkpt>
      <trkpt lat="47.5058830" lon="6.8045860">
        <ele>320.6</ele>
        <time>2022-07-20T12:00:31Z</time>
      </trkpt>
      <trkpt lat="47.5058750" lon="6.8046680">
        <ele>321.4</ele>
        <time>2022-07-20T12:00:34Z</time>
      </trkpt>
      <trkpt lat="47.5058670" lon="6.8046880">
        <ele>321.6</ele>
        <time>2022-07-20T12:00:35Z</time>
      </trkpt>
      <trkpt lat="47.5058370" lon="6.8047090">
        <ele>322.0</ele>
        <time>2022-07-20T12:00:37Z</time>
      </trkpt>
      <trkpt lat="47.5057990" lon="6.8047120">
        <ele>322.4</ele>
        <time>2022-07-20T12:00:39Z</time>
      </trkpt>
      <trkpt lat="47.5057630" lon="6.8046960">
        <ele>322.6</ele>
        <time>2022-07-20T12:00:41Z</time>
      </trkpt>
      <trkpt lat="47.5056950" lon="6.8046510">
        <ele>323.2</ele>
        <time>2022-07-20T12:00:45Z</time>
      </trkpt>
      <trkpt lat="47.5056750" lon="6.8046450">
        <ele>323.2</ele>
        <time>2022-07-20T12:00:46Z</time>
      </trkpt>
      <trkpt lat="47.5055300" lon="6.8046310">
        <ele>324.0</ele>
        <time>2022-07-20T12:00:52Z</time>
      </trkpt>
      <trkpt lat="47.5055010" lon="6.8046250">
        <ele>324.2</ele>
        <time>2022-07-20T12:00:53Z</time>
      </trkpt>
      <trkpt lat="47.5052930" lon="6.8045880">
        <ele>324.4</ele>
        <time>2022-07-20T12:00:59Z</time>
      </trkpt>
      <trkpt lat="47.5050560" lon="6.8045300">
        <ele>324.4</ele>
        <time>2022-07-20T12:01:06Z</time>
      </trkpt>
      <trkpt lat="47.5049070" lon="6.8045170">
        <ele>324.2</ele>
        <time>2022-07-20T12:01:11Z</time>
      </trkpt>
      <trkpt lat="47.5047460" lon="6.8045260">
        <ele>324.4</ele>
        <time>2022-07-20T12:01:17Z</time>
      </trkpt>
      <trkpt lat="47.5045340" lon="6.8045400">
        <ele>325.0</ele>
        <time>2022-07-20T12:01:25Z</time>
      </trkpt>
      <trkpt lat="47.5044020" lon="6.8044560">
        <ele>325.0</ele>
        <time>2022-07-20T12:01:30Z</time>
      </trkpt>
      <trkpt lat="47.5044000" lon="6.8043020">
        <ele>325.0</ele>
        <time>2022-07-20T12:01:33Z</time>
      </trkpt>
      <trkpt lat="47.5044910" lon="6.8042130">
        <ele>324.8</ele>
        <time>2022-07-20T12:01:36Z</time>
      </trkpt>
      <trkpt lat="47.5046030" lon="6.8042770">
        <ele>324.6</ele>
        <time>2022-07-20T12:01:39Z</time>
      </trkpt>
      <trkpt lat="47.5046480" lon="6.8043830">
        <ele>324.2</ele>
        <time>2022-07-20T12:01:41Z</time>
      </trkpt>
      <trkpt lat="47.5046580" lon="6.8044390">
        <ele>324.2</ele>
        <time>2022-07-20T12:01:42Z</time>
      </trkpt>
      <trkpt lat="47.5046680" lon="6.8045800">
        <ele>323.8</ele>
        <time>2022-07-20T12:01:45Z</time>
      </trkpt>
      <trkpt lat="47.5046860" lon="6.8046770">
        <ele>323.4</ele>
        <time>2022-07-20T12:01:47Z</time>
      </trkpt>
      <trkpt lat="47.5046930" lon="6.8047330">
        <ele>323.2</ele>
        <time>2022-07-20T12:01:48Z</time>
      </trkpt>
      <trkpt lat="47.5047000" lon="6.8048550">
        <ele>322.6</ele>
        <time>2022-07-20T12:01:50Z</time>
      </trkpt>
      <trkpt lat="47.5046980" lon="6.8049850">
        <ele>322.4</ele>
        <time>2022-07-20T12:01:52Z</time>
      </trkpt>
      <trkpt lat="47.5046930" lon="6.8051190">
        <ele>322.2</ele>
        <time>2022-07-20T12:01:54Z</time>
      </trkpt>
      <trkpt lat="47.5046820" lon="6.8054690">
        <ele>321.4</ele>
        <time>2022-07-20T12:01:59Z</time>
      </trkpt>
      <trkpt lat="47.5046610" lon="6.8058520">
        <ele>321.0</ele>
        <time>2022-07-20T12:02:05Z</time>
      </trkpt>
      <trkpt lat="47.5046530" lon="6.8059130">
        <ele>321.0</ele>
        <time>2022-07-20T12:02:06Z</time>
      </trkpt>
      <trkpt lat="47.5046210" lon="6.8064550">
        <ele>321.0</ele>
        <time>2022-07-20T12:02:15Z</time>
      </trkpt>
      <trkpt lat="47.5045900" lon="6.8071240">
        <ele>320.8</ele>
        <time>2022-07-20T12:02:26Z</time>
      </trkpt>
      <trkpt lat="47.5045660" lon="6.8075920">
        <ele>321.0</ele>
        <time>2022-07-20T12:02:34Z</time>
      </trkpt>
      <trkpt lat="47.5045020" lon="6.8080440">
        <ele>321.4</ele>
        <time>2022-07-20T12:02:42Z</time>
      </trkpt>
      <trkpt lat="47.5045030" lon="6.8083820">
        <ele>321.6</ele>
        <time>2022-07-20T12:02:49Z</time>
      </trkpt>
      <trkpt lat="47.5045320" lon="6.8087200">
        <ele>321.8</ele>
        <time>2022-07-20T12:02:54Z</time>
      </trkpt>
      <trkpt lat="47.5045310" lon="6.8087920">
        <ele>321.8</ele>
        <time>2022-07-20T12:02:55Z</time>
      </trkpt>
      <trkpt lat="47.5045080" lon="6.8092720">
        <ele>321.8</ele>
        <time>2022-07-20T12:03:02Z</time>
      </trkpt>
      <trkpt lat="47.5044610" lon="6.8100760">
        <ele>321.2</ele>
        <time>2022-07-20T12:03:14Z</time>
      </trkpt>
      <trkpt lat="47.5044250" lon="6.8107440">
        <ele>321.0</ele>
        <time>2022-07-20T12:03:24Z</time>
      </trkpt>
      <trkpt lat="47.5043900" lon="6.8113580">
        <ele>321.0</ele>
        <time>2022-07-20T12:03:33Z</time>
      </trkpt>
      <trkpt lat="47.5043770" lon="6.8116060">
        <ele>321.0</ele>
        <time>2022-07-20T12:03:37Z</time>
      </trkpt>
      <trkpt lat="47.5043710" lon="6.8117990">
        <ele>321.2</ele>
        <time>2022-07-20T12:03:40Z</time>
      </trkpt>
      <trkpt lat="47.5043530" lon="6.8119860">
        <ele>321.2</ele>
        <time>2022-07-20T12:03:43Z</time>
      </trkpt>
      <trkpt lat="47.5043220" lon="6.8121430">
        <ele>321.2</ele>
        <time>2022-07-20T12:03:46Z</time>
      </trkpt>
      <trkpt lat="47.5042350" lon="6.8124440">
        <ele>321.8</ele>
        <time>2022-07-20T12:03:52Z</time>
      </trkpt>
      <trkpt lat="47.5041950" lon="6.8126170">
        <ele>322.2</ele>
        <time>2022-07-20T12:03:55Z</time>
      </trkpt>
      <trkpt lat="47.5041820" lon="6.8127420">
        <ele>322.4</ele>
        <time>2022-07-20T12:03:57Z</time>
      </trkpt>
      <trkpt lat="47.5041680" lon="6.8131270">
        <ele>322.4</ele>
        <time>2022-07-20T12:04:03Z</time>
      </trkpt>
      <trkpt lat="47.5041580" lon="6.8133090">
        <ele>322.4</ele>
        <time>2022-07-20T12:04:06Z</time>
      </trkpt>
      <trkpt lat="47.5041310" lon="6.8137880">
        <ele>322.0</ele>
        <time>2022-07-20T12:04:13Z</time>
      </trkpt>
      <trkpt lat="47.5041070" lon="6.8143530">
        <ele>322.2</ele>
        <time>2022-07-20T12:04:21Z</time>
      </trkpt>
      <trkpt lat="47.5040930" lon="6.8148250">
        <ele>322.2</ele>
        <time>2022-07-20T12:04:28Z</time>
      </trkpt>
      <trkpt lat="47.5040880" lon="6.8151810">
        <ele>322.2</ele>
        <time>2022-07-20T12:04:33Z</time>
      </trkpt>
      <trkpt lat="47.5040800" lon="6.8153270">
        <ele>322.2</ele>
        <time>2022-07-20T12:04:35Z</time>
      </trkpt>
      <trkpt lat="47.5040390" lon="6.8160390">
        <ele>322.2</ele>
        <time>2022-07-20T12:04:45Z</time>
      </trkpt>
      <trkpt lat="47.5039860" lon="6.8168170">
        <ele>322.2</ele>
        <time>2022-07-20T12:04:56Z</time>
      </trkpt>
      <trkpt lat="47.5039490" lon="6.8173220">
        <ele>322.2</ele>
        <time>2022-07-20T12:05:03Z</time>
      </trkpt>
      <trkpt lat="47.5039200" lon="6.8176850">
        <ele>322.4</ele>
        <time>2022-07-20T12:05:08Z</time>
      </trkpt>
      <trkpt lat="47.5039080" lon="6.8178270">
        <ele>322.4</ele>
        <time>2022-07-20T12:05:10Z</time>
      </trkpt>
      <trkpt lat="47.5038710" lon="6.8183790">
        <ele>322.4</ele>
        <time>2022-07-20T12:05:18Z</time>
      </trkpt>
      <trkpt lat="47.5038660" lon="6.8184510">
        <ele>322.4</ele>
        <time>2022-07-20T12:05:19Z</time>
      </trkpt>
      <trkpt lat="47.5038380" lon="6.8188070">
        <ele>322.6</ele>
        <time>2022-07-20T12:05:24Z</time>
      </trkpt>
      <trkpt lat="47.5037780" lon="6.8195060">
        <ele>322.6</ele>
        <time>2022-07-20T12:05:34Z</time>
      </trkpt>
      <trkpt lat="47.5037190" lon="6.8201370">
        <ele>322.6</ele>
        <time>2022-07-20T12:05:43Z</time>
      </trkpt>
      <trkpt lat="47.5036700" lon="6.8206570">
        <ele>322.6</ele>
        <time>2022-07-20T12:05:51Z</time>
      </trkpt>
      <trkpt lat="47.5036680" lon="6.8207270">
        <ele>322.6</ele>
        <time>2022-07-20T12:05:52Z</time>
      </trkpt>
      <trkpt lat="47.5036270" lon="6.8213370">
        <ele>322.8</ele>
        <time>2022-07-20T12:06:01Z</time>
      </trkpt>
      <trkpt lat="47.5035860" lon="6.8218610">
        <ele>323.0</ele>
        <time>2022-07-20T12:06:09Z</time>
      </trkpt>
      <trkpt lat="47.5035330" lon="6.8225420">
        <ele>323.0</ele>
        <time>2022-07-20T12:06:19Z</time>
      </trkpt>
      <trkpt lat="47.5034980" lon="6.8232440">
        <ele>323.0</ele>
        <time>2022-07-20T12:06:29Z</time>
      </trkpt>
      <trkpt lat="47.5035120" lon="6.8237180">
        <ele>323.0</ele>
        <time>2022-07-20T12:06:36Z</time>
      </trkpt>
      <trkpt lat="47.5035580" lon="6.8240520">
        <ele>323.0</ele>
        <time>2022-07-20T12:06:42Z</time>
      </trkpt>
      <trkpt lat="47.5036800" lon="6.8244270">
        <ele>323.0</ele>
        <time>2022-07-20T12:06:49Z</time>
      </trkpt>
      <trkpt lat="47.5036990" lon="6.8246080">
        <ele>323.0</ele>
        <time>2022-07-20T12:06:54Z</time>
      </trkpt>
      <trkpt lat="47.5036960" lon="6.8247580">
        <ele>323.0</ele>
        <time>2022-07-20T12:07:00Z</time>
      </trkpt>
      <trkpt lat="47.5036830" lon="6.8249580">
        <ele>323.0</ele>
        <time>2022-07-20T12:07:06Z</time>
      </trkpt>
      <trkpt lat="47.5037200" lon="6.8251930">
        <ele>323.0</ele>
        <time>2022-07-20T12:07:13Z</time>
      </trkpt>
      <trkpt lat="47.5037380" lon="6.8252330">
        <ele>323.0</ele>
        <time>2022-07-20T12:07:14Z</time>
      </trkpt>
      <trkpt lat="47.5037000" lon="6.8252520">
        <ele>323.0</ele>
        <time>2022-07-20T12:07:16Z</time>
      </trkpt>
      <trkpt lat="47.5036300" lon="6.8253540">
        <ele>323.0</ele>
        <time>2022-07-20T12:07:20Z</time>
      </trkpt>
      <trkpt lat="47.5036100" lon="6.8253930">
        <ele>323.0</ele>
        <time>2022-07-20T12:07:21Z</time>
      </trkpt>
      <trkpt lat="47.5035880" lon="6.8254180">
        <ele>323.2</ele>
        <time>2022-07-20T12:07:22Z</time>
      </trkpt>
      <trkpt lat="47.5035480" lon="6.8254530">
        <ele>323.2</ele>
        <time>2022-07-20T12:07:24Z</time>
      </trkpt>
      <trkpt lat="47.5035270" lon="6.8255680">
        <ele>323.4</ele>
        <time>2022-07-20T12:07:27Z</time>
      </trkpt>
      <trkpt lat="47.5035230" lon="6.8256240">
        <ele>323.4</ele>
        <time>2022-07-20T12:07:28Z</time>
      </trkpt>
      <trkpt lat="47.5035210" lon="6.8260120">
        <ele>323.4</ele>
        <time>2022-07-20T12:07:34Z</time>
      </trkpt>
      <trkpt lat="47.5035210" lon="6.8266600">
        <ele>323.0</ele>
        <time>2022-07-20T12:07:44Z</time>
      </trkpt>
      <trkpt lat="47.5035240" lon="6.8273350">
        <ele>323.2</ele>
        <time>2022-07-20T12:07:55Z</time>
      </trkpt>
      <trkpt lat="47.5036020" lon="6.8280220">
        <ele>323.8</ele>
        <time>2022-07-20T12:08:06Z</time>
      </trkpt>
      <trkpt lat="47.5036500" lon="6.8282690">
        <ele>324.0</ele>
        <time>2022-07-20T12:08:10Z</time>
      </trkpt>
      <trkpt lat="47.5036960" lon="6.8284530">
        <ele>324.0</ele>
        <time>2022-07-20T12:08:13Z</time>
      </trkpt>
      <trkpt lat="47.5037640" lon="6.8287810">
        <ele>324.0</ele>
        <time>2022-07-20T12:08:18Z</time>
      </trkpt>
      <trkpt lat="47.5037730" lon="6.8288510">
        <ele>323.8</ele>
        <time>2022-07-20T12:08:19Z</time>
      </trkpt>
      <trkpt lat="47.5038210" lon="6.8293330">
        <ele>323.8</ele>
        <time>2022-07-20T12:08:26Z</time>
      </trkpt>
      <trkpt lat="47.5039030" lon="6.8298600">
        <ele>324.0</ele>
        <time>2022-07-20T12:08:34Z</time>
      </trkpt>
      <trkpt lat="47.5039490" lon="6.8301980">
        <ele>324.0</ele>
        <time>2022-07-20T12:08:39Z</time>
      </trkpt>
      <trkpt lat="47.5039760" lon="6.8303290">
        <ele>324.0</ele>
        <time>2022-07-20T12:08:41Z</time>
      </trkpt>
      <trkpt lat="47.5040450" lon="6.8307980">
        <ele>324.0</ele>
        <time>2022-07-20T12:08:48Z</time>
      </trkpt>
      <trkpt lat="47.5040930" lon="6.8311210">
        <ele>324.2</ele>
        <time>2022-07-20T12:08:53Z</time>
      </trkpt>
      <trkpt lat="47.5041070" lon="6.8312480">
        <ele>324.2</ele>
        <time>2022-07-20T12:08:55Z</time>
      </trkpt>
      <trkpt lat="47.5041500" lon="6.8315830">
        <ele>324.2</ele>
        <time>2022-07-20T12:09:01Z</time>
      </trkpt>
      <trkpt lat="47.5040970" lon="6.8317390">
        <ele>324.0</ele>
        <time>2022-07-20T12:09:06Z</time>
      </trkpt>
      <trkpt lat="47.5039870" lon="6.8318280">
        <ele>323.6</ele>
        <time>2022-07-20T12:09:10Z</time>
      </trkpt>
      <trkpt lat="47.5039270" lon="6.8320650">
        <ele>323.4</ele>
        <time>2022-07-20T12:09:15Z</time>
      </trkpt>
      <trkpt lat="47.5039030" lon="6.8324700">
        <ele>323.2</ele>
        <time>2022-07-20T12:09:22Z</time>
      </trkpt>
      <trkpt lat="47.5039590" lon="6.8330400">
        <ele>323.4</ele>
        <time>2022-07-20T12:09:31Z</time>
      </trkpt>
      <trkpt lat="47.5040030" lon="6.8335470">
        <ele>323.6</ele>
        <time>2022-07-20T12:09:40Z</time>
      </trkpt>
      <trkpt lat="47.5039910" lon="6.8335980">
        <ele>323.6</ele>
        <time>2022-07-20T12:09:41Z</time>
      </trkpt>
      <trkpt lat="47.5039300" lon="6.8336500">
        <ele>323.6</ele>
        <time>2022-07-20T12:09:43Z</time>
      </trkpt>
      <trkpt lat="47.5037640" lon="6.8336820">
        <ele>323.6</ele>
        <time>2022-07-20T12:09:48Z</time>
      </trkpt>
      <trkpt lat="47.5037330" lon="6.8336900">
        <ele>323.6</ele>
        <time>2022-07-20T12:09:49Z</time>
      </trkpt>
      <trkpt lat="47.5034810" lon="6.8337450">
        <ele>324.6</ele>
        <time>2022-07-20T12:09:57Z</time>
      </trkpt>
      <trkpt lat="47.5031510" lon="6.8338080">
        <ele>325.0</ele>
        <time>2022-07-20T12:10:06Z</time>
      </trkpt>
      <trkpt lat="47.5027280" lon="6.8339000">
        <ele>325.2</ele>
        <time>2022-07-20T12:10:17Z</time>
      </trkpt>
      <trkpt lat="47.5024250" lon="6.8339540">
        <ele>325.2</ele>
        <time>2022-07-20T12:10:25Z</time>
      </trkpt>
      <trkpt lat="47.5023840" lon="6.8339560">
        <ele>325.2</ele>
        <time>2022-07-20T12:10:26Z</time>
      </trkpt>
      <trkpt lat="47.5021030" lon="6.8339290">
        <ele>325.2</ele>
        <time>2022-07-20T12:10:32Z</time>
      </trkpt>
      <trkpt lat="47.5017110" lon="6.8338720">
        <ele>324.8</ele>
        <time>2022-07-20T12:10:40Z</time>
      </trkpt>
      <trkpt lat="47.5014900" lon="6.8338430">
        <ele>324.8</ele>
        <time>2022-07-20T12:10:46Z</time>
      </trkpt>
      <trkpt lat="47.5012350" lon="6.8338260">
        <ele>326.0</ele>
        <time>2022-07-20T12:10:54Z</time>
      </trkpt>
      <trkpt lat="47.5012040" lon="6.8338230">
        <ele>326.2</ele>
        <time>2022-07-20T12:10:55Z</time>
      </trkpt>
      <trkpt lat="47.5009670" lon="6.8337960">
        <ele>327.2</ele>
        <time>2022-07-20T12:11:02Z</time>
      </trkpt>
      <trkpt lat="47.5009330" lon="6.8337920">
        <ele>327.4</ele>
        <time>2022-07-20T12:11:03Z</time>
      </trkpt>
      <trkpt lat="47.5006930" lon="6.8337600">
        <ele>327.8</ele>
        <time>2022-07-20T12:11:10Z</time>
      </trkpt>
      <trkpt lat="47.5004470" lon="6.8337400">
        <ele>328.0</ele>
        <time>2022-07-20T12:11:17Z</time>
      </trkpt>
      <trkpt lat="47.5002280" lon="6.8337150">
        <ele>328.4</ele>
        <time>2022-07-20T12:11:23Z</time>
      </trkpt>
      <trkpt lat="47.5001150" lon="6.8337050">
        <ele>328.6</ele>
        <time>2022-07-20T12:11:26Z</time>
      </trkpt>
      <trkpt lat="47.4997220" lon="6.8336600">
        <ele>329.2</ele>
        <time>2022-07-20T12:11:37Z</time>
      </trkpt>
      <trkpt lat="47.4996880" lon="6.8336550">
        <ele>329.2</ele>
        <time>2022-07-20T12:11:38Z</time>
      </trkpt>
      <trkpt lat="47.4994310" lon="6.8336160">
        <ele>329.8</ele>
        <time>2022-07-20T12:11:45Z</time>
      </trkpt>
      <trkpt lat="47.4992110" lon="6.8335750">
        <ele>330.0</ele>
        <time>2022-07-20T12:11:51Z</time>
      </trkpt>
      <trkpt lat="47.4989130" lon="6.8334960">
        <ele>330.2</ele>
        <time>2022-07-20T12:11:59Z</time>
      </trkpt>
      <trkpt lat="47.4988440" lon="6.8334660">
        <ele>330.4</ele>
        <time>2022-07-20T12:12:01Z</time>
      </trkpt>
      <trkpt lat="47.4986780" lon="6.8333600">
        <ele>330.6</ele>
        <time>2022-07-20T12:12:06Z</time>
      </trkpt>
      <trkpt lat="47.4985250" lon="6.8332760">
        <ele>330.8</ele>
        <time>2022-07-20T12:12:11Z</time>
      </trkpt>
      <trkpt lat="47.4984780" lon="6.8332360">
        <ele>330.8</ele>
        <time>2022-07-20T12:12:12Z</time>
      </trkpt>
      <trkpt lat="47.4983510" lon="6.8331060">
        <ele>330.8</ele>
        <time>2022-07-20T12:12:15Z</time>
      </trkpt>
      <trkpt lat="47.4983080" lon="6.8330740">
        <ele>330.8</ele>
        <time>2022-07-20T12:12:16Z</time>
      </trkpt>
      <trkpt lat="47.4980050" lon="6.8328330">
        <ele>330.8</ele>
        <time>2022-07-20T12:12:23Z</time>
      </trkpt>
      <trkpt lat="47.4976760" lon="6.8325540">
        <ele>330.6</ele>
        <time>2022-07-20T12:12:30Z</time>
      </trkpt>
      <trkpt lat="47.4973480" lon="6.8323050">
        <ele>329.8</ele>
        <time>2022-07-20T12:12:36Z</time>
      </trkpt>
      <trkpt lat="47.4972880" lon="6.8322810">
        <ele>329.6</ele>
        <time>2022-07-20T12:12:37Z</time>
      </trkpt>
      <trkpt lat="47.4971710" lon="6.8322380">
        <ele>329.2</ele>
        <time>2022-07-20T12:12:39Z</time>
      </trkpt>
      <trkpt lat="47.4970540" lon="6.8322270">
        <ele>328.6</ele>
        <time>2022-07-20T12:12:41Z</time>
      </trkpt>
      <trkpt lat="47.4969410" lon="6.8322640">
        <ele>327.8</ele>
        <time>2022-07-20T12:12:43Z</time>
      </trkpt>
      <trkpt lat="47.4968370" lon="6.8323300">
        <ele>327.4</ele>
        <time>2022-07-20T12:12:45Z</time>
      </trkpt>
      <trkpt lat="47.4966720" lon="6.8324460">
        <ele>327.0</ele>
        <time>2022-07-20T12:12:48Z</time>
      </trkpt>
      <trkpt lat="47.4965120" lon="6.8325480">
        <ele>326.8</ele>
        <time>2022-07-20T12:12:51Z</time>
      </trkpt>
      <trkpt lat="47.4963570" lon="6.8326530">
        <ele>326.0</ele>
        <time>2022-07-20T12:12:54Z</time>
      </trkpt>
      <trkpt lat="47.4961630" lon="6.8327760">
        <ele>325.6</ele>
        <time>2022-07-20T12:12:58Z</time>
      </trkpt>
      <trkpt lat="47.4960660" lon="6.8328360">
        <ele>325.6</ele>
        <time>2022-07-20T12:13:00Z</time>
      </trkpt>
      <trkpt lat="47.4959710" lon="6.8329050">
        <ele>325.2</ele>
        <time>2022-07-20T12:13:02Z</time>
      </trkpt>
      <trkpt lat="47.4956310" lon="6.8331320">
        <ele>325.2</ele>
        <time>2022-07-20T12:13:09Z</time>
      </trkpt>
      <trkpt lat="47.4953930" lon="6.8332910">
        <ele>325.0</ele>
        <time>2022-07-20T12:13:15Z</time>
      </trkpt>
      <trkpt lat="47.4953190" lon="6.8333850">
        <ele>325.0</ele>
        <time>2022-07-20T12:13:19Z</time>
      </trkpt>
      <trkpt lat="47.4952230" lon="6.8334790">
        <ele>325.0</ele>
        <time>2022-07-20T12:13:25Z</time>
      </trkpt>
      <trkpt lat="47.4951670" lon="6.8334860">
        <ele>324.8</ele>
        <time>2022-07-20T12:13:27Z</time>
      </trkpt>
      <trkpt lat="47.4950890" lon="6.8334410">
        <ele>324.6</ele>
        <time>2022-07-20T12:13:30Z</time>
      </trkpt>
      <trkpt lat="47.4950620" lon="6.8334360">
        <ele>324.6</ele>
        <time>2022-07-20T12:13:31Z</time>
      </trkpt>
      <trkpt lat="47.4950050" lon="6.8334670">
        <ele>324.6</ele>
        <time>2022-07-20T12:13:33Z</time>
      </trkpt>
      <trkpt lat="47.4947420" lon="6.8336300">
        <ele>324.4</ele>
        <time>2022-07-20T12:13:40Z</time>
      </trkpt>
      <trkpt lat="47.4943160" lon="6.8338930">
        <ele>324.4</ele>
        <time>2022-07-20T12:13:51Z</time>
      </trkpt>
      <trkpt lat="47.4940040" lon="6.8340940">
        <ele>324.6</ele>
        <time>2022-07-20T12:13:59Z</time>
      </trkpt>
      <trkpt lat="47.4936470" lon="6.8342290">
        <ele>324.6</ele>
        <time>2022-07-20T12:14:08Z</time>
      </trkpt>
      <trkpt lat="47.4933170" lon="6.8342380">
        <ele>324.8</ele>
        <time>2022-07-20T12:14:17Z</time>
      </trkpt>
      <trkpt lat="47.4932090" lon="6.8341860">
        <ele>325.0</ele>
        <time>2022-07-20T12:14:21Z</time>
      </trkpt>
      <trkpt lat="47.4929500" lon="6.8341250">
        <ele>325.0</ele>
        <time>2022-07-20T12:14:28Z</time>
      </trkpt>
      <trkpt lat="47.4926680" lon="6.8340490">
        <ele>325.4</ele>
        <time>2022-07-20T12:14:36Z</time>
      </trkpt>
      <trkpt lat="47.4924070" lon="6.8339590">
        <ele>325.6</ele>
        <time>2022-07-20T12:14:44Z</time>
      </trkpt>
      <trkpt lat="47.4923390" lon="6.8339380">
        <ele>325.8</ele>
        <time>2022-07-20T12:14:46Z</time>
      </trkpt>
      <trkpt lat="47.4921190" lon="6.8338620">
        <ele>326.0</ele>
        <time>2022-07-20T12:14:53Z</time>
      </trkpt>
      <trkpt lat="47.4918580" lon="6.8337720">
        <ele>326.6</ele>
        <time>2022-07-20T12:15:00Z</time>
      </trkpt>
      <trkpt lat="47.4918150" lon="6.8337600">
        <ele>327.0</ele>
        <time>2022-07-20T12:15:01Z</time>
      </trkpt>
      <trkpt lat="47.4914460" lon="6.8336540">
        <ele>327.8</ele>
        <time>2022-07-20T12:15:10Z</time>
      </trkpt>
      <trkpt lat="47.4912130" lon="6.8335820">
        <ele>328.2</ele>
        <time>2022-07-20T12:15:16Z</time>
      </trkpt>
      <trkpt lat="47.4910970" lon="6.8335480">
        <ele>328.2</ele>
        <time>2022-07-20T12:15:19Z</time>
      </trkpt>
      <trkpt lat="47.4906880" lon="6.8334210">
        <ele>328.8</ele>
        <time>2022-07-20T12:15:29Z</time>
      </trkpt>
      <trkpt lat="47.4903980" lon="6.8333430">
        <ele>329.2</ele>
        <time>2022-07-20T12:15:36Z</time>
      </trkpt>
      <trkpt lat="47.4903130" lon="6.8333220">
        <ele>329.4</ele>
        <time>2022-07-20T12:15:38Z</time>
      </trkpt>
      <trkpt lat="47.4899550" lon="6.8332140">
        <ele>329.8</ele>
        <time>2022-07-20T12:15:47Z</time>
      </trkpt>
      <trkpt lat="47.4896940" lon="6.8331350">
        <ele>330.4</ele>
        <time>2022-07-20T12:15:54Z</time>
      </trkpt>
      <trkpt lat="47.4895620" lon="6.8330900">
        <ele>330.6</ele>
        <time>2022-07-20T12:15:57Z</time>
      </trkpt>
      <trkpt lat="47.4892520" lon="6.8330570">
        <ele>330.8</ele>
        <time>2022-07-20T12:16:03Z</time>
      </trkpt>
      <trkpt lat="47.4890410" lon="6.8331350">
        <ele>330.6</ele>
        <time>2022-07-20T12:16:07Z</time>
      </trkpt>
      <trkpt lat="47.4889900" lon="6.8331650">
        <ele>330.4</ele>
        <time>2022-07-20T12:16:08Z</time>
      </trkpt>
      <trkpt lat="47.4888450" lon="6.8332790">
        <ele>330.0</ele>
        <time>2022-07-20T12:16:11Z</time>
      </trkpt>
      <trkpt lat="47.4887590" lon="6.8333820">
        <ele>329.6</ele>
        <time>2022-07-20T12:16:13Z</time>
      </trkpt>
      <trkpt lat="47.4886730" lon="6.8334930">
        <ele>329.4</ele>
        <time>2022-07-20T12:16:15Z</time>
      </trkpt>
      <trkpt lat="47.4884570" lon="6.8337890">
        <ele>329.0</ele>
        <time>2022-07-20T12:16:20Z</time>
      </trkpt>
      <trkpt lat="47.4881410" lon="6.8342040">
        <ele>328.4</ele>
        <time>2022-07-20T12:16:27Z</time>
      </trkpt>
      <trkpt lat="47.4880970" lon="6.8342690">
        <ele>328.4</ele>
        <time>2022-07-20T12:16:28Z</time>
      </trkpt>
      <trkpt lat="47.4878750" lon="6.8345940">
        <ele>328.0</ele>
        <time>2022-07-20T12:16:33Z</time>
      </trkpt>
      <trkpt lat="47.4877380" lon="6.8349090">
        <ele>327.8</ele>
        <time>2022-07-20T12:16:37Z</time>
      </trkpt>
      <trkpt lat="47.4877130" lon="6.8349970">
        <ele>327.8</ele>
        <time>2022-07-20T12:16:38Z</time>
      </trkpt>
      <trkpt lat="47.4876940" lon="6.8350840">
        <ele>327.6</ele>
        <time>2022-07-20T12:16:39Z</time>
      </trkpt>
      <trkpt lat="47.4876680" lon="6.8352620">
        <ele>327.2</ele>
        <time>2022-07-20T12:16:41Z</time>
      </trkpt>
      <trkpt lat="47.4876610" lon="6.8353540">
        <ele>327.2</ele>
        <time>2022-07-20T12:16:42Z</time>
      </trkpt>
      <trkpt lat="47.4876570" lon="6.8354430">
        <ele>327.0</ele>
        <time>2022-07-20T12:16:43Z</time>
      </trkpt>
      <trkpt lat="47.4876580" lon="6.8355320">
        <ele>327.0</ele>
        <time>2022-07-20T12:16:44Z</time>
      </trkpt>
      <trkpt lat="47.4876980" lon="6.8358790">
        <ele>326.4</ele>
        <time>2022-07-20T12:16:48Z</time>
      </trkpt>
      <trkpt lat="47.4878100" lon="6.8365680">
        <ele>326.4</ele>
        <time>2022-07-20T12:16:56Z</time>
      </trkpt>
      <trkpt lat="47.4878180" lon="6.8366490">
        <ele>326.0</ele>
        <time>2022-07-20T12:16:57Z</time>
      </trkpt>
      <trkpt lat="47.4878170" lon="6.8367290">
        <ele>326.0</ele>
        <time>2022-07-20T12:16:58Z</time>
      </trkpt>
      <trkpt lat="47.4877770" lon="6.8369500">
        <ele>325.8</ele>
        <time>2022-07-20T12:17:01Z</time>
      </trkpt>
      <trkpt lat="47.4877400" lon="6.8370880">
        <ele>325.6</ele>
        <time>2022-07-20T12:17:03Z</time>
      </trkpt>
      <trkpt lat="47.4876650" lon="6.8373410">
        <ele>325.4</ele>
        <time>2022-07-20T12:17:07Z</time>
      </trkpt>
      <trkpt lat="47.4876180" lon="6.8374940">
        <ele>325.4</ele>
        <time>2022-07-20T12:17:10Z</time>
      </trkpt>
      <trkpt lat="47.4875880" lon="6.8375720">
        <ele>325.4</ele>
        <time>2022-07-20T12:17:14Z</time>
      </trkpt>
      <trkpt lat="47.4876220" lon="6.8375720">
        <ele>325.2</ele>
        <time>2022-07-20T12:17:17Z</time>
      </trkpt>
      <trkpt lat="47.4876550" lon="6.8375840">
        <ele>325.2</ele>
        <time>2022-07-20T12:17:19Z</time>
      </trkpt>
      <trkpt lat="47.4876940" lon="6.8376230">
        <ele>325.2</ele>
        <time>2022-07-20T12:17:21Z</time>
      </trkpt>
      <trkpt lat="47.4877960" lon="6.8377150">
        <ele>325.2</ele>
        <time>2022-07-20T12:17:25Z</time>
      </trkpt>
      <trkpt lat="47.4878540" lon="6.8378170">
        <ele>325.2</ele>
        <time>2022-07-20T12:17:28Z</time>
      </trkpt>
      <trkpt lat="47.4878520" lon="6.8378660">
        <ele>325.2</ele>
        <time>2022-07-20T12:17:29Z</time>
      </trkpt>
      <trkpt lat="47.4877630" lon="6.8380960">
        <ele>325.2</ele>
        <time>2022-07-20T12:17:34Z</time>
      </trkpt>
      <trkpt lat="47.4877220" lon="6.8383260">
        <ele>325.4</ele>
        <time>2022-07-20T12:17:39Z</time>
      </trkpt>
      <trkpt lat="47.4877330" lon="6.8383710">
        <ele>325.4</ele>
        <time>2022-07-20T12:17:40Z</time>
      </trkpt>
      <trkpt lat="47.4877700" lon="6.8384430">
        <ele>325.4</ele>
        <time>2022-07-20T12:17:42Z</time>
      </trkpt>
      <trkpt lat="47.4877670" lon="6.8386300">
        <ele>325.4</ele>
        <time>2022-07-20T12:17:46Z</time>
      </trkpt>
      <trkpt lat="47.4877290" lon="6.8387270">
        <ele>325.2</ele>
        <time>2022-07-20T12:17:48Z</time>
      </trkpt>
      <trkpt lat="47.4876360" lon="6.8389200">
        <ele>325.2</ele>
        <time>2022-07-20T12:17:52Z</time>
      </trkpt>
      <trkpt lat="47.4875640" lon="6.8390700">
        <ele>325.2</ele>
        <time>2022-07-20T12:17:55Z</time>
      </trkpt>
      <trkpt lat="47.4875050" lon="6.8392410">
        <ele>325.2</ele>
        <time>2022-07-20T12:17:58Z</time>
      </trkpt>
      <trkpt lat="47.4874570" lon="6.8393470">
        <ele>325.0</ele>
        <time>2022-07-20T12:18:00Z</time>
      </trkpt>
      <trkpt lat="47.4873140" lon="6.8396010">
        <ele>325.0</ele>
        <time>2022-07-20T12:18:05Z</time>
      </trkpt>
      <trkpt lat="47.4870780" lon="6.8399700">
        <ele>325.0</ele>
        <time>2022-07-20T12:18:13Z</time>
      </trkpt>
      <trkpt lat="47.4868810" lon="6.8402750">
        <ele>325.0</ele>
        <time>2022-07-20T12:18:20Z</time>
      </trkpt>
      <trkpt lat="47.4866690" lon="6.8406050">
        <ele>325.0</ele>
        <time>2022-07-20T12:18:27Z</time>
      </trkpt>
      <trkpt lat="47.4864130" lon="6.8409610">
        <ele>325.0</ele>
        <time>2022-07-20T12:18:35Z</time>
      </trkpt>
      <trkpt lat="47.4862020" lon="6.8412660">
        <ele>325.4</ele>
        <time>2022-07-20T12:18:42Z</time>
      </trkpt>
      <trkpt lat="47.4861060" lon="6.8414290">
        <ele>325.4</ele>
        <time>2022-07-20T12:18:47Z</time>
      </trkpt>
      <trkpt lat="47.4860630" lon="6.8414840">
        <ele>325.6</ele>
        <time>2022-07-20T12:18:52Z</time>
      </trkpt>
      <trkpt lat="47.4860600" lon="6.8414970">
        <ele>325.6</ele>
        <time>2022-07-20T12:18:55Z</time>
      </trkpt>
      <trkpt lat="47.4860010" lon="6.8415610">
        <ele>325.6</ele>
        <time>2022-07-20T12:19:00Z</time>
      </trkpt>
      <trkpt lat="47.4859810" lon="6.8415870">
        <ele>325.6</ele>
        <time>2022-07-20T12:19:01Z</time>
      </trkpt>
      <trkpt lat="47.4858270" lon="6.8417940">
        <ele>325.6</ele>
        <time>2022-07-20T12:19:07Z</time>
      </trkpt>
      <trkpt lat="47.4856600" lon="6.8420160">
        <ele>325.8</ele>
        <time>2022-07-20T12:19:13Z</time>
      </trkpt>
      <trkpt lat="47.4854200" lon="6.8423350">
        <ele>326.2</ele>
        <time>2022-07-20T12:19:21Z</time>
      </trkpt>
      <trkpt lat="47.4852280" lon="6.8425870">
        <ele>326.2</ele>
        <time>2022-07-20T12:19:27Z</time>
      </trkpt>
      <trkpt lat="47.4850100" lon="6.8428860">
        <ele>326.4</ele>
        <time>2022-07-20T12:19:34Z</time>
      </trkpt>
      <trkpt lat="47.4848500" lon="6.8430960">
        <ele>326.6</ele>
        <time>2022-07-20T12:19:39Z</time>
      </trkpt>
      <trkpt lat="47.4847870" lon="6.8431760">
        <ele>326.8</ele>
        <time>2022-07-20T12:19:41Z</time>
      </trkpt>
      <trkpt lat="47.4845650" lon="6.8434220">
        <ele>327.6</ele>
        <time>2022-07-20T12:19:48Z</time>
      </trkpt>
      <trkpt lat="47.4845330" lon="6.8434590">
        <ele>327.8</ele>
        <time>2022-07-20T12:19:49Z</time>
      </trkpt>
      <trkpt lat="47.4843460" lon="6.8436710">
        <ele>328.2</ele>
        <time>2022-07-20T12:19:55Z</time>
      </trkpt>
      <trkpt lat="47.4840790" lon="6.8439670">
        <ele>328.8</ele>
        <time>2022-07-20T12:20:03Z</time>
      </trkpt>
      <trkpt lat="47.4837380" lon="6.8443360">
        <ele>329.4</ele>
        <time>2022-07-20T12:20:13Z</time>
      </trkpt>
      <trkpt lat="47.4834990" lon="6.8445720">
        <ele>330.0</ele>
        <time>2022-07-20T12:20:20Z</time>
      </trkpt>
      <trkpt lat="47.4834000" lon="6.8446710">
        <ele>330.2</ele>
        <time>2022-07-20T12:20:23Z</time>
      </trkpt>
      <trkpt lat="47.4831780" lon="6.8448940">
        <ele>330.6</ele>
        <time>2022-07-20T12:20:30Z</time>
      </trkpt>
      <trkpt lat="47.4829270" lon="6.8451300">
        <ele>331.0</ele>
        <time>2022-07-20T12:20:38Z</time>
      </trkpt>
      <trkpt lat="47.4828960" lon="6.8451640">
        <ele>331.0</ele>
        <time>2022-07-20T12:20:39Z</time>
      </trkpt>
      <trkpt lat="47.4826660" lon="6.8454170">
        <ele>331.4</ele>
        <time>2022-07-20T12:20:46Z</time>
      </trkpt>
      <trkpt lat="47.4823910" lon="6.8456940">
        <ele>331.6</ele>
        <time>2022-07-20T12:20:54Z</time>
      </trkpt>
      <trkpt lat="47.4820980" lon="6.8459940">
        <ele>331.6</ele>
        <time>2022-07-20T12:21:02Z</time>
      </trkpt>
      <trkpt lat="47.4817960" lon="6.8463000">
        <ele>331.6</ele>
        <time>2022-07-20T12:21:10Z</time>
      </trkpt>
      <trkpt lat="47.4815420" lon="6.8465380">
        <ele>331.8</ele>
        <time>2022-07-20T12:21:17Z</time>
      </trkpt>
      <trkpt lat="47.4813090" lon="6.8467800">
        <ele>332.2</ele>
        <time>2022-07-20T12:21:24Z</time>
      </trkpt>
      <trkpt lat="47.4812440" lon="6.8468470">
        <ele>332.4</ele>
        <time>2022-07-20T12:21:26Z</time>
      </trkpt>
      <trkpt lat="47.4810500" lon="6.8470360">
        <ele>333.0</ele>
        <time>2022-07-20T12:21:32Z</time>
      </trkpt>
      <trkpt lat="47.4808180" lon="6.8472580">
        <ele>333.4</ele>
        <time>2022-07-20T12:21:39Z</time>
      </trkpt>
      <trkpt lat="47.4807850" lon="6.8472910">
        <ele>333.4</ele>
        <time>2022-07-20T12:21:40Z</time>
      </trkpt>
      <trkpt lat="47.4806340" lon="6.8474420">
        <ele>333.8</ele>
        <time>2022-07-20T12:21:45Z</time>
      </trkpt>
      <trkpt lat="47.4806040" lon="6.8474750">
        <ele>333.8</ele>
        <time>2022-07-20T12:21:46Z</time>
      </trkpt>
      <trkpt lat="47.4804160" lon="6.8476620">
        <ele>334.0</ele>
        <time>2022-07-20T12:21:52Z</time>
      </trkpt>
      <trkpt lat="47.4802200" lon="6.8478670">
        <ele>334.4</ele>
        <time>2022-07-20T12:21:58Z</time>
      </trkpt>
      <trkpt lat="47.4799530" lon="6.8481580">
        <ele>335.0</ele>
        <time>2022-07-20T12:22:06Z</time>
      </trkpt>
      <trkpt lat="47.4797390" lon="6.8484190">
        <ele>335.4</ele>
        <time>2022-07-20T12:22:13Z</time>
      </trkpt>
      <trkpt lat="47.4797100" lon="6.8484580">
        <ele>335.4</ele>
        <time>2022-07-20T12:22:14Z</time>
      </trkpt>
      <trkpt lat="47.4795650" lon="6.8486260">
        <ele>335.6</ele>
        <time>2022-07-20T12:22:20Z</time>
      </trkpt>
      <trkpt lat="47.4795220" lon="6.8486390">
        <ele>335.8</ele>
        <time>2022-07-20T12:22:23Z</time>
      </trkpt>
      <trkpt lat="47.4794790" lon="6.8486260">
        <ele>335.8</ele>
        <time>2022-07-20T12:22:25Z</time>
      </trkpt>
      <trkpt lat="47.4792880" lon="6.8485950">
        <ele>336.0</ele>
        <time>2022-07-20T12:22:31Z</time>
      </trkpt>
      <trkpt lat="47.4791370" lon="6.8486880">
        <ele>335.8</ele>
        <time>2022-07-20T12:22:35Z</time>
      </trkpt>
      <trkpt lat="47.4790630" lon="6.8487400">
        <ele>335.4</ele>
        <time>2022-07-20T12:22:37Z</time>
      </trkpt>
      <trkpt lat="47.4789410" lon="6.8487700">
        <ele>335.0</ele>
        <time>2022-07-20T12:22:40Z</time>
      </trkpt>
      <trkpt lat="47.4788770" lon="6.8487600">
        <ele>334.4</ele>
        <time>2022-07-20T12:22:42Z</time>
      </trkpt>
      <trkpt lat="47.4788000" lon="6.8487590">
        <ele>333.8</ele>
        <time>2022-07-20T12:22:45Z</time>
      </trkpt>
      <trkpt lat="47.4786820" lon="6.8488840">
        <ele>333.4</ele>
        <time>2022-07-20T12:22:50Z</time>
      </trkpt>
      <trkpt lat="47.4785830" lon="6.8489710">
        <ele>333.4</ele>
        <time>2022-07-20T12:22:55Z</time>
      </trkpt>
      <trkpt lat="47.4785720" lon="6.8489720">
        <ele>333.4</ele>
        <time>2022-07-20T12:22:56Z</time>
      </trkpt>
      <trkpt lat="47.4785440" lon="6.8489710">
        <ele>333.6</ele>
        <time>2022-07-20T12:23:00Z</time>
      </trkpt>
      <trkpt lat="47.4785320" lon="6.8489530">
        <ele>333.6</ele>
        <time>2022-07-20T12:23:01Z</time>
      </trkpt>
      <trkpt lat="47.4784210" lon="6.8488260">
        <ele>333.6</ele>
        <time>2022-07-20T12:23:06Z</time>
      </trkpt>
      <trkpt lat="47.4782420" lon="6.8487470">
        <ele>333.8</ele>
        <time>2022-07-20T12:23:12Z</time>
      </trkpt>
      <trkpt lat="47.4779520" lon="6.8486280">
        <ele>334.8</ele>
        <time>2022-07-20T12:23:21Z</time>
      </trkpt>
      <trkpt lat="47.4777890" lon="6.8485260">
        <ele>335.4</ele>
        <time>2022-07-20T12:23:26Z</time>
      </trkpt>
      <trkpt lat="47.4776650" lon="6.8484220">
        <ele>336.0</ele>
        <time>2022-07-20T12:23:30Z</time>
      </trkpt>
      <trkpt lat="47.4773880" lon="6.8481110">
        <ele>336.4</ele>
        <time>2022-07-20T12:23:40Z</time>
      </trkpt>
      <trkpt lat="47.4772610" lon="6.8479470">
        <ele>336.6</ele>
        <time>2022-07-20T12:23:45Z</time>
      </trkpt>
      <trkpt lat="47.4771620" lon="6.8478000">
        <ele>336.8</ele>
        <time>2022-07-20T12:23:49Z</time>
      </trkpt>
      <trkpt lat="47.4769770" lon="6.8474410">
        <ele>337.0</ele>
        <time>2022-07-20T12:23:57Z</time>
      </trkpt>
      <trkpt lat="47.4768240" lon="6.8469840">
        <ele>337.0</ele>
        <time>2022-07-20T12:24:05Z</time>
      </trkpt>
      <trkpt lat="47.4766290" lon="6.8465250">
        <ele>336.8</ele>
        <time>2022-07-20T12:24:13Z</time>
      </trkpt>
      <trkpt lat="47.4764520" lon="6.8461920">
        <ele>336.4</ele>
        <time>2022-07-20T12:24:19Z</time>
      </trkpt>
      <trkpt lat="47.4762320" lon="6.8458920">
        <ele>336.0</ele>
        <time>2022-07-20T12:24:25Z</time>
      </trkpt>
      <trkpt lat="47.4761880" lon="6.8458550">
        <ele>336.0</ele>
        <time>2022-07-20T12:24:26Z</time>
      </trkpt>
      <trkpt lat="47.4760930" lon="6.8457930">
        <ele>335.4</ele>
        <time>2022-07-20T12:24:28Z</time>
      </trkpt>
      <trkpt lat="47.4759020" lon="6.8456960">
        <ele>334.8</ele>
        <time>2022-07-20T12:24:32Z</time>
      </trkpt>
      <trkpt lat="47.4758570" lon="6.8456780">
        <ele>334.6</ele>
        <time>2022-07-20T12:24:33Z</time>
      </trkpt>
      <trkpt lat="47.4757560" lon="6.8456310">
        <ele>334.4</ele>
        <time>2022-07-20T12:24:36Z</time>
      </trkpt>
      <trkpt lat="47.4757370" lon="6.8456230">
        <ele>334.0</ele>
        <time>2022-07-20T12:24:37Z</time>
      </trkpt>
      <trkpt lat="47.4757150" lon="6.8456080">
        <ele>333.0</ele>
        <time>2022-07-20T12:24:40Z</time>
      </trkpt>
      <trkpt lat="47.4757140" lon="6.8456060">
        <ele>332.8</ele>
        <time>2022-07-20T12:24:41Z</time>
      </trkpt>
      <trkpt lat="47.4757150" lon="6.8456050">
        <ele>332.6</ele>
        <time>2022-07-20T12:24:42Z</time>
      </trkpt>
      <trkpt lat="47.4756730" lon="6.8455780">
        <ele>331.4</ele>
        <time>2022-07-20T12:24:50Z</time>
      </trkpt>
      <trkpt lat="47.4756290" lon="6.8455430">
        <ele>331.2</ele>
        <time>2022-07-20T12:24:52Z</time>
      </trkpt>
      <trkpt lat="47.4754450" lon="6.8454090">
        <ele>331.2</ele>
        <time>2022-07-20T12:24:58Z</time>
      </trkpt>
      <trkpt lat="47.4751700" lon="6.8452240">
        <ele>331.2</ele>
        <time>2022-07-20T12:25:05Z</time>
      </trkpt>
      <trkpt lat="47.4748750" lon="6.8450370">
        <ele>331.2</ele>
        <time>2022-07-20T12:25:12Z</time>
      </trkpt>
      <trkpt lat="47.4744860" lon="6.8448920">
        <ele>331.2</ele>
        <time>2022-07-20T12:25:21Z</time>
      </trkpt>
      <trkpt lat="47.4744020" lon="6.8448830">
        <ele>331.2</ele>
        <time>2022-07-20T12:25:23Z</time>
      </trkpt>
      <trkpt lat="47.4742430" lon="6.8447970">
        <ele>331.2</ele>
        <time>2022-07-20T12:25:27Z</time>
      </trkpt>
      <trkpt lat="47.4738880" lon="6.8444830">
        <ele>331.2</ele>
        <time>2022-07-20T12:25:36Z</time>
      </trkpt>
      <trkpt lat="47.4738520" lon="6.8444380">
        <ele>331.2</ele>
        <time>2022-07-20T12:25:37Z</time>
      </trkpt>
      <trkpt lat="47.4736880" lon="6.8442800">
        <ele>331.2</ele>
        <time>2022-07-20T12:25:41Z</time>
      </trkpt>
      <trkpt lat="47.4736440" lon="6.8442460">
        <ele>331.2</ele>
        <time>2022-07-20T12:25:42Z</time>
      </trkpt>
      <trkpt lat="47.4734660" lon="6.8441090">
        <ele>331.2</ele>
        <time>2022-07-20T12:25:46Z</time>
      </trkpt>
      <trkpt lat="47.4732750" lon="6.8439920">
        <ele>331.0</ele>
        <time>2022-07-20T12:25:50Z</time>
      </trkpt>
      <trkpt lat="47.4728590" lon="6.8437230">
        <ele>330.4</ele>
        <time>2022-07-20T12:25:59Z</time>
      </trkpt>
      <trkpt lat="47.4726390" lon="6.8435490">
        <ele>330.2</ele>
        <time>2022-07-20T12:26:04Z</time>
      </trkpt>
      <trkpt lat="47.4725150" lon="6.8434300">
        <ele>330.0</ele>
        <time>2022-07-20T12:26:07Z</time>
      </trkpt>
      <trkpt lat="47.4723640" lon="6.8432470">
        <ele>329.8</ele>
        <time>2022-07-20T12:26:12Z</time>
      </trkpt>
      <trkpt lat="47.4722940" lon="6.8431320">
        <ele>329.6</ele>
        <time>2022-07-20T12:26:18Z</time>
      </trkpt>
      <trkpt lat="47.4721850" lon="6.8429150">
        <ele>329.6</ele>
        <time>2022-07-20T12:26:24Z</time>
      </trkpt>
      <trkpt lat="47.4720890" lon="6.8427590">
        <ele>330.0</ele>
        <time>2022-07-20T12:26:30Z</time>
      </trkpt>
      <trkpt lat="47.4720330" lon="6.8426580">
        <ele>330.2</ele>
        <time>2022-07-20T12:26:35Z</time>
      </trkpt>
      <trkpt lat="47.4718480" lon="6.8424010">
        <ele>330.4</ele>
        <time>2022-07-20T12:26:42Z</time>
      </trkpt>
      <trkpt lat="47.4716530" lon="6.8420860">
        <ele>330.6</ele>
        <time>2022-07-20T12:26:50Z</time>
      </trkpt>
      <trkpt lat="47.4714920" lon="6.8418210">
        <ele>330.8</ele>
        <time>2022-07-20T12:26:56Z</time>
      </trkpt>
      <trkpt lat="47.4714340" lon="6.8417310">
        <ele>331.0</ele>
        <time>2022-07-20T12:26:58Z</time>
      </trkpt>
      <trkpt lat="47.4713100" lon="6.8415650">
        <ele>331.2</ele>
        <time>2022-07-20T12:27:02Z</time>
      </trkpt>
      <trkpt lat="47.4711250" lon="6.8413190">
        <ele>331.2</ele>
        <time>2022-07-20T12:27:08Z</time>
      </trkpt>
      <trkpt lat="47.4710910" lon="6.8412800">
        <ele>331.2</ele>
        <time>2022-07-20T12:27:09Z</time>
      </trkpt>
      <trkpt lat="47.4708800" lon="6.8411210">
        <ele>331.2</ele>
        <time>2022-07-20T12:27:15Z</time>
      </trkpt>
      <trkpt lat="47.4707210" lon="6.8410620">
        <ele>331.2</ele>
        <time>2022-07-20T12:27:19Z</time>
      </trkpt>
      <trkpt lat="47.4706390" lon="6.8410510">
        <ele>331.4</ele>
        <time>2022-07-20T12:27:21Z</time>
      </trkpt>
      <trkpt lat="47.4704080" lon="6.8410720">
        <ele>331.4</ele>
        <time>2022-07-20T12:27:27Z</time>
      </trkpt>
      <trkpt lat="47.4700740" lon="6.8411710">
        <ele>331.6</ele>
        <time>2022-07-20T12:27:35Z</time>
      </trkpt>
      <trkpt lat="47.4697300" lon="6.8412760">
        <ele>331.6</ele>
        <time>2022-07-20T12:27:43Z</time>
      </trkpt>
      <trkpt lat="47.4694410" lon="6.8414090">
        <ele>331.8</ele>
        <time>2022-07-20T12:27:50Z</time>
      </trkpt>
      <trkpt lat="47.4691540" lon="6.8415570">
        <ele>332.0</ele>
        <time>2022-07-20T12:27:57Z</time>
      </trkpt>
      <trkpt lat="47.4689160" lon="6.8416710">
        <ele>332.0</ele>
        <time>2022-07-20T12:28:03Z</time>
      </trkpt>
      <trkpt lat="47.4686650" lon="6.8417780">
        <ele>332.2</ele>
        <time>2022-07-20T12:28:09Z</time>
      </trkpt>
      <trkpt lat="47.4685320" lon="6.8418210">
        <ele>332.2</ele>
        <time>2022-07-20T12:28:12Z</time>
      </trkpt>
      <trkpt lat="47.4684060" lon="6.8418490">
        <ele>332.2</ele>
        <time>2022-07-20T12:28:15Z</time>
      </trkpt>
      <trkpt lat="47.4680940" lon="6.8419110">
        <ele>332.4</ele>
        <time>2022-07-20T12:28:22Z</time>
      </trkpt>
      <trkpt lat="47.4678660" lon="6.8419570">
        <ele>332.4</ele>
        <time>2022-07-20T12:28:27Z</time>
      </trkpt>
      <trkpt lat="47.4677750" lon="6.8419700">
        <ele>332.4</ele>
        <time>2022-07-20T12:28:29Z</time>
      </trkpt>
      <trkpt lat="47.4674260" lon="6.8419880">
        <ele>332.6</ele>
        <time>2022-07-20T12:28:37Z</time>
      </trkpt>
      <trkpt lat="47.4670680" lon="6.8419970">
        <ele>332.8</ele>
        <time>2022-07-20T12:28:45Z</time>
      </trkpt>
      <trkpt lat="47.4667580" lon="6.8420000">
        <ele>332.8</ele>
        <time>2022-07-20T12:28:52Z</time>
      </trkpt>
      <trkpt lat="47.4664410" lon="6.8420260">
        <ele>332.8</ele>
        <time>2022-07-20T12:28:59Z</time>
      </trkpt>
      <trkpt lat="47.4663940" lon="6.8420320">
        <ele>332.8</ele>
        <time>2022-07-20T12:29:00Z</time>
      </trkpt>
      <trkpt lat="47.4661060" lon="6.8420880">
        <ele>332.6</ele>
        <time>2022-07-20T12:29:06Z</time>
      </trkpt>
      <trkpt lat="47.4657850" lon="6.8421630">
        <ele>332.6</ele>
        <time>2022-07-20T12:29:13Z</time>
      </trkpt>
      <trkpt lat="47.4654710" lon="6.8422220">
        <ele>332.6</ele>
        <time>2022-07-20T12:29:20Z</time>
      </trkpt>
      <trkpt lat="47.4650620" lon="6.8422580">
        <ele>332.6</ele>
        <time>2022-07-20T12:29:29Z</time>
      </trkpt>
      <trkpt lat="47.4646080" lon="6.8422550">
        <ele>332.8</ele>
        <time>2022-07-20T12:29:39Z</time>
      </trkpt>
      <trkpt lat="47.4641080" lon="6.8422330">
        <ele>333.0</ele>
        <time>2022-07-20T12:29:50Z</time>
      </trkpt>
      <trkpt lat="47.4640190" lon="6.8422250">
        <ele>333.0</ele>
        <time>2022-07-20T12:29:52Z</time>
      </trkpt>
      <trkpt lat="47.4637050" lon="6.8421850">
        <ele>333.0</ele>
        <time>2022-07-20T12:29:59Z</time>
      </trkpt>
      <trkpt lat="47.4634000" lon="6.8421570">
        <ele>333.0</ele>
        <time>2022-07-20T12:30:06Z</time>
      </trkpt>
      <trkpt lat="47.4629670" lon="6.8421140">
        <ele>333.0</ele>
        <time>2022-07-20T12:30:15Z</time>
      </trkpt>
      <trkpt lat="47.4625510" lon="6.8420830">
        <ele>333.0</ele>
        <time>2022-07-20T12:30:24Z</time>
      </trkpt>
      <trkpt lat="47.4625050" lon="6.8420820">
        <ele>333.0</ele>
        <time>2022-07-20T12:30:25Z</time>
      </trkpt>
      <trkpt lat="47.4623740" lon="6.8420850">
        <ele>333.0</ele>
        <time>2022-07-20T12:30:28Z</time>
      </trkpt>
      <trkpt lat="47.4623280" lon="6.8420740">
        <ele>333.0</ele>
        <time>2022-07-20T12:30:29Z</time>
      </trkpt>
      <trkpt lat="47.4620800" lon="6.8419950">
        <ele>333.0</ele>
        <time>2022-07-20T12:30:35Z</time>
      </trkpt>
      <trkpt lat="47.4617610" lon="6.8419240">
        <ele>333.2</ele>
        <time>2022-07-20T12:30:43Z</time>
      </trkpt>
      <trkpt lat="47.4614310" lon="6.8418510">
        <ele>333.6</ele>
        <time>2022-07-20T12:30:51Z</time>
      </trkpt>
      <trkpt lat="47.4613480" lon="6.8418310">
        <ele>333.6</ele>
        <time>2022-07-20T12:30:53Z</time>
      </trkpt>
      <trkpt lat="47.4611090" lon="6.8417820">
        <ele>333.8</ele>
        <time>2022-07-20T12:30:59Z</time>
      </trkpt>
      <trkpt lat="47.4608140" lon="6.8417280">
        <ele>334.0</ele>
        <time>2022-07-20T12:31:07Z</time>
      </trkpt>
      <trkpt lat="47.4605970" lon="6.8416930">
        <ele>334.4</ele>
        <time>2022-07-20T12:31:13Z</time>
      </trkpt>
      <trkpt lat="47.4605670" lon="6.8416870">
        <ele>334.8</ele>
        <time>2022-07-20T12:31:14Z</time>
      </trkpt>
      <trkpt lat="47.4604450" lon="6.8416780">
        <ele>335.0</ele>
        <time>2022-07-20T12:31:18Z</time>
      </trkpt>
      <trkpt lat="47.4603870" lon="6.8417200">
        <ele>335.2</ele>
        <time>2022-07-20T12:31:20Z</time>
      </trkpt>
      <trkpt lat="47.4602640" lon="6.8417650">
        <ele>335.4</ele>
        <time>2022-07-20T12:31:25Z</time>
      </trkpt>
      <trkpt lat="47.4602430" lon="6.8417590">
        <ele>335.6</ele>
        <time>2022-07-20T12:31:26Z</time>
      </trkpt>
      <trkpt lat="47.4602140" lon="6.8417640">
        <ele>336.0</ele>
        <time>2022-07-20T12:31:30Z</time>
      </trkpt>
      <trkpt lat="47.4601640" lon="6.8417480">
        <ele>336.2</ele>
        <time>2022-07-20T12:31:33Z</time>
      </trkpt>
      <trkpt lat="47.4601360" lon="6.8417200">
        <ele>336.2</ele>
        <time>2022-07-20T12:31:34Z</time>
      </trkpt>
      <trkpt lat="47.4600810" lon="6.8416290">
        <ele>336.2</ele>
        <time>2022-07-20T12:31:36Z</time>
      </trkpt>
      <trkpt lat="47.4600030" lon="6.8415580">
        <ele>336.2</ele>
        <time>2022-07-20T12:31:38Z</time>
      </trkpt>
      <trkpt lat="47.4598720" lon="6.8414890">
        <ele>336.2</ele>
        <time>2022-07-20T12:31:41Z</time>
      </trkpt>
      <trkpt lat="47.4597030" lon="6.8413880">
        <ele>336.2</ele>
        <time>2022-07-20T12:31:45Z</time>
      </trkpt>
      <trkpt lat="47.4591910" lon="6.8410650">
        <ele>335.4</ele>
        <time>2022-07-20T12:31:57Z</time>
      </trkpt>
      <trkpt lat="47.4591480" lon="6.8410350">
        <ele>335.4</ele>
        <time>2022-07-20T12:31:58Z</time>
      </trkpt>
      <trkpt lat="47.4587220" lon="6.8407320">
        <ele>335.2</ele>
        <time>2022-07-20T12:32:08Z</time>
      </trkpt>
      <trkpt lat="47.4584200" lon="6.8405720">
        <ele>335.0</ele>
        <time>2022-07-20T12:32:15Z</time>
      </trkpt>
      <trkpt lat="47.4580620" lon="6.8404200">
        <ele>334.6</ele>
        <time>2022-07-20T12:32:23Z</time>
      </trkpt>
      <trkpt lat="47.4578730" lon="6.8403670">
        <ele>334.4</ele>
        <time>2022-07-20T12:32:27Z</time>
      </trkpt>
      <trkpt lat="47.4576780" lon="6.8403210">
        <ele>334.4</ele>
        <time>2022-07-20T12:32:31Z</time>
      </trkpt>
      <trkpt lat="47.4572860" lon="6.8402710">
        <ele>334.2</ele>
        <time>2022-07-20T12:32:39Z</time>
      </trkpt>
      <trkpt lat="47.4569510" lon="6.8402270">
        <ele>334.2</ele>
        <time>2022-07-20T12:32:46Z</time>
      </trkpt>
      <trkpt lat="47.4566580" lon="6.8401680">
        <ele>334.2</ele>
        <time>2022-07-20T12:32:52Z</time>
      </trkpt>
      <trkpt lat="47.4563390" lon="6.8401250">
        <ele>334.2</ele>
        <time>2022-07-20T12:32:59Z</time>
      </trkpt>
      <trkpt lat="47.4559870" lon="6.8400810">
        <ele>334.0</ele>
        <time>2022-07-20T12:33:07Z</time>
      </trkpt>
      <trkpt lat="47.4557270" lon="6.8400280">
        <ele>334.0</ele>
        <time>2022-07-20T12:33:13Z</time>
      </trkpt>
      <trkpt lat="47.4555050" lon="6.8400030">
        <ele>334.2</ele>
        <time>2022-07-20T12:33:18Z</time>
      </trkpt>
      <trkpt lat="47.4552650" lon="6.8399380">
        <ele>334.2</ele>
        <time>2022-07-20T12:33:23Z</time>
      </trkpt>
      <trkpt lat="47.4550250" lon="6.8398700">
        <ele>334.4</ele>
        <time>2022-07-20T12:33:29Z</time>
      </trkpt>
      <trkpt lat="47.4547540" lon="6.8398380">
        <ele>334.6</ele>
        <time>2022-07-20T12:33:36Z</time>
      </trkpt>
      <trkpt lat="47.4545000" lon="6.8397560">
        <ele>334.8</ele>
        <time>2022-07-20T12:33:43Z</time>
      </trkpt>
      <trkpt lat="47.4543110" lon="6.8396740">
        <ele>335.4</ele>
        <time>2022-07-20T12:33:48Z</time>
      </trkpt>
      <trkpt lat="47.4542010" lon="6.8396200">
        <ele>335.4</ele>
        <time>2022-07-20T12:33:51Z</time>
      </trkpt>
      <trkpt lat="47.4538370" lon="6.8395010">
        <ele>335.4</ele>
        <time>2022-07-20T12:34:00Z</time>
      </trkpt>
      <trkpt lat="47.4534940" lon="6.8394190">
        <ele>335.6</ele>
        <time>2022-07-20T12:34:08Z</time>
      </trkpt>
      <trkpt lat="47.4531750" lon="6.8393720">
        <ele>335.8</ele>
        <time>2022-07-20T12:34:16Z</time>
      </trkpt>
      <trkpt lat="47.4529540" lon="6.8393300">
        <ele>335.8</ele>
        <time>2022-07-20T12:34:23Z</time>
      </trkpt>
      <trkpt lat="47.4527120" lon="6.8393330">
        <ele>335.8</ele>
        <time>2022-07-20T12:34:30Z</time>
      </trkpt>
      <trkpt lat="47.4525340" lon="6.8393880">
        <ele>336.0</ele>
        <time>2022-07-20T12:34:36Z</time>
      </trkpt>
      <trkpt lat="47.4525070" lon="6.8394010">
        <ele>336.0</ele>
        <time>2022-07-20T12:34:37Z</time>
      </trkpt>
      <trkpt lat="47.4523750" lon="6.8394890">
        <ele>336.0</ele>
        <time>2022-07-20T12:34:42Z</time>
      </trkpt>
      <trkpt lat="47.4522230" lon="6.8394550">
        <ele>336.2</ele>
        <time>2022-07-20T12:34:47Z</time>
      </trkpt>
      <trkpt lat="47.4520230" lon="6.8392960">
        <ele>336.2</ele>
        <time>2022-07-20T12:34:54Z</time>
      </trkpt>
      <trkpt lat="47.4518900" lon="6.8391800">
        <ele>336.4</ele>
        <time>2022-07-20T12:34:59Z</time>
      </trkpt>
      <trkpt lat="47.4517300" lon="6.8391140">
        <ele>336.4</ele>
        <time>2022-07-20T12:35:04Z</time>
      </trkpt>
      <trkpt lat="47.4514790" lon="6.8391060">
        <ele>336.4</ele>
        <time>2022-07-20T12:35:11Z</time>
      </trkpt>
      <trkpt lat="47.4512110" lon="6.8391030">
        <ele>336.2</ele>
        <time>2022-07-20T12:35:18Z</time>
      </trkpt>
      <trkpt lat="47.4507840" lon="6.8390890">
        <ele>335.8</ele>
        <time>2022-07-20T12:35:28Z</time>
      </trkpt>
      <trkpt lat="47.4505130" lon="6.8390440">
        <ele>335.4</ele>
        <time>2022-07-20T12:35:34Z</time>
      </trkpt>
      <trkpt lat="47.4503440" lon="6.8389610">
        <ele>335.2</ele>
        <time>2022-07-20T12:35:38Z</time>
      </trkpt>
      <trkpt lat="47.4502600" lon="6.8389290">
        <ele>335.0</ele>
        <time>2022-07-20T12:35:40Z</time>
      </trkpt>
      <trkpt lat="47.4501800" lon="6.8388920">
        <ele>334.8</ele>
        <time>2022-07-20T12:35:42Z</time>
      </trkpt>
      <trkpt lat="47.4500220" lon="6.8388180">
        <ele>334.6</ele>
        <time>2022-07-20T12:35:46Z</time>
      </trkpt>
      <trkpt lat="47.4497880" lon="6.8387530">
        <ele>334.6</ele>
        <time>2022-07-20T12:35:52Z</time>
      </trkpt>
      <trkpt lat="47.4496060" lon="6.8386330">
        <ele>334.8</ele>
        <time>2022-07-20T12:35:57Z</time>
      </trkpt>
      <trkpt lat="47.4493560" lon="6.8384820">
        <ele>335.0</ele>
        <time>2022-07-20T12:36:04Z</time>
      </trkpt>
      <trkpt lat="47.4491960" lon="6.8382870">
        <ele>335.0</ele>
        <time>2022-07-20T12:36:10Z</time>
      </trkpt>
      <trkpt lat="47.4490080" lon="6.8379200">
        <ele>335.2</ele>
        <time>2022-07-20T12:36:19Z</time>
      </trkpt>
      <trkpt lat="47.4489090" lon="6.8376650">
        <ele>335.4</ele>
        <time>2022-07-20T12:36:25Z</time>
      </trkpt>
      <trkpt lat="47.4487690" lon="6.8373330">
        <ele>335.4</ele>
        <time>2022-07-20T12:36:32Z</time>
      </trkpt>
      <trkpt lat="47.4486690" lon="6.8370980">
        <ele>335.4</ele>
        <time>2022-07-20T12:36:38Z</time>
      </trkpt>
      <trkpt lat="47.4485690" lon="6.8368960">
        <ele>335.4</ele>
        <time>2022-07-20T12:36:44Z</time>
      </trkpt>
      <trkpt lat="47.4483630" lon="6.8366000">
        <ele>335.4</ele>
        <time>2022-07-20T12:36:52Z</time>
      </trkpt>
      <trkpt lat="47.4481620" lon="6.8362980">
        <ele>335.4</ele>
        <time>2022-07-20T12:37:00Z</time>
      </trkpt>
      <trkpt lat="47.4480200" lon="6.8360520">
        <ele>335.6</ele>
        <time>2022-07-20T12:37:06Z</time>
      </trkpt>
      <trkpt lat="47.4479050" lon="6.8358010">
        <ele>335.6</ele>
        <time>2022-07-20T12:37:12Z</time>
      </trkpt>
      <trkpt lat="47.4478100" lon="6.8355640">
        <ele>335.6</ele>
        <time>2022-07-20T12:37:18Z</time>
      </trkpt>
      <trkpt lat="47.4476720" lon="6.8352720">
        <ele>335.6</ele>
        <time>2022-07-20T12:37:25Z</time>
      </trkpt>
      <trkpt lat="47.4475910" lon="6.8351390">
        <ele>335.4</ele>
        <time>2022-07-20T12:37:30Z</time>
      </trkpt>
      <trkpt lat="47.4475200" lon="6.8350260">
        <ele>335.4</ele>
        <time>2022-07-20T12:37:37Z</time>
      </trkpt>
      <trkpt lat="47.4474460" lon="6.8347720">
        <ele>335.4</ele>
        <time>2022-07-20T12:37:43Z</time>
      </trkpt>
      <trkpt lat="47.4473090" lon="6.8343970">
        <ele>335.6</ele>
        <time>2022-07-20T12:37:51Z</time>
      </trkpt>
      <trkpt lat="47.4471740" lon="6.8339620">
        <ele>335.8</ele>
        <time>2022-07-20T12:38:00Z</time>
      </trkpt>
      <trkpt lat="47.4471430" lon="6.8337820">
        <ele>335.8</ele>
        <time>2022-07-20T12:38:03Z</time>
      </trkpt>
      <trkpt lat="47.4471070" lon="6.8336640">
        <ele>335.8</ele>
        <time>2022-07-20T12:38:05Z</time>
      </trkpt>
      <trkpt lat="47.4470870" lon="6.8336060">
        <ele>335.8</ele>
        <time>2022-07-20T12:38:06Z</time>
      </trkpt>
      <trkpt lat="47.4469810" lon="6.8332480">
        <ele>336.0</ele>
        <time>2022-07-20T12:38:12Z</time>
      </trkpt>
      <trkpt lat="47.4469160" lon="6.8329270">
        <ele>336.0</ele>
        <time>2022-07-20T12:38:17Z</time>
      </trkpt>
      <trkpt lat="47.4469050" lon="6.8327940">
        <ele>336.2</ele>
        <time>2022-07-20T12:38:19Z</time>
      </trkpt>
      <trkpt lat="47.4469220" lon="6.8325130">
        <ele>336.2</ele>
        <time>2022-07-20T12:38:23Z</time>
      </trkpt>
      <trkpt lat="47.4469500" lon="6.8323780">
        <ele>336.2</ele>
        <time>2022-07-20T12:38:25Z</time>
      </trkpt>
      <trkpt lat="47.4470900" lon="6.8317870">
        <ele>336.2</ele>
        <time>2022-07-20T12:38:33Z</time>
      </trkpt>
      <trkpt lat="47.4471080" lon="6.8316340">
        <ele>336.2</ele>
        <time>2022-07-20T12:38:35Z</time>
      </trkpt>
      <trkpt lat="47.4471060" lon="6.8313310">
        <ele>336.0</ele>
        <time>2022-07-20T12:38:39Z</time>
      </trkpt>
      <trkpt lat="47.4470410" lon="6.8308970">
        <ele>336.0</ele>
        <time>2022-07-20T12:38:45Z</time>
      </trkpt>
      <trkpt lat="47.4468730" lon="6.8302940">
        <ele>336.2</ele>
        <time>2022-07-20T12:38:54Z</time>
      </trkpt>
      <trkpt lat="47.4467060" lon="6.8297750">
        <ele>336.2</ele>
        <time>2022-07-20T12:39:02Z</time>
      </trkpt>
      <trkpt lat="47.4465030" lon="6.8291860">
        <ele>336.2</ele>
        <time>2022-07-20T12:39:11Z</time>
      </trkpt>
      <trkpt lat="47.4463250" lon="6.8286500">
        <ele>336.0</ele>
        <time>2022-07-20T12:39:19Z</time>
      </trkpt>
      <trkpt lat="47.4462100" lon="6.8282450">
        <ele>336.0</ele>
        <time>2022-07-20T12:39:25Z</time>
      </trkpt>
      <trkpt lat="47.4460960" lon="6.8277800">
        <ele>336.0</ele>
        <time>2022-07-20T12:39:32Z</time>
      </trkpt>
      <trkpt lat="47.4459980" lon="6.8273760">
        <ele>336.0</ele>
        <time>2022-07-20T12:39:38Z</time>
      </trkpt>
      <trkpt lat="47.4458600" lon="6.8266710">
        <ele>336.4</ele>
        <time>2022-07-20T12:39:48Z</time>
      </trkpt>
      <trkpt lat="47.4457780" lon="6.8261020">
        <ele>336.4</ele>
        <time>2022-07-20T12:39:56Z</time>
      </trkpt>
      <trkpt lat="47.4456900" lon="6.8253220">
        <ele>336.2</ele>
        <time>2022-07-20T12:40:07Z</time>
      </trkpt>
      <trkpt lat="47.4455960" lon="6.8246360">
        <ele>336.0</ele>
        <time>2022-07-20T12:40:17Z</time>
      </trkpt>
      <trkpt lat="47.4455060" lon="6.8239260">
        <ele>336.0</ele>
        <time>2022-07-20T12:40:27Z</time>
      </trkpt>
      <trkpt lat="47.4454150" lon="6.8232820">
        <ele>336.0</ele>
        <time>2022-07-20T12:40:36Z</time>
      </trkpt>
      <trkpt lat="47.4453220" lon="6.8225720">
        <ele>336.0</ele>
        <time>2022-07-20T12:40:46Z</time>
      </trkpt>
      <trkpt lat="47.4452610" lon="6.8220850">
        <ele>336.2</ele>
        <time>2022-07-20T12:40:53Z</time>
      </trkpt>
      <trkpt lat="47.4451850" lon="6.8215420">
        <ele>336.4</ele>
        <time>2022-07-20T12:41:01Z</time>
      </trkpt>
      <trkpt lat="47.4451770" lon="6.8214750">
        <ele>336.4</ele>
        <time>2022-07-20T12:41:02Z</time>
      </trkpt>
      <trkpt lat="47.4451360" lon="6.8211350">
        <ele>336.4</ele>
        <time>2022-07-20T12:41:07Z</time>
      </trkpt>
      <trkpt lat="47.4450620" lon="6.8206050">
        <ele>336.4</ele>
        <time>2022-07-20T12:41:15Z</time>
      </trkpt>
      <trkpt lat="47.4449900" lon="6.8200040">
        <ele>336.6</ele>
        <time>2022-07-20T12:41:24Z</time>
      </trkpt>
      <trkpt lat="47.4449030" lon="6.8193430">
        <ele>336.8</ele>
        <time>2022-07-20T12:41:34Z</time>
      </trkpt>
      <trkpt lat="47.4448420" lon="6.8188890">
        <ele>337.0</ele>
        <time>2022-07-20T12:41:41Z</time>
      </trkpt>
      <trkpt lat="47.4447510" lon="6.8182390">
        <ele>337.0</ele>
        <time>2022-07-20T12:41:51Z</time>
      </trkpt>
      <trkpt lat="47.4446770" lon="6.8176770">
        <ele>337.0</ele>
        <time>2022-07-20T12:42:00Z</time>
      </trkpt>
      <trkpt lat="47.4445990" lon="6.8170700">
        <ele>337.0</ele>
        <time>2022-07-20T12:42:10Z</time>
      </trkpt>
      <trkpt lat="47.4445950" lon="6.8170080">
        <ele>337.0</ele>
        <time>2022-07-20T12:42:11Z</time>
      </trkpt>
      <trkpt lat="47.4445960" lon="6.8168830">
        <ele>337.4</ele>
        <time>2022-07-20T12:42:13Z</time>
      </trkpt>
      <trkpt lat="47.4446220" lon="6.8167040">
        <ele>337.4</ele>
        <time>2022-07-20T12:42:16Z</time>
      </trkpt>
      <trkpt lat="47.4447230" lon="6.8164230">
        <ele>337.4</ele>
        <time>2022-07-20T12:42:21Z</time>
      </trkpt>
      <trkpt lat="47.4447500" lon="6.8163670">
        <ele>337.4</ele>
        <time>2022-07-20T12:42:22Z</time>
      </trkpt>
      <trkpt lat="47.4449860" lon="6.8160320">
        <ele>337.4</ele>
        <time>2022-07-20T12:42:29Z</time>
      </trkpt>
      <trkpt lat="47.4454350" lon="6.8155930">
        <ele>337.4</ele>
        <time>2022-07-20T12:42:40Z</time>
      </trkpt>
      <trkpt lat="47.4457470" lon="6.8152850">
        <ele>337.4</ele>
        <time>2022-07-20T12:42:48Z</time>
      </trkpt>
      <trkpt lat="47.4460960" lon="6.8149360">
        <ele>337.4</ele>
        <time>2022-07-20T12:42:57Z</time>
      </trkpt>
      <trkpt lat="47.4462510" lon="6.8147820">
        <ele>337.4</ele>
        <time>2022-07-20T12:43:01Z</time>
      </trkpt>
      <trkpt lat="47.4464460" lon="6.8145950">
        <ele>337.4</ele>
        <time>2022-07-20T12:43:06Z</time>
      </trkpt>
      <trkpt lat="47.4468390" lon="6.8142130">
        <ele>337.2</ele>
        <time>2022-07-20T12:43:16Z</time>
      </trkpt>
      <trkpt lat="47.4472660" lon="6.8137900">
        <ele>337.2</ele>
        <time>2022-07-20T12:43:27Z</time>
      </trkpt>
      <trkpt lat="47.4475700" lon="6.8134960">
        <ele>337.2</ele>
        <time>2022-07-20T12:43:35Z</time>
      </trkpt>
      <trkpt lat="47.4479410" lon="6.8131350">
        <ele>337.6</ele>
        <time>2022-07-20T12:43:45Z</time>
      </trkpt>
      <trkpt lat="47.4482730" lon="6.8128040">
        <ele>337.6</ele>
        <time>2022-07-20T12:43:54Z</time>
      </trkpt>
      <trkpt lat="47.4486000" lon="6.8124670">
        <ele>337.8</ele>
        <time>2022-07-20T12:44:03Z</time>
      </trkpt>
      <trkpt lat="47.4488160" lon="6.8122380">
        <ele>338.0</ele>
        <time>2022-07-20T12:44:09Z</time>
      </trkpt>
      <trkpt lat="47.4490370" lon="6.8120020">
        <ele>338.0</ele>
        <time>2022-07-20T12:44:15Z</time>
      </trkpt>
      <trkpt lat="47.4494180" lon="6.8116030">
        <ele>338.0</ele>
        <time>2022-07-20T12:44:25Z</time>
      </trkpt>
      <trkpt lat="47.4496160" lon="6.8113930">
        <ele>338.0</ele>
        <time>2022-07-20T12:44:30Z</time>
      </trkpt>
      <trkpt lat="47.4497380" lon="6.8112750">
        <ele>338.0</ele>
        <time>2022-07-20T12:44:33Z</time>
      </trkpt>
      <trkpt lat="47.4497810" lon="6.8112420">
        <ele>338.0</ele>
        <time>2022-07-20T12:44:34Z</time>
      </trkpt>
      <trkpt lat="47.4500600" lon="6.8111160">
        <ele>337.8</ele>
        <time>2022-07-20T12:44:40Z</time>
      </trkpt>
      <trkpt lat="47.4503630" lon="6.8109410">
        <ele>337.8</ele>
        <time>2022-07-20T12:44:47Z</time>
      </trkpt>
      <trkpt lat="47.4506030" lon="6.8106240">
        <ele>338.2</ele>
        <time>2022-07-20T12:44:54Z</time>
      </trkpt>
      <trkpt lat="47.4508800" lon="6.8101650">
        <ele>338.4</ele>
        <time>2022-07-20T12:45:03Z</time>
      </trkpt>
      <trkpt lat="47.4510560" lon="6.8097180">
        <ele>338.6</ele>
        <time>2022-07-20T12:45:11Z</time>
      </trkpt>
      <trkpt lat="47.4511460" lon="6.8093190">
        <ele>339.0</ele>
        <time>2022-07-20T12:45:18Z</time>
      </trkpt>
      <trkpt lat="47.4511660" lon="6.8091870">
        <ele>339.2</ele>
        <time>2022-07-20T12:45:22Z</time>
      </trkpt>
      <trkpt lat="47.4511650" lon="6.8091770">
        <ele>339.2</ele>
        <time>2022-07-20T12:45:23Z</time>
      </trkpt>
      <trkpt lat="47.4511590" lon="6.8091750">
        <ele>339.4</ele>
        <time>2022-07-20T12:45:25Z</time>
      </trkpt>
      <trkpt lat="47.4511530" lon="6.8090500">
        <ele>339.6</ele>
        <time>2022-07-20T12:45:34Z</time>
      </trkpt>
      <trkpt lat="47.4511530" lon="6.8090160">
        <ele>339.6</ele>
        <time>2022-07-20T12:45:35Z</time>
      </trkpt>
      <trkpt lat="47.4511520" lon="6.8088050">
        <ele>339.6</ele>
        <time>2022-07-20T12:45:40Z</time>
      </trkpt>
      <trkpt lat="47.4511970" lon="6.8083740">
        <ele>339.8</ele>
        <time>2022-07-20T12:45:48Z</time>
      </trkpt>
      <trkpt lat="47.4512450" lon="6.8080510">
        <ele>340.0</ele>
        <time>2022-07-20T12:45:54Z</time>
      </trkpt>
      <trkpt lat="47.4512870" lon="6.8077620">
        <ele>340.4</ele>
        <time>2022-07-20T12:45:59Z</time>
      </trkpt>
      <trkpt lat="47.4513060" lon="6.8076430">
        <ele>340.4</ele>
        <time>2022-07-20T12:46:01Z</time>
      </trkpt>
      <trkpt lat="47.4513670" lon="6.8072410">
        <ele>340.8</ele>
        <time>2022-07-20T12:46:08Z</time>
      </trkpt>
      <trkpt lat="47.4514410" lon="6.8068490">
        <ele>341.0</ele>
        <time>2022-07-20T12:46:15Z</time>
      </trkpt>
      <trkpt lat="47.4515120" lon="6.8064400">
        <ele>341.6</ele>
        <time>2022-07-20T12:46:23Z</time>
      </trkpt>
      <trkpt lat="47.4515200" lon="6.8060120">
        <ele>342.0</ele>
        <time>2022-07-20T12:46:31Z</time>
      </trkpt>
      <trkpt lat="47.4515510" lon="6.8057450">
        <ele>342.0</ele>
        <time>2022-07-20T12:46:36Z</time>
      </trkpt>
      <trkpt lat="47.4515870" lon="6.8053830">
        <ele>342.2</ele>
        <time>2022-07-20T12:46:43Z</time>
      </trkpt>
      <trkpt lat="47.4516030" lon="6.8049640">
        <ele>342.6</ele>
        <time>2022-07-20T12:46:51Z</time>
      </trkpt>
      <trkpt lat="47.4515970" lon="6.8049100">
        <ele>342.6</ele>
        <time>2022-07-20T12:46:52Z</time>
      </trkpt>
      <trkpt lat="47.4515950" lon="6.8046850">
        <ele>342.8</ele>
        <time>2022-07-20T12:46:56Z</time>
      </trkpt>
      <trkpt lat="47.4515940" lon="6.8045740">
        <ele>343.0</ele>
        <time>2022-07-20T12:46:58Z</time>
      </trkpt>
      <trkpt lat="47.4515770" lon="6.8042030">
        <ele>343.0</ele>
        <time>2022-07-20T12:47:05Z</time>
      </trkpt>
      <trkpt lat="47.4515720" lon="6.8041580">
        <ele>343.0</ele>
        <time>2022-07-20T12:47:09Z</time>
      </trkpt>
      <trkpt lat="47.4515680" lon="6.8041230">
        <ele>343.2</ele>
        <time>2022-07-20T12:47:24Z</time>
      </trkpt>
      <trkpt lat="47.4515640" lon="6.8040420">
        <ele>343.2</ele>
        <time>2022-07-20T12:47:27Z</time>
      </trkpt>
      <trkpt lat="47.4515070" lon="6.8039120">
        <ele>343.2</ele>
        <time>2022-07-20T12:47:31Z</time>
      </trkpt>
      <trkpt lat="47.4513980" lon="6.8038840">
        <ele>343.2</ele>
        <time>2022-07-20T12:47:34Z</time>
      </trkpt>
      <trkpt lat="47.4513560" lon="6.8038900">
        <ele>343.2</ele>
        <time>2022-07-20T12:47:35Z</time>
      </trkpt>
      <trkpt lat="47.4509990" lon="6.8039320">
        <ele>343.2</ele>
        <time>2022-07-20T12:47:43Z</time>
      </trkpt>
      <trkpt lat="47.4509550" lon="6.8039350">
        <ele>343.2</ele>
        <time>2022-07-20T12:47:44Z</time>
      </trkpt>
      <trkpt lat="47.4508320" lon="6.8038810">
        <ele>343.0</ele>
        <time>2022-07-20T12:47:47Z</time>
      </trkpt>
      <trkpt lat="47.4507350" lon="6.8037520">
        <ele>342.6</ele>
        <time>2022-07-20T12:47:50Z</time>
      </trkpt>
      <trkpt lat="47.4506490" lon="6.8036110">
        <ele>342.4</ele>
        <time>2022-07-20T12:47:53Z</time>
      </trkpt>
      <trkpt lat="47.4505000" lon="6.8033880">
        <ele>342.4</ele>
        <time>2022-07-20T12:47:59Z</time>
      </trkpt>
      <trkpt lat="47.4503090" lon="6.8030680">
        <ele>342.6</ele>
        <time>2022-07-20T12:48:07Z</time>
      </trkpt>
      <trkpt lat="47.4502590" lon="6.8029680">
        <ele>342.6</ele>
        <time>2022-07-20T12:48:09Z</time>
      </trkpt>
      <trkpt lat="47.4501550" lon="6.8026930">
        <ele>342.6</ele>
        <time>2022-07-20T12:48:14Z</time>
      </trkpt>
      <trkpt lat="47.4500180" lon="6.8022770">
        <ele>342.8</ele>
        <time>2022-07-20T12:48:22Z</time>
      </trkpt>
      <trkpt lat="47.4499200" lon="6.8019790">
        <ele>343.0</ele>
        <time>2022-07-20T12:48:29Z</time>
      </trkpt>
      <trkpt lat="47.4498600" lon="6.8017860">
        <ele>343.8</ele>
        <time>2022-07-20T12:48:35Z</time>
      </trkpt>
      <trkpt lat="47.4498550" lon="6.8017620">
        <ele>343.8</ele>
        <time>2022-07-20T12:48:38Z</time>
      </trkpt>
      <trkpt lat="47.4498210" lon="6.8016630">
        <ele>344.6</ele>
        <time>2022-07-20T12:51:29Z</time>
      </trkpt>
      <trkpt lat="47.4497700" lon="6.8015860">
        <ele>344.8</ele>
        <time>2022-07-20T12:51:34Z</time>
      </trkpt>
      <trkpt lat="47.4497520" lon="6.8015560">
        <ele>344.8</ele>
        <time>2022-07-20T12:51:36Z</time>
      </trkpt>
      <trkpt lat="47.4497180" lon="6.8015260">
        <ele>345.2</ele>
        <time>2022-07-20T12:51:42Z</time>
      </trkpt>
      <trkpt lat="47.4496900" lon="6.8012560">
        <ele>347.2</ele>
        <time>2022-07-20T13:00:10Z</time>
      </trkpt>
      <trkpt lat="47.4496650" lon="6.8012010">
        <ele>347.2</ele>
        <time>2022-07-20T13:00:13Z</time>
      </trkpt>
      <trkpt lat="47.4495660" lon="6.8010720">
        <ele>348.0</ele>
        <time>2022-07-20T13:00:21Z</time>
      </trkpt>
      <trkpt lat="47.4495390" lon="6.8010410">
        <ele>348.4</ele>
        <time>2022-07-20T13:00:23Z</time>
      </trkpt>
      <trkpt lat="47.4494280" lon="6.8009520">
        <ele>349.0</ele>
        <time>2022-07-20T13:00:30Z</time>
      </trkpt>
      <trkpt lat="47.4493990" lon="6.8009280">
        <ele>349.4</ele>
        <time>2022-07-20T13:00:32Z</time>
      </trkpt>
      <trkpt lat="47.4493090" lon="6.8008330">
        <ele>350.2</ele>
        <time>2022-07-20T13:00:39Z</time>
      </trkpt>
      <trkpt lat="47.4493000" lon="6.8008150">
        <ele>350.4</ele>
        <time>2022-07-20T13:00:40Z</time>
      </trkpt>
      <trkpt lat="47.4492540" lon="6.8006800">
        <ele>351.4</ele>
        <time>2022-07-20T13:00:47Z</time>
      </trkpt>
      <trkpt lat="47.4492470" lon="6.8006620">
        <ele>351.4</ele>
        <time>2022-07-20T13:00:48Z</time>
      </trkpt>
      <trkpt lat="47.4492190" lon="6.8005710">
        <ele>352.4</ele>
        <time>2022-07-20T13:00:53Z</time>
      </trkpt>
      <trkpt lat="47.4491830" lon="6.8004770">
        <ele>353.4</ele>
        <time>2022-07-20T13:00:58Z</time>
      </trkpt>
      <trkpt lat="47.4491760" lon="6.8004560">
        <ele>353.8</ele>
        <time>2022-07-20T13:00:59Z</time>
      </trkpt>
      <trkpt lat="47.4491380" lon="6.8003660">
        <ele>355.0</ele>
        <time>2022-07-20T13:01:04Z</time>
      </trkpt>
      <trkpt lat="47.4491240" lon="6.8003360">
        <ele>355.2</ele>
        <time>2022-07-20T13:01:06Z</time>
      </trkpt>
      <trkpt lat="47.4490860" lon="6.8002540">
        <ele>356.0</ele>
        <time>2022-07-20T13:01:11Z</time>
      </trkpt>
      <trkpt lat="47.4490590" lon="6.8002100">
        <ele>356.6</ele>
        <time>2022-07-20T13:01:14Z</time>
      </trkpt>
      <trkpt lat="47.4490190" lon="6.8001540">
        <ele>357.2</ele>
        <time>2022-07-20T13:01:18Z</time>
      </trkpt>
      <trkpt lat="47.4489650" lon="6.8000900">
        <ele>358.2</ele>
        <time>2022-07-20T13:01:23Z</time>
      </trkpt>
      <trkpt lat="47.4489520" lon="6.8000790">
        <ele>358.2</ele>
        <time>2022-07-20T13:01:24Z</time>
      </trkpt>
      <trkpt lat="47.4488760" lon="6.8000250">
        <ele>359.0</ele>
        <time>2022-07-20T13:01:30Z</time>
      </trkpt>
      <trkpt lat="47.4488410" lon="6.8000080">
        <ele>359.4</ele>
        <time>2022-07-20T13:01:32Z</time>
      </trkpt>
      <trkpt lat="47.4487650" lon="6.7999810">
        <ele>360.2</ele>
        <time>2022-07-20T13:01:37Z</time>
      </trkpt>
      <trkpt lat="47.4487510" lon="6.7999770">
        <ele>360.4</ele>
        <time>2022-07-20T13:01:38Z</time>
      </trkpt>
      <trkpt lat="47.4486990" lon="6.7999640">
        <ele>361.6</ele>
        <time>2022-07-20T13:01:42Z</time>
      </trkpt>
      <trkpt lat="47.4486530" lon="6.7999540">
        <ele>362.2</ele>
        <time>2022-07-20T13:01:45Z</time>
      </trkpt>
      <trkpt lat="47.4486180" lon="6.7999490">
        <ele>362.6</ele>
        <time>2022-07-20T13:01:47Z</time>
      </trkpt>
      <trkpt lat="47.4484820" lon="6.7999200">
        <ele>363.6</ele>
        <time>2022-07-20T13:01:55Z</time>
      </trkpt>
      <trkpt lat="47.4484650" lon="6.7999160">
        <ele>363.8</ele>
        <time>2022-07-20T13:01:56Z</time>
      </trkpt>
      <trkpt lat="47.4483750" lon="6.7998940">
        <ele>364.6</ele>
        <time>2022-07-20T13:02:01Z</time>
      </trkpt>
      <trkpt lat="47.4482770" lon="6.7998760">
        <ele>365.2</ele>
        <time>2022-07-20T13:02:06Z</time>
      </trkpt>
      <trkpt lat="47.4481990" lon="6.7998560">
        <ele>365.8</ele>
        <time>2022-07-20T13:02:10Z</time>
      </trkpt>
      <trkpt lat="47.4480560" lon="6.7998300">
        <ele>366.6</ele>
        <time>2022-07-20T13:02:17Z</time>
      </trkpt>
      <trkpt lat="47.4480150" lon="6.7998240">
        <ele>366.8</ele>
        <time>2022-07-20T13:02:19Z</time>
      </trkpt>
      <trkpt lat="47.4478270" lon="6.7997880">
        <ele>367.6</ele>
        <time>2022-07-20T13:02:28Z</time>
      </trkpt>
      <trkpt lat="47.4477400" lon="6.7997720">
        <ele>368.0</ele>
        <time>2022-07-20T13:02:32Z</time>
      </trkpt>
      <trkpt lat="47.4475800" lon="6.7997410">
        <ele>368.8</ele>
        <time>2022-07-20T13:02:39Z</time>
      </trkpt>
      <trkpt lat="47.4475150" lon="6.7997270">
        <ele>369.2</ele>
        <time>2022-07-20T13:02:42Z</time>
      </trkpt>
      <trkpt lat="47.4472920" lon="6.7996850">
        <ele>370.0</ele>
        <time>2022-07-20T13:02:52Z</time>
      </trkpt>
      <trkpt lat="47.4472440" lon="6.7996720">
        <ele>370.2</ele>
        <time>2022-07-20T13:02:54Z</time>
      </trkpt>
      <trkpt lat="47.4470580" lon="6.7996350">
        <ele>371.2</ele>
        <time>2022-07-20T13:03:02Z</time>
      </trkpt>
      <trkpt lat="47.4470100" lon="6.7996280">
        <ele>371.6</ele>
        <time>2022-07-20T13:03:04Z</time>
      </trkpt>
      <trkpt lat="47.4467520" lon="6.7995740">
        <ele>372.4</ele>
        <time>2022-07-20T13:03:15Z</time>
      </trkpt>
      <trkpt lat="47.4465140" lon="6.7995280">
        <ele>373.4</ele>
        <time>2022-07-20T13:03:25Z</time>
      </trkpt>
      <trkpt lat="47.4464900" lon="6.7995230">
        <ele>373.4</ele>
        <time>2022-07-20T13:03:26Z</time>
      </trkpt>
      <trkpt lat="47.4464660" lon="6.7995200">
        <ele>373.6</ele>
        <time>2022-07-20T13:03:27Z</time>
      </trkpt>
      <trkpt lat="47.4463230" lon="6.7994910">
        <ele>374.4</ele>
        <time>2022-07-20T13:03:33Z</time>
      </trkpt>
      <trkpt lat="47.4462540" lon="6.7994630">
        <ele>374.6</ele>
        <time>2022-07-20T13:03:36Z</time>
      </trkpt>
      <trkpt lat="47.4461500" lon="6.7994280">
        <ele>374.8</ele>
        <time>2022-07-20T13:03:40Z</time>
      </trkpt>
      <trkpt lat="47.4458730" lon="6.7993310">
        <ele>375.6</ele>
        <time>2022-07-20T13:03:50Z</time>
      </trkpt>
      <trkpt lat="47.4457610" lon="6.7992950">
        <ele>375.8</ele>
        <time>2022-07-20T13:03:54Z</time>
      </trkpt>
      <trkpt lat="47.4455390" lon="6.7992170">
        <ele>376.4</ele>
        <time>2022-07-20T13:04:02Z</time>
      </trkpt>
      <trkpt lat="47.4453820" lon="6.7991660">
        <ele>376.8</ele>
        <time>2022-07-20T13:04:08Z</time>
      </trkpt>
      <trkpt lat="47.4453300" lon="6.7991500">
        <ele>377.0</ele>
        <time>2022-07-20T13:04:10Z</time>
      </trkpt>
      <trkpt lat="47.4451080" lon="6.7991260">
        <ele>377.8</ele>
        <time>2022-07-20T13:04:19Z</time>
      </trkpt>
      <trkpt lat="47.4450860" lon="6.7991220">
        <ele>377.8</ele>
        <time>2022-07-20T13:04:20Z</time>
      </trkpt>
      <trkpt lat="47.4449400" lon="6.7991070">
        <ele>379.0</ele>
        <time>2022-07-20T13:04:27Z</time>
      </trkpt>
      <trkpt lat="47.4448780" lon="6.7990940">
        <ele>379.6</ele>
        <time>2022-07-20T13:04:30Z</time>
      </trkpt>
      <trkpt lat="47.4448180" lon="6.7990760">
        <ele>380.2</ele>
        <time>2022-07-20T13:04:33Z</time>
      </trkpt>
      <trkpt lat="47.4447010" lon="6.7990290">
        <ele>380.8</ele>
        <time>2022-07-20T13:04:39Z</time>
      </trkpt>
      <trkpt lat="47.4446650" lon="6.7990130">
        <ele>381.2</ele>
        <time>2022-07-20T13:04:41Z</time>
      </trkpt>
      <trkpt lat="47.4445520" lon="6.7989700">
        <ele>382.2</ele>
        <time>2022-07-20T13:04:47Z</time>
      </trkpt>
      <trkpt lat="47.4445320" lon="6.7989620">
        <ele>382.2</ele>
        <time>2022-07-20T13:04:48Z</time>
      </trkpt>
      <trkpt lat="47.4443790" lon="6.7988810">
        <ele>383.6</ele>
        <time>2022-07-20T13:04:56Z</time>
      </trkpt>
      <trkpt lat="47.4442550" lon="6.7988280">
        <ele>384.6</ele>
        <time>2022-07-20T13:05:03Z</time>
      </trkpt>
      <trkpt lat="47.4442380" lon="6.7988200">
        <ele>384.8</ele>
        <time>2022-07-20T13:05:04Z</time>
      </trkpt>
      <trkpt lat="47.4441030" lon="6.7987630">
        <ele>385.6</ele>
        <time>2022-07-20T13:05:11Z</time>
      </trkpt>
      <trkpt lat="47.4440850" lon="6.7987560">
        <ele>385.8</ele>
        <time>2022-07-20T13:05:12Z</time>
      </trkpt>
      <trkpt lat="47.4439680" lon="6.7987090">
        <ele>386.6</ele>
        <time>2022-07-20T13:05:19Z</time>
      </trkpt>
      <trkpt lat="47.4439380" lon="6.7986810">
        <ele>386.8</ele>
        <time>2022-07-20T13:05:21Z</time>
      </trkpt>
      <trkpt lat="47.4439000" lon="6.7985880">
        <ele>387.8</ele>
        <time>2022-07-20T13:05:25Z</time>
      </trkpt>
      <trkpt lat="47.4438950" lon="6.7984940">
        <ele>388.0</ele>
        <time>2022-07-20T13:05:29Z</time>
      </trkpt>
      <trkpt lat="47.4438930" lon="6.7984450">
        <ele>388.2</ele>
        <time>2022-07-20T13:05:32Z</time>
      </trkpt>
      <trkpt lat="47.4439050" lon="6.7983290">
        <ele>388.8</ele>
        <time>2022-07-20T13:05:40Z</time>
      </trkpt>
      <trkpt lat="47.4439060" lon="6.7983120">
        <ele>388.8</ele>
        <time>2022-07-20T13:05:41Z</time>
      </trkpt>
      <trkpt lat="47.4439210" lon="6.7982420">
        <ele>390.2</ele>
        <time>2022-07-20T13:05:45Z</time>
      </trkpt>
      <trkpt lat="47.4439340" lon="6.7981810">
        <ele>390.8</ele>
        <time>2022-07-20T13:05:48Z</time>
      </trkpt>
      <trkpt lat="47.4439480" lon="6.7981140">
        <ele>391.2</ele>
        <time>2022-07-20T13:05:51Z</time>
      </trkpt>
      <trkpt lat="47.4439630" lon="6.7979260">
        <ele>392.2</ele>
        <time>2022-07-20T13:05:59Z</time>
      </trkpt>
      <trkpt lat="47.4439580" lon="6.7979050">
        <ele>392.4</ele>
        <time>2022-07-20T13:06:00Z</time>
      </trkpt>
      <trkpt lat="47.4439150" lon="6.7978420">
        <ele>392.8</ele>
        <time>2022-07-20T13:06:06Z</time>
      </trkpt>
      <trkpt lat="47.4438940" lon="6.7978320">
        <ele>393.4</ele>
        <time>2022-07-20T13:06:09Z</time>
      </trkpt>
      <trkpt lat="47.4438660" lon="6.7978390">
        <ele>395.0</ele>
        <time>2022-07-20T13:06:14Z</time>
      </trkpt>
      <trkpt lat="47.4438490" lon="6.7978570">
        <ele>396.2</ele>
        <time>2022-07-20T13:06:18Z</time>
      </trkpt>
      <trkpt lat="47.4438430" lon="6.7978640">
        <ele>396.4</ele>
        <time>2022-07-20T13:06:19Z</time>
      </trkpt>
      <trkpt lat="47.4437960" lon="6.7978940">
        <ele>397.2</ele>
        <time>2022-07-20T13:06:25Z</time>
      </trkpt>
      <trkpt lat="47.4437240" lon="6.7979490">
        <ele>398.2</ele>
        <time>2022-07-20T13:06:33Z</time>
      </trkpt>
      <trkpt lat="47.4437140" lon="6.7979570">
        <ele>398.4</ele>
        <time>2022-07-20T13:06:34Z</time>
      </trkpt>
      <trkpt lat="47.4436610" lon="6.7980100">
        <ele>399.4</ele>
        <time>2022-07-20T13:06:41Z</time>
      </trkpt>
      <trkpt lat="47.4436280" lon="6.7980390">
        <ele>400.0</ele>
        <time>2022-07-20T13:06:45Z</time>
      </trkpt>
      <trkpt lat="47.4436000" lon="6.7980520">
        <ele>400.4</ele>
        <time>2022-07-20T13:06:47Z</time>
      </trkpt>
      <trkpt lat="47.4435510" lon="6.7980770">
        <ele>401.4</ele>
        <time>2022-07-20T13:06:51Z</time>
      </trkpt>
      <trkpt lat="47.4435380" lon="6.7980810">
        <ele>401.6</ele>
        <time>2022-07-20T13:06:52Z</time>
      </trkpt>
      <trkpt lat="47.4434910" lon="6.7981200">
        <ele>402.0</ele>
        <time>2022-07-20T13:06:57Z</time>
      </trkpt>
      <trkpt lat="47.4434320" lon="6.7981790">
        <ele>402.6</ele>
        <time>2022-07-20T13:07:03Z</time>
      </trkpt>
      <trkpt lat="47.4433990" lon="6.7982270">
        <ele>403.4</ele>
        <time>2022-07-20T13:07:08Z</time>
      </trkpt>
      <trkpt lat="47.4433940" lon="6.7982370">
        <ele>403.6</ele>
        <time>2022-07-20T13:07:09Z</time>
      </trkpt>
      <trkpt lat="47.4433360" lon="6.7983250">
        <ele>404.8</ele>
        <time>2022-07-20T13:07:15Z</time>
      </trkpt>
      <trkpt lat="47.4432910" lon="6.7983860">
        <ele>405.8</ele>
        <time>2022-07-20T13:07:20Z</time>
      </trkpt>
      <trkpt lat="47.4432480" lon="6.7984750">
        <ele>407.0</ele>
        <time>2022-07-20T13:07:25Z</time>
      </trkpt>
      <trkpt lat="47.4431680" lon="6.7985590">
        <ele>408.2</ele>
        <time>2022-07-20T13:07:32Z</time>
      </trkpt>
      <trkpt lat="47.4431190" lon="6.7986100">
        <ele>409.2</ele>
        <time>2022-07-20T13:07:37Z</time>
      </trkpt>
      <trkpt lat="47.4430570" lon="6.7986720">
        <ele>410.0</ele>
        <time>2022-07-20T13:07:43Z</time>
      </trkpt>
      <trkpt lat="47.4430390" lon="6.7986910">
        <ele>410.4</ele>
        <time>2022-07-20T13:07:45Z</time>
      </trkpt>
      <trkpt lat="47.4429870" lon="6.7987330">
        <ele>411.4</ele>
        <time>2022-07-20T13:07:51Z</time>
      </trkpt>
      <trkpt lat="47.4429550" lon="6.7987440">
        <ele>412.0</ele>
        <time>2022-07-20T13:07:55Z</time>
      </trkpt>
      <trkpt lat="47.4429360" lon="6.7987560">
        <ele>412.4</ele>
        <time>2022-07-20T13:07:57Z</time>
      </trkpt>
      <trkpt lat="47.4428780" lon="6.7987810">
        <ele>413.8</ele>
        <time>2022-07-20T13:08:04Z</time>
      </trkpt>
      <trkpt lat="47.4428580" lon="6.7987870">
        <ele>414.4</ele>
        <time>2022-07-20T13:08:07Z</time>
      </trkpt>
      <trkpt lat="47.4428360" lon="6.7987900">
        <ele>414.8</ele>
        <time>2022-07-20T13:08:10Z</time>
      </trkpt>
      <trkpt lat="47.4427780" lon="6.7988050">
        <ele>415.8</ele>
        <time>2022-07-20T13:08:15Z</time>
      </trkpt>
      <trkpt lat="47.4427390" lon="6.7988240">
        <ele>416.6</ele>
        <time>2022-07-20T13:08:19Z</time>
      </trkpt>
      <trkpt lat="47.4427280" lon="6.7988290">
        <ele>416.8</ele>
        <time>2022-07-20T13:08:20Z</time>
      </trkpt>
      <trkpt lat="47.4426770" lon="6.7988700">
        <ele>418.0</ele>
        <time>2022-07-20T13:08:26Z</time>
      </trkpt>
      <trkpt lat="47.4426310" lon="6.7988980">
        <ele>418.8</ele>
        <time>2022-07-20T13:08:31Z</time>
      </trkpt>
      <trkpt lat="47.4426220" lon="6.7989010">
        <ele>419.0</ele>
        <time>2022-07-20T13:08:32Z</time>
      </trkpt>
      <trkpt lat="47.4425640" lon="6.7989340">
        <ele>420.2</ele>
        <time>2022-07-20T13:08:38Z</time>
      </trkpt>
      <trkpt lat="47.4424940" lon="6.7989840">
        <ele>421.0</ele>
        <time>2022-07-20T13:08:44Z</time>
      </trkpt>
      <trkpt lat="47.4424710" lon="6.7989980">
        <ele>421.2</ele>
        <time>2022-07-20T13:08:46Z</time>
      </trkpt>
      <trkpt lat="47.4424330" lon="6.7990260">
        <ele>422.2</ele>
        <time>2022-07-20T13:08:51Z</time>
      </trkpt>
      <trkpt lat="47.4424060" lon="6.7990490">
        <ele>422.6</ele>
        <time>2022-07-20T13:08:54Z</time>
      </trkpt>
      <trkpt lat="47.4423670" lon="6.7990710">
        <ele>423.4</ele>
        <time>2022-07-20T13:08:59Z</time>
      </trkpt>
      <trkpt lat="47.4423270" lon="6.7990920">
        <ele>424.0</ele>
        <time>2022-07-20T13:09:03Z</time>
      </trkpt>
      <trkpt lat="47.4423120" lon="6.7991050">
        <ele>424.2</ele>
        <time>2022-07-20T13:09:05Z</time>
      </trkpt>
      <trkpt lat="47.4423000" lon="6.7991110">
        <ele>424.4</ele>
        <time>2022-07-20T13:09:06Z</time>
      </trkpt>
      <trkpt lat="47.4422310" lon="6.7991460">
        <ele>425.4</ele>
        <time>2022-07-20T13:09:13Z</time>
      </trkpt>
      <trkpt lat="47.4421790" lon="6.7991800">
        <ele>426.4</ele>
        <time>2022-07-20T13:09:18Z</time>
      </trkpt>
      <trkpt lat="47.4421070" lon="6.7992360">
        <ele>427.6</ele>
        <time>2022-07-20T13:09:26Z</time>
      </trkpt>
      <trkpt lat="47.4420660" lon="6.7992680">
        <ele>428.2</ele>
        <time>2022-07-20T13:09:30Z</time>
      </trkpt>
      <trkpt lat="47.4420440" lon="6.7992870">
        <ele>428.6</ele>
        <time>2022-07-20T13:09:32Z</time>
      </trkpt>
      <trkpt lat="47.4419940" lon="6.7993170">
        <ele>429.4</ele>
        <time>2022-07-20T13:09:39Z</time>
      </trkpt>
      <trkpt lat="47.4419430" lon="6.7991790">
        <ele>430.8</ele>
        <time>2022-07-20T13:10:03Z</time>
      </trkpt>
      <trkpt lat="47.4419390" lon="6.7991350">
        <ele>431.2</ele>
        <time>2022-07-20T13:10:06Z</time>
      </trkpt>
      <trkpt lat="47.4419450" lon="6.7990580">
        <ele>431.8</ele>
        <time>2022-07-20T13:10:11Z</time>
      </trkpt>
      <trkpt lat="47.4419500" lon="6.7989620">
        <ele>432.8</ele>
        <time>2022-07-20T13:10:17Z</time>
      </trkpt>
      <trkpt lat="47.4419490" lon="6.7989460">
        <ele>433.0</ele>
        <time>2022-07-20T13:10:18Z</time>
      </trkpt>
      <trkpt lat="47.4419440" lon="6.7987250">
        <ele>433.8</ele>
        <time>2022-07-20T13:10:28Z</time>
      </trkpt>
      <trkpt lat="47.4419440" lon="6.7987090">
        <ele>433.8</ele>
        <time>2022-07-20T13:10:29Z</time>
      </trkpt>
      <trkpt lat="47.4419380" lon="6.7985890">
        <ele>434.2</ele>
        <time>2022-07-20T13:10:35Z</time>
      </trkpt>
      <trkpt lat="47.4419300" lon="6.7985210">
        <ele>434.8</ele>
        <time>2022-07-20T13:10:39Z</time>
      </trkpt>
      <trkpt lat="47.4419290" lon="6.7984890">
        <ele>434.8</ele>
        <time>2022-07-20T13:10:41Z</time>
      </trkpt>
      <trkpt lat="47.4419240" lon="6.7984690">
        <ele>435.0</ele>
        <time>2022-07-20T13:10:42Z</time>
      </trkpt>
      <trkpt lat="47.4419190" lon="6.7984500">
        <ele>435.2</ele>
        <time>2022-07-20T13:10:43Z</time>
      </trkpt>
      <trkpt lat="47.4419190" lon="6.7983840">
        <ele>436.0</ele>
        <time>2022-07-20T13:10:46Z</time>
      </trkpt>
      <trkpt lat="47.4419150" lon="6.7982690">
        <ele>436.6</ele>
        <time>2022-07-20T13:10:51Z</time>
      </trkpt>
      <trkpt lat="47.4419110" lon="6.7981900">
        <ele>437.0</ele>
        <time>2022-07-20T13:10:55Z</time>
      </trkpt>
      <trkpt lat="47.4419080" lon="6.7981210">
        <ele>437.4</ele>
        <time>2022-07-20T13:10:58Z</time>
      </trkpt>
      <trkpt lat="47.4419100" lon="6.7981010">
        <ele>437.6</ele>
        <time>2022-07-20T13:10:59Z</time>
      </trkpt>
      <trkpt lat="47.4419150" lon="6.7980360">
        <ele>438.0</ele>
        <time>2022-07-20T13:11:03Z</time>
      </trkpt>
      <trkpt lat="47.4419160" lon="6.7980220">
        <ele>438.2</ele>
        <time>2022-07-20T13:11:04Z</time>
      </trkpt>
      <trkpt lat="47.4419080" lon="6.7978770">
        <ele>439.2</ele>
        <time>2022-07-20T13:11:11Z</time>
      </trkpt>
      <trkpt lat="47.4419010" lon="6.7978310">
        <ele>439.4</ele>
        <time>2022-07-20T13:11:13Z</time>
      </trkpt>
      <trkpt lat="47.4418890" lon="6.7977350">
        <ele>440.2</ele>
        <time>2022-07-20T13:11:18Z</time>
      </trkpt>
      <trkpt lat="47.4418890" lon="6.7976800">
        <ele>440.4</ele>
        <time>2022-07-20T13:11:20Z</time>
      </trkpt>
      <trkpt lat="47.4419120" lon="6.7975150">
        <ele>441.2</ele>
        <time>2022-07-20T13:11:26Z</time>
      </trkpt>
      <trkpt lat="47.4419300" lon="6.7973320">
        <ele>441.6</ele>
        <time>2022-07-20T13:11:33Z</time>
      </trkpt>
      <trkpt lat="47.4419460" lon="6.7971350">
        <ele>441.8</ele>
        <time>2022-07-20T13:11:40Z</time>
      </trkpt>
      <trkpt lat="47.4419480" lon="6.7969060">
        <ele>442.0</ele>
        <time>2022-07-20T13:11:46Z</time>
      </trkpt>
      <trkpt lat="47.4418970" lon="6.7967620">
        <ele>442.2</ele>
        <time>2022-07-20T13:11:51Z</time>
      </trkpt>
      <trkpt lat="47.4418850" lon="6.7967440">
        <ele>442.4</ele>
        <time>2022-07-20T13:11:52Z</time>
      </trkpt>
      <trkpt lat="47.4418380" lon="6.7966800">
        <ele>442.8</ele>
        <time>2022-07-20T13:11:57Z</time>
      </trkpt>
      <trkpt lat="47.4418220" lon="6.7966670">
        <ele>443.0</ele>
        <time>2022-07-20T13:11:59Z</time>
      </trkpt>
      <trkpt lat="47.4418070" lon="6.7966540">
        <ele>443.2</ele>
        <time>2022-07-20T13:12:00Z</time>
      </trkpt>
      <trkpt lat="47.4417940" lon="6.7966420">
        <ele>443.2</ele>
        <time>2022-07-20T13:12:01Z</time>
      </trkpt>
      <trkpt lat="47.4417410" lon="6.7965900">
        <ele>443.8</ele>
        <time>2022-07-20T13:12:05Z</time>
      </trkpt>
      <trkpt lat="47.4417080" lon="6.7965430">
        <ele>444.4</ele>
        <time>2022-07-20T13:12:08Z</time>
      </trkpt>
      <trkpt lat="47.4416490" lon="6.7964570">
        <ele>445.4</ele>
        <time>2022-07-20T13:12:13Z</time>
      </trkpt>
      <trkpt lat="47.4415700" lon="6.7963630">
        <ele>446.4</ele>
        <time>2022-07-20T13:12:19Z</time>
      </trkpt>
      <trkpt lat="47.4414340" lon="6.7962540">
        <ele>447.6</ele>
        <time>2022-07-20T13:12:27Z</time>
      </trkpt>
      <trkpt lat="47.4413720" lon="6.7962110">
        <ele>448.0</ele>
        <time>2022-07-20T13:12:31Z</time>
      </trkpt>
      <trkpt lat="47.4413080" lon="6.7961700">
        <ele>448.6</ele>
        <time>2022-07-20T13:12:34Z</time>
      </trkpt>
      <trkpt lat="47.4411920" lon="6.7961000">
        <ele>449.0</ele>
        <time>2022-07-20T13:12:41Z</time>
      </trkpt>
      <trkpt lat="47.4411540" lon="6.7960710">
        <ele>449.6</ele>
        <time>2022-07-20T13:12:44Z</time>
      </trkpt>
      <trkpt lat="47.4410760" lon="6.7960210">
        <ele>450.2</ele>
        <time>2022-07-20T13:12:48Z</time>
      </trkpt>
      <trkpt lat="47.4409730" lon="6.7959800">
        <ele>450.6</ele>
        <time>2022-07-20T13:12:53Z</time>
      </trkpt>
      <trkpt lat="47.4409480" lon="6.7959720">
        <ele>450.6</ele>
        <time>2022-07-20T13:12:54Z</time>
      </trkpt>
      <trkpt lat="47.4407870" lon="6.7958920">
        <ele>451.4</ele>
        <time>2022-07-20T13:13:01Z</time>
      </trkpt>
      <trkpt lat="47.4407480" lon="6.7958650">
        <ele>451.6</ele>
        <time>2022-07-20T13:13:03Z</time>
      </trkpt>
      <trkpt lat="47.4406410" lon="6.7958190">
        <ele>452.2</ele>
        <time>2022-07-20T13:13:09Z</time>
      </trkpt>
      <trkpt lat="47.4405700" lon="6.7957850">
        <ele>452.6</ele>
        <time>2022-07-20T13:13:12Z</time>
      </trkpt>
      <trkpt lat="47.4404770" lon="6.7957620">
        <ele>453.2</ele>
        <time>2022-07-20T13:13:17Z</time>
      </trkpt>
      <trkpt lat="47.4403990" lon="6.7957390">
        <ele>453.8</ele>
        <time>2022-07-20T13:13:21Z</time>
      </trkpt>
      <trkpt lat="47.4403380" lon="6.7957250">
        <ele>454.0</ele>
        <time>2022-07-20T13:13:24Z</time>
      </trkpt>
      <trkpt lat="47.4402350" lon="6.7956880">
        <ele>454.6</ele>
        <time>2022-07-20T13:13:30Z</time>
      </trkpt>
      <trkpt lat="47.4402190" lon="6.7956820">
        <ele>454.6</ele>
        <time>2022-07-20T13:13:31Z</time>
      </trkpt>
      <trkpt lat="47.4401790" lon="6.7956790">
        <ele>455.0</ele>
        <time>2022-07-20T13:13:33Z</time>
      </trkpt>
      <trkpt lat="47.4401240" lon="6.7956680">
        <ele>455.4</ele>
        <time>2022-07-20T13:13:36Z</time>
      </trkpt>
      <trkpt lat="47.4400800" lon="6.7956610">
        <ele>455.8</ele>
        <time>2022-07-20T13:13:39Z</time>
      </trkpt>
      <trkpt lat="47.4400660" lon="6.7956680">
        <ele>455.8</ele>
        <time>2022-07-20T13:13:40Z</time>
      </trkpt>
      <trkpt lat="47.4400300" lon="6.7956930">
        <ele>456.4</ele>
        <time>2022-07-20T13:13:43Z</time>
      </trkpt>
      <trkpt lat="47.4399740" lon="6.7957250">
        <ele>456.8</ele>
        <time>2022-07-20T13:13:46Z</time>
      </trkpt>
      <trkpt lat="47.4399120" lon="6.7957720">
        <ele>457.2</ele>
        <time>2022-07-20T13:13:50Z</time>
      </trkpt>
      <trkpt lat="47.4398170" lon="6.7958230">
        <ele>457.8</ele>
        <time>2022-07-20T13:13:56Z</time>
      </trkpt>
      <trkpt lat="47.4398000" lon="6.7958310">
        <ele>457.8</ele>
        <time>2022-07-20T13:13:57Z</time>
      </trkpt>
      <trkpt lat="47.4397260" lon="6.7958730">
        <ele>458.4</ele>
        <time>2022-07-20T13:14:02Z</time>
      </trkpt>
      <trkpt lat="47.4397090" lon="6.7958780">
        <ele>458.6</ele>
        <time>2022-07-20T13:14:03Z</time>
      </trkpt>
      <trkpt lat="47.4396800" lon="6.7958900">
        <ele>459.0</ele>
        <time>2022-07-20T13:14:05Z</time>
      </trkpt>
      <trkpt lat="47.4396290" lon="6.7958760">
        <ele>459.4</ele>
        <time>2022-07-20T13:14:09Z</time>
      </trkpt>
      <trkpt lat="47.4396120" lon="6.7958670">
        <ele>459.4</ele>
        <time>2022-07-20T13:14:10Z</time>
      </trkpt>
      <trkpt lat="47.4395800" lon="6.7958480">
        <ele>460.0</ele>
        <time>2022-07-20T13:14:12Z</time>
      </trkpt>
      <trkpt lat="47.4394470" lon="6.7957840">
        <ele>460.8</ele>
        <time>2022-07-20T13:14:18Z</time>
      </trkpt>
      <trkpt lat="47.4393970" lon="6.7957500">
        <ele>461.0</ele>
        <time>2022-07-20T13:14:21Z</time>
      </trkpt>
      <trkpt lat="47.4393410" lon="6.7957200">
        <ele>461.2</ele>
        <time>2022-07-20T13:14:24Z</time>
      </trkpt>
      <trkpt lat="47.4392290" lon="6.7956380">
        <ele>461.8</ele>
        <time>2022-07-20T13:14:30Z</time>
      </trkpt>
      <trkpt lat="47.4391650" lon="6.7956400">
        <ele>462.0</ele>
        <time>2022-07-20T13:14:32Z</time>
      </trkpt>
      <trkpt lat="47.4390510" lon="6.7955820">
        <ele>462.6</ele>
        <time>2022-07-20T13:14:37Z</time>
      </trkpt>
      <trkpt lat="47.4389270" lon="6.7955210">
        <ele>463.2</ele>
        <time>2022-07-20T13:14:41Z</time>
      </trkpt>
      <trkpt lat="47.4388420" lon="6.7954910">
        <ele>463.4</ele>
        <time>2022-07-20T13:14:44Z</time>
      </trkpt>
      <trkpt lat="47.4386380" lon="6.7955240">
        <ele>464.0</ele>
        <time>2022-07-20T13:14:52Z</time>
      </trkpt>
      <trkpt lat="47.4384490" lon="6.7955830">
        <ele>465.0</ele>
        <time>2022-07-20T13:15:01Z</time>
      </trkpt>
      <trkpt lat="47.4383140" lon="6.7956090">
        <ele>465.8</ele>
        <time>2022-07-20T13:15:08Z</time>
      </trkpt>
      <trkpt lat="47.4382950" lon="6.7956110">
        <ele>466.2</ele>
        <time>2022-07-20T13:15:09Z</time>
      </trkpt>
      <trkpt lat="47.4381690" lon="6.7956140">
        <ele>467.2</ele>
        <time>2022-07-20T13:15:16Z</time>
      </trkpt>
      <trkpt lat="47.4381530" lon="6.7956100">
        <ele>467.2</ele>
        <time>2022-07-20T13:15:17Z</time>
      </trkpt>
      <trkpt lat="47.4381250" lon="6.7955890">
        <ele>467.6</ele>
        <time>2022-07-20T13:15:19Z</time>
      </trkpt>
      <trkpt lat="47.4380980" lon="6.7955080">
        <ele>467.8</ele>
        <time>2022-07-20T13:15:22Z</time>
      </trkpt>
      <trkpt lat="47.4380670" lon="6.7953650">
        <ele>468.2</ele>
        <time>2022-07-20T13:15:26Z</time>
      </trkpt>
      <trkpt lat="47.4380590" lon="6.7953250">
        <ele>468.2</ele>
        <time>2022-07-20T13:15:27Z</time>
      </trkpt>
      <trkpt lat="47.4380270" lon="6.7950400">
        <ele>468.4</ele>
        <time>2022-07-20T13:15:34Z</time>
      </trkpt>
      <trkpt lat="47.4379940" lon="6.7948740">
        <ele>468.4</ele>
        <time>2022-07-20T13:15:39Z</time>
      </trkpt>
      <trkpt lat="47.4379790" lon="6.7948470">
        <ele>468.4</ele>
        <time>2022-07-20T13:15:40Z</time>
      </trkpt>
      <trkpt lat="47.4379450" lon="6.7946460">
        <ele>468.6</ele>
        <time>2022-07-20T13:15:46Z</time>
      </trkpt>
      <trkpt lat="47.4379290" lon="6.7945520">
        <ele>469.0</ele>
        <time>2022-07-20T13:15:49Z</time>
      </trkpt>
      <trkpt lat="47.4378910" lon="6.7944170">
        <ele>469.4</ele>
        <time>2022-07-20T13:15:53Z</time>
      </trkpt>
      <trkpt lat="47.4378270" lon="6.7942750">
        <ele>470.0</ele>
        <time>2022-07-20T13:15:59Z</time>
      </trkpt>
      <trkpt lat="47.4378090" lon="6.7942590">
        <ele>470.2</ele>
        <time>2022-07-20T13:16:00Z</time>
      </trkpt>
      <trkpt lat="47.4376830" lon="6.7942040">
        <ele>470.8</ele>
        <time>2022-07-20T13:16:06Z</time>
      </trkpt>
      <trkpt lat="47.4375670" lon="6.7942070">
        <ele>471.0</ele>
        <time>2022-07-20T13:16:11Z</time>
      </trkpt>
      <trkpt lat="47.4375280" lon="6.7942230">
        <ele>471.4</ele>
        <time>2022-07-20T13:16:13Z</time>
      </trkpt>
      <trkpt lat="47.4374460" lon="6.7942730">
        <ele>471.8</ele>
        <time>2022-07-20T13:16:17Z</time>
      </trkpt>
      <trkpt lat="47.4373480" lon="6.7942340">
        <ele>472.2</ele>
        <time>2022-07-20T13:16:21Z</time>
      </trkpt>
      <trkpt lat="47.4373230" lon="6.7942310">
        <ele>472.2</ele>
        <time>2022-07-20T13:16:22Z</time>
      </trkpt>
      <trkpt lat="47.4372230" lon="6.7942220">
        <ele>472.8</ele>
        <time>2022-07-20T13:16:27Z</time>
      </trkpt>
      <trkpt lat="47.4371090" lon="6.7942830">
        <ele>473.2</ele>
        <time>2022-07-20T13:16:33Z</time>
      </trkpt>
      <trkpt lat="47.4369900" lon="6.7943570">
        <ele>474.0</ele>
        <time>2022-07-20T13:16:39Z</time>
      </trkpt>
      <trkpt lat="47.4368250" lon="6.7943790">
        <ele>474.2</ele>
        <time>2022-07-20T13:16:45Z</time>
      </trkpt>
      <trkpt lat="47.4367740" lon="6.7943900">
        <ele>474.2</ele>
        <time>2022-07-20T13:16:47Z</time>
      </trkpt>
      <trkpt lat="47.4366920" lon="6.7944120">
        <ele>474.4</ele>
        <time>2022-07-20T13:16:51Z</time>
      </trkpt>
      <trkpt lat="47.4365880" lon="6.7944570">
        <ele>475.0</ele>
        <time>2022-07-20T13:16:57Z</time>
      </trkpt>
      <trkpt lat="47.4365180" lon="6.7944530">
        <ele>475.4</ele>
        <time>2022-07-20T13:17:00Z</time>
      </trkpt>
      <trkpt lat="47.4364480" lon="6.7944490">
        <ele>475.4</ele>
        <time>2022-07-20T13:17:03Z</time>
      </trkpt>
      <trkpt lat="47.4363300" lon="6.7943870">
        <ele>476.2</ele>
        <time>2022-07-20T13:17:08Z</time>
      </trkpt>
      <trkpt lat="47.4362840" lon="6.7943620">
        <ele>476.4</ele>
        <time>2022-07-20T13:17:10Z</time>
      </trkpt>
      <trkpt lat="47.4362010" lon="6.7943520">
        <ele>476.6</ele>
        <time>2022-07-20T13:17:13Z</time>
      </trkpt>
      <trkpt lat="47.4360840" lon="6.7943790">
        <ele>476.6</ele>
        <time>2022-07-20T13:17:18Z</time>
      </trkpt>
      <trkpt lat="47.4359680" lon="6.7943940">
        <ele>476.8</ele>
        <time>2022-07-20T13:17:23Z</time>
      </trkpt>
      <trkpt lat="47.4359220" lon="6.7943990">
        <ele>476.8</ele>
        <time>2022-07-20T13:17:26Z</time>
      </trkpt>
      <trkpt lat="47.4358640" lon="6.7944250">
        <ele>477.0</ele>
        <time>2022-07-20T13:17:30Z</time>
      </trkpt>
      <trkpt lat="47.4357410" lon="6.7944560">
        <ele>477.0</ele>
        <time>2022-07-20T13:17:35Z</time>
      </trkpt>
      <trkpt lat="47.4356090" lon="6.7945050">
        <ele>477.0</ele>
        <time>2022-07-20T13:17:40Z</time>
      </trkpt>
      <trkpt lat="47.4355610" lon="6.7945290">
        <ele>477.0</ele>
        <time>2022-07-20T13:17:42Z</time>
      </trkpt>
      <trkpt lat="47.4355050" lon="6.7945540">
        <ele>477.2</ele>
        <time>2022-07-20T13:17:45Z</time>
      </trkpt>
      <trkpt lat="47.4354520" lon="6.7945690">
        <ele>477.2</ele>
        <time>2022-07-20T13:17:47Z</time>
      </trkpt>
      <trkpt lat="47.4353770" lon="6.7945860">
        <ele>477.2</ele>
        <time>2022-07-20T13:17:51Z</time>
      </trkpt>
      <trkpt lat="47.4353560" lon="6.7945920">
        <ele>477.2</ele>
        <time>2022-07-20T13:17:52Z</time>
      </trkpt>
      <trkpt lat="47.4352710" lon="6.7946270">
        <ele>477.2</ele>
        <time>2022-07-20T13:17:56Z</time>
      </trkpt>
      <trkpt lat="47.4351490" lon="6.7946810">
        <ele>477.2</ele>
        <time>2022-07-20T13:18:02Z</time>
      </trkpt>
      <trkpt lat="47.4350870" lon="6.7947260">
        <ele>477.0</ele>
        <time>2022-07-20T13:18:07Z</time>
      </trkpt>
      <trkpt lat="47.4350730" lon="6.7947400">
        <ele>477.0</ele>
        <time>2022-07-20T13:18:08Z</time>
      </trkpt>
      <trkpt lat="47.4349530" lon="6.7947970">
        <ele>477.0</ele>
        <time>2022-07-20T13:18:14Z</time>
      </trkpt>
      <trkpt lat="47.4349380" lon="6.7948140">
        <ele>477.0</ele>
        <time>2022-07-20T13:18:15Z</time>
      </trkpt>
      <trkpt lat="47.4348430" lon="6.7948650">
        <ele>476.8</ele>
        <time>2022-07-20T13:18:20Z</time>
      </trkpt>
      <trkpt lat="47.4348200" lon="6.7948900">
        <ele>476.8</ele>
        <time>2022-07-20T13:18:21Z</time>
      </trkpt>
      <trkpt lat="47.4347110" lon="6.7950520">
        <ele>476.6</ele>
        <time>2022-07-20T13:18:25Z</time>
      </trkpt>
      <trkpt lat="47.4346200" lon="6.7951520">
        <ele>476.4</ele>
        <time>2022-07-20T13:18:29Z</time>
      </trkpt>
      <trkpt lat="47.4345170" lon="6.7952400">
        <ele>476.0</ele>
        <time>2022-07-20T13:18:35Z</time>
      </trkpt>
      <trkpt lat="47.4343740" lon="6.7952240">
        <ele>476.2</ele>
        <time>2022-07-20T13:18:40Z</time>
      </trkpt>
      <trkpt lat="47.4341810" lon="6.7951750">
        <ele>476.4</ele>
        <time>2022-07-20T13:18:46Z</time>
      </trkpt>
      <trkpt lat="47.4340320" lon="6.7952250">
        <ele>476.6</ele>
        <time>2022-07-20T13:18:52Z</time>
      </trkpt>
      <trkpt lat="47.4339140" lon="6.7952630">
        <ele>476.8</ele>
        <time>2022-07-20T13:18:59Z</time>
      </trkpt>
      <trkpt lat="47.4338600" lon="6.7952910">
        <ele>477.4</ele>
        <time>2022-07-20T13:19:02Z</time>
      </trkpt>
      <trkpt lat="47.4338230" lon="6.7953290">
        <ele>477.8</ele>
        <time>2022-07-20T13:19:04Z</time>
      </trkpt>
      <trkpt lat="47.4337610" lon="6.7953150">
        <ele>478.6</ele>
        <time>2022-07-20T13:19:08Z</time>
      </trkpt>
      <trkpt lat="47.4337470" lon="6.7953130">
        <ele>478.6</ele>
        <time>2022-07-20T13:19:09Z</time>
      </trkpt>
      <trkpt lat="47.4337360" lon="6.7953220">
        <ele>478.8</ele>
        <time>2022-07-20T13:19:10Z</time>
      </trkpt>
      <trkpt lat="47.4337240" lon="6.7953320">
        <ele>479.0</ele>
        <time>2022-07-20T13:19:11Z</time>
      </trkpt>
      <trkpt lat="47.4336720" lon="6.7953790">
        <ele>479.4</ele>
        <time>2022-07-20T13:19:15Z</time>
      </trkpt>
      <trkpt lat="47.4336560" lon="6.7953850">
        <ele>479.4</ele>
        <time>2022-07-20T13:19:16Z</time>
      </trkpt>
      <trkpt lat="47.4335990" lon="6.7953800">
        <ele>479.6</ele>
        <time>2022-07-20T13:19:19Z</time>
      </trkpt>
      <trkpt lat="47.4335810" lon="6.7953780">
        <ele>479.8</ele>
        <time>2022-07-20T13:19:20Z</time>
      </trkpt>
      <trkpt lat="47.4334930" lon="6.7953700">
        <ele>480.8</ele>
        <time>2022-07-20T13:19:25Z</time>
      </trkpt>
      <trkpt lat="47.4334330" lon="6.7954370">
        <ele>481.4</ele>
        <time>2022-07-20T13:19:30Z</time>
      </trkpt>
      <trkpt lat="47.4334130" lon="6.7954370">
        <ele>481.4</ele>
        <time>2022-07-20T13:19:31Z</time>
      </trkpt>
      <trkpt lat="47.4333110" lon="6.7954700">
        <ele>482.0</ele>
        <time>2022-07-20T13:19:36Z</time>
      </trkpt>
      <trkpt lat="47.4333000" lon="6.7954810">
        <ele>482.2</ele>
        <time>2022-07-20T13:19:37Z</time>
      </trkpt>
      <trkpt lat="47.4331950" lon="6.7955420">
        <ele>482.8</ele>
        <time>2022-07-20T13:19:44Z</time>
      </trkpt>
      <trkpt lat="47.4331530" lon="6.7955540">
        <ele>483.0</ele>
        <time>2022-07-20T13:19:46Z</time>
      </trkpt>
      <trkpt lat="47.4330440" lon="6.7955960">
        <ele>484.0</ele>
        <time>2022-07-20T13:19:51Z</time>
      </trkpt>
      <trkpt lat="47.4330190" lon="6.7956000">
        <ele>484.2</ele>
        <time>2022-07-20T13:19:52Z</time>
      </trkpt>
      <trkpt lat="47.4329470" lon="6.7956020">
        <ele>484.6</ele>
        <time>2022-07-20T13:19:55Z</time>
      </trkpt>
      <trkpt lat="47.4327770" lon="6.7956200">
        <ele>484.8</ele>
        <time>2022-07-20T13:20:01Z</time>
      </trkpt>
      <trkpt lat="47.4326420" lon="6.7955990">
        <ele>484.6</ele>
        <time>2022-07-20T13:20:06Z</time>
      </trkpt>
      <trkpt lat="47.4325170" lon="6.7956470">
        <ele>484.2</ele>
        <time>2022-07-20T13:20:11Z</time>
      </trkpt>
      <trkpt lat="47.4324020" lon="6.7956340">
        <ele>484.2</ele>
        <time>2022-07-20T13:20:16Z</time>
      </trkpt>
      <trkpt lat="47.4322690" lon="6.7955800">
        <ele>484.4</ele>
        <time>2022-07-20T13:20:21Z</time>
      </trkpt>
      <trkpt lat="47.4321400" lon="6.7956000">
        <ele>484.6</ele>
        <time>2022-07-20T13:20:26Z</time>
      </trkpt>
      <trkpt lat="47.4319710" lon="6.7956110">
        <ele>485.2</ele>
        <time>2022-07-20T13:20:32Z</time>
      </trkpt>
      <trkpt lat="47.4319390" lon="6.7956150">
        <ele>485.2</ele>
        <time>2022-07-20T13:20:33Z</time>
      </trkpt>
      <trkpt lat="47.4318270" lon="6.7956580">
        <ele>486.2</ele>
        <time>2022-07-20T13:20:37Z</time>
      </trkpt>
      <trkpt lat="47.4317590" lon="6.7957460">
        <ele>486.4</ele>
        <time>2022-07-20T13:20:42Z</time>
      </trkpt>
      <trkpt lat="47.4317500" lon="6.7957630">
        <ele>486.4</ele>
        <time>2022-07-20T13:20:43Z</time>
      </trkpt>
      <trkpt lat="47.4317410" lon="6.7957820">
        <ele>486.6</ele>
        <time>2022-07-20T13:20:44Z</time>
      </trkpt>
      <trkpt lat="47.4316820" lon="6.7959260">
        <ele>487.2</ele>
        <time>2022-07-20T13:20:51Z</time>
      </trkpt>
      <trkpt lat="47.4316660" lon="6.7959610">
        <ele>487.6</ele>
        <time>2022-07-20T13:20:53Z</time>
      </trkpt>
      <trkpt lat="47.4316470" lon="6.7960240">
        <ele>488.2</ele>
        <time>2022-07-20T13:20:57Z</time>
      </trkpt>
      <trkpt lat="47.4316380" lon="6.7960320">
        <ele>488.2</ele>
        <time>2022-07-20T13:20:58Z</time>
      </trkpt>
      <trkpt lat="47.4316130" lon="6.7960420">
        <ele>488.6</ele>
        <time>2022-07-20T13:21:00Z</time>
      </trkpt>
      <trkpt lat="47.4315740" lon="6.7960620">
        <ele>489.2</ele>
        <time>2022-07-20T13:21:03Z</time>
      </trkpt>
      <trkpt lat="47.4315370" lon="6.7960890">
        <ele>489.8</ele>
        <time>2022-07-20T13:21:07Z</time>
      </trkpt>
      <trkpt lat="47.4315180" lon="6.7960890">
        <ele>490.0</ele>
        <time>2022-07-20T13:21:09Z</time>
      </trkpt>
      <trkpt lat="47.4314940" lon="6.7960830">
        <ele>490.4</ele>
        <time>2022-07-20T13:21:11Z</time>
      </trkpt>
      <trkpt lat="47.4314510" lon="6.7960660">
        <ele>490.8</ele>
        <time>2022-07-20T13:21:14Z</time>
      </trkpt>
      <trkpt lat="47.4313800" lon="6.7960400">
        <ele>491.0</ele>
        <time>2022-07-20T13:21:19Z</time>
      </trkpt>
      <trkpt lat="47.4313020" lon="6.7959230">
        <ele>491.6</ele>
        <time>2022-07-20T13:21:26Z</time>
      </trkpt>
      <trkpt lat="47.4312900" lon="6.7959000">
        <ele>491.8</ele>
        <time>2022-07-20T13:21:27Z</time>
      </trkpt>
      <trkpt lat="47.4312260" lon="6.7958520">
        <ele>492.2</ele>
        <time>2022-07-20T13:21:31Z</time>
      </trkpt>
      <trkpt lat="47.4311650" lon="6.7958680">
        <ele>492.6</ele>
        <time>2022-07-20T13:21:35Z</time>
      </trkpt>
      <trkpt lat="47.4311140" lon="6.7958770">
        <ele>492.8</ele>
        <time>2022-07-20T13:21:38Z</time>
      </trkpt>
      <trkpt lat="47.4310010" lon="6.7958860">
        <ele>493.4</ele>
        <time>2022-07-20T13:21:44Z</time>
      </trkpt>
      <trkpt lat="47.4308920" lon="6.7958940">
        <ele>493.8</ele>
        <time>2022-07-20T13:21:49Z</time>
      </trkpt>
      <trkpt lat="47.4308300" lon="6.7959290">
        <ele>494.0</ele>
        <time>2022-07-20T13:21:52Z</time>
      </trkpt>
      <trkpt lat="47.4307020" lon="6.7959030">
        <ele>494.4</ele>
        <time>2022-07-20T13:21:58Z</time>
      </trkpt>
      <trkpt lat="47.4305500" lon="6.7958790">
        <ele>494.2</ele>
        <time>2022-07-20T13:22:04Z</time>
      </trkpt>
      <trkpt lat="47.4303910" lon="6.7958290">
        <ele>494.2</ele>
        <time>2022-07-20T13:22:10Z</time>
      </trkpt>
      <trkpt lat="47.4302680" lon="6.7958040">
        <ele>494.2</ele>
        <time>2022-07-20T13:22:15Z</time>
      </trkpt>
      <trkpt lat="47.4301140" lon="6.7958400">
        <ele>494.4</ele>
        <time>2022-07-20T13:22:22Z</time>
      </trkpt>
      <trkpt lat="47.4299920" lon="6.7958910">
        <ele>494.4</ele>
        <time>2022-07-20T13:22:27Z</time>
      </trkpt>
      <trkpt lat="47.4298640" lon="6.7959050">
        <ele>494.4</ele>
        <time>2022-07-20T13:22:30Z</time>
      </trkpt>
      <trkpt lat="47.4298230" lon="6.7958930">
        <ele>494.4</ele>
        <time>2022-07-20T13:22:31Z</time>
      </trkpt>
      <trkpt lat="47.4296180" lon="6.7958810">
        <ele>493.6</ele>
        <time>2022-07-20T13:22:36Z</time>
      </trkpt>
      <trkpt lat="47.4295780" lon="6.7958970">
        <ele>493.4</ele>
        <time>2022-07-20T13:22:37Z</time>
      </trkpt>
      <trkpt lat="47.4294720" lon="6.7958880">
        <ele>493.0</ele>
        <time>2022-07-20T13:22:41Z</time>
      </trkpt>
      <trkpt lat="47.4293690" lon="6.7958800">
        <ele>492.8</ele>
        <time>2022-07-20T13:22:45Z</time>
      </trkpt>
      <trkpt lat="47.4292040" lon="6.7958530">
        <ele>492.6</ele>
        <time>2022-07-20T13:22:50Z</time>
      </trkpt>
      <trkpt lat="47.4290240" lon="6.7957930">
        <ele>492.4</ele>
        <time>2022-07-20T13:22:55Z</time>
      </trkpt>
      <trkpt lat="47.4289200" lon="6.7957410">
        <ele>491.2</ele>
        <time>2022-07-20T13:22:58Z</time>
      </trkpt>
      <trkpt lat="47.4288260" lon="6.7957200">
        <ele>490.2</ele>
        <time>2022-07-20T13:23:01Z</time>
      </trkpt>
      <trkpt lat="47.4287990" lon="6.7957130">
        <ele>489.8</ele>
        <time>2022-07-20T13:23:02Z</time>
      </trkpt>
      <trkpt lat="47.4286460" lon="6.7956860">
        <ele>488.8</ele>
        <time>2022-07-20T13:23:07Z</time>
      </trkpt>
      <trkpt lat="47.4286100" lon="6.7956820">
        <ele>488.8</ele>
        <time>2022-07-20T13:23:08Z</time>
      </trkpt>
      <trkpt lat="47.4285030" lon="6.7956990">
        <ele>488.6</ele>
        <time>2022-07-20T13:23:12Z</time>
      </trkpt>
      <trkpt lat="47.4283510" lon="6.7956870">
        <ele>488.4</ele>
        <time>2022-07-20T13:23:18Z</time>
      </trkpt>
      <trkpt lat="47.4281500" lon="6.7956780">
        <ele>489.2</ele>
        <time>2022-07-20T13:23:25Z</time>
      </trkpt>
      <trkpt lat="47.4280950" lon="6.7956660">
        <ele>489.8</ele>
        <time>2022-07-20T13:23:27Z</time>
      </trkpt>
      <trkpt lat="47.4279890" lon="6.7956500">
        <ele>490.2</ele>
        <time>2022-07-20T13:23:31Z</time>
      </trkpt>
      <trkpt lat="47.4277790" lon="6.7956480">
        <ele>490.8</ele>
        <time>2022-07-20T13:23:39Z</time>
      </trkpt>
      <trkpt lat="47.4275990" lon="6.7956050">
        <ele>491.2</ele>
        <time>2022-07-20T13:23:45Z</time>
      </trkpt>
      <trkpt lat="47.4274100" lon="6.7955590">
        <ele>491.2</ele>
        <time>2022-07-20T13:23:52Z</time>
      </trkpt>
      <trkpt lat="47.4273270" lon="6.7955550">
        <ele>491.2</ele>
        <time>2022-07-20T13:23:55Z</time>
      </trkpt>
      <trkpt lat="47.4272970" lon="6.7955460">
        <ele>491.0</ele>
        <time>2022-07-20T13:23:56Z</time>
      </trkpt>
      <trkpt lat="47.4271040" lon="6.7955530">
        <ele>490.8</ele>
        <time>2022-07-20T13:24:03Z</time>
      </trkpt>
      <trkpt lat="47.4270730" lon="6.7955560">
        <ele>490.8</ele>
        <time>2022-07-20T13:24:05Z</time>
      </trkpt>
      <trkpt lat="47.4270110" lon="6.7955220">
        <ele>490.6</ele>
        <time>2022-07-20T13:24:09Z</time>
      </trkpt>
      <trkpt lat="47.4269900" lon="6.7955110">
        <ele>490.6</ele>
        <time>2022-07-20T13:24:10Z</time>
      </trkpt>
      <trkpt lat="47.4268590" lon="6.7954840">
        <ele>490.4</ele>
        <time>2022-07-20T13:24:14Z</time>
      </trkpt>
      <trkpt lat="47.4267340" lon="6.7954590">
        <ele>490.0</ele>
        <time>2022-07-20T13:24:18Z</time>
      </trkpt>
      <trkpt lat="47.4267070" lon="6.7954570">
        <ele>489.4</ele>
        <time>2022-07-20T13:24:19Z</time>
      </trkpt>
      <trkpt lat="47.4266660" lon="6.7954650">
        <ele>488.6</ele>
        <time>2022-07-20T13:24:21Z</time>
      </trkpt>
      <trkpt lat="47.4266320" lon="6.7954620">
        <ele>488.4</ele>
        <time>2022-07-20T13:24:24Z</time>
      </trkpt>
      <trkpt lat="47.4264900" lon="6.7954300">
        <ele>488.6</ele>
        <time>2022-07-20T13:24:31Z</time>
      </trkpt>
      <trkpt lat="47.4263370" lon="6.7953950">
        <ele>488.8</ele>
        <time>2022-07-20T13:24:37Z</time>
      </trkpt>
      <trkpt lat="47.4262260" lon="6.7953710">
        <ele>489.0</ele>
        <time>2022-07-20T13:24:43Z</time>
      </trkpt>
      <trkpt lat="47.4261140" lon="6.7953930">
        <ele>489.0</ele>
        <time>2022-07-20T13:24:50Z</time>
      </trkpt>
      <trkpt lat="47.4260250" lon="6.7954260">
        <ele>488.8</ele>
        <time>2022-07-20T13:24:55Z</time>
      </trkpt>
      <trkpt lat="47.4259680" lon="6.7954190">
        <ele>489.2</ele>
        <time>2022-07-20T13:24:57Z</time>
      </trkpt>
      <trkpt lat="47.4258520" lon="6.7954150">
        <ele>489.6</ele>
        <time>2022-07-20T13:25:01Z</time>
      </trkpt>
      <trkpt lat="47.4257710" lon="6.7954260">
        <ele>489.8</ele>
        <time>2022-07-20T13:25:04Z</time>
      </trkpt>
      <trkpt lat="47.4255260" lon="6.7954180">
        <ele>490.0</ele>
        <time>2022-07-20T13:25:13Z</time>
      </trkpt>
      <trkpt lat="47.4253040" lon="6.7954180">
        <ele>490.0</ele>
        <time>2022-07-20T13:25:20Z</time>
      </trkpt>
      <trkpt lat="47.4250910" lon="6.7953940">
        <ele>489.8</ele>
        <time>2022-07-20T13:25:26Z</time>
      </trkpt>
      <trkpt lat="47.4248040" lon="6.7952860">
        <ele>489.4</ele>
        <time>2022-07-20T13:25:32Z</time>
      </trkpt>
      <trkpt lat="47.4244590" lon="6.7951820">
        <ele>488.6</ele>
        <time>2022-07-20T13:25:38Z</time>
      </trkpt>
      <trkpt lat="47.4243940" lon="6.7951640">
        <ele>488.4</ele>
        <time>2022-07-20T13:25:39Z</time>
      </trkpt>
      <trkpt lat="47.4239770" lon="6.7950660">
        <ele>487.4</ele>
        <time>2022-07-20T13:25:46Z</time>
      </trkpt>
      <trkpt lat="47.4239240" lon="6.7950520">
        <ele>487.2</ele>
        <time>2022-07-20T13:25:47Z</time>
      </trkpt>
      <trkpt lat="47.4237540" lon="6.7950270">
        <ele>486.2</ele>
        <time>2022-07-20T13:25:51Z</time>
      </trkpt>
      <trkpt lat="47.4237200" lon="6.7950270">
        <ele>486.0</ele>
        <time>2022-07-20T13:25:52Z</time>
      </trkpt>
      <trkpt lat="47.4235530" lon="6.7950110">
        <ele>485.6</ele>
        <time>2022-07-20T13:25:57Z</time>
      </trkpt>
      <trkpt lat="47.4233250" lon="6.7949290">
        <ele>485.4</ele>
        <time>2022-07-20T13:26:03Z</time>
      </trkpt>
      <trkpt lat="47.4232370" lon="6.7949080">
        <ele>485.4</ele>
        <time>2022-07-20T13:26:05Z</time>
      </trkpt>
      <trkpt lat="47.4231380" lon="6.7948840">
        <ele>485.2</ele>
        <time>2022-07-20T13:26:07Z</time>
      </trkpt>
      <trkpt lat="47.4230390" lon="6.7948590">
        <ele>485.0</ele>
        <time>2022-07-20T13:26:09Z</time>
      </trkpt>
      <trkpt lat="47.4229270" lon="6.7948400">
        <ele>484.8</ele>
        <time>2022-07-20T13:26:11Z</time>
      </trkpt>
      <trkpt lat="47.4227610" lon="6.7948250">
        <ele>484.2</ele>
        <time>2022-07-20T13:26:14Z</time>
      </trkpt>
      <trkpt lat="47.4226670" lon="6.7948190">
        <ele>484.0</ele>
        <time>2022-07-20T13:26:16Z</time>
      </trkpt>
      <trkpt lat="47.4224950" lon="6.7948090">
        <ele>483.6</ele>
        <time>2022-07-20T13:26:20Z</time>
      </trkpt>
      <trkpt lat="47.4223050" lon="6.7947780">
        <ele>483.4</ele>
        <time>2022-07-20T13:26:26Z</time>
      </trkpt>
      <trkpt lat="47.4221390" lon="6.7948070">
        <ele>483.4</ele>
        <time>2022-07-20T13:26:32Z</time>
      </trkpt>
      <trkpt lat="47.4220100" lon="6.7948040">
        <ele>483.6</ele>
        <time>2022-07-20T13:26:38Z</time>
      </trkpt>
      <trkpt lat="47.4218610" lon="6.7947980">
        <ele>484.6</ele>
        <time>2022-07-20T13:26:45Z</time>
      </trkpt>
      <trkpt lat="47.4217870" lon="6.7948060">
        <ele>485.0</ele>
        <time>2022-07-20T13:26:48Z</time>
      </trkpt>
      <trkpt lat="47.4217350" lon="6.7948160">
        <ele>485.2</ele>
        <time>2022-07-20T13:26:51Z</time>
      </trkpt>
      <trkpt lat="47.4216440" lon="6.7947940">
        <ele>486.2</ele>
        <time>2022-07-20T13:26:55Z</time>
      </trkpt>
      <trkpt lat="47.4215970" lon="6.7947970">
        <ele>486.2</ele>
        <time>2022-07-20T13:26:57Z</time>
      </trkpt>
      <trkpt lat="47.4213430" lon="6.7948160">
        <ele>487.0</ele>
        <time>2022-07-20T13:27:05Z</time>
      </trkpt>
      <trkpt lat="47.4212760" lon="6.7947940">
        <ele>487.2</ele>
        <time>2022-07-20T13:27:09Z</time>
      </trkpt>
      <trkpt lat="47.4212620" lon="6.7947910">
        <ele>487.2</ele>
        <time>2022-07-20T13:27:10Z</time>
      </trkpt>
      <trkpt lat="47.4211730" lon="6.7947990">
        <ele>488.0</ele>
        <time>2022-07-20T13:27:16Z</time>
      </trkpt>
      <trkpt lat="47.4211560" lon="6.7948090">
        <ele>488.2</ele>
        <time>2022-07-20T13:27:17Z</time>
      </trkpt>
      <trkpt lat="47.4210600" lon="6.7948580">
        <ele>489.2</ele>
        <time>2022-07-20T13:27:23Z</time>
      </trkpt>
      <trkpt lat="47.4210490" lon="6.7948650">
        <ele>489.4</ele>
        <time>2022-07-20T13:27:24Z</time>
      </trkpt>
      <trkpt lat="47.4209780" lon="6.7948890">
        <ele>490.2</ele>
        <time>2022-07-20T13:27:29Z</time>
      </trkpt>
      <trkpt lat="47.4209260" lon="6.7948760">
        <ele>490.8</ele>
        <time>2022-07-20T13:27:32Z</time>
      </trkpt>
      <trkpt lat="47.4208800" lon="6.7948860">
        <ele>491.4</ele>
        <time>2022-07-20T13:27:35Z</time>
      </trkpt>
      <trkpt lat="47.4207740" lon="6.7948920">
        <ele>492.2</ele>
        <time>2022-07-20T13:27:41Z</time>
      </trkpt>
      <trkpt lat="47.4207580" lon="6.7949000">
        <ele>492.4</ele>
        <time>2022-07-20T13:27:42Z</time>
      </trkpt>
      <trkpt lat="47.4206430" lon="6.7949270">
        <ele>493.2</ele>
        <time>2022-07-20T13:27:48Z</time>
      </trkpt>
      <trkpt lat="47.4205930" lon="6.7949320">
        <ele>493.4</ele>
        <time>2022-07-20T13:27:50Z</time>
      </trkpt>
      <trkpt lat="47.4204910" lon="6.7949250">
        <ele>493.8</ele>
        <time>2022-07-20T13:27:54Z</time>
      </trkpt>
      <trkpt lat="47.4203690" lon="6.7949310">
        <ele>494.0</ele>
        <time>2022-07-20T13:27:59Z</time>
      </trkpt>
      <trkpt lat="47.4201840" lon="6.7949760">
        <ele>494.2</ele>
        <time>2022-07-20T13:28:06Z</time>
      </trkpt>
      <trkpt lat="47.4201160" lon="6.7950370">
        <ele>494.4</ele>
        <time>2022-07-20T13:28:09Z</time>
      </trkpt>
      <trkpt lat="47.4200480" lon="6.7950920">
        <ele>494.8</ele>
        <time>2022-07-20T13:28:12Z</time>
      </trkpt>
      <trkpt lat="47.4199370" lon="6.7952390">
        <ele>495.2</ele>
        <time>2022-07-20T13:28:17Z</time>
      </trkpt>
      <trkpt lat="47.4198570" lon="6.7953880">
        <ele>495.4</ele>
        <time>2022-07-20T13:28:21Z</time>
      </trkpt>
      <trkpt lat="47.4198090" lon="6.7954820">
        <ele>495.6</ele>
        <time>2022-07-20T13:28:24Z</time>
      </trkpt>
      <trkpt lat="47.4196690" lon="6.7957140">
        <ele>495.8</ele>
        <time>2022-07-20T13:28:31Z</time>
      </trkpt>
      <trkpt lat="47.4195530" lon="6.7959290">
        <ele>495.8</ele>
        <time>2022-07-20T13:28:37Z</time>
      </trkpt>
      <trkpt lat="47.4193930" lon="6.7962770">
        <ele>495.8</ele>
        <time>2022-07-20T13:28:44Z</time>
      </trkpt>
      <trkpt lat="47.4193390" lon="6.7965900">
        <ele>495.2</ele>
        <time>2022-07-20T13:28:49Z</time>
      </trkpt>
      <trkpt lat="47.4192410" lon="6.7969820">
        <ele>494.2</ele>
        <time>2022-07-20T13:28:55Z</time>
      </trkpt>
      <trkpt lat="47.4191820" lon="6.7972790">
        <ele>494.2</ele>
        <time>2022-07-20T13:29:00Z</time>
      </trkpt>
      <trkpt lat="47.4191720" lon="6.7973300">
        <ele>494.2</ele>
        <time>2022-07-20T13:29:01Z</time>
      </trkpt>
      <trkpt lat="47.4191220" lon="6.7975930">
        <ele>493.8</ele>
        <time>2022-07-20T13:29:06Z</time>
      </trkpt>
      <trkpt lat="47.4190640" lon="6.7981350">
        <ele>493.2</ele>
        <time>2022-07-20T13:29:13Z</time>
      </trkpt>
      <trkpt lat="47.4190570" lon="6.7982130">
        <ele>493.0</ele>
        <time>2022-07-20T13:29:14Z</time>
      </trkpt>
      <trkpt lat="47.4190170" lon="6.7986210">
        <ele>492.0</ele>
        <time>2022-07-20T13:29:20Z</time>
      </trkpt>
      <trkpt lat="47.4189950" lon="6.7989220">
        <ele>491.6</ele>
        <time>2022-07-20T13:29:26Z</time>
      </trkpt>
      <trkpt lat="47.4189300" lon="6.7991990">
        <ele>491.4</ele>
        <time>2022-07-20T13:29:32Z</time>
      </trkpt>
      <trkpt lat="47.4188280" lon="6.7995340">
        <ele>491.0</ele>
        <time>2022-07-20T13:29:37Z</time>
      </trkpt>
      <trkpt lat="47.4188000" lon="6.7996020">
        <ele>490.8</ele>
        <time>2022-07-20T13:29:38Z</time>
      </trkpt>
      <trkpt lat="47.4186720" lon="6.7999280">
        <ele>489.8</ele>
        <time>2022-07-20T13:29:43Z</time>
      </trkpt>
      <trkpt lat="47.4185580" lon="6.8000890">
        <ele>489.0</ele>
        <time>2022-07-20T13:29:47Z</time>
      </trkpt>
      <trkpt lat="47.4185330" lon="6.8001350">
        <ele>488.6</ele>
        <time>2022-07-20T13:29:48Z</time>
      </trkpt>
      <trkpt lat="47.4184900" lon="6.8002000">
        <ele>487.6</ele>
        <time>2022-07-20T13:29:50Z</time>
      </trkpt>
      <trkpt lat="47.4184360" lon="6.8002800">
        <ele>486.8</ele>
        <time>2022-07-20T13:29:53Z</time>
      </trkpt>
      <trkpt lat="47.4183940" lon="6.8003540">
        <ele>486.8</ele>
        <time>2022-07-20T13:29:55Z</time>
      </trkpt>
      <trkpt lat="47.4183110" lon="6.8004140">
        <ele>486.8</ele>
        <time>2022-07-20T13:29:59Z</time>
      </trkpt>
      <trkpt lat="47.4182870" lon="6.8004220">
        <ele>486.8</ele>
        <time>2022-07-20T13:30:01Z</time>
      </trkpt>
      <trkpt lat="47.4182720" lon="6.8004290">
        <ele>487.0</ele>
        <time>2022-07-20T13:30:02Z</time>
      </trkpt>
      <trkpt lat="47.4182230" lon="6.8004200">
        <ele>488.0</ele>
        <time>2022-07-20T13:30:06Z</time>
      </trkpt>
      <trkpt lat="47.4181990" lon="6.8004160">
        <ele>488.6</ele>
        <time>2022-07-20T13:30:08Z</time>
      </trkpt>
      <trkpt lat="47.4181250" lon="6.8004050">
        <ele>489.6</ele>
        <time>2022-07-20T13:30:14Z</time>
      </trkpt>
      <trkpt lat="47.4181170" lon="6.8004040">
        <ele>489.8</ele>
        <time>2022-07-20T13:30:15Z</time>
      </trkpt>
      <trkpt lat="47.4174340" lon="6.8004710">
        <ele>497.8</ele>
        <time>2022-07-20T13:31:38Z</time>
      </trkpt>
      <trkpt lat="47.4173870" lon="6.8004660">
        <ele>498.4</ele>
        <time>2022-07-20T13:31:42Z</time>
      </trkpt>
      <trkpt lat="47.4173520" lon="6.8004550">
        <ele>499.0</ele>
        <time>2022-07-20T13:31:45Z</time>
      </trkpt>
      <trkpt lat="47.4172800" lon="6.8004400">
        <ele>500.0</ele>
        <time>2022-07-20T13:31:51Z</time>
      </trkpt>
      <trkpt lat="47.4172660" lon="6.8004370">
        <ele>500.0</ele>
        <time>2022-07-20T13:31:52Z</time>
      </trkpt>
      <trkpt lat="47.4171540" lon="6.8004110">
        <ele>501.0</ele>
        <time>2022-07-20T13:32:01Z</time>
      </trkpt>
      <trkpt lat="47.4171410" lon="6.8004080">
        <ele>501.2</ele>
        <time>2022-07-20T13:32:02Z</time>
      </trkpt>
      <trkpt lat="47.4170520" lon="6.8003850">
        <ele>502.0</ele>
        <time>2022-07-20T13:32:09Z</time>
      </trkpt>
      <trkpt lat="47.4170400" lon="6.8003830">
        <ele>502.2</ele>
        <time>2022-07-20T13:32:10Z</time>
      </trkpt>
      <trkpt lat="47.4169520" lon="6.8003640">
        <ele>503.2</ele>
        <time>2022-07-20T13:32:17Z</time>
      </trkpt>
      <trkpt lat="47.4169400" lon="6.8003630">
        <ele>503.4</ele>
        <time>2022-07-20T13:32:18Z</time>
      </trkpt>
      <trkpt lat="47.4169000" lon="6.8003650">
        <ele>503.8</ele>
        <time>2022-07-20T13:32:21Z</time>
      </trkpt>
      <trkpt lat="47.4168740" lon="6.8003540">
        <ele>504.2</ele>
        <time>2022-07-20T13:32:23Z</time>
      </trkpt>
      <trkpt lat="47.4168310" lon="6.8002960">
        <ele>504.4</ele>
        <time>2022-07-20T13:32:26Z</time>
      </trkpt>
      <trkpt lat="47.4168000" lon="6.8002550">
        <ele>504.8</ele>
        <time>2022-07-20T13:32:28Z</time>
      </trkpt>
      <trkpt lat="47.4167840" lon="6.8002320">
        <ele>505.0</ele>
        <time>2022-07-20T13:32:29Z</time>
      </trkpt>
      <trkpt lat="47.4166540" lon="6.8000600">
        <ele>505.0</ele>
        <time>2022-07-20T13:32:36Z</time>
      </trkpt>
      <trkpt lat="47.4164820" lon="6.7998400">
        <ele>505.0</ele>
        <time>2022-07-20T13:32:43Z</time>
      </trkpt>
      <trkpt lat="47.4163010" lon="6.7995840">
        <ele>504.8</ele>
        <time>2022-07-20T13:32:50Z</time>
      </trkpt>
      <trkpt lat="47.4161620" lon="6.7993440">
        <ele>504.6</ele>
        <time>2022-07-20T13:32:55Z</time>
      </trkpt>
      <trkpt lat="47.4159440" lon="6.7989910">
        <ele>504.0</ele>
        <time>2022-07-20T13:33:01Z</time>
      </trkpt>
      <trkpt lat="47.4158050" lon="6.7987610">
        <ele>503.2</ele>
        <time>2022-07-20T13:33:05Z</time>
      </trkpt>
      <trkpt lat="47.4157750" lon="6.7987220">
        <ele>503.0</ele>
        <time>2022-07-20T13:33:06Z</time>
      </trkpt>
      <trkpt lat="47.4157170" lon="6.7986800">
        <ele>502.2</ele>
        <time>2022-07-20T13:33:08Z</time>
      </trkpt>
      <trkpt lat="47.4156660" lon="6.7986670">
        <ele>501.8</ele>
        <time>2022-07-20T13:33:10Z</time>
      </trkpt>
      <trkpt lat="47.4156490" lon="6.7986630">
        <ele>501.2</ele>
        <time>2022-07-20T13:33:11Z</time>
      </trkpt>
      <trkpt lat="47.4155900" lon="6.7986630">
        <ele>499.8</ele>
        <time>2022-07-20T13:33:14Z</time>
      </trkpt>
      <trkpt lat="47.4155230" lon="6.7986540">
        <ele>499.6</ele>
        <time>2022-07-20T13:33:17Z</time>
      </trkpt>
      <trkpt lat="47.4153610" lon="6.7985730">
        <ele>500.0</ele>
        <time>2022-07-20T13:33:24Z</time>
      </trkpt>
      <trkpt lat="47.4152190" lon="6.7985380">
        <ele>500.6</ele>
        <time>2022-07-20T13:33:30Z</time>
      </trkpt>
      <trkpt lat="47.4151810" lon="6.7985340">
        <ele>500.8</ele>
        <time>2022-07-20T13:33:32Z</time>
      </trkpt>
      <trkpt lat="47.4150720" lon="6.7985170">
        <ele>501.4</ele>
        <time>2022-07-20T13:33:39Z</time>
      </trkpt>
      <trkpt lat="47.4150420" lon="6.7985120">
        <ele>501.8</ele>
        <time>2022-07-20T13:33:41Z</time>
      </trkpt>
      <trkpt lat="47.4149670" lon="6.7985000">
        <ele>502.4</ele>
        <time>2022-07-20T13:33:46Z</time>
      </trkpt>
      <trkpt lat="47.4149440" lon="6.7984950">
        <ele>502.8</ele>
        <time>2022-07-20T13:33:48Z</time>
      </trkpt>
      <trkpt lat="47.4148770" lon="6.7984990">
        <ele>503.4</ele>
        <time>2022-07-20T13:33:53Z</time>
      </trkpt>
      <trkpt lat="47.4148120" lon="6.7985100">
        <ele>503.8</ele>
        <time>2022-07-20T13:33:58Z</time>
      </trkpt>
      <trkpt lat="47.4147730" lon="6.7985160">
        <ele>504.4</ele>
        <time>2022-07-20T13:34:01Z</time>
      </trkpt>
      <trkpt lat="47.4147090" lon="6.7985160">
        <ele>505.0</ele>
        <time>2022-07-20T13:34:06Z</time>
      </trkpt>
      <trkpt lat="47.4146750" lon="6.7985220">
        <ele>505.4</ele>
        <time>2022-07-20T13:34:09Z</time>
      </trkpt>
      <trkpt lat="47.4146280" lon="6.7985300">
        <ele>506.0</ele>
        <time>2022-07-20T13:34:13Z</time>
      </trkpt>
      <trkpt lat="47.4145690" lon="6.7985230">
        <ele>507.0</ele>
        <time>2022-07-20T13:34:18Z</time>
      </trkpt>
      <trkpt lat="47.4145560" lon="6.7985230">
        <ele>507.2</ele>
        <time>2022-07-20T13:34:19Z</time>
      </trkpt>
      <trkpt lat="47.4144750" lon="6.7985250">
        <ele>508.4</ele>
        <time>2022-07-20T13:34:26Z</time>
      </trkpt>
      <trkpt lat="47.4144650" lon="6.7985230">
        <ele>508.6</ele>
        <time>2022-07-20T13:34:27Z</time>
      </trkpt>
      <trkpt lat="47.4144030" lon="6.7985050">
        <ele>509.6</ele>
        <time>2022-07-20T13:34:33Z</time>
      </trkpt>
      <trkpt lat="47.4143690" lon="6.7984960">
        <ele>509.8</ele>
        <time>2022-07-20T13:34:36Z</time>
      </trkpt>
      <trkpt lat="47.4143100" lon="6.7984750">
        <ele>510.6</ele>
        <time>2022-07-20T13:34:42Z</time>
      </trkpt>
      <trkpt lat="47.4142880" lon="6.7984670">
        <ele>510.6</ele>
        <time>2022-07-20T13:34:44Z</time>
      </trkpt>
      <trkpt lat="47.4142780" lon="6.7984650">
        <ele>510.6</ele>
        <time>2022-07-20T13:34:45Z</time>
      </trkpt>
      <trkpt lat="47.4142600" lon="6.7984730">
        <ele>511.0</ele>
        <time>2022-07-20T13:34:48Z</time>
      </trkpt>
      <trkpt lat="47.4141740" lon="6.7984070">
        <ele>513.2</ele>
        <time>2022-07-20T13:35:18Z</time>
      </trkpt>
      <trkpt lat="47.4140570" lon="6.7982420">
        <ele>513.0</ele>
        <time>2022-07-20T13:35:25Z</time>
      </trkpt>
      <trkpt lat="47.4140350" lon="6.7982120">
        <ele>513.0</ele>
        <time>2022-07-20T13:35:26Z</time>
      </trkpt>
      <trkpt lat="47.4138750" lon="6.7979700">
        <ele>512.8</ele>
        <time>2022-07-20T13:35:33Z</time>
      </trkpt>
      <trkpt lat="47.4138630" lon="6.7979300">
        <ele>512.8</ele>
        <time>2022-07-20T13:35:35Z</time>
      </trkpt>
      <trkpt lat="47.4138820" lon="6.7978870">
        <ele>512.8</ele>
        <time>2022-07-20T13:35:37Z</time>
      </trkpt>
      <trkpt lat="47.4139430" lon="6.7979140">
        <ele>512.4</ele>
        <time>2022-07-20T13:35:41Z</time>
      </trkpt>
      <trkpt lat="47.4139550" lon="6.7979620">
        <ele>512.4</ele>
        <time>2022-07-20T13:35:43Z</time>
      </trkpt>
      <trkpt lat="47.4139540" lon="6.7979880">
        <ele>512.4</ele>
        <time>2022-07-20T13:35:44Z</time>
      </trkpt>
      <trkpt lat="47.4139400" lon="6.7980370">
        <ele>512.2</ele>
        <time>2022-07-20T13:35:46Z</time>
      </trkpt>
      <trkpt lat="47.4139140" lon="6.7980790">
        <ele>512.2</ele>
        <time>2022-07-20T13:35:48Z</time>
      </trkpt>
      <trkpt lat="47.4138640" lon="6.7981140">
        <ele>512.2</ele>
        <time>2022-07-20T13:35:52Z</time>
      </trkpt>
      <trkpt lat="47.4138510" lon="6.7981110">
        <ele>512.2</ele>
        <time>2022-07-20T13:35:53Z</time>
      </trkpt>
      <trkpt lat="47.4137990" lon="6.7980540">
        <ele>512.4</ele>
        <time>2022-07-20T13:35:57Z</time>
      </trkpt>
      <trkpt lat="47.4137350" lon="6.7979890">
        <ele>513.4</ele>
        <time>2022-07-20T13:36:01Z</time>
      </trkpt>
      <trkpt lat="47.4137000" lon="6.7979400">
        <ele>514.0</ele>
        <time>2022-07-20T13:36:03Z</time>
      </trkpt>
      <trkpt lat="47.4136280" lon="6.7978700">
        <ele>514.4</ele>
        <time>2022-07-20T13:36:07Z</time>
      </trkpt>
      <trkpt lat="47.4135770" lon="6.7977850">
        <ele>514.8</ele>
        <time>2022-07-20T13:36:12Z</time>
      </trkpt>
      <trkpt lat="47.4135170" lon="6.7977050">
        <ele>514.8</ele>
        <time>2022-07-20T13:36:15Z</time>
      </trkpt>
      <trkpt lat="47.4134850" lon="6.7976860">
        <ele>515.0</ele>
        <time>2022-07-20T13:36:17Z</time>
      </trkpt>
      <trkpt lat="47.4134260" lon="6.7976530">
        <ele>515.2</ele>
        <time>2022-07-20T13:36:20Z</time>
      </trkpt>
      <trkpt lat="47.4133010" lon="6.7975690">
        <ele>515.2</ele>
        <time>2022-07-20T13:36:26Z</time>
      </trkpt>
      <trkpt lat="47.4131380" lon="6.7974290">
        <ele>515.4</ele>
        <time>2022-07-20T13:36:32Z</time>
      </trkpt>
      <trkpt lat="47.4130180" lon="6.7973370">
        <ele>515.4</ele>
        <time>2022-07-20T13:36:38Z</time>
      </trkpt>
      <trkpt lat="47.4130040" lon="6.7973420">
        <ele>515.4</ele>
        <time>2022-07-20T13:36:40Z</time>
      </trkpt>
      <trkpt lat="47.4128540" lon="6.7973650">
        <ele>514.8</ele>
        <time>2022-07-20T13:37:20Z</time>
      </trkpt>
      <trkpt lat="47.4128360" lon="6.7973610">
        <ele>514.8</ele>
        <time>2022-07-20T13:37:21Z</time>
      </trkpt>
      <trkpt lat="47.4127200" lon="6.7973980">
        <ele>514.8</ele>
        <time>2022-07-20T13:37:25Z</time>
      </trkpt>
      <trkpt lat="47.4124810" lon="6.7975190">
        <ele>514.4</ele>
        <time>2022-07-20T13:37:31Z</time>
      </trkpt>
      <trkpt lat="47.4122770" lon="6.7977020">
        <ele>513.8</ele>
        <time>2022-07-20T13:37:37Z</time>
      </trkpt>
      <trkpt lat="47.4121300" lon="6.7978570">
        <ele>513.8</ele>
        <time>2022-07-20T13:37:43Z</time>
      </trkpt>
      <trkpt lat="47.4120370" lon="6.7979740">
        <ele>514.4</ele>
        <time>2022-07-20T13:37:49Z</time>
      </trkpt>
      <trkpt lat="47.4120110" lon="6.7980130">
        <ele>515.0</ele>
        <time>2022-07-20T13:37:51Z</time>
      </trkpt>
      <trkpt lat="47.4119520" lon="6.7980750">
        <ele>515.4</ele>
        <time>2022-07-20T13:37:55Z</time>
      </trkpt>
      <trkpt lat="47.4119400" lon="6.7980910">
        <ele>515.6</ele>
        <time>2022-07-20T13:37:56Z</time>
      </trkpt>
      <trkpt lat="47.4118680" lon="6.7981600">
        <ele>516.6</ele>
        <time>2022-07-20T13:38:01Z</time>
      </trkpt>
      <trkpt lat="47.4118560" lon="6.7981660">
        <ele>516.8</ele>
        <time>2022-07-20T13:38:02Z</time>
      </trkpt>
      <trkpt lat="47.4118420" lon="6.7981880">
        <ele>517.0</ele>
        <time>2022-07-20T13:38:03Z</time>
      </trkpt>
      <trkpt lat="47.4117860" lon="6.7982540">
        <ele>518.0</ele>
        <time>2022-07-20T13:38:07Z</time>
      </trkpt>
      <trkpt lat="47.4117730" lon="6.7982690">
        <ele>518.0</ele>
        <time>2022-07-20T13:38:08Z</time>
      </trkpt>
      <trkpt lat="47.4116790" lon="6.7983490">
        <ele>518.8</ele>
        <time>2022-07-20T13:38:14Z</time>
      </trkpt>
      <trkpt lat="47.4115830" lon="6.7984290">
        <ele>519.8</ele>
        <time>2022-07-20T13:38:20Z</time>
      </trkpt>
      <trkpt lat="47.4115700" lon="6.7984510">
        <ele>519.8</ele>
        <time>2022-07-20T13:38:21Z</time>
      </trkpt>
      <trkpt lat="47.4114980" lon="6.7985280">
        <ele>520.8</ele>
        <time>2022-07-20T13:38:26Z</time>
      </trkpt>
      <trkpt lat="47.4114840" lon="6.7985370">
        <ele>521.0</ele>
        <time>2022-07-20T13:38:27Z</time>
      </trkpt>
      <trkpt lat="47.4113930" lon="6.7985680">
        <ele>521.6</ele>
        <time>2022-07-20T13:38:33Z</time>
      </trkpt>
      <trkpt lat="47.4113770" lon="6.7985740">
        <ele>521.8</ele>
        <time>2022-07-20T13:38:34Z</time>
      </trkpt>
      <trkpt lat="47.4113150" lon="6.7986070">
        <ele>522.4</ele>
        <time>2022-07-20T13:38:38Z</time>
      </trkpt>
      <trkpt lat="47.4112790" lon="6.7986150">
        <ele>522.8</ele>
        <time>2022-07-20T13:38:40Z</time>
      </trkpt>
      <trkpt lat="47.4112110" lon="6.7986000">
        <ele>523.2</ele>
        <time>2022-07-20T13:38:44Z</time>
      </trkpt>
      <trkpt lat="47.4111470" lon="6.7985460">
        <ele>523.8</ele>
        <time>2022-07-20T13:38:48Z</time>
      </trkpt>
      <trkpt lat="47.4111210" lon="6.7985090">
        <ele>524.2</ele>
        <time>2022-07-20T13:38:50Z</time>
      </trkpt>
      <trkpt lat="47.4110680" lon="6.7984220">
        <ele>524.8</ele>
        <time>2022-07-20T13:38:54Z</time>
      </trkpt>
      <trkpt lat="47.4110380" lon="6.7983730">
        <ele>525.2</ele>
        <time>2022-07-20T13:38:56Z</time>
      </trkpt>
      <trkpt lat="47.4109810" lon="6.7982950">
        <ele>525.8</ele>
        <time>2022-07-20T13:39:00Z</time>
      </trkpt>
      <trkpt lat="47.4109440" lon="6.7982270">
        <ele>526.2</ele>
        <time>2022-07-20T13:39:03Z</time>
      </trkpt>
      <trkpt lat="47.4109100" lon="6.7981460">
        <ele>526.8</ele>
        <time>2022-07-20T13:39:06Z</time>
      </trkpt>
      <trkpt lat="47.4108800" lon="6.7980610">
        <ele>527.0</ele>
        <time>2022-07-20T13:39:09Z</time>
      </trkpt>
      <trkpt lat="47.4108330" lon="6.7979340">
        <ele>527.6</ele>
        <time>2022-07-20T13:39:14Z</time>
      </trkpt>
      <trkpt lat="47.4108210" lon="6.7979100">
        <ele>527.6</ele>
        <time>2022-07-20T13:39:15Z</time>
      </trkpt>
      <trkpt lat="47.4107420" lon="6.7977430">
        <ele>528.4</ele>
        <time>2022-07-20T13:39:22Z</time>
      </trkpt>
      <trkpt lat="47.4107290" lon="6.7976900">
        <ele>528.6</ele>
        <time>2022-07-20T13:39:24Z</time>
      </trkpt>
      <trkpt lat="47.4106980" lon="6.7975130">
        <ele>529.2</ele>
        <time>2022-07-20T13:39:30Z</time>
      </trkpt>
      <trkpt lat="47.4106760" lon="6.7974280">
        <ele>529.6</ele>
        <time>2022-07-20T13:39:33Z</time>
      </trkpt>
      <trkpt lat="47.4106450" lon="6.7973100">
        <ele>530.0</ele>
        <time>2022-07-20T13:39:37Z</time>
      </trkpt>
      <trkpt lat="47.4106050" lon="6.7971430">
        <ele>530.6</ele>
        <time>2022-07-20T13:39:42Z</time>
      </trkpt>
      <trkpt lat="47.4105720" lon="6.7969430">
        <ele>531.0</ele>
        <time>2022-07-20T13:39:48Z</time>
      </trkpt>
      <trkpt lat="47.4105260" lon="6.7968280">
        <ele>531.6</ele>
        <time>2022-07-20T13:39:52Z</time>
      </trkpt>
      <trkpt lat="47.4105170" lon="6.7967630">
        <ele>532.0</ele>
        <time>2022-07-20T13:39:54Z</time>
      </trkpt>
      <trkpt lat="47.4104710" lon="6.7966010">
        <ele>532.8</ele>
        <time>2022-07-20T13:39:59Z</time>
      </trkpt>
      <trkpt lat="47.4104420" lon="6.7965270">
        <ele>533.2</ele>
        <time>2022-07-20T13:40:01Z</time>
      </trkpt>
      <trkpt lat="47.4103880" lon="6.7963680">
        <ele>533.8</ele>
        <time>2022-07-20T13:40:06Z</time>
      </trkpt>
      <trkpt lat="47.4103800" lon="6.7963420">
        <ele>534.0</ele>
        <time>2022-07-20T13:40:07Z</time>
      </trkpt>
      <trkpt lat="47.4103220" lon="6.7961560">
        <ele>534.8</ele>
        <time>2022-07-20T13:40:13Z</time>
      </trkpt>
      <trkpt lat="47.4102550" lon="6.7959600">
        <ele>536.0</ele>
        <time>2022-07-20T13:40:20Z</time>
      </trkpt>
      <trkpt lat="47.4102120" lon="6.7958160">
        <ele>536.8</ele>
        <time>2022-07-20T13:40:26Z</time>
      </trkpt>
      <trkpt lat="47.4102020" lon="6.7957890">
        <ele>537.0</ele>
        <time>2022-07-20T13:40:27Z</time>
      </trkpt>
      <trkpt lat="47.4101550" lon="6.7956330">
        <ele>538.0</ele>
        <time>2022-07-20T13:40:33Z</time>
      </trkpt>
      <trkpt lat="47.4101370" lon="6.7955820">
        <ele>538.2</ele>
        <time>2022-07-20T13:40:35Z</time>
      </trkpt>
      <trkpt lat="47.4100990" lon="6.7954720">
        <ele>539.0</ele>
        <time>2022-07-20T13:40:40Z</time>
      </trkpt>
      <trkpt lat="47.4100900" lon="6.7954490">
        <ele>539.2</ele>
        <time>2022-07-20T13:40:41Z</time>
      </trkpt>
      <trkpt lat="47.4100310" lon="6.7953120">
        <ele>540.2</ele>
        <time>2022-07-20T13:40:47Z</time>
      </trkpt>
      <trkpt lat="47.4100250" lon="6.7952930">
        <ele>540.4</ele>
        <time>2022-07-20T13:40:48Z</time>
      </trkpt>
      <trkpt lat="47.4099940" lon="6.7952180">
        <ele>541.2</ele>
        <time>2022-07-20T13:40:52Z</time>
      </trkpt>
      <trkpt lat="47.4099500" lon="6.7951470">
        <ele>541.6</ele>
        <time>2022-07-20T13:40:55Z</time>
      </trkpt>
      <trkpt lat="47.4099150" lon="6.7950700">
        <ele>542.2</ele>
        <time>2022-07-20T13:40:58Z</time>
      </trkpt>
      <trkpt lat="47.4098700" lon="6.7949670">
        <ele>543.2</ele>
        <time>2022-07-20T13:41:02Z</time>
      </trkpt>
      <trkpt lat="47.4098590" lon="6.7949410">
        <ele>543.2</ele>
        <time>2022-07-20T13:41:03Z</time>
      </trkpt>
      <trkpt lat="47.4098220" lon="6.7948320">
        <ele>544.0</ele>
        <time>2022-07-20T13:41:08Z</time>
      </trkpt>
      <trkpt lat="47.4098080" lon="6.7947820">
        <ele>544.2</ele>
        <time>2022-07-20T13:41:10Z</time>
      </trkpt>
      <trkpt lat="47.4097810" lon="6.7946810">
        <ele>544.6</ele>
        <time>2022-07-20T13:41:14Z</time>
      </trkpt>
      <trkpt lat="47.4097180" lon="6.7944890">
        <ele>545.2</ele>
        <time>2022-07-20T13:41:20Z</time>
      </trkpt>
      <trkpt lat="47.4096190" lon="6.7942170">
        <ele>545.6</ele>
        <time>2022-07-20T13:41:27Z</time>
      </trkpt>
      <trkpt lat="47.4095050" lon="6.7938620">
        <ele>545.6</ele>
        <time>2022-07-20T13:41:34Z</time>
      </trkpt>
      <trkpt lat="47.4093740" lon="6.7935870">
        <ele>545.2</ele>
        <time>2022-07-20T13:41:40Z</time>
      </trkpt>
      <trkpt lat="47.4092250" lon="6.7933160">
        <ele>545.2</ele>
        <time>2022-07-20T13:41:47Z</time>
      </trkpt>
      <trkpt lat="47.4090870" lon="6.7931070">
        <ele>546.0</ele>
        <time>2022-07-20T13:41:53Z</time>
      </trkpt>
      <trkpt lat="47.4090600" lon="6.7930700">
        <ele>546.2</ele>
        <time>2022-07-20T13:41:54Z</time>
      </trkpt>
      <trkpt lat="47.4089250" lon="6.7928670">
        <ele>547.2</ele>
        <time>2022-07-20T13:42:00Z</time>
      </trkpt>
      <trkpt lat="47.4088530" lon="6.7927690">
        <ele>547.8</ele>
        <time>2022-07-20T13:42:03Z</time>
      </trkpt>
      <trkpt lat="47.4087530" lon="6.7926890">
        <ele>548.2</ele>
        <time>2022-07-20T13:42:08Z</time>
      </trkpt>
      <trkpt lat="47.4086980" lon="6.7926580">
        <ele>548.4</ele>
        <time>2022-07-20T13:42:11Z</time>
      </trkpt>
      <trkpt lat="47.4086460" lon="6.7926340">
        <ele>548.6</ele>
        <time>2022-07-20T13:42:14Z</time>
      </trkpt>
      <trkpt lat="47.4085650" lon="6.7926100">
        <ele>549.4</ele>
        <time>2022-07-20T13:42:19Z</time>
      </trkpt>
      <trkpt lat="47.4085320" lon="6.7926020">
        <ele>550.0</ele>
        <time>2022-07-20T13:42:21Z</time>
      </trkpt>
      <trkpt lat="47.4084890" lon="6.7925930">
        <ele>550.4</ele>
        <time>2022-07-20T13:42:24Z</time>
      </trkpt>
      <trkpt lat="47.4084140" lon="6.7925830">
        <ele>551.4</ele>
        <time>2022-07-20T13:42:29Z</time>
      </trkpt>
      <trkpt lat="47.4084030" lon="6.7925800">
        <ele>551.6</ele>
        <time>2022-07-20T13:42:30Z</time>
      </trkpt>
      <trkpt lat="47.4083200" lon="6.7925710">
        <ele>552.8</ele>
        <time>2022-07-20T13:42:36Z</time>
      </trkpt>
      <trkpt lat="47.4082570" lon="6.7925550">
        <ele>553.8</ele>
        <time>2022-07-20T13:42:41Z</time>
      </trkpt>
      <trkpt lat="47.4082420" lon="6.7925540">
        <ele>554.0</ele>
        <time>2022-07-20T13:42:42Z</time>
      </trkpt>
      <trkpt lat="47.4081720" lon="6.7925400">
        <ele>554.8</ele>
        <time>2022-07-20T13:42:47Z</time>
      </trkpt>
      <trkpt lat="47.4080930" lon="6.7925240">
        <ele>555.8</ele>
        <time>2022-07-20T13:42:53Z</time>
      </trkpt>
      <trkpt lat="47.4080800" lon="6.7925200">
        <ele>556.2</ele>
        <time>2022-07-20T13:42:54Z</time>
      </trkpt>
      <trkpt lat="47.4080260" lon="6.7925110">
        <ele>557.2</ele>
        <time>2022-07-20T13:42:58Z</time>
      </trkpt>
      <trkpt lat="47.4079880" lon="6.7925090">
        <ele>558.2</ele>
        <time>2022-07-20T13:43:01Z</time>
      </trkpt>
      <trkpt lat="47.4079740" lon="6.7925100">
        <ele>558.4</ele>
        <time>2022-07-20T13:43:02Z</time>
      </trkpt>
      <trkpt lat="47.4079220" lon="6.7925150">
        <ele>559.4</ele>
        <time>2022-07-20T13:43:07Z</time>
      </trkpt>
      <trkpt lat="47.4078880" lon="6.7925110">
        <ele>560.0</ele>
        <time>2022-07-20T13:43:10Z</time>
      </trkpt>
      <trkpt lat="47.4078500" lon="6.7925290">
        <ele>560.4</ele>
        <time>2022-07-20T13:43:13Z</time>
      </trkpt>
      <trkpt lat="47.4078090" lon="6.7925410">
        <ele>561.2</ele>
        <time>2022-07-20T13:43:16Z</time>
      </trkpt>
      <trkpt lat="47.4077950" lon="6.7925460">
        <ele>561.6</ele>
        <time>2022-07-20T13:43:17Z</time>
      </trkpt>
      <trkpt lat="47.4077460" lon="6.7925770">
        <ele>562.4</ele>
        <time>2022-07-20T13:43:21Z</time>
      </trkpt>
      <trkpt lat="47.4077250" lon="6.7925980">
        <ele>562.6</ele>
        <time>2022-07-20T13:43:23Z</time>
      </trkpt>
      <trkpt lat="47.4076470" lon="6.7926640">
        <ele>563.8</ele>
        <time>2022-07-20T13:43:29Z</time>
      </trkpt>
      <trkpt lat="47.4076340" lon="6.7926740">
        <ele>564.0</ele>
        <time>2022-07-20T13:43:30Z</time>
      </trkpt>
      <trkpt lat="47.4075660" lon="6.7927360">
        <ele>565.0</ele>
        <time>2022-07-20T13:43:35Z</time>
      </trkpt>
      <trkpt lat="47.4075440" lon="6.7927670">
        <ele>565.4</ele>
        <time>2022-07-20T13:43:37Z</time>
      </trkpt>
      <trkpt lat="47.4075230" lon="6.7927990">
        <ele>565.6</ele>
        <time>2022-07-20T13:43:39Z</time>
      </trkpt>
      <trkpt lat="47.4074990" lon="6.7928330">
        <ele>566.0</ele>
        <time>2022-07-20T13:43:41Z</time>
      </trkpt>
      <trkpt lat="47.4074810" lon="6.7928710">
        <ele>566.4</ele>
        <time>2022-07-20T13:43:43Z</time>
      </trkpt>
      <trkpt lat="47.4074540" lon="6.7929480">
        <ele>567.2</ele>
        <time>2022-07-20T13:43:47Z</time>
      </trkpt>
      <trkpt lat="47.4074430" lon="6.7930020">
        <ele>567.4</ele>
        <time>2022-07-20T13:43:49Z</time>
      </trkpt>
      <trkpt lat="47.4074120" lon="6.7932060">
        <ele>568.4</ele>
        <time>2022-07-20T13:43:56Z</time>
      </trkpt>
      <trkpt lat="47.4073680" lon="6.7935230">
        <ele>569.6</ele>
        <time>2022-07-20T13:44:06Z</time>
      </trkpt>
      <trkpt lat="47.4073220" lon="6.7937670">
        <ele>570.6</ele>
        <time>2022-07-20T13:44:14Z</time>
      </trkpt>
      <trkpt lat="47.4072750" lon="6.7939440">
        <ele>571.6</ele>
        <time>2022-07-20T13:44:20Z</time>
      </trkpt>
      <trkpt lat="47.4072380" lon="6.7940660">
        <ele>572.0</ele>
        <time>2022-07-20T13:44:24Z</time>
      </trkpt>
      <trkpt lat="47.4071530" lon="6.7942410">
        <ele>572.8</ele>
        <time>2022-07-20T13:44:30Z</time>
      </trkpt>
      <trkpt lat="47.4070950" lon="6.7943160">
        <ele>573.0</ele>
        <time>2022-07-20T13:44:33Z</time>
      </trkpt>
      <trkpt lat="47.4069200" lon="6.7944500">
        <ele>573.6</ele>
        <time>2022-07-20T13:44:39Z</time>
      </trkpt>
      <trkpt lat="47.4066590" lon="6.7946500">
        <ele>573.6</ele>
        <time>2022-07-20T13:44:45Z</time>
      </trkpt>
      <trkpt lat="47.4063500" lon="6.7949760">
        <ele>572.4</ele>
        <time>2022-07-20T13:44:52Z</time>
      </trkpt>
      <trkpt lat="47.4061510" lon="6.7951910">
        <ele>572.0</ele>
        <time>2022-07-20T13:44:58Z</time>
      </trkpt>
      <trkpt lat="47.4060250" lon="6.7953260">
        <ele>572.0</ele>
        <time>2022-07-20T13:45:03Z</time>
      </trkpt>
      <trkpt lat="47.4058920" lon="6.7954930">
        <ele>572.6</ele>
        <time>2022-07-20T13:45:09Z</time>
      </trkpt>
      <trkpt lat="47.4057990" lon="6.7956630">
        <ele>573.8</ele>
        <time>2022-07-20T13:45:15Z</time>
      </trkpt>
      <trkpt lat="47.4057840" lon="6.7956890">
        <ele>574.0</ele>
        <time>2022-07-20T13:45:16Z</time>
      </trkpt>
      <trkpt lat="47.4057100" lon="6.7957940">
        <ele>575.0</ele>
        <time>2022-07-20T13:45:21Z</time>
      </trkpt>
      <trkpt lat="47.4056050" lon="6.7958800">
        <ele>576.2</ele>
        <time>2022-07-20T13:45:27Z</time>
      </trkpt>
      <trkpt lat="47.4055640" lon="6.7959010">
        <ele>576.4</ele>
        <time>2022-07-20T13:45:29Z</time>
      </trkpt>
      <trkpt lat="47.4053800" lon="6.7959690">
        <ele>577.0</ele>
        <time>2022-07-20T13:45:36Z</time>
      </trkpt>
      <trkpt lat="47.4052500" lon="6.7960350">
        <ele>577.2</ele>
        <time>2022-07-20T13:45:40Z</time>
      </trkpt>
      <trkpt lat="47.4051490" lon="6.7960840">
        <ele>577.2</ele>
        <time>2022-07-20T13:45:43Z</time>
      </trkpt>
      <trkpt lat="47.4049750" lon="6.7961830">
        <ele>577.2</ele>
        <time>2022-07-20T13:45:48Z</time>
      </trkpt>
      <trkpt lat="47.4048270" lon="6.7962790">
        <ele>577.2</ele>
        <time>2022-07-20T13:45:52Z</time>
      </trkpt>
      <trkpt lat="47.4045760" lon="6.7964340">
        <ele>577.2</ele>
        <time>2022-07-20T13:45:59Z</time>
      </trkpt>
      <trkpt lat="47.4043180" lon="6.7966900">
        <ele>577.0</ele>
        <time>2022-07-20T13:46:06Z</time>
      </trkpt>
      <trkpt lat="47.4041560" lon="6.7969260">
        <ele>576.8</ele>
        <time>2022-07-20T13:46:12Z</time>
      </trkpt>
      <trkpt lat="47.4039470" lon="6.7972280">
        <ele>576.4</ele>
        <time>2022-07-20T13:46:19Z</time>
      </trkpt>
      <trkpt lat="47.4037820" lon="6.7974160">
        <ele>576.2</ele>
        <time>2022-07-20T13:46:25Z</time>
      </trkpt>
      <trkpt lat="47.4035410" lon="6.7975830">
        <ele>577.6</ele>
        <time>2022-07-20T13:46:34Z</time>
      </trkpt>
      <trkpt lat="47.4034970" lon="6.7976090">
        <ele>578.0</ele>
        <time>2022-07-20T13:46:36Z</time>
      </trkpt>
      <trkpt lat="47.4033690" lon="6.7976970">
        <ele>579.0</ele>
        <time>2022-07-20T13:46:42Z</time>
      </trkpt>
      <trkpt lat="47.4033500" lon="6.7977140">
        <ele>579.2</ele>
        <time>2022-07-20T13:46:43Z</time>
      </trkpt>
      <trkpt lat="47.4032090" lon="6.7978030">
        <ele>580.0</ele>
        <time>2022-07-20T13:46:50Z</time>
      </trkpt>
      <trkpt lat="47.4031680" lon="6.7978290">
        <ele>580.2</ele>
        <time>2022-07-20T13:46:52Z</time>
      </trkpt>
      <trkpt lat="47.4030590" lon="6.7978890">
        <ele>581.0</ele>
        <time>2022-07-20T13:46:57Z</time>
      </trkpt>
      <trkpt lat="47.4030160" lon="6.7979080">
        <ele>581.2</ele>
        <time>2022-07-20T13:46:59Z</time>
      </trkpt>
      <trkpt lat="47.4029380" lon="6.7979640">
        <ele>581.6</ele>
        <time>2022-07-20T13:47:03Z</time>
      </trkpt>
      <trkpt lat="47.4028260" lon="6.7980850">
        <ele>582.4</ele>
        <time>2022-07-20T13:47:09Z</time>
      </trkpt>
      <trkpt lat="47.4028090" lon="6.7981090">
        <ele>582.6</ele>
        <time>2022-07-20T13:47:10Z</time>
      </trkpt>
      <trkpt lat="47.4027400" lon="6.7982920">
        <ele>583.4</ele>
        <time>2022-07-20T13:47:15Z</time>
      </trkpt>
      <trkpt lat="47.4027270" lon="6.7983400">
        <ele>583.6</ele>
        <time>2022-07-20T13:47:16Z</time>
      </trkpt>
      <trkpt lat="47.4026950" lon="6.7986090">
        <ele>583.8</ele>
        <time>2022-07-20T13:47:21Z</time>
      </trkpt>
      <trkpt lat="47.4026700" lon="6.7990000">
        <ele>583.8</ele>
        <time>2022-07-20T13:47:27Z</time>
      </trkpt>
      <trkpt lat="47.4026320" lon="6.7992340">
        <ele>583.0</ele>
        <time>2022-07-20T13:47:32Z</time>
      </trkpt>
      <trkpt lat="47.4025940" lon="6.7992290">
        <ele>582.4</ele>
        <time>2022-07-20T13:47:34Z</time>
      </trkpt>
      <trkpt lat="47.4025630" lon="6.7991620">
        <ele>581.8</ele>
        <time>2022-07-20T13:47:36Z</time>
      </trkpt>
      <trkpt lat="47.4025520" lon="6.7991210">
        <ele>581.6</ele>
        <time>2022-07-20T13:47:37Z</time>
      </trkpt>
      <trkpt lat="47.4025400" lon="6.7990780">
        <ele>581.4</ele>
        <time>2022-07-20T13:47:38Z</time>
      </trkpt>
      <trkpt lat="47.4025000" lon="6.7989380">
        <ele>580.2</ele>
        <time>2022-07-20T13:47:41Z</time>
      </trkpt>
      <trkpt lat="47.4024640" lon="6.7987860">
        <ele>580.0</ele>
        <time>2022-07-20T13:47:44Z</time>
      </trkpt>
      <trkpt lat="47.4023670" lon="6.7983340">
        <ele>580.2</ele>
        <time>2022-07-20T13:47:53Z</time>
      </trkpt>
      <trkpt lat="47.4022230" lon="6.7979430">
        <ele>580.8</ele>
        <time>2022-07-20T13:48:01Z</time>
      </trkpt>
      <trkpt lat="47.4019610" lon="6.7975140">
        <ele>580.8</ele>
        <time>2022-07-20T13:48:09Z</time>
      </trkpt>
      <trkpt lat="47.4018890" lon="6.7973880">
        <ele>580.6</ele>
        <time>2022-07-20T13:48:11Z</time>
      </trkpt>
      <trkpt lat="47.4016570" lon="6.7969790">
        <ele>579.6</ele>
        <time>2022-07-20T13:48:17Z</time>
      </trkpt>
      <trkpt lat="47.4015760" lon="6.7968360">
        <ele>579.2</ele>
        <time>2022-07-20T13:48:19Z</time>
      </trkpt>
      <trkpt lat="47.4013380" lon="6.7963900">
        <ele>578.2</ele>
        <time>2022-07-20T13:48:25Z</time>
      </trkpt>
      <trkpt lat="47.4012250" lon="6.7961670">
        <ele>577.6</ele>
        <time>2022-07-20T13:48:28Z</time>
      </trkpt>
      <trkpt lat="47.4010550" lon="6.7958010">
        <ele>577.2</ele>
        <time>2022-07-20T13:48:33Z</time>
      </trkpt>
      <trkpt lat="47.4009100" lon="6.7954260">
        <ele>576.6</ele>
        <time>2022-07-20T13:48:38Z</time>
      </trkpt>
      <trkpt lat="47.4007800" lon="6.7950640">
        <ele>576.2</ele>
        <time>2022-07-20T13:48:43Z</time>
      </trkpt>
      <trkpt lat="47.4006870" lon="6.7947880">
        <ele>576.0</ele>
        <time>2022-07-20T13:48:47Z</time>
      </trkpt>
      <trkpt lat="47.4005000" lon="6.7943800">
        <ele>575.8</ele>
        <time>2022-07-20T13:48:54Z</time>
      </trkpt>
      <trkpt lat="47.4002280" lon="6.7940340">
        <ele>575.6</ele>
        <time>2022-07-20T13:49:02Z</time>
      </trkpt>
      <trkpt lat="47.3998820" lon="6.7936390">
        <ele>575.6</ele>
        <time>2022-07-20T13:49:12Z</time>
      </trkpt>
      <trkpt lat="47.3996580" lon="6.7933660">
        <ele>575.8</ele>
        <time>2022-07-20T13:49:20Z</time>
      </trkpt>
      <trkpt lat="47.3993950" lon="6.7930530">
        <ele>577.4</ele>
        <time>2022-07-20T13:49:30Z</time>
      </trkpt>
      <trkpt lat="47.3993420" lon="6.7929910">
        <ele>577.6</ele>
        <time>2022-07-20T13:49:32Z</time>
      </trkpt>
      <trkpt lat="47.3990660" lon="6.7926880">
        <ele>578.2</ele>
        <time>2022-07-20T13:49:42Z</time>
      </trkpt>
      <trkpt lat="47.3989430" lon="6.7925710">
        <ele>578.4</ele>
        <time>2022-07-20T13:49:46Z</time>
      </trkpt>
      <trkpt lat="47.3987490" lon="6.7924010">
        <ele>578.6</ele>
        <time>2022-07-20T13:49:52Z</time>
      </trkpt>
      <trkpt lat="47.3984020" lon="6.7921310">
        <ele>579.0</ele>
        <time>2022-07-20T13:50:02Z</time>
      </trkpt>
      <trkpt lat="47.3980810" lon="6.7918480">
        <ele>579.0</ele>
        <time>2022-07-20T13:50:11Z</time>
      </trkpt>
      <trkpt lat="47.3977970" lon="6.7915600">
        <ele>578.8</ele>
        <time>2022-07-20T13:50:19Z</time>
      </trkpt>
      <trkpt lat="47.3973940" lon="6.7912870">
        <ele>578.6</ele>
        <time>2022-07-20T13:50:29Z</time>
      </trkpt>
      <trkpt lat="47.3971490" lon="6.7910800">
        <ele>578.4</ele>
        <time>2022-07-20T13:50:35Z</time>
      </trkpt>
      <trkpt lat="47.3970770" lon="6.7909860">
        <ele>578.2</ele>
        <time>2022-07-20T13:50:37Z</time>
      </trkpt>
      <trkpt lat="47.3968860" lon="6.7906470">
        <ele>577.6</ele>
        <time>2022-07-20T13:50:43Z</time>
      </trkpt>
      <trkpt lat="47.3968230" lon="6.7905260">
        <ele>577.4</ele>
        <time>2022-07-20T13:50:45Z</time>
      </trkpt>
      <trkpt lat="47.3965190" lon="6.7899940">
        <ele>576.8</ele>
        <time>2022-07-20T13:50:54Z</time>
      </trkpt>
      <trkpt lat="47.3963120" lon="6.7896530">
        <ele>576.6</ele>
        <time>2022-07-20T13:51:00Z</time>
      </trkpt>
      <trkpt lat="47.3961050" lon="6.7893170">
        <ele>576.2</ele>
        <time>2022-07-20T13:51:06Z</time>
      </trkpt>
      <trkpt lat="47.3958460" lon="6.7888410">
        <ele>575.6</ele>
        <time>2022-07-20T13:51:14Z</time>
      </trkpt>
      <trkpt lat="47.3957810" lon="6.7887110">
        <ele>575.4</ele>
        <time>2022-07-20T13:51:16Z</time>
      </trkpt>
      <trkpt lat="47.3955530" lon="6.7882010">
        <ele>574.8</ele>
        <time>2022-07-20T13:51:23Z</time>
      </trkpt>
      <trkpt lat="47.3954910" lon="6.7880690">
        <ele>574.4</ele>
        <time>2022-07-20T13:51:25Z</time>
      </trkpt>
      <trkpt lat="47.3953420" lon="6.7877650">
        <ele>573.6</ele>
        <time>2022-07-20T13:51:30Z</time>
      </trkpt>
      <trkpt lat="47.3953130" lon="6.7877090">
        <ele>573.2</ele>
        <time>2022-07-20T13:51:31Z</time>
      </trkpt>
      <trkpt lat="47.3952040" lon="6.7874310">
        <ele>572.2</ele>
        <time>2022-07-20T13:51:35Z</time>
      </trkpt>
      <trkpt lat="47.3950930" lon="6.7870820">
        <ele>570.8</ele>
        <time>2022-07-20T13:51:39Z</time>
      </trkpt>
      <trkpt lat="47.3950280" lon="6.7868910">
        <ele>570.4</ele>
        <time>2022-07-20T13:51:41Z</time>
      </trkpt>
      <trkpt lat="47.3949250" lon="6.7865890">
        <ele>569.8</ele>
        <time>2022-07-20T13:51:44Z</time>
      </trkpt>
      <trkpt lat="47.3948390" lon="6.7863270">
        <ele>568.6</ele>
        <time>2022-07-20T13:51:47Z</time>
      </trkpt>
      <trkpt lat="47.3947480" lon="6.7860560">
        <ele>567.2</ele>
        <time>2022-07-20T13:51:50Z</time>
      </trkpt>
      <trkpt lat="47.3947230" lon="6.7859580">
        <ele>566.8</ele>
        <time>2022-07-20T13:51:51Z</time>
      </trkpt>
      <trkpt lat="47.3946990" lon="6.7857610">
        <ele>565.8</ele>
        <time>2022-07-20T13:51:53Z</time>
      </trkpt>
      <trkpt lat="47.3947520" lon="6.7854390">
        <ele>564.4</ele>
        <time>2022-07-20T13:51:56Z</time>
      </trkpt>
      <trkpt lat="47.3948240" lon="6.7852340">
        <ele>563.4</ele>
        <time>2022-07-20T13:51:58Z</time>
      </trkpt>
      <trkpt lat="47.3948570" lon="6.7851350">
        <ele>562.8</ele>
        <time>2022-07-20T13:51:59Z</time>
      </trkpt>
      <trkpt lat="47.3948840" lon="6.7850320">
        <ele>562.2</ele>
        <time>2022-07-20T13:52:00Z</time>
      </trkpt>
      <trkpt lat="47.3949030" lon="6.7849280">
        <ele>561.4</ele>
        <time>2022-07-20T13:52:01Z</time>
      </trkpt>
      <trkpt lat="47.3949400" lon="6.7847280">
        <ele>559.8</ele>
        <time>2022-07-20T13:52:03Z</time>
      </trkpt>
      <trkpt lat="47.3949730" lon="6.7845520">
        <ele>558.0</ele>
        <time>2022-07-20T13:52:05Z</time>
      </trkpt>
      <trkpt lat="47.3949950" lon="6.7844750">
        <ele>557.2</ele>
        <time>2022-07-20T13:52:06Z</time>
      </trkpt>
      <trkpt lat="47.3950220" lon="6.7844030">
        <ele>556.2</ele>
        <time>2022-07-20T13:52:07Z</time>
      </trkpt>
      <trkpt lat="47.3950950" lon="6.7842620">
        <ele>554.2</ele>
        <time>2022-07-20T13:52:09Z</time>
      </trkpt>
      <trkpt lat="47.3951780" lon="6.7841280">
        <ele>552.4</ele>
        <time>2022-07-20T13:52:11Z</time>
      </trkpt>
      <trkpt lat="47.3952500" lon="6.7840230">
        <ele>551.0</ele>
        <time>2022-07-20T13:52:13Z</time>
      </trkpt>
      <trkpt lat="47.3952760" lon="6.7839850">
        <ele>550.2</ele>
        <time>2022-07-20T13:52:14Z</time>
      </trkpt>
      <trkpt lat="47.3952990" lon="6.7839550">
        <ele>549.6</ele>
        <time>2022-07-20T13:52:15Z</time>
      </trkpt>
      <trkpt lat="47.3953170" lon="6.7839310">
        <ele>548.2</ele>
        <time>2022-07-20T13:52:16Z</time>
      </trkpt>
      <trkpt lat="47.3953220" lon="6.7839030">
        <ele>547.6</ele>
        <time>2022-07-20T13:52:17Z</time>
      </trkpt>
      <trkpt lat="47.3953170" lon="6.7838870">
        <ele>547.0</ele>
        <time>2022-07-20T13:52:18Z</time>
      </trkpt>
      <trkpt lat="47.3953060" lon="6.7838810">
        <ele>545.8</ele>
        <time>2022-07-20T13:52:20Z</time>
      </trkpt>
      <trkpt lat="47.3953040" lon="6.7838820">
        <ele>545.2</ele>
        <time>2022-07-20T13:52:21Z</time>
      </trkpt>
      <trkpt lat="47.3952550" lon="6.7838940">
        <ele>543.4</ele>
        <time>2022-07-20T13:52:34Z</time>
      </trkpt>
      <trkpt lat="47.3952370" lon="6.7838930">
        <ele>543.6</ele>
        <time>2022-07-20T13:52:37Z</time>
      </trkpt>
      <trkpt lat="47.3951880" lon="6.7839240">
        <ele>542.8</ele>
        <time>2022-07-20T13:53:12Z</time>
      </trkpt>
      <trkpt lat="47.3950360" lon="6.7839760">
        <ele>542.8</ele>
        <time>2022-07-20T13:53:18Z</time>
      </trkpt>
      <trkpt lat="47.3949680" lon="6.7840020">
        <ele>542.6</ele>
        <time>2022-07-20T13:53:20Z</time>
      </trkpt>
      <trkpt lat="47.3947730" lon="6.7840710">
        <ele>542.2</ele>
        <time>2022-07-20T13:53:25Z</time>
      </trkpt>
      <trkpt lat="47.3945380" lon="6.7841350">
        <ele>541.6</ele>
        <time>2022-07-20T13:53:30Z</time>
      </trkpt>
      <trkpt lat="47.3944350" lon="6.7841390">
        <ele>541.4</ele>
        <time>2022-07-20T13:53:32Z</time>
      </trkpt>
      <trkpt lat="47.3943850" lon="6.7841340">
        <ele>541.2</ele>
        <time>2022-07-20T13:53:33Z</time>
      </trkpt>
      <trkpt lat="47.3942430" lon="6.7840790">
        <ele>541.0</ele>
        <time>2022-07-20T13:53:36Z</time>
      </trkpt>
      <trkpt lat="47.3941520" lon="6.7840150">
        <ele>540.6</ele>
        <time>2022-07-20T13:53:38Z</time>
      </trkpt>
      <trkpt lat="47.3940750" lon="6.7839090">
        <ele>540.4</ele>
        <time>2022-07-20T13:53:40Z</time>
      </trkpt>
      <trkpt lat="47.3940020" lon="6.7837690">
        <ele>540.2</ele>
        <time>2022-07-20T13:53:42Z</time>
      </trkpt>
      <trkpt lat="47.3939300" lon="6.7836250">
        <ele>539.4</ele>
        <time>2022-07-20T13:53:44Z</time>
      </trkpt>
      <trkpt lat="47.3938580" lon="6.7834720">
        <ele>539.0</ele>
        <time>2022-07-20T13:53:46Z</time>
      </trkpt>
      <trkpt lat="47.3937470" lon="6.7831260">
        <ele>538.2</ele>
        <time>2022-07-20T13:53:50Z</time>
      </trkpt>
      <trkpt lat="47.3937020" lon="6.7829420">
        <ele>537.8</ele>
        <time>2022-07-20T13:53:52Z</time>
      </trkpt>
      <trkpt lat="47.3936250" lon="6.7826950">
        <ele>537.2</ele>
        <time>2022-07-20T13:53:55Z</time>
      </trkpt>
      <trkpt lat="47.3935740" lon="6.7825560">
        <ele>536.6</ele>
        <time>2022-07-20T13:53:57Z</time>
      </trkpt>
      <trkpt lat="47.3935390" lon="6.7824220">
        <ele>536.4</ele>
        <time>2022-07-20T13:53:59Z</time>
      </trkpt>
      <trkpt lat="47.3935300" lon="6.7822660">
        <ele>536.2</ele>
        <time>2022-07-20T13:54:01Z</time>
      </trkpt>
      <trkpt lat="47.3935280" lon="6.7821830">
        <ele>536.0</ele>
        <time>2022-07-20T13:54:02Z</time>
      </trkpt>
      <trkpt lat="47.3935220" lon="6.7820970">
        <ele>536.0</ele>
        <time>2022-07-20T13:54:03Z</time>
      </trkpt>
      <trkpt lat="47.3934910" lon="6.7818460">
        <ele>535.4</ele>
        <time>2022-07-20T13:54:06Z</time>
      </trkpt>
      <trkpt lat="47.3934800" lon="6.7816770">
        <ele>535.0</ele>
        <time>2022-07-20T13:54:08Z</time>
      </trkpt>
      <trkpt lat="47.3934390" lon="6.7814040">
        <ele>534.2</ele>
        <time>2022-07-20T13:54:11Z</time>
      </trkpt>
      <trkpt lat="47.3934190" lon="6.7813240">
        <ele>533.8</ele>
        <time>2022-07-20T13:54:12Z</time>
      </trkpt>
      <trkpt lat="47.3933960" lon="6.7812480">
        <ele>533.6</ele>
        <time>2022-07-20T13:54:13Z</time>
      </trkpt>
      <trkpt lat="47.3933400" lon="6.7811000">
        <ele>532.8</ele>
        <time>2022-07-20T13:54:15Z</time>
      </trkpt>
      <trkpt lat="47.3932840" lon="6.7809500">
        <ele>531.8</ele>
        <time>2022-07-20T13:54:17Z</time>
      </trkpt>
      <trkpt lat="47.3932600" lon="6.7808710">
        <ele>531.4</ele>
        <time>2022-07-20T13:54:18Z</time>
      </trkpt>
      <trkpt lat="47.3932310" lon="6.7807250">
        <ele>530.4</ele>
        <time>2022-07-20T13:54:20Z</time>
      </trkpt>
      <trkpt lat="47.3932260" lon="6.7806670">
        <ele>530.0</ele>
        <time>2022-07-20T13:54:21Z</time>
      </trkpt>
      <trkpt lat="47.3932610" lon="6.7805420">
        <ele>529.2</ele>
        <time>2022-07-20T13:54:24Z</time>
      </trkpt>
      <trkpt lat="47.3933090" lon="6.7805110">
        <ele>527.8</ele>
        <time>2022-07-20T13:54:27Z</time>
      </trkpt>
      <trkpt lat="47.3933390" lon="6.7805010">
        <ele>527.4</ele>
        <time>2022-07-20T13:54:29Z</time>
      </trkpt>
      <trkpt lat="47.3934580" lon="6.7804330">
        <ele>526.8</ele>
        <time>2022-07-20T13:54:33Z</time>
      </trkpt>
      <trkpt lat="47.3934900" lon="6.7804150">
        <ele>526.8</ele>
        <time>2022-07-20T13:54:34Z</time>
      </trkpt>
      <trkpt lat="47.3936630" lon="6.7802970">
        <ele>526.4</ele>
        <time>2022-07-20T13:54:40Z</time>
      </trkpt>
      <trkpt lat="47.3937280" lon="6.7802590">
        <ele>525.8</ele>
        <time>2022-07-20T13:54:44Z</time>
      </trkpt>
      <trkpt lat="47.3937300" lon="6.7802570">
        <ele>525.6</ele>
        <time>2022-07-20T13:54:45Z</time>
      </trkpt>
      <trkpt lat="47.3937330" lon="6.7802570">
        <ele>525.2</ele>
        <time>2022-07-20T13:54:46Z</time>
      </trkpt>
      <trkpt lat="47.3938200" lon="6.7803900">
        <ele>522.0</ele>
        <time>2022-07-20T13:56:00Z</time>
      </trkpt>
      <trkpt lat="47.3938290" lon="6.7804490">
        <ele>522.0</ele>
        <time>2022-07-20T13:56:02Z</time>
      </trkpt>
      <trkpt lat="47.3938550" lon="6.7806560">
        <ele>521.8</ele>
        <time>2022-07-20T13:56:08Z</time>
      </trkpt>
      <trkpt lat="47.3938860" lon="6.7809040">
        <ele>521.6</ele>
        <time>2022-07-20T13:56:14Z</time>
      </trkpt>
      <trkpt lat="47.3938950" lon="6.7810230">
        <ele>521.0</ele>
        <time>2022-07-20T13:56:18Z</time>
      </trkpt>
      <trkpt lat="47.3939020" lon="6.7810810">
        <ele>520.4</ele>
        <time>2022-07-20T13:56:20Z</time>
      </trkpt>
      <trkpt lat="47.3939170" lon="6.7811590">
        <ele>519.6</ele>
        <time>2022-07-20T13:56:22Z</time>
      </trkpt>
      <trkpt lat="47.3939570" lon="6.7813250">
        <ele>518.6</ele>
        <time>2022-07-20T13:56:25Z</time>
      </trkpt>
      <trkpt lat="47.3939930" lon="6.7815070">
        <ele>517.4</ele>
        <time>2022-07-20T13:56:28Z</time>
      </trkpt>
      <trkpt lat="47.3940210" lon="6.7816900">
        <ele>516.2</ele>
        <time>2022-07-20T13:56:31Z</time>
      </trkpt>
      <trkpt lat="47.3940240" lon="6.7817520">
        <ele>515.6</ele>
        <time>2022-07-20T13:56:32Z</time>
      </trkpt>
      <trkpt lat="47.3940330" lon="6.7818180">
        <ele>515.2</ele>
        <time>2022-07-20T13:56:33Z</time>
      </trkpt>
      <trkpt lat="47.3940660" lon="6.7820300">
        <ele>514.2</ele>
        <time>2022-07-20T13:56:37Z</time>
      </trkpt>
      <trkpt lat="47.3941080" lon="6.7821470">
        <ele>513.2</ele>
        <time>2022-07-20T13:56:40Z</time>
      </trkpt>
      <trkpt lat="47.3941290" lon="6.7822220">
        <ele>512.6</ele>
        <time>2022-07-20T13:56:42Z</time>
      </trkpt>
      <trkpt lat="47.3941510" lon="6.7822750">
        <ele>512.2</ele>
        <time>2022-07-20T13:56:44Z</time>
      </trkpt>
      <trkpt lat="47.3942120" lon="6.7823970">
        <ele>510.6</ele>
        <time>2022-07-20T13:56:49Z</time>
      </trkpt>
      <trkpt lat="47.3942320" lon="6.7824130">
        <ele>509.8</ele>
        <time>2022-07-20T13:56:52Z</time>
      </trkpt>
      <trkpt lat="47.3947550" lon="6.7809260">
        <ele>475.4</ele>
        <time>2022-07-20T13:58:57Z</time>
      </trkpt>
      <trkpt lat="47.3948180" lon="6.7808210">
        <ele>475.2</ele>
        <time>2022-07-20T13:59:02Z</time>
      </trkpt>
      <trkpt lat="47.3948350" lon="6.7807940">
        <ele>475.0</ele>
        <time>2022-07-20T13:59:04Z</time>
      </trkpt>
      <trkpt lat="47.3948400" lon="6.7807800">
        <ele>474.6</ele>
        <time>2022-07-20T13:59:05Z</time>
      </trkpt>
      <trkpt lat="47.3948430" lon="6.7807710">
        <ele>474.2</ele>
        <time>2022-07-20T13:59:06Z</time>
      </trkpt>
      <trkpt lat="47.3948500" lon="6.7807610">
        <ele>473.8</ele>
        <time>2022-07-20T13:59:07Z</time>
      </trkpt>
      <trkpt lat="47.3948740" lon="6.7807180">
        <ele>473.0</ele>
        <time>2022-07-20T13:59:09Z</time>
      </trkpt>
      <trkpt lat="47.3949100" lon="6.7806410">
        <ele>472.4</ele>
        <time>2022-07-20T13:59:12Z</time>
      </trkpt>
      <trkpt lat="47.3949390" lon="6.7805750">
        <ele>472.0</ele>
        <time>2022-07-20T13:59:14Z</time>
      </trkpt>
      <trkpt lat="47.3950090" lon="6.7804310">
        <ele>471.0</ele>
        <time>2022-07-20T13:59:18Z</time>
      </trkpt>
      <trkpt lat="47.3950320" lon="6.7803930">
        <ele>470.6</ele>
        <time>2022-07-20T13:59:19Z</time>
      </trkpt>
      <trkpt lat="47.3951120" lon="6.7802610">
        <ele>469.0</ele>
        <time>2022-07-20T13:59:22Z</time>
      </trkpt>
      <trkpt lat="47.3951400" lon="6.7802050">
        <ele>468.6</ele>
        <time>2022-07-20T13:59:23Z</time>
      </trkpt>
      <trkpt lat="47.3951630" lon="6.7801510">
        <ele>468.0</ele>
        <time>2022-07-20T13:59:24Z</time>
      </trkpt>
      <trkpt lat="47.3952120" lon="6.7800750">
        <ele>466.8</ele>
        <time>2022-07-20T13:59:26Z</time>
      </trkpt>
      <trkpt lat="47.3952250" lon="6.7800380">
        <ele>466.2</ele>
        <time>2022-07-20T13:59:27Z</time>
      </trkpt>
      <trkpt lat="47.3952380" lon="6.7800110">
        <ele>465.4</ele>
        <time>2022-07-20T13:59:28Z</time>
      </trkpt>
      <trkpt lat="47.3952640" lon="6.7799620">
        <ele>464.0</ele>
        <time>2022-07-20T13:59:30Z</time>
      </trkpt>
      <trkpt lat="47.3952840" lon="6.7799060">
        <ele>462.2</ele>
        <time>2022-07-20T13:59:32Z</time>
      </trkpt>
      <trkpt lat="47.3952920" lon="6.7798840">
        <ele>461.4</ele>
        <time>2022-07-20T13:59:33Z</time>
      </trkpt>
      <trkpt lat="47.3953000" lon="6.7798650">
        <ele>460.6</ele>
        <time>2022-07-20T13:59:34Z</time>
      </trkpt>
      <trkpt lat="47.3953050" lon="6.7797970">
        <ele>459.2</ele>
        <time>2022-07-20T13:59:36Z</time>
      </trkpt>
      <trkpt lat="47.3953210" lon="6.7797030">
        <ele>458.2</ele>
        <time>2022-07-20T13:59:40Z</time>
      </trkpt>
      <trkpt lat="47.3953230" lon="6.7796500">
        <ele>457.0</ele>
        <time>2022-07-20T13:59:44Z</time>
      </trkpt>
      <trkpt lat="47.3953260" lon="6.7796330">
        <ele>456.6</ele>
        <time>2022-07-20T13:59:46Z</time>
      </trkpt>
      <trkpt lat="47.3953690" lon="6.7795160">
        <ele>455.6</ele>
        <time>2022-07-20T13:59:52Z</time>
      </trkpt>
      <trkpt lat="47.3953890" lon="6.7794830">
        <ele>455.4</ele>
        <time>2022-07-20T13:59:54Z</time>
      </trkpt>
      <trkpt lat="47.3954400" lon="6.7793450">
        <ele>454.4</ele>
        <time>2022-07-20T13:59:59Z</time>
      </trkpt>
      <trkpt lat="47.3954490" lon="6.7793180">
        <ele>454.2</ele>
        <time>2022-07-20T14:00:00Z</time>
      </trkpt>
      <trkpt lat="47.3954730" lon="6.7792620">
        <ele>453.2</ele>
        <time>2022-07-20T14:00:02Z</time>
      </trkpt>
      <trkpt lat="47.3954980" lon="6.7792090">
        <ele>452.2</ele>
        <time>2022-07-20T14:00:04Z</time>
      </trkpt>
      <trkpt lat="47.3955390" lon="6.7791160">
        <ele>451.0</ele>
        <time>2022-07-20T14:00:07Z</time>
      </trkpt>
      <trkpt lat="47.3955970" lon="6.7789850">
        <ele>449.8</ele>
        <time>2022-07-20T14:00:10Z</time>
      </trkpt>
      <trkpt lat="47.3956580" lon="6.7788290">
        <ele>448.6</ele>
        <time>2022-07-20T14:00:13Z</time>
      </trkpt>
      <trkpt lat="47.3957120" lon="6.7787090">
        <ele>447.2</ele>
        <time>2022-07-20T14:00:16Z</time>
      </trkpt>
      <trkpt lat="47.3957740" lon="6.7785870">
        <ele>446.0</ele>
        <time>2022-07-20T14:00:19Z</time>
      </trkpt>
      <trkpt lat="47.3958360" lon="6.7784640">
        <ele>444.4</ele>
        <time>2022-07-20T14:00:22Z</time>
      </trkpt>
      <trkpt lat="47.3958760" lon="6.7783950">
        <ele>443.8</ele>
        <time>2022-07-20T14:00:24Z</time>
      </trkpt>
      <trkpt lat="47.3958900" lon="6.7783600">
        <ele>443.4</ele>
        <time>2022-07-20T14:00:25Z</time>
      </trkpt>
      <trkpt lat="47.3959380" lon="6.7782760">
        <ele>442.2</ele>
        <time>2022-07-20T14:00:28Z</time>
      </trkpt>
      <trkpt lat="47.3959660" lon="6.7782270">
        <ele>441.0</ele>
        <time>2022-07-20T14:00:30Z</time>
      </trkpt>
      <trkpt lat="47.3959790" lon="6.7782040">
        <ele>440.4</ele>
        <time>2022-07-20T14:00:31Z</time>
      </trkpt>
      <trkpt lat="47.3959910" lon="6.7781820">
        <ele>439.6</ele>
        <time>2022-07-20T14:00:32Z</time>
      </trkpt>
      <trkpt lat="47.3960200" lon="6.7781240">
        <ele>438.0</ele>
        <time>2022-07-20T14:00:35Z</time>
      </trkpt>
      <trkpt lat="47.3960580" lon="6.7780380">
        <ele>436.8</ele>
        <time>2022-07-20T14:00:38Z</time>
      </trkpt>
      <trkpt lat="47.3961410" lon="6.7779280">
        <ele>435.6</ele>
        <time>2022-07-20T14:00:41Z</time>
      </trkpt>
      <trkpt lat="47.3962060" lon="6.7778630">
        <ele>435.2</ele>
        <time>2022-07-20T14:00:43Z</time>
      </trkpt>
      <trkpt lat="47.3962740" lon="6.7778240">
        <ele>434.4</ele>
        <time>2022-07-20T14:00:45Z</time>
      </trkpt>
      <trkpt lat="47.3963810" lon="6.7777690">
        <ele>433.0</ele>
        <time>2022-07-20T14:00:48Z</time>
      </trkpt>
      <trkpt lat="47.3964230" lon="6.7777490">
        <ele>432.4</ele>
        <time>2022-07-20T14:00:49Z</time>
      </trkpt>
      <trkpt lat="47.3964640" lon="6.7777340">
        <ele>431.6</ele>
        <time>2022-07-20T14:00:50Z</time>
      </trkpt>
      <trkpt lat="47.3965380" lon="6.7777080">
        <ele>430.4</ele>
        <time>2022-07-20T14:00:52Z</time>
      </trkpt>
      <trkpt lat="47.3965790" lon="6.7777020">
        <ele>430.0</ele>
        <time>2022-07-20T14:00:53Z</time>
      </trkpt>
      <trkpt lat="47.3966530" lon="6.7776520">
        <ele>429.0</ele>
        <time>2022-07-20T14:00:55Z</time>
      </trkpt>
      <trkpt lat="47.3967270" lon="6.7776160">
        <ele>428.4</ele>
        <time>2022-07-20T14:00:57Z</time>
      </trkpt>
      <trkpt lat="47.3968150" lon="6.7775900">
        <ele>428.0</ele>
        <time>2022-07-20T14:00:59Z</time>
      </trkpt>
      <trkpt lat="47.3970890" lon="6.7774970">
        <ele>427.4</ele>
        <time>2022-07-20T14:01:05Z</time>
      </trkpt>
      <trkpt lat="47.3971390" lon="6.7774870">
        <ele>427.4</ele>
        <time>2022-07-20T14:01:06Z</time>
      </trkpt>
      <trkpt lat="47.3972620" lon="6.7774120">
        <ele>427.0</ele>
        <time>2022-07-20T14:01:09Z</time>
      </trkpt>
      <trkpt lat="47.3972970" lon="6.7773660">
        <ele>427.0</ele>
        <time>2022-07-20T14:01:10Z</time>
      </trkpt>
      <trkpt lat="47.3973530" lon="6.7772330">
        <ele>426.0</ele>
        <time>2022-07-20T14:01:13Z</time>
      </trkpt>
      <trkpt lat="47.3973560" lon="6.7772000">
        <ele>425.4</ele>
        <time>2022-07-20T14:01:14Z</time>
      </trkpt>
      <trkpt lat="47.3973500" lon="6.7771760">
        <ele>424.8</ele>
        <time>2022-07-20T14:01:16Z</time>
      </trkpt>
      <trkpt lat="47.3973570" lon="6.7771700">
        <ele>423.8</ele>
        <time>2022-07-20T14:01:18Z</time>
      </trkpt>
      <trkpt lat="47.3972900" lon="6.7771730">
        <ele>422.2</ele>
        <time>2022-07-20T14:01:29Z</time>
      </trkpt>
      <trkpt lat="47.3972630" lon="6.7771660">
        <ele>422.2</ele>
        <time>2022-07-20T14:01:30Z</time>
      </trkpt>
      <trkpt lat="47.3970560" lon="6.7771100">
        <ele>421.8</ele>
        <time>2022-07-20T14:01:37Z</time>
      </trkpt>
      <trkpt lat="47.3969830" lon="6.7770840">
        <ele>421.2</ele>
        <time>2022-07-20T14:01:39Z</time>
      </trkpt>
      <trkpt lat="47.3969380" lon="6.7770750">
        <ele>420.6</ele>
        <time>2022-07-20T14:01:40Z</time>
      </trkpt>
      <trkpt lat="47.3968340" lon="6.7770610">
        <ele>419.8</ele>
        <time>2022-07-20T14:01:42Z</time>
      </trkpt>
      <trkpt lat="47.3967860" lon="6.7770580">
        <ele>419.6</ele>
        <time>2022-07-20T14:01:43Z</time>
      </trkpt>
      <trkpt lat="47.3966480" lon="6.7770720">
        <ele>418.8</ele>
        <time>2022-07-20T14:01:46Z</time>
      </trkpt>
      <trkpt lat="47.3966000" lon="6.7770760">
        <ele>418.4</ele>
        <time>2022-07-20T14:01:47Z</time>
      </trkpt>
      <trkpt lat="47.3964480" lon="6.7770970">
        <ele>417.6</ele>
        <time>2022-07-20T14:01:50Z</time>
      </trkpt>
      <trkpt lat="47.3963620" lon="6.7771190">
        <ele>416.6</ele>
        <time>2022-07-20T14:01:52Z</time>
      </trkpt>
      <trkpt lat="47.3962830" lon="6.7771320">
        <ele>415.4</ele>
        <time>2022-07-20T14:01:54Z</time>
      </trkpt>
      <trkpt lat="47.3962020" lon="6.7771310">
        <ele>414.2</ele>
        <time>2022-07-20T14:01:56Z</time>
      </trkpt>
      <trkpt lat="47.3961680" lon="6.7771310">
        <ele>413.6</ele>
        <time>2022-07-20T14:01:57Z</time>
      </trkpt>
      <trkpt lat="47.3961410" lon="6.7771350">
        <ele>413.0</ele>
        <time>2022-07-20T14:01:58Z</time>
      </trkpt>
      <trkpt lat="47.3960830" lon="6.7771450">
        <ele>411.2</ele>
        <time>2022-07-20T14:02:00Z</time>
      </trkpt>
      <trkpt lat="47.3960360" lon="6.7771640">
        <ele>410.6</ele>
        <time>2022-07-20T14:02:02Z</time>
      </trkpt>
      <trkpt lat="47.3959800" lon="6.7771940">
        <ele>410.0</ele>
        <time>2022-07-20T14:02:04Z</time>
      </trkpt>
      <trkpt lat="47.3958510" lon="6.7772340">
        <ele>409.0</ele>
        <time>2022-07-20T14:02:07Z</time>
      </trkpt>
      <trkpt lat="47.3957950" lon="6.7772520">
        <ele>408.8</ele>
        <time>2022-07-20T14:02:08Z</time>
      </trkpt>
      <trkpt lat="47.3955860" lon="6.7773340">
        <ele>408.0</ele>
        <time>2022-07-20T14:02:11Z</time>
      </trkpt>
      <trkpt lat="47.3955170" lon="6.7773730">
        <ele>407.6</ele>
        <time>2022-07-20T14:02:12Z</time>
      </trkpt>
      <trkpt lat="47.3954520" lon="6.7774240">
        <ele>407.2</ele>
        <time>2022-07-20T14:02:13Z</time>
      </trkpt>
      <trkpt lat="47.3953270" lon="6.7775400">
        <ele>406.4</ele>
        <time>2022-07-20T14:02:15Z</time>
      </trkpt>
      <trkpt lat="47.3952660" lon="6.7775940">
        <ele>406.0</ele>
        <time>2022-07-20T14:02:16Z</time>
      </trkpt>
      <trkpt lat="47.3952020" lon="6.7776330">
        <ele>405.4</ele>
        <time>2022-07-20T14:02:17Z</time>
      </trkpt>
      <trkpt lat="47.3951470" lon="6.7776710">
        <ele>405.0</ele>
        <time>2022-07-20T14:02:18Z</time>
      </trkpt>
      <trkpt lat="47.3951010" lon="6.7776930">
        <ele>404.8</ele>
        <time>2022-07-20T14:02:19Z</time>
      </trkpt>
      <trkpt lat="47.3950150" lon="6.7777090">
        <ele>404.2</ele>
        <time>2022-07-20T14:02:21Z</time>
      </trkpt>
      <trkpt lat="47.3949510" lon="6.7777010">
        <ele>404.0</ele>
        <time>2022-07-20T14:02:23Z</time>
      </trkpt>
      <trkpt lat="47.3949100" lon="6.7776870">
        <ele>404.0</ele>
        <time>2022-07-20T14:02:25Z</time>
      </trkpt>
      <trkpt lat="47.3948600" lon="6.7776810">
        <ele>404.0</ele>
        <time>2022-07-20T14:02:28Z</time>
      </trkpt>
      <trkpt lat="47.3947350" lon="6.7776610">
        <ele>405.4</ele>
        <time>2022-07-20T14:02:34Z</time>
      </trkpt>
      <trkpt lat="47.3945470" lon="6.7776220">
        <ele>406.4</ele>
        <time>2022-07-20T14:02:41Z</time>
      </trkpt>
      <trkpt lat="47.3943490" lon="6.7776150">
        <ele>406.4</ele>
        <time>2022-07-20T14:02:47Z</time>
      </trkpt>
      <trkpt lat="47.3943000" lon="6.7776120">
        <ele>406.4</ele>
        <time>2022-07-20T14:02:48Z</time>
      </trkpt>
      <trkpt lat="47.3941250" lon="6.7775860">
        <ele>406.2</ele>
        <time>2022-07-20T14:02:51Z</time>
      </trkpt>
      <trkpt lat="47.3937570" lon="6.7775210">
        <ele>405.4</ele>
        <time>2022-07-20T14:02:56Z</time>
      </trkpt>
      <trkpt lat="47.3936370" lon="6.7774980">
        <ele>404.4</ele>
        <time>2022-07-20T14:02:58Z</time>
      </trkpt>
      <trkpt lat="47.3935820" lon="6.7774760">
        <ele>404.0</ele>
        <time>2022-07-20T14:02:59Z</time>
      </trkpt>
      <trkpt lat="47.3935260" lon="6.7774570">
        <ele>403.6</ele>
        <time>2022-07-20T14:03:00Z</time>
      </trkpt>
      <trkpt lat="47.3934750" lon="6.7774400">
        <ele>403.0</ele>
        <time>2022-07-20T14:03:01Z</time>
      </trkpt>
      <trkpt lat="47.3933490" lon="6.7774110">
        <ele>401.8</ele>
        <time>2022-07-20T14:03:04Z</time>
      </trkpt>
      <trkpt lat="47.3933090" lon="6.7774040">
        <ele>401.2</ele>
        <time>2022-07-20T14:03:05Z</time>
      </trkpt>
      <trkpt lat="47.3932770" lon="6.7773910">
        <ele>400.6</ele>
        <time>2022-07-20T14:03:06Z</time>
      </trkpt>
      <trkpt lat="47.3932030" lon="6.7773560">
        <ele>399.4</ele>
        <time>2022-07-20T14:03:08Z</time>
      </trkpt>
      <trkpt lat="47.3931050" lon="6.7773250">
        <ele>398.2</ele>
        <time>2022-07-20T14:03:10Z</time>
      </trkpt>
      <trkpt lat="47.3929390" lon="6.7773040">
        <ele>397.0</ele>
        <time>2022-07-20T14:03:13Z</time>
      </trkpt>
      <trkpt lat="47.3928340" lon="6.7773150">
        <ele>396.6</ele>
        <time>2022-07-20T14:03:15Z</time>
      </trkpt>
      <trkpt lat="47.3927280" lon="6.7773320">
        <ele>396.0</ele>
        <time>2022-07-20T14:03:17Z</time>
      </trkpt>
      <trkpt lat="47.3925780" lon="6.7773480">
        <ele>394.6</ele>
        <time>2022-07-20T14:03:20Z</time>
      </trkpt>
      <trkpt lat="47.3925270" lon="6.7773570">
        <ele>394.0</ele>
        <time>2022-07-20T14:03:21Z</time>
      </trkpt>
      <trkpt lat="47.3924820" lon="6.7773680">
        <ele>393.4</ele>
        <time>2022-07-20T14:03:22Z</time>
      </trkpt>
      <trkpt lat="47.3924350" lon="6.7773730">
        <ele>392.8</ele>
        <time>2022-07-20T14:03:23Z</time>
      </trkpt>
      <trkpt lat="47.3923960" lon="6.7773750">
        <ele>392.2</ele>
        <time>2022-07-20T14:03:24Z</time>
      </trkpt>
      <trkpt lat="47.3923270" lon="6.7773720">
        <ele>391.0</ele>
        <time>2022-07-20T14:03:26Z</time>
      </trkpt>
      <trkpt lat="47.3922860" lon="6.7773680">
        <ele>389.4</ele>
        <time>2022-07-20T14:03:27Z</time>
      </trkpt>
      <trkpt lat="47.3922430" lon="6.7773560">
        <ele>388.8</ele>
        <time>2022-07-20T14:03:28Z</time>
      </trkpt>
      <trkpt lat="47.3921890" lon="6.7773460">
        <ele>388.0</ele>
        <time>2022-07-20T14:03:29Z</time>
      </trkpt>
      <trkpt lat="47.3920970" lon="6.7773130">
        <ele>387.0</ele>
        <time>2022-07-20T14:03:31Z</time>
      </trkpt>
      <trkpt lat="47.3920110" lon="6.7772810">
        <ele>385.8</ele>
        <time>2022-07-20T14:03:33Z</time>
      </trkpt>
      <trkpt lat="47.3919120" lon="6.7772530">
        <ele>384.8</ele>
        <time>2022-07-20T14:03:35Z</time>
      </trkpt>
      <trkpt lat="47.3918550" lon="6.7772420">
        <ele>384.4</ele>
        <time>2022-07-20T14:03:36Z</time>
      </trkpt>
      <trkpt lat="47.3917460" lon="6.7772130">
        <ele>383.0</ele>
        <time>2022-07-20T14:03:38Z</time>
      </trkpt>
      <trkpt lat="47.3916440" lon="6.7771440">
        <ele>382.2</ele>
        <time>2022-07-20T14:03:40Z</time>
      </trkpt>
      <trkpt lat="47.3916050" lon="6.7771000">
        <ele>381.8</ele>
        <time>2022-07-20T14:03:41Z</time>
      </trkpt>
      <trkpt lat="47.3915360" lon="6.7770130">
        <ele>380.6</ele>
        <time>2022-07-20T14:03:43Z</time>
      </trkpt>
      <trkpt lat="47.3914880" lon="6.7769500">
        <ele>379.2</ele>
        <time>2022-07-20T14:03:45Z</time>
      </trkpt>
      <trkpt lat="47.3914680" lon="6.7768910">
        <ele>378.2</ele>
        <time>2022-07-20T14:03:47Z</time>
      </trkpt>
      <trkpt lat="47.3914690" lon="6.7768480">
        <ele>377.0</ele>
        <time>2022-07-20T14:03:49Z</time>
      </trkpt>
      <trkpt lat="47.3914970" lon="6.7768040">
        <ele>376.0</ele>
        <time>2022-07-20T14:03:51Z</time>
      </trkpt>
      <trkpt lat="47.3915450" lon="6.7767640">
        <ele>374.8</ele>
        <time>2022-07-20T14:03:53Z</time>
      </trkpt>
      <trkpt lat="47.3916020" lon="6.7767340">
        <ele>373.6</ele>
        <time>2022-07-20T14:03:55Z</time>
      </trkpt>
      <trkpt lat="47.3916620" lon="6.7767090">
        <ele>372.4</ele>
        <time>2022-07-20T14:03:57Z</time>
      </trkpt>
      <trkpt lat="47.3917760" lon="6.7766520">
        <ele>372.0</ele>
        <time>2022-07-20T14:04:01Z</time>
      </trkpt>
      <trkpt lat="47.3919630" lon="6.7765640">
        <ele>371.6</ele>
        <time>2022-07-20T14:04:09Z</time>
      </trkpt>
      <trkpt lat="47.3920570" lon="6.7765220">
        <ele>371.4</ele>
        <time>2022-07-20T14:04:13Z</time>
      </trkpt>
      <trkpt lat="47.3921630" lon="6.7764840">
        <ele>371.4</ele>
        <time>2022-07-20T14:04:17Z</time>
      </trkpt>
      <trkpt lat="47.3924450" lon="6.7764150">
        <ele>371.0</ele>
        <time>2022-07-20T14:04:27Z</time>
      </trkpt>
      <trkpt lat="47.3927020" lon="6.7763270">
        <ele>370.6</ele>
        <time>2022-07-20T14:04:36Z</time>
      </trkpt>
      <trkpt lat="47.3927820" lon="6.7762810">
        <ele>370.6</ele>
        <time>2022-07-20T14:04:41Z</time>
      </trkpt>
      <trkpt lat="47.3927910" lon="6.7762790">
        <ele>370.6</ele>
        <time>2022-07-20T14:04:43Z</time>
      </trkpt>
      <trkpt lat="47.3927910" lon="6.7762790">
        <ele>370.4</ele>
        <time>2022-07-20T14:04:44Z</time>
      </trkpt>
      <trkpt lat="47.3927570" lon="6.7763190">
        <ele>369.8</ele>
        <time>2022-07-20T14:09:18Z</time>
      </trkpt>
      <trkpt lat="47.3927380" lon="6.7763180">
        <ele>369.8</ele>
        <time>2022-07-20T14:09:19Z</time>
      </trkpt>
      <trkpt lat="47.3925820" lon="6.7763560">
        <ele>369.8</ele>
        <time>2022-07-20T14:09:25Z</time>
      </trkpt>
      <trkpt lat="47.3923720" lon="6.7764080">
        <ele>370.2</ele>
        <time>2022-07-20T14:09:32Z</time>
      </trkpt>
      <trkpt lat="47.3921440" lon="6.7764760">
        <ele>370.4</ele>
        <time>2022-07-20T14:09:40Z</time>
      </trkpt>
      <trkpt lat="47.3920730" lon="6.7764860">
        <ele>370.6</ele>
        <time>2022-07-20T14:09:45Z</time>
      </trkpt>
      <trkpt lat="47.3920730" lon="6.7764850">
        <ele>370.6</ele>
        <time>2022-07-20T14:09:46Z</time>
      </trkpt>
      <trkpt lat="47.3920450" lon="6.7764990">
        <ele>370.6</ele>
        <time>2022-07-20T14:09:52Z</time>
      </trkpt>
      <trkpt lat="47.3920070" lon="6.7765190">
        <ele>370.6</ele>
        <time>2022-07-20T14:09:54Z</time>
      </trkpt>
      <trkpt lat="47.3918100" lon="6.7765930">
        <ele>370.8</ele>
        <time>2022-07-20T14:10:02Z</time>
      </trkpt>
      <trkpt lat="47.3916200" lon="6.7766710">
        <ele>371.0</ele>
        <time>2022-07-20T14:10:09Z</time>
      </trkpt>
      <trkpt lat="47.3913940" lon="6.7767590">
        <ele>371.0</ele>
        <time>2022-07-20T14:10:17Z</time>
      </trkpt>
      <trkpt lat="47.3912750" lon="6.7767930">
        <ele>371.2</ele>
        <time>2022-07-20T14:10:21Z</time>
      </trkpt>
      <trkpt lat="47.3911570" lon="6.7768310">
        <ele>371.2</ele>
        <time>2022-07-20T14:10:25Z</time>
      </trkpt>
      <trkpt lat="47.3909000" lon="6.7769160">
        <ele>371.8</ele>
        <time>2022-07-20T14:10:33Z</time>
      </trkpt>
      <trkpt lat="47.3906030" lon="6.7770200">
        <ele>372.2</ele>
        <time>2022-07-20T14:10:42Z</time>
      </trkpt>
      <trkpt lat="47.3903350" lon="6.7771160">
        <ele>372.2</ele>
        <time>2022-07-20T14:10:50Z</time>
      </trkpt>
      <trkpt lat="47.3900690" lon="6.7772510">
        <ele>372.2</ele>
        <time>2022-07-20T14:10:58Z</time>
      </trkpt>
      <trkpt lat="47.3898130" lon="6.7774150">
        <ele>372.4</ele>
        <time>2022-07-20T14:11:06Z</time>
      </trkpt>
      <trkpt lat="47.3896400" lon="6.7776290">
        <ele>372.4</ele>
        <time>2022-07-20T14:11:12Z</time>
      </trkpt>
      <trkpt lat="47.3893630" lon="6.7779530">
        <ele>372.6</ele>
        <time>2022-07-20T14:11:21Z</time>
      </trkpt>
      <trkpt lat="47.3892980" lon="6.7780210">
        <ele>372.6</ele>
        <time>2022-07-20T14:11:23Z</time>
      </trkpt>
      <trkpt lat="47.3891100" lon="6.7782370">
        <ele>372.6</ele>
        <time>2022-07-20T14:11:29Z</time>
      </trkpt>
      <trkpt lat="47.3888240" lon="6.7785470">
        <ele>372.6</ele>
        <time>2022-07-20T14:11:38Z</time>
      </trkpt>
      <trkpt lat="47.3886170" lon="6.7788820">
        <ele>372.8</ele>
        <time>2022-07-20T14:11:46Z</time>
      </trkpt>
      <trkpt lat="47.3884340" lon="6.7791960">
        <ele>372.8</ele>
        <time>2022-07-20T14:11:54Z</time>
      </trkpt>
      <trkpt lat="47.3882940" lon="6.7793820">
        <ele>373.0</ele>
        <time>2022-07-20T14:12:00Z</time>
      </trkpt>
      <trkpt lat="47.3881680" lon="6.7793550">
        <ele>373.2</ele>
        <time>2022-07-20T14:12:04Z</time>
      </trkpt>
      <trkpt lat="47.3880880" lon="6.7791880">
        <ele>373.4</ele>
        <time>2022-07-20T14:12:08Z</time>
      </trkpt>
      <trkpt lat="47.3879690" lon="6.7788080">
        <ele>373.6</ele>
        <time>2022-07-20T14:12:15Z</time>
      </trkpt>
      <trkpt lat="47.3878590" lon="6.7782580">
        <ele>373.6</ele>
        <time>2022-07-20T14:12:25Z</time>
      </trkpt>
      <trkpt lat="47.3877220" lon="6.7776220">
        <ele>374.0</ele>
        <time>2022-07-20T14:12:36Z</time>
      </trkpt>
      <trkpt lat="47.3877070" lon="6.7775650">
        <ele>374.0</ele>
        <time>2022-07-20T14:12:37Z</time>
      </trkpt>
      <trkpt lat="47.3875780" lon="6.7770570">
        <ele>374.0</ele>
        <time>2022-07-20T14:12:46Z</time>
      </trkpt>
      <trkpt lat="47.3874120" lon="6.7766160">
        <ele>374.2</ele>
        <time>2022-07-20T14:12:54Z</time>
      </trkpt>
      <trkpt lat="47.3871660" lon="6.7760470">
        <ele>373.8</ele>
        <time>2022-07-20T14:13:03Z</time>
      </trkpt>
      <trkpt lat="47.3869440" lon="6.7755210">
        <ele>373.2</ele>
        <time>2022-07-20T14:13:10Z</time>
      </trkpt>
      <trkpt lat="47.3869110" lon="6.7754430">
        <ele>373.2</ele>
        <time>2022-07-20T14:13:11Z</time>
      </trkpt>
      <trkpt lat="47.3867120" lon="6.7749760">
        <ele>372.0</ele>
        <time>2022-07-20T14:13:17Z</time>
      </trkpt>
      <trkpt lat="47.3866160" lon="6.7747500">
        <ele>371.6</ele>
        <time>2022-07-20T14:13:20Z</time>
      </trkpt>
      <trkpt lat="47.3864890" lon="6.7744530">
        <ele>371.0</ele>
        <time>2022-07-20T14:13:24Z</time>
      </trkpt>
      <trkpt lat="47.3863900" lon="6.7742360">
        <ele>370.8</ele>
        <time>2022-07-20T14:13:27Z</time>
      </trkpt>
      <trkpt lat="47.3863510" lon="6.7741710">
        <ele>370.6</ele>
        <time>2022-07-20T14:13:28Z</time>
      </trkpt>
      <trkpt lat="47.3862090" lon="6.7740270">
        <ele>370.2</ele>
        <time>2022-07-20T14:13:31Z</time>
      </trkpt>
      <trkpt lat="47.3860980" lon="6.7739780">
        <ele>370.2</ele>
        <time>2022-07-20T14:13:33Z</time>
      </trkpt>
      <trkpt lat="47.3859860" lon="6.7739530">
        <ele>370.2</ele>
        <time>2022-07-20T14:13:35Z</time>
      </trkpt>
      <trkpt lat="47.3859310" lon="6.7739410">
        <ele>370.0</ele>
        <time>2022-07-20T14:13:36Z</time>
      </trkpt>
      <trkpt lat="47.3854330" lon="6.7738350">
        <ele>369.8</ele>
        <time>2022-07-20T14:13:45Z</time>
      </trkpt>
      <trkpt lat="47.3849630" lon="6.7737220">
        <ele>369.6</ele>
        <time>2022-07-20T14:13:54Z</time>
      </trkpt>
      <trkpt lat="47.3846220" lon="6.7736510">
        <ele>369.6</ele>
        <time>2022-07-20T14:14:01Z</time>
      </trkpt>
      <trkpt lat="47.3843780" lon="6.7736590">
        <ele>369.6</ele>
        <time>2022-07-20T14:14:07Z</time>
      </trkpt>
      <trkpt lat="47.3843260" lon="6.7737390">
        <ele>369.4</ele>
        <time>2022-07-20T14:14:10Z</time>
      </trkpt>
      <trkpt lat="47.3843200" lon="6.7737600">
        <ele>369.4</ele>
        <time>2022-07-20T14:14:11Z</time>
      </trkpt>
      <trkpt lat="47.3842870" lon="6.7738250">
        <ele>369.4</ele>
        <time>2022-07-20T14:14:14Z</time>
      </trkpt>
      <trkpt lat="47.3842510" lon="6.7738350">
        <ele>369.4</ele>
        <time>2022-07-20T14:14:16Z</time>
      </trkpt>
      <trkpt lat="47.3842110" lon="6.7738320">
        <ele>369.4</ele>
        <time>2022-07-20T14:14:18Z</time>
      </trkpt>
      <trkpt lat="47.3841440" lon="6.7738230">
        <ele>370.4</ele>
        <time>2022-07-20T14:14:23Z</time>
      </trkpt>
      <trkpt lat="47.3841430" lon="6.7738200">
        <ele>371.0</ele>
        <time>2022-07-20T14:14:24Z</time>
      </trkpt>
      <trkpt lat="47.3841770" lon="6.7738140">
        <ele>372.0</ele>
        <time>2022-07-20T14:14:34Z</time>
      </trkpt>
      <trkpt lat="47.3842150" lon="6.7738430">
        <ele>372.0</ele>
        <time>2022-07-20T14:14:36Z</time>
      </trkpt>
      <trkpt lat="47.3843160" lon="6.7738530">
        <ele>372.0</ele>
        <time>2022-07-20T14:14:40Z</time>
      </trkpt>
      <trkpt lat="47.3843760" lon="6.7737690">
        <ele>372.0</ele>
        <time>2022-07-20T14:14:44Z</time>
      </trkpt>
      <trkpt lat="47.3844570" lon="6.7737710">
        <ele>371.6</ele>
        <time>2022-07-20T14:14:48Z</time>
      </trkpt>
      <trkpt lat="47.3844950" lon="6.7737990">
        <ele>371.2</ele>
        <time>2022-07-20T14:14:50Z</time>
      </trkpt>
      <trkpt lat="47.3845970" lon="6.7738970">
        <ele>371.0</ele>
        <time>2022-07-20T14:14:55Z</time>
      </trkpt>
      <trkpt lat="47.3847500" lon="6.7740570">
        <ele>371.2</ele>
        <time>2022-07-20T14:15:03Z</time>
      </trkpt>
      <trkpt lat="47.3848290" lon="6.7741290">
        <ele>371.4</ele>
        <time>2022-07-20T14:15:10Z</time>
      </trkpt>
      <trkpt lat="47.3849250" lon="6.7741400">
        <ele>370.4</ele>
        <time>2022-07-20T14:15:48Z</time>
      </trkpt>
      <trkpt lat="47.3849520" lon="6.7741920">
        <ele>370.4</ele>
        <time>2022-07-20T14:15:50Z</time>
      </trkpt>
      <trkpt lat="47.3850130" lon="6.7743760">
        <ele>370.4</ele>
        <time>2022-07-20T14:15:56Z</time>
      </trkpt>
      <trkpt lat="47.3850680" lon="6.7745610">
        <ele>370.8</ele>
        <time>2022-07-20T14:16:03Z</time>
      </trkpt>
      <trkpt lat="47.3851360" lon="6.7748100">
        <ele>371.6</ele>
        <time>2022-07-20T14:16:12Z</time>
      </trkpt>
      <trkpt lat="47.3851780" lon="6.7749490">
        <ele>372.4</ele>
        <time>2022-07-20T14:16:17Z</time>
      </trkpt>
      <trkpt lat="47.3852050" lon="6.7750310">
        <ele>372.8</ele>
        <time>2022-07-20T14:16:20Z</time>
      </trkpt>
      <trkpt lat="47.3852430" lon="6.7751620">
        <ele>373.6</ele>
        <time>2022-07-20T14:16:25Z</time>
      </trkpt>
      <trkpt lat="47.3852680" lon="6.7752390">
        <ele>374.0</ele>
        <time>2022-07-20T14:16:28Z</time>
      </trkpt>
      <trkpt lat="47.3853260" lon="6.7754200">
        <ele>374.6</ele>
        <time>2022-07-20T14:16:35Z</time>
      </trkpt>
      <trkpt lat="47.3853450" lon="6.7754780">
        <ele>374.8</ele>
        <time>2022-07-20T14:16:37Z</time>
      </trkpt>
      <trkpt lat="47.3854000" lon="6.7756540">
        <ele>375.8</ele>
        <time>2022-07-20T14:16:43Z</time>
      </trkpt>
      <trkpt lat="47.3854390" lon="6.7757970">
        <ele>376.4</ele>
        <time>2022-07-20T14:16:48Z</time>
      </trkpt>
      <trkpt lat="47.3854670" lon="6.7759100">
        <ele>376.8</ele>
        <time>2022-07-20T14:16:52Z</time>
      </trkpt>
      <trkpt lat="47.3854760" lon="6.7759970">
        <ele>377.2</ele>
        <time>2022-07-20T14:16:55Z</time>
      </trkpt>
      <trkpt lat="47.3855000" lon="6.7761690">
        <ele>378.0</ele>
        <time>2022-07-20T14:17:01Z</time>
      </trkpt>
      <trkpt lat="47.3855110" lon="6.7762270">
        <ele>378.4</ele>
        <time>2022-07-20T14:17:03Z</time>
      </trkpt>
      <trkpt lat="47.3855490" lon="6.7764210">
        <ele>379.2</ele>
        <time>2022-07-20T14:17:10Z</time>
      </trkpt>
      <trkpt lat="47.3855560" lon="6.7764520">
        <ele>379.2</ele>
        <time>2022-07-20T14:17:11Z</time>
      </trkpt>
      <trkpt lat="47.3856010" lon="6.7766260">
        <ele>380.2</ele>
        <time>2022-07-20T14:17:17Z</time>
      </trkpt>
      <trkpt lat="47.3856160" lon="6.7766830">
        <ele>380.4</ele>
        <time>2022-07-20T14:17:19Z</time>
      </trkpt>
      <trkpt lat="47.3856730" lon="6.7768980">
        <ele>381.4</ele>
        <time>2022-07-20T14:17:27Z</time>
      </trkpt>
      <trkpt lat="47.3856920" lon="6.7769500">
        <ele>381.6</ele>
        <time>2022-07-20T14:17:29Z</time>
      </trkpt>
      <trkpt lat="47.3857580" lon="6.7771400">
        <ele>382.4</ele>
        <time>2022-07-20T14:17:36Z</time>
      </trkpt>
      <trkpt lat="47.3857670" lon="6.7771650">
        <ele>382.6</ele>
        <time>2022-07-20T14:17:37Z</time>
      </trkpt>
      <trkpt lat="47.3858220" lon="6.7773250">
        <ele>383.6</ele>
        <time>2022-07-20T14:17:43Z</time>
      </trkpt>
      <trkpt lat="47.3858410" lon="6.7773790">
        <ele>383.8</ele>
        <time>2022-07-20T14:17:45Z</time>
      </trkpt>
      <trkpt lat="47.3859040" lon="6.7775370">
        <ele>384.6</ele>
        <time>2022-07-20T14:17:51Z</time>
      </trkpt>
      <trkpt lat="47.3859440" lon="6.7776360">
        <ele>385.2</ele>
        <time>2022-07-20T14:17:55Z</time>
      </trkpt>
      <trkpt lat="47.3859950" lon="6.7777600">
        <ele>386.0</ele>
        <time>2022-07-20T14:18:00Z</time>
      </trkpt>
      <trkpt lat="47.3860300" lon="6.7778330">
        <ele>386.6</ele>
        <time>2022-07-20T14:18:03Z</time>
      </trkpt>
      <trkpt lat="47.3860480" lon="6.7778800">
        <ele>387.0</ele>
        <time>2022-07-20T14:18:05Z</time>
      </trkpt>
      <trkpt lat="47.3860870" lon="6.7779770">
        <ele>387.8</ele>
        <time>2022-07-20T14:18:09Z</time>
      </trkpt>
      <trkpt lat="47.3861040" lon="6.7780260">
        <ele>388.0</ele>
        <time>2022-07-20T14:18:11Z</time>
      </trkpt>
      <trkpt lat="47.3861550" lon="6.7781780">
        <ele>388.8</ele>
        <time>2022-07-20T14:18:17Z</time>
      </trkpt>
      <trkpt lat="47.3861770" lon="6.7782210">
        <ele>389.2</ele>
        <time>2022-07-20T14:18:19Z</time>
      </trkpt>
      <trkpt lat="47.3862380" lon="6.7783360">
        <ele>389.8</ele>
        <time>2022-07-20T14:18:24Z</time>
      </trkpt>
      <trkpt lat="47.3862790" lon="6.7784090">
        <ele>390.2</ele>
        <time>2022-07-20T14:18:27Z</time>
      </trkpt>
      <trkpt lat="47.3863500" lon="6.7785250">
        <ele>391.0</ele>
        <time>2022-07-20T14:18:32Z</time>
      </trkpt>
      <trkpt lat="47.3863730" lon="6.7785740">
        <ele>391.4</ele>
        <time>2022-07-20T14:18:34Z</time>
      </trkpt>
      <trkpt lat="47.3864230" lon="6.7786920">
        <ele>392.2</ele>
        <time>2022-07-20T14:18:39Z</time>
      </trkpt>
      <trkpt lat="47.3864420" lon="6.7787500">
        <ele>392.6</ele>
        <time>2022-07-20T14:18:41Z</time>
      </trkpt>
      <trkpt lat="47.3864430" lon="6.7788610">
        <ele>393.0</ele>
        <time>2022-07-20T14:18:45Z</time>
      </trkpt>
      <trkpt lat="47.3863640" lon="6.7789260">
        <ele>393.6</ele>
        <time>2022-07-20T14:18:50Z</time>
      </trkpt>
      <trkpt lat="47.3863460" lon="6.7789210">
        <ele>393.6</ele>
        <time>2022-07-20T14:18:51Z</time>
      </trkpt>
      <trkpt lat="47.3862630" lon="6.7788410">
        <ele>395.0</ele>
        <time>2022-07-20T14:18:56Z</time>
      </trkpt>
      <trkpt lat="47.3862080" lon="6.7787570">
        <ele>396.0</ele>
        <time>2022-07-20T14:19:00Z</time>
      </trkpt>
      <trkpt lat="47.3861820" lon="6.7787190">
        <ele>396.6</ele>
        <time>2022-07-20T14:19:02Z</time>
      </trkpt>
      <trkpt lat="47.3861470" lon="6.7786580">
        <ele>397.2</ele>
        <time>2022-07-20T14:19:05Z</time>
      </trkpt>
      <trkpt lat="47.3861080" lon="6.7786010">
        <ele>397.6</ele>
        <time>2022-07-20T14:19:08Z</time>
      </trkpt>
      <trkpt lat="47.3860430" lon="6.7785090">
        <ele>398.2</ele>
        <time>2022-07-20T14:19:12Z</time>
      </trkpt>
      <trkpt lat="47.3859970" lon="6.7784320">
        <ele>398.6</ele>
        <time>2022-07-20T14:19:15Z</time>
      </trkpt>
      <trkpt lat="47.3859510" lon="6.7783600">
        <ele>399.4</ele>
        <time>2022-07-20T14:19:18Z</time>
      </trkpt>
      <trkpt lat="47.3858820" lon="6.7782650">
        <ele>400.0</ele>
        <time>2022-07-20T14:19:22Z</time>
      </trkpt>
      <trkpt lat="47.3858300" lon="6.7781990">
        <ele>400.6</ele>
        <time>2022-07-20T14:19:25Z</time>
      </trkpt>
      <trkpt lat="47.3857210" lon="6.7780820">
        <ele>401.6</ele>
        <time>2022-07-20T14:19:31Z</time>
      </trkpt>
      <trkpt lat="47.3857030" lon="6.7780650">
        <ele>401.8</ele>
        <time>2022-07-20T14:19:32Z</time>
      </trkpt>
      <trkpt lat="47.3855750" lon="6.7779450">
        <ele>403.0</ele>
        <time>2022-07-20T14:19:39Z</time>
      </trkpt>
      <trkpt lat="47.3855370" lon="6.7779120">
        <ele>403.4</ele>
        <time>2022-07-20T14:19:41Z</time>
      </trkpt>
      <trkpt lat="47.3854610" lon="6.7778450">
        <ele>404.0</ele>
        <time>2022-07-20T14:19:45Z</time>
      </trkpt>
      <trkpt lat="47.3853470" lon="6.7777440">
        <ele>404.8</ele>
        <time>2022-07-20T14:19:51Z</time>
      </trkpt>
      <trkpt lat="47.3853090" lon="6.7777100">
        <ele>405.2</ele>
        <time>2022-07-20T14:19:53Z</time>
      </trkpt>
      <trkpt lat="47.3851880" lon="6.7776190">
        <ele>406.2</ele>
        <time>2022-07-20T14:19:59Z</time>
      </trkpt>
      <trkpt lat="47.3851700" lon="6.7776010">
        <ele>406.6</ele>
        <time>2022-07-20T14:20:00Z</time>
      </trkpt>
      <trkpt lat="47.3850350" lon="6.7775010">
        <ele>407.6</ele>
        <time>2022-07-20T14:20:07Z</time>
      </trkpt>
      <trkpt lat="47.3849970" lon="6.7774650">
        <ele>408.0</ele>
        <time>2022-07-20T14:20:09Z</time>
      </trkpt>
      <trkpt lat="47.3849230" lon="6.7774000">
        <ele>408.6</ele>
        <time>2022-07-20T14:20:13Z</time>
      </trkpt>
      <trkpt lat="47.3848450" lon="6.7773430">
        <ele>409.2</ele>
        <time>2022-07-20T14:20:17Z</time>
      </trkpt>
      <trkpt lat="47.3847910" lon="6.7773000">
        <ele>409.8</ele>
        <time>2022-07-20T14:20:20Z</time>
      </trkpt>
      <trkpt lat="47.3846630" lon="6.7772130">
        <ele>411.0</ele>
        <time>2022-07-20T14:20:27Z</time>
      </trkpt>
      <trkpt lat="47.3845690" lon="6.7771400">
        <ele>412.2</ele>
        <time>2022-07-20T14:20:32Z</time>
      </trkpt>
      <trkpt lat="47.3844950" lon="6.7770760">
        <ele>412.8</ele>
        <time>2022-07-20T14:20:36Z</time>
      </trkpt>
      <trkpt lat="47.3844580" lon="6.7770460">
        <ele>413.2</ele>
        <time>2022-07-20T14:20:38Z</time>
      </trkpt>
      <trkpt lat="47.3843240" lon="6.7769330">
        <ele>414.2</ele>
        <time>2022-07-20T14:20:45Z</time>
      </trkpt>
      <trkpt lat="47.3843060" lon="6.7769160">
        <ele>414.4</ele>
        <time>2022-07-20T14:20:46Z</time>
      </trkpt>
      <trkpt lat="47.3841590" lon="6.7767880">
        <ele>415.4</ele>
        <time>2022-07-20T14:20:54Z</time>
      </trkpt>
      <trkpt lat="47.3841060" lon="6.7767350">
        <ele>416.0</ele>
        <time>2022-07-20T14:20:57Z</time>
      </trkpt>
      <trkpt lat="47.3840680" lon="6.7767030">
        <ele>416.4</ele>
        <time>2022-07-20T14:20:59Z</time>
      </trkpt>
      <trkpt lat="47.3839330" lon="6.7765960">
        <ele>417.6</ele>
        <time>2022-07-20T14:21:06Z</time>
      </trkpt>
      <trkpt lat="47.3839130" lon="6.7765850">
        <ele>417.8</ele>
        <time>2022-07-20T14:21:07Z</time>
      </trkpt>
      <trkpt lat="47.3838340" lon="6.7765450">
        <ele>418.8</ele>
        <time>2022-07-20T14:21:11Z</time>
      </trkpt>
      <trkpt lat="47.3837540" lon="6.7765210">
        <ele>419.6</ele>
        <time>2022-07-20T14:21:15Z</time>
      </trkpt>
      <trkpt lat="47.3837150" lon="6.7765140">
        <ele>420.0</ele>
        <time>2022-07-20T14:21:17Z</time>
      </trkpt>
      <trkpt lat="47.3835920" lon="6.7764830">
        <ele>421.2</ele>
        <time>2022-07-20T14:21:23Z</time>
      </trkpt>
      <trkpt lat="47.3835290" lon="6.7764590">
        <ele>421.8</ele>
        <time>2022-07-20T14:21:26Z</time>
      </trkpt>
      <trkpt lat="47.3834490" lon="6.7764450">
        <ele>422.4</ele>
        <time>2022-07-20T14:21:30Z</time>
      </trkpt>
      <trkpt lat="47.3833660" lon="6.7764340">
        <ele>423.0</ele>
        <time>2022-07-20T14:21:34Z</time>
      </trkpt>
      <trkpt lat="47.3832800" lon="6.7764180">
        <ele>423.6</ele>
        <time>2022-07-20T14:21:38Z</time>
      </trkpt>
      <trkpt lat="47.3831790" lon="6.7764010">
        <ele>424.8</ele>
        <time>2022-07-20T14:21:43Z</time>
      </trkpt>
      <trkpt lat="47.3830440" lon="6.7763940">
        <ele>425.8</ele>
        <time>2022-07-20T14:21:50Z</time>
      </trkpt>
      <trkpt lat="47.3829260" lon="6.7764180">
        <ele>427.2</ele>
        <time>2022-07-20T14:21:56Z</time>
      </trkpt>
      <trkpt lat="47.3829050" lon="6.7764220">
        <ele>427.4</ele>
        <time>2022-07-20T14:21:57Z</time>
      </trkpt>
      <trkpt lat="47.3828110" lon="6.7764290">
        <ele>428.4</ele>
        <time>2022-07-20T14:22:02Z</time>
      </trkpt>
      <trkpt lat="47.3827910" lon="6.7764330">
        <ele>428.6</ele>
        <time>2022-07-20T14:22:03Z</time>
      </trkpt>
      <trkpt lat="47.3826890" lon="6.7764530">
        <ele>429.6</ele>
        <time>2022-07-20T14:22:08Z</time>
      </trkpt>
      <trkpt lat="47.3826280" lon="6.7764610">
        <ele>430.2</ele>
        <time>2022-07-20T14:22:11Z</time>
      </trkpt>
      <trkpt lat="47.3825680" lon="6.7764630">
        <ele>430.6</ele>
        <time>2022-07-20T14:22:14Z</time>
      </trkpt>
      <trkpt lat="47.3824450" lon="6.7764780">
        <ele>431.6</ele>
        <time>2022-07-20T14:22:20Z</time>
      </trkpt>
      <trkpt lat="47.3823340" lon="6.7764890">
        <ele>432.8</ele>
        <time>2022-07-20T14:22:26Z</time>
      </trkpt>
      <trkpt lat="47.3822970" lon="6.7764900">
        <ele>433.2</ele>
        <time>2022-07-20T14:22:28Z</time>
      </trkpt>
      <trkpt lat="47.3822260" lon="6.7764900">
        <ele>433.8</ele>
        <time>2022-07-20T14:22:32Z</time>
      </trkpt>
      <trkpt lat="47.3821910" lon="6.7765010">
        <ele>434.2</ele>
        <time>2022-07-20T14:22:34Z</time>
      </trkpt>
      <trkpt lat="47.3821350" lon="6.7765030">
        <ele>435.0</ele>
        <time>2022-07-20T14:22:37Z</time>
      </trkpt>
      <trkpt lat="47.3820940" lon="6.7765050">
        <ele>435.2</ele>
        <time>2022-07-20T14:22:39Z</time>
      </trkpt>
      <trkpt lat="47.3820000" lon="6.7765120">
        <ele>436.0</ele>
        <time>2022-07-20T14:22:44Z</time>
      </trkpt>
      <trkpt lat="47.3819830" lon="6.7765110">
        <ele>436.2</ele>
        <time>2022-07-20T14:22:45Z</time>
      </trkpt>
      <trkpt lat="47.3818750" lon="6.7765380">
        <ele>436.8</ele>
        <time>2022-07-20T14:22:51Z</time>
      </trkpt>
      <trkpt lat="47.3818540" lon="6.7765370">
        <ele>437.0</ele>
        <time>2022-07-20T14:22:52Z</time>
      </trkpt>
      <trkpt lat="47.3817690" lon="6.7765480">
        <ele>437.8</ele>
        <time>2022-07-20T14:22:57Z</time>
      </trkpt>
      <trkpt lat="47.3817510" lon="6.7765530">
        <ele>438.0</ele>
        <time>2022-07-20T14:22:58Z</time>
      </trkpt>
      <trkpt lat="47.3816620" lon="6.7765750">
        <ele>438.6</ele>
        <time>2022-07-20T14:23:03Z</time>
      </trkpt>
      <trkpt lat="47.3816300" lon="6.7765790">
        <ele>439.0</ele>
        <time>2022-07-20T14:23:05Z</time>
      </trkpt>
      <trkpt lat="47.3816060" lon="6.7765770">
        <ele>439.2</ele>
        <time>2022-07-20T14:23:06Z</time>
      </trkpt>
      <trkpt lat="47.3815840" lon="6.7765820">
        <ele>439.2</ele>
        <time>2022-07-20T14:23:07Z</time>
      </trkpt>
      <trkpt lat="47.3815420" lon="6.7765970">
        <ele>439.6</ele>
        <time>2022-07-20T14:23:09Z</time>
      </trkpt>
      <trkpt lat="47.3814570" lon="6.7766300">
        <ele>440.0</ele>
        <time>2022-07-20T14:23:13Z</time>
      </trkpt>
      <trkpt lat="47.3814390" lon="6.7766390">
        <ele>440.2</ele>
        <time>2022-07-20T14:23:14Z</time>
      </trkpt>
      <trkpt lat="47.3813610" lon="6.7766740">
        <ele>440.6</ele>
        <time>2022-07-20T14:23:18Z</time>
      </trkpt>
      <trkpt lat="47.3812720" lon="6.7767440">
        <ele>441.4</ele>
        <time>2022-07-20T14:23:23Z</time>
      </trkpt>
      <trkpt lat="47.3812280" lon="6.7767610">
        <ele>441.6</ele>
        <time>2022-07-20T14:23:25Z</time>
      </trkpt>
      <trkpt lat="47.3810990" lon="6.7768160">
        <ele>442.4</ele>
        <time>2022-07-20T14:23:31Z</time>
      </trkpt>
      <trkpt lat="47.3810760" lon="6.7768230">
        <ele>442.6</ele>
        <time>2022-07-20T14:23:32Z</time>
      </trkpt>
      <trkpt lat="47.3809390" lon="6.7768600">
        <ele>443.4</ele>
        <time>2022-07-20T14:23:38Z</time>
      </trkpt>
      <trkpt lat="47.3808620" lon="6.7768960">
        <ele>443.6</ele>
        <time>2022-07-20T14:23:42Z</time>
      </trkpt>
      <trkpt lat="47.3807920" lon="6.7769290">
        <ele>444.4</ele>
        <time>2022-07-20T14:23:46Z</time>
      </trkpt>
      <trkpt lat="47.3807260" lon="6.7769440">
        <ele>444.8</ele>
        <time>2022-07-20T14:23:49Z</time>
      </trkpt>
      <trkpt lat="47.3806870" lon="6.7769630">
        <ele>444.8</ele>
        <time>2022-07-20T14:23:51Z</time>
      </trkpt>
      <trkpt lat="47.3805810" lon="6.7770120">
        <ele>445.8</ele>
        <time>2022-07-20T14:23:56Z</time>
      </trkpt>
      <trkpt lat="47.3805600" lon="6.7770200">
        <ele>445.8</ele>
        <time>2022-07-20T14:23:57Z</time>
      </trkpt>
      <trkpt lat="47.3804770" lon="6.7770380">
        <ele>446.2</ele>
        <time>2022-07-20T14:24:01Z</time>
      </trkpt>
      <trkpt lat="47.3803620" lon="6.7770890">
        <ele>446.8</ele>
        <time>2022-07-20T14:24:06Z</time>
      </trkpt>
      <trkpt lat="47.3803390" lon="6.7770980">
        <ele>447.0</ele>
        <time>2022-07-20T14:24:07Z</time>
      </trkpt>
      <trkpt lat="47.3802460" lon="6.7771420">
        <ele>447.6</ele>
        <time>2022-07-20T14:24:12Z</time>
      </trkpt>
      <trkpt lat="47.3801730" lon="6.7771720">
        <ele>448.0</ele>
        <time>2022-07-20T14:24:16Z</time>
      </trkpt>
      <trkpt lat="47.3801320" lon="6.7771770">
        <ele>448.2</ele>
        <time>2022-07-20T14:24:18Z</time>
      </trkpt>
      <trkpt lat="47.3800550" lon="6.7772120">
        <ele>449.0</ele>
        <time>2022-07-20T14:24:22Z</time>
      </trkpt>
      <trkpt lat="47.3800190" lon="6.7772300">
        <ele>449.2</ele>
        <time>2022-07-20T14:24:24Z</time>
      </trkpt>
      <trkpt lat="47.3799270" lon="6.7772840">
        <ele>449.6</ele>
        <time>2022-07-20T14:24:29Z</time>
      </trkpt>
      <trkpt lat="47.3798700" lon="6.7772970">
        <ele>450.0</ele>
        <time>2022-07-20T14:24:32Z</time>
      </trkpt>
      <trkpt lat="47.3798490" lon="6.7773050">
        <ele>450.2</ele>
        <time>2022-07-20T14:24:33Z</time>
      </trkpt>
      <trkpt lat="47.3797430" lon="6.7773160">
        <ele>450.8</ele>
        <time>2022-07-20T14:24:38Z</time>
      </trkpt>
      <trkpt lat="47.3796540" lon="6.7773140">
        <ele>451.2</ele>
        <time>2022-07-20T14:24:42Z</time>
      </trkpt>
      <trkpt lat="47.3796140" lon="6.7773030">
        <ele>451.4</ele>
        <time>2022-07-20T14:24:44Z</time>
      </trkpt>
      <trkpt lat="47.3794730" lon="6.7772890">
        <ele>452.4</ele>
        <time>2022-07-20T14:24:51Z</time>
      </trkpt>
      <trkpt lat="47.3793660" lon="6.7773010">
        <ele>452.8</ele>
        <time>2022-07-20T14:24:57Z</time>
      </trkpt>
      <trkpt lat="47.3793030" lon="6.7773100">
        <ele>453.4</ele>
        <time>2022-07-20T14:25:00Z</time>
      </trkpt>
      <trkpt lat="47.3792420" lon="6.7773140">
        <ele>453.8</ele>
        <time>2022-07-20T14:25:03Z</time>
      </trkpt>
      <trkpt lat="47.3791270" lon="6.7773560">
        <ele>454.4</ele>
        <time>2022-07-20T14:25:09Z</time>
      </trkpt>
      <trkpt lat="47.3791060" lon="6.7773610">
        <ele>454.4</ele>
        <time>2022-07-20T14:25:10Z</time>
      </trkpt>
      <trkpt lat="47.3789990" lon="6.7773720">
        <ele>455.0</ele>
        <time>2022-07-20T14:25:15Z</time>
      </trkpt>
      <trkpt lat="47.3788660" lon="6.7773790">
        <ele>455.4</ele>
        <time>2022-07-20T14:25:21Z</time>
      </trkpt>
      <trkpt lat="47.3787690" lon="6.7774020">
        <ele>456.4</ele>
        <time>2022-07-20T14:25:27Z</time>
      </trkpt>
      <trkpt lat="47.3787300" lon="6.7774060">
        <ele>456.6</ele>
        <time>2022-07-20T14:25:29Z</time>
      </trkpt>
      <trkpt lat="47.3786940" lon="6.7774190">
        <ele>456.8</ele>
        <time>2022-07-20T14:25:31Z</time>
      </trkpt>
      <trkpt lat="47.3786740" lon="6.7774260">
        <ele>456.8</ele>
        <time>2022-07-20T14:25:32Z</time>
      </trkpt>
      <trkpt lat="47.3785300" lon="6.7774690">
        <ele>457.4</ele>
        <time>2022-07-20T14:25:39Z</time>
      </trkpt>
      <trkpt lat="47.3785080" lon="6.7774820">
        <ele>457.6</ele>
        <time>2022-07-20T14:25:40Z</time>
      </trkpt>
      <trkpt lat="47.3784190" lon="6.7775130">
        <ele>458.0</ele>
        <time>2022-07-20T14:25:44Z</time>
      </trkpt>
      <trkpt lat="47.3782810" lon="6.7775380">
        <ele>458.6</ele>
        <time>2022-07-20T14:25:50Z</time>
      </trkpt>
      <trkpt lat="47.3781360" lon="6.7775550">
        <ele>459.6</ele>
        <time>2022-07-20T14:25:57Z</time>
      </trkpt>
      <trkpt lat="47.3780720" lon="6.7775520">
        <ele>459.8</ele>
        <time>2022-07-20T14:26:00Z</time>
      </trkpt>
      <trkpt lat="47.3780110" lon="6.7775500">
        <ele>460.2</ele>
        <time>2022-07-20T14:26:03Z</time>
      </trkpt>
      <trkpt lat="47.3779010" lon="6.7775620">
        <ele>460.8</ele>
        <time>2022-07-20T14:26:09Z</time>
      </trkpt>
      <trkpt lat="47.3777830" lon="6.7775790">
        <ele>461.6</ele>
        <time>2022-07-20T14:26:15Z</time>
      </trkpt>
      <trkpt lat="47.3777430" lon="6.7775890">
        <ele>461.8</ele>
        <time>2022-07-20T14:26:17Z</time>
      </trkpt>
      <trkpt lat="47.3776850" lon="6.7776140">
        <ele>462.2</ele>
        <time>2022-07-20T14:26:20Z</time>
      </trkpt>
      <trkpt lat="47.3775690" lon="6.7776490">
        <ele>462.8</ele>
        <time>2022-07-20T14:26:26Z</time>
      </trkpt>
      <trkpt lat="47.3775330" lon="6.7776570">
        <ele>463.0</ele>
        <time>2022-07-20T14:26:28Z</time>
      </trkpt>
      <trkpt lat="47.3774650" lon="6.7776850">
        <ele>463.6</ele>
        <time>2022-07-20T14:26:32Z</time>
      </trkpt>
      <trkpt lat="47.3773910" lon="6.7777030">
        <ele>463.8</ele>
        <time>2022-07-20T14:26:36Z</time>
      </trkpt>
      <trkpt lat="47.3773710" lon="6.7777090">
        <ele>464.0</ele>
        <time>2022-07-20T14:26:37Z</time>
      </trkpt>
      <trkpt lat="47.3772540" lon="6.7777220">
        <ele>464.4</ele>
        <time>2022-07-20T14:26:42Z</time>
      </trkpt>
      <trkpt lat="47.3771740" lon="6.7777310">
        <ele>465.0</ele>
        <time>2022-07-20T14:26:46Z</time>
      </trkpt>
      <trkpt lat="47.3771160" lon="6.7777360">
        <ele>465.4</ele>
        <time>2022-07-20T14:26:49Z</time>
      </trkpt>
      <trkpt lat="47.3770760" lon="6.7777420">
        <ele>465.6</ele>
        <time>2022-07-20T14:26:51Z</time>
      </trkpt>
      <trkpt lat="47.3770130" lon="6.7777470">
        <ele>466.0</ele>
        <time>2022-07-20T14:26:54Z</time>
      </trkpt>
      <trkpt lat="47.3769920" lon="6.7777480">
        <ele>466.0</ele>
        <time>2022-07-20T14:26:55Z</time>
      </trkpt>
      <trkpt lat="47.3768360" lon="6.7777640">
        <ele>466.8</ele>
        <time>2022-07-20T14:27:02Z</time>
      </trkpt>
      <trkpt lat="47.3767670" lon="6.7777530">
        <ele>467.0</ele>
        <time>2022-07-20T14:27:05Z</time>
      </trkpt>
      <trkpt lat="47.3767030" lon="6.7777560">
        <ele>467.2</ele>
        <time>2022-07-20T14:27:08Z</time>
      </trkpt>
      <trkpt lat="47.3765950" lon="6.7777550">
        <ele>468.0</ele>
        <time>2022-07-20T14:27:13Z</time>
      </trkpt>
      <trkpt lat="47.3765710" lon="6.7777510">
        <ele>468.2</ele>
        <time>2022-07-20T14:27:14Z</time>
      </trkpt>
      <trkpt lat="47.3764360" lon="6.7777420">
        <ele>468.8</ele>
        <time>2022-07-20T14:27:20Z</time>
      </trkpt>
      <trkpt lat="47.3763920" lon="6.7777350">
        <ele>469.0</ele>
        <time>2022-07-20T14:27:22Z</time>
      </trkpt>
      <trkpt lat="47.3762530" lon="6.7777300">
        <ele>470.0</ele>
        <time>2022-07-20T14:27:29Z</time>
      </trkpt>
      <trkpt lat="47.3762190" lon="6.7777190">
        <ele>470.0</ele>
        <time>2022-07-20T14:27:31Z</time>
      </trkpt>
      <trkpt lat="47.3761570" lon="6.7776940">
        <ele>470.8</ele>
        <time>2022-07-20T14:27:35Z</time>
      </trkpt>
      <trkpt lat="47.3760700" lon="6.7776360">
        <ele>471.2</ele>
        <time>2022-07-20T14:27:40Z</time>
      </trkpt>
      <trkpt lat="47.3760000" lon="6.7775750">
        <ele>471.6</ele>
        <time>2022-07-20T14:27:43Z</time>
      </trkpt>
      <trkpt lat="47.3759040" lon="6.7774830">
        <ele>471.8</ele>
        <time>2022-07-20T14:27:48Z</time>
      </trkpt>
      <trkpt lat="47.3758940" lon="6.7774670">
        <ele>472.0</ele>
        <time>2022-07-20T14:27:49Z</time>
      </trkpt>
      <trkpt lat="47.3758820" lon="6.7774470">
        <ele>472.2</ele>
        <time>2022-07-20T14:27:50Z</time>
      </trkpt>
      <trkpt lat="47.3758190" lon="6.7773660">
        <ele>472.4</ele>
        <time>2022-07-20T14:27:54Z</time>
      </trkpt>
      <trkpt lat="47.3756890" lon="6.7772210">
        <ele>472.8</ele>
        <time>2022-07-20T14:28:01Z</time>
      </trkpt>
      <trkpt lat="47.3756200" lon="6.7771600">
        <ele>473.2</ele>
        <time>2022-07-20T14:28:04Z</time>
      </trkpt>
      <trkpt lat="47.3755180" lon="6.7771080">
        <ele>473.4</ele>
        <time>2022-07-20T14:28:09Z</time>
      </trkpt>
      <trkpt lat="47.3754170" lon="6.7771580">
        <ele>474.0</ele>
        <time>2022-07-20T14:28:15Z</time>
      </trkpt>
      <trkpt lat="47.3754100" lon="6.7771830">
        <ele>474.2</ele>
        <time>2022-07-20T14:28:16Z</time>
      </trkpt>
      <trkpt lat="47.3754020" lon="6.7772910">
        <ele>474.4</ele>
        <time>2022-07-20T14:28:20Z</time>
      </trkpt>
      <trkpt lat="47.3754350" lon="6.7774070">
        <ele>475.4</ele>
        <time>2022-07-20T14:28:25Z</time>
      </trkpt>
      <trkpt lat="47.3754750" lon="6.7774790">
        <ele>476.0</ele>
        <time>2022-07-20T14:28:28Z</time>
      </trkpt>
      <trkpt lat="47.3755000" lon="6.7775220">
        <ele>476.4</ele>
        <time>2022-07-20T14:28:30Z</time>
      </trkpt>
      <trkpt lat="47.3755500" lon="6.7776430">
        <ele>477.0</ele>
        <time>2022-07-20T14:28:35Z</time>
      </trkpt>
      <trkpt lat="47.3755740" lon="6.7777070">
        <ele>477.4</ele>
        <time>2022-07-20T14:28:38Z</time>
      </trkpt>
      <trkpt lat="47.3755920" lon="6.7777500">
        <ele>477.6</ele>
        <time>2022-07-20T14:28:40Z</time>
      </trkpt>
      <trkpt lat="47.3756580" lon="6.7778590">
        <ele>477.8</ele>
        <time>2022-07-20T14:28:46Z</time>
      </trkpt>
      <trkpt lat="47.3757090" lon="6.7779440">
        <ele>478.2</ele>
        <time>2022-07-20T14:28:50Z</time>
      </trkpt>
      <trkpt lat="47.3757630" lon="6.7780300">
        <ele>478.6</ele>
        <time>2022-07-20T14:28:54Z</time>
      </trkpt>
      <trkpt lat="47.3758370" lon="6.7781460">
        <ele>479.0</ele>
        <time>2022-07-20T14:28:59Z</time>
      </trkpt>
      <trkpt lat="47.3758550" lon="6.7781590">
        <ele>479.2</ele>
        <time>2022-07-20T14:29:00Z</time>
      </trkpt>
      <trkpt lat="47.3759450" lon="6.7782660">
        <ele>480.0</ele>
        <time>2022-07-20T14:29:05Z</time>
      </trkpt>
      <trkpt lat="47.3760110" lon="6.7783040">
        <ele>480.2</ele>
        <time>2022-07-20T14:29:08Z</time>
      </trkpt>
      <trkpt lat="47.3761430" lon="6.7783430">
        <ele>480.8</ele>
        <time>2022-07-20T14:29:13Z</time>
      </trkpt>
      <trkpt lat="47.3761660" lon="6.7783450">
        <ele>481.2</ele>
        <time>2022-07-20T14:29:14Z</time>
      </trkpt>
      <trkpt lat="47.3762750" lon="6.7783460">
        <ele>481.8</ele>
        <time>2022-07-20T14:29:18Z</time>
      </trkpt>
      <trkpt lat="47.3762990" lon="6.7783470">
        <ele>481.8</ele>
        <time>2022-07-20T14:29:19Z</time>
      </trkpt>
      <trkpt lat="47.3763680" lon="6.7783450">
        <ele>482.0</ele>
        <time>2022-07-20T14:29:22Z</time>
      </trkpt>
      <trkpt lat="47.3763940" lon="6.7783460">
        <ele>482.2</ele>
        <time>2022-07-20T14:29:23Z</time>
      </trkpt>
      <trkpt lat="47.3765590" lon="6.7783560">
        <ele>483.2</ele>
        <time>2022-07-20T14:29:29Z</time>
      </trkpt>
      <trkpt lat="47.3765870" lon="6.7783640">
        <ele>483.2</ele>
        <time>2022-07-20T14:29:30Z</time>
      </trkpt>
      <trkpt lat="47.3767080" lon="6.7783670">
        <ele>483.8</ele>
        <time>2022-07-20T14:29:35Z</time>
      </trkpt>
      <trkpt lat="47.3768500" lon="6.7784000">
        <ele>484.0</ele>
        <time>2022-07-20T14:29:41Z</time>
      </trkpt>
      <trkpt lat="47.3770070" lon="6.7784450">
        <ele>483.8</ele>
        <time>2022-07-20T14:29:47Z</time>
      </trkpt>
      <trkpt lat="47.3771200" lon="6.7784760">
        <ele>483.8</ele>
        <time>2022-07-20T14:29:52Z</time>
      </trkpt>
      <trkpt lat="47.3771640" lon="6.7784890">
        <ele>484.0</ele>
        <time>2022-07-20T14:29:54Z</time>
      </trkpt>
      <trkpt lat="47.3772610" lon="6.7785430">
        <ele>485.0</ele>
        <time>2022-07-20T14:29:58Z</time>
      </trkpt>
      <trkpt lat="47.3772830" lon="6.7785560">
        <ele>485.0</ele>
        <time>2022-07-20T14:29:59Z</time>
      </trkpt>
      <trkpt lat="47.3773870" lon="6.7785970">
        <ele>485.2</ele>
        <time>2022-07-20T14:30:03Z</time>
      </trkpt>
      <trkpt lat="47.3775810" lon="6.7786680">
        <ele>485.8</ele>
        <time>2022-07-20T14:30:10Z</time>
      </trkpt>
      <trkpt lat="47.3776080" lon="6.7786770">
        <ele>486.0</ele>
        <time>2022-07-20T14:30:11Z</time>
      </trkpt>
      <trkpt lat="47.3777450" lon="6.7787420">
        <ele>486.0</ele>
        <time>2022-07-20T14:30:16Z</time>
      </trkpt>
      <trkpt lat="47.3779300" lon="6.7788430">
        <ele>486.0</ele>
        <time>2022-07-20T14:30:23Z</time>
      </trkpt>
      <trkpt lat="47.3781760" lon="6.7789400">
        <ele>486.2</ele>
        <time>2022-07-20T14:30:31Z</time>
      </trkpt>
      <trkpt lat="47.3782310" lon="6.7789640">
        <ele>486.8</ele>
        <time>2022-07-20T14:30:33Z</time>
      </trkpt>
      <trkpt lat="47.3783960" lon="6.7790410">
        <ele>487.8</ele>
        <time>2022-07-20T14:30:39Z</time>
      </trkpt>
      <trkpt lat="47.3784540" lon="6.7790650">
        <ele>489.6</ele>
        <time>2022-07-20T14:30:41Z</time>
      </trkpt>
      <trkpt lat="47.3785640" lon="6.7790850">
        <ele>490.2</ele>
        <time>2022-07-20T14:30:45Z</time>
      </trkpt>
      <trkpt lat="47.3786220" lon="6.7790880">
        <ele>490.6</ele>
        <time>2022-07-20T14:30:47Z</time>
      </trkpt>
      <trkpt lat="47.3787640" lon="6.7790980">
        <ele>491.0</ele>
        <time>2022-07-20T14:30:52Z</time>
      </trkpt>
      <trkpt lat="47.3788950" lon="6.7791400">
        <ele>491.6</ele>
        <time>2022-07-20T14:30:57Z</time>
      </trkpt>
      <trkpt lat="47.3789210" lon="6.7791490">
        <ele>492.0</ele>
        <time>2022-07-20T14:30:58Z</time>
      </trkpt>
      <trkpt lat="47.3789470" lon="6.7791570">
        <ele>492.8</ele>
        <time>2022-07-20T14:30:59Z</time>
      </trkpt>
      <trkpt lat="47.3789890" lon="6.7791670">
        <ele>494.4</ele>
        <time>2022-07-20T14:31:01Z</time>
      </trkpt>
      <trkpt lat="47.3790340" lon="6.7791790">
        <ele>495.6</ele>
        <time>2022-07-20T14:31:03Z</time>
      </trkpt>
      <trkpt lat="47.3790590" lon="6.7791880">
        <ele>496.0</ele>
        <time>2022-07-20T14:31:04Z</time>
      </trkpt>
      <trkpt lat="47.3792630" lon="6.7792230">
        <ele>496.6</ele>
        <time>2022-07-20T14:31:11Z</time>
      </trkpt>
      <trkpt lat="47.3792880" lon="6.7792250">
        <ele>496.6</ele>
        <time>2022-07-20T14:31:12Z</time>
      </trkpt>
      <trkpt lat="47.3794550" lon="6.7792560">
        <ele>497.6</ele>
        <time>2022-07-20T14:31:17Z</time>
      </trkpt>
      <trkpt lat="47.3795860" lon="6.7792860">
        <ele>498.8</ele>
        <time>2022-07-20T14:31:21Z</time>
      </trkpt>
      <trkpt lat="47.3796800" lon="6.7792890">
        <ele>499.8</ele>
        <time>2022-07-20T14:31:24Z</time>
      </trkpt>
      <trkpt lat="47.3797120" lon="6.7792890">
        <ele>500.4</ele>
        <time>2022-07-20T14:31:25Z</time>
      </trkpt>
      <trkpt lat="47.3798080" lon="6.7792920">
        <ele>501.4</ele>
        <time>2022-07-20T14:31:28Z</time>
      </trkpt>
      <trkpt lat="47.3799160" lon="6.7792810">
        <ele>502.6</ele>
        <time>2022-07-20T14:31:32Z</time>
      </trkpt>
      <trkpt lat="47.3800950" lon="6.7792560">
        <ele>503.6</ele>
        <time>2022-07-20T14:31:39Z</time>
      </trkpt>
      <trkpt lat="47.3801720" lon="6.7792510">
        <ele>505.0</ele>
        <time>2022-07-20T14:31:42Z</time>
      </trkpt>
      <trkpt lat="47.3802590" lon="6.7792530">
        <ele>505.6</ele>
        <time>2022-07-20T14:31:46Z</time>
      </trkpt>
      <trkpt lat="47.3803260" lon="6.7792450">
        <ele>506.0</ele>
        <time>2022-07-20T14:31:49Z</time>
      </trkpt>
      <trkpt lat="47.3804160" lon="6.7792320">
        <ele>506.6</ele>
        <time>2022-07-20T14:31:53Z</time>
      </trkpt>
      <trkpt lat="47.3804930" lon="6.7792060">
        <ele>506.8</ele>
        <time>2022-07-20T14:31:57Z</time>
      </trkpt>
      <trkpt lat="47.3805170" lon="6.7792060">
        <ele>507.0</ele>
        <time>2022-07-20T14:31:58Z</time>
      </trkpt>
      <trkpt lat="47.3805350" lon="6.7792030">
        <ele>507.2</ele>
        <time>2022-07-20T14:31:59Z</time>
      </trkpt>
      <trkpt lat="47.3806780" lon="6.7791910">
        <ele>508.0</ele>
        <time>2022-07-20T14:32:05Z</time>
      </trkpt>
      <trkpt lat="47.3808250" lon="6.7791970">
        <ele>509.0</ele>
        <time>2022-07-20T14:32:11Z</time>
      </trkpt>
      <trkpt lat="47.3808510" lon="6.7791970">
        <ele>509.0</ele>
        <time>2022-07-20T14:32:12Z</time>
      </trkpt>
      <trkpt lat="47.3810110" lon="6.7791500">
        <ele>509.6</ele>
        <time>2022-07-20T14:32:18Z</time>
      </trkpt>
      <trkpt lat="47.3811220" lon="6.7791340">
        <ele>510.2</ele>
        <time>2022-07-20T14:32:22Z</time>
      </trkpt>
      <trkpt lat="47.3812210" lon="6.7791090">
        <ele>510.8</ele>
        <time>2022-07-20T14:32:26Z</time>
      </trkpt>
      <trkpt lat="47.3812460" lon="6.7790960">
        <ele>511.0</ele>
        <time>2022-07-20T14:32:27Z</time>
      </trkpt>
      <trkpt lat="47.3813180" lon="6.7790740">
        <ele>512.2</ele>
        <time>2022-07-20T14:32:30Z</time>
      </trkpt>
      <trkpt lat="47.3813910" lon="6.7790490">
        <ele>512.6</ele>
        <time>2022-07-20T14:32:33Z</time>
      </trkpt>
      <trkpt lat="47.3814610" lon="6.7790250">
        <ele>513.0</ele>
        <time>2022-07-20T14:32:36Z</time>
      </trkpt>
      <trkpt lat="47.3815140" lon="6.7790200">
        <ele>513.2</ele>
        <time>2022-07-20T14:32:38Z</time>
      </trkpt>
      <trkpt lat="47.3815390" lon="6.7790260">
        <ele>513.2</ele>
        <time>2022-07-20T14:32:39Z</time>
      </trkpt>
      <trkpt lat="47.3816880" lon="6.7790930">
        <ele>514.2</ele>
        <time>2022-07-20T14:32:45Z</time>
      </trkpt>
      <trkpt lat="47.3817150" lon="6.7790990">
        <ele>514.4</ele>
        <time>2022-07-20T14:32:46Z</time>
      </trkpt>
      <trkpt lat="47.3818840" lon="6.7791170">
        <ele>515.6</ele>
        <time>2022-07-20T14:32:52Z</time>
      </trkpt>
      <trkpt lat="47.3819430" lon="6.7791230">
        <ele>516.4</ele>
        <time>2022-07-20T14:32:54Z</time>
      </trkpt>
      <trkpt lat="47.3819750" lon="6.7791360">
        <ele>516.8</ele>
        <time>2022-07-20T14:32:55Z</time>
      </trkpt>
      <trkpt lat="47.3820350" lon="6.7791700">
        <ele>517.8</ele>
        <time>2022-07-20T14:32:57Z</time>
      </trkpt>
      <trkpt lat="47.3820870" lon="6.7792050">
        <ele>519.0</ele>
        <time>2022-07-20T14:32:59Z</time>
      </trkpt>
      <trkpt lat="47.3821610" lon="6.7792660">
        <ele>519.8</ele>
        <time>2022-07-20T14:33:02Z</time>
      </trkpt>
      <trkpt lat="47.3822330" lon="6.7793330">
        <ele>520.6</ele>
        <time>2022-07-20T14:33:05Z</time>
      </trkpt>
      <trkpt lat="47.3822700" lon="6.7793850">
        <ele>520.8</ele>
        <time>2022-07-20T14:33:07Z</time>
      </trkpt>
      <trkpt lat="47.3823480" lon="6.7794940">
        <ele>521.2</ele>
        <time>2022-07-20T14:33:11Z</time>
      </trkpt>
      <trkpt lat="47.3824560" lon="6.7796920">
        <ele>522.2</ele>
        <time>2022-07-20T14:33:17Z</time>
      </trkpt>
      <trkpt lat="47.3824640" lon="6.7797330">
        <ele>522.8</ele>
        <time>2022-07-20T14:33:18Z</time>
      </trkpt>
      <trkpt lat="47.3824660" lon="6.7798120">
        <ele>523.4</ele>
        <time>2022-07-20T14:33:20Z</time>
      </trkpt>
      <trkpt lat="47.3824470" lon="6.7799260">
        <ele>524.0</ele>
        <time>2022-07-20T14:33:23Z</time>
      </trkpt>
      <trkpt lat="47.3824170" lon="6.7799930">
        <ele>524.4</ele>
        <time>2022-07-20T14:33:25Z</time>
      </trkpt>
      <trkpt lat="47.3823340" lon="6.7801580">
        <ele>525.8</ele>
        <time>2022-07-20T14:33:30Z</time>
      </trkpt>
      <trkpt lat="47.3822700" lon="6.7802600">
        <ele>527.0</ele>
        <time>2022-07-20T14:33:33Z</time>
      </trkpt>
      <trkpt lat="47.3822020" lon="6.7803540">
        <ele>528.0</ele>
        <time>2022-07-20T14:33:36Z</time>
      </trkpt>
      <trkpt lat="47.3821790" lon="6.7803850">
        <ele>528.2</ele>
        <time>2022-07-20T14:33:37Z</time>
      </trkpt>
      <trkpt lat="47.3820540" lon="6.7805180">
        <ele>529.4</ele>
        <time>2022-07-20T14:33:42Z</time>
      </trkpt>
      <trkpt lat="47.3820000" lon="6.7805640">
        <ele>529.6</ele>
        <time>2022-07-20T14:33:44Z</time>
      </trkpt>
      <trkpt lat="47.3818510" lon="6.7806670">
        <ele>530.4</ele>
        <time>2022-07-20T14:33:49Z</time>
      </trkpt>
      <trkpt lat="47.3817880" lon="6.7807040">
        <ele>531.2</ele>
        <time>2022-07-20T14:33:51Z</time>
      </trkpt>
      <trkpt lat="47.3817560" lon="6.7807230">
        <ele>531.6</ele>
        <time>2022-07-20T14:33:52Z</time>
      </trkpt>
      <trkpt lat="47.3816950" lon="6.7807630">
        <ele>532.6</ele>
        <time>2022-07-20T14:33:54Z</time>
      </trkpt>
      <trkpt lat="47.3815390" lon="6.7808590">
        <ele>533.0</ele>
        <time>2022-07-20T14:33:59Z</time>
      </trkpt>
      <trkpt lat="47.3812690" lon="6.7809750">
        <ele>533.0</ele>
        <time>2022-07-20T14:34:07Z</time>
      </trkpt>
      <trkpt lat="47.3810340" lon="6.7810060">
        <ele>533.4</ele>
        <time>2022-07-20T14:34:14Z</time>
      </trkpt>
      <trkpt lat="47.3810010" lon="6.7810040">
        <ele>533.8</ele>
        <time>2022-07-20T14:34:15Z</time>
      </trkpt>
      <trkpt lat="47.3809030" lon="6.7809830">
        <ele>534.8</ele>
        <time>2022-07-20T14:34:18Z</time>
      </trkpt>
      <trkpt lat="47.3806630" lon="6.7809030">
        <ele>535.8</ele>
        <time>2022-07-20T14:34:25Z</time>
      </trkpt>
      <trkpt lat="47.3805620" lon="6.7808630">
        <ele>537.4</ele>
        <time>2022-07-20T14:34:28Z</time>
      </trkpt>
      <trkpt lat="47.3804220" lon="6.7808120">
        <ele>538.2</ele>
        <time>2022-07-20T14:34:32Z</time>
      </trkpt>
      <trkpt lat="47.3803510" lon="6.7807910">
        <ele>539.0</ele>
        <time>2022-07-20T14:34:34Z</time>
      </trkpt>
      <trkpt lat="47.3803150" lon="6.7807780">
        <ele>539.4</ele>
        <time>2022-07-20T14:34:35Z</time>
      </trkpt>
      <trkpt lat="47.3802780" lon="6.7807630">
        <ele>539.6</ele>
        <time>2022-07-20T14:34:36Z</time>
      </trkpt>
      <trkpt lat="47.3799440" lon="6.7807020">
        <ele>540.0</ele>
        <time>2022-07-20T14:34:44Z</time>
      </trkpt>
      <trkpt lat="47.3797170" lon="6.7806590">
        <ele>540.0</ele>
        <time>2022-07-20T14:34:49Z</time>
      </trkpt>
      <trkpt lat="47.3795900" lon="6.7805710">
        <ele>540.0</ele>
        <time>2022-07-20T14:34:52Z</time>
      </trkpt>
      <trkpt lat="47.3795250" lon="6.7804800">
        <ele>540.0</ele>
        <time>2022-07-20T14:34:54Z</time>
      </trkpt>
      <trkpt lat="47.3793960" lon="6.7802860">
        <ele>539.6</ele>
        <time>2022-07-20T14:34:58Z</time>
      </trkpt>
      <trkpt lat="47.3793540" lon="6.7802370">
        <ele>539.4</ele>
        <time>2022-07-20T14:34:59Z</time>
      </trkpt>
      <trkpt lat="47.3791720" lon="6.7800790">
        <ele>539.4</ele>
        <time>2022-07-20T14:35:03Z</time>
      </trkpt>
      <trkpt lat="47.3791270" lon="6.7800530">
        <ele>539.8</ele>
        <time>2022-07-20T14:35:04Z</time>
      </trkpt>
      <trkpt lat="47.3789310" lon="6.7800160">
        <ele>540.2</ele>
        <time>2022-07-20T14:35:08Z</time>
      </trkpt>
      <trkpt lat="47.3787210" lon="6.7800750">
        <ele>540.2</ele>
        <time>2022-07-20T14:35:13Z</time>
      </trkpt>
      <trkpt lat="47.3786410" lon="6.7801100">
        <ele>540.4</ele>
        <time>2022-07-20T14:35:15Z</time>
      </trkpt>
      <trkpt lat="47.3784930" lon="6.7801730">
        <ele>541.6</ele>
        <time>2022-07-20T14:35:19Z</time>
      </trkpt>
      <trkpt lat="47.3784600" lon="6.7801890">
        <ele>542.0</ele>
        <time>2022-07-20T14:35:20Z</time>
      </trkpt>
      <trkpt lat="47.3783670" lon="6.7802300">
        <ele>542.6</ele>
        <time>2022-07-20T14:35:23Z</time>
      </trkpt>
      <trkpt lat="47.3782420" lon="6.7802640">
        <ele>542.8</ele>
        <time>2022-07-20T14:35:27Z</time>
      </trkpt>
      <trkpt lat="47.3779960" lon="6.7803480">
        <ele>543.4</ele>
        <time>2022-07-20T14:35:35Z</time>
      </trkpt>
      <trkpt lat="47.3778130" lon="6.7802960">
        <ele>543.4</ele>
        <time>2022-07-20T14:35:41Z</time>
      </trkpt>
      <trkpt lat="47.3777400" lon="6.7802020">
        <ele>543.6</ele>
        <time>2022-07-20T14:35:44Z</time>
      </trkpt>
      <trkpt lat="47.3777190" lon="6.7801650">
        <ele>543.8</ele>
        <time>2022-07-20T14:35:45Z</time>
      </trkpt>
      <trkpt lat="47.3776750" lon="6.7800910">
        <ele>544.2</ele>
        <time>2022-07-20T14:35:47Z</time>
      </trkpt>
      <trkpt lat="47.3775670" lon="6.7799140">
        <ele>544.8</ele>
        <time>2022-07-20T14:35:52Z</time>
      </trkpt>
      <trkpt lat="47.3774480" lon="6.7798300">
        <ele>545.6</ele>
        <time>2022-07-20T14:35:56Z</time>
      </trkpt>
      <trkpt lat="47.3774140" lon="6.7798260">
        <ele>545.8</ele>
        <time>2022-07-20T14:35:57Z</time>
      </trkpt>
      <trkpt lat="47.3772860" lon="6.7798890">
        <ele>546.8</ele>
        <time>2022-07-20T14:36:01Z</time>
      </trkpt>
      <trkpt lat="47.3772600" lon="6.7799210">
        <ele>547.0</ele>
        <time>2022-07-20T14:36:02Z</time>
      </trkpt>
      <trkpt lat="47.3772140" lon="6.7799840">
        <ele>548.0</ele>
        <time>2022-07-20T14:36:04Z</time>
      </trkpt>
      <trkpt lat="47.3771450" lon="6.7801360">
        <ele>548.8</ele>
        <time>2022-07-20T14:36:08Z</time>
      </trkpt>
      <trkpt lat="47.3771160" lon="6.7802090">
        <ele>549.2</ele>
        <time>2022-07-20T14:36:10Z</time>
      </trkpt>
      <trkpt lat="47.3770470" lon="6.7803850">
        <ele>550.2</ele>
        <time>2022-07-20T14:36:15Z</time>
      </trkpt>
      <trkpt lat="47.3770340" lon="6.7804210">
        <ele>550.4</ele>
        <time>2022-07-20T14:36:16Z</time>
      </trkpt>
      <trkpt lat="47.3769550" lon="6.7806410">
        <ele>550.8</ele>
        <time>2022-07-20T14:36:22Z</time>
      </trkpt>
      <trkpt lat="47.3768530" lon="6.7809070">
        <ele>551.4</ele>
        <time>2022-07-20T14:36:29Z</time>
      </trkpt>
      <trkpt lat="47.3768350" lon="6.7809440">
        <ele>551.6</ele>
        <time>2022-07-20T14:36:30Z</time>
      </trkpt>
      <trkpt lat="47.3767710" lon="6.7810360">
        <ele>552.6</ele>
        <time>2022-07-20T14:36:33Z</time>
      </trkpt>
      <trkpt lat="47.3767200" lon="6.7810770">
        <ele>553.0</ele>
        <time>2022-07-20T14:36:35Z</time>
      </trkpt>
      <trkpt lat="47.3766160" lon="6.7810850">
        <ele>553.4</ele>
        <time>2022-07-20T14:36:39Z</time>
      </trkpt>
      <trkpt lat="47.3765940" lon="6.7810730">
        <ele>553.6</ele>
        <time>2022-07-20T14:36:40Z</time>
      </trkpt>
      <trkpt lat="47.3765720" lon="6.7810560">
        <ele>553.8</ele>
        <time>2022-07-20T14:36:41Z</time>
      </trkpt>
      <trkpt lat="47.3765080" lon="6.7809740">
        <ele>554.2</ele>
        <time>2022-07-20T14:36:45Z</time>
      </trkpt>
      <trkpt lat="47.3764750" lon="6.7808390">
        <ele>554.8</ele>
        <time>2022-07-20T14:36:49Z</time>
      </trkpt>
      <trkpt lat="47.3764740" lon="6.7807730">
        <ele>555.2</ele>
        <time>2022-07-20T14:36:51Z</time>
      </trkpt>
      <trkpt lat="47.3764740" lon="6.7805680">
        <ele>555.8</ele>
        <time>2022-07-20T14:36:57Z</time>
      </trkpt>
      <trkpt lat="47.3764730" lon="6.7805390">
        <ele>556.0</ele>
        <time>2022-07-20T14:36:58Z</time>
      </trkpt>
      <trkpt lat="47.3764650" lon="6.7804200">
        <ele>556.8</ele>
        <time>2022-07-20T14:37:02Z</time>
      </trkpt>
      <trkpt lat="47.3764440" lon="6.7803290">
        <ele>557.4</ele>
        <time>2022-07-20T14:37:05Z</time>
      </trkpt>
      <trkpt lat="47.3764170" lon="6.7802720">
        <ele>557.8</ele>
        <time>2022-07-20T14:37:07Z</time>
      </trkpt>
      <trkpt lat="47.3763710" lon="6.7802230">
        <ele>558.2</ele>
        <time>2022-07-20T14:37:09Z</time>
      </trkpt>
      <trkpt lat="47.3762350" lon="6.7801790">
        <ele>559.0</ele>
        <time>2022-07-20T14:37:14Z</time>
      </trkpt>
      <trkpt lat="47.3761240" lon="6.7802610">
        <ele>560.2</ele>
        <time>2022-07-20T14:37:19Z</time>
      </trkpt>
      <trkpt lat="47.3761100" lon="6.7802820">
        <ele>560.4</ele>
        <time>2022-07-20T14:37:20Z</time>
      </trkpt>
      <trkpt lat="47.3760480" lon="6.7804310">
        <ele>561.4</ele>
        <time>2022-07-20T14:37:26Z</time>
      </trkpt>
      <trkpt lat="47.3760080" lon="6.7805230">
        <ele>562.4</ele>
        <time>2022-07-20T14:37:30Z</time>
      </trkpt>
      <trkpt lat="47.3759920" lon="6.7805660">
        <ele>562.8</ele>
        <time>2022-07-20T14:37:32Z</time>
      </trkpt>
      <trkpt lat="47.3759870" lon="6.7805950">
        <ele>563.0</ele>
        <time>2022-07-20T14:37:33Z</time>
      </trkpt>
      <trkpt lat="47.3759520" lon="6.7807370">
        <ele>563.4</ele>
        <time>2022-07-20T14:37:38Z</time>
      </trkpt>
      <trkpt lat="47.3759460" lon="6.7807600">
        <ele>563.6</ele>
        <time>2022-07-20T14:37:39Z</time>
      </trkpt>
      <trkpt lat="47.3758980" lon="6.7809510">
        <ele>564.4</ele>
        <time>2022-07-20T14:37:46Z</time>
      </trkpt>
      <trkpt lat="47.3758660" lon="6.7810440">
        <ele>564.6</ele>
        <time>2022-07-20T14:37:50Z</time>
      </trkpt>
      <trkpt lat="47.3758510" lon="6.7810970">
        <ele>564.8</ele>
        <time>2022-07-20T14:37:52Z</time>
      </trkpt>
      <trkpt lat="47.3757460" lon="6.7812340">
        <ele>565.4</ele>
        <time>2022-07-20T14:37:59Z</time>
      </trkpt>
      <trkpt lat="47.3756420" lon="6.7812540">
        <ele>566.4</ele>
        <time>2022-07-20T14:38:04Z</time>
      </trkpt>
      <trkpt lat="47.3756240" lon="6.7812450">
        <ele>566.6</ele>
        <time>2022-07-20T14:38:05Z</time>
      </trkpt>
      <trkpt lat="47.3755950" lon="6.7812190">
        <ele>567.2</ele>
        <time>2022-07-20T14:38:07Z</time>
      </trkpt>
      <trkpt lat="47.3755790" lon="6.7811780">
        <ele>567.6</ele>
        <time>2022-07-20T14:38:09Z</time>
      </trkpt>
      <trkpt lat="47.3755770" lon="6.7811580">
        <ele>567.8</ele>
        <time>2022-07-20T14:38:10Z</time>
      </trkpt>
      <trkpt lat="47.3755770" lon="6.7811330">
        <ele>568.2</ele>
        <time>2022-07-20T14:38:11Z</time>
      </trkpt>
      <trkpt lat="47.3755780" lon="6.7810480">
        <ele>568.8</ele>
        <time>2022-07-20T14:38:14Z</time>
      </trkpt>
      <trkpt lat="47.3755810" lon="6.7809830">
        <ele>568.8</ele>
        <time>2022-07-20T14:38:16Z</time>
      </trkpt>
      <trkpt lat="47.3755690" lon="6.7808100">
        <ele>569.6</ele>
        <time>2022-07-20T14:38:21Z</time>
      </trkpt>
      <trkpt lat="47.3755580" lon="6.7807730">
        <ele>569.8</ele>
        <time>2022-07-20T14:38:22Z</time>
      </trkpt>
      <trkpt lat="47.3754700" lon="6.7806510">
        <ele>570.6</ele>
        <time>2022-07-20T14:38:27Z</time>
      </trkpt>
      <trkpt lat="47.3754420" lon="6.7806520">
        <ele>571.0</ele>
        <time>2022-07-20T14:38:28Z</time>
      </trkpt>
      <trkpt lat="47.3753700" lon="6.7806960">
        <ele>571.4</ele>
        <time>2022-07-20T14:38:31Z</time>
      </trkpt>
      <trkpt lat="47.3753010" lon="6.7808210">
        <ele>572.0</ele>
        <time>2022-07-20T14:38:36Z</time>
      </trkpt>
      <trkpt lat="47.3752900" lon="6.7808460">
        <ele>572.2</ele>
        <time>2022-07-20T14:38:37Z</time>
      </trkpt>
      <trkpt lat="47.3752660" lon="6.7808940">
        <ele>573.2</ele>
        <time>2022-07-20T14:38:39Z</time>
      </trkpt>
      <trkpt lat="47.3752170" lon="6.7809990">
        <ele>573.8</ele>
        <time>2022-07-20T14:38:43Z</time>
      </trkpt>
      <trkpt lat="47.3751860" lon="6.7810780">
        <ele>574.2</ele>
        <time>2022-07-20T14:38:46Z</time>
      </trkpt>
      <trkpt lat="47.3751340" lon="6.7811360">
        <ele>574.6</ele>
        <time>2022-07-20T14:38:49Z</time>
      </trkpt>
      <trkpt lat="47.3750830" lon="6.7811710">
        <ele>575.4</ele>
        <time>2022-07-20T14:38:53Z</time>
      </trkpt>
      <trkpt lat="47.3750710" lon="6.7811770">
        <ele>575.6</ele>
        <time>2022-07-20T14:38:54Z</time>
      </trkpt>
      <trkpt lat="47.3750450" lon="6.7811830">
        <ele>576.2</ele>
        <time>2022-07-20T14:38:56Z</time>
      </trkpt>
      <trkpt lat="47.3749980" lon="6.7811920">
        <ele>577.0</ele>
        <time>2022-07-20T14:39:00Z</time>
      </trkpt>
      <trkpt lat="47.3749870" lon="6.7811940">
        <ele>577.2</ele>
        <time>2022-07-20T14:39:01Z</time>
      </trkpt>
      <trkpt lat="47.3749270" lon="6.7812190">
        <ele>578.4</ele>
        <time>2022-07-20T14:39:06Z</time>
      </trkpt>
      <trkpt lat="47.3749160" lon="6.7812200">
        <ele>578.6</ele>
        <time>2022-07-20T14:39:07Z</time>
      </trkpt>
      <trkpt lat="47.3748650" lon="6.7812270">
        <ele>579.6</ele>
        <time>2022-07-20T14:39:11Z</time>
      </trkpt>
      <trkpt lat="47.3748210" lon="6.7812370">
        <ele>579.8</ele>
        <time>2022-07-20T14:39:14Z</time>
      </trkpt>
      <trkpt lat="47.3747750" lon="6.7812500">
        <ele>580.4</ele>
        <time>2022-07-20T14:39:17Z</time>
      </trkpt>
      <trkpt lat="47.3747050" lon="6.7812760">
        <ele>581.4</ele>
        <time>2022-07-20T14:39:21Z</time>
      </trkpt>
      <trkpt lat="47.3746910" lon="6.7812820">
        <ele>581.6</ele>
        <time>2022-07-20T14:39:22Z</time>
      </trkpt>
      <trkpt lat="47.3746300" lon="6.7813120">
        <ele>582.8</ele>
        <time>2022-07-20T14:39:26Z</time>
      </trkpt>
      <trkpt lat="47.3746140" lon="6.7813170">
        <ele>583.0</ele>
        <time>2022-07-20T14:39:27Z</time>
      </trkpt>
      <trkpt lat="47.3745400" lon="6.7813210">
        <ele>584.0</ele>
        <time>2022-07-20T14:39:31Z</time>
      </trkpt>
      <trkpt lat="47.3744890" lon="6.7813220">
        <ele>584.8</ele>
        <time>2022-07-20T14:39:34Z</time>
      </trkpt>
      <trkpt lat="47.3744550" lon="6.7813210">
        <ele>585.0</ele>
        <time>2022-07-20T14:39:36Z</time>
      </trkpt>
      <trkpt lat="47.3743330" lon="6.7813180">
        <ele>585.6</ele>
        <time>2022-07-20T14:39:43Z</time>
      </trkpt>
      <trkpt lat="47.3742410" lon="6.7813010">
        <ele>585.8</ele>
        <time>2022-07-20T14:39:48Z</time>
      </trkpt>
      <trkpt lat="47.3741880" lon="6.7813030">
        <ele>586.2</ele>
        <time>2022-07-20T14:39:51Z</time>
      </trkpt>
      <trkpt lat="47.3740660" lon="6.7812690">
        <ele>587.0</ele>
        <time>2022-07-20T14:39:58Z</time>
      </trkpt>
      <trkpt lat="47.3740480" lon="6.7812650">
        <ele>587.2</ele>
        <time>2022-07-20T14:39:59Z</time>
      </trkpt>
      <trkpt lat="47.3739540" lon="6.7812910">
        <ele>588.2</ele>
        <time>2022-07-20T14:40:05Z</time>
      </trkpt>
      <trkpt lat="47.3739460" lon="6.7813040">
        <ele>588.0</ele>
        <time>2022-07-20T14:40:06Z</time>
      </trkpt>
      <trkpt lat="47.3738980" lon="6.7813750">
        <ele>588.6</ele>
        <time>2022-07-20T14:40:12Z</time>
      </trkpt>
      <trkpt lat="47.3738870" lon="6.7813670">
        <ele>588.6</ele>
        <time>2022-07-20T14:40:13Z</time>
      </trkpt>
      <trkpt lat="47.3738850" lon="6.7813360">
        <ele>588.8</ele>
        <time>2022-07-20T14:40:15Z</time>
      </trkpt>
      <trkpt lat="47.3738950" lon="6.7813110">
        <ele>589.0</ele>
        <time>2022-07-20T14:40:17Z</time>
      </trkpt>
      <trkpt lat="47.3738960" lon="6.7813080">
        <ele>589.0</ele>
        <time>2022-07-20T14:40:18Z</time>
      </trkpt>
      <trkpt lat="47.3739180" lon="6.7812860">
        <ele>589.8</ele>
        <time>2022-07-20T14:40:49Z</time>
      </trkpt>
      <trkpt lat="47.3739360" lon="6.7812280">
        <ele>590.0</ele>
        <time>2022-07-20T14:40:51Z</time>
      </trkpt>
      <trkpt lat="47.3739380" lon="6.7811870">
        <ele>590.0</ele>
        <time>2022-07-20T14:40:52Z</time>
      </trkpt>
      <trkpt lat="47.3739110" lon="6.7810510">
        <ele>590.0</ele>
        <time>2022-07-20T14:40:55Z</time>
      </trkpt>
      <trkpt lat="47.3738130" lon="6.7808040">
        <ele>589.4</ele>
        <time>2022-07-20T14:41:00Z</time>
      </trkpt>
      <trkpt lat="47.3737550" lon="6.7805750">
        <ele>588.6</ele>
        <time>2022-07-20T14:41:05Z</time>
      </trkpt>
      <trkpt lat="47.3737610" lon="6.7805440">
        <ele>587.6</ele>
        <time>2022-07-20T14:41:10Z</time>
      </trkpt>
      <trkpt lat="47.3737650" lon="6.7805460">
        <ele>587.4</ele>
        <time>2022-07-20T14:41:11Z</time>
      </trkpt>
      <trkpt lat="47.3737650" lon="6.7805900">
        <ele>586.4</ele>
        <time>2022-07-20T14:41:17Z</time>
      </trkpt>
      <trkpt lat="47.3737510" lon="6.7806620">
        <ele>587.2</ele>
        <time>2022-07-20T14:41:24Z</time>
      </trkpt>
      <trkpt lat="47.3737330" lon="6.7807160">
        <ele>588.0</ele>
        <time>2022-07-20T14:41:29Z</time>
      </trkpt>
      <trkpt lat="47.3737300" lon="6.7807120">
        <ele>588.2</ele>
        <time>2022-07-20T14:41:30Z</time>
      </trkpt>
      <trkpt lat="47.3737140" lon="6.7807200">
        <ele>588.4</ele>
        <time>2022-07-20T14:41:32Z</time>
      </trkpt>
      <trkpt lat="47.3737150" lon="6.7807380">
        <ele>588.8</ele>
        <time>2022-07-20T14:41:37Z</time>
      </trkpt>
      <trkpt lat="47.3737220" lon="6.7807290">
        <ele>589.0</ele>
        <time>2022-07-20T14:41:39Z</time>
      </trkpt>
      <trkpt lat="47.3737170" lon="6.7808010">
        <ele>589.6</ele>
        <time>2022-07-20T14:41:46Z</time>
      </trkpt>
      <trkpt lat="47.3737250" lon="6.7808470">
        <ele>590.2</ele>
        <time>2022-07-20T14:41:50Z</time>
      </trkpt>
      <trkpt lat="47.3737270" lon="6.7809160">
        <ele>590.8</ele>
        <time>2022-07-20T14:41:55Z</time>
      </trkpt>
      <trkpt lat="47.3736920" lon="6.7808570">
        <ele>591.2</ele>
        <time>2022-07-20T14:41:57Z</time>
      </trkpt>
      <trkpt lat="47.3736770" lon="6.7808390">
        <ele>591.6</ele>
        <time>2022-07-20T14:42:01Z</time>
      </trkpt>
      <trkpt lat="47.3736530" lon="6.7803760">
        <ele>594.2</ele>
        <time>2022-07-20T14:50:05Z</time>
      </trkpt>
      <trkpt lat="47.3736270" lon="6.7803860">
        <ele>594.2</ele>
        <time>2022-07-20T14:50:08Z</time>
      </trkpt>
      <trkpt lat="47.3736060" lon="6.7804110">
        <ele>594.2</ele>
        <time>2022-07-20T14:50:10Z</time>
      </trkpt>
      <trkpt lat="47.3736660" lon="6.7803120">
        <ele>594.2</ele>
        <time>2022-07-20T14:50:16Z</time>
      </trkpt>
      <trkpt lat="47.3736830" lon="6.7802280">
        <ele>594.2</ele>
        <time>2022-07-20T14:50:18Z</time>
      </trkpt>
      <trkpt lat="47.3736870" lon="6.7801420">
        <ele>594.0</ele>
        <time>2022-07-20T14:50:23Z</time>
      </trkpt>
      <trkpt lat="47.3737220" lon="6.7801460">
        <ele>594.0</ele>
        <time>2022-07-20T14:50:29Z</time>
      </trkpt>
      <trkpt lat="47.3737670" lon="6.7806930">
        <ele>605.4</ele>
        <time>2022-07-20T14:56:25Z</time>
      </trkpt>
      <trkpt lat="47.3738310" lon="6.7808860">
        <ele>605.4</ele>
        <time>2022-07-20T14:56:34Z</time>
      </trkpt>
      <trkpt lat="47.3738960" lon="6.7810830">
        <ele>605.4</ele>
        <time>2022-07-20T14:56:41Z</time>
      </trkpt>
      <trkpt lat="47.3739240" lon="6.7812920">
        <ele>606.4</ele>
        <time>2022-07-20T14:56:49Z</time>
      </trkpt>
      <trkpt lat="47.3739230" lon="6.7813410">
        <ele>606.6</ele>
        <time>2022-07-20T14:56:51Z</time>
      </trkpt>
      <trkpt lat="47.3739130" lon="6.7815550">
        <ele>607.6</ele>
        <time>2022-07-20T14:56:58Z</time>
      </trkpt>
      <trkpt lat="47.3739100" lon="6.7816230">
        <ele>607.8</ele>
        <time>2022-07-20T14:57:00Z</time>
      </trkpt>
      <trkpt lat="47.3738880" lon="6.7817360">
        <ele>608.2</ele>
        <time>2022-07-20T14:57:04Z</time>
      </trkpt>
      <trkpt lat="47.3738330" lon="6.7818820">
        <ele>608.8</ele>
        <time>2022-07-20T14:57:10Z</time>
      </trkpt>
      <trkpt lat="47.3738210" lon="6.7819000">
        <ele>609.0</ele>
        <time>2022-07-20T14:57:11Z</time>
      </trkpt>
      <trkpt lat="47.3737450" lon="6.7820070">
        <ele>609.8</ele>
        <time>2022-07-20T14:57:17Z</time>
      </trkpt>
      <trkpt lat="47.3737320" lon="6.7820230">
        <ele>610.0</ele>
        <time>2022-07-20T14:57:18Z</time>
      </trkpt>
      <trkpt lat="47.3736480" lon="6.7821150">
        <ele>610.8</ele>
        <time>2022-07-20T14:57:24Z</time>
      </trkpt>
      <trkpt lat="47.3736190" lon="6.7821430">
        <ele>611.2</ele>
        <time>2022-07-20T14:57:26Z</time>
      </trkpt>
      <trkpt lat="47.3735440" lon="6.7822390">
        <ele>612.0</ele>
        <time>2022-07-20T14:57:31Z</time>
      </trkpt>
      <trkpt lat="47.3734760" lon="6.7823110">
        <ele>612.8</ele>
        <time>2022-07-20T14:57:35Z</time>
      </trkpt>
      <trkpt lat="47.3734580" lon="6.7823320">
        <ele>613.0</ele>
        <time>2022-07-20T14:57:36Z</time>
      </trkpt>
      <trkpt lat="47.3733490" lon="6.7824640">
        <ele>614.2</ele>
        <time>2022-07-20T14:57:42Z</time>
      </trkpt>
      <trkpt lat="47.3733300" lon="6.7824820">
        <ele>614.4</ele>
        <time>2022-07-20T14:57:43Z</time>
      </trkpt>
      <trkpt lat="47.3732260" lon="6.7825980">
        <ele>615.2</ele>
        <time>2022-07-20T14:57:49Z</time>
      </trkpt>
      <trkpt lat="47.3732080" lon="6.7826160">
        <ele>615.4</ele>
        <time>2022-07-20T14:57:50Z</time>
      </trkpt>
      <trkpt lat="47.3730780" lon="6.7827310">
        <ele>616.6</ele>
        <time>2022-07-20T14:57:57Z</time>
      </trkpt>
      <trkpt lat="47.3730070" lon="6.7828230">
        <ele>617.2</ele>
        <time>2022-07-20T14:58:02Z</time>
      </trkpt>
      <trkpt lat="47.3729770" lon="6.7828620">
        <ele>617.6</ele>
        <time>2022-07-20T14:58:04Z</time>
      </trkpt>
      <trkpt lat="47.3729130" lon="6.7829430">
        <ele>618.2</ele>
        <time>2022-07-20T14:58:08Z</time>
      </trkpt>
      <trkpt lat="47.3728690" lon="6.7830010">
        <ele>618.6</ele>
        <time>2022-07-20T14:58:11Z</time>
      </trkpt>
      <trkpt lat="47.3728220" lon="6.7830850">
        <ele>619.4</ele>
        <time>2022-07-20T14:58:15Z</time>
      </trkpt>
      <trkpt lat="47.3728070" lon="6.7831330">
        <ele>619.8</ele>
        <time>2022-07-20T14:58:17Z</time>
      </trkpt>
      <trkpt lat="47.3727610" lon="6.7832670">
        <ele>621.2</ele>
        <time>2022-07-20T14:58:23Z</time>
      </trkpt>
      <trkpt lat="47.3727350" lon="6.7834180">
        <ele>622.2</ele>
        <time>2022-07-20T14:58:29Z</time>
      </trkpt>
      <trkpt lat="47.3727300" lon="6.7834420">
        <ele>622.4</ele>
        <time>2022-07-20T14:58:30Z</time>
      </trkpt>
      <trkpt lat="47.3727250" lon="6.7836220">
        <ele>623.2</ele>
        <time>2022-07-20T14:58:35Z</time>
      </trkpt>
      <trkpt lat="47.3727300" lon="6.7836530">
        <ele>623.4</ele>
        <time>2022-07-20T14:58:36Z</time>
      </trkpt>
      <trkpt lat="47.3727690" lon="6.7837820">
        <ele>624.2</ele>
        <time>2022-07-20T14:58:41Z</time>
      </trkpt>
      <trkpt lat="47.3727800" lon="6.7838260">
        <ele>624.4</ele>
        <time>2022-07-20T14:58:43Z</time>
      </trkpt>
      <trkpt lat="47.3727990" lon="6.7839430">
        <ele>625.6</ele>
        <time>2022-07-20T14:58:48Z</time>
      </trkpt>
      <trkpt lat="47.3728120" lon="6.7841180">
        <ele>626.8</ele>
        <time>2022-07-20T14:58:54Z</time>
      </trkpt>
      <trkpt lat="47.3728130" lon="6.7841420">
        <ele>627.0</ele>
        <time>2022-07-20T14:58:55Z</time>
      </trkpt>
      <trkpt lat="47.3728080" lon="6.7842900">
        <ele>627.8</ele>
        <time>2022-07-20T14:59:01Z</time>
      </trkpt>
      <trkpt lat="47.3728050" lon="6.7843070">
        <ele>628.0</ele>
        <time>2022-07-20T14:59:02Z</time>
      </trkpt>
      <trkpt lat="47.3727950" lon="6.7843480">
        <ele>628.8</ele>
        <time>2022-07-20T14:59:06Z</time>
      </trkpt>
      <trkpt lat="47.3728000" lon="6.7843640">
        <ele>629.4</ele>
        <time>2022-07-20T14:59:08Z</time>
      </trkpt>
      <trkpt lat="47.3728420" lon="6.7843070">
        <ele>630.2</ele>
        <time>2022-07-20T14:59:15Z</time>
      </trkpt>
      <trkpt lat="47.3728480" lon="6.7842630">
        <ele>630.4</ele>
        <time>2022-07-20T14:59:16Z</time>
      </trkpt>
      <trkpt lat="47.3728000" lon="6.7839900">
        <ele>631.2</ele>
        <time>2022-07-20T14:59:21Z</time>
      </trkpt>
      <trkpt lat="47.3727840" lon="6.7839420">
        <ele>631.2</ele>
        <time>2022-07-20T14:59:22Z</time>
      </trkpt>
      <trkpt lat="47.3727630" lon="6.7838940">
        <ele>631.4</ele>
        <time>2022-07-20T14:59:23Z</time>
      </trkpt>
      <trkpt lat="47.3726990" lon="6.7837320">
        <ele>631.6</ele>
        <time>2022-07-20T14:59:26Z</time>
      </trkpt>
      <trkpt lat="47.3726800" lon="6.7834670">
        <ele>631.8</ele>
        <time>2022-07-20T14:59:30Z</time>
      </trkpt>
      <trkpt lat="47.3727470" lon="6.7832640">
        <ele>632.2</ele>
        <time>2022-07-20T14:59:34Z</time>
      </trkpt>
      <trkpt lat="47.3728390" lon="6.7831200">
        <ele>632.6</ele>
        <time>2022-07-20T14:59:37Z</time>
      </trkpt>
      <trkpt lat="47.3729500" lon="6.7830010">
        <ele>633.0</ele>
        <time>2022-07-20T14:59:40Z</time>
      </trkpt>
      <trkpt lat="47.3730110" lon="6.7829060">
        <ele>633.6</ele>
        <time>2022-07-20T14:59:43Z</time>
      </trkpt>
      <trkpt lat="47.3730160" lon="6.7828770">
        <ele>633.8</ele>
        <time>2022-07-20T14:59:44Z</time>
      </trkpt>
      <trkpt lat="47.3730470" lon="6.7827970">
        <ele>634.2</ele>
        <time>2022-07-20T14:59:47Z</time>
      </trkpt>
      <trkpt lat="47.3730760" lon="6.7827720">
        <ele>634.4</ele>
        <time>2022-07-20T14:59:48Z</time>
      </trkpt>
      <trkpt lat="47.3731460" lon="6.7826990">
        <ele>635.0</ele>
        <time>2022-07-20T14:59:50Z</time>
      </trkpt>
      <trkpt lat="47.3732520" lon="6.7825850">
        <ele>635.4</ele>
        <time>2022-07-20T14:59:53Z</time>
      </trkpt>
      <trkpt lat="47.3732920" lon="6.7825440">
        <ele>635.4</ele>
        <time>2022-07-20T14:59:54Z</time>
      </trkpt>
      <trkpt lat="47.3735370" lon="6.7822700">
        <ele>636.0</ele>
        <time>2022-07-20T15:00:00Z</time>
      </trkpt>
      <trkpt lat="47.3736140" lon="6.7821750">
        <ele>636.0</ele>
        <time>2022-07-20T15:00:02Z</time>
      </trkpt>
      <trkpt lat="47.3736490" lon="6.7821240">
        <ele>636.2</ele>
        <time>2022-07-20T15:00:03Z</time>
      </trkpt>
      <trkpt lat="47.3737580" lon="6.7819420">
        <ele>636.2</ele>
        <time>2022-07-20T15:00:06Z</time>
      </trkpt>
      <trkpt lat="47.3737920" lon="6.7818670">
        <ele>636.4</ele>
        <time>2022-07-20T15:00:07Z</time>
      </trkpt>
      <trkpt lat="47.3738640" lon="6.7815900">
        <ele>636.4</ele>
        <time>2022-07-20T15:00:10Z</time>
      </trkpt>
      <trkpt lat="47.3738780" lon="6.7815050">
        <ele>636.4</ele>
        <time>2022-07-20T15:00:11Z</time>
      </trkpt>
      <trkpt lat="47.3739160" lon="6.7813090">
        <ele>637.0</ele>
        <time>2022-07-20T15:00:14Z</time>
      </trkpt>
      <trkpt lat="47.3739190" lon="6.7812460">
        <ele>637.0</ele>
        <time>2022-07-20T15:00:15Z</time>
      </trkpt>
      <trkpt lat="47.3738830" lon="6.7810630">
        <ele>637.2</ele>
        <time>2022-07-20T15:00:18Z</time>
      </trkpt>
      <trkpt lat="47.3738640" lon="6.7810010">
        <ele>637.4</ele>
        <time>2022-07-20T15:00:19Z</time>
      </trkpt>
      <trkpt lat="47.3738440" lon="6.7809370">
        <ele>637.4</ele>
        <time>2022-07-20T15:00:20Z</time>
      </trkpt>
      <trkpt lat="47.3737470" lon="6.7806160">
        <ele>637.8</ele>
        <time>2022-07-20T15:00:25Z</time>
      </trkpt>
      <trkpt lat="47.3737340" lon="6.7805290">
        <ele>638.0</ele>
        <time>2022-07-20T15:00:28Z</time>
      </trkpt>
      <trkpt lat="47.3737350" lon="6.7805260">
        <ele>638.2</ele>
        <time>2022-07-20T15:00:29Z</time>
      </trkpt>
      <trkpt lat="47.3738130" lon="6.7807010">
        <ele>592.2</ele>
        <time>2022-07-20T15:19:44Z</time>
      </trkpt>
      <trkpt lat="47.3738260" lon="6.7807340">
        <ele>592.4</ele>
        <time>2022-07-20T15:19:46Z</time>
      </trkpt>
      <trkpt lat="47.3738480" lon="6.7807960">
        <ele>592.6</ele>
        <time>2022-07-20T15:19:49Z</time>
      </trkpt>
      <trkpt lat="47.3738530" lon="6.7808920">
        <ele>592.8</ele>
        <time>2022-07-20T15:19:52Z</time>
      </trkpt>
      <trkpt lat="47.3739010" lon="6.7811100">
        <ele>592.8</ele>
        <time>2022-07-20T15:19:58Z</time>
      </trkpt>
      <trkpt lat="47.3739220" lon="6.7812490">
        <ele>593.0</ele>
        <time>2022-07-20T15:20:03Z</time>
      </trkpt>
      <trkpt lat="47.3739190" lon="6.7812970">
        <ele>593.2</ele>
        <time>2022-07-20T15:20:05Z</time>
      </trkpt>
      <trkpt lat="47.3739120" lon="6.7815420">
        <ele>594.0</ele>
        <time>2022-07-20T15:20:13Z</time>
      </trkpt>
      <trkpt lat="47.3738940" lon="6.7817200">
        <ele>594.6</ele>
        <time>2022-07-20T15:20:19Z</time>
      </trkpt>
      <trkpt lat="47.3738560" lon="6.7818710">
        <ele>595.2</ele>
        <time>2022-07-20T15:20:25Z</time>
      </trkpt>
      <trkpt lat="47.3738310" lon="6.7819130">
        <ele>595.4</ele>
        <time>2022-07-20T15:20:27Z</time>
      </trkpt>
      <trkpt lat="47.3737490" lon="6.7820160">
        <ele>595.6</ele>
        <time>2022-07-20T15:20:33Z</time>
      </trkpt>
      <trkpt lat="47.3737490" lon="6.7820160">
        <ele>595.6</ele>
        <time>2022-07-20T15:20:34Z</time>
      </trkpt>
      <trkpt lat="47.3684300" lon="6.7872650">
        <ele>721.8</ele>
        <time>2022-07-20T15:36:53Z</time>
      </trkpt>
      <trkpt lat="47.3684630" lon="6.7872580">
        <ele>722.1</ele>
        <time>2022-07-20T15:36:54Z</time>
      </trkpt>
      <trkpt lat="47.3684710" lon="6.7872540">
        <ele>722.2</ele>
        <time>2022-07-20T15:36:55Z</time>
      </trkpt>
      <trkpt lat="47.3684770" lon="6.7872400">
        <ele>722.2</ele>
        <time>2022-07-20T15:36:56Z</time>
      </trkpt>
      <trkpt lat="47.3684790" lon="6.7872220">
        <ele>722.3</ele>
        <time>2022-07-20T15:36:57Z</time>
      </trkpt>
      <trkpt lat="47.3684690" lon="6.7872210">
        <ele>722.4</ele>
        <time>2022-07-20T15:36:58Z</time>
      </trkpt>
      <trkpt lat="47.3684610" lon="6.7872270">
        <ele>722.5</ele>
        <time>2022-07-20T15:36:59Z</time>
      </trkpt>
      <trkpt lat="47.3684440" lon="6.7872380">
        <ele>722.6</ele>
        <time>2022-07-20T15:37:00Z</time>
      </trkpt>
      <trkpt lat="47.3684420" lon="6.7872420">
        <ele>722.6</ele>
        <time>2022-07-20T15:37:01Z</time>
      </trkpt>
      <trkpt lat="47.3684440" lon="6.7872470">
        <ele>722.7</ele>
        <time>2022-07-20T15:37:02Z</time>
      </trkpt>
      <trkpt lat="47.3684480" lon="6.7872550">
        <ele>722.7</ele>
        <time>2022-07-20T15:37:03Z</time>
      </trkpt>
      <trkpt lat="47.3684520" lon="6.7872500">
        <ele>722.8</ele>
        <time>2022-07-20T15:37:05Z</time>
      </trkpt>
      <trkpt lat="47.3684560" lon="6.7872590">
        <ele>722.8</ele>
        <time>2022-07-20T15:37:06Z</time>
      </trkpt>
      <trkpt lat="47.3684580" lon="6.7872700">
        <ele>722.9</ele>
        <time>2022-07-20T15:37:07Z</time>
      </trkpt>
      <trkpt lat="47.3684480" lon="6.7873120">
        <ele>723.1</ele>
        <time>2022-07-20T15:37:09Z</time>
      </trkpt>
      <trkpt lat="47.3684350" lon="6.7873590">
        <ele>723.4</ele>
        <time>2022-07-20T15:37:10Z</time>
      </trkpt>
      <trkpt lat="47.3684310" lon="6.7873700">
        <ele>723.4</ele>
        <time>2022-07-20T15:37:11Z</time>
      </trkpt>
      <trkpt lat="47.3684240" lon="6.7873940">
        <ele>723.6</ele>
        <time>2022-07-20T15:37:12Z</time>
      </trkpt>
      <trkpt lat="47.3684220" lon="6.7874230">
        <ele>723.7</ele>
        <time>2022-07-20T15:37:14Z</time>
      </trkpt>
      <trkpt lat="47.3684170" lon="6.7874460">
        <ele>723.8</ele>
        <time>2022-07-20T15:37:15Z</time>
      </trkpt>
      <trkpt lat="47.3684250" lon="6.7874670">
        <ele>724.0</ele>
        <time>2022-07-20T15:37:16Z</time>
      </trkpt>
      <trkpt lat="47.3684260" lon="6.7874830">
        <ele>724.0</ele>
        <time>2022-07-20T15:37:17Z</time>
      </trkpt>
      <trkpt lat="47.3684300" lon="6.7875100">
        <ele>724.2</ele>
        <time>2022-07-20T15:37:18Z</time>
      </trkpt>
      <trkpt lat="47.3684260" lon="6.7875380">
        <ele>724.3</ele>
        <time>2022-07-20T15:37:19Z</time>
      </trkpt>
      <trkpt lat="47.3684210" lon="6.7875630">
        <ele>724.5</ele>
        <time>2022-07-20T15:37:21Z</time>
      </trkpt>
      <trkpt lat="47.3684180" lon="6.7875750">
        <ele>724.5</ele>
        <time>2022-07-20T15:37:22Z</time>
      </trkpt>
      <trkpt lat="47.3684020" lon="6.7875930">
        <ele>724.7</ele>
        <time>2022-07-20T15:37:23Z</time>
      </trkpt>
      <trkpt lat="47.3683920" lon="6.7876180">
        <ele>724.8</ele>
        <time>2022-07-20T15:37:24Z</time>
      </trkpt>
      <trkpt lat="47.3683890" lon="6.7876420">
        <ele>724.9</ele>
        <time>2022-07-20T15:37:25Z</time>
      </trkpt>
      <trkpt lat="47.3683840" lon="6.7876620">
        <ele>725.0</ele>
        <time>2022-07-20T15:37:27Z</time>
      </trkpt>
      <trkpt lat="47.3683770" lon="6.7876850">
        <ele>725.2</ele>
        <time>2022-07-20T15:37:28Z</time>
      </trkpt>
      <trkpt lat="47.3683660" lon="6.7877370">
        <ele>725.4</ele>
        <time>2022-07-20T15:37:30Z</time>
      </trkpt>
      <trkpt lat="47.3683630" lon="6.7877590">
        <ele>725.5</ele>
        <time>2022-07-20T15:37:31Z</time>
      </trkpt>
      <trkpt lat="47.3683620" lon="6.7877800">
        <ele>725.6</ele>
        <time>2022-07-20T15:37:32Z</time>
      </trkpt>
      <trkpt lat="47.3683460" lon="6.7878150">
        <ele>725.8</ele>
        <time>2022-07-20T15:37:33Z</time>
      </trkpt>
      <trkpt lat="47.3683370" lon="6.7878330">
        <ele>725.9</ele>
        <time>2022-07-20T15:37:34Z</time>
      </trkpt>
      <trkpt lat="47.3683240" lon="6.7878680">
        <ele>726.1</ele>
        <time>2022-07-20T15:37:36Z</time>
      </trkpt>
      <trkpt lat="47.3683200" lon="6.7878800">
        <ele>726.2</ele>
        <time>2022-07-20T15:37:37Z</time>
      </trkpt>
      <trkpt lat="47.3683210" lon="6.7879130">
        <ele>726.3</ele>
        <time>2022-07-20T15:37:38Z</time>
      </trkpt>
      <trkpt lat="47.3683260" lon="6.7879280">
        <ele>726.4</ele>
        <time>2022-07-20T15:37:39Z</time>
      </trkpt>
      <trkpt lat="47.3683310" lon="6.7879430">
        <ele>726.5</ele>
        <time>2022-07-20T15:37:40Z</time>
      </trkpt>
      <trkpt lat="47.3683370" lon="6.7879640">
        <ele>726.6</ele>
        <time>2022-07-20T15:37:41Z</time>
      </trkpt>
      <trkpt lat="47.3683380" lon="6.7879950">
        <ele>726.7</ele>
        <time>2022-07-20T15:37:42Z</time>
      </trkpt>
      <trkpt lat="47.3683260" lon="6.7880390">
        <ele>726.9</ele>
        <time>2022-07-20T15:37:44Z</time>
      </trkpt>
      <trkpt lat="47.3683220" lon="6.7880510">
        <ele>727.0</ele>
        <time>2022-07-20T15:37:45Z</time>
      </trkpt>
      <trkpt lat="47.3683120" lon="6.7880910">
        <ele>727.2</ele>
        <time>2022-07-20T15:37:46Z</time>
      </trkpt>
      <trkpt lat="47.3683100" lon="6.7881030">
        <ele>727.2</ele>
        <time>2022-07-20T15:37:47Z</time>
      </trkpt>
      <trkpt lat="47.3682890" lon="6.7881470">
        <ele>727.5</ele>
        <time>2022-07-20T15:37:48Z</time>
      </trkpt>
      <trkpt lat="47.3682810" lon="6.7881610">
        <ele>727.5</ele>
        <time>2022-07-20T15:37:49Z</time>
      </trkpt>
      <trkpt lat="47.3682650" lon="6.7882070">
        <ele>727.8</ele>
        <time>2022-07-20T15:37:50Z</time>
      </trkpt>
      <trkpt lat="47.3682590" lon="6.7882250">
        <ele>727.8</ele>
        <time>2022-07-20T15:37:51Z</time>
      </trkpt>
      <trkpt lat="47.3682450" lon="6.7882580">
        <ele>728.0</ele>
        <time>2022-07-20T15:37:52Z</time>
      </trkpt>
      <trkpt lat="47.3682270" lon="6.7882910">
        <ele>728.2</ele>
        <time>2022-07-20T15:37:54Z</time>
      </trkpt>
      <trkpt lat="47.3682120" lon="6.7883310">
        <ele>728.4</ele>
        <time>2022-07-20T15:37:55Z</time>
      </trkpt>
      <trkpt lat="47.3682070" lon="6.7883460">
        <ele>728.5</ele>
        <time>2022-07-20T15:37:56Z</time>
      </trkpt>
      <trkpt lat="47.3682000" lon="6.7883740">
        <ele>728.6</ele>
        <time>2022-07-20T15:37:57Z</time>
      </trkpt>
      <trkpt lat="47.3681940" lon="6.7884050">
        <ele>728.7</ele>
        <time>2022-07-20T15:37:59Z</time>
      </trkpt>
      <trkpt lat="47.3681870" lon="6.7884460">
        <ele>728.9</ele>
        <time>2022-07-20T15:38:00Z</time>
      </trkpt>
      <trkpt lat="47.3681780" lon="6.7884970">
        <ele>729.2</ele>
        <time>2022-07-20T15:38:02Z</time>
      </trkpt>
      <trkpt lat="47.3681770" lon="6.7885120">
        <ele>729.2</ele>
        <time>2022-07-20T15:38:03Z</time>
      </trkpt>
      <trkpt lat="47.3681710" lon="6.7885570">
        <ele>729.4</ele>
        <time>2022-07-20T15:38:04Z</time>
      </trkpt>
      <trkpt lat="47.3681680" lon="6.7885710">
        <ele>729.5</ele>
        <time>2022-07-20T15:38:05Z</time>
      </trkpt>
      <trkpt lat="47.3681630" lon="6.7886030">
        <ele>729.6</ele>
        <time>2022-07-20T15:38:06Z</time>
      </trkpt>
      <trkpt lat="47.3681570" lon="6.7886340">
        <ele>729.8</ele>
        <time>2022-07-20T15:38:08Z</time>
      </trkpt>
      <trkpt lat="47.3681530" lon="6.7886580">
        <ele>729.9</ele>
        <time>2022-07-20T15:38:09Z</time>
      </trkpt>
      <trkpt lat="47.3681470" lon="6.7886760">
        <ele>730.0</ele>
        <time>2022-07-20T15:38:10Z</time>
      </trkpt>
      <trkpt lat="47.3681430" lon="6.7886890">
        <ele>730.1</ele>
        <time>2022-07-20T15:38:11Z</time>
      </trkpt>
      <trkpt lat="47.3681330" lon="6.7887230">
        <ele>730.2</ele>
        <time>2022-07-20T15:38:12Z</time>
      </trkpt>
      <trkpt lat="47.3681220" lon="6.7887740">
        <ele>730.5</ele>
        <time>2022-07-20T15:38:13Z</time>
      </trkpt>
      <trkpt lat="47.3681190" lon="6.7887880">
        <ele>730.5</ele>
        <time>2022-07-20T15:38:14Z</time>
      </trkpt>
      <trkpt lat="47.3681000" lon="6.7888350">
        <ele>730.8</ele>
        <time>2022-07-20T15:38:16Z</time>
      </trkpt>
      <trkpt lat="47.3680930" lon="6.7888490">
        <ele>730.9</ele>
        <time>2022-07-20T15:38:17Z</time>
      </trkpt>
      <trkpt lat="47.3680640" lon="6.7889120">
        <ele>731.2</ele>
        <time>2022-07-20T15:38:19Z</time>
      </trkpt>
      <trkpt lat="47.3680540" lon="6.7889360">
        <ele>731.3</ele>
        <time>2022-07-20T15:38:21Z</time>
      </trkpt>
      <trkpt lat="47.3680440" lon="6.7889590">
        <ele>731.4</ele>
        <time>2022-07-20T15:38:22Z</time>
      </trkpt>
      <trkpt lat="47.3680280" lon="6.7889980">
        <ele>731.6</ele>
        <time>2022-07-20T15:38:23Z</time>
      </trkpt>
      <trkpt lat="47.3680190" lon="6.7890160">
        <ele>731.7</ele>
        <time>2022-07-20T15:38:25Z</time>
      </trkpt>
      <trkpt lat="47.3680100" lon="6.7890340">
        <ele>731.8</ele>
        <time>2022-07-20T15:38:26Z</time>
      </trkpt>
      <trkpt lat="47.3680010" lon="6.7890510">
        <ele>731.9</ele>
        <time>2022-07-20T15:38:27Z</time>
      </trkpt>
      <trkpt lat="47.3679880" lon="6.7890880">
        <ele>732.1</ele>
        <time>2022-07-20T15:38:28Z</time>
      </trkpt>
      <trkpt lat="47.3679840" lon="6.7891010">
        <ele>732.1</ele>
        <time>2022-07-20T15:38:29Z</time>
      </trkpt>
      <trkpt lat="47.3679730" lon="6.7891410">
        <ele>732.3</ele>
        <time>2022-07-20T15:38:30Z</time>
      </trkpt>
      <trkpt lat="47.3679700" lon="6.7891530">
        <ele>732.4</ele>
        <time>2022-07-20T15:38:31Z</time>
      </trkpt>
      <trkpt lat="47.3679600" lon="6.7891950">
        <ele>732.6</ele>
        <time>2022-07-20T15:38:32Z</time>
      </trkpt>
      <trkpt lat="47.3679540" lon="6.7892120">
        <ele>732.6</ele>
        <time>2022-07-20T15:38:33Z</time>
      </trkpt>
      <trkpt lat="47.3679370" lon="6.7892560">
        <ele>732.9</ele>
        <time>2022-07-20T15:38:35Z</time>
      </trkpt>
      <trkpt lat="47.3679320" lon="6.7892710">
        <ele>732.9</ele>
        <time>2022-07-20T15:38:36Z</time>
      </trkpt>
      <trkpt lat="47.3679250" lon="6.7892960">
        <ele>733.0</ele>
        <time>2022-07-20T15:38:37Z</time>
      </trkpt>
      <trkpt lat="47.3679200" lon="6.7893130">
        <ele>733.1</ele>
        <time>2022-07-20T15:38:38Z</time>
      </trkpt>
      <trkpt lat="47.3679120" lon="6.7893310">
        <ele>733.2</ele>
        <time>2022-07-20T15:38:39Z</time>
      </trkpt>
      <trkpt lat="47.3679040" lon="6.7893470">
        <ele>733.3</ele>
        <time>2022-07-20T15:38:40Z</time>
      </trkpt>
      <trkpt lat="47.3678970" lon="6.7893670">
        <ele>733.4</ele>
        <time>2022-07-20T15:38:41Z</time>
      </trkpt>
      <trkpt lat="47.3678870" lon="6.7893920">
        <ele>733.5</ele>
        <time>2022-07-20T15:38:42Z</time>
      </trkpt>
      <trkpt lat="47.3678770" lon="6.7894300">
        <ele>733.7</ele>
        <time>2022-07-20T15:38:43Z</time>
      </trkpt>
      <trkpt lat="47.3678750" lon="6.7894440">
        <ele>733.7</ele>
        <time>2022-07-20T15:38:44Z</time>
      </trkpt>
      <trkpt lat="47.3678670" lon="6.7894860">
        <ele>733.9</ele>
        <time>2022-07-20T15:38:45Z</time>
      </trkpt>
      <trkpt lat="47.3678540" lon="6.7895410">
        <ele>734.1</ele>
        <time>2022-07-20T15:38:47Z</time>
      </trkpt>
      <trkpt lat="47.3678490" lon="6.7895600">
        <ele>734.2</ele>
        <time>2022-07-20T15:38:48Z</time>
      </trkpt>
      <trkpt lat="47.3678380" lon="6.7896020">
        <ele>734.4</ele>
        <time>2022-07-20T15:38:49Z</time>
      </trkpt>
      <trkpt lat="47.3678270" lon="6.7896450">
        <ele>734.6</ele>
        <time>2022-07-20T15:38:50Z</time>
      </trkpt>
      <trkpt lat="47.3678070" lon="6.7897070">
        <ele>734.9</ele>
        <time>2022-07-20T15:38:52Z</time>
      </trkpt>
      <trkpt lat="47.3678000" lon="6.7897320">
        <ele>735.0</ele>
        <time>2022-07-20T15:38:53Z</time>
      </trkpt>
      <trkpt lat="47.3677930" lon="6.7897580">
        <ele>735.1</ele>
        <time>2022-07-20T15:38:54Z</time>
      </trkpt>
      <trkpt lat="47.3677740" lon="6.7898190">
        <ele>735.4</ele>
        <time>2022-07-20T15:38:56Z</time>
      </trkpt>
      <trkpt lat="47.3677610" lon="6.7898680">
        <ele>735.7</ele>
        <time>2022-07-20T15:38:57Z</time>
      </trkpt>
      <trkpt lat="47.3677580" lon="6.7898840">
        <ele>735.8</ele>
        <time>2022-07-20T15:38:58Z</time>
      </trkpt>
      <trkpt lat="47.3677450" lon="6.7899220">
        <ele>736.0</ele>
        <time>2022-07-20T15:38:59Z</time>
      </trkpt>
      <trkpt lat="47.3677390" lon="6.7899340">
        <ele>736.1</ele>
        <time>2022-07-20T15:39:00Z</time>
      </trkpt>
      <trkpt lat="47.3677340" lon="6.7899640">
        <ele>736.3</ele>
        <time>2022-07-20T15:39:01Z</time>
      </trkpt>
      <trkpt lat="47.3677250" lon="6.7900050">
        <ele>736.6</ele>
        <time>2022-07-20T15:39:03Z</time>
      </trkpt>
      <trkpt lat="47.3677160" lon="6.7900630">
        <ele>736.9</ele>
        <time>2022-07-20T15:39:04Z</time>
      </trkpt>
      <trkpt lat="47.3677130" lon="6.7900810">
        <ele>737.0</ele>
        <time>2022-07-20T15:39:05Z</time>
      </trkpt>
      <trkpt lat="47.3677040" lon="6.7901060">
        <ele>737.2</ele>
        <time>2022-07-20T15:39:06Z</time>
      </trkpt>
      <trkpt lat="47.3676900" lon="6.7901170">
        <ele>737.3</ele>
        <time>2022-07-20T15:39:07Z</time>
      </trkpt>
      <trkpt lat="47.3676690" lon="6.7901430">
        <ele>737.5</ele>
        <time>2022-07-20T15:39:08Z</time>
      </trkpt>
      <trkpt lat="47.3676630" lon="6.7901540">
        <ele>737.6</ele>
        <time>2022-07-20T15:39:09Z</time>
      </trkpt>
      <trkpt lat="47.3676460" lon="6.7901960">
        <ele>737.9</ele>
        <time>2022-07-20T15:39:11Z</time>
      </trkpt>
      <trkpt lat="47.3676400" lon="6.7902080">
        <ele>738.0</ele>
        <time>2022-07-20T15:39:12Z</time>
      </trkpt>
      <trkpt lat="47.3676320" lon="6.7902330">
        <ele>738.1</ele>
        <time>2022-07-20T15:39:13Z</time>
      </trkpt>
      <trkpt lat="47.3676280" lon="6.7902460">
        <ele>738.2</ele>
        <time>2022-07-20T15:39:15Z</time>
      </trkpt>
      <trkpt lat="47.3676250" lon="6.7902620">
        <ele>738.3</ele>
        <time>2022-07-20T15:39:16Z</time>
      </trkpt>
      <trkpt lat="47.3676280" lon="6.7902700">
        <ele>738.4</ele>
        <time>2022-07-20T15:39:17Z</time>
      </trkpt>
      <trkpt lat="47.3676250" lon="6.7902860">
        <ele>738.5</ele>
        <time>2022-07-20T15:39:18Z</time>
      </trkpt>
      <trkpt lat="47.3676230" lon="6.7903090">
        <ele>738.6</ele>
        <time>2022-07-20T15:39:19Z</time>
      </trkpt>
      <trkpt lat="47.3676230" lon="6.7903300">
        <ele>738.7</ele>
        <time>2022-07-20T15:39:20Z</time>
      </trkpt>
      <trkpt lat="47.3676230" lon="6.7903530">
        <ele>738.8</ele>
        <time>2022-07-20T15:39:21Z</time>
      </trkpt>
      <trkpt lat="47.3676220" lon="6.7904070">
        <ele>739.1</ele>
        <time>2022-07-20T15:39:23Z</time>
      </trkpt>
      <trkpt lat="47.3676190" lon="6.7904360">
        <ele>739.3</ele>
        <time>2022-07-20T15:39:24Z</time>
      </trkpt>
      <trkpt lat="47.3676160" lon="6.7904580">
        <ele>739.4</ele>
        <time>2022-07-20T15:39:25Z</time>
      </trkpt>
      <trkpt lat="47.3676080" lon="6.7905070">
        <ele>739.7</ele>
        <time>2022-07-20T15:39:26Z</time>
      </trkpt>
      <trkpt lat="47.3676040" lon="6.7905300">
        <ele>739.8</ele>
        <time>2022-07-20T15:39:28Z</time>
      </trkpt>
      <trkpt lat="47.3676010" lon="6.7905520">
        <ele>739.9</ele>
        <time>2022-07-20T15:39:29Z</time>
      </trkpt>
      <trkpt lat="47.3675970" lon="6.7905740">
        <ele>740.1</ele>
        <time>2022-07-20T15:39:30Z</time>
      </trkpt>
      <trkpt lat="47.3675910" lon="6.7906010">
        <ele>740.2</ele>
        <time>2022-07-20T15:39:31Z</time>
      </trkpt>
      <trkpt lat="47.3675740" lon="6.7906320">
        <ele>740.4</ele>
        <time>2022-07-20T15:39:33Z</time>
      </trkpt>
      <trkpt lat="47.3675620" lon="6.7906510">
        <ele>740.6</ele>
        <time>2022-07-20T15:39:34Z</time>
      </trkpt>
      <trkpt lat="47.3675530" lon="6.7906730">
        <ele>740.7</ele>
        <time>2022-07-20T15:39:35Z</time>
      </trkpt>
      <trkpt lat="47.3675420" lon="6.7906970">
        <ele>740.9</ele>
        <time>2022-07-20T15:39:36Z</time>
      </trkpt>
      <trkpt lat="47.3675340" lon="6.7907260">
        <ele>741.1</ele>
        <time>2022-07-20T15:39:38Z</time>
      </trkpt>
      <trkpt lat="47.3675220" lon="6.7907640">
        <ele>741.3</ele>
        <time>2022-07-20T15:39:39Z</time>
      </trkpt>
      <trkpt lat="47.3675170" lon="6.7907780">
        <ele>741.4</ele>
        <time>2022-07-20T15:39:40Z</time>
      </trkpt>
      <trkpt lat="47.3675070" lon="6.7908000">
        <ele>741.5</ele>
        <time>2022-07-20T15:39:41Z</time>
      </trkpt>
      <trkpt lat="47.3675010" lon="6.7908220">
        <ele>741.6</ele>
        <time>2022-07-20T15:39:42Z</time>
      </trkpt>
      <trkpt lat="47.3674880" lon="6.7908720">
        <ele>741.9</ele>
        <time>2022-07-20T15:39:43Z</time>
      </trkpt>
      <trkpt lat="47.3674820" lon="6.7908950">
        <ele>742.0</ele>
        <time>2022-07-20T15:39:45Z</time>
      </trkpt>
      <trkpt lat="47.3674760" lon="6.7909170">
        <ele>742.2</ele>
        <time>2022-07-20T15:39:46Z</time>
      </trkpt>
      <trkpt lat="47.3674700" lon="6.7909400">
        <ele>742.3</ele>
        <time>2022-07-20T15:39:47Z</time>
      </trkpt>
      <trkpt lat="47.3674540" lon="6.7909840">
        <ele>742.6</ele>
        <time>2022-07-20T15:39:49Z</time>
      </trkpt>
      <trkpt lat="47.3674490" lon="6.7909930">
        <ele>742.6</ele>
        <time>2022-07-20T15:39:50Z</time>
      </trkpt>
      <trkpt lat="47.3674440" lon="6.7910060">
        <ele>742.7</ele>
        <time>2022-07-20T15:39:51Z</time>
      </trkpt>
      <trkpt lat="47.3674340" lon="6.7910310">
        <ele>742.9</ele>
        <time>2022-07-20T15:39:52Z</time>
      </trkpt>
      <trkpt lat="47.3674260" lon="6.7910510">
        <ele>743.0</ele>
        <time>2022-07-20T15:39:53Z</time>
      </trkpt>
      <trkpt lat="47.3674210" lon="6.7910810">
        <ele>743.2</ele>
        <time>2022-07-20T15:39:55Z</time>
      </trkpt>
      <trkpt lat="47.3674020" lon="6.7911110">
        <ele>743.4</ele>
        <time>2022-07-20T15:39:56Z</time>
      </trkpt>
      <trkpt lat="47.3673960" lon="6.7911190">
        <ele>743.4</ele>
        <time>2022-07-20T15:39:57Z</time>
      </trkpt>
      <trkpt lat="47.3673930" lon="6.7911420">
        <ele>743.6</ele>
        <time>2022-07-20T15:39:58Z</time>
      </trkpt>
      <trkpt lat="47.3673890" lon="6.7911770">
        <ele>743.7</ele>
        <time>2022-07-20T15:40:00Z</time>
      </trkpt>
      <trkpt lat="47.3673830" lon="6.7912110">
        <ele>744.0</ele>
        <time>2022-07-20T15:40:01Z</time>
      </trkpt>
      <trkpt lat="47.3673810" lon="6.7912220">
        <ele>744.1</ele>
        <time>2022-07-20T15:40:02Z</time>
      </trkpt>
      <trkpt lat="47.3673780" lon="6.7912340">
        <ele>744.2</ele>
        <time>2022-07-20T15:40:03Z</time>
      </trkpt>
      <trkpt lat="47.3673740" lon="6.7912560">
        <ele>744.3</ele>
        <time>2022-07-20T15:40:04Z</time>
      </trkpt>
      <trkpt lat="47.3673690" lon="6.7912790">
        <ele>744.5</ele>
        <time>2022-07-20T15:40:06Z</time>
      </trkpt>
      <trkpt lat="47.3673610" lon="6.7913100">
        <ele>744.7</ele>
        <time>2022-07-20T15:40:07Z</time>
      </trkpt>
      <trkpt lat="47.3673460" lon="6.7913190">
        <ele>744.9</ele>
        <time>2022-07-20T15:40:08Z</time>
      </trkpt>
      <trkpt lat="47.3673300" lon="6.7913370">
        <ele>745.1</ele>
        <time>2022-07-20T15:40:09Z</time>
      </trkpt>
      <trkpt lat="47.3673240" lon="6.7913510">
        <ele>745.2</ele>
        <time>2022-07-20T15:40:11Z</time>
      </trkpt>
      <trkpt lat="47.3673180" lon="6.7913640">
        <ele>745.3</ele>
        <time>2022-07-20T15:40:12Z</time>
      </trkpt>
      <trkpt lat="47.3673140" lon="6.7914150">
        <ele>745.7</ele>
        <time>2022-07-20T15:40:13Z</time>
      </trkpt>
      <trkpt lat="47.3673140" lon="6.7914540">
        <ele>746.0</ele>
        <time>2022-07-20T15:40:14Z</time>
      </trkpt>
      <trkpt lat="47.3673120" lon="6.7915090">
        <ele>746.4</ele>
        <time>2022-07-20T15:40:16Z</time>
      </trkpt>
      <trkpt lat="47.3673040" lon="6.7915570">
        <ele>746.7</ele>
        <time>2022-07-20T15:40:17Z</time>
      </trkpt>
      <trkpt lat="47.3672920" lon="6.7916100">
        <ele>747.1</ele>
        <time>2022-07-20T15:40:18Z</time>
      </trkpt>
      <trkpt lat="47.3672750" lon="6.7916580">
        <ele>747.4</ele>
        <time>2022-07-20T15:40:20Z</time>
      </trkpt>
      <trkpt lat="47.3672580" lon="6.7916930">
        <ele>747.7</ele>
        <time>2022-07-20T15:40:21Z</time>
      </trkpt>
      <trkpt lat="47.3672450" lon="6.7917320">
        <ele>747.9</ele>
        <time>2022-07-20T15:40:22Z</time>
      </trkpt>
      <trkpt lat="47.3672400" lon="6.7917520">
        <ele>748.0</ele>
        <time>2022-07-20T15:40:23Z</time>
      </trkpt>
      <trkpt lat="47.3672290" lon="6.7918100">
        <ele>748.4</ele>
        <time>2022-07-20T15:40:24Z</time>
      </trkpt>
      <trkpt lat="47.3672220" lon="6.7918350">
        <ele>748.5</ele>
        <time>2022-07-20T15:40:25Z</time>
      </trkpt>
      <trkpt lat="47.3672120" lon="6.7918590">
        <ele>748.7</ele>
        <time>2022-07-20T15:40:27Z</time>
      </trkpt>
      <trkpt lat="47.3672050" lon="6.7918760">
        <ele>748.8</ele>
        <time>2022-07-20T15:40:28Z</time>
      </trkpt>
      <trkpt lat="47.3672010" lon="6.7918910">
        <ele>748.9</ele>
        <time>2022-07-20T15:40:29Z</time>
      </trkpt>
      <trkpt lat="47.3671760" lon="6.7919350">
        <ele>749.2</ele>
        <time>2022-07-20T15:40:31Z</time>
      </trkpt>
      <trkpt lat="47.3671550" lon="6.7919850">
        <ele>749.5</ele>
        <time>2022-07-20T15:40:32Z</time>
      </trkpt>
      <trkpt lat="47.3671450" lon="6.7920130">
        <ele>749.6</ele>
        <time>2022-07-20T15:40:33Z</time>
      </trkpt>
      <trkpt lat="47.3671250" lon="6.7920660">
        <ele>749.9</ele>
        <time>2022-07-20T15:40:35Z</time>
      </trkpt>
      <trkpt lat="47.3671190" lon="6.7920840">
        <ele>750.0</ele>
        <time>2022-07-20T15:40:36Z</time>
      </trkpt>
      <trkpt lat="47.3671120" lon="6.7921010">
        <ele>750.1</ele>
        <time>2022-07-20T15:40:37Z</time>
      </trkpt>
      <trkpt lat="47.3670970" lon="6.7921560">
        <ele>750.4</ele>
        <time>2022-07-20T15:40:38Z</time>
      </trkpt>
      <trkpt lat="47.3670920" lon="6.7921740">
        <ele>750.5</ele>
        <time>2022-07-20T15:40:39Z</time>
      </trkpt>
      <trkpt lat="47.3670850" lon="6.7922270">
        <ele>750.7</ele>
        <time>2022-07-20T15:40:41Z</time>
      </trkpt>
      <trkpt lat="47.3670790" lon="6.7922760">
        <ele>750.9</ele>
        <time>2022-07-20T15:40:42Z</time>
      </trkpt>
      <trkpt lat="47.3670750" lon="6.7923330">
        <ele>751.2</ele>
        <time>2022-07-20T15:40:43Z</time>
      </trkpt>
      <trkpt lat="47.3670680" lon="6.7923820">
        <ele>751.4</ele>
        <time>2022-07-20T15:40:44Z</time>
      </trkpt>
      <trkpt lat="47.3670650" lon="6.7923950">
        <ele>751.4</ele>
        <time>2022-07-20T15:40:45Z</time>
      </trkpt>
      <trkpt lat="47.3670560" lon="6.7924440">
        <ele>751.6</ele>
        <time>2022-07-20T15:40:46Z</time>
      </trkpt>
      <trkpt lat="47.3670530" lon="6.7924590">
        <ele>751.7</ele>
        <time>2022-07-20T15:40:47Z</time>
      </trkpt>
      <trkpt lat="47.3670560" lon="6.7925150">
        <ele>751.8</ele>
        <time>2022-07-20T15:40:48Z</time>
      </trkpt>
      <trkpt lat="47.3670580" lon="6.7925360">
        <ele>751.9</ele>
        <time>2022-07-20T15:40:49Z</time>
      </trkpt>
      <trkpt lat="47.3670610" lon="6.7925860">
        <ele>752.1</ele>
        <time>2022-07-20T15:40:50Z</time>
      </trkpt>
      <trkpt lat="47.3670610" lon="6.7926040">
        <ele>752.1</ele>
        <time>2022-07-20T15:40:51Z</time>
      </trkpt>
      <trkpt lat="47.3670580" lon="6.7926490">
        <ele>752.3</ele>
        <time>2022-07-20T15:40:52Z</time>
      </trkpt>
      <trkpt lat="47.3670540" lon="6.7926890">
        <ele>752.4</ele>
        <time>2022-07-20T15:40:53Z</time>
      </trkpt>
      <trkpt lat="47.3670490" lon="6.7927580">
        <ele>752.6</ele>
        <time>2022-07-20T15:40:54Z</time>
      </trkpt>
      <trkpt lat="47.3670470" lon="6.7927910">
        <ele>752.8</ele>
        <time>2022-07-20T15:40:55Z</time>
      </trkpt>
      <trkpt lat="47.3670430" lon="6.7928260">
        <ele>752.9</ele>
        <time>2022-07-20T15:40:56Z</time>
      </trkpt>
      <trkpt lat="47.3670370" lon="6.7928570">
        <ele>753.0</ele>
        <time>2022-07-20T15:40:58Z</time>
      </trkpt>
      <trkpt lat="47.3670250" lon="6.7929050">
        <ele>753.1</ele>
        <time>2022-07-20T15:40:59Z</time>
      </trkpt>
      <trkpt lat="47.3670230" lon="6.7929180">
        <ele>753.1</ele>
        <time>2022-07-20T15:41:00Z</time>
      </trkpt>
      <trkpt lat="47.3670110" lon="6.7929640">
        <ele>753.3</ele>
        <time>2022-07-20T15:41:01Z</time>
      </trkpt>
      <trkpt lat="47.3670010" lon="6.7930320">
        <ele>753.5</ele>
        <time>2022-07-20T15:41:02Z</time>
      </trkpt>
      <trkpt lat="47.3669940" lon="6.7931030">
        <ele>753.7</ele>
        <time>2022-07-20T15:41:03Z</time>
      </trkpt>
      <trkpt lat="47.3669840" lon="6.7931480">
        <ele>753.9</ele>
        <time>2022-07-20T15:41:04Z</time>
      </trkpt>
      <trkpt lat="47.3669700" lon="6.7931880">
        <ele>754.0</ele>
        <time>2022-07-20T15:41:05Z</time>
      </trkpt>
      <trkpt lat="47.3669560" lon="6.7932290">
        <ele>754.1</ele>
        <time>2022-07-20T15:41:07Z</time>
      </trkpt>
      <trkpt lat="47.3669480" lon="6.7932700">
        <ele>754.3</ele>
        <time>2022-07-20T15:41:08Z</time>
      </trkpt>
      <trkpt lat="47.3669400" lon="6.7933110">
        <ele>754.4</ele>
        <time>2022-07-20T15:41:09Z</time>
      </trkpt>
      <trkpt lat="47.3669260" lon="6.7933640">
        <ele>754.5</ele>
        <time>2022-07-20T15:41:10Z</time>
      </trkpt>
      <trkpt lat="47.3669140" lon="6.7934110">
        <ele>754.7</ele>
        <time>2022-07-20T15:41:11Z</time>
      </trkpt>
      <trkpt lat="47.3669020" lon="6.7934470">
        <ele>754.8</ele>
        <time>2022-07-20T15:41:12Z</time>
      </trkpt>
      <trkpt lat="47.3668930" lon="6.7934800">
        <ele>754.9</ele>
        <time>2022-07-20T15:41:13Z</time>
      </trkpt>
      <trkpt lat="47.3668800" lon="6.7935350">
        <ele>755.1</ele>
        <time>2022-07-20T15:41:15Z</time>
      </trkpt>
      <trkpt lat="47.3668740" lon="6.7935830">
        <ele>755.2</ele>
        <time>2022-07-20T15:41:16Z</time>
      </trkpt>
      <trkpt lat="47.3668600" lon="6.7936370">
        <ele>755.4</ele>
        <time>2022-07-20T15:41:17Z</time>
      </trkpt>
      <trkpt lat="47.3668550" lon="6.7936550">
        <ele>755.4</ele>
        <time>2022-07-20T15:41:18Z</time>
      </trkpt>
      <trkpt lat="47.3668220" lon="6.7937490">
        <ele>755.7</ele>
        <time>2022-07-20T15:41:20Z</time>
      </trkpt>
      <trkpt lat="47.3668100" lon="6.7938070">
        <ele>755.9</ele>
        <time>2022-07-20T15:41:22Z</time>
      </trkpt>
      <trkpt lat="47.3668050" lon="6.7938440">
        <ele>756.0</ele>
        <time>2022-07-20T15:41:23Z</time>
      </trkpt>
      <trkpt lat="47.3667980" lon="6.7938910">
        <ele>756.1</ele>
        <time>2022-07-20T15:41:25Z</time>
      </trkpt>
      <trkpt lat="47.3667930" lon="6.7939300">
        <ele>756.2</ele>
        <time>2022-07-20T15:41:26Z</time>
      </trkpt>
      <trkpt lat="47.3667970" lon="6.7939810">
        <ele>756.4</ele>
        <time>2022-07-20T15:41:27Z</time>
      </trkpt>
      <trkpt lat="47.3668000" lon="6.7940020">
        <ele>756.5</ele>
        <time>2022-07-20T15:41:28Z</time>
      </trkpt>
      <trkpt lat="47.3667930" lon="6.7940580">
        <ele>756.6</ele>
        <time>2022-07-20T15:41:30Z</time>
      </trkpt>
      <trkpt lat="47.3667880" lon="6.7940770">
        <ele>756.7</ele>
        <time>2022-07-20T15:41:31Z</time>
      </trkpt>
      <trkpt lat="47.3667710" lon="6.7941180">
        <ele>756.8</ele>
        <time>2022-07-20T15:41:32Z</time>
      </trkpt>
      <trkpt lat="47.3667630" lon="6.7941430">
        <ele>756.9</ele>
        <time>2022-07-20T15:41:33Z</time>
      </trkpt>
      <trkpt lat="47.3667520" lon="6.7941800">
        <ele>757.0</ele>
        <time>2022-07-20T15:41:35Z</time>
      </trkpt>
      <trkpt lat="47.3667510" lon="6.7941910">
        <ele>757.0</ele>
        <time>2022-07-20T15:41:36Z</time>
      </trkpt>
      <trkpt lat="47.3667480" lon="6.7942060">
        <ele>757.1</ele>
        <time>2022-07-20T15:41:37Z</time>
      </trkpt>
      <trkpt lat="47.3667360" lon="6.7942550">
        <ele>757.2</ele>
        <time>2022-07-20T15:41:39Z</time>
      </trkpt>
      <trkpt lat="47.3667310" lon="6.7943000">
        <ele>757.3</ele>
        <time>2022-07-20T15:41:41Z</time>
      </trkpt>
      <trkpt lat="47.3667270" lon="6.7943220">
        <ele>757.4</ele>
        <time>2022-07-20T15:41:42Z</time>
      </trkpt>
      <trkpt lat="47.3667210" lon="6.7943500">
        <ele>757.5</ele>
        <time>2022-07-20T15:41:43Z</time>
      </trkpt>
      <trkpt lat="47.3667080" lon="6.7944020">
        <ele>757.7</ele>
        <time>2022-07-20T15:41:44Z</time>
      </trkpt>
      <trkpt lat="47.3667050" lon="6.7944180">
        <ele>757.7</ele>
        <time>2022-07-20T15:41:45Z</time>
      </trkpt>
      <trkpt lat="47.3666960" lon="6.7944670">
        <ele>757.8</ele>
        <time>2022-07-20T15:41:46Z</time>
      </trkpt>
      <trkpt lat="47.3666930" lon="6.7944830">
        <ele>757.9</ele>
        <time>2022-07-20T15:41:47Z</time>
      </trkpt>
      <trkpt lat="47.3666830" lon="6.7945380">
        <ele>758.1</ele>
        <time>2022-07-20T15:41:48Z</time>
      </trkpt>
      <trkpt lat="47.3666800" lon="6.7945550">
        <ele>758.1</ele>
        <time>2022-07-20T15:41:49Z</time>
      </trkpt>
      <trkpt lat="47.3666700" lon="6.7946040">
        <ele>758.3</ele>
        <time>2022-07-20T15:41:50Z</time>
      </trkpt>
      <trkpt lat="47.3666650" lon="6.7946240">
        <ele>758.3</ele>
        <time>2022-07-20T15:41:51Z</time>
      </trkpt>
      <trkpt lat="47.3666550" lon="6.7946620">
        <ele>758.4</ele>
        <time>2022-07-20T15:41:52Z</time>
      </trkpt>
      <trkpt lat="47.3666430" lon="6.7947020">
        <ele>758.6</ele>
        <time>2022-07-20T15:41:53Z</time>
      </trkpt>
      <trkpt lat="47.3666300" lon="6.7947670">
        <ele>758.8</ele>
        <time>2022-07-20T15:41:54Z</time>
      </trkpt>
      <trkpt lat="47.3666170" lon="6.7948260">
        <ele>759.0</ele>
        <time>2022-07-20T15:41:56Z</time>
      </trkpt>
      <trkpt lat="47.3665850" lon="6.7949120">
        <ele>759.3</ele>
        <time>2022-07-20T15:41:57Z</time>
      </trkpt>
      <trkpt lat="47.3665910" lon="6.7949560">
        <ele>759.4</ele>
        <time>2022-07-20T15:41:58Z</time>
      </trkpt>
      <trkpt lat="47.3665960" lon="6.7949660">
        <ele>759.5</ele>
        <time>2022-07-20T15:41:59Z</time>
      </trkpt>
      <trkpt lat="47.3665750" lon="6.7950150">
        <ele>759.7</ele>
        <time>2022-07-20T15:42:00Z</time>
      </trkpt>
      <trkpt lat="47.3665680" lon="6.7950300">
        <ele>759.7</ele>
        <time>2022-07-20T15:42:01Z</time>
      </trkpt>
      <trkpt lat="47.3665450" lon="6.7950770">
        <ele>760.0</ele>
        <time>2022-07-20T15:42:02Z</time>
      </trkpt>
      <trkpt lat="47.3665360" lon="6.7951000">
        <ele>760.0</ele>
        <time>2022-07-20T15:42:03Z</time>
      </trkpt>
      <trkpt lat="47.3665250" lon="6.7951420">
        <ele>760.2</ele>
        <time>2022-07-20T15:42:04Z</time>
      </trkpt>
      <trkpt lat="47.3665160" lon="6.7951890">
        <ele>760.4</ele>
        <time>2022-07-20T15:42:05Z</time>
      </trkpt>
      <trkpt lat="47.3665200" lon="6.7952280">
        <ele>760.5</ele>
        <time>2022-07-20T15:42:06Z</time>
      </trkpt>
      <trkpt lat="47.3665180" lon="6.7952650">
        <ele>760.7</ele>
        <time>2022-07-20T15:42:08Z</time>
      </trkpt>
      <trkpt lat="47.3665110" lon="6.7953040">
        <ele>760.8</ele>
        <time>2022-07-20T15:42:09Z</time>
      </trkpt>
      <trkpt lat="47.3664990" lon="6.7953530">
        <ele>761.0</ele>
        <time>2022-07-20T15:42:10Z</time>
      </trkpt>
      <trkpt lat="47.3664940" lon="6.7953670">
        <ele>761.0</ele>
        <time>2022-07-20T15:42:11Z</time>
      </trkpt>
      <trkpt lat="47.3664850" lon="6.7953970">
        <ele>761.2</ele>
        <time>2022-07-20T15:42:12Z</time>
      </trkpt>
      <trkpt lat="47.3664660" lon="6.7954490">
        <ele>761.4</ele>
        <time>2022-07-20T15:42:14Z</time>
      </trkpt>
      <trkpt lat="47.3664510" lon="6.7954900">
        <ele>761.5</ele>
        <time>2022-07-20T15:42:15Z</time>
      </trkpt>
      <trkpt lat="47.3664320" lon="6.7955380">
        <ele>761.7</ele>
        <time>2022-07-20T15:42:16Z</time>
      </trkpt>
      <trkpt lat="47.3664250" lon="6.7955550">
        <ele>761.7</ele>
        <time>2022-07-20T15:42:17Z</time>
      </trkpt>
      <trkpt lat="47.3664050" lon="6.7956030">
        <ele>761.9</ele>
        <time>2022-07-20T15:42:18Z</time>
      </trkpt>
      <trkpt lat="47.3663980" lon="6.7956190">
        <ele>761.9</ele>
        <time>2022-07-20T15:42:19Z</time>
      </trkpt>
      <trkpt lat="47.3663800" lon="6.7956600">
        <ele>762.1</ele>
        <time>2022-07-20T15:42:20Z</time>
      </trkpt>
      <trkpt lat="47.3663610" lon="6.7957030">
        <ele>762.2</ele>
        <time>2022-07-20T15:42:22Z</time>
      </trkpt>
      <trkpt lat="47.3663440" lon="6.7957380">
        <ele>762.3</ele>
        <time>2022-07-20T15:42:23Z</time>
      </trkpt>
      <trkpt lat="47.3663250" lon="6.7957730">
        <ele>762.5</ele>
        <time>2022-07-20T15:42:24Z</time>
      </trkpt>
      <trkpt lat="47.3663180" lon="6.7957850">
        <ele>762.5</ele>
        <time>2022-07-20T15:42:25Z</time>
      </trkpt>
      <trkpt lat="47.3662980" lon="6.7958180">
        <ele>762.7</ele>
        <time>2022-07-20T15:42:26Z</time>
      </trkpt>
      <trkpt lat="47.3662920" lon="6.7958290">
        <ele>762.7</ele>
        <time>2022-07-20T15:42:27Z</time>
      </trkpt>
      <trkpt lat="47.3662760" lon="6.7958670">
        <ele>762.8</ele>
        <time>2022-07-20T15:42:29Z</time>
      </trkpt>
      <trkpt lat="47.3662610" lon="6.7959020">
        <ele>763.0</ele>
        <time>2022-07-20T15:42:30Z</time>
      </trkpt>
      <trkpt lat="47.3662370" lon="6.7959360">
        <ele>763.1</ele>
        <time>2022-07-20T15:42:31Z</time>
      </trkpt>
      <trkpt lat="47.3662300" lon="6.7959440">
        <ele>763.1</ele>
        <time>2022-07-20T15:42:32Z</time>
      </trkpt>
      <trkpt lat="47.3662060" lon="6.7959750">
        <ele>763.3</ele>
        <time>2022-07-20T15:42:33Z</time>
      </trkpt>
      <trkpt lat="47.3661880" lon="6.7960040">
        <ele>763.4</ele>
        <time>2022-07-20T15:42:34Z</time>
      </trkpt>
      <trkpt lat="47.3661650" lon="6.7960440">
        <ele>763.5</ele>
        <time>2022-07-20T15:42:35Z</time>
      </trkpt>
      <trkpt lat="47.3661400" lon="6.7960810">
        <ele>763.7</ele>
        <time>2022-07-20T15:42:36Z</time>
      </trkpt>
      <trkpt lat="47.3661220" lon="6.7961160">
        <ele>763.8</ele>
        <time>2022-07-20T15:42:37Z</time>
      </trkpt>
      <trkpt lat="47.3661070" lon="6.7961520">
        <ele>763.9</ele>
        <time>2022-07-20T15:42:39Z</time>
      </trkpt>
      <trkpt lat="47.3660910" lon="6.7962060">
        <ele>764.1</ele>
        <time>2022-07-20T15:42:40Z</time>
      </trkpt>
      <trkpt lat="47.3660820" lon="6.7962440">
        <ele>764.2</ele>
        <time>2022-07-20T15:42:41Z</time>
      </trkpt>
      <trkpt lat="47.3660670" lon="6.7963020">
        <ele>764.3</ele>
        <time>2022-07-20T15:42:42Z</time>
      </trkpt>
      <trkpt lat="47.3660580" lon="6.7963370">
        <ele>764.4</ele>
        <time>2022-07-20T15:42:43Z</time>
      </trkpt>
      <trkpt lat="47.3660460" lon="6.7963850">
        <ele>764.5</ele>
        <time>2022-07-20T15:42:45Z</time>
      </trkpt>
      <trkpt lat="47.3660360" lon="6.7964270">
        <ele>764.7</ele>
        <time>2022-07-20T15:42:46Z</time>
      </trkpt>
      <trkpt lat="47.3660280" lon="6.7964740">
        <ele>764.8</ele>
        <time>2022-07-20T15:42:47Z</time>
      </trkpt>
      <trkpt lat="47.3660250" lon="6.7964890">
        <ele>764.8</ele>
        <time>2022-07-20T15:42:48Z</time>
      </trkpt>
      <trkpt lat="47.3660230" lon="6.7965380">
        <ele>764.9</ele>
        <time>2022-07-20T15:42:49Z</time>
      </trkpt>
      <trkpt lat="47.3660210" lon="6.7965530">
        <ele>765.0</ele>
        <time>2022-07-20T15:42:50Z</time>
      </trkpt>
      <trkpt lat="47.3660060" lon="6.7965950">
        <ele>765.1</ele>
        <time>2022-07-20T15:42:51Z</time>
      </trkpt>
      <trkpt lat="47.3659990" lon="6.7966100">
        <ele>765.1</ele>
        <time>2022-07-20T15:42:52Z</time>
      </trkpt>
      <trkpt lat="47.3659790" lon="6.7966510">
        <ele>765.3</ele>
        <time>2022-07-20T15:42:54Z</time>
      </trkpt>
      <trkpt lat="47.3659590" lon="6.7966920">
        <ele>765.4</ele>
        <time>2022-07-20T15:42:55Z</time>
      </trkpt>
      <trkpt lat="47.3659330" lon="6.7967320">
        <ele>765.6</ele>
        <time>2022-07-20T15:42:56Z</time>
      </trkpt>
      <trkpt lat="47.3659240" lon="6.7967500">
        <ele>765.7</ele>
        <time>2022-07-20T15:42:57Z</time>
      </trkpt>
      <trkpt lat="47.3659030" lon="6.7967810">
        <ele>765.8</ele>
        <time>2022-07-20T15:42:58Z</time>
      </trkpt>
      <trkpt lat="47.3658790" lon="6.7968100">
        <ele>765.9</ele>
        <time>2022-07-20T15:43:00Z</time>
      </trkpt>
      <trkpt lat="47.3658560" lon="6.7968320">
        <ele>766.1</ele>
        <time>2022-07-20T15:43:01Z</time>
      </trkpt>
      <trkpt lat="47.3658210" lon="6.7968660">
        <ele>766.2</ele>
        <time>2022-07-20T15:43:02Z</time>
      </trkpt>
      <trkpt lat="47.3657870" lon="6.7969030">
        <ele>766.4</ele>
        <time>2022-07-20T15:43:03Z</time>
      </trkpt>
      <trkpt lat="47.3657590" lon="6.7969360">
        <ele>766.6</ele>
        <time>2022-07-20T15:43:05Z</time>
      </trkpt>
      <trkpt lat="47.3657320" lon="6.7969700">
        <ele>766.7</ele>
        <time>2022-07-20T15:43:06Z</time>
      </trkpt>
      <trkpt lat="47.3657110" lon="6.7969960">
        <ele>766.8</ele>
        <time>2022-07-20T15:43:07Z</time>
      </trkpt>
      <trkpt lat="47.3656980" lon="6.7970190">
        <ele>766.9</ele>
        <time>2022-07-20T15:43:08Z</time>
      </trkpt>
      <trkpt lat="47.3656750" lon="6.7970650">
        <ele>767.0</ele>
        <time>2022-07-20T15:43:10Z</time>
      </trkpt>
      <trkpt lat="47.3656450" lon="6.7971010">
        <ele>767.1</ele>
        <time>2022-07-20T15:43:11Z</time>
      </trkpt>
      <trkpt lat="47.3656340" lon="6.7971150">
        <ele>767.1</ele>
        <time>2022-07-20T15:43:12Z</time>
      </trkpt>
      <trkpt lat="47.3656050" lon="6.7971500">
        <ele>767.2</ele>
        <time>2022-07-20T15:43:13Z</time>
      </trkpt>
      <trkpt lat="47.3655750" lon="6.7971950">
        <ele>767.3</ele>
        <time>2022-07-20T15:43:14Z</time>
      </trkpt>
      <trkpt lat="47.3655660" lon="6.7972150">
        <ele>767.3</ele>
        <time>2022-07-20T15:43:15Z</time>
      </trkpt>
      <trkpt lat="47.3655570" lon="6.7972380">
        <ele>767.3</ele>
        <time>2022-07-20T15:43:16Z</time>
      </trkpt>
      <trkpt lat="47.3655430" lon="6.7972860">
        <ele>767.4</ele>
        <time>2022-07-20T15:43:18Z</time>
      </trkpt>
      <trkpt lat="47.3655190" lon="6.7973500">
        <ele>767.4</ele>
        <time>2022-07-20T15:43:19Z</time>
      </trkpt>
      <trkpt lat="47.3655130" lon="6.7973870">
        <ele>767.4</ele>
        <time>2022-07-20T15:43:20Z</time>
      </trkpt>
      <trkpt lat="47.3655000" lon="6.7974310">
        <ele>767.4</ele>
        <time>2022-07-20T15:43:22Z</time>
      </trkpt>
      <trkpt lat="47.3654730" lon="6.7974710">
        <ele>767.4</ele>
        <time>2022-07-20T15:43:23Z</time>
      </trkpt>
      <trkpt lat="47.3654620" lon="6.7974870">
        <ele>767.4</ele>
        <time>2022-07-20T15:43:24Z</time>
      </trkpt>
      <trkpt lat="47.3654430" lon="6.7975170">
        <ele>767.5</ele>
        <time>2022-07-20T15:43:25Z</time>
      </trkpt>
      <trkpt lat="47.3654130" lon="6.7975590">
        <ele>767.5</ele>
        <time>2022-07-20T15:43:27Z</time>
      </trkpt>
      <trkpt lat="47.3653950" lon="6.7975900">
        <ele>767.5</ele>
        <time>2022-07-20T15:43:28Z</time>
      </trkpt>
      <trkpt lat="47.3653830" lon="6.7976530">
        <ele>767.5</ele>
        <time>2022-07-20T15:43:29Z</time>
      </trkpt>
      <trkpt lat="47.3653670" lon="6.7977120">
        <ele>767.5</ele>
        <time>2022-07-20T15:43:31Z</time>
      </trkpt>
      <trkpt lat="47.3653460" lon="6.7977620">
        <ele>767.6</ele>
        <time>2022-07-20T15:43:32Z</time>
      </trkpt>
      <trkpt lat="47.3653250" lon="6.7978240">
        <ele>767.6</ele>
        <time>2022-07-20T15:43:33Z</time>
      </trkpt>
      <trkpt lat="47.3653080" lon="6.7978860">
        <ele>767.6</ele>
        <time>2022-07-20T15:43:34Z</time>
      </trkpt>
      <trkpt lat="47.3652900" lon="6.7979610">
        <ele>767.7</ele>
        <time>2022-07-20T15:43:35Z</time>
      </trkpt>
      <trkpt lat="47.3652790" lon="6.7980120">
        <ele>767.7</ele>
        <time>2022-07-20T15:43:36Z</time>
      </trkpt>
      <trkpt lat="47.3652690" lon="6.7981020">
        <ele>767.7</ele>
        <time>2022-07-20T15:43:38Z</time>
      </trkpt>
      <trkpt lat="47.3652590" lon="6.7981780">
        <ele>767.8</ele>
        <time>2022-07-20T15:43:39Z</time>
      </trkpt>
      <trkpt lat="47.3652530" lon="6.7982230">
        <ele>767.8</ele>
        <time>2022-07-20T15:43:40Z</time>
      </trkpt>
      <trkpt lat="47.3652470" lon="6.7982650">
        <ele>767.9</ele>
        <time>2022-07-20T15:43:41Z</time>
      </trkpt>
      <trkpt lat="47.3652400" lon="6.7983240">
        <ele>767.9</ele>
        <time>2022-07-20T15:43:42Z</time>
      </trkpt>
      <trkpt lat="47.3652350" lon="6.7983730">
        <ele>768.0</ele>
        <time>2022-07-20T15:43:43Z</time>
      </trkpt>
      <trkpt lat="47.3652300" lon="6.7984330">
        <ele>768.1</ele>
        <time>2022-07-20T15:43:44Z</time>
      </trkpt>
      <trkpt lat="47.3652220" lon="6.7984850">
        <ele>768.2</ele>
        <time>2022-07-20T15:43:45Z</time>
      </trkpt>
      <trkpt lat="47.3652190" lon="6.7985110">
        <ele>768.2</ele>
        <time>2022-07-20T15:43:46Z</time>
      </trkpt>
      <trkpt lat="47.3652190" lon="6.7985580">
        <ele>768.3</ele>
        <time>2022-07-20T15:43:48Z</time>
      </trkpt>
      <trkpt lat="47.3652210" lon="6.7986100">
        <ele>768.4</ele>
        <time>2022-07-20T15:43:49Z</time>
      </trkpt>
      <trkpt lat="47.3652250" lon="6.7986640">
        <ele>768.5</ele>
        <time>2022-07-20T15:43:50Z</time>
      </trkpt>
      <trkpt lat="47.3652250" lon="6.7987100">
        <ele>768.6</ele>
        <time>2022-07-20T15:43:51Z</time>
      </trkpt>
      <trkpt lat="47.3652270" lon="6.7987660">
        <ele>768.7</ele>
        <time>2022-07-20T15:43:53Z</time>
      </trkpt>
      <trkpt lat="47.3652290" lon="6.7987860">
        <ele>768.8</ele>
        <time>2022-07-20T15:43:54Z</time>
      </trkpt>
      <trkpt lat="47.3652350" lon="6.7988560">
        <ele>768.9</ele>
        <time>2022-07-20T15:43:55Z</time>
      </trkpt>
      <trkpt lat="47.3652360" lon="6.7989180">
        <ele>769.1</ele>
        <time>2022-07-20T15:43:56Z</time>
      </trkpt>
      <trkpt lat="47.3652340" lon="6.7989970">
        <ele>769.3</ele>
        <time>2022-07-20T15:43:58Z</time>
      </trkpt>
      <trkpt lat="47.3652350" lon="6.7990500">
        <ele>769.4</ele>
        <time>2022-07-20T15:43:59Z</time>
      </trkpt>
      <trkpt lat="47.3652410" lon="6.7991280">
        <ele>769.6</ele>
        <time>2022-07-20T15:44:01Z</time>
      </trkpt>
      <trkpt lat="47.3652410" lon="6.7992170">
        <ele>769.9</ele>
        <time>2022-07-20T15:44:02Z</time>
      </trkpt>
      <trkpt lat="47.3652460" lon="6.7992920">
        <ele>770.1</ele>
        <time>2022-07-20T15:44:04Z</time>
      </trkpt>
      <trkpt lat="47.3652500" lon="6.7993480">
        <ele>770.2</ele>
        <time>2022-07-20T15:44:05Z</time>
      </trkpt>
      <trkpt lat="47.3652530" lon="6.7994040">
        <ele>770.4</ele>
        <time>2022-07-20T15:44:06Z</time>
      </trkpt>
      <trkpt lat="47.3652550" lon="6.7994590">
        <ele>770.5</ele>
        <time>2022-07-20T15:44:08Z</time>
      </trkpt>
      <trkpt lat="47.3652560" lon="6.7995180">
        <ele>770.7</ele>
        <time>2022-07-20T15:44:09Z</time>
      </trkpt>
      <trkpt lat="47.3652580" lon="6.7995750">
        <ele>770.8</ele>
        <time>2022-07-20T15:44:10Z</time>
      </trkpt>
      <trkpt lat="47.3652580" lon="6.7995970">
        <ele>770.9</ele>
        <time>2022-07-20T15:44:11Z</time>
      </trkpt>
      <trkpt lat="47.3652580" lon="6.7996410">
        <ele>771.0</ele>
        <time>2022-07-20T15:44:12Z</time>
      </trkpt>
      <trkpt lat="47.3652630" lon="6.7996910">
        <ele>771.2</ele>
        <time>2022-07-20T15:44:13Z</time>
      </trkpt>
      <trkpt lat="47.3652800" lon="6.7997570">
        <ele>771.3</ele>
        <time>2022-07-20T15:44:14Z</time>
      </trkpt>
      <trkpt lat="47.3652920" lon="6.7997980">
        <ele>771.4</ele>
        <time>2022-07-20T15:44:15Z</time>
      </trkpt>
      <trkpt lat="47.3653070" lon="6.7998520">
        <ele>771.6</ele>
        <time>2022-07-20T15:44:17Z</time>
      </trkpt>
      <trkpt lat="47.3653140" lon="6.7999010">
        <ele>771.7</ele>
        <time>2022-07-20T15:44:18Z</time>
      </trkpt>
      <trkpt lat="47.3653160" lon="6.7999660">
        <ele>771.8</ele>
        <time>2022-07-20T15:44:19Z</time>
      </trkpt>
      <trkpt lat="47.3653140" lon="6.7999950">
        <ele>771.8</ele>
        <time>2022-07-20T15:44:20Z</time>
      </trkpt>
      <trkpt lat="47.3653080" lon="6.8000510">
        <ele>771.9</ele>
        <time>2022-07-20T15:44:22Z</time>
      </trkpt>
      <trkpt lat="47.3653030" lon="6.8001070">
        <ele>772.0</ele>
        <time>2022-07-20T15:44:23Z</time>
      </trkpt>
      <trkpt lat="47.3653040" lon="6.8001510">
        <ele>772.1</ele>
        <time>2022-07-20T15:44:24Z</time>
      </trkpt>
      <trkpt lat="47.3653080" lon="6.8002090">
        <ele>772.1</ele>
        <time>2022-07-20T15:44:25Z</time>
      </trkpt>
      <trkpt lat="47.3653110" lon="6.8002640">
        <ele>772.2</ele>
        <time>2022-07-20T15:44:26Z</time>
      </trkpt>
      <trkpt lat="47.3653110" lon="6.8003320">
        <ele>772.2</ele>
        <time>2022-07-20T15:44:28Z</time>
      </trkpt>
      <trkpt lat="47.3653120" lon="6.8003840">
        <ele>772.3</ele>
        <time>2022-07-20T15:44:29Z</time>
      </trkpt>
      <trkpt lat="47.3653130" lon="6.8004890">
        <ele>772.3</ele>
        <time>2022-07-20T15:44:31Z</time>
      </trkpt>
      <trkpt lat="47.3653110" lon="6.8005420">
        <ele>772.3</ele>
        <time>2022-07-20T15:44:32Z</time>
      </trkpt>
      <trkpt lat="47.3653080" lon="6.8005990">
        <ele>772.3</ele>
        <time>2022-07-20T15:44:33Z</time>
      </trkpt>
      <trkpt lat="47.3653060" lon="6.8006530">
        <ele>772.3</ele>
        <time>2022-07-20T15:44:34Z</time>
      </trkpt>
      <trkpt lat="47.3653030" lon="6.8007070">
        <ele>772.3</ele>
        <time>2022-07-20T15:44:35Z</time>
      </trkpt>
      <trkpt lat="47.3652970" lon="6.8007640">
        <ele>772.3</ele>
        <time>2022-07-20T15:44:36Z</time>
      </trkpt>
      <trkpt lat="47.3653000" lon="6.8008190">
        <ele>772.3</ele>
        <time>2022-07-20T15:44:37Z</time>
      </trkpt>
      <trkpt lat="47.3653030" lon="6.8008670">
        <ele>772.3</ele>
        <time>2022-07-20T15:44:38Z</time>
      </trkpt>
      <trkpt lat="47.3653130" lon="6.8009140">
        <ele>772.3</ele>
        <time>2022-07-20T15:44:39Z</time>
      </trkpt>
      <trkpt lat="47.3653140" lon="6.8010170">
        <ele>772.3</ele>
        <time>2022-07-20T15:44:41Z</time>
      </trkpt>
      <trkpt lat="47.3653040" lon="6.8010830">
        <ele>772.3</ele>
        <time>2022-07-20T15:44:43Z</time>
      </trkpt>
      <trkpt lat="47.3652980" lon="6.8011420">
        <ele>772.3</ele>
        <time>2022-07-20T15:44:44Z</time>
      </trkpt>
      <trkpt lat="47.3652960" lon="6.8012250">
        <ele>772.3</ele>
        <time>2022-07-20T15:44:45Z</time>
      </trkpt>
      <trkpt lat="47.3652900" lon="6.8012870">
        <ele>772.3</ele>
        <time>2022-07-20T15:44:47Z</time>
      </trkpt>
      <trkpt lat="47.3652810" lon="6.8013510">
        <ele>772.3</ele>
        <time>2022-07-20T15:44:48Z</time>
      </trkpt>
      <trkpt lat="47.3652670" lon="6.8014880">
        <ele>772.2</ele>
        <time>2022-07-20T15:44:50Z</time>
      </trkpt>
      <trkpt lat="47.3652610" lon="6.8015750">
        <ele>772.2</ele>
        <time>2022-07-20T15:44:51Z</time>
      </trkpt>
      <trkpt lat="47.3652380" lon="6.8017490">
        <ele>772.2</ele>
        <time>2022-07-20T15:44:52Z</time>
      </trkpt>
      <trkpt lat="47.3652360" lon="6.8018230">
        <ele>772.2</ele>
        <time>2022-07-20T15:44:53Z</time>
      </trkpt>
      <trkpt lat="47.3652150" lon="6.8018910">
        <ele>772.2</ele>
        <time>2022-07-20T15:44:54Z</time>
      </trkpt>
      <trkpt lat="47.3652180" lon="6.8019570">
        <ele>772.2</ele>
        <time>2022-07-20T15:44:56Z</time>
      </trkpt>
      <trkpt lat="47.3652360" lon="6.8020330">
        <ele>772.1</ele>
        <time>2022-07-20T15:44:57Z</time>
      </trkpt>
      <trkpt lat="47.3652390" lon="6.8021610">
        <ele>772.1</ele>
        <time>2022-07-20T15:44:58Z</time>
      </trkpt>
      <trkpt lat="47.3652410" lon="6.8022310">
        <ele>772.1</ele>
        <time>2022-07-20T15:44:59Z</time>
      </trkpt>
      <trkpt lat="47.3652340" lon="6.8022860">
        <ele>772.1</ele>
        <time>2022-07-20T15:45:00Z</time>
      </trkpt>
      <trkpt lat="47.3652340" lon="6.8023480">
        <ele>772.1</ele>
        <time>2022-07-20T15:45:01Z</time>
      </trkpt>
      <trkpt lat="47.3652310" lon="6.8024470">
        <ele>772.0</ele>
        <time>2022-07-20T15:45:02Z</time>
      </trkpt>
      <trkpt lat="47.3652240" lon="6.8025410">
        <ele>772.0</ele>
        <time>2022-07-20T15:45:03Z</time>
      </trkpt>
      <trkpt lat="47.3652140" lon="6.8026130">
        <ele>771.9</ele>
        <time>2022-07-20T15:45:04Z</time>
      </trkpt>
      <trkpt lat="47.3651980" lon="6.8027670">
        <ele>771.8</ele>
        <time>2022-07-20T15:45:06Z</time>
      </trkpt>
      <trkpt lat="47.3651730" lon="6.8028420">
        <ele>771.7</ele>
        <time>2022-07-20T15:45:07Z</time>
      </trkpt>
      <trkpt lat="47.3651680" lon="6.8029390">
        <ele>771.6</ele>
        <time>2022-07-20T15:45:09Z</time>
      </trkpt>
      <trkpt lat="47.3651850" lon="6.8030190">
        <ele>771.5</ele>
        <time>2022-07-20T15:45:10Z</time>
      </trkpt>
      <trkpt lat="47.3651960" lon="6.8030910">
        <ele>771.4</ele>
        <time>2022-07-20T15:45:11Z</time>
      </trkpt>
      <trkpt lat="47.3651990" lon="6.8031500">
        <ele>771.4</ele>
        <time>2022-07-20T15:45:12Z</time>
      </trkpt>
      <trkpt lat="47.3652080" lon="6.8032680">
        <ele>771.2</ele>
        <time>2022-07-20T15:45:14Z</time>
      </trkpt>
      <trkpt lat="47.3652430" lon="6.8033950">
        <ele>771.0</ele>
        <time>2022-07-20T15:45:15Z</time>
      </trkpt>
      <trkpt lat="47.3652490" lon="6.8034470">
        <ele>770.9</ele>
        <time>2022-07-20T15:45:16Z</time>
      </trkpt>
      <trkpt lat="47.3652650" lon="6.8035310">
        <ele>770.8</ele>
        <time>2022-07-20T15:45:17Z</time>
      </trkpt>
      <trkpt lat="47.3652650" lon="6.8036100">
        <ele>770.7</ele>
        <time>2022-07-20T15:45:18Z</time>
      </trkpt>
      <trkpt lat="47.3652710" lon="6.8036910">
        <ele>770.6</ele>
        <time>2022-07-20T15:45:19Z</time>
      </trkpt>
      <trkpt lat="47.3652820" lon="6.8037700">
        <ele>770.5</ele>
        <time>2022-07-20T15:45:20Z</time>
      </trkpt>
      <trkpt lat="47.3652950" lon="6.8038460">
        <ele>770.4</ele>
        <time>2022-07-20T15:45:21Z</time>
      </trkpt>
      <trkpt lat="47.3652950" lon="6.8039250">
        <ele>770.3</ele>
        <time>2022-07-20T15:45:22Z</time>
      </trkpt>
      <trkpt lat="47.3652980" lon="6.8039960">
        <ele>770.2</ele>
        <time>2022-07-20T15:45:23Z</time>
      </trkpt>
      <trkpt lat="47.3652970" lon="6.8040790">
        <ele>770.1</ele>
        <time>2022-07-20T15:45:24Z</time>
      </trkpt>
      <trkpt lat="47.3652980" lon="6.8041570">
        <ele>770.0</ele>
        <time>2022-07-20T15:45:25Z</time>
      </trkpt>
      <trkpt lat="47.3653010" lon="6.8042090">
        <ele>769.9</ele>
        <time>2022-07-20T15:45:26Z</time>
      </trkpt>
      <trkpt lat="47.3653060" lon="6.8042930">
        <ele>769.9</ele>
        <time>2022-07-20T15:45:27Z</time>
      </trkpt>
      <trkpt lat="47.3653050" lon="6.8043800">
        <ele>769.8</ele>
        <time>2022-07-20T15:45:28Z</time>
      </trkpt>
      <trkpt lat="47.3653020" lon="6.8044670">
        <ele>769.7</ele>
        <time>2022-07-20T15:45:29Z</time>
      </trkpt>
      <trkpt lat="47.3652940" lon="6.8045520">
        <ele>769.6</ele>
        <time>2022-07-20T15:45:30Z</time>
      </trkpt>
      <trkpt lat="47.3652910" lon="6.8046290">
        <ele>769.5</ele>
        <time>2022-07-20T15:45:31Z</time>
      </trkpt>
      <trkpt lat="47.3652890" lon="6.8047050">
        <ele>769.4</ele>
        <time>2022-07-20T15:45:32Z</time>
      </trkpt>
      <trkpt lat="47.3652900" lon="6.8047770">
        <ele>769.4</ele>
        <time>2022-07-20T15:45:33Z</time>
      </trkpt>
      <trkpt lat="47.3652980" lon="6.8048540">
        <ele>769.3</ele>
        <time>2022-07-20T15:45:34Z</time>
      </trkpt>
      <trkpt lat="47.3653050" lon="6.8049250">
        <ele>769.3</ele>
        <time>2022-07-20T15:45:35Z</time>
      </trkpt>
      <trkpt lat="47.3653110" lon="6.8050020">
        <ele>769.2</ele>
        <time>2022-07-20T15:45:36Z</time>
      </trkpt>
      <trkpt lat="47.3653060" lon="6.8050760">
        <ele>769.2</ele>
        <time>2022-07-20T15:45:37Z</time>
      </trkpt>
      <trkpt lat="47.3653000" lon="6.8051540">
        <ele>769.1</ele>
        <time>2022-07-20T15:45:38Z</time>
      </trkpt>
      <trkpt lat="47.3652850" lon="6.8052240">
        <ele>769.0</ele>
        <time>2022-07-20T15:45:39Z</time>
      </trkpt>
      <trkpt lat="47.3652720" lon="6.8052670">
        <ele>769.0</ele>
        <time>2022-07-20T15:45:40Z</time>
      </trkpt>
      <trkpt lat="47.3652670" lon="6.8053370">
        <ele>769.0</ele>
        <time>2022-07-20T15:45:41Z</time>
      </trkpt>
      <trkpt lat="47.3652680" lon="6.8053940">
        <ele>769.0</ele>
        <time>2022-07-20T15:45:42Z</time>
      </trkpt>
      <trkpt lat="47.3652720" lon="6.8054780">
        <ele>768.9</ele>
        <time>2022-07-20T15:45:43Z</time>
      </trkpt>
      <trkpt lat="47.3652670" lon="6.8055540">
        <ele>768.9</ele>
        <time>2022-07-20T15:45:44Z</time>
      </trkpt>
      <trkpt lat="47.3652660" lon="6.8056170">
        <ele>768.8</ele>
        <time>2022-07-20T15:45:45Z</time>
      </trkpt>
      <trkpt lat="47.3652670" lon="6.8056820">
        <ele>768.8</ele>
        <time>2022-07-20T15:45:46Z</time>
      </trkpt>
      <trkpt lat="47.3652730" lon="6.8057520">
        <ele>768.8</ele>
        <time>2022-07-20T15:45:47Z</time>
      </trkpt>
      <trkpt lat="47.3652700" lon="6.8058160">
        <ele>768.7</ele>
        <time>2022-07-20T15:45:48Z</time>
      </trkpt>
      <trkpt lat="47.3652770" lon="6.8059100">
        <ele>768.7</ele>
        <time>2022-07-20T15:45:49Z</time>
      </trkpt>
      <trkpt lat="47.3652720" lon="6.8059780">
        <ele>768.7</ele>
        <time>2022-07-20T15:45:50Z</time>
      </trkpt>
      <trkpt lat="47.3652860" lon="6.8060650">
        <ele>768.6</ele>
        <time>2022-07-20T15:45:51Z</time>
      </trkpt>
      <trkpt lat="47.3652890" lon="6.8061400">
        <ele>768.6</ele>
        <time>2022-07-20T15:45:52Z</time>
      </trkpt>
      <trkpt lat="47.3652870" lon="6.8062070">
        <ele>768.5</ele>
        <time>2022-07-20T15:45:53Z</time>
      </trkpt>
      <trkpt lat="47.3652870" lon="6.8062700">
        <ele>768.5</ele>
        <time>2022-07-20T15:45:54Z</time>
      </trkpt>
      <trkpt lat="47.3652830" lon="6.8063510">
        <ele>768.4</ele>
        <time>2022-07-20T15:45:55Z</time>
      </trkpt>
      <trkpt lat="47.3652810" lon="6.8064210">
        <ele>768.4</ele>
        <time>2022-07-20T15:45:56Z</time>
      </trkpt>
      <trkpt lat="47.3652950" lon="6.8064910">
        <ele>768.4</ele>
        <time>2022-07-20T15:45:57Z</time>
      </trkpt>
      <trkpt lat="47.3653020" lon="6.8065560">
        <ele>768.3</ele>
        <time>2022-07-20T15:45:58Z</time>
      </trkpt>
      <trkpt lat="47.3652930" lon="6.8066330">
        <ele>768.3</ele>
        <time>2022-07-20T15:45:59Z</time>
      </trkpt>
      <trkpt lat="47.3652930" lon="6.8067100">
        <ele>768.3</ele>
        <time>2022-07-20T15:46:00Z</time>
      </trkpt>
      <trkpt lat="47.3652980" lon="6.8067850">
        <ele>768.2</ele>
        <time>2022-07-20T15:46:01Z</time>
      </trkpt>
      <trkpt lat="47.3652920" lon="6.8068540">
        <ele>768.2</ele>
        <time>2022-07-20T15:46:02Z</time>
      </trkpt>
      <trkpt lat="47.3652920" lon="6.8069220">
        <ele>768.1</ele>
        <time>2022-07-20T15:46:03Z</time>
      </trkpt>
      <trkpt lat="47.3652770" lon="6.8069970">
        <ele>768.1</ele>
        <time>2022-07-20T15:46:04Z</time>
      </trkpt>
      <trkpt lat="47.3652710" lon="6.8070530">
        <ele>768.0</ele>
        <time>2022-07-20T15:46:05Z</time>
      </trkpt>
      <trkpt lat="47.3652700" lon="6.8071150">
        <ele>768.0</ele>
        <time>2022-07-20T15:46:06Z</time>
      </trkpt>
      <trkpt lat="47.3652720" lon="6.8071770">
        <ele>768.0</ele>
        <time>2022-07-20T15:46:08Z</time>
      </trkpt>
      <trkpt lat="47.3652660" lon="6.8072490">
        <ele>767.9</ele>
        <time>2022-07-20T15:46:09Z</time>
      </trkpt>
      <trkpt lat="47.3652530" lon="6.8073570">
        <ele>767.9</ele>
        <time>2022-07-20T15:46:11Z</time>
      </trkpt>
      <trkpt lat="47.3652310" lon="6.8074290">
        <ele>767.9</ele>
        <time>2022-07-20T15:46:12Z</time>
      </trkpt>
      <trkpt lat="47.3652290" lon="6.8075030">
        <ele>767.8</ele>
        <time>2022-07-20T15:46:13Z</time>
      </trkpt>
      <trkpt lat="47.3652320" lon="6.8075790">
        <ele>767.8</ele>
        <time>2022-07-20T15:46:14Z</time>
      </trkpt>
      <trkpt lat="47.3652380" lon="6.8076510">
        <ele>767.8</ele>
        <time>2022-07-20T15:46:15Z</time>
      </trkpt>
      <trkpt lat="47.3652130" lon="6.8077110">
        <ele>767.7</ele>
        <time>2022-07-20T15:46:16Z</time>
      </trkpt>
      <trkpt lat="47.3652130" lon="6.8077600">
        <ele>767.7</ele>
        <time>2022-07-20T15:46:17Z</time>
      </trkpt>
      <trkpt lat="47.3651840" lon="6.8078480">
        <ele>767.7</ele>
        <time>2022-07-20T15:46:18Z</time>
      </trkpt>
      <trkpt lat="47.3651720" lon="6.8079340">
        <ele>767.7</ele>
        <time>2022-07-20T15:46:19Z</time>
      </trkpt>
      <trkpt lat="47.3651730" lon="6.8080040">
        <ele>767.7</ele>
        <time>2022-07-20T15:46:20Z</time>
      </trkpt>
      <trkpt lat="47.3651630" lon="6.8080640">
        <ele>767.7</ele>
        <time>2022-07-20T15:46:21Z</time>
      </trkpt>
      <trkpt lat="47.3651590" lon="6.8080920">
        <ele>767.7</ele>
        <time>2022-07-20T15:46:22Z</time>
      </trkpt>
      <trkpt lat="47.3651500" lon="6.8081780">
        <ele>767.7</ele>
        <time>2022-07-20T15:46:23Z</time>
      </trkpt>
      <trkpt lat="47.3651500" lon="6.8082610">
        <ele>767.7</ele>
        <time>2022-07-20T15:46:25Z</time>
      </trkpt>
      <trkpt lat="47.3651580" lon="6.8083380">
        <ele>767.7</ele>
        <time>2022-07-20T15:46:26Z</time>
      </trkpt>
      <trkpt lat="47.3651450" lon="6.8084220">
        <ele>767.7</ele>
        <time>2022-07-20T15:46:27Z</time>
      </trkpt>
      <trkpt lat="47.3651460" lon="6.8084910">
        <ele>767.7</ele>
        <time>2022-07-20T15:46:28Z</time>
      </trkpt>
      <trkpt lat="47.3651390" lon="6.8085400">
        <ele>767.7</ele>
        <time>2022-07-20T15:46:29Z</time>
      </trkpt>
      <trkpt lat="47.3651260" lon="6.8086090">
        <ele>767.7</ele>
        <time>2022-07-20T15:46:30Z</time>
      </trkpt>
      <trkpt lat="47.3651430" lon="6.8086840">
        <ele>767.7</ele>
        <time>2022-07-20T15:46:31Z</time>
      </trkpt>
      <trkpt lat="47.3651570" lon="6.8087590">
        <ele>767.7</ele>
        <time>2022-07-20T15:46:33Z</time>
      </trkpt>
      <trkpt lat="47.3651620" lon="6.8088790">
        <ele>767.7</ele>
        <time>2022-07-20T15:46:34Z</time>
      </trkpt>
      <trkpt lat="47.3651590" lon="6.8089250">
        <ele>767.7</ele>
        <time>2022-07-20T15:46:35Z</time>
      </trkpt>
      <trkpt lat="47.3651420" lon="6.8089670">
        <ele>767.6</ele>
        <time>2022-07-20T15:46:36Z</time>
      </trkpt>
      <trkpt lat="47.3651620" lon="6.8090630">
        <ele>767.5</ele>
        <time>2022-07-20T15:46:37Z</time>
      </trkpt>
      <trkpt lat="47.3651540" lon="6.8091250">
        <ele>767.5</ele>
        <time>2022-07-20T15:46:38Z</time>
      </trkpt>
      <trkpt lat="47.3651710" lon="6.8092590">
        <ele>767.4</ele>
        <time>2022-07-20T15:46:40Z</time>
      </trkpt>
      <trkpt lat="47.3651820" lon="6.8093150">
        <ele>767.3</ele>
        <time>2022-07-20T15:46:41Z</time>
      </trkpt>
      <trkpt lat="47.3652000" lon="6.8094410">
        <ele>767.2</ele>
        <time>2022-07-20T15:46:42Z</time>
      </trkpt>
      <trkpt lat="47.3652030" lon="6.8095240">
        <ele>767.2</ele>
        <time>2022-07-20T15:46:43Z</time>
      </trkpt>
      <trkpt lat="47.3652110" lon="6.8095960">
        <ele>767.2</ele>
        <time>2022-07-20T15:46:44Z</time>
      </trkpt>
      <trkpt lat="47.3652140" lon="6.8096740">
        <ele>767.2</ele>
        <time>2022-07-20T15:46:45Z</time>
      </trkpt>
      <trkpt lat="47.3652160" lon="6.8097500">
        <ele>767.2</ele>
        <time>2022-07-20T15:46:46Z</time>
      </trkpt>
      <trkpt lat="47.3652090" lon="6.8098270">
        <ele>767.2</ele>
        <time>2022-07-20T15:46:47Z</time>
      </trkpt>
      <trkpt lat="47.3652030" lon="6.8098970">
        <ele>767.2</ele>
        <time>2022-07-20T15:46:48Z</time>
      </trkpt>
      <trkpt lat="47.3652010" lon="6.8099340">
        <ele>767.2</ele>
        <time>2022-07-20T15:46:49Z</time>
      </trkpt>
      <trkpt lat="47.3651930" lon="6.8100280">
        <ele>767.2</ele>
        <time>2022-07-20T15:46:51Z</time>
      </trkpt>
      <trkpt lat="47.3651810" lon="6.8101080">
        <ele>767.2</ele>
        <time>2022-07-20T15:46:52Z</time>
      </trkpt>
      <trkpt lat="47.3651790" lon="6.8101890">
        <ele>767.2</ele>
        <time>2022-07-20T15:46:53Z</time>
      </trkpt>
      <trkpt lat="47.3651790" lon="6.8102770">
        <ele>767.2</ele>
        <time>2022-07-20T15:46:54Z</time>
      </trkpt>
      <trkpt lat="47.3651640" lon="6.8103770">
        <ele>767.2</ele>
        <time>2022-07-20T15:46:55Z</time>
      </trkpt>
      <trkpt lat="47.3651620" lon="6.8104440">
        <ele>767.1</ele>
        <time>2022-07-20T15:46:56Z</time>
      </trkpt>
      <trkpt lat="47.3651600" lon="6.8105000">
        <ele>767.1</ele>
        <time>2022-07-20T15:46:57Z</time>
      </trkpt>
      <trkpt lat="47.3651790" lon="6.8105500">
        <ele>767.1</ele>
        <time>2022-07-20T15:46:58Z</time>
      </trkpt>
      <trkpt lat="47.3651590" lon="6.8106840">
        <ele>767.1</ele>
        <time>2022-07-20T15:47:00Z</time>
      </trkpt>
      <trkpt lat="47.3651390" lon="6.8107530">
        <ele>767.1</ele>
        <time>2022-07-20T15:47:01Z</time>
      </trkpt>
      <trkpt lat="47.3651250" lon="6.8108330">
        <ele>767.1</ele>
        <time>2022-07-20T15:47:02Z</time>
      </trkpt>
      <trkpt lat="47.3650990" lon="6.8109010">
        <ele>767.1</ele>
        <time>2022-07-20T15:47:03Z</time>
      </trkpt>
      <trkpt lat="47.3650670" lon="6.8109800">
        <ele>767.2</ele>
        <time>2022-07-20T15:47:05Z</time>
      </trkpt>
      <trkpt lat="47.3650390" lon="6.8110460">
        <ele>767.2</ele>
        <time>2022-07-20T15:47:06Z</time>
      </trkpt>
      <trkpt lat="47.3650200" lon="6.8111000">
        <ele>767.3</ele>
        <time>2022-07-20T15:47:07Z</time>
      </trkpt>
      <trkpt lat="47.3650060" lon="6.8111760">
        <ele>767.4</ele>
        <time>2022-07-20T15:47:08Z</time>
      </trkpt>
      <trkpt lat="47.3649950" lon="6.8112380">
        <ele>767.5</ele>
        <time>2022-07-20T15:47:09Z</time>
      </trkpt>
      <trkpt lat="47.3650100" lon="6.8112950">
        <ele>767.6</ele>
        <time>2022-07-20T15:47:11Z</time>
      </trkpt>
      <trkpt lat="47.3649850" lon="6.8113710">
        <ele>767.7</ele>
        <time>2022-07-20T15:47:12Z</time>
      </trkpt>
      <trkpt lat="47.3649560" lon="6.8114270">
        <ele>767.8</ele>
        <time>2022-07-20T15:47:13Z</time>
      </trkpt>
      <trkpt lat="47.3649330" lon="6.8114810">
        <ele>767.9</ele>
        <time>2022-07-20T15:47:14Z</time>
      </trkpt>
      <trkpt lat="47.3649130" lon="6.8115340">
        <ele>767.9</ele>
        <time>2022-07-20T15:47:15Z</time>
      </trkpt>
      <trkpt lat="47.3648960" lon="6.8115940">
        <ele>768.0</ele>
        <time>2022-07-20T15:47:16Z</time>
      </trkpt>
      <trkpt lat="47.3648870" lon="6.8116470">
        <ele>768.1</ele>
        <time>2022-07-20T15:47:17Z</time>
      </trkpt>
      <trkpt lat="47.3648710" lon="6.8116960">
        <ele>768.2</ele>
        <time>2022-07-20T15:47:18Z</time>
      </trkpt>
      <trkpt lat="47.3648320" lon="6.8117450">
        <ele>768.3</ele>
        <time>2022-07-20T15:47:20Z</time>
      </trkpt>
      <trkpt lat="47.3648030" lon="6.8117970">
        <ele>768.4</ele>
        <time>2022-07-20T15:47:21Z</time>
      </trkpt>
      <trkpt lat="47.3647840" lon="6.8118470">
        <ele>768.5</ele>
        <time>2022-07-20T15:47:22Z</time>
      </trkpt>
      <trkpt lat="47.3647740" lon="6.8118970">
        <ele>768.6</ele>
        <time>2022-07-20T15:47:23Z</time>
      </trkpt>
      <trkpt lat="47.3647670" lon="6.8119540">
        <ele>768.7</ele>
        <time>2022-07-20T15:47:25Z</time>
      </trkpt>
      <trkpt lat="47.3647540" lon="6.8120080">
        <ele>768.8</ele>
        <time>2022-07-20T15:47:26Z</time>
      </trkpt>
      <trkpt lat="47.3647410" lon="6.8120520">
        <ele>768.9</ele>
        <time>2022-07-20T15:47:27Z</time>
      </trkpt>
      <trkpt lat="47.3647280" lon="6.8120960">
        <ele>769.0</ele>
        <time>2022-07-20T15:47:28Z</time>
      </trkpt>
      <trkpt lat="47.3647160" lon="6.8121420">
        <ele>769.1</ele>
        <time>2022-07-20T15:47:29Z</time>
      </trkpt>
      <trkpt lat="47.3646930" lon="6.8122140">
        <ele>769.3</ele>
        <time>2022-07-20T15:47:30Z</time>
      </trkpt>
      <trkpt lat="47.3646730" lon="6.8122570">
        <ele>769.4</ele>
        <time>2022-07-20T15:47:32Z</time>
      </trkpt>
      <trkpt lat="47.3646530" lon="6.8123040">
        <ele>769.5</ele>
        <time>2022-07-20T15:47:33Z</time>
      </trkpt>
      <trkpt lat="47.3646320" lon="6.8123550">
        <ele>769.6</ele>
        <time>2022-07-20T15:47:34Z</time>
      </trkpt>
      <trkpt lat="47.3646220" lon="6.8123770">
        <ele>769.7</ele>
        <time>2022-07-20T15:47:35Z</time>
      </trkpt>
      <trkpt lat="47.3646080" lon="6.8124110">
        <ele>769.8</ele>
        <time>2022-07-20T15:47:36Z</time>
      </trkpt>
      <trkpt lat="47.3645930" lon="6.8124520">
        <ele>769.9</ele>
        <time>2022-07-20T15:47:37Z</time>
      </trkpt>
      <trkpt lat="47.3645820" lon="6.8124900">
        <ele>770.0</ele>
        <time>2022-07-20T15:47:39Z</time>
      </trkpt>
      <trkpt lat="47.3645660" lon="6.8125360">
        <ele>770.1</ele>
        <time>2022-07-20T15:47:40Z</time>
      </trkpt>
      <trkpt lat="47.3645450" lon="6.8125800">
        <ele>770.2</ele>
        <time>2022-07-20T15:47:41Z</time>
      </trkpt>
      <trkpt lat="47.3645260" lon="6.8126140">
        <ele>770.3</ele>
        <time>2022-07-20T15:47:42Z</time>
      </trkpt>
      <trkpt lat="47.3645000" lon="6.8126580">
        <ele>770.5</ele>
        <time>2022-07-20T15:47:43Z</time>
      </trkpt>
      <trkpt lat="47.3644910" lon="6.8126730">
        <ele>770.5</ele>
        <time>2022-07-20T15:47:44Z</time>
      </trkpt>
      <trkpt lat="47.3644730" lon="6.8127070">
        <ele>770.6</ele>
        <time>2022-07-20T15:47:45Z</time>
      </trkpt>
      <trkpt lat="47.3644680" lon="6.8127160">
        <ele>770.6</ele>
        <time>2022-07-20T15:47:46Z</time>
      </trkpt>
      <trkpt lat="47.3644520" lon="6.8127520">
        <ele>770.7</ele>
        <time>2022-07-20T15:47:47Z</time>
      </trkpt>
      <trkpt lat="47.3644480" lon="6.8127630">
        <ele>770.8</ele>
        <time>2022-07-20T15:47:48Z</time>
      </trkpt>
      <trkpt lat="47.3644340" lon="6.8128030">
        <ele>770.8</ele>
        <time>2022-07-20T15:47:49Z</time>
      </trkpt>
      <trkpt lat="47.3644310" lon="6.8128170">
        <ele>770.9</ele>
        <time>2022-07-20T15:47:50Z</time>
      </trkpt>
      <trkpt lat="47.3644220" lon="6.8128510">
        <ele>770.9</ele>
        <time>2022-07-20T15:47:51Z</time>
      </trkpt>
      <trkpt lat="47.3643930" lon="6.8129250">
        <ele>771.1</ele>
        <time>2022-07-20T15:47:53Z</time>
      </trkpt>
      <trkpt lat="47.3643700" lon="6.8129790">
        <ele>771.2</ele>
        <time>2022-07-20T15:47:55Z</time>
      </trkpt>
      <trkpt lat="47.3643530" lon="6.8130120">
        <ele>771.3</ele>
        <time>2022-07-20T15:47:56Z</time>
      </trkpt>
      <trkpt lat="47.3643300" lon="6.8130530">
        <ele>771.4</ele>
        <time>2022-07-20T15:47:57Z</time>
      </trkpt>
      <trkpt lat="47.3643240" lon="6.8130660">
        <ele>771.4</ele>
        <time>2022-07-20T15:47:58Z</time>
      </trkpt>
      <trkpt lat="47.3643070" lon="6.8131010">
        <ele>771.5</ele>
        <time>2022-07-20T15:47:59Z</time>
      </trkpt>
      <trkpt lat="47.3642930" lon="6.8131370">
        <ele>771.6</ele>
        <time>2022-07-20T15:48:00Z</time>
      </trkpt>
      <trkpt lat="47.3642790" lon="6.8131830">
        <ele>771.7</ele>
        <time>2022-07-20T15:48:01Z</time>
      </trkpt>
      <trkpt lat="47.3642740" lon="6.8131990">
        <ele>771.7</ele>
        <time>2022-07-20T15:48:02Z</time>
      </trkpt>
      <trkpt lat="47.3642590" lon="6.8132510">
        <ele>771.8</ele>
        <time>2022-07-20T15:48:04Z</time>
      </trkpt>
      <trkpt lat="47.3642500" lon="6.8132910">
        <ele>771.9</ele>
        <time>2022-07-20T15:48:05Z</time>
      </trkpt>
      <trkpt lat="47.3642360" lon="6.8133390">
        <ele>772.0</ele>
        <time>2022-07-20T15:48:06Z</time>
      </trkpt>
      <trkpt lat="47.3642300" lon="6.8133550">
        <ele>772.0</ele>
        <time>2022-07-20T15:48:07Z</time>
      </trkpt>
      <trkpt lat="47.3642150" lon="6.8133950">
        <ele>772.1</ele>
        <time>2022-07-20T15:48:08Z</time>
      </trkpt>
      <trkpt lat="47.3642010" lon="6.8134370">
        <ele>772.2</ele>
        <time>2022-07-20T15:48:09Z</time>
      </trkpt>
      <trkpt lat="47.3641900" lon="6.8134740">
        <ele>772.3</ele>
        <time>2022-07-20T15:48:10Z</time>
      </trkpt>
      <trkpt lat="47.3641780" lon="6.8135310">
        <ele>772.5</ele>
        <time>2022-07-20T15:48:11Z</time>
      </trkpt>
      <trkpt lat="47.3641730" lon="6.8135540">
        <ele>772.5</ele>
        <time>2022-07-20T15:48:12Z</time>
      </trkpt>
      <trkpt lat="47.3641600" lon="6.8136030">
        <ele>772.6</ele>
        <time>2022-07-20T15:48:14Z</time>
      </trkpt>
      <trkpt lat="47.3641420" lon="6.8136520">
        <ele>772.8</ele>
        <time>2022-07-20T15:48:15Z</time>
      </trkpt>
      <trkpt lat="47.3641190" lon="6.8137010">
        <ele>772.9</ele>
        <time>2022-07-20T15:48:16Z</time>
      </trkpt>
      <trkpt lat="47.3641010" lon="6.8137390">
        <ele>773.0</ele>
        <time>2022-07-20T15:48:17Z</time>
      </trkpt>
      <trkpt lat="47.3640880" lon="6.8138110">
        <ele>773.2</ele>
        <time>2022-07-20T15:48:18Z</time>
      </trkpt>
      <trkpt lat="47.3640840" lon="6.8138460">
        <ele>773.3</ele>
        <time>2022-07-20T15:48:19Z</time>
      </trkpt>
      <trkpt lat="47.3640740" lon="6.8139000">
        <ele>773.4</ele>
        <time>2022-07-20T15:48:21Z</time>
      </trkpt>
      <trkpt lat="47.3640630" lon="6.8139490">
        <ele>773.5</ele>
        <time>2022-07-20T15:48:22Z</time>
      </trkpt>
      <trkpt lat="47.3640540" lon="6.8140010">
        <ele>773.7</ele>
        <time>2022-07-20T15:48:23Z</time>
      </trkpt>
      <trkpt lat="47.3640520" lon="6.8140160">
        <ele>773.7</ele>
        <time>2022-07-20T15:48:24Z</time>
      </trkpt>
      <trkpt lat="47.3640420" lon="6.8140660">
        <ele>773.9</ele>
        <time>2022-07-20T15:48:25Z</time>
      </trkpt>
      <trkpt lat="47.3640380" lon="6.8140820">
        <ele>773.9</ele>
        <time>2022-07-20T15:48:26Z</time>
      </trkpt>
      <trkpt lat="47.3640250" lon="6.8141230">
        <ele>774.1</ele>
        <time>2022-07-20T15:48:27Z</time>
      </trkpt>
      <trkpt lat="47.3640180" lon="6.8141390">
        <ele>774.1</ele>
        <time>2022-07-20T15:48:28Z</time>
      </trkpt>
      <trkpt lat="47.3640010" lon="6.8141780">
        <ele>774.2</ele>
        <time>2022-07-20T15:48:30Z</time>
      </trkpt>
      <trkpt lat="47.3639970" lon="6.8141930">
        <ele>774.3</ele>
        <time>2022-07-20T15:48:31Z</time>
      </trkpt>
      <trkpt lat="47.3639910" lon="6.8142430">
        <ele>774.4</ele>
        <time>2022-07-20T15:48:32Z</time>
      </trkpt>
      <trkpt lat="47.3639880" lon="6.8142690">
        <ele>774.5</ele>
        <time>2022-07-20T15:48:33Z</time>
      </trkpt>
      <trkpt lat="47.3639790" lon="6.8143020">
        <ele>774.6</ele>
        <time>2022-07-20T15:48:34Z</time>
      </trkpt>
      <trkpt lat="47.3639700" lon="6.8143410">
        <ele>774.7</ele>
        <time>2022-07-20T15:48:36Z</time>
      </trkpt>
      <trkpt lat="47.3639640" lon="6.8143810">
        <ele>774.8</ele>
        <time>2022-07-20T15:48:37Z</time>
      </trkpt>
      <trkpt lat="47.3639560" lon="6.8144120">
        <ele>774.9</ele>
        <time>2022-07-20T15:48:38Z</time>
      </trkpt>
      <trkpt lat="47.3639330" lon="6.8144840">
        <ele>775.1</ele>
        <time>2022-07-20T15:48:40Z</time>
      </trkpt>
      <trkpt lat="47.3639160" lon="6.8145360">
        <ele>775.3</ele>
        <time>2022-07-20T15:48:41Z</time>
      </trkpt>
      <trkpt lat="47.3639100" lon="6.8145550">
        <ele>775.3</ele>
        <time>2022-07-20T15:48:42Z</time>
      </trkpt>
      <trkpt lat="47.3638910" lon="6.8146200">
        <ele>775.5</ele>
        <time>2022-07-20T15:48:44Z</time>
      </trkpt>
      <trkpt lat="47.3638750" lon="6.8146710">
        <ele>775.7</ele>
        <time>2022-07-20T15:48:45Z</time>
      </trkpt>
      <trkpt lat="47.3638600" lon="6.8147190">
        <ele>775.8</ele>
        <time>2022-07-20T15:48:46Z</time>
      </trkpt>
      <trkpt lat="47.3638310" lon="6.8147940">
        <ele>776.1</ele>
        <time>2022-07-20T15:48:48Z</time>
      </trkpt>
      <trkpt lat="47.3638090" lon="6.8148350">
        <ele>776.2</ele>
        <time>2022-07-20T15:48:49Z</time>
      </trkpt>
      <trkpt lat="47.3637890" lon="6.8148730">
        <ele>776.3</ele>
        <time>2022-07-20T15:48:50Z</time>
      </trkpt>
      <trkpt lat="47.3637740" lon="6.8149080">
        <ele>776.5</ele>
        <time>2022-07-20T15:48:51Z</time>
      </trkpt>
      <trkpt lat="47.3637600" lon="6.8149580">
        <ele>776.6</ele>
        <time>2022-07-20T15:48:52Z</time>
      </trkpt>
      <trkpt lat="47.3637550" lon="6.8149760">
        <ele>776.7</ele>
        <time>2022-07-20T15:48:53Z</time>
      </trkpt>
      <trkpt lat="47.3637420" lon="6.8150260">
        <ele>776.8</ele>
        <time>2022-07-20T15:48:54Z</time>
      </trkpt>
      <trkpt lat="47.3637270" lon="6.8150770">
        <ele>777.0</ele>
        <time>2022-07-20T15:48:55Z</time>
      </trkpt>
      <trkpt lat="47.3637210" lon="6.8150960">
        <ele>777.0</ele>
        <time>2022-07-20T15:48:56Z</time>
      </trkpt>
      <trkpt lat="47.3637060" lon="6.8151330">
        <ele>777.2</ele>
        <time>2022-07-20T15:48:57Z</time>
      </trkpt>
      <trkpt lat="47.3636900" lon="6.8151760">
        <ele>777.3</ele>
        <time>2022-07-20T15:48:59Z</time>
      </trkpt>
      <trkpt lat="47.3636740" lon="6.8152240">
        <ele>777.5</ele>
        <time>2022-07-20T15:49:00Z</time>
      </trkpt>
      <trkpt lat="47.3636520" lon="6.8152660">
        <ele>777.7</ele>
        <time>2022-07-20T15:49:01Z</time>
      </trkpt>
      <trkpt lat="47.3636440" lon="6.8152770">
        <ele>777.7</ele>
        <time>2022-07-20T15:49:02Z</time>
      </trkpt>
      <trkpt lat="47.3636140" lon="6.8153220">
        <ele>777.9</ele>
        <time>2022-07-20T15:49:03Z</time>
      </trkpt>
      <trkpt lat="47.3636030" lon="6.8153400">
        <ele>778.0</ele>
        <time>2022-07-20T15:49:04Z</time>
      </trkpt>
      <trkpt lat="47.3635830" lon="6.8153710">
        <ele>778.1</ele>
        <time>2022-07-20T15:49:05Z</time>
      </trkpt>
      <trkpt lat="47.3635620" lon="6.8154040">
        <ele>778.3</ele>
        <time>2022-07-20T15:49:07Z</time>
      </trkpt>
      <trkpt lat="47.3635370" lon="6.8154490">
        <ele>778.4</ele>
        <time>2022-07-20T15:49:08Z</time>
      </trkpt>
      <trkpt lat="47.3635150" lon="6.8154930">
        <ele>778.6</ele>
        <time>2022-07-20T15:49:09Z</time>
      </trkpt>
      <trkpt lat="47.3634990" lon="6.8155260">
        <ele>778.7</ele>
        <time>2022-07-20T15:49:10Z</time>
      </trkpt>
      <trkpt lat="47.3634770" lon="6.8155700">
        <ele>778.8</ele>
        <time>2022-07-20T15:49:11Z</time>
      </trkpt>
      <trkpt lat="47.3634540" lon="6.8156090">
        <ele>778.9</ele>
        <time>2022-07-20T15:49:12Z</time>
      </trkpt>
      <trkpt lat="47.3634300" lon="6.8156430">
        <ele>779.0</ele>
        <time>2022-07-20T15:49:13Z</time>
      </trkpt>
      <trkpt lat="47.3634080" lon="6.8156760">
        <ele>779.1</ele>
        <time>2022-07-20T15:49:14Z</time>
      </trkpt>
      <trkpt lat="47.3633840" lon="6.8157110">
        <ele>779.3</ele>
        <time>2022-07-20T15:49:15Z</time>
      </trkpt>
      <trkpt lat="47.3633560" lon="6.8157580">
        <ele>779.4</ele>
        <time>2022-07-20T15:49:16Z</time>
      </trkpt>
      <trkpt lat="47.3633300" lon="6.8158090">
        <ele>779.5</ele>
        <time>2022-07-20T15:49:18Z</time>
      </trkpt>
      <trkpt lat="47.3633020" lon="6.8158700">
        <ele>779.7</ele>
        <time>2022-07-20T15:49:19Z</time>
      </trkpt>
      <trkpt lat="47.3632800" lon="6.8159110">
        <ele>779.8</ele>
        <time>2022-07-20T15:49:20Z</time>
      </trkpt>
      <trkpt lat="47.3632520" lon="6.8159600">
        <ele>779.9</ele>
        <time>2022-07-20T15:49:21Z</time>
      </trkpt>
      <trkpt lat="47.3632210" lon="6.8160200">
        <ele>780.1</ele>
        <time>2022-07-20T15:49:23Z</time>
      </trkpt>
      <trkpt lat="47.3632070" lon="6.8160440">
        <ele>780.2</ele>
        <time>2022-07-20T15:49:24Z</time>
      </trkpt>
      <trkpt lat="47.3631940" lon="6.8160680">
        <ele>780.2</ele>
        <time>2022-07-20T15:49:25Z</time>
      </trkpt>
      <trkpt lat="47.3631610" lon="6.8161250">
        <ele>780.4</ele>
        <time>2022-07-20T15:49:27Z</time>
      </trkpt>
      <trkpt lat="47.3631510" lon="6.8161460">
        <ele>780.4</ele>
        <time>2022-07-20T15:49:28Z</time>
      </trkpt>
      <trkpt lat="47.3631410" lon="6.8161670">
        <ele>780.5</ele>
        <time>2022-07-20T15:49:29Z</time>
      </trkpt>
      <trkpt lat="47.3631200" lon="6.8162160">
        <ele>780.6</ele>
        <time>2022-07-20T15:49:30Z</time>
      </trkpt>
      <trkpt lat="47.3631000" lon="6.8162560">
        <ele>780.7</ele>
        <time>2022-07-20T15:49:31Z</time>
      </trkpt>
      <trkpt lat="47.3630730" lon="6.8163120">
        <ele>780.9</ele>
        <time>2022-07-20T15:49:32Z</time>
      </trkpt>
      <trkpt lat="47.3630560" lon="6.8163530">
        <ele>781.0</ele>
        <time>2022-07-20T15:49:34Z</time>
      </trkpt>
      <trkpt lat="47.3630380" lon="6.8163890">
        <ele>781.1</ele>
        <time>2022-07-20T15:49:35Z</time>
      </trkpt>
      <trkpt lat="47.3630180" lon="6.8164230">
        <ele>781.2</ele>
        <time>2022-07-20T15:49:36Z</time>
      </trkpt>
      <trkpt lat="47.3629940" lon="6.8164750">
        <ele>781.3</ele>
        <time>2022-07-20T15:49:37Z</time>
      </trkpt>
      <trkpt lat="47.3629850" lon="6.8164970">
        <ele>781.4</ele>
        <time>2022-07-20T15:49:38Z</time>
      </trkpt>
      <trkpt lat="47.3629670" lon="6.8165340">
        <ele>781.5</ele>
        <time>2022-07-20T15:49:40Z</time>
      </trkpt>
      <trkpt lat="47.3629420" lon="6.8165760">
        <ele>781.6</ele>
        <time>2022-07-20T15:49:41Z</time>
      </trkpt>
      <trkpt lat="47.3629260" lon="6.8166150">
        <ele>781.7</ele>
        <time>2022-07-20T15:49:42Z</time>
      </trkpt>
      <trkpt lat="47.3629010" lon="6.8166840">
        <ele>781.9</ele>
        <time>2022-07-20T15:49:44Z</time>
      </trkpt>
      <trkpt lat="47.3628880" lon="6.8167300">
        <ele>782.0</ele>
        <time>2022-07-20T15:49:45Z</time>
      </trkpt>
      <trkpt lat="47.3628730" lon="6.8167850">
        <ele>782.1</ele>
        <time>2022-07-20T15:49:46Z</time>
      </trkpt>
      <trkpt lat="47.3628530" lon="6.8168450">
        <ele>782.3</ele>
        <time>2022-07-20T15:49:47Z</time>
      </trkpt>
      <trkpt lat="47.3628450" lon="6.8168710">
        <ele>782.4</ele>
        <time>2022-07-20T15:49:48Z</time>
      </trkpt>
      <trkpt lat="47.3628220" lon="6.8169320">
        <ele>782.5</ele>
        <time>2022-07-20T15:49:49Z</time>
      </trkpt>
      <trkpt lat="47.3628030" lon="6.8169840">
        <ele>782.7</ele>
        <time>2022-07-20T15:49:51Z</time>
      </trkpt>
      <trkpt lat="47.3627890" lon="6.8170310">
        <ele>782.8</ele>
        <time>2022-07-20T15:49:52Z</time>
      </trkpt>
      <trkpt lat="47.3627800" lon="6.8170720">
        <ele>782.9</ele>
        <time>2022-07-20T15:49:53Z</time>
      </trkpt>
      <trkpt lat="47.3627730" lon="6.8171160">
        <ele>783.0</ele>
        <time>2022-07-20T15:49:54Z</time>
      </trkpt>
      <trkpt lat="47.3627710" lon="6.8171330">
        <ele>783.0</ele>
        <time>2022-07-20T15:49:55Z</time>
      </trkpt>
      <trkpt lat="47.3627630" lon="6.8171840">
        <ele>783.2</ele>
        <time>2022-07-20T15:49:56Z</time>
      </trkpt>
      <trkpt lat="47.3627600" lon="6.8171970">
        <ele>783.2</ele>
        <time>2022-07-20T15:49:57Z</time>
      </trkpt>
      <trkpt lat="47.3627520" lon="6.8172340">
        <ele>783.3</ele>
        <time>2022-07-20T15:49:58Z</time>
      </trkpt>
      <trkpt lat="47.3627250" lon="6.8173020">
        <ele>783.5</ele>
        <time>2022-07-20T15:50:00Z</time>
      </trkpt>
      <trkpt lat="47.3627110" lon="6.8173400">
        <ele>783.6</ele>
        <time>2022-07-20T15:50:01Z</time>
      </trkpt>
      <trkpt lat="47.3626940" lon="6.8173930">
        <ele>783.7</ele>
        <time>2022-07-20T15:50:02Z</time>
      </trkpt>
      <trkpt lat="47.3626890" lon="6.8174130">
        <ele>783.8</ele>
        <time>2022-07-20T15:50:03Z</time>
      </trkpt>
      <trkpt lat="47.3626670" lon="6.8174820">
        <ele>784.0</ele>
        <time>2022-07-20T15:50:04Z</time>
      </trkpt>
      <trkpt lat="47.3626490" lon="6.8175310">
        <ele>784.2</ele>
        <time>2022-07-20T15:50:06Z</time>
      </trkpt>
      <trkpt lat="47.3626260" lon="6.8175820">
        <ele>784.3</ele>
        <time>2022-07-20T15:50:07Z</time>
      </trkpt>
      <trkpt lat="47.3626030" lon="6.8176240">
        <ele>784.5</ele>
        <time>2022-07-20T15:50:08Z</time>
      </trkpt>
      <trkpt lat="47.3625910" lon="6.8176670">
        <ele>784.6</ele>
        <time>2022-07-20T15:50:09Z</time>
      </trkpt>
      <trkpt lat="47.3625880" lon="6.8176820">
        <ele>784.6</ele>
        <time>2022-07-20T15:50:10Z</time>
      </trkpt>
      <trkpt lat="47.3625870" lon="6.8177270">
        <ele>784.7</ele>
        <time>2022-07-20T15:50:11Z</time>
      </trkpt>
      <trkpt lat="47.3625850" lon="6.8177420">
        <ele>784.8</ele>
        <time>2022-07-20T15:50:12Z</time>
      </trkpt>
      <trkpt lat="47.3625730" lon="6.8177790">
        <ele>784.9</ele>
        <time>2022-07-20T15:50:13Z</time>
      </trkpt>
      <trkpt lat="47.3625610" lon="6.8178150">
        <ele>785.0</ele>
        <time>2022-07-20T15:50:14Z</time>
      </trkpt>
      <trkpt lat="47.3625400" lon="6.8178640">
        <ele>785.2</ele>
        <time>2022-07-20T15:50:16Z</time>
      </trkpt>
      <trkpt lat="47.3625210" lon="6.8179070">
        <ele>785.3</ele>
        <time>2022-07-20T15:50:17Z</time>
      </trkpt>
      <trkpt lat="47.3625010" lon="6.8179560">
        <ele>785.4</ele>
        <time>2022-07-20T15:50:18Z</time>
      </trkpt>
      <trkpt lat="47.3624910" lon="6.8179770">
        <ele>785.5</ele>
        <time>2022-07-20T15:50:19Z</time>
      </trkpt>
      <trkpt lat="47.3624680" lon="6.8180220">
        <ele>785.7</ele>
        <time>2022-07-20T15:50:21Z</time>
      </trkpt>
      <trkpt lat="47.3624480" lon="6.8180660">
        <ele>785.8</ele>
        <time>2022-07-20T15:50:22Z</time>
      </trkpt>
      <trkpt lat="47.3624390" lon="6.8180830">
        <ele>785.9</ele>
        <time>2022-07-20T15:50:23Z</time>
      </trkpt>
      <trkpt lat="47.3624190" lon="6.8181250">
        <ele>786.0</ele>
        <time>2022-07-20T15:50:24Z</time>
      </trkpt>
      <trkpt lat="47.3624090" lon="6.8181740">
        <ele>786.1</ele>
        <time>2022-07-20T15:50:26Z</time>
      </trkpt>
      <trkpt lat="47.3623990" lon="6.8182190">
        <ele>786.3</ele>
        <time>2022-07-20T15:50:27Z</time>
      </trkpt>
      <trkpt lat="47.3623880" lon="6.8182630">
        <ele>786.4</ele>
        <time>2022-07-20T15:50:28Z</time>
      </trkpt>
      <trkpt lat="47.3623720" lon="6.8183100">
        <ele>786.5</ele>
        <time>2022-07-20T15:50:29Z</time>
      </trkpt>
      <trkpt lat="47.3623480" lon="6.8183770">
        <ele>786.7</ele>
        <time>2022-07-20T15:50:31Z</time>
      </trkpt>
      <trkpt lat="47.3623310" lon="6.8184130">
        <ele>786.8</ele>
        <time>2022-07-20T15:50:32Z</time>
      </trkpt>
      <trkpt lat="47.3623160" lon="6.8184460">
        <ele>786.9</ele>
        <time>2022-07-20T15:50:33Z</time>
      </trkpt>
      <trkpt lat="47.3623010" lon="6.8184870">
        <ele>787.1</ele>
        <time>2022-07-20T15:50:34Z</time>
      </trkpt>
      <trkpt lat="47.3622860" lon="6.8185290">
        <ele>787.2</ele>
        <time>2022-07-20T15:50:35Z</time>
      </trkpt>
      <trkpt lat="47.3622700" lon="6.8185790">
        <ele>787.3</ele>
        <time>2022-07-20T15:50:36Z</time>
      </trkpt>
      <trkpt lat="47.3622520" lon="6.8186350">
        <ele>787.5</ele>
        <time>2022-07-20T15:50:38Z</time>
      </trkpt>
      <trkpt lat="47.3622330" lon="6.8186880">
        <ele>787.6</ele>
        <time>2022-07-20T15:50:39Z</time>
      </trkpt>
      <trkpt lat="47.3622150" lon="6.8187390">
        <ele>787.7</ele>
        <time>2022-07-20T15:50:40Z</time>
      </trkpt>
      <trkpt lat="47.3621990" lon="6.8187860">
        <ele>787.9</ele>
        <time>2022-07-20T15:50:41Z</time>
      </trkpt>
      <trkpt lat="47.3621800" lon="6.8188490">
        <ele>788.0</ele>
        <time>2022-07-20T15:50:43Z</time>
      </trkpt>
      <trkpt lat="47.3621660" lon="6.8188980">
        <ele>788.1</ele>
        <time>2022-07-20T15:50:44Z</time>
      </trkpt>
      <trkpt lat="47.3621510" lon="6.8189610">
        <ele>788.3</ele>
        <time>2022-07-20T15:50:45Z</time>
      </trkpt>
      <trkpt lat="47.3621440" lon="6.8189860">
        <ele>788.4</ele>
        <time>2022-07-20T15:50:46Z</time>
      </trkpt>
      <trkpt lat="47.3621220" lon="6.8190550">
        <ele>788.5</ele>
        <time>2022-07-20T15:50:48Z</time>
      </trkpt>
      <trkpt lat="47.3621060" lon="6.8191030">
        <ele>788.6</ele>
        <time>2022-07-20T15:50:49Z</time>
      </trkpt>
      <trkpt lat="47.3621010" lon="6.8191200">
        <ele>788.7</ele>
        <time>2022-07-20T15:50:50Z</time>
      </trkpt>
      <trkpt lat="47.3620790" lon="6.8191870">
        <ele>788.9</ele>
        <time>2022-07-20T15:50:52Z</time>
      </trkpt>
      <trkpt lat="47.3620630" lon="6.8192510">
        <ele>789.0</ele>
        <time>2022-07-20T15:50:53Z</time>
      </trkpt>
      <trkpt lat="47.3620510" lon="6.8192960">
        <ele>789.1</ele>
        <time>2022-07-20T15:50:54Z</time>
      </trkpt>
      <trkpt lat="47.3620340" lon="6.8193510">
        <ele>789.2</ele>
        <time>2022-07-20T15:50:55Z</time>
      </trkpt>
      <trkpt lat="47.3620280" lon="6.8193710">
        <ele>789.3</ele>
        <time>2022-07-20T15:50:56Z</time>
      </trkpt>
      <trkpt lat="47.3620150" lon="6.8194130">
        <ele>789.4</ele>
        <time>2022-07-20T15:50:57Z</time>
      </trkpt>
      <trkpt lat="47.3620040" lon="6.8194550">
        <ele>789.5</ele>
        <time>2022-07-20T15:50:58Z</time>
      </trkpt>
      <trkpt lat="47.3619890" lon="6.8195090">
        <ele>789.7</ele>
        <time>2022-07-20T15:50:59Z</time>
      </trkpt>
      <trkpt lat="47.3619830" lon="6.8195280">
        <ele>789.7</ele>
        <time>2022-07-20T15:51:00Z</time>
      </trkpt>
      <trkpt lat="47.3619640" lon="6.8195880">
        <ele>789.9</ele>
        <time>2022-07-20T15:51:01Z</time>
      </trkpt>
      <trkpt lat="47.3619560" lon="6.8196130">
        <ele>790.0</ele>
        <time>2022-07-20T15:51:02Z</time>
      </trkpt>
      <trkpt lat="47.3619430" lon="6.8196530">
        <ele>790.1</ele>
        <time>2022-07-20T15:51:04Z</time>
      </trkpt>
      <trkpt lat="47.3619310" lon="6.8196930">
        <ele>790.2</ele>
        <time>2022-07-20T15:51:05Z</time>
      </trkpt>
      <trkpt lat="47.3619160" lon="6.8197380">
        <ele>790.4</ele>
        <time>2022-07-20T15:51:06Z</time>
      </trkpt>
      <trkpt lat="47.3618990" lon="6.8197860">
        <ele>790.5</ele>
        <time>2022-07-20T15:51:08Z</time>
      </trkpt>
      <trkpt lat="47.3618820" lon="6.8198300">
        <ele>790.7</ele>
        <time>2022-07-20T15:51:09Z</time>
      </trkpt>
      <trkpt lat="47.3618650" lon="6.8198620">
        <ele>790.8</ele>
        <time>2022-07-20T15:51:10Z</time>
      </trkpt>
      <trkpt lat="47.3618430" lon="6.8199040">
        <ele>791.0</ele>
        <time>2022-07-20T15:51:11Z</time>
      </trkpt>
      <trkpt lat="47.3618210" lon="6.8199550">
        <ele>791.3</ele>
        <time>2022-07-20T15:51:13Z</time>
      </trkpt>
      <trkpt lat="47.3618160" lon="6.8199740">
        <ele>791.4</ele>
        <time>2022-07-20T15:51:14Z</time>
      </trkpt>
      <trkpt lat="47.3618100" lon="6.8199930">
        <ele>792.1</ele>
        <time>2022-07-20T15:51:15Z</time>
      </trkpt>
      <trkpt lat="47.3618020" lon="6.8200310">
        <ele>792.3</ele>
        <time>2022-07-20T15:51:16Z</time>
      </trkpt>
      <trkpt lat="47.3618030" lon="6.8200900">
        <ele>792.4</ele>
        <time>2022-07-20T15:51:18Z</time>
      </trkpt>
      <trkpt lat="47.3618080" lon="6.8201100">
        <ele>792.5</ele>
        <time>2022-07-20T15:51:19Z</time>
      </trkpt>
      <trkpt lat="47.3618190" lon="6.8201330">
        <ele>792.6</ele>
        <time>2022-07-20T15:51:20Z</time>
      </trkpt>
      <trkpt lat="47.3618520" lon="6.8201760">
        <ele>792.8</ele>
        <time>2022-07-20T15:51:22Z</time>
      </trkpt>
      <trkpt lat="47.3618670" lon="6.8201940">
        <ele>792.9</ele>
        <time>2022-07-20T15:51:23Z</time>
      </trkpt>
      <trkpt lat="47.3618730" lon="6.8202060">
        <ele>793.0</ele>
        <time>2022-07-20T15:51:24Z</time>
      </trkpt>
      <trkpt lat="47.3618920" lon="6.8202250">
        <ele>793.1</ele>
        <time>2022-07-20T15:51:25Z</time>
      </trkpt>
      <trkpt lat="47.3619030" lon="6.8202310">
        <ele>793.2</ele>
        <time>2022-07-20T15:51:26Z</time>
      </trkpt>
      <trkpt lat="47.3619130" lon="6.8202380">
        <ele>793.2</ele>
        <time>2022-07-20T15:51:27Z</time>
      </trkpt>
      <trkpt lat="47.3619350" lon="6.8202500">
        <ele>793.4</ele>
        <time>2022-07-20T15:51:28Z</time>
      </trkpt>
      <trkpt lat="47.3619430" lon="6.8202550">
        <ele>793.4</ele>
        <time>2022-07-20T15:51:29Z</time>
      </trkpt>
      <trkpt lat="47.3619520" lon="6.8202590">
        <ele>793.5</ele>
        <time>2022-07-20T15:51:30Z</time>
      </trkpt>
      <trkpt lat="47.3619680" lon="6.8202670">
        <ele>793.6</ele>
        <time>2022-07-20T15:51:31Z</time>
      </trkpt>
      <trkpt lat="47.3620040" lon="6.8202860">
        <ele>793.9</ele>
        <time>2022-07-20T15:51:33Z</time>
      </trkpt>
      <trkpt lat="47.3620310" lon="6.8202980">
        <ele>794.0</ele>
        <time>2022-07-20T15:51:34Z</time>
      </trkpt>
      <trkpt lat="47.3620670" lon="6.8203170">
        <ele>794.3</ele>
        <time>2022-07-20T15:51:35Z</time>
      </trkpt>
      <trkpt lat="47.3620790" lon="6.8203240">
        <ele>794.3</ele>
        <time>2022-07-20T15:51:36Z</time>
      </trkpt>
      <trkpt lat="47.3621100" lon="6.8203570">
        <ele>794.6</ele>
        <time>2022-07-20T15:51:37Z</time>
      </trkpt>
      <trkpt lat="47.3621210" lon="6.8203700">
        <ele>794.7</ele>
        <time>2022-07-20T15:51:38Z</time>
      </trkpt>
      <trkpt lat="47.3621560" lon="6.8204000">
        <ele>794.9</ele>
        <time>2022-07-20T15:51:39Z</time>
      </trkpt>
      <trkpt lat="47.3621690" lon="6.8204100">
        <ele>795.0</ele>
        <time>2022-07-20T15:51:40Z</time>
      </trkpt>
      <trkpt lat="47.3621960" lon="6.8204400">
        <ele>795.2</ele>
        <time>2022-07-20T15:51:41Z</time>
      </trkpt>
      <trkpt lat="47.3622190" lon="6.8204820">
        <ele>795.4</ele>
        <time>2022-07-20T15:51:42Z</time>
      </trkpt>
      <trkpt lat="47.3622250" lon="6.8204950">
        <ele>795.5</ele>
        <time>2022-07-20T15:51:43Z</time>
      </trkpt>
      <trkpt lat="47.3622380" lon="6.8205450">
        <ele>795.7</ele>
        <time>2022-07-20T15:51:44Z</time>
      </trkpt>
      <trkpt lat="47.3622430" lon="6.8205640">
        <ele>795.8</ele>
        <time>2022-07-20T15:51:45Z</time>
      </trkpt>
      <trkpt lat="47.3622520" lon="6.8206040">
        <ele>795.9</ele>
        <time>2022-07-20T15:51:46Z</time>
      </trkpt>
      <trkpt lat="47.3622690" lon="6.8206650">
        <ele>796.1</ele>
        <time>2022-07-20T15:51:48Z</time>
      </trkpt>
      <trkpt lat="47.3622790" lon="6.8207180">
        <ele>796.3</ele>
        <time>2022-07-20T15:51:49Z</time>
      </trkpt>
      <trkpt lat="47.3622820" lon="6.8207360">
        <ele>796.4</ele>
        <time>2022-07-20T15:51:50Z</time>
      </trkpt>
      <trkpt lat="47.3622930" lon="6.8207650">
        <ele>796.5</ele>
        <time>2022-07-20T15:51:51Z</time>
      </trkpt>
      <trkpt lat="47.3623040" lon="6.8208010">
        <ele>796.6</ele>
        <time>2022-07-20T15:51:53Z</time>
      </trkpt>
      <trkpt lat="47.3623110" lon="6.8208290">
        <ele>796.6</ele>
        <time>2022-07-20T15:51:54Z</time>
      </trkpt>
      <trkpt lat="47.3623140" lon="6.8208520">
        <ele>796.7</ele>
        <time>2022-07-20T15:51:55Z</time>
      </trkpt>
      <trkpt lat="47.3623180" lon="6.8208990">
        <ele>796.7</ele>
        <time>2022-07-20T15:51:56Z</time>
      </trkpt>
      <trkpt lat="47.3623180" lon="6.8209140">
        <ele>796.8</ele>
        <time>2022-07-20T15:51:57Z</time>
      </trkpt>
      <trkpt lat="47.3623230" lon="6.8209650">
        <ele>796.8</ele>
        <time>2022-07-20T15:51:59Z</time>
      </trkpt>
      <trkpt lat="47.3623250" lon="6.8209680">
        <ele>796.8</ele>
        <time>2022-07-20T15:52:00Z</time>
      </trkpt>
      <trkpt lat="47.3623320" lon="6.8209300">
        <ele>796.8</ele>
        <time>2022-07-20T15:52:01Z</time>
      </trkpt>
      <trkpt lat="47.3623340" lon="6.8209220">
        <ele>796.8</ele>
        <time>2022-07-20T15:52:02Z</time>
      </trkpt>
      <trkpt lat="47.3623350" lon="6.8209170">
        <ele>796.8</ele>
        <time>2022-07-20T15:52:03Z</time>
      </trkpt>
      <trkpt lat="47.3623360" lon="6.8209140">
        <ele>796.8</ele>
        <time>2022-07-20T15:52:04Z</time>
      </trkpt>
      <trkpt lat="47.3623360" lon="6.8209100">
        <ele>796.8</ele>
        <time>2022-07-20T15:52:05Z</time>
      </trkpt>
      <trkpt lat="47.3623360" lon="6.8209080">
        <ele>796.8</ele>
        <time>2022-07-20T15:52:06Z</time>
      </trkpt>
      <trkpt lat="47.3623370" lon="6.8209060">
        <ele>796.8</ele>
        <time>2022-07-20T15:52:07Z</time>
      </trkpt>
      <trkpt lat="47.3623370" lon="6.8209050">
        <ele>796.8</ele>
        <time>2022-07-20T15:52:08Z</time>
      </trkpt>
      <trkpt lat="47.3623390" lon="6.8209030">
        <ele>796.8</ele>
        <time>2022-07-20T15:52:09Z</time>
      </trkpt>
      <trkpt lat="47.3623420" lon="6.8209050">
        <ele>796.8</ele>
        <time>2022-07-20T15:52:10Z</time>
      </trkpt>
      <trkpt lat="47.3623480" lon="6.8209030">
        <ele>796.8</ele>
        <time>2022-07-20T15:52:11Z</time>
      </trkpt>
      <trkpt lat="47.3623630" lon="6.8209030">
        <ele>796.8</ele>
        <time>2022-07-20T15:52:12Z</time>
      </trkpt>
      <trkpt lat="47.3623670" lon="6.8209730">
        <ele>796.8</ele>
        <time>2022-07-20T15:52:13Z</time>
      </trkpt>
      <trkpt lat="47.3623660" lon="6.8210460">
        <ele>796.7</ele>
        <time>2022-07-20T15:52:15Z</time>
      </trkpt>
      <trkpt lat="47.3623630" lon="6.8211170">
        <ele>796.6</ele>
        <time>2022-07-20T15:52:16Z</time>
      </trkpt>
      <trkpt lat="47.3623610" lon="6.8211730">
        <ele>796.4</ele>
        <time>2022-07-20T15:52:17Z</time>
      </trkpt>
      <trkpt lat="47.3623580" lon="6.8212230">
        <ele>796.3</ele>
        <time>2022-07-20T15:52:18Z</time>
      </trkpt>
      <trkpt lat="47.3623570" lon="6.8212730">
        <ele>796.1</ele>
        <time>2022-07-20T15:52:19Z</time>
      </trkpt>
      <trkpt lat="47.3623600" lon="6.8213290">
        <ele>796.0</ele>
        <time>2022-07-20T15:52:20Z</time>
      </trkpt>
      <trkpt lat="47.3623740" lon="6.8214410">
        <ele>795.6</ele>
        <time>2022-07-20T15:52:22Z</time>
      </trkpt>
      <trkpt lat="47.3623820" lon="6.8215560">
        <ele>795.4</ele>
        <time>2022-07-20T15:52:24Z</time>
      </trkpt>
      <trkpt lat="47.3623800" lon="6.8216140">
        <ele>795.3</ele>
        <time>2022-07-20T15:52:25Z</time>
      </trkpt>
      <trkpt lat="47.3623760" lon="6.8216670">
        <ele>795.3</ele>
        <time>2022-07-20T15:52:26Z</time>
      </trkpt>
      <trkpt lat="47.3623730" lon="6.8217190">
        <ele>795.2</ele>
        <time>2022-07-20T15:52:27Z</time>
      </trkpt>
      <trkpt lat="47.3623710" lon="6.8217700">
        <ele>795.1</ele>
        <time>2022-07-20T15:52:28Z</time>
      </trkpt>
      <trkpt lat="47.3623710" lon="6.8218190">
        <ele>795.1</ele>
        <time>2022-07-20T15:52:29Z</time>
      </trkpt>
      <trkpt lat="47.3623730" lon="6.8218680">
        <ele>795.0</ele>
        <time>2022-07-20T15:52:30Z</time>
      </trkpt>
      <trkpt lat="47.3623740" lon="6.8219110">
        <ele>794.9</ele>
        <time>2022-07-20T15:52:31Z</time>
      </trkpt>
      <trkpt lat="47.3623820" lon="6.8219580">
        <ele>794.7</ele>
        <time>2022-07-20T15:52:32Z</time>
      </trkpt>
      <trkpt lat="47.3624070" lon="6.8220130">
        <ele>794.5</ele>
        <time>2022-07-20T15:52:33Z</time>
      </trkpt>
      <trkpt lat="47.3624490" lon="6.8220500">
        <ele>794.3</ele>
        <time>2022-07-20T15:52:34Z</time>
      </trkpt>
      <trkpt lat="47.3624920" lon="6.8220800">
        <ele>794.2</ele>
        <time>2022-07-20T15:52:35Z</time>
      </trkpt>
      <trkpt lat="47.3625200" lon="6.8221070">
        <ele>794.0</ele>
        <time>2022-07-20T15:52:36Z</time>
      </trkpt>
      <trkpt lat="47.3625430" lon="6.8221450">
        <ele>793.9</ele>
        <time>2022-07-20T15:52:37Z</time>
      </trkpt>
      <trkpt lat="47.3625530" lon="6.8221900">
        <ele>793.9</ele>
        <time>2022-07-20T15:52:38Z</time>
      </trkpt>
      <trkpt lat="47.3625560" lon="6.8222430">
        <ele>793.8</ele>
        <time>2022-07-20T15:52:39Z</time>
      </trkpt>
      <trkpt lat="47.3625150" lon="6.8223410">
        <ele>793.6</ele>
        <time>2022-07-20T15:52:40Z</time>
      </trkpt>
      <trkpt lat="47.3625040" lon="6.8224140">
        <ele>793.5</ele>
        <time>2022-07-20T15:52:41Z</time>
      </trkpt>
      <trkpt lat="47.3624970" lon="6.8224860">
        <ele>793.4</ele>
        <time>2022-07-20T15:52:42Z</time>
      </trkpt>
      <trkpt lat="47.3624960" lon="6.8225590">
        <ele>793.4</ele>
        <time>2022-07-20T15:52:43Z</time>
      </trkpt>
      <trkpt lat="47.3624980" lon="6.8226330">
        <ele>793.3</ele>
        <time>2022-07-20T15:52:44Z</time>
      </trkpt>
      <trkpt lat="47.3624990" lon="6.8227100">
        <ele>793.3</ele>
        <time>2022-07-20T15:52:45Z</time>
      </trkpt>
      <trkpt lat="47.3624970" lon="6.8227830">
        <ele>793.3</ele>
        <time>2022-07-20T15:52:46Z</time>
      </trkpt>
      <trkpt lat="47.3624880" lon="6.8228500">
        <ele>793.3</ele>
        <time>2022-07-20T15:52:47Z</time>
      </trkpt>
      <trkpt lat="47.3624810" lon="6.8229200">
        <ele>793.4</ele>
        <time>2022-07-20T15:52:48Z</time>
      </trkpt>
      <trkpt lat="47.3624770" lon="6.8230050">
        <ele>793.4</ele>
        <time>2022-07-20T15:52:49Z</time>
      </trkpt>
      <trkpt lat="47.3624730" lon="6.8230880">
        <ele>793.5</ele>
        <time>2022-07-20T15:52:50Z</time>
      </trkpt>
      <trkpt lat="47.3624630" lon="6.8231660">
        <ele>793.5</ele>
        <time>2022-07-20T15:52:51Z</time>
      </trkpt>
      <trkpt lat="47.3624510" lon="6.8232380">
        <ele>793.5</ele>
        <time>2022-07-20T15:52:52Z</time>
      </trkpt>
      <trkpt lat="47.3624460" lon="6.8233100">
        <ele>793.5</ele>
        <time>2022-07-20T15:52:53Z</time>
      </trkpt>
      <trkpt lat="47.3624430" lon="6.8233840">
        <ele>793.4</ele>
        <time>2022-07-20T15:52:54Z</time>
      </trkpt>
      <trkpt lat="47.3624380" lon="6.8234630">
        <ele>793.4</ele>
        <time>2022-07-20T15:52:55Z</time>
      </trkpt>
      <trkpt lat="47.3624330" lon="6.8235460">
        <ele>793.4</ele>
        <time>2022-07-20T15:52:56Z</time>
      </trkpt>
      <trkpt lat="47.3624280" lon="6.8236280">
        <ele>793.4</ele>
        <time>2022-07-20T15:52:57Z</time>
      </trkpt>
      <trkpt lat="47.3624280" lon="6.8237060">
        <ele>793.4</ele>
        <time>2022-07-20T15:52:58Z</time>
      </trkpt>
      <trkpt lat="47.3624290" lon="6.8237880">
        <ele>793.4</ele>
        <time>2022-07-20T15:52:59Z</time>
      </trkpt>
      <trkpt lat="47.3624280" lon="6.8238730">
        <ele>793.4</ele>
        <time>2022-07-20T15:53:00Z</time>
      </trkpt>
      <trkpt lat="47.3624330" lon="6.8239490">
        <ele>793.4</ele>
        <time>2022-07-20T15:53:01Z</time>
      </trkpt>
      <trkpt lat="47.3624350" lon="6.8240230">
        <ele>793.5</ele>
        <time>2022-07-20T15:53:02Z</time>
      </trkpt>
      <trkpt lat="47.3624290" lon="6.8240860">
        <ele>793.5</ele>
        <time>2022-07-20T15:53:03Z</time>
      </trkpt>
      <trkpt lat="47.3624220" lon="6.8241470">
        <ele>793.5</ele>
        <time>2022-07-20T15:53:04Z</time>
      </trkpt>
      <trkpt lat="47.3624220" lon="6.8242090">
        <ele>793.6</ele>
        <time>2022-07-20T15:53:05Z</time>
      </trkpt>
      <trkpt lat="47.3624190" lon="6.8242710">
        <ele>793.6</ele>
        <time>2022-07-20T15:53:06Z</time>
      </trkpt>
      <trkpt lat="47.3624170" lon="6.8243330">
        <ele>793.7</ele>
        <time>2022-07-20T15:53:07Z</time>
      </trkpt>
      <trkpt lat="47.3624250" lon="6.8243980">
        <ele>793.8</ele>
        <time>2022-07-20T15:53:08Z</time>
      </trkpt>
      <trkpt lat="47.3624280" lon="6.8244540">
        <ele>793.9</ele>
        <time>2022-07-20T15:53:09Z</time>
      </trkpt>
      <trkpt lat="47.3624220" lon="6.8245070">
        <ele>794.0</ele>
        <time>2022-07-20T15:53:10Z</time>
      </trkpt>
      <trkpt lat="47.3624140" lon="6.8245500">
        <ele>794.0</ele>
        <time>2022-07-20T15:53:11Z</time>
      </trkpt>
      <trkpt lat="47.3624000" lon="6.8245870">
        <ele>794.1</ele>
        <time>2022-07-20T15:53:12Z</time>
      </trkpt>
      <trkpt lat="47.3623880" lon="6.8246440">
        <ele>794.3</ele>
        <time>2022-07-20T15:53:13Z</time>
      </trkpt>
      <trkpt lat="47.3623870" lon="6.8246690">
        <ele>794.4</ele>
        <time>2022-07-20T15:53:14Z</time>
      </trkpt>
      <trkpt lat="47.3623910" lon="6.8247200">
        <ele>794.6</ele>
        <time>2022-07-20T15:53:15Z</time>
      </trkpt>
      <trkpt lat="47.3623960" lon="6.8247810">
        <ele>794.9</ele>
        <time>2022-07-20T15:53:16Z</time>
      </trkpt>
      <trkpt lat="47.3624020" lon="6.8248300">
        <ele>795.2</ele>
        <time>2022-07-20T15:53:17Z</time>
      </trkpt>
      <trkpt lat="47.3624040" lon="6.8248750">
        <ele>795.5</ele>
        <time>2022-07-20T15:53:18Z</time>
      </trkpt>
      <trkpt lat="47.3624030" lon="6.8249180">
        <ele>795.8</ele>
        <time>2022-07-20T15:53:19Z</time>
      </trkpt>
      <trkpt lat="47.3624010" lon="6.8249630">
        <ele>796.2</ele>
        <time>2022-07-20T15:53:20Z</time>
      </trkpt>
      <trkpt lat="47.3624020" lon="6.8250070">
        <ele>796.5</ele>
        <time>2022-07-20T15:53:21Z</time>
      </trkpt>
      <trkpt lat="47.3624170" lon="6.8250930">
        <ele>797.1</ele>
        <time>2022-07-20T15:53:23Z</time>
      </trkpt>
      <trkpt lat="47.3624240" lon="6.8251380">
        <ele>797.4</ele>
        <time>2022-07-20T15:53:24Z</time>
      </trkpt>
      <trkpt lat="47.3624270" lon="6.8251820">
        <ele>797.7</ele>
        <time>2022-07-20T15:53:25Z</time>
      </trkpt>
      <trkpt lat="47.3624190" lon="6.8252480">
        <ele>798.1</ele>
        <time>2022-07-20T15:53:26Z</time>
      </trkpt>
      <trkpt lat="47.3624140" lon="6.8252760">
        <ele>798.2</ele>
        <time>2022-07-20T15:53:27Z</time>
      </trkpt>
      <trkpt lat="47.3624020" lon="6.8253390">
        <ele>798.5</ele>
        <time>2022-07-20T15:53:29Z</time>
      </trkpt>
      <trkpt lat="47.3623990" lon="6.8253830">
        <ele>798.7</ele>
        <time>2022-07-20T15:53:30Z</time>
      </trkpt>
      <trkpt lat="47.3623990" lon="6.8254240">
        <ele>798.9</ele>
        <time>2022-07-20T15:53:31Z</time>
      </trkpt>
      <trkpt lat="47.3624030" lon="6.8254800">
        <ele>799.2</ele>
        <time>2022-07-20T15:53:32Z</time>
      </trkpt>
      <trkpt lat="47.3624050" lon="6.8254990">
        <ele>799.3</ele>
        <time>2022-07-20T15:53:33Z</time>
      </trkpt>
      <trkpt lat="47.3624080" lon="6.8255560">
        <ele>799.5</ele>
        <time>2022-07-20T15:53:34Z</time>
      </trkpt>
      <trkpt lat="47.3624080" lon="6.8255780">
        <ele>799.6</ele>
        <time>2022-07-20T15:53:35Z</time>
      </trkpt>
      <trkpt lat="47.3624060" lon="6.8256270">
        <ele>799.8</ele>
        <time>2022-07-20T15:53:36Z</time>
      </trkpt>
      <trkpt lat="47.3624030" lon="6.8256830">
        <ele>800.0</ele>
        <time>2022-07-20T15:53:37Z</time>
      </trkpt>
      <trkpt lat="47.3624000" lon="6.8257290">
        <ele>800.2</ele>
        <time>2022-07-20T15:53:38Z</time>
      </trkpt>
      <trkpt lat="47.3623980" lon="6.8257800">
        <ele>800.3</ele>
        <time>2022-07-20T15:53:39Z</time>
      </trkpt>
      <trkpt lat="47.3623960" lon="6.8258380">
        <ele>800.5</ele>
        <time>2022-07-20T15:53:40Z</time>
      </trkpt>
      <trkpt lat="47.3623940" lon="6.8258940">
        <ele>800.7</ele>
        <time>2022-07-20T15:53:41Z</time>
      </trkpt>
      <trkpt lat="47.3623910" lon="6.8259470">
        <ele>800.8</ele>
        <time>2022-07-20T15:53:42Z</time>
      </trkpt>
      <trkpt lat="47.3623870" lon="6.8259890">
        <ele>800.9</ele>
        <time>2022-07-20T15:53:43Z</time>
      </trkpt>
      <trkpt lat="47.3623830" lon="6.8260460">
        <ele>801.0</ele>
        <time>2022-07-20T15:53:44Z</time>
      </trkpt>
      <trkpt lat="47.3623800" lon="6.8261070">
        <ele>801.0</ele>
        <time>2022-07-20T15:53:45Z</time>
      </trkpt>
      <trkpt lat="47.3623790" lon="6.8261570">
        <ele>801.1</ele>
        <time>2022-07-20T15:53:46Z</time>
      </trkpt>
      <trkpt lat="47.3623800" lon="6.8262050">
        <ele>801.1</ele>
        <time>2022-07-20T15:53:47Z</time>
      </trkpt>
      <trkpt lat="47.3623810" lon="6.8262510">
        <ele>801.1</ele>
        <time>2022-07-20T15:53:48Z</time>
      </trkpt>
      <trkpt lat="47.3623820" lon="6.8263070">
        <ele>801.1</ele>
        <time>2022-07-20T15:53:49Z</time>
      </trkpt>
      <trkpt lat="47.3623770" lon="6.8263550">
        <ele>801.2</ele>
        <time>2022-07-20T15:53:50Z</time>
      </trkpt>
      <trkpt lat="47.3623730" lon="6.8264070">
        <ele>801.2</ele>
        <time>2022-07-20T15:53:51Z</time>
      </trkpt>
      <trkpt lat="47.3623680" lon="6.8264570">
        <ele>801.2</ele>
        <time>2022-07-20T15:53:52Z</time>
      </trkpt>
      <trkpt lat="47.3623640" lon="6.8265000">
        <ele>801.3</ele>
        <time>2022-07-20T15:53:53Z</time>
      </trkpt>
      <trkpt lat="47.3623620" lon="6.8265550">
        <ele>801.4</ele>
        <time>2022-07-20T15:53:54Z</time>
      </trkpt>
      <trkpt lat="47.3623620" lon="6.8265970">
        <ele>801.4</ele>
        <time>2022-07-20T15:53:55Z</time>
      </trkpt>
      <trkpt lat="47.3623660" lon="6.8266580">
        <ele>801.5</ele>
        <time>2022-07-20T15:53:56Z</time>
      </trkpt>
      <trkpt lat="47.3623740" lon="6.8267150">
        <ele>801.6</ele>
        <time>2022-07-20T15:53:57Z</time>
      </trkpt>
      <trkpt lat="47.3623830" lon="6.8267760">
        <ele>801.6</ele>
        <time>2022-07-20T15:53:58Z</time>
      </trkpt>
      <trkpt lat="47.3623920" lon="6.8268380">
        <ele>801.7</ele>
        <time>2022-07-20T15:53:59Z</time>
      </trkpt>
      <trkpt lat="47.3623990" lon="6.8269020">
        <ele>801.8</ele>
        <time>2022-07-20T15:54:00Z</time>
      </trkpt>
      <trkpt lat="47.3624060" lon="6.8269650">
        <ele>801.8</ele>
        <time>2022-07-20T15:54:01Z</time>
      </trkpt>
      <trkpt lat="47.3624110" lon="6.8270250">
        <ele>801.8</ele>
        <time>2022-07-20T15:54:02Z</time>
      </trkpt>
      <trkpt lat="47.3624180" lon="6.8270880">
        <ele>801.7</ele>
        <time>2022-07-20T15:54:03Z</time>
      </trkpt>
      <trkpt lat="47.3624480" lon="6.8271610">
        <ele>801.6</ele>
        <time>2022-07-20T15:54:04Z</time>
      </trkpt>
      <trkpt lat="47.3624670" lon="6.8272570">
        <ele>801.3</ele>
        <time>2022-07-20T15:54:05Z</time>
      </trkpt>
      <trkpt lat="47.3624830" lon="6.8273460">
        <ele>801.0</ele>
        <time>2022-07-20T15:54:06Z</time>
      </trkpt>
      <trkpt lat="47.3625010" lon="6.8274300">
        <ele>800.7</ele>
        <time>2022-07-20T15:54:07Z</time>
      </trkpt>
      <trkpt lat="47.3625180" lon="6.8275180">
        <ele>800.5</ele>
        <time>2022-07-20T15:54:08Z</time>
      </trkpt>
      <trkpt lat="47.3625300" lon="6.8276120">
        <ele>800.3</ele>
        <time>2022-07-20T15:54:09Z</time>
      </trkpt>
      <trkpt lat="47.3625380" lon="6.8276990">
        <ele>800.2</ele>
        <time>2022-07-20T15:54:10Z</time>
      </trkpt>
      <trkpt lat="47.3625430" lon="6.8277930">
        <ele>800.0</ele>
        <time>2022-07-20T15:54:11Z</time>
      </trkpt>
      <trkpt lat="47.3625490" lon="6.8278840">
        <ele>799.8</ele>
        <time>2022-07-20T15:54:12Z</time>
      </trkpt>
      <trkpt lat="47.3625640" lon="6.8279800">
        <ele>799.5</ele>
        <time>2022-07-20T15:54:13Z</time>
      </trkpt>
      <trkpt lat="47.3625790" lon="6.8280810">
        <ele>799.3</ele>
        <time>2022-07-20T15:54:14Z</time>
      </trkpt>
      <trkpt lat="47.3625910" lon="6.8281840">
        <ele>799.1</ele>
        <time>2022-07-20T15:54:15Z</time>
      </trkpt>
      <trkpt lat="47.3626010" lon="6.8282860">
        <ele>798.9</ele>
        <time>2022-07-20T15:54:16Z</time>
      </trkpt>
      <trkpt lat="47.3626090" lon="6.8283890">
        <ele>798.9</ele>
        <time>2022-07-20T15:54:17Z</time>
      </trkpt>
      <trkpt lat="47.3626150" lon="6.8284890">
        <ele>798.8</ele>
        <time>2022-07-20T15:54:18Z</time>
      </trkpt>
      <trkpt lat="47.3626200" lon="6.8285870">
        <ele>798.8</ele>
        <time>2022-07-20T15:54:19Z</time>
      </trkpt>
      <trkpt lat="47.3626310" lon="6.8286720">
        <ele>798.8</ele>
        <time>2022-07-20T15:54:20Z</time>
      </trkpt>
      <trkpt lat="47.3626360" lon="6.8287470">
        <ele>798.9</ele>
        <time>2022-07-20T15:54:21Z</time>
      </trkpt>
      <trkpt lat="47.3626390" lon="6.8288360">
        <ele>798.9</ele>
        <time>2022-07-20T15:54:22Z</time>
      </trkpt>
      <trkpt lat="47.3626340" lon="6.8289270">
        <ele>799.0</ele>
        <time>2022-07-20T15:54:23Z</time>
      </trkpt>
      <trkpt lat="47.3626310" lon="6.8290080">
        <ele>799.1</ele>
        <time>2022-07-20T15:54:24Z</time>
      </trkpt>
      <trkpt lat="47.3626260" lon="6.8290940">
        <ele>799.2</ele>
        <time>2022-07-20T15:54:25Z</time>
      </trkpt>
      <trkpt lat="47.3626250" lon="6.8291750">
        <ele>799.3</ele>
        <time>2022-07-20T15:54:26Z</time>
      </trkpt>
      <trkpt lat="47.3626290" lon="6.8292490">
        <ele>799.4</ele>
        <time>2022-07-20T15:54:27Z</time>
      </trkpt>
      <trkpt lat="47.3626380" lon="6.8293250">
        <ele>799.4</ele>
        <time>2022-07-20T15:54:28Z</time>
      </trkpt>
      <trkpt lat="47.3626440" lon="6.8294030">
        <ele>799.5</ele>
        <time>2022-07-20T15:54:29Z</time>
      </trkpt>
      <trkpt lat="47.3626430" lon="6.8294820">
        <ele>799.5</ele>
        <time>2022-07-20T15:54:30Z</time>
      </trkpt>
      <trkpt lat="47.3626440" lon="6.8295640">
        <ele>799.6</ele>
        <time>2022-07-20T15:54:31Z</time>
      </trkpt>
      <trkpt lat="47.3626450" lon="6.8296360">
        <ele>799.6</ele>
        <time>2022-07-20T15:54:32Z</time>
      </trkpt>
      <trkpt lat="47.3626450" lon="6.8297050">
        <ele>799.5</ele>
        <time>2022-07-20T15:54:33Z</time>
      </trkpt>
      <trkpt lat="47.3626460" lon="6.8297780">
        <ele>799.5</ele>
        <time>2022-07-20T15:54:34Z</time>
      </trkpt>
      <trkpt lat="47.3626480" lon="6.8298690">
        <ele>799.3</ele>
        <time>2022-07-20T15:54:35Z</time>
      </trkpt>
      <trkpt lat="47.3626580" lon="6.8299680">
        <ele>799.1</ele>
        <time>2022-07-20T15:54:36Z</time>
      </trkpt>
      <trkpt lat="47.3626780" lon="6.8300570">
        <ele>798.9</ele>
        <time>2022-07-20T15:54:37Z</time>
      </trkpt>
      <trkpt lat="47.3627010" lon="6.8301480">
        <ele>798.7</ele>
        <time>2022-07-20T15:54:38Z</time>
      </trkpt>
      <trkpt lat="47.3627260" lon="6.8302410">
        <ele>798.5</ele>
        <time>2022-07-20T15:54:39Z</time>
      </trkpt>
      <trkpt lat="47.3627520" lon="6.8303300">
        <ele>798.4</ele>
        <time>2022-07-20T15:54:40Z</time>
      </trkpt>
      <trkpt lat="47.3627810" lon="6.8304090">
        <ele>798.2</ele>
        <time>2022-07-20T15:54:41Z</time>
      </trkpt>
      <trkpt lat="47.3628050" lon="6.8304900">
        <ele>798.0</ele>
        <time>2022-07-20T15:54:42Z</time>
      </trkpt>
      <trkpt lat="47.3628290" lon="6.8305870">
        <ele>797.8</ele>
        <time>2022-07-20T15:54:43Z</time>
      </trkpt>
      <trkpt lat="47.3628550" lon="6.8307110">
        <ele>797.4</ele>
        <time>2022-07-20T15:54:44Z</time>
      </trkpt>
      <trkpt lat="47.3628790" lon="6.8308330">
        <ele>796.9</ele>
        <time>2022-07-20T15:54:45Z</time>
      </trkpt>
      <trkpt lat="47.3629040" lon="6.8309460">
        <ele>796.4</ele>
        <time>2022-07-20T15:54:46Z</time>
      </trkpt>
      <trkpt lat="47.3629240" lon="6.8310480">
        <ele>796.1</ele>
        <time>2022-07-20T15:54:47Z</time>
      </trkpt>
      <trkpt lat="47.3629310" lon="6.8311460">
        <ele>795.8</ele>
        <time>2022-07-20T15:54:48Z</time>
      </trkpt>
      <trkpt lat="47.3629340" lon="6.8312150">
        <ele>795.5</ele>
        <time>2022-07-20T15:54:49Z</time>
      </trkpt>
      <trkpt lat="47.3629420" lon="6.8312680">
        <ele>795.4</ele>
        <time>2022-07-20T15:54:50Z</time>
      </trkpt>
      <trkpt lat="47.3629450" lon="6.8313200">
        <ele>795.3</ele>
        <time>2022-07-20T15:54:51Z</time>
      </trkpt>
      <trkpt lat="47.3629460" lon="6.8313610">
        <ele>795.2</ele>
        <time>2022-07-20T15:54:52Z</time>
      </trkpt>
      <trkpt lat="47.3629520" lon="6.8314110">
        <ele>795.1</ele>
        <time>2022-07-20T15:54:53Z</time>
      </trkpt>
      <trkpt lat="47.3629620" lon="6.8314570">
        <ele>795.0</ele>
        <time>2022-07-20T15:54:54Z</time>
      </trkpt>
      <trkpt lat="47.3629680" lon="6.8314770">
        <ele>794.9</ele>
        <time>2022-07-20T15:54:55Z</time>
      </trkpt>
      <trkpt lat="47.3629780" lon="6.8315140">
        <ele>794.9</ele>
        <time>2022-07-20T15:54:56Z</time>
      </trkpt>
      <trkpt lat="47.3629810" lon="6.8315400">
        <ele>794.8</ele>
        <time>2022-07-20T15:54:57Z</time>
      </trkpt>
      <trkpt lat="47.3629860" lon="6.8315650">
        <ele>794.8</ele>
        <time>2022-07-20T15:54:58Z</time>
      </trkpt>
      <trkpt lat="47.3629890" lon="6.8315860">
        <ele>794.8</ele>
        <time>2022-07-20T15:54:59Z</time>
      </trkpt>
      <trkpt lat="47.3629920" lon="6.8315960">
        <ele>794.8</ele>
        <time>2022-07-20T15:55:00Z</time>
      </trkpt>
      <trkpt lat="47.3629920" lon="6.8316020">
        <ele>794.8</ele>
        <time>2022-07-20T15:55:01Z</time>
      </trkpt>
      <trkpt lat="47.3629930" lon="6.8316030">
        <ele>794.8</ele>
        <time>2022-07-20T15:55:02Z</time>
      </trkpt>
      <trkpt lat="47.3629940" lon="6.8316010">
        <ele>794.8</ele>
        <time>2022-07-20T15:55:03Z</time>
      </trkpt>
      <trkpt lat="47.3629920" lon="6.8316000">
        <ele>794.8</ele>
        <time>2022-07-20T15:55:04Z</time>
      </trkpt>
      <trkpt lat="47.3629910" lon="6.8316000">
        <ele>794.7</ele>
        <time>2022-07-20T15:55:05Z</time>
      </trkpt>
      <trkpt lat="47.3629880" lon="6.8316050">
        <ele>794.7</ele>
        <time>2022-07-20T15:55:06Z</time>
      </trkpt>
      <trkpt lat="47.3629930" lon="6.8316120">
        <ele>794.7</ele>
        <time>2022-07-20T15:55:07Z</time>
      </trkpt>
      <trkpt lat="47.3629930" lon="6.8316190">
        <ele>794.7</ele>
        <time>2022-07-20T15:55:08Z</time>
      </trkpt>
      <trkpt lat="47.3629930" lon="6.8316260">
        <ele>794.7</ele>
        <time>2022-07-20T15:55:09Z</time>
      </trkpt>
      <trkpt lat="47.3629930" lon="6.8316320">
        <ele>794.7</ele>
        <time>2022-07-20T15:55:10Z</time>
      </trkpt>
      <trkpt lat="47.3629930" lon="6.8316390">
        <ele>794.7</ele>
        <time>2022-07-20T15:55:11Z</time>
      </trkpt>
      <trkpt lat="47.3629930" lon="6.8316460">
        <ele>794.7</ele>
        <time>2022-07-20T15:55:12Z</time>
      </trkpt>
      <trkpt lat="47.3629920" lon="6.8316520">
        <ele>794.7</ele>
        <time>2022-07-20T15:55:13Z</time>
      </trkpt>
      <trkpt lat="47.3629920" lon="6.8316590">
        <ele>794.7</ele>
        <time>2022-07-20T15:55:14Z</time>
      </trkpt>
      <trkpt lat="47.3629920" lon="6.8316650">
        <ele>794.7</ele>
        <time>2022-07-20T15:55:15Z</time>
      </trkpt>
      <trkpt lat="47.3629920" lon="6.8316720">
        <ele>794.7</ele>
        <time>2022-07-20T15:55:16Z</time>
      </trkpt>
      <trkpt lat="47.3629920" lon="6.8316790">
        <ele>794.6</ele>
        <time>2022-07-20T15:55:17Z</time>
      </trkpt>
      <trkpt lat="47.3629920" lon="6.8316850">
        <ele>794.6</ele>
        <time>2022-07-20T15:55:18Z</time>
      </trkpt>
      <trkpt lat="47.3629920" lon="6.8316920">
        <ele>794.6</ele>
        <time>2022-07-20T15:55:19Z</time>
      </trkpt>
      <trkpt lat="47.3629920" lon="6.8316990">
        <ele>794.6</ele>
        <time>2022-07-20T15:55:20Z</time>
      </trkpt>
      <trkpt lat="47.3629920" lon="6.8317050">
        <ele>794.6</ele>
        <time>2022-07-20T15:55:21Z</time>
      </trkpt>
      <trkpt lat="47.3629920" lon="6.8317120">
        <ele>794.6</ele>
        <time>2022-07-20T15:55:22Z</time>
      </trkpt>
      <trkpt lat="47.3629920" lon="6.8317190">
        <ele>794.6</ele>
        <time>2022-07-20T15:55:23Z</time>
      </trkpt>
      <trkpt lat="47.3629920" lon="6.8317250">
        <ele>794.6</ele>
        <time>2022-07-20T15:55:24Z</time>
      </trkpt>
      <trkpt lat="47.3629920" lon="6.8317320">
        <ele>794.6</ele>
        <time>2022-07-20T15:55:25Z</time>
      </trkpt>
      <trkpt lat="47.3629920" lon="6.8317390">
        <ele>794.6</ele>
        <time>2022-07-20T15:56:26Z</time>
      </trkpt>
      <trkpt lat="47.3629920" lon="6.8317450">
        <ele>794.6</ele>
        <time>2022-07-20T15:56:27Z</time>
      </trkpt>
      <trkpt lat="47.3629920" lon="6.8317520">
        <ele>794.6</ele>
        <time>2022-07-20T15:56:28Z</time>
      </trkpt>
      <trkpt lat="47.3629920" lon="6.8317590">
        <ele>794.6</ele>
        <time>2022-07-20T15:56:29Z</time>
      </trkpt>
      <trkpt lat="47.3629950" lon="6.8317750">
        <ele>794.5</ele>
        <time>2022-07-20T15:56:30Z</time>
      </trkpt>
      <trkpt lat="47.3630030" lon="6.8317820">
        <ele>794.5</ele>
        <time>2022-07-20T15:56:31Z</time>
      </trkpt>
      <trkpt lat="47.3630190" lon="6.8317700">
        <ele>794.5</ele>
        <time>2022-07-20T15:56:32Z</time>
      </trkpt>
      <trkpt lat="47.3630190" lon="6.8317610">
        <ele>794.4</ele>
        <time>2022-07-20T15:56:33Z</time>
      </trkpt>
      <trkpt lat="47.3630180" lon="6.8317530">
        <ele>794.4</ele>
        <time>2022-07-20T15:56:34Z</time>
      </trkpt>
      <trkpt lat="47.3630160" lon="6.8317490">
        <ele>794.4</ele>
        <time>2022-07-20T15:56:35Z</time>
      </trkpt>
      <trkpt lat="47.3630140" lon="6.8317450">
        <ele>794.4</ele>
        <time>2022-07-20T15:56:36Z</time>
      </trkpt>
      <trkpt lat="47.3630090" lon="6.8317470">
        <ele>794.4</ele>
        <time>2022-07-20T15:56:37Z</time>
      </trkpt>
      <trkpt lat="47.3630050" lon="6.8317410">
        <ele>794.4</ele>
        <time>2022-07-20T15:56:38Z</time>
      </trkpt>
      <trkpt lat="47.3630010" lon="6.8317330">
        <ele>794.3</ele>
        <time>2022-07-20T15:56:39Z</time>
      </trkpt>
      <trkpt lat="47.3629970" lon="6.8317220">
        <ele>794.3</ele>
        <time>2022-07-20T15:56:40Z</time>
      </trkpt>
      <trkpt lat="47.3629910" lon="6.8317050">
        <ele>794.3</ele>
        <time>2022-07-20T15:56:41Z</time>
      </trkpt>
      <trkpt lat="47.3629860" lon="6.8316860">
        <ele>794.2</ele>
        <time>2022-07-20T15:56:42Z</time>
      </trkpt>
      <trkpt lat="47.3629790" lon="6.8316550">
        <ele>794.1</ele>
        <time>2022-07-20T15:56:43Z</time>
      </trkpt>
      <trkpt lat="47.3629770" lon="6.8316420">
        <ele>794.1</ele>
        <time>2022-07-20T15:56:44Z</time>
      </trkpt>
      <trkpt lat="47.3629750" lon="6.8316290">
        <ele>794.0</ele>
        <time>2022-07-20T15:56:45Z</time>
      </trkpt>
      <trkpt lat="47.3629640" lon="6.8316190">
        <ele>794.0</ele>
        <time>2022-07-20T15:56:46Z</time>
      </trkpt>
      <trkpt lat="47.3629550" lon="6.8316150">
        <ele>793.9</ele>
        <time>2022-07-20T15:56:47Z</time>
      </trkpt>
      <trkpt lat="47.3629510" lon="6.8316150">
        <ele>793.9</ele>
        <time>2022-07-20T15:56:48Z</time>
      </trkpt>
      <trkpt lat="47.3629540" lon="6.8316170">
        <ele>793.9</ele>
        <time>2022-07-20T15:56:49Z</time>
      </trkpt>
      <trkpt lat="47.3629610" lon="6.8316180">
        <ele>793.9</ele>
        <time>2022-07-20T15:56:50Z</time>
      </trkpt>
      <trkpt lat="47.3629660" lon="6.8316170">
        <ele>793.8</ele>
        <time>2022-07-20T15:56:51Z</time>
      </trkpt>
      <trkpt lat="47.3629690" lon="6.8316150">
        <ele>793.8</ele>
        <time>2022-07-20T15:56:52Z</time>
      </trkpt>
      <trkpt lat="47.3629710" lon="6.8316110">
        <ele>793.8</ele>
        <time>2022-07-20T15:56:53Z</time>
      </trkpt>
      <trkpt lat="47.3629730" lon="6.8316050">
        <ele>793.8</ele>
        <time>2022-07-20T15:56:54Z</time>
      </trkpt>
      <trkpt lat="47.3629740" lon="6.8316010">
        <ele>793.8</ele>
        <time>2022-07-20T15:56:55Z</time>
      </trkpt>
      <trkpt lat="47.3629680" lon="6.8315990">
        <ele>793.7</ele>
        <time>2022-07-20T15:56:56Z</time>
      </trkpt>
      <trkpt lat="47.3629620" lon="6.8315990">
        <ele>793.7</ele>
        <time>2022-07-20T15:56:57Z</time>
      </trkpt>
      <trkpt lat="47.3629560" lon="6.8315980">
        <ele>793.7</ele>
        <time>2022-07-20T15:56:58Z</time>
      </trkpt>
      <trkpt lat="47.3629550" lon="6.8315960">
        <ele>793.7</ele>
        <time>2022-07-20T15:56:59Z</time>
      </trkpt>
      <trkpt lat="47.3629520" lon="6.8315960">
        <ele>793.6</ele>
        <time>2022-07-20T15:57:00Z</time>
      </trkpt>
      <trkpt lat="47.3629450" lon="6.8315970">
        <ele>793.6</ele>
        <time>2022-07-20T15:57:01Z</time>
      </trkpt>
      <trkpt lat="47.3629390" lon="6.8315940">
        <ele>793.6</ele>
        <time>2022-07-20T15:57:02Z</time>
      </trkpt>
      <trkpt lat="47.3629340" lon="6.8315930">
        <ele>793.6</ele>
        <time>2022-07-20T15:57:03Z</time>
      </trkpt>
      <trkpt lat="47.3629270" lon="6.8315880">
        <ele>793.6</ele>
        <time>2022-07-20T15:57:04Z</time>
      </trkpt>
      <trkpt lat="47.3629200" lon="6.8315820">
        <ele>794.3</ele>
        <time>2022-07-20T15:57:05Z</time>
      </trkpt>
      <trkpt lat="47.3629140" lon="6.8315780">
        <ele>794.3</ele>
        <time>2022-07-20T15:57:06Z</time>
      </trkpt>
      <trkpt lat="47.3629090" lon="6.8315780">
        <ele>794.3</ele>
        <time>2022-07-20T15:57:07Z</time>
      </trkpt>
      <trkpt lat="47.3629040" lon="6.8315790">
        <ele>794.2</ele>
        <time>2022-07-20T15:57:08Z</time>
      </trkpt>
      <trkpt lat="47.3628990" lon="6.8315770">
        <ele>794.2</ele>
        <time>2022-07-20T15:57:09Z</time>
      </trkpt>
      <trkpt lat="47.3628960" lon="6.8315760">
        <ele>795.0</ele>
        <time>2022-07-20T15:57:10Z</time>
      </trkpt>
      <trkpt lat="47.3628950" lon="6.8315730">
        <ele>794.9</ele>
        <time>2022-07-20T15:57:11Z</time>
      </trkpt>
      <trkpt lat="47.3628910" lon="6.8315740">
        <ele>794.9</ele>
        <time>2022-07-20T15:57:12Z</time>
      </trkpt>
      <trkpt lat="47.3628860" lon="6.8315750">
        <ele>794.9</ele>
        <time>2022-07-20T15:57:13Z</time>
      </trkpt>
      <trkpt lat="47.3628840" lon="6.8315750">
        <ele>794.9</ele>
        <time>2022-07-20T15:57:14Z</time>
      </trkpt>
      <trkpt lat="47.3628830" lon="6.8315730">
        <ele>794.9</ele>
        <time>2022-07-20T15:57:15Z</time>
      </trkpt>
      <trkpt lat="47.3628810" lon="6.8315700">
        <ele>794.8</ele>
        <time>2022-07-20T15:57:16Z</time>
      </trkpt>
      <trkpt lat="47.3628790" lon="6.8315660">
        <ele>794.8</ele>
        <time>2022-07-20T15:57:17Z</time>
      </trkpt>
      <trkpt lat="47.3628800" lon="6.8315620">
        <ele>794.9</ele>
        <time>2022-07-20T15:57:18Z</time>
      </trkpt>
      <trkpt lat="47.3628800" lon="6.8315590">
        <ele>794.9</ele>
        <time>2022-07-20T15:57:19Z</time>
      </trkpt>
      <trkpt lat="47.3628700" lon="6.8315590">
        <ele>794.9</ele>
        <time>2022-07-20T15:57:20Z</time>
      </trkpt>
      <trkpt lat="47.3628580" lon="6.8315590">
        <ele>795.7</ele>
        <time>2022-07-20T15:57:21Z</time>
      </trkpt>
      <trkpt lat="47.3628510" lon="6.8315590">
        <ele>795.6</ele>
        <time>2022-07-20T15:57:22Z</time>
      </trkpt>
      <trkpt lat="47.3628450" lon="6.8315580">
        <ele>795.6</ele>
        <time>2022-07-20T15:57:23Z</time>
      </trkpt>
      <trkpt lat="47.3628420" lon="6.8315570">
        <ele>795.6</ele>
        <time>2022-07-20T15:57:24Z</time>
      </trkpt>
      <trkpt lat="47.3628390" lon="6.8315580">
        <ele>796.5</ele>
        <time>2022-07-20T15:57:25Z</time>
      </trkpt>
      <trkpt lat="47.3628380" lon="6.8315590">
        <ele>796.4</ele>
        <time>2022-07-20T15:57:26Z</time>
      </trkpt>
      <trkpt lat="47.3628350" lon="6.8315630">
        <ele>796.4</ele>
        <time>2022-07-20T15:57:27Z</time>
      </trkpt>
      <trkpt lat="47.3628280" lon="6.8315680">
        <ele>796.3</ele>
        <time>2022-07-20T15:57:28Z</time>
      </trkpt>
      <trkpt lat="47.3628190" lon="6.8315720">
        <ele>796.2</ele>
        <time>2022-07-20T15:57:29Z</time>
      </trkpt>
      <trkpt lat="47.3628090" lon="6.8315790">
        <ele>797.2</ele>
        <time>2022-07-20T15:57:30Z</time>
      </trkpt>
      <trkpt lat="47.3628040" lon="6.8315850">
        <ele>797.1</ele>
        <time>2022-07-20T15:57:31Z</time>
      </trkpt>
      <trkpt lat="47.3627970" lon="6.8315910">
        <ele>797.1</ele>
        <time>2022-07-20T15:57:32Z</time>
      </trkpt>
      <trkpt lat="47.3627900" lon="6.8315970">
        <ele>797.1</ele>
        <time>2022-07-20T15:57:33Z</time>
      </trkpt>
      <trkpt lat="47.3627840" lon="6.8316010">
        <ele>797.1</ele>
        <time>2022-07-20T15:57:34Z</time>
      </trkpt>
      <trkpt lat="47.3627810" lon="6.8316030">
        <ele>797.1</ele>
        <time>2022-07-20T15:57:35Z</time>
      </trkpt>
      <trkpt lat="47.3627740" lon="6.8316060">
        <ele>798.0</ele>
        <time>2022-07-20T15:57:36Z</time>
      </trkpt>
      <trkpt lat="47.3627650" lon="6.8316080">
        <ele>797.8</ele>
        <time>2022-07-20T15:57:37Z</time>
      </trkpt>
      <trkpt lat="47.3627560" lon="6.8316110">
        <ele>797.8</ele>
        <time>2022-07-20T15:57:38Z</time>
      </trkpt>
      <trkpt lat="47.3627420" lon="6.8316180">
        <ele>798.8</ele>
        <time>2022-07-20T15:57:39Z</time>
      </trkpt>
      <trkpt lat="47.3627350" lon="6.8316230">
        <ele>798.7</ele>
        <time>2022-07-20T15:57:40Z</time>
      </trkpt>
      <trkpt lat="47.3627280" lon="6.8316280">
        <ele>798.7</ele>
        <time>2022-07-20T15:57:41Z</time>
      </trkpt>
      <trkpt lat="47.3627220" lon="6.8316320">
        <ele>799.6</ele>
        <time>2022-07-20T15:57:42Z</time>
      </trkpt>
      <trkpt lat="47.3627140" lon="6.8316370">
        <ele>799.6</ele>
        <time>2022-07-20T15:57:43Z</time>
      </trkpt>
      <trkpt lat="47.3627060" lon="6.8316390">
        <ele>799.5</ele>
        <time>2022-07-20T15:57:44Z</time>
      </trkpt>
      <trkpt lat="47.3627000" lon="6.8316420">
        <ele>799.5</ele>
        <time>2022-07-20T15:57:45Z</time>
      </trkpt>
      <trkpt lat="47.3626930" lon="6.8316440">
        <ele>800.3</ele>
        <time>2022-07-20T15:57:46Z</time>
      </trkpt>
      <trkpt lat="47.3626850" lon="6.8316450">
        <ele>800.3</ele>
        <time>2022-07-20T15:57:47Z</time>
      </trkpt>
      <trkpt lat="47.3626760" lon="6.8316480">
        <ele>800.2</ele>
        <time>2022-07-20T15:57:48Z</time>
      </trkpt>
      <trkpt lat="47.3626720" lon="6.8316500">
        <ele>800.2</ele>
        <time>2022-07-20T15:57:49Z</time>
      </trkpt>
      <trkpt lat="47.3626690" lon="6.8316530">
        <ele>800.0</ele>
        <time>2022-07-20T15:57:50Z</time>
      </trkpt>
      <trkpt lat="47.3626680" lon="6.8316560">
        <ele>800.0</ele>
        <time>2022-07-20T15:57:51Z</time>
      </trkpt>
      <trkpt lat="47.3626630" lon="6.8316600">
        <ele>800.7</ele>
        <time>2022-07-20T15:57:52Z</time>
      </trkpt>
      <trkpt lat="47.3626600" lon="6.8316630">
        <ele>800.7</ele>
        <time>2022-07-20T15:57:53Z</time>
      </trkpt>
      <trkpt lat="47.3626550" lon="6.8316670">
        <ele>800.7</ele>
        <time>2022-07-20T15:57:54Z</time>
      </trkpt>
      <trkpt lat="47.3626470" lon="6.8316730">
        <ele>800.6</ele>
        <time>2022-07-20T15:57:55Z</time>
      </trkpt>
      <trkpt lat="47.3626370" lon="6.8316810">
        <ele>800.6</ele>
        <time>2022-07-20T15:57:56Z</time>
      </trkpt>
      <trkpt lat="47.3626310" lon="6.8316860">
        <ele>801.3</ele>
        <time>2022-07-20T15:57:57Z</time>
      </trkpt>
      <trkpt lat="47.3626250" lon="6.8316930">
        <ele>801.3</ele>
        <time>2022-07-20T15:57:58Z</time>
      </trkpt>
      <trkpt lat="47.3626180" lon="6.8316980">
        <ele>801.0</ele>
        <time>2022-07-20T15:57:59Z</time>
      </trkpt>
      <trkpt lat="47.3626110" lon="6.8317050">
        <ele>801.0</ele>
        <time>2022-07-20T15:58:00Z</time>
      </trkpt>
      <trkpt lat="47.3626060" lon="6.8317080">
        <ele>801.7</ele>
        <time>2022-07-20T15:58:01Z</time>
      </trkpt>
      <trkpt lat="47.3626000" lon="6.8317110">
        <ele>801.7</ele>
        <time>2022-07-20T15:58:02Z</time>
      </trkpt>
      <trkpt lat="47.3625940" lon="6.8317140">
        <ele>801.7</ele>
        <time>2022-07-20T15:58:03Z</time>
      </trkpt>
      <trkpt lat="47.3625910" lon="6.8317140">
        <ele>801.7</ele>
        <time>2022-07-20T15:58:04Z</time>
      </trkpt>
      <trkpt lat="47.3625880" lon="6.8317150">
        <ele>801.6</ele>
        <time>2022-07-20T15:58:05Z</time>
      </trkpt>
      <trkpt lat="47.3625840" lon="6.8317160">
        <ele>801.6</ele>
        <time>2022-07-20T15:58:06Z</time>
      </trkpt>
      <trkpt lat="47.3625790" lon="6.8317180">
        <ele>801.6</ele>
        <time>2022-07-20T15:58:07Z</time>
      </trkpt>
      <trkpt lat="47.3625740" lon="6.8317190">
        <ele>802.3</ele>
        <time>2022-07-20T15:58:08Z</time>
      </trkpt>
      <trkpt lat="47.3625690" lon="6.8317180">
        <ele>802.3</ele>
        <time>2022-07-20T15:58:09Z</time>
      </trkpt>
      <trkpt lat="47.3625650" lon="6.8317130">
        <ele>802.3</ele>
        <time>2022-07-20T15:58:10Z</time>
      </trkpt>
      <trkpt lat="47.3625620" lon="6.8317060">
        <ele>802.2</ele>
        <time>2022-07-20T15:58:11Z</time>
      </trkpt>
      <trkpt lat="47.3625580" lon="6.8317030">
        <ele>802.2</ele>
        <time>2022-07-20T15:58:12Z</time>
      </trkpt>
      <trkpt lat="47.3625580" lon="6.8316960">
        <ele>802.2</ele>
        <time>2022-07-20T15:58:13Z</time>
      </trkpt>
      <trkpt lat="47.3625610" lon="6.8316880">
        <ele>802.4</ele>
        <time>2022-07-20T15:58:14Z</time>
      </trkpt>
      <trkpt lat="47.3625630" lon="6.8316820">
        <ele>802.4</ele>
        <time>2022-07-20T15:58:15Z</time>
      </trkpt>
      <trkpt lat="47.3625600" lon="6.8316810">
        <ele>802.3</ele>
        <time>2022-07-20T15:58:16Z</time>
      </trkpt>
      <trkpt lat="47.3625580" lon="6.8316780">
        <ele>802.3</ele>
        <time>2022-07-20T15:58:17Z</time>
      </trkpt>
      <trkpt lat="47.3625540" lon="6.8316770">
        <ele>802.3</ele>
        <time>2022-07-20T15:58:18Z</time>
      </trkpt>
      <trkpt lat="47.3625530" lon="6.8316740">
        <ele>802.3</ele>
        <time>2022-07-20T15:58:19Z</time>
      </trkpt>
      <trkpt lat="47.3625560" lon="6.8316680">
        <ele>802.2</ele>
        <time>2022-07-20T15:58:20Z</time>
      </trkpt>
      <trkpt lat="47.3625610" lon="6.8316600">
        <ele>802.2</ele>
        <time>2022-07-20T15:58:21Z</time>
      </trkpt>
      <trkpt lat="47.3625580" lon="6.8316570">
        <ele>802.2</ele>
        <time>2022-07-20T15:58:22Z</time>
      </trkpt>
      <trkpt lat="47.3625530" lon="6.8316570">
        <ele>802.2</ele>
        <time>2022-07-20T15:58:23Z</time>
      </trkpt>
      <trkpt lat="47.3625470" lon="6.8316580">
        <ele>802.9</ele>
        <time>2022-07-20T15:58:24Z</time>
      </trkpt>
      <trkpt lat="47.3625420" lon="6.8316610">
        <ele>802.9</ele>
        <time>2022-07-20T15:58:25Z</time>
      </trkpt>
      <trkpt lat="47.3625350" lon="6.8316640">
        <ele>802.9</ele>
        <time>2022-07-20T15:58:26Z</time>
      </trkpt>
      <trkpt lat="47.3625270" lon="6.8316650">
        <ele>802.8</ele>
        <time>2022-07-20T15:58:27Z</time>
      </trkpt>
      <trkpt lat="47.3625210" lon="6.8316670">
        <ele>802.8</ele>
        <time>2022-07-20T15:58:28Z</time>
      </trkpt>
      <trkpt lat="47.3625160" lon="6.8316690">
        <ele>803.5</ele>
        <time>2022-07-20T15:58:29Z</time>
      </trkpt>
      <trkpt lat="47.3625140" lon="6.8316700">
        <ele>803.5</ele>
        <time>2022-07-20T15:58:30Z</time>
      </trkpt>
      <trkpt lat="47.3625090" lon="6.8316720">
        <ele>803.5</ele>
        <time>2022-07-20T15:58:31Z</time>
      </trkpt>
      <trkpt lat="47.3625040" lon="6.8316740">
        <ele>803.5</ele>
        <time>2022-07-20T15:58:32Z</time>
      </trkpt>
      <trkpt lat="47.3625000" lon="6.8316750">
        <ele>803.4</ele>
        <time>2022-07-20T15:58:33Z</time>
      </trkpt>
      <trkpt lat="47.3624880" lon="6.8316760">
        <ele>804.1</ele>
        <time>2022-07-20T15:58:34Z</time>
      </trkpt>
      <trkpt lat="47.3624800" lon="6.8316770">
        <ele>804.1</ele>
        <time>2022-07-20T15:58:35Z</time>
      </trkpt>
      <trkpt lat="47.3624720" lon="6.8316780">
        <ele>804.1</ele>
        <time>2022-07-20T15:58:36Z</time>
      </trkpt>
      <trkpt lat="47.3624640" lon="6.8316790">
        <ele>804.1</ele>
        <time>2022-07-20T15:58:37Z</time>
      </trkpt>
      <trkpt lat="47.3624570" lon="6.8316780">
        <ele>804.7</ele>
        <time>2022-07-20T15:58:38Z</time>
      </trkpt>
      <trkpt lat="47.3624520" lon="6.8316760">
        <ele>804.7</ele>
        <time>2022-07-20T15:58:39Z</time>
      </trkpt>
      <trkpt lat="47.3624450" lon="6.8316750">
        <ele>804.7</ele>
        <time>2022-07-20T15:58:40Z</time>
      </trkpt>
      <trkpt lat="47.3624370" lon="6.8316740">
        <ele>804.6</ele>
        <time>2022-07-20T15:58:41Z</time>
      </trkpt>
      <trkpt lat="47.3624320" lon="6.8316750">
        <ele>805.3</ele>
        <time>2022-07-20T15:58:42Z</time>
      </trkpt>
      <trkpt lat="47.3624250" lon="6.8316750">
        <ele>805.2</ele>
        <time>2022-07-20T15:58:43Z</time>
      </trkpt>
      <trkpt lat="47.3624180" lon="6.8316750">
        <ele>805.2</ele>
        <time>2022-07-20T15:58:44Z</time>
      </trkpt>
      <trkpt lat="47.3624090" lon="6.8316770">
        <ele>805.2</ele>
        <time>2022-07-20T15:58:45Z</time>
      </trkpt>
      <trkpt lat="47.3624000" lon="6.8316810">
        <ele>805.8</ele>
        <time>2022-07-20T15:58:46Z</time>
      </trkpt>
      <trkpt lat="47.3623910" lon="6.8316840">
        <ele>805.8</ele>
        <time>2022-07-20T15:58:47Z</time>
      </trkpt>
      <trkpt lat="47.3623830" lon="6.8316870">
        <ele>805.8</ele>
        <time>2022-07-20T15:58:48Z</time>
      </trkpt>
      <trkpt lat="47.3623800" lon="6.8316900">
        <ele>805.7</ele>
        <time>2022-07-20T15:58:49Z</time>
      </trkpt>
      <trkpt lat="47.3623780" lon="6.8316900">
        <ele>805.7</ele>
        <time>2022-07-20T15:58:50Z</time>
      </trkpt>
      <trkpt lat="47.3623750" lon="6.8316900">
        <ele>805.7</ele>
        <time>2022-07-20T15:58:51Z</time>
      </trkpt>
      <trkpt lat="47.3623710" lon="6.8316900">
        <ele>806.3</ele>
        <time>2022-07-20T15:58:52Z</time>
      </trkpt>
      <trkpt lat="47.3623640" lon="6.8316860">
        <ele>806.2</ele>
        <time>2022-07-20T15:58:53Z</time>
      </trkpt>
      <trkpt lat="47.3623550" lon="6.8316820">
        <ele>806.2</ele>
        <time>2022-07-20T15:58:54Z</time>
      </trkpt>
      <trkpt lat="47.3623470" lon="6.8316790">
        <ele>806.2</ele>
        <time>2022-07-20T15:58:55Z</time>
      </trkpt>
      <trkpt lat="47.3623390" lon="6.8316740">
        <ele>806.8</ele>
        <time>2022-07-20T15:58:56Z</time>
      </trkpt>
      <trkpt lat="47.3623320" lon="6.8316690">
        <ele>806.7</ele>
        <time>2022-07-20T15:58:57Z</time>
      </trkpt>
      <trkpt lat="47.3623250" lon="6.8316620">
        <ele>806.7</ele>
        <time>2022-07-20T15:58:58Z</time>
      </trkpt>
      <trkpt lat="47.3623150" lon="6.8316570">
        <ele>807.3</ele>
        <time>2022-07-20T15:58:59Z</time>
      </trkpt>
      <trkpt lat="47.3622850" lon="6.8316530">
        <ele>807.9</ele>
        <time>2022-07-20T15:59:00Z</time>
      </trkpt>
      <trkpt lat="47.3622730" lon="6.8316530">
        <ele>807.8</ele>
        <time>2022-07-20T15:59:01Z</time>
      </trkpt>
      <trkpt lat="47.3622550" lon="6.8316520">
        <ele>808.5</ele>
        <time>2022-07-20T15:59:02Z</time>
      </trkpt>
      <trkpt lat="47.3622420" lon="6.8316500">
        <ele>808.7</ele>
        <time>2022-07-20T15:59:03Z</time>
      </trkpt>
      <trkpt lat="47.3622340" lon="6.8316480">
        <ele>808.7</ele>
        <time>2022-07-20T15:59:04Z</time>
      </trkpt>
      <trkpt lat="47.3622270" lon="6.8316470">
        <ele>809.4</ele>
        <time>2022-07-20T15:59:05Z</time>
      </trkpt>
      <trkpt lat="47.3622190" lon="6.8316510">
        <ele>809.0</ele>
        <time>2022-07-20T15:59:06Z</time>
      </trkpt>
      <trkpt lat="47.3622130" lon="6.8316480">
        <ele>809.3</ele>
        <time>2022-07-20T15:59:07Z</time>
      </trkpt>
      <trkpt lat="47.3622050" lon="6.8316430">
        <ele>809.3</ele>
        <time>2022-07-20T15:59:08Z</time>
      </trkpt>
      <trkpt lat="47.3622000" lon="6.8316390">
        <ele>809.3</ele>
        <time>2022-07-20T15:59:09Z</time>
      </trkpt>
      <trkpt lat="47.3621940" lon="6.8316390">
        <ele>809.9</ele>
        <time>2022-07-20T15:59:10Z</time>
      </trkpt>
      <trkpt lat="47.3621890" lon="6.8316410">
        <ele>809.9</ele>
        <time>2022-07-20T15:59:11Z</time>
      </trkpt>
      <trkpt lat="47.3621820" lon="6.8316470">
        <ele>809.8</ele>
        <time>2022-07-20T15:59:12Z</time>
      </trkpt>
      <trkpt lat="47.3621760" lon="6.8316540">
        <ele>809.5</ele>
        <time>2022-07-20T15:59:13Z</time>
      </trkpt>
      <trkpt lat="47.3621720" lon="6.8316580">
        <ele>809.5</ele>
        <time>2022-07-20T15:59:14Z</time>
      </trkpt>
      <trkpt lat="47.3621700" lon="6.8316570">
        <ele>810.0</ele>
        <time>2022-07-20T15:59:15Z</time>
      </trkpt>
      <trkpt lat="47.3621690" lon="6.8316530">
        <ele>810.0</ele>
        <time>2022-07-20T15:59:16Z</time>
      </trkpt>
      <trkpt lat="47.3621660" lon="6.8316530">
        <ele>809.9</ele>
        <time>2022-07-20T15:59:17Z</time>
      </trkpt>
      <trkpt lat="47.3621610" lon="6.8316560">
        <ele>809.8</ele>
        <time>2022-07-20T15:59:18Z</time>
      </trkpt>
      <trkpt lat="47.3621620" lon="6.8316620">
        <ele>809.8</ele>
        <time>2022-07-20T15:59:19Z</time>
      </trkpt>
      <trkpt lat="47.3621650" lon="6.8316710">
        <ele>809.8</ele>
        <time>2022-07-20T15:59:20Z</time>
      </trkpt>
      <trkpt lat="47.3621630" lon="6.8316760">
        <ele>809.7</ele>
        <time>2022-07-20T15:59:21Z</time>
      </trkpt>
      <trkpt lat="47.3621600" lon="6.8316850">
        <ele>809.7</ele>
        <time>2022-07-20T15:59:22Z</time>
      </trkpt>
      <trkpt lat="47.3621550" lon="6.8316980">
        <ele>809.3</ele>
        <time>2022-07-20T15:59:23Z</time>
      </trkpt>
      <trkpt lat="47.3621520" lon="6.8317150">
        <ele>809.3</ele>
        <time>2022-07-20T15:59:24Z</time>
      </trkpt>
      <trkpt lat="47.3621470" lon="6.8317320">
        <ele>809.3</ele>
        <time>2022-07-20T15:59:25Z</time>
      </trkpt>
      <trkpt lat="47.3621380" lon="6.8317550">
        <ele>809.1</ele>
        <time>2022-07-20T15:59:26Z</time>
      </trkpt>
      <trkpt lat="47.3621190" lon="6.8317940">
        <ele>809.1</ele>
        <time>2022-07-20T15:59:27Z</time>
      </trkpt>
      <trkpt lat="47.3621110" lon="6.8318090">
        <ele>809.1</ele>
        <time>2022-07-20T15:59:28Z</time>
      </trkpt>
      <trkpt lat="47.3620960" lon="6.8318450">
        <ele>808.9</ele>
        <time>2022-07-20T15:59:29Z</time>
      </trkpt>
      <trkpt lat="47.3620830" lon="6.8318850">
        <ele>808.9</ele>
        <time>2022-07-20T15:59:30Z</time>
      </trkpt>
      <trkpt lat="47.3620800" lon="6.8318980">
        <ele>808.8</ele>
        <time>2022-07-20T15:59:31Z</time>
      </trkpt>
      <trkpt lat="47.3620720" lon="6.8319410">
        <ele>808.7</ele>
        <time>2022-07-20T15:59:32Z</time>
      </trkpt>
      <trkpt lat="47.3620700" lon="6.8319550">
        <ele>808.7</ele>
        <time>2022-07-20T15:59:33Z</time>
      </trkpt>
      <trkpt lat="47.3620690" lon="6.8319790">
        <ele>808.6</ele>
        <time>2022-07-20T15:59:34Z</time>
      </trkpt>
      <trkpt lat="47.3620680" lon="6.8320050">
        <ele>808.5</ele>
        <time>2022-07-20T15:59:35Z</time>
      </trkpt>
      <trkpt lat="47.3620610" lon="6.8320470">
        <ele>808.5</ele>
        <time>2022-07-20T15:59:36Z</time>
      </trkpt>
      <trkpt lat="47.3620580" lon="6.8320590">
        <ele>808.4</ele>
        <time>2022-07-20T15:59:37Z</time>
      </trkpt>
      <trkpt lat="47.3620610" lon="6.8321030">
        <ele>808.3</ele>
        <time>2022-07-20T15:59:38Z</time>
      </trkpt>
      <trkpt lat="47.3620620" lon="6.8321140">
        <ele>808.2</ele>
        <time>2022-07-20T15:59:39Z</time>
      </trkpt>
      <trkpt lat="47.3620670" lon="6.8321330">
        <ele>808.1</ele>
        <time>2022-07-20T15:59:40Z</time>
      </trkpt>
      <trkpt lat="47.3620700" lon="6.8321580">
        <ele>808.1</ele>
        <time>2022-07-20T15:59:41Z</time>
      </trkpt>
      <trkpt lat="47.3620700" lon="6.8322080">
        <ele>807.9</ele>
        <time>2022-07-20T15:59:42Z</time>
      </trkpt>
      <trkpt lat="47.3620700" lon="6.8322270">
        <ele>807.8</ele>
        <time>2022-07-20T15:59:43Z</time>
      </trkpt>
      <trkpt lat="47.3620680" lon="6.8322830">
        <ele>807.7</ele>
        <time>2022-07-20T15:59:44Z</time>
      </trkpt>
      <trkpt lat="47.3620660" lon="6.8323000">
        <ele>807.6</ele>
        <time>2022-07-20T15:59:45Z</time>
      </trkpt>
      <trkpt lat="47.3620540" lon="6.8323430">
        <ele>807.4</ele>
        <time>2022-07-20T15:59:46Z</time>
      </trkpt>
      <trkpt lat="47.3620410" lon="6.8323880">
        <ele>807.2</ele>
        <time>2022-07-20T15:59:47Z</time>
      </trkpt>
      <trkpt lat="47.3620320" lon="6.8324340">
        <ele>807.0</ele>
        <time>2022-07-20T15:59:48Z</time>
      </trkpt>
      <trkpt lat="47.3620280" lon="6.8324780">
        <ele>806.9</ele>
        <time>2022-07-20T15:59:49Z</time>
      </trkpt>
      <trkpt lat="47.3620230" lon="6.8325360">
        <ele>806.7</ele>
        <time>2022-07-20T15:59:50Z</time>
      </trkpt>
      <trkpt lat="47.3620150" lon="6.8326040">
        <ele>806.4</ele>
        <time>2022-07-20T15:59:51Z</time>
      </trkpt>
      <trkpt lat="47.3620030" lon="6.8326740">
        <ele>806.2</ele>
        <time>2022-07-20T15:59:52Z</time>
      </trkpt>
      <trkpt lat="47.3619930" lon="6.8327310">
        <ele>806.0</ele>
        <time>2022-07-20T15:59:53Z</time>
      </trkpt>
      <trkpt lat="47.3619910" lon="6.8327840">
        <ele>805.8</ele>
        <time>2022-07-20T15:59:54Z</time>
      </trkpt>
      <trkpt lat="47.3619920" lon="6.8328010">
        <ele>805.8</ele>
        <time>2022-07-20T15:59:55Z</time>
      </trkpt>
      <trkpt lat="47.3619970" lon="6.8328460">
        <ele>805.6</ele>
        <time>2022-07-20T15:59:56Z</time>
      </trkpt>
      <trkpt lat="47.3619990" lon="6.8328630">
        <ele>805.5</ele>
        <time>2022-07-20T15:59:57Z</time>
      </trkpt>
      <trkpt lat="47.3620010" lon="6.8329140">
        <ele>805.3</ele>
        <time>2022-07-20T15:59:58Z</time>
      </trkpt>
      <trkpt lat="47.3620010" lon="6.8329340">
        <ele>805.3</ele>
        <time>2022-07-20T15:59:59Z</time>
      </trkpt>
      <trkpt lat="47.3619980" lon="6.8329850">
        <ele>805.1</ele>
        <time>2022-07-20T16:00:00Z</time>
      </trkpt>
      <trkpt lat="47.3619930" lon="6.8330270">
        <ele>804.9</ele>
        <time>2022-07-20T16:00:01Z</time>
      </trkpt>
      <trkpt lat="47.3619860" lon="6.8330790">
        <ele>804.8</ele>
        <time>2022-07-20T16:00:02Z</time>
      </trkpt>
      <trkpt lat="47.3619830" lon="6.8331010">
        <ele>804.7</ele>
        <time>2022-07-20T16:00:03Z</time>
      </trkpt>
      <trkpt lat="47.3619760" lon="6.8331650">
        <ele>804.4</ele>
        <time>2022-07-20T16:00:04Z</time>
      </trkpt>
      <trkpt lat="47.3619740" lon="6.8332250">
        <ele>804.3</ele>
        <time>2022-07-20T16:00:05Z</time>
      </trkpt>
      <trkpt lat="47.3619760" lon="6.8332530">
        <ele>804.1</ele>
        <time>2022-07-20T16:00:06Z</time>
      </trkpt>
      <trkpt lat="47.3619770" lon="6.8332720">
        <ele>804.1</ele>
        <time>2022-07-20T16:00:07Z</time>
      </trkpt>
      <trkpt lat="47.3619760" lon="6.8332900">
        <ele>804.0</ele>
        <time>2022-07-20T16:00:08Z</time>
      </trkpt>
      <trkpt lat="47.3619750" lon="6.8333030">
        <ele>803.9</ele>
        <time>2022-07-20T16:00:09Z</time>
      </trkpt>
      <trkpt lat="47.3619730" lon="6.8333140">
        <ele>803.9</ele>
        <time>2022-07-20T16:00:10Z</time>
      </trkpt>
      <trkpt lat="47.3619710" lon="6.8333300">
        <ele>803.8</ele>
        <time>2022-07-20T16:00:11Z</time>
      </trkpt>
      <trkpt lat="47.3619710" lon="6.8333440">
        <ele>803.8</ele>
        <time>2022-07-20T16:00:12Z</time>
      </trkpt>
      <trkpt lat="47.3619710" lon="6.8333650">
        <ele>803.6</ele>
        <time>2022-07-20T16:00:13Z</time>
      </trkpt>
      <trkpt lat="47.3619700" lon="6.8333870">
        <ele>803.5</ele>
        <time>2022-07-20T16:00:14Z</time>
      </trkpt>
      <trkpt lat="47.3619710" lon="6.8334120">
        <ele>803.4</ele>
        <time>2022-07-20T16:00:15Z</time>
      </trkpt>
      <trkpt lat="47.3619740" lon="6.8334330">
        <ele>803.4</ele>
        <time>2022-07-20T16:00:16Z</time>
      </trkpt>
      <trkpt lat="47.3619750" lon="6.8334530">
        <ele>803.3</ele>
        <time>2022-07-20T16:00:17Z</time>
      </trkpt>
      <trkpt lat="47.3619810" lon="6.8335010">
        <ele>803.1</ele>
        <time>2022-07-20T16:00:18Z</time>
      </trkpt>
      <trkpt lat="47.3619830" lon="6.8335170">
        <ele>803.0</ele>
        <time>2022-07-20T16:00:19Z</time>
      </trkpt>
      <trkpt lat="47.3619870" lon="6.8335780">
        <ele>802.8</ele>
        <time>2022-07-20T16:00:21Z</time>
      </trkpt>
      <trkpt lat="47.3619860" lon="6.8336470">
        <ele>802.6</ele>
        <time>2022-07-20T16:00:22Z</time>
      </trkpt>
      <trkpt lat="47.3619840" lon="6.8336770">
        <ele>802.4</ele>
        <time>2022-07-20T16:00:23Z</time>
      </trkpt>
      <trkpt lat="47.3619840" lon="6.8337470">
        <ele>802.2</ele>
        <time>2022-07-20T16:00:25Z</time>
      </trkpt>
      <trkpt lat="47.3619880" lon="6.8337870">
        <ele>802.1</ele>
        <time>2022-07-20T16:00:26Z</time>
      </trkpt>
      <trkpt lat="47.3619910" lon="6.8338350">
        <ele>801.9</ele>
        <time>2022-07-20T16:00:27Z</time>
      </trkpt>
      <trkpt lat="47.3619920" lon="6.8338490">
        <ele>801.9</ele>
        <time>2022-07-20T16:00:28Z</time>
      </trkpt>
      <trkpt lat="47.3620040" lon="6.8338900">
        <ele>801.7</ele>
        <time>2022-07-20T16:00:29Z</time>
      </trkpt>
      <trkpt lat="47.3620080" lon="6.8339030">
        <ele>801.7</ele>
        <time>2022-07-20T16:00:30Z</time>
      </trkpt>
      <trkpt lat="47.3620180" lon="6.8339480">
        <ele>801.6</ele>
        <time>2022-07-20T16:00:32Z</time>
      </trkpt>
      <trkpt lat="47.3620180" lon="6.8339600">
        <ele>801.5</ele>
        <time>2022-07-20T16:00:33Z</time>
      </trkpt>
      <trkpt lat="47.3620140" lon="6.8339840">
        <ele>801.4</ele>
        <time>2022-07-20T16:00:34Z</time>
      </trkpt>
      <trkpt lat="47.3620110" lon="6.8339930">
        <ele>801.4</ele>
        <time>2022-07-20T16:00:35Z</time>
      </trkpt>
      <trkpt lat="47.3620070" lon="6.8340020">
        <ele>801.4</ele>
        <time>2022-07-20T16:00:36Z</time>
      </trkpt>
      <trkpt lat="47.3620040" lon="6.8340110">
        <ele>801.4</ele>
        <time>2022-07-20T16:00:38Z</time>
      </trkpt>
      <trkpt lat="47.3620010" lon="6.8340200">
        <ele>801.3</ele>
        <time>2022-07-20T16:00:39Z</time>
      </trkpt>
      <trkpt lat="47.3619980" lon="6.8340290">
        <ele>801.3</ele>
        <time>2022-07-20T16:00:40Z</time>
      </trkpt>
      <trkpt lat="47.3619950" lon="6.8340380">
        <ele>801.3</ele>
        <time>2022-07-20T16:00:41Z</time>
      </trkpt>
      <trkpt lat="47.3619920" lon="6.8340470">
        <ele>801.2</ele>
        <time>2022-07-20T16:00:42Z</time>
      </trkpt>
      <trkpt lat="47.3619880" lon="6.8340560">
        <ele>801.2</ele>
        <time>2022-07-20T16:00:43Z</time>
      </trkpt>
      <trkpt lat="47.3619850" lon="6.8340650">
        <ele>801.2</ele>
        <time>2022-07-20T16:00:44Z</time>
      </trkpt>
      <trkpt lat="47.3619820" lon="6.8340730">
        <ele>801.2</ele>
        <time>2022-07-20T16:00:45Z</time>
      </trkpt>
      <trkpt lat="47.3619790" lon="6.8340820">
        <ele>801.2</ele>
        <time>2022-07-20T16:00:50Z</time>
      </trkpt>
      <trkpt lat="47.3619760" lon="6.8340910">
        <ele>801.1</ele>
        <time>2022-07-20T16:00:51Z</time>
      </trkpt>
      <trkpt lat="47.3619730" lon="6.8341000">
        <ele>801.1</ele>
        <time>2022-07-20T16:00:53Z</time>
      </trkpt>
      <trkpt lat="47.3619690" lon="6.8341090">
        <ele>801.1</ele>
        <time>2022-07-20T16:00:54Z</time>
      </trkpt>
      <trkpt lat="47.3619660" lon="6.8341180">
        <ele>801.1</ele>
        <time>2022-07-20T16:00:55Z</time>
      </trkpt>
      <trkpt lat="47.3619680" lon="6.8341570">
        <ele>801.0</ele>
        <time>2022-07-20T16:00:56Z</time>
      </trkpt>
      <trkpt lat="47.3619680" lon="6.8341750">
        <ele>801.0</ele>
        <time>2022-07-20T16:00:57Z</time>
      </trkpt>
      <trkpt lat="47.3619670" lon="6.8341940">
        <ele>801.0</ele>
        <time>2022-07-20T16:00:58Z</time>
      </trkpt>
      <trkpt lat="47.3619680" lon="6.8342070">
        <ele>800.9</ele>
        <time>2022-07-20T16:00:59Z</time>
      </trkpt>
      <trkpt lat="47.3619700" lon="6.8342200">
        <ele>800.9</ele>
        <time>2022-07-20T16:01:00Z</time>
      </trkpt>
      <trkpt lat="47.3619730" lon="6.8342420">
        <ele>800.9</ele>
        <time>2022-07-20T16:01:01Z</time>
      </trkpt>
      <trkpt lat="47.3619740" lon="6.8342750">
        <ele>800.9</ele>
        <time>2022-07-20T16:01:03Z</time>
      </trkpt>
      <trkpt lat="47.3619740" lon="6.8342910">
        <ele>800.8</ele>
        <time>2022-07-20T16:01:04Z</time>
      </trkpt>
      <trkpt lat="47.3619740" lon="6.8343030">
        <ele>800.8</ele>
        <time>2022-07-20T16:01:05Z</time>
      </trkpt>
      <trkpt lat="47.3619760" lon="6.8343160">
        <ele>800.8</ele>
        <time>2022-07-20T16:01:06Z</time>
      </trkpt>
      <trkpt lat="47.3619770" lon="6.8343310">
        <ele>800.8</ele>
        <time>2022-07-20T16:01:07Z</time>
      </trkpt>
      <trkpt lat="47.3619780" lon="6.8343440">
        <ele>800.8</ele>
        <time>2022-07-20T16:01:08Z</time>
      </trkpt>
      <trkpt lat="47.3619840" lon="6.8343610">
        <ele>800.8</ele>
        <time>2022-07-20T16:01:09Z</time>
      </trkpt>
      <trkpt lat="47.3619890" lon="6.8343730">
        <ele>800.7</ele>
        <time>2022-07-20T16:01:11Z</time>
      </trkpt>
      <trkpt lat="47.3619930" lon="6.8343810">
        <ele>800.7</ele>
        <time>2022-07-20T16:01:12Z</time>
      </trkpt>
      <trkpt lat="47.3619960" lon="6.8343850">
        <ele>800.7</ele>
        <time>2022-07-20T16:01:13Z</time>
      </trkpt>
      <trkpt lat="47.3619970" lon="6.8343940">
        <ele>800.7</ele>
        <time>2022-07-20T16:01:14Z</time>
      </trkpt>
      <trkpt lat="47.3619970" lon="6.8343980">
        <ele>800.7</ele>
        <time>2022-07-20T16:01:15Z</time>
      </trkpt>
      <trkpt lat="47.3619940" lon="6.8343940">
        <ele>800.7</ele>
        <time>2022-07-20T16:01:16Z</time>
      </trkpt>
      <trkpt lat="47.3619920" lon="6.8343920">
        <ele>800.7</ele>
        <time>2022-07-20T16:01:17Z</time>
      </trkpt>
      <trkpt lat="47.3619900" lon="6.8343910">
        <ele>800.7</ele>
        <time>2022-07-20T16:01:18Z</time>
      </trkpt>
      <trkpt lat="47.3619890" lon="6.8343920">
        <ele>800.7</ele>
        <time>2022-07-20T16:01:19Z</time>
      </trkpt>
      <trkpt lat="47.3619910" lon="6.8344110">
        <ele>800.7</ele>
        <time>2022-07-20T16:01:20Z</time>
      </trkpt>
      <trkpt lat="47.3619930" lon="6.8344570">
        <ele>800.6</ele>
        <time>2022-07-20T16:01:22Z</time>
      </trkpt>
      <trkpt lat="47.3619790" lon="6.8345000">
        <ele>800.6</ele>
        <time>2022-07-20T16:01:23Z</time>
      </trkpt>
      <trkpt lat="47.3619750" lon="6.8345130">
        <ele>800.6</ele>
        <time>2022-07-20T16:01:24Z</time>
      </trkpt>
      <trkpt lat="47.3619580" lon="6.8345470">
        <ele>800.6</ele>
        <time>2022-07-20T16:01:26Z</time>
      </trkpt>
      <trkpt lat="47.3619450" lon="6.8345610">
        <ele>800.5</ele>
        <time>2022-07-20T16:01:27Z</time>
      </trkpt>
      <trkpt lat="47.3619320" lon="6.8345770">
        <ele>800.5</ele>
        <time>2022-07-20T16:01:28Z</time>
      </trkpt>
      <trkpt lat="47.3619100" lon="6.8346360">
        <ele>800.5</ele>
        <time>2022-07-20T16:01:30Z</time>
      </trkpt>
      <trkpt lat="47.3619090" lon="6.8346580">
        <ele>800.5</ele>
        <time>2022-07-20T16:01:31Z</time>
      </trkpt>
      <trkpt lat="47.3619080" lon="6.8346800">
        <ele>800.5</ele>
        <time>2022-07-20T16:01:32Z</time>
      </trkpt>
      <trkpt lat="47.3619050" lon="6.8346980">
        <ele>800.5</ele>
        <time>2022-07-20T16:01:33Z</time>
      </trkpt>
      <trkpt lat="47.3619050" lon="6.8347210">
        <ele>800.5</ele>
        <time>2022-07-20T16:01:34Z</time>
      </trkpt>
      <trkpt lat="47.3619100" lon="6.8347870">
        <ele>800.5</ele>
        <time>2022-07-20T16:01:36Z</time>
      </trkpt>
      <trkpt lat="47.3619120" lon="6.8348070">
        <ele>800.5</ele>
        <time>2022-07-20T16:01:37Z</time>
      </trkpt>
      <trkpt lat="47.3619130" lon="6.8348280">
        <ele>800.5</ele>
        <time>2022-07-20T16:01:38Z</time>
      </trkpt>
      <trkpt lat="47.3619130" lon="6.8348540">
        <ele>800.5</ele>
        <time>2022-07-20T16:01:40Z</time>
      </trkpt>
      <trkpt lat="47.3619130" lon="6.8348630">
        <ele>800.5</ele>
        <time>2022-07-20T16:01:41Z</time>
      </trkpt>
      <trkpt lat="47.3619140" lon="6.8348660">
        <ele>800.5</ele>
        <time>2022-07-20T16:01:42Z</time>
      </trkpt>
      <trkpt lat="47.3619150" lon="6.8348670">
        <ele>800.5</ele>
        <time>2022-07-20T16:01:43Z</time>
      </trkpt>
      <trkpt lat="47.3619170" lon="6.8348690">
        <ele>800.5</ele>
        <time>2022-07-20T16:01:44Z</time>
      </trkpt>
      <trkpt lat="47.3619180" lon="6.8348700">
        <ele>800.5</ele>
        <time>2022-07-20T16:01:45Z</time>
      </trkpt>
      <trkpt lat="47.3619190" lon="6.8348710">
        <ele>800.5</ele>
        <time>2022-07-20T16:01:46Z</time>
      </trkpt>
      <trkpt lat="47.3619190" lon="6.8348730">
        <ele>800.5</ele>
        <time>2022-07-20T16:01:47Z</time>
      </trkpt>
      <trkpt lat="47.3619190" lon="6.8348750">
        <ele>800.5</ele>
        <time>2022-07-20T16:01:48Z</time>
      </trkpt>
      <trkpt lat="47.3619190" lon="6.8348830">
        <ele>800.5</ele>
        <time>2022-07-20T16:01:49Z</time>
      </trkpt>
      <trkpt lat="47.3619210" lon="6.8349160">
        <ele>800.4</ele>
        <time>2022-07-20T16:01:50Z</time>
      </trkpt>
      <trkpt lat="47.3619210" lon="6.8349580">
        <ele>800.4</ele>
        <time>2022-07-20T16:01:51Z</time>
      </trkpt>
      <trkpt lat="47.3619210" lon="6.8349710">
        <ele>800.4</ele>
        <time>2022-07-20T16:01:52Z</time>
      </trkpt>
      <trkpt lat="47.3619260" lon="6.8349990">
        <ele>800.3</ele>
        <time>2022-07-20T16:01:53Z</time>
      </trkpt>
      <trkpt lat="47.3619270" lon="6.8350090">
        <ele>800.3</ele>
        <time>2022-07-20T16:01:54Z</time>
      </trkpt>
      <trkpt lat="47.3619270" lon="6.8350150">
        <ele>800.3</ele>
        <time>2022-07-20T16:01:55Z</time>
      </trkpt>
      <trkpt lat="47.3619280" lon="6.8350170">
        <ele>800.3</ele>
        <time>2022-07-20T16:01:56Z</time>
      </trkpt>
      <trkpt lat="47.3619280" lon="6.8350190">
        <ele>800.3</ele>
        <time>2022-07-20T16:01:57Z</time>
      </trkpt>
      <trkpt lat="47.3619290" lon="6.8350250">
        <ele>800.3</ele>
        <time>2022-07-20T16:01:59Z</time>
      </trkpt>
      <trkpt lat="47.3619290" lon="6.8350260">
        <ele>800.3</ele>
        <time>2022-07-20T16:02:00Z</time>
      </trkpt>
      <trkpt lat="47.3619300" lon="6.8350270">
        <ele>800.3</ele>
        <time>2022-07-20T16:02:01Z</time>
      </trkpt>
      <trkpt lat="47.3619330" lon="6.8350310">
        <ele>800.3</ele>
        <time>2022-07-20T16:02:02Z</time>
      </trkpt>
      <trkpt lat="47.3619350" lon="6.8350340">
        <ele>800.3</ele>
        <time>2022-07-20T16:02:03Z</time>
      </trkpt>
      <trkpt lat="47.3619370" lon="6.8350370">
        <ele>800.3</ele>
        <time>2022-07-20T16:02:04Z</time>
      </trkpt>
      <trkpt lat="47.3619510" lon="6.8351160">
        <ele>800.1</ele>
        <time>2022-07-20T16:02:14Z</time>
      </trkpt>
      <trkpt lat="47.3619520" lon="6.8351450">
        <ele>800.1</ele>
        <time>2022-07-20T16:02:15Z</time>
      </trkpt>
      <trkpt lat="47.3619560" lon="6.8351670">
        <ele>800.1</ele>
        <time>2022-07-20T16:02:16Z</time>
      </trkpt>
      <trkpt lat="47.3619550" lon="6.8352050">
        <ele>800.0</ele>
        <time>2022-07-20T16:02:17Z</time>
      </trkpt>
      <trkpt lat="47.3619540" lon="6.8352230">
        <ele>800.0</ele>
        <time>2022-07-20T16:02:18Z</time>
      </trkpt>
      <trkpt lat="47.3619520" lon="6.8352680">
        <ele>800.0</ele>
        <time>2022-07-20T16:02:19Z</time>
      </trkpt>
      <trkpt lat="47.3619520" lon="6.8352840">
        <ele>800.0</ele>
        <time>2022-07-20T16:02:20Z</time>
      </trkpt>
      <trkpt lat="47.3619550" lon="6.8353090">
        <ele>800.0</ele>
        <time>2022-07-20T16:02:22Z</time>
      </trkpt>
      <trkpt lat="47.3619590" lon="6.8353240">
        <ele>799.9</ele>
        <time>2022-07-20T16:02:23Z</time>
      </trkpt>
      <trkpt lat="47.3619690" lon="6.8353710">
        <ele>799.9</ele>
        <time>2022-07-20T16:02:24Z</time>
      </trkpt>
      <trkpt lat="47.3619730" lon="6.8353890">
        <ele>799.8</ele>
        <time>2022-07-20T16:02:25Z</time>
      </trkpt>
      <trkpt lat="47.3619840" lon="6.8354510">
        <ele>799.8</ele>
        <time>2022-07-20T16:02:27Z</time>
      </trkpt>
      <trkpt lat="47.3619850" lon="6.8354710">
        <ele>799.7</ele>
        <time>2022-07-20T16:02:28Z</time>
      </trkpt>
      <trkpt lat="47.3619860" lon="6.8354900">
        <ele>799.7</ele>
        <time>2022-07-20T16:02:29Z</time>
      </trkpt>
      <trkpt lat="47.3619750" lon="6.8355270">
        <ele>799.6</ele>
        <time>2022-07-20T16:02:30Z</time>
      </trkpt>
      <trkpt lat="47.3619690" lon="6.8355570">
        <ele>799.5</ele>
        <time>2022-07-20T16:02:32Z</time>
      </trkpt>
      <trkpt lat="47.3619670" lon="6.8356010">
        <ele>799.5</ele>
        <time>2022-07-20T16:02:33Z</time>
      </trkpt>
      <trkpt lat="47.3619670" lon="6.8356540">
        <ele>799.3</ele>
        <time>2022-07-20T16:02:34Z</time>
      </trkpt>
      <trkpt lat="47.3619670" lon="6.8356760">
        <ele>799.3</ele>
        <time>2022-07-20T16:02:35Z</time>
      </trkpt>
      <trkpt lat="47.3619700" lon="6.8357170">
        <ele>799.2</ele>
        <time>2022-07-20T16:02:36Z</time>
      </trkpt>
      <trkpt lat="47.3619640" lon="6.8358110">
        <ele>799.0</ele>
        <time>2022-07-20T16:02:38Z</time>
      </trkpt>
      <trkpt lat="47.3619620" lon="6.8358600">
        <ele>798.9</ele>
        <time>2022-07-20T16:02:39Z</time>
      </trkpt>
      <trkpt lat="47.3619640" lon="6.8359030">
        <ele>798.8</ele>
        <time>2022-07-20T16:02:40Z</time>
      </trkpt>
      <trkpt lat="47.3619730" lon="6.8359530">
        <ele>798.7</ele>
        <time>2022-07-20T16:02:41Z</time>
      </trkpt>
      <trkpt lat="47.3619770" lon="6.8359670">
        <ele>798.7</ele>
        <time>2022-07-20T16:02:42Z</time>
      </trkpt>
      <trkpt lat="47.3619820" lon="6.8360180">
        <ele>798.6</ele>
        <time>2022-07-20T16:02:43Z</time>
      </trkpt>
      <trkpt lat="47.3619810" lon="6.8360410">
        <ele>798.5</ele>
        <time>2022-07-20T16:02:44Z</time>
      </trkpt>
      <trkpt lat="47.3619760" lon="6.8360810">
        <ele>798.4</ele>
        <time>2022-07-20T16:02:46Z</time>
      </trkpt>
      <trkpt lat="47.3619690" lon="6.8361230">
        <ele>798.3</ele>
        <time>2022-07-20T16:02:47Z</time>
      </trkpt>
      <trkpt lat="47.3619600" lon="6.8361770">
        <ele>798.2</ele>
        <time>2022-07-20T16:02:48Z</time>
      </trkpt>
      <trkpt lat="47.3619560" lon="6.8361970">
        <ele>798.2</ele>
        <time>2022-07-20T16:02:49Z</time>
      </trkpt>
      <trkpt lat="47.3619480" lon="6.8362360">
        <ele>798.1</ele>
        <time>2022-07-20T16:02:50Z</time>
      </trkpt>
      <trkpt lat="47.3619390" lon="6.8362750">
        <ele>798.0</ele>
        <time>2022-07-20T16:02:51Z</time>
      </trkpt>
      <trkpt lat="47.3619260" lon="6.8363250">
        <ele>797.9</ele>
        <time>2022-07-20T16:02:52Z</time>
      </trkpt>
      <trkpt lat="47.3619220" lon="6.8363400">
        <ele>797.8</ele>
        <time>2022-07-20T16:02:53Z</time>
      </trkpt>
      <trkpt lat="47.3619010" lon="6.8363890">
        <ele>797.7</ele>
        <time>2022-07-20T16:02:55Z</time>
      </trkpt>
      <trkpt lat="47.3618980" lon="6.8364020">
        <ele>797.7</ele>
        <time>2022-07-20T16:02:56Z</time>
      </trkpt>
      <trkpt lat="47.3618940" lon="6.8364140">
        <ele>797.7</ele>
        <time>2022-07-20T16:02:57Z</time>
      </trkpt>
      <trkpt lat="47.3618910" lon="6.8364270">
        <ele>797.6</ele>
        <time>2022-07-20T16:02:58Z</time>
      </trkpt>
      <trkpt lat="47.3618870" lon="6.8364730">
        <ele>797.5</ele>
        <time>2022-07-20T16:02:59Z</time>
      </trkpt>
      <trkpt lat="47.3618860" lon="6.8364890">
        <ele>797.5</ele>
        <time>2022-07-20T16:03:00Z</time>
      </trkpt>
      <trkpt lat="47.3618780" lon="6.8365520">
        <ele>797.4</ele>
        <time>2022-07-20T16:03:02Z</time>
      </trkpt>
      <trkpt lat="47.3618730" lon="6.8365690">
        <ele>797.4</ele>
        <time>2022-07-20T16:03:03Z</time>
      </trkpt>
      <trkpt lat="47.3618680" lon="6.8365870">
        <ele>797.4</ele>
        <time>2022-07-20T16:03:04Z</time>
      </trkpt>
      <trkpt lat="47.3618570" lon="6.8366200">
        <ele>797.3</ele>
        <time>2022-07-20T16:03:05Z</time>
      </trkpt>
      <trkpt lat="47.3618510" lon="6.8366630">
        <ele>797.3</ele>
        <time>2022-07-20T16:03:07Z</time>
      </trkpt>
      <trkpt lat="47.3618500" lon="6.8366870">
        <ele>797.2</ele>
        <time>2022-07-20T16:03:08Z</time>
      </trkpt>
      <trkpt lat="47.3618510" lon="6.8367110">
        <ele>797.2</ele>
        <time>2022-07-20T16:03:09Z</time>
      </trkpt>
      <trkpt lat="47.3618580" lon="6.8367570">
        <ele>797.2</ele>
        <time>2022-07-20T16:03:10Z</time>
      </trkpt>
      <trkpt lat="47.3618610" lon="6.8367700">
        <ele>797.2</ele>
        <time>2022-07-20T16:03:11Z</time>
      </trkpt>
      <trkpt lat="47.3618630" lon="6.8368360">
        <ele>797.1</ele>
        <time>2022-07-20T16:03:13Z</time>
      </trkpt>
      <trkpt lat="47.3618630" lon="6.8368600">
        <ele>797.1</ele>
        <time>2022-07-20T16:03:14Z</time>
      </trkpt>
      <trkpt lat="47.3618630" lon="6.8368850">
        <ele>797.1</ele>
        <time>2022-07-20T16:03:15Z</time>
      </trkpt>
      <trkpt lat="47.3618680" lon="6.8369350">
        <ele>797.0</ele>
        <time>2022-07-20T16:03:16Z</time>
      </trkpt>
      <trkpt lat="47.3618790" lon="6.8369800">
        <ele>797.0</ele>
        <time>2022-07-20T16:03:18Z</time>
      </trkpt>
      <trkpt lat="47.3618830" lon="6.8369940">
        <ele>797.0</ele>
        <time>2022-07-20T16:03:19Z</time>
      </trkpt>
      <trkpt lat="47.3618860" lon="6.8370490">
        <ele>796.9</ele>
        <time>2022-07-20T16:03:20Z</time>
      </trkpt>
      <trkpt lat="47.3618870" lon="6.8370670">
        <ele>796.9</ele>
        <time>2022-07-20T16:03:21Z</time>
      </trkpt>
      <trkpt lat="47.3618850" lon="6.8371190">
        <ele>796.9</ele>
        <time>2022-07-20T16:03:22Z</time>
      </trkpt>
      <trkpt lat="47.3618890" lon="6.8371420">
        <ele>796.8</ele>
        <time>2022-07-20T16:03:24Z</time>
      </trkpt>
      <trkpt lat="47.3618920" lon="6.8371540">
        <ele>796.8</ele>
        <time>2022-07-20T16:03:25Z</time>
      </trkpt>
      <trkpt lat="47.3618950" lon="6.8371660">
        <ele>796.8</ele>
        <time>2022-07-20T16:03:26Z</time>
      </trkpt>
      <trkpt lat="47.3618970" lon="6.8371780">
        <ele>796.8</ele>
        <time>2022-07-20T16:03:27Z</time>
      </trkpt>
      <trkpt lat="47.3619010" lon="6.8372030">
        <ele>796.8</ele>
        <time>2022-07-20T16:03:28Z</time>
      </trkpt>
      <trkpt lat="47.3619030" lon="6.8372240">
        <ele>796.8</ele>
        <time>2022-07-20T16:03:29Z</time>
      </trkpt>
      <trkpt lat="47.3619040" lon="6.8372450">
        <ele>796.7</ele>
        <time>2022-07-20T16:03:30Z</time>
      </trkpt>
      <trkpt lat="47.3619030" lon="6.8372860">
        <ele>796.7</ele>
        <time>2022-07-20T16:03:32Z</time>
      </trkpt>
      <trkpt lat="47.3618970" lon="6.8373430">
        <ele>796.6</ele>
        <time>2022-07-20T16:03:33Z</time>
      </trkpt>
      <trkpt lat="47.3618960" lon="6.8373660">
        <ele>796.6</ele>
        <time>2022-07-20T16:03:34Z</time>
      </trkpt>
      <trkpt lat="47.3618940" lon="6.8374160">
        <ele>796.5</ele>
        <time>2022-07-20T16:03:35Z</time>
      </trkpt>
      <trkpt lat="47.3618930" lon="6.8374290">
        <ele>796.5</ele>
        <time>2022-07-20T16:03:36Z</time>
      </trkpt>
      <trkpt lat="47.3618880" lon="6.8374500">
        <ele>796.5</ele>
        <time>2022-07-20T16:03:37Z</time>
      </trkpt>
      <trkpt lat="47.3618830" lon="6.8374720">
        <ele>796.5</ele>
        <time>2022-07-20T16:03:38Z</time>
      </trkpt>
      <trkpt lat="47.3618770" lon="6.8375050">
        <ele>796.4</ele>
        <time>2022-07-20T16:03:39Z</time>
      </trkpt>
      <trkpt lat="47.3618730" lon="6.8375250">
        <ele>796.4</ele>
        <time>2022-07-20T16:03:41Z</time>
      </trkpt>
      <trkpt lat="47.3618700" lon="6.8375490">
        <ele>796.4</ele>
        <time>2022-07-20T16:03:42Z</time>
      </trkpt>
      <trkpt lat="47.3618660" lon="6.8375760">
        <ele>796.3</ele>
        <time>2022-07-20T16:03:43Z</time>
      </trkpt>
      <trkpt lat="47.3618670" lon="6.8375820">
        <ele>796.3</ele>
        <time>2022-07-20T16:03:44Z</time>
      </trkpt>
      <trkpt lat="47.3618690" lon="6.8375830">
        <ele>796.3</ele>
        <time>2022-07-20T16:03:45Z</time>
      </trkpt>
      <trkpt lat="47.3618730" lon="6.8375850">
        <ele>796.3</ele>
        <time>2022-07-20T16:03:46Z</time>
      </trkpt>
      <trkpt lat="47.3618770" lon="6.8375880">
        <ele>796.3</ele>
        <time>2022-07-20T16:03:47Z</time>
      </trkpt>
      <trkpt lat="47.3618810" lon="6.8375920">
        <ele>796.3</ele>
        <time>2022-07-20T16:03:48Z</time>
      </trkpt>
      <trkpt lat="47.3618850" lon="6.8375960">
        <ele>796.3</ele>
        <time>2022-07-20T16:03:49Z</time>
      </trkpt>
      <trkpt lat="47.3618870" lon="6.8375990">
        <ele>796.3</ele>
        <time>2022-07-20T16:03:50Z</time>
      </trkpt>
      <trkpt lat="47.3618900" lon="6.8376030">
        <ele>796.3</ele>
        <time>2022-07-20T16:03:51Z</time>
      </trkpt>
      <trkpt lat="47.3618980" lon="6.8376370">
        <ele>796.2</ele>
        <time>2022-07-20T16:03:53Z</time>
      </trkpt>
      <trkpt lat="47.3619050" lon="6.8376610">
        <ele>796.2</ele>
        <time>2022-07-20T16:03:57Z</time>
      </trkpt>
      <trkpt lat="47.3619110" lon="6.8376860">
        <ele>796.1</ele>
        <time>2022-07-20T16:03:58Z</time>
      </trkpt>
      <trkpt lat="47.3619180" lon="6.8377100">
        <ele>796.1</ele>
        <time>2022-07-20T16:03:59Z</time>
      </trkpt>
      <trkpt lat="47.3619270" lon="6.8377540">
        <ele>796.1</ele>
        <time>2022-07-20T16:04:01Z</time>
      </trkpt>
      <trkpt lat="47.3619360" lon="6.8377980">
        <ele>796.0</ele>
        <time>2022-07-20T16:04:02Z</time>
      </trkpt>
      <trkpt lat="47.3619500" lon="6.8378580">
        <ele>795.9</ele>
        <time>2022-07-20T16:04:03Z</time>
      </trkpt>
      <trkpt lat="47.3619640" lon="6.8378950">
        <ele>795.8</ele>
        <time>2022-07-20T16:04:04Z</time>
      </trkpt>
      <trkpt lat="47.3619790" lon="6.8379480">
        <ele>795.8</ele>
        <time>2022-07-20T16:04:05Z</time>
      </trkpt>
      <trkpt lat="47.3619840" lon="6.8379660">
        <ele>795.7</ele>
        <time>2022-07-20T16:04:06Z</time>
      </trkpt>
      <trkpt lat="47.3619970" lon="6.8380130">
        <ele>795.7</ele>
        <time>2022-07-20T16:04:07Z</time>
      </trkpt>
      <trkpt lat="47.3620010" lon="6.8380290">
        <ele>795.6</ele>
        <time>2022-07-20T16:04:08Z</time>
      </trkpt>
      <trkpt lat="47.3620130" lon="6.8380800">
        <ele>795.5</ele>
        <time>2022-07-20T16:04:09Z</time>
      </trkpt>
      <trkpt lat="47.3620240" lon="6.8381240">
        <ele>795.4</ele>
        <time>2022-07-20T16:04:10Z</time>
      </trkpt>
      <trkpt lat="47.3620390" lon="6.8381810">
        <ele>795.3</ele>
        <time>2022-07-20T16:04:12Z</time>
      </trkpt>
      <trkpt lat="47.3620400" lon="6.8381900">
        <ele>795.3</ele>
        <time>2022-07-20T16:04:13Z</time>
      </trkpt>
      <trkpt lat="47.3620410" lon="6.8382000">
        <ele>795.3</ele>
        <time>2022-07-20T16:04:15Z</time>
      </trkpt>
      <trkpt lat="47.3620420" lon="6.8382100">
        <ele>795.2</ele>
        <time>2022-07-20T16:04:16Z</time>
      </trkpt>
      <trkpt lat="47.3620430" lon="6.8382200">
        <ele>795.2</ele>
        <time>2022-07-20T16:04:17Z</time>
      </trkpt>
      <trkpt lat="47.3620430" lon="6.8382290">
        <ele>795.2</ele>
        <time>2022-07-20T16:04:18Z</time>
      </trkpt>
      <trkpt lat="47.3620440" lon="6.8382390">
        <ele>795.2</ele>
        <time>2022-07-20T16:04:19Z</time>
      </trkpt>
      <trkpt lat="47.3620450" lon="6.8382490">
        <ele>795.1</ele>
        <time>2022-07-20T16:04:20Z</time>
      </trkpt>
      <trkpt lat="47.3620460" lon="6.8382590">
        <ele>795.1</ele>
        <time>2022-07-20T16:04:21Z</time>
      </trkpt>
      <trkpt lat="47.3620470" lon="6.8382680">
        <ele>795.1</ele>
        <time>2022-07-20T16:04:22Z</time>
      </trkpt>
      <trkpt lat="47.3620480" lon="6.8382780">
        <ele>795.1</ele>
        <time>2022-07-20T16:04:23Z</time>
      </trkpt>
      <trkpt lat="47.3620490" lon="6.8382880">
        <ele>795.0</ele>
        <time>2022-07-20T16:04:25Z</time>
      </trkpt>
      <trkpt lat="47.3620490" lon="6.8382980">
        <ele>795.0</ele>
        <time>2022-07-20T16:04:26Z</time>
      </trkpt>
      <trkpt lat="47.3620500" lon="6.8383070">
        <ele>795.0</ele>
        <time>2022-07-20T16:04:27Z</time>
      </trkpt>
      <trkpt lat="47.3620510" lon="6.8383170">
        <ele>795.0</ele>
        <time>2022-07-20T16:04:28Z</time>
      </trkpt>
      <trkpt lat="47.3620520" lon="6.8383270">
        <ele>794.9</ele>
        <time>2022-07-20T16:04:37Z</time>
      </trkpt>
      <trkpt lat="47.3620530" lon="6.8383360">
        <ele>794.9</ele>
        <time>2022-07-20T16:04:38Z</time>
      </trkpt>
      <trkpt lat="47.3620540" lon="6.8383460">
        <ele>794.9</ele>
        <time>2022-07-20T16:04:39Z</time>
      </trkpt>
      <trkpt lat="47.3620610" lon="6.8383850">
        <ele>794.8</ele>
        <time>2022-07-20T16:04:40Z</time>
      </trkpt>
      <trkpt lat="47.3620670" lon="6.8384190">
        <ele>794.7</ele>
        <time>2022-07-20T16:04:41Z</time>
      </trkpt>
      <trkpt lat="47.3620840" lon="6.8384760">
        <ele>794.5</ele>
        <time>2022-07-20T16:04:43Z</time>
      </trkpt>
      <trkpt lat="47.3621050" lon="6.8385310">
        <ele>794.3</ele>
        <time>2022-07-20T16:04:44Z</time>
      </trkpt>
      <trkpt lat="47.3621200" lon="6.8385760">
        <ele>794.2</ele>
        <time>2022-07-20T16:04:45Z</time>
      </trkpt>
      <trkpt lat="47.3621250" lon="6.8386000">
        <ele>794.1</ele>
        <time>2022-07-20T16:04:46Z</time>
      </trkpt>
      <trkpt lat="47.3621400" lon="6.8386500">
        <ele>794.0</ele>
        <time>2022-07-20T16:04:48Z</time>
      </trkpt>
      <trkpt lat="47.3621440" lon="6.8386700">
        <ele>793.9</ele>
        <time>2022-07-20T16:04:49Z</time>
      </trkpt>
      <trkpt lat="47.3621470" lon="6.8387160">
        <ele>793.8</ele>
        <time>2022-07-20T16:04:50Z</time>
      </trkpt>
      <trkpt lat="47.3621440" lon="6.8387720">
        <ele>793.7</ele>
        <time>2022-07-20T16:04:52Z</time>
      </trkpt>
      <trkpt lat="47.3621440" lon="6.8387920">
        <ele>793.7</ele>
        <time>2022-07-20T16:04:53Z</time>
      </trkpt>
      <trkpt lat="47.3621470" lon="6.8388420">
        <ele>793.6</ele>
        <time>2022-07-20T16:04:54Z</time>
      </trkpt>
      <trkpt lat="47.3621470" lon="6.8389120">
        <ele>793.4</ele>
        <time>2022-07-20T16:04:56Z</time>
      </trkpt>
      <trkpt lat="47.3621430" lon="6.8389640">
        <ele>793.3</ele>
        <time>2022-07-20T16:04:57Z</time>
      </trkpt>
      <trkpt lat="47.3621340" lon="6.8390260">
        <ele>793.2</ele>
        <time>2022-07-20T16:04:58Z</time>
      </trkpt>
      <trkpt lat="47.3621310" lon="6.8390830">
        <ele>793.0</ele>
        <time>2022-07-20T16:04:59Z</time>
      </trkpt>
      <trkpt lat="47.3621260" lon="6.8391330">
        <ele>793.0</ele>
        <time>2022-07-20T16:05:01Z</time>
      </trkpt>
      <trkpt lat="47.3621240" lon="6.8391460">
        <ele>793.1</ele>
        <time>2022-07-20T16:05:02Z</time>
      </trkpt>
      <trkpt lat="47.3621220" lon="6.8391770">
        <ele>793.3</ele>
        <time>2022-07-20T16:05:03Z</time>
      </trkpt>
      <trkpt lat="47.3621230" lon="6.8391910">
        <ele>793.4</ele>
        <time>2022-07-20T16:05:04Z</time>
      </trkpt>
      <trkpt lat="47.3621220" lon="6.8392040">
        <ele>793.5</ele>
        <time>2022-07-20T16:05:05Z</time>
      </trkpt>
      <trkpt lat="47.3621200" lon="6.8392100">
        <ele>793.6</ele>
        <time>2022-07-20T16:05:06Z</time>
      </trkpt>
      <trkpt lat="47.3621180" lon="6.8392150">
        <ele>793.6</ele>
        <time>2022-07-20T16:05:07Z</time>
      </trkpt>
      <trkpt lat="47.3621160" lon="6.8392200">
        <ele>793.6</ele>
        <time>2022-07-20T16:05:08Z</time>
      </trkpt>
      <trkpt lat="47.3621150" lon="6.8392250">
        <ele>793.7</ele>
        <time>2022-07-20T16:05:09Z</time>
      </trkpt>
      <trkpt lat="47.3621130" lon="6.8392310">
        <ele>793.7</ele>
        <time>2022-07-20T16:05:10Z</time>
      </trkpt>
      <trkpt lat="47.3621110" lon="6.8392360">
        <ele>793.8</ele>
        <time>2022-07-20T16:05:11Z</time>
      </trkpt>
      <trkpt lat="47.3621090" lon="6.8392410">
        <ele>793.8</ele>
        <time>2022-07-20T16:05:12Z</time>
      </trkpt>
      <trkpt lat="47.3621070" lon="6.8392460">
        <ele>793.8</ele>
        <time>2022-07-20T16:05:13Z</time>
      </trkpt>
      <trkpt lat="47.3621050" lon="6.8392520">
        <ele>793.9</ele>
        <time>2022-07-20T16:05:14Z</time>
      </trkpt>
      <trkpt lat="47.3621030" lon="6.8392570">
        <ele>793.9</ele>
        <time>2022-07-20T16:06:17Z</time>
      </trkpt>
      <trkpt lat="47.3621010" lon="6.8392620">
        <ele>794.0</ele>
        <time>2022-07-20T16:06:18Z</time>
      </trkpt>
      <trkpt lat="47.3620990" lon="6.8392670">
        <ele>794.0</ele>
        <time>2022-07-20T16:06:19Z</time>
      </trkpt>
      <trkpt lat="47.3620970" lon="6.8392730">
        <ele>794.1</ele>
        <time>2022-07-20T16:06:20Z</time>
      </trkpt>
      <trkpt lat="47.3620860" lon="6.8392850">
        <ele>794.2</ele>
        <time>2022-07-20T16:06:21Z</time>
      </trkpt>
      <trkpt lat="47.3620700" lon="6.8392950">
        <ele>794.4</ele>
        <time>2022-07-20T16:06:22Z</time>
      </trkpt>
      <trkpt lat="47.3620580" lon="6.8393020">
        <ele>794.6</ele>
        <time>2022-07-20T16:06:23Z</time>
      </trkpt>
      <trkpt lat="47.3620490" lon="6.8393070">
        <ele>794.7</ele>
        <time>2022-07-20T16:06:24Z</time>
      </trkpt>
      <trkpt lat="47.3620390" lon="6.8393120">
        <ele>794.8</ele>
        <time>2022-07-20T16:06:25Z</time>
      </trkpt>
      <trkpt lat="47.3620180" lon="6.8393230">
        <ele>795.1</ele>
        <time>2022-07-20T16:06:26Z</time>
      </trkpt>
      <trkpt lat="47.3620100" lon="6.8393270">
        <ele>795.2</ele>
        <time>2022-07-20T16:06:27Z</time>
      </trkpt>
      <trkpt lat="47.3620020" lon="6.8393310">
        <ele>795.3</ele>
        <time>2022-07-20T16:06:28Z</time>
      </trkpt>
      <trkpt lat="47.3619830" lon="6.8393350">
        <ele>795.6</ele>
        <time>2022-07-20T16:06:29Z</time>
      </trkpt>
      <trkpt lat="47.3619740" lon="6.8393380">
        <ele>795.7</ele>
        <time>2022-07-20T16:06:30Z</time>
      </trkpt>
      <trkpt lat="47.3619660" lon="6.8393400">
        <ele>795.8</ele>
        <time>2022-07-20T16:06:31Z</time>
      </trkpt>
      <trkpt lat="47.3619540" lon="6.8393460">
        <ele>796.0</ele>
        <time>2022-07-20T16:06:32Z</time>
      </trkpt>
      <trkpt lat="47.3619370" lon="6.8393550">
        <ele>796.3</ele>
        <time>2022-07-20T16:06:33Z</time>
      </trkpt>
      <trkpt lat="47.3619290" lon="6.8393590">
        <ele>796.4</ele>
        <time>2022-07-20T16:06:34Z</time>
      </trkpt>
      <trkpt lat="47.3619240" lon="6.8393620">
        <ele>796.5</ele>
        <time>2022-07-20T16:06:35Z</time>
      </trkpt>
      <trkpt lat="47.3619210" lon="6.8393650">
        <ele>796.6</ele>
        <time>2022-07-20T16:06:36Z</time>
      </trkpt>
      <trkpt lat="47.3619160" lon="6.8393610">
        <ele>796.7</ele>
        <time>2022-07-20T16:06:37Z</time>
      </trkpt>
      <trkpt lat="47.3619040" lon="6.8393550">
        <ele>796.9</ele>
        <time>2022-07-20T16:06:38Z</time>
      </trkpt>
      <trkpt lat="47.3619020" lon="6.8393550">
        <ele>796.9</ele>
        <time>2022-07-20T16:06:39Z</time>
      </trkpt>
      <trkpt lat="47.3618960" lon="6.8393500">
        <ele>797.0</ele>
        <time>2022-07-20T16:06:40Z</time>
      </trkpt>
      <trkpt lat="47.3618900" lon="6.8393430">
        <ele>797.1</ele>
        <time>2022-07-20T16:06:41Z</time>
      </trkpt>
      <trkpt lat="47.3618860" lon="6.8393340">
        <ele>797.3</ele>
        <time>2022-07-20T16:06:42Z</time>
      </trkpt>
      <trkpt lat="47.3618780" lon="6.8393200">
        <ele>797.5</ele>
        <time>2022-07-20T16:06:43Z</time>
      </trkpt>
      <trkpt lat="47.3618730" lon="6.8393160">
        <ele>797.6</ele>
        <time>2022-07-20T16:06:44Z</time>
      </trkpt>
      <trkpt lat="47.3618620" lon="6.8393180">
        <ele>797.7</ele>
        <time>2022-07-20T16:06:45Z</time>
      </trkpt>
      <trkpt lat="47.3618500" lon="6.8393170">
        <ele>797.9</ele>
        <time>2022-07-20T16:06:46Z</time>
      </trkpt>
      <trkpt lat="47.3618390" lon="6.8393140">
        <ele>798.1</ele>
        <time>2022-07-20T16:06:48Z</time>
      </trkpt>
      <trkpt lat="47.3618350" lon="6.8393120">
        <ele>798.2</ele>
        <time>2022-07-20T16:06:49Z</time>
      </trkpt>
      <trkpt lat="47.3618330" lon="6.8393090">
        <ele>798.2</ele>
        <time>2022-07-20T16:06:50Z</time>
      </trkpt>
      <trkpt lat="47.3618260" lon="6.8393040">
        <ele>798.3</ele>
        <time>2022-07-20T16:06:51Z</time>
      </trkpt>
      <trkpt lat="47.3618230" lon="6.8393030">
        <ele>798.4</ele>
        <time>2022-07-20T16:06:52Z</time>
      </trkpt>
      <trkpt lat="47.3618110" lon="6.8393010">
        <ele>798.6</ele>
        <time>2022-07-20T16:06:54Z</time>
      </trkpt>
      <trkpt lat="47.3618040" lon="6.8393020">
        <ele>798.7</ele>
        <time>2022-07-20T16:06:55Z</time>
      </trkpt>
      <trkpt lat="47.3617920" lon="6.8393050">
        <ele>798.9</ele>
        <time>2022-07-20T16:06:56Z</time>
      </trkpt>
      <trkpt lat="47.3617740" lon="6.8393080">
        <ele>799.1</ele>
        <time>2022-07-20T16:06:58Z</time>
      </trkpt>
      <trkpt lat="47.3617620" lon="6.8393110">
        <ele>799.3</ele>
        <time>2022-07-20T16:06:59Z</time>
      </trkpt>
      <trkpt lat="47.3617450" lon="6.8393120">
        <ele>799.6</ele>
        <time>2022-07-20T16:07:00Z</time>
      </trkpt>
      <trkpt lat="47.3617310" lon="6.8393100">
        <ele>799.8</ele>
        <time>2022-07-20T16:07:01Z</time>
      </trkpt>
      <trkpt lat="47.3617150" lon="6.8393090">
        <ele>800.0</ele>
        <time>2022-07-20T16:07:02Z</time>
      </trkpt>
      <trkpt lat="47.3617060" lon="6.8393090">
        <ele>800.1</ele>
        <time>2022-07-20T16:07:03Z</time>
      </trkpt>
      <trkpt lat="47.3616950" lon="6.8393140">
        <ele>800.3</ele>
        <time>2022-07-20T16:07:05Z</time>
      </trkpt>
      <trkpt lat="47.3616930" lon="6.8393170">
        <ele>800.4</ele>
        <time>2022-07-20T16:07:06Z</time>
      </trkpt>
      <trkpt lat="47.3616900" lon="6.8393190">
        <ele>800.4</ele>
        <time>2022-07-20T16:07:07Z</time>
      </trkpt>
      <trkpt lat="47.3616870" lon="6.8393240">
        <ele>800.5</ele>
        <time>2022-07-20T16:07:09Z</time>
      </trkpt>
      <trkpt lat="47.3616840" lon="6.8393290">
        <ele>800.5</ele>
        <time>2022-07-20T16:07:10Z</time>
      </trkpt>
      <trkpt lat="47.3616820" lon="6.8393330">
        <ele>800.6</ele>
        <time>2022-07-20T16:07:11Z</time>
      </trkpt>
      <trkpt lat="47.3616800" lon="6.8393360">
        <ele>800.6</ele>
        <time>2022-07-20T16:07:12Z</time>
      </trkpt>
      <trkpt lat="47.3616730" lon="6.8393400">
        <ele>800.8</ele>
        <time>2022-07-20T16:07:13Z</time>
      </trkpt>
      <trkpt lat="47.3616520" lon="6.8393430">
        <ele>801.1</ele>
        <time>2022-07-20T16:07:14Z</time>
      </trkpt>
      <trkpt lat="47.3616420" lon="6.8393450">
        <ele>801.2</ele>
        <time>2022-07-20T16:07:15Z</time>
      </trkpt>
      <trkpt lat="47.3616320" lon="6.8393460">
        <ele>801.4</ele>
        <time>2022-07-20T16:07:17Z</time>
      </trkpt>
      <trkpt lat="47.3616220" lon="6.8393470">
        <ele>801.5</ele>
        <time>2022-07-20T16:07:19Z</time>
      </trkpt>
      <trkpt lat="47.3616120" lon="6.8393480">
        <ele>801.6</ele>
        <time>2022-07-20T16:07:20Z</time>
      </trkpt>
      <trkpt lat="47.3616020" lon="6.8393500">
        <ele>801.8</ele>
        <time>2022-07-20T16:07:21Z</time>
      </trkpt>
      <trkpt lat="47.3615910" lon="6.8393470">
        <ele>801.9</ele>
        <time>2022-07-20T16:07:22Z</time>
      </trkpt>
      <trkpt lat="47.3615830" lon="6.8393470">
        <ele>802.1</ele>
        <time>2022-07-20T16:07:23Z</time>
      </trkpt>
      <trkpt lat="47.3615790" lon="6.8393480">
        <ele>802.1</ele>
        <time>2022-07-20T16:07:25Z</time>
      </trkpt>
      <trkpt lat="47.3615780" lon="6.8393500">
        <ele>802.1</ele>
        <time>2022-07-20T16:07:26Z</time>
      </trkpt>
      <trkpt lat="47.3615750" lon="6.8393510">
        <ele>802.2</ele>
        <time>2022-07-20T16:07:27Z</time>
      </trkpt>
      <trkpt lat="47.3615700" lon="6.8393520">
        <ele>802.2</ele>
        <time>2022-07-20T16:07:28Z</time>
      </trkpt>
      <trkpt lat="47.3615660" lon="6.8393540">
        <ele>802.3</ele>
        <time>2022-07-20T16:07:29Z</time>
      </trkpt>
      <trkpt lat="47.3615570" lon="6.8393600">
        <ele>802.4</ele>
        <time>2022-07-20T16:07:31Z</time>
      </trkpt>
      <trkpt lat="47.3615510" lon="6.8393670">
        <ele>802.6</ele>
        <time>2022-07-20T16:07:32Z</time>
      </trkpt>
      <trkpt lat="47.3615490" lon="6.8393720">
        <ele>802.6</ele>
        <time>2022-07-20T16:07:33Z</time>
      </trkpt>
      <trkpt lat="47.3615470" lon="6.8393780">
        <ele>802.7</ele>
        <time>2022-07-20T16:07:34Z</time>
      </trkpt>
      <trkpt lat="47.3615430" lon="6.8393840">
        <ele>802.7</ele>
        <time>2022-07-20T16:07:35Z</time>
      </trkpt>
      <trkpt lat="47.3615340" lon="6.8393950">
        <ele>802.9</ele>
        <time>2022-07-20T16:07:37Z</time>
      </trkpt>
      <trkpt lat="47.3615290" lon="6.8394010">
        <ele>803.0</ele>
        <time>2022-07-20T16:07:38Z</time>
      </trkpt>
      <trkpt lat="47.3615240" lon="6.8394060">
        <ele>803.1</ele>
        <time>2022-07-20T16:07:39Z</time>
      </trkpt>
      <trkpt lat="47.3615190" lon="6.8394110">
        <ele>803.1</ele>
        <time>2022-07-20T16:07:40Z</time>
      </trkpt>
      <trkpt lat="47.3615110" lon="6.8394160">
        <ele>803.3</ele>
        <time>2022-07-20T16:07:41Z</time>
      </trkpt>
      <trkpt lat="47.3615070" lon="6.8394160">
        <ele>803.3</ele>
        <time>2022-07-20T16:07:42Z</time>
      </trkpt>
      <trkpt lat="47.3615060" lon="6.8394150">
        <ele>803.3</ele>
        <time>2022-07-20T16:07:43Z</time>
      </trkpt>
      <trkpt lat="47.3615040" lon="6.8394130">
        <ele>803.4</ele>
        <time>2022-07-20T16:07:44Z</time>
      </trkpt>
      <trkpt lat="47.3615010" lon="6.8394120">
        <ele>803.4</ele>
        <time>2022-07-20T16:07:45Z</time>
      </trkpt>
      <trkpt lat="47.3614930" lon="6.8394110">
        <ele>803.5</ele>
        <time>2022-07-20T16:07:47Z</time>
      </trkpt>
      <trkpt lat="47.3614830" lon="6.8394070">
        <ele>803.6</ele>
        <time>2022-07-20T16:07:48Z</time>
      </trkpt>
      <trkpt lat="47.3614760" lon="6.8394030">
        <ele>803.7</ele>
        <time>2022-07-20T16:07:49Z</time>
      </trkpt>
      <trkpt lat="47.3614700" lon="6.8394010">
        <ele>803.8</ele>
        <time>2022-07-20T16:07:50Z</time>
      </trkpt>
      <trkpt lat="47.3614590" lon="6.8393950">
        <ele>803.9</ele>
        <time>2022-07-20T16:07:51Z</time>
      </trkpt>
      <trkpt lat="47.3614420" lon="6.8393940">
        <ele>804.1</ele>
        <time>2022-07-20T16:07:53Z</time>
      </trkpt>
      <trkpt lat="47.3614330" lon="6.8393950">
        <ele>804.2</ele>
        <time>2022-07-20T16:07:54Z</time>
      </trkpt>
      <trkpt lat="47.3614220" lon="6.8393960">
        <ele>804.4</ele>
        <time>2022-07-20T16:07:55Z</time>
      </trkpt>
      <trkpt lat="47.3614110" lon="6.8393980">
        <ele>804.5</ele>
        <time>2022-07-20T16:07:56Z</time>
      </trkpt>
      <trkpt lat="47.3613980" lon="6.8394010">
        <ele>804.6</ele>
        <time>2022-07-20T16:07:58Z</time>
      </trkpt>
      <trkpt lat="47.3613910" lon="6.8394060">
        <ele>804.7</ele>
        <time>2022-07-20T16:07:59Z</time>
      </trkpt>
      <trkpt lat="47.3613840" lon="6.8394100">
        <ele>804.8</ele>
        <time>2022-07-20T16:08:00Z</time>
      </trkpt>
      <trkpt lat="47.3613750" lon="6.8394150">
        <ele>804.9</ele>
        <time>2022-07-20T16:08:01Z</time>
      </trkpt>
      <trkpt lat="47.3613680" lon="6.8394190">
        <ele>805.0</ele>
        <time>2022-07-20T16:08:03Z</time>
      </trkpt>
      <trkpt lat="47.3613610" lon="6.8394240">
        <ele>805.0</ele>
        <time>2022-07-20T16:08:04Z</time>
      </trkpt>
      <trkpt lat="47.3613430" lon="6.8394340">
        <ele>805.2</ele>
        <time>2022-07-20T16:08:05Z</time>
      </trkpt>
      <trkpt lat="47.3613350" lon="6.8394380">
        <ele>805.3</ele>
        <time>2022-07-20T16:08:07Z</time>
      </trkpt>
      <trkpt lat="47.3613250" lon="6.8394410">
        <ele>805.4</ele>
        <time>2022-07-20T16:08:08Z</time>
      </trkpt>
      <trkpt lat="47.3613160" lon="6.8394410">
        <ele>805.4</ele>
        <time>2022-07-20T16:08:09Z</time>
      </trkpt>
      <trkpt lat="47.3613060" lon="6.8394370">
        <ele>805.5</ele>
        <time>2022-07-20T16:08:10Z</time>
      </trkpt>
      <trkpt lat="47.3612990" lon="6.8394320">
        <ele>805.6</ele>
        <time>2022-07-20T16:08:11Z</time>
      </trkpt>
      <trkpt lat="47.3612980" lon="6.8394290">
        <ele>805.6</ele>
        <time>2022-07-20T16:08:12Z</time>
      </trkpt>
      <trkpt lat="47.3612970" lon="6.8394260">
        <ele>805.6</ele>
        <time>2022-07-20T16:08:13Z</time>
      </trkpt>
      <trkpt lat="47.3612910" lon="6.8394200">
        <ele>805.6</ele>
        <time>2022-07-20T16:08:14Z</time>
      </trkpt>
      <trkpt lat="47.3612840" lon="6.8394180">
        <ele>805.7</ele>
        <time>2022-07-20T16:08:15Z</time>
      </trkpt>
      <trkpt lat="47.3612770" lon="6.8394180">
        <ele>805.7</ele>
        <time>2022-07-20T16:08:16Z</time>
      </trkpt>
      <trkpt lat="47.3612700" lon="6.8394180">
        <ele>805.8</ele>
        <time>2022-07-20T16:08:17Z</time>
      </trkpt>
      <trkpt lat="47.3612600" lon="6.8394170">
        <ele>805.8</ele>
        <time>2022-07-20T16:08:18Z</time>
      </trkpt>
      <trkpt lat="47.3612530" lon="6.8394150">
        <ele>805.9</ele>
        <time>2022-07-20T16:08:20Z</time>
      </trkpt>
      <trkpt lat="47.3612460" lon="6.8394130">
        <ele>805.9</ele>
        <time>2022-07-20T16:08:21Z</time>
      </trkpt>
      <trkpt lat="47.3612420" lon="6.8394170">
        <ele>806.0</ele>
        <time>2022-07-20T16:08:23Z</time>
      </trkpt>
      <trkpt lat="47.3612420" lon="6.8394210">
        <ele>806.0</ele>
        <time>2022-07-20T16:08:24Z</time>
      </trkpt>
      <trkpt lat="47.3612420" lon="6.8394250">
        <ele>806.0</ele>
        <time>2022-07-20T16:08:25Z</time>
      </trkpt>
      <trkpt lat="47.3612420" lon="6.8394300">
        <ele>806.0</ele>
        <time>2022-07-20T16:08:26Z</time>
      </trkpt>
      <trkpt lat="47.3612420" lon="6.8394350">
        <ele>806.0</ele>
        <time>2022-07-20T16:08:27Z</time>
      </trkpt>
      <trkpt lat="47.3612420" lon="6.8394400">
        <ele>806.0</ele>
        <time>2022-07-20T16:08:28Z</time>
      </trkpt>
      <trkpt lat="47.3612420" lon="6.8394440">
        <ele>806.1</ele>
        <time>2022-07-20T16:08:29Z</time>
      </trkpt>
      <trkpt lat="47.3612420" lon="6.8394470">
        <ele>806.1</ele>
        <time>2022-07-20T16:08:30Z</time>
      </trkpt>
      <trkpt lat="47.3612410" lon="6.8394480">
        <ele>806.1</ele>
        <time>2022-07-20T16:08:31Z</time>
      </trkpt>
      <trkpt lat="47.3612090" lon="6.8394790">
        <ele>806.3</ele>
        <time>2022-07-20T16:09:05Z</time>
      </trkpt>
      <trkpt lat="47.3612070" lon="6.8394950">
        <ele>806.1</ele>
        <time>2022-07-20T16:09:06Z</time>
      </trkpt>
      <trkpt lat="47.3612020" lon="6.8395170">
        <ele>806.1</ele>
        <time>2022-07-20T16:09:07Z</time>
      </trkpt>
      <trkpt lat="47.3611980" lon="6.8395390">
        <ele>806.1</ele>
        <time>2022-07-20T16:09:09Z</time>
      </trkpt>
      <trkpt lat="47.3611930" lon="6.8395610">
        <ele>806.0</ele>
        <time>2022-07-20T16:09:10Z</time>
      </trkpt>
      <trkpt lat="47.3611910" lon="6.8395850">
        <ele>806.0</ele>
        <time>2022-07-20T16:09:11Z</time>
      </trkpt>
      <trkpt lat="47.3611870" lon="6.8396250">
        <ele>805.9</ele>
        <time>2022-07-20T16:09:12Z</time>
      </trkpt>
      <trkpt lat="47.3611730" lon="6.8396740">
        <ele>805.8</ele>
        <time>2022-07-20T16:09:13Z</time>
      </trkpt>
      <trkpt lat="47.3611670" lon="6.8396900">
        <ele>805.8</ele>
        <time>2022-07-20T16:09:14Z</time>
      </trkpt>
      <trkpt lat="47.3611540" lon="6.8397270">
        <ele>805.7</ele>
        <time>2022-07-20T16:09:15Z</time>
      </trkpt>
      <trkpt lat="47.3611410" lon="6.8397790">
        <ele>805.6</ele>
        <time>2022-07-20T16:09:16Z</time>
      </trkpt>
      <trkpt lat="47.3611350" lon="6.8398110">
        <ele>805.6</ele>
        <time>2022-07-20T16:09:17Z</time>
      </trkpt>
      <trkpt lat="47.3611260" lon="6.8398510">
        <ele>805.5</ele>
        <time>2022-07-20T16:09:19Z</time>
      </trkpt>
      <trkpt lat="47.3611160" lon="6.8398990">
        <ele>805.5</ele>
        <time>2022-07-20T16:09:20Z</time>
      </trkpt>
      <trkpt lat="47.3611120" lon="6.8399620">
        <ele>805.5</ele>
        <time>2022-07-20T16:09:21Z</time>
      </trkpt>
      <trkpt lat="47.3611110" lon="6.8399850">
        <ele>805.5</ele>
        <time>2022-07-20T16:09:22Z</time>
      </trkpt>
      <trkpt lat="47.3611110" lon="6.8400190">
        <ele>805.5</ele>
        <time>2022-07-20T16:09:23Z</time>
      </trkpt>
      <trkpt lat="47.3611080" lon="6.8400870">
        <ele>805.5</ele>
        <time>2022-07-20T16:09:25Z</time>
      </trkpt>
      <trkpt lat="47.3611000" lon="6.8401530">
        <ele>805.5</ele>
        <time>2022-07-20T16:09:26Z</time>
      </trkpt>
      <trkpt lat="47.3610900" lon="6.8402040">
        <ele>805.6</ele>
        <time>2022-07-20T16:09:27Z</time>
      </trkpt>
      <trkpt lat="47.3610830" lon="6.8402400">
        <ele>805.6</ele>
        <time>2022-07-20T16:09:28Z</time>
      </trkpt>
      <trkpt lat="47.3610770" lon="6.8402740">
        <ele>805.6</ele>
        <time>2022-07-20T16:09:30Z</time>
      </trkpt>
      <trkpt lat="47.3610630" lon="6.8403330">
        <ele>805.6</ele>
        <time>2022-07-20T16:09:31Z</time>
      </trkpt>
      <trkpt lat="47.3610520" lon="6.8403760">
        <ele>805.7</ele>
        <time>2022-07-20T16:09:32Z</time>
      </trkpt>
      <trkpt lat="47.3610450" lon="6.8404250">
        <ele>805.7</ele>
        <time>2022-07-20T16:09:33Z</time>
      </trkpt>
      <trkpt lat="47.3610400" lon="6.8404680">
        <ele>805.7</ele>
        <time>2022-07-20T16:09:34Z</time>
      </trkpt>
      <trkpt lat="47.3610350" lon="6.8405220">
        <ele>805.8</ele>
        <time>2022-07-20T16:09:36Z</time>
      </trkpt>
      <trkpt lat="47.3610250" lon="6.8405780">
        <ele>805.8</ele>
        <time>2022-07-20T16:09:37Z</time>
      </trkpt>
      <trkpt lat="47.3610190" lon="6.8405980">
        <ele>805.8</ele>
        <time>2022-07-20T16:09:38Z</time>
      </trkpt>
      <trkpt lat="47.3609980" lon="6.8406330">
        <ele>805.7</ele>
        <time>2022-07-20T16:09:39Z</time>
      </trkpt>
      <trkpt lat="47.3609860" lon="6.8406450">
        <ele>805.6</ele>
        <time>2022-07-20T16:09:41Z</time>
      </trkpt>
      <trkpt lat="47.3609740" lon="6.8406570">
        <ele>805.5</ele>
        <time>2022-07-20T16:09:42Z</time>
      </trkpt>
      <trkpt lat="47.3609620" lon="6.8406700">
        <ele>805.4</ele>
        <time>2022-07-20T16:09:43Z</time>
      </trkpt>
      <trkpt lat="47.3609360" lon="6.8406480">
        <ele>805.2</ele>
        <time>2022-07-20T16:09:45Z</time>
      </trkpt>
      <trkpt lat="47.3609280" lon="6.8406350">
        <ele>805.1</ele>
        <time>2022-07-20T16:09:46Z</time>
      </trkpt>
      <trkpt lat="47.3609140" lon="6.8405880">
        <ele>804.8</ele>
        <time>2022-07-20T16:09:47Z</time>
      </trkpt>
      <trkpt lat="47.3609080" lon="6.8405700">
        <ele>804.7</ele>
        <time>2022-07-20T16:09:48Z</time>
      </trkpt>
      <trkpt lat="47.3608920" lon="6.8405340">
        <ele>804.5</ele>
        <time>2022-07-20T16:09:49Z</time>
      </trkpt>
      <trkpt lat="47.3608870" lon="6.8405010">
        <ele>804.2</ele>
        <time>2022-07-20T16:09:51Z</time>
      </trkpt>
      <trkpt lat="47.3608870" lon="6.8404880">
        <ele>804.1</ele>
        <time>2022-07-20T16:09:52Z</time>
      </trkpt>
      <trkpt lat="47.3608870" lon="6.8404760">
        <ele>804.1</ele>
        <time>2022-07-20T16:09:53Z</time>
      </trkpt>
      <trkpt lat="47.3608840" lon="6.8404460">
        <ele>803.8</ele>
        <time>2022-07-20T16:09:54Z</time>
      </trkpt>
      <trkpt lat="47.3608790" lon="6.8404350">
        <ele>803.7</ele>
        <time>2022-07-20T16:09:56Z</time>
      </trkpt>
      <trkpt lat="47.3608730" lon="6.8404220">
        <ele>803.6</ele>
        <time>2022-07-20T16:09:57Z</time>
      </trkpt>
      <trkpt lat="47.3608560" lon="6.8404120">
        <ele>803.4</ele>
        <time>2022-07-20T16:09:58Z</time>
      </trkpt>
      <trkpt lat="47.3608420" lon="6.8404090">
        <ele>803.2</ele>
        <time>2022-07-20T16:09:59Z</time>
      </trkpt>
      <trkpt lat="47.3608240" lon="6.8404250">
        <ele>803.0</ele>
        <time>2022-07-20T16:10:00Z</time>
      </trkpt>
      <trkpt lat="47.3608060" lon="6.8404830">
        <ele>802.4</ele>
        <time>2022-07-20T16:10:02Z</time>
      </trkpt>
      <trkpt lat="47.3607830" lon="6.8405220">
        <ele>801.9</ele>
        <time>2022-07-20T16:10:04Z</time>
      </trkpt>
      <trkpt lat="47.3607560" lon="6.8405680">
        <ele>801.4</ele>
        <time>2022-07-20T16:10:05Z</time>
      </trkpt>
      <trkpt lat="47.3607210" lon="6.8406200">
        <ele>800.7</ele>
        <time>2022-07-20T16:10:06Z</time>
      </trkpt>
      <trkpt lat="47.3606940" lon="6.8406640">
        <ele>800.2</ele>
        <time>2022-07-20T16:10:08Z</time>
      </trkpt>
      <trkpt lat="47.3606670" lon="6.8406950">
        <ele>799.7</ele>
        <time>2022-07-20T16:10:09Z</time>
      </trkpt>
      <trkpt lat="47.3606360" lon="6.8407290">
        <ele>799.2</ele>
        <time>2022-07-20T16:10:10Z</time>
      </trkpt>
      <trkpt lat="47.3605950" lon="6.8407740">
        <ele>798.5</ele>
        <time>2022-07-20T16:10:11Z</time>
      </trkpt>
      <trkpt lat="47.3605550" lon="6.8408160">
        <ele>797.9</ele>
        <time>2022-07-20T16:10:13Z</time>
      </trkpt>
      <trkpt lat="47.3605160" lon="6.8408490">
        <ele>797.3</ele>
        <time>2022-07-20T16:10:14Z</time>
      </trkpt>
      <trkpt lat="47.3604640" lon="6.8408930">
        <ele>796.6</ele>
        <time>2022-07-20T16:10:15Z</time>
      </trkpt>
      <trkpt lat="47.3603880" lon="6.8409510">
        <ele>795.6</ele>
        <time>2022-07-20T16:10:16Z</time>
      </trkpt>
      <trkpt lat="47.3603350" lon="6.8409930">
        <ele>794.9</ele>
        <time>2022-07-20T16:10:17Z</time>
      </trkpt>
      <trkpt lat="47.3602870" lon="6.8410300">
        <ele>794.4</ele>
        <time>2022-07-20T16:10:18Z</time>
      </trkpt>
      <trkpt lat="47.3602410" lon="6.8410320">
        <ele>794.0</ele>
        <time>2022-07-20T16:10:19Z</time>
      </trkpt>
      <trkpt lat="47.3601840" lon="6.8410200">
        <ele>793.6</ele>
        <time>2022-07-20T16:10:20Z</time>
      </trkpt>
      <trkpt lat="47.3601260" lon="6.8410070">
        <ele>793.3</ele>
        <time>2022-07-20T16:10:21Z</time>
      </trkpt>
      <trkpt lat="47.3600660" lon="6.8410010">
        <ele>793.1</ele>
        <time>2022-07-20T16:10:22Z</time>
      </trkpt>
      <trkpt lat="47.3600070" lon="6.8409900">
        <ele>793.0</ele>
        <time>2022-07-20T16:10:23Z</time>
      </trkpt>
      <trkpt lat="47.3599540" lon="6.8409740">
        <ele>793.0</ele>
        <time>2022-07-20T16:10:24Z</time>
      </trkpt>
      <trkpt lat="47.3599030" lon="6.8409670">
        <ele>793.0</ele>
        <time>2022-07-20T16:10:25Z</time>
      </trkpt>
      <trkpt lat="47.3598500" lon="6.8409640">
        <ele>793.0</ele>
        <time>2022-07-20T16:10:26Z</time>
      </trkpt>
      <trkpt lat="47.3598010" lon="6.8409570">
        <ele>793.1</ele>
        <time>2022-07-20T16:10:27Z</time>
      </trkpt>
      <trkpt lat="47.3597560" lon="6.8409510">
        <ele>793.2</ele>
        <time>2022-07-20T16:10:28Z</time>
      </trkpt>
      <trkpt lat="47.3597270" lon="6.8409590">
        <ele>793.3</ele>
        <time>2022-07-20T16:10:29Z</time>
      </trkpt>
      <trkpt lat="47.3597120" lon="6.8409590">
        <ele>793.4</ele>
        <time>2022-07-20T16:10:30Z</time>
      </trkpt>
      <trkpt lat="47.3596650" lon="6.8409700">
        <ele>793.6</ele>
        <time>2022-07-20T16:10:32Z</time>
      </trkpt>
      <trkpt lat="47.3596320" lon="6.8409730">
        <ele>793.7</ele>
        <time>2022-07-20T16:10:33Z</time>
      </trkpt>
      <trkpt lat="47.3595980" lon="6.8409720">
        <ele>793.9</ele>
        <time>2022-07-20T16:10:34Z</time>
      </trkpt>
      <trkpt lat="47.3595870" lon="6.8409710">
        <ele>793.9</ele>
        <time>2022-07-20T16:10:35Z</time>
      </trkpt>
      <trkpt lat="47.3595460" lon="6.8409730">
        <ele>794.1</ele>
        <time>2022-07-20T16:10:37Z</time>
      </trkpt>
      <trkpt lat="47.3595080" lon="6.8409680">
        <ele>794.3</ele>
        <time>2022-07-20T16:10:38Z</time>
      </trkpt>
      <trkpt lat="47.3594800" lon="6.8409630">
        <ele>794.5</ele>
        <time>2022-07-20T16:10:39Z</time>
      </trkpt>
      <trkpt lat="47.3594380" lon="6.8409520">
        <ele>794.7</ele>
        <time>2022-07-20T16:10:40Z</time>
      </trkpt>
      <trkpt lat="47.3594230" lon="6.8409490">
        <ele>794.8</ele>
        <time>2022-07-20T16:10:41Z</time>
      </trkpt>
      <trkpt lat="47.3593920" lon="6.8409440">
        <ele>794.9</ele>
        <time>2022-07-20T16:10:42Z</time>
      </trkpt>
      <trkpt lat="47.3593820" lon="6.8409420">
        <ele>795.0</ele>
        <time>2022-07-20T16:10:43Z</time>
      </trkpt>
      <trkpt lat="47.3593460" lon="6.8409410">
        <ele>795.1</ele>
        <time>2022-07-20T16:10:44Z</time>
      </trkpt>
      <trkpt lat="47.3593330" lon="6.8409410">
        <ele>795.2</ele>
        <time>2022-07-20T16:10:45Z</time>
      </trkpt>
      <trkpt lat="47.3593050" lon="6.8409370">
        <ele>795.3</ele>
        <time>2022-07-20T16:10:46Z</time>
      </trkpt>
      <trkpt lat="47.3592950" lon="6.8409340">
        <ele>795.4</ele>
        <time>2022-07-20T16:10:47Z</time>
      </trkpt>
      <trkpt lat="47.3592650" lon="6.8409350">
        <ele>795.5</ele>
        <time>2022-07-20T16:10:48Z</time>
      </trkpt>
      <trkpt lat="47.3592560" lon="6.8409360">
        <ele>795.6</ele>
        <time>2022-07-20T16:10:49Z</time>
      </trkpt>
      <trkpt lat="47.3592050" lon="6.8409410">
        <ele>795.8</ele>
        <time>2022-07-20T16:10:51Z</time>
      </trkpt>
      <trkpt lat="47.3591840" lon="6.8409410">
        <ele>795.9</ele>
        <time>2022-07-20T16:10:53Z</time>
      </trkpt>
      <trkpt lat="47.3591630" lon="6.8409400">
        <ele>796.0</ele>
        <time>2022-07-20T16:10:54Z</time>
      </trkpt>
      <trkpt lat="47.3591420" lon="6.8409400">
        <ele>796.1</ele>
        <time>2022-07-20T16:10:55Z</time>
      </trkpt>
      <trkpt lat="47.3591080" lon="6.8409350">
        <ele>796.3</ele>
        <time>2022-07-20T16:10:56Z</time>
      </trkpt>
      <trkpt lat="47.3590740" lon="6.8409340">
        <ele>796.5</ele>
        <time>2022-07-20T16:10:57Z</time>
      </trkpt>
      <trkpt lat="47.3590420" lon="6.8409360">
        <ele>796.6</ele>
        <time>2022-07-20T16:10:58Z</time>
      </trkpt>
      <trkpt lat="47.3590290" lon="6.8409350">
        <ele>796.7</ele>
        <time>2022-07-20T16:10:59Z</time>
      </trkpt>
      <trkpt lat="47.3590020" lon="6.8409210">
        <ele>796.9</ele>
        <time>2022-07-20T16:11:00Z</time>
      </trkpt>
      <trkpt lat="47.3589560" lon="6.8408590">
        <ele>797.1</ele>
        <time>2022-07-20T16:11:02Z</time>
      </trkpt>
      <trkpt lat="47.3589350" lon="6.8408340">
        <ele>797.2</ele>
        <time>2022-07-20T16:11:03Z</time>
      </trkpt>
      <trkpt lat="47.3589080" lon="6.8407980">
        <ele>797.4</ele>
        <time>2022-07-20T16:11:04Z</time>
      </trkpt>
      <trkpt lat="47.3588960" lon="6.8407820">
        <ele>797.4</ele>
        <time>2022-07-20T16:11:05Z</time>
      </trkpt>
      <trkpt lat="47.3588680" lon="6.8407390">
        <ele>797.5</ele>
        <time>2022-07-20T16:11:07Z</time>
      </trkpt>
      <trkpt lat="47.3588570" lon="6.8407190">
        <ele>797.6</ele>
        <time>2022-07-20T16:11:08Z</time>
      </trkpt>
      <trkpt lat="47.3588260" lon="6.8406800">
        <ele>797.6</ele>
        <time>2022-07-20T16:11:09Z</time>
      </trkpt>
      <trkpt lat="47.3587940" lon="6.8406620">
        <ele>797.6</ele>
        <time>2022-07-20T16:11:11Z</time>
      </trkpt>
      <trkpt lat="47.3587810" lon="6.8406610">
        <ele>797.6</ele>
        <time>2022-07-20T16:11:12Z</time>
      </trkpt>
      <trkpt lat="47.3587450" lon="6.8406620">
        <ele>797.6</ele>
        <time>2022-07-20T16:11:13Z</time>
      </trkpt>
      <trkpt lat="47.3587320" lon="6.8406620">
        <ele>797.6</ele>
        <time>2022-07-20T16:11:14Z</time>
      </trkpt>
      <trkpt lat="47.3586930" lon="6.8406580">
        <ele>797.5</ele>
        <time>2022-07-20T16:11:15Z</time>
      </trkpt>
      <trkpt lat="47.3586630" lon="6.8406550">
        <ele>797.4</ele>
        <time>2022-07-20T16:11:16Z</time>
      </trkpt>
      <trkpt lat="47.3585990" lon="6.8406510">
        <ele>797.2</ele>
        <time>2022-07-20T16:11:18Z</time>
      </trkpt>
      <trkpt lat="47.3585490" lon="6.8406380">
        <ele>797.0</ele>
        <time>2022-07-20T16:11:19Z</time>
      </trkpt>
      <trkpt lat="47.3585030" lon="6.8406240">
        <ele>796.9</ele>
        <time>2022-07-20T16:11:20Z</time>
      </trkpt>
      <trkpt lat="47.3584650" lon="6.8406140">
        <ele>796.7</ele>
        <time>2022-07-20T16:11:21Z</time>
      </trkpt>
      <trkpt lat="47.3584360" lon="6.8406070">
        <ele>796.6</ele>
        <time>2022-07-20T16:11:22Z</time>
      </trkpt>
      <trkpt lat="47.3583920" lon="6.8406050">
        <ele>796.5</ele>
        <time>2022-07-20T16:11:23Z</time>
      </trkpt>
      <trkpt lat="47.3583490" lon="6.8405900">
        <ele>796.3</ele>
        <time>2022-07-20T16:11:24Z</time>
      </trkpt>
      <trkpt lat="47.3583190" lon="6.8405810">
        <ele>796.2</ele>
        <time>2022-07-20T16:11:25Z</time>
      </trkpt>
      <trkpt lat="47.3582780" lon="6.8405760">
        <ele>796.0</ele>
        <time>2022-07-20T16:11:26Z</time>
      </trkpt>
      <trkpt lat="47.3582340" lon="6.8405650">
        <ele>795.8</ele>
        <time>2022-07-20T16:11:28Z</time>
      </trkpt>
      <trkpt lat="47.3581890" lon="6.8405510">
        <ele>795.5</ele>
        <time>2022-07-20T16:11:29Z</time>
      </trkpt>
      <trkpt lat="47.3581590" lon="6.8405410">
        <ele>795.3</ele>
        <time>2022-07-20T16:11:30Z</time>
      </trkpt>
      <trkpt lat="47.3581310" lon="6.8405390">
        <ele>795.1</ele>
        <time>2022-07-20T16:11:31Z</time>
      </trkpt>
      <trkpt lat="47.3580940" lon="6.8405160">
        <ele>794.8</ele>
        <time>2022-07-20T16:11:32Z</time>
      </trkpt>
      <trkpt lat="47.3580830" lon="6.8405030">
        <ele>794.7</ele>
        <time>2022-07-20T16:11:33Z</time>
      </trkpt>
      <trkpt lat="47.3580660" lon="6.8404650">
        <ele>794.5</ele>
        <time>2022-07-20T16:11:34Z</time>
      </trkpt>
      <trkpt lat="47.3580580" lon="6.8404230">
        <ele>794.2</ele>
        <time>2022-07-20T16:11:35Z</time>
      </trkpt>
      <trkpt lat="47.3580560" lon="6.8403830">
        <ele>793.9</ele>
        <time>2022-07-20T16:11:36Z</time>
      </trkpt>
      <trkpt lat="47.3580500" lon="6.8403240">
        <ele>793.6</ele>
        <time>2022-07-20T16:11:37Z</time>
      </trkpt>
      <trkpt lat="47.3580460" lon="6.8403060">
        <ele>793.6</ele>
        <time>2022-07-20T16:11:38Z</time>
      </trkpt>
      <trkpt lat="47.3580400" lon="6.8402650">
        <ele>793.4</ele>
        <time>2022-07-20T16:11:39Z</time>
      </trkpt>
      <trkpt lat="47.3580300" lon="6.8402050">
        <ele>793.1</ele>
        <time>2022-07-20T16:11:40Z</time>
      </trkpt>
      <trkpt lat="47.3580160" lon="6.8401520">
        <ele>792.9</ele>
        <time>2022-07-20T16:11:42Z</time>
      </trkpt>
      <trkpt lat="47.3579540" lon="6.8400600">
        <ele>792.3</ele>
        <time>2022-07-20T16:11:43Z</time>
      </trkpt>
      <trkpt lat="47.3579070" lon="6.8400010">
        <ele>791.9</ele>
        <time>2022-07-20T16:11:44Z</time>
      </trkpt>
      <trkpt lat="47.3578730" lon="6.8399520">
        <ele>791.5</ele>
        <time>2022-07-20T16:11:45Z</time>
      </trkpt>
      <trkpt lat="47.3578390" lon="6.8398940">
        <ele>791.1</ele>
        <time>2022-07-20T16:11:46Z</time>
      </trkpt>
      <trkpt lat="47.3577930" lon="6.8398270">
        <ele>790.6</ele>
        <time>2022-07-20T16:11:47Z</time>
      </trkpt>
      <trkpt lat="47.3577400" lon="6.8397430">
        <ele>789.9</ele>
        <time>2022-07-20T16:11:48Z</time>
      </trkpt>
      <trkpt lat="47.3576940" lon="6.8396670">
        <ele>789.3</ele>
        <time>2022-07-20T16:11:49Z</time>
      </trkpt>
      <trkpt lat="47.3576610" lon="6.8395930">
        <ele>788.9</ele>
        <time>2022-07-20T16:11:50Z</time>
      </trkpt>
      <trkpt lat="47.3576340" lon="6.8395110">
        <ele>788.4</ele>
        <time>2022-07-20T16:11:51Z</time>
      </trkpt>
      <trkpt lat="47.3576110" lon="6.8394330">
        <ele>788.1</ele>
        <time>2022-07-20T16:11:52Z</time>
      </trkpt>
      <trkpt lat="47.3575890" lon="6.8393390">
        <ele>787.8</ele>
        <time>2022-07-20T16:11:53Z</time>
      </trkpt>
      <trkpt lat="47.3575730" lon="6.8392490">
        <ele>787.7</ele>
        <time>2022-07-20T16:11:54Z</time>
      </trkpt>
      <trkpt lat="47.3575580" lon="6.8391630">
        <ele>787.7</ele>
        <time>2022-07-20T16:11:55Z</time>
      </trkpt>
      <trkpt lat="47.3575550" lon="6.8390790">
        <ele>787.7</ele>
        <time>2022-07-20T16:11:56Z</time>
      </trkpt>
      <trkpt lat="47.3575580" lon="6.8390010">
        <ele>787.9</ele>
        <time>2022-07-20T16:11:57Z</time>
      </trkpt>
      <trkpt lat="47.3575560" lon="6.8389400">
        <ele>788.0</ele>
        <time>2022-07-20T16:11:58Z</time>
      </trkpt>
      <trkpt lat="47.3575530" lon="6.8388910">
        <ele>788.2</ele>
        <time>2022-07-20T16:11:59Z</time>
      </trkpt>
      <trkpt lat="47.3575500" lon="6.8388510">
        <ele>788.3</ele>
        <time>2022-07-20T16:12:00Z</time>
      </trkpt>
      <trkpt lat="47.3575500" lon="6.8388340">
        <ele>788.3</ele>
        <time>2022-07-20T16:12:01Z</time>
      </trkpt>
      <trkpt lat="47.3575630" lon="6.8387830">
        <ele>788.5</ele>
        <time>2022-07-20T16:12:02Z</time>
      </trkpt>
      <trkpt lat="47.3575690" lon="6.8387640">
        <ele>788.6</ele>
        <time>2022-07-20T16:12:03Z</time>
      </trkpt>
      <trkpt lat="47.3575700" lon="6.8387240">
        <ele>788.7</ele>
        <time>2022-07-20T16:12:04Z</time>
      </trkpt>
      <trkpt lat="47.3575970" lon="6.8386890">
        <ele>788.9</ele>
        <time>2022-07-20T16:12:05Z</time>
      </trkpt>
      <trkpt lat="47.3576020" lon="6.8386340">
        <ele>789.2</ele>
        <time>2022-07-20T16:12:07Z</time>
      </trkpt>
      <trkpt lat="47.3576070" lon="6.8385560">
        <ele>789.4</ele>
        <time>2022-07-20T16:12:08Z</time>
      </trkpt>
      <trkpt lat="47.3576090" lon="6.8385060">
        <ele>789.6</ele>
        <time>2022-07-20T16:12:09Z</time>
      </trkpt>
      <trkpt lat="47.3576120" lon="6.8384600">
        <ele>789.8</ele>
        <time>2022-07-20T16:12:10Z</time>
      </trkpt>
      <trkpt lat="47.3576150" lon="6.8383740">
        <ele>790.1</ele>
        <time>2022-07-20T16:12:12Z</time>
      </trkpt>
      <trkpt lat="47.3576210" lon="6.8383090">
        <ele>790.3</ele>
        <time>2022-07-20T16:12:13Z</time>
      </trkpt>
      <trkpt lat="47.3576250" lon="6.8382590">
        <ele>790.5</ele>
        <time>2022-07-20T16:12:14Z</time>
      </trkpt>
      <trkpt lat="47.3576320" lon="6.8381860">
        <ele>790.8</ele>
        <time>2022-07-20T16:12:16Z</time>
      </trkpt>
      <trkpt lat="47.3576390" lon="6.8381290">
        <ele>791.0</ele>
        <time>2022-07-20T16:12:17Z</time>
      </trkpt>
      <trkpt lat="47.3576460" lon="6.8380790">
        <ele>791.3</ele>
        <time>2022-07-20T16:12:18Z</time>
      </trkpt>
      <trkpt lat="47.3576480" lon="6.8380640">
        <ele>791.4</ele>
        <time>2022-07-20T16:12:19Z</time>
      </trkpt>
      <trkpt lat="47.3576500" lon="6.8380420">
        <ele>791.5</ele>
        <time>2022-07-20T16:12:20Z</time>
      </trkpt>
      <trkpt lat="47.3576540" lon="6.8380140">
        <ele>791.6</ele>
        <time>2022-07-20T16:12:21Z</time>
      </trkpt>
      <trkpt lat="47.3576600" lon="6.8379670">
        <ele>791.9</ele>
        <time>2022-07-20T16:12:22Z</time>
      </trkpt>
      <trkpt lat="47.3576620" lon="6.8379530">
        <ele>792.0</ele>
        <time>2022-07-20T16:12:23Z</time>
      </trkpt>
      <trkpt lat="47.3576660" lon="6.8379240">
        <ele>792.2</ele>
        <time>2022-07-20T16:12:24Z</time>
      </trkpt>
      <trkpt lat="47.3576700" lon="6.8379040">
        <ele>792.3</ele>
        <time>2022-07-20T16:12:25Z</time>
      </trkpt>
      <trkpt lat="47.3576760" lon="6.8378780">
        <ele>792.5</ele>
        <time>2022-07-20T16:12:26Z</time>
      </trkpt>
      <trkpt lat="47.3576790" lon="6.8378570">
        <ele>792.7</ele>
        <time>2022-07-20T16:12:27Z</time>
      </trkpt>
      <trkpt lat="47.3576850" lon="6.8378290">
        <ele>792.9</ele>
        <time>2022-07-20T16:12:28Z</time>
      </trkpt>
      <trkpt lat="47.3576880" lon="6.8378070">
        <ele>793.1</ele>
        <time>2022-07-20T16:12:29Z</time>
      </trkpt>
      <trkpt lat="47.3576920" lon="6.8377790">
        <ele>793.3</ele>
        <time>2022-07-20T16:12:30Z</time>
      </trkpt>
      <trkpt lat="47.3576950" lon="6.8377600">
        <ele>793.4</ele>
        <time>2022-07-20T16:12:31Z</time>
      </trkpt>
      <trkpt lat="47.3576990" lon="6.8377340">
        <ele>793.7</ele>
        <time>2022-07-20T16:12:32Z</time>
      </trkpt>
      <trkpt lat="47.3577010" lon="6.8377090">
        <ele>793.9</ele>
        <time>2022-07-20T16:12:33Z</time>
      </trkpt>
      <trkpt lat="47.3577040" lon="6.8376680">
        <ele>794.2</ele>
        <time>2022-07-20T16:12:34Z</time>
      </trkpt>
      <trkpt lat="47.3577050" lon="6.8376530">
        <ele>794.3</ele>
        <time>2022-07-20T16:12:35Z</time>
      </trkpt>
      <trkpt lat="47.3577100" lon="6.8376110">
        <ele>794.7</ele>
        <time>2022-07-20T16:12:36Z</time>
      </trkpt>
      <trkpt lat="47.3577120" lon="6.8375960">
        <ele>794.8</ele>
        <time>2022-07-20T16:12:37Z</time>
      </trkpt>
      <trkpt lat="47.3577150" lon="6.8375710">
        <ele>795.0</ele>
        <time>2022-07-20T16:12:38Z</time>
      </trkpt>
      <trkpt lat="47.3577180" lon="6.8375460">
        <ele>795.2</ele>
        <time>2022-07-20T16:12:39Z</time>
      </trkpt>
      <trkpt lat="47.3577220" lon="6.8375070">
        <ele>795.6</ele>
        <time>2022-07-20T16:12:40Z</time>
      </trkpt>
      <trkpt lat="47.3577230" lon="6.8374940">
        <ele>795.7</ele>
        <time>2022-07-20T16:12:41Z</time>
      </trkpt>
      <trkpt lat="47.3577260" lon="6.8374690">
        <ele>795.9</ele>
        <time>2022-07-20T16:12:42Z</time>
      </trkpt>
      <trkpt lat="47.3577300" lon="6.8374420">
        <ele>796.1</ele>
        <time>2022-07-20T16:12:43Z</time>
      </trkpt>
      <trkpt lat="47.3577350" lon="6.8373970">
        <ele>796.5</ele>
        <time>2022-07-20T16:12:44Z</time>
      </trkpt>
      <trkpt lat="47.3577360" lon="6.8373840">
        <ele>796.6</ele>
        <time>2022-07-20T16:12:45Z</time>
      </trkpt>
      <trkpt lat="47.3577390" lon="6.8373570">
        <ele>796.8</ele>
        <time>2022-07-20T16:12:46Z</time>
      </trkpt>
      <trkpt lat="47.3577410" lon="6.8373370">
        <ele>797.0</ele>
        <time>2022-07-20T16:12:47Z</time>
      </trkpt>
      <trkpt lat="47.3577430" lon="6.8373140">
        <ele>797.2</ele>
        <time>2022-07-20T16:12:48Z</time>
      </trkpt>
      <trkpt lat="47.3577450" lon="6.8372900">
        <ele>797.4</ele>
        <time>2022-07-20T16:12:49Z</time>
      </trkpt>
      <trkpt lat="47.3577470" lon="6.8372500">
        <ele>797.7</ele>
        <time>2022-07-20T16:12:50Z</time>
      </trkpt>
      <trkpt lat="47.3577470" lon="6.8372350">
        <ele>797.8</ele>
        <time>2022-07-20T16:12:51Z</time>
      </trkpt>
      <trkpt lat="47.3577410" lon="6.8371810">
        <ele>798.2</ele>
        <time>2022-07-20T16:12:53Z</time>
      </trkpt>
      <trkpt lat="47.3577400" lon="6.8371630">
        <ele>798.4</ele>
        <time>2022-07-20T16:12:54Z</time>
      </trkpt>
      <trkpt lat="47.3577410" lon="6.8371340">
        <ele>798.6</ele>
        <time>2022-07-20T16:12:55Z</time>
      </trkpt>
      <trkpt lat="47.3577450" lon="6.8370870">
        <ele>799.0</ele>
        <time>2022-07-20T16:12:57Z</time>
      </trkpt>
      <trkpt lat="47.3577420" lon="6.8370420">
        <ele>799.4</ele>
        <time>2022-07-20T16:12:58Z</time>
      </trkpt>
      <trkpt lat="47.3577410" lon="6.8370280">
        <ele>799.5</ele>
        <time>2022-07-20T16:12:59Z</time>
      </trkpt>
      <trkpt lat="47.3577390" lon="6.8369870">
        <ele>799.8</ele>
        <time>2022-07-20T16:13:00Z</time>
      </trkpt>
      <trkpt lat="47.3577390" lon="6.8369720">
        <ele>799.9</ele>
        <time>2022-07-20T16:13:01Z</time>
      </trkpt>
      <trkpt lat="47.3577390" lon="6.8369310">
        <ele>800.2</ele>
        <time>2022-07-20T16:13:02Z</time>
      </trkpt>
      <trkpt lat="47.3577390" lon="6.8369170">
        <ele>800.3</ele>
        <time>2022-07-20T16:13:03Z</time>
      </trkpt>
      <trkpt lat="47.3577410" lon="6.8368670">
        <ele>800.7</ele>
        <time>2022-07-20T16:13:04Z</time>
      </trkpt>
      <trkpt lat="47.3577450" lon="6.8368450">
        <ele>800.9</ele>
        <time>2022-07-20T16:13:05Z</time>
      </trkpt>
      <trkpt lat="47.3577450" lon="6.8367960">
        <ele>801.3</ele>
        <time>2022-07-20T16:13:07Z</time>
      </trkpt>
      <trkpt lat="47.3577450" lon="6.8367780">
        <ele>801.4</ele>
        <time>2022-07-20T16:13:08Z</time>
      </trkpt>
      <trkpt lat="47.3577420" lon="6.8367560">
        <ele>801.6</ele>
        <time>2022-07-20T16:13:09Z</time>
      </trkpt>
      <trkpt lat="47.3577400" lon="6.8367280">
        <ele>801.8</ele>
        <time>2022-07-20T16:13:10Z</time>
      </trkpt>
      <trkpt lat="47.3577410" lon="6.8366880">
        <ele>802.1</ele>
        <time>2022-07-20T16:13:11Z</time>
      </trkpt>
      <trkpt lat="47.3577420" lon="6.8366730">
        <ele>802.2</ele>
        <time>2022-07-20T16:13:12Z</time>
      </trkpt>
      <trkpt lat="47.3577440" lon="6.8366480">
        <ele>802.4</ele>
        <time>2022-07-20T16:13:13Z</time>
      </trkpt>
      <trkpt lat="47.3577460" lon="6.8366300">
        <ele>802.6</ele>
        <time>2022-07-20T16:13:14Z</time>
      </trkpt>
      <trkpt lat="47.3577470" lon="6.8366080">
        <ele>802.7</ele>
        <time>2022-07-20T16:13:15Z</time>
      </trkpt>
      <trkpt lat="47.3577480" lon="6.8365850">
        <ele>802.9</ele>
        <time>2022-07-20T16:13:16Z</time>
      </trkpt>
      <trkpt lat="47.3577490" lon="6.8365640">
        <ele>803.1</ele>
        <time>2022-07-20T16:13:17Z</time>
      </trkpt>
      <trkpt lat="47.3577510" lon="6.8365410">
        <ele>803.3</ele>
        <time>2022-07-20T16:13:18Z</time>
      </trkpt>
      <trkpt lat="47.3577530" lon="6.8365140">
        <ele>803.5</ele>
        <time>2022-07-20T16:13:20Z</time>
      </trkpt>
      <trkpt lat="47.3577460" lon="6.8364900">
        <ele>803.7</ele>
        <time>2022-07-20T16:13:21Z</time>
      </trkpt>
      <trkpt lat="47.3577110" lon="6.8364430">
        <ele>804.0</ele>
        <time>2022-07-20T16:13:23Z</time>
      </trkpt>
      <trkpt lat="47.3576980" lon="6.8364310">
        <ele>804.0</ele>
        <time>2022-07-20T16:13:24Z</time>
      </trkpt>
      <trkpt lat="47.3576850" lon="6.8364190">
        <ele>803.9</ele>
        <time>2022-07-20T16:13:25Z</time>
      </trkpt>
      <trkpt lat="47.3576520" lon="6.8363960">
        <ele>803.8</ele>
        <time>2022-07-20T16:13:26Z</time>
      </trkpt>
      <trkpt lat="47.3576190" lon="6.8363680">
        <ele>803.6</ele>
        <time>2022-07-20T16:13:27Z</time>
      </trkpt>
      <trkpt lat="47.3575610" lon="6.8363440">
        <ele>803.2</ele>
        <time>2022-07-20T16:13:28Z</time>
      </trkpt>
      <trkpt lat="47.3575220" lon="6.8363090">
        <ele>802.9</ele>
        <time>2022-07-20T16:13:29Z</time>
      </trkpt>
      <trkpt lat="47.3574790" lon="6.8362860">
        <ele>802.6</ele>
        <time>2022-07-20T16:13:30Z</time>
      </trkpt>
      <trkpt lat="47.3574310" lon="6.8362490">
        <ele>802.1</ele>
        <time>2022-07-20T16:13:31Z</time>
      </trkpt>
      <trkpt lat="47.3573810" lon="6.8362030">
        <ele>801.5</ele>
        <time>2022-07-20T16:13:32Z</time>
      </trkpt>
      <trkpt lat="47.3573340" lon="6.8361560">
        <ele>800.8</ele>
        <time>2022-07-20T16:13:33Z</time>
      </trkpt>
      <trkpt lat="47.3572910" lon="6.8360970">
        <ele>800.2</ele>
        <time>2022-07-20T16:13:34Z</time>
      </trkpt>
      <trkpt lat="47.3572440" lon="6.8360420">
        <ele>799.5</ele>
        <time>2022-07-20T16:13:35Z</time>
      </trkpt>
      <trkpt lat="47.3571970" lon="6.8359690">
        <ele>798.7</ele>
        <time>2022-07-20T16:13:36Z</time>
      </trkpt>
      <trkpt lat="47.3571580" lon="6.8358830">
        <ele>798.0</ele>
        <time>2022-07-20T16:13:37Z</time>
      </trkpt>
      <trkpt lat="47.3571240" lon="6.8357850">
        <ele>797.3</ele>
        <time>2022-07-20T16:13:38Z</time>
      </trkpt>
      <trkpt lat="47.3570890" lon="6.8357140">
        <ele>796.8</ele>
        <time>2022-07-20T16:13:39Z</time>
      </trkpt>
      <trkpt lat="47.3570550" lon="6.8356490">
        <ele>796.3</ele>
        <time>2022-07-20T16:13:40Z</time>
      </trkpt>
      <trkpt lat="47.3570170" lon="6.8355650">
        <ele>795.8</ele>
        <time>2022-07-20T16:13:41Z</time>
      </trkpt>
      <trkpt lat="47.3569850" lon="6.8354820">
        <ele>795.3</ele>
        <time>2022-07-20T16:13:42Z</time>
      </trkpt>
      <trkpt lat="47.3569550" lon="6.8353990">
        <ele>794.8</ele>
        <time>2022-07-20T16:13:43Z</time>
      </trkpt>
      <trkpt lat="47.3569220" lon="6.8353130">
        <ele>794.2</ele>
        <time>2022-07-20T16:13:44Z</time>
      </trkpt>
      <trkpt lat="47.3568900" lon="6.8352320">
        <ele>793.7</ele>
        <time>2022-07-20T16:13:45Z</time>
      </trkpt>
      <trkpt lat="47.3568580" lon="6.8351590">
        <ele>793.3</ele>
        <time>2022-07-20T16:13:46Z</time>
      </trkpt>
      <trkpt lat="47.3568260" lon="6.8350830">
        <ele>792.8</ele>
        <time>2022-07-20T16:13:47Z</time>
      </trkpt>
      <trkpt lat="47.3567940" lon="6.8349980">
        <ele>792.2</ele>
        <time>2022-07-20T16:13:48Z</time>
      </trkpt>
      <trkpt lat="47.3567660" lon="6.8349060">
        <ele>791.7</ele>
        <time>2022-07-20T16:13:49Z</time>
      </trkpt>
      <trkpt lat="47.3567330" lon="6.8348060">
        <ele>791.0</ele>
        <time>2022-07-20T16:13:50Z</time>
      </trkpt>
      <trkpt lat="47.3566990" lon="6.8347030">
        <ele>790.3</ele>
        <time>2022-07-20T16:13:51Z</time>
      </trkpt>
      <trkpt lat="47.3566630" lon="6.8346010">
        <ele>789.6</ele>
        <time>2022-07-20T16:13:52Z</time>
      </trkpt>
      <trkpt lat="47.3566290" lon="6.8344940">
        <ele>788.7</ele>
        <time>2022-07-20T16:13:53Z</time>
      </trkpt>
      <trkpt lat="47.3566010" lon="6.8343910">
        <ele>788.0</ele>
        <time>2022-07-20T16:13:54Z</time>
      </trkpt>
      <trkpt lat="47.3565720" lon="6.8342890">
        <ele>787.2</ele>
        <time>2022-07-20T16:13:55Z</time>
      </trkpt>
      <trkpt lat="47.3565390" lon="6.8341850">
        <ele>786.5</ele>
        <time>2022-07-20T16:13:56Z</time>
      </trkpt>
      <trkpt lat="47.3565060" lon="6.8340800">
        <ele>785.8</ele>
        <time>2022-07-20T16:13:57Z</time>
      </trkpt>
      <trkpt lat="47.3564720" lon="6.8339760">
        <ele>785.1</ele>
        <time>2022-07-20T16:13:58Z</time>
      </trkpt>
      <trkpt lat="47.3564360" lon="6.8338760">
        <ele>784.4</ele>
        <time>2022-07-20T16:13:59Z</time>
      </trkpt>
      <trkpt lat="47.3564040" lon="6.8337850">
        <ele>783.7</ele>
        <time>2022-07-20T16:14:00Z</time>
      </trkpt>
      <trkpt lat="47.3563760" lon="6.8336950">
        <ele>783.0</ele>
        <time>2022-07-20T16:14:01Z</time>
      </trkpt>
      <trkpt lat="47.3563620" lon="6.8336010">
        <ele>782.3</ele>
        <time>2022-07-20T16:14:02Z</time>
      </trkpt>
      <trkpt lat="47.3563530" lon="6.8335100">
        <ele>781.6</ele>
        <time>2022-07-20T16:14:03Z</time>
      </trkpt>
      <trkpt lat="47.3563350" lon="6.8333990">
        <ele>780.8</ele>
        <time>2022-07-20T16:14:04Z</time>
      </trkpt>
      <trkpt lat="47.3563170" lon="6.8332870">
        <ele>779.9</ele>
        <time>2022-07-20T16:14:05Z</time>
      </trkpt>
      <trkpt lat="47.3562940" lon="6.8331650">
        <ele>779.0</ele>
        <time>2022-07-20T16:14:06Z</time>
      </trkpt>
      <trkpt lat="47.3562690" lon="6.8330510">
        <ele>778.1</ele>
        <time>2022-07-20T16:14:07Z</time>
      </trkpt>
      <trkpt lat="47.3562350" lon="6.8329380">
        <ele>777.2</ele>
        <time>2022-07-20T16:14:08Z</time>
      </trkpt>
      <trkpt lat="47.3562000" lon="6.8328280">
        <ele>776.4</ele>
        <time>2022-07-20T16:14:09Z</time>
      </trkpt>
      <trkpt lat="47.3561690" lon="6.8327250">
        <ele>775.6</ele>
        <time>2022-07-20T16:14:10Z</time>
      </trkpt>
      <trkpt lat="47.3561460" lon="6.8326250">
        <ele>774.9</ele>
        <time>2022-07-20T16:14:11Z</time>
      </trkpt>
      <trkpt lat="47.3561270" lon="6.8325370">
        <ele>774.3</ele>
        <time>2022-07-20T16:14:12Z</time>
      </trkpt>
      <trkpt lat="47.3560990" lon="6.8325190">
        <ele>773.9</ele>
        <time>2022-07-20T16:14:13Z</time>
      </trkpt>
      <trkpt lat="47.3560890" lon="6.8325260">
        <ele>773.8</ele>
        <time>2022-07-20T16:14:14Z</time>
      </trkpt>
      <trkpt lat="47.3560600" lon="6.8325400">
        <ele>772.9</ele>
        <time>2022-07-20T16:14:15Z</time>
      </trkpt>
      <trkpt lat="47.3560510" lon="6.8325440">
        <ele>772.8</ele>
        <time>2022-07-20T16:14:16Z</time>
      </trkpt>
      <trkpt lat="47.3560260" lon="6.8325660">
        <ele>772.5</ele>
        <time>2022-07-20T16:14:17Z</time>
      </trkpt>
      <trkpt lat="47.3560030" lon="6.8325970">
        <ele>772.2</ele>
        <time>2022-07-20T16:14:18Z</time>
      </trkpt>
      <trkpt lat="47.3559950" lon="6.8326100">
        <ele>772.1</ele>
        <time>2022-07-20T16:14:19Z</time>
      </trkpt>
      <trkpt lat="47.3559770" lon="6.8326470">
        <ele>771.9</ele>
        <time>2022-07-20T16:14:20Z</time>
      </trkpt>
      <trkpt lat="47.3559530" lon="6.8326700">
        <ele>771.7</ele>
        <time>2022-07-20T16:14:21Z</time>
      </trkpt>
      <trkpt lat="47.3559300" lon="6.8327000">
        <ele>771.5</ele>
        <time>2022-07-20T16:14:22Z</time>
      </trkpt>
      <trkpt lat="47.3559230" lon="6.8327140">
        <ele>771.5</ele>
        <time>2022-07-20T16:14:23Z</time>
      </trkpt>
      <trkpt lat="47.3559110" lon="6.8327550">
        <ele>771.3</ele>
        <time>2022-07-20T16:14:24Z</time>
      </trkpt>
      <trkpt lat="47.3558940" lon="6.8328130">
        <ele>771.1</ele>
        <time>2022-07-20T16:14:25Z</time>
      </trkpt>
      <trkpt lat="47.3558890" lon="6.8328360">
        <ele>771.1</ele>
        <time>2022-07-20T16:14:26Z</time>
      </trkpt>
      <trkpt lat="47.3558720" lon="6.8328980">
        <ele>770.9</ele>
        <time>2022-07-20T16:14:27Z</time>
      </trkpt>
      <trkpt lat="47.3558650" lon="6.8329240">
        <ele>770.9</ele>
        <time>2022-07-20T16:14:28Z</time>
      </trkpt>
      <trkpt lat="47.3558500" lon="6.8329720">
        <ele>770.7</ele>
        <time>2022-07-20T16:14:29Z</time>
      </trkpt>
      <trkpt lat="47.3558350" lon="6.8330230">
        <ele>770.6</ele>
        <time>2022-07-20T16:14:30Z</time>
      </trkpt>
      <trkpt lat="47.3558220" lon="6.8330720">
        <ele>770.5</ele>
        <time>2022-07-20T16:14:31Z</time>
      </trkpt>
      <trkpt lat="47.3558090" lon="6.8331220">
        <ele>770.4</ele>
        <time>2022-07-20T16:14:32Z</time>
      </trkpt>
      <trkpt lat="47.3557940" lon="6.8331720">
        <ele>770.2</ele>
        <time>2022-07-20T16:14:33Z</time>
      </trkpt>
      <trkpt lat="47.3557790" lon="6.8332230">
        <ele>770.1</ele>
        <time>2022-07-20T16:14:34Z</time>
      </trkpt>
      <trkpt lat="47.3557620" lon="6.8332810">
        <ele>770.0</ele>
        <time>2022-07-20T16:14:35Z</time>
      </trkpt>
      <trkpt lat="47.3557480" lon="6.8333230">
        <ele>769.9</ele>
        <time>2022-07-20T16:14:36Z</time>
      </trkpt>
      <trkpt lat="47.3557340" lon="6.8333610">
        <ele>769.8</ele>
        <time>2022-07-20T16:14:37Z</time>
      </trkpt>
      <trkpt lat="47.3557170" lon="6.8334060">
        <ele>769.7</ele>
        <time>2022-07-20T16:14:38Z</time>
      </trkpt>
      <trkpt lat="47.3557030" lon="6.8334400">
        <ele>769.7</ele>
        <time>2022-07-20T16:14:39Z</time>
      </trkpt>
      <trkpt lat="47.3556920" lon="6.8334620">
        <ele>769.6</ele>
        <time>2022-07-20T16:14:40Z</time>
      </trkpt>
      <trkpt lat="47.3556860" lon="6.8334760">
        <ele>769.6</ele>
        <time>2022-07-20T16:14:41Z</time>
      </trkpt>
      <trkpt lat="47.3556760" lon="6.8334970">
        <ele>769.6</ele>
        <time>2022-07-20T16:14:42Z</time>
      </trkpt>
      <trkpt lat="47.3556690" lon="6.8335160">
        <ele>769.5</ele>
        <time>2022-07-20T16:14:43Z</time>
      </trkpt>
      <trkpt lat="47.3556590" lon="6.8335330">
        <ele>769.5</ele>
        <time>2022-07-20T16:14:44Z</time>
      </trkpt>
      <trkpt lat="47.3556440" lon="6.8335550">
        <ele>769.5</ele>
        <time>2022-07-20T16:14:45Z</time>
      </trkpt>
      <trkpt lat="47.3556180" lon="6.8335920">
        <ele>769.4</ele>
        <time>2022-07-20T16:14:46Z</time>
      </trkpt>
      <trkpt lat="47.3556080" lon="6.8336080">
        <ele>769.4</ele>
        <time>2022-07-20T16:14:47Z</time>
      </trkpt>
      <trkpt lat="47.3555840" lon="6.8336490">
        <ele>769.4</ele>
        <time>2022-07-20T16:14:48Z</time>
      </trkpt>
      <trkpt lat="47.3555580" lon="6.8336960">
        <ele>769.4</ele>
        <time>2022-07-20T16:14:49Z</time>
      </trkpt>
      <trkpt lat="47.3555340" lon="6.8337380">
        <ele>769.4</ele>
        <time>2022-07-20T16:14:50Z</time>
      </trkpt>
      <trkpt lat="47.3555120" lon="6.8337830">
        <ele>769.4</ele>
        <time>2022-07-20T16:14:51Z</time>
      </trkpt>
      <trkpt lat="47.3554930" lon="6.8338270">
        <ele>769.4</ele>
        <time>2022-07-20T16:14:52Z</time>
      </trkpt>
      <trkpt lat="47.3554740" lon="6.8338750">
        <ele>769.4</ele>
        <time>2022-07-20T16:14:53Z</time>
      </trkpt>
      <trkpt lat="47.3554610" lon="6.8339210">
        <ele>769.4</ele>
        <time>2022-07-20T16:14:54Z</time>
      </trkpt>
      <trkpt lat="47.3554540" lon="6.8339600">
        <ele>769.4</ele>
        <time>2022-07-20T16:14:55Z</time>
      </trkpt>
      <trkpt lat="47.3554490" lon="6.8340180">
        <ele>769.5</ele>
        <time>2022-07-20T16:14:56Z</time>
      </trkpt>
      <trkpt lat="47.3554480" lon="6.8340380">
        <ele>769.5</ele>
        <time>2022-07-20T16:14:57Z</time>
      </trkpt>
      <trkpt lat="47.3554440" lon="6.8340860">
        <ele>769.5</ele>
        <time>2022-07-20T16:14:58Z</time>
      </trkpt>
      <trkpt lat="47.3554420" lon="6.8341350">
        <ele>769.5</ele>
        <time>2022-07-20T16:14:59Z</time>
      </trkpt>
      <trkpt lat="47.3554400" lon="6.8341820">
        <ele>769.6</ele>
        <time>2022-07-20T16:15:00Z</time>
      </trkpt>
      <trkpt lat="47.3554370" lon="6.8342280">
        <ele>769.6</ele>
        <time>2022-07-20T16:15:01Z</time>
      </trkpt>
      <trkpt lat="47.3554340" lon="6.8342720">
        <ele>769.7</ele>
        <time>2022-07-20T16:15:02Z</time>
      </trkpt>
      <trkpt lat="47.3554290" lon="6.8343250">
        <ele>769.8</ele>
        <time>2022-07-20T16:15:03Z</time>
      </trkpt>
      <trkpt lat="47.3554240" lon="6.8343700">
        <ele>769.8</ele>
        <time>2022-07-20T16:15:04Z</time>
      </trkpt>
      <trkpt lat="47.3554200" lon="6.8344190">
        <ele>769.9</ele>
        <time>2022-07-20T16:15:05Z</time>
      </trkpt>
      <trkpt lat="47.3554150" lon="6.8344700">
        <ele>770.0</ele>
        <time>2022-07-20T16:15:06Z</time>
      </trkpt>
      <trkpt lat="47.3554090" lon="6.8345210">
        <ele>770.0</ele>
        <time>2022-07-20T16:15:07Z</time>
      </trkpt>
      <trkpt lat="47.3554020" lon="6.8345810">
        <ele>770.1</ele>
        <time>2022-07-20T16:15:08Z</time>
      </trkpt>
      <trkpt lat="47.3553990" lon="6.8346040">
        <ele>770.1</ele>
        <time>2022-07-20T16:15:09Z</time>
      </trkpt>
      <trkpt lat="47.3553930" lon="6.8346450">
        <ele>770.2</ele>
        <time>2022-07-20T16:15:10Z</time>
      </trkpt>
      <trkpt lat="47.3553870" lon="6.8346930">
        <ele>770.2</ele>
        <time>2022-07-20T16:15:11Z</time>
      </trkpt>
      <trkpt lat="47.3553800" lon="6.8347380">
        <ele>770.3</ele>
        <time>2022-07-20T16:15:12Z</time>
      </trkpt>
      <trkpt lat="47.3553730" lon="6.8347810">
        <ele>770.3</ele>
        <time>2022-07-20T16:15:13Z</time>
      </trkpt>
      <trkpt lat="47.3553660" lon="6.8348310">
        <ele>770.4</ele>
        <time>2022-07-20T16:15:14Z</time>
      </trkpt>
      <trkpt lat="47.3553570" lon="6.8348930">
        <ele>770.4</ele>
        <time>2022-07-20T16:15:15Z</time>
      </trkpt>
      <trkpt lat="47.3553530" lon="6.8349170">
        <ele>770.5</ele>
        <time>2022-07-20T16:15:16Z</time>
      </trkpt>
      <trkpt lat="47.3553470" lon="6.8349600">
        <ele>770.6</ele>
        <time>2022-07-20T16:15:17Z</time>
      </trkpt>
      <trkpt lat="47.3553420" lon="6.8350000">
        <ele>770.6</ele>
        <time>2022-07-20T16:15:18Z</time>
      </trkpt>
      <trkpt lat="47.3553360" lon="6.8350410">
        <ele>770.7</ele>
        <time>2022-07-20T16:15:19Z</time>
      </trkpt>
      <trkpt lat="47.3553300" lon="6.8350880">
        <ele>770.8</ele>
        <time>2022-07-20T16:15:20Z</time>
      </trkpt>
      <trkpt lat="47.3553230" lon="6.8351290">
        <ele>770.9</ele>
        <time>2022-07-20T16:15:21Z</time>
      </trkpt>
      <trkpt lat="47.3553100" lon="6.8351920">
        <ele>771.0</ele>
        <time>2022-07-20T16:15:22Z</time>
      </trkpt>
      <trkpt lat="47.3552950" lon="6.8352570">
        <ele>771.1</ele>
        <time>2022-07-20T16:15:23Z</time>
      </trkpt>
      <trkpt lat="47.3552860" lon="6.8353180">
        <ele>771.2</ele>
        <time>2022-07-20T16:15:25Z</time>
      </trkpt>
      <trkpt lat="47.3552670" lon="6.8354020">
        <ele>771.3</ele>
        <time>2022-07-20T16:15:27Z</time>
      </trkpt>
      <trkpt lat="47.3552530" lon="6.8354550">
        <ele>771.4</ele>
        <time>2022-07-20T16:15:28Z</time>
      </trkpt>
      <trkpt lat="47.3552380" lon="6.8355010">
        <ele>771.4</ele>
        <time>2022-07-20T16:15:29Z</time>
      </trkpt>
      <trkpt lat="47.3552230" lon="6.8355430">
        <ele>771.5</ele>
        <time>2022-07-20T16:15:30Z</time>
      </trkpt>
      <trkpt lat="47.3552060" lon="6.8355790">
        <ele>771.6</ele>
        <time>2022-07-20T16:15:31Z</time>
      </trkpt>
      <trkpt lat="47.3551850" lon="6.8356240">
        <ele>771.6</ele>
        <time>2022-07-20T16:15:32Z</time>
      </trkpt>
      <trkpt lat="47.3551610" lon="6.8356830">
        <ele>771.7</ele>
        <time>2022-07-20T16:15:34Z</time>
      </trkpt>
      <trkpt lat="47.3551400" lon="6.8357290">
        <ele>771.8</ele>
        <time>2022-07-20T16:15:35Z</time>
      </trkpt>
      <trkpt lat="47.3551220" lon="6.8357670">
        <ele>771.9</ele>
        <time>2022-07-20T16:15:36Z</time>
      </trkpt>
      <trkpt lat="47.3551080" lon="6.8358040">
        <ele>771.9</ele>
        <time>2022-07-20T16:15:37Z</time>
      </trkpt>
      <trkpt lat="47.3550840" lon="6.8358660">
        <ele>772.0</ele>
        <time>2022-07-20T16:15:38Z</time>
      </trkpt>
      <trkpt lat="47.3550590" lon="6.8359180">
        <ele>772.1</ele>
        <time>2022-07-20T16:15:40Z</time>
      </trkpt>
      <trkpt lat="47.3550410" lon="6.8359590">
        <ele>772.2</ele>
        <time>2022-07-20T16:15:41Z</time>
      </trkpt>
      <trkpt lat="47.3550210" lon="6.8360020">
        <ele>772.2</ele>
        <time>2022-07-20T16:15:42Z</time>
      </trkpt>
      <trkpt lat="47.3549930" lon="6.8360730">
        <ele>772.3</ele>
        <time>2022-07-20T16:15:44Z</time>
      </trkpt>
      <trkpt lat="47.3549750" lon="6.8361160">
        <ele>772.3</ele>
        <time>2022-07-20T16:15:45Z</time>
      </trkpt>
      <trkpt lat="47.3549610" lon="6.8361580">
        <ele>772.3</ele>
        <time>2022-07-20T16:15:46Z</time>
      </trkpt>
      <trkpt lat="47.3549490" lon="6.8361950">
        <ele>772.3</ele>
        <time>2022-07-20T16:15:47Z</time>
      </trkpt>
      <trkpt lat="47.3549360" lon="6.8362340">
        <ele>772.3</ele>
        <time>2022-07-20T16:15:48Z</time>
      </trkpt>
      <trkpt lat="47.3549060" lon="6.8362900">
        <ele>772.2</ele>
        <time>2022-07-20T16:15:49Z</time>
      </trkpt>
      <trkpt lat="47.3548430" lon="6.8363660">
        <ele>772.0</ele>
        <time>2022-07-20T16:15:51Z</time>
      </trkpt>
      <trkpt lat="47.3547930" lon="6.8364020">
        <ele>771.9</ele>
        <time>2022-07-20T16:15:53Z</time>
      </trkpt>
      <trkpt lat="47.3547630" lon="6.8364170">
        <ele>771.8</ele>
        <time>2022-07-20T16:15:54Z</time>
      </trkpt>
      <trkpt lat="47.3547370" lon="6.8364330">
        <ele>771.7</ele>
        <time>2022-07-20T16:15:55Z</time>
      </trkpt>
      <trkpt lat="47.3547080" lon="6.8364430">
        <ele>771.6</ele>
        <time>2022-07-20T16:15:56Z</time>
      </trkpt>
      <trkpt lat="47.3546680" lon="6.8364510">
        <ele>771.4</ele>
        <time>2022-07-20T16:15:57Z</time>
      </trkpt>
      <trkpt lat="47.3546170" lon="6.8364630">
        <ele>771.2</ele>
        <time>2022-07-20T16:15:58Z</time>
      </trkpt>
      <trkpt lat="47.3545490" lon="6.8364820">
        <ele>771.0</ele>
        <time>2022-07-20T16:16:00Z</time>
      </trkpt>
      <trkpt lat="47.3545010" lon="6.8364840">
        <ele>770.8</ele>
        <time>2022-07-20T16:16:01Z</time>
      </trkpt>
      <trkpt lat="47.3544620" lon="6.8364940">
        <ele>770.6</ele>
        <time>2022-07-20T16:16:02Z</time>
      </trkpt>
      <trkpt lat="47.3543930" lon="6.8365560">
        <ele>770.3</ele>
        <time>2022-07-20T16:16:03Z</time>
      </trkpt>
      <trkpt lat="47.3543540" lon="6.8365860">
        <ele>770.1</ele>
        <time>2022-07-20T16:16:04Z</time>
      </trkpt>
      <trkpt lat="47.3543280" lon="6.8366060">
        <ele>770.0</ele>
        <time>2022-07-20T16:16:05Z</time>
      </trkpt>
      <trkpt lat="47.3542890" lon="6.8366180">
        <ele>769.9</ele>
        <time>2022-07-20T16:16:06Z</time>
      </trkpt>
      <trkpt lat="47.3542650" lon="6.8366370">
        <ele>769.7</ele>
        <time>2022-07-20T16:16:07Z</time>
      </trkpt>
      <trkpt lat="47.3542430" lon="6.8366620">
        <ele>769.6</ele>
        <time>2022-07-20T16:16:08Z</time>
      </trkpt>
      <trkpt lat="47.3542310" lon="6.8366780">
        <ele>769.6</ele>
        <time>2022-07-20T16:16:09Z</time>
      </trkpt>
      <trkpt lat="47.3542180" lon="6.8366900">
        <ele>769.5</ele>
        <time>2022-07-20T16:16:10Z</time>
      </trkpt>
      <trkpt lat="47.3541950" lon="6.8367190">
        <ele>769.4</ele>
        <time>2022-07-20T16:16:11Z</time>
      </trkpt>
      <trkpt lat="47.3541690" lon="6.8367430">
        <ele>769.3</ele>
        <time>2022-07-20T16:16:12Z</time>
      </trkpt>
      <trkpt lat="47.3541460" lon="6.8367740">
        <ele>769.2</ele>
        <time>2022-07-20T16:16:13Z</time>
      </trkpt>
      <trkpt lat="47.3541240" lon="6.8368110">
        <ele>769.0</ele>
        <time>2022-07-20T16:16:14Z</time>
      </trkpt>
      <trkpt lat="47.3540890" lon="6.8368530">
        <ele>768.9</ele>
        <time>2022-07-20T16:16:16Z</time>
      </trkpt>
      <trkpt lat="47.3540590" lon="6.8368860">
        <ele>768.7</ele>
        <time>2022-07-20T16:16:17Z</time>
      </trkpt>
      <trkpt lat="47.3540410" lon="6.8369180">
        <ele>768.6</ele>
        <time>2022-07-20T16:16:18Z</time>
      </trkpt>
      <trkpt lat="47.3540260" lon="6.8369510">
        <ele>768.5</ele>
        <time>2022-07-20T16:16:19Z</time>
      </trkpt>
      <trkpt lat="47.3540050" lon="6.8370000">
        <ele>768.3</ele>
        <time>2022-07-20T16:16:20Z</time>
      </trkpt>
      <trkpt lat="47.3539970" lon="6.8370180">
        <ele>768.2</ele>
        <time>2022-07-20T16:16:21Z</time>
      </trkpt>
      <trkpt lat="47.3539780" lon="6.8370670">
        <ele>768.1</ele>
        <time>2022-07-20T16:16:22Z</time>
      </trkpt>
      <trkpt lat="47.3539610" lon="6.8371340">
        <ele>767.9</ele>
        <time>2022-07-20T16:16:24Z</time>
      </trkpt>
      <trkpt lat="47.3539580" lon="6.8372080">
        <ele>767.7</ele>
        <time>2022-07-20T16:16:25Z</time>
      </trkpt>
      <trkpt lat="47.3539610" lon="6.8372930">
        <ele>767.5</ele>
        <time>2022-07-20T16:16:26Z</time>
      </trkpt>
      <trkpt lat="47.3539700" lon="6.8373670">
        <ele>767.4</ele>
        <time>2022-07-20T16:16:28Z</time>
      </trkpt>
      <trkpt lat="47.3539880" lon="6.8375320">
        <ele>767.2</ele>
        <time>2022-07-20T16:16:29Z</time>
      </trkpt>
      <trkpt lat="47.3539990" lon="6.8376350">
        <ele>767.1</ele>
        <time>2022-07-20T16:16:30Z</time>
      </trkpt>
      <trkpt lat="47.3540100" lon="6.8377170">
        <ele>767.0</ele>
        <time>2022-07-20T16:16:31Z</time>
      </trkpt>
      <trkpt lat="47.3540080" lon="6.8378100">
        <ele>766.9</ele>
        <time>2022-07-20T16:16:33Z</time>
      </trkpt>
      <trkpt lat="47.3540040" lon="6.8378770">
        <ele>766.7</ele>
        <time>2022-07-20T16:16:34Z</time>
      </trkpt>
      <trkpt lat="47.3540010" lon="6.8379230">
        <ele>766.6</ele>
        <time>2022-07-20T16:16:35Z</time>
      </trkpt>
      <trkpt lat="47.3539990" lon="6.8379440">
        <ele>766.6</ele>
        <time>2022-07-20T16:16:37Z</time>
      </trkpt>
      <trkpt lat="47.3540160" lon="6.8379570">
        <ele>766.5</ele>
        <time>2022-07-20T16:16:38Z</time>
      </trkpt>
      <trkpt lat="47.3540140" lon="6.8379880">
        <ele>766.5</ele>
        <time>2022-07-20T16:16:39Z</time>
      </trkpt>
      <trkpt lat="47.3540120" lon="6.8379970">
        <ele>766.5</ele>
        <time>2022-07-20T16:16:41Z</time>
      </trkpt>
      <trkpt lat="47.3540100" lon="6.8380070">
        <ele>766.4</ele>
        <time>2022-07-20T16:16:42Z</time>
      </trkpt>
      <trkpt lat="47.3540080" lon="6.8380160">
        <ele>766.4</ele>
        <time>2022-07-20T16:16:43Z</time>
      </trkpt>
      <trkpt lat="47.3540060" lon="6.8380260">
        <ele>766.4</ele>
        <time>2022-07-20T16:16:44Z</time>
      </trkpt>
      <trkpt lat="47.3540050" lon="6.8380350">
        <ele>766.4</ele>
        <time>2022-07-20T16:16:45Z</time>
      </trkpt>
      <trkpt lat="47.3540030" lon="6.8380450">
        <ele>766.4</ele>
        <time>2022-07-20T16:16:46Z</time>
      </trkpt>
      <trkpt lat="47.3540010" lon="6.8380540">
        <ele>766.4</ele>
        <time>2022-07-20T16:16:47Z</time>
      </trkpt>
      <trkpt lat="47.3539990" lon="6.8380630">
        <ele>766.4</ele>
        <time>2022-07-20T16:16:48Z</time>
      </trkpt>
      <trkpt lat="47.3539970" lon="6.8380730">
        <ele>766.4</ele>
        <time>2022-07-20T16:16:49Z</time>
      </trkpt>
      <trkpt lat="47.3539950" lon="6.8380820">
        <ele>766.4</ele>
        <time>2022-07-20T16:16:58Z</time>
      </trkpt>
      <trkpt lat="47.3539930" lon="6.8380920">
        <ele>766.4</ele>
        <time>2022-07-20T16:16:59Z</time>
      </trkpt>
      <trkpt lat="47.3539910" lon="6.8381010">
        <ele>766.4</ele>
        <time>2022-07-20T16:17:00Z</time>
      </trkpt>
      <trkpt lat="47.3540050" lon="6.8381510">
        <ele>766.3</ele>
        <time>2022-07-20T16:17:01Z</time>
      </trkpt>
      <trkpt lat="47.3540120" lon="6.8381720">
        <ele>766.3</ele>
        <time>2022-07-20T16:17:02Z</time>
      </trkpt>
      <trkpt lat="47.3540190" lon="6.8382170">
        <ele>766.3</ele>
        <time>2022-07-20T16:17:03Z</time>
      </trkpt>
      <trkpt lat="47.3540220" lon="6.8382550">
        <ele>766.2</ele>
        <time>2022-07-20T16:17:04Z</time>
      </trkpt>
      <trkpt lat="47.3540280" lon="6.8383080">
        <ele>766.2</ele>
        <time>2022-07-20T16:17:06Z</time>
      </trkpt>
      <trkpt lat="47.3540340" lon="6.8383630">
        <ele>766.1</ele>
        <time>2022-07-20T16:17:07Z</time>
      </trkpt>
      <trkpt lat="47.3540370" lon="6.8383990">
        <ele>766.1</ele>
        <time>2022-07-20T16:17:08Z</time>
      </trkpt>
      <trkpt lat="47.3540410" lon="6.8384530">
        <ele>766.1</ele>
        <time>2022-07-20T16:17:10Z</time>
      </trkpt>
      <trkpt lat="47.3540440" lon="6.8385270">
        <ele>766.0</ele>
        <time>2022-07-20T16:17:11Z</time>
      </trkpt>
      <trkpt lat="47.3540470" lon="6.8385760">
        <ele>765.9</ele>
        <time>2022-07-20T16:17:12Z</time>
      </trkpt>
      <trkpt lat="47.3540510" lon="6.8386390">
        <ele>765.9</ele>
        <time>2022-07-20T16:17:14Z</time>
      </trkpt>
      <trkpt lat="47.3540550" lon="6.8387040">
        <ele>765.8</ele>
        <time>2022-07-20T16:17:15Z</time>
      </trkpt>
      <trkpt lat="47.3540610" lon="6.8387620">
        <ele>765.7</ele>
        <time>2022-07-20T16:17:16Z</time>
      </trkpt>
      <trkpt lat="47.3540660" lon="6.8388450">
        <ele>765.6</ele>
        <time>2022-07-20T16:17:17Z</time>
      </trkpt>
      <trkpt lat="47.3540750" lon="6.8389080">
        <ele>765.5</ele>
        <time>2022-07-20T16:17:18Z</time>
      </trkpt>
      <trkpt lat="47.3540900" lon="6.8389760">
        <ele>765.4</ele>
        <time>2022-07-20T16:17:20Z</time>
      </trkpt>
      <trkpt lat="47.3541090" lon="6.8390420">
        <ele>765.2</ele>
        <time>2022-07-20T16:17:21Z</time>
      </trkpt>
      <trkpt lat="47.3541240" lon="6.8391010">
        <ele>765.1</ele>
        <time>2022-07-20T16:17:22Z</time>
      </trkpt>
      <trkpt lat="47.3541490" lon="6.8391740">
        <ele>764.8</ele>
        <time>2022-07-20T16:17:23Z</time>
      </trkpt>
      <trkpt lat="47.3541630" lon="6.8392450">
        <ele>764.6</ele>
        <time>2022-07-20T16:17:24Z</time>
      </trkpt>
      <trkpt lat="47.3541810" lon="6.8393150">
        <ele>764.4</ele>
        <time>2022-07-20T16:17:25Z</time>
      </trkpt>
      <trkpt lat="47.3541990" lon="6.8393830">
        <ele>764.2</ele>
        <time>2022-07-20T16:17:26Z</time>
      </trkpt>
      <trkpt lat="47.3542200" lon="6.8394530">
        <ele>764.0</ele>
        <time>2022-07-20T16:17:27Z</time>
      </trkpt>
      <trkpt lat="47.3542380" lon="6.8395250">
        <ele>763.9</ele>
        <time>2022-07-20T16:17:28Z</time>
      </trkpt>
      <trkpt lat="47.3542530" lon="6.8395920">
        <ele>763.7</ele>
        <time>2022-07-20T16:17:29Z</time>
      </trkpt>
      <trkpt lat="47.3542780" lon="6.8396670">
        <ele>763.5</ele>
        <time>2022-07-20T16:17:30Z</time>
      </trkpt>
      <trkpt lat="47.3543010" lon="6.8397430">
        <ele>763.3</ele>
        <time>2022-07-20T16:17:31Z</time>
      </trkpt>
      <trkpt lat="47.3543110" lon="6.8397920">
        <ele>763.2</ele>
        <time>2022-07-20T16:17:32Z</time>
      </trkpt>
      <trkpt lat="47.3543260" lon="6.8398580">
        <ele>763.0</ele>
        <time>2022-07-20T16:17:33Z</time>
      </trkpt>
      <trkpt lat="47.3543100" lon="6.8399240">
        <ele>762.8</ele>
        <time>2022-07-20T16:17:34Z</time>
      </trkpt>
      <trkpt lat="47.3543250" lon="6.8399990">
        <ele>762.7</ele>
        <time>2022-07-20T16:17:36Z</time>
      </trkpt>
      <trkpt lat="47.3543360" lon="6.8400560">
        <ele>762.5</ele>
        <time>2022-07-20T16:17:37Z</time>
      </trkpt>
      <trkpt lat="47.3543560" lon="6.8401090">
        <ele>762.5</ele>
        <time>2022-07-20T16:17:38Z</time>
      </trkpt>
      <trkpt lat="47.3543770" lon="6.8401560">
        <ele>762.5</ele>
        <time>2022-07-20T16:17:39Z</time>
      </trkpt>
      <trkpt lat="47.3544110" lon="6.8402150">
        <ele>762.4</ele>
        <time>2022-07-20T16:17:40Z</time>
      </trkpt>
      <trkpt lat="47.3544230" lon="6.8402640">
        <ele>762.3</ele>
        <time>2022-07-20T16:17:41Z</time>
      </trkpt>
      <trkpt lat="47.3544160" lon="6.8403740">
        <ele>761.9</ele>
        <time>2022-07-20T16:17:43Z</time>
      </trkpt>
      <trkpt lat="47.3544030" lon="6.8404300">
        <ele>761.7</ele>
        <time>2022-07-20T16:17:44Z</time>
      </trkpt>
      <trkpt lat="47.3544000" lon="6.8404940">
        <ele>761.5</ele>
        <time>2022-07-20T16:17:45Z</time>
      </trkpt>
      <trkpt lat="47.3544010" lon="6.8405620">
        <ele>761.3</ele>
        <time>2022-07-20T16:17:47Z</time>
      </trkpt>
      <trkpt lat="47.3544020" lon="6.8406420">
        <ele>761.1</ele>
        <time>2022-07-20T16:17:48Z</time>
      </trkpt>
      <trkpt lat="47.3543980" lon="6.8407150">
        <ele>760.8</ele>
        <time>2022-07-20T16:17:49Z</time>
      </trkpt>
      <trkpt lat="47.3543950" lon="6.8408080">
        <ele>760.5</ele>
        <time>2022-07-20T16:17:50Z</time>
      </trkpt>
      <trkpt lat="47.3543700" lon="6.8409620">
        <ele>760.0</ele>
        <time>2022-07-20T16:17:52Z</time>
      </trkpt>
      <trkpt lat="47.3543620" lon="6.8410490">
        <ele>759.7</ele>
        <time>2022-07-20T16:17:53Z</time>
      </trkpt>
      <trkpt lat="47.3543580" lon="6.8411320">
        <ele>759.4</ele>
        <time>2022-07-20T16:17:54Z</time>
      </trkpt>
      <trkpt lat="47.3543660" lon="6.8412360">
        <ele>759.1</ele>
        <time>2022-07-20T16:17:55Z</time>
      </trkpt>
      <trkpt lat="47.3543730" lon="6.8413470">
        <ele>758.7</ele>
        <time>2022-07-20T16:17:56Z</time>
      </trkpt>
      <trkpt lat="47.3543690" lon="6.8414320">
        <ele>758.5</ele>
        <time>2022-07-20T16:17:57Z</time>
      </trkpt>
      <trkpt lat="47.3543610" lon="6.8415070">
        <ele>758.2</ele>
        <time>2022-07-20T16:17:58Z</time>
      </trkpt>
      <trkpt lat="47.3543560" lon="6.8415880">
        <ele>757.9</ele>
        <time>2022-07-20T16:17:59Z</time>
      </trkpt>
      <trkpt lat="47.3543510" lon="6.8416710">
        <ele>757.7</ele>
        <time>2022-07-20T16:18:00Z</time>
      </trkpt>
      <trkpt lat="47.3543500" lon="6.8417500">
        <ele>757.4</ele>
        <time>2022-07-20T16:18:01Z</time>
      </trkpt>
      <trkpt lat="47.3543540" lon="6.8418140">
        <ele>757.1</ele>
        <time>2022-07-20T16:18:03Z</time>
      </trkpt>
      <trkpt lat="47.3542970" lon="6.8419710">
        <ele>756.4</ele>
        <time>2022-07-20T16:18:05Z</time>
      </trkpt>
      <trkpt lat="47.3542790" lon="6.8420460">
        <ele>756.0</ele>
        <time>2022-07-20T16:18:06Z</time>
      </trkpt>
      <trkpt lat="47.3542660" lon="6.8421090">
        <ele>755.6</ele>
        <time>2022-07-20T16:18:07Z</time>
      </trkpt>
      <trkpt lat="47.3542750" lon="6.8421530">
        <ele>755.4</ele>
        <time>2022-07-20T16:18:08Z</time>
      </trkpt>
      <trkpt lat="47.3542660" lon="6.8422080">
        <ele>755.1</ele>
        <time>2022-07-20T16:18:09Z</time>
      </trkpt>
      <trkpt lat="47.3542560" lon="6.8422690">
        <ele>754.7</ele>
        <time>2022-07-20T16:18:10Z</time>
      </trkpt>
      <trkpt lat="47.3542400" lon="6.8423540">
        <ele>754.1</ele>
        <time>2022-07-20T16:18:11Z</time>
      </trkpt>
      <trkpt lat="47.3542250" lon="6.8424200">
        <ele>753.6</ele>
        <time>2022-07-20T16:18:12Z</time>
      </trkpt>
      <trkpt lat="47.3542090" lon="6.8424600">
        <ele>753.2</ele>
        <time>2022-07-20T16:18:13Z</time>
      </trkpt>
      <trkpt lat="47.3541650" lon="6.8425340">
        <ele>752.5</ele>
        <time>2022-07-20T16:18:14Z</time>
      </trkpt>
      <trkpt lat="47.3541270" lon="6.8426140">
        <ele>751.9</ele>
        <time>2022-07-20T16:18:15Z</time>
      </trkpt>
      <trkpt lat="47.3540860" lon="6.8426890">
        <ele>751.2</ele>
        <time>2022-07-20T16:18:16Z</time>
      </trkpt>
      <trkpt lat="47.3540480" lon="6.8427630">
        <ele>750.5</ele>
        <time>2022-07-20T16:18:17Z</time>
      </trkpt>
      <trkpt lat="47.3540140" lon="6.8428350">
        <ele>749.9</ele>
        <time>2022-07-20T16:18:18Z</time>
      </trkpt>
      <trkpt lat="47.3539810" lon="6.8428990">
        <ele>749.3</ele>
        <time>2022-07-20T16:18:19Z</time>
      </trkpt>
      <trkpt lat="47.3539470" lon="6.8429690">
        <ele>748.7</ele>
        <time>2022-07-20T16:18:20Z</time>
      </trkpt>
      <trkpt lat="47.3539080" lon="6.8430340">
        <ele>748.0</ele>
        <time>2022-07-20T16:18:21Z</time>
      </trkpt>
      <trkpt lat="47.3538650" lon="6.8431020">
        <ele>747.3</ele>
        <time>2022-07-20T16:18:22Z</time>
      </trkpt>
      <trkpt lat="47.3538240" lon="6.8431750">
        <ele>746.6</ele>
        <time>2022-07-20T16:18:23Z</time>
      </trkpt>
      <trkpt lat="47.3537800" lon="6.8432560">
        <ele>745.9</ele>
        <time>2022-07-20T16:18:24Z</time>
      </trkpt>
      <trkpt lat="47.3537340" lon="6.8433420">
        <ele>745.1</ele>
        <time>2022-07-20T16:18:25Z</time>
      </trkpt>
      <trkpt lat="47.3536890" lon="6.8434290">
        <ele>744.4</ele>
        <time>2022-07-20T16:18:26Z</time>
      </trkpt>
      <trkpt lat="47.3536470" lon="6.8435140">
        <ele>743.7</ele>
        <time>2022-07-20T16:18:27Z</time>
      </trkpt>
      <trkpt lat="47.3536100" lon="6.8435990">
        <ele>743.0</ele>
        <time>2022-07-20T16:18:28Z</time>
      </trkpt>
      <trkpt lat="47.3535740" lon="6.8436780">
        <ele>742.4</ele>
        <time>2022-07-20T16:18:29Z</time>
      </trkpt>
      <trkpt lat="47.3535400" lon="6.8437580">
        <ele>741.7</ele>
        <time>2022-07-20T16:18:30Z</time>
      </trkpt>
      <trkpt lat="47.3535060" lon="6.8438490">
        <ele>741.0</ele>
        <time>2022-07-20T16:18:31Z</time>
      </trkpt>
      <trkpt lat="47.3534670" lon="6.8439420">
        <ele>740.3</ele>
        <time>2022-07-20T16:18:32Z</time>
      </trkpt>
      <trkpt lat="47.3534230" lon="6.8440370">
        <ele>739.5</ele>
        <time>2022-07-20T16:18:33Z</time>
      </trkpt>
      <trkpt lat="47.3533790" lon="6.8441390">
        <ele>738.7</ele>
        <time>2022-07-20T16:18:34Z</time>
      </trkpt>
      <trkpt lat="47.3533380" lon="6.8442490">
        <ele>738.0</ele>
        <time>2022-07-20T16:18:35Z</time>
      </trkpt>
      <trkpt lat="47.3532940" lon="6.8443480">
        <ele>737.3</ele>
        <time>2022-07-20T16:18:36Z</time>
      </trkpt>
      <trkpt lat="47.3532520" lon="6.8444340">
        <ele>736.7</ele>
        <time>2022-07-20T16:18:37Z</time>
      </trkpt>
      <trkpt lat="47.3532100" lon="6.8445220">
        <ele>736.2</ele>
        <time>2022-07-20T16:18:38Z</time>
      </trkpt>
      <trkpt lat="47.3531750" lon="6.8446190">
        <ele>735.6</ele>
        <time>2022-07-20T16:18:39Z</time>
      </trkpt>
      <trkpt lat="47.3531380" lon="6.8447050">
        <ele>735.1</ele>
        <time>2022-07-20T16:18:40Z</time>
      </trkpt>
      <trkpt lat="47.3530990" lon="6.8447810">
        <ele>734.7</ele>
        <time>2022-07-20T16:18:41Z</time>
      </trkpt>
      <trkpt lat="47.3530640" lon="6.8448670">
        <ele>734.4</ele>
        <time>2022-07-20T16:18:42Z</time>
      </trkpt>
      <trkpt lat="47.3530310" lon="6.8449520">
        <ele>734.0</ele>
        <time>2022-07-20T16:18:43Z</time>
      </trkpt>
      <trkpt lat="47.3529980" lon="6.8450300">
        <ele>733.7</ele>
        <time>2022-07-20T16:18:44Z</time>
      </trkpt>
      <trkpt lat="47.3529810" lon="6.8451170">
        <ele>733.5</ele>
        <time>2022-07-20T16:18:45Z</time>
      </trkpt>
      <trkpt lat="47.3529660" lon="6.8452120">
        <ele>733.2</ele>
        <time>2022-07-20T16:18:46Z</time>
      </trkpt>
      <trkpt lat="47.3529550" lon="6.8452950">
        <ele>733.0</ele>
        <time>2022-07-20T16:18:47Z</time>
      </trkpt>
      <trkpt lat="47.3529450" lon="6.8453590">
        <ele>732.9</ele>
        <time>2022-07-20T16:18:48Z</time>
      </trkpt>
      <trkpt lat="47.3529380" lon="6.8454090">
        <ele>732.7</ele>
        <time>2022-07-20T16:18:49Z</time>
      </trkpt>
      <trkpt lat="47.3529270" lon="6.8454450">
        <ele>732.5</ele>
        <time>2022-07-20T16:18:50Z</time>
      </trkpt>
      <trkpt lat="47.3529110" lon="6.8454910">
        <ele>732.3</ele>
        <time>2022-07-20T16:18:51Z</time>
      </trkpt>
      <trkpt lat="47.3528900" lon="6.8455190">
        <ele>732.0</ele>
        <time>2022-07-20T16:18:52Z</time>
      </trkpt>
      <trkpt lat="47.3528580" lon="6.8455280">
        <ele>731.7</ele>
        <time>2022-07-20T16:18:53Z</time>
      </trkpt>
      <trkpt lat="47.3528310" lon="6.8455200">
        <ele>731.3</ele>
        <time>2022-07-20T16:18:54Z</time>
      </trkpt>
      <trkpt lat="47.3528040" lon="6.8455080">
        <ele>730.8</ele>
        <time>2022-07-20T16:18:55Z</time>
      </trkpt>
      <trkpt lat="47.3528080" lon="6.8454760">
        <ele>730.5</ele>
        <time>2022-07-20T16:18:56Z</time>
      </trkpt>
      <trkpt lat="47.3527820" lon="6.8454230">
        <ele>729.7</ele>
        <time>2022-07-20T16:18:58Z</time>
      </trkpt>
      <trkpt lat="47.3527550" lon="6.8453930">
        <ele>729.1</ele>
        <time>2022-07-20T16:18:59Z</time>
      </trkpt>
      <trkpt lat="47.3527100" lon="6.8453440">
        <ele>728.0</ele>
        <time>2022-07-20T16:19:00Z</time>
      </trkpt>
      <trkpt lat="47.3526690" lon="6.8452770">
        <ele>726.9</ele>
        <time>2022-07-20T16:19:01Z</time>
      </trkpt>
      <trkpt lat="47.3526260" lon="6.8452000">
        <ele>725.8</ele>
        <time>2022-07-20T16:19:02Z</time>
      </trkpt>
      <trkpt lat="47.3525810" lon="6.8451140">
        <ele>724.7</ele>
        <time>2022-07-20T16:19:03Z</time>
      </trkpt>
      <trkpt lat="47.3525370" lon="6.8450240">
        <ele>723.7</ele>
        <time>2022-07-20T16:19:04Z</time>
      </trkpt>
      <trkpt lat="47.3524930" lon="6.8449280">
        <ele>722.7</ele>
        <time>2022-07-20T16:19:05Z</time>
      </trkpt>
      <trkpt lat="47.3524530" lon="6.8448370">
        <ele>721.9</ele>
        <time>2022-07-20T16:19:06Z</time>
      </trkpt>
      <trkpt lat="47.3524160" lon="6.8447610">
        <ele>721.1</ele>
        <time>2022-07-20T16:19:07Z</time>
      </trkpt>
      <trkpt lat="47.3523770" lon="6.8446910">
        <ele>720.4</ele>
        <time>2022-07-20T16:19:08Z</time>
      </trkpt>
      <trkpt lat="47.3523390" lon="6.8446170">
        <ele>719.6</ele>
        <time>2022-07-20T16:19:09Z</time>
      </trkpt>
      <trkpt lat="47.3523040" lon="6.8445500">
        <ele>718.9</ele>
        <time>2022-07-20T16:19:10Z</time>
      </trkpt>
      <trkpt lat="47.3522710" lon="6.8444780">
        <ele>718.1</ele>
        <time>2022-07-20T16:19:11Z</time>
      </trkpt>
      <trkpt lat="47.3522360" lon="6.8444020">
        <ele>717.4</ele>
        <time>2022-07-20T16:19:12Z</time>
      </trkpt>
      <trkpt lat="47.3522010" lon="6.8443260">
        <ele>716.7</ele>
        <time>2022-07-20T16:19:13Z</time>
      </trkpt>
      <trkpt lat="47.3521640" lon="6.8442400">
        <ele>715.8</ele>
        <time>2022-07-20T16:19:14Z</time>
      </trkpt>
      <trkpt lat="47.3521240" lon="6.8441460">
        <ele>715.0</ele>
        <time>2022-07-20T16:19:15Z</time>
      </trkpt>
      <trkpt lat="47.3520830" lon="6.8440500">
        <ele>714.1</ele>
        <time>2022-07-20T16:19:16Z</time>
      </trkpt>
      <trkpt lat="47.3520430" lon="6.8439530">
        <ele>713.3</ele>
        <time>2022-07-20T16:19:17Z</time>
      </trkpt>
      <trkpt lat="47.3520030" lon="6.8438520">
        <ele>712.4</ele>
        <time>2022-07-20T16:19:18Z</time>
      </trkpt>
      <trkpt lat="47.3519630" lon="6.8437470">
        <ele>711.6</ele>
        <time>2022-07-20T16:19:19Z</time>
      </trkpt>
      <trkpt lat="47.3519180" lon="6.8436420">
        <ele>710.8</ele>
        <time>2022-07-20T16:19:20Z</time>
      </trkpt>
      <trkpt lat="47.3518760" lon="6.8435420">
        <ele>709.9</ele>
        <time>2022-07-20T16:19:21Z</time>
      </trkpt>
      <trkpt lat="47.3518370" lon="6.8434470">
        <ele>709.3</ele>
        <time>2022-07-20T16:19:22Z</time>
      </trkpt>
      <trkpt lat="47.3517950" lon="6.8433470">
        <ele>708.5</ele>
        <time>2022-07-20T16:19:23Z</time>
      </trkpt>
      <trkpt lat="47.3517520" lon="6.8432490">
        <ele>707.8</ele>
        <time>2022-07-20T16:19:24Z</time>
      </trkpt>
      <trkpt lat="47.3517050" lon="6.8431430">
        <ele>707.0</ele>
        <time>2022-07-20T16:19:25Z</time>
      </trkpt>
      <trkpt lat="47.3516610" lon="6.8430350">
        <ele>706.3</ele>
        <time>2022-07-20T16:19:26Z</time>
      </trkpt>
      <trkpt lat="47.3516250" lon="6.8429290">
        <ele>705.6</ele>
        <time>2022-07-20T16:19:27Z</time>
      </trkpt>
      <trkpt lat="47.3515960" lon="6.8428230">
        <ele>704.9</ele>
        <time>2022-07-20T16:19:28Z</time>
      </trkpt>
      <trkpt lat="47.3515670" lon="6.8427090">
        <ele>704.2</ele>
        <time>2022-07-20T16:19:29Z</time>
      </trkpt>
      <trkpt lat="47.3515370" lon="6.8425900">
        <ele>703.5</ele>
        <time>2022-07-20T16:19:30Z</time>
      </trkpt>
      <trkpt lat="47.3515140" lon="6.8424740">
        <ele>703.0</ele>
        <time>2022-07-20T16:19:31Z</time>
      </trkpt>
      <trkpt lat="47.3514920" lon="6.8423680">
        <ele>702.6</ele>
        <time>2022-07-20T16:19:32Z</time>
      </trkpt>
      <trkpt lat="47.3514720" lon="6.8422500">
        <ele>702.2</ele>
        <time>2022-07-20T16:19:33Z</time>
      </trkpt>
      <trkpt lat="47.3514560" lon="6.8421360">
        <ele>702.0</ele>
        <time>2022-07-20T16:19:34Z</time>
      </trkpt>
      <trkpt lat="47.3514480" lon="6.8420340">
        <ele>701.7</ele>
        <time>2022-07-20T16:19:35Z</time>
      </trkpt>
      <trkpt lat="47.3514450" lon="6.8419540">
        <ele>701.5</ele>
        <time>2022-07-20T16:19:36Z</time>
      </trkpt>
      <trkpt lat="47.3514450" lon="6.8418950">
        <ele>701.3</ele>
        <time>2022-07-20T16:19:37Z</time>
      </trkpt>
      <trkpt lat="47.3514490" lon="6.8418460">
        <ele>701.1</ele>
        <time>2022-07-20T16:19:38Z</time>
      </trkpt>
      <trkpt lat="47.3514510" lon="6.8418310">
        <ele>701.0</ele>
        <time>2022-07-20T16:19:39Z</time>
      </trkpt>
      <trkpt lat="47.3514550" lon="6.8418150">
        <ele>700.9</ele>
        <time>2022-07-20T16:19:40Z</time>
      </trkpt>
      <trkpt lat="47.3514520" lon="6.8418110">
        <ele>700.9</ele>
        <time>2022-07-20T16:19:41Z</time>
      </trkpt>
      <trkpt lat="47.3514490" lon="6.8418060">
        <ele>700.9</ele>
        <time>2022-07-20T16:19:42Z</time>
      </trkpt>
      <trkpt lat="47.3514460" lon="6.8418020">
        <ele>700.8</ele>
        <time>2022-07-20T16:19:43Z</time>
      </trkpt>
      <trkpt lat="47.3514430" lon="6.8417970">
        <ele>700.8</ele>
        <time>2022-07-20T16:19:44Z</time>
      </trkpt>
      <trkpt lat="47.3514400" lon="6.8417930">
        <ele>700.8</ele>
        <time>2022-07-20T16:19:45Z</time>
      </trkpt>
      <trkpt lat="47.3514370" lon="6.8417890">
        <ele>700.7</ele>
        <time>2022-07-20T16:19:46Z</time>
      </trkpt>
      <trkpt lat="47.3514340" lon="6.8417840">
        <ele>700.7</ele>
        <time>2022-07-20T16:19:47Z</time>
      </trkpt>
      <trkpt lat="47.3514310" lon="6.8417800">
        <ele>700.7</ele>
        <time>2022-07-20T16:19:48Z</time>
      </trkpt>
      <trkpt lat="47.3514280" lon="6.8417750">
        <ele>700.6</ele>
        <time>2022-07-20T16:19:49Z</time>
      </trkpt>
      <trkpt lat="47.3514250" lon="6.8417710">
        <ele>700.6</ele>
        <time>2022-07-20T16:19:50Z</time>
      </trkpt>
      <trkpt lat="47.3514220" lon="6.8417660">
        <ele>700.5</ele>
        <time>2022-07-20T16:19:51Z</time>
      </trkpt>
      <trkpt lat="47.3514180" lon="6.8417620">
        <ele>700.5</ele>
        <time>2022-07-20T16:19:52Z</time>
      </trkpt>
      <trkpt lat="47.3514150" lon="6.8417570">
        <ele>700.4</ele>
        <time>2022-07-20T16:19:53Z</time>
      </trkpt>
      <trkpt lat="47.3514120" lon="6.8417530">
        <ele>700.4</ele>
        <time>2022-07-20T16:20:11Z</time>
      </trkpt>
      <trkpt lat="47.3514090" lon="6.8417480">
        <ele>700.3</ele>
        <time>2022-07-20T16:20:12Z</time>
      </trkpt>
      <trkpt lat="47.3514060" lon="6.8417440">
        <ele>700.3</ele>
        <time>2022-07-20T16:20:13Z</time>
      </trkpt>
      <trkpt lat="47.3513720" lon="6.8417210">
        <ele>699.8</ele>
        <time>2022-07-20T16:20:14Z</time>
      </trkpt>
      <trkpt lat="47.3513580" lon="6.8417160">
        <ele>699.6</ele>
        <time>2022-07-20T16:20:15Z</time>
      </trkpt>
      <trkpt lat="47.3513300" lon="6.8417170">
        <ele>699.2</ele>
        <time>2022-07-20T16:20:16Z</time>
      </trkpt>
      <trkpt lat="47.3513010" lon="6.8417200">
        <ele>698.7</ele>
        <time>2022-07-20T16:20:17Z</time>
      </trkpt>
      <trkpt lat="47.3512710" lon="6.8417350">
        <ele>698.1</ele>
        <time>2022-07-20T16:20:18Z</time>
      </trkpt>
      <trkpt lat="47.3512410" lon="6.8417780">
        <ele>697.3</ele>
        <time>2022-07-20T16:20:19Z</time>
      </trkpt>
      <trkpt lat="47.3512030" lon="6.8418410">
        <ele>696.3</ele>
        <time>2022-07-20T16:20:20Z</time>
      </trkpt>
      <trkpt lat="47.3511670" lon="6.8419110">
        <ele>695.4</ele>
        <time>2022-07-20T16:20:21Z</time>
      </trkpt>
      <trkpt lat="47.3511280" lon="6.8419820">
        <ele>694.5</ele>
        <time>2022-07-20T16:20:22Z</time>
      </trkpt>
      <trkpt lat="47.3510850" lon="6.8420520">
        <ele>693.8</ele>
        <time>2022-07-20T16:20:23Z</time>
      </trkpt>
      <trkpt lat="47.3510420" lon="6.8421230">
        <ele>693.1</ele>
        <time>2022-07-20T16:20:24Z</time>
      </trkpt>
      <trkpt lat="47.3510000" lon="6.8421910">
        <ele>692.6</ele>
        <time>2022-07-20T16:20:25Z</time>
      </trkpt>
      <trkpt lat="47.3509640" lon="6.8422560">
        <ele>692.1</ele>
        <time>2022-07-20T16:20:26Z</time>
      </trkpt>
      <trkpt lat="47.3509310" lon="6.8423200">
        <ele>691.7</ele>
        <time>2022-07-20T16:20:27Z</time>
      </trkpt>
      <trkpt lat="47.3509030" lon="6.8423790">
        <ele>691.3</ele>
        <time>2022-07-20T16:20:28Z</time>
      </trkpt>
      <trkpt lat="47.3508700" lon="6.8424280">
        <ele>691.0</ele>
        <time>2022-07-20T16:20:29Z</time>
      </trkpt>
      <trkpt lat="47.3508530" lon="6.8424480">
        <ele>690.8</ele>
        <time>2022-07-20T16:20:30Z</time>
      </trkpt>
      <trkpt lat="47.3508160" lon="6.8424740">
        <ele>690.5</ele>
        <time>2022-07-20T16:20:31Z</time>
      </trkpt>
      <trkpt lat="47.3507830" lon="6.8424930">
        <ele>690.1</ele>
        <time>2022-07-20T16:20:32Z</time>
      </trkpt>
      <trkpt lat="47.3507420" lon="6.8424920">
        <ele>689.7</ele>
        <time>2022-07-20T16:20:33Z</time>
      </trkpt>
      <trkpt lat="47.3507060" lon="6.8424720">
        <ele>689.2</ele>
        <time>2022-07-20T16:20:34Z</time>
      </trkpt>
      <trkpt lat="47.3506710" lon="6.8424300">
        <ele>688.6</ele>
        <time>2022-07-20T16:20:35Z</time>
      </trkpt>
      <trkpt lat="47.3506350" lon="6.8423760">
        <ele>687.8</ele>
        <time>2022-07-20T16:20:36Z</time>
      </trkpt>
      <trkpt lat="47.3506040" lon="6.8423190">
        <ele>687.0</ele>
        <time>2022-07-20T16:20:37Z</time>
      </trkpt>
      <trkpt lat="47.3505780" lon="6.8422710">
        <ele>686.3</ele>
        <time>2022-07-20T16:20:38Z</time>
      </trkpt>
      <trkpt lat="47.3505440" lon="6.8422140">
        <ele>685.5</ele>
        <time>2022-07-20T16:20:39Z</time>
      </trkpt>
      <trkpt lat="47.3505060" lon="6.8421410">
        <ele>684.5</ele>
        <time>2022-07-20T16:20:40Z</time>
      </trkpt>
      <trkpt lat="47.3504610" lon="6.8420610">
        <ele>683.5</ele>
        <time>2022-07-20T16:20:41Z</time>
      </trkpt>
      <trkpt lat="47.3504160" lon="6.8419740">
        <ele>682.5</ele>
        <time>2022-07-20T16:20:42Z</time>
      </trkpt>
      <trkpt lat="47.3503740" lon="6.8418870">
        <ele>681.6</ele>
        <time>2022-07-20T16:20:43Z</time>
      </trkpt>
      <trkpt lat="47.3503300" lon="6.8418170">
        <ele>680.8</ele>
        <time>2022-07-20T16:20:44Z</time>
      </trkpt>
      <trkpt lat="47.3502880" lon="6.8417710">
        <ele>680.4</ele>
        <time>2022-07-20T16:20:45Z</time>
      </trkpt>
      <trkpt lat="47.3502440" lon="6.8417340">
        <ele>680.2</ele>
        <time>2022-07-20T16:20:46Z</time>
      </trkpt>
      <trkpt lat="47.3501980" lon="6.8417070">
        <ele>679.9</ele>
        <time>2022-07-20T16:20:47Z</time>
      </trkpt>
      <trkpt lat="47.3501630" lon="6.8417000">
        <ele>679.7</ele>
        <time>2022-07-20T16:20:48Z</time>
      </trkpt>
      <trkpt lat="47.3501240" lon="6.8416890">
        <ele>679.4</ele>
        <time>2022-07-20T16:20:49Z</time>
      </trkpt>
      <trkpt lat="47.3500770" lon="6.8416830">
        <ele>678.7</ele>
        <time>2022-07-20T16:20:50Z</time>
      </trkpt>
      <trkpt lat="47.3500120" lon="6.8416800">
        <ele>677.8</ele>
        <time>2022-07-20T16:20:51Z</time>
      </trkpt>
      <trkpt lat="47.3499470" lon="6.8416640">
        <ele>677.0</ele>
        <time>2022-07-20T16:20:52Z</time>
      </trkpt>
      <trkpt lat="47.3498820" lon="6.8416380">
        <ele>676.1</ele>
        <time>2022-07-20T16:20:53Z</time>
      </trkpt>
      <trkpt lat="47.3498180" lon="6.8416010">
        <ele>675.2</ele>
        <time>2022-07-20T16:20:54Z</time>
      </trkpt>
      <trkpt lat="47.3497630" lon="6.8415710">
        <ele>674.5</ele>
        <time>2022-07-20T16:20:55Z</time>
      </trkpt>
      <trkpt lat="47.3497100" lon="6.8415500">
        <ele>673.7</ele>
        <time>2022-07-20T16:20:56Z</time>
      </trkpt>
      <trkpt lat="47.3496500" lon="6.8415360">
        <ele>673.0</ele>
        <time>2022-07-20T16:20:57Z</time>
      </trkpt>
      <trkpt lat="47.3495880" lon="6.8415280">
        <ele>672.3</ele>
        <time>2022-07-20T16:20:58Z</time>
      </trkpt>
      <trkpt lat="47.3495300" lon="6.8415250">
        <ele>671.7</ele>
        <time>2022-07-20T16:20:59Z</time>
      </trkpt>
      <trkpt lat="47.3494780" lon="6.8415220">
        <ele>671.2</ele>
        <time>2022-07-20T16:21:00Z</time>
      </trkpt>
      <trkpt lat="47.3494300" lon="6.8415080">
        <ele>670.7</ele>
        <time>2022-07-20T16:21:01Z</time>
      </trkpt>
      <trkpt lat="47.3493810" lon="6.8414810">
        <ele>670.1</ele>
        <time>2022-07-20T16:21:02Z</time>
      </trkpt>
      <trkpt lat="47.3493370" lon="6.8414350">
        <ele>669.6</ele>
        <time>2022-07-20T16:21:03Z</time>
      </trkpt>
      <trkpt lat="47.3493070" lon="6.8413800">
        <ele>669.1</ele>
        <time>2022-07-20T16:21:04Z</time>
      </trkpt>
      <trkpt lat="47.3492900" lon="6.8413320">
        <ele>668.7</ele>
        <time>2022-07-20T16:21:05Z</time>
      </trkpt>
      <trkpt lat="47.3492830" lon="6.8413180">
        <ele>668.6</ele>
        <time>2022-07-20T16:21:06Z</time>
      </trkpt>
      <trkpt lat="47.3492670" lon="6.8413040">
        <ele>668.4</ele>
        <time>2022-07-20T16:21:07Z</time>
      </trkpt>
      <trkpt lat="47.3492560" lon="6.8413110">
        <ele>668.3</ele>
        <time>2022-07-20T16:21:08Z</time>
      </trkpt>
      <trkpt lat="47.3492480" lon="6.8413130">
        <ele>668.2</ele>
        <time>2022-07-20T16:21:09Z</time>
      </trkpt>
      <trkpt lat="47.3492470" lon="6.8413130">
        <ele>668.2</ele>
        <time>2022-07-20T16:21:10Z</time>
      </trkpt>
      <trkpt lat="47.3492510" lon="6.8413150">
        <ele>668.1</ele>
        <time>2022-07-20T16:21:11Z</time>
      </trkpt>
      <trkpt lat="47.3492560" lon="6.8413180">
        <ele>668.1</ele>
        <time>2022-07-20T16:21:12Z</time>
      </trkpt>
      <trkpt lat="47.3492600" lon="6.8413210">
        <ele>668.0</ele>
        <time>2022-07-20T16:21:13Z</time>
      </trkpt>
      <trkpt lat="47.3492610" lon="6.8413220">
        <ele>668.0</ele>
        <time>2022-07-20T16:21:14Z</time>
      </trkpt>
      <trkpt lat="47.3492620" lon="6.8413240">
        <ele>668.0</ele>
        <time>2022-07-20T16:21:15Z</time>
      </trkpt>
      <trkpt lat="47.3492640" lon="6.8413290">
        <ele>668.0</ele>
        <time>2022-07-20T16:21:16Z</time>
      </trkpt>
      <trkpt lat="47.3492640" lon="6.8413300">
        <ele>668.0</ele>
        <time>2022-07-20T16:21:17Z</time>
      </trkpt>
      <trkpt lat="47.3492630" lon="6.8413300">
        <ele>668.0</ele>
        <time>2022-07-20T16:21:18Z</time>
      </trkpt>
      <trkpt lat="47.3492600" lon="6.8413280">
        <ele>667.9</ele>
        <time>2022-07-20T16:21:19Z</time>
      </trkpt>
      <trkpt lat="47.3492520" lon="6.8413210">
        <ele>667.8</ele>
        <time>2022-07-20T16:21:20Z</time>
      </trkpt>
      <trkpt lat="47.3492380" lon="6.8413060">
        <ele>667.7</ele>
        <time>2022-07-20T16:21:21Z</time>
      </trkpt>
      <trkpt lat="47.3492260" lon="6.8412850">
        <ele>667.5</ele>
        <time>2022-07-20T16:21:22Z</time>
      </trkpt>
      <trkpt lat="47.3492180" lon="6.8412370">
        <ele>667.2</ele>
        <time>2022-07-20T16:21:23Z</time>
      </trkpt>
      <trkpt lat="47.3492170" lon="6.8412240">
        <ele>667.1</ele>
        <time>2022-07-20T16:21:24Z</time>
      </trkpt>
      <trkpt lat="47.3492230" lon="6.8411770">
        <ele>666.8</ele>
        <time>2022-07-20T16:21:25Z</time>
      </trkpt>
      <trkpt lat="47.3492280" lon="6.8411620">
        <ele>666.7</ele>
        <time>2022-07-20T16:21:26Z</time>
      </trkpt>
      <trkpt lat="47.3492440" lon="6.8411220">
        <ele>666.3</ele>
        <time>2022-07-20T16:21:27Z</time>
      </trkpt>
      <trkpt lat="47.3492490" lon="6.8411100">
        <ele>666.2</ele>
        <time>2022-07-20T16:21:28Z</time>
      </trkpt>
      <trkpt lat="47.3492560" lon="6.8410670">
        <ele>666.1</ele>
        <time>2022-07-20T16:21:29Z</time>
      </trkpt>
      <trkpt lat="47.3492580" lon="6.8410520">
        <ele>666.1</ele>
        <time>2022-07-20T16:21:30Z</time>
      </trkpt>
      <trkpt lat="47.3492570" lon="6.8409980">
        <ele>665.9</ele>
        <time>2022-07-20T16:21:31Z</time>
      </trkpt>
      <trkpt lat="47.3492570" lon="6.8409810">
        <ele>665.8</ele>
        <time>2022-07-20T16:21:32Z</time>
      </trkpt>
      <trkpt lat="47.3492600" lon="6.8409240">
        <ele>665.7</ele>
        <time>2022-07-20T16:21:33Z</time>
      </trkpt>
      <trkpt lat="47.3492620" lon="6.8409020">
        <ele>665.6</ele>
        <time>2022-07-20T16:21:34Z</time>
      </trkpt>
      <trkpt lat="47.3492660" lon="6.8408590">
        <ele>665.5</ele>
        <time>2022-07-20T16:21:35Z</time>
      </trkpt>
      <trkpt lat="47.3492700" lon="6.8408180">
        <ele>665.4</ele>
        <time>2022-07-20T16:21:36Z</time>
      </trkpt>
      <trkpt lat="47.3492730" lon="6.8407730">
        <ele>665.2</ele>
        <time>2022-07-20T16:21:37Z</time>
      </trkpt>
      <trkpt lat="47.3492760" lon="6.8407290">
        <ele>665.1</ele>
        <time>2022-07-20T16:21:38Z</time>
      </trkpt>
      <trkpt lat="47.3492770" lon="6.8406750">
        <ele>665.1</ele>
        <time>2022-07-20T16:21:39Z</time>
      </trkpt>
      <trkpt lat="47.3492760" lon="6.8406180">
        <ele>665.0</ele>
        <time>2022-07-20T16:21:40Z</time>
      </trkpt>
      <trkpt lat="47.3492730" lon="6.8405650">
        <ele>664.9</ele>
        <time>2022-07-20T16:21:41Z</time>
      </trkpt>
      <trkpt lat="47.3492710" lon="6.8405240">
        <ele>664.8</ele>
        <time>2022-07-20T16:21:42Z</time>
      </trkpt>
      <trkpt lat="47.3492700" lon="6.8404730">
        <ele>664.7</ele>
        <time>2022-07-20T16:21:43Z</time>
      </trkpt>
      <trkpt lat="47.3492740" lon="6.8404190">
        <ele>664.6</ele>
        <time>2022-07-20T16:21:44Z</time>
      </trkpt>
      <trkpt lat="47.3492770" lon="6.8403650">
        <ele>664.5</ele>
        <time>2022-07-20T16:21:45Z</time>
      </trkpt>
      <trkpt lat="47.3492810" lon="6.8403120">
        <ele>664.3</ele>
        <time>2022-07-20T16:21:46Z</time>
      </trkpt>
      <trkpt lat="47.3492800" lon="6.8402630">
        <ele>664.2</ele>
        <time>2022-07-20T16:21:47Z</time>
      </trkpt>
      <trkpt lat="47.3492750" lon="6.8402070">
        <ele>664.0</ele>
        <time>2022-07-20T16:21:48Z</time>
      </trkpt>
      <trkpt lat="47.3492680" lon="6.8401560">
        <ele>663.8</ele>
        <time>2022-07-20T16:21:49Z</time>
      </trkpt>
      <trkpt lat="47.3492550" lon="6.8400960">
        <ele>663.6</ele>
        <time>2022-07-20T16:21:50Z</time>
      </trkpt>
      <trkpt lat="47.3492220" lon="6.8400510">
        <ele>663.4</ele>
        <time>2022-07-20T16:21:51Z</time>
      </trkpt>
      <trkpt lat="47.3491630" lon="6.8400110">
        <ele>662.9</ele>
        <time>2022-07-20T16:21:52Z</time>
      </trkpt>
      <trkpt lat="47.3491050" lon="6.8399860">
        <ele>662.5</ele>
        <time>2022-07-20T16:21:53Z</time>
      </trkpt>
      <trkpt lat="47.3490430" lon="6.8399600">
        <ele>662.0</ele>
        <time>2022-07-20T16:21:54Z</time>
      </trkpt>
      <trkpt lat="47.3489790" lon="6.8399500">
        <ele>661.6</ele>
        <time>2022-07-20T16:21:55Z</time>
      </trkpt>
      <trkpt lat="47.3489190" lon="6.8399480">
        <ele>661.2</ele>
        <time>2022-07-20T16:21:56Z</time>
      </trkpt>
      <trkpt lat="47.3488630" lon="6.8399380">
        <ele>660.9</ele>
        <time>2022-07-20T16:21:57Z</time>
      </trkpt>
      <trkpt lat="47.3488100" lon="6.8399190">
        <ele>660.7</ele>
        <time>2022-07-20T16:21:58Z</time>
      </trkpt>
      <trkpt lat="47.3487510" lon="6.8399050">
        <ele>660.4</ele>
        <time>2022-07-20T16:21:59Z</time>
      </trkpt>
      <trkpt lat="47.3486860" lon="6.8398890">
        <ele>660.2</ele>
        <time>2022-07-20T16:22:00Z</time>
      </trkpt>
      <trkpt lat="47.3486240" lon="6.8398650">
        <ele>660.0</ele>
        <time>2022-07-20T16:22:01Z</time>
      </trkpt>
      <trkpt lat="47.3485760" lon="6.8398420">
        <ele>660.0</ele>
        <time>2022-07-20T16:22:02Z</time>
      </trkpt>
      <trkpt lat="47.3485310" lon="6.8398170">
        <ele>659.9</ele>
        <time>2022-07-20T16:22:03Z</time>
      </trkpt>
      <trkpt lat="47.3485050" lon="6.8397990">
        <ele>659.8</ele>
        <time>2022-07-20T16:22:04Z</time>
      </trkpt>
      <trkpt lat="47.3484790" lon="6.8397760">
        <ele>659.8</ele>
        <time>2022-07-20T16:22:05Z</time>
      </trkpt>
      <trkpt lat="47.3484580" lon="6.8397390">
        <ele>659.4</ele>
        <time>2022-07-20T16:22:06Z</time>
      </trkpt>
      <trkpt lat="47.3484550" lon="6.8397270">
        <ele>659.4</ele>
        <time>2022-07-20T16:22:07Z</time>
      </trkpt>
      <trkpt lat="47.3484180" lon="6.8397210">
        <ele>659.3</ele>
        <time>2022-07-20T16:22:08Z</time>
      </trkpt>
      <trkpt lat="47.3484050" lon="6.8397240">
        <ele>659.3</ele>
        <time>2022-07-20T16:22:09Z</time>
      </trkpt>
      <trkpt lat="47.3483800" lon="6.8397590">
        <ele>659.2</ele>
        <time>2022-07-20T16:22:10Z</time>
      </trkpt>
      <trkpt lat="47.3483720" lon="6.8397730">
        <ele>659.2</ele>
        <time>2022-07-20T16:22:11Z</time>
      </trkpt>
      <trkpt lat="47.3483650" lon="6.8397990">
        <ele>659.1</ele>
        <time>2022-07-20T16:22:12Z</time>
      </trkpt>
      <trkpt lat="47.3483610" lon="6.8398040">
        <ele>659.1</ele>
        <time>2022-07-20T16:22:13Z</time>
      </trkpt>
      <trkpt lat="47.3483580" lon="6.8398090">
        <ele>659.1</ele>
        <time>2022-07-20T16:22:14Z</time>
      </trkpt>
      <trkpt lat="47.3483540" lon="6.8398140">
        <ele>659.1</ele>
        <time>2022-07-20T16:22:15Z</time>
      </trkpt>
      <trkpt lat="47.3483510" lon="6.8398190">
        <ele>659.1</ele>
        <time>2022-07-20T16:22:16Z</time>
      </trkpt>
      <trkpt lat="47.3483470" lon="6.8398240">
        <ele>659.1</ele>
        <time>2022-07-20T16:22:17Z</time>
      </trkpt>
      <trkpt lat="47.3483440" lon="6.8398290">
        <ele>659.1</ele>
        <time>2022-07-20T16:22:18Z</time>
      </trkpt>
      <trkpt lat="47.3483410" lon="6.8398340">
        <ele>659.1</ele>
        <time>2022-07-20T16:22:19Z</time>
      </trkpt>
      <trkpt lat="47.3483370" lon="6.8398390">
        <ele>659.1</ele>
        <time>2022-07-20T16:22:20Z</time>
      </trkpt>
      <trkpt lat="47.3483340" lon="6.8398430">
        <ele>659.0</ele>
        <time>2022-07-20T16:22:21Z</time>
      </trkpt>
      <trkpt lat="47.3483300" lon="6.8398480">
        <ele>659.0</ele>
        <time>2022-07-20T16:22:22Z</time>
      </trkpt>
      <trkpt lat="47.3483270" lon="6.8398530">
        <ele>659.0</ele>
        <time>2022-07-20T16:22:23Z</time>
      </trkpt>
      <trkpt lat="47.3483230" lon="6.8398580">
        <ele>659.0</ele>
        <time>2022-07-20T16:22:24Z</time>
      </trkpt>
      <trkpt lat="47.3483200" lon="6.8398630">
        <ele>659.0</ele>
        <time>2022-07-20T16:23:35Z</time>
      </trkpt>
      <trkpt lat="47.3483160" lon="6.8398680">
        <ele>659.0</ele>
        <time>2022-07-20T16:23:36Z</time>
      </trkpt>
      <trkpt lat="47.3483130" lon="6.8398730">
        <ele>659.0</ele>
        <time>2022-07-20T16:23:37Z</time>
      </trkpt>
      <trkpt lat="47.3483080" lon="6.8399240">
        <ele>658.9</ele>
        <time>2022-07-20T16:23:38Z</time>
      </trkpt>
      <trkpt lat="47.3483060" lon="6.8399420">
        <ele>658.9</ele>
        <time>2022-07-20T16:23:39Z</time>
      </trkpt>
      <trkpt lat="47.3483010" lon="6.8400000">
        <ele>658.8</ele>
        <time>2022-07-20T16:23:40Z</time>
      </trkpt>
      <trkpt lat="47.3482990" lon="6.8400200">
        <ele>658.8</ele>
        <time>2022-07-20T16:23:41Z</time>
      </trkpt>
      <trkpt lat="47.3482970" lon="6.8400640">
        <ele>658.7</ele>
        <time>2022-07-20T16:23:42Z</time>
      </trkpt>
      <trkpt lat="47.3482930" lon="6.8401050">
        <ele>658.7</ele>
        <time>2022-07-20T16:23:43Z</time>
      </trkpt>
      <trkpt lat="47.3482830" lon="6.8401630">
        <ele>658.6</ele>
        <time>2022-07-20T16:23:44Z</time>
      </trkpt>
      <trkpt lat="47.3482780" lon="6.8401830">
        <ele>658.6</ele>
        <time>2022-07-20T16:23:45Z</time>
      </trkpt>
      <trkpt lat="47.3482660" lon="6.8402360">
        <ele>658.5</ele>
        <time>2022-07-20T16:23:46Z</time>
      </trkpt>
      <trkpt lat="47.3482590" lon="6.8402760">
        <ele>658.4</ele>
        <time>2022-07-20T16:23:47Z</time>
      </trkpt>
      <trkpt lat="47.3482500" lon="6.8403340">
        <ele>658.4</ele>
        <time>2022-07-20T16:23:48Z</time>
      </trkpt>
      <trkpt lat="47.3482450" lon="6.8403900">
        <ele>658.3</ele>
        <time>2022-07-20T16:23:49Z</time>
      </trkpt>
      <trkpt lat="47.3482400" lon="6.8404450">
        <ele>658.3</ele>
        <time>2022-07-20T16:23:50Z</time>
      </trkpt>
      <trkpt lat="47.3482370" lon="6.8405010">
        <ele>658.2</ele>
        <time>2022-07-20T16:23:51Z</time>
      </trkpt>
      <trkpt lat="47.3482320" lon="6.8405570">
        <ele>658.2</ele>
        <time>2022-07-20T16:23:52Z</time>
      </trkpt>
      <trkpt lat="47.3482260" lon="6.8406100">
        <ele>658.1</ele>
        <time>2022-07-20T16:23:53Z</time>
      </trkpt>
      <trkpt lat="47.3482200" lon="6.8406650">
        <ele>658.1</ele>
        <time>2022-07-20T16:23:54Z</time>
      </trkpt>
      <trkpt lat="47.3482120" lon="6.8407190">
        <ele>658.0</ele>
        <time>2022-07-20T16:23:55Z</time>
      </trkpt>
      <trkpt lat="47.3482060" lon="6.8407590">
        <ele>658.0</ele>
        <time>2022-07-20T16:23:56Z</time>
      </trkpt>
      <trkpt lat="47.3481970" lon="6.8408140">
        <ele>658.0</ele>
        <time>2022-07-20T16:23:57Z</time>
      </trkpt>
      <trkpt lat="47.3481830" lon="6.8408700">
        <ele>657.9</ele>
        <time>2022-07-20T16:23:58Z</time>
      </trkpt>
      <trkpt lat="47.3481670" lon="6.8409300">
        <ele>657.9</ele>
        <time>2022-07-20T16:23:59Z</time>
      </trkpt>
      <trkpt lat="47.3481510" lon="6.8409770">
        <ele>657.8</ele>
        <time>2022-07-20T16:24:00Z</time>
      </trkpt>
      <trkpt lat="47.3481330" lon="6.8410320">
        <ele>657.8</ele>
        <time>2022-07-20T16:24:01Z</time>
      </trkpt>
      <trkpt lat="47.3481140" lon="6.8410870">
        <ele>657.8</ele>
        <time>2022-07-20T16:24:02Z</time>
      </trkpt>
      <trkpt lat="47.3480960" lon="6.8411350">
        <ele>657.7</ele>
        <time>2022-07-20T16:24:03Z</time>
      </trkpt>
      <trkpt lat="47.3480700" lon="6.8411860">
        <ele>657.7</ele>
        <time>2022-07-20T16:24:04Z</time>
      </trkpt>
      <trkpt lat="47.3480590" lon="6.8412050">
        <ele>657.7</ele>
        <time>2022-07-20T16:24:05Z</time>
      </trkpt>
      <trkpt lat="47.3480330" lon="6.8412510">
        <ele>657.7</ele>
        <time>2022-07-20T16:24:06Z</time>
      </trkpt>
      <trkpt lat="47.3480100" lon="6.8412870">
        <ele>657.6</ele>
        <time>2022-07-20T16:24:07Z</time>
      </trkpt>
      <trkpt lat="47.3479820" lon="6.8413340">
        <ele>657.6</ele>
        <time>2022-07-20T16:24:08Z</time>
      </trkpt>
      <trkpt lat="47.3479550" lon="6.8413750">
        <ele>657.6</ele>
        <time>2022-07-20T16:24:09Z</time>
      </trkpt>
      <trkpt lat="47.3479330" lon="6.8414110">
        <ele>657.6</ele>
        <time>2022-07-20T16:24:10Z</time>
      </trkpt>
      <trkpt lat="47.3479090" lon="6.8414480">
        <ele>657.5</ele>
        <time>2022-07-20T16:24:11Z</time>
      </trkpt>
      <trkpt lat="47.3478810" lon="6.8414870">
        <ele>657.5</ele>
        <time>2022-07-20T16:24:12Z</time>
      </trkpt>
      <trkpt lat="47.3478490" lon="6.8415230">
        <ele>657.5</ele>
        <time>2022-07-20T16:24:13Z</time>
      </trkpt>
      <trkpt lat="47.3478180" lon="6.8415560">
        <ele>657.4</ele>
        <time>2022-07-20T16:24:14Z</time>
      </trkpt>
      <trkpt lat="47.3477900" lon="6.8415840">
        <ele>657.4</ele>
        <time>2022-07-20T16:24:15Z</time>
      </trkpt>
      <trkpt lat="47.3477580" lon="6.8416130">
        <ele>657.4</ele>
        <time>2022-07-20T16:24:16Z</time>
      </trkpt>
      <trkpt lat="47.3477240" lon="6.8416400">
        <ele>657.3</ele>
        <time>2022-07-20T16:24:17Z</time>
      </trkpt>
      <trkpt lat="47.3476850" lon="6.8416670">
        <ele>657.3</ele>
        <time>2022-07-20T16:24:18Z</time>
      </trkpt>
      <trkpt lat="47.3476500" lon="6.8416880">
        <ele>657.3</ele>
        <time>2022-07-20T16:24:19Z</time>
      </trkpt>
      <trkpt lat="47.3476210" lon="6.8417080">
        <ele>657.3</ele>
        <time>2022-07-20T16:24:20Z</time>
      </trkpt>
      <trkpt lat="47.3475840" lon="6.8417320">
        <ele>657.2</ele>
        <time>2022-07-20T16:24:21Z</time>
      </trkpt>
      <trkpt lat="47.3475450" lon="6.8417540">
        <ele>657.2</ele>
        <time>2022-07-20T16:24:22Z</time>
      </trkpt>
      <trkpt lat="47.3475030" lon="6.8417730">
        <ele>657.2</ele>
        <time>2022-07-20T16:24:23Z</time>
      </trkpt>
      <trkpt lat="47.3474590" lon="6.8417870">
        <ele>657.2</ele>
        <time>2022-07-20T16:24:24Z</time>
      </trkpt>
      <trkpt lat="47.3474100" lon="6.8418050">
        <ele>657.1</ele>
        <time>2022-07-20T16:24:25Z</time>
      </trkpt>
      <trkpt lat="47.3473720" lon="6.8418180">
        <ele>657.1</ele>
        <time>2022-07-20T16:24:26Z</time>
      </trkpt>
      <trkpt lat="47.3473230" lon="6.8418310">
        <ele>657.1</ele>
        <time>2022-07-20T16:24:27Z</time>
      </trkpt>
      <trkpt lat="47.3472770" lon="6.8418450">
        <ele>657.0</ele>
        <time>2022-07-20T16:24:28Z</time>
      </trkpt>
      <trkpt lat="47.3472320" lon="6.8418560">
        <ele>657.0</ele>
        <time>2022-07-20T16:24:29Z</time>
      </trkpt>
      <trkpt lat="47.3471800" lon="6.8418710">
        <ele>657.0</ele>
        <time>2022-07-20T16:24:30Z</time>
      </trkpt>
      <trkpt lat="47.3471450" lon="6.8418870">
        <ele>656.9</ele>
        <time>2022-07-20T16:24:31Z</time>
      </trkpt>
      <trkpt lat="47.3471060" lon="6.8419070">
        <ele>656.9</ele>
        <time>2022-07-20T16:24:32Z</time>
      </trkpt>
      <trkpt lat="47.3470560" lon="6.8419370">
        <ele>656.9</ele>
        <time>2022-07-20T16:24:33Z</time>
      </trkpt>
      <trkpt lat="47.3470130" lon="6.8419720">
        <ele>656.9</ele>
        <time>2022-07-20T16:24:34Z</time>
      </trkpt>
      <trkpt lat="47.3469810" lon="6.8419930">
        <ele>656.9</ele>
        <time>2022-07-20T16:24:35Z</time>
      </trkpt>
      <trkpt lat="47.3469340" lon="6.8420100">
        <ele>656.8</ele>
        <time>2022-07-20T16:24:36Z</time>
      </trkpt>
      <trkpt lat="47.3468960" lon="6.8420200">
        <ele>656.8</ele>
        <time>2022-07-20T16:24:37Z</time>
      </trkpt>
      <trkpt lat="47.3468440" lon="6.8420400">
        <ele>656.8</ele>
        <time>2022-07-20T16:24:38Z</time>
      </trkpt>
      <trkpt lat="47.3468020" lon="6.8420660">
        <ele>656.8</ele>
        <time>2022-07-20T16:24:39Z</time>
      </trkpt>
      <trkpt lat="47.3467500" lon="6.8421070">
        <ele>656.7</ele>
        <time>2022-07-20T16:24:40Z</time>
      </trkpt>
      <trkpt lat="47.3467010" lon="6.8421160">
        <ele>656.7</ele>
        <time>2022-07-20T16:24:41Z</time>
      </trkpt>
      <trkpt lat="47.3466540" lon="6.8421310">
        <ele>656.6</ele>
        <time>2022-07-20T16:24:42Z</time>
      </trkpt>
      <trkpt lat="47.3466040" lon="6.8421400">
        <ele>656.6</ele>
        <time>2022-07-20T16:24:43Z</time>
      </trkpt>
      <trkpt lat="47.3465570" lon="6.8421550">
        <ele>656.6</ele>
        <time>2022-07-20T16:24:44Z</time>
      </trkpt>
      <trkpt lat="47.3465130" lon="6.8421650">
        <ele>656.5</ele>
        <time>2022-07-20T16:24:45Z</time>
      </trkpt>
      <trkpt lat="47.3464670" lon="6.8421780">
        <ele>656.5</ele>
        <time>2022-07-20T16:24:46Z</time>
      </trkpt>
      <trkpt lat="47.3464200" lon="6.8421860">
        <ele>656.5</ele>
        <time>2022-07-20T16:24:47Z</time>
      </trkpt>
      <trkpt lat="47.3463720" lon="6.8421990">
        <ele>656.4</ele>
        <time>2022-07-20T16:24:48Z</time>
      </trkpt>
      <trkpt lat="47.3463220" lon="6.8422130">
        <ele>656.4</ele>
        <time>2022-07-20T16:24:49Z</time>
      </trkpt>
      <trkpt lat="47.3462770" lon="6.8422290">
        <ele>656.3</ele>
        <time>2022-07-20T16:24:50Z</time>
      </trkpt>
      <trkpt lat="47.3462460" lon="6.8422310">
        <ele>656.3</ele>
        <time>2022-07-20T16:24:51Z</time>
      </trkpt>
      <trkpt lat="47.3461920" lon="6.8422340">
        <ele>656.2</ele>
        <time>2022-07-20T16:24:52Z</time>
      </trkpt>
      <trkpt lat="47.3461440" lon="6.8422440">
        <ele>656.2</ele>
        <time>2022-07-20T16:24:53Z</time>
      </trkpt>
      <trkpt lat="47.3461020" lon="6.8422460">
        <ele>656.1</ele>
        <time>2022-07-20T16:24:54Z</time>
      </trkpt>
      <trkpt lat="47.3460560" lon="6.8422470">
        <ele>656.1</ele>
        <time>2022-07-20T16:24:55Z</time>
      </trkpt>
      <trkpt lat="47.3460090" lon="6.8422450">
        <ele>656.0</ele>
        <time>2022-07-20T16:24:56Z</time>
      </trkpt>
      <trkpt lat="47.3459560" lon="6.8422370">
        <ele>655.9</ele>
        <time>2022-07-20T16:24:57Z</time>
      </trkpt>
      <trkpt lat="47.3459050" lon="6.8422350">
        <ele>655.9</ele>
        <time>2022-07-20T16:24:58Z</time>
      </trkpt>
      <trkpt lat="47.3458550" lon="6.8422340">
        <ele>655.8</ele>
        <time>2022-07-20T16:24:59Z</time>
      </trkpt>
      <trkpt lat="47.3458050" lon="6.8422340">
        <ele>655.8</ele>
        <time>2022-07-20T16:25:00Z</time>
      </trkpt>
      <trkpt lat="47.3457550" lon="6.8422280">
        <ele>655.7</ele>
        <time>2022-07-20T16:25:01Z</time>
      </trkpt>
      <trkpt lat="47.3457040" lon="6.8422230">
        <ele>655.7</ele>
        <time>2022-07-20T16:25:02Z</time>
      </trkpt>
      <trkpt lat="47.3456500" lon="6.8422180">
        <ele>655.6</ele>
        <time>2022-07-20T16:25:03Z</time>
      </trkpt>
      <trkpt lat="47.3455990" lon="6.8422140">
        <ele>655.6</ele>
        <time>2022-07-20T16:25:04Z</time>
      </trkpt>
      <trkpt lat="47.3455530" lon="6.8422090">
        <ele>655.5</ele>
        <time>2022-07-20T16:25:05Z</time>
      </trkpt>
      <trkpt lat="47.3455030" lon="6.8422020">
        <ele>655.5</ele>
        <time>2022-07-20T16:25:06Z</time>
      </trkpt>
      <trkpt lat="47.3454550" lon="6.8421970">
        <ele>655.4</ele>
        <time>2022-07-20T16:25:07Z</time>
      </trkpt>
      <trkpt lat="47.3454060" lon="6.8421870">
        <ele>655.4</ele>
        <time>2022-07-20T16:25:08Z</time>
      </trkpt>
      <trkpt lat="47.3453580" lon="6.8421800">
        <ele>655.4</ele>
        <time>2022-07-20T16:25:09Z</time>
      </trkpt>
      <trkpt lat="47.3453110" lon="6.8421760">
        <ele>655.4</ele>
        <time>2022-07-20T16:25:10Z</time>
      </trkpt>
      <trkpt lat="47.3452630" lon="6.8421680">
        <ele>655.4</ele>
        <time>2022-07-20T16:25:11Z</time>
      </trkpt>
      <trkpt lat="47.3452140" lon="6.8421660">
        <ele>655.4</ele>
        <time>2022-07-20T16:25:12Z</time>
      </trkpt>
      <trkpt lat="47.3451640" lon="6.8421610">
        <ele>655.4</ele>
        <time>2022-07-20T16:25:13Z</time>
      </trkpt>
      <trkpt lat="47.3451130" lon="6.8421540">
        <ele>655.3</ele>
        <time>2022-07-20T16:25:14Z</time>
      </trkpt>
      <trkpt lat="47.3450610" lon="6.8421480">
        <ele>655.3</ele>
        <time>2022-07-20T16:25:15Z</time>
      </trkpt>
      <trkpt lat="47.3450120" lon="6.8421440">
        <ele>655.3</ele>
        <time>2022-07-20T16:25:16Z</time>
      </trkpt>
      <trkpt lat="47.3449800" lon="6.8421400">
        <ele>655.3</ele>
        <time>2022-07-20T16:25:17Z</time>
      </trkpt>
      <trkpt lat="47.3449290" lon="6.8421310">
        <ele>655.3</ele>
        <time>2022-07-20T16:25:18Z</time>
      </trkpt>
      <trkpt lat="47.3448800" lon="6.8421180">
        <ele>655.3</ele>
        <time>2022-07-20T16:25:19Z</time>
      </trkpt>
      <trkpt lat="47.3448460" lon="6.8421140">
        <ele>655.2</ele>
        <time>2022-07-20T16:25:20Z</time>
      </trkpt>
      <trkpt lat="47.3447960" lon="6.8421070">
        <ele>655.2</ele>
        <time>2022-07-20T16:25:21Z</time>
      </trkpt>
      <trkpt lat="47.3447480" lon="6.8421010">
        <ele>655.2</ele>
        <time>2022-07-20T16:25:22Z</time>
      </trkpt>
      <trkpt lat="47.3446940" lon="6.8420940">
        <ele>655.1</ele>
        <time>2022-07-20T16:25:23Z</time>
      </trkpt>
      <trkpt lat="47.3446410" lon="6.8420880">
        <ele>655.1</ele>
        <time>2022-07-20T16:25:24Z</time>
      </trkpt>
      <trkpt lat="47.3445920" lon="6.8420840">
        <ele>655.1</ele>
        <time>2022-07-20T16:25:25Z</time>
      </trkpt>
      <trkpt lat="47.3445440" lon="6.8420850">
        <ele>655.1</ele>
        <time>2022-07-20T16:25:26Z</time>
      </trkpt>
      <trkpt lat="47.3444950" lon="6.8420820">
        <ele>655.0</ele>
        <time>2022-07-20T16:25:27Z</time>
      </trkpt>
      <trkpt lat="47.3444450" lon="6.8420770">
        <ele>655.0</ele>
        <time>2022-07-20T16:25:28Z</time>
      </trkpt>
      <trkpt lat="47.3443960" lon="6.8420690">
        <ele>655.0</ele>
        <time>2022-07-20T16:25:29Z</time>
      </trkpt>
      <trkpt lat="47.3443510" lon="6.8420680">
        <ele>655.0</ele>
        <time>2022-07-20T16:25:30Z</time>
      </trkpt>
      <trkpt lat="47.3443060" lon="6.8420650">
        <ele>655.0</ele>
        <time>2022-07-20T16:25:31Z</time>
      </trkpt>
      <trkpt lat="47.3442620" lon="6.8420660">
        <ele>655.0</ele>
        <time>2022-07-20T16:25:32Z</time>
      </trkpt>
      <trkpt lat="47.3442180" lon="6.8420670">
        <ele>654.9</ele>
        <time>2022-07-20T16:25:33Z</time>
      </trkpt>
      <trkpt lat="47.3441880" lon="6.8420680">
        <ele>654.9</ele>
        <time>2022-07-20T16:25:34Z</time>
      </trkpt>
      <trkpt lat="47.3441380" lon="6.8420670">
        <ele>654.9</ele>
        <time>2022-07-20T16:25:35Z</time>
      </trkpt>
      <trkpt lat="47.3440930" lon="6.8420700">
        <ele>654.9</ele>
        <time>2022-07-20T16:25:36Z</time>
      </trkpt>
      <trkpt lat="47.3440460" lon="6.8420700">
        <ele>654.9</ele>
        <time>2022-07-20T16:25:37Z</time>
      </trkpt>
      <trkpt lat="47.3440000" lon="6.8420720">
        <ele>654.8</ele>
        <time>2022-07-20T16:25:38Z</time>
      </trkpt>
      <trkpt lat="47.3439560" lon="6.8420660">
        <ele>654.7</ele>
        <time>2022-07-20T16:25:39Z</time>
      </trkpt>
      <trkpt lat="47.3439080" lon="6.8420680">
        <ele>654.6</ele>
        <time>2022-07-20T16:25:40Z</time>
      </trkpt>
      <trkpt lat="47.3438600" lon="6.8420730">
        <ele>654.5</ele>
        <time>2022-07-20T16:25:41Z</time>
      </trkpt>
      <trkpt lat="47.3438120" lon="6.8420820">
        <ele>654.4</ele>
        <time>2022-07-20T16:25:42Z</time>
      </trkpt>
      <trkpt lat="47.3437580" lon="6.8420880">
        <ele>654.2</ele>
        <time>2022-07-20T16:25:43Z</time>
      </trkpt>
      <trkpt lat="47.3437010" lon="6.8420980">
        <ele>654.1</ele>
        <time>2022-07-20T16:25:44Z</time>
      </trkpt>
      <trkpt lat="47.3436460" lon="6.8421090">
        <ele>653.9</ele>
        <time>2022-07-20T16:25:45Z</time>
      </trkpt>
      <trkpt lat="47.3435920" lon="6.8421210">
        <ele>653.7</ele>
        <time>2022-07-20T16:25:46Z</time>
      </trkpt>
      <trkpt lat="47.3435400" lon="6.8421400">
        <ele>653.6</ele>
        <time>2022-07-20T16:25:47Z</time>
      </trkpt>
      <trkpt lat="47.3434890" lon="6.8421510">
        <ele>653.5</ele>
        <time>2022-07-20T16:25:48Z</time>
      </trkpt>
      <trkpt lat="47.3434400" lon="6.8421720">
        <ele>653.4</ele>
        <time>2022-07-20T16:25:49Z</time>
      </trkpt>
      <trkpt lat="47.3433890" lon="6.8421970">
        <ele>653.3</ele>
        <time>2022-07-20T16:25:50Z</time>
      </trkpt>
      <trkpt lat="47.3433400" lon="6.8422260">
        <ele>653.2</ele>
        <time>2022-07-20T16:25:51Z</time>
      </trkpt>
      <trkpt lat="47.3432930" lon="6.8422650">
        <ele>653.1</ele>
        <time>2022-07-20T16:25:52Z</time>
      </trkpt>
      <trkpt lat="47.3432500" lon="6.8423070">
        <ele>653.0</ele>
        <time>2022-07-20T16:25:53Z</time>
      </trkpt>
      <trkpt lat="47.3432060" lon="6.8423470">
        <ele>652.9</ele>
        <time>2022-07-20T16:25:54Z</time>
      </trkpt>
      <trkpt lat="47.3431650" lon="6.8423880">
        <ele>652.8</ele>
        <time>2022-07-20T16:25:55Z</time>
      </trkpt>
      <trkpt lat="47.3431230" lon="6.8424370">
        <ele>652.8</ele>
        <time>2022-07-20T16:25:56Z</time>
      </trkpt>
      <trkpt lat="47.3430810" lon="6.8424840">
        <ele>652.7</ele>
        <time>2022-07-20T16:25:57Z</time>
      </trkpt>
      <trkpt lat="47.3430400" lon="6.8425330">
        <ele>652.5</ele>
        <time>2022-07-20T16:25:58Z</time>
      </trkpt>
      <trkpt lat="47.3430030" lon="6.8425790">
        <ele>652.4</ele>
        <time>2022-07-20T16:25:59Z</time>
      </trkpt>
      <trkpt lat="47.3429590" lon="6.8426300">
        <ele>652.3</ele>
        <time>2022-07-20T16:26:00Z</time>
      </trkpt>
      <trkpt lat="47.3429180" lon="6.8426800">
        <ele>652.2</ele>
        <time>2022-07-20T16:26:01Z</time>
      </trkpt>
      <trkpt lat="47.3428750" lon="6.8427320">
        <ele>652.0</ele>
        <time>2022-07-20T16:26:02Z</time>
      </trkpt>
      <trkpt lat="47.3428310" lon="6.8427840">
        <ele>651.9</ele>
        <time>2022-07-20T16:26:03Z</time>
      </trkpt>
      <trkpt lat="47.3427820" lon="6.8428230">
        <ele>651.9</ele>
        <time>2022-07-20T16:26:04Z</time>
      </trkpt>
      <trkpt lat="47.3427300" lon="6.8428490">
        <ele>651.8</ele>
        <time>2022-07-20T16:26:05Z</time>
      </trkpt>
      <trkpt lat="47.3426770" lon="6.8428670">
        <ele>651.7</ele>
        <time>2022-07-20T16:26:06Z</time>
      </trkpt>
      <trkpt lat="47.3426210" lon="6.8428870">
        <ele>651.7</ele>
        <time>2022-07-20T16:26:07Z</time>
      </trkpt>
      <trkpt lat="47.3425710" lon="6.8429010">
        <ele>651.6</ele>
        <time>2022-07-20T16:26:08Z</time>
      </trkpt>
      <trkpt lat="47.3425180" lon="6.8429140">
        <ele>651.5</ele>
        <time>2022-07-20T16:26:09Z</time>
      </trkpt>
      <trkpt lat="47.3424600" lon="6.8429290">
        <ele>651.5</ele>
        <time>2022-07-20T16:26:10Z</time>
      </trkpt>
      <trkpt lat="47.3424060" lon="6.8429520">
        <ele>651.5</ele>
        <time>2022-07-20T16:26:11Z</time>
      </trkpt>
      <trkpt lat="47.3423500" lon="6.8429720">
        <ele>651.5</ele>
        <time>2022-07-20T16:26:12Z</time>
      </trkpt>
      <trkpt lat="47.3422920" lon="6.8429840">
        <ele>651.5</ele>
        <time>2022-07-20T16:26:13Z</time>
      </trkpt>
      <trkpt lat="47.3422390" lon="6.8429910">
        <ele>651.6</ele>
        <time>2022-07-20T16:26:14Z</time>
      </trkpt>
      <trkpt lat="47.3421880" lon="6.8429930">
        <ele>651.7</ele>
        <time>2022-07-20T16:26:15Z</time>
      </trkpt>
      <trkpt lat="47.3421410" lon="6.8429960">
        <ele>651.8</ele>
        <time>2022-07-20T16:26:16Z</time>
      </trkpt>
      <trkpt lat="47.3421040" lon="6.8430110">
        <ele>652.0</ele>
        <time>2022-07-20T16:26:17Z</time>
      </trkpt>
      <trkpt lat="47.3420730" lon="6.8430180">
        <ele>652.0</ele>
        <time>2022-07-20T16:26:18Z</time>
      </trkpt>
      <trkpt lat="47.3420400" lon="6.8430210">
        <ele>652.0</ele>
        <time>2022-07-20T16:26:19Z</time>
      </trkpt>
      <trkpt lat="47.3419970" lon="6.8430370">
        <ele>652.1</ele>
        <time>2022-07-20T16:26:20Z</time>
      </trkpt>
      <trkpt lat="47.3419490" lon="6.8430570">
        <ele>652.1</ele>
        <time>2022-07-20T16:26:21Z</time>
      </trkpt>
      <trkpt lat="47.3419100" lon="6.8430730">
        <ele>652.2</ele>
        <time>2022-07-20T16:26:22Z</time>
      </trkpt>
      <trkpt lat="47.3418720" lon="6.8430850">
        <ele>652.3</ele>
        <time>2022-07-20T16:26:23Z</time>
      </trkpt>
      <trkpt lat="47.3418320" lon="6.8431120">
        <ele>652.4</ele>
        <time>2022-07-20T16:26:24Z</time>
      </trkpt>
      <trkpt lat="47.3418000" lon="6.8431230">
        <ele>652.5</ele>
        <time>2022-07-20T16:26:25Z</time>
      </trkpt>
      <trkpt lat="47.3417710" lon="6.8431060">
        <ele>652.5</ele>
        <time>2022-07-20T16:26:26Z</time>
      </trkpt>
      <trkpt lat="47.3417360" lon="6.8431270">
        <ele>652.6</ele>
        <time>2022-07-20T16:26:27Z</time>
      </trkpt>
      <trkpt lat="47.3416980" lon="6.8431680">
        <ele>652.7</ele>
        <time>2022-07-20T16:26:28Z</time>
      </trkpt>
      <trkpt lat="47.3416630" lon="6.8432000">
        <ele>652.7</ele>
        <time>2022-07-20T16:26:29Z</time>
      </trkpt>
      <trkpt lat="47.3416250" lon="6.8432420">
        <ele>652.8</ele>
        <time>2022-07-20T16:26:30Z</time>
      </trkpt>
      <trkpt lat="47.3415880" lon="6.8432720">
        <ele>652.8</ele>
        <time>2022-07-20T16:26:31Z</time>
      </trkpt>
      <trkpt lat="47.3415530" lon="6.8433010">
        <ele>652.9</ele>
        <time>2022-07-20T16:26:32Z</time>
      </trkpt>
      <trkpt lat="47.3415160" lon="6.8433280">
        <ele>653.0</ele>
        <time>2022-07-20T16:26:33Z</time>
      </trkpt>
      <trkpt lat="47.3414790" lon="6.8433520">
        <ele>653.0</ele>
        <time>2022-07-20T16:26:34Z</time>
      </trkpt>
      <trkpt lat="47.3414410" lon="6.8433770">
        <ele>653.1</ele>
        <time>2022-07-20T16:26:35Z</time>
      </trkpt>
      <trkpt lat="47.3414060" lon="6.8434020">
        <ele>653.1</ele>
        <time>2022-07-20T16:26:36Z</time>
      </trkpt>
      <trkpt lat="47.3413680" lon="6.8434280">
        <ele>653.2</ele>
        <time>2022-07-20T16:26:37Z</time>
      </trkpt>
      <trkpt lat="47.3413300" lon="6.8434540">
        <ele>653.2</ele>
        <time>2022-07-20T16:26:38Z</time>
      </trkpt>
      <trkpt lat="47.3412960" lon="6.8434790">
        <ele>653.3</ele>
        <time>2022-07-20T16:26:39Z</time>
      </trkpt>
      <trkpt lat="47.3412610" lon="6.8435040">
        <ele>653.4</ele>
        <time>2022-07-20T16:26:40Z</time>
      </trkpt>
      <trkpt lat="47.3412280" lon="6.8435310">
        <ele>653.4</ele>
        <time>2022-07-20T16:26:41Z</time>
      </trkpt>
      <trkpt lat="47.3411940" lon="6.8435570">
        <ele>653.5</ele>
        <time>2022-07-20T16:26:42Z</time>
      </trkpt>
      <trkpt lat="47.3411580" lon="6.8435830">
        <ele>653.6</ele>
        <time>2022-07-20T16:26:43Z</time>
      </trkpt>
      <trkpt lat="47.3411230" lon="6.8436090">
        <ele>653.7</ele>
        <time>2022-07-20T16:26:44Z</time>
      </trkpt>
      <trkpt lat="47.3410910" lon="6.8436350">
        <ele>653.9</ele>
        <time>2022-07-20T16:26:45Z</time>
      </trkpt>
      <trkpt lat="47.3410620" lon="6.8436580">
        <ele>654.0</ele>
        <time>2022-07-20T16:26:46Z</time>
      </trkpt>
      <trkpt lat="47.3410300" lon="6.8436820">
        <ele>654.1</ele>
        <time>2022-07-20T16:26:47Z</time>
      </trkpt>
      <trkpt lat="47.3409990" lon="6.8437060">
        <ele>654.2</ele>
        <time>2022-07-20T16:26:48Z</time>
      </trkpt>
      <trkpt lat="47.3409730" lon="6.8437270">
        <ele>654.3</ele>
        <time>2022-07-20T16:26:49Z</time>
      </trkpt>
      <trkpt lat="47.3409440" lon="6.8437470">
        <ele>654.4</ele>
        <time>2022-07-20T16:26:50Z</time>
      </trkpt>
      <trkpt lat="47.3409170" lon="6.8437630">
        <ele>654.5</ele>
        <time>2022-07-20T16:26:51Z</time>
      </trkpt>
      <trkpt lat="47.3408830" lon="6.8437870">
        <ele>654.7</ele>
        <time>2022-07-20T16:26:52Z</time>
      </trkpt>
      <trkpt lat="47.3408710" lon="6.8437970">
        <ele>654.7</ele>
        <time>2022-07-20T16:26:53Z</time>
      </trkpt>
      <trkpt lat="47.3408470" lon="6.8438170">
        <ele>654.8</ele>
        <time>2022-07-20T16:26:54Z</time>
      </trkpt>
      <trkpt lat="47.3408170" lon="6.8438380">
        <ele>655.0</ele>
        <time>2022-07-20T16:26:55Z</time>
      </trkpt>
      <trkpt lat="47.3408080" lon="6.8438440">
        <ele>655.0</ele>
        <time>2022-07-20T16:26:56Z</time>
      </trkpt>
      <trkpt lat="47.3407810" lon="6.8438600">
        <ele>655.1</ele>
        <time>2022-07-20T16:26:57Z</time>
      </trkpt>
      <trkpt lat="47.3407550" lon="6.8438760">
        <ele>655.2</ele>
        <time>2022-07-20T16:26:58Z</time>
      </trkpt>
      <trkpt lat="47.3407210" lon="6.8439000">
        <ele>655.4</ele>
        <time>2022-07-20T16:26:59Z</time>
      </trkpt>
      <trkpt lat="47.3407110" lon="6.8439070">
        <ele>655.4</ele>
        <time>2022-07-20T16:27:00Z</time>
      </trkpt>
      <trkpt lat="47.3406840" lon="6.8439200">
        <ele>655.5</ele>
        <time>2022-07-20T16:27:01Z</time>
      </trkpt>
      <trkpt lat="47.3406720" lon="6.8439280">
        <ele>655.6</ele>
        <time>2022-07-20T16:27:02Z</time>
      </trkpt>
      <trkpt lat="47.3406360" lon="6.8439490">
        <ele>655.8</ele>
        <time>2022-07-20T16:27:03Z</time>
      </trkpt>
      <trkpt lat="47.3406250" lon="6.8439550">
        <ele>655.8</ele>
        <time>2022-07-20T16:27:04Z</time>
      </trkpt>
      <trkpt lat="47.3405930" lon="6.8439720">
        <ele>656.0</ele>
        <time>2022-07-20T16:27:05Z</time>
      </trkpt>
      <trkpt lat="47.3405820" lon="6.8439770">
        <ele>656.0</ele>
        <time>2022-07-20T16:27:06Z</time>
      </trkpt>
      <trkpt lat="47.3405470" lon="6.8440020">
        <ele>656.2</ele>
        <time>2022-07-20T16:27:07Z</time>
      </trkpt>
      <trkpt lat="47.3405350" lon="6.8440100">
        <ele>656.3</ele>
        <time>2022-07-20T16:27:08Z</time>
      </trkpt>
      <trkpt lat="47.3405000" lon="6.8440350">
        <ele>656.5</ele>
        <time>2022-07-20T16:27:09Z</time>
      </trkpt>
      <trkpt lat="47.3404880" lon="6.8440430">
        <ele>656.6</ele>
        <time>2022-07-20T16:27:10Z</time>
      </trkpt>
      <trkpt lat="47.3404570" lon="6.8440660">
        <ele>656.7</ele>
        <time>2022-07-20T16:27:11Z</time>
      </trkpt>
      <trkpt lat="47.3404470" lon="6.8440740">
        <ele>656.8</ele>
        <time>2022-07-20T16:27:12Z</time>
      </trkpt>
      <trkpt lat="47.3404190" lon="6.8440980">
        <ele>657.0</ele>
        <time>2022-07-20T16:27:13Z</time>
      </trkpt>
      <trkpt lat="47.3404090" lon="6.8441060">
        <ele>657.0</ele>
        <time>2022-07-20T16:27:14Z</time>
      </trkpt>
      <trkpt lat="47.3403750" lon="6.8441290">
        <ele>657.2</ele>
        <time>2022-07-20T16:27:15Z</time>
      </trkpt>
      <trkpt lat="47.3403640" lon="6.8441350">
        <ele>657.3</ele>
        <time>2022-07-20T16:27:16Z</time>
      </trkpt>
      <trkpt lat="47.3403300" lon="6.8441520">
        <ele>657.5</ele>
        <time>2022-07-20T16:27:17Z</time>
      </trkpt>
      <trkpt lat="47.3403190" lon="6.8441570">
        <ele>657.5</ele>
        <time>2022-07-20T16:27:18Z</time>
      </trkpt>
      <trkpt lat="47.3402890" lon="6.8441730">
        <ele>657.7</ele>
        <time>2022-07-20T16:27:19Z</time>
      </trkpt>
      <trkpt lat="47.3402790" lon="6.8441780">
        <ele>657.8</ele>
        <time>2022-07-20T16:27:20Z</time>
      </trkpt>
      <trkpt lat="47.3402430" lon="6.8441950">
        <ele>658.0</ele>
        <time>2022-07-20T16:27:21Z</time>
      </trkpt>
      <trkpt lat="47.3402310" lon="6.8442020">
        <ele>658.0</ele>
        <time>2022-07-20T16:27:22Z</time>
      </trkpt>
      <trkpt lat="47.3401980" lon="6.8442290">
        <ele>658.2</ele>
        <time>2022-07-20T16:27:23Z</time>
      </trkpt>
      <trkpt lat="47.3401890" lon="6.8442380">
        <ele>658.3</ele>
        <time>2022-07-20T16:27:24Z</time>
      </trkpt>
      <trkpt lat="47.3401580" lon="6.8442660">
        <ele>658.5</ele>
        <time>2022-07-20T16:27:25Z</time>
      </trkpt>
      <trkpt lat="47.3401470" lon="6.8442740">
        <ele>658.5</ele>
        <time>2022-07-20T16:27:26Z</time>
      </trkpt>
      <trkpt lat="47.3401140" lon="6.8442990">
        <ele>658.7</ele>
        <time>2022-07-20T16:27:27Z</time>
      </trkpt>
      <trkpt lat="47.3401030" lon="6.8443080">
        <ele>658.8</ele>
        <time>2022-07-20T16:27:28Z</time>
      </trkpt>
      <trkpt lat="47.3400730" lon="6.8443350">
        <ele>658.9</ele>
        <time>2022-07-20T16:27:29Z</time>
      </trkpt>
      <trkpt lat="47.3400620" lon="6.8443460">
        <ele>659.0</ele>
        <time>2022-07-20T16:27:30Z</time>
      </trkpt>
      <trkpt lat="47.3400320" lon="6.8443690">
        <ele>659.2</ele>
        <time>2022-07-20T16:27:31Z</time>
      </trkpt>
      <trkpt lat="47.3400200" lon="6.8443780">
        <ele>659.2</ele>
        <time>2022-07-20T16:27:32Z</time>
      </trkpt>
      <trkpt lat="47.3399800" lon="6.8444040">
        <ele>659.5</ele>
        <time>2022-07-20T16:27:34Z</time>
      </trkpt>
      <trkpt lat="47.3399470" lon="6.8444250">
        <ele>659.6</ele>
        <time>2022-07-20T16:27:35Z</time>
      </trkpt>
      <trkpt lat="47.3399350" lon="6.8444320">
        <ele>659.7</ele>
        <time>2022-07-20T16:27:36Z</time>
      </trkpt>
      <trkpt lat="47.3399080" lon="6.8444540">
        <ele>659.9</ele>
        <time>2022-07-20T16:27:37Z</time>
      </trkpt>
      <trkpt lat="47.3398990" lon="6.8444610">
        <ele>659.9</ele>
        <time>2022-07-20T16:27:38Z</time>
      </trkpt>
      <trkpt lat="47.3398700" lon="6.8444850">
        <ele>660.1</ele>
        <time>2022-07-20T16:27:39Z</time>
      </trkpt>
      <trkpt lat="47.3398600" lon="6.8444920">
        <ele>660.2</ele>
        <time>2022-07-20T16:27:40Z</time>
      </trkpt>
      <trkpt lat="47.3398340" lon="6.8445080">
        <ele>660.3</ele>
        <time>2022-07-20T16:27:41Z</time>
      </trkpt>
      <trkpt lat="47.3398050" lon="6.8445260">
        <ele>660.5</ele>
        <time>2022-07-20T16:27:42Z</time>
      </trkpt>
      <trkpt lat="47.3397970" lon="6.8445320">
        <ele>660.5</ele>
        <time>2022-07-20T16:27:43Z</time>
      </trkpt>
      <trkpt lat="47.3397670" lon="6.8445520">
        <ele>660.7</ele>
        <time>2022-07-20T16:27:44Z</time>
      </trkpt>
      <trkpt lat="47.3397570" lon="6.8445590">
        <ele>660.8</ele>
        <time>2022-07-20T16:27:45Z</time>
      </trkpt>
      <trkpt lat="47.3397270" lon="6.8445810">
        <ele>661.0</ele>
        <time>2022-07-20T16:27:46Z</time>
      </trkpt>
      <trkpt lat="47.3397160" lon="6.8445880">
        <ele>661.0</ele>
        <time>2022-07-20T16:27:47Z</time>
      </trkpt>
      <trkpt lat="47.3396880" lon="6.8446090">
        <ele>661.2</ele>
        <time>2022-07-20T16:27:48Z</time>
      </trkpt>
      <trkpt lat="47.3396780" lon="6.8446150">
        <ele>661.3</ele>
        <time>2022-07-20T16:27:49Z</time>
      </trkpt>
      <trkpt lat="47.3396500" lon="6.8446340">
        <ele>661.5</ele>
        <time>2022-07-20T16:27:50Z</time>
      </trkpt>
      <trkpt lat="47.3396400" lon="6.8446410">
        <ele>661.5</ele>
        <time>2022-07-20T16:27:51Z</time>
      </trkpt>
      <trkpt lat="47.3396070" lon="6.8446610">
        <ele>661.8</ele>
        <time>2022-07-20T16:27:52Z</time>
      </trkpt>
      <trkpt lat="47.3395960" lon="6.8446660">
        <ele>661.8</ele>
        <time>2022-07-20T16:27:53Z</time>
      </trkpt>
      <trkpt lat="47.3395670" lon="6.8446850">
        <ele>662.0</ele>
        <time>2022-07-20T16:27:54Z</time>
      </trkpt>
      <trkpt lat="47.3395570" lon="6.8446920">
        <ele>662.1</ele>
        <time>2022-07-20T16:27:55Z</time>
      </trkpt>
      <trkpt lat="47.3395260" lon="6.8447130">
        <ele>662.3</ele>
        <time>2022-07-20T16:27:56Z</time>
      </trkpt>
      <trkpt lat="47.3395170" lon="6.8447190">
        <ele>662.4</ele>
        <time>2022-07-20T16:27:57Z</time>
      </trkpt>
      <trkpt lat="47.3394900" lon="6.8447410">
        <ele>662.5</ele>
        <time>2022-07-20T16:27:58Z</time>
      </trkpt>
      <trkpt lat="47.3394810" lon="6.8447480">
        <ele>662.6</ele>
        <time>2022-07-20T16:27:59Z</time>
      </trkpt>
      <trkpt lat="47.3394550" lon="6.8447700">
        <ele>662.8</ele>
        <time>2022-07-20T16:28:00Z</time>
      </trkpt>
      <trkpt lat="47.3394470" lon="6.8447770">
        <ele>662.8</ele>
        <time>2022-07-20T16:28:01Z</time>
      </trkpt>
      <trkpt lat="47.3394190" lon="6.8447940">
        <ele>663.0</ele>
        <time>2022-07-20T16:28:02Z</time>
      </trkpt>
      <trkpt lat="47.3394080" lon="6.8447990">
        <ele>663.1</ele>
        <time>2022-07-20T16:28:03Z</time>
      </trkpt>
      <trkpt lat="47.3393790" lon="6.8448190">
        <ele>663.3</ele>
        <time>2022-07-20T16:28:04Z</time>
      </trkpt>
      <trkpt lat="47.3393700" lon="6.8448260">
        <ele>663.3</ele>
        <time>2022-07-20T16:28:05Z</time>
      </trkpt>
      <trkpt lat="47.3393410" lon="6.8448490">
        <ele>663.5</ele>
        <time>2022-07-20T16:28:06Z</time>
      </trkpt>
      <trkpt lat="47.3393310" lon="6.8448560">
        <ele>663.6</ele>
        <time>2022-07-20T16:28:07Z</time>
      </trkpt>
      <trkpt lat="47.3393030" lon="6.8448750">
        <ele>663.8</ele>
        <time>2022-07-20T16:28:08Z</time>
      </trkpt>
      <trkpt lat="47.3392940" lon="6.8448800">
        <ele>663.9</ele>
        <time>2022-07-20T16:28:09Z</time>
      </trkpt>
      <trkpt lat="47.3392640" lon="6.8448990">
        <ele>664.1</ele>
        <time>2022-07-20T16:28:10Z</time>
      </trkpt>
      <trkpt lat="47.3392530" lon="6.8449050">
        <ele>664.1</ele>
        <time>2022-07-20T16:28:11Z</time>
      </trkpt>
      <trkpt lat="47.3392220" lon="6.8449180">
        <ele>664.3</ele>
        <time>2022-07-20T16:28:12Z</time>
      </trkpt>
      <trkpt lat="47.3392110" lon="6.8449230">
        <ele>664.4</ele>
        <time>2022-07-20T16:28:13Z</time>
      </trkpt>
      <trkpt lat="47.3391830" lon="6.8449390">
        <ele>664.6</ele>
        <time>2022-07-20T16:28:14Z</time>
      </trkpt>
      <trkpt lat="47.3391750" lon="6.8449450">
        <ele>664.6</ele>
        <time>2022-07-20T16:28:15Z</time>
      </trkpt>
      <trkpt lat="47.3391480" lon="6.8449700">
        <ele>664.8</ele>
        <time>2022-07-20T16:28:16Z</time>
      </trkpt>
      <trkpt lat="47.3391380" lon="6.8449780">
        <ele>664.9</ele>
        <time>2022-07-20T16:28:17Z</time>
      </trkpt>
      <trkpt lat="47.3391120" lon="6.8449920">
        <ele>665.1</ele>
        <time>2022-07-20T16:28:18Z</time>
      </trkpt>
      <trkpt lat="47.3391030" lon="6.8449950">
        <ele>665.2</ele>
        <time>2022-07-20T16:28:19Z</time>
      </trkpt>
      <trkpt lat="47.3390870" lon="6.8450020">
        <ele>665.3</ele>
        <time>2022-07-20T16:28:20Z</time>
      </trkpt>
      <trkpt lat="47.3390690" lon="6.8450120">
        <ele>665.4</ele>
        <time>2022-07-20T16:28:21Z</time>
      </trkpt>
      <trkpt lat="47.3390430" lon="6.8450340">
        <ele>665.6</ele>
        <time>2022-07-20T16:28:22Z</time>
      </trkpt>
      <trkpt lat="47.3390350" lon="6.8450410">
        <ele>665.7</ele>
        <time>2022-07-20T16:28:23Z</time>
      </trkpt>
      <trkpt lat="47.3390120" lon="6.8450600">
        <ele>665.9</ele>
        <time>2022-07-20T16:28:24Z</time>
      </trkpt>
      <trkpt lat="47.3390030" lon="6.8450660">
        <ele>666.0</ele>
        <time>2022-07-20T16:28:25Z</time>
      </trkpt>
      <trkpt lat="47.3389770" lon="6.8450830">
        <ele>666.2</ele>
        <time>2022-07-20T16:28:26Z</time>
      </trkpt>
      <trkpt lat="47.3389700" lon="6.8450880">
        <ele>666.3</ele>
        <time>2022-07-20T16:28:27Z</time>
      </trkpt>
      <trkpt lat="47.3389580" lon="6.8450950">
        <ele>666.4</ele>
        <time>2022-07-20T16:28:28Z</time>
      </trkpt>
      <trkpt lat="47.3389440" lon="6.8451050">
        <ele>666.5</ele>
        <time>2022-07-20T16:28:29Z</time>
      </trkpt>
      <trkpt lat="47.3389300" lon="6.8451220">
        <ele>666.7</ele>
        <time>2022-07-20T16:28:30Z</time>
      </trkpt>
      <trkpt lat="47.3389190" lon="6.8451370">
        <ele>666.8</ele>
        <time>2022-07-20T16:28:31Z</time>
      </trkpt>
      <trkpt lat="47.3389090" lon="6.8451540">
        <ele>667.1</ele>
        <time>2022-07-20T16:28:32Z</time>
      </trkpt>
      <trkpt lat="47.3389010" lon="6.8451710">
        <ele>667.2</ele>
        <time>2022-07-20T16:28:33Z</time>
      </trkpt>
      <trkpt lat="47.3388940" lon="6.8451880">
        <ele>667.4</ele>
        <time>2022-07-20T16:28:34Z</time>
      </trkpt>
      <trkpt lat="47.3388870" lon="6.8452050">
        <ele>667.5</ele>
        <time>2022-07-20T16:28:35Z</time>
      </trkpt>
      <trkpt lat="47.3388830" lon="6.8452200">
        <ele>667.6</ele>
        <time>2022-07-20T16:28:36Z</time>
      </trkpt>
      <trkpt lat="47.3388770" lon="6.8452380">
        <ele>667.7</ele>
        <time>2022-07-20T16:28:37Z</time>
      </trkpt>
      <trkpt lat="47.3388720" lon="6.8452520">
        <ele>667.8</ele>
        <time>2022-07-20T16:28:38Z</time>
      </trkpt>
      <trkpt lat="47.3388670" lon="6.8452810">
        <ele>668.0</ele>
        <time>2022-07-20T16:28:39Z</time>
      </trkpt>
      <trkpt lat="47.3388660" lon="6.8452930">
        <ele>668.1</ele>
        <time>2022-07-20T16:28:40Z</time>
      </trkpt>
      <trkpt lat="47.3388640" lon="6.8453050">
        <ele>668.2</ele>
        <time>2022-07-20T16:28:41Z</time>
      </trkpt>
      <trkpt lat="47.3388650" lon="6.8453380">
        <ele>668.4</ele>
        <time>2022-07-20T16:28:42Z</time>
      </trkpt>
      <trkpt lat="47.3388640" lon="6.8453520">
        <ele>668.5</ele>
        <time>2022-07-20T16:28:43Z</time>
      </trkpt>
      <trkpt lat="47.3388630" lon="6.8453650">
        <ele>668.6</ele>
        <time>2022-07-20T16:28:44Z</time>
      </trkpt>
      <trkpt lat="47.3388580" lon="6.8453950">
        <ele>668.8</ele>
        <time>2022-07-20T16:28:45Z</time>
      </trkpt>
      <trkpt lat="47.3388560" lon="6.8454080">
        <ele>668.9</ele>
        <time>2022-07-20T16:28:46Z</time>
      </trkpt>
      <trkpt lat="47.3388540" lon="6.8454200">
        <ele>668.9</ele>
        <time>2022-07-20T16:28:47Z</time>
      </trkpt>
      <trkpt lat="47.3388480" lon="6.8454500">
        <ele>669.2</ele>
        <time>2022-07-20T16:28:48Z</time>
      </trkpt>
      <trkpt lat="47.3388450" lon="6.8454620">
        <ele>669.3</ele>
        <time>2022-07-20T16:28:49Z</time>
      </trkpt>
      <trkpt lat="47.3388420" lon="6.8454750">
        <ele>669.4</ele>
        <time>2022-07-20T16:28:50Z</time>
      </trkpt>
      <trkpt lat="47.3388360" lon="6.8454970">
        <ele>669.5</ele>
        <time>2022-07-20T16:28:51Z</time>
      </trkpt>
      <trkpt lat="47.3388320" lon="6.8455180">
        <ele>669.7</ele>
        <time>2022-07-20T16:28:52Z</time>
      </trkpt>
      <trkpt lat="47.3388300" lon="6.8455330">
        <ele>669.8</ele>
        <time>2022-07-20T16:28:53Z</time>
      </trkpt>
      <trkpt lat="47.3388280" lon="6.8455500">
        <ele>669.9</ele>
        <time>2022-07-20T16:28:54Z</time>
      </trkpt>
      <trkpt lat="47.3388260" lon="6.8455640">
        <ele>670.0</ele>
        <time>2022-07-20T16:28:55Z</time>
      </trkpt>
      <trkpt lat="47.3388220" lon="6.8455920">
        <ele>670.3</ele>
        <time>2022-07-20T16:28:56Z</time>
      </trkpt>
      <trkpt lat="47.3388200" lon="6.8456060">
        <ele>670.4</ele>
        <time>2022-07-20T16:28:57Z</time>
      </trkpt>
      <trkpt lat="47.3388180" lon="6.8456190">
        <ele>670.5</ele>
        <time>2022-07-20T16:28:58Z</time>
      </trkpt>
      <trkpt lat="47.3388210" lon="6.8456570">
        <ele>670.7</ele>
        <time>2022-07-20T16:28:59Z</time>
      </trkpt>
      <trkpt lat="47.3388250" lon="6.8456720">
        <ele>670.9</ele>
        <time>2022-07-20T16:29:00Z</time>
      </trkpt>
      <trkpt lat="47.3388260" lon="6.8457230">
        <ele>671.2</ele>
        <time>2022-07-20T16:29:01Z</time>
      </trkpt>
      <trkpt lat="47.3388250" lon="6.8457390">
        <ele>671.4</ele>
        <time>2022-07-20T16:29:02Z</time>
      </trkpt>
      <trkpt lat="47.3388160" lon="6.8457780">
        <ele>671.7</ele>
        <time>2022-07-20T16:29:03Z</time>
      </trkpt>
      <trkpt lat="47.3388140" lon="6.8457920">
        <ele>671.8</ele>
        <time>2022-07-20T16:29:04Z</time>
      </trkpt>
      <trkpt lat="47.3388070" lon="6.8458170">
        <ele>672.0</ele>
        <time>2022-07-20T16:29:05Z</time>
      </trkpt>
      <trkpt lat="47.3388080" lon="6.8458290">
        <ele>672.0</ele>
        <time>2022-07-20T16:29:06Z</time>
      </trkpt>
      <trkpt lat="47.3388020" lon="6.8458380">
        <ele>672.1</ele>
        <time>2022-07-20T16:29:07Z</time>
      </trkpt>
      <trkpt lat="47.3387930" lon="6.8458510">
        <ele>672.3</ele>
        <time>2022-07-20T16:29:08Z</time>
      </trkpt>
      <trkpt lat="47.3387870" lon="6.8458720">
        <ele>672.4</ele>
        <time>2022-07-20T16:29:09Z</time>
      </trkpt>
      <trkpt lat="47.3387860" lon="6.8458980">
        <ele>672.6</ele>
        <time>2022-07-20T16:29:10Z</time>
      </trkpt>
      <trkpt lat="47.3387880" lon="6.8459250">
        <ele>672.8</ele>
        <time>2022-07-20T16:29:11Z</time>
      </trkpt>
      <trkpt lat="47.3387860" lon="6.8459470">
        <ele>672.9</ele>
        <time>2022-07-20T16:29:12Z</time>
      </trkpt>
      <trkpt lat="47.3387820" lon="6.8459710">
        <ele>673.1</ele>
        <time>2022-07-20T16:29:13Z</time>
      </trkpt>
      <trkpt lat="47.3387770" lon="6.8459920">
        <ele>673.2</ele>
        <time>2022-07-20T16:29:14Z</time>
      </trkpt>
      <trkpt lat="47.3387780" lon="6.8460130">
        <ele>673.4</ele>
        <time>2022-07-20T16:29:15Z</time>
      </trkpt>
      <trkpt lat="47.3387840" lon="6.8460280">
        <ele>673.5</ele>
        <time>2022-07-20T16:29:16Z</time>
      </trkpt>
      <trkpt lat="47.3387910" lon="6.8460480">
        <ele>673.6</ele>
        <time>2022-07-20T16:29:17Z</time>
      </trkpt>
      <trkpt lat="47.3388060" lon="6.8460870">
        <ele>673.9</ele>
        <time>2022-07-20T16:29:18Z</time>
      </trkpt>
      <trkpt lat="47.3388130" lon="6.8461030">
        <ele>674.0</ele>
        <time>2022-07-20T16:29:19Z</time>
      </trkpt>
      <trkpt lat="47.3388300" lon="6.8461530">
        <ele>674.3</ele>
        <time>2022-07-20T16:29:20Z</time>
      </trkpt>
      <trkpt lat="47.3388340" lon="6.8461700">
        <ele>674.4</ele>
        <time>2022-07-20T16:29:21Z</time>
      </trkpt>
      <trkpt lat="47.3388400" lon="6.8461950">
        <ele>674.5</ele>
        <time>2022-07-20T16:29:22Z</time>
      </trkpt>
      <trkpt lat="47.3388440" lon="6.8462200">
        <ele>674.7</ele>
        <time>2022-07-20T16:29:23Z</time>
      </trkpt>
      <trkpt lat="47.3388530" lon="6.8462620">
        <ele>674.9</ele>
        <time>2022-07-20T16:29:24Z</time>
      </trkpt>
      <trkpt lat="47.3388590" lon="6.8462800">
        <ele>675.0</ele>
        <time>2022-07-20T16:29:25Z</time>
      </trkpt>
      <trkpt lat="47.3388770" lon="6.8463160">
        <ele>675.3</ele>
        <time>2022-07-20T16:29:26Z</time>
      </trkpt>
      <trkpt lat="47.3388840" lon="6.8463290">
        <ele>675.3</ele>
        <time>2022-07-20T16:29:27Z</time>
      </trkpt>
      <trkpt lat="47.3389040" lon="6.8463580">
        <ele>675.6</ele>
        <time>2022-07-20T16:29:28Z</time>
      </trkpt>
      <trkpt lat="47.3389230" lon="6.8463950">
        <ele>675.8</ele>
        <time>2022-07-20T16:29:29Z</time>
      </trkpt>
      <trkpt lat="47.3389280" lon="6.8464090">
        <ele>675.9</ele>
        <time>2022-07-20T16:29:30Z</time>
      </trkpt>
      <trkpt lat="47.3389400" lon="6.8464280">
        <ele>676.0</ele>
        <time>2022-07-20T16:29:31Z</time>
      </trkpt>
      <trkpt lat="47.3389500" lon="6.8464380">
        <ele>676.1</ele>
        <time>2022-07-20T16:29:32Z</time>
      </trkpt>
      <trkpt lat="47.3389730" lon="6.8464790">
        <ele>676.4</ele>
        <time>2022-07-20T16:29:33Z</time>
      </trkpt>
      <trkpt lat="47.3389820" lon="6.8464930">
        <ele>676.5</ele>
        <time>2022-07-20T16:29:34Z</time>
      </trkpt>
      <trkpt lat="47.3389940" lon="6.8465140">
        <ele>676.6</ele>
        <time>2022-07-20T16:29:35Z</time>
      </trkpt>
      <trkpt lat="47.3390050" lon="6.8465320">
        <ele>676.7</ele>
        <time>2022-07-20T16:29:36Z</time>
      </trkpt>
      <trkpt lat="47.3390160" lon="6.8465560">
        <ele>676.9</ele>
        <time>2022-07-20T16:29:37Z</time>
      </trkpt>
      <trkpt lat="47.3390190" lon="6.8465680">
        <ele>676.9</ele>
        <time>2022-07-20T16:29:38Z</time>
      </trkpt>
      <trkpt lat="47.3390230" lon="6.8465790">
        <ele>677.0</ele>
        <time>2022-07-20T16:29:39Z</time>
      </trkpt>
      <trkpt lat="47.3390340" lon="6.8466170">
        <ele>677.2</ele>
        <time>2022-07-20T16:29:40Z</time>
      </trkpt>
      <trkpt lat="47.3390370" lon="6.8466310">
        <ele>677.3</ele>
        <time>2022-07-20T16:29:41Z</time>
      </trkpt>
      <trkpt lat="47.3390440" lon="6.8466570">
        <ele>677.5</ele>
        <time>2022-07-20T16:29:42Z</time>
      </trkpt>
      <trkpt lat="47.3390490" lon="6.8466780">
        <ele>677.6</ele>
        <time>2022-07-20T16:29:43Z</time>
      </trkpt>
      <trkpt lat="47.3390550" lon="6.8467070">
        <ele>677.8</ele>
        <time>2022-07-20T16:29:44Z</time>
      </trkpt>
      <trkpt lat="47.3390590" lon="6.8467190">
        <ele>677.8</ele>
        <time>2022-07-20T16:29:45Z</time>
      </trkpt>
      <trkpt lat="47.3390620" lon="6.8467310">
        <ele>677.9</ele>
        <time>2022-07-20T16:29:46Z</time>
      </trkpt>
      <trkpt lat="47.3390670" lon="6.8467380">
        <ele>678.0</ele>
        <time>2022-07-20T16:29:47Z</time>
      </trkpt>
      <trkpt lat="47.3390770" lon="6.8467510">
        <ele>678.1</ele>
        <time>2022-07-20T16:29:48Z</time>
      </trkpt>
      <trkpt lat="47.3390770" lon="6.8467490">
        <ele>678.1</ele>
        <time>2022-07-20T16:29:49Z</time>
      </trkpt>
      <trkpt lat="47.3390830" lon="6.8467590">
        <ele>678.2</ele>
        <time>2022-07-20T16:29:50Z</time>
      </trkpt>
      <trkpt lat="47.3390910" lon="6.8467780">
        <ele>678.3</ele>
        <time>2022-07-20T16:29:51Z</time>
      </trkpt>
      <trkpt lat="47.3391000" lon="6.8467950">
        <ele>678.4</ele>
        <time>2022-07-20T16:29:52Z</time>
      </trkpt>
      <trkpt lat="47.3391170" lon="6.8468280">
        <ele>678.7</ele>
        <time>2022-07-20T16:29:53Z</time>
      </trkpt>
      <trkpt lat="47.3391220" lon="6.8468380">
        <ele>678.7</ele>
        <time>2022-07-20T16:29:54Z</time>
      </trkpt>
      <trkpt lat="47.3391290" lon="6.8468670">
        <ele>678.9</ele>
        <time>2022-07-20T16:29:55Z</time>
      </trkpt>
      <trkpt lat="47.3391320" lon="6.8468800">
        <ele>679.0</ele>
        <time>2022-07-20T16:29:56Z</time>
      </trkpt>
      <trkpt lat="47.3391340" lon="6.8468940">
        <ele>679.1</ele>
        <time>2022-07-20T16:29:57Z</time>
      </trkpt>
      <trkpt lat="47.3391350" lon="6.8469100">
        <ele>679.2</ele>
        <time>2022-07-20T16:29:58Z</time>
      </trkpt>
      <trkpt lat="47.3391370" lon="6.8469230">
        <ele>679.3</ele>
        <time>2022-07-20T16:29:59Z</time>
      </trkpt>
      <trkpt lat="47.3391410" lon="6.8469390">
        <ele>679.4</ele>
        <time>2022-07-20T16:30:00Z</time>
      </trkpt>
      <trkpt lat="47.3391510" lon="6.8469780">
        <ele>679.6</ele>
        <time>2022-07-20T16:30:01Z</time>
      </trkpt>
      <trkpt lat="47.3391550" lon="6.8469930">
        <ele>679.7</ele>
        <time>2022-07-20T16:30:02Z</time>
      </trkpt>
      <trkpt lat="47.3391590" lon="6.8470220">
        <ele>679.9</ele>
        <time>2022-07-20T16:30:03Z</time>
      </trkpt>
      <trkpt lat="47.3391610" lon="6.8470390">
        <ele>680.0</ele>
        <time>2022-07-20T16:30:04Z</time>
      </trkpt>
      <trkpt lat="47.3391630" lon="6.8470550">
        <ele>680.1</ele>
        <time>2022-07-20T16:30:05Z</time>
      </trkpt>
      <trkpt lat="47.3391640" lon="6.8470710">
        <ele>680.2</ele>
        <time>2022-07-20T16:30:06Z</time>
      </trkpt>
      <trkpt lat="47.3391650" lon="6.8470890">
        <ele>680.3</ele>
        <time>2022-07-20T16:30:07Z</time>
      </trkpt>
      <trkpt lat="47.3391680" lon="6.8471170">
        <ele>680.5</ele>
        <time>2022-07-20T16:30:08Z</time>
      </trkpt>
      <trkpt lat="47.3391710" lon="6.8471360">
        <ele>680.6</ele>
        <time>2022-07-20T16:30:09Z</time>
      </trkpt>
      <trkpt lat="47.3391810" lon="6.8471610">
        <ele>681.0</ele>
        <time>2022-07-20T16:30:10Z</time>
      </trkpt>
      <trkpt lat="47.3391860" lon="6.8471730">
        <ele>681.1</ele>
        <time>2022-07-20T16:30:11Z</time>
      </trkpt>
      <trkpt lat="47.3391900" lon="6.8471840">
        <ele>681.2</ele>
        <time>2022-07-20T16:30:12Z</time>
      </trkpt>
      <trkpt lat="47.3391940" lon="6.8472130">
        <ele>681.5</ele>
        <time>2022-07-20T16:30:13Z</time>
      </trkpt>
      <trkpt lat="47.3391940" lon="6.8472240">
        <ele>681.5</ele>
        <time>2022-07-20T16:30:14Z</time>
      </trkpt>
      <trkpt lat="47.3391930" lon="6.8472430">
        <ele>681.7</ele>
        <time>2022-07-20T16:30:15Z</time>
      </trkpt>
      <trkpt lat="47.3391910" lon="6.8472520">
        <ele>681.8</ele>
        <time>2022-07-20T16:30:16Z</time>
      </trkpt>
      <trkpt lat="47.3391830" lon="6.8472670">
        <ele>681.9</ele>
        <time>2022-07-20T16:30:17Z</time>
      </trkpt>
      <trkpt lat="47.3391720" lon="6.8472950">
        <ele>682.1</ele>
        <time>2022-07-20T16:30:18Z</time>
      </trkpt>
      <trkpt lat="47.3391690" lon="6.8473070">
        <ele>682.2</ele>
        <time>2022-07-20T16:30:19Z</time>
      </trkpt>
      <trkpt lat="47.3391660" lon="6.8473190">
        <ele>682.3</ele>
        <time>2022-07-20T16:30:20Z</time>
      </trkpt>
      <trkpt lat="47.3391590" lon="6.8473420">
        <ele>682.5</ele>
        <time>2022-07-20T16:30:21Z</time>
      </trkpt>
      <trkpt lat="47.3391500" lon="6.8473610">
        <ele>682.7</ele>
        <time>2022-07-20T16:30:22Z</time>
      </trkpt>
      <trkpt lat="47.3391390" lon="6.8473850">
        <ele>682.9</ele>
        <time>2022-07-20T16:30:24Z</time>
      </trkpt>
      <trkpt lat="47.3391290" lon="6.8474030">
        <ele>683.1</ele>
        <time>2022-07-20T16:30:25Z</time>
      </trkpt>
      <trkpt lat="47.3391160" lon="6.8474320">
        <ele>683.4</ele>
        <time>2022-07-20T16:30:26Z</time>
      </trkpt>
      <trkpt lat="47.3391130" lon="6.8474470">
        <ele>683.5</ele>
        <time>2022-07-20T16:30:27Z</time>
      </trkpt>
      <trkpt lat="47.3391090" lon="6.8474620">
        <ele>683.6</ele>
        <time>2022-07-20T16:30:29Z</time>
      </trkpt>
      <trkpt lat="47.3391060" lon="6.8474770">
        <ele>683.8</ele>
        <time>2022-07-20T16:30:30Z</time>
      </trkpt>
      <trkpt lat="47.3391030" lon="6.8474920">
        <ele>683.9</ele>
        <time>2022-07-20T16:30:31Z</time>
      </trkpt>
      <trkpt lat="47.3391000" lon="6.8475060">
        <ele>684.0</ele>
        <time>2022-07-20T16:30:32Z</time>
      </trkpt>
      <trkpt lat="47.3390990" lon="6.8475290">
        <ele>684.2</ele>
        <time>2022-07-20T16:30:34Z</time>
      </trkpt>
      <trkpt lat="47.3391000" lon="6.8475580">
        <ele>684.4</ele>
        <time>2022-07-20T16:30:35Z</time>
      </trkpt>
      <trkpt lat="47.3390990" lon="6.8475730">
        <ele>684.5</ele>
        <time>2022-07-20T16:30:36Z</time>
      </trkpt>
      <trkpt lat="47.3390990" lon="6.8475820">
        <ele>684.6</ele>
        <time>2022-07-20T16:30:37Z</time>
      </trkpt>
      <trkpt lat="47.3390980" lon="6.8475980">
        <ele>684.7</ele>
        <time>2022-07-20T16:30:38Z</time>
      </trkpt>
      <trkpt lat="47.3390960" lon="6.8476160">
        <ele>684.9</ele>
        <time>2022-07-20T16:30:39Z</time>
      </trkpt>
      <trkpt lat="47.3390930" lon="6.8476310">
        <ele>685.0</ele>
        <time>2022-07-20T16:30:40Z</time>
      </trkpt>
      <trkpt lat="47.3390910" lon="6.8476480">
        <ele>685.2</ele>
        <time>2022-07-20T16:30:41Z</time>
      </trkpt>
      <trkpt lat="47.3390880" lon="6.8476790">
        <ele>685.4</ele>
        <time>2022-07-20T16:30:43Z</time>
      </trkpt>
      <trkpt lat="47.3390880" lon="6.8476950">
        <ele>685.6</ele>
        <time>2022-07-20T16:30:44Z</time>
      </trkpt>
      <trkpt lat="47.3390870" lon="6.8477090">
        <ele>685.7</ele>
        <time>2022-07-20T16:30:45Z</time>
      </trkpt>
      <trkpt lat="47.3390840" lon="6.8477230">
        <ele>685.8</ele>
        <time>2022-07-20T16:30:46Z</time>
      </trkpt>
      <trkpt lat="47.3390800" lon="6.8477390">
        <ele>685.9</ele>
        <time>2022-07-20T16:30:47Z</time>
      </trkpt>
      <trkpt lat="47.3390750" lon="6.8477610">
        <ele>686.1</ele>
        <time>2022-07-20T16:30:49Z</time>
      </trkpt>
      <trkpt lat="47.3390720" lon="6.8477780">
        <ele>686.3</ele>
        <time>2022-07-20T16:30:50Z</time>
      </trkpt>
      <trkpt lat="47.3390640" lon="6.8478050">
        <ele>686.5</ele>
        <time>2022-07-20T16:30:51Z</time>
      </trkpt>
      <trkpt lat="47.3390600" lon="6.8478190">
        <ele>686.7</ele>
        <time>2022-07-20T16:30:52Z</time>
      </trkpt>
      <trkpt lat="47.3390550" lon="6.8478330">
        <ele>686.8</ele>
        <time>2022-07-20T16:30:53Z</time>
      </trkpt>
      <trkpt lat="47.3390500" lon="6.8478760">
        <ele>687.2</ele>
        <time>2022-07-20T16:30:55Z</time>
      </trkpt>
      <trkpt lat="47.3390490" lon="6.8478860">
        <ele>687.2</ele>
        <time>2022-07-20T16:30:56Z</time>
      </trkpt>
      <trkpt lat="47.3390480" lon="6.8478990">
        <ele>687.4</ele>
        <time>2022-07-20T16:30:57Z</time>
      </trkpt>
      <trkpt lat="47.3390450" lon="6.8479100">
        <ele>687.5</ele>
        <time>2022-07-20T16:30:58Z</time>
      </trkpt>
      <trkpt lat="47.3390380" lon="6.8479280">
        <ele>687.6</ele>
        <time>2022-07-20T16:30:59Z</time>
      </trkpt>
      <trkpt lat="47.3390330" lon="6.8479480">
        <ele>687.8</ele>
        <time>2022-07-20T16:31:01Z</time>
      </trkpt>
      <trkpt lat="47.3390260" lon="6.8479650">
        <ele>688.0</ele>
        <time>2022-07-20T16:31:02Z</time>
      </trkpt>
      <trkpt lat="47.3390070" lon="6.8479980">
        <ele>688.3</ele>
        <time>2022-07-20T16:31:04Z</time>
      </trkpt>
      <trkpt lat="47.3389910" lon="6.8480110">
        <ele>688.6</ele>
        <time>2022-07-20T16:31:05Z</time>
      </trkpt>
      <trkpt lat="47.3389850" lon="6.8480210">
        <ele>688.7</ele>
        <time>2022-07-20T16:31:06Z</time>
      </trkpt>
      <trkpt lat="47.3389800" lon="6.8480310">
        <ele>688.8</ele>
        <time>2022-07-20T16:31:07Z</time>
      </trkpt>
      <trkpt lat="47.3389720" lon="6.8480620">
        <ele>689.1</ele>
        <time>2022-07-20T16:31:08Z</time>
      </trkpt>
      <trkpt lat="47.3389710" lon="6.8480800">
        <ele>689.2</ele>
        <time>2022-07-20T16:31:10Z</time>
      </trkpt>
      <trkpt lat="47.3389700" lon="6.8480970">
        <ele>689.3</ele>
        <time>2022-07-20T16:31:11Z</time>
      </trkpt>
      <trkpt lat="47.3389690" lon="6.8481150">
        <ele>689.5</ele>
        <time>2022-07-20T16:31:12Z</time>
      </trkpt>
      <trkpt lat="47.3389680" lon="6.8481320">
        <ele>689.6</ele>
        <time>2022-07-20T16:31:13Z</time>
      </trkpt>
      <trkpt lat="47.3389640" lon="6.8481720">
        <ele>689.9</ele>
        <time>2022-07-20T16:31:14Z</time>
      </trkpt>
      <trkpt lat="47.3389630" lon="6.8481950">
        <ele>690.1</ele>
        <time>2022-07-20T16:31:16Z</time>
      </trkpt>
      <trkpt lat="47.3389670" lon="6.8482100">
        <ele>690.2</ele>
        <time>2022-07-20T16:31:17Z</time>
      </trkpt>
      <trkpt lat="47.3389680" lon="6.8482250">
        <ele>690.4</ele>
        <time>2022-07-20T16:31:18Z</time>
      </trkpt>
      <trkpt lat="47.3389670" lon="6.8482440">
        <ele>690.5</ele>
        <time>2022-07-20T16:31:19Z</time>
      </trkpt>
      <trkpt lat="47.3389650" lon="6.8482710">
        <ele>690.7</ele>
        <time>2022-07-20T16:31:20Z</time>
      </trkpt>
      <trkpt lat="47.3389610" lon="6.8482980">
        <ele>690.9</ele>
        <time>2022-07-20T16:31:22Z</time>
      </trkpt>
      <trkpt lat="47.3389590" lon="6.8483120">
        <ele>691.1</ele>
        <time>2022-07-20T16:31:23Z</time>
      </trkpt>
      <trkpt lat="47.3389590" lon="6.8483210">
        <ele>691.1</ele>
        <time>2022-07-20T16:31:24Z</time>
      </trkpt>
      <trkpt lat="47.3389600" lon="6.8483320">
        <ele>691.2</ele>
        <time>2022-07-20T16:31:25Z</time>
      </trkpt>
      <trkpt lat="47.3389620" lon="6.8483540">
        <ele>691.4</ele>
        <time>2022-07-20T16:31:26Z</time>
      </trkpt>
      <trkpt lat="47.3389670" lon="6.8483780">
        <ele>691.6</ele>
        <time>2022-07-20T16:31:28Z</time>
      </trkpt>
      <trkpt lat="47.3389700" lon="6.8483980">
        <ele>691.7</ele>
        <time>2022-07-20T16:31:29Z</time>
      </trkpt>
      <trkpt lat="47.3389740" lon="6.8484180">
        <ele>691.9</ele>
        <time>2022-07-20T16:31:30Z</time>
      </trkpt>
      <trkpt lat="47.3389770" lon="6.8484310">
        <ele>692.0</ele>
        <time>2022-07-20T16:31:31Z</time>
      </trkpt>
      <trkpt lat="47.3389800" lon="6.8484480">
        <ele>692.2</ele>
        <time>2022-07-20T16:31:33Z</time>
      </trkpt>
      <trkpt lat="47.3389810" lon="6.8484650">
        <ele>692.3</ele>
        <time>2022-07-20T16:31:34Z</time>
      </trkpt>
      <trkpt lat="47.3389820" lon="6.8484730">
        <ele>692.4</ele>
        <time>2022-07-20T16:31:35Z</time>
      </trkpt>
      <trkpt lat="47.3389860" lon="6.8484850">
        <ele>692.5</ele>
        <time>2022-07-20T16:31:36Z</time>
      </trkpt>
      <trkpt lat="47.3389870" lon="6.8485000">
        <ele>692.6</ele>
        <time>2022-07-20T16:31:37Z</time>
      </trkpt>
      <trkpt lat="47.3389880" lon="6.8485150">
        <ele>692.7</ele>
        <time>2022-07-20T16:31:38Z</time>
      </trkpt>
      <trkpt lat="47.3389900" lon="6.8485320">
        <ele>692.9</ele>
        <time>2022-07-20T16:31:39Z</time>
      </trkpt>
      <trkpt lat="47.3389930" lon="6.8485460">
        <ele>693.0</ele>
        <time>2022-07-20T16:31:40Z</time>
      </trkpt>
      <trkpt lat="47.3389970" lon="6.8485660">
        <ele>693.2</ele>
        <time>2022-07-20T16:31:42Z</time>
      </trkpt>
      <trkpt lat="47.3389990" lon="6.8485800">
        <ele>693.3</ele>
        <time>2022-07-20T16:31:43Z</time>
      </trkpt>
      <trkpt lat="47.3390010" lon="6.8485970">
        <ele>693.4</ele>
        <time>2022-07-20T16:31:44Z</time>
      </trkpt>
      <trkpt lat="47.3390000" lon="6.8486150">
        <ele>693.6</ele>
        <time>2022-07-20T16:31:45Z</time>
      </trkpt>
      <trkpt lat="47.3389980" lon="6.8486310">
        <ele>693.7</ele>
        <time>2022-07-20T16:31:46Z</time>
      </trkpt>
      <trkpt lat="47.3389950" lon="6.8486480">
        <ele>693.8</ele>
        <time>2022-07-20T16:31:47Z</time>
      </trkpt>
      <trkpt lat="47.3389930" lon="6.8486740">
        <ele>694.0</ele>
        <time>2022-07-20T16:31:48Z</time>
      </trkpt>
      <trkpt lat="47.3389920" lon="6.8486870">
        <ele>694.2</ele>
        <time>2022-07-20T16:31:50Z</time>
      </trkpt>
      <trkpt lat="47.3389920" lon="6.8487010">
        <ele>694.3</ele>
        <time>2022-07-20T16:31:51Z</time>
      </trkpt>
      <trkpt lat="47.3389860" lon="6.8487280">
        <ele>694.5</ele>
        <time>2022-07-20T16:31:53Z</time>
      </trkpt>
      <trkpt lat="47.3389820" lon="6.8487460">
        <ele>694.7</ele>
        <time>2022-07-20T16:31:54Z</time>
      </trkpt>
      <trkpt lat="47.3389790" lon="6.8487600">
        <ele>694.8</ele>
        <time>2022-07-20T16:31:55Z</time>
      </trkpt>
      <trkpt lat="47.3389770" lon="6.8487940">
        <ele>695.0</ele>
        <time>2022-07-20T16:31:57Z</time>
      </trkpt>
      <trkpt lat="47.3389770" lon="6.8488080">
        <ele>695.2</ele>
        <time>2022-07-20T16:31:58Z</time>
      </trkpt>
      <trkpt lat="47.3389770" lon="6.8488220">
        <ele>695.3</ele>
        <time>2022-07-20T16:31:59Z</time>
      </trkpt>
      <trkpt lat="47.3389760" lon="6.8488340">
        <ele>695.4</ele>
        <time>2022-07-20T16:32:00Z</time>
      </trkpt>
      <trkpt lat="47.3389780" lon="6.8488600">
        <ele>695.6</ele>
        <time>2022-07-20T16:32:02Z</time>
      </trkpt>
      <trkpt lat="47.3389790" lon="6.8488750">
        <ele>695.7</ele>
        <time>2022-07-20T16:32:03Z</time>
      </trkpt>
      <trkpt lat="47.3389800" lon="6.8488880">
        <ele>695.8</ele>
        <time>2022-07-20T16:32:04Z</time>
      </trkpt>
      <trkpt lat="47.3389780" lon="6.8488990">
        <ele>695.9</ele>
        <time>2022-07-20T16:32:05Z</time>
      </trkpt>
      <trkpt lat="47.3389710" lon="6.8489200">
        <ele>696.1</ele>
        <time>2022-07-20T16:32:06Z</time>
      </trkpt>
      <trkpt lat="47.3389640" lon="6.8489350">
        <ele>696.2</ele>
        <time>2022-07-20T16:32:07Z</time>
      </trkpt>
      <trkpt lat="47.3389600" lon="6.8489480">
        <ele>696.3</ele>
        <time>2022-07-20T16:32:08Z</time>
      </trkpt>
      <trkpt lat="47.3389550" lon="6.8489610">
        <ele>696.4</ele>
        <time>2022-07-20T16:32:09Z</time>
      </trkpt>
      <trkpt lat="47.3389490" lon="6.8489730">
        <ele>696.5</ele>
        <time>2022-07-20T16:32:11Z</time>
      </trkpt>
      <trkpt lat="47.3389400" lon="6.8489880">
        <ele>696.7</ele>
        <time>2022-07-20T16:32:12Z</time>
      </trkpt>
      <trkpt lat="47.3389320" lon="6.8490010">
        <ele>696.8</ele>
        <time>2022-07-20T16:32:13Z</time>
      </trkpt>
      <trkpt lat="47.3389240" lon="6.8490140">
        <ele>696.9</ele>
        <time>2022-07-20T16:32:14Z</time>
      </trkpt>
      <trkpt lat="47.3389180" lon="6.8490230">
        <ele>697.0</ele>
        <time>2022-07-20T16:32:15Z</time>
      </trkpt>
      <trkpt lat="47.3389090" lon="6.8490390">
        <ele>697.2</ele>
        <time>2022-07-20T16:32:16Z</time>
      </trkpt>
      <trkpt lat="47.3388990" lon="6.8490560">
        <ele>697.3</ele>
        <time>2022-07-20T16:32:17Z</time>
      </trkpt>
      <trkpt lat="47.3388890" lon="6.8490700">
        <ele>697.5</ele>
        <time>2022-07-20T16:32:18Z</time>
      </trkpt>
      <trkpt lat="47.3388620" lon="6.8491000">
        <ele>697.8</ele>
        <time>2022-07-20T16:32:20Z</time>
      </trkpt>
      <trkpt lat="47.3388540" lon="6.8491060">
        <ele>697.9</ele>
        <time>2022-07-20T16:32:21Z</time>
      </trkpt>
      <trkpt lat="47.3388270" lon="6.8491310">
        <ele>698.2</ele>
        <time>2022-07-20T16:32:22Z</time>
      </trkpt>
      <trkpt lat="47.3388200" lon="6.8491370">
        <ele>698.3</ele>
        <time>2022-07-20T16:32:23Z</time>
      </trkpt>
      <trkpt lat="47.3388020" lon="6.8491490">
        <ele>698.5</ele>
        <time>2022-07-20T16:32:24Z</time>
      </trkpt>
      <trkpt lat="47.3387910" lon="6.8491570">
        <ele>698.6</ele>
        <time>2022-07-20T16:32:25Z</time>
      </trkpt>
      <trkpt lat="47.3387630" lon="6.8491830">
        <ele>698.9</ele>
        <time>2022-07-20T16:32:26Z</time>
      </trkpt>
      <trkpt lat="47.3387360" lon="6.8491980">
        <ele>699.1</ele>
        <time>2022-07-20T16:32:28Z</time>
      </trkpt>
      <trkpt lat="47.3387290" lon="6.8492010">
        <ele>699.1</ele>
        <time>2022-07-20T16:32:29Z</time>
      </trkpt>
      <trkpt lat="47.3386980" lon="6.8492130">
        <ele>699.2</ele>
        <time>2022-07-20T16:32:30Z</time>
      </trkpt>
      <trkpt lat="47.3386860" lon="6.8492170">
        <ele>699.3</ele>
        <time>2022-07-20T16:32:31Z</time>
      </trkpt>
      <trkpt lat="47.3386500" lon="6.8492240">
        <ele>699.4</ele>
        <time>2022-07-20T16:32:32Z</time>
      </trkpt>
      <trkpt lat="47.3386370" lon="6.8492260">
        <ele>699.4</ele>
        <time>2022-07-20T16:32:33Z</time>
      </trkpt>
      <trkpt lat="47.3386100" lon="6.8492310">
        <ele>699.5</ele>
        <time>2022-07-20T16:32:34Z</time>
      </trkpt>
      <trkpt lat="47.3385740" lon="6.8492430">
        <ele>699.6</ele>
        <time>2022-07-20T16:32:35Z</time>
      </trkpt>
      <trkpt lat="47.3385360" lon="6.8492580">
        <ele>699.8</ele>
        <time>2022-07-20T16:32:37Z</time>
      </trkpt>
      <trkpt lat="47.3384960" lon="6.8492720">
        <ele>699.9</ele>
        <time>2022-07-20T16:32:38Z</time>
      </trkpt>
      <trkpt lat="47.3384610" lon="6.8492790">
        <ele>700.0</ele>
        <time>2022-07-20T16:32:40Z</time>
      </trkpt>
      <trkpt lat="47.3384340" lon="6.8492850">
        <ele>700.0</ele>
        <time>2022-07-20T16:32:41Z</time>
      </trkpt>
      <trkpt lat="47.3384040" lon="6.8492870">
        <ele>700.1</ele>
        <time>2022-07-20T16:32:42Z</time>
      </trkpt>
      <trkpt lat="47.3383710" lon="6.8492900">
        <ele>700.2</ele>
        <time>2022-07-20T16:32:43Z</time>
      </trkpt>
      <trkpt lat="47.3383390" lon="6.8492970">
        <ele>700.3</ele>
        <time>2022-07-20T16:32:44Z</time>
      </trkpt>
      <trkpt lat="47.3382940" lon="6.8493060">
        <ele>700.4</ele>
        <time>2022-07-20T16:32:46Z</time>
      </trkpt>
      <trkpt lat="47.3382400" lon="6.8493130">
        <ele>700.5</ele>
        <time>2022-07-20T16:32:48Z</time>
      </trkpt>
      <trkpt lat="47.3382220" lon="6.8493180">
        <ele>700.6</ele>
        <time>2022-07-20T16:32:49Z</time>
      </trkpt>
      <trkpt lat="47.3382030" lon="6.8493220">
        <ele>700.6</ele>
        <time>2022-07-20T16:32:50Z</time>
      </trkpt>
      <trkpt lat="47.3381610" lon="6.8493230">
        <ele>700.7</ele>
        <time>2022-07-20T16:32:52Z</time>
      </trkpt>
      <trkpt lat="47.3381300" lon="6.8493200">
        <ele>700.8</ele>
        <time>2022-07-20T16:32:53Z</time>
      </trkpt>
      <trkpt lat="47.3380930" lon="6.8493260">
        <ele>700.9</ele>
        <time>2022-07-20T16:32:54Z</time>
      </trkpt>
      <trkpt lat="47.3380810" lon="6.8493300">
        <ele>701.0</ele>
        <time>2022-07-20T16:32:55Z</time>
      </trkpt>
      <trkpt lat="47.3380530" lon="6.8493340">
        <ele>701.0</ele>
        <time>2022-07-20T16:32:56Z</time>
      </trkpt>
      <trkpt lat="47.3380240" lon="6.8493340">
        <ele>701.1</ele>
        <time>2022-07-20T16:32:57Z</time>
      </trkpt>
      <trkpt lat="47.3379920" lon="6.8493410">
        <ele>701.2</ele>
        <time>2022-07-20T16:32:59Z</time>
      </trkpt>
      <trkpt lat="47.3379640" lon="6.8493540">
        <ele>701.3</ele>
        <time>2022-07-20T16:33:00Z</time>
      </trkpt>
      <trkpt lat="47.3379160" lon="6.8493780">
        <ele>701.5</ele>
        <time>2022-07-20T16:33:02Z</time>
      </trkpt>
      <trkpt lat="47.3378980" lon="6.8493870">
        <ele>701.6</ele>
        <time>2022-07-20T16:33:03Z</time>
      </trkpt>
      <trkpt lat="47.3378810" lon="6.8493950">
        <ele>701.7</ele>
        <time>2022-07-20T16:33:04Z</time>
      </trkpt>
      <trkpt lat="47.3378500" lon="6.8494080">
        <ele>701.8</ele>
        <time>2022-07-20T16:33:05Z</time>
      </trkpt>
      <trkpt lat="47.3378210" lon="6.8494170">
        <ele>701.9</ele>
        <time>2022-07-20T16:33:06Z</time>
      </trkpt>
      <trkpt lat="47.3377810" lon="6.8494280">
        <ele>702.1</ele>
        <time>2022-07-20T16:33:08Z</time>
      </trkpt>
      <trkpt lat="47.3377480" lon="6.8494320">
        <ele>702.3</ele>
        <time>2022-07-20T16:33:09Z</time>
      </trkpt>
      <trkpt lat="47.3377150" lon="6.8494380">
        <ele>702.4</ele>
        <time>2022-07-20T16:33:10Z</time>
      </trkpt>
      <trkpt lat="47.3377050" lon="6.8494400">
        <ele>702.5</ele>
        <time>2022-07-20T16:33:11Z</time>
      </trkpt>
      <trkpt lat="47.3376740" lon="6.8494500">
        <ele>702.7</ele>
        <time>2022-07-20T16:33:13Z</time>
      </trkpt>
      <trkpt lat="47.3376480" lon="6.8494630">
        <ele>702.8</ele>
        <time>2022-07-20T16:33:14Z</time>
      </trkpt>
      <trkpt lat="47.3376270" lon="6.8494740">
        <ele>703.0</ele>
        <time>2022-07-20T16:33:15Z</time>
      </trkpt>
      <trkpt lat="47.3376050" lon="6.8494860">
        <ele>703.1</ele>
        <time>2022-07-20T16:33:17Z</time>
      </trkpt>
      <trkpt lat="47.3375750" lon="6.8495090">
        <ele>703.3</ele>
        <time>2022-07-20T16:33:18Z</time>
      </trkpt>
      <trkpt lat="47.3375620" lon="6.8495170">
        <ele>703.4</ele>
        <time>2022-07-20T16:33:19Z</time>
      </trkpt>
      <trkpt lat="47.3375360" lon="6.8495370">
        <ele>703.6</ele>
        <time>2022-07-20T16:33:21Z</time>
      </trkpt>
      <trkpt lat="47.3375150" lon="6.8495520">
        <ele>703.8</ele>
        <time>2022-07-20T16:33:22Z</time>
      </trkpt>
      <trkpt lat="47.3375010" lon="6.8495570">
        <ele>703.9</ele>
        <time>2022-07-20T16:33:24Z</time>
      </trkpt>
      <trkpt lat="47.3374800" lon="6.8495740">
        <ele>704.1</ele>
        <time>2022-07-20T16:33:25Z</time>
      </trkpt>
      <trkpt lat="47.3374690" lon="6.8495820">
        <ele>704.1</ele>
        <time>2022-07-20T16:33:26Z</time>
      </trkpt>
      <trkpt lat="47.3374580" lon="6.8495910">
        <ele>704.2</ele>
        <time>2022-07-20T16:33:27Z</time>
      </trkpt>
      <trkpt lat="47.3374320" lon="6.8496060">
        <ele>704.4</ele>
        <time>2022-07-20T16:33:28Z</time>
      </trkpt>
      <trkpt lat="47.3374240" lon="6.8496110">
        <ele>704.5</ele>
        <time>2022-07-20T16:33:29Z</time>
      </trkpt>
      <trkpt lat="47.3373980" lon="6.8496210">
        <ele>704.7</ele>
        <time>2022-07-20T16:33:30Z</time>
      </trkpt>
      <trkpt lat="47.3373880" lon="6.8496230">
        <ele>704.8</ele>
        <time>2022-07-20T16:33:31Z</time>
      </trkpt>
      <trkpt lat="47.3373670" lon="6.8496260">
        <ele>704.9</ele>
        <time>2022-07-20T16:33:32Z</time>
      </trkpt>
      <trkpt lat="47.3373390" lon="6.8496350">
        <ele>705.1</ele>
        <time>2022-07-20T16:33:34Z</time>
      </trkpt>
      <trkpt lat="47.3373220" lon="6.8496410">
        <ele>705.3</ele>
        <time>2022-07-20T16:33:35Z</time>
      </trkpt>
      <trkpt lat="47.3373060" lon="6.8496490">
        <ele>705.4</ele>
        <time>2022-07-20T16:33:36Z</time>
      </trkpt>
      <trkpt lat="47.3372860" lon="6.8496580">
        <ele>705.5</ele>
        <time>2022-07-20T16:33:37Z</time>
      </trkpt>
      <trkpt lat="47.3372590" lon="6.8496660">
        <ele>705.7</ele>
        <time>2022-07-20T16:33:39Z</time>
      </trkpt>
      <trkpt lat="47.3372260" lon="6.8496670">
        <ele>706.0</ele>
        <time>2022-07-20T16:33:40Z</time>
      </trkpt>
      <trkpt lat="47.3372150" lon="6.8496670">
        <ele>706.0</ele>
        <time>2022-07-20T16:33:41Z</time>
      </trkpt>
      <trkpt lat="47.3371870" lon="6.8496740">
        <ele>706.2</ele>
        <time>2022-07-20T16:33:42Z</time>
      </trkpt>
      <trkpt lat="47.3371770" lon="6.8496790">
        <ele>706.3</ele>
        <time>2022-07-20T16:33:43Z</time>
      </trkpt>
      <trkpt lat="47.3371380" lon="6.8496960">
        <ele>706.6</ele>
        <time>2022-07-20T16:33:45Z</time>
      </trkpt>
      <trkpt lat="47.3371260" lon="6.8497060">
        <ele>706.7</ele>
        <time>2022-07-20T16:33:46Z</time>
      </trkpt>
      <trkpt lat="47.3371150" lon="6.8497160">
        <ele>706.8</ele>
        <time>2022-07-20T16:33:47Z</time>
      </trkpt>
      <trkpt lat="47.3370890" lon="6.8497340">
        <ele>707.0</ele>
        <time>2022-07-20T16:33:49Z</time>
      </trkpt>
      <trkpt lat="47.3370800" lon="6.8497360">
        <ele>707.1</ele>
        <time>2022-07-20T16:33:50Z</time>
      </trkpt>
      <trkpt lat="47.3370650" lon="6.8497550">
        <ele>707.2</ele>
        <time>2022-07-20T16:33:51Z</time>
      </trkpt>
      <trkpt lat="47.3370370" lon="6.8497770">
        <ele>707.4</ele>
        <time>2022-07-20T16:33:53Z</time>
      </trkpt>
      <trkpt lat="47.3370130" lon="6.8497930">
        <ele>707.6</ele>
        <time>2022-07-20T16:33:54Z</time>
      </trkpt>
      <trkpt lat="47.3370030" lon="6.8497990">
        <ele>707.7</ele>
        <time>2022-07-20T16:33:55Z</time>
      </trkpt>
      <trkpt lat="47.3369730" lon="6.8498250">
        <ele>707.9</ele>
        <time>2022-07-20T16:33:56Z</time>
      </trkpt>
      <trkpt lat="47.3369610" lon="6.8498350">
        <ele>708.0</ele>
        <time>2022-07-20T16:33:57Z</time>
      </trkpt>
      <trkpt lat="47.3369360" lon="6.8498620">
        <ele>708.2</ele>
        <time>2022-07-20T16:33:59Z</time>
      </trkpt>
      <trkpt lat="47.3369240" lon="6.8498740">
        <ele>708.3</ele>
        <time>2022-07-20T16:34:00Z</time>
      </trkpt>
      <trkpt lat="47.3369110" lon="6.8498970">
        <ele>708.4</ele>
        <time>2022-07-20T16:34:01Z</time>
      </trkpt>
      <trkpt lat="47.3369020" lon="6.8499160">
        <ele>708.6</ele>
        <time>2022-07-20T16:34:02Z</time>
      </trkpt>
      <trkpt lat="47.3368900" lon="6.8499370">
        <ele>708.7</ele>
        <time>2022-07-20T16:34:03Z</time>
      </trkpt>
      <trkpt lat="47.3368780" lon="6.8499570">
        <ele>708.8</ele>
        <time>2022-07-20T16:34:05Z</time>
      </trkpt>
      <trkpt lat="47.3368560" lon="6.8499950">
        <ele>709.1</ele>
        <time>2022-07-20T16:34:06Z</time>
      </trkpt>
      <trkpt lat="47.3368490" lon="6.8500030">
        <ele>709.1</ele>
        <time>2022-07-20T16:34:07Z</time>
      </trkpt>
      <trkpt lat="47.3368370" lon="6.8500190">
        <ele>709.2</ele>
        <time>2022-07-20T16:34:08Z</time>
      </trkpt>
      <trkpt lat="47.3368260" lon="6.8500350">
        <ele>709.4</ele>
        <time>2022-07-20T16:34:09Z</time>
      </trkpt>
      <trkpt lat="47.3368180" lon="6.8500450">
        <ele>709.4</ele>
        <time>2022-07-20T16:34:10Z</time>
      </trkpt>
      <trkpt lat="47.3368060" lon="6.8500610">
        <ele>709.6</ele>
        <time>2022-07-20T16:34:11Z</time>
      </trkpt>
      <trkpt lat="47.3367900" lon="6.8500810">
        <ele>709.7</ele>
        <time>2022-07-20T16:34:13Z</time>
      </trkpt>
      <trkpt lat="47.3367860" lon="6.8500920">
        <ele>709.8</ele>
        <time>2022-07-20T16:34:14Z</time>
      </trkpt>
      <trkpt lat="47.3367810" lon="6.8501040">
        <ele>709.8</ele>
        <time>2022-07-20T16:34:15Z</time>
      </trkpt>
      <trkpt lat="47.3367750" lon="6.8501190">
        <ele>709.9</ele>
        <time>2022-07-20T16:34:16Z</time>
      </trkpt>
      <trkpt lat="47.3367620" lon="6.8501290">
        <ele>710.0</ele>
        <time>2022-07-20T16:34:17Z</time>
      </trkpt>
      <trkpt lat="47.3367500" lon="6.8501390">
        <ele>710.1</ele>
        <time>2022-07-20T16:34:18Z</time>
      </trkpt>
      <trkpt lat="47.3367380" lon="6.8501480">
        <ele>710.2</ele>
        <time>2022-07-20T16:34:19Z</time>
      </trkpt>
      <trkpt lat="47.3367260" lon="6.8501610">
        <ele>710.3</ele>
        <time>2022-07-20T16:34:20Z</time>
      </trkpt>
      <trkpt lat="47.3367180" lon="6.8501710">
        <ele>710.4</ele>
        <time>2022-07-20T16:34:21Z</time>
      </trkpt>
      <trkpt lat="47.3367080" lon="6.8501930">
        <ele>710.5</ele>
        <time>2022-07-20T16:34:22Z</time>
      </trkpt>
      <trkpt lat="47.3366940" lon="6.8502160">
        <ele>710.7</ele>
        <time>2022-07-20T16:34:23Z</time>
      </trkpt>
      <trkpt lat="47.3366870" lon="6.8502230">
        <ele>710.7</ele>
        <time>2022-07-20T16:34:24Z</time>
      </trkpt>
      <trkpt lat="47.3366800" lon="6.8502310">
        <ele>710.8</ele>
        <time>2022-07-20T16:34:25Z</time>
      </trkpt>
      <trkpt lat="47.3366720" lon="6.8502460">
        <ele>710.9</ele>
        <time>2022-07-20T16:34:26Z</time>
      </trkpt>
      <trkpt lat="47.3366650" lon="6.8502580">
        <ele>710.9</ele>
        <time>2022-07-20T16:34:27Z</time>
      </trkpt>
      <trkpt lat="47.3366560" lon="6.8502790">
        <ele>711.0</ele>
        <time>2022-07-20T16:34:29Z</time>
      </trkpt>
      <trkpt lat="47.3366430" lon="6.8502950">
        <ele>711.2</ele>
        <time>2022-07-20T16:34:30Z</time>
      </trkpt>
      <trkpt lat="47.3366320" lon="6.8503030">
        <ele>711.2</ele>
        <time>2022-07-20T16:34:31Z</time>
      </trkpt>
      <trkpt lat="47.3366040" lon="6.8503220">
        <ele>711.5</ele>
        <time>2022-07-20T16:34:33Z</time>
      </trkpt>
      <trkpt lat="47.3365970" lon="6.8503300">
        <ele>711.5</ele>
        <time>2022-07-20T16:34:34Z</time>
      </trkpt>
      <trkpt lat="47.3365750" lon="6.8503550">
        <ele>711.7</ele>
        <time>2022-07-20T16:34:35Z</time>
      </trkpt>
      <trkpt lat="47.3365650" lon="6.8503620">
        <ele>711.8</ele>
        <time>2022-07-20T16:34:36Z</time>
      </trkpt>
      <trkpt lat="47.3365550" lon="6.8503700">
        <ele>711.8</ele>
        <time>2022-07-20T16:34:37Z</time>
      </trkpt>
      <trkpt lat="47.3365210" lon="6.8503860">
        <ele>712.1</ele>
        <time>2022-07-20T16:34:38Z</time>
      </trkpt>
      <trkpt lat="47.3365090" lon="6.8503910">
        <ele>712.2</ele>
        <time>2022-07-20T16:34:39Z</time>
      </trkpt>
      <trkpt lat="47.3364740" lon="6.8504060">
        <ele>712.4</ele>
        <time>2022-07-20T16:34:40Z</time>
      </trkpt>
      <trkpt lat="47.3364400" lon="6.8504200">
        <ele>712.6</ele>
        <time>2022-07-20T16:34:42Z</time>
      </trkpt>
      <trkpt lat="47.3364120" lon="6.8504300">
        <ele>712.7</ele>
        <time>2022-07-20T16:34:43Z</time>
      </trkpt>
      <trkpt lat="47.3363610" lon="6.8504430">
        <ele>713.0</ele>
        <time>2022-07-20T16:34:45Z</time>
      </trkpt>
      <trkpt lat="47.3363320" lon="6.8504560">
        <ele>713.1</ele>
        <time>2022-07-20T16:34:46Z</time>
      </trkpt>
      <trkpt lat="47.3363060" lon="6.8504660">
        <ele>713.3</ele>
        <time>2022-07-20T16:34:47Z</time>
      </trkpt>
      <trkpt lat="47.3362690" lon="6.8504790">
        <ele>713.4</ele>
        <time>2022-07-20T16:34:48Z</time>
      </trkpt>
      <trkpt lat="47.3362070" lon="6.8505020">
        <ele>713.7</ele>
        <time>2022-07-20T16:34:50Z</time>
      </trkpt>
      <trkpt lat="47.3361650" lon="6.8505120">
        <ele>713.8</ele>
        <time>2022-07-20T16:34:52Z</time>
      </trkpt>
      <trkpt lat="47.3361290" lon="6.8505150">
        <ele>713.9</ele>
        <time>2022-07-20T16:34:53Z</time>
      </trkpt>
      <trkpt lat="47.3360940" lon="6.8505200">
        <ele>714.0</ele>
        <time>2022-07-20T16:34:55Z</time>
      </trkpt>
      <trkpt lat="47.3360630" lon="6.8505350">
        <ele>714.1</ele>
        <time>2022-07-20T16:34:56Z</time>
      </trkpt>
      <trkpt lat="47.3360520" lon="6.8505390">
        <ele>714.2</ele>
        <time>2022-07-20T16:34:57Z</time>
      </trkpt>
      <trkpt lat="47.3360130" lon="6.8505520">
        <ele>714.3</ele>
        <time>2022-07-20T16:34:58Z</time>
      </trkpt>
      <trkpt lat="47.3359940" lon="6.8505600">
        <ele>714.3</ele>
        <time>2022-07-20T16:34:59Z</time>
      </trkpt>
      <trkpt lat="47.3359470" lon="6.8505790">
        <ele>714.5</ele>
        <time>2022-07-20T16:35:01Z</time>
      </trkpt>
      <trkpt lat="47.3359320" lon="6.8505860">
        <ele>714.5</ele>
        <time>2022-07-20T16:35:02Z</time>
      </trkpt>
      <trkpt lat="47.3359180" lon="6.8505930">
        <ele>714.6</ele>
        <time>2022-07-20T16:35:03Z</time>
      </trkpt>
      <trkpt lat="47.3358890" lon="6.8506180">
        <ele>714.7</ele>
        <time>2022-07-20T16:35:04Z</time>
      </trkpt>
      <trkpt lat="47.3358800" lon="6.8506260">
        <ele>714.7</ele>
        <time>2022-07-20T16:35:05Z</time>
      </trkpt>
      <trkpt lat="47.3358550" lon="6.8506530">
        <ele>714.8</ele>
        <time>2022-07-20T16:35:06Z</time>
      </trkpt>
      <trkpt lat="47.3358360" lon="6.8506830">
        <ele>714.8</ele>
        <time>2022-07-20T16:35:08Z</time>
      </trkpt>
      <trkpt lat="47.3358290" lon="6.8507010">
        <ele>714.9</ele>
        <time>2022-07-20T16:35:09Z</time>
      </trkpt>
      <trkpt lat="47.3358130" lon="6.8507570">
        <ele>714.9</ele>
        <time>2022-07-20T16:35:10Z</time>
      </trkpt>
      <trkpt lat="47.3358070" lon="6.8507770">
        <ele>715.0</ele>
        <time>2022-07-20T16:35:11Z</time>
      </trkpt>
      <trkpt lat="47.3357910" lon="6.8508340">
        <ele>715.0</ele>
        <time>2022-07-20T16:35:13Z</time>
      </trkpt>
      <trkpt lat="47.3357760" lon="6.8508950">
        <ele>715.0</ele>
        <time>2022-07-20T16:35:14Z</time>
      </trkpt>
      <trkpt lat="47.3357640" lon="6.8509350">
        <ele>715.0</ele>
        <time>2022-07-20T16:35:15Z</time>
      </trkpt>
      <trkpt lat="47.3357470" lon="6.8509690">
        <ele>715.0</ele>
        <time>2022-07-20T16:35:16Z</time>
      </trkpt>
      <trkpt lat="47.3357190" lon="6.8510120">
        <ele>715.0</ele>
        <time>2022-07-20T16:35:18Z</time>
      </trkpt>
      <trkpt lat="47.3356840" lon="6.8510510">
        <ele>714.9</ele>
        <time>2022-07-20T16:35:19Z</time>
      </trkpt>
      <trkpt lat="47.3356520" lon="6.8510860">
        <ele>714.8</ele>
        <time>2022-07-20T16:35:20Z</time>
      </trkpt>
      <trkpt lat="47.3356120" lon="6.8511240">
        <ele>714.7</ele>
        <time>2022-07-20T16:35:21Z</time>
      </trkpt>
      <trkpt lat="47.3355720" lon="6.8511600">
        <ele>714.6</ele>
        <time>2022-07-20T16:35:22Z</time>
      </trkpt>
      <trkpt lat="47.3355250" lon="6.8511930">
        <ele>714.6</ele>
        <time>2022-07-20T16:35:24Z</time>
      </trkpt>
      <trkpt lat="47.3354880" lon="6.8512140">
        <ele>714.5</ele>
        <time>2022-07-20T16:35:25Z</time>
      </trkpt>
      <trkpt lat="47.3354360" lon="6.8512420">
        <ele>714.4</ele>
        <time>2022-07-20T16:35:26Z</time>
      </trkpt>
      <trkpt lat="47.3354090" lon="6.8512610">
        <ele>714.2</ele>
        <time>2022-07-20T16:35:27Z</time>
      </trkpt>
      <trkpt lat="47.3353790" lon="6.8512890">
        <ele>713.8</ele>
        <time>2022-07-20T16:35:28Z</time>
      </trkpt>
      <trkpt lat="47.3353430" lon="6.8513280">
        <ele>713.4</ele>
        <time>2022-07-20T16:35:30Z</time>
      </trkpt>
      <trkpt lat="47.3353150" lon="6.8513630">
        <ele>713.0</ele>
        <time>2022-07-20T16:35:31Z</time>
      </trkpt>
      <trkpt lat="47.3352820" lon="6.8514030">
        <ele>712.6</ele>
        <time>2022-07-20T16:35:33Z</time>
      </trkpt>
      <trkpt lat="47.3352700" lon="6.8514190">
        <ele>712.4</ele>
        <time>2022-07-20T16:35:34Z</time>
      </trkpt>
      <trkpt lat="47.3352550" lon="6.8514550">
        <ele>712.1</ele>
        <time>2022-07-20T16:35:35Z</time>
      </trkpt>
      <trkpt lat="47.3352440" lon="6.8514980">
        <ele>711.7</ele>
        <time>2022-07-20T16:35:36Z</time>
      </trkpt>
      <trkpt lat="47.3352310" lon="6.8515950">
        <ele>710.8</ele>
        <time>2022-07-20T16:35:37Z</time>
      </trkpt>
      <trkpt lat="47.3351790" lon="6.8518030">
        <ele>708.8</ele>
        <time>2022-07-20T16:35:39Z</time>
      </trkpt>
      <trkpt lat="47.3351720" lon="6.8518420">
        <ele>708.4</ele>
        <time>2022-07-20T16:35:40Z</time>
      </trkpt>
      <trkpt lat="47.3350310" lon="6.8519230">
        <ele>706.4</ele>
        <time>2022-07-20T16:35:42Z</time>
      </trkpt>
      <trkpt lat="47.3349710" lon="6.8519400">
        <ele>705.6</ele>
        <time>2022-07-20T16:35:43Z</time>
      </trkpt>
      <trkpt lat="47.3349100" lon="6.8519400">
        <ele>704.8</ele>
        <time>2022-07-20T16:35:44Z</time>
      </trkpt>
      <trkpt lat="47.3348480" lon="6.8519030">
        <ele>704.0</ele>
        <time>2022-07-20T16:35:45Z</time>
      </trkpt>
      <trkpt lat="47.3347970" lon="6.8518690">
        <ele>703.3</ele>
        <time>2022-07-20T16:35:46Z</time>
      </trkpt>
      <trkpt lat="47.3347350" lon="6.8518210">
        <ele>702.5</ele>
        <time>2022-07-20T16:35:47Z</time>
      </trkpt>
      <trkpt lat="47.3346650" lon="6.8517580">
        <ele>701.6</ele>
        <time>2022-07-20T16:35:48Z</time>
      </trkpt>
      <trkpt lat="47.3345960" lon="6.8516990">
        <ele>700.9</ele>
        <time>2022-07-20T16:35:49Z</time>
      </trkpt>
      <trkpt lat="47.3345250" lon="6.8516540">
        <ele>700.2</ele>
        <time>2022-07-20T16:35:50Z</time>
      </trkpt>
      <trkpt lat="47.3344640" lon="6.8515960">
        <ele>699.6</ele>
        <time>2022-07-20T16:35:51Z</time>
      </trkpt>
      <trkpt lat="47.3344090" lon="6.8515390">
        <ele>698.9</ele>
        <time>2022-07-20T16:35:52Z</time>
      </trkpt>
      <trkpt lat="47.3343390" lon="6.8514800">
        <ele>698.1</ele>
        <time>2022-07-20T16:35:53Z</time>
      </trkpt>
      <trkpt lat="47.3342690" lon="6.8514150">
        <ele>697.2</ele>
        <time>2022-07-20T16:35:54Z</time>
      </trkpt>
      <trkpt lat="47.3342020" lon="6.8513620">
        <ele>696.3</ele>
        <time>2022-07-20T16:35:55Z</time>
      </trkpt>
      <trkpt lat="47.3341300" lon="6.8513290">
        <ele>695.4</ele>
        <time>2022-07-20T16:35:56Z</time>
      </trkpt>
      <trkpt lat="47.3340570" lon="6.8513090">
        <ele>694.6</ele>
        <time>2022-07-20T16:35:57Z</time>
      </trkpt>
      <trkpt lat="47.3339950" lon="6.8512780">
        <ele>693.8</ele>
        <time>2022-07-20T16:35:58Z</time>
      </trkpt>
      <trkpt lat="47.3339350" lon="6.8512350">
        <ele>693.0</ele>
        <time>2022-07-20T16:35:59Z</time>
      </trkpt>
      <trkpt lat="47.3338640" lon="6.8512030">
        <ele>692.1</ele>
        <time>2022-07-20T16:36:00Z</time>
      </trkpt>
      <trkpt lat="47.3337910" lon="6.8511780">
        <ele>691.2</ele>
        <time>2022-07-20T16:36:01Z</time>
      </trkpt>
      <trkpt lat="47.3337260" lon="6.8511460">
        <ele>690.3</ele>
        <time>2022-07-20T16:36:02Z</time>
      </trkpt>
      <trkpt lat="47.3336600" lon="6.8511240">
        <ele>689.5</ele>
        <time>2022-07-20T16:36:03Z</time>
      </trkpt>
      <trkpt lat="47.3335840" lon="6.8511110">
        <ele>688.6</ele>
        <time>2022-07-20T16:36:04Z</time>
      </trkpt>
      <trkpt lat="47.3335130" lon="6.8511060">
        <ele>687.7</ele>
        <time>2022-07-20T16:36:05Z</time>
      </trkpt>
      <trkpt lat="47.3334770" lon="6.8511010">
        <ele>687.2</ele>
        <time>2022-07-20T16:36:06Z</time>
      </trkpt>
      <trkpt lat="47.3334260" lon="6.8510790">
        <ele>686.5</ele>
        <time>2022-07-20T16:36:07Z</time>
      </trkpt>
      <trkpt lat="47.3333690" lon="6.8510210">
        <ele>685.7</ele>
        <time>2022-07-20T16:36:08Z</time>
      </trkpt>
      <trkpt lat="47.3333150" lon="6.8509490">
        <ele>684.7</ele>
        <time>2022-07-20T16:36:09Z</time>
      </trkpt>
      <trkpt lat="47.3332670" lon="6.8508930">
        <ele>684.0</ele>
        <time>2022-07-20T16:36:10Z</time>
      </trkpt>
      <trkpt lat="47.3332030" lon="6.8508550">
        <ele>683.1</ele>
        <time>2022-07-20T16:36:11Z</time>
      </trkpt>
      <trkpt lat="47.3331160" lon="6.8508220">
        <ele>681.9</ele>
        <time>2022-07-20T16:36:12Z</time>
      </trkpt>
      <trkpt lat="47.3330290" lon="6.8507800">
        <ele>680.7</ele>
        <time>2022-07-20T16:36:13Z</time>
      </trkpt>
      <trkpt lat="47.3329480" lon="6.8507240">
        <ele>679.6</ele>
        <time>2022-07-20T16:36:14Z</time>
      </trkpt>
      <trkpt lat="47.3328690" lon="6.8506630">
        <ele>678.5</ele>
        <time>2022-07-20T16:36:15Z</time>
      </trkpt>
      <trkpt lat="47.3327970" lon="6.8506050">
        <ele>677.6</ele>
        <time>2022-07-20T16:36:16Z</time>
      </trkpt>
      <trkpt lat="47.3327290" lon="6.8505630">
        <ele>676.8</ele>
        <time>2022-07-20T16:36:17Z</time>
      </trkpt>
      <trkpt lat="47.3326770" lon="6.8505380">
        <ele>676.2</ele>
        <time>2022-07-20T16:36:18Z</time>
      </trkpt>
      <trkpt lat="47.3326410" lon="6.8505470">
        <ele>675.8</ele>
        <time>2022-07-20T16:36:19Z</time>
      </trkpt>
      <trkpt lat="47.3326090" lon="6.8505360">
        <ele>675.4</ele>
        <time>2022-07-20T16:36:20Z</time>
      </trkpt>
      <trkpt lat="47.3325960" lon="6.8505210">
        <ele>675.2</ele>
        <time>2022-07-20T16:36:21Z</time>
      </trkpt>
      <trkpt lat="47.3325700" lon="6.8505050">
        <ele>674.9</ele>
        <time>2022-07-20T16:36:23Z</time>
      </trkpt>
      <trkpt lat="47.3325510" lon="6.8505080">
        <ele>674.7</ele>
        <time>2022-07-20T16:36:24Z</time>
      </trkpt>
      <trkpt lat="47.3325430" lon="6.8505000">
        <ele>674.6</ele>
        <time>2022-07-20T16:36:25Z</time>
      </trkpt>
      <trkpt lat="47.3325270" lon="6.8504510">
        <ele>674.2</ele>
        <time>2022-07-20T16:36:26Z</time>
      </trkpt>
      <trkpt lat="47.3325230" lon="6.8504350">
        <ele>674.0</ele>
        <time>2022-07-20T16:36:27Z</time>
      </trkpt>
      <trkpt lat="47.3325200" lon="6.8504130">
        <ele>673.9</ele>
        <time>2022-07-20T16:36:28Z</time>
      </trkpt>
      <trkpt lat="47.3325190" lon="6.8504000">
        <ele>673.8</ele>
        <time>2022-07-20T16:36:29Z</time>
      </trkpt>
      <trkpt lat="47.3325180" lon="6.8503900">
        <ele>673.7</ele>
        <time>2022-07-20T16:36:30Z</time>
      </trkpt>
      <trkpt lat="47.3325160" lon="6.8503810">
        <ele>673.6</ele>
        <time>2022-07-20T16:36:31Z</time>
      </trkpt>
      <trkpt lat="47.3325160" lon="6.8503780">
        <ele>673.6</ele>
        <time>2022-07-20T16:36:32Z</time>
      </trkpt>
      <trkpt lat="47.3325150" lon="6.8503750">
        <ele>673.5</ele>
        <time>2022-07-20T16:36:33Z</time>
      </trkpt>
      <trkpt lat="47.3325140" lon="6.8503720">
        <ele>673.5</ele>
        <time>2022-07-20T16:36:34Z</time>
      </trkpt>
      <trkpt lat="47.3325130" lon="6.8503690">
        <ele>673.5</ele>
        <time>2022-07-20T16:36:35Z</time>
      </trkpt>
      <trkpt lat="47.3325120" lon="6.8503660">
        <ele>673.5</ele>
        <time>2022-07-20T16:36:36Z</time>
      </trkpt>
      <trkpt lat="47.3324820" lon="6.8503220">
        <ele>673.0</ele>
        <time>2022-07-20T16:37:17Z</time>
      </trkpt>
      <trkpt lat="47.3324820" lon="6.8503130">
        <ele>672.9</ele>
        <time>2022-07-20T16:37:18Z</time>
      </trkpt>
      <trkpt lat="47.3324830" lon="6.8502990">
        <ele>672.8</ele>
        <time>2022-07-20T16:37:19Z</time>
      </trkpt>
      <trkpt lat="47.3324830" lon="6.8502860">
        <ele>672.7</ele>
        <time>2022-07-20T16:37:20Z</time>
      </trkpt>
      <trkpt lat="47.3324820" lon="6.8502770">
        <ele>672.6</ele>
        <time>2022-07-20T16:37:21Z</time>
      </trkpt>
      <trkpt lat="47.3324800" lon="6.8502710">
        <ele>672.6</ele>
        <time>2022-07-20T16:37:22Z</time>
      </trkpt>
      <trkpt lat="47.3324770" lon="6.8502670">
        <ele>672.6</ele>
        <time>2022-07-20T16:37:23Z</time>
      </trkpt>
      <trkpt lat="47.3324740" lon="6.8502630">
        <ele>672.5</ele>
        <time>2022-07-20T16:37:24Z</time>
      </trkpt>
      <trkpt lat="47.3324720" lon="6.8502590">
        <ele>672.5</ele>
        <time>2022-07-20T16:37:25Z</time>
      </trkpt>
      <trkpt lat="47.3324710" lon="6.8502570">
        <ele>672.5</ele>
        <time>2022-07-20T16:37:26Z</time>
      </trkpt>
      <trkpt lat="47.3324700" lon="6.8502560">
        <ele>672.5</ele>
        <time>2022-07-20T16:37:27Z</time>
      </trkpt>
      <trkpt lat="47.3324700" lon="6.8502550">
        <ele>672.5</ele>
        <time>2022-07-20T16:37:28Z</time>
      </trkpt>
      <trkpt lat="47.3324700" lon="6.8502550">
        <ele>672.5</ele>
        <time>2022-07-20T16:37:29Z</time>
      </trkpt>
      <trkpt lat="47.3324690" lon="6.8502540">
        <ele>672.4</ele>
        <time>2022-07-20T16:37:30Z</time>
      </trkpt>
      <trkpt lat="47.3324690" lon="6.8502550">
        <ele>672.4</ele>
        <time>2022-07-20T16:37:31Z</time>
      </trkpt>
      <trkpt lat="47.3324690" lon="6.8502550">
        <ele>672.4</ele>
        <time>2022-07-20T16:37:32Z</time>
      </trkpt>
      <trkpt lat="47.3324690" lon="6.8502550">
        <ele>672.4</ele>
        <time>2022-07-20T16:37:33Z</time>
      </trkpt>
      <trkpt lat="47.3324680" lon="6.8502550">
        <ele>672.4</ele>
        <time>2022-07-20T16:37:34Z</time>
      </trkpt>
      <trkpt lat="47.3324680" lon="6.8502550">
        <ele>672.4</ele>
        <time>2022-07-20T16:37:35Z</time>
      </trkpt>
      <trkpt lat="47.3324690" lon="6.8502550">
        <ele>672.4</ele>
        <time>2022-07-20T16:37:36Z</time>
      </trkpt>
      <trkpt lat="47.3324880" lon="6.8502540">
        <ele>672.2</ele>
        <time>2022-07-20T16:38:37Z</time>
      </trkpt>
      <trkpt lat="47.3324900" lon="6.8502550">
        <ele>672.2</ele>
        <time>2022-07-20T16:38:38Z</time>
      </trkpt>
      <trkpt lat="47.3324900" lon="6.8502550">
        <ele>672.2</ele>
        <time>2022-07-20T16:38:39Z</time>
      </trkpt>
      <trkpt lat="47.3324900" lon="6.8502540">
        <ele>672.2</ele>
        <time>2022-07-20T16:38:40Z</time>
      </trkpt>
      <trkpt lat="47.3324850" lon="6.8502500">
        <ele>672.2</ele>
        <time>2022-07-20T16:38:41Z</time>
      </trkpt>
      <trkpt lat="47.3324850" lon="6.8502480">
        <ele>672.2</ele>
        <time>2022-07-20T16:38:42Z</time>
      </trkpt>
      <trkpt lat="47.3324750" lon="6.8502380">
        <ele>672.0</ele>
        <time>2022-07-20T16:38:43Z</time>
      </trkpt>
      <trkpt lat="47.3324430" lon="6.8502020">
        <ele>671.7</ele>
        <time>2022-07-20T16:38:45Z</time>
      </trkpt>
      <trkpt lat="47.3324150" lon="6.8501660">
        <ele>671.4</ele>
        <time>2022-07-20T16:38:46Z</time>
      </trkpt>
      <trkpt lat="47.3323840" lon="6.8501250">
        <ele>671.1</ele>
        <time>2022-07-20T16:38:47Z</time>
      </trkpt>
      <trkpt lat="47.3322940" lon="6.8500220">
        <ele>670.3</ele>
        <time>2022-07-20T16:38:49Z</time>
      </trkpt>
      <trkpt lat="47.3322530" lon="6.8499730">
        <ele>670.0</ele>
        <time>2022-07-20T16:38:50Z</time>
      </trkpt>
      <trkpt lat="47.3322390" lon="6.8499230">
        <ele>669.7</ele>
        <time>2022-07-20T16:38:51Z</time>
      </trkpt>
      <trkpt lat="47.3322370" lon="6.8499060">
        <ele>669.7</ele>
        <time>2022-07-20T16:38:52Z</time>
      </trkpt>
      <trkpt lat="47.3322070" lon="6.8498670">
        <ele>669.4</ele>
        <time>2022-07-20T16:38:53Z</time>
      </trkpt>
      <trkpt lat="47.3321560" lon="6.8497900">
        <ele>669.0</ele>
        <time>2022-07-20T16:38:55Z</time>
      </trkpt>
      <trkpt lat="47.3321250" lon="6.8497330">
        <ele>668.6</ele>
        <time>2022-07-20T16:38:56Z</time>
      </trkpt>
      <trkpt lat="47.3320940" lon="6.8496810">
        <ele>668.3</ele>
        <time>2022-07-20T16:38:57Z</time>
      </trkpt>
      <trkpt lat="47.3320580" lon="6.8496540">
        <ele>668.1</ele>
        <time>2022-07-20T16:38:58Z</time>
      </trkpt>
      <trkpt lat="47.3320160" lon="6.8496540">
        <ele>667.8</ele>
        <time>2022-07-20T16:38:59Z</time>
      </trkpt>
      <trkpt lat="47.3319770" lon="6.8496740">
        <ele>667.5</ele>
        <time>2022-07-20T16:39:00Z</time>
      </trkpt>
      <trkpt lat="47.3319460" lon="6.8497200">
        <ele>667.2</ele>
        <time>2022-07-20T16:39:01Z</time>
      </trkpt>
      <trkpt lat="47.3319190" lon="6.8498030">
        <ele>666.8</ele>
        <time>2022-07-20T16:39:03Z</time>
      </trkpt>
      <trkpt lat="47.3319190" lon="6.8498450">
        <ele>666.6</ele>
        <time>2022-07-20T16:39:04Z</time>
      </trkpt>
      <trkpt lat="47.3319230" lon="6.8498850">
        <ele>666.5</ele>
        <time>2022-07-20T16:39:05Z</time>
      </trkpt>
      <trkpt lat="47.3319330" lon="6.8499300">
        <ele>666.2</ele>
        <time>2022-07-20T16:39:06Z</time>
      </trkpt>
      <trkpt lat="47.3319600" lon="6.8499760">
        <ele>666.0</ele>
        <time>2022-07-20T16:39:07Z</time>
      </trkpt>
      <trkpt lat="47.3319890" lon="6.8500260">
        <ele>665.6</ele>
        <time>2022-07-20T16:39:08Z</time>
      </trkpt>
      <trkpt lat="47.3320410" lon="6.8500830">
        <ele>665.2</ele>
        <time>2022-07-20T16:39:09Z</time>
      </trkpt>
      <trkpt lat="47.3320690" lon="6.8501430">
        <ele>664.9</ele>
        <time>2022-07-20T16:39:10Z</time>
      </trkpt>
      <trkpt lat="47.3320970" lon="6.8502080">
        <ele>664.5</ele>
        <time>2022-07-20T16:39:11Z</time>
      </trkpt>
      <trkpt lat="47.3321210" lon="6.8502710">
        <ele>664.1</ele>
        <time>2022-07-20T16:39:12Z</time>
      </trkpt>
      <trkpt lat="47.3321460" lon="6.8503300">
        <ele>663.7</ele>
        <time>2022-07-20T16:39:13Z</time>
      </trkpt>
      <trkpt lat="47.3321680" lon="6.8503680">
        <ele>663.4</ele>
        <time>2022-07-20T16:39:14Z</time>
      </trkpt>
      <trkpt lat="47.3321880" lon="6.8504470">
        <ele>662.9</ele>
        <time>2022-07-20T16:39:16Z</time>
      </trkpt>
      <trkpt lat="47.3321780" lon="6.8504970">
        <ele>662.5</ele>
        <time>2022-07-20T16:39:17Z</time>
      </trkpt>
      <trkpt lat="47.3321320" lon="6.8505530">
        <ele>662.0</ele>
        <time>2022-07-20T16:39:18Z</time>
      </trkpt>
      <trkpt lat="47.3321050" lon="6.8505810">
        <ele>661.6</ele>
        <time>2022-07-20T16:39:19Z</time>
      </trkpt>
      <trkpt lat="47.3320900" lon="6.8506170">
        <ele>661.4</ele>
        <time>2022-07-20T16:39:20Z</time>
      </trkpt>
      <trkpt lat="47.3320600" lon="6.8506290">
        <ele>661.1</ele>
        <time>2022-07-20T16:39:22Z</time>
      </trkpt>
      <trkpt lat="47.3320510" lon="6.8506190">
        <ele>661.0</ele>
        <time>2022-07-20T16:39:23Z</time>
      </trkpt>
      <trkpt lat="47.3320260" lon="6.8505990">
        <ele>660.7</ele>
        <time>2022-07-20T16:39:24Z</time>
      </trkpt>
      <trkpt lat="47.3320030" lon="6.8505750">
        <ele>660.4</ele>
        <time>2022-07-20T16:39:25Z</time>
      </trkpt>
      <trkpt lat="47.3319650" lon="6.8505550">
        <ele>660.1</ele>
        <time>2022-07-20T16:39:26Z</time>
      </trkpt>
      <trkpt lat="47.3319490" lon="6.8505510">
        <ele>659.9</ele>
        <time>2022-07-20T16:39:27Z</time>
      </trkpt>
      <trkpt lat="47.3319080" lon="6.8505470">
        <ele>659.5</ele>
        <time>2022-07-20T16:39:28Z</time>
      </trkpt>
      <trkpt lat="47.3318670" lon="6.8505430">
        <ele>659.1</ele>
        <time>2022-07-20T16:39:29Z</time>
      </trkpt>
      <trkpt lat="47.3318330" lon="6.8505430">
        <ele>658.7</ele>
        <time>2022-07-20T16:39:30Z</time>
      </trkpt>
      <trkpt lat="47.3318010" lon="6.8505440">
        <ele>658.4</ele>
        <time>2022-07-20T16:39:31Z</time>
      </trkpt>
      <trkpt lat="47.3317530" lon="6.8505400">
        <ele>657.8</ele>
        <time>2022-07-20T16:39:32Z</time>
      </trkpt>
      <trkpt lat="47.3317090" lon="6.8505350">
        <ele>657.3</ele>
        <time>2022-07-20T16:39:34Z</time>
      </trkpt>
      <trkpt lat="47.3316750" lon="6.8505180">
        <ele>656.9</ele>
        <time>2022-07-20T16:39:35Z</time>
      </trkpt>
      <trkpt lat="47.3316210" lon="6.8505070">
        <ele>656.3</ele>
        <time>2022-07-20T16:39:36Z</time>
      </trkpt>
      <trkpt lat="47.3315820" lon="6.8504940">
        <ele>655.8</ele>
        <time>2022-07-20T16:39:37Z</time>
      </trkpt>
      <trkpt lat="47.3315500" lon="6.8504860">
        <ele>655.4</ele>
        <time>2022-07-20T16:39:38Z</time>
      </trkpt>
      <trkpt lat="47.3315000" lon="6.8504680">
        <ele>654.7</ele>
        <time>2022-07-20T16:39:40Z</time>
      </trkpt>
      <trkpt lat="47.3314540" lon="6.8504520">
        <ele>654.0</ele>
        <time>2022-07-20T16:39:41Z</time>
      </trkpt>
      <trkpt lat="47.3314130" lon="6.8504380">
        <ele>653.4</ele>
        <time>2022-07-20T16:39:42Z</time>
      </trkpt>
      <trkpt lat="47.3313780" lon="6.8504240">
        <ele>652.9</ele>
        <time>2022-07-20T16:39:43Z</time>
      </trkpt>
      <trkpt lat="47.3313280" lon="6.8503900">
        <ele>652.2</ele>
        <time>2022-07-20T16:39:45Z</time>
      </trkpt>
      <trkpt lat="47.3312450" lon="6.8503190">
        <ele>650.9</ele>
        <time>2022-07-20T16:39:46Z</time>
      </trkpt>
      <trkpt lat="47.3311980" lon="6.8502910">
        <ele>650.2</ele>
        <time>2022-07-20T16:39:47Z</time>
      </trkpt>
      <trkpt lat="47.3311550" lon="6.8502580">
        <ele>649.5</ele>
        <time>2022-07-20T16:39:48Z</time>
      </trkpt>
      <trkpt lat="47.3311440" lon="6.8502470">
        <ele>649.2</ele>
        <time>2022-07-20T16:39:49Z</time>
      </trkpt>
      <trkpt lat="47.3310890" lon="6.8502110">
        <ele>648.2</ele>
        <time>2022-07-20T16:39:51Z</time>
      </trkpt>
      <trkpt lat="47.3310480" lon="6.8501720">
        <ele>647.3</ele>
        <time>2022-07-20T16:39:52Z</time>
      </trkpt>
      <trkpt lat="47.3310080" lon="6.8501400">
        <ele>646.5</ele>
        <time>2022-07-20T16:39:53Z</time>
      </trkpt>
      <trkpt lat="47.3309700" lon="6.8501030">
        <ele>645.6</ele>
        <time>2022-07-20T16:39:54Z</time>
      </trkpt>
      <trkpt lat="47.3309350" lon="6.8500590">
        <ele>644.7</ele>
        <time>2022-07-20T16:39:55Z</time>
      </trkpt>
      <trkpt lat="47.3308980" lon="6.8500140">
        <ele>643.8</ele>
        <time>2022-07-20T16:39:57Z</time>
      </trkpt>
      <trkpt lat="47.3308720" lon="6.8499800">
        <ele>643.0</ele>
        <time>2022-07-20T16:39:58Z</time>
      </trkpt>
      <trkpt lat="47.3308440" lon="6.8499450">
        <ele>642.3</ele>
        <time>2022-07-20T16:39:59Z</time>
      </trkpt>
      <trkpt lat="47.3308350" lon="6.8499340">
        <ele>642.0</ele>
        <time>2022-07-20T16:40:00Z</time>
      </trkpt>
      <trkpt lat="47.3307920" lon="6.8498810">
        <ele>640.9</ele>
        <time>2022-07-20T16:40:01Z</time>
      </trkpt>
      <trkpt lat="47.3307610" lon="6.8498410">
        <ele>640.0</ele>
        <time>2022-07-20T16:40:03Z</time>
      </trkpt>
      <trkpt lat="47.3307320" lon="6.8497990">
        <ele>639.1</ele>
        <time>2022-07-20T16:40:04Z</time>
      </trkpt>
      <trkpt lat="47.3307050" lon="6.8497300">
        <ele>637.9</ele>
        <time>2022-07-20T16:40:05Z</time>
      </trkpt>
      <trkpt lat="47.3306730" lon="6.8496610">
        <ele>636.7</ele>
        <time>2022-07-20T16:40:06Z</time>
      </trkpt>
      <trkpt lat="47.3306380" lon="6.8495680">
        <ele>635.2</ele>
        <time>2022-07-20T16:40:07Z</time>
      </trkpt>
      <trkpt lat="47.3306040" lon="6.8494670">
        <ele>633.6</ele>
        <time>2022-07-20T16:40:08Z</time>
      </trkpt>
      <trkpt lat="47.3305730" lon="6.8493900">
        <ele>632.5</ele>
        <time>2022-07-20T16:40:09Z</time>
      </trkpt>
      <trkpt lat="47.3305450" lon="6.8493250">
        <ele>631.6</ele>
        <time>2022-07-20T16:40:10Z</time>
      </trkpt>
      <trkpt lat="47.3305100" lon="6.8492540">
        <ele>630.6</ele>
        <time>2022-07-20T16:40:11Z</time>
      </trkpt>
      <trkpt lat="47.3304730" lon="6.8491740">
        <ele>629.7</ele>
        <time>2022-07-20T16:40:12Z</time>
      </trkpt>
      <trkpt lat="47.3304340" lon="6.8490970">
        <ele>628.8</ele>
        <time>2022-07-20T16:40:13Z</time>
      </trkpt>
      <trkpt lat="47.3303990" lon="6.8490260">
        <ele>628.0</ele>
        <time>2022-07-20T16:40:14Z</time>
      </trkpt>
      <trkpt lat="47.3303620" lon="6.8489570">
        <ele>627.1</ele>
        <time>2022-07-20T16:40:15Z</time>
      </trkpt>
      <trkpt lat="47.3303310" lon="6.8488980">
        <ele>626.3</ele>
        <time>2022-07-20T16:40:16Z</time>
      </trkpt>
      <trkpt lat="47.3303020" lon="6.8488430">
        <ele>625.6</ele>
        <time>2022-07-20T16:40:17Z</time>
      </trkpt>
      <trkpt lat="47.3302860" lon="6.8488020">
        <ele>625.0</ele>
        <time>2022-07-20T16:40:18Z</time>
      </trkpt>
      <trkpt lat="47.3302590" lon="6.8487470">
        <ele>624.2</ele>
        <time>2022-07-20T16:40:19Z</time>
      </trkpt>
      <trkpt lat="47.3302410" lon="6.8487160">
        <ele>623.7</ele>
        <time>2022-07-20T16:40:20Z</time>
      </trkpt>
      <trkpt lat="47.3302230" lon="6.8486840">
        <ele>623.1</ele>
        <time>2022-07-20T16:40:21Z</time>
      </trkpt>
      <trkpt lat="47.3302060" lon="6.8486530">
        <ele>622.6</ele>
        <time>2022-07-20T16:40:22Z</time>
      </trkpt>
      <trkpt lat="47.3301860" lon="6.8486180">
        <ele>621.9</ele>
        <time>2022-07-20T16:40:23Z</time>
      </trkpt>
      <trkpt lat="47.3301740" lon="6.8485960">
        <ele>621.5</ele>
        <time>2022-07-20T16:40:24Z</time>
      </trkpt>
      <trkpt lat="47.3301450" lon="6.8485580">
        <ele>620.7</ele>
        <time>2022-07-20T16:40:26Z</time>
      </trkpt>
      <trkpt lat="47.3301070" lon="6.8485190">
        <ele>619.1</ele>
        <time>2022-07-20T16:40:27Z</time>
      </trkpt>
      <trkpt lat="47.3300560" lon="6.8484850">
        <ele>617.6</ele>
        <time>2022-07-20T16:40:29Z</time>
      </trkpt>
      <trkpt lat="47.3300210" lon="6.8484560">
        <ele>616.5</ele>
        <time>2022-07-20T16:40:30Z</time>
      </trkpt>
      <trkpt lat="47.3299910" lon="6.8484280">
        <ele>615.6</ele>
        <time>2022-07-20T16:40:31Z</time>
      </trkpt>
      <trkpt lat="47.3299810" lon="6.8484200">
        <ele>615.3</ele>
        <time>2022-07-20T16:40:32Z</time>
      </trkpt>
      <trkpt lat="47.3299520" lon="6.8483980">
        <ele>614.5</ele>
        <time>2022-07-20T16:40:33Z</time>
      </trkpt>
      <trkpt lat="47.3299420" lon="6.8483910">
        <ele>614.2</ele>
        <time>2022-07-20T16:40:34Z</time>
      </trkpt>
      <trkpt lat="47.3299160" lon="6.8483720">
        <ele>613.5</ele>
        <time>2022-07-20T16:40:35Z</time>
      </trkpt>
      <trkpt lat="47.3299050" lon="6.8483670">
        <ele>613.2</ele>
        <time>2022-07-20T16:40:36Z</time>
      </trkpt>
      <trkpt lat="47.3298680" lon="6.8483520">
        <ele>612.3</ele>
        <time>2022-07-20T16:40:37Z</time>
      </trkpt>
      <trkpt lat="47.3298280" lon="6.8483400">
        <ele>611.4</ele>
        <time>2022-07-20T16:40:38Z</time>
      </trkpt>
      <trkpt lat="47.3297270" lon="6.8483270">
        <ele>609.3</ele>
        <time>2022-07-20T16:40:39Z</time>
      </trkpt>
      <trkpt lat="47.3296800" lon="6.8483180">
        <ele>608.4</ele>
        <time>2022-07-20T16:40:40Z</time>
      </trkpt>
      <trkpt lat="47.3296320" lon="6.8483180">
        <ele>607.5</ele>
        <time>2022-07-20T16:40:41Z</time>
      </trkpt>
      <trkpt lat="47.3295900" lon="6.8483070">
        <ele>606.7</ele>
        <time>2022-07-20T16:40:42Z</time>
      </trkpt>
      <trkpt lat="47.3295570" lon="6.8482960">
        <ele>606.0</ele>
        <time>2022-07-20T16:40:44Z</time>
      </trkpt>
      <trkpt lat="47.3295210" lon="6.8483060">
        <ele>605.1</ele>
        <time>2022-07-20T16:40:45Z</time>
      </trkpt>
      <trkpt lat="47.3294930" lon="6.8483250">
        <ele>604.3</ele>
        <time>2022-07-20T16:40:46Z</time>
      </trkpt>
      <trkpt lat="47.3294720" lon="6.8483370">
        <ele>603.8</ele>
        <time>2022-07-20T16:40:47Z</time>
      </trkpt>
      <trkpt lat="47.3294620" lon="6.8483440">
        <ele>603.5</ele>
        <time>2022-07-20T16:40:48Z</time>
      </trkpt>
      <trkpt lat="47.3294570" lon="6.8483380">
        <ele>603.3</ele>
        <time>2022-07-20T16:40:49Z</time>
      </trkpt>
      <trkpt lat="47.3294590" lon="6.8483280">
        <ele>603.2</ele>
        <time>2022-07-20T16:40:50Z</time>
      </trkpt>
      <trkpt lat="47.3294600" lon="6.8483210">
        <ele>603.1</ele>
        <time>2022-07-20T16:40:51Z</time>
      </trkpt>
      <trkpt lat="47.3294600" lon="6.8483170">
        <ele>603.0</ele>
        <time>2022-07-20T16:40:52Z</time>
      </trkpt>
      <trkpt lat="47.3294580" lon="6.8483160">
        <ele>602.9</ele>
        <time>2022-07-20T16:40:53Z</time>
      </trkpt>
      <trkpt lat="47.3294580" lon="6.8483150">
        <ele>602.9</ele>
        <time>2022-07-20T16:40:54Z</time>
      </trkpt>
      <trkpt lat="47.3294610" lon="6.8483250">
        <ele>602.7</ele>
        <time>2022-07-20T16:40:55Z</time>
      </trkpt>
      <trkpt lat="47.3294620" lon="6.8483340">
        <ele>602.6</ele>
        <time>2022-07-20T16:40:56Z</time>
      </trkpt>
      <trkpt lat="47.3294610" lon="6.8483400">
        <ele>602.5</ele>
        <time>2022-07-20T16:40:57Z</time>
      </trkpt>
      <trkpt lat="47.3294600" lon="6.8483410">
        <ele>602.4</ele>
        <time>2022-07-20T16:40:58Z</time>
      </trkpt>
      <trkpt lat="47.3294580" lon="6.8483400">
        <ele>602.4</ele>
        <time>2022-07-20T16:40:59Z</time>
      </trkpt>
      <trkpt lat="47.3294570" lon="6.8483390">
        <ele>602.4</ele>
        <time>2022-07-20T16:41:00Z</time>
      </trkpt>
      <trkpt lat="47.3294550" lon="6.8483370">
        <ele>602.3</ele>
        <time>2022-07-20T16:41:01Z</time>
      </trkpt>
      <trkpt lat="47.3294540" lon="6.8483350">
        <ele>602.3</ele>
        <time>2022-07-20T16:41:02Z</time>
      </trkpt>
      <trkpt lat="47.3294540" lon="6.8483330">
        <ele>602.2</ele>
        <time>2022-07-20T16:41:03Z</time>
      </trkpt>
      <trkpt lat="47.3294540" lon="6.8483320">
        <ele>602.2</ele>
        <time>2022-07-20T16:41:04Z</time>
      </trkpt>
      <trkpt lat="47.3294530" lon="6.8483290">
        <ele>602.2</ele>
        <time>2022-07-20T16:41:05Z</time>
      </trkpt>
      <trkpt lat="47.3294520" lon="6.8483270">
        <ele>602.1</ele>
        <time>2022-07-20T16:41:06Z</time>
      </trkpt>
      <trkpt lat="47.3294510" lon="6.8483270">
        <ele>602.1</ele>
        <time>2022-07-20T16:41:07Z</time>
      </trkpt>
      <trkpt lat="47.3294300" lon="6.8483350">
        <ele>601.6</ele>
        <time>2022-07-20T16:41:20Z</time>
      </trkpt>
      <trkpt lat="47.3294160" lon="6.8483440">
        <ele>601.2</ele>
        <time>2022-07-20T16:41:21Z</time>
      </trkpt>
      <trkpt lat="47.3293990" lon="6.8483540">
        <ele>600.7</ele>
        <time>2022-07-20T16:41:22Z</time>
      </trkpt>
      <trkpt lat="47.3293860" lon="6.8483620">
        <ele>600.3</ele>
        <time>2022-07-20T16:41:23Z</time>
      </trkpt>
      <trkpt lat="47.3293790" lon="6.8483660">
        <ele>600.2</ele>
        <time>2022-07-20T16:41:24Z</time>
      </trkpt>
      <trkpt lat="47.3293730" lon="6.8483690">
        <ele>600.0</ele>
        <time>2022-07-20T16:41:25Z</time>
      </trkpt>
      <trkpt lat="47.3293660" lon="6.8483730">
        <ele>599.8</ele>
        <time>2022-07-20T16:41:26Z</time>
      </trkpt>
      <trkpt lat="47.3293540" lon="6.8483780">
        <ele>599.5</ele>
        <time>2022-07-20T16:41:27Z</time>
      </trkpt>
      <trkpt lat="47.3293470" lon="6.8483800">
        <ele>599.3</ele>
        <time>2022-07-20T16:41:28Z</time>
      </trkpt>
      <trkpt lat="47.3293390" lon="6.8483810">
        <ele>599.1</ele>
        <time>2022-07-20T16:41:29Z</time>
      </trkpt>
      <trkpt lat="47.3293300" lon="6.8483760">
        <ele>598.8</ele>
        <time>2022-07-20T16:41:30Z</time>
      </trkpt>
      <trkpt lat="47.3293170" lon="6.8483680">
        <ele>598.4</ele>
        <time>2022-07-20T16:41:31Z</time>
      </trkpt>
      <trkpt lat="47.3293100" lon="6.8483660">
        <ele>598.2</ele>
        <time>2022-07-20T16:41:32Z</time>
      </trkpt>
      <trkpt lat="47.3293040" lon="6.8483610">
        <ele>598.0</ele>
        <time>2022-07-20T16:41:33Z</time>
      </trkpt>
      <trkpt lat="47.3293000" lon="6.8483570">
        <ele>597.9</ele>
        <time>2022-07-20T16:41:34Z</time>
      </trkpt>
      <trkpt lat="47.3293000" lon="6.8483560">
        <ele>597.9</ele>
        <time>2022-07-20T16:41:35Z</time>
      </trkpt>
      <trkpt lat="47.3293020" lon="6.8483580">
        <ele>597.8</ele>
        <time>2022-07-20T16:41:36Z</time>
      </trkpt>
      <trkpt lat="47.3293030" lon="6.8483590">
        <ele>597.8</ele>
        <time>2022-07-20T16:41:37Z</time>
      </trkpt>
      <trkpt lat="47.3293060" lon="6.8483620">
        <ele>597.7</ele>
        <time>2022-07-20T16:41:38Z</time>
      </trkpt>
      <trkpt lat="47.3293040" lon="6.8483610">
        <ele>597.6</ele>
        <time>2022-07-20T16:41:39Z</time>
      </trkpt>
      <trkpt lat="47.3293010" lon="6.8483610">
        <ele>597.6</ele>
        <time>2022-07-20T16:41:40Z</time>
      </trkpt>
      <trkpt lat="47.3292980" lon="6.8483600">
        <ele>597.5</ele>
        <time>2022-07-20T16:41:41Z</time>
      </trkpt>
      <trkpt lat="47.3292920" lon="6.8483570">
        <ele>597.3</ele>
        <time>2022-07-20T16:41:42Z</time>
      </trkpt>
      <trkpt lat="47.3292880" lon="6.8483490">
        <ele>597.1</ele>
        <time>2022-07-20T16:41:43Z</time>
      </trkpt>
      <trkpt lat="47.3292820" lon="6.8483410">
        <ele>596.9</ele>
        <time>2022-07-20T16:41:44Z</time>
      </trkpt>
      <trkpt lat="47.3292790" lon="6.8483300">
        <ele>596.7</ele>
        <time>2022-07-20T16:41:45Z</time>
      </trkpt>
      <trkpt lat="47.3292720" lon="6.8483240">
        <ele>596.4</ele>
        <time>2022-07-20T16:41:46Z</time>
      </trkpt>
      <trkpt lat="47.3292690" lon="6.8483120">
        <ele>596.2</ele>
        <time>2022-07-20T16:41:47Z</time>
      </trkpt>
      <trkpt lat="47.3292650" lon="6.8483050">
        <ele>596.0</ele>
        <time>2022-07-20T16:41:48Z</time>
      </trkpt>
      <trkpt lat="47.3292640" lon="6.8482960">
        <ele>595.9</ele>
        <time>2022-07-20T16:41:49Z</time>
      </trkpt>
      <trkpt lat="47.3292600" lon="6.8482900">
        <ele>595.7</ele>
        <time>2022-07-20T16:41:50Z</time>
      </trkpt>
      <trkpt lat="47.3292580" lon="6.8482830">
        <ele>595.5</ele>
        <time>2022-07-20T16:41:51Z</time>
      </trkpt>
      <trkpt lat="47.3292570" lon="6.8482730">
        <ele>595.4</ele>
        <time>2022-07-20T16:41:52Z</time>
      </trkpt>
      <trkpt lat="47.3292570" lon="6.8482640">
        <ele>595.2</ele>
        <time>2022-07-20T16:41:53Z</time>
      </trkpt>
      <trkpt lat="47.3292570" lon="6.8482540">
        <ele>595.0</ele>
        <time>2022-07-20T16:41:54Z</time>
      </trkpt>
      <trkpt lat="47.3292590" lon="6.8482400">
        <ele>594.7</ele>
        <time>2022-07-20T16:41:55Z</time>
      </trkpt>
      <trkpt lat="47.3292600" lon="6.8482240">
        <ele>594.4</ele>
        <time>2022-07-20T16:41:56Z</time>
      </trkpt>
      <trkpt lat="47.3292610" lon="6.8482080">
        <ele>594.1</ele>
        <time>2022-07-20T16:41:57Z</time>
      </trkpt>
      <trkpt lat="47.3292590" lon="6.8481970">
        <ele>593.9</ele>
        <time>2022-07-20T16:41:58Z</time>
      </trkpt>
      <trkpt lat="47.3292570" lon="6.8481810">
        <ele>593.5</ele>
        <time>2022-07-20T16:41:59Z</time>
      </trkpt>
      <trkpt lat="47.3292540" lon="6.8481630">
        <ele>593.2</ele>
        <time>2022-07-20T16:42:00Z</time>
      </trkpt>
      <trkpt lat="47.3292500" lon="6.8481530">
        <ele>592.9</ele>
        <time>2022-07-20T16:42:01Z</time>
      </trkpt>
      <trkpt lat="47.3292480" lon="6.8481430">
        <ele>592.7</ele>
        <time>2022-07-20T16:42:02Z</time>
      </trkpt>
      <trkpt lat="47.3292410" lon="6.8481200">
        <ele>592.2</ele>
        <time>2022-07-20T16:42:03Z</time>
      </trkpt>
      <trkpt lat="47.3292380" lon="6.8481060">
        <ele>591.9</ele>
        <time>2022-07-20T16:42:04Z</time>
      </trkpt>
      <trkpt lat="47.3292350" lon="6.8480930">
        <ele>591.6</ele>
        <time>2022-07-20T16:42:05Z</time>
      </trkpt>
      <trkpt lat="47.3292340" lon="6.8480720">
        <ele>591.2</ele>
        <time>2022-07-20T16:42:06Z</time>
      </trkpt>
      <trkpt lat="47.3292350" lon="6.8480530">
        <ele>590.8</ele>
        <time>2022-07-20T16:42:07Z</time>
      </trkpt>
      <trkpt lat="47.3292360" lon="6.8480390">
        <ele>590.5</ele>
        <time>2022-07-20T16:42:08Z</time>
      </trkpt>
      <trkpt lat="47.3292370" lon="6.8480280">
        <ele>590.2</ele>
        <time>2022-07-20T16:42:09Z</time>
      </trkpt>
      <trkpt lat="47.3292380" lon="6.8480150">
        <ele>590.0</ele>
        <time>2022-07-20T16:42:10Z</time>
      </trkpt>
      <trkpt lat="47.3292390" lon="6.8480050">
        <ele>589.8</ele>
        <time>2022-07-20T16:42:11Z</time>
      </trkpt>
      <trkpt lat="47.3292420" lon="6.8479870">
        <ele>589.4</ele>
        <time>2022-07-20T16:42:12Z</time>
      </trkpt>
      <trkpt lat="47.3292450" lon="6.8479790">
        <ele>589.2</ele>
        <time>2022-07-20T16:42:13Z</time>
      </trkpt>
      <trkpt lat="47.3292470" lon="6.8479710">
        <ele>589.1</ele>
        <time>2022-07-20T16:42:14Z</time>
      </trkpt>
      <trkpt lat="47.3292500" lon="6.8479630">
        <ele>588.9</ele>
        <time>2022-07-20T16:42:15Z</time>
      </trkpt>
      <trkpt lat="47.3292520" lon="6.8479550">
        <ele>588.8</ele>
        <time>2022-07-20T16:42:16Z</time>
      </trkpt>
      <trkpt lat="47.3292550" lon="6.8479460">
        <ele>588.6</ele>
        <time>2022-07-20T16:42:17Z</time>
      </trkpt>
      <trkpt lat="47.3292570" lon="6.8479380">
        <ele>588.5</ele>
        <time>2022-07-20T16:42:18Z</time>
      </trkpt>
      <trkpt lat="47.3292600" lon="6.8479300">
        <ele>588.4</ele>
        <time>2022-07-20T16:42:19Z</time>
      </trkpt>
      <trkpt lat="47.3292630" lon="6.8479220">
        <ele>588.2</ele>
        <time>2022-07-20T16:42:20Z</time>
      </trkpt>
      <trkpt lat="47.3292650" lon="6.8479140">
        <ele>588.1</ele>
        <time>2022-07-20T16:42:21Z</time>
      </trkpt>
      <trkpt lat="47.3292680" lon="6.8479050">
        <ele>587.9</ele>
        <time>2022-07-20T16:42:22Z</time>
      </trkpt>
      <trkpt lat="47.3292700" lon="6.8478970">
        <ele>587.8</ele>
        <time>2022-07-20T16:42:23Z</time>
      </trkpt>
      <trkpt lat="47.3292730" lon="6.8478890">
        <ele>587.6</ele>
        <time>2022-07-20T16:42:24Z</time>
      </trkpt>
      <trkpt lat="47.3292750" lon="6.8478810">
        <ele>587.5</ele>
        <time>2022-07-20T16:42:43Z</time>
      </trkpt>
      <trkpt lat="47.3292780" lon="6.8478730">
        <ele>587.4</ele>
        <time>2022-07-20T16:42:44Z</time>
      </trkpt>
      <trkpt lat="47.3292980" lon="6.8478050">
        <ele>586.2</ele>
        <time>2022-07-20T16:42:46Z</time>
      </trkpt>
      <trkpt lat="47.3293170" lon="6.8477440">
        <ele>585.3</ele>
        <time>2022-07-20T16:42:47Z</time>
      </trkpt>
      <trkpt lat="47.3293330" lon="6.8477000">
        <ele>584.6</ele>
        <time>2022-07-20T16:42:48Z</time>
      </trkpt>
      <trkpt lat="47.3293540" lon="6.8476500">
        <ele>583.8</ele>
        <time>2022-07-20T16:42:49Z</time>
      </trkpt>
      <trkpt lat="47.3293830" lon="6.8476070">
        <ele>582.9</ele>
        <time>2022-07-20T16:42:50Z</time>
      </trkpt>
      <trkpt lat="47.3294040" lon="6.8475830">
        <ele>582.4</ele>
        <time>2022-07-20T16:42:51Z</time>
      </trkpt>
      <trkpt lat="47.3294140" lon="6.8475670">
        <ele>582.1</ele>
        <time>2022-07-20T16:42:53Z</time>
      </trkpt>
      <trkpt lat="47.3294290" lon="6.8475560">
        <ele>581.7</ele>
        <time>2022-07-20T16:42:54Z</time>
      </trkpt>
      <trkpt lat="47.3294340" lon="6.8475550">
        <ele>581.6</ele>
        <time>2022-07-20T16:42:55Z</time>
      </trkpt>
      <trkpt lat="47.3294350" lon="6.8475550">
        <ele>581.6</ele>
        <time>2022-07-20T16:42:56Z</time>
      </trkpt>
      <trkpt lat="47.3294380" lon="6.8475550">
        <ele>581.5</ele>
        <time>2022-07-20T16:42:57Z</time>
      </trkpt>
      <trkpt lat="47.3294430" lon="6.8475520">
        <ele>581.4</ele>
        <time>2022-07-20T16:42:58Z</time>
      </trkpt>
      <trkpt lat="47.3294450" lon="6.8475510">
        <ele>581.3</ele>
        <time>2022-07-20T16:42:59Z</time>
      </trkpt>
      <trkpt lat="47.3294480" lon="6.8475490">
        <ele>581.3</ele>
        <time>2022-07-20T16:43:00Z</time>
      </trkpt>
      <trkpt lat="47.3294580" lon="6.8475470">
        <ele>581.1</ele>
        <time>2022-07-20T16:43:01Z</time>
      </trkpt>
      <trkpt lat="47.3294670" lon="6.8475450">
        <ele>580.9</ele>
        <time>2022-07-20T16:43:02Z</time>
      </trkpt>
      <trkpt lat="47.3294790" lon="6.8475360">
        <ele>580.6</ele>
        <time>2022-07-20T16:43:04Z</time>
      </trkpt>
      <trkpt lat="47.3294930" lon="6.8475250">
        <ele>580.2</ele>
        <time>2022-07-20T16:43:06Z</time>
      </trkpt>
      <trkpt lat="47.3295060" lon="6.8475160">
        <ele>579.9</ele>
        <time>2022-07-20T16:43:07Z</time>
      </trkpt>
      <trkpt lat="47.3295190" lon="6.8475050">
        <ele>579.5</ele>
        <time>2022-07-20T16:43:08Z</time>
      </trkpt>
      <trkpt lat="47.3295300" lon="6.8474980">
        <ele>579.2</ele>
        <time>2022-07-20T16:43:09Z</time>
      </trkpt>
      <trkpt lat="47.3295400" lon="6.8474930">
        <ele>579.0</ele>
        <time>2022-07-20T16:43:11Z</time>
      </trkpt>
      <trkpt lat="47.3295530" lon="6.8474850">
        <ele>578.7</ele>
        <time>2022-07-20T16:43:12Z</time>
      </trkpt>
      <trkpt lat="47.3295620" lon="6.8474770">
        <ele>578.4</ele>
        <time>2022-07-20T16:43:13Z</time>
      </trkpt>
      <trkpt lat="47.3295750" lon="6.8474640">
        <ele>578.1</ele>
        <time>2022-07-20T16:43:15Z</time>
      </trkpt>
      <trkpt lat="47.3295900" lon="6.8474530">
        <ele>577.7</ele>
        <time>2022-07-20T16:43:16Z</time>
      </trkpt>
      <trkpt lat="47.3295990" lon="6.8474460">
        <ele>577.4</ele>
        <time>2022-07-20T16:43:17Z</time>
      </trkpt>
      <trkpt lat="47.3296080" lon="6.8474390">
        <ele>577.2</ele>
        <time>2022-07-20T16:43:18Z</time>
      </trkpt>
      <trkpt lat="47.3296140" lon="6.8474310">
        <ele>577.0</ele>
        <time>2022-07-20T16:43:19Z</time>
      </trkpt>
      <trkpt lat="47.3296220" lon="6.8474220">
        <ele>576.8</ele>
        <time>2022-07-20T16:43:20Z</time>
      </trkpt>
      <trkpt lat="47.3296270" lon="6.8474190">
        <ele>576.6</ele>
        <time>2022-07-20T16:43:21Z</time>
      </trkpt>
      <trkpt lat="47.3296310" lon="6.8474160">
        <ele>576.5</ele>
        <time>2022-07-20T16:43:22Z</time>
      </trkpt>
      <trkpt lat="47.3296360" lon="6.8474120">
        <ele>576.4</ele>
        <time>2022-07-20T16:43:23Z</time>
      </trkpt>
      <trkpt lat="47.3296410" lon="6.8474090">
        <ele>576.3</ele>
        <time>2022-07-20T16:43:24Z</time>
      </trkpt>
      <trkpt lat="47.3296460" lon="6.8474060">
        <ele>576.2</ele>
        <time>2022-07-20T16:43:25Z</time>
      </trkpt>
      <trkpt lat="47.3296510" lon="6.8474020">
        <ele>576.0</ele>
        <time>2022-07-20T16:43:26Z</time>
      </trkpt>
      <trkpt lat="47.3296560" lon="6.8473990">
        <ele>575.9</ele>
        <time>2022-07-20T16:43:28Z</time>
      </trkpt>
      <trkpt lat="47.3296610" lon="6.8473960">
        <ele>575.8</ele>
        <time>2022-07-20T16:43:29Z</time>
      </trkpt>
      <trkpt lat="47.3297030" lon="6.8473700">
        <ele>574.8</ele>
        <time>2022-07-20T16:43:30Z</time>
      </trkpt>
      <trkpt lat="47.3297330" lon="6.8473510">
        <ele>574.2</ele>
        <time>2022-07-20T16:43:31Z</time>
      </trkpt>
      <trkpt lat="47.3297660" lon="6.8473210">
        <ele>573.5</ele>
        <time>2022-07-20T16:43:32Z</time>
      </trkpt>
      <trkpt lat="47.3297920" lon="6.8472880">
        <ele>572.9</ele>
        <time>2022-07-20T16:43:33Z</time>
      </trkpt>
      <trkpt lat="47.3298170" lon="6.8472510">
        <ele>572.4</ele>
        <time>2022-07-20T16:43:34Z</time>
      </trkpt>
      <trkpt lat="47.3298420" lon="6.8472150">
        <ele>571.9</ele>
        <time>2022-07-20T16:43:35Z</time>
      </trkpt>
      <trkpt lat="47.3298700" lon="6.8471830">
        <ele>571.5</ele>
        <time>2022-07-20T16:43:36Z</time>
      </trkpt>
      <trkpt lat="47.3298950" lon="6.8471590">
        <ele>571.1</ele>
        <time>2022-07-20T16:43:37Z</time>
      </trkpt>
      <trkpt lat="47.3299220" lon="6.8471260">
        <ele>570.7</ele>
        <time>2022-07-20T16:43:39Z</time>
      </trkpt>
      <trkpt lat="47.3299280" lon="6.8471170">
        <ele>570.6</ele>
        <time>2022-07-20T16:43:40Z</time>
      </trkpt>
      <trkpt lat="47.3299320" lon="6.8471090">
        <ele>570.6</ele>
        <time>2022-07-20T16:43:41Z</time>
      </trkpt>
      <trkpt lat="47.3299340" lon="6.8470980">
        <ele>570.5</ele>
        <time>2022-07-20T16:43:42Z</time>
      </trkpt>
      <trkpt lat="47.3299350" lon="6.8470920">
        <ele>570.5</ele>
        <time>2022-07-20T16:43:43Z</time>
      </trkpt>
      <trkpt lat="47.3299360" lon="6.8470840">
        <ele>570.4</ele>
        <time>2022-07-20T16:43:44Z</time>
      </trkpt>
      <trkpt lat="47.3299360" lon="6.8470780">
        <ele>570.4</ele>
        <time>2022-07-20T16:43:45Z</time>
      </trkpt>
      <trkpt lat="47.3299430" lon="6.8470680">
        <ele>570.3</ele>
        <time>2022-07-20T16:43:46Z</time>
      </trkpt>
      <trkpt lat="47.3299490" lon="6.8470620">
        <ele>570.2</ele>
        <time>2022-07-20T16:43:47Z</time>
      </trkpt>
      <trkpt lat="47.3299560" lon="6.8470570">
        <ele>570.1</ele>
        <time>2022-07-20T16:43:48Z</time>
      </trkpt>
      <trkpt lat="47.3299620" lon="6.8470510">
        <ele>570.1</ele>
        <time>2022-07-20T16:43:49Z</time>
      </trkpt>
      <trkpt lat="47.3299690" lon="6.8470450">
        <ele>570.0</ele>
        <time>2022-07-20T16:43:58Z</time>
      </trkpt>
      <trkpt lat="47.3299750" lon="6.8470390">
        <ele>569.9</ele>
        <time>2022-07-20T16:43:59Z</time>
      </trkpt>
      <trkpt lat="47.3299810" lon="6.8470330">
        <ele>569.8</ele>
        <time>2022-07-20T16:44:00Z</time>
      </trkpt>
      <trkpt lat="47.3299880" lon="6.8470270">
        <ele>569.8</ele>
        <time>2022-07-20T16:44:01Z</time>
      </trkpt>
      <trkpt lat="47.3300210" lon="6.8470210">
        <ele>569.4</ele>
        <time>2022-07-20T16:44:03Z</time>
      </trkpt>
      <trkpt lat="47.3300290" lon="6.8470200">
        <ele>569.4</ele>
        <time>2022-07-20T16:44:04Z</time>
      </trkpt>
      <trkpt lat="47.3300400" lon="6.8470190">
        <ele>569.3</ele>
        <time>2022-07-20T16:44:05Z</time>
      </trkpt>
      <trkpt lat="47.3300630" lon="6.8470120">
        <ele>569.0</ele>
        <time>2022-07-20T16:44:06Z</time>
      </trkpt>
      <trkpt lat="47.3300920" lon="6.8469920">
        <ele>568.7</ele>
        <time>2022-07-20T16:44:07Z</time>
      </trkpt>
      <trkpt lat="47.3301170" lon="6.8469780">
        <ele>568.4</ele>
        <time>2022-07-20T16:44:08Z</time>
      </trkpt>
      <trkpt lat="47.3301360" lon="6.8469650">
        <ele>568.1</ele>
        <time>2022-07-20T16:44:10Z</time>
      </trkpt>
      <trkpt lat="47.3301600" lon="6.8469500">
        <ele>567.8</ele>
        <time>2022-07-20T16:44:11Z</time>
      </trkpt>
      <trkpt lat="47.3301700" lon="6.8469430">
        <ele>567.7</ele>
        <time>2022-07-20T16:44:12Z</time>
      </trkpt>
      <trkpt lat="47.3302030" lon="6.8469050">
        <ele>567.1</ele>
        <time>2022-07-20T16:44:14Z</time>
      </trkpt>
      <trkpt lat="47.3302430" lon="6.8468550">
        <ele>566.3</ele>
        <time>2022-07-20T16:44:15Z</time>
      </trkpt>
      <trkpt lat="47.3302720" lon="6.8468150">
        <ele>565.8</ele>
        <time>2022-07-20T16:44:16Z</time>
      </trkpt>
      <trkpt lat="47.3302870" lon="6.8467660">
        <ele>565.2</ele>
        <time>2022-07-20T16:44:18Z</time>
      </trkpt>
      <trkpt lat="47.3302940" lon="6.8467530">
        <ele>565.1</ele>
        <time>2022-07-20T16:44:19Z</time>
      </trkpt>
      <trkpt lat="47.3303030" lon="6.8467360">
        <ele>564.8</ele>
        <time>2022-07-20T16:44:20Z</time>
      </trkpt>
      <trkpt lat="47.3303090" lon="6.8467240">
        <ele>564.7</ele>
        <time>2022-07-20T16:44:21Z</time>
      </trkpt>
      <trkpt lat="47.3303160" lon="6.8467150">
        <ele>564.6</ele>
        <time>2022-07-20T16:44:22Z</time>
      </trkpt>
      <trkpt lat="47.3303210" lon="6.8467110">
        <ele>564.5</ele>
        <time>2022-07-20T16:44:24Z</time>
      </trkpt>
      <trkpt lat="47.3303230" lon="6.8467090">
        <ele>564.5</ele>
        <time>2022-07-20T16:44:25Z</time>
      </trkpt>
      <trkpt lat="47.3303250" lon="6.8467060">
        <ele>564.4</ele>
        <time>2022-07-20T16:44:26Z</time>
      </trkpt>
      <trkpt lat="47.3303290" lon="6.8467020">
        <ele>564.4</ele>
        <time>2022-07-20T16:44:27Z</time>
      </trkpt>
      <trkpt lat="47.3303370" lon="6.8466900">
        <ele>564.2</ele>
        <time>2022-07-20T16:44:28Z</time>
      </trkpt>
      <trkpt lat="47.3303420" lon="6.8466820">
        <ele>564.1</ele>
        <time>2022-07-20T16:44:29Z</time>
      </trkpt>
      <trkpt lat="47.3303450" lon="6.8466780">
        <ele>564.0</ele>
        <time>2022-07-20T16:44:30Z</time>
      </trkpt>
      <trkpt lat="47.3303480" lon="6.8466700">
        <ele>563.9</ele>
        <time>2022-07-20T16:44:31Z</time>
      </trkpt>
      <trkpt lat="47.3303520" lon="6.8466560">
        <ele>563.8</ele>
        <time>2022-07-20T16:44:32Z</time>
      </trkpt>
      <trkpt lat="47.3303540" lon="6.8466470">
        <ele>563.8</ele>
        <time>2022-07-20T16:44:33Z</time>
      </trkpt>
      <trkpt lat="47.3303560" lon="6.8466360">
        <ele>563.6</ele>
        <time>2022-07-20T16:44:34Z</time>
      </trkpt>
      <trkpt lat="47.3303590" lon="6.8466250">
        <ele>563.4</ele>
        <time>2022-07-20T16:44:35Z</time>
      </trkpt>
      <trkpt lat="47.3303610" lon="6.8466110">
        <ele>563.2</ele>
        <time>2022-07-20T16:44:36Z</time>
      </trkpt>
      <trkpt lat="47.3303650" lon="6.8465780">
        <ele>562.6</ele>
        <time>2022-07-20T16:44:37Z</time>
      </trkpt>
      <trkpt lat="47.3303670" lon="6.8465620">
        <ele>562.4</ele>
        <time>2022-07-20T16:44:39Z</time>
      </trkpt>
      <trkpt lat="47.3303700" lon="6.8465450">
        <ele>562.1</ele>
        <time>2022-07-20T16:44:40Z</time>
      </trkpt>
      <trkpt lat="47.3303720" lon="6.8465130">
        <ele>561.6</ele>
        <time>2022-07-20T16:44:42Z</time>
      </trkpt>
      <trkpt lat="47.3303710" lon="6.8465060">
        <ele>561.5</ele>
        <time>2022-07-20T16:44:43Z</time>
      </trkpt>
      <trkpt lat="47.3303700" lon="6.8465010">
        <ele>561.4</ele>
        <time>2022-07-20T16:44:44Z</time>
      </trkpt>
      <trkpt lat="47.3303700" lon="6.8464950">
        <ele>561.3</ele>
        <time>2022-07-20T16:44:45Z</time>
      </trkpt>
      <trkpt lat="47.3303700" lon="6.8464920">
        <ele>561.3</ele>
        <time>2022-07-20T16:44:46Z</time>
      </trkpt>
      <trkpt lat="47.3303700" lon="6.8464870">
        <ele>561.2</ele>
        <time>2022-07-20T16:44:47Z</time>
      </trkpt>
      <trkpt lat="47.3303740" lon="6.8464620">
        <ele>560.8</ele>
        <time>2022-07-20T16:44:48Z</time>
      </trkpt>
      <trkpt lat="47.3303940" lon="6.8464230">
        <ele>560.0</ele>
        <time>2022-07-20T16:44:50Z</time>
      </trkpt>
      <trkpt lat="47.3304100" lon="6.8463740">
        <ele>559.2</ele>
        <time>2022-07-20T16:44:51Z</time>
      </trkpt>
      <trkpt lat="47.3304150" lon="6.8463570">
        <ele>558.9</ele>
        <time>2022-07-20T16:44:52Z</time>
      </trkpt>
      <trkpt lat="47.3304300" lon="6.8463140">
        <ele>558.1</ele>
        <time>2022-07-20T16:44:53Z</time>
      </trkpt>
      <trkpt lat="47.3304330" lon="6.8463020">
        <ele>557.9</ele>
        <time>2022-07-20T16:44:54Z</time>
      </trkpt>
      <trkpt lat="47.3304410" lon="6.8462790">
        <ele>557.5</ele>
        <time>2022-07-20T16:44:55Z</time>
      </trkpt>
      <trkpt lat="47.3304540" lon="6.8462530">
        <ele>557.0</ele>
        <time>2022-07-20T16:44:57Z</time>
      </trkpt>
      <trkpt lat="47.3304650" lon="6.8462000">
        <ele>556.2</ele>
        <time>2022-07-20T16:44:58Z</time>
      </trkpt>
      <trkpt lat="47.3304680" lon="6.8461760">
        <ele>555.8</ele>
        <time>2022-07-20T16:44:59Z</time>
      </trkpt>
      <trkpt lat="47.3304730" lon="6.8461300">
        <ele>555.1</ele>
        <time>2022-07-20T16:45:00Z</time>
      </trkpt>
      <trkpt lat="47.3304780" lon="6.8460980">
        <ele>554.7</ele>
        <time>2022-07-20T16:45:01Z</time>
      </trkpt>
      <trkpt lat="47.3304830" lon="6.8460500">
        <ele>554.0</ele>
        <time>2022-07-20T16:45:03Z</time>
      </trkpt>
      <trkpt lat="47.3304880" lon="6.8460090">
        <ele>553.5</ele>
        <time>2022-07-20T16:45:04Z</time>
      </trkpt>
      <trkpt lat="47.3304980" lon="6.8459620">
        <ele>552.8</ele>
        <time>2022-07-20T16:45:05Z</time>
      </trkpt>
      <trkpt lat="47.3305080" lon="6.8459080">
        <ele>552.1</ele>
        <time>2022-07-20T16:45:06Z</time>
      </trkpt>
      <trkpt lat="47.3305120" lon="6.8458900">
        <ele>551.9</ele>
        <time>2022-07-20T16:45:07Z</time>
      </trkpt>
      <trkpt lat="47.3305230" lon="6.8458440">
        <ele>551.2</ele>
        <time>2022-07-20T16:45:08Z</time>
      </trkpt>
      <trkpt lat="47.3305350" lon="6.8457970">
        <ele>550.4</ele>
        <time>2022-07-20T16:45:09Z</time>
      </trkpt>
      <trkpt lat="47.3305550" lon="6.8457150">
        <ele>549.2</ele>
        <time>2022-07-20T16:45:10Z</time>
      </trkpt>
      <trkpt lat="47.3305810" lon="6.8456440">
        <ele>548.0</ele>
        <time>2022-07-20T16:45:12Z</time>
      </trkpt>
      <trkpt lat="47.3306150" lon="6.8455840">
        <ele>546.9</ele>
        <time>2022-07-20T16:45:13Z</time>
      </trkpt>
      <trkpt lat="47.3306290" lon="6.8455600">
        <ele>546.5</ele>
        <time>2022-07-20T16:45:14Z</time>
      </trkpt>
      <trkpt lat="47.3306330" lon="6.8455490">
        <ele>546.4</ele>
        <time>2022-07-20T16:45:15Z</time>
      </trkpt>
      <trkpt lat="47.3306350" lon="6.8455350">
        <ele>546.2</ele>
        <time>2022-07-20T16:45:16Z</time>
      </trkpt>
      <trkpt lat="47.3306380" lon="6.8455160">
        <ele>546.0</ele>
        <time>2022-07-20T16:45:17Z</time>
      </trkpt>
      <trkpt lat="47.3306420" lon="6.8455070">
        <ele>545.9</ele>
        <time>2022-07-20T16:45:18Z</time>
      </trkpt>
      <trkpt lat="47.3306520" lon="6.8454880">
        <ele>545.6</ele>
        <time>2022-07-20T16:45:20Z</time>
      </trkpt>
      <trkpt lat="47.3306560" lon="6.8454800">
        <ele>545.5</ele>
        <time>2022-07-20T16:45:21Z</time>
      </trkpt>
      <trkpt lat="47.3306610" lon="6.8454710">
        <ele>545.4</ele>
        <time>2022-07-20T16:45:23Z</time>
      </trkpt>
      <trkpt lat="47.3306700" lon="6.8454600">
        <ele>545.2</ele>
        <time>2022-07-20T16:45:24Z</time>
      </trkpt>
      <trkpt lat="47.3306760" lon="6.8454490">
        <ele>545.1</ele>
        <time>2022-07-20T16:45:25Z</time>
      </trkpt>
      <trkpt lat="47.3306780" lon="6.8454360">
        <ele>545.0</ele>
        <time>2022-07-20T16:45:26Z</time>
      </trkpt>
      <trkpt lat="47.3306780" lon="6.8454250">
        <ele>544.9</ele>
        <time>2022-07-20T16:45:27Z</time>
      </trkpt>
      <trkpt lat="47.3306790" lon="6.8454110">
        <ele>544.8</ele>
        <time>2022-07-20T16:45:28Z</time>
      </trkpt>
      <trkpt lat="47.3306810" lon="6.8454020">
        <ele>544.7</ele>
        <time>2022-07-20T16:45:29Z</time>
      </trkpt>
      <trkpt lat="47.3306850" lon="6.8453980">
        <ele>544.7</ele>
        <time>2022-07-20T16:45:30Z</time>
      </trkpt>
      <trkpt lat="47.3306890" lon="6.8453970">
        <ele>544.7</ele>
        <time>2022-07-20T16:45:31Z</time>
      </trkpt>
      <trkpt lat="47.3306920" lon="6.8453970">
        <ele>544.6</ele>
        <time>2022-07-20T16:45:32Z</time>
      </trkpt>
      <trkpt lat="47.3306960" lon="6.8453960">
        <ele>544.6</ele>
        <time>2022-07-20T16:45:33Z</time>
      </trkpt>
      <trkpt lat="47.3306980" lon="6.8453970">
        <ele>544.6</ele>
        <time>2022-07-20T16:45:34Z</time>
      </trkpt>
      <trkpt lat="47.3307020" lon="6.8453960">
        <ele>544.5</ele>
        <time>2022-07-20T16:45:35Z</time>
      </trkpt>
      <trkpt lat="47.3307080" lon="6.8453940">
        <ele>544.5</ele>
        <time>2022-07-20T16:45:36Z</time>
      </trkpt>
      <trkpt lat="47.3307160" lon="6.8453890">
        <ele>544.4</ele>
        <time>2022-07-20T16:45:37Z</time>
      </trkpt>
      <trkpt lat="47.3307260" lon="6.8453800">
        <ele>544.4</ele>
        <time>2022-07-20T16:45:38Z</time>
      </trkpt>
      <trkpt lat="47.3307340" lon="6.8453730">
        <ele>544.3</ele>
        <time>2022-07-20T16:45:40Z</time>
      </trkpt>
      <trkpt lat="47.3307360" lon="6.8453680">
        <ele>544.3</ele>
        <time>2022-07-20T16:45:41Z</time>
      </trkpt>
      <trkpt lat="47.3307370" lon="6.8453650">
        <ele>544.3</ele>
        <time>2022-07-20T16:45:42Z</time>
      </trkpt>
      <trkpt lat="47.3307380" lon="6.8453630">
        <ele>544.3</ele>
        <time>2022-07-20T16:45:43Z</time>
      </trkpt>
      <trkpt lat="47.3307380" lon="6.8453600">
        <ele>544.3</ele>
        <time>2022-07-20T16:45:44Z</time>
      </trkpt>
      <trkpt lat="47.3307380" lon="6.8453580">
        <ele>544.3</ele>
        <time>2022-07-20T16:45:45Z</time>
      </trkpt>
      <trkpt lat="47.3307760" lon="6.8452980">
        <ele>544.2</ele>
        <time>2022-07-20T16:46:00Z</time>
      </trkpt>
      <trkpt lat="47.3307810" lon="6.8452950">
        <ele>544.2</ele>
        <time>2022-07-20T16:46:01Z</time>
      </trkpt>
      <trkpt lat="47.3307820" lon="6.8452950">
        <ele>544.2</ele>
        <time>2022-07-20T16:46:02Z</time>
      </trkpt>
      <trkpt lat="47.3307830" lon="6.8452960">
        <ele>544.2</ele>
        <time>2022-07-20T16:46:03Z</time>
      </trkpt>
      <trkpt lat="47.3307840" lon="6.8452970">
        <ele>544.2</ele>
        <time>2022-07-20T16:46:04Z</time>
      </trkpt>
      <trkpt lat="47.3307850" lon="6.8452970">
        <ele>544.2</ele>
        <time>2022-07-20T16:46:05Z</time>
      </trkpt>
      <trkpt lat="47.3307850" lon="6.8452980">
        <ele>544.2</ele>
        <time>2022-07-20T16:46:06Z</time>
      </trkpt>
      <trkpt lat="47.3307860" lon="6.8452980">
        <ele>544.2</ele>
        <time>2022-07-20T16:46:07Z</time>
      </trkpt>
      <trkpt lat="47.3307860" lon="6.8452990">
        <ele>544.2</ele>
        <time>2022-07-20T16:46:08Z</time>
      </trkpt>
      <trkpt lat="47.3307880" lon="6.8453000">
        <ele>544.2</ele>
        <time>2022-07-20T16:46:09Z</time>
      </trkpt>
      <trkpt lat="47.3307890" lon="6.8453000">
        <ele>544.2</ele>
        <time>2022-07-20T16:46:10Z</time>
      </trkpt>
      <trkpt lat="47.3307920" lon="6.8452970">
        <ele>544.2</ele>
        <time>2022-07-20T16:46:11Z</time>
      </trkpt>
      <trkpt lat="47.3308010" lon="6.8452860">
        <ele>544.2</ele>
        <time>2022-07-20T16:46:12Z</time>
      </trkpt>
      <trkpt lat="47.3308060" lon="6.8452780">
        <ele>544.2</ele>
        <time>2022-07-20T16:46:13Z</time>
      </trkpt>
      <trkpt lat="47.3308110" lon="6.8452700">
        <ele>544.2</ele>
        <time>2022-07-20T16:46:15Z</time>
      </trkpt>
      <trkpt lat="47.3308150" lon="6.8452640">
        <ele>544.2</ele>
        <time>2022-07-20T16:46:16Z</time>
      </trkpt>
      <trkpt lat="47.3308170" lon="6.8452600">
        <ele>544.2</ele>
        <time>2022-07-20T16:46:17Z</time>
      </trkpt>
      <trkpt lat="47.3308170" lon="6.8452570">
        <ele>544.2</ele>
        <time>2022-07-20T16:46:18Z</time>
      </trkpt>
      <trkpt lat="47.3308190" lon="6.8452540">
        <ele>544.2</ele>
        <time>2022-07-20T16:46:19Z</time>
      </trkpt>
      <trkpt lat="47.3308190" lon="6.8452540">
        <ele>544.2</ele>
        <time>2022-07-20T16:46:20Z</time>
      </trkpt>
      <trkpt lat="47.3308190" lon="6.8452550">
        <ele>544.2</ele>
        <time>2022-07-20T16:46:21Z</time>
      </trkpt>
      <trkpt lat="47.3308200" lon="6.8452540">
        <ele>544.2</ele>
        <time>2022-07-20T16:46:22Z</time>
      </trkpt>
      <trkpt lat="47.3308210" lon="6.8452520">
        <ele>544.2</ele>
        <time>2022-07-20T16:46:23Z</time>
      </trkpt>
      <trkpt lat="47.3308210" lon="6.8452500">
        <ele>544.2</ele>
        <time>2022-07-20T16:46:24Z</time>
      </trkpt>
      <trkpt lat="47.3308220" lon="6.8452470">
        <ele>544.2</ele>
        <time>2022-07-20T16:46:25Z</time>
      </trkpt>
      <trkpt lat="47.3308220" lon="6.8452450">
        <ele>544.2</ele>
        <time>2022-07-20T16:46:26Z</time>
      </trkpt>
      <trkpt lat="47.3308000" lon="6.8452500">
        <ele>544.2</ele>
        <time>2022-07-20T16:49:30Z</time>
      </trkpt>
      <trkpt lat="47.3307950" lon="6.8452500">
        <ele>544.3</ele>
        <time>2022-07-20T16:49:31Z</time>
      </trkpt>
      <trkpt lat="47.3307890" lon="6.8452460">
        <ele>544.3</ele>
        <time>2022-07-20T16:49:32Z</time>
      </trkpt>
      <trkpt lat="47.3307830" lon="6.8452450">
        <ele>544.3</ele>
        <time>2022-07-20T16:49:33Z</time>
      </trkpt>
      <trkpt lat="47.3307810" lon="6.8452430">
        <ele>544.3</ele>
        <time>2022-07-20T16:49:34Z</time>
      </trkpt>
      <trkpt lat="47.3307800" lon="6.8452410">
        <ele>544.3</ele>
        <time>2022-07-20T16:49:35Z</time>
      </trkpt>
      <trkpt lat="47.3307790" lon="6.8452390">
        <ele>544.3</ele>
        <time>2022-07-20T16:49:36Z</time>
      </trkpt>
      <trkpt lat="47.3307780" lon="6.8452380">
        <ele>544.3</ele>
        <time>2022-07-20T16:49:37Z</time>
      </trkpt>
      <trkpt lat="47.3307770" lon="6.8452370">
        <ele>544.3</ele>
        <time>2022-07-20T16:49:38Z</time>
      </trkpt>
      <trkpt lat="47.3307750" lon="6.8452370">
        <ele>544.3</ele>
        <time>2022-07-20T16:49:39Z</time>
      </trkpt>
      <trkpt lat="47.3307740" lon="6.8452380">
        <ele>544.3</ele>
        <time>2022-07-20T16:49:40Z</time>
      </trkpt>
      <trkpt lat="47.3307740" lon="6.8452380">
        <ele>544.3</ele>
        <time>2022-07-20T16:49:41Z</time>
      </trkpt>
      <trkpt lat="47.3307730" lon="6.8452390">
        <ele>544.3</ele>
        <time>2022-07-20T16:49:42Z</time>
      </trkpt>
      <trkpt lat="47.3307730" lon="6.8452390">
        <ele>544.3</ele>
        <time>2022-07-20T16:49:43Z</time>
      </trkpt>
      <trkpt lat="47.3307730" lon="6.8452400">
        <ele>544.3</ele>
        <time>2022-07-20T16:49:44Z</time>
      </trkpt>
      <trkpt lat="47.3307730" lon="6.8452400">
        <ele>544.3</ele>
        <time>2022-07-20T16:49:45Z</time>
      </trkpt>
      <trkpt lat="47.3307840" lon="6.8452000">
        <ele>544.3</ele>
        <time>2022-07-20T16:51:27Z</time>
      </trkpt>
      <trkpt lat="47.3307790" lon="6.8451830">
        <ele>544.3</ele>
        <time>2022-07-20T16:51:29Z</time>
      </trkpt>
      <trkpt lat="47.3307790" lon="6.8451790">
        <ele>544.3</ele>
        <time>2022-07-20T16:51:30Z</time>
      </trkpt>
      <trkpt lat="47.3307810" lon="6.8451700">
        <ele>544.3</ele>
        <time>2022-07-20T16:51:31Z</time>
      </trkpt>
      <trkpt lat="47.3307810" lon="6.8451600">
        <ele>544.3</ele>
        <time>2022-07-20T16:51:32Z</time>
      </trkpt>
      <trkpt lat="47.3307780" lon="6.8451240">
        <ele>544.3</ele>
        <time>2022-07-20T16:51:33Z</time>
      </trkpt>
      <trkpt lat="47.3307780" lon="6.8450960">
        <ele>544.2</ele>
        <time>2022-07-20T16:51:35Z</time>
      </trkpt>
      <trkpt lat="47.3307740" lon="6.8450520">
        <ele>544.1</ele>
        <time>2022-07-20T16:51:36Z</time>
      </trkpt>
      <trkpt lat="47.3307720" lon="6.8450320">
        <ele>544.1</ele>
        <time>2022-07-20T16:51:37Z</time>
      </trkpt>
      <trkpt lat="47.3307680" lon="6.8450040">
        <ele>544.0</ele>
        <time>2022-07-20T16:51:39Z</time>
      </trkpt>
      <trkpt lat="47.3307680" lon="6.8449950">
        <ele>543.9</ele>
        <time>2022-07-20T16:51:40Z</time>
      </trkpt>
      <trkpt lat="47.3307670" lon="6.8449870">
        <ele>543.9</ele>
        <time>2022-07-20T16:51:41Z</time>
      </trkpt>
      <trkpt lat="47.3307650" lon="6.8449760">
        <ele>543.8</ele>
        <time>2022-07-20T16:51:42Z</time>
      </trkpt>
      <trkpt lat="47.3307640" lon="6.8449670">
        <ele>543.8</ele>
        <time>2022-07-20T16:51:43Z</time>
      </trkpt>
      <trkpt lat="47.3307610" lon="6.8449580">
        <ele>543.7</ele>
        <time>2022-07-20T16:51:44Z</time>
      </trkpt>
      <trkpt lat="47.3307580" lon="6.8449470">
        <ele>543.7</ele>
        <time>2022-07-20T16:51:45Z</time>
      </trkpt>
      <trkpt lat="47.3307570" lon="6.8449360">
        <ele>543.6</ele>
        <time>2022-07-20T16:51:46Z</time>
      </trkpt>
      <trkpt lat="47.3307490" lon="6.8449070">
        <ele>543.4</ele>
        <time>2022-07-20T16:51:47Z</time>
      </trkpt>
      <trkpt lat="47.3307390" lon="6.8448550">
        <ele>543.1</ele>
        <time>2022-07-20T16:51:49Z</time>
      </trkpt>
      <trkpt lat="47.3307350" lon="6.8448340">
        <ele>542.9</ele>
        <time>2022-07-20T16:51:50Z</time>
      </trkpt>
      <trkpt lat="47.3307260" lon="6.8447890">
        <ele>542.6</ele>
        <time>2022-07-20T16:51:51Z</time>
      </trkpt>
      <trkpt lat="47.3307230" lon="6.8447680">
        <ele>542.4</ele>
        <time>2022-07-20T16:51:53Z</time>
      </trkpt>
      <trkpt lat="47.3307220" lon="6.8447510">
        <ele>542.3</ele>
        <time>2022-07-20T16:51:54Z</time>
      </trkpt>
      <trkpt lat="47.3307170" lon="6.8447400">
        <ele>542.2</ele>
        <time>2022-07-20T16:51:55Z</time>
      </trkpt>
      <trkpt lat="47.3307140" lon="6.8447310">
        <ele>542.1</ele>
        <time>2022-07-20T16:51:56Z</time>
      </trkpt>
      <trkpt lat="47.3307100" lon="6.8447180">
        <ele>542.0</ele>
        <time>2022-07-20T16:51:58Z</time>
      </trkpt>
      <trkpt lat="47.3307070" lon="6.8447080">
        <ele>541.9</ele>
        <time>2022-07-20T16:51:59Z</time>
      </trkpt>
      <trkpt lat="47.3307030" lon="6.8446950">
        <ele>541.8</ele>
        <time>2022-07-20T16:52:00Z</time>
      </trkpt>
      <trkpt lat="47.3306950" lon="6.8446830">
        <ele>541.7</ele>
        <time>2022-07-20T16:52:01Z</time>
      </trkpt>
      <trkpt lat="47.3306880" lon="6.8446700">
        <ele>541.5</ele>
        <time>2022-07-20T16:52:02Z</time>
      </trkpt>
      <trkpt lat="47.3306830" lon="6.8446570">
        <ele>541.4</ele>
        <time>2022-07-20T16:52:03Z</time>
      </trkpt>
      <trkpt lat="47.3306680" lon="6.8446310">
        <ele>541.1</ele>
        <time>2022-07-20T16:52:04Z</time>
      </trkpt>
      <trkpt lat="47.3306570" lon="6.8446120">
        <ele>540.9</ele>
        <time>2022-07-20T16:52:06Z</time>
      </trkpt>
      <trkpt lat="47.3306460" lon="6.8445970">
        <ele>540.7</ele>
        <time>2022-07-20T16:52:07Z</time>
      </trkpt>
      <trkpt lat="47.3306370" lon="6.8445820">
        <ele>540.6</ele>
        <time>2022-07-20T16:52:08Z</time>
      </trkpt>
      <trkpt lat="47.3306210" lon="6.8445640">
        <ele>540.3</ele>
        <time>2022-07-20T16:52:09Z</time>
      </trkpt>
      <trkpt lat="47.3306090" lon="6.8445510">
        <ele>540.1</ele>
        <time>2022-07-20T16:52:10Z</time>
      </trkpt>
      <trkpt lat="47.3306010" lon="6.8445410">
        <ele>539.9</ele>
        <time>2022-07-20T16:52:11Z</time>
      </trkpt>
      <trkpt lat="47.3305910" lon="6.8445260">
        <ele>539.7</ele>
        <time>2022-07-20T16:52:13Z</time>
      </trkpt>
      <trkpt lat="47.3305840" lon="6.8445150">
        <ele>539.6</ele>
        <time>2022-07-20T16:52:14Z</time>
      </trkpt>
      <trkpt lat="47.3305740" lon="6.8445000">
        <ele>539.3</ele>
        <time>2022-07-20T16:52:15Z</time>
      </trkpt>
      <trkpt lat="47.3305630" lon="6.8444810">
        <ele>539.1</ele>
        <time>2022-07-20T16:52:17Z</time>
      </trkpt>
      <trkpt lat="47.3305580" lon="6.8444730">
        <ele>539.0</ele>
        <time>2022-07-20T16:52:18Z</time>
      </trkpt>
      <trkpt lat="47.3305490" lon="6.8444590">
        <ele>538.8</ele>
        <time>2022-07-20T16:52:19Z</time>
      </trkpt>
      <trkpt lat="47.3305400" lon="6.8444450">
        <ele>538.6</ele>
        <time>2022-07-20T16:52:20Z</time>
      </trkpt>
      <trkpt lat="47.3305330" lon="6.8444350">
        <ele>538.4</ele>
        <time>2022-07-20T16:52:21Z</time>
      </trkpt>
      <trkpt lat="47.3305260" lon="6.8444230">
        <ele>538.3</ele>
        <time>2022-07-20T16:52:22Z</time>
      </trkpt>
      <trkpt lat="47.3305220" lon="6.8444170">
        <ele>538.2</ele>
        <time>2022-07-20T16:52:23Z</time>
      </trkpt>
      <trkpt lat="47.3305170" lon="6.8444070">
        <ele>538.0</ele>
        <time>2022-07-20T16:52:24Z</time>
      </trkpt>
      <trkpt lat="47.3305130" lon="6.8443980">
        <ele>537.9</ele>
        <time>2022-07-20T16:52:26Z</time>
      </trkpt>
      <trkpt lat="47.3305080" lon="6.8443900">
        <ele>537.8</ele>
        <time>2022-07-20T16:52:27Z</time>
      </trkpt>
      <trkpt lat="47.3305040" lon="6.8443810">
        <ele>537.7</ele>
        <time>2022-07-20T16:52:28Z</time>
      </trkpt>
      <trkpt lat="47.3304960" lon="6.8443670">
        <ele>537.5</ele>
        <time>2022-07-20T16:52:29Z</time>
      </trkpt>
      <trkpt lat="47.3304700" lon="6.8443340">
        <ele>537.0</ele>
        <time>2022-07-20T16:52:31Z</time>
      </trkpt>
      <trkpt lat="47.3304470" lon="6.8443100">
        <ele>536.5</ele>
        <time>2022-07-20T16:52:32Z</time>
      </trkpt>
      <trkpt lat="47.3304190" lon="6.8442850">
        <ele>536.0</ele>
        <time>2022-07-20T16:52:33Z</time>
      </trkpt>
      <trkpt lat="47.3304080" lon="6.8442760">
        <ele>535.8</ele>
        <time>2022-07-20T16:52:34Z</time>
      </trkpt>
      <trkpt lat="47.3303990" lon="6.8442690">
        <ele>535.6</ele>
        <time>2022-07-20T16:52:35Z</time>
      </trkpt>
      <trkpt lat="47.3303860" lon="6.8442500">
        <ele>535.4</ele>
        <time>2022-07-20T16:52:36Z</time>
      </trkpt>
      <trkpt lat="47.3303740" lon="6.8442340">
        <ele>535.1</ele>
        <time>2022-07-20T16:52:37Z</time>
      </trkpt>
      <trkpt lat="47.3303500" lon="6.8442160">
        <ele>534.7</ele>
        <time>2022-07-20T16:52:39Z</time>
      </trkpt>
      <trkpt lat="47.3303280" lon="6.8442070">
        <ele>534.3</ele>
        <time>2022-07-20T16:52:40Z</time>
      </trkpt>
      <trkpt lat="47.3303150" lon="6.8442000">
        <ele>534.1</ele>
        <time>2022-07-20T16:52:41Z</time>
      </trkpt>
      <trkpt lat="47.3302880" lon="6.8441810">
        <ele>533.6</ele>
        <time>2022-07-20T16:52:42Z</time>
      </trkpt>
      <trkpt lat="47.3302810" lon="6.8441770">
        <ele>533.5</ele>
        <time>2022-07-20T16:52:43Z</time>
      </trkpt>
      <trkpt lat="47.3302540" lon="6.8441560">
        <ele>533.0</ele>
        <time>2022-07-20T16:52:45Z</time>
      </trkpt>
      <trkpt lat="47.3302450" lon="6.8441480">
        <ele>532.9</ele>
        <time>2022-07-20T16:52:46Z</time>
      </trkpt>
      <trkpt lat="47.3302210" lon="6.8441220">
        <ele>532.4</ele>
        <time>2022-07-20T16:52:47Z</time>
      </trkpt>
      <trkpt lat="47.3302030" lon="6.8441010">
        <ele>532.0</ele>
        <time>2022-07-20T16:52:49Z</time>
      </trkpt>
      <trkpt lat="47.3301980" lon="6.8440940">
        <ele>531.9</ele>
        <time>2022-07-20T16:52:50Z</time>
      </trkpt>
      <trkpt lat="47.3301930" lon="6.8440850">
        <ele>531.8</ele>
        <time>2022-07-20T16:52:51Z</time>
      </trkpt>
      <trkpt lat="47.3301890" lon="6.8440790">
        <ele>531.7</ele>
        <time>2022-07-20T16:52:52Z</time>
      </trkpt>
      <trkpt lat="47.3301850" lon="6.8440700">
        <ele>531.6</ele>
        <time>2022-07-20T16:52:54Z</time>
      </trkpt>
      <trkpt lat="47.3301820" lon="6.8440630">
        <ele>531.5</ele>
        <time>2022-07-20T16:52:55Z</time>
      </trkpt>
      <trkpt lat="47.3301780" lon="6.8440550">
        <ele>531.4</ele>
        <time>2022-07-20T16:52:56Z</time>
      </trkpt>
      <trkpt lat="47.3301710" lon="6.8440440">
        <ele>531.2</ele>
        <time>2022-07-20T16:52:58Z</time>
      </trkpt>
      <trkpt lat="47.3301670" lon="6.8440400">
        <ele>531.1</ele>
        <time>2022-07-20T16:52:59Z</time>
      </trkpt>
      <trkpt lat="47.3301630" lon="6.8440360">
        <ele>531.1</ele>
        <time>2022-07-20T16:53:00Z</time>
      </trkpt>
      <trkpt lat="47.3301600" lon="6.8440330">
        <ele>531.0</ele>
        <time>2022-07-20T16:53:01Z</time>
      </trkpt>
      <trkpt lat="47.3301550" lon="6.8440300">
        <ele>530.9</ele>
        <time>2022-07-20T16:53:02Z</time>
      </trkpt>
      <trkpt lat="47.3301500" lon="6.8440270">
        <ele>530.8</ele>
        <time>2022-07-20T16:53:03Z</time>
      </trkpt>
      <trkpt lat="47.3301460" lon="6.8440250">
        <ele>530.8</ele>
        <time>2022-07-20T16:53:04Z</time>
      </trkpt>
      <trkpt lat="47.3301410" lon="6.8440230">
        <ele>530.7</ele>
        <time>2022-07-20T16:53:05Z</time>
      </trkpt>
      <trkpt lat="47.3301380" lon="6.8440210">
        <ele>530.6</ele>
        <time>2022-07-20T16:53:06Z</time>
      </trkpt>
      <trkpt lat="47.3301360" lon="6.8440200">
        <ele>530.6</ele>
        <time>2022-07-20T16:53:07Z</time>
      </trkpt>
      <trkpt lat="47.3301350" lon="6.8440180">
        <ele>530.5</ele>
        <time>2022-07-20T16:53:08Z</time>
      </trkpt>
      <trkpt lat="47.3301340" lon="6.8440150">
        <ele>530.5</ele>
        <time>2022-07-20T16:53:09Z</time>
      </trkpt>
      <trkpt lat="47.3301310" lon="6.8440090">
        <ele>530.4</ele>
        <time>2022-07-20T16:53:11Z</time>
      </trkpt>
      <trkpt lat="47.3301290" lon="6.8440030">
        <ele>530.3</ele>
        <time>2022-07-20T16:53:12Z</time>
      </trkpt>
      <trkpt lat="47.3301250" lon="6.8439940">
        <ele>530.2</ele>
        <time>2022-07-20T16:53:13Z</time>
      </trkpt>
      <trkpt lat="47.3301230" lon="6.8439870">
        <ele>530.1</ele>
        <time>2022-07-20T16:53:15Z</time>
      </trkpt>
      <trkpt lat="47.3301210" lon="6.8439800">
        <ele>530.0</ele>
        <time>2022-07-20T16:53:16Z</time>
      </trkpt>
      <trkpt lat="47.3301170" lon="6.8439720">
        <ele>529.9</ele>
        <time>2022-07-20T16:53:17Z</time>
      </trkpt>
      <trkpt lat="47.3301010" lon="6.8439470">
        <ele>529.4</ele>
        <time>2022-07-20T16:53:18Z</time>
      </trkpt>
      <trkpt lat="47.3300960" lon="6.8439410">
        <ele>529.3</ele>
        <time>2022-07-20T16:53:20Z</time>
      </trkpt>
      <trkpt lat="47.3300910" lon="6.8439340">
        <ele>529.2</ele>
        <time>2022-07-20T16:53:21Z</time>
      </trkpt>
      <trkpt lat="47.3300870" lon="6.8439280">
        <ele>529.1</ele>
        <time>2022-07-20T16:53:22Z</time>
      </trkpt>
      <trkpt lat="47.3300810" lon="6.8439190">
        <ele>528.9</ele>
        <time>2022-07-20T16:53:23Z</time>
      </trkpt>
      <trkpt lat="47.3300780" lon="6.8439140">
        <ele>528.8</ele>
        <time>2022-07-20T16:53:24Z</time>
      </trkpt>
      <trkpt lat="47.3300710" lon="6.8438960">
        <ele>528.5</ele>
        <time>2022-07-20T16:53:25Z</time>
      </trkpt>
      <trkpt lat="47.3300650" lon="6.8438740">
        <ele>528.2</ele>
        <time>2022-07-20T16:53:27Z</time>
      </trkpt>
      <trkpt lat="47.3300610" lon="6.8438540">
        <ele>527.8</ele>
        <time>2022-07-20T16:53:28Z</time>
      </trkpt>
      <trkpt lat="47.3300510" lon="6.8438270">
        <ele>527.4</ele>
        <time>2022-07-20T16:53:30Z</time>
      </trkpt>
      <trkpt lat="47.3300460" lon="6.8438110">
        <ele>527.1</ele>
        <time>2022-07-20T16:53:31Z</time>
      </trkpt>
      <trkpt lat="47.3300430" lon="6.8437960">
        <ele>526.9</ele>
        <time>2022-07-20T16:53:32Z</time>
      </trkpt>
      <trkpt lat="47.3300380" lon="6.8437680">
        <ele>526.4</ele>
        <time>2022-07-20T16:53:34Z</time>
      </trkpt>
      <trkpt lat="47.3300370" lon="6.8437630">
        <ele>526.3</ele>
        <time>2022-07-20T16:53:35Z</time>
      </trkpt>
      <trkpt lat="47.3300370" lon="6.8437580">
        <ele>526.2</ele>
        <time>2022-07-20T16:53:36Z</time>
      </trkpt>
      <trkpt lat="47.3300380" lon="6.8437560">
        <ele>526.2</ele>
        <time>2022-07-20T16:53:37Z</time>
      </trkpt>
      <trkpt lat="47.3300390" lon="6.8437500">
        <ele>526.1</ele>
        <time>2022-07-20T16:53:38Z</time>
      </trkpt>
      <trkpt lat="47.3300390" lon="6.8437460">
        <ele>526.0</ele>
        <time>2022-07-20T16:53:39Z</time>
      </trkpt>
      <trkpt lat="47.3300380" lon="6.8437160">
        <ele>525.5</ele>
        <time>2022-07-20T16:53:40Z</time>
      </trkpt>
      <trkpt lat="47.3300340" lon="6.8436640">
        <ele>524.7</ele>
        <time>2022-07-20T16:53:41Z</time>
      </trkpt>
      <trkpt lat="47.3300310" lon="6.8436500">
        <ele>524.4</ele>
        <time>2022-07-20T16:53:42Z</time>
      </trkpt>
      <trkpt lat="47.3300180" lon="6.8435670">
        <ele>523.0</ele>
        <time>2022-07-20T16:53:43Z</time>
      </trkpt>
      <trkpt lat="47.3299870" lon="6.8434680">
        <ele>521.3</ele>
        <time>2022-07-20T16:53:44Z</time>
      </trkpt>
      <trkpt lat="47.3299480" lon="6.8433540">
        <ele>519.5</ele>
        <time>2022-07-20T16:53:45Z</time>
      </trkpt>
      <trkpt lat="47.3299030" lon="6.8432440">
        <ele>518.1</ele>
        <time>2022-07-20T16:53:46Z</time>
      </trkpt>
      <trkpt lat="47.3298520" lon="6.8431330">
        <ele>516.9</ele>
        <time>2022-07-20T16:53:47Z</time>
      </trkpt>
      <trkpt lat="47.3297950" lon="6.8430430">
        <ele>516.0</ele>
        <time>2022-07-20T16:53:48Z</time>
      </trkpt>
      <trkpt lat="47.3297680" lon="6.8429970">
        <ele>515.6</ele>
        <time>2022-07-20T16:53:49Z</time>
      </trkpt>
      <trkpt lat="47.3297610" lon="6.8430010">
        <ele>515.6</ele>
        <time>2022-07-20T16:53:50Z</time>
      </trkpt>
      <trkpt lat="47.3297520" lon="6.8429830">
        <ele>515.4</ele>
        <time>2022-07-20T16:53:52Z</time>
      </trkpt>
      <trkpt lat="47.3297430" lon="6.8429640">
        <ele>515.3</ele>
        <time>2022-07-20T16:53:53Z</time>
      </trkpt>
      <trkpt lat="47.3297340" lon="6.8429460">
        <ele>515.2</ele>
        <time>2022-07-20T16:53:54Z</time>
      </trkpt>
      <trkpt lat="47.3297240" lon="6.8429320">
        <ele>515.0</ele>
        <time>2022-07-20T16:53:55Z</time>
      </trkpt>
      <trkpt lat="47.3297190" lon="6.8428950">
        <ele>514.8</ele>
        <time>2022-07-20T16:53:57Z</time>
      </trkpt>
      <trkpt lat="47.3297050" lon="6.8428270">
        <ele>514.4</ele>
        <time>2022-07-20T16:53:58Z</time>
      </trkpt>
      <trkpt lat="47.3296970" lon="6.8427860">
        <ele>514.2</ele>
        <time>2022-07-20T16:53:59Z</time>
      </trkpt>
      <trkpt lat="47.3296750" lon="6.8427380">
        <ele>513.8</ele>
        <time>2022-07-20T16:54:00Z</time>
      </trkpt>
      <trkpt lat="47.3295970" lon="6.8426060">
        <ele>512.8</ele>
        <time>2022-07-20T16:54:02Z</time>
      </trkpt>
      <trkpt lat="47.3296220" lon="6.8425580">
        <ele>512.5</ele>
        <time>2022-07-20T16:54:04Z</time>
      </trkpt>
      <trkpt lat="47.3296110" lon="6.8425010">
        <ele>512.2</ele>
        <time>2022-07-20T16:54:05Z</time>
      </trkpt>
      <trkpt lat="47.3295970" lon="6.8424530">
        <ele>511.9</ele>
        <time>2022-07-20T16:54:06Z</time>
      </trkpt>
      <trkpt lat="47.3295920" lon="6.8424400">
        <ele>511.9</ele>
        <time>2022-07-20T16:54:07Z</time>
      </trkpt>
      <trkpt lat="47.3295860" lon="6.8423810">
        <ele>511.6</ele>
        <time>2022-07-20T16:54:08Z</time>
      </trkpt>
      <trkpt lat="47.3295840" lon="6.8423570">
        <ele>511.6</ele>
        <time>2022-07-20T16:54:09Z</time>
      </trkpt>
      <trkpt lat="47.3295740" lon="6.8423080">
        <ele>511.4</ele>
        <time>2022-07-20T16:54:11Z</time>
      </trkpt>
      <trkpt lat="47.3295690" lon="6.8422920">
        <ele>511.3</ele>
        <time>2022-07-20T16:54:12Z</time>
      </trkpt>
      <trkpt lat="47.3295590" lon="6.8422600">
        <ele>511.3</ele>
        <time>2022-07-20T16:54:13Z</time>
      </trkpt>
      <trkpt lat="47.3295560" lon="6.8422500">
        <ele>511.2</ele>
        <time>2022-07-20T16:54:14Z</time>
      </trkpt>
      <trkpt lat="47.3295540" lon="6.8422410">
        <ele>511.2</ele>
        <time>2022-07-20T16:54:15Z</time>
      </trkpt>
      <trkpt lat="47.3295490" lon="6.8422150">
        <ele>511.2</ele>
        <time>2022-07-20T16:54:16Z</time>
      </trkpt>
      <trkpt lat="47.3295420" lon="6.8421900">
        <ele>511.1</ele>
        <time>2022-07-20T16:54:18Z</time>
      </trkpt>
      <trkpt lat="47.3295190" lon="6.8421580">
        <ele>511.0</ele>
        <time>2022-07-20T16:54:19Z</time>
      </trkpt>
      <trkpt lat="47.3295080" lon="6.8421480">
        <ele>511.0</ele>
        <time>2022-07-20T16:54:20Z</time>
      </trkpt>
      <trkpt lat="47.3294800" lon="6.8421270">
        <ele>510.9</ele>
        <time>2022-07-20T16:54:21Z</time>
      </trkpt>
      <trkpt lat="47.3294730" lon="6.8421220">
        <ele>510.9</ele>
        <time>2022-07-20T16:54:22Z</time>
      </trkpt>
      <trkpt lat="47.3294380" lon="6.8420940">
        <ele>510.9</ele>
        <time>2022-07-20T16:54:23Z</time>
      </trkpt>
      <trkpt lat="47.3294090" lon="6.8420690">
        <ele>510.8</ele>
        <time>2022-07-20T16:54:25Z</time>
      </trkpt>
      <trkpt lat="47.3293980" lon="6.8420520">
        <ele>510.8</ele>
        <time>2022-07-20T16:54:26Z</time>
      </trkpt>
      <trkpt lat="47.3293840" lon="6.8420300">
        <ele>510.8</ele>
        <time>2022-07-20T16:54:27Z</time>
      </trkpt>
      <trkpt lat="47.3293700" lon="6.8419930">
        <ele>510.7</ele>
        <time>2022-07-20T16:54:28Z</time>
      </trkpt>
      <trkpt lat="47.3293660" lon="6.8419810">
        <ele>510.7</ele>
        <time>2022-07-20T16:54:29Z</time>
      </trkpt>
      <trkpt lat="47.3293450" lon="6.8419280">
        <ele>510.6</ele>
        <time>2022-07-20T16:54:30Z</time>
      </trkpt>
      <trkpt lat="47.3293370" lon="6.8419090">
        <ele>510.6</ele>
        <time>2022-07-20T16:54:31Z</time>
      </trkpt>
      <trkpt lat="47.3293190" lon="6.8418680">
        <ele>510.6</ele>
        <time>2022-07-20T16:54:32Z</time>
      </trkpt>
      <trkpt lat="47.3292790" lon="6.8417800">
        <ele>510.4</ele>
        <time>2022-07-20T16:54:34Z</time>
      </trkpt>
      <trkpt lat="47.3292590" lon="6.8417420">
        <ele>510.4</ele>
        <time>2022-07-20T16:54:35Z</time>
      </trkpt>
      <trkpt lat="47.3292480" lon="6.8417030">
        <ele>510.3</ele>
        <time>2022-07-20T16:54:36Z</time>
      </trkpt>
      <trkpt lat="47.3292300" lon="6.8416660">
        <ele>510.2</ele>
        <time>2022-07-20T16:54:37Z</time>
      </trkpt>
      <trkpt lat="47.3292200" lon="6.8416520">
        <ele>510.1</ele>
        <time>2022-07-20T16:54:38Z</time>
      </trkpt>
      <trkpt lat="47.3291950" lon="6.8416180">
        <ele>510.0</ele>
        <time>2022-07-20T16:54:40Z</time>
      </trkpt>
      <trkpt lat="47.3291830" lon="6.8416020">
        <ele>510.0</ele>
        <time>2022-07-20T16:54:41Z</time>
      </trkpt>
      <trkpt lat="47.3291690" lon="6.8415840">
        <ele>509.9</ele>
        <time>2022-07-20T16:54:42Z</time>
      </trkpt>
      <trkpt lat="47.3291490" lon="6.8415490">
        <ele>509.7</ele>
        <time>2022-07-20T16:54:43Z</time>
      </trkpt>
      <trkpt lat="47.3291270" lon="6.8415160">
        <ele>509.6</ele>
        <time>2022-07-20T16:54:44Z</time>
      </trkpt>
      <trkpt lat="47.3291000" lon="6.8414780">
        <ele>509.3</ele>
        <time>2022-07-20T16:54:45Z</time>
      </trkpt>
      <trkpt lat="47.3290620" lon="6.8414390">
        <ele>508.9</ele>
        <time>2022-07-20T16:54:47Z</time>
      </trkpt>
      <trkpt lat="47.3290310" lon="6.8414170">
        <ele>508.6</ele>
        <time>2022-07-20T16:54:48Z</time>
      </trkpt>
      <trkpt lat="47.3289950" lon="6.8413870">
        <ele>508.2</ele>
        <time>2022-07-20T16:54:49Z</time>
      </trkpt>
      <trkpt lat="47.3289760" lon="6.8413710">
        <ele>507.9</ele>
        <time>2022-07-20T16:54:50Z</time>
      </trkpt>
      <trkpt lat="47.3289640" lon="6.8413650">
        <ele>507.8</ele>
        <time>2022-07-20T16:54:51Z</time>
      </trkpt>
      <trkpt lat="47.3289520" lon="6.8413740">
        <ele>507.6</ele>
        <time>2022-07-20T16:54:52Z</time>
      </trkpt>
      <trkpt lat="47.3289320" lon="6.8413780">
        <ele>507.4</ele>
        <time>2022-07-20T16:54:53Z</time>
      </trkpt>
      <trkpt lat="47.3288800" lon="6.8413570">
        <ele>506.7</ele>
        <time>2022-07-20T16:54:54Z</time>
      </trkpt>
      <trkpt lat="47.3288540" lon="6.8413330">
        <ele>506.3</ele>
        <time>2022-07-20T16:54:55Z</time>
      </trkpt>
      <trkpt lat="47.3288090" lon="6.8412830">
        <ele>505.5</ele>
        <time>2022-07-20T16:54:56Z</time>
      </trkpt>
      <trkpt lat="47.3287440" lon="6.8411680">
        <ele>504.3</ele>
        <time>2022-07-20T16:54:57Z</time>
      </trkpt>
      <trkpt lat="47.3287260" lon="6.8411140">
        <ele>503.9</ele>
        <time>2022-07-20T16:54:58Z</time>
      </trkpt>
      <trkpt lat="47.3287130" lon="6.8410410">
        <ele>503.4</ele>
        <time>2022-07-20T16:54:59Z</time>
      </trkpt>
      <trkpt lat="47.3287050" lon="6.8409350">
        <ele>502.9</ele>
        <time>2022-07-20T16:55:01Z</time>
      </trkpt>
      <trkpt lat="47.3287090" lon="6.8408720">
        <ele>502.6</ele>
        <time>2022-07-20T16:55:02Z</time>
      </trkpt>
      <trkpt lat="47.3287100" lon="6.8408250">
        <ele>502.5</ele>
        <time>2022-07-20T16:55:03Z</time>
      </trkpt>
      <trkpt lat="47.3287110" lon="6.8407800">
        <ele>502.3</ele>
        <time>2022-07-20T16:55:04Z</time>
      </trkpt>
      <trkpt lat="47.3287110" lon="6.8407350">
        <ele>502.2</ele>
        <time>2022-07-20T16:55:05Z</time>
      </trkpt>
      <trkpt lat="47.3287120" lon="6.8406910">
        <ele>502.1</ele>
        <time>2022-07-20T16:55:06Z</time>
      </trkpt>
      <trkpt lat="47.3287150" lon="6.8406500">
        <ele>502.0</ele>
        <time>2022-07-20T16:55:07Z</time>
      </trkpt>
      <trkpt lat="47.3287310" lon="6.8406080">
        <ele>501.8</ele>
        <time>2022-07-20T16:55:08Z</time>
      </trkpt>
      <trkpt lat="47.3287580" lon="6.8405650">
        <ele>501.6</ele>
        <time>2022-07-20T16:55:10Z</time>
      </trkpt>
      <trkpt lat="47.3287650" lon="6.8405260">
        <ele>501.4</ele>
        <time>2022-07-20T16:55:11Z</time>
      </trkpt>
      <trkpt lat="47.3287800" lon="6.8404480">
        <ele>500.9</ele>
        <time>2022-07-20T16:55:13Z</time>
      </trkpt>
      <trkpt lat="47.3287910" lon="6.8403930">
        <ele>500.5</ele>
        <time>2022-07-20T16:55:14Z</time>
      </trkpt>
      <trkpt lat="47.3288030" lon="6.8403300">
        <ele>500.1</ele>
        <time>2022-07-20T16:55:15Z</time>
      </trkpt>
      <trkpt lat="47.3288170" lon="6.8402570">
        <ele>499.6</ele>
        <time>2022-07-20T16:55:16Z</time>
      </trkpt>
      <trkpt lat="47.3288310" lon="6.8401950">
        <ele>499.2</ele>
        <time>2022-07-20T16:55:17Z</time>
      </trkpt>
      <trkpt lat="47.3288570" lon="6.8401090">
        <ele>498.7</ele>
        <time>2022-07-20T16:55:19Z</time>
      </trkpt>
      <trkpt lat="47.3288840" lon="6.8400440">
        <ele>498.3</ele>
        <time>2022-07-20T16:55:20Z</time>
      </trkpt>
      <trkpt lat="47.3289050" lon="6.8399930">
        <ele>498.0</ele>
        <time>2022-07-20T16:55:21Z</time>
      </trkpt>
      <trkpt lat="47.3289270" lon="6.8399360">
        <ele>497.7</ele>
        <time>2022-07-20T16:55:22Z</time>
      </trkpt>
      <trkpt lat="47.3289360" lon="6.8398890">
        <ele>497.5</ele>
        <time>2022-07-20T16:55:24Z</time>
      </trkpt>
      <trkpt lat="47.3289410" lon="6.8398830">
        <ele>497.5</ele>
        <time>2022-07-20T16:55:25Z</time>
      </trkpt>
      <trkpt lat="47.3289410" lon="6.8398790">
        <ele>497.5</ele>
        <time>2022-07-20T16:55:26Z</time>
      </trkpt>
      <trkpt lat="47.3289450" lon="6.8398660">
        <ele>497.4</ele>
        <time>2022-07-20T16:55:27Z</time>
      </trkpt>
      <trkpt lat="47.3289480" lon="6.8398470">
        <ele>497.4</ele>
        <time>2022-07-20T16:55:28Z</time>
      </trkpt>
      <trkpt lat="47.3289390" lon="6.8397940">
        <ele>497.2</ele>
        <time>2022-07-20T16:55:30Z</time>
      </trkpt>
      <trkpt lat="47.3289330" lon="6.8397720">
        <ele>497.2</ele>
        <time>2022-07-20T16:55:31Z</time>
      </trkpt>
      <trkpt lat="47.3289200" lon="6.8397250">
        <ele>497.0</ele>
        <time>2022-07-20T16:55:32Z</time>
      </trkpt>
      <trkpt lat="47.3289070" lon="6.8396880">
        <ele>496.9</ele>
        <time>2022-07-20T16:55:33Z</time>
      </trkpt>
      <trkpt lat="47.3288960" lon="6.8396500">
        <ele>496.8</ele>
        <time>2022-07-20T16:55:35Z</time>
      </trkpt>
      <trkpt lat="47.3288950" lon="6.8396100">
        <ele>496.7</ele>
        <time>2022-07-20T16:55:36Z</time>
      </trkpt>
      <trkpt lat="47.3289020" lon="6.8395670">
        <ele>496.7</ele>
        <time>2022-07-20T16:55:37Z</time>
      </trkpt>
      <trkpt lat="47.3289050" lon="6.8395470">
        <ele>496.6</ele>
        <time>2022-07-20T16:55:38Z</time>
      </trkpt>
      <trkpt lat="47.3289100" lon="6.8394850">
        <ele>496.5</ele>
        <time>2022-07-20T16:55:40Z</time>
      </trkpt>
      <trkpt lat="47.3289110" lon="6.8394620">
        <ele>496.5</ele>
        <time>2022-07-20T16:55:41Z</time>
      </trkpt>
      <trkpt lat="47.3289110" lon="6.8394390">
        <ele>496.5</ele>
        <time>2022-07-20T16:55:42Z</time>
      </trkpt>
      <trkpt lat="47.3289030" lon="6.8393870">
        <ele>496.4</ele>
        <time>2022-07-20T16:55:43Z</time>
      </trkpt>
      <trkpt lat="47.3288990" lon="6.8393620">
        <ele>496.4</ele>
        <time>2022-07-20T16:55:44Z</time>
      </trkpt>
      <trkpt lat="47.3288900" lon="6.8393170">
        <ele>496.3</ele>
        <time>2022-07-20T16:55:46Z</time>
      </trkpt>
      <trkpt lat="47.3288790" lon="6.8392780">
        <ele>496.2</ele>
        <time>2022-07-20T16:55:47Z</time>
      </trkpt>
      <trkpt lat="47.3288670" lon="6.8392140">
        <ele>496.0</ele>
        <time>2022-07-20T16:55:48Z</time>
      </trkpt>
      <trkpt lat="47.3288570" lon="6.8391690">
        <ele>495.8</ele>
        <time>2022-07-20T16:55:49Z</time>
      </trkpt>
      <trkpt lat="47.3288540" lon="6.8391250">
        <ele>495.6</ele>
        <time>2022-07-20T16:55:50Z</time>
      </trkpt>
      <trkpt lat="47.3288510" lon="6.8390680">
        <ele>495.3</ele>
        <time>2022-07-20T16:55:52Z</time>
      </trkpt>
      <trkpt lat="47.3288520" lon="6.8390150">
        <ele>495.1</ele>
        <time>2022-07-20T16:55:53Z</time>
      </trkpt>
      <trkpt lat="47.3288570" lon="6.8389700">
        <ele>494.8</ele>
        <time>2022-07-20T16:55:54Z</time>
      </trkpt>
      <trkpt lat="47.3288690" lon="6.8389070">
        <ele>494.4</ele>
        <time>2022-07-20T16:55:56Z</time>
      </trkpt>
      <trkpt lat="47.3288730" lon="6.8388830">
        <ele>494.2</ele>
        <time>2022-07-20T16:55:57Z</time>
      </trkpt>
      <trkpt lat="47.3288780" lon="6.8388580">
        <ele>494.1</ele>
        <time>2022-07-20T16:55:58Z</time>
      </trkpt>
      <trkpt lat="47.3288800" lon="6.8388250">
        <ele>493.9</ele>
        <time>2022-07-20T16:55:59Z</time>
      </trkpt>
      <trkpt lat="47.3288770" lon="6.8387600">
        <ele>493.5</ele>
        <time>2022-07-20T16:56:01Z</time>
      </trkpt>
      <trkpt lat="47.3288680" lon="6.8387210">
        <ele>493.2</ele>
        <time>2022-07-20T16:56:02Z</time>
      </trkpt>
      <trkpt lat="47.3288550" lon="6.8386840">
        <ele>493.0</ele>
        <time>2022-07-20T16:56:03Z</time>
      </trkpt>
      <trkpt lat="47.3288400" lon="6.8386420">
        <ele>492.8</ele>
        <time>2022-07-20T16:56:04Z</time>
      </trkpt>
      <trkpt lat="47.3288220" lon="6.8385880">
        <ele>492.5</ele>
        <time>2022-07-20T16:56:05Z</time>
      </trkpt>
      <trkpt lat="47.3288050" lon="6.8385430">
        <ele>492.3</ele>
        <time>2022-07-20T16:56:06Z</time>
      </trkpt>
      <trkpt lat="47.3287810" lon="6.8384860">
        <ele>492.1</ele>
        <time>2022-07-20T16:56:07Z</time>
      </trkpt>
      <trkpt lat="47.3287560" lon="6.8384370">
        <ele>492.0</ele>
        <time>2022-07-20T16:56:09Z</time>
      </trkpt>
      <trkpt lat="47.3287500" lon="6.8384220">
        <ele>492.0</ele>
        <time>2022-07-20T16:56:10Z</time>
      </trkpt>
      <trkpt lat="47.3287390" lon="6.8383940">
        <ele>491.9</ele>
        <time>2022-07-20T16:56:11Z</time>
      </trkpt>
      <trkpt lat="47.3287300" lon="6.8383710">
        <ele>491.9</ele>
        <time>2022-07-20T16:56:12Z</time>
      </trkpt>
      <trkpt lat="47.3287200" lon="6.8383500">
        <ele>491.8</ele>
        <time>2022-07-20T16:56:13Z</time>
      </trkpt>
      <trkpt lat="47.3286930" lon="6.8383080">
        <ele>491.7</ele>
        <time>2022-07-20T16:56:14Z</time>
      </trkpt>
      <trkpt lat="47.3286670" lon="6.8382660">
        <ele>491.7</ele>
        <time>2022-07-20T16:56:16Z</time>
      </trkpt>
      <trkpt lat="47.3286600" lon="6.8382560">
        <ele>491.6</ele>
        <time>2022-07-20T16:56:18Z</time>
      </trkpt>
      <trkpt lat="47.3286570" lon="6.8382500">
        <ele>491.6</ele>
        <time>2022-07-20T16:56:19Z</time>
      </trkpt>
      <trkpt lat="47.3286590" lon="6.8382500">
        <ele>491.6</ele>
        <time>2022-07-20T16:56:20Z</time>
      </trkpt>
      <trkpt lat="47.3286590" lon="6.8382480">
        <ele>491.6</ele>
        <time>2022-07-20T16:56:21Z</time>
      </trkpt>
      <trkpt lat="47.3286600" lon="6.8382440">
        <ele>491.6</ele>
        <time>2022-07-20T16:56:23Z</time>
      </trkpt>
      <trkpt lat="47.3286600" lon="6.8382410">
        <ele>491.6</ele>
        <time>2022-07-20T16:56:24Z</time>
      </trkpt>
      <trkpt lat="47.3286610" lon="6.8382360">
        <ele>491.6</ele>
        <time>2022-07-20T16:56:25Z</time>
      </trkpt>
      <trkpt lat="47.3286630" lon="6.8382240">
        <ele>491.6</ele>
        <time>2022-07-20T16:56:27Z</time>
      </trkpt>
      <trkpt lat="47.3286620" lon="6.8382040">
        <ele>491.6</ele>
        <time>2022-07-20T16:56:28Z</time>
      </trkpt>
      <trkpt lat="47.3286570" lon="6.8381970">
        <ele>491.5</ele>
        <time>2022-07-20T16:56:29Z</time>
      </trkpt>
      <trkpt lat="47.3286470" lon="6.8381850">
        <ele>491.5</ele>
        <time>2022-07-20T16:56:30Z</time>
      </trkpt>
      <trkpt lat="47.3286310" lon="6.8381790">
        <ele>491.5</ele>
        <time>2022-07-20T16:56:31Z</time>
      </trkpt>
      <trkpt lat="47.3286170" lon="6.8381710">
        <ele>491.5</ele>
        <time>2022-07-20T16:56:32Z</time>
      </trkpt>
      <trkpt lat="47.3285940" lon="6.8381500">
        <ele>491.4</ele>
        <time>2022-07-20T16:56:34Z</time>
      </trkpt>
      <trkpt lat="47.3285850" lon="6.8381350">
        <ele>491.4</ele>
        <time>2022-07-20T16:56:35Z</time>
      </trkpt>
      <trkpt lat="47.3285800" lon="6.8381240">
        <ele>491.4</ele>
        <time>2022-07-20T16:56:36Z</time>
      </trkpt>
      <trkpt lat="47.3285800" lon="6.8381170">
        <ele>491.4</ele>
        <time>2022-07-20T16:56:37Z</time>
      </trkpt>
      <trkpt lat="47.3285800" lon="6.8381110">
        <ele>491.4</ele>
        <time>2022-07-20T16:56:38Z</time>
      </trkpt>
      <trkpt lat="47.3285680" lon="6.8380810">
        <ele>491.3</ele>
        <time>2022-07-20T16:56:39Z</time>
      </trkpt>
      <trkpt lat="47.3285560" lon="6.8380540">
        <ele>491.3</ele>
        <time>2022-07-20T16:56:40Z</time>
      </trkpt>
      <trkpt lat="47.3285440" lon="6.8380270">
        <ele>491.3</ele>
        <time>2022-07-20T16:56:42Z</time>
      </trkpt>
      <trkpt lat="47.3285310" lon="6.8380000">
        <ele>491.2</ele>
        <time>2022-07-20T16:56:43Z</time>
      </trkpt>
      <trkpt lat="47.3285190" lon="6.8379730">
        <ele>491.2</ele>
        <time>2022-07-20T16:56:44Z</time>
      </trkpt>
      <trkpt lat="47.3284930" lon="6.8379140">
        <ele>491.1</ele>
        <time>2022-07-20T16:56:46Z</time>
      </trkpt>
      <trkpt lat="47.3284800" lon="6.8378640">
        <ele>491.1</ele>
        <time>2022-07-20T16:56:47Z</time>
      </trkpt>
      <trkpt lat="47.3284670" lon="6.8378110">
        <ele>491.0</ele>
        <time>2022-07-20T16:56:48Z</time>
      </trkpt>
      <trkpt lat="47.3284630" lon="6.8377930">
        <ele>491.0</ele>
        <time>2022-07-20T16:56:49Z</time>
      </trkpt>
      <trkpt lat="47.3284530" lon="6.8377400">
        <ele>490.9</ele>
        <time>2022-07-20T16:56:50Z</time>
      </trkpt>
      <trkpt lat="47.3284480" lon="6.8377210">
        <ele>490.9</ele>
        <time>2022-07-20T16:56:51Z</time>
      </trkpt>
      <trkpt lat="47.3284400" lon="6.8376450">
        <ele>490.7</ele>
        <time>2022-07-20T16:56:52Z</time>
      </trkpt>
      <trkpt lat="47.3284290" lon="6.8375710">
        <ele>490.6</ele>
        <time>2022-07-20T16:56:53Z</time>
      </trkpt>
      <trkpt lat="47.3284100" lon="6.8374820">
        <ele>490.4</ele>
        <time>2022-07-20T16:56:55Z</time>
      </trkpt>
      <trkpt lat="47.3283930" lon="6.8374000">
        <ele>490.2</ele>
        <time>2022-07-20T16:56:56Z</time>
      </trkpt>
      <trkpt lat="47.3283780" lon="6.8373430">
        <ele>490.2</ele>
        <time>2022-07-20T16:56:57Z</time>
      </trkpt>
      <trkpt lat="47.3283630" lon="6.8372900">
        <ele>490.2</ele>
        <time>2022-07-20T16:56:58Z</time>
      </trkpt>
      <trkpt lat="47.3283450" lon="6.8372400">
        <ele>490.2</ele>
        <time>2022-07-20T16:56:59Z</time>
      </trkpt>
      <trkpt lat="47.3283300" lon="6.8372010">
        <ele>490.2</ele>
        <time>2022-07-20T16:57:00Z</time>
      </trkpt>
      <trkpt lat="47.3283100" lon="6.8371620">
        <ele>490.3</ele>
        <time>2022-07-20T16:57:01Z</time>
      </trkpt>
      <trkpt lat="47.3282940" lon="6.8371280">
        <ele>490.3</ele>
        <time>2022-07-20T16:57:02Z</time>
      </trkpt>
      <trkpt lat="47.3282650" lon="6.8370690">
        <ele>490.4</ele>
        <time>2022-07-20T16:57:03Z</time>
      </trkpt>
      <trkpt lat="47.3282520" lon="6.8370430">
        <ele>490.4</ele>
        <time>2022-07-20T16:57:04Z</time>
      </trkpt>
      <trkpt lat="47.3282320" lon="6.8369960">
        <ele>490.4</ele>
        <time>2022-07-20T16:57:06Z</time>
      </trkpt>
      <trkpt lat="47.3282160" lon="6.8369450">
        <ele>490.4</ele>
        <time>2022-07-20T16:57:07Z</time>
      </trkpt>
      <trkpt lat="47.3282110" lon="6.8369260">
        <ele>490.4</ele>
        <time>2022-07-20T16:57:08Z</time>
      </trkpt>
      <trkpt lat="47.3281930" lon="6.8368690">
        <ele>490.4</ele>
        <time>2022-07-20T16:57:10Z</time>
      </trkpt>
      <trkpt lat="47.3281770" lon="6.8368270">
        <ele>490.3</ele>
        <time>2022-07-20T16:57:11Z</time>
      </trkpt>
      <trkpt lat="47.3281640" lon="6.8367880">
        <ele>490.2</ele>
        <time>2022-07-20T16:57:12Z</time>
      </trkpt>
      <trkpt lat="47.3281450" lon="6.8367410">
        <ele>490.1</ele>
        <time>2022-07-20T16:57:13Z</time>
      </trkpt>
      <trkpt lat="47.3281250" lon="6.8366590">
        <ele>489.9</ele>
        <time>2022-07-20T16:57:14Z</time>
      </trkpt>
      <trkpt lat="47.3281180" lon="6.8366140">
        <ele>489.8</ele>
        <time>2022-07-20T16:57:16Z</time>
      </trkpt>
      <trkpt lat="47.3281120" lon="6.8365870">
        <ele>489.7</ele>
        <time>2022-07-20T16:57:17Z</time>
      </trkpt>
      <trkpt lat="47.3281030" lon="6.8365680">
        <ele>489.7</ele>
        <time>2022-07-20T16:57:18Z</time>
      </trkpt>
      <trkpt lat="47.3281110" lon="6.8365100">
        <ele>489.6</ele>
        <time>2022-07-20T16:57:20Z</time>
      </trkpt>
      <trkpt lat="47.3281130" lon="6.8364850">
        <ele>489.6</ele>
        <time>2022-07-20T16:57:21Z</time>
      </trkpt>
      <trkpt lat="47.3281090" lon="6.8364320">
        <ele>489.6</ele>
        <time>2022-07-20T16:57:22Z</time>
      </trkpt>
      <trkpt lat="47.3280990" lon="6.8363490">
        <ele>489.6</ele>
        <time>2022-07-20T16:57:24Z</time>
      </trkpt>
      <trkpt lat="47.3280930" lon="6.8363100">
        <ele>489.7</ele>
        <time>2022-07-20T16:57:25Z</time>
      </trkpt>
      <trkpt lat="47.3280900" lon="6.8362820">
        <ele>489.7</ele>
        <time>2022-07-20T16:57:26Z</time>
      </trkpt>
      <trkpt lat="47.3280770" lon="6.8362480">
        <ele>489.8</ele>
        <time>2022-07-20T16:57:27Z</time>
      </trkpt>
      <trkpt lat="47.3280680" lon="6.8362180">
        <ele>489.9</ele>
        <time>2022-07-20T16:57:29Z</time>
      </trkpt>
      <trkpt lat="47.3280690" lon="6.8361970">
        <ele>490.0</ele>
        <time>2022-07-20T16:57:30Z</time>
      </trkpt>
      <trkpt lat="47.3280680" lon="6.8361780">
        <ele>490.1</ele>
        <time>2022-07-20T16:57:31Z</time>
      </trkpt>
      <trkpt lat="47.3280680" lon="6.8361650">
        <ele>490.1</ele>
        <time>2022-07-20T16:57:32Z</time>
      </trkpt>
      <trkpt lat="47.3280630" lon="6.8361430">
        <ele>490.2</ele>
        <time>2022-07-20T16:57:33Z</time>
      </trkpt>
      <trkpt lat="47.3280490" lon="6.8360900">
        <ele>490.3</ele>
        <time>2022-07-20T16:57:35Z</time>
      </trkpt>
      <trkpt lat="47.3280410" lon="6.8360500">
        <ele>490.4</ele>
        <time>2022-07-20T16:57:36Z</time>
      </trkpt>
      <trkpt lat="47.3280310" lon="6.8359790">
        <ele>490.6</ele>
        <time>2022-07-20T16:57:37Z</time>
      </trkpt>
      <trkpt lat="47.3280270" lon="6.8359470">
        <ele>490.6</ele>
        <time>2022-07-20T16:57:38Z</time>
      </trkpt>
      <trkpt lat="47.3280210" lon="6.8358650">
        <ele>490.7</ele>
        <time>2022-07-20T16:57:40Z</time>
      </trkpt>
      <trkpt lat="47.3280170" lon="6.8357920">
        <ele>490.7</ele>
        <time>2022-07-20T16:57:41Z</time>
      </trkpt>
      <trkpt lat="47.3280170" lon="6.8357570">
        <ele>490.8</ele>
        <time>2022-07-20T16:57:42Z</time>
      </trkpt>
      <trkpt lat="47.3280220" lon="6.8357110">
        <ele>490.8</ele>
        <time>2022-07-20T16:57:43Z</time>
      </trkpt>
      <trkpt lat="47.3280270" lon="6.8356490">
        <ele>490.8</ele>
        <time>2022-07-20T16:57:45Z</time>
      </trkpt>
      <trkpt lat="47.3280250" lon="6.8356040">
        <ele>490.9</ele>
        <time>2022-07-20T16:57:46Z</time>
      </trkpt>
      <trkpt lat="47.3280110" lon="6.8355420">
        <ele>490.9</ele>
        <time>2022-07-20T16:57:47Z</time>
      </trkpt>
      <trkpt lat="47.3280080" lon="6.8354930">
        <ele>491.0</ele>
        <time>2022-07-20T16:57:48Z</time>
      </trkpt>
      <trkpt lat="47.3280030" lon="6.8354470">
        <ele>491.0</ele>
        <time>2022-07-20T16:57:49Z</time>
      </trkpt>
      <trkpt lat="47.3280010" lon="6.8354030">
        <ele>491.1</ele>
        <time>2022-07-20T16:57:50Z</time>
      </trkpt>
      <trkpt lat="47.3280060" lon="6.8353220">
        <ele>491.2</ele>
        <time>2022-07-20T16:57:52Z</time>
      </trkpt>
      <trkpt lat="47.3280150" lon="6.8352730">
        <ele>491.3</ele>
        <time>2022-07-20T16:57:53Z</time>
      </trkpt>
      <trkpt lat="47.3280140" lon="6.8352240">
        <ele>491.4</ele>
        <time>2022-07-20T16:57:54Z</time>
      </trkpt>
      <trkpt lat="47.3280090" lon="6.8351840">
        <ele>491.5</ele>
        <time>2022-07-20T16:57:55Z</time>
      </trkpt>
      <trkpt lat="47.3280050" lon="6.8351410">
        <ele>491.6</ele>
        <time>2022-07-20T16:57:57Z</time>
      </trkpt>
      <trkpt lat="47.3280010" lon="6.8351000">
        <ele>491.7</ele>
        <time>2022-07-20T16:57:58Z</time>
      </trkpt>
      <trkpt lat="47.3279970" lon="6.8350710">
        <ele>491.8</ele>
        <time>2022-07-20T16:57:59Z</time>
      </trkpt>
      <trkpt lat="47.3280010" lon="6.8350400">
        <ele>491.9</ele>
        <time>2022-07-20T16:58:01Z</time>
      </trkpt>
      <trkpt lat="47.3280080" lon="6.8349930">
        <ele>492.0</ele>
        <time>2022-07-20T16:58:02Z</time>
      </trkpt>
      <trkpt lat="47.3280110" lon="6.8349760">
        <ele>492.0</ele>
        <time>2022-07-20T16:58:03Z</time>
      </trkpt>
      <trkpt lat="47.3280140" lon="6.8349180">
        <ele>492.1</ele>
        <time>2022-07-20T16:58:04Z</time>
      </trkpt>
      <trkpt lat="47.3280160" lon="6.8348950">
        <ele>492.1</ele>
        <time>2022-07-20T16:58:05Z</time>
      </trkpt>
      <trkpt lat="47.3280260" lon="6.8348360">
        <ele>492.2</ele>
        <time>2022-07-20T16:58:07Z</time>
      </trkpt>
      <trkpt lat="47.3280300" lon="6.8347810">
        <ele>492.3</ele>
        <time>2022-07-20T16:58:08Z</time>
      </trkpt>
      <trkpt lat="47.3280350" lon="6.8347350">
        <ele>492.4</ele>
        <time>2022-07-20T16:58:09Z</time>
      </trkpt>
      <trkpt lat="47.3280360" lon="6.8347260">
        <ele>492.4</ele>
        <time>2022-07-20T16:58:10Z</time>
      </trkpt>
      <trkpt lat="47.3280420" lon="6.8346970">
        <ele>492.5</ele>
        <time>2022-07-20T16:58:11Z</time>
      </trkpt>
      <trkpt lat="47.3280490" lon="6.8346640">
        <ele>492.5</ele>
        <time>2022-07-20T16:58:13Z</time>
      </trkpt>
      <trkpt lat="47.3280540" lon="6.8346250">
        <ele>492.6</ele>
        <time>2022-07-20T16:58:14Z</time>
      </trkpt>
      <trkpt lat="47.3280580" lon="6.8345800">
        <ele>492.7</ele>
        <time>2022-07-20T16:58:15Z</time>
      </trkpt>
      <trkpt lat="47.3280550" lon="6.8345220">
        <ele>492.8</ele>
        <time>2022-07-20T16:58:16Z</time>
      </trkpt>
      <trkpt lat="47.3280540" lon="6.8344990">
        <ele>492.8</ele>
        <time>2022-07-20T16:58:17Z</time>
      </trkpt>
      <trkpt lat="47.3280490" lon="6.8344490">
        <ele>492.9</ele>
        <time>2022-07-20T16:58:18Z</time>
      </trkpt>
      <trkpt lat="47.3280470" lon="6.8344080">
        <ele>493.0</ele>
        <time>2022-07-20T16:58:19Z</time>
      </trkpt>
      <trkpt lat="47.3280470" lon="6.8343760">
        <ele>493.1</ele>
        <time>2022-07-20T16:58:20Z</time>
      </trkpt>
      <trkpt lat="47.3280500" lon="6.8343350">
        <ele>493.2</ele>
        <time>2022-07-20T16:58:22Z</time>
      </trkpt>
      <trkpt lat="47.3280480" lon="6.8342790">
        <ele>493.4</ele>
        <time>2022-07-20T16:58:23Z</time>
      </trkpt>
      <trkpt lat="47.3280450" lon="6.8342580">
        <ele>493.5</ele>
        <time>2022-07-20T16:58:24Z</time>
      </trkpt>
      <trkpt lat="47.3280410" lon="6.8342340">
        <ele>493.6</ele>
        <time>2022-07-20T16:58:25Z</time>
      </trkpt>
      <trkpt lat="47.3280430" lon="6.8342140">
        <ele>493.7</ele>
        <time>2022-07-20T16:58:26Z</time>
      </trkpt>
      <trkpt lat="47.3280430" lon="6.8341960">
        <ele>493.8</ele>
        <time>2022-07-20T16:58:27Z</time>
      </trkpt>
      <trkpt lat="47.3280440" lon="6.8341710">
        <ele>493.9</ele>
        <time>2022-07-20T16:58:28Z</time>
      </trkpt>
      <trkpt lat="47.3280490" lon="6.8341310">
        <ele>494.1</ele>
        <time>2022-07-20T16:58:30Z</time>
      </trkpt>
      <trkpt lat="47.3280540" lon="6.8341120">
        <ele>494.3</ele>
        <time>2022-07-20T16:58:32Z</time>
      </trkpt>
      <trkpt lat="47.3280580" lon="6.8340940">
        <ele>494.4</ele>
        <time>2022-07-20T16:58:33Z</time>
      </trkpt>
      <trkpt lat="47.3280630" lon="6.8340750">
        <ele>494.5</ele>
        <time>2022-07-20T16:58:34Z</time>
      </trkpt>
      <trkpt lat="47.3280790" lon="6.8340360">
        <ele>494.7</ele>
        <time>2022-07-20T16:58:35Z</time>
      </trkpt>
      <trkpt lat="47.3280840" lon="6.8340240">
        <ele>494.8</ele>
        <time>2022-07-20T16:58:36Z</time>
      </trkpt>
      <trkpt lat="47.3280970" lon="6.8339740">
        <ele>495.1</ele>
        <time>2022-07-20T16:58:38Z</time>
      </trkpt>
      <trkpt lat="47.3281070" lon="6.8339350">
        <ele>495.3</ele>
        <time>2022-07-20T16:58:39Z</time>
      </trkpt>
      <trkpt lat="47.3281160" lon="6.8338910">
        <ele>495.5</ele>
        <time>2022-07-20T16:58:41Z</time>
      </trkpt>
      <trkpt lat="47.3281200" lon="6.8338600">
        <ele>495.6</ele>
        <time>2022-07-20T16:58:42Z</time>
      </trkpt>
      <trkpt lat="47.3281260" lon="6.8338400">
        <ele>495.7</ele>
        <time>2022-07-20T16:58:43Z</time>
      </trkpt>
      <trkpt lat="47.3281320" lon="6.8338090">
        <ele>495.8</ele>
        <time>2022-07-20T16:58:44Z</time>
      </trkpt>
      <trkpt lat="47.3281330" lon="6.8337940">
        <ele>495.9</ele>
        <time>2022-07-20T16:58:45Z</time>
      </trkpt>
      <trkpt lat="47.3281330" lon="6.8337800">
        <ele>495.9</ele>
        <time>2022-07-20T16:58:46Z</time>
      </trkpt>
      <trkpt lat="47.3281410" lon="6.8337420">
        <ele>496.1</ele>
        <time>2022-07-20T16:58:48Z</time>
      </trkpt>
      <trkpt lat="47.3281440" lon="6.8337260">
        <ele>496.1</ele>
        <time>2022-07-20T16:58:49Z</time>
      </trkpt>
      <trkpt lat="47.3281460" lon="6.8337020">
        <ele>496.2</ele>
        <time>2022-07-20T16:58:50Z</time>
      </trkpt>
      <trkpt lat="47.3281480" lon="6.8336820">
        <ele>496.3</ele>
        <time>2022-07-20T16:58:51Z</time>
      </trkpt>
      <trkpt lat="47.3281520" lon="6.8336520">
        <ele>496.4</ele>
        <time>2022-07-20T16:58:52Z</time>
      </trkpt>
      <trkpt lat="47.3281530" lon="6.8336400">
        <ele>496.4</ele>
        <time>2022-07-20T16:58:54Z</time>
      </trkpt>
      <trkpt lat="47.3281550" lon="6.8336280">
        <ele>496.5</ele>
        <time>2022-07-20T16:58:55Z</time>
      </trkpt>
      <trkpt lat="47.3281570" lon="6.8336100">
        <ele>496.5</ele>
        <time>2022-07-20T16:58:56Z</time>
      </trkpt>
      <trkpt lat="47.3281590" lon="6.8335890">
        <ele>496.7</ele>
        <time>2022-07-20T16:58:57Z</time>
      </trkpt>
      <trkpt lat="47.3281600" lon="6.8335770">
        <ele>496.7</ele>
        <time>2022-07-20T16:58:58Z</time>
      </trkpt>
      <trkpt lat="47.3281600" lon="6.8335670">
        <ele>496.8</ele>
        <time>2022-07-20T16:58:59Z</time>
      </trkpt>
      <trkpt lat="47.3281600" lon="6.8335460">
        <ele>496.9</ele>
        <time>2022-07-20T16:59:00Z</time>
      </trkpt>
      <trkpt lat="47.3281590" lon="6.8335330">
        <ele>496.9</ele>
        <time>2022-07-20T16:59:01Z</time>
      </trkpt>
      <trkpt lat="47.3281610" lon="6.8334920">
        <ele>497.1</ele>
        <time>2022-07-20T16:59:02Z</time>
      </trkpt>
      <trkpt lat="47.3281650" lon="6.8334750">
        <ele>497.2</ele>
        <time>2022-07-20T16:59:03Z</time>
      </trkpt>
      <trkpt lat="47.3281700" lon="6.8334460">
        <ele>497.3</ele>
        <time>2022-07-20T16:59:04Z</time>
      </trkpt>
      <trkpt lat="47.3281760" lon="6.8334140">
        <ele>497.5</ele>
        <time>2022-07-20T16:59:06Z</time>
      </trkpt>
      <trkpt lat="47.3281830" lon="6.8333700">
        <ele>497.7</ele>
        <time>2022-07-20T16:59:07Z</time>
      </trkpt>
      <trkpt lat="47.3281840" lon="6.8333570">
        <ele>497.7</ele>
        <time>2022-07-20T16:59:08Z</time>
      </trkpt>
      <trkpt lat="47.3281860" lon="6.8333370">
        <ele>497.8</ele>
        <time>2022-07-20T16:59:09Z</time>
      </trkpt>
      <trkpt lat="47.3281910" lon="6.8333110">
        <ele>497.9</ele>
        <time>2022-07-20T16:59:10Z</time>
      </trkpt>
      <trkpt lat="47.3281940" lon="6.8332840">
        <ele>498.1</ele>
        <time>2022-07-20T16:59:11Z</time>
      </trkpt>
      <trkpt lat="47.3281980" lon="6.8332600">
        <ele>498.2</ele>
        <time>2022-07-20T16:59:12Z</time>
      </trkpt>
      <trkpt lat="47.3282090" lon="6.8331950">
        <ele>498.5</ele>
        <time>2022-07-20T16:59:14Z</time>
      </trkpt>
      <trkpt lat="47.3282130" lon="6.8331760">
        <ele>498.6</ele>
        <time>2022-07-20T16:59:15Z</time>
      </trkpt>
      <trkpt lat="47.3282160" lon="6.8331570">
        <ele>498.7</ele>
        <time>2022-07-20T16:59:16Z</time>
      </trkpt>
      <trkpt lat="47.3282230" lon="6.8331140">
        <ele>498.9</ele>
        <time>2022-07-20T16:59:17Z</time>
      </trkpt>
      <trkpt lat="47.3282280" lon="6.8330980">
        <ele>499.0</ele>
        <time>2022-07-20T16:59:18Z</time>
      </trkpt>
      <trkpt lat="47.3282400" lon="6.8330490">
        <ele>499.2</ele>
        <time>2022-07-20T16:59:20Z</time>
      </trkpt>
      <trkpt lat="47.3282420" lon="6.8330360">
        <ele>499.3</ele>
        <time>2022-07-20T16:59:21Z</time>
      </trkpt>
      <trkpt lat="47.3282500" lon="6.8329860">
        <ele>499.5</ele>
        <time>2022-07-20T16:59:22Z</time>
      </trkpt>
      <trkpt lat="47.3282510" lon="6.8329720">
        <ele>499.6</ele>
        <time>2022-07-20T16:59:23Z</time>
      </trkpt>
      <trkpt lat="47.3282590" lon="6.8329230">
        <ele>499.9</ele>
        <time>2022-07-20T16:59:25Z</time>
      </trkpt>
      <trkpt lat="47.3282650" lon="6.8328960">
        <ele>500.0</ele>
        <time>2022-07-20T16:59:26Z</time>
      </trkpt>
      <trkpt lat="47.3282700" lon="6.8328770">
        <ele>500.1</ele>
        <time>2022-07-20T16:59:27Z</time>
      </trkpt>
      <trkpt lat="47.3282750" lon="6.8328520">
        <ele>500.3</ele>
        <time>2022-07-20T16:59:29Z</time>
      </trkpt>
      <trkpt lat="47.3282760" lon="6.8328460">
        <ele>500.4</ele>
        <time>2022-07-20T16:59:30Z</time>
      </trkpt>
      <trkpt lat="47.3282780" lon="6.8328390">
        <ele>500.4</ele>
        <time>2022-07-20T16:59:31Z</time>
      </trkpt>
      <trkpt lat="47.3282800" lon="6.8328210">
        <ele>500.5</ele>
        <time>2022-07-20T16:59:33Z</time>
      </trkpt>
      <trkpt lat="47.3282820" lon="6.8328100">
        <ele>500.6</ele>
        <time>2022-07-20T16:59:34Z</time>
      </trkpt>
      <trkpt lat="47.3282860" lon="6.8328010">
        <ele>500.7</ele>
        <time>2022-07-20T16:59:35Z</time>
      </trkpt>
      <trkpt lat="47.3282890" lon="6.8328000">
        <ele>500.7</ele>
        <time>2022-07-20T16:59:36Z</time>
      </trkpt>
      <trkpt lat="47.3282930" lon="6.8327930">
        <ele>500.8</ele>
        <time>2022-07-20T16:59:37Z</time>
      </trkpt>
      <trkpt lat="47.3282950" lon="6.8327860">
        <ele>500.8</ele>
        <time>2022-07-20T16:59:38Z</time>
      </trkpt>
      <trkpt lat="47.3282960" lon="6.8327730">
        <ele>500.9</ele>
        <time>2022-07-20T16:59:40Z</time>
      </trkpt>
      <trkpt lat="47.3282980" lon="6.8327640">
        <ele>501.0</ele>
        <time>2022-07-20T16:59:41Z</time>
      </trkpt>
      <trkpt lat="47.3282990" lon="6.8327530">
        <ele>501.1</ele>
        <time>2022-07-20T16:59:42Z</time>
      </trkpt>
      <trkpt lat="47.3283040" lon="6.8327360">
        <ele>501.3</ele>
        <time>2022-07-20T16:59:43Z</time>
      </trkpt>
      <trkpt lat="47.3283020" lon="6.8327130">
        <ele>501.5</ele>
        <time>2022-07-20T16:59:44Z</time>
      </trkpt>
      <trkpt lat="47.3283000" lon="6.8327030">
        <ele>501.5</ele>
        <time>2022-07-20T16:59:46Z</time>
      </trkpt>
      <trkpt lat="47.3282980" lon="6.8326930">
        <ele>501.6</ele>
        <time>2022-07-20T16:59:47Z</time>
      </trkpt>
      <trkpt lat="47.3282960" lon="6.8326830">
        <ele>501.7</ele>
        <time>2022-07-20T16:59:48Z</time>
      </trkpt>
      <trkpt lat="47.3282890" lon="6.8326660">
        <ele>501.9</ele>
        <time>2022-07-20T16:59:49Z</time>
      </trkpt>
      <trkpt lat="47.3282840" lon="6.8326510">
        <ele>502.1</ele>
        <time>2022-07-20T16:59:51Z</time>
      </trkpt>
      <trkpt lat="47.3282780" lon="6.8326380">
        <ele>502.2</ele>
        <time>2022-07-20T16:59:52Z</time>
      </trkpt>
      <trkpt lat="47.3282700" lon="6.8326210">
        <ele>502.4</ele>
        <time>2022-07-20T16:59:53Z</time>
      </trkpt>
      <trkpt lat="47.3282660" lon="6.8326110">
        <ele>502.5</ele>
        <time>2022-07-20T16:59:54Z</time>
      </trkpt>
      <trkpt lat="47.3282620" lon="6.8326020">
        <ele>502.6</ele>
        <time>2022-07-20T16:59:55Z</time>
      </trkpt>
      <trkpt lat="47.3282580" lon="6.8325920">
        <ele>502.7</ele>
        <time>2022-07-20T16:59:56Z</time>
      </trkpt>
      <trkpt lat="47.3282540" lon="6.8325800">
        <ele>502.9</ele>
        <time>2022-07-20T16:59:57Z</time>
      </trkpt>
      <trkpt lat="47.3282440" lon="6.8325590">
        <ele>503.1</ele>
        <time>2022-07-20T16:59:58Z</time>
      </trkpt>
      <trkpt lat="47.3282390" lon="6.8325510">
        <ele>503.2</ele>
        <time>2022-07-20T16:59:59Z</time>
      </trkpt>
      <trkpt lat="47.3282290" lon="6.8325400">
        <ele>503.4</ele>
        <time>2022-07-20T17:00:00Z</time>
      </trkpt>
      <trkpt lat="47.3282040" lon="6.8324930">
        <ele>504.0</ele>
        <time>2022-07-20T17:00:02Z</time>
      </trkpt>
      <trkpt lat="47.3281940" lon="6.8324710">
        <ele>504.2</ele>
        <time>2022-07-20T17:00:03Z</time>
      </trkpt>
      <trkpt lat="47.3281870" lon="6.8324540">
        <ele>504.4</ele>
        <time>2022-07-20T17:00:04Z</time>
      </trkpt>
      <trkpt lat="47.3281820" lon="6.8324450">
        <ele>504.5</ele>
        <time>2022-07-20T17:00:05Z</time>
      </trkpt>
      <trkpt lat="47.3281780" lon="6.8324390">
        <ele>504.5</ele>
        <time>2022-07-20T17:00:06Z</time>
      </trkpt>
      <trkpt lat="47.3281760" lon="6.8324360">
        <ele>504.6</ele>
        <time>2022-07-20T17:00:07Z</time>
      </trkpt>
      <trkpt lat="47.3281740" lon="6.8324330">
        <ele>504.6</ele>
        <time>2022-07-20T17:00:08Z</time>
      </trkpt>
      <trkpt lat="47.3281710" lon="6.8324240">
        <ele>504.7</ele>
        <time>2022-07-20T17:00:09Z</time>
      </trkpt>
      <trkpt lat="47.3281650" lon="6.8324140">
        <ele>504.8</ele>
        <time>2022-07-20T17:00:10Z</time>
      </trkpt>
      <trkpt lat="47.3281610" lon="6.8324060">
        <ele>504.9</ele>
        <time>2022-07-20T17:00:11Z</time>
      </trkpt>
      <trkpt lat="47.3281550" lon="6.8323960">
        <ele>505.0</ele>
        <time>2022-07-20T17:00:12Z</time>
      </trkpt>
      <trkpt lat="47.3281470" lon="6.8323820">
        <ele>505.1</ele>
        <time>2022-07-20T17:00:13Z</time>
      </trkpt>
      <trkpt lat="47.3281360" lon="6.8323620">
        <ele>505.3</ele>
        <time>2022-07-20T17:00:14Z</time>
      </trkpt>
      <trkpt lat="47.3281290" lon="6.8323430">
        <ele>505.4</ele>
        <time>2022-07-20T17:00:15Z</time>
      </trkpt>
      <trkpt lat="47.3281160" lon="6.8323070">
        <ele>505.6</ele>
        <time>2022-07-20T17:00:16Z</time>
      </trkpt>
      <trkpt lat="47.3280950" lon="6.8322580">
        <ele>505.9</ele>
        <time>2022-07-20T17:00:17Z</time>
      </trkpt>
      <trkpt lat="47.3280790" lon="6.8322220">
        <ele>506.1</ele>
        <time>2022-07-20T17:00:18Z</time>
      </trkpt>
      <trkpt lat="47.3280600" lon="6.8321740">
        <ele>506.3</ele>
        <time>2022-07-20T17:00:19Z</time>
      </trkpt>
      <trkpt lat="47.3280540" lon="6.8321580">
        <ele>506.3</ele>
        <time>2022-07-20T17:00:20Z</time>
      </trkpt>
      <trkpt lat="47.3280330" lon="6.8321100">
        <ele>506.5</ele>
        <time>2022-07-20T17:00:21Z</time>
      </trkpt>
      <trkpt lat="47.3280260" lon="6.8320950">
        <ele>506.5</ele>
        <time>2022-07-20T17:00:22Z</time>
      </trkpt>
      <trkpt lat="47.3280090" lon="6.8320530">
        <ele>506.7</ele>
        <time>2022-07-20T17:00:23Z</time>
      </trkpt>
      <trkpt lat="47.3280040" lon="6.8320390">
        <ele>506.7</ele>
        <time>2022-07-20T17:00:24Z</time>
      </trkpt>
      <trkpt lat="47.3279850" lon="6.8320020">
        <ele>506.8</ele>
        <time>2022-07-20T17:00:25Z</time>
      </trkpt>
      <trkpt lat="47.3279790" lon="6.8319910">
        <ele>506.8</ele>
        <time>2022-07-20T17:00:26Z</time>
      </trkpt>
      <trkpt lat="47.3279580" lon="6.8319480">
        <ele>507.0</ele>
        <time>2022-07-20T17:00:27Z</time>
      </trkpt>
      <trkpt lat="47.3279520" lon="6.8319340">
        <ele>507.0</ele>
        <time>2022-07-20T17:00:28Z</time>
      </trkpt>
      <trkpt lat="47.3279290" lon="6.8318960">
        <ele>507.1</ele>
        <time>2022-07-20T17:00:29Z</time>
      </trkpt>
      <trkpt lat="47.3279220" lon="6.8318840">
        <ele>507.2</ele>
        <time>2022-07-20T17:00:30Z</time>
      </trkpt>
      <trkpt lat="47.3279090" lon="6.8318630">
        <ele>507.2</ele>
        <time>2022-07-20T17:00:31Z</time>
      </trkpt>
      <trkpt lat="47.3279000" lon="6.8318500">
        <ele>507.3</ele>
        <time>2022-07-20T17:00:32Z</time>
      </trkpt>
      <trkpt lat="47.3278880" lon="6.8318260">
        <ele>507.4</ele>
        <time>2022-07-20T17:00:33Z</time>
      </trkpt>
      <trkpt lat="47.3278800" lon="6.8318090">
        <ele>507.4</ele>
        <time>2022-07-20T17:00:35Z</time>
      </trkpt>
      <trkpt lat="47.3278750" lon="6.8317960">
        <ele>507.5</ele>
        <time>2022-07-20T17:00:36Z</time>
      </trkpt>
      <trkpt lat="47.3278650" lon="6.8317700">
        <ele>507.6</ele>
        <time>2022-07-20T17:00:37Z</time>
      </trkpt>
      <trkpt lat="47.3278500" lon="6.8317440">
        <ele>507.7</ele>
        <time>2022-07-20T17:00:38Z</time>
      </trkpt>
      <trkpt lat="47.3278480" lon="6.8317290">
        <ele>507.8</ele>
        <time>2022-07-20T17:00:39Z</time>
      </trkpt>
      <trkpt lat="47.3278360" lon="6.8316890">
        <ele>508.0</ele>
        <time>2022-07-20T17:00:41Z</time>
      </trkpt>
      <trkpt lat="47.3278320" lon="6.8316750">
        <ele>508.1</ele>
        <time>2022-07-20T17:00:42Z</time>
      </trkpt>
      <trkpt lat="47.3278240" lon="6.8316570">
        <ele>508.2</ele>
        <time>2022-07-20T17:00:43Z</time>
      </trkpt>
      <trkpt lat="47.3278160" lon="6.8316370">
        <ele>508.3</ele>
        <time>2022-07-20T17:00:44Z</time>
      </trkpt>
      <trkpt lat="47.3278110" lon="6.8316140">
        <ele>508.4</ele>
        <time>2022-07-20T17:00:45Z</time>
      </trkpt>
      <trkpt lat="47.3278030" lon="6.8315930">
        <ele>508.5</ele>
        <time>2022-07-20T17:00:46Z</time>
      </trkpt>
      <trkpt lat="47.3277830" lon="6.8315630">
        <ele>508.8</ele>
        <time>2022-07-20T17:00:47Z</time>
      </trkpt>
      <trkpt lat="47.3277740" lon="6.8315510">
        <ele>508.9</ele>
        <time>2022-07-20T17:00:48Z</time>
      </trkpt>
      <trkpt lat="47.3277580" lon="6.8315270">
        <ele>509.1</ele>
        <time>2022-07-20T17:00:49Z</time>
      </trkpt>
      <trkpt lat="47.3277390" lon="6.8314890">
        <ele>509.4</ele>
        <time>2022-07-20T17:00:51Z</time>
      </trkpt>
      <trkpt lat="47.3277260" lon="6.8314480">
        <ele>509.7</ele>
        <time>2022-07-20T17:00:52Z</time>
      </trkpt>
      <trkpt lat="47.3277250" lon="6.8314320">
        <ele>509.8</ele>
        <time>2022-07-20T17:00:53Z</time>
      </trkpt>
      <trkpt lat="47.3277200" lon="6.8313860">
        <ele>510.1</ele>
        <time>2022-07-20T17:00:55Z</time>
      </trkpt>
      <trkpt lat="47.3277190" lon="6.8313740">
        <ele>510.1</ele>
        <time>2022-07-20T17:00:56Z</time>
      </trkpt>
      <trkpt lat="47.3276980" lon="6.8313460">
        <ele>510.4</ele>
        <time>2022-07-20T17:00:57Z</time>
      </trkpt>
      <trkpt lat="47.3276910" lon="6.8313380">
        <ele>510.4</ele>
        <time>2022-07-20T17:00:58Z</time>
      </trkpt>
      <trkpt lat="47.3276800" lon="6.8313200">
        <ele>510.6</ele>
        <time>2022-07-20T17:00:59Z</time>
      </trkpt>
      <trkpt lat="47.3276790" lon="6.8313180">
        <ele>510.6</ele>
        <time>2022-07-20T17:01:00Z</time>
      </trkpt>
      <trkpt lat="47.3276780" lon="6.8313160">
        <ele>510.6</ele>
        <time>2022-07-20T17:01:01Z</time>
      </trkpt>
      <trkpt lat="47.3276780" lon="6.8313140">
        <ele>510.6</ele>
        <time>2022-07-20T17:01:02Z</time>
      </trkpt>
      <trkpt lat="47.3276770" lon="6.8313130">
        <ele>510.6</ele>
        <time>2022-07-20T17:01:03Z</time>
      </trkpt>
      <trkpt lat="47.3276760" lon="6.8313110">
        <ele>510.6</ele>
        <time>2022-07-20T17:01:04Z</time>
      </trkpt>
      <trkpt lat="47.3276750" lon="6.8313090">
        <ele>510.6</ele>
        <time>2022-07-20T17:01:05Z</time>
      </trkpt>
      <trkpt lat="47.3276750" lon="6.8313070">
        <ele>510.6</ele>
        <time>2022-07-20T17:01:06Z</time>
      </trkpt>
      <trkpt lat="47.3276740" lon="6.8313050">
        <ele>510.7</ele>
        <time>2022-07-20T17:01:07Z</time>
      </trkpt>
      <trkpt lat="47.3276730" lon="6.8313030">
        <ele>510.7</ele>
        <time>2022-07-20T17:01:08Z</time>
      </trkpt>
      <trkpt lat="47.3276720" lon="6.8313010">
        <ele>510.7</ele>
        <time>2022-07-20T17:01:09Z</time>
      </trkpt>
      <trkpt lat="47.3276720" lon="6.8312990">
        <ele>510.7</ele>
        <time>2022-07-20T17:01:19Z</time>
      </trkpt>
      <trkpt lat="47.3276710" lon="6.8312970">
        <ele>510.7</ele>
        <time>2022-07-20T17:01:20Z</time>
      </trkpt>
      <trkpt lat="47.3276700" lon="6.8312950">
        <ele>510.7</ele>
        <time>2022-07-20T17:01:21Z</time>
      </trkpt>
      <trkpt lat="47.3276700" lon="6.8312930">
        <ele>510.7</ele>
        <time>2022-07-20T17:01:22Z</time>
      </trkpt>
      <trkpt lat="47.3276690" lon="6.8312910">
        <ele>510.7</ele>
        <time>2022-07-20T17:01:23Z</time>
      </trkpt>
      <trkpt lat="47.3276680" lon="6.8312890">
        <ele>510.7</ele>
        <time>2022-07-20T17:01:24Z</time>
      </trkpt>
      <trkpt lat="47.3276670" lon="6.8312870">
        <ele>510.8</ele>
        <time>2022-07-20T17:01:25Z</time>
      </trkpt>
      <trkpt lat="47.3276670" lon="6.8312850">
        <ele>510.8</ele>
        <time>2022-07-20T17:01:26Z</time>
      </trkpt>
      <trkpt lat="47.3276660" lon="6.8312830">
        <ele>510.8</ele>
        <time>2022-07-20T17:01:27Z</time>
      </trkpt>
      <trkpt lat="47.3276650" lon="6.8312810">
        <ele>510.8</ele>
        <time>2022-07-20T17:01:28Z</time>
      </trkpt>
      <trkpt lat="47.3276640" lon="6.8312800">
        <ele>510.8</ele>
        <time>2022-07-20T17:01:29Z</time>
      </trkpt>
      <trkpt lat="47.3276640" lon="6.8312780">
        <ele>510.8</ele>
        <time>2022-07-20T17:01:30Z</time>
      </trkpt>
      <trkpt lat="47.3276630" lon="6.8312760">
        <ele>510.8</ele>
        <time>2022-07-20T17:02:53Z</time>
      </trkpt>
      <trkpt lat="47.3276620" lon="6.8312740">
        <ele>510.8</ele>
        <time>2022-07-20T17:02:54Z</time>
      </trkpt>
      <trkpt lat="47.3276620" lon="6.8312720">
        <ele>510.8</ele>
        <time>2022-07-20T17:02:55Z</time>
      </trkpt>
      <trkpt lat="47.3276520" lon="6.8312510">
        <ele>510.9</ele>
        <time>2022-07-20T17:02:56Z</time>
      </trkpt>
      <trkpt lat="47.3276420" lon="6.8312310">
        <ele>511.0</ele>
        <time>2022-07-20T17:02:57Z</time>
      </trkpt>
      <trkpt lat="47.3276310" lon="6.8312090">
        <ele>511.1</ele>
        <time>2022-07-20T17:02:58Z</time>
      </trkpt>
      <trkpt lat="47.3276370" lon="6.8311960">
        <ele>511.2</ele>
        <time>2022-07-20T17:02:59Z</time>
      </trkpt>
      <trkpt lat="47.3276430" lon="6.8311940">
        <ele>511.2</ele>
        <time>2022-07-20T17:03:00Z</time>
      </trkpt>
      <trkpt lat="47.3276550" lon="6.8311790">
        <ele>511.3</ele>
        <time>2022-07-20T17:03:02Z</time>
      </trkpt>
      <trkpt lat="47.3276390" lon="6.8311500">
        <ele>511.4</ele>
        <time>2022-07-20T17:03:03Z</time>
      </trkpt>
      <trkpt lat="47.3276090" lon="6.8311010">
        <ele>511.6</ele>
        <time>2022-07-20T17:03:05Z</time>
      </trkpt>
      <trkpt lat="47.3275840" lon="6.8310550">
        <ele>511.7</ele>
        <time>2022-07-20T17:03:06Z</time>
      </trkpt>
      <trkpt lat="47.3275700" lon="6.8310140">
        <ele>511.8</ele>
        <time>2022-07-20T17:03:07Z</time>
      </trkpt>
      <trkpt lat="47.3275520" lon="6.8309660">
        <ele>512.0</ele>
        <time>2022-07-20T17:03:08Z</time>
      </trkpt>
      <trkpt lat="47.3275470" lon="6.8309530">
        <ele>512.0</ele>
        <time>2022-07-20T17:03:09Z</time>
      </trkpt>
      <trkpt lat="47.3275290" lon="6.8309020">
        <ele>512.1</ele>
        <time>2022-07-20T17:03:10Z</time>
      </trkpt>
      <trkpt lat="47.3275240" lon="6.8308870">
        <ele>512.2</ele>
        <time>2022-07-20T17:03:11Z</time>
      </trkpt>
      <trkpt lat="47.3275120" lon="6.8308610">
        <ele>512.2</ele>
        <time>2022-07-20T17:03:12Z</time>
      </trkpt>
      <trkpt lat="47.3274990" lon="6.8308290">
        <ele>512.3</ele>
        <time>2022-07-20T17:03:14Z</time>
      </trkpt>
      <trkpt lat="47.3274810" lon="6.8307790">
        <ele>512.5</ele>
        <time>2022-07-20T17:03:15Z</time>
      </trkpt>
      <trkpt lat="47.3274720" lon="6.8307590">
        <ele>512.5</ele>
        <time>2022-07-20T17:03:16Z</time>
      </trkpt>
      <trkpt lat="47.3274590" lon="6.8307350">
        <ele>512.6</ele>
        <time>2022-07-20T17:03:18Z</time>
      </trkpt>
      <trkpt lat="47.3274510" lon="6.8307170">
        <ele>512.7</ele>
        <time>2022-07-20T17:03:19Z</time>
      </trkpt>
      <trkpt lat="47.3274380" lon="6.8306750">
        <ele>512.8</ele>
        <time>2022-07-20T17:03:20Z</time>
      </trkpt>
      <trkpt lat="47.3274320" lon="6.8306620">
        <ele>512.9</ele>
        <time>2022-07-20T17:03:21Z</time>
      </trkpt>
      <trkpt lat="47.3274070" lon="6.8306200">
        <ele>513.1</ele>
        <time>2022-07-20T17:03:22Z</time>
      </trkpt>
      <trkpt lat="47.3273980" lon="6.8306090">
        <ele>513.1</ele>
        <time>2022-07-20T17:03:23Z</time>
      </trkpt>
      <trkpt lat="47.3273830" lon="6.8305730">
        <ele>513.2</ele>
        <time>2022-07-20T17:03:24Z</time>
      </trkpt>
      <trkpt lat="47.3273800" lon="6.8305580">
        <ele>513.3</ele>
        <time>2022-07-20T17:03:25Z</time>
      </trkpt>
      <trkpt lat="47.3273800" lon="6.8305400">
        <ele>513.3</ele>
        <time>2022-07-20T17:03:27Z</time>
      </trkpt>
      <trkpt lat="47.3273760" lon="6.8305120">
        <ele>513.4</ele>
        <time>2022-07-20T17:03:28Z</time>
      </trkpt>
      <trkpt lat="47.3273700" lon="6.8304740">
        <ele>513.6</ele>
        <time>2022-07-20T17:03:29Z</time>
      </trkpt>
      <trkpt lat="47.3273530" lon="6.8304280">
        <ele>513.7</ele>
        <time>2022-07-20T17:03:31Z</time>
      </trkpt>
      <trkpt lat="47.3273320" lon="6.8303840">
        <ele>513.9</ele>
        <time>2022-07-20T17:03:32Z</time>
      </trkpt>
      <trkpt lat="47.3273270" lon="6.8303700">
        <ele>514.0</ele>
        <time>2022-07-20T17:03:33Z</time>
      </trkpt>
      <trkpt lat="47.3273220" lon="6.8303410">
        <ele>514.1</ele>
        <time>2022-07-20T17:03:34Z</time>
      </trkpt>
      <trkpt lat="47.3273200" lon="6.8303200">
        <ele>514.1</ele>
        <time>2022-07-20T17:03:35Z</time>
      </trkpt>
      <trkpt lat="47.3273090" lon="6.8302760">
        <ele>514.3</ele>
        <time>2022-07-20T17:03:36Z</time>
      </trkpt>
      <trkpt lat="47.3273050" lon="6.8302630">
        <ele>514.3</ele>
        <time>2022-07-20T17:03:37Z</time>
      </trkpt>
      <trkpt lat="47.3272920" lon="6.8302240">
        <ele>514.5</ele>
        <time>2022-07-20T17:03:38Z</time>
      </trkpt>
      <trkpt lat="47.3272870" lon="6.8302120">
        <ele>514.5</ele>
        <time>2022-07-20T17:03:39Z</time>
      </trkpt>
      <trkpt lat="47.3272710" lon="6.8301770">
        <ele>514.7</ele>
        <time>2022-07-20T17:03:40Z</time>
      </trkpt>
      <trkpt lat="47.3272650" lon="6.8301660">
        <ele>514.7</ele>
        <time>2022-07-20T17:03:41Z</time>
      </trkpt>
      <trkpt lat="47.3272600" lon="6.8301250">
        <ele>514.8</ele>
        <time>2022-07-20T17:03:42Z</time>
      </trkpt>
      <trkpt lat="47.3272590" lon="6.8301130">
        <ele>514.9</ele>
        <time>2022-07-20T17:03:43Z</time>
      </trkpt>
      <trkpt lat="47.3272520" lon="6.8300800">
        <ele>515.0</ele>
        <time>2022-07-20T17:03:44Z</time>
      </trkpt>
      <trkpt lat="47.3272480" lon="6.8300660">
        <ele>515.0</ele>
        <time>2022-07-20T17:03:45Z</time>
      </trkpt>
      <trkpt lat="47.3272440" lon="6.8300520">
        <ele>515.0</ele>
        <time>2022-07-20T17:03:46Z</time>
      </trkpt>
      <trkpt lat="47.3272310" lon="6.8300030">
        <ele>515.2</ele>
        <time>2022-07-20T17:03:47Z</time>
      </trkpt>
      <trkpt lat="47.3272260" lon="6.8299880">
        <ele>515.2</ele>
        <time>2022-07-20T17:03:48Z</time>
      </trkpt>
      <trkpt lat="47.3272160" lon="6.8299600">
        <ele>515.2</ele>
        <time>2022-07-20T17:03:49Z</time>
      </trkpt>
      <trkpt lat="47.3272000" lon="6.8299030">
        <ele>515.3</ele>
        <time>2022-07-20T17:03:51Z</time>
      </trkpt>
      <trkpt lat="47.3271900" lon="6.8298490">
        <ele>515.4</ele>
        <time>2022-07-20T17:03:52Z</time>
      </trkpt>
      <trkpt lat="47.3271870" lon="6.8298300">
        <ele>515.4</ele>
        <time>2022-07-20T17:03:53Z</time>
      </trkpt>
      <trkpt lat="47.3271810" lon="6.8297710">
        <ele>515.4</ele>
        <time>2022-07-20T17:03:55Z</time>
      </trkpt>
      <trkpt lat="47.3271780" lon="6.8297210">
        <ele>515.4</ele>
        <time>2022-07-20T17:03:56Z</time>
      </trkpt>
      <trkpt lat="47.3271790" lon="6.8296790">
        <ele>515.4</ele>
        <time>2022-07-20T17:03:57Z</time>
      </trkpt>
      <trkpt lat="47.3271780" lon="6.8296370">
        <ele>515.4</ele>
        <time>2022-07-20T17:03:58Z</time>
      </trkpt>
      <trkpt lat="47.3271750" lon="6.8295420">
        <ele>515.4</ele>
        <time>2022-07-20T17:04:00Z</time>
      </trkpt>
      <trkpt lat="47.3271790" lon="6.8294760">
        <ele>515.3</ele>
        <time>2022-07-20T17:04:01Z</time>
      </trkpt>
      <trkpt lat="47.3271850" lon="6.8294340">
        <ele>515.3</ele>
        <time>2022-07-20T17:04:02Z</time>
      </trkpt>
      <trkpt lat="47.3271930" lon="6.8293870">
        <ele>515.3</ele>
        <time>2022-07-20T17:04:04Z</time>
      </trkpt>
      <trkpt lat="47.3271950" lon="6.8293430">
        <ele>515.2</ele>
        <time>2022-07-20T17:04:05Z</time>
      </trkpt>
      <trkpt lat="47.3271910" lon="6.8292860">
        <ele>515.2</ele>
        <time>2022-07-20T17:04:06Z</time>
      </trkpt>
      <trkpt lat="47.3271880" lon="6.8292670">
        <ele>515.2</ele>
        <time>2022-07-20T17:04:07Z</time>
      </trkpt>
      <trkpt lat="47.3271820" lon="6.8292170">
        <ele>515.1</ele>
        <time>2022-07-20T17:04:08Z</time>
      </trkpt>
      <trkpt lat="47.3271790" lon="6.8291730">
        <ele>515.1</ele>
        <time>2022-07-20T17:04:09Z</time>
      </trkpt>
      <trkpt lat="47.3271800" lon="6.8291150">
        <ele>515.0</ele>
        <time>2022-07-20T17:04:10Z</time>
      </trkpt>
      <trkpt lat="47.3271790" lon="6.8290480">
        <ele>515.0</ele>
        <time>2022-07-20T17:04:12Z</time>
      </trkpt>
      <trkpt lat="47.3271770" lon="6.8289940">
        <ele>515.0</ele>
        <time>2022-07-20T17:04:13Z</time>
      </trkpt>
      <trkpt lat="47.3271750" lon="6.8289510">
        <ele>514.9</ele>
        <time>2022-07-20T17:04:14Z</time>
      </trkpt>
      <trkpt lat="47.3271730" lon="6.8289020">
        <ele>514.9</ele>
        <time>2022-07-20T17:04:15Z</time>
      </trkpt>
      <trkpt lat="47.3271690" lon="6.8288250">
        <ele>514.9</ele>
        <time>2022-07-20T17:04:16Z</time>
      </trkpt>
      <trkpt lat="47.3271650" lon="6.8287650">
        <ele>514.8</ele>
        <time>2022-07-20T17:04:18Z</time>
      </trkpt>
      <trkpt lat="47.3271630" lon="6.8286950">
        <ele>514.8</ele>
        <time>2022-07-20T17:04:19Z</time>
      </trkpt>
      <trkpt lat="47.3271630" lon="6.8286310">
        <ele>514.8</ele>
        <time>2022-07-20T17:04:20Z</time>
      </trkpt>
      <trkpt lat="47.3271640" lon="6.8285830">
        <ele>514.7</ele>
        <time>2022-07-20T17:04:21Z</time>
      </trkpt>
      <trkpt lat="47.3271680" lon="6.8285230">
        <ele>514.7</ele>
        <time>2022-07-20T17:04:22Z</time>
      </trkpt>
      <trkpt lat="47.3271740" lon="6.8284670">
        <ele>514.7</ele>
        <time>2022-07-20T17:04:23Z</time>
      </trkpt>
      <trkpt lat="47.3271810" lon="6.8284230">
        <ele>514.7</ele>
        <time>2022-07-20T17:04:24Z</time>
      </trkpt>
      <trkpt lat="47.3271850" lon="6.8283780">
        <ele>514.7</ele>
        <time>2022-07-20T17:04:25Z</time>
      </trkpt>
      <trkpt lat="47.3271850" lon="6.8283210">
        <ele>514.7</ele>
        <time>2022-07-20T17:04:26Z</time>
      </trkpt>
      <trkpt lat="47.3271780" lon="6.8282480">
        <ele>514.7</ele>
        <time>2022-07-20T17:04:28Z</time>
      </trkpt>
      <trkpt lat="47.3271780" lon="6.8282010">
        <ele>514.7</ele>
        <time>2022-07-20T17:04:29Z</time>
      </trkpt>
      <trkpt lat="47.3271810" lon="6.8281590">
        <ele>514.8</ele>
        <time>2022-07-20T17:04:30Z</time>
      </trkpt>
      <trkpt lat="47.3271870" lon="6.8281010">
        <ele>514.8</ele>
        <time>2022-07-20T17:04:31Z</time>
      </trkpt>
      <trkpt lat="47.3271910" lon="6.8280760">
        <ele>514.9</ele>
        <time>2022-07-20T17:04:32Z</time>
      </trkpt>
      <trkpt lat="47.3271950" lon="6.8280190">
        <ele>514.9</ele>
        <time>2022-07-20T17:04:33Z</time>
      </trkpt>
      <trkpt lat="47.3271960" lon="6.8280000">
        <ele>514.9</ele>
        <time>2022-07-20T17:04:34Z</time>
      </trkpt>
      <trkpt lat="47.3271970" lon="6.8279600">
        <ele>515.0</ele>
        <time>2022-07-20T17:04:35Z</time>
      </trkpt>
      <trkpt lat="47.3271970" lon="6.8279460">
        <ele>515.0</ele>
        <time>2022-07-20T17:04:36Z</time>
      </trkpt>
      <trkpt lat="47.3271920" lon="6.8279130">
        <ele>515.0</ele>
        <time>2022-07-20T17:04:37Z</time>
      </trkpt>
      <trkpt lat="47.3271900" lon="6.8278970">
        <ele>515.0</ele>
        <time>2022-07-20T17:04:38Z</time>
      </trkpt>
      <trkpt lat="47.3271870" lon="6.8278820">
        <ele>515.0</ele>
        <time>2022-07-20T17:04:39Z</time>
      </trkpt>
      <trkpt lat="47.3271870" lon="6.8278560">
        <ele>515.0</ele>
        <time>2022-07-20T17:04:40Z</time>
      </trkpt>
      <trkpt lat="47.3271840" lon="6.8278320">
        <ele>515.0</ele>
        <time>2022-07-20T17:04:41Z</time>
      </trkpt>
      <trkpt lat="47.3271780" lon="6.8277870">
        <ele>514.9</ele>
        <time>2022-07-20T17:04:42Z</time>
      </trkpt>
      <trkpt lat="47.3271770" lon="6.8277720">
        <ele>514.9</ele>
        <time>2022-07-20T17:04:43Z</time>
      </trkpt>
      <trkpt lat="47.3271780" lon="6.8277170">
        <ele>514.9</ele>
        <time>2022-07-20T17:04:44Z</time>
      </trkpt>
      <trkpt lat="47.3271770" lon="6.8276980">
        <ele>514.8</ele>
        <time>2022-07-20T17:04:45Z</time>
      </trkpt>
      <trkpt lat="47.3271720" lon="6.8276430">
        <ele>514.8</ele>
        <time>2022-07-20T17:04:46Z</time>
      </trkpt>
      <trkpt lat="47.3271580" lon="6.8275820">
        <ele>514.7</ele>
        <time>2022-07-20T17:04:47Z</time>
      </trkpt>
      <trkpt lat="47.3271470" lon="6.8275210">
        <ele>514.7</ele>
        <time>2022-07-20T17:04:48Z</time>
      </trkpt>
      <trkpt lat="47.3271480" lon="6.8274640">
        <ele>514.7</ele>
        <time>2022-07-20T17:04:49Z</time>
      </trkpt>
      <trkpt lat="47.3271290" lon="6.8273900">
        <ele>514.7</ele>
        <time>2022-07-20T17:04:50Z</time>
      </trkpt>
      <trkpt lat="47.3270990" lon="6.8273380">
        <ele>514.8</ele>
        <time>2022-07-20T17:04:51Z</time>
      </trkpt>
      <trkpt lat="47.3270790" lon="6.8272860">
        <ele>514.9</ele>
        <time>2022-07-20T17:04:52Z</time>
      </trkpt>
      <trkpt lat="47.3270570" lon="6.8272380">
        <ele>514.9</ele>
        <time>2022-07-20T17:04:53Z</time>
      </trkpt>
      <trkpt lat="47.3270340" lon="6.8271810">
        <ele>515.1</ele>
        <time>2022-07-20T17:04:54Z</time>
      </trkpt>
      <trkpt lat="47.3270210" lon="6.8271430">
        <ele>515.1</ele>
        <time>2022-07-20T17:04:55Z</time>
      </trkpt>
      <trkpt lat="47.3270170" lon="6.8271220">
        <ele>515.2</ele>
        <time>2022-07-20T17:04:56Z</time>
      </trkpt>
      <trkpt lat="47.3270110" lon="6.8270960">
        <ele>515.2</ele>
        <time>2022-07-20T17:04:57Z</time>
      </trkpt>
      <trkpt lat="47.3270060" lon="6.8270710">
        <ele>515.2</ele>
        <time>2022-07-20T17:04:58Z</time>
      </trkpt>
      <trkpt lat="47.3270010" lon="6.8270470">
        <ele>515.2</ele>
        <time>2022-07-20T17:04:59Z</time>
      </trkpt>
      <trkpt lat="47.3269960" lon="6.8270230">
        <ele>515.2</ele>
        <time>2022-07-20T17:05:00Z</time>
      </trkpt>
      <trkpt lat="47.3269900" lon="6.8270020">
        <ele>515.2</ele>
        <time>2022-07-20T17:05:01Z</time>
      </trkpt>
      <trkpt lat="47.3269710" lon="6.8269600">
        <ele>515.2</ele>
        <time>2022-07-20T17:05:02Z</time>
      </trkpt>
      <trkpt lat="47.3269650" lon="6.8269450">
        <ele>515.2</ele>
        <time>2022-07-20T17:05:03Z</time>
      </trkpt>
      <trkpt lat="47.3269560" lon="6.8269180">
        <ele>515.2</ele>
        <time>2022-07-20T17:05:04Z</time>
      </trkpt>
      <trkpt lat="47.3269240" lon="6.8268490">
        <ele>515.1</ele>
        <time>2022-07-20T17:05:06Z</time>
      </trkpt>
      <trkpt lat="47.3269010" lon="6.8268090">
        <ele>515.0</ele>
        <time>2022-07-20T17:05:07Z</time>
      </trkpt>
      <trkpt lat="47.3268740" lon="6.8267660">
        <ele>514.9</ele>
        <time>2022-07-20T17:05:08Z</time>
      </trkpt>
      <trkpt lat="47.3268390" lon="6.8266770">
        <ele>514.7</ele>
        <time>2022-07-20T17:05:09Z</time>
      </trkpt>
      <trkpt lat="47.3267940" lon="6.8266200">
        <ele>514.3</ele>
        <time>2022-07-20T17:05:10Z</time>
      </trkpt>
      <trkpt lat="47.3267410" lon="6.8265700">
        <ele>514.0</ele>
        <time>2022-07-20T17:05:11Z</time>
      </trkpt>
      <trkpt lat="47.3266970" lon="6.8265290">
        <ele>513.7</ele>
        <time>2022-07-20T17:05:12Z</time>
      </trkpt>
      <trkpt lat="47.3266460" lon="6.8264930">
        <ele>513.4</ele>
        <time>2022-07-20T17:05:13Z</time>
      </trkpt>
      <trkpt lat="47.3266010" lon="6.8264550">
        <ele>513.2</ele>
        <time>2022-07-20T17:05:14Z</time>
      </trkpt>
      <trkpt lat="47.3265520" lon="6.8264250">
        <ele>512.9</ele>
        <time>2022-07-20T17:05:15Z</time>
      </trkpt>
      <trkpt lat="47.3264980" lon="6.8263890">
        <ele>512.6</ele>
        <time>2022-07-20T17:05:16Z</time>
      </trkpt>
      <trkpt lat="47.3264440" lon="6.8263490">
        <ele>512.3</ele>
        <time>2022-07-20T17:05:17Z</time>
      </trkpt>
      <trkpt lat="47.3263930" lon="6.8263080">
        <ele>511.9</ele>
        <time>2022-07-20T17:05:18Z</time>
      </trkpt>
      <trkpt lat="47.3263450" lon="6.8262620">
        <ele>511.6</ele>
        <time>2022-07-20T17:05:19Z</time>
      </trkpt>
      <trkpt lat="47.3262990" lon="6.8262140">
        <ele>511.3</ele>
        <time>2022-07-20T17:05:20Z</time>
      </trkpt>
      <trkpt lat="47.3262520" lon="6.8261660">
        <ele>510.9</ele>
        <time>2022-07-20T17:05:21Z</time>
      </trkpt>
      <trkpt lat="47.3262080" lon="6.8261150">
        <ele>510.6</ele>
        <time>2022-07-20T17:05:22Z</time>
      </trkpt>
      <trkpt lat="47.3261660" lon="6.8260690">
        <ele>510.3</ele>
        <time>2022-07-20T17:05:23Z</time>
      </trkpt>
      <trkpt lat="47.3261400" lon="6.8260380">
        <ele>510.1</ele>
        <time>2022-07-20T17:05:24Z</time>
      </trkpt>
      <trkpt lat="47.3260970" lon="6.8259830">
        <ele>509.7</ele>
        <time>2022-07-20T17:05:25Z</time>
      </trkpt>
      <trkpt lat="47.3260550" lon="6.8259150">
        <ele>509.3</ele>
        <time>2022-07-20T17:05:26Z</time>
      </trkpt>
      <trkpt lat="47.3260140" lon="6.8258570">
        <ele>509.0</ele>
        <time>2022-07-20T17:05:27Z</time>
      </trkpt>
      <trkpt lat="47.3259710" lon="6.8257940">
        <ele>508.6</ele>
        <time>2022-07-20T17:05:28Z</time>
      </trkpt>
      <trkpt lat="47.3259270" lon="6.8257090">
        <ele>508.1</ele>
        <time>2022-07-20T17:05:29Z</time>
      </trkpt>
      <trkpt lat="47.3258890" lon="6.8256150">
        <ele>507.6</ele>
        <time>2022-07-20T17:05:30Z</time>
      </trkpt>
      <trkpt lat="47.3258540" lon="6.8255190">
        <ele>507.2</ele>
        <time>2022-07-20T17:05:31Z</time>
      </trkpt>
      <trkpt lat="47.3258200" lon="6.8254200">
        <ele>506.7</ele>
        <time>2022-07-20T17:05:32Z</time>
      </trkpt>
      <trkpt lat="47.3257920" lon="6.8253150">
        <ele>506.2</ele>
        <time>2022-07-20T17:05:33Z</time>
      </trkpt>
      <trkpt lat="47.3257610" lon="6.8252040">
        <ele>505.7</ele>
        <time>2022-07-20T17:05:34Z</time>
      </trkpt>
      <trkpt lat="47.3257290" lon="6.8250970">
        <ele>505.2</ele>
        <time>2022-07-20T17:05:35Z</time>
      </trkpt>
      <trkpt lat="47.3257040" lon="6.8249870">
        <ele>504.7</ele>
        <time>2022-07-20T17:05:36Z</time>
      </trkpt>
      <trkpt lat="47.3256890" lon="6.8248790">
        <ele>504.2</ele>
        <time>2022-07-20T17:05:37Z</time>
      </trkpt>
      <trkpt lat="47.3256740" lon="6.8247690">
        <ele>503.6</ele>
        <time>2022-07-20T17:05:38Z</time>
      </trkpt>
      <trkpt lat="47.3256710" lon="6.8246520">
        <ele>503.1</ele>
        <time>2022-07-20T17:05:39Z</time>
      </trkpt>
      <trkpt lat="47.3256750" lon="6.8245320">
        <ele>502.5</ele>
        <time>2022-07-20T17:05:40Z</time>
      </trkpt>
      <trkpt lat="47.3256850" lon="6.8244150">
        <ele>502.0</ele>
        <time>2022-07-20T17:05:41Z</time>
      </trkpt>
      <trkpt lat="47.3257010" lon="6.8242920">
        <ele>501.4</ele>
        <time>2022-07-20T17:05:42Z</time>
      </trkpt>
      <trkpt lat="47.3257210" lon="6.8241690">
        <ele>500.8</ele>
        <time>2022-07-20T17:05:43Z</time>
      </trkpt>
      <trkpt lat="47.3257450" lon="6.8240460">
        <ele>500.1</ele>
        <time>2022-07-20T17:05:44Z</time>
      </trkpt>
      <trkpt lat="47.3257510" lon="6.8239310">
        <ele>499.6</ele>
        <time>2022-07-20T17:05:45Z</time>
      </trkpt>
      <trkpt lat="47.3257450" lon="6.8238140">
        <ele>499.0</ele>
        <time>2022-07-20T17:05:46Z</time>
      </trkpt>
      <trkpt lat="47.3257310" lon="6.8236830">
        <ele>498.4</ele>
        <time>2022-07-20T17:05:47Z</time>
      </trkpt>
      <trkpt lat="47.3257100" lon="6.8235580">
        <ele>497.8</ele>
        <time>2022-07-20T17:05:48Z</time>
      </trkpt>
      <trkpt lat="47.3256770" lon="6.8234350">
        <ele>497.3</ele>
        <time>2022-07-20T17:05:49Z</time>
      </trkpt>
      <trkpt lat="47.3256450" lon="6.8233090">
        <ele>496.7</ele>
        <time>2022-07-20T17:05:50Z</time>
      </trkpt>
      <trkpt lat="47.3256160" lon="6.8231880">
        <ele>496.2</ele>
        <time>2022-07-20T17:05:51Z</time>
      </trkpt>
      <trkpt lat="47.3255880" lon="6.8230630">
        <ele>495.6</ele>
        <time>2022-07-20T17:05:52Z</time>
      </trkpt>
      <trkpt lat="47.3255560" lon="6.8229380">
        <ele>495.0</ele>
        <time>2022-07-20T17:05:53Z</time>
      </trkpt>
      <trkpt lat="47.3255250" lon="6.8228080">
        <ele>494.4</ele>
        <time>2022-07-20T17:05:54Z</time>
      </trkpt>
      <trkpt lat="47.3255000" lon="6.8226890">
        <ele>493.8</ele>
        <time>2022-07-20T17:05:55Z</time>
      </trkpt>
      <trkpt lat="47.3254740" lon="6.8225700">
        <ele>493.3</ele>
        <time>2022-07-20T17:05:56Z</time>
      </trkpt>
      <trkpt lat="47.3254520" lon="6.8224570">
        <ele>492.7</ele>
        <time>2022-07-20T17:05:57Z</time>
      </trkpt>
      <trkpt lat="47.3254210" lon="6.8223460">
        <ele>492.2</ele>
        <time>2022-07-20T17:05:58Z</time>
      </trkpt>
      <trkpt lat="47.3253910" lon="6.8222290">
        <ele>491.6</ele>
        <time>2022-07-20T17:05:59Z</time>
      </trkpt>
      <trkpt lat="47.3253680" lon="6.8221160">
        <ele>491.1</ele>
        <time>2022-07-20T17:06:00Z</time>
      </trkpt>
      <trkpt lat="47.3253410" lon="6.8219950">
        <ele>490.6</ele>
        <time>2022-07-20T17:06:01Z</time>
      </trkpt>
      <trkpt lat="47.3253040" lon="6.8218680">
        <ele>490.0</ele>
        <time>2022-07-20T17:06:02Z</time>
      </trkpt>
      <trkpt lat="47.3252730" lon="6.8217400">
        <ele>489.5</ele>
        <time>2022-07-20T17:06:03Z</time>
      </trkpt>
      <trkpt lat="47.3252480" lon="6.8216210">
        <ele>488.9</ele>
        <time>2022-07-20T17:06:04Z</time>
      </trkpt>
      <trkpt lat="47.3252280" lon="6.8215050">
        <ele>488.4</ele>
        <time>2022-07-20T17:06:05Z</time>
      </trkpt>
      <trkpt lat="47.3251910" lon="6.8213850">
        <ele>487.8</ele>
        <time>2022-07-20T17:06:06Z</time>
      </trkpt>
      <trkpt lat="47.3251440" lon="6.8212630">
        <ele>487.2</ele>
        <time>2022-07-20T17:06:07Z</time>
      </trkpt>
      <trkpt lat="47.3251010" lon="6.8211400">
        <ele>486.6</ele>
        <time>2022-07-20T17:06:08Z</time>
      </trkpt>
      <trkpt lat="47.3250590" lon="6.8210210">
        <ele>486.1</ele>
        <time>2022-07-20T17:06:09Z</time>
      </trkpt>
      <trkpt lat="47.3249920" lon="6.8209070">
        <ele>485.4</ele>
        <time>2022-07-20T17:06:10Z</time>
      </trkpt>
      <trkpt lat="47.3249200" lon="6.8208100">
        <ele>484.8</ele>
        <time>2022-07-20T17:06:11Z</time>
      </trkpt>
      <trkpt lat="47.3248440" lon="6.8207160">
        <ele>484.2</ele>
        <time>2022-07-20T17:06:12Z</time>
      </trkpt>
      <trkpt lat="47.3247750" lon="6.8206160">
        <ele>483.6</ele>
        <time>2022-07-20T17:06:13Z</time>
      </trkpt>
      <trkpt lat="47.3247070" lon="6.8205100">
        <ele>483.0</ele>
        <time>2022-07-20T17:06:14Z</time>
      </trkpt>
      <trkpt lat="47.3246430" lon="6.8204090">
        <ele>482.4</ele>
        <time>2022-07-20T17:06:15Z</time>
      </trkpt>
      <trkpt lat="47.3245760" lon="6.8203050">
        <ele>481.8</ele>
        <time>2022-07-20T17:06:16Z</time>
      </trkpt>
      <trkpt lat="47.3245060" lon="6.8202010">
        <ele>481.2</ele>
        <time>2022-07-20T17:06:17Z</time>
      </trkpt>
      <trkpt lat="47.3244390" lon="6.8201010">
        <ele>480.6</ele>
        <time>2022-07-20T17:06:18Z</time>
      </trkpt>
      <trkpt lat="47.3243610" lon="6.8199950">
        <ele>479.9</ele>
        <time>2022-07-20T17:06:19Z</time>
      </trkpt>
      <trkpt lat="47.3242900" lon="6.8198880">
        <ele>479.2</ele>
        <time>2022-07-20T17:06:20Z</time>
      </trkpt>
      <trkpt lat="47.3242210" lon="6.8197770">
        <ele>478.6</ele>
        <time>2022-07-20T17:06:21Z</time>
      </trkpt>
      <trkpt lat="47.3241580" lon="6.8196670">
        <ele>477.9</ele>
        <time>2022-07-20T17:06:22Z</time>
      </trkpt>
      <trkpt lat="47.3240930" lon="6.8195570">
        <ele>477.3</ele>
        <time>2022-07-20T17:06:23Z</time>
      </trkpt>
      <trkpt lat="47.3240220" lon="6.8194500">
        <ele>476.6</ele>
        <time>2022-07-20T17:06:24Z</time>
      </trkpt>
      <trkpt lat="47.3239530" lon="6.8193470">
        <ele>476.0</ele>
        <time>2022-07-20T17:06:25Z</time>
      </trkpt>
      <trkpt lat="47.3238860" lon="6.8192440">
        <ele>475.3</ele>
        <time>2022-07-20T17:06:26Z</time>
      </trkpt>
      <trkpt lat="47.3238140" lon="6.8191380">
        <ele>474.6</ele>
        <time>2022-07-20T17:06:27Z</time>
      </trkpt>
      <trkpt lat="47.3237410" lon="6.8190320">
        <ele>473.9</ele>
        <time>2022-07-20T17:06:28Z</time>
      </trkpt>
      <trkpt lat="47.3236660" lon="6.8189320">
        <ele>473.2</ele>
        <time>2022-07-20T17:06:29Z</time>
      </trkpt>
      <trkpt lat="47.3235930" lon="6.8188180">
        <ele>472.5</ele>
        <time>2022-07-20T17:06:30Z</time>
      </trkpt>
      <trkpt lat="47.3235120" lon="6.8187030">
        <ele>471.7</ele>
        <time>2022-07-20T17:06:31Z</time>
      </trkpt>
      <trkpt lat="47.3234310" lon="6.8185790">
        <ele>470.9</ele>
        <time>2022-07-20T17:06:32Z</time>
      </trkpt>
      <trkpt lat="47.3233550" lon="6.8184650">
        <ele>470.1</ele>
        <time>2022-07-20T17:06:33Z</time>
      </trkpt>
      <trkpt lat="47.3232870" lon="6.8183400">
        <ele>469.5</ele>
        <time>2022-07-20T17:06:34Z</time>
      </trkpt>
      <trkpt lat="47.3232140" lon="6.8182170">
        <ele>468.9</ele>
        <time>2022-07-20T17:06:35Z</time>
      </trkpt>
      <trkpt lat="47.3231440" lon="6.8180950">
        <ele>468.3</ele>
        <time>2022-07-20T17:06:36Z</time>
      </trkpt>
      <trkpt lat="47.3230850" lon="6.8179860">
        <ele>467.9</ele>
        <time>2022-07-20T17:06:37Z</time>
      </trkpt>
      <trkpt lat="47.3230280" lon="6.8178840">
        <ele>467.5</ele>
        <time>2022-07-20T17:06:38Z</time>
      </trkpt>
      <trkpt lat="47.3229880" lon="6.8177940">
        <ele>467.2</ele>
        <time>2022-07-20T17:06:39Z</time>
      </trkpt>
      <trkpt lat="47.3229500" lon="6.8177170">
        <ele>467.0</ele>
        <time>2022-07-20T17:06:40Z</time>
      </trkpt>
      <trkpt lat="47.3229150" lon="6.8176400">
        <ele>466.7</ele>
        <time>2022-07-20T17:06:41Z</time>
      </trkpt>
      <trkpt lat="47.3228860" lon="6.8175550">
        <ele>466.5</ele>
        <time>2022-07-20T17:06:42Z</time>
      </trkpt>
      <trkpt lat="47.3228650" lon="6.8174690">
        <ele>466.3</ele>
        <time>2022-07-20T17:06:43Z</time>
      </trkpt>
      <trkpt lat="47.3228560" lon="6.8173820">
        <ele>466.1</ele>
        <time>2022-07-20T17:06:44Z</time>
      </trkpt>
      <trkpt lat="47.3228520" lon="6.8172860">
        <ele>465.8</ele>
        <time>2022-07-20T17:06:45Z</time>
      </trkpt>
      <trkpt lat="47.3228620" lon="6.8171950">
        <ele>465.4</ele>
        <time>2022-07-20T17:06:46Z</time>
      </trkpt>
      <trkpt lat="47.3228770" lon="6.8171060">
        <ele>465.0</ele>
        <time>2022-07-20T17:06:47Z</time>
      </trkpt>
      <trkpt lat="47.3229110" lon="6.8170300">
        <ele>464.6</ele>
        <time>2022-07-20T17:06:48Z</time>
      </trkpt>
      <trkpt lat="47.3229650" lon="6.8169690">
        <ele>464.1</ele>
        <time>2022-07-20T17:06:49Z</time>
      </trkpt>
      <trkpt lat="47.3230250" lon="6.8169190">
        <ele>463.5</ele>
        <time>2022-07-20T17:06:50Z</time>
      </trkpt>
      <trkpt lat="47.3230850" lon="6.8168810">
        <ele>463.0</ele>
        <time>2022-07-20T17:06:51Z</time>
      </trkpt>
      <trkpt lat="47.3231400" lon="6.8168500">
        <ele>462.5</ele>
        <time>2022-07-20T17:06:52Z</time>
      </trkpt>
      <trkpt lat="47.3231920" lon="6.8168200">
        <ele>462.0</ele>
        <time>2022-07-20T17:06:53Z</time>
      </trkpt>
      <trkpt lat="47.3232380" lon="6.8167910">
        <ele>461.6</ele>
        <time>2022-07-20T17:06:54Z</time>
      </trkpt>
      <trkpt lat="47.3232720" lon="6.8167680">
        <ele>461.2</ele>
        <time>2022-07-20T17:06:55Z</time>
      </trkpt>
      <trkpt lat="47.3233030" lon="6.8167540">
        <ele>461.0</ele>
        <time>2022-07-20T17:06:56Z</time>
      </trkpt>
      <trkpt lat="47.3233340" lon="6.8167300">
        <ele>460.7</ele>
        <time>2022-07-20T17:06:57Z</time>
      </trkpt>
      <trkpt lat="47.3233590" lon="6.8167150">
        <ele>460.5</ele>
        <time>2022-07-20T17:06:58Z</time>
      </trkpt>
      <trkpt lat="47.3233810" lon="6.8166910">
        <ele>460.2</ele>
        <time>2022-07-20T17:06:59Z</time>
      </trkpt>
      <trkpt lat="47.3233900" lon="6.8166810">
        <ele>460.2</ele>
        <time>2022-07-20T17:07:00Z</time>
      </trkpt>
      <trkpt lat="47.3234020" lon="6.8166770">
        <ele>460.1</ele>
        <time>2022-07-20T17:07:01Z</time>
      </trkpt>
      <trkpt lat="47.3234070" lon="6.8166770">
        <ele>460.0</ele>
        <time>2022-07-20T17:07:02Z</time>
      </trkpt>
      <trkpt lat="47.3234090" lon="6.8166750">
        <ele>460.0</ele>
        <time>2022-07-20T17:07:03Z</time>
      </trkpt>
      <trkpt lat="47.3234130" lon="6.8166790">
        <ele>460.0</ele>
        <time>2022-07-20T17:07:04Z</time>
      </trkpt>
      <trkpt lat="47.3234140" lon="6.8166800">
        <ele>460.0</ele>
        <time>2022-07-20T17:07:05Z</time>
      </trkpt>
      <trkpt lat="47.3234150" lon="6.8166800">
        <ele>460.0</ele>
        <time>2022-07-20T17:07:06Z</time>
      </trkpt>
      <trkpt lat="47.3234110" lon="6.8166790">
        <ele>459.9</ele>
        <time>2022-07-20T17:07:07Z</time>
      </trkpt>
      <trkpt lat="47.3234090" lon="6.8166820">
        <ele>459.9</ele>
        <time>2022-07-20T17:07:08Z</time>
      </trkpt>
      <trkpt lat="47.3234080" lon="6.8166790">
        <ele>459.9</ele>
        <time>2022-07-20T17:07:09Z</time>
      </trkpt>
      <trkpt lat="47.3234080" lon="6.8166770">
        <ele>459.9</ele>
        <time>2022-07-20T17:07:10Z</time>
      </trkpt>
      <trkpt lat="47.3234100" lon="6.8166720">
        <ele>459.8</ele>
        <time>2022-07-20T17:07:11Z</time>
      </trkpt>
      <trkpt lat="47.3234110" lon="6.8166700">
        <ele>459.8</ele>
        <time>2022-07-20T17:07:12Z</time>
      </trkpt>
      <trkpt lat="47.3234110" lon="6.8166690">
        <ele>459.8</ele>
        <time>2022-07-20T17:07:13Z</time>
      </trkpt>
      <trkpt lat="47.3234110" lon="6.8166690">
        <ele>459.8</ele>
        <time>2022-07-20T17:07:14Z</time>
      </trkpt>
      <trkpt lat="47.3234390" lon="6.8166320">
        <ele>459.6</ele>
        <time>2022-07-20T17:09:11Z</time>
      </trkpt>
      <trkpt lat="47.3234440" lon="6.8166310">
        <ele>459.5</ele>
        <time>2022-07-20T17:09:12Z</time>
      </trkpt>
      <trkpt lat="47.3234450" lon="6.8166310">
        <ele>459.5</ele>
        <time>2022-07-20T17:09:13Z</time>
      </trkpt>
      <trkpt lat="47.3234440" lon="6.8166310">
        <ele>459.5</ele>
        <time>2022-07-20T17:09:14Z</time>
      </trkpt>
      <trkpt lat="47.3234430" lon="6.8166330">
        <ele>459.5</ele>
        <time>2022-07-20T17:09:15Z</time>
      </trkpt>
      <trkpt lat="47.3234440" lon="6.8166350">
        <ele>459.5</ele>
        <time>2022-07-20T17:09:16Z</time>
      </trkpt>
      <trkpt lat="47.3234450" lon="6.8166360">
        <ele>459.5</ele>
        <time>2022-07-20T17:09:17Z</time>
      </trkpt>
      <trkpt lat="47.3234490" lon="6.8166370">
        <ele>459.5</ele>
        <time>2022-07-20T17:09:18Z</time>
      </trkpt>
      <trkpt lat="47.3234520" lon="6.8166330">
        <ele>459.4</ele>
        <time>2022-07-20T17:09:19Z</time>
      </trkpt>
      <trkpt lat="47.3234590" lon="6.8166280">
        <ele>459.4</ele>
        <time>2022-07-20T17:09:20Z</time>
      </trkpt>
      <trkpt lat="47.3234730" lon="6.8166190">
        <ele>459.3</ele>
        <time>2022-07-20T17:09:21Z</time>
      </trkpt>
      <trkpt lat="47.3234880" lon="6.8166070">
        <ele>459.1</ele>
        <time>2022-07-20T17:09:22Z</time>
      </trkpt>
      <trkpt lat="47.3235040" lon="6.8165990">
        <ele>459.0</ele>
        <time>2022-07-20T17:09:23Z</time>
      </trkpt>
      <trkpt lat="47.3235140" lon="6.8165940">
        <ele>459.0</ele>
        <time>2022-07-20T17:09:24Z</time>
      </trkpt>
      <trkpt lat="47.3235190" lon="6.8165890">
        <ele>458.9</ele>
        <time>2022-07-20T17:09:25Z</time>
      </trkpt>
      <trkpt lat="47.3235230" lon="6.8165840">
        <ele>458.9</ele>
        <time>2022-07-20T17:09:26Z</time>
      </trkpt>
      <trkpt lat="47.3235270" lon="6.8165800">
        <ele>458.9</ele>
        <time>2022-07-20T17:09:27Z</time>
      </trkpt>
      <trkpt lat="47.3235320" lon="6.8165750">
        <ele>458.8</ele>
        <time>2022-07-20T17:09:28Z</time>
      </trkpt>
      <trkpt lat="47.3235360" lon="6.8165700">
        <ele>458.8</ele>
        <time>2022-07-20T17:09:29Z</time>
      </trkpt>
      <trkpt lat="47.3235590" lon="6.8165450">
        <ele>458.6</ele>
        <time>2022-07-20T17:09:30Z</time>
      </trkpt>
      <trkpt lat="47.3235680" lon="6.8165340">
        <ele>458.5</ele>
        <time>2022-07-20T17:09:31Z</time>
      </trkpt>
      <trkpt lat="47.3235920" lon="6.8165110">
        <ele>458.4</ele>
        <time>2022-07-20T17:09:32Z</time>
      </trkpt>
      <trkpt lat="47.3236170" lon="6.8164910">
        <ele>458.2</ele>
        <time>2022-07-20T17:09:33Z</time>
      </trkpt>
      <trkpt lat="47.3236470" lon="6.8164760">
        <ele>458.0</ele>
        <time>2022-07-20T17:09:34Z</time>
      </trkpt>
      <trkpt lat="47.3236750" lon="6.8164600">
        <ele>457.8</ele>
        <time>2022-07-20T17:09:35Z</time>
      </trkpt>
      <trkpt lat="47.3237040" lon="6.8164410">
        <ele>457.6</ele>
        <time>2022-07-20T17:09:36Z</time>
      </trkpt>
      <trkpt lat="47.3237350" lon="6.8164170">
        <ele>457.4</ele>
        <time>2022-07-20T17:09:37Z</time>
      </trkpt>
      <trkpt lat="47.3237600" lon="6.8164000">
        <ele>457.3</ele>
        <time>2022-07-20T17:09:38Z</time>
      </trkpt>
      <trkpt lat="47.3237900" lon="6.8163810">
        <ele>457.1</ele>
        <time>2022-07-20T17:09:39Z</time>
      </trkpt>
      <trkpt lat="47.3238260" lon="6.8163600">
        <ele>456.8</ele>
        <time>2022-07-20T17:09:40Z</time>
      </trkpt>
      <trkpt lat="47.3238650" lon="6.8163350">
        <ele>456.6</ele>
        <time>2022-07-20T17:09:41Z</time>
      </trkpt>
      <trkpt lat="47.3239000" lon="6.8163140">
        <ele>456.3</ele>
        <time>2022-07-20T17:09:42Z</time>
      </trkpt>
      <trkpt lat="47.3239420" lon="6.8162870">
        <ele>456.1</ele>
        <time>2022-07-20T17:09:43Z</time>
      </trkpt>
      <trkpt lat="47.3239880" lon="6.8162650">
        <ele>455.8</ele>
        <time>2022-07-20T17:09:44Z</time>
      </trkpt>
      <trkpt lat="47.3240370" lon="6.8162410">
        <ele>455.4</ele>
        <time>2022-07-20T17:09:45Z</time>
      </trkpt>
      <trkpt lat="47.3240850" lon="6.8162140">
        <ele>455.1</ele>
        <time>2022-07-20T17:09:46Z</time>
      </trkpt>
      <trkpt lat="47.3241360" lon="6.8161870">
        <ele>454.8</ele>
        <time>2022-07-20T17:09:47Z</time>
      </trkpt>
      <trkpt lat="47.3241880" lon="6.8161570">
        <ele>454.4</ele>
        <time>2022-07-20T17:09:48Z</time>
      </trkpt>
      <trkpt lat="47.3242400" lon="6.8161300">
        <ele>454.1</ele>
        <time>2022-07-20T17:09:49Z</time>
      </trkpt>
      <trkpt lat="47.3242950" lon="6.8161040">
        <ele>453.7</ele>
        <time>2022-07-20T17:09:50Z</time>
      </trkpt>
      <trkpt lat="47.3243510" lon="6.8160790">
        <ele>453.3</ele>
        <time>2022-07-20T17:09:51Z</time>
      </trkpt>
      <trkpt lat="47.3244060" lon="6.8160540">
        <ele>452.9</ele>
        <time>2022-07-20T17:09:52Z</time>
      </trkpt>
      <trkpt lat="47.3244700" lon="6.8160420">
        <ele>452.5</ele>
        <time>2022-07-20T17:09:53Z</time>
      </trkpt>
      <trkpt lat="47.3245330" lon="6.8160300">
        <ele>452.1</ele>
        <time>2022-07-20T17:09:54Z</time>
      </trkpt>
      <trkpt lat="47.3246000" lon="6.8160230">
        <ele>451.7</ele>
        <time>2022-07-20T17:09:55Z</time>
      </trkpt>
      <trkpt lat="47.3246770" lon="6.8160250">
        <ele>451.2</ele>
        <time>2022-07-20T17:09:56Z</time>
      </trkpt>
      <trkpt lat="47.3247610" lon="6.8160290">
        <ele>450.6</ele>
        <time>2022-07-20T17:09:57Z</time>
      </trkpt>
      <trkpt lat="47.3248420" lon="6.8160250">
        <ele>450.1</ele>
        <time>2022-07-20T17:09:58Z</time>
      </trkpt>
      <trkpt lat="47.3249310" lon="6.8160270">
        <ele>449.5</ele>
        <time>2022-07-20T17:09:59Z</time>
      </trkpt>
      <trkpt lat="47.3250170" lon="6.8160340">
        <ele>448.9</ele>
        <time>2022-07-20T17:10:00Z</time>
      </trkpt>
      <trkpt lat="47.3251030" lon="6.8160310">
        <ele>448.4</ele>
        <time>2022-07-20T17:10:01Z</time>
      </trkpt>
      <trkpt lat="47.3251860" lon="6.8160340">
        <ele>447.8</ele>
        <time>2022-07-20T17:10:02Z</time>
      </trkpt>
      <trkpt lat="47.3252690" lon="6.8160380">
        <ele>447.3</ele>
        <time>2022-07-20T17:10:03Z</time>
      </trkpt>
      <trkpt lat="47.3253460" lon="6.8160440">
        <ele>446.8</ele>
        <time>2022-07-20T17:10:04Z</time>
      </trkpt>
      <trkpt lat="47.3254190" lon="6.8160440">
        <ele>446.3</ele>
        <time>2022-07-20T17:10:05Z</time>
      </trkpt>
      <trkpt lat="47.3255070" lon="6.8160810">
        <ele>445.7</ele>
        <time>2022-07-20T17:10:06Z</time>
      </trkpt>
      <trkpt lat="47.3255830" lon="6.8160730">
        <ele>445.2</ele>
        <time>2022-07-20T17:10:07Z</time>
      </trkpt>
      <trkpt lat="47.3256510" lon="6.8160360">
        <ele>444.8</ele>
        <time>2022-07-20T17:10:08Z</time>
      </trkpt>
      <trkpt lat="47.3257130" lon="6.8159940">
        <ele>444.3</ele>
        <time>2022-07-20T17:10:09Z</time>
      </trkpt>
      <trkpt lat="47.3257600" lon="6.8159210">
        <ele>443.9</ele>
        <time>2022-07-20T17:10:10Z</time>
      </trkpt>
      <trkpt lat="47.3258050" lon="6.8158520">
        <ele>443.6</ele>
        <time>2022-07-20T17:10:11Z</time>
      </trkpt>
      <trkpt lat="47.3258520" lon="6.8157900">
        <ele>443.3</ele>
        <time>2022-07-20T17:10:12Z</time>
      </trkpt>
      <trkpt lat="47.3259000" lon="6.8157300">
        <ele>442.9</ele>
        <time>2022-07-20T17:10:13Z</time>
      </trkpt>
      <trkpt lat="47.3259460" lon="6.8156700">
        <ele>442.5</ele>
        <time>2022-07-20T17:10:14Z</time>
      </trkpt>
      <trkpt lat="47.3259930" lon="6.8156000">
        <ele>442.1</ele>
        <time>2022-07-20T17:10:15Z</time>
      </trkpt>
      <trkpt lat="47.3260370" lon="6.8155320">
        <ele>441.7</ele>
        <time>2022-07-20T17:10:16Z</time>
      </trkpt>
      <trkpt lat="47.3260810" lon="6.8154660">
        <ele>441.3</ele>
        <time>2022-07-20T17:10:17Z</time>
      </trkpt>
      <trkpt lat="47.3261210" lon="6.8154080">
        <ele>440.9</ele>
        <time>2022-07-20T17:10:18Z</time>
      </trkpt>
      <trkpt lat="47.3261600" lon="6.8153370">
        <ele>440.6</ele>
        <time>2022-07-20T17:10:19Z</time>
      </trkpt>
      <trkpt lat="47.3261860" lon="6.8152660">
        <ele>440.2</ele>
        <time>2022-07-20T17:10:20Z</time>
      </trkpt>
      <trkpt lat="47.3262050" lon="6.8152040">
        <ele>440.0</ele>
        <time>2022-07-20T17:10:21Z</time>
      </trkpt>
      <trkpt lat="47.3262240" lon="6.8151600">
        <ele>439.7</ele>
        <time>2022-07-20T17:10:22Z</time>
      </trkpt>
      <trkpt lat="47.3262300" lon="6.8151490">
        <ele>439.7</ele>
        <time>2022-07-20T17:10:23Z</time>
      </trkpt>
      <trkpt lat="47.3262370" lon="6.8151380">
        <ele>439.7</ele>
        <time>2022-07-20T17:10:24Z</time>
      </trkpt>
      <trkpt lat="47.3262390" lon="6.8151320">
        <ele>439.6</ele>
        <time>2022-07-20T17:10:25Z</time>
      </trkpt>
      <trkpt lat="47.3262420" lon="6.8151290">
        <ele>439.6</ele>
        <time>2022-07-20T17:10:26Z</time>
      </trkpt>
      <trkpt lat="47.3262440" lon="6.8151270">
        <ele>439.6</ele>
        <time>2022-07-20T17:10:27Z</time>
      </trkpt>
      <trkpt lat="47.3262430" lon="6.8151260">
        <ele>439.6</ele>
        <time>2022-07-20T17:10:28Z</time>
      </trkpt>
      <trkpt lat="47.3262420" lon="6.8151260">
        <ele>439.5</ele>
        <time>2022-07-20T17:10:29Z</time>
      </trkpt>
      <trkpt lat="47.3262420" lon="6.8151270">
        <ele>439.5</ele>
        <time>2022-07-20T17:10:30Z</time>
      </trkpt>
      <trkpt lat="47.3262280" lon="6.8151350">
        <ele>439.4</ele>
        <time>2022-07-20T17:10:31Z</time>
      </trkpt>
      <trkpt lat="47.3262090" lon="6.8151450">
        <ele>439.1</ele>
        <time>2022-07-20T17:10:32Z</time>
      </trkpt>
      <trkpt lat="47.3262010" lon="6.8151560">
        <ele>439.0</ele>
        <time>2022-07-20T17:10:33Z</time>
      </trkpt>
      <trkpt lat="47.3261830" lon="6.8151750">
        <ele>438.7</ele>
        <time>2022-07-20T17:10:34Z</time>
      </trkpt>
      <trkpt lat="47.3261760" lon="6.8151790">
        <ele>438.6</ele>
        <time>2022-07-20T17:10:35Z</time>
      </trkpt>
      <trkpt lat="47.3261680" lon="6.8151830">
        <ele>438.5</ele>
        <time>2022-07-20T17:10:36Z</time>
      </trkpt>
      <trkpt lat="47.3261320" lon="6.8151820">
        <ele>438.1</ele>
        <time>2022-07-20T17:10:37Z</time>
      </trkpt>
      <trkpt lat="47.3261000" lon="6.8151880">
        <ele>437.8</ele>
        <time>2022-07-20T17:10:38Z</time>
      </trkpt>
      <trkpt lat="47.3260580" lon="6.8151960">
        <ele>437.3</ele>
        <time>2022-07-20T17:10:39Z</time>
      </trkpt>
      <trkpt lat="47.3260240" lon="6.8152000">
        <ele>436.9</ele>
        <time>2022-07-20T17:10:40Z</time>
      </trkpt>
      <trkpt lat="47.3259800" lon="6.8152000">
        <ele>436.4</ele>
        <time>2022-07-20T17:10:41Z</time>
      </trkpt>
      <trkpt lat="47.3259410" lon="6.8151990">
        <ele>436.0</ele>
        <time>2022-07-20T17:10:42Z</time>
      </trkpt>
      <trkpt lat="47.3258960" lon="6.8151980">
        <ele>435.4</ele>
        <time>2022-07-20T17:10:43Z</time>
      </trkpt>
      <trkpt lat="47.3258390" lon="6.8151990">
        <ele>434.7</ele>
        <time>2022-07-20T17:10:44Z</time>
      </trkpt>
      <trkpt lat="47.3257910" lon="6.8151950">
        <ele>434.1</ele>
        <time>2022-07-20T17:10:45Z</time>
      </trkpt>
      <trkpt lat="47.3257300" lon="6.8151930">
        <ele>433.4</ele>
        <time>2022-07-20T17:10:46Z</time>
      </trkpt>
      <trkpt lat="47.3256830" lon="6.8151920">
        <ele>432.8</ele>
        <time>2022-07-20T17:10:47Z</time>
      </trkpt>
      <trkpt lat="47.3256310" lon="6.8151880">
        <ele>432.2</ele>
        <time>2022-07-20T17:10:48Z</time>
      </trkpt>
      <trkpt lat="47.3255890" lon="6.8151840">
        <ele>431.7</ele>
        <time>2022-07-20T17:10:49Z</time>
      </trkpt>
      <trkpt lat="47.3255370" lon="6.8151800">
        <ele>431.0</ele>
        <time>2022-07-20T17:10:50Z</time>
      </trkpt>
      <trkpt lat="47.3255030" lon="6.8151630">
        <ele>430.6</ele>
        <time>2022-07-20T17:10:51Z</time>
      </trkpt>
      <trkpt lat="47.3254700" lon="6.8151380">
        <ele>430.1</ele>
        <time>2022-07-20T17:10:52Z</time>
      </trkpt>
      <trkpt lat="47.3254550" lon="6.8151310">
        <ele>429.9</ele>
        <time>2022-07-20T17:10:53Z</time>
      </trkpt>
      <trkpt lat="47.3254190" lon="6.8151120">
        <ele>429.4</ele>
        <time>2022-07-20T17:10:54Z</time>
      </trkpt>
      <trkpt lat="47.3254040" lon="6.8151030">
        <ele>429.2</ele>
        <time>2022-07-20T17:10:55Z</time>
      </trkpt>
      <trkpt lat="47.3253600" lon="6.8150740">
        <ele>428.6</ele>
        <time>2022-07-20T17:10:56Z</time>
      </trkpt>
      <trkpt lat="47.3253220" lon="6.8150490">
        <ele>428.1</ele>
        <time>2022-07-20T17:10:57Z</time>
      </trkpt>
      <trkpt lat="47.3252790" lon="6.8150220">
        <ele>427.5</ele>
        <time>2022-07-20T17:10:58Z</time>
      </trkpt>
      <trkpt lat="47.3252320" lon="6.8149910">
        <ele>426.9</ele>
        <time>2022-07-20T17:10:59Z</time>
      </trkpt>
      <trkpt lat="47.3251850" lon="6.8149610">
        <ele>426.3</ele>
        <time>2022-07-20T17:11:00Z</time>
      </trkpt>
      <trkpt lat="47.3251410" lon="6.8149380">
        <ele>425.7</ele>
        <time>2022-07-20T17:11:01Z</time>
      </trkpt>
      <trkpt lat="47.3251030" lon="6.8149120">
        <ele>425.1</ele>
        <time>2022-07-20T17:11:02Z</time>
      </trkpt>
      <trkpt lat="47.3250740" lon="6.8148850">
        <ele>424.7</ele>
        <time>2022-07-20T17:11:03Z</time>
      </trkpt>
      <trkpt lat="47.3250440" lon="6.8148570">
        <ele>424.2</ele>
        <time>2022-07-20T17:11:04Z</time>
      </trkpt>
      <trkpt lat="47.3250080" lon="6.8148080">
        <ele>423.6</ele>
        <time>2022-07-20T17:11:05Z</time>
      </trkpt>
      <trkpt lat="47.3249890" lon="6.8147870">
        <ele>423.3</ele>
        <time>2022-07-20T17:11:06Z</time>
      </trkpt>
      <trkpt lat="47.3249580" lon="6.8147650">
        <ele>422.9</ele>
        <time>2022-07-20T17:11:07Z</time>
      </trkpt>
      <trkpt lat="47.3249230" lon="6.8147510">
        <ele>422.4</ele>
        <time>2022-07-20T17:11:08Z</time>
      </trkpt>
      <trkpt lat="47.3248910" lon="6.8147260">
        <ele>422.0</ele>
        <time>2022-07-20T17:11:09Z</time>
      </trkpt>
      <trkpt lat="47.3248600" lon="6.8146970">
        <ele>421.5</ele>
        <time>2022-07-20T17:11:10Z</time>
      </trkpt>
      <trkpt lat="47.3248240" lon="6.8146540">
        <ele>420.9</ele>
        <time>2022-07-20T17:11:11Z</time>
      </trkpt>
      <trkpt lat="47.3247850" lon="6.8145970">
        <ele>420.2</ele>
        <time>2022-07-20T17:11:12Z</time>
      </trkpt>
      <trkpt lat="47.3247390" lon="6.8145450">
        <ele>419.5</ele>
        <time>2022-07-20T17:11:13Z</time>
      </trkpt>
      <trkpt lat="47.3246920" lon="6.8145060">
        <ele>418.8</ele>
        <time>2022-07-20T17:11:14Z</time>
      </trkpt>
      <trkpt lat="47.3246390" lon="6.8144700">
        <ele>418.1</ele>
        <time>2022-07-20T17:11:15Z</time>
      </trkpt>
      <trkpt lat="47.3245800" lon="6.8144460">
        <ele>417.3</ele>
        <time>2022-07-20T17:11:16Z</time>
      </trkpt>
      <trkpt lat="47.3245250" lon="6.8144220">
        <ele>416.5</ele>
        <time>2022-07-20T17:11:17Z</time>
      </trkpt>
      <trkpt lat="47.3244730" lon="6.8143980">
        <ele>415.8</ele>
        <time>2022-07-20T17:11:18Z</time>
      </trkpt>
      <trkpt lat="47.3244180" lon="6.8143730">
        <ele>415.0</ele>
        <time>2022-07-20T17:11:19Z</time>
      </trkpt>
      <trkpt lat="47.3243620" lon="6.8143520">
        <ele>414.2</ele>
        <time>2022-07-20T17:11:20Z</time>
      </trkpt>
      <trkpt lat="47.3243070" lon="6.8143280">
        <ele>413.4</ele>
        <time>2022-07-20T17:11:21Z</time>
      </trkpt>
      <trkpt lat="47.3242430" lon="6.8143070">
        <ele>412.5</ele>
        <time>2022-07-20T17:11:22Z</time>
      </trkpt>
      <trkpt lat="47.3241710" lon="6.8142880">
        <ele>411.5</ele>
        <time>2022-07-20T17:11:23Z</time>
      </trkpt>
      <trkpt lat="47.3241060" lon="6.8142650">
        <ele>410.5</ele>
        <time>2022-07-20T17:11:24Z</time>
      </trkpt>
      <trkpt lat="47.3240520" lon="6.8142430">
        <ele>409.7</ele>
        <time>2022-07-20T17:11:25Z</time>
      </trkpt>
      <trkpt lat="47.3240020" lon="6.8142250">
        <ele>408.9</ele>
        <time>2022-07-20T17:11:26Z</time>
      </trkpt>
      <trkpt lat="47.3239580" lon="6.8142050">
        <ele>408.2</ele>
        <time>2022-07-20T17:11:27Z</time>
      </trkpt>
      <trkpt lat="47.3239080" lon="6.8141920">
        <ele>407.4</ele>
        <time>2022-07-20T17:11:28Z</time>
      </trkpt>
      <trkpt lat="47.3238580" lon="6.8141690">
        <ele>406.6</ele>
        <time>2022-07-20T17:11:29Z</time>
      </trkpt>
      <trkpt lat="47.3238130" lon="6.8141450">
        <ele>405.8</ele>
        <time>2022-07-20T17:11:30Z</time>
      </trkpt>
      <trkpt lat="47.3237680" lon="6.8141230">
        <ele>405.1</ele>
        <time>2022-07-20T17:11:31Z</time>
      </trkpt>
      <trkpt lat="47.3237160" lon="6.8140790">
        <ele>404.3</ele>
        <time>2022-07-20T17:11:32Z</time>
      </trkpt>
      <trkpt lat="47.3236710" lon="6.8140540">
        <ele>403.9</ele>
        <time>2022-07-20T17:11:33Z</time>
      </trkpt>
      <trkpt lat="47.3236120" lon="6.8140330">
        <ele>403.5</ele>
        <time>2022-07-20T17:11:34Z</time>
      </trkpt>
      <trkpt lat="47.3235440" lon="6.8140090">
        <ele>403.0</ele>
        <time>2022-07-20T17:11:35Z</time>
      </trkpt>
      <trkpt lat="47.3234800" lon="6.8139910">
        <ele>402.5</ele>
        <time>2022-07-20T17:11:36Z</time>
      </trkpt>
      <trkpt lat="47.3234110" lon="6.8139700">
        <ele>402.0</ele>
        <time>2022-07-20T17:11:37Z</time>
      </trkpt>
      <trkpt lat="47.3233330" lon="6.8139470">
        <ele>401.3</ele>
        <time>2022-07-20T17:11:38Z</time>
      </trkpt>
      <trkpt lat="47.3232550" lon="6.8139140">
        <ele>400.7</ele>
        <time>2022-07-20T17:11:39Z</time>
      </trkpt>
      <trkpt lat="47.3231800" lon="6.8138960">
        <ele>400.1</ele>
        <time>2022-07-20T17:11:40Z</time>
      </trkpt>
      <trkpt lat="47.3231040" lon="6.8138870">
        <ele>399.5</ele>
        <time>2022-07-20T17:11:41Z</time>
      </trkpt>
      <trkpt lat="47.3230270" lon="6.8138800">
        <ele>398.9</ele>
        <time>2022-07-20T17:11:42Z</time>
      </trkpt>
      <trkpt lat="47.3229450" lon="6.8138760">
        <ele>398.2</ele>
        <time>2022-07-20T17:11:43Z</time>
      </trkpt>
      <trkpt lat="47.3228620" lon="6.8138720">
        <ele>397.6</ele>
        <time>2022-07-20T17:11:44Z</time>
      </trkpt>
      <trkpt lat="47.3227910" lon="6.8138820">
        <ele>397.0</ele>
        <time>2022-07-20T17:11:45Z</time>
      </trkpt>
      <trkpt lat="47.3227170" lon="6.8139090">
        <ele>396.4</ele>
        <time>2022-07-20T17:11:46Z</time>
      </trkpt>
      <trkpt lat="47.3226420" lon="6.8139590">
        <ele>395.8</ele>
        <time>2022-07-20T17:11:47Z</time>
      </trkpt>
      <trkpt lat="47.3225710" lon="6.8140180">
        <ele>395.2</ele>
        <time>2022-07-20T17:11:48Z</time>
      </trkpt>
      <trkpt lat="47.3224970" lon="6.8140720">
        <ele>394.5</ele>
        <time>2022-07-20T17:11:49Z</time>
      </trkpt>
      <trkpt lat="47.3224250" lon="6.8141380">
        <ele>393.9</ele>
        <time>2022-07-20T17:11:50Z</time>
      </trkpt>
      <trkpt lat="47.3223600" lon="6.8142070">
        <ele>393.3</ele>
        <time>2022-07-20T17:11:51Z</time>
      </trkpt>
      <trkpt lat="47.3222980" lon="6.8142690">
        <ele>392.8</ele>
        <time>2022-07-20T17:11:52Z</time>
      </trkpt>
      <trkpt lat="47.3222290" lon="6.8143340">
        <ele>392.2</ele>
        <time>2022-07-20T17:11:53Z</time>
      </trkpt>
      <trkpt lat="47.3221600" lon="6.8144000">
        <ele>391.7</ele>
        <time>2022-07-20T17:11:54Z</time>
      </trkpt>
      <trkpt lat="47.3220810" lon="6.8144890">
        <ele>391.1</ele>
        <time>2022-07-20T17:11:55Z</time>
      </trkpt>
      <trkpt lat="47.3219980" lon="6.8145780">
        <ele>390.4</ele>
        <time>2022-07-20T17:11:56Z</time>
      </trkpt>
      <trkpt lat="47.3219260" lon="6.8146680">
        <ele>389.9</ele>
        <time>2022-07-20T17:11:57Z</time>
      </trkpt>
      <trkpt lat="47.3218560" lon="6.8147630">
        <ele>389.4</ele>
        <time>2022-07-20T17:11:58Z</time>
      </trkpt>
      <trkpt lat="47.3217790" lon="6.8148520">
        <ele>388.8</ele>
        <time>2022-07-20T17:11:59Z</time>
      </trkpt>
      <trkpt lat="47.3217080" lon="6.8149500">
        <ele>388.4</ele>
        <time>2022-07-20T17:12:00Z</time>
      </trkpt>
      <trkpt lat="47.3216360" lon="6.8150380">
        <ele>388.0</ele>
        <time>2022-07-20T17:12:01Z</time>
      </trkpt>
      <trkpt lat="47.3215640" lon="6.8151120">
        <ele>387.7</ele>
        <time>2022-07-20T17:12:02Z</time>
      </trkpt>
      <trkpt lat="47.3214990" lon="6.8151780">
        <ele>387.5</ele>
        <time>2022-07-20T17:12:03Z</time>
      </trkpt>
      <trkpt lat="47.3214370" lon="6.8152410">
        <ele>387.3</ele>
        <time>2022-07-20T17:12:04Z</time>
      </trkpt>
      <trkpt lat="47.3213710" lon="6.8152870">
        <ele>387.2</ele>
        <time>2022-07-20T17:12:05Z</time>
      </trkpt>
      <trkpt lat="47.3213120" lon="6.8153330">
        <ele>387.1</ele>
        <time>2022-07-20T17:12:06Z</time>
      </trkpt>
      <trkpt lat="47.3212600" lon="6.8153680">
        <ele>387.1</ele>
        <time>2022-07-20T17:12:07Z</time>
      </trkpt>
      <trkpt lat="47.3212230" lon="6.8154000">
        <ele>387.0</ele>
        <time>2022-07-20T17:12:08Z</time>
      </trkpt>
      <trkpt lat="47.3211880" lon="6.8154330">
        <ele>387.0</ele>
        <time>2022-07-20T17:12:09Z</time>
      </trkpt>
      <trkpt lat="47.3211730" lon="6.8154450">
        <ele>387.0</ele>
        <time>2022-07-20T17:12:10Z</time>
      </trkpt>
      <trkpt lat="47.3211370" lon="6.8154740">
        <ele>386.9</ele>
        <time>2022-07-20T17:12:11Z</time>
      </trkpt>
      <trkpt lat="47.3211210" lon="6.8155100">
        <ele>386.9</ele>
        <time>2022-07-20T17:12:12Z</time>
      </trkpt>
      <trkpt lat="47.3210970" lon="6.8155500">
        <ele>386.9</ele>
        <time>2022-07-20T17:12:13Z</time>
      </trkpt>
      <trkpt lat="47.3210880" lon="6.8155590">
        <ele>386.9</ele>
        <time>2022-07-20T17:12:14Z</time>
      </trkpt>
      <trkpt lat="47.3210610" lon="6.8155890">
        <ele>386.9</ele>
        <time>2022-07-20T17:12:15Z</time>
      </trkpt>
      <trkpt lat="47.3210520" lon="6.8155980">
        <ele>386.9</ele>
        <time>2022-07-20T17:12:16Z</time>
      </trkpt>
      <trkpt lat="47.3210340" lon="6.8156370">
        <ele>386.9</ele>
        <time>2022-07-20T17:12:17Z</time>
      </trkpt>
      <trkpt lat="47.3210270" lon="6.8156480">
        <ele>386.9</ele>
        <time>2022-07-20T17:12:18Z</time>
      </trkpt>
      <trkpt lat="47.3210050" lon="6.8156720">
        <ele>386.9</ele>
        <time>2022-07-20T17:12:19Z</time>
      </trkpt>
      <trkpt lat="47.3209970" lon="6.8156790">
        <ele>386.9</ele>
        <time>2022-07-20T17:12:20Z</time>
      </trkpt>
      <trkpt lat="47.3209700" lon="6.8156980">
        <ele>386.9</ele>
        <time>2022-07-20T17:12:21Z</time>
      </trkpt>
      <trkpt lat="47.3209400" lon="6.8157190">
        <ele>386.9</ele>
        <time>2022-07-20T17:12:22Z</time>
      </trkpt>
      <trkpt lat="47.3209090" lon="6.8157410">
        <ele>386.8</ele>
        <time>2022-07-20T17:12:23Z</time>
      </trkpt>
      <trkpt lat="47.3208760" lon="6.8157680">
        <ele>386.8</ele>
        <time>2022-07-20T17:12:24Z</time>
      </trkpt>
      <trkpt lat="47.3208430" lon="6.8157990">
        <ele>386.8</ele>
        <time>2022-07-20T17:12:25Z</time>
      </trkpt>
      <trkpt lat="47.3208060" lon="6.8158320">
        <ele>386.8</ele>
        <time>2022-07-20T17:12:26Z</time>
      </trkpt>
      <trkpt lat="47.3207740" lon="6.8158600">
        <ele>386.8</ele>
        <time>2022-07-20T17:12:27Z</time>
      </trkpt>
      <trkpt lat="47.3207370" lon="6.8159020">
        <ele>386.7</ele>
        <time>2022-07-20T17:12:28Z</time>
      </trkpt>
      <trkpt lat="47.3207220" lon="6.8159210">
        <ele>386.7</ele>
        <time>2022-07-20T17:12:29Z</time>
      </trkpt>
      <trkpt lat="47.3206870" lon="6.8159600">
        <ele>386.7</ele>
        <time>2022-07-20T17:12:30Z</time>
      </trkpt>
      <trkpt lat="47.3206500" lon="6.8159960">
        <ele>386.6</ele>
        <time>2022-07-20T17:12:31Z</time>
      </trkpt>
      <trkpt lat="47.3206150" lon="6.8160250">
        <ele>386.6</ele>
        <time>2022-07-20T17:12:32Z</time>
      </trkpt>
      <trkpt lat="47.3205790" lon="6.8160560">
        <ele>386.6</ele>
        <time>2022-07-20T17:12:33Z</time>
      </trkpt>
      <trkpt lat="47.3205430" lon="6.8160870">
        <ele>386.5</ele>
        <time>2022-07-20T17:12:34Z</time>
      </trkpt>
      <trkpt lat="47.3205120" lon="6.8161160">
        <ele>386.5</ele>
        <time>2022-07-20T17:12:35Z</time>
      </trkpt>
      <trkpt lat="47.3204840" lon="6.8161390">
        <ele>386.5</ele>
        <time>2022-07-20T17:12:36Z</time>
      </trkpt>
      <trkpt lat="47.3204450" lon="6.8161700">
        <ele>386.5</ele>
        <time>2022-07-20T17:12:37Z</time>
      </trkpt>
      <trkpt lat="47.3204050" lon="6.8162010">
        <ele>386.5</ele>
        <time>2022-07-20T17:12:38Z</time>
      </trkpt>
      <trkpt lat="47.3203680" lon="6.8162300">
        <ele>386.5</ele>
        <time>2022-07-20T17:12:39Z</time>
      </trkpt>
      <trkpt lat="47.3203300" lon="6.8162580">
        <ele>386.4</ele>
        <time>2022-07-20T17:12:40Z</time>
      </trkpt>
      <trkpt lat="47.3203040" lon="6.8162780">
        <ele>386.4</ele>
        <time>2022-07-20T17:12:41Z</time>
      </trkpt>
      <trkpt lat="47.3202630" lon="6.8163140">
        <ele>386.4</ele>
        <time>2022-07-20T17:12:42Z</time>
      </trkpt>
      <trkpt lat="47.3202360" lon="6.8163370">
        <ele>386.4</ele>
        <time>2022-07-20T17:12:43Z</time>
      </trkpt>
      <trkpt lat="47.3202010" lon="6.8163650">
        <ele>386.4</ele>
        <time>2022-07-20T17:12:44Z</time>
      </trkpt>
      <trkpt lat="47.3201500" lon="6.8163960">
        <ele>386.4</ele>
        <time>2022-07-20T17:12:45Z</time>
      </trkpt>
      <trkpt lat="47.3201030" lon="6.8164340">
        <ele>386.4</ele>
        <time>2022-07-20T17:12:46Z</time>
      </trkpt>
      <trkpt lat="47.3200710" lon="6.8164620">
        <ele>386.4</ele>
        <time>2022-07-20T17:12:47Z</time>
      </trkpt>
      <trkpt lat="47.3200260" lon="6.8165020">
        <ele>386.3</ele>
        <time>2022-07-20T17:12:48Z</time>
      </trkpt>
      <trkpt lat="47.3199950" lon="6.8165260">
        <ele>386.3</ele>
        <time>2022-07-20T17:12:49Z</time>
      </trkpt>
      <trkpt lat="47.3199470" lon="6.8165570">
        <ele>386.2</ele>
        <time>2022-07-20T17:12:50Z</time>
      </trkpt>
      <trkpt lat="47.3198900" lon="6.8165860">
        <ele>386.1</ele>
        <time>2022-07-20T17:12:51Z</time>
      </trkpt>
      <trkpt lat="47.3198370" lon="6.8166270">
        <ele>386.0</ele>
        <time>2022-07-20T17:12:52Z</time>
      </trkpt>
      <trkpt lat="47.3197860" lon="6.8166600">
        <ele>385.9</ele>
        <time>2022-07-20T17:12:53Z</time>
      </trkpt>
      <trkpt lat="47.3197270" lon="6.8166680">
        <ele>385.8</ele>
        <time>2022-07-20T17:12:54Z</time>
      </trkpt>
      <trkpt lat="47.3196680" lon="6.8166560">
        <ele>385.8</ele>
        <time>2022-07-20T17:12:55Z</time>
      </trkpt>
      <trkpt lat="47.3196120" lon="6.8166380">
        <ele>385.7</ele>
        <time>2022-07-20T17:12:56Z</time>
      </trkpt>
      <trkpt lat="47.3195620" lon="6.8166070">
        <ele>385.6</ele>
        <time>2022-07-20T17:12:57Z</time>
      </trkpt>
      <trkpt lat="47.3195260" lon="6.8165650">
        <ele>385.5</ele>
        <time>2022-07-20T17:12:58Z</time>
      </trkpt>
      <trkpt lat="47.3194970" lon="6.8165050">
        <ele>385.4</ele>
        <time>2022-07-20T17:12:59Z</time>
      </trkpt>
      <trkpt lat="47.3194760" lon="6.8164340">
        <ele>385.3</ele>
        <time>2022-07-20T17:13:00Z</time>
      </trkpt>
      <trkpt lat="47.3194530" lon="6.8163700">
        <ele>385.2</ele>
        <time>2022-07-20T17:13:01Z</time>
      </trkpt>
      <trkpt lat="47.3194350" lon="6.8162950">
        <ele>385.2</ele>
        <time>2022-07-20T17:13:02Z</time>
      </trkpt>
      <trkpt lat="47.3194290" lon="6.8162200">
        <ele>385.1</ele>
        <time>2022-07-20T17:13:03Z</time>
      </trkpt>
      <trkpt lat="47.3194380" lon="6.8161690">
        <ele>385.0</ele>
        <time>2022-07-20T17:13:04Z</time>
      </trkpt>
      <trkpt lat="47.3194530" lon="6.8160750">
        <ele>384.9</ele>
        <time>2022-07-20T17:13:05Z</time>
      </trkpt>
      <trkpt lat="47.3194740" lon="6.8159950">
        <ele>384.8</ele>
        <time>2022-07-20T17:13:06Z</time>
      </trkpt>
      <trkpt lat="47.3195020" lon="6.8159270">
        <ele>384.8</ele>
        <time>2022-07-20T17:13:07Z</time>
      </trkpt>
      <trkpt lat="47.3195360" lon="6.8158650">
        <ele>384.7</ele>
        <time>2022-07-20T17:13:08Z</time>
      </trkpt>
      <trkpt lat="47.3195690" lon="6.8158040">
        <ele>384.7</ele>
        <time>2022-07-20T17:13:09Z</time>
      </trkpt>
      <trkpt lat="47.3195880" lon="6.8157380">
        <ele>384.6</ele>
        <time>2022-07-20T17:13:10Z</time>
      </trkpt>
      <trkpt lat="47.3196030" lon="6.8156620">
        <ele>384.6</ele>
        <time>2022-07-20T17:13:11Z</time>
      </trkpt>
      <trkpt lat="47.3196280" lon="6.8156060">
        <ele>384.5</ele>
        <time>2022-07-20T17:13:12Z</time>
      </trkpt>
      <trkpt lat="47.3196570" lon="6.8155580">
        <ele>384.5</ele>
        <time>2022-07-20T17:13:13Z</time>
      </trkpt>
      <trkpt lat="47.3196890" lon="6.8155070">
        <ele>384.4</ele>
        <time>2022-07-20T17:13:14Z</time>
      </trkpt>
      <trkpt lat="47.3197190" lon="6.8154520">
        <ele>384.4</ele>
        <time>2022-07-20T17:13:15Z</time>
      </trkpt>
      <trkpt lat="47.3197480" lon="6.8154020">
        <ele>384.3</ele>
        <time>2022-07-20T17:13:16Z</time>
      </trkpt>
      <trkpt lat="47.3197630" lon="6.8153650">
        <ele>384.3</ele>
        <time>2022-07-20T17:13:17Z</time>
      </trkpt>
      <trkpt lat="47.3197870" lon="6.8153090">
        <ele>384.3</ele>
        <time>2022-07-20T17:13:18Z</time>
      </trkpt>
      <trkpt lat="47.3198080" lon="6.8152590">
        <ele>384.2</ele>
        <time>2022-07-20T17:13:19Z</time>
      </trkpt>
      <trkpt lat="47.3198360" lon="6.8152050">
        <ele>384.1</ele>
        <time>2022-07-20T17:13:20Z</time>
      </trkpt>
      <trkpt lat="47.3198670" lon="6.8151580">
        <ele>384.1</ele>
        <time>2022-07-20T17:13:21Z</time>
      </trkpt>
      <trkpt lat="47.3199030" lon="6.8151100">
        <ele>384.0</ele>
        <time>2022-07-20T17:13:22Z</time>
      </trkpt>
      <trkpt lat="47.3199240" lon="6.8150420">
        <ele>383.9</ele>
        <time>2022-07-20T17:13:23Z</time>
      </trkpt>
      <trkpt lat="47.3199360" lon="6.8149710">
        <ele>383.8</ele>
        <time>2022-07-20T17:13:24Z</time>
      </trkpt>
      <trkpt lat="47.3199450" lon="6.8149070">
        <ele>383.7</ele>
        <time>2022-07-20T17:13:25Z</time>
      </trkpt>
      <trkpt lat="47.3199500" lon="6.8148420">
        <ele>383.6</ele>
        <time>2022-07-20T17:13:26Z</time>
      </trkpt>
      <trkpt lat="47.3199490" lon="6.8147710">
        <ele>383.5</ele>
        <time>2022-07-20T17:13:27Z</time>
      </trkpt>
      <trkpt lat="47.3199440" lon="6.8147020">
        <ele>383.3</ele>
        <time>2022-07-20T17:13:28Z</time>
      </trkpt>
      <trkpt lat="47.3199300" lon="6.8146310">
        <ele>383.1</ele>
        <time>2022-07-20T17:13:29Z</time>
      </trkpt>
      <trkpt lat="47.3199070" lon="6.8145590">
        <ele>382.8</ele>
        <time>2022-07-20T17:13:30Z</time>
      </trkpt>
      <trkpt lat="47.3198770" lon="6.8144870">
        <ele>382.4</ele>
        <time>2022-07-20T17:13:31Z</time>
      </trkpt>
      <trkpt lat="47.3198380" lon="6.8144240">
        <ele>382.1</ele>
        <time>2022-07-20T17:13:32Z</time>
      </trkpt>
      <trkpt lat="47.3197910" lon="6.8143640">
        <ele>381.7</ele>
        <time>2022-07-20T17:13:33Z</time>
      </trkpt>
      <trkpt lat="47.3197440" lon="6.8143010">
        <ele>381.4</ele>
        <time>2022-07-20T17:13:34Z</time>
      </trkpt>
      <trkpt lat="47.3196950" lon="6.8142300">
        <ele>381.0</ele>
        <time>2022-07-20T17:13:35Z</time>
      </trkpt>
      <trkpt lat="47.3196550" lon="6.8141560">
        <ele>380.6</ele>
        <time>2022-07-20T17:13:36Z</time>
      </trkpt>
      <trkpt lat="47.3196140" lon="6.8140820">
        <ele>380.2</ele>
        <time>2022-07-20T17:13:37Z</time>
      </trkpt>
      <trkpt lat="47.3195700" lon="6.8140020">
        <ele>379.8</ele>
        <time>2022-07-20T17:13:38Z</time>
      </trkpt>
      <trkpt lat="47.3195270" lon="6.8139240">
        <ele>379.4</ele>
        <time>2022-07-20T17:13:39Z</time>
      </trkpt>
      <trkpt lat="47.3194880" lon="6.8138280">
        <ele>379.0</ele>
        <time>2022-07-20T17:13:40Z</time>
      </trkpt>
      <trkpt lat="47.3194470" lon="6.8137400">
        <ele>378.7</ele>
        <time>2022-07-20T17:13:41Z</time>
      </trkpt>
      <trkpt lat="47.3194090" lon="6.8136610">
        <ele>378.5</ele>
        <time>2022-07-20T17:13:42Z</time>
      </trkpt>
      <trkpt lat="47.3193730" lon="6.8135920">
        <ele>378.3</ele>
        <time>2022-07-20T17:13:43Z</time>
      </trkpt>
      <trkpt lat="47.3193350" lon="6.8135280">
        <ele>378.1</ele>
        <time>2022-07-20T17:13:44Z</time>
      </trkpt>
      <trkpt lat="47.3193060" lon="6.8134760">
        <ele>377.9</ele>
        <time>2022-07-20T17:13:45Z</time>
      </trkpt>
      <trkpt lat="47.3192920" lon="6.8134280">
        <ele>377.8</ele>
        <time>2022-07-20T17:13:46Z</time>
      </trkpt>
      <trkpt lat="47.3192880" lon="6.8134090">
        <ele>377.7</ele>
        <time>2022-07-20T17:13:47Z</time>
      </trkpt>
      <trkpt lat="47.3192820" lon="6.8133650">
        <ele>377.6</ele>
        <time>2022-07-20T17:13:48Z</time>
      </trkpt>
      <trkpt lat="47.3192720" lon="6.8133260">
        <ele>377.5</ele>
        <time>2022-07-20T17:13:49Z</time>
      </trkpt>
      <trkpt lat="47.3192450" lon="6.8132890">
        <ele>377.3</ele>
        <time>2022-07-20T17:13:50Z</time>
      </trkpt>
      <trkpt lat="47.3192100" lon="6.8132470">
        <ele>377.2</ele>
        <time>2022-07-20T17:13:51Z</time>
      </trkpt>
      <trkpt lat="47.3191680" lon="6.8132070">
        <ele>377.2</ele>
        <time>2022-07-20T17:13:52Z</time>
      </trkpt>
      <trkpt lat="47.3191270" lon="6.8131620">
        <ele>377.2</ele>
        <time>2022-07-20T17:13:53Z</time>
      </trkpt>
      <trkpt lat="47.3190860" lon="6.8131190">
        <ele>377.2</ele>
        <time>2022-07-20T17:13:54Z</time>
      </trkpt>
      <trkpt lat="47.3190430" lon="6.8130920">
        <ele>377.2</ele>
        <time>2022-07-20T17:13:55Z</time>
      </trkpt>
      <trkpt lat="47.3189930" lon="6.8130740">
        <ele>377.2</ele>
        <time>2022-07-20T17:13:56Z</time>
      </trkpt>
      <trkpt lat="47.3189370" lon="6.8130470">
        <ele>377.2</ele>
        <time>2022-07-20T17:13:57Z</time>
      </trkpt>
      <trkpt lat="47.3188870" lon="6.8130150">
        <ele>377.2</ele>
        <time>2022-07-20T17:13:58Z</time>
      </trkpt>
      <trkpt lat="47.3188390" lon="6.8129830">
        <ele>377.2</ele>
        <time>2022-07-20T17:13:59Z</time>
      </trkpt>
      <trkpt lat="47.3187930" lon="6.8129540">
        <ele>377.3</ele>
        <time>2022-07-20T17:14:00Z</time>
      </trkpt>
      <trkpt lat="47.3187480" lon="6.8129220">
        <ele>377.4</ele>
        <time>2022-07-20T17:14:01Z</time>
      </trkpt>
      <trkpt lat="47.3187050" lon="6.8128940">
        <ele>377.4</ele>
        <time>2022-07-20T17:14:02Z</time>
      </trkpt>
      <trkpt lat="47.3186740" lon="6.8128720">
        <ele>377.5</ele>
        <time>2022-07-20T17:14:03Z</time>
      </trkpt>
      <trkpt lat="47.3186310" lon="6.8128420">
        <ele>377.6</ele>
        <time>2022-07-20T17:14:04Z</time>
      </trkpt>
      <trkpt lat="47.3185960" lon="6.8128090">
        <ele>377.6</ele>
        <time>2022-07-20T17:14:05Z</time>
      </trkpt>
      <trkpt lat="47.3185640" lon="6.8127750">
        <ele>377.7</ele>
        <time>2022-07-20T17:14:06Z</time>
      </trkpt>
      <trkpt lat="47.3185330" lon="6.8127510">
        <ele>377.8</ele>
        <time>2022-07-20T17:14:07Z</time>
      </trkpt>
      <trkpt lat="47.3185040" lon="6.8127310">
        <ele>377.8</ele>
        <time>2022-07-20T17:14:08Z</time>
      </trkpt>
      <trkpt lat="47.3184670" lon="6.8127050">
        <ele>377.9</ele>
        <time>2022-07-20T17:14:09Z</time>
      </trkpt>
      <trkpt lat="47.3184510" lon="6.8126940">
        <ele>377.9</ele>
        <time>2022-07-20T17:14:10Z</time>
      </trkpt>
      <trkpt lat="47.3184250" lon="6.8126660">
        <ele>378.0</ele>
        <time>2022-07-20T17:14:11Z</time>
      </trkpt>
      <trkpt lat="47.3183980" lon="6.8126470">
        <ele>378.1</ele>
        <time>2022-07-20T17:14:12Z</time>
      </trkpt>
      <trkpt lat="47.3183700" lon="6.8126240">
        <ele>378.1</ele>
        <time>2022-07-20T17:14:13Z</time>
      </trkpt>
      <trkpt lat="47.3183370" lon="6.8125950">
        <ele>378.3</ele>
        <time>2022-07-20T17:14:14Z</time>
      </trkpt>
      <trkpt lat="47.3183250" lon="6.8125850">
        <ele>378.4</ele>
        <time>2022-07-20T17:14:15Z</time>
      </trkpt>
      <trkpt lat="47.3183010" lon="6.8125650">
        <ele>378.5</ele>
        <time>2022-07-20T17:14:16Z</time>
      </trkpt>
      <trkpt lat="47.3182750" lon="6.8125470">
        <ele>378.6</ele>
        <time>2022-07-20T17:14:17Z</time>
      </trkpt>
      <trkpt lat="47.3182420" lon="6.8125220">
        <ele>378.8</ele>
        <time>2022-07-20T17:14:18Z</time>
      </trkpt>
      <trkpt lat="47.3182290" lon="6.8125120">
        <ele>378.9</ele>
        <time>2022-07-20T17:14:19Z</time>
      </trkpt>
      <trkpt lat="47.3182010" lon="6.8124880">
        <ele>379.1</ele>
        <time>2022-07-20T17:14:20Z</time>
      </trkpt>
      <trkpt lat="47.3181680" lon="6.8124550">
        <ele>379.3</ele>
        <time>2022-07-20T17:14:21Z</time>
      </trkpt>
      <trkpt lat="47.3181560" lon="6.8124430">
        <ele>379.3</ele>
        <time>2022-07-20T17:14:22Z</time>
      </trkpt>
      <trkpt lat="47.3181320" lon="6.8124210">
        <ele>379.4</ele>
        <time>2022-07-20T17:14:23Z</time>
      </trkpt>
      <trkpt lat="47.3181080" lon="6.8124020">
        <ele>379.5</ele>
        <time>2022-07-20T17:14:24Z</time>
      </trkpt>
      <trkpt lat="47.3180790" lon="6.8123730">
        <ele>379.6</ele>
        <time>2022-07-20T17:14:25Z</time>
      </trkpt>
      <trkpt lat="47.3180700" lon="6.8123630">
        <ele>379.6</ele>
        <time>2022-07-20T17:14:26Z</time>
      </trkpt>
      <trkpt lat="47.3180640" lon="6.8123470">
        <ele>379.5</ele>
        <time>2022-07-20T17:14:27Z</time>
      </trkpt>
      <trkpt lat="47.3180590" lon="6.8123350">
        <ele>379.5</ele>
        <time>2022-07-20T17:14:28Z</time>
      </trkpt>
      <trkpt lat="47.3180550" lon="6.8123250">
        <ele>379.5</ele>
        <time>2022-07-20T17:14:29Z</time>
      </trkpt>
      <trkpt lat="47.3180480" lon="6.8123100">
        <ele>379.5</ele>
        <time>2022-07-20T17:14:30Z</time>
      </trkpt>
      <trkpt lat="47.3180470" lon="6.8123050">
        <ele>379.5</ele>
        <time>2022-07-20T17:14:31Z</time>
      </trkpt>
      <trkpt lat="47.3180500" lon="6.8123080">
        <ele>379.5</ele>
        <time>2022-07-20T17:14:32Z</time>
      </trkpt>
      <trkpt lat="47.3180500" lon="6.8123090">
        <ele>379.5</ele>
        <time>2022-07-20T17:14:33Z</time>
      </trkpt>
      <trkpt lat="47.3180470" lon="6.8123080">
        <ele>379.5</ele>
        <time>2022-07-20T17:14:34Z</time>
      </trkpt>
      <trkpt lat="47.3180400" lon="6.8123160">
        <ele>379.5</ele>
        <time>2022-07-20T17:14:35Z</time>
      </trkpt>
      <trkpt lat="47.3180380" lon="6.8123360">
        <ele>379.5</ele>
        <time>2022-07-20T17:14:36Z</time>
      </trkpt>
      <trkpt lat="47.3180420" lon="6.8123600">
        <ele>379.4</ele>
        <time>2022-07-20T17:14:37Z</time>
      </trkpt>
      <trkpt lat="47.3180580" lon="6.8123960">
        <ele>379.4</ele>
        <time>2022-07-20T17:14:38Z</time>
      </trkpt>
      <trkpt lat="47.3180650" lon="6.8124080">
        <ele>379.4</ele>
        <time>2022-07-20T17:14:39Z</time>
      </trkpt>
      <trkpt lat="47.3180950" lon="6.8124450">
        <ele>379.3</ele>
        <time>2022-07-20T17:14:40Z</time>
      </trkpt>
      <trkpt lat="47.3181060" lon="6.8124570">
        <ele>379.3</ele>
        <time>2022-07-20T17:14:41Z</time>
      </trkpt>
      <trkpt lat="47.3181340" lon="6.8124930">
        <ele>379.3</ele>
        <time>2022-07-20T17:14:42Z</time>
      </trkpt>
      <trkpt lat="47.3181430" lon="6.8125080">
        <ele>379.4</ele>
        <time>2022-07-20T17:14:43Z</time>
      </trkpt>
      <trkpt lat="47.3181560" lon="6.8125480">
        <ele>379.6</ele>
        <time>2022-07-20T17:14:44Z</time>
      </trkpt>
      <trkpt lat="47.3181590" lon="6.8125630">
        <ele>379.7</ele>
        <time>2022-07-20T17:14:45Z</time>
      </trkpt>
      <trkpt lat="47.3181580" lon="6.8125960">
        <ele>379.8</ele>
        <time>2022-07-20T17:14:46Z</time>
      </trkpt>
      <trkpt lat="47.3181560" lon="6.8126130">
        <ele>379.9</ele>
        <time>2022-07-20T17:14:47Z</time>
      </trkpt>
      <trkpt lat="47.3181480" lon="6.8126600">
        <ele>380.1</ele>
        <time>2022-07-20T17:14:48Z</time>
      </trkpt>
      <trkpt lat="47.3181450" lon="6.8126750">
        <ele>380.1</ele>
        <time>2022-07-20T17:14:49Z</time>
      </trkpt>
      <trkpt lat="47.3181320" lon="6.8127080">
        <ele>380.3</ele>
        <time>2022-07-20T17:14:50Z</time>
      </trkpt>
      <trkpt lat="47.3181260" lon="6.8127210">
        <ele>380.4</ele>
        <time>2022-07-20T17:14:51Z</time>
      </trkpt>
      <trkpt lat="47.3181060" lon="6.8127670">
        <ele>380.6</ele>
        <time>2022-07-20T17:14:52Z</time>
      </trkpt>
      <trkpt lat="47.3180990" lon="6.8127830">
        <ele>380.7</ele>
        <time>2022-07-20T17:14:53Z</time>
      </trkpt>
      <trkpt lat="47.3180850" lon="6.8128320">
        <ele>380.9</ele>
        <time>2022-07-20T17:14:54Z</time>
      </trkpt>
      <trkpt lat="47.3180810" lon="6.8128490">
        <ele>381.0</ele>
        <time>2022-07-20T17:14:55Z</time>
      </trkpt>
      <trkpt lat="47.3180660" lon="6.8129020">
        <ele>381.2</ele>
        <time>2022-07-20T17:14:56Z</time>
      </trkpt>
      <trkpt lat="47.3180620" lon="6.8129230">
        <ele>381.4</ele>
        <time>2022-07-20T17:14:57Z</time>
      </trkpt>
      <trkpt lat="47.3180520" lon="6.8129650">
        <ele>381.5</ele>
        <time>2022-07-20T17:14:58Z</time>
      </trkpt>
      <trkpt lat="47.3180490" lon="6.8129810">
        <ele>381.6</ele>
        <time>2022-07-20T17:14:59Z</time>
      </trkpt>
      <trkpt lat="47.3180460" lon="6.8130060">
        <ele>381.7</ele>
        <time>2022-07-20T17:15:00Z</time>
      </trkpt>
      <trkpt lat="47.3180410" lon="6.8130200">
        <ele>381.7</ele>
        <time>2022-07-20T17:15:01Z</time>
      </trkpt>
      <trkpt lat="47.3180300" lon="6.8130320">
        <ele>381.8</ele>
        <time>2022-07-20T17:15:02Z</time>
      </trkpt>
      <trkpt lat="47.3180100" lon="6.8130250">
        <ele>381.9</ele>
        <time>2022-07-20T17:15:03Z</time>
      </trkpt>
      <trkpt lat="47.3179900" lon="6.8130180">
        <ele>382.0</ele>
        <time>2022-07-20T17:15:04Z</time>
      </trkpt>
      <trkpt lat="47.3179750" lon="6.8130170">
        <ele>382.1</ele>
        <time>2022-07-20T17:15:05Z</time>
      </trkpt>
      <trkpt lat="47.3179670" lon="6.8130220">
        <ele>382.2</ele>
        <time>2022-07-20T17:15:06Z</time>
      </trkpt>
      <trkpt lat="47.3179590" lon="6.8130290">
        <ele>382.2</ele>
        <time>2022-07-20T17:15:07Z</time>
      </trkpt>
      <trkpt lat="47.3179500" lon="6.8130440">
        <ele>382.3</ele>
        <time>2022-07-20T17:15:08Z</time>
      </trkpt>
      <trkpt lat="47.3179400" lon="6.8130830">
        <ele>382.4</ele>
        <time>2022-07-20T17:15:09Z</time>
      </trkpt>
      <trkpt lat="47.3179380" lon="6.8130970">
        <ele>382.5</ele>
        <time>2022-07-20T17:15:10Z</time>
      </trkpt>
      <trkpt lat="47.3179370" lon="6.8131410">
        <ele>382.6</ele>
        <time>2022-07-20T17:15:11Z</time>
      </trkpt>
      <trkpt lat="47.3179380" lon="6.8131820">
        <ele>382.8</ele>
        <time>2022-07-20T17:15:12Z</time>
      </trkpt>
      <trkpt lat="47.3179410" lon="6.8132300">
        <ele>382.9</ele>
        <time>2022-07-20T17:15:13Z</time>
      </trkpt>
      <trkpt lat="47.3179440" lon="6.8132730">
        <ele>383.1</ele>
        <time>2022-07-20T17:15:14Z</time>
      </trkpt>
      <trkpt lat="47.3179420" lon="6.8133210">
        <ele>383.2</ele>
        <time>2022-07-20T17:15:15Z</time>
      </trkpt>
      <trkpt lat="47.3179410" lon="6.8133330">
        <ele>383.2</ele>
        <time>2022-07-20T17:15:16Z</time>
      </trkpt>
      <trkpt lat="47.3179370" lon="6.8133920">
        <ele>383.4</ele>
        <time>2022-07-20T17:15:17Z</time>
      </trkpt>
      <trkpt lat="47.3179350" lon="6.8134140">
        <ele>383.4</ele>
        <time>2022-07-20T17:15:18Z</time>
      </trkpt>
      <trkpt lat="47.3179300" lon="6.8134640">
        <ele>383.6</ele>
        <time>2022-07-20T17:15:19Z</time>
      </trkpt>
      <trkpt lat="47.3179290" lon="6.8134840">
        <ele>383.6</ele>
        <time>2022-07-20T17:15:20Z</time>
      </trkpt>
      <trkpt lat="47.3179260" lon="6.8135050">
        <ele>383.7</ele>
        <time>2022-07-20T17:15:21Z</time>
      </trkpt>
      <trkpt lat="47.3179240" lon="6.8135160">
        <ele>383.7</ele>
        <time>2022-07-20T17:15:22Z</time>
      </trkpt>
      <trkpt lat="47.3179240" lon="6.8135240">
        <ele>383.7</ele>
        <time>2022-07-20T17:15:23Z</time>
      </trkpt>
      <trkpt lat="47.3179230" lon="6.8135500">
        <ele>383.8</ele>
        <time>2022-07-20T17:15:24Z</time>
      </trkpt>
      <trkpt lat="47.3179220" lon="6.8135590">
        <ele>383.8</ele>
        <time>2022-07-20T17:15:25Z</time>
      </trkpt>
      <trkpt lat="47.3179200" lon="6.8135680">
        <ele>383.8</ele>
        <time>2022-07-20T17:15:26Z</time>
      </trkpt>
      <trkpt lat="47.3179180" lon="6.8135760">
        <ele>383.8</ele>
        <time>2022-07-20T17:15:27Z</time>
      </trkpt>
      <trkpt lat="47.3179100" lon="6.8135970">
        <ele>383.9</ele>
        <time>2022-07-20T17:15:28Z</time>
      </trkpt>
      <trkpt lat="47.3178990" lon="6.8136210">
        <ele>384.0</ele>
        <time>2022-07-20T17:15:29Z</time>
      </trkpt>
      <trkpt lat="47.3178910" lon="6.8136450">
        <ele>384.1</ele>
        <time>2022-07-20T17:15:30Z</time>
      </trkpt>
      <trkpt lat="47.3178880" lon="6.8136660">
        <ele>384.1</ele>
        <time>2022-07-20T17:15:31Z</time>
      </trkpt>
      <trkpt lat="47.3178890" lon="6.8137060">
        <ele>384.3</ele>
        <time>2022-07-20T17:15:32Z</time>
      </trkpt>
      <trkpt lat="47.3178880" lon="6.8137210">
        <ele>384.3</ele>
        <time>2022-07-20T17:15:33Z</time>
      </trkpt>
      <trkpt lat="47.3178810" lon="6.8137680">
        <ele>384.5</ele>
        <time>2022-07-20T17:15:34Z</time>
      </trkpt>
      <trkpt lat="47.3178790" lon="6.8137820">
        <ele>384.5</ele>
        <time>2022-07-20T17:15:35Z</time>
      </trkpt>
      <trkpt lat="47.3178770" lon="6.8138330">
        <ele>384.7</ele>
        <time>2022-07-20T17:15:36Z</time>
      </trkpt>
      <trkpt lat="47.3178760" lon="6.8138490">
        <ele>384.8</ele>
        <time>2022-07-20T17:15:37Z</time>
      </trkpt>
      <trkpt lat="47.3178740" lon="6.8138950">
        <ele>384.9</ele>
        <time>2022-07-20T17:15:38Z</time>
      </trkpt>
      <trkpt lat="47.3178750" lon="6.8139100">
        <ele>385.0</ele>
        <time>2022-07-20T17:15:39Z</time>
      </trkpt>
      <trkpt lat="47.3178790" lon="6.8139550">
        <ele>385.2</ele>
        <time>2022-07-20T17:15:40Z</time>
      </trkpt>
      <trkpt lat="47.3178810" lon="6.8139710">
        <ele>385.2</ele>
        <time>2022-07-20T17:15:41Z</time>
      </trkpt>
      <trkpt lat="47.3178800" lon="6.8140130">
        <ele>385.4</ele>
        <time>2022-07-20T17:15:42Z</time>
      </trkpt>
      <trkpt lat="47.3178790" lon="6.8140310">
        <ele>385.4</ele>
        <time>2022-07-20T17:15:43Z</time>
      </trkpt>
      <trkpt lat="47.3178740" lon="6.8140880">
        <ele>385.6</ele>
        <time>2022-07-20T17:15:44Z</time>
      </trkpt>
      <trkpt lat="47.3178730" lon="6.8141060">
        <ele>385.7</ele>
        <time>2022-07-20T17:15:45Z</time>
      </trkpt>
      <trkpt lat="47.3178750" lon="6.8141550">
        <ele>385.8</ele>
        <time>2022-07-20T17:15:46Z</time>
      </trkpt>
      <trkpt lat="47.3178760" lon="6.8141710">
        <ele>385.9</ele>
        <time>2022-07-20T17:15:47Z</time>
      </trkpt>
      <trkpt lat="47.3178800" lon="6.8142240">
        <ele>386.1</ele>
        <time>2022-07-20T17:15:48Z</time>
      </trkpt>
      <trkpt lat="47.3178820" lon="6.8142430">
        <ele>386.1</ele>
        <time>2022-07-20T17:15:49Z</time>
      </trkpt>
      <trkpt lat="47.3178880" lon="6.8142930">
        <ele>386.3</ele>
        <time>2022-07-20T17:15:50Z</time>
      </trkpt>
      <trkpt lat="47.3178910" lon="6.8143090">
        <ele>386.3</ele>
        <time>2022-07-20T17:15:51Z</time>
      </trkpt>
      <trkpt lat="47.3178980" lon="6.8143600">
        <ele>386.5</ele>
        <time>2022-07-20T17:15:52Z</time>
      </trkpt>
      <trkpt lat="47.3179000" lon="6.8143760">
        <ele>386.5</ele>
        <time>2022-07-20T17:15:53Z</time>
      </trkpt>
      <trkpt lat="47.3179050" lon="6.8144200">
        <ele>386.6</ele>
        <time>2022-07-20T17:15:54Z</time>
      </trkpt>
      <trkpt lat="47.3179060" lon="6.8144360">
        <ele>386.7</ele>
        <time>2022-07-20T17:15:55Z</time>
      </trkpt>
      <trkpt lat="47.3179130" lon="6.8144930">
        <ele>386.8</ele>
        <time>2022-07-20T17:15:56Z</time>
      </trkpt>
      <trkpt lat="47.3179160" lon="6.8145120">
        <ele>386.8</ele>
        <time>2022-07-20T17:15:57Z</time>
      </trkpt>
      <trkpt lat="47.3179270" lon="6.8145670">
        <ele>387.0</ele>
        <time>2022-07-20T17:15:58Z</time>
      </trkpt>
      <trkpt lat="47.3179320" lon="6.8145890">
        <ele>387.0</ele>
        <time>2022-07-20T17:15:59Z</time>
      </trkpt>
      <trkpt lat="47.3179370" lon="6.8146440">
        <ele>387.1</ele>
        <time>2022-07-20T17:16:00Z</time>
      </trkpt>
      <trkpt lat="47.3179380" lon="6.8146650">
        <ele>387.1</ele>
        <time>2022-07-20T17:16:01Z</time>
      </trkpt>
      <trkpt lat="47.3179350" lon="6.8147080">
        <ele>387.2</ele>
        <time>2022-07-20T17:16:02Z</time>
      </trkpt>
      <trkpt lat="47.3179390" lon="6.8147610">
        <ele>387.3</ele>
        <time>2022-07-20T17:16:03Z</time>
      </trkpt>
      <trkpt lat="47.3179400" lon="6.8147790">
        <ele>387.3</ele>
        <time>2022-07-20T17:16:04Z</time>
      </trkpt>
      <trkpt lat="47.3179390" lon="6.8148190">
        <ele>387.4</ele>
        <time>2022-07-20T17:16:05Z</time>
      </trkpt>
      <trkpt lat="47.3179350" lon="6.8148760">
        <ele>387.5</ele>
        <time>2022-07-20T17:16:06Z</time>
      </trkpt>
      <trkpt lat="47.3179340" lon="6.8148970">
        <ele>387.5</ele>
        <time>2022-07-20T17:16:07Z</time>
      </trkpt>
      <trkpt lat="47.3179320" lon="6.8149380">
        <ele>387.6</ele>
        <time>2022-07-20T17:16:08Z</time>
      </trkpt>
      <trkpt lat="47.3179340" lon="6.8149950">
        <ele>387.6</ele>
        <time>2022-07-20T17:16:09Z</time>
      </trkpt>
      <trkpt lat="47.3179370" lon="6.8150180">
        <ele>387.6</ele>
        <time>2022-07-20T17:16:10Z</time>
      </trkpt>
      <trkpt lat="47.3179410" lon="6.8150570">
        <ele>387.6</ele>
        <time>2022-07-20T17:16:11Z</time>
      </trkpt>
      <trkpt lat="47.3179470" lon="6.8151220">
        <ele>387.7</ele>
        <time>2022-07-20T17:16:12Z</time>
      </trkpt>
      <trkpt lat="47.3179500" lon="6.8151480">
        <ele>387.7</ele>
        <time>2022-07-20T17:16:13Z</time>
      </trkpt>
      <trkpt lat="47.3179530" lon="6.8151950">
        <ele>387.7</ele>
        <time>2022-07-20T17:16:14Z</time>
      </trkpt>
      <trkpt lat="47.3179570" lon="6.8152400">
        <ele>387.7</ele>
        <time>2022-07-20T17:16:15Z</time>
      </trkpt>
      <trkpt lat="47.3179610" lon="6.8152800">
        <ele>387.7</ele>
        <time>2022-07-20T17:16:16Z</time>
      </trkpt>
      <trkpt lat="47.3179620" lon="6.8153250">
        <ele>387.6</ele>
        <time>2022-07-20T17:16:17Z</time>
      </trkpt>
      <trkpt lat="47.3179680" lon="6.8153780">
        <ele>387.6</ele>
        <time>2022-07-20T17:16:18Z</time>
      </trkpt>
      <trkpt lat="47.3179740" lon="6.8154390">
        <ele>387.5</ele>
        <time>2022-07-20T17:16:19Z</time>
      </trkpt>
      <trkpt lat="47.3179800" lon="6.8154990">
        <ele>387.5</ele>
        <time>2022-07-20T17:16:20Z</time>
      </trkpt>
      <trkpt lat="47.3179830" lon="6.8155580">
        <ele>387.4</ele>
        <time>2022-07-20T17:16:21Z</time>
      </trkpt>
      <trkpt lat="47.3179870" lon="6.8156420">
        <ele>387.3</ele>
        <time>2022-07-20T17:16:22Z</time>
      </trkpt>
      <trkpt lat="47.3179920" lon="6.8157280">
        <ele>387.2</ele>
        <time>2022-07-20T17:16:24Z</time>
      </trkpt>
      <trkpt lat="47.3179990" lon="6.8158320">
        <ele>387.1</ele>
        <time>2022-07-20T17:16:25Z</time>
      </trkpt>
      <trkpt lat="47.3180060" lon="6.8159020">
        <ele>387.0</ele>
        <time>2022-07-20T17:16:26Z</time>
      </trkpt>
      <trkpt lat="47.3180150" lon="6.8159760">
        <ele>387.0</ele>
        <time>2022-07-20T17:16:27Z</time>
      </trkpt>
      <trkpt lat="47.3180280" lon="6.8160610">
        <ele>386.9</ele>
        <time>2022-07-20T17:16:28Z</time>
      </trkpt>
      <trkpt lat="47.3180400" lon="6.8161320">
        <ele>386.8</ele>
        <time>2022-07-20T17:16:29Z</time>
      </trkpt>
      <trkpt lat="47.3180240" lon="6.8162120">
        <ele>386.7</ele>
        <time>2022-07-20T17:16:30Z</time>
      </trkpt>
      <trkpt lat="47.3180190" lon="6.8162910">
        <ele>386.7</ele>
        <time>2022-07-20T17:16:31Z</time>
      </trkpt>
      <trkpt lat="47.3180200" lon="6.8163730">
        <ele>386.6</ele>
        <time>2022-07-20T17:16:32Z</time>
      </trkpt>
      <trkpt lat="47.3180270" lon="6.8164410">
        <ele>386.6</ele>
        <time>2022-07-20T17:16:33Z</time>
      </trkpt>
      <trkpt lat="47.3180320" lon="6.8165030">
        <ele>386.6</ele>
        <time>2022-07-20T17:16:34Z</time>
      </trkpt>
      <trkpt lat="47.3180360" lon="6.8165780">
        <ele>386.5</ele>
        <time>2022-07-20T17:16:35Z</time>
      </trkpt>
      <trkpt lat="47.3180390" lon="6.8166530">
        <ele>386.5</ele>
        <time>2022-07-20T17:16:36Z</time>
      </trkpt>
      <trkpt lat="47.3180470" lon="6.8167310">
        <ele>386.5</ele>
        <time>2022-07-20T17:16:37Z</time>
      </trkpt>
      <trkpt lat="47.3180650" lon="6.8168060">
        <ele>386.5</ele>
        <time>2022-07-20T17:16:38Z</time>
      </trkpt>
      <trkpt lat="47.3180730" lon="6.8168720">
        <ele>386.5</ele>
        <time>2022-07-20T17:16:39Z</time>
      </trkpt>
      <trkpt lat="47.3180710" lon="6.8169370">
        <ele>386.5</ele>
        <time>2022-07-20T17:16:40Z</time>
      </trkpt>
      <trkpt lat="47.3180710" lon="6.8170060">
        <ele>386.5</ele>
        <time>2022-07-20T17:16:41Z</time>
      </trkpt>
      <trkpt lat="47.3180800" lon="6.8170590">
        <ele>386.5</ele>
        <time>2022-07-20T17:16:42Z</time>
      </trkpt>
      <trkpt lat="47.3180850" lon="6.8171420">
        <ele>386.5</ele>
        <time>2022-07-20T17:16:43Z</time>
      </trkpt>
      <trkpt lat="47.3180910" lon="6.8172120">
        <ele>386.5</ele>
        <time>2022-07-20T17:16:44Z</time>
      </trkpt>
      <trkpt lat="47.3181010" lon="6.8172750">
        <ele>386.5</ele>
        <time>2022-07-20T17:16:45Z</time>
      </trkpt>
      <trkpt lat="47.3181060" lon="6.8173420">
        <ele>386.5</ele>
        <time>2022-07-20T17:16:46Z</time>
      </trkpt>
      <trkpt lat="47.3181070" lon="6.8174090">
        <ele>386.5</ele>
        <time>2022-07-20T17:16:47Z</time>
      </trkpt>
      <trkpt lat="47.3181110" lon="6.8174760">
        <ele>386.6</ele>
        <time>2022-07-20T17:16:48Z</time>
      </trkpt>
      <trkpt lat="47.3181100" lon="6.8175430">
        <ele>386.6</ele>
        <time>2022-07-20T17:16:49Z</time>
      </trkpt>
      <trkpt lat="47.3181090" lon="6.8176080">
        <ele>386.6</ele>
        <time>2022-07-20T17:16:50Z</time>
      </trkpt>
      <trkpt lat="47.3181140" lon="6.8176740">
        <ele>386.6</ele>
        <time>2022-07-20T17:16:51Z</time>
      </trkpt>
      <trkpt lat="47.3181260" lon="6.8177370">
        <ele>386.6</ele>
        <time>2022-07-20T17:16:52Z</time>
      </trkpt>
      <trkpt lat="47.3181380" lon="6.8178050">
        <ele>386.6</ele>
        <time>2022-07-20T17:16:53Z</time>
      </trkpt>
      <trkpt lat="47.3181450" lon="6.8178660">
        <ele>386.6</ele>
        <time>2022-07-20T17:16:54Z</time>
      </trkpt>
      <trkpt lat="47.3181490" lon="6.8179090">
        <ele>386.7</ele>
        <time>2022-07-20T17:16:55Z</time>
      </trkpt>
      <trkpt lat="47.3181610" lon="6.8179780">
        <ele>386.7</ele>
        <time>2022-07-20T17:16:56Z</time>
      </trkpt>
      <trkpt lat="47.3181750" lon="6.8180450">
        <ele>386.7</ele>
        <time>2022-07-20T17:16:57Z</time>
      </trkpt>
      <trkpt lat="47.3181810" lon="6.8181090">
        <ele>386.7</ele>
        <time>2022-07-20T17:16:58Z</time>
      </trkpt>
      <trkpt lat="47.3181870" lon="6.8181720">
        <ele>386.8</ele>
        <time>2022-07-20T17:16:59Z</time>
      </trkpt>
      <trkpt lat="47.3181970" lon="6.8182350">
        <ele>386.8</ele>
        <time>2022-07-20T17:17:00Z</time>
      </trkpt>
      <trkpt lat="47.3182080" lon="6.8183070">
        <ele>386.9</ele>
        <time>2022-07-20T17:17:01Z</time>
      </trkpt>
      <trkpt lat="47.3182190" lon="6.8183700">
        <ele>386.9</ele>
        <time>2022-07-20T17:17:02Z</time>
      </trkpt>
      <trkpt lat="47.3182370" lon="6.8184320">
        <ele>387.0</ele>
        <time>2022-07-20T17:17:03Z</time>
      </trkpt>
      <trkpt lat="47.3182830" lon="6.8184580">
        <ele>387.1</ele>
        <time>2022-07-20T17:17:05Z</time>
      </trkpt>
      <trkpt lat="47.3183070" lon="6.8185250">
        <ele>387.2</ele>
        <time>2022-07-20T17:17:06Z</time>
      </trkpt>
      <trkpt lat="47.3183220" lon="6.8185870">
        <ele>387.3</ele>
        <time>2022-07-20T17:17:07Z</time>
      </trkpt>
      <trkpt lat="47.3183430" lon="6.8186490">
        <ele>387.5</ele>
        <time>2022-07-20T17:17:08Z</time>
      </trkpt>
      <trkpt lat="47.3183570" lon="6.8187040">
        <ele>387.6</ele>
        <time>2022-07-20T17:17:09Z</time>
      </trkpt>
      <trkpt lat="47.3183720" lon="6.8187570">
        <ele>387.7</ele>
        <time>2022-07-20T17:17:10Z</time>
      </trkpt>
      <trkpt lat="47.3183940" lon="6.8188050">
        <ele>387.8</ele>
        <time>2022-07-20T17:17:11Z</time>
      </trkpt>
      <trkpt lat="47.3184130" lon="6.8188560">
        <ele>387.9</ele>
        <time>2022-07-20T17:17:12Z</time>
      </trkpt>
      <trkpt lat="47.3184320" lon="6.8189110">
        <ele>388.0</ele>
        <time>2022-07-20T17:17:13Z</time>
      </trkpt>
      <trkpt lat="47.3184730" lon="6.8189960">
        <ele>388.3</ele>
        <time>2022-07-20T17:17:15Z</time>
      </trkpt>
      <trkpt lat="47.3185050" lon="6.8190810">
        <ele>388.5</ele>
        <time>2022-07-20T17:17:17Z</time>
      </trkpt>
      <trkpt lat="47.3185210" lon="6.8191180">
        <ele>388.6</ele>
        <time>2022-07-20T17:17:18Z</time>
      </trkpt>
      <trkpt lat="47.3185400" lon="6.8191550">
        <ele>388.7</ele>
        <time>2022-07-20T17:17:19Z</time>
      </trkpt>
      <trkpt lat="47.3185600" lon="6.8191840">
        <ele>388.8</ele>
        <time>2022-07-20T17:17:20Z</time>
      </trkpt>
      <trkpt lat="47.3185840" lon="6.8192180">
        <ele>389.0</ele>
        <time>2022-07-20T17:17:21Z</time>
      </trkpt>
      <trkpt lat="47.3186100" lon="6.8192560">
        <ele>389.1</ele>
        <time>2022-07-20T17:17:22Z</time>
      </trkpt>
      <trkpt lat="47.3186380" lon="6.8192940">
        <ele>389.3</ele>
        <time>2022-07-20T17:17:23Z</time>
      </trkpt>
      <trkpt lat="47.3186960" lon="6.8193600">
        <ele>389.5</ele>
        <time>2022-07-20T17:17:25Z</time>
      </trkpt>
      <trkpt lat="47.3187210" lon="6.8193930">
        <ele>389.7</ele>
        <time>2022-07-20T17:17:26Z</time>
      </trkpt>
      <trkpt lat="47.3187460" lon="6.8194300">
        <ele>389.8</ele>
        <time>2022-07-20T17:17:27Z</time>
      </trkpt>
      <trkpt lat="47.3187710" lon="6.8194660">
        <ele>390.0</ele>
        <time>2022-07-20T17:17:28Z</time>
      </trkpt>
      <trkpt lat="47.3187940" lon="6.8194990">
        <ele>390.1</ele>
        <time>2022-07-20T17:17:29Z</time>
      </trkpt>
      <trkpt lat="47.3188180" lon="6.8195380">
        <ele>390.3</ele>
        <time>2022-07-20T17:17:30Z</time>
      </trkpt>
      <trkpt lat="47.3188630" lon="6.8196210">
        <ele>390.6</ele>
        <time>2022-07-20T17:17:32Z</time>
      </trkpt>
      <trkpt lat="47.3188790" lon="6.8196540">
        <ele>390.7</ele>
        <time>2022-07-20T17:17:33Z</time>
      </trkpt>
      <trkpt lat="47.3188970" lon="6.8196900">
        <ele>390.9</ele>
        <time>2022-07-20T17:17:34Z</time>
      </trkpt>
      <trkpt lat="47.3189110" lon="6.8197220">
        <ele>391.0</ele>
        <time>2022-07-20T17:17:35Z</time>
      </trkpt>
      <trkpt lat="47.3189500" lon="6.8197880">
        <ele>391.3</ele>
        <time>2022-07-20T17:17:37Z</time>
      </trkpt>
      <trkpt lat="47.3189690" lon="6.8198170">
        <ele>391.4</ele>
        <time>2022-07-20T17:17:38Z</time>
      </trkpt>
      <trkpt lat="47.3189910" lon="6.8198480">
        <ele>391.6</ele>
        <time>2022-07-20T17:17:39Z</time>
      </trkpt>
      <trkpt lat="47.3190120" lon="6.8198820">
        <ele>391.7</ele>
        <time>2022-07-20T17:17:40Z</time>
      </trkpt>
      <trkpt lat="47.3190330" lon="6.8199120">
        <ele>391.9</ele>
        <time>2022-07-20T17:17:41Z</time>
      </trkpt>
      <trkpt lat="47.3190540" lon="6.8199460">
        <ele>392.0</ele>
        <time>2022-07-20T17:17:42Z</time>
      </trkpt>
      <trkpt lat="47.3190760" lon="6.8199780">
        <ele>392.2</ele>
        <time>2022-07-20T17:17:43Z</time>
      </trkpt>
      <trkpt lat="47.3190960" lon="6.8200060">
        <ele>392.3</ele>
        <time>2022-07-20T17:17:44Z</time>
      </trkpt>
      <trkpt lat="47.3191270" lon="6.8200450">
        <ele>392.5</ele>
        <time>2022-07-20T17:17:46Z</time>
      </trkpt>
      <trkpt lat="47.3191520" lon="6.8200880">
        <ele>392.7</ele>
        <time>2022-07-20T17:17:47Z</time>
      </trkpt>
      <trkpt lat="47.3191740" lon="6.8201310">
        <ele>392.9</ele>
        <time>2022-07-20T17:17:48Z</time>
      </trkpt>
      <trkpt lat="47.3191800" lon="6.8201450">
        <ele>392.9</ele>
        <time>2022-07-20T17:17:49Z</time>
      </trkpt>
      <trkpt lat="47.3191920" lon="6.8201910">
        <ele>393.1</ele>
        <time>2022-07-20T17:17:50Z</time>
      </trkpt>
      <trkpt lat="47.3191980" lon="6.8202060">
        <ele>393.2</ele>
        <time>2022-07-20T17:17:51Z</time>
      </trkpt>
      <trkpt lat="47.3192250" lon="6.8202490">
        <ele>393.4</ele>
        <time>2022-07-20T17:17:52Z</time>
      </trkpt>
      <trkpt lat="47.3192350" lon="6.8202650">
        <ele>393.4</ele>
        <time>2022-07-20T17:17:53Z</time>
      </trkpt>
      <trkpt lat="47.3192560" lon="6.8202930">
        <ele>393.6</ele>
        <time>2022-07-20T17:17:54Z</time>
      </trkpt>
      <trkpt lat="47.3192760" lon="6.8203260">
        <ele>393.7</ele>
        <time>2022-07-20T17:17:55Z</time>
      </trkpt>
      <trkpt lat="47.3192810" lon="6.8203360">
        <ele>393.8</ele>
        <time>2022-07-20T17:17:56Z</time>
      </trkpt>
      <trkpt lat="47.3192990" lon="6.8203710">
        <ele>393.9</ele>
        <time>2022-07-20T17:17:57Z</time>
      </trkpt>
      <trkpt lat="47.3193040" lon="6.8203830">
        <ele>393.9</ele>
        <time>2022-07-20T17:17:58Z</time>
      </trkpt>
      <trkpt lat="47.3193250" lon="6.8204200">
        <ele>394.1</ele>
        <time>2022-07-20T17:17:59Z</time>
      </trkpt>
      <trkpt lat="47.3193340" lon="6.8204350">
        <ele>394.2</ele>
        <time>2022-07-20T17:18:00Z</time>
      </trkpt>
      <trkpt lat="47.3193510" lon="6.8204740">
        <ele>394.3</ele>
        <time>2022-07-20T17:18:01Z</time>
      </trkpt>
      <trkpt lat="47.3193870" lon="6.8205460">
        <ele>394.6</ele>
        <time>2022-07-20T17:18:03Z</time>
      </trkpt>
      <trkpt lat="47.3194110" lon="6.8205850">
        <ele>394.7</ele>
        <time>2022-07-20T17:18:04Z</time>
      </trkpt>
      <trkpt lat="47.3194320" lon="6.8206190">
        <ele>394.9</ele>
        <time>2022-07-20T17:18:05Z</time>
      </trkpt>
      <trkpt lat="47.3194590" lon="6.8206590">
        <ele>395.0</ele>
        <time>2022-07-20T17:18:06Z</time>
      </trkpt>
      <trkpt lat="47.3194690" lon="6.8206730">
        <ele>395.1</ele>
        <time>2022-07-20T17:18:07Z</time>
      </trkpt>
      <trkpt lat="47.3194940" lon="6.8207140">
        <ele>395.2</ele>
        <time>2022-07-20T17:18:08Z</time>
      </trkpt>
      <trkpt lat="47.3195030" lon="6.8207250">
        <ele>395.2</ele>
        <time>2022-07-20T17:18:09Z</time>
      </trkpt>
      <trkpt lat="47.3195220" lon="6.8207580">
        <ele>395.3</ele>
        <time>2022-07-20T17:18:10Z</time>
      </trkpt>
      <trkpt lat="47.3195410" lon="6.8207890">
        <ele>395.4</ele>
        <time>2022-07-20T17:18:11Z</time>
      </trkpt>
      <trkpt lat="47.3195590" lon="6.8208200">
        <ele>395.5</ele>
        <time>2022-07-20T17:18:12Z</time>
      </trkpt>
      <trkpt lat="47.3195750" lon="6.8208530">
        <ele>395.6</ele>
        <time>2022-07-20T17:18:13Z</time>
      </trkpt>
      <trkpt lat="47.3195970" lon="6.8208940">
        <ele>395.6</ele>
        <time>2022-07-20T17:18:14Z</time>
      </trkpt>
      <trkpt lat="47.3196030" lon="6.8209070">
        <ele>395.7</ele>
        <time>2022-07-20T17:18:15Z</time>
      </trkpt>
      <trkpt lat="47.3196210" lon="6.8209420">
        <ele>395.7</ele>
        <time>2022-07-20T17:18:16Z</time>
      </trkpt>
      <trkpt lat="47.3196370" lon="6.8209770">
        <ele>395.8</ele>
        <time>2022-07-20T17:18:17Z</time>
      </trkpt>
      <trkpt lat="47.3196560" lon="6.8210170">
        <ele>395.9</ele>
        <time>2022-07-20T17:18:18Z</time>
      </trkpt>
      <trkpt lat="47.3196750" lon="6.8210540">
        <ele>395.9</ele>
        <time>2022-07-20T17:18:19Z</time>
      </trkpt>
      <trkpt lat="47.3196970" lon="6.8210920">
        <ele>396.0</ele>
        <time>2022-07-20T17:18:20Z</time>
      </trkpt>
      <trkpt lat="47.3197190" lon="6.8211320">
        <ele>396.0</ele>
        <time>2022-07-20T17:18:21Z</time>
      </trkpt>
      <trkpt lat="47.3197390" lon="6.8211670">
        <ele>396.1</ele>
        <time>2022-07-20T17:18:22Z</time>
      </trkpt>
      <trkpt lat="47.3197590" lon="6.8212010">
        <ele>396.1</ele>
        <time>2022-07-20T17:18:23Z</time>
      </trkpt>
      <trkpt lat="47.3197790" lon="6.8212410">
        <ele>396.2</ele>
        <time>2022-07-20T17:18:24Z</time>
      </trkpt>
      <trkpt lat="47.3198010" lon="6.8212850">
        <ele>396.3</ele>
        <time>2022-07-20T17:18:25Z</time>
      </trkpt>
      <trkpt lat="47.3198230" lon="6.8213300">
        <ele>396.3</ele>
        <time>2022-07-20T17:18:26Z</time>
      </trkpt>
      <trkpt lat="47.3198380" lon="6.8213640">
        <ele>396.3</ele>
        <time>2022-07-20T17:18:27Z</time>
      </trkpt>
      <trkpt lat="47.3198550" lon="6.8213950">
        <ele>396.4</ele>
        <time>2022-07-20T17:18:28Z</time>
      </trkpt>
      <trkpt lat="47.3198730" lon="6.8214270">
        <ele>396.4</ele>
        <time>2022-07-20T17:18:29Z</time>
      </trkpt>
      <trkpt lat="47.3198930" lon="6.8214670">
        <ele>396.5</ele>
        <time>2022-07-20T17:18:30Z</time>
      </trkpt>
      <trkpt lat="47.3199170" lon="6.8215110">
        <ele>396.5</ele>
        <time>2022-07-20T17:18:31Z</time>
      </trkpt>
      <trkpt lat="47.3199420" lon="6.8215570">
        <ele>396.6</ele>
        <time>2022-07-20T17:18:32Z</time>
      </trkpt>
      <trkpt lat="47.3199640" lon="6.8215990">
        <ele>396.6</ele>
        <time>2022-07-20T17:18:33Z</time>
      </trkpt>
      <trkpt lat="47.3200120" lon="6.8216830">
        <ele>396.7</ele>
        <time>2022-07-20T17:18:35Z</time>
      </trkpt>
      <trkpt lat="47.3200370" lon="6.8217290">
        <ele>396.8</ele>
        <time>2022-07-20T17:18:36Z</time>
      </trkpt>
      <trkpt lat="47.3200630" lon="6.8217800">
        <ele>396.8</ele>
        <time>2022-07-20T17:18:37Z</time>
      </trkpt>
      <trkpt lat="47.3200850" lon="6.8218270">
        <ele>396.9</ele>
        <time>2022-07-20T17:18:38Z</time>
      </trkpt>
      <trkpt lat="47.3201040" lon="6.8218720">
        <ele>396.9</ele>
        <time>2022-07-20T17:18:39Z</time>
      </trkpt>
      <trkpt lat="47.3201370" lon="6.8219430">
        <ele>397.0</ele>
        <time>2022-07-20T17:18:41Z</time>
      </trkpt>
      <trkpt lat="47.3201720" lon="6.8220060">
        <ele>397.1</ele>
        <time>2022-07-20T17:18:42Z</time>
      </trkpt>
      <trkpt lat="47.3201950" lon="6.8220520">
        <ele>397.2</ele>
        <time>2022-07-20T17:18:43Z</time>
      </trkpt>
      <trkpt lat="47.3202150" lon="6.8220970">
        <ele>397.2</ele>
        <time>2022-07-20T17:18:44Z</time>
      </trkpt>
      <trkpt lat="47.3202330" lon="6.8221390">
        <ele>397.3</ele>
        <time>2022-07-20T17:18:45Z</time>
      </trkpt>
      <trkpt lat="47.3202520" lon="6.8221890">
        <ele>397.4</ele>
        <time>2022-07-20T17:18:46Z</time>
      </trkpt>
      <trkpt lat="47.3202830" lon="6.8222710">
        <ele>397.5</ele>
        <time>2022-07-20T17:18:48Z</time>
      </trkpt>
      <trkpt lat="47.3203080" lon="6.8223280">
        <ele>397.7</ele>
        <time>2022-07-20T17:18:49Z</time>
      </trkpt>
      <trkpt lat="47.3203490" lon="6.8223950">
        <ele>397.8</ele>
        <time>2022-07-20T17:18:51Z</time>
      </trkpt>
      <trkpt lat="47.3203740" lon="6.8224380">
        <ele>397.9</ele>
        <time>2022-07-20T17:18:52Z</time>
      </trkpt>
      <trkpt lat="47.3203940" lon="6.8224790">
        <ele>398.1</ele>
        <time>2022-07-20T17:18:53Z</time>
      </trkpt>
      <trkpt lat="47.3204400" lon="6.8225750">
        <ele>398.3</ele>
        <time>2022-07-20T17:18:55Z</time>
      </trkpt>
      <trkpt lat="47.3204630" lon="6.8226200">
        <ele>398.4</ele>
        <time>2022-07-20T17:18:56Z</time>
      </trkpt>
      <trkpt lat="47.3204870" lon="6.8226610">
        <ele>398.6</ele>
        <time>2022-07-20T17:18:57Z</time>
      </trkpt>
      <trkpt lat="47.3205070" lon="6.8226990">
        <ele>398.7</ele>
        <time>2022-07-20T17:18:58Z</time>
      </trkpt>
      <trkpt lat="47.3205380" lon="6.8227700">
        <ele>398.9</ele>
        <time>2022-07-20T17:19:00Z</time>
      </trkpt>
      <trkpt lat="47.3205500" lon="6.8228100">
        <ele>399.1</ele>
        <time>2022-07-20T17:19:01Z</time>
      </trkpt>
      <trkpt lat="47.3205620" lon="6.8228610">
        <ele>399.2</ele>
        <time>2022-07-20T17:19:02Z</time>
      </trkpt>
      <trkpt lat="47.3205730" lon="6.8229020">
        <ele>399.4</ele>
        <time>2022-07-20T17:19:03Z</time>
      </trkpt>
      <trkpt lat="47.3205870" lon="6.8229420">
        <ele>399.5</ele>
        <time>2022-07-20T17:19:04Z</time>
      </trkpt>
      <trkpt lat="47.3206010" lon="6.8229800">
        <ele>399.7</ele>
        <time>2022-07-20T17:19:05Z</time>
      </trkpt>
      <trkpt lat="47.3206130" lon="6.8230220">
        <ele>399.8</ele>
        <time>2022-07-20T17:19:06Z</time>
      </trkpt>
      <trkpt lat="47.3206240" lon="6.8230590">
        <ele>400.0</ele>
        <time>2022-07-20T17:19:07Z</time>
      </trkpt>
      <trkpt lat="47.3206330" lon="6.8231010">
        <ele>400.1</ele>
        <time>2022-07-20T17:19:08Z</time>
      </trkpt>
      <trkpt lat="47.3206470" lon="6.8231510">
        <ele>400.3</ele>
        <time>2022-07-20T17:19:09Z</time>
      </trkpt>
      <trkpt lat="47.3206620" lon="6.8232050">
        <ele>400.5</ele>
        <time>2022-07-20T17:19:11Z</time>
      </trkpt>
      <trkpt lat="47.3206780" lon="6.8232510">
        <ele>400.7</ele>
        <time>2022-07-20T17:19:12Z</time>
      </trkpt>
      <trkpt lat="47.3206900" lon="6.8232870">
        <ele>400.9</ele>
        <time>2022-07-20T17:19:13Z</time>
      </trkpt>
      <trkpt lat="47.3207050" lon="6.8233470">
        <ele>401.1</ele>
        <time>2022-07-20T17:19:15Z</time>
      </trkpt>
      <trkpt lat="47.3207090" lon="6.8233990">
        <ele>401.3</ele>
        <time>2022-07-20T17:19:16Z</time>
      </trkpt>
      <trkpt lat="47.3207100" lon="6.8234190">
        <ele>401.4</ele>
        <time>2022-07-20T17:19:17Z</time>
      </trkpt>
      <trkpt lat="47.3207150" lon="6.8234730">
        <ele>401.6</ele>
        <time>2022-07-20T17:19:18Z</time>
      </trkpt>
      <trkpt lat="47.3207170" lon="6.8234910">
        <ele>401.7</ele>
        <time>2022-07-20T17:19:19Z</time>
      </trkpt>
      <trkpt lat="47.3207240" lon="6.8235390">
        <ele>401.9</ele>
        <time>2022-07-20T17:19:20Z</time>
      </trkpt>
      <trkpt lat="47.3207260" lon="6.8235540">
        <ele>401.9</ele>
        <time>2022-07-20T17:19:21Z</time>
      </trkpt>
      <trkpt lat="47.3207300" lon="6.8235890">
        <ele>402.1</ele>
        <time>2022-07-20T17:19:22Z</time>
      </trkpt>
      <trkpt lat="47.3207520" lon="6.8236620">
        <ele>402.4</ele>
        <time>2022-07-20T17:19:24Z</time>
      </trkpt>
      <trkpt lat="47.3207710" lon="6.8237090">
        <ele>402.6</ele>
        <time>2022-07-20T17:19:25Z</time>
      </trkpt>
      <trkpt lat="47.3207790" lon="6.8237240">
        <ele>402.7</ele>
        <time>2022-07-20T17:19:26Z</time>
      </trkpt>
      <trkpt lat="47.3207910" lon="6.8237610">
        <ele>402.9</ele>
        <time>2022-07-20T17:19:27Z</time>
      </trkpt>
      <trkpt lat="47.3208030" lon="6.8238090">
        <ele>403.1</ele>
        <time>2022-07-20T17:19:28Z</time>
      </trkpt>
      <trkpt lat="47.3208070" lon="6.8238250">
        <ele>403.1</ele>
        <time>2022-07-20T17:19:29Z</time>
      </trkpt>
      <trkpt lat="47.3208150" lon="6.8238770">
        <ele>403.4</ele>
        <time>2022-07-20T17:19:30Z</time>
      </trkpt>
      <trkpt lat="47.3208180" lon="6.8238950">
        <ele>403.4</ele>
        <time>2022-07-20T17:19:31Z</time>
      </trkpt>
      <trkpt lat="47.3208250" lon="6.8239440">
        <ele>403.6</ele>
        <time>2022-07-20T17:19:32Z</time>
      </trkpt>
      <trkpt lat="47.3208280" lon="6.8239590">
        <ele>403.7</ele>
        <time>2022-07-20T17:19:33Z</time>
      </trkpt>
      <trkpt lat="47.3208320" lon="6.8240130">
        <ele>403.9</ele>
        <time>2022-07-20T17:19:34Z</time>
      </trkpt>
      <trkpt lat="47.3208330" lon="6.8240310">
        <ele>404.0</ele>
        <time>2022-07-20T17:19:35Z</time>
      </trkpt>
      <trkpt lat="47.3208330" lon="6.8240810">
        <ele>404.2</ele>
        <time>2022-07-20T17:19:36Z</time>
      </trkpt>
      <trkpt lat="47.3208330" lon="6.8240980">
        <ele>404.2</ele>
        <time>2022-07-20T17:19:37Z</time>
      </trkpt>
      <trkpt lat="47.3208280" lon="6.8241540">
        <ele>404.5</ele>
        <time>2022-07-20T17:19:38Z</time>
      </trkpt>
      <trkpt lat="47.3208250" lon="6.8241710">
        <ele>404.5</ele>
        <time>2022-07-20T17:19:39Z</time>
      </trkpt>
      <trkpt lat="47.3208210" lon="6.8242160">
        <ele>404.7</ele>
        <time>2022-07-20T17:19:40Z</time>
      </trkpt>
      <trkpt lat="47.3208200" lon="6.8242310">
        <ele>404.8</ele>
        <time>2022-07-20T17:19:41Z</time>
      </trkpt>
      <trkpt lat="47.3208320" lon="6.8243000">
        <ele>405.0</ele>
        <time>2022-07-20T17:19:43Z</time>
      </trkpt>
      <trkpt lat="47.3208570" lon="6.8243660">
        <ele>405.3</ele>
        <time>2022-07-20T17:19:45Z</time>
      </trkpt>
      <trkpt lat="47.3208780" lon="6.8244140">
        <ele>405.6</ele>
        <time>2022-07-20T17:19:46Z</time>
      </trkpt>
      <trkpt lat="47.3208850" lon="6.8244280">
        <ele>405.6</ele>
        <time>2022-07-20T17:19:47Z</time>
      </trkpt>
      <trkpt lat="47.3209020" lon="6.8244790">
        <ele>405.8</ele>
        <time>2022-07-20T17:19:48Z</time>
      </trkpt>
      <trkpt lat="47.3209080" lon="6.8244980">
        <ele>405.9</ele>
        <time>2022-07-20T17:19:49Z</time>
      </trkpt>
      <trkpt lat="47.3209190" lon="6.8245430">
        <ele>406.1</ele>
        <time>2022-07-20T17:19:50Z</time>
      </trkpt>
      <trkpt lat="47.3209230" lon="6.8245600">
        <ele>406.2</ele>
        <time>2022-07-20T17:19:51Z</time>
      </trkpt>
      <trkpt lat="47.3209340" lon="6.8246110">
        <ele>406.4</ele>
        <time>2022-07-20T17:19:52Z</time>
      </trkpt>
      <trkpt lat="47.3209370" lon="6.8246270">
        <ele>406.4</ele>
        <time>2022-07-20T17:19:53Z</time>
      </trkpt>
      <trkpt lat="47.3209490" lon="6.8246790">
        <ele>406.7</ele>
        <time>2022-07-20T17:19:54Z</time>
      </trkpt>
      <trkpt lat="47.3209520" lon="6.8246960">
        <ele>406.7</ele>
        <time>2022-07-20T17:19:55Z</time>
      </trkpt>
      <trkpt lat="47.3209670" lon="6.8247550">
        <ele>407.0</ele>
        <time>2022-07-20T17:19:57Z</time>
      </trkpt>
      <trkpt lat="47.3209920" lon="6.8247990">
        <ele>407.2</ele>
        <time>2022-07-20T17:19:58Z</time>
      </trkpt>
      <trkpt lat="47.3210120" lon="6.8248330">
        <ele>407.3</ele>
        <time>2022-07-20T17:19:59Z</time>
      </trkpt>
      <trkpt lat="47.3210320" lon="6.8248780">
        <ele>407.5</ele>
        <time>2022-07-20T17:20:00Z</time>
      </trkpt>
      <trkpt lat="47.3210360" lon="6.8248910">
        <ele>407.6</ele>
        <time>2022-07-20T17:20:01Z</time>
      </trkpt>
      <trkpt lat="47.3210470" lon="6.8249430">
        <ele>407.7</ele>
        <time>2022-07-20T17:20:02Z</time>
      </trkpt>
      <trkpt lat="47.3210520" lon="6.8249600">
        <ele>407.8</ele>
        <time>2022-07-20T17:20:03Z</time>
      </trkpt>
      <trkpt lat="47.3210620" lon="6.8250080">
        <ele>407.9</ele>
        <time>2022-07-20T17:20:04Z</time>
      </trkpt>
      <trkpt lat="47.3210650" lon="6.8250250">
        <ele>408.0</ele>
        <time>2022-07-20T17:20:05Z</time>
      </trkpt>
      <trkpt lat="47.3210730" lon="6.8250770">
        <ele>408.2</ele>
        <time>2022-07-20T17:20:06Z</time>
      </trkpt>
      <trkpt lat="47.3210740" lon="6.8250950">
        <ele>408.2</ele>
        <time>2022-07-20T17:20:07Z</time>
      </trkpt>
      <trkpt lat="47.3210780" lon="6.8251370">
        <ele>408.3</ele>
        <time>2022-07-20T17:20:08Z</time>
      </trkpt>
      <trkpt lat="47.3210820" lon="6.8251780">
        <ele>408.4</ele>
        <time>2022-07-20T17:20:09Z</time>
      </trkpt>
      <trkpt lat="47.3210880" lon="6.8252300">
        <ele>408.6</ele>
        <time>2022-07-20T17:20:10Z</time>
      </trkpt>
      <trkpt lat="47.3210890" lon="6.8252460">
        <ele>408.6</ele>
        <time>2022-07-20T17:20:11Z</time>
      </trkpt>
      <trkpt lat="47.3210880" lon="6.8252980">
        <ele>408.8</ele>
        <time>2022-07-20T17:20:12Z</time>
      </trkpt>
      <trkpt lat="47.3210880" lon="6.8253150">
        <ele>408.8</ele>
        <time>2022-07-20T17:20:13Z</time>
      </trkpt>
      <trkpt lat="47.3210960" lon="6.8253660">
        <ele>408.9</ele>
        <time>2022-07-20T17:20:14Z</time>
      </trkpt>
      <trkpt lat="47.3211000" lon="6.8253840">
        <ele>409.0</ele>
        <time>2022-07-20T17:20:15Z</time>
      </trkpt>
      <trkpt lat="47.3211100" lon="6.8254210">
        <ele>409.1</ele>
        <time>2022-07-20T17:20:16Z</time>
      </trkpt>
      <trkpt lat="47.3211280" lon="6.8254740">
        <ele>409.2</ele>
        <time>2022-07-20T17:20:17Z</time>
      </trkpt>
      <trkpt lat="47.3211350" lon="6.8254930">
        <ele>409.2</ele>
        <time>2022-07-20T17:20:18Z</time>
      </trkpt>
      <trkpt lat="47.3211510" lon="6.8255330">
        <ele>409.3</ele>
        <time>2022-07-20T17:20:19Z</time>
      </trkpt>
      <trkpt lat="47.3211710" lon="6.8255690">
        <ele>409.4</ele>
        <time>2022-07-20T17:20:20Z</time>
      </trkpt>
      <trkpt lat="47.3211930" lon="6.8256070">
        <ele>409.5</ele>
        <time>2022-07-20T17:20:21Z</time>
      </trkpt>
      <trkpt lat="47.3212120" lon="6.8256420">
        <ele>409.6</ele>
        <time>2022-07-20T17:20:22Z</time>
      </trkpt>
      <trkpt lat="47.3212310" lon="6.8256770">
        <ele>409.7</ele>
        <time>2022-07-20T17:20:23Z</time>
      </trkpt>
      <trkpt lat="47.3212520" lon="6.8257140">
        <ele>409.8</ele>
        <time>2022-07-20T17:20:24Z</time>
      </trkpt>
      <trkpt lat="47.3212700" lon="6.8257500">
        <ele>409.9</ele>
        <time>2022-07-20T17:20:25Z</time>
      </trkpt>
      <trkpt lat="47.3212900" lon="6.8257930">
        <ele>410.0</ele>
        <time>2022-07-20T17:20:26Z</time>
      </trkpt>
      <trkpt lat="47.3213080" lon="6.8258350">
        <ele>410.1</ele>
        <time>2022-07-20T17:20:27Z</time>
      </trkpt>
      <trkpt lat="47.3213220" lon="6.8258720">
        <ele>410.2</ele>
        <time>2022-07-20T17:20:28Z</time>
      </trkpt>
      <trkpt lat="47.3213350" lon="6.8259110">
        <ele>410.3</ele>
        <time>2022-07-20T17:20:29Z</time>
      </trkpt>
      <trkpt lat="47.3213610" lon="6.8259520">
        <ele>410.4</ele>
        <time>2022-07-20T17:20:30Z</time>
      </trkpt>
      <trkpt lat="47.3213790" lon="6.8259900">
        <ele>410.5</ele>
        <time>2022-07-20T17:20:31Z</time>
      </trkpt>
      <trkpt lat="47.3213930" lon="6.8260240">
        <ele>410.6</ele>
        <time>2022-07-20T17:20:32Z</time>
      </trkpt>
      <trkpt lat="47.3214130" lon="6.8260770">
        <ele>410.8</ele>
        <time>2022-07-20T17:20:33Z</time>
      </trkpt>
      <trkpt lat="47.3214190" lon="6.8260950">
        <ele>410.8</ele>
        <time>2022-07-20T17:20:34Z</time>
      </trkpt>
      <trkpt lat="47.3214340" lon="6.8261380">
        <ele>410.9</ele>
        <time>2022-07-20T17:20:35Z</time>
      </trkpt>
      <trkpt lat="47.3214490" lon="6.8261780">
        <ele>411.0</ele>
        <time>2022-07-20T17:20:36Z</time>
      </trkpt>
      <trkpt lat="47.3214690" lon="6.8262280">
        <ele>411.2</ele>
        <time>2022-07-20T17:20:37Z</time>
      </trkpt>
      <trkpt lat="47.3214780" lon="6.8262480">
        <ele>411.2</ele>
        <time>2022-07-20T17:20:38Z</time>
      </trkpt>
      <trkpt lat="47.3214930" lon="6.8262860">
        <ele>411.3</ele>
        <time>2022-07-20T17:20:39Z</time>
      </trkpt>
      <trkpt lat="47.3215110" lon="6.8263370">
        <ele>411.5</ele>
        <time>2022-07-20T17:20:40Z</time>
      </trkpt>
      <trkpt lat="47.3215170" lon="6.8263550">
        <ele>411.5</ele>
        <time>2022-07-20T17:20:41Z</time>
      </trkpt>
      <trkpt lat="47.3215300" lon="6.8263910">
        <ele>411.6</ele>
        <time>2022-07-20T17:20:42Z</time>
      </trkpt>
      <trkpt lat="47.3215420" lon="6.8264280">
        <ele>411.7</ele>
        <time>2022-07-20T17:20:43Z</time>
      </trkpt>
      <trkpt lat="47.3215590" lon="6.8264820">
        <ele>411.9</ele>
        <time>2022-07-20T17:20:44Z</time>
      </trkpt>
      <trkpt lat="47.3215650" lon="6.8265010">
        <ele>411.9</ele>
        <time>2022-07-20T17:20:45Z</time>
      </trkpt>
      <trkpt lat="47.3215800" lon="6.8265380">
        <ele>412.1</ele>
        <time>2022-07-20T17:20:46Z</time>
      </trkpt>
      <trkpt lat="47.3215910" lon="6.8265750">
        <ele>412.2</ele>
        <time>2022-07-20T17:20:47Z</time>
      </trkpt>
      <trkpt lat="47.3216160" lon="6.8266460">
        <ele>412.5</ele>
        <time>2022-07-20T17:20:49Z</time>
      </trkpt>
      <trkpt lat="47.3216290" lon="6.8266810">
        <ele>412.6</ele>
        <time>2022-07-20T17:20:50Z</time>
      </trkpt>
      <trkpt lat="47.3216430" lon="6.8267160">
        <ele>412.7</ele>
        <time>2022-07-20T17:20:51Z</time>
      </trkpt>
      <trkpt lat="47.3216570" lon="6.8267510">
        <ele>412.9</ele>
        <time>2022-07-20T17:20:52Z</time>
      </trkpt>
      <trkpt lat="47.3216700" lon="6.8267880">
        <ele>413.0</ele>
        <time>2022-07-20T17:20:53Z</time>
      </trkpt>
      <trkpt lat="47.3216830" lon="6.8268250">
        <ele>413.2</ele>
        <time>2022-07-20T17:20:54Z</time>
      </trkpt>
      <trkpt lat="47.3216960" lon="6.8268610">
        <ele>413.3</ele>
        <time>2022-07-20T17:20:55Z</time>
      </trkpt>
      <trkpt lat="47.3217180" lon="6.8269100">
        <ele>413.5</ele>
        <time>2022-07-20T17:20:56Z</time>
      </trkpt>
      <trkpt lat="47.3217240" lon="6.8269260">
        <ele>413.6</ele>
        <time>2022-07-20T17:20:57Z</time>
      </trkpt>
      <trkpt lat="47.3217370" lon="6.8269620">
        <ele>413.7</ele>
        <time>2022-07-20T17:20:58Z</time>
      </trkpt>
      <trkpt lat="47.3217520" lon="6.8269980">
        <ele>413.9</ele>
        <time>2022-07-20T17:20:59Z</time>
      </trkpt>
      <trkpt lat="47.3217680" lon="6.8270350">
        <ele>414.0</ele>
        <time>2022-07-20T17:21:00Z</time>
      </trkpt>
      <trkpt lat="47.3217830" lon="6.8270730">
        <ele>414.2</ele>
        <time>2022-07-20T17:21:01Z</time>
      </trkpt>
      <trkpt lat="47.3217990" lon="6.8271060">
        <ele>414.3</ele>
        <time>2022-07-20T17:21:02Z</time>
      </trkpt>
      <trkpt lat="47.3218230" lon="6.8271480">
        <ele>414.5</ele>
        <time>2022-07-20T17:21:03Z</time>
      </trkpt>
      <trkpt lat="47.3218310" lon="6.8271630">
        <ele>414.6</ele>
        <time>2022-07-20T17:21:04Z</time>
      </trkpt>
      <trkpt lat="47.3218520" lon="6.8272020">
        <ele>414.7</ele>
        <time>2022-07-20T17:21:05Z</time>
      </trkpt>
      <trkpt lat="47.3218590" lon="6.8272160">
        <ele>414.8</ele>
        <time>2022-07-20T17:21:06Z</time>
      </trkpt>
      <trkpt lat="47.3218790" lon="6.8272620">
        <ele>415.0</ele>
        <time>2022-07-20T17:21:07Z</time>
      </trkpt>
      <trkpt lat="47.3218860" lon="6.8272810">
        <ele>415.1</ele>
        <time>2022-07-20T17:21:08Z</time>
      </trkpt>
      <trkpt lat="47.3219000" lon="6.8273190">
        <ele>415.3</ele>
        <time>2022-07-20T17:21:09Z</time>
      </trkpt>
      <trkpt lat="47.3219170" lon="6.8273650">
        <ele>415.5</ele>
        <time>2022-07-20T17:21:10Z</time>
      </trkpt>
      <trkpt lat="47.3219230" lon="6.8273790">
        <ele>415.6</ele>
        <time>2022-07-20T17:21:11Z</time>
      </trkpt>
      <trkpt lat="47.3219350" lon="6.8274150">
        <ele>415.7</ele>
        <time>2022-07-20T17:21:12Z</time>
      </trkpt>
      <trkpt lat="47.3219540" lon="6.8274620">
        <ele>416.0</ele>
        <time>2022-07-20T17:21:13Z</time>
      </trkpt>
      <trkpt lat="47.3219600" lon="6.8274760">
        <ele>416.1</ele>
        <time>2022-07-20T17:21:14Z</time>
      </trkpt>
      <trkpt lat="47.3219800" lon="6.8275260">
        <ele>416.3</ele>
        <time>2022-07-20T17:21:15Z</time>
      </trkpt>
      <trkpt lat="47.3219860" lon="6.8275440">
        <ele>416.4</ele>
        <time>2022-07-20T17:21:16Z</time>
      </trkpt>
      <trkpt lat="47.3220040" lon="6.8275860">
        <ele>416.7</ele>
        <time>2022-07-20T17:21:17Z</time>
      </trkpt>
      <trkpt lat="47.3220100" lon="6.8276010">
        <ele>416.8</ele>
        <time>2022-07-20T17:21:18Z</time>
      </trkpt>
      <trkpt lat="47.3220320" lon="6.8276480">
        <ele>417.0</ele>
        <time>2022-07-20T17:21:19Z</time>
      </trkpt>
      <trkpt lat="47.3220400" lon="6.8276630">
        <ele>417.1</ele>
        <time>2022-07-20T17:21:20Z</time>
      </trkpt>
      <trkpt lat="47.3220640" lon="6.8277060">
        <ele>417.4</ele>
        <time>2022-07-20T17:21:21Z</time>
      </trkpt>
      <trkpt lat="47.3220720" lon="6.8277190">
        <ele>417.5</ele>
        <time>2022-07-20T17:21:22Z</time>
      </trkpt>
      <trkpt lat="47.3220950" lon="6.8277590">
        <ele>417.8</ele>
        <time>2022-07-20T17:21:23Z</time>
      </trkpt>
      <trkpt lat="47.3221020" lon="6.8277730">
        <ele>417.9</ele>
        <time>2022-07-20T17:21:24Z</time>
      </trkpt>
      <trkpt lat="47.3221180" lon="6.8278080">
        <ele>418.1</ele>
        <time>2022-07-20T17:21:25Z</time>
      </trkpt>
      <trkpt lat="47.3221220" lon="6.8278190">
        <ele>418.1</ele>
        <time>2022-07-20T17:21:26Z</time>
      </trkpt>
      <trkpt lat="47.3221360" lon="6.8278520">
        <ele>418.3</ele>
        <time>2022-07-20T17:21:27Z</time>
      </trkpt>
      <trkpt lat="47.3221420" lon="6.8278650">
        <ele>418.4</ele>
        <time>2022-07-20T17:21:28Z</time>
      </trkpt>
      <trkpt lat="47.3221600" lon="6.8279000">
        <ele>418.6</ele>
        <time>2022-07-20T17:21:29Z</time>
      </trkpt>
      <trkpt lat="47.3221670" lon="6.8279130">
        <ele>418.7</ele>
        <time>2022-07-20T17:21:30Z</time>
      </trkpt>
      <trkpt lat="47.3221860" lon="6.8279570">
        <ele>419.0</ele>
        <time>2022-07-20T17:21:31Z</time>
      </trkpt>
      <trkpt lat="47.3221920" lon="6.8279710">
        <ele>419.1</ele>
        <time>2022-07-20T17:21:32Z</time>
      </trkpt>
      <trkpt lat="47.3222060" lon="6.8280060">
        <ele>419.3</ele>
        <time>2022-07-20T17:21:33Z</time>
      </trkpt>
      <trkpt lat="47.3222230" lon="6.8280510">
        <ele>419.5</ele>
        <time>2022-07-20T17:21:34Z</time>
      </trkpt>
      <trkpt lat="47.3222280" lon="6.8280660">
        <ele>419.6</ele>
        <time>2022-07-20T17:21:35Z</time>
      </trkpt>
      <trkpt lat="47.3222450" lon="6.8281110">
        <ele>419.8</ele>
        <time>2022-07-20T17:21:36Z</time>
      </trkpt>
      <trkpt lat="47.3222500" lon="6.8281250">
        <ele>419.9</ele>
        <time>2022-07-20T17:21:37Z</time>
      </trkpt>
      <trkpt lat="47.3222690" lon="6.8281640">
        <ele>420.1</ele>
        <time>2022-07-20T17:21:38Z</time>
      </trkpt>
      <trkpt lat="47.3222760" lon="6.8281780">
        <ele>420.2</ele>
        <time>2022-07-20T17:21:39Z</time>
      </trkpt>
      <trkpt lat="47.3222960" lon="6.8282130">
        <ele>420.3</ele>
        <time>2022-07-20T17:21:40Z</time>
      </trkpt>
      <trkpt lat="47.3223150" lon="6.8282430">
        <ele>420.5</ele>
        <time>2022-07-20T17:21:41Z</time>
      </trkpt>
      <trkpt lat="47.3223420" lon="6.8283000">
        <ele>420.8</ele>
        <time>2022-07-20T17:21:43Z</time>
      </trkpt>
      <trkpt lat="47.3223640" lon="6.8283470">
        <ele>421.0</ele>
        <time>2022-07-20T17:21:44Z</time>
      </trkpt>
      <trkpt lat="47.3223710" lon="6.8283620">
        <ele>421.1</ele>
        <time>2022-07-20T17:21:45Z</time>
      </trkpt>
      <trkpt lat="47.3223920" lon="6.8284070">
        <ele>421.3</ele>
        <time>2022-07-20T17:21:46Z</time>
      </trkpt>
      <trkpt lat="47.3223990" lon="6.8284210">
        <ele>421.3</ele>
        <time>2022-07-20T17:21:47Z</time>
      </trkpt>
      <trkpt lat="47.3224180" lon="6.8284650">
        <ele>421.5</ele>
        <time>2022-07-20T17:21:48Z</time>
      </trkpt>
      <trkpt lat="47.3224250" lon="6.8284810">
        <ele>421.6</ele>
        <time>2022-07-20T17:21:49Z</time>
      </trkpt>
      <trkpt lat="47.3224460" lon="6.8285320">
        <ele>421.7</ele>
        <time>2022-07-20T17:21:50Z</time>
      </trkpt>
      <trkpt lat="47.3224540" lon="6.8285490">
        <ele>421.8</ele>
        <time>2022-07-20T17:21:51Z</time>
      </trkpt>
      <trkpt lat="47.3224670" lon="6.8286030">
        <ele>422.0</ele>
        <time>2022-07-20T17:21:52Z</time>
      </trkpt>
      <trkpt lat="47.3224690" lon="6.8286230">
        <ele>422.1</ele>
        <time>2022-07-20T17:21:53Z</time>
      </trkpt>
      <trkpt lat="47.3224810" lon="6.8286590">
        <ele>422.2</ele>
        <time>2022-07-20T17:21:54Z</time>
      </trkpt>
      <trkpt lat="47.3224970" lon="6.8286920">
        <ele>422.3</ele>
        <time>2022-07-20T17:21:55Z</time>
      </trkpt>
      <trkpt lat="47.3225200" lon="6.8287410">
        <ele>422.4</ele>
        <time>2022-07-20T17:21:56Z</time>
      </trkpt>
      <trkpt lat="47.3225270" lon="6.8287570">
        <ele>422.5</ele>
        <time>2022-07-20T17:21:57Z</time>
      </trkpt>
      <trkpt lat="47.3225430" lon="6.8287910">
        <ele>422.6</ele>
        <time>2022-07-20T17:21:58Z</time>
      </trkpt>
      <trkpt lat="47.3225630" lon="6.8288380">
        <ele>422.7</ele>
        <time>2022-07-20T17:21:59Z</time>
      </trkpt>
      <trkpt lat="47.3225700" lon="6.8288540">
        <ele>422.7</ele>
        <time>2022-07-20T17:22:00Z</time>
      </trkpt>
      <trkpt lat="47.3225860" lon="6.8289000">
        <ele>422.8</ele>
        <time>2022-07-20T17:22:01Z</time>
      </trkpt>
      <trkpt lat="47.3225920" lon="6.8289160">
        <ele>422.9</ele>
        <time>2022-07-20T17:22:02Z</time>
      </trkpt>
      <trkpt lat="47.3226060" lon="6.8289530">
        <ele>422.9</ele>
        <time>2022-07-20T17:22:03Z</time>
      </trkpt>
      <trkpt lat="47.3226220" lon="6.8290070">
        <ele>423.0</ele>
        <time>2022-07-20T17:22:04Z</time>
      </trkpt>
      <trkpt lat="47.3226360" lon="6.8290440">
        <ele>423.1</ele>
        <time>2022-07-20T17:22:05Z</time>
      </trkpt>
      <trkpt lat="47.3226550" lon="6.8290870">
        <ele>423.2</ele>
        <time>2022-07-20T17:22:06Z</time>
      </trkpt>
      <trkpt lat="47.3226760" lon="6.8291270">
        <ele>423.2</ele>
        <time>2022-07-20T17:22:07Z</time>
      </trkpt>
      <trkpt lat="47.3226960" lon="6.8291680">
        <ele>423.2</ele>
        <time>2022-07-20T17:22:08Z</time>
      </trkpt>
      <trkpt lat="47.3227130" lon="6.8292130">
        <ele>423.3</ele>
        <time>2022-07-20T17:22:09Z</time>
      </trkpt>
      <trkpt lat="47.3227280" lon="6.8292530">
        <ele>423.3</ele>
        <time>2022-07-20T17:22:10Z</time>
      </trkpt>
      <trkpt lat="47.3227450" lon="6.8292890">
        <ele>423.3</ele>
        <time>2022-07-20T17:22:11Z</time>
      </trkpt>
      <trkpt lat="47.3227730" lon="6.8293400">
        <ele>423.3</ele>
        <time>2022-07-20T17:22:12Z</time>
      </trkpt>
      <trkpt lat="47.3227830" lon="6.8293610">
        <ele>423.3</ele>
        <time>2022-07-20T17:22:13Z</time>
      </trkpt>
      <trkpt lat="47.3228050" lon="6.8294050">
        <ele>423.3</ele>
        <time>2022-07-20T17:22:14Z</time>
      </trkpt>
      <trkpt lat="47.3228220" lon="6.8294450">
        <ele>423.3</ele>
        <time>2022-07-20T17:22:15Z</time>
      </trkpt>
      <trkpt lat="47.3228430" lon="6.8294910">
        <ele>423.3</ele>
        <time>2022-07-20T17:22:16Z</time>
      </trkpt>
      <trkpt lat="47.3228630" lon="6.8295330">
        <ele>423.3</ele>
        <time>2022-07-20T17:22:17Z</time>
      </trkpt>
      <trkpt lat="47.3228850" lon="6.8295720">
        <ele>423.4</ele>
        <time>2022-07-20T17:22:18Z</time>
      </trkpt>
      <trkpt lat="47.3229100" lon="6.8296110">
        <ele>423.4</ele>
        <time>2022-07-20T17:22:19Z</time>
      </trkpt>
      <trkpt lat="47.3229320" lon="6.8296550">
        <ele>423.4</ele>
        <time>2022-07-20T17:22:20Z</time>
      </trkpt>
      <trkpt lat="47.3229390" lon="6.8296720">
        <ele>423.4</ele>
        <time>2022-07-20T17:22:21Z</time>
      </trkpt>
      <trkpt lat="47.3229590" lon="6.8297300">
        <ele>423.3</ele>
        <time>2022-07-20T17:22:22Z</time>
      </trkpt>
      <trkpt lat="47.3229670" lon="6.8297540">
        <ele>423.3</ele>
        <time>2022-07-20T17:22:23Z</time>
      </trkpt>
      <trkpt lat="47.3229770" lon="6.8297960">
        <ele>423.3</ele>
        <time>2022-07-20T17:22:24Z</time>
      </trkpt>
      <trkpt lat="47.3229900" lon="6.8298420">
        <ele>423.3</ele>
        <time>2022-07-20T17:22:25Z</time>
      </trkpt>
      <trkpt lat="47.3230030" lon="6.8298880">
        <ele>423.3</ele>
        <time>2022-07-20T17:22:26Z</time>
      </trkpt>
      <trkpt lat="47.3230170" lon="6.8299380">
        <ele>423.3</ele>
        <time>2022-07-20T17:22:27Z</time>
      </trkpt>
      <trkpt lat="47.3230370" lon="6.8300060">
        <ele>423.4</ele>
        <time>2022-07-20T17:22:28Z</time>
      </trkpt>
      <trkpt lat="47.3230520" lon="6.8300700">
        <ele>423.6</ele>
        <time>2022-07-20T17:22:30Z</time>
      </trkpt>
      <trkpt lat="47.3230650" lon="6.8301230">
        <ele>423.7</ele>
        <time>2022-07-20T17:22:31Z</time>
      </trkpt>
      <trkpt lat="47.3230800" lon="6.8301780">
        <ele>423.9</ele>
        <time>2022-07-20T17:22:32Z</time>
      </trkpt>
      <trkpt lat="47.3230980" lon="6.8302290">
        <ele>424.1</ele>
        <time>2022-07-20T17:22:33Z</time>
      </trkpt>
      <trkpt lat="47.3231120" lon="6.8302820">
        <ele>424.3</ele>
        <time>2022-07-20T17:22:34Z</time>
      </trkpt>
      <trkpt lat="47.3231330" lon="6.8303500">
        <ele>424.6</ele>
        <time>2022-07-20T17:22:36Z</time>
      </trkpt>
      <trkpt lat="47.3231420" lon="6.8303710">
        <ele>424.7</ele>
        <time>2022-07-20T17:22:37Z</time>
      </trkpt>
      <trkpt lat="47.3231510" lon="6.8303920">
        <ele>424.8</ele>
        <time>2022-07-20T17:22:38Z</time>
      </trkpt>
      <trkpt lat="47.3231760" lon="6.8304310">
        <ele>425.0</ele>
        <time>2022-07-20T17:22:40Z</time>
      </trkpt>
      <trkpt lat="47.3231950" lon="6.8304630">
        <ele>425.3</ele>
        <time>2022-07-20T17:22:41Z</time>
      </trkpt>
      <trkpt lat="47.3232150" lon="6.8305080">
        <ele>425.5</ele>
        <time>2022-07-20T17:22:42Z</time>
      </trkpt>
      <trkpt lat="47.3232220" lon="6.8305240">
        <ele>425.6</ele>
        <time>2022-07-20T17:22:43Z</time>
      </trkpt>
      <trkpt lat="47.3232520" lon="6.8305680">
        <ele>426.0</ele>
        <time>2022-07-20T17:22:44Z</time>
      </trkpt>
      <trkpt lat="47.3232670" lon="6.8305810">
        <ele>426.1</ele>
        <time>2022-07-20T17:22:45Z</time>
      </trkpt>
      <trkpt lat="47.3233010" lon="6.8306170">
        <ele>426.5</ele>
        <time>2022-07-20T17:22:47Z</time>
      </trkpt>
      <trkpt lat="47.3233730" lon="6.8306840">
        <ele>427.2</ele>
        <time>2022-07-20T17:22:50Z</time>
      </trkpt>
      <trkpt lat="47.3234000" lon="6.8307130">
        <ele>427.5</ele>
        <time>2022-07-20T17:22:51Z</time>
      </trkpt>
      <trkpt lat="47.3234230" lon="6.8307390">
        <ele>427.8</ele>
        <time>2022-07-20T17:22:52Z</time>
      </trkpt>
      <trkpt lat="47.3234320" lon="6.8307480">
        <ele>427.9</ele>
        <time>2022-07-20T17:22:53Z</time>
      </trkpt>
      <trkpt lat="47.3234540" lon="6.8307790">
        <ele>428.1</ele>
        <time>2022-07-20T17:22:54Z</time>
      </trkpt>
      <trkpt lat="47.3234610" lon="6.8307890">
        <ele>428.2</ele>
        <time>2022-07-20T17:22:55Z</time>
      </trkpt>
      <trkpt lat="47.3234790" lon="6.8308300">
        <ele>428.5</ele>
        <time>2022-07-20T17:22:56Z</time>
      </trkpt>
      <trkpt lat="47.3234850" lon="6.8308430">
        <ele>428.6</ele>
        <time>2022-07-20T17:22:57Z</time>
      </trkpt>
      <trkpt lat="47.3235010" lon="6.8308820">
        <ele>428.9</ele>
        <time>2022-07-20T17:22:58Z</time>
      </trkpt>
      <trkpt lat="47.3235050" lon="6.8308960">
        <ele>428.9</ele>
        <time>2022-07-20T17:22:59Z</time>
      </trkpt>
      <trkpt lat="47.3235160" lon="6.8309600">
        <ele>429.3</ele>
        <time>2022-07-20T17:23:01Z</time>
      </trkpt>
      <trkpt lat="47.3235180" lon="6.8309980">
        <ele>429.5</ele>
        <time>2022-07-20T17:23:02Z</time>
      </trkpt>
      <trkpt lat="47.3235220" lon="6.8310400">
        <ele>429.7</ele>
        <time>2022-07-20T17:23:04Z</time>
      </trkpt>
      <trkpt lat="47.3235230" lon="6.8310800">
        <ele>430.0</ele>
        <time>2022-07-20T17:23:05Z</time>
      </trkpt>
      <trkpt lat="47.3235250" lon="6.8310970">
        <ele>430.1</ele>
        <time>2022-07-20T17:23:06Z</time>
      </trkpt>
      <trkpt lat="47.3235270" lon="6.8311140">
        <ele>430.1</ele>
        <time>2022-07-20T17:23:07Z</time>
      </trkpt>
      <trkpt lat="47.3235390" lon="6.8311550">
        <ele>430.4</ele>
        <time>2022-07-20T17:23:08Z</time>
      </trkpt>
      <trkpt lat="47.3235440" lon="6.8311700">
        <ele>430.5</ele>
        <time>2022-07-20T17:23:09Z</time>
      </trkpt>
      <trkpt lat="47.3235500" lon="6.8312100">
        <ele>430.7</ele>
        <time>2022-07-20T17:23:10Z</time>
      </trkpt>
      <trkpt lat="47.3235520" lon="6.8312220">
        <ele>430.7</ele>
        <time>2022-07-20T17:23:11Z</time>
      </trkpt>
      <trkpt lat="47.3235510" lon="6.8312680">
        <ele>431.0</ele>
        <time>2022-07-20T17:23:13Z</time>
      </trkpt>
      <trkpt lat="47.3235480" lon="6.8312960">
        <ele>431.1</ele>
        <time>2022-07-20T17:23:14Z</time>
      </trkpt>
      <trkpt lat="47.3235470" lon="6.8313140">
        <ele>431.2</ele>
        <time>2022-07-20T17:23:16Z</time>
      </trkpt>
      <trkpt lat="47.3235620" lon="6.8313480">
        <ele>431.4</ele>
        <time>2022-07-20T17:23:17Z</time>
      </trkpt>
      <trkpt lat="47.3235710" lon="6.8313660">
        <ele>431.5</ele>
        <time>2022-07-20T17:23:18Z</time>
      </trkpt>
      <trkpt lat="47.3235830" lon="6.8313810">
        <ele>431.6</ele>
        <time>2022-07-20T17:23:19Z</time>
      </trkpt>
      <trkpt lat="47.3235970" lon="6.8314080">
        <ele>431.8</ele>
        <time>2022-07-20T17:23:21Z</time>
      </trkpt>
      <trkpt lat="47.3235990" lon="6.8314190">
        <ele>431.8</ele>
        <time>2022-07-20T17:23:22Z</time>
      </trkpt>
      <trkpt lat="47.3236010" lon="6.8314300">
        <ele>431.9</ele>
        <time>2022-07-20T17:23:23Z</time>
      </trkpt>
      <trkpt lat="47.3235930" lon="6.8314630">
        <ele>432.1</ele>
        <time>2022-07-20T17:23:24Z</time>
      </trkpt>
      <trkpt lat="47.3235830" lon="6.8314760">
        <ele>432.2</ele>
        <time>2022-07-20T17:23:25Z</time>
      </trkpt>
      <trkpt lat="47.3235570" lon="6.8315090">
        <ele>432.4</ele>
        <time>2022-07-20T17:23:26Z</time>
      </trkpt>
      <trkpt lat="47.3235510" lon="6.8315200">
        <ele>432.5</ele>
        <time>2022-07-20T17:23:27Z</time>
      </trkpt>
      <trkpt lat="47.3235490" lon="6.8315600">
        <ele>432.7</ele>
        <time>2022-07-20T17:23:28Z</time>
      </trkpt>
      <trkpt lat="47.3235500" lon="6.8315750">
        <ele>432.7</ele>
        <time>2022-07-20T17:23:29Z</time>
      </trkpt>
      <trkpt lat="47.3235530" lon="6.8316190">
        <ele>432.9</ele>
        <time>2022-07-20T17:23:30Z</time>
      </trkpt>
      <trkpt lat="47.3235550" lon="6.8316330">
        <ele>433.0</ele>
        <time>2022-07-20T17:23:31Z</time>
      </trkpt>
      <trkpt lat="47.3235600" lon="6.8316820">
        <ele>433.2</ele>
        <time>2022-07-20T17:23:32Z</time>
      </trkpt>
      <trkpt lat="47.3235620" lon="6.8317040">
        <ele>433.3</ele>
        <time>2022-07-20T17:23:33Z</time>
      </trkpt>
      <trkpt lat="47.3235630" lon="6.8317500">
        <ele>433.5</ele>
        <time>2022-07-20T17:23:34Z</time>
      </trkpt>
      <trkpt lat="47.3235640" lon="6.8317670">
        <ele>433.6</ele>
        <time>2022-07-20T17:23:35Z</time>
      </trkpt>
      <trkpt lat="47.3235680" lon="6.8318220">
        <ele>433.9</ele>
        <time>2022-07-20T17:23:36Z</time>
      </trkpt>
      <trkpt lat="47.3235690" lon="6.8318430">
        <ele>434.0</ele>
        <time>2022-07-20T17:23:37Z</time>
      </trkpt>
      <trkpt lat="47.3235710" lon="6.8318940">
        <ele>434.2</ele>
        <time>2022-07-20T17:23:38Z</time>
      </trkpt>
      <trkpt lat="47.3235720" lon="6.8319090">
        <ele>434.3</ele>
        <time>2022-07-20T17:23:39Z</time>
      </trkpt>
      <trkpt lat="47.3235700" lon="6.8319700">
        <ele>434.6</ele>
        <time>2022-07-20T17:23:40Z</time>
      </trkpt>
      <trkpt lat="47.3235670" lon="6.8319930">
        <ele>434.7</ele>
        <time>2022-07-20T17:23:41Z</time>
      </trkpt>
      <trkpt lat="47.3235650" lon="6.8320260">
        <ele>434.9</ele>
        <time>2022-07-20T17:23:42Z</time>
      </trkpt>
      <trkpt lat="47.3235640" lon="6.8321020">
        <ele>435.3</ele>
        <time>2022-07-20T17:23:44Z</time>
      </trkpt>
      <trkpt lat="47.3235680" lon="6.8321430">
        <ele>435.5</ele>
        <time>2022-07-20T17:23:45Z</time>
      </trkpt>
      <trkpt lat="47.3235750" lon="6.8321710">
        <ele>435.7</ele>
        <time>2022-07-20T17:23:46Z</time>
      </trkpt>
      <trkpt lat="47.3236110" lon="6.8322200">
        <ele>436.1</ele>
        <time>2022-07-20T17:23:48Z</time>
      </trkpt>
      <trkpt lat="47.3236350" lon="6.8322550">
        <ele>436.3</ele>
        <time>2022-07-20T17:23:49Z</time>
      </trkpt>
      <trkpt lat="47.3236430" lon="6.8322680">
        <ele>436.4</ele>
        <time>2022-07-20T17:23:50Z</time>
      </trkpt>
      <trkpt lat="47.3236630" lon="6.8323120">
        <ele>436.7</ele>
        <time>2022-07-20T17:23:51Z</time>
      </trkpt>
      <trkpt lat="47.3236710" lon="6.8323300">
        <ele>436.8</ele>
        <time>2022-07-20T17:23:52Z</time>
      </trkpt>
      <trkpt lat="47.3236920" lon="6.8323740">
        <ele>437.1</ele>
        <time>2022-07-20T17:23:54Z</time>
      </trkpt>
      <trkpt lat="47.3236980" lon="6.8323860">
        <ele>437.2</ele>
        <time>2022-07-20T17:23:55Z</time>
      </trkpt>
      <trkpt lat="47.3237210" lon="6.8324140">
        <ele>437.4</ele>
        <time>2022-07-20T17:23:56Z</time>
      </trkpt>
      <trkpt lat="47.3237300" lon="6.8324230">
        <ele>437.5</ele>
        <time>2022-07-20T17:23:57Z</time>
      </trkpt>
      <trkpt lat="47.3237540" lon="6.8324490">
        <ele>437.7</ele>
        <time>2022-07-20T17:23:58Z</time>
      </trkpt>
      <trkpt lat="47.3237600" lon="6.8324570">
        <ele>437.8</ele>
        <time>2022-07-20T17:23:59Z</time>
      </trkpt>
      <trkpt lat="47.3237670" lon="6.8324830">
        <ele>438.0</ele>
        <time>2022-07-20T17:24:00Z</time>
      </trkpt>
      <trkpt lat="47.3237700" lon="6.8324990">
        <ele>438.0</ele>
        <time>2022-07-20T17:24:01Z</time>
      </trkpt>
      <trkpt lat="47.3237730" lon="6.8325150">
        <ele>438.1</ele>
        <time>2022-07-20T17:24:03Z</time>
      </trkpt>
      <trkpt lat="47.3237760" lon="6.8325320">
        <ele>438.2</ele>
        <time>2022-07-20T17:24:04Z</time>
      </trkpt>
      <trkpt lat="47.3237790" lon="6.8325480">
        <ele>438.3</ele>
        <time>2022-07-20T17:24:05Z</time>
      </trkpt>
      <trkpt lat="47.3237820" lon="6.8325640">
        <ele>438.4</ele>
        <time>2022-07-20T17:24:06Z</time>
      </trkpt>
      <trkpt lat="47.3237920" lon="6.8325980">
        <ele>438.6</ele>
        <time>2022-07-20T17:24:07Z</time>
      </trkpt>
      <trkpt lat="47.3238090" lon="6.8326450">
        <ele>438.9</ele>
        <time>2022-07-20T17:24:09Z</time>
      </trkpt>
      <trkpt lat="47.3238260" lon="6.8326920">
        <ele>439.2</ele>
        <time>2022-07-20T17:24:10Z</time>
      </trkpt>
      <trkpt lat="47.3238300" lon="6.8327050">
        <ele>439.2</ele>
        <time>2022-07-20T17:24:11Z</time>
      </trkpt>
      <trkpt lat="47.3238470" lon="6.8327470">
        <ele>439.5</ele>
        <time>2022-07-20T17:24:13Z</time>
      </trkpt>
      <trkpt lat="47.3238650" lon="6.8327850">
        <ele>439.7</ele>
        <time>2022-07-20T17:24:14Z</time>
      </trkpt>
      <trkpt lat="47.3238890" lon="6.8328350">
        <ele>440.0</ele>
        <time>2022-07-20T17:24:15Z</time>
      </trkpt>
      <trkpt lat="47.3239070" lon="6.8328740">
        <ele>440.2</ele>
        <time>2022-07-20T17:24:16Z</time>
      </trkpt>
      <trkpt lat="47.3239330" lon="6.8329270">
        <ele>440.5</ele>
        <time>2022-07-20T17:24:18Z</time>
      </trkpt>
      <trkpt lat="47.3239530" lon="6.8329710">
        <ele>440.8</ele>
        <time>2022-07-20T17:24:19Z</time>
      </trkpt>
      <trkpt lat="47.3239780" lon="6.8330190">
        <ele>441.0</ele>
        <time>2022-07-20T17:24:20Z</time>
      </trkpt>
      <trkpt lat="47.3239950" lon="6.8330520">
        <ele>441.2</ele>
        <time>2022-07-20T17:24:22Z</time>
      </trkpt>
      <trkpt lat="47.3240170" lon="6.8330960">
        <ele>441.4</ele>
        <time>2022-07-20T17:24:23Z</time>
      </trkpt>
      <trkpt lat="47.3240370" lon="6.8331350">
        <ele>441.6</ele>
        <time>2022-07-20T17:24:24Z</time>
      </trkpt>
      <trkpt lat="47.3240430" lon="6.8331460">
        <ele>441.7</ele>
        <time>2022-07-20T17:24:25Z</time>
      </trkpt>
      <trkpt lat="47.3240670" lon="6.8331830">
        <ele>441.9</ele>
        <time>2022-07-20T17:24:26Z</time>
      </trkpt>
      <trkpt lat="47.3240740" lon="6.8331940">
        <ele>442.0</ele>
        <time>2022-07-20T17:24:27Z</time>
      </trkpt>
      <trkpt lat="47.3240870" lon="6.8332170">
        <ele>442.1</ele>
        <time>2022-07-20T17:24:28Z</time>
      </trkpt>
      <trkpt lat="47.3241170" lon="6.8332560">
        <ele>442.4</ele>
        <time>2022-07-20T17:24:30Z</time>
      </trkpt>
      <trkpt lat="47.3241360" lon="6.8332870">
        <ele>442.6</ele>
        <time>2022-07-20T17:24:31Z</time>
      </trkpt>
      <trkpt lat="47.3241440" lon="6.8333020">
        <ele>442.6</ele>
        <time>2022-07-20T17:24:32Z</time>
      </trkpt>
      <trkpt lat="47.3241570" lon="6.8333260">
        <ele>442.8</ele>
        <time>2022-07-20T17:24:33Z</time>
      </trkpt>
      <trkpt lat="47.3241760" lon="6.8333530">
        <ele>443.0</ele>
        <time>2022-07-20T17:24:35Z</time>
      </trkpt>
      <trkpt lat="47.3241890" lon="6.8333690">
        <ele>443.1</ele>
        <time>2022-07-20T17:24:36Z</time>
      </trkpt>
      <trkpt lat="47.3242010" lon="6.8333890">
        <ele>443.2</ele>
        <time>2022-07-20T17:24:37Z</time>
      </trkpt>
      <trkpt lat="47.3242180" lon="6.8334230">
        <ele>443.5</ele>
        <time>2022-07-20T17:24:38Z</time>
      </trkpt>
      <trkpt lat="47.3242310" lon="6.8334470">
        <ele>443.6</ele>
        <time>2022-07-20T17:24:39Z</time>
      </trkpt>
      <trkpt lat="47.3242390" lon="6.8334610">
        <ele>443.7</ele>
        <time>2022-07-20T17:24:40Z</time>
      </trkpt>
      <trkpt lat="47.3242540" lon="6.8334890">
        <ele>443.9</ele>
        <time>2022-07-20T17:24:41Z</time>
      </trkpt>
      <trkpt lat="47.3242600" lon="6.8335010">
        <ele>444.0</ele>
        <time>2022-07-20T17:24:42Z</time>
      </trkpt>
      <trkpt lat="47.3242650" lon="6.8335130">
        <ele>444.1</ele>
        <time>2022-07-20T17:24:43Z</time>
      </trkpt>
      <trkpt lat="47.3242720" lon="6.8335400">
        <ele>444.3</ele>
        <time>2022-07-20T17:24:44Z</time>
      </trkpt>
      <trkpt lat="47.3242770" lon="6.8335600">
        <ele>444.4</ele>
        <time>2022-07-20T17:24:45Z</time>
      </trkpt>
      <trkpt lat="47.3242920" lon="6.8336080">
        <ele>444.7</ele>
        <time>2022-07-20T17:24:47Z</time>
      </trkpt>
      <trkpt lat="47.3243050" lon="6.8336480">
        <ele>444.9</ele>
        <time>2022-07-20T17:24:48Z</time>
      </trkpt>
      <trkpt lat="47.3243110" lon="6.8336940">
        <ele>445.1</ele>
        <time>2022-07-20T17:24:49Z</time>
      </trkpt>
      <trkpt lat="47.3243130" lon="6.8337120">
        <ele>445.2</ele>
        <time>2022-07-20T17:24:50Z</time>
      </trkpt>
      <trkpt lat="47.3243140" lon="6.8337640">
        <ele>445.4</ele>
        <time>2022-07-20T17:24:51Z</time>
      </trkpt>
      <trkpt lat="47.3243130" lon="6.8337810">
        <ele>445.5</ele>
        <time>2022-07-20T17:24:52Z</time>
      </trkpt>
      <trkpt lat="47.3243120" lon="6.8338230">
        <ele>445.7</ele>
        <time>2022-07-20T17:24:53Z</time>
      </trkpt>
      <trkpt lat="47.3243060" lon="6.8338870">
        <ele>445.9</ele>
        <time>2022-07-20T17:24:54Z</time>
      </trkpt>
      <trkpt lat="47.3243010" lon="6.8339110">
        <ele>446.0</ele>
        <time>2022-07-20T17:24:55Z</time>
      </trkpt>
      <trkpt lat="47.3242850" lon="6.8339770">
        <ele>446.3</ele>
        <time>2022-07-20T17:24:57Z</time>
      </trkpt>
      <trkpt lat="47.3242790" lon="6.8340040">
        <ele>446.5</ele>
        <time>2022-07-20T17:24:58Z</time>
      </trkpt>
      <trkpt lat="47.3242720" lon="6.8340300">
        <ele>446.6</ele>
        <time>2022-07-20T17:24:59Z</time>
      </trkpt>
      <trkpt lat="47.3242640" lon="6.8340850">
        <ele>446.8</ele>
        <time>2022-07-20T17:25:01Z</time>
      </trkpt>
      <trkpt lat="47.3242590" lon="6.8341350">
        <ele>447.1</ele>
        <time>2022-07-20T17:25:02Z</time>
      </trkpt>
      <trkpt lat="47.3242590" lon="6.8341530">
        <ele>447.2</ele>
        <time>2022-07-20T17:25:03Z</time>
      </trkpt>
      <trkpt lat="47.3242540" lon="6.8341840">
        <ele>447.3</ele>
        <time>2022-07-20T17:25:04Z</time>
      </trkpt>
      <trkpt lat="47.3242460" lon="6.8342210">
        <ele>447.5</ele>
        <time>2022-07-20T17:25:06Z</time>
      </trkpt>
      <trkpt lat="47.3242420" lon="6.8342380">
        <ele>447.6</ele>
        <time>2022-07-20T17:25:07Z</time>
      </trkpt>
      <trkpt lat="47.3242410" lon="6.8342680">
        <ele>447.7</ele>
        <time>2022-07-20T17:25:08Z</time>
      </trkpt>
      <trkpt lat="47.3242420" lon="6.8343090">
        <ele>447.9</ele>
        <time>2022-07-20T17:25:09Z</time>
      </trkpt>
      <trkpt lat="47.3242430" lon="6.8343250">
        <ele>448.0</ele>
        <time>2022-07-20T17:25:10Z</time>
      </trkpt>
      <trkpt lat="47.3242480" lon="6.8343740">
        <ele>448.2</ele>
        <time>2022-07-20T17:25:11Z</time>
      </trkpt>
      <trkpt lat="47.3242500" lon="6.8343900">
        <ele>448.3</ele>
        <time>2022-07-20T17:25:12Z</time>
      </trkpt>
      <trkpt lat="47.3242520" lon="6.8344300">
        <ele>448.4</ele>
        <time>2022-07-20T17:25:13Z</time>
      </trkpt>
      <trkpt lat="47.3242530" lon="6.8344440">
        <ele>448.5</ele>
        <time>2022-07-20T17:25:14Z</time>
      </trkpt>
      <trkpt lat="47.3242570" lon="6.8344700">
        <ele>448.6</ele>
        <time>2022-07-20T17:25:15Z</time>
      </trkpt>
      <trkpt lat="47.3242590" lon="6.8344930">
        <ele>448.7</ele>
        <time>2022-07-20T17:25:16Z</time>
      </trkpt>
      <trkpt lat="47.3242570" lon="6.8345150">
        <ele>448.8</ele>
        <time>2022-07-20T17:25:17Z</time>
      </trkpt>
      <trkpt lat="47.3242530" lon="6.8345320">
        <ele>448.9</ele>
        <time>2022-07-20T17:25:18Z</time>
      </trkpt>
      <trkpt lat="47.3242510" lon="6.8345520">
        <ele>448.9</ele>
        <time>2022-07-20T17:25:19Z</time>
      </trkpt>
      <trkpt lat="47.3242450" lon="6.8345800">
        <ele>449.1</ele>
        <time>2022-07-20T17:25:20Z</time>
      </trkpt>
      <trkpt lat="47.3242380" lon="6.8346360">
        <ele>449.3</ele>
        <time>2022-07-20T17:25:21Z</time>
      </trkpt>
      <trkpt lat="47.3242350" lon="6.8346530">
        <ele>449.4</ele>
        <time>2022-07-20T17:25:22Z</time>
      </trkpt>
      <trkpt lat="47.3242230" lon="6.8346980">
        <ele>449.6</ele>
        <time>2022-07-20T17:25:23Z</time>
      </trkpt>
      <trkpt lat="47.3242160" lon="6.8347180">
        <ele>449.6</ele>
        <time>2022-07-20T17:25:24Z</time>
      </trkpt>
      <trkpt lat="47.3241860" lon="6.8347630">
        <ele>449.9</ele>
        <time>2022-07-20T17:25:25Z</time>
      </trkpt>
      <trkpt lat="47.3241740" lon="6.8347790">
        <ele>450.0</ele>
        <time>2022-07-20T17:25:26Z</time>
      </trkpt>
      <trkpt lat="47.3241520" lon="6.8348100">
        <ele>450.1</ele>
        <time>2022-07-20T17:25:27Z</time>
      </trkpt>
      <trkpt lat="47.3241290" lon="6.8348400">
        <ele>450.3</ele>
        <time>2022-07-20T17:25:28Z</time>
      </trkpt>
      <trkpt lat="47.3241070" lon="6.8348680">
        <ele>450.4</ele>
        <time>2022-07-20T17:25:29Z</time>
      </trkpt>
      <trkpt lat="47.3240790" lon="6.8349060">
        <ele>450.6</ele>
        <time>2022-07-20T17:25:30Z</time>
      </trkpt>
      <trkpt lat="47.3240540" lon="6.8349380">
        <ele>450.8</ele>
        <time>2022-07-20T17:25:31Z</time>
      </trkpt>
      <trkpt lat="47.3240270" lon="6.8349670">
        <ele>450.9</ele>
        <time>2022-07-20T17:25:32Z</time>
      </trkpt>
      <trkpt lat="47.3239810" lon="6.8350100">
        <ele>451.2</ele>
        <time>2022-07-20T17:25:34Z</time>
      </trkpt>
      <trkpt lat="47.3239560" lon="6.8350310">
        <ele>451.3</ele>
        <time>2022-07-20T17:25:35Z</time>
      </trkpt>
      <trkpt lat="47.3239180" lon="6.8350580">
        <ele>451.5</ele>
        <time>2022-07-20T17:25:36Z</time>
      </trkpt>
      <trkpt lat="47.3238810" lon="6.8350790">
        <ele>451.7</ele>
        <time>2022-07-20T17:25:38Z</time>
      </trkpt>
      <trkpt lat="47.3238490" lon="6.8350970">
        <ele>451.9</ele>
        <time>2022-07-20T17:25:39Z</time>
      </trkpt>
      <trkpt lat="47.3238200" lon="6.8351110">
        <ele>452.0</ele>
        <time>2022-07-20T17:25:40Z</time>
      </trkpt>
      <trkpt lat="47.3237860" lon="6.8351300">
        <ele>452.2</ele>
        <time>2022-07-20T17:25:41Z</time>
      </trkpt>
      <trkpt lat="47.3237760" lon="6.8351370">
        <ele>452.3</ele>
        <time>2022-07-20T17:25:42Z</time>
      </trkpt>
      <trkpt lat="47.3237410" lon="6.8351530">
        <ele>452.5</ele>
        <time>2022-07-20T17:25:43Z</time>
      </trkpt>
      <trkpt lat="47.3237300" lon="6.8351590">
        <ele>452.5</ele>
        <time>2022-07-20T17:25:44Z</time>
      </trkpt>
      <trkpt lat="47.3237000" lon="6.8351750">
        <ele>452.7</ele>
        <time>2022-07-20T17:25:45Z</time>
      </trkpt>
      <trkpt lat="47.3236770" lon="6.8351860">
        <ele>452.8</ele>
        <time>2022-07-20T17:25:46Z</time>
      </trkpt>
      <trkpt lat="47.3236280" lon="6.8352060">
        <ele>453.1</ele>
        <time>2022-07-20T17:25:48Z</time>
      </trkpt>
      <trkpt lat="47.3235880" lon="6.8352180">
        <ele>453.3</ele>
        <time>2022-07-20T17:25:49Z</time>
      </trkpt>
      <trkpt lat="47.3235550" lon="6.8352370">
        <ele>453.5</ele>
        <time>2022-07-20T17:25:50Z</time>
      </trkpt>
      <trkpt lat="47.3235420" lon="6.8352440">
        <ele>453.5</ele>
        <time>2022-07-20T17:25:51Z</time>
      </trkpt>
      <trkpt lat="47.3235190" lon="6.8352530">
        <ele>453.6</ele>
        <time>2022-07-20T17:25:52Z</time>
      </trkpt>
      <trkpt lat="47.3234740" lon="6.8352660">
        <ele>453.9</ele>
        <time>2022-07-20T17:25:54Z</time>
      </trkpt>
      <trkpt lat="47.3234400" lon="6.8352800">
        <ele>454.1</ele>
        <time>2022-07-20T17:25:55Z</time>
      </trkpt>
      <trkpt lat="47.3234230" lon="6.8352880">
        <ele>454.1</ele>
        <time>2022-07-20T17:25:56Z</time>
      </trkpt>
      <trkpt lat="47.3233890" lon="6.8353120">
        <ele>454.3</ele>
        <time>2022-07-20T17:25:57Z</time>
      </trkpt>
      <trkpt lat="47.3233770" lon="6.8353180">
        <ele>454.4</ele>
        <time>2022-07-20T17:25:58Z</time>
      </trkpt>
      <trkpt lat="47.3233490" lon="6.8353360">
        <ele>454.5</ele>
        <time>2022-07-20T17:25:59Z</time>
      </trkpt>
      <trkpt lat="47.3233200" lon="6.8353550">
        <ele>454.7</ele>
        <time>2022-07-20T17:26:00Z</time>
      </trkpt>
      <trkpt lat="47.3232900" lon="6.8353810">
        <ele>454.9</ele>
        <time>2022-07-20T17:26:01Z</time>
      </trkpt>
      <trkpt lat="47.3232820" lon="6.8353890">
        <ele>454.9</ele>
        <time>2022-07-20T17:26:02Z</time>
      </trkpt>
      <trkpt lat="47.3232590" lon="6.8354110">
        <ele>455.1</ele>
        <time>2022-07-20T17:26:03Z</time>
      </trkpt>
      <trkpt lat="47.3232230" lon="6.8354410">
        <ele>455.3</ele>
        <time>2022-07-20T17:26:04Z</time>
      </trkpt>
      <trkpt lat="47.3232080" lon="6.8354550">
        <ele>455.4</ele>
        <time>2022-07-20T17:26:05Z</time>
      </trkpt>
      <trkpt lat="47.3231710" lon="6.8354980">
        <ele>455.6</ele>
        <time>2022-07-20T17:26:07Z</time>
      </trkpt>
      <trkpt lat="47.3231600" lon="6.8355140">
        <ele>455.6</ele>
        <time>2022-07-20T17:26:08Z</time>
      </trkpt>
      <trkpt lat="47.3231490" lon="6.8355290">
        <ele>455.7</ele>
        <time>2022-07-20T17:26:09Z</time>
      </trkpt>
      <trkpt lat="47.3231260" lon="6.8355670">
        <ele>455.9</ele>
        <time>2022-07-20T17:26:10Z</time>
      </trkpt>
      <trkpt lat="47.3231180" lon="6.8355820">
        <ele>455.9</ele>
        <time>2022-07-20T17:26:11Z</time>
      </trkpt>
      <trkpt lat="47.3230940" lon="6.8356240">
        <ele>456.1</ele>
        <time>2022-07-20T17:26:12Z</time>
      </trkpt>
      <trkpt lat="47.3230860" lon="6.8356390">
        <ele>456.1</ele>
        <time>2022-07-20T17:26:13Z</time>
      </trkpt>
      <trkpt lat="47.3230550" lon="6.8356910">
        <ele>456.3</ele>
        <time>2022-07-20T17:26:15Z</time>
      </trkpt>
      <trkpt lat="47.3230330" lon="6.8357190">
        <ele>456.4</ele>
        <time>2022-07-20T17:26:16Z</time>
      </trkpt>
      <trkpt lat="47.3230060" lon="6.8357560">
        <ele>456.6</ele>
        <time>2022-07-20T17:26:17Z</time>
      </trkpt>
      <trkpt lat="47.3229970" lon="6.8357690">
        <ele>456.6</ele>
        <time>2022-07-20T17:26:18Z</time>
      </trkpt>
      <trkpt lat="47.3229680" lon="6.8358080">
        <ele>456.8</ele>
        <time>2022-07-20T17:26:19Z</time>
      </trkpt>
      <trkpt lat="47.3229390" lon="6.8358500">
        <ele>456.9</ele>
        <time>2022-07-20T17:26:21Z</time>
      </trkpt>
      <trkpt lat="47.3229140" lon="6.8358960">
        <ele>457.0</ele>
        <time>2022-07-20T17:26:22Z</time>
      </trkpt>
      <trkpt lat="47.3229050" lon="6.8359110">
        <ele>457.1</ele>
        <time>2022-07-20T17:26:23Z</time>
      </trkpt>
      <trkpt lat="47.3228790" lon="6.8359530">
        <ele>457.2</ele>
        <time>2022-07-20T17:26:24Z</time>
      </trkpt>
      <trkpt lat="47.3228700" lon="6.8359680">
        <ele>457.3</ele>
        <time>2022-07-20T17:26:25Z</time>
      </trkpt>
      <trkpt lat="47.3228440" lon="6.8360070">
        <ele>457.4</ele>
        <time>2022-07-20T17:26:26Z</time>
      </trkpt>
      <trkpt lat="47.3228260" lon="6.8360370">
        <ele>457.5</ele>
        <time>2022-07-20T17:26:27Z</time>
      </trkpt>
      <trkpt lat="47.3228100" lon="6.8360750">
        <ele>457.6</ele>
        <time>2022-07-20T17:26:28Z</time>
      </trkpt>
      <trkpt lat="47.3227910" lon="6.8361200">
        <ele>457.7</ele>
        <time>2022-07-20T17:26:29Z</time>
      </trkpt>
      <trkpt lat="47.3227710" lon="6.8361610">
        <ele>457.8</ele>
        <time>2022-07-20T17:26:30Z</time>
      </trkpt>
      <trkpt lat="47.3227640" lon="6.8361770">
        <ele>457.9</ele>
        <time>2022-07-20T17:26:31Z</time>
      </trkpt>
      <trkpt lat="47.3227460" lon="6.8362190">
        <ele>458.0</ele>
        <time>2022-07-20T17:26:33Z</time>
      </trkpt>
      <trkpt lat="47.3227310" lon="6.8362630">
        <ele>458.1</ele>
        <time>2022-07-20T17:26:34Z</time>
      </trkpt>
      <trkpt lat="47.3227140" lon="6.8363170">
        <ele>458.3</ele>
        <time>2022-07-20T17:26:36Z</time>
      </trkpt>
      <trkpt lat="47.3227070" lon="6.8363660">
        <ele>458.4</ele>
        <time>2022-07-20T17:26:37Z</time>
      </trkpt>
      <trkpt lat="47.3227070" lon="6.8364190">
        <ele>458.5</ele>
        <time>2022-07-20T17:26:38Z</time>
      </trkpt>
      <trkpt lat="47.3227000" lon="6.8364910">
        <ele>458.7</ele>
        <time>2022-07-20T17:26:40Z</time>
      </trkpt>
      <trkpt lat="47.3226980" lon="6.8365180">
        <ele>458.8</ele>
        <time>2022-07-20T17:26:41Z</time>
      </trkpt>
      <trkpt lat="47.3226950" lon="6.8365440">
        <ele>458.8</ele>
        <time>2022-07-20T17:26:42Z</time>
      </trkpt>
      <trkpt lat="47.3226940" lon="6.8365900">
        <ele>459.0</ele>
        <time>2022-07-20T17:26:43Z</time>
      </trkpt>
      <trkpt lat="47.3226930" lon="6.8366300">
        <ele>459.1</ele>
        <time>2022-07-20T17:26:44Z</time>
      </trkpt>
      <trkpt lat="47.3226930" lon="6.8366700">
        <ele>459.2</ele>
        <time>2022-07-20T17:26:45Z</time>
      </trkpt>
      <trkpt lat="47.3227030" lon="6.8367480">
        <ele>459.4</ele>
        <time>2022-07-20T17:26:47Z</time>
      </trkpt>
      <trkpt lat="47.3227160" lon="6.8368060">
        <ele>459.6</ele>
        <time>2022-07-20T17:26:48Z</time>
      </trkpt>
      <trkpt lat="47.3227200" lon="6.8368270">
        <ele>459.6</ele>
        <time>2022-07-20T17:26:49Z</time>
      </trkpt>
      <trkpt lat="47.3227220" lon="6.8368820">
        <ele>459.8</ele>
        <time>2022-07-20T17:26:50Z</time>
      </trkpt>
      <trkpt lat="47.3227230" lon="6.8369000">
        <ele>459.8</ele>
        <time>2022-07-20T17:26:51Z</time>
      </trkpt>
      <trkpt lat="47.3227230" lon="6.8369410">
        <ele>460.0</ele>
        <time>2022-07-20T17:26:52Z</time>
      </trkpt>
      <trkpt lat="47.3227260" lon="6.8369990">
        <ele>460.1</ele>
        <time>2022-07-20T17:26:53Z</time>
      </trkpt>
      <trkpt lat="47.3227260" lon="6.8370170">
        <ele>460.2</ele>
        <time>2022-07-20T17:26:54Z</time>
      </trkpt>
      <trkpt lat="47.3227320" lon="6.8370720">
        <ele>460.4</ele>
        <time>2022-07-20T17:26:55Z</time>
      </trkpt>
      <trkpt lat="47.3227340" lon="6.8370900">
        <ele>460.4</ele>
        <time>2022-07-20T17:26:56Z</time>
      </trkpt>
      <trkpt lat="47.3227460" lon="6.8371480">
        <ele>460.6</ele>
        <time>2022-07-20T17:26:58Z</time>
      </trkpt>
      <trkpt lat="47.3227560" lon="6.8372020">
        <ele>460.8</ele>
        <time>2022-07-20T17:26:59Z</time>
      </trkpt>
      <trkpt lat="47.3227690" lon="6.8372860">
        <ele>461.1</ele>
        <time>2022-07-20T17:27:01Z</time>
      </trkpt>
      <trkpt lat="47.3227690" lon="6.8373270">
        <ele>461.2</ele>
        <time>2022-07-20T17:27:02Z</time>
      </trkpt>
      <trkpt lat="47.3227660" lon="6.8373840">
        <ele>461.4</ele>
        <time>2022-07-20T17:27:03Z</time>
      </trkpt>
      <trkpt lat="47.3227640" lon="6.8374030">
        <ele>461.4</ele>
        <time>2022-07-20T17:27:04Z</time>
      </trkpt>
      <trkpt lat="47.3227670" lon="6.8374640">
        <ele>461.7</ele>
        <time>2022-07-20T17:27:05Z</time>
      </trkpt>
      <trkpt lat="47.3227670" lon="6.8374870">
        <ele>461.7</ele>
        <time>2022-07-20T17:27:06Z</time>
      </trkpt>
      <trkpt lat="47.3227680" lon="6.8375280">
        <ele>461.9</ele>
        <time>2022-07-20T17:27:07Z</time>
      </trkpt>
      <trkpt lat="47.3227690" lon="6.8375750">
        <ele>462.1</ele>
        <time>2022-07-20T17:27:08Z</time>
      </trkpt>
      <trkpt lat="47.3227700" lon="6.8375910">
        <ele>462.1</ele>
        <time>2022-07-20T17:27:09Z</time>
      </trkpt>
      <trkpt lat="47.3227680" lon="6.8376440">
        <ele>462.3</ele>
        <time>2022-07-20T17:27:10Z</time>
      </trkpt>
      <trkpt lat="47.3227660" lon="6.8376600">
        <ele>462.4</ele>
        <time>2022-07-20T17:27:11Z</time>
      </trkpt>
      <trkpt lat="47.3227650" lon="6.8377040">
        <ele>462.6</ele>
        <time>2022-07-20T17:27:12Z</time>
      </trkpt>
      <trkpt lat="47.3227700" lon="6.8377570">
        <ele>462.8</ele>
        <time>2022-07-20T17:27:14Z</time>
      </trkpt>
      <trkpt lat="47.3227720" lon="6.8377760">
        <ele>462.9</ele>
        <time>2022-07-20T17:27:15Z</time>
      </trkpt>
      <trkpt lat="47.3227770" lon="6.8378230">
        <ele>463.1</ele>
        <time>2022-07-20T17:27:16Z</time>
      </trkpt>
      <trkpt lat="47.3227790" lon="6.8378740">
        <ele>463.3</ele>
        <time>2022-07-20T17:27:17Z</time>
      </trkpt>
      <trkpt lat="47.3227800" lon="6.8378940">
        <ele>463.3</ele>
        <time>2022-07-20T17:27:18Z</time>
      </trkpt>
      <trkpt lat="47.3227790" lon="6.8379450">
        <ele>463.6</ele>
        <time>2022-07-20T17:27:19Z</time>
      </trkpt>
      <trkpt lat="47.3227830" lon="6.8380010">
        <ele>463.8</ele>
        <time>2022-07-20T17:27:20Z</time>
      </trkpt>
      <trkpt lat="47.3227850" lon="6.8380190">
        <ele>463.9</ele>
        <time>2022-07-20T17:27:21Z</time>
      </trkpt>
      <trkpt lat="47.3227940" lon="6.8380710">
        <ele>464.1</ele>
        <time>2022-07-20T17:27:22Z</time>
      </trkpt>
      <trkpt lat="47.3227970" lon="6.8380880">
        <ele>464.2</ele>
        <time>2022-07-20T17:27:23Z</time>
      </trkpt>
      <trkpt lat="47.3228080" lon="6.8381350">
        <ele>464.4</ele>
        <time>2022-07-20T17:27:24Z</time>
      </trkpt>
      <trkpt lat="47.3228100" lon="6.8381510">
        <ele>464.5</ele>
        <time>2022-07-20T17:27:25Z</time>
      </trkpt>
      <trkpt lat="47.3228140" lon="6.8381830">
        <ele>464.7</ele>
        <time>2022-07-20T17:27:26Z</time>
      </trkpt>
      <trkpt lat="47.3228240" lon="6.8382460">
        <ele>465.0</ele>
        <time>2022-07-20T17:27:28Z</time>
      </trkpt>
      <trkpt lat="47.3228360" lon="6.8382980">
        <ele>465.2</ele>
        <time>2022-07-20T17:27:29Z</time>
      </trkpt>
      <trkpt lat="47.3228390" lon="6.8383160">
        <ele>465.3</ele>
        <time>2022-07-20T17:27:30Z</time>
      </trkpt>
      <trkpt lat="47.3228450" lon="6.8383540">
        <ele>465.5</ele>
        <time>2022-07-20T17:27:31Z</time>
      </trkpt>
      <trkpt lat="47.3228520" lon="6.8384150">
        <ele>465.7</ele>
        <time>2022-07-20T17:27:33Z</time>
      </trkpt>
      <trkpt lat="47.3228530" lon="6.8384380">
        <ele>465.8</ele>
        <time>2022-07-20T17:27:34Z</time>
      </trkpt>
      <trkpt lat="47.3228530" lon="6.8384720">
        <ele>466.0</ele>
        <time>2022-07-20T17:27:36Z</time>
      </trkpt>
      <trkpt lat="47.3228510" lon="6.8385200">
        <ele>466.2</ele>
        <time>2022-07-20T17:27:37Z</time>
      </trkpt>
      <trkpt lat="47.3228510" lon="6.8385310">
        <ele>466.2</ele>
        <time>2022-07-20T17:27:38Z</time>
      </trkpt>
      <trkpt lat="47.3228600" lon="6.8385550">
        <ele>466.3</ele>
        <time>2022-07-20T17:27:39Z</time>
      </trkpt>
      <trkpt lat="47.3228690" lon="6.8385690">
        <ele>466.4</ele>
        <time>2022-07-20T17:27:40Z</time>
      </trkpt>
      <trkpt lat="47.3228790" lon="6.8385860">
        <ele>466.5</ele>
        <time>2022-07-20T17:27:41Z</time>
      </trkpt>
      <trkpt lat="47.3228870" lon="6.8386180">
        <ele>466.6</ele>
        <time>2022-07-20T17:27:43Z</time>
      </trkpt>
      <trkpt lat="47.3228760" lon="6.8386570">
        <ele>466.8</ele>
        <time>2022-07-20T17:27:44Z</time>
      </trkpt>
      <trkpt lat="47.3228620" lon="6.8387110">
        <ele>467.0</ele>
        <time>2022-07-20T17:27:46Z</time>
      </trkpt>
      <trkpt lat="47.3228590" lon="6.8387310">
        <ele>467.1</ele>
        <time>2022-07-20T17:27:47Z</time>
      </trkpt>
      <trkpt lat="47.3228520" lon="6.8387740">
        <ele>467.3</ele>
        <time>2022-07-20T17:27:48Z</time>
      </trkpt>
      <trkpt lat="47.3228490" lon="6.8387860">
        <ele>467.3</ele>
        <time>2022-07-20T17:27:49Z</time>
      </trkpt>
      <trkpt lat="47.3228450" lon="6.8388320">
        <ele>467.5</ele>
        <time>2022-07-20T17:27:50Z</time>
      </trkpt>
      <trkpt lat="47.3228440" lon="6.8388450">
        <ele>467.6</ele>
        <time>2022-07-20T17:27:51Z</time>
      </trkpt>
      <trkpt lat="47.3228450" lon="6.8388860">
        <ele>467.7</ele>
        <time>2022-07-20T17:27:52Z</time>
      </trkpt>
      <trkpt lat="47.3228450" lon="6.8388990">
        <ele>467.8</ele>
        <time>2022-07-20T17:27:53Z</time>
      </trkpt>
      <trkpt lat="47.3228410" lon="6.8389200">
        <ele>467.8</ele>
        <time>2022-07-20T17:27:54Z</time>
      </trkpt>
      <trkpt lat="47.3228390" lon="6.8389440">
        <ele>467.9</ele>
        <time>2022-07-20T17:27:55Z</time>
      </trkpt>
      <trkpt lat="47.3228310" lon="6.8389910">
        <ele>468.1</ele>
        <time>2022-07-20T17:27:57Z</time>
      </trkpt>
      <trkpt lat="47.3228290" lon="6.8390020">
        <ele>468.2</ele>
        <time>2022-07-20T17:27:58Z</time>
      </trkpt>
      <trkpt lat="47.3228120" lon="6.8390410">
        <ele>468.3</ele>
        <time>2022-07-20T17:27:59Z</time>
      </trkpt>
      <trkpt lat="47.3228070" lon="6.8390550">
        <ele>468.4</ele>
        <time>2022-07-20T17:28:00Z</time>
      </trkpt>
      <trkpt lat="47.3227790" lon="6.8391050">
        <ele>468.7</ele>
        <time>2022-07-20T17:28:02Z</time>
      </trkpt>
      <trkpt lat="47.3227510" lon="6.8391560">
        <ele>468.9</ele>
        <time>2022-07-20T17:28:04Z</time>
      </trkpt>
      <trkpt lat="47.3227420" lon="6.8391740">
        <ele>469.0</ele>
        <time>2022-07-20T17:28:05Z</time>
      </trkpt>
      <trkpt lat="47.3227330" lon="6.8391910">
        <ele>469.1</ele>
        <time>2022-07-20T17:28:06Z</time>
      </trkpt>
      <trkpt lat="47.3227120" lon="6.8392180">
        <ele>469.3</ele>
        <time>2022-07-20T17:28:07Z</time>
      </trkpt>
      <trkpt lat="47.3226900" lon="6.8392580">
        <ele>469.6</ele>
        <time>2022-07-20T17:28:09Z</time>
      </trkpt>
      <trkpt lat="47.3226800" lon="6.8392770">
        <ele>469.7</ele>
        <time>2022-07-20T17:28:10Z</time>
      </trkpt>
      <trkpt lat="47.3226630" lon="6.8393100">
        <ele>469.9</ele>
        <time>2022-07-20T17:28:11Z</time>
      </trkpt>
      <trkpt lat="47.3226560" lon="6.8393230">
        <ele>470.0</ele>
        <time>2022-07-20T17:28:12Z</time>
      </trkpt>
      <trkpt lat="47.3226350" lon="6.8393440">
        <ele>470.2</ele>
        <time>2022-07-20T17:28:13Z</time>
      </trkpt>
      <trkpt lat="47.3226130" lon="6.8393640">
        <ele>470.4</ele>
        <time>2022-07-20T17:28:15Z</time>
      </trkpt>
      <trkpt lat="47.3225800" lon="6.8393940">
        <ele>470.6</ele>
        <time>2022-07-20T17:28:16Z</time>
      </trkpt>
      <trkpt lat="47.3225690" lon="6.8394050">
        <ele>470.7</ele>
        <time>2022-07-20T17:28:17Z</time>
      </trkpt>
      <trkpt lat="47.3225380" lon="6.8394330">
        <ele>471.0</ele>
        <time>2022-07-20T17:28:19Z</time>
      </trkpt>
      <trkpt lat="47.3225270" lon="6.8394390">
        <ele>471.1</ele>
        <time>2022-07-20T17:28:20Z</time>
      </trkpt>
      <trkpt lat="47.3224970" lon="6.8394550">
        <ele>471.3</ele>
        <time>2022-07-20T17:28:21Z</time>
      </trkpt>
      <trkpt lat="47.3224840" lon="6.8394640">
        <ele>471.4</ele>
        <time>2022-07-20T17:28:22Z</time>
      </trkpt>
      <trkpt lat="47.3224520" lon="6.8394820">
        <ele>471.6</ele>
        <time>2022-07-20T17:28:24Z</time>
      </trkpt>
      <trkpt lat="47.3224430" lon="6.8394880">
        <ele>471.7</ele>
        <time>2022-07-20T17:28:25Z</time>
      </trkpt>
      <trkpt lat="47.3224130" lon="6.8395020">
        <ele>471.9</ele>
        <time>2022-07-20T17:28:26Z</time>
      </trkpt>
      <trkpt lat="47.3223840" lon="6.8395110">
        <ele>472.2</ele>
        <time>2022-07-20T17:28:27Z</time>
      </trkpt>
      <trkpt lat="47.3223740" lon="6.8395130">
        <ele>472.2</ele>
        <time>2022-07-20T17:28:28Z</time>
      </trkpt>
      <trkpt lat="47.3223430" lon="6.8395170">
        <ele>472.4</ele>
        <time>2022-07-20T17:28:30Z</time>
      </trkpt>
      <trkpt lat="47.3223320" lon="6.8395150">
        <ele>472.5</ele>
        <time>2022-07-20T17:28:31Z</time>
      </trkpt>
      <trkpt lat="47.3223120" lon="6.8395150">
        <ele>472.7</ele>
        <time>2022-07-20T17:28:32Z</time>
      </trkpt>
      <trkpt lat="47.3223040" lon="6.8395160">
        <ele>472.7</ele>
        <time>2022-07-20T17:28:33Z</time>
      </trkpt>
      <trkpt lat="47.3222950" lon="6.8395170">
        <ele>472.8</ele>
        <time>2022-07-20T17:28:34Z</time>
      </trkpt>
      <trkpt lat="47.3222760" lon="6.8395190">
        <ele>473.0</ele>
        <time>2022-07-20T17:28:35Z</time>
      </trkpt>
      <trkpt lat="47.3222540" lon="6.8395240">
        <ele>473.1</ele>
        <time>2022-07-20T17:28:37Z</time>
      </trkpt>
      <trkpt lat="47.3222260" lon="6.8395240">
        <ele>473.4</ele>
        <time>2022-07-20T17:28:38Z</time>
      </trkpt>
      <trkpt lat="47.3222150" lon="6.8395240">
        <ele>473.4</ele>
        <time>2022-07-20T17:28:39Z</time>
      </trkpt>
      <trkpt lat="47.3221860" lon="6.8395120">
        <ele>473.7</ele>
        <time>2022-07-20T17:28:40Z</time>
      </trkpt>
      <trkpt lat="47.3221780" lon="6.8395080">
        <ele>473.8</ele>
        <time>2022-07-20T17:28:41Z</time>
      </trkpt>
      <trkpt lat="47.3221600" lon="6.8394980">
        <ele>473.9</ele>
        <time>2022-07-20T17:28:42Z</time>
      </trkpt>
      <trkpt lat="47.3221470" lon="6.8394930">
        <ele>474.0</ele>
        <time>2022-07-20T17:28:44Z</time>
      </trkpt>
      <trkpt lat="47.3221390" lon="6.8394720">
        <ele>474.1</ele>
        <time>2022-07-20T17:28:45Z</time>
      </trkpt>
      <trkpt lat="47.3221270" lon="6.8394540">
        <ele>474.3</ele>
        <time>2022-07-20T17:28:46Z</time>
      </trkpt>
      <trkpt lat="47.3221170" lon="6.8394400">
        <ele>474.4</ele>
        <time>2022-07-20T17:28:47Z</time>
      </trkpt>
      <trkpt lat="47.3221080" lon="6.8394170">
        <ele>474.5</ele>
        <time>2022-07-20T17:28:49Z</time>
      </trkpt>
      <trkpt lat="47.3220930" lon="6.8393920">
        <ele>474.7</ele>
        <time>2022-07-20T17:28:50Z</time>
      </trkpt>
      <trkpt lat="47.3220710" lon="6.8393590">
        <ele>474.9</ele>
        <time>2022-07-20T17:28:52Z</time>
      </trkpt>
      <trkpt lat="47.3220610" lon="6.8393160">
        <ele>475.2</ele>
        <time>2022-07-20T17:28:53Z</time>
      </trkpt>
      <trkpt lat="47.3220620" lon="6.8392980">
        <ele>475.3</ele>
        <time>2022-07-20T17:28:54Z</time>
      </trkpt>
      <trkpt lat="47.3220670" lon="6.8392570">
        <ele>475.5</ele>
        <time>2022-07-20T17:28:55Z</time>
      </trkpt>
      <trkpt lat="47.3220680" lon="6.8392420">
        <ele>475.6</ele>
        <time>2022-07-20T17:28:56Z</time>
      </trkpt>
      <trkpt lat="47.3220630" lon="6.8391900">
        <ele>475.8</ele>
        <time>2022-07-20T17:28:58Z</time>
      </trkpt>
      <trkpt lat="47.3220620" lon="6.8391760">
        <ele>475.9</ele>
        <time>2022-07-20T17:28:59Z</time>
      </trkpt>
      <trkpt lat="47.3220540" lon="6.8391530">
        <ele>476.0</ele>
        <time>2022-07-20T17:29:00Z</time>
      </trkpt>
      <trkpt lat="47.3220400" lon="6.8391100">
        <ele>476.2</ele>
        <time>2022-07-20T17:29:02Z</time>
      </trkpt>
      <trkpt lat="47.3220370" lon="6.8390920">
        <ele>476.3</ele>
        <time>2022-07-20T17:29:03Z</time>
      </trkpt>
      <trkpt lat="47.3220340" lon="6.8390700">
        <ele>476.4</ele>
        <time>2022-07-20T17:29:04Z</time>
      </trkpt>
      <trkpt lat="47.3220380" lon="6.8390220">
        <ele>476.7</ele>
        <time>2022-07-20T17:29:05Z</time>
      </trkpt>
      <trkpt lat="47.3220410" lon="6.8390070">
        <ele>476.7</ele>
        <time>2022-07-20T17:29:06Z</time>
      </trkpt>
      <trkpt lat="47.3220390" lon="6.8389640">
        <ele>477.0</ele>
        <time>2022-07-20T17:29:08Z</time>
      </trkpt>
      <trkpt lat="47.3220360" lon="6.8389490">
        <ele>477.0</ele>
        <time>2022-07-20T17:29:09Z</time>
      </trkpt>
      <trkpt lat="47.3220260" lon="6.8389230">
        <ele>477.2</ele>
        <time>2022-07-20T17:29:10Z</time>
      </trkpt>
      <trkpt lat="47.3220200" lon="6.8388900">
        <ele>477.3</ele>
        <time>2022-07-20T17:29:12Z</time>
      </trkpt>
      <trkpt lat="47.3220140" lon="6.8388660">
        <ele>477.5</ele>
        <time>2022-07-20T17:29:13Z</time>
      </trkpt>
      <trkpt lat="47.3220070" lon="6.8388400">
        <ele>477.6</ele>
        <time>2022-07-20T17:29:14Z</time>
      </trkpt>
      <trkpt lat="47.3219970" lon="6.8388010">
        <ele>477.8</ele>
        <time>2022-07-20T17:29:15Z</time>
      </trkpt>
      <trkpt lat="47.3219930" lon="6.8387880">
        <ele>477.9</ele>
        <time>2022-07-20T17:29:16Z</time>
      </trkpt>
      <trkpt lat="47.3219870" lon="6.8387660">
        <ele>478.0</ele>
        <time>2022-07-20T17:29:17Z</time>
      </trkpt>
      <trkpt lat="47.3219830" lon="6.8387410">
        <ele>478.1</ele>
        <time>2022-07-20T17:29:18Z</time>
      </trkpt>
      <trkpt lat="47.3219830" lon="6.8387160">
        <ele>478.2</ele>
        <time>2022-07-20T17:29:19Z</time>
      </trkpt>
      <trkpt lat="47.3219890" lon="6.8386930">
        <ele>478.3</ele>
        <time>2022-07-20T17:29:20Z</time>
      </trkpt>
      <trkpt lat="47.3219760" lon="6.8386460">
        <ele>478.6</ele>
        <time>2022-07-20T17:29:21Z</time>
      </trkpt>
      <trkpt lat="47.3219720" lon="6.8386310">
        <ele>478.7</ele>
        <time>2022-07-20T17:29:22Z</time>
      </trkpt>
      <trkpt lat="47.3219680" lon="6.8385570">
        <ele>479.0</ele>
        <time>2022-07-20T17:29:24Z</time>
      </trkpt>
      <trkpt lat="47.3219710" lon="6.8385310">
        <ele>479.1</ele>
        <time>2022-07-20T17:29:25Z</time>
      </trkpt>
      <trkpt lat="47.3219730" lon="6.8385050">
        <ele>479.2</ele>
        <time>2022-07-20T17:29:26Z</time>
      </trkpt>
      <trkpt lat="47.3219970" lon="6.8384420">
        <ele>479.6</ele>
        <time>2022-07-20T17:29:28Z</time>
      </trkpt>
      <trkpt lat="47.3220050" lon="6.8384220">
        <ele>479.7</ele>
        <time>2022-07-20T17:29:29Z</time>
      </trkpt>
      <trkpt lat="47.3220140" lon="6.8384020">
        <ele>479.8</ele>
        <time>2022-07-20T17:29:30Z</time>
      </trkpt>
      <trkpt lat="47.3220250" lon="6.8383720">
        <ele>480.0</ele>
        <time>2022-07-20T17:29:31Z</time>
      </trkpt>
      <trkpt lat="47.3220280" lon="6.8383130">
        <ele>480.3</ele>
        <time>2022-07-20T17:29:33Z</time>
      </trkpt>
      <trkpt lat="47.3220460" lon="6.8382720">
        <ele>480.5</ele>
        <time>2022-07-20T17:29:34Z</time>
      </trkpt>
      <trkpt lat="47.3220660" lon="6.8382140">
        <ele>480.9</ele>
        <time>2022-07-20T17:29:36Z</time>
      </trkpt>
      <trkpt lat="47.3220710" lon="6.8381950">
        <ele>481.0</ele>
        <time>2022-07-20T17:29:37Z</time>
      </trkpt>
      <trkpt lat="47.3220750" lon="6.8381750">
        <ele>481.1</ele>
        <time>2022-07-20T17:29:38Z</time>
      </trkpt>
      <trkpt lat="47.3220800" lon="6.8381510">
        <ele>481.2</ele>
        <time>2022-07-20T17:29:39Z</time>
      </trkpt>
      <trkpt lat="47.3220840" lon="6.8381310">
        <ele>481.4</ele>
        <time>2022-07-20T17:29:40Z</time>
      </trkpt>
      <trkpt lat="47.3220850" lon="6.8381090">
        <ele>481.5</ele>
        <time>2022-07-20T17:29:41Z</time>
      </trkpt>
      <trkpt lat="47.3220870" lon="6.8380840">
        <ele>481.6</ele>
        <time>2022-07-20T17:29:42Z</time>
      </trkpt>
      <trkpt lat="47.3220860" lon="6.8380380">
        <ele>481.9</ele>
        <time>2022-07-20T17:29:43Z</time>
      </trkpt>
      <trkpt lat="47.3220850" lon="6.8380220">
        <ele>482.0</ele>
        <time>2022-07-20T17:29:44Z</time>
      </trkpt>
      <trkpt lat="47.3220780" lon="6.8379780">
        <ele>482.2</ele>
        <time>2022-07-20T17:29:45Z</time>
      </trkpt>
      <trkpt lat="47.3220770" lon="6.8379630">
        <ele>482.3</ele>
        <time>2022-07-20T17:29:46Z</time>
      </trkpt>
      <trkpt lat="47.3220810" lon="6.8379230">
        <ele>482.5</ele>
        <time>2022-07-20T17:29:47Z</time>
      </trkpt>
      <trkpt lat="47.3220770" lon="6.8378850">
        <ele>482.7</ele>
        <time>2022-07-20T17:29:48Z</time>
      </trkpt>
      <trkpt lat="47.3220720" lon="6.8378660">
        <ele>482.8</ele>
        <time>2022-07-20T17:29:49Z</time>
      </trkpt>
      <trkpt lat="47.3220580" lon="6.8378050">
        <ele>483.2</ele>
        <time>2022-07-20T17:29:51Z</time>
      </trkpt>
      <trkpt lat="47.3220530" lon="6.8377840">
        <ele>483.3</ele>
        <time>2022-07-20T17:29:52Z</time>
      </trkpt>
      <trkpt lat="47.3220480" lon="6.8377630">
        <ele>483.4</ele>
        <time>2022-07-20T17:29:53Z</time>
      </trkpt>
      <trkpt lat="47.3220370" lon="6.8377190">
        <ele>483.6</ele>
        <time>2022-07-20T17:29:54Z</time>
      </trkpt>
      <trkpt lat="47.3220180" lon="6.8376570">
        <ele>484.0</ele>
        <time>2022-07-20T17:29:56Z</time>
      </trkpt>
      <trkpt lat="47.3220110" lon="6.8376360">
        <ele>484.1</ele>
        <time>2022-07-20T17:29:57Z</time>
      </trkpt>
      <trkpt lat="47.3220050" lon="6.8376140">
        <ele>484.3</ele>
        <time>2022-07-20T17:29:58Z</time>
      </trkpt>
      <trkpt lat="47.3219970" lon="6.8375730">
        <ele>484.5</ele>
        <time>2022-07-20T17:29:59Z</time>
      </trkpt>
      <trkpt lat="47.3219960" lon="6.8375200">
        <ele>484.8</ele>
        <time>2022-07-20T17:30:01Z</time>
      </trkpt>
      <trkpt lat="47.3219970" lon="6.8375070">
        <ele>484.8</ele>
        <time>2022-07-20T17:30:02Z</time>
      </trkpt>
      <trkpt lat="47.3220020" lon="6.8374640">
        <ele>485.1</ele>
        <time>2022-07-20T17:30:03Z</time>
      </trkpt>
      <trkpt lat="47.3220030" lon="6.8374480">
        <ele>485.2</ele>
        <time>2022-07-20T17:30:04Z</time>
      </trkpt>
      <trkpt lat="47.3220010" lon="6.8374210">
        <ele>485.3</ele>
        <time>2022-07-20T17:30:05Z</time>
      </trkpt>
      <trkpt lat="47.3219990" lon="6.8374020">
        <ele>485.5</ele>
        <time>2022-07-20T17:30:06Z</time>
      </trkpt>
      <trkpt lat="47.3219960" lon="6.8373640">
        <ele>485.7</ele>
        <time>2022-07-20T17:30:07Z</time>
      </trkpt>
      <trkpt lat="47.3219940" lon="6.8373490">
        <ele>485.8</ele>
        <time>2022-07-20T17:30:08Z</time>
      </trkpt>
      <trkpt lat="47.3219850" lon="6.8373040">
        <ele>486.0</ele>
        <time>2022-07-20T17:30:10Z</time>
      </trkpt>
      <trkpt lat="47.3219840" lon="6.8372880">
        <ele>486.1</ele>
        <time>2022-07-20T17:30:11Z</time>
      </trkpt>
      <trkpt lat="47.3219800" lon="6.8372420">
        <ele>486.4</ele>
        <time>2022-07-20T17:30:12Z</time>
      </trkpt>
      <trkpt lat="47.3219800" lon="6.8372260">
        <ele>486.5</ele>
        <time>2022-07-20T17:30:13Z</time>
      </trkpt>
      <trkpt lat="47.3219710" lon="6.8371810">
        <ele>486.7</ele>
        <time>2022-07-20T17:30:15Z</time>
      </trkpt>
      <trkpt lat="47.3219700" lon="6.8371710">
        <ele>486.8</ele>
        <time>2022-07-20T17:30:16Z</time>
      </trkpt>
      <trkpt lat="47.3219870" lon="6.8371370">
        <ele>487.0</ele>
        <time>2022-07-20T17:30:17Z</time>
      </trkpt>
      <trkpt lat="47.3219950" lon="6.8371250">
        <ele>487.1</ele>
        <time>2022-07-20T17:30:18Z</time>
      </trkpt>
      <trkpt lat="47.3220180" lon="6.8370880">
        <ele>487.3</ele>
        <time>2022-07-20T17:30:20Z</time>
      </trkpt>
      <trkpt lat="47.3220240" lon="6.8370780">
        <ele>487.4</ele>
        <time>2022-07-20T17:30:21Z</time>
      </trkpt>
      <trkpt lat="47.3220390" lon="6.8370430">
        <ele>487.6</ele>
        <time>2022-07-20T17:30:22Z</time>
      </trkpt>
      <trkpt lat="47.3220440" lon="6.8370330">
        <ele>487.7</ele>
        <time>2022-07-20T17:30:23Z</time>
      </trkpt>
      <trkpt lat="47.3220480" lon="6.8370070">
        <ele>487.8</ele>
        <time>2022-07-20T17:30:24Z</time>
      </trkpt>
      <trkpt lat="47.3220500" lon="6.8369920">
        <ele>487.9</ele>
        <time>2022-07-20T17:30:25Z</time>
      </trkpt>
      <trkpt lat="47.3220520" lon="6.8369660">
        <ele>488.0</ele>
        <time>2022-07-20T17:30:26Z</time>
      </trkpt>
      <trkpt lat="47.3220520" lon="6.8369500">
        <ele>488.1</ele>
        <time>2022-07-20T17:30:27Z</time>
      </trkpt>
      <trkpt lat="47.3220530" lon="6.8369340">
        <ele>488.2</ele>
        <time>2022-07-20T17:30:28Z</time>
      </trkpt>
      <trkpt lat="47.3220460" lon="6.8368950">
        <ele>488.4</ele>
        <time>2022-07-20T17:30:29Z</time>
      </trkpt>
      <trkpt lat="47.3220430" lon="6.8368800">
        <ele>488.5</ele>
        <time>2022-07-20T17:30:30Z</time>
      </trkpt>
      <trkpt lat="47.3220460" lon="6.8368330">
        <ele>488.8</ele>
        <time>2022-07-20T17:30:32Z</time>
      </trkpt>
      <trkpt lat="47.3220510" lon="6.8368140">
        <ele>488.9</ele>
        <time>2022-07-20T17:30:33Z</time>
      </trkpt>
      <trkpt lat="47.3220560" lon="6.8367720">
        <ele>489.1</ele>
        <time>2022-07-20T17:30:34Z</time>
      </trkpt>
      <trkpt lat="47.3220540" lon="6.8367600">
        <ele>489.2</ele>
        <time>2022-07-20T17:30:35Z</time>
      </trkpt>
      <trkpt lat="47.3220520" lon="6.8367350">
        <ele>489.3</ele>
        <time>2022-07-20T17:30:37Z</time>
      </trkpt>
      <trkpt lat="47.3220490" lon="6.8367100">
        <ele>489.4</ele>
        <time>2022-07-20T17:30:38Z</time>
      </trkpt>
      <trkpt lat="47.3220380" lon="6.8366650">
        <ele>489.7</ele>
        <time>2022-07-20T17:30:39Z</time>
      </trkpt>
      <trkpt lat="47.3220350" lon="6.8366520">
        <ele>489.7</ele>
        <time>2022-07-20T17:30:40Z</time>
      </trkpt>
      <trkpt lat="47.3220270" lon="6.8366110">
        <ele>489.9</ele>
        <time>2022-07-20T17:30:41Z</time>
      </trkpt>
      <trkpt lat="47.3220250" lon="6.8365960">
        <ele>490.0</ele>
        <time>2022-07-20T17:30:42Z</time>
      </trkpt>
      <trkpt lat="47.3220240" lon="6.8365690">
        <ele>490.2</ele>
        <time>2022-07-20T17:30:43Z</time>
      </trkpt>
      <trkpt lat="47.3220160" lon="6.8365330">
        <ele>490.4</ele>
        <time>2022-07-20T17:30:45Z</time>
      </trkpt>
      <trkpt lat="47.3220080" lon="6.8364920">
        <ele>490.6</ele>
        <time>2022-07-20T17:30:46Z</time>
      </trkpt>
      <trkpt lat="47.3220020" lon="6.8364580">
        <ele>490.8</ele>
        <time>2022-07-20T17:30:47Z</time>
      </trkpt>
      <trkpt lat="47.3219920" lon="6.8364130">
        <ele>491.0</ele>
        <time>2022-07-20T17:30:49Z</time>
      </trkpt>
      <trkpt lat="47.3219740" lon="6.8363710">
        <ele>491.3</ele>
        <time>2022-07-20T17:30:50Z</time>
      </trkpt>
      <trkpt lat="47.3219680" lon="6.8363580">
        <ele>491.3</ele>
        <time>2022-07-20T17:30:51Z</time>
      </trkpt>
      <trkpt lat="47.3219460" lon="6.8363270">
        <ele>491.6</ele>
        <time>2022-07-20T17:30:52Z</time>
      </trkpt>
      <trkpt lat="47.3219380" lon="6.8363170">
        <ele>491.7</ele>
        <time>2022-07-20T17:30:53Z</time>
      </trkpt>
      <trkpt lat="47.3219160" lon="6.8362980">
        <ele>491.8</ele>
        <time>2022-07-20T17:30:54Z</time>
      </trkpt>
      <trkpt lat="47.3218920" lon="6.8362810">
        <ele>492.0</ele>
        <time>2022-07-20T17:30:56Z</time>
      </trkpt>
      <trkpt lat="47.3218690" lon="6.8362420">
        <ele>492.3</ele>
        <time>2022-07-20T17:30:57Z</time>
      </trkpt>
      <trkpt lat="47.3218630" lon="6.8362310">
        <ele>492.4</ele>
        <time>2022-07-20T17:30:58Z</time>
      </trkpt>
      <trkpt lat="47.3218450" lon="6.8362000">
        <ele>492.6</ele>
        <time>2022-07-20T17:30:59Z</time>
      </trkpt>
      <trkpt lat="47.3218380" lon="6.8361890">
        <ele>492.7</ele>
        <time>2022-07-20T17:31:00Z</time>
      </trkpt>
      <trkpt lat="47.3218280" lon="6.8361650">
        <ele>492.8</ele>
        <time>2022-07-20T17:31:01Z</time>
      </trkpt>
      <trkpt lat="47.3218230" lon="6.8361480">
        <ele>492.9</ele>
        <time>2022-07-20T17:31:02Z</time>
      </trkpt>
      <trkpt lat="47.3218020" lon="6.8361050">
        <ele>493.1</ele>
        <time>2022-07-20T17:31:03Z</time>
      </trkpt>
      <trkpt lat="47.3217950" lon="6.8360910">
        <ele>493.2</ele>
        <time>2022-07-20T17:31:04Z</time>
      </trkpt>
      <trkpt lat="47.3217750" lon="6.8360580">
        <ele>493.4</ele>
        <time>2022-07-20T17:31:05Z</time>
      </trkpt>
      <trkpt lat="47.3217550" lon="6.8360160">
        <ele>493.7</ele>
        <time>2022-07-20T17:31:07Z</time>
      </trkpt>
      <trkpt lat="47.3217490" lon="6.8360010">
        <ele>493.8</ele>
        <time>2022-07-20T17:31:08Z</time>
      </trkpt>
      <trkpt lat="47.3217370" lon="6.8359610">
        <ele>494.0</ele>
        <time>2022-07-20T17:31:09Z</time>
      </trkpt>
      <trkpt lat="47.3217170" lon="6.8359130">
        <ele>494.3</ele>
        <time>2022-07-20T17:31:10Z</time>
      </trkpt>
      <trkpt lat="47.3217110" lon="6.8358960">
        <ele>494.4</ele>
        <time>2022-07-20T17:31:11Z</time>
      </trkpt>
      <trkpt lat="47.3217010" lon="6.8358620">
        <ele>494.5</ele>
        <time>2022-07-20T17:31:12Z</time>
      </trkpt>
      <trkpt lat="47.3216900" lon="6.8358300">
        <ele>494.7</ele>
        <time>2022-07-20T17:31:14Z</time>
      </trkpt>
      <trkpt lat="47.3216760" lon="6.8357870">
        <ele>495.0</ele>
        <time>2022-07-20T17:31:15Z</time>
      </trkpt>
      <trkpt lat="47.3216720" lon="6.8357740">
        <ele>495.0</ele>
        <time>2022-07-20T17:31:16Z</time>
      </trkpt>
      <trkpt lat="47.3216640" lon="6.8357430">
        <ele>495.2</ele>
        <time>2022-07-20T17:31:17Z</time>
      </trkpt>
      <trkpt lat="47.3216570" lon="6.8357290">
        <ele>495.3</ele>
        <time>2022-07-20T17:31:18Z</time>
      </trkpt>
      <trkpt lat="47.3216400" lon="6.8356960">
        <ele>495.5</ele>
        <time>2022-07-20T17:31:20Z</time>
      </trkpt>
      <trkpt lat="47.3216330" lon="6.8356790">
        <ele>495.6</ele>
        <time>2022-07-20T17:31:21Z</time>
      </trkpt>
      <trkpt lat="47.3216220" lon="6.8356440">
        <ele>495.8</ele>
        <time>2022-07-20T17:31:22Z</time>
      </trkpt>
      <trkpt lat="47.3216170" lon="6.8356310">
        <ele>495.9</ele>
        <time>2022-07-20T17:31:23Z</time>
      </trkpt>
      <trkpt lat="47.3216080" lon="6.8356070">
        <ele>496.0</ele>
        <time>2022-07-20T17:31:24Z</time>
      </trkpt>
      <trkpt lat="47.3215990" lon="6.8355850">
        <ele>496.1</ele>
        <time>2022-07-20T17:31:26Z</time>
      </trkpt>
      <trkpt lat="47.3215910" lon="6.8355670">
        <ele>496.2</ele>
        <time>2022-07-20T17:31:27Z</time>
      </trkpt>
      <trkpt lat="47.3215800" lon="6.8355480">
        <ele>496.4</ele>
        <time>2022-07-20T17:31:28Z</time>
      </trkpt>
      <trkpt lat="47.3215720" lon="6.8355310">
        <ele>496.5</ele>
        <time>2022-07-20T17:31:29Z</time>
      </trkpt>
      <trkpt lat="47.3215610" lon="6.8355180">
        <ele>496.6</ele>
        <time>2022-07-20T17:31:30Z</time>
      </trkpt>
      <trkpt lat="47.3215360" lon="6.8354870">
        <ele>496.8</ele>
        <time>2022-07-20T17:31:31Z</time>
      </trkpt>
      <trkpt lat="47.3215270" lon="6.8354780">
        <ele>496.9</ele>
        <time>2022-07-20T17:31:32Z</time>
      </trkpt>
      <trkpt lat="47.3215000" lon="6.8354520">
        <ele>497.1</ele>
        <time>2022-07-20T17:31:34Z</time>
      </trkpt>
      <trkpt lat="47.3214910" lon="6.8354440">
        <ele>497.2</ele>
        <time>2022-07-20T17:31:35Z</time>
      </trkpt>
      <trkpt lat="47.3214720" lon="6.8354270">
        <ele>497.4</ele>
        <time>2022-07-20T17:31:36Z</time>
      </trkpt>
      <trkpt lat="47.3214660" lon="6.8354190">
        <ele>497.4</ele>
        <time>2022-07-20T17:31:37Z</time>
      </trkpt>
      <trkpt lat="47.3214590" lon="6.8354110">
        <ele>497.5</ele>
        <time>2022-07-20T17:31:38Z</time>
      </trkpt>
      <trkpt lat="47.3214360" lon="6.8353780">
        <ele>497.7</ele>
        <time>2022-07-20T17:31:40Z</time>
      </trkpt>
      <trkpt lat="47.3214280" lon="6.8353670">
        <ele>497.8</ele>
        <time>2022-07-20T17:31:41Z</time>
      </trkpt>
      <trkpt lat="47.3213970" lon="6.8353320">
        <ele>498.1</ele>
        <time>2022-07-20T17:31:42Z</time>
      </trkpt>
      <trkpt lat="47.3213850" lon="6.8353190">
        <ele>498.2</ele>
        <time>2022-07-20T17:31:43Z</time>
      </trkpt>
      <trkpt lat="47.3213590" lon="6.8352820">
        <ele>498.5</ele>
        <time>2022-07-20T17:31:44Z</time>
      </trkpt>
      <trkpt lat="47.3213530" lon="6.8352710">
        <ele>498.5</ele>
        <time>2022-07-20T17:31:45Z</time>
      </trkpt>
      <trkpt lat="47.3213500" lon="6.8352250">
        <ele>498.8</ele>
        <time>2022-07-20T17:31:47Z</time>
      </trkpt>
      <trkpt lat="47.3213460" lon="6.8352130">
        <ele>498.8</ele>
        <time>2022-07-20T17:31:48Z</time>
      </trkpt>
      <trkpt lat="47.3213400" lon="6.8351530">
        <ele>499.1</ele>
        <time>2022-07-20T17:31:50Z</time>
      </trkpt>
      <trkpt lat="47.3213340" lon="6.8351350">
        <ele>499.2</ele>
        <time>2022-07-20T17:31:51Z</time>
      </trkpt>
      <trkpt lat="47.3213280" lon="6.8351170">
        <ele>499.4</ele>
        <time>2022-07-20T17:31:52Z</time>
      </trkpt>
      <trkpt lat="47.3213070" lon="6.8350730">
        <ele>499.7</ele>
        <time>2022-07-20T17:31:53Z</time>
      </trkpt>
      <trkpt lat="47.3213010" lon="6.8350600">
        <ele>499.7</ele>
        <time>2022-07-20T17:31:54Z</time>
      </trkpt>
      <trkpt lat="47.3212890" lon="6.8350230">
        <ele>500.0</ele>
        <time>2022-07-20T17:31:55Z</time>
      </trkpt>
      <trkpt lat="47.3212670" lon="6.8349840">
        <ele>500.2</ele>
        <time>2022-07-20T17:31:57Z</time>
      </trkpt>
      <trkpt lat="47.3212570" lon="6.8349740">
        <ele>500.3</ele>
        <time>2022-07-20T17:31:58Z</time>
      </trkpt>
      <trkpt lat="47.3212420" lon="6.8349590">
        <ele>500.5</ele>
        <time>2022-07-20T17:31:59Z</time>
      </trkpt>
      <trkpt lat="47.3212300" lon="6.8349390">
        <ele>500.6</ele>
        <time>2022-07-20T17:32:00Z</time>
      </trkpt>
      <trkpt lat="47.3211980" lon="6.8349080">
        <ele>501.0</ele>
        <time>2022-07-20T17:32:02Z</time>
      </trkpt>
      <trkpt lat="47.3211880" lon="6.8348990">
        <ele>501.0</ele>
        <time>2022-07-20T17:32:03Z</time>
      </trkpt>
      <trkpt lat="47.3211650" lon="6.8348710">
        <ele>501.3</ele>
        <time>2022-07-20T17:32:04Z</time>
      </trkpt>
      <trkpt lat="47.3211580" lon="6.8348520">
        <ele>501.4</ele>
        <time>2022-07-20T17:32:05Z</time>
      </trkpt>
      <trkpt lat="47.3211530" lon="6.8348180">
        <ele>501.6</ele>
        <time>2022-07-20T17:32:07Z</time>
      </trkpt>
      <trkpt lat="47.3211510" lon="6.8347720">
        <ele>501.8</ele>
        <time>2022-07-20T17:32:08Z</time>
      </trkpt>
      <trkpt lat="47.3211550" lon="6.8347240">
        <ele>502.1</ele>
        <time>2022-07-20T17:32:09Z</time>
      </trkpt>
      <trkpt lat="47.3211560" lon="6.8347130">
        <ele>502.1</ele>
        <time>2022-07-20T17:32:10Z</time>
      </trkpt>
      <trkpt lat="47.3211570" lon="6.8346830">
        <ele>502.3</ele>
        <time>2022-07-20T17:32:12Z</time>
      </trkpt>
      <trkpt lat="47.3211580" lon="6.8346690">
        <ele>502.4</ele>
        <time>2022-07-20T17:32:13Z</time>
      </trkpt>
      <trkpt lat="47.3211580" lon="6.8346550">
        <ele>502.5</ele>
        <time>2022-07-20T17:32:14Z</time>
      </trkpt>
      <trkpt lat="47.3211480" lon="6.8345910">
        <ele>502.8</ele>
        <time>2022-07-20T17:32:16Z</time>
      </trkpt>
      <trkpt lat="47.3211420" lon="6.8345690">
        <ele>502.9</ele>
        <time>2022-07-20T17:32:17Z</time>
      </trkpt>
      <trkpt lat="47.3211370" lon="6.8345470">
        <ele>503.0</ele>
        <time>2022-07-20T17:32:18Z</time>
      </trkpt>
      <trkpt lat="47.3211240" lon="6.8345210">
        <ele>503.2</ele>
        <time>2022-07-20T17:32:19Z</time>
      </trkpt>
      <trkpt lat="47.3211030" lon="6.8344770">
        <ele>503.5</ele>
        <time>2022-07-20T17:32:21Z</time>
      </trkpt>
      <trkpt lat="47.3210840" lon="6.8344330">
        <ele>503.7</ele>
        <time>2022-07-20T17:32:22Z</time>
      </trkpt>
      <trkpt lat="47.3210770" lon="6.8344180">
        <ele>503.8</ele>
        <time>2022-07-20T17:32:23Z</time>
      </trkpt>
      <trkpt lat="47.3210510" lon="6.8343710">
        <ele>504.1</ele>
        <time>2022-07-20T17:32:24Z</time>
      </trkpt>
      <trkpt lat="47.3210420" lon="6.8343550">
        <ele>504.2</ele>
        <time>2022-07-20T17:32:25Z</time>
      </trkpt>
      <trkpt lat="47.3210230" lon="6.8343190">
        <ele>504.4</ele>
        <time>2022-07-20T17:32:27Z</time>
      </trkpt>
      <trkpt lat="47.3210080" lon="6.8342750">
        <ele>504.7</ele>
        <time>2022-07-20T17:32:28Z</time>
      </trkpt>
      <trkpt lat="47.3209880" lon="6.8342250">
        <ele>504.9</ele>
        <time>2022-07-20T17:32:29Z</time>
      </trkpt>
      <trkpt lat="47.3209800" lon="6.8342070">
        <ele>505.0</ele>
        <time>2022-07-20T17:32:30Z</time>
      </trkpt>
      <trkpt lat="47.3209650" lon="6.8341600">
        <ele>505.3</ele>
        <time>2022-07-20T17:32:32Z</time>
      </trkpt>
      <trkpt lat="47.3209590" lon="6.8341460">
        <ele>505.4</ele>
        <time>2022-07-20T17:32:33Z</time>
      </trkpt>
      <trkpt lat="47.3209450" lon="6.8341040">
        <ele>505.6</ele>
        <time>2022-07-20T17:32:34Z</time>
      </trkpt>
      <trkpt lat="47.3209410" lon="6.8340900">
        <ele>505.7</ele>
        <time>2022-07-20T17:32:35Z</time>
      </trkpt>
      <trkpt lat="47.3209360" lon="6.8340640">
        <ele>505.8</ele>
        <time>2022-07-20T17:32:36Z</time>
      </trkpt>
      <trkpt lat="47.3209320" lon="6.8340390">
        <ele>506.0</ele>
        <time>2022-07-20T17:32:37Z</time>
      </trkpt>
      <trkpt lat="47.3209300" lon="6.8340170">
        <ele>506.1</ele>
        <time>2022-07-20T17:32:38Z</time>
      </trkpt>
      <trkpt lat="47.3209210" lon="6.8339910">
        <ele>506.2</ele>
        <time>2022-07-20T17:32:39Z</time>
      </trkpt>
      <trkpt lat="47.3209150" lon="6.8339740">
        <ele>506.3</ele>
        <time>2022-07-20T17:32:40Z</time>
      </trkpt>
      <trkpt lat="47.3209090" lon="6.8339600">
        <ele>506.4</ele>
        <time>2022-07-20T17:32:41Z</time>
      </trkpt>
      <trkpt lat="47.3208940" lon="6.8339340">
        <ele>506.6</ele>
        <time>2022-07-20T17:32:43Z</time>
      </trkpt>
      <trkpt lat="47.3208770" lon="6.8338890">
        <ele>506.9</ele>
        <time>2022-07-20T17:32:44Z</time>
      </trkpt>
      <trkpt lat="47.3208740" lon="6.8338730">
        <ele>507.0</ele>
        <time>2022-07-20T17:32:45Z</time>
      </trkpt>
      <trkpt lat="47.3208640" lon="6.8338340">
        <ele>507.2</ele>
        <time>2022-07-20T17:32:46Z</time>
      </trkpt>
      <trkpt lat="47.3208610" lon="6.8338210">
        <ele>507.3</ele>
        <time>2022-07-20T17:32:47Z</time>
      </trkpt>
      <trkpt lat="47.3208550" lon="6.8338060">
        <ele>507.4</ele>
        <time>2022-07-20T17:32:48Z</time>
      </trkpt>
      <trkpt lat="47.3208490" lon="6.8337890">
        <ele>507.5</ele>
        <time>2022-07-20T17:32:49Z</time>
      </trkpt>
      <trkpt lat="47.3208410" lon="6.8337690">
        <ele>507.6</ele>
        <time>2022-07-20T17:32:51Z</time>
      </trkpt>
      <trkpt lat="47.3208290" lon="6.8337430">
        <ele>507.7</ele>
        <time>2022-07-20T17:32:52Z</time>
      </trkpt>
      <trkpt lat="47.3208240" lon="6.8337320">
        <ele>507.8</ele>
        <time>2022-07-20T17:32:53Z</time>
      </trkpt>
      <trkpt lat="47.3208200" lon="6.8337210">
        <ele>507.9</ele>
        <time>2022-07-20T17:32:54Z</time>
      </trkpt>
      <trkpt lat="47.3208080" lon="6.8336920">
        <ele>508.1</ele>
        <time>2022-07-20T17:32:55Z</time>
      </trkpt>
      <trkpt lat="47.3208020" lon="6.8336580">
        <ele>508.2</ele>
        <time>2022-07-20T17:32:57Z</time>
      </trkpt>
      <trkpt lat="47.3207860" lon="6.8336110">
        <ele>508.5</ele>
        <time>2022-07-20T17:32:58Z</time>
      </trkpt>
      <trkpt lat="47.3207700" lon="6.8335770">
        <ele>508.7</ele>
        <time>2022-07-20T17:33:00Z</time>
      </trkpt>
      <trkpt lat="47.3207560" lon="6.8335400">
        <ele>508.9</ele>
        <time>2022-07-20T17:33:01Z</time>
      </trkpt>
      <trkpt lat="47.3207460" lon="6.8334960">
        <ele>509.1</ele>
        <time>2022-07-20T17:33:02Z</time>
      </trkpt>
      <trkpt lat="47.3207430" lon="6.8334810">
        <ele>509.2</ele>
        <time>2022-07-20T17:33:03Z</time>
      </trkpt>
      <trkpt lat="47.3207290" lon="6.8334400">
        <ele>509.4</ele>
        <time>2022-07-20T17:33:04Z</time>
      </trkpt>
      <trkpt lat="47.3207250" lon="6.8334260">
        <ele>509.4</ele>
        <time>2022-07-20T17:33:05Z</time>
      </trkpt>
      <trkpt lat="47.3207080" lon="6.8333910">
        <ele>509.6</ele>
        <time>2022-07-20T17:33:06Z</time>
      </trkpt>
      <trkpt lat="47.3207020" lon="6.8333800">
        <ele>509.7</ele>
        <time>2022-07-20T17:33:07Z</time>
      </trkpt>
      <trkpt lat="47.3206840" lon="6.8333510">
        <ele>509.8</ele>
        <time>2022-07-20T17:33:08Z</time>
      </trkpt>
      <trkpt lat="47.3206610" lon="6.8333170">
        <ele>510.0</ele>
        <time>2022-07-20T17:33:09Z</time>
      </trkpt>
      <trkpt lat="47.3206530" lon="6.8333060">
        <ele>510.1</ele>
        <time>2022-07-20T17:33:10Z</time>
      </trkpt>
      <trkpt lat="47.3206240" lon="6.8332520">
        <ele>510.4</ele>
        <time>2022-07-20T17:33:12Z</time>
      </trkpt>
      <trkpt lat="47.3206140" lon="6.8332280">
        <ele>510.5</ele>
        <time>2022-07-20T17:33:13Z</time>
      </trkpt>
      <trkpt lat="47.3206050" lon="6.8332050">
        <ele>510.6</ele>
        <time>2022-07-20T17:33:14Z</time>
      </trkpt>
      <trkpt lat="47.3205820" lon="6.8331450">
        <ele>510.9</ele>
        <time>2022-07-20T17:33:16Z</time>
      </trkpt>
      <trkpt lat="47.3205740" lon="6.8331280">
        <ele>511.0</ele>
        <time>2022-07-20T17:33:17Z</time>
      </trkpt>
      <trkpt lat="47.3205670" lon="6.8331120">
        <ele>511.1</ele>
        <time>2022-07-20T17:33:18Z</time>
      </trkpt>
      <trkpt lat="47.3205510" lon="6.8330630">
        <ele>511.3</ele>
        <time>2022-07-20T17:33:19Z</time>
      </trkpt>
      <trkpt lat="47.3205450" lon="6.8330450">
        <ele>511.4</ele>
        <time>2022-07-20T17:33:20Z</time>
      </trkpt>
      <trkpt lat="47.3205240" lon="6.8329950">
        <ele>511.7</ele>
        <time>2022-07-20T17:33:22Z</time>
      </trkpt>
      <trkpt lat="47.3205180" lon="6.8329790">
        <ele>511.8</ele>
        <time>2022-07-20T17:33:23Z</time>
      </trkpt>
      <trkpt lat="47.3205020" lon="6.8329430">
        <ele>512.0</ele>
        <time>2022-07-20T17:33:24Z</time>
      </trkpt>
      <trkpt lat="47.3204980" lon="6.8329320">
        <ele>512.0</ele>
        <time>2022-07-20T17:33:25Z</time>
      </trkpt>
      <trkpt lat="47.3204900" lon="6.8329080">
        <ele>512.2</ele>
        <time>2022-07-20T17:33:26Z</time>
      </trkpt>
      <trkpt lat="47.3204750" lon="6.8328670">
        <ele>512.4</ele>
        <time>2022-07-20T17:33:28Z</time>
      </trkpt>
      <trkpt lat="47.3204620" lon="6.8328210">
        <ele>512.6</ele>
        <time>2022-07-20T17:33:29Z</time>
      </trkpt>
      <trkpt lat="47.3204600" lon="6.8328060">
        <ele>512.7</ele>
        <time>2022-07-20T17:33:30Z</time>
      </trkpt>
      <trkpt lat="47.3204550" lon="6.8327650">
        <ele>512.9</ele>
        <time>2022-07-20T17:33:31Z</time>
      </trkpt>
      <trkpt lat="47.3204540" lon="6.8327530">
        <ele>513.0</ele>
        <time>2022-07-20T17:33:32Z</time>
      </trkpt>
      <trkpt lat="47.3204420" lon="6.8327140">
        <ele>513.2</ele>
        <time>2022-07-20T17:33:33Z</time>
      </trkpt>
      <trkpt lat="47.3204380" lon="6.8327030">
        <ele>513.2</ele>
        <time>2022-07-20T17:33:34Z</time>
      </trkpt>
      <trkpt lat="47.3204430" lon="6.8326350">
        <ele>513.6</ele>
        <time>2022-07-20T17:33:35Z</time>
      </trkpt>
      <trkpt lat="47.3204350" lon="6.8325780">
        <ele>513.8</ele>
        <time>2022-07-20T17:33:36Z</time>
      </trkpt>
      <trkpt lat="47.3204320" lon="6.8325570">
        <ele>514.0</ele>
        <time>2022-07-20T17:33:37Z</time>
      </trkpt>
      <trkpt lat="47.3204220" lon="6.8325020">
        <ele>514.2</ele>
        <time>2022-07-20T17:33:39Z</time>
      </trkpt>
      <trkpt lat="47.3204200" lon="6.8324830">
        <ele>514.3</ele>
        <time>2022-07-20T17:33:40Z</time>
      </trkpt>
      <trkpt lat="47.3204140" lon="6.8324400">
        <ele>514.6</ele>
        <time>2022-07-20T17:33:41Z</time>
      </trkpt>
      <trkpt lat="47.3204110" lon="6.8324240">
        <ele>514.6</ele>
        <time>2022-07-20T17:33:42Z</time>
      </trkpt>
      <trkpt lat="47.3204010" lon="6.8323860">
        <ele>514.9</ele>
        <time>2022-07-20T17:33:43Z</time>
      </trkpt>
      <trkpt lat="47.3203970" lon="6.8323740">
        <ele>514.9</ele>
        <time>2022-07-20T17:33:44Z</time>
      </trkpt>
      <trkpt lat="47.3203820" lon="6.8323260">
        <ele>515.2</ele>
        <time>2022-07-20T17:33:45Z</time>
      </trkpt>
      <trkpt lat="47.3203780" lon="6.8323070">
        <ele>515.3</ele>
        <time>2022-07-20T17:33:46Z</time>
      </trkpt>
      <trkpt lat="47.3203710" lon="6.8322610">
        <ele>515.5</ele>
        <time>2022-07-20T17:33:48Z</time>
      </trkpt>
      <trkpt lat="47.3203630" lon="6.8322360">
        <ele>515.7</ele>
        <time>2022-07-20T17:33:49Z</time>
      </trkpt>
      <trkpt lat="47.3203550" lon="6.8322140">
        <ele>515.8</ele>
        <time>2022-07-20T17:33:50Z</time>
      </trkpt>
      <trkpt lat="47.3203480" lon="6.8321860">
        <ele>516.0</ele>
        <time>2022-07-20T17:33:51Z</time>
      </trkpt>
      <trkpt lat="47.3203400" lon="6.8321680">
        <ele>516.1</ele>
        <time>2022-07-20T17:33:52Z</time>
      </trkpt>
      <trkpt lat="47.3203280" lon="6.8321390">
        <ele>516.2</ele>
        <time>2022-07-20T17:33:53Z</time>
      </trkpt>
      <trkpt lat="47.3203150" lon="6.8321150">
        <ele>516.4</ele>
        <time>2022-07-20T17:33:55Z</time>
      </trkpt>
      <trkpt lat="47.3202960" lon="6.8320770">
        <ele>516.6</ele>
        <time>2022-07-20T17:33:56Z</time>
      </trkpt>
      <trkpt lat="47.3202920" lon="6.8320650">
        <ele>516.6</ele>
        <time>2022-07-20T17:33:57Z</time>
      </trkpt>
      <trkpt lat="47.3202790" lon="6.8320390">
        <ele>516.8</ele>
        <time>2022-07-20T17:33:58Z</time>
      </trkpt>
      <trkpt lat="47.3202690" lon="6.8320160">
        <ele>516.9</ele>
        <time>2022-07-20T17:34:00Z</time>
      </trkpt>
      <trkpt lat="47.3202550" lon="6.8319750">
        <ele>517.1</ele>
        <time>2022-07-20T17:34:02Z</time>
      </trkpt>
      <trkpt lat="47.3202590" lon="6.8319300">
        <ele>517.3</ele>
        <time>2022-07-20T17:34:03Z</time>
      </trkpt>
      <trkpt lat="47.3202680" lon="6.8318860">
        <ele>517.6</ele>
        <time>2022-07-20T17:34:04Z</time>
      </trkpt>
      <trkpt lat="47.3202700" lon="6.8318750">
        <ele>517.6</ele>
        <time>2022-07-20T17:34:05Z</time>
      </trkpt>
      <trkpt lat="47.3202730" lon="6.8318440">
        <ele>517.8</ele>
        <time>2022-07-20T17:34:06Z</time>
      </trkpt>
      <trkpt lat="47.3202760" lon="6.8318230">
        <ele>517.9</ele>
        <time>2022-07-20T17:34:07Z</time>
      </trkpt>
      <trkpt lat="47.3202790" lon="6.8317970">
        <ele>518.0</ele>
        <time>2022-07-20T17:34:09Z</time>
      </trkpt>
      <trkpt lat="47.3202820" lon="6.8317720">
        <ele>518.1</ele>
        <time>2022-07-20T17:34:10Z</time>
      </trkpt>
      <trkpt lat="47.3202730" lon="6.8317490">
        <ele>518.2</ele>
        <time>2022-07-20T17:34:11Z</time>
      </trkpt>
      <trkpt lat="47.3202650" lon="6.8317370">
        <ele>518.3</ele>
        <time>2022-07-20T17:34:12Z</time>
      </trkpt>
      <trkpt lat="47.3202590" lon="6.8317270">
        <ele>518.4</ele>
        <time>2022-07-20T17:34:13Z</time>
      </trkpt>
      <trkpt lat="47.3202500" lon="6.8317010">
        <ele>518.5</ele>
        <time>2022-07-20T17:34:15Z</time>
      </trkpt>
      <trkpt lat="47.3202410" lon="6.8316860">
        <ele>518.6</ele>
        <time>2022-07-20T17:34:16Z</time>
      </trkpt>
      <trkpt lat="47.3202480" lon="6.8316790">
        <ele>518.7</ele>
        <time>2022-07-20T17:34:17Z</time>
      </trkpt>
      <trkpt lat="47.3202730" lon="6.8316630">
        <ele>518.9</ele>
        <time>2022-07-20T17:34:18Z</time>
      </trkpt>
      <trkpt lat="47.3203140" lon="6.8316330">
        <ele>519.2</ele>
        <time>2022-07-20T17:34:19Z</time>
      </trkpt>
      <trkpt lat="47.3203340" lon="6.8315990">
        <ele>519.5</ele>
        <time>2022-07-20T17:34:20Z</time>
      </trkpt>
      <trkpt lat="47.3203360" lon="6.8315870">
        <ele>519.5</ele>
        <time>2022-07-20T17:34:21Z</time>
      </trkpt>
      <trkpt lat="47.3203380" lon="6.8315430">
        <ele>519.8</ele>
        <time>2022-07-20T17:34:22Z</time>
      </trkpt>
      <trkpt lat="47.3203380" lon="6.8315300">
        <ele>519.8</ele>
        <time>2022-07-20T17:34:23Z</time>
      </trkpt>
      <trkpt lat="47.3203360" lon="6.8314890">
        <ele>520.0</ele>
        <time>2022-07-20T17:34:24Z</time>
      </trkpt>
      <trkpt lat="47.3203380" lon="6.8314430">
        <ele>520.3</ele>
        <time>2022-07-20T17:34:26Z</time>
      </trkpt>
      <trkpt lat="47.3203390" lon="6.8314290">
        <ele>520.3</ele>
        <time>2022-07-20T17:34:27Z</time>
      </trkpt>
      <trkpt lat="47.3203230" lon="6.8313770">
        <ele>520.6</ele>
        <time>2022-07-20T17:34:28Z</time>
      </trkpt>
      <trkpt lat="47.3203180" lon="6.8313610">
        <ele>520.7</ele>
        <time>2022-07-20T17:34:29Z</time>
      </trkpt>
      <trkpt lat="47.3203070" lon="6.8313190">
        <ele>520.9</ele>
        <time>2022-07-20T17:34:31Z</time>
      </trkpt>
      <trkpt lat="47.3203010" lon="6.8312800">
        <ele>521.1</ele>
        <time>2022-07-20T17:34:32Z</time>
      </trkpt>
      <trkpt lat="47.3202950" lon="6.8312290">
        <ele>521.4</ele>
        <time>2022-07-20T17:34:33Z</time>
      </trkpt>
      <trkpt lat="47.3202830" lon="6.8311740">
        <ele>521.7</ele>
        <time>2022-07-20T17:34:35Z</time>
      </trkpt>
      <trkpt lat="47.3202780" lon="6.8311580">
        <ele>521.8</ele>
        <time>2022-07-20T17:34:36Z</time>
      </trkpt>
      <trkpt lat="47.3202610" lon="6.8311030">
        <ele>522.1</ele>
        <time>2022-07-20T17:34:37Z</time>
      </trkpt>
      <trkpt lat="47.3202550" lon="6.8310810">
        <ele>522.2</ele>
        <time>2022-07-20T17:34:38Z</time>
      </trkpt>
      <trkpt lat="47.3202510" lon="6.8310340">
        <ele>522.5</ele>
        <time>2022-07-20T17:34:39Z</time>
      </trkpt>
      <trkpt lat="47.3202490" lon="6.8310140">
        <ele>522.6</ele>
        <time>2022-07-20T17:34:40Z</time>
      </trkpt>
      <trkpt lat="47.3202480" lon="6.8309630">
        <ele>522.8</ele>
        <time>2022-07-20T17:34:42Z</time>
      </trkpt>
      <trkpt lat="47.3202500" lon="6.8309390">
        <ele>522.9</ele>
        <time>2022-07-20T17:34:43Z</time>
      </trkpt>
      <trkpt lat="47.3202500" lon="6.8309160">
        <ele>523.1</ele>
        <time>2022-07-20T17:34:44Z</time>
      </trkpt>
      <trkpt lat="47.3202470" lon="6.8308670">
        <ele>523.3</ele>
        <time>2022-07-20T17:34:46Z</time>
      </trkpt>
      <trkpt lat="47.3202470" lon="6.8308540">
        <ele>523.4</ele>
        <time>2022-07-20T17:34:47Z</time>
      </trkpt>
      <trkpt lat="47.3202470" lon="6.8308300">
        <ele>523.5</ele>
        <time>2022-07-20T17:34:48Z</time>
      </trkpt>
      <trkpt lat="47.3202470" lon="6.8308120">
        <ele>523.6</ele>
        <time>2022-07-20T17:34:49Z</time>
      </trkpt>
      <trkpt lat="47.3202580" lon="6.8307550">
        <ele>523.9</ele>
        <time>2022-07-20T17:34:51Z</time>
      </trkpt>
      <trkpt lat="47.3202620" lon="6.8307360">
        <ele>524.0</ele>
        <time>2022-07-20T17:34:52Z</time>
      </trkpt>
      <trkpt lat="47.3202720" lon="6.8306920">
        <ele>524.2</ele>
        <time>2022-07-20T17:34:53Z</time>
      </trkpt>
      <trkpt lat="47.3202770" lon="6.8306770">
        <ele>524.3</ele>
        <time>2022-07-20T17:34:54Z</time>
      </trkpt>
      <trkpt lat="47.3202720" lon="6.8306060">
        <ele>524.7</ele>
        <time>2022-07-20T17:34:56Z</time>
      </trkpt>
      <trkpt lat="47.3202730" lon="6.8305850">
        <ele>524.8</ele>
        <time>2022-07-20T17:34:57Z</time>
      </trkpt>
      <trkpt lat="47.3202740" lon="6.8305630">
        <ele>524.9</ele>
        <time>2022-07-20T17:34:58Z</time>
      </trkpt>
      <trkpt lat="47.3202790" lon="6.8305140">
        <ele>525.1</ele>
        <time>2022-07-20T17:34:59Z</time>
      </trkpt>
      <trkpt lat="47.3202810" lon="6.8304960">
        <ele>525.2</ele>
        <time>2022-07-20T17:35:00Z</time>
      </trkpt>
      <trkpt lat="47.3202810" lon="6.8304700">
        <ele>525.3</ele>
        <time>2022-07-20T17:35:01Z</time>
      </trkpt>
      <trkpt lat="47.3202780" lon="6.8304440">
        <ele>525.5</ele>
        <time>2022-07-20T17:35:02Z</time>
      </trkpt>
      <trkpt lat="47.3202730" lon="6.8304200">
        <ele>525.6</ele>
        <time>2022-07-20T17:35:03Z</time>
      </trkpt>
      <trkpt lat="47.3202670" lon="6.8303880">
        <ele>525.7</ele>
        <time>2022-07-20T17:35:05Z</time>
      </trkpt>
      <trkpt lat="47.3202600" lon="6.8303690">
        <ele>525.8</ele>
        <time>2022-07-20T17:35:06Z</time>
      </trkpt>
      <trkpt lat="47.3202430" lon="6.8303280">
        <ele>526.1</ele>
        <time>2022-07-20T17:35:08Z</time>
      </trkpt>
      <trkpt lat="47.3202200" lon="6.8302860">
        <ele>526.3</ele>
        <time>2022-07-20T17:35:09Z</time>
      </trkpt>
      <trkpt lat="47.3202110" lon="6.8302720">
        <ele>526.4</ele>
        <time>2022-07-20T17:35:10Z</time>
      </trkpt>
      <trkpt lat="47.3201800" lon="6.8302370">
        <ele>526.7</ele>
        <time>2022-07-20T17:35:11Z</time>
      </trkpt>
      <trkpt lat="47.3201690" lon="6.8302260">
        <ele>526.8</ele>
        <time>2022-07-20T17:35:12Z</time>
      </trkpt>
      <trkpt lat="47.3201350" lon="6.8302020">
        <ele>527.0</ele>
        <time>2022-07-20T17:35:14Z</time>
      </trkpt>
      <trkpt lat="47.3201090" lon="6.8301710">
        <ele>527.3</ele>
        <time>2022-07-20T17:35:15Z</time>
      </trkpt>
      <trkpt lat="47.3201020" lon="6.8301580">
        <ele>527.3</ele>
        <time>2022-07-20T17:35:16Z</time>
      </trkpt>
      <trkpt lat="47.3200830" lon="6.8301080">
        <ele>527.6</ele>
        <time>2022-07-20T17:35:18Z</time>
      </trkpt>
      <trkpt lat="47.3200780" lon="6.8300910">
        <ele>527.7</ele>
        <time>2022-07-20T17:35:19Z</time>
      </trkpt>
      <trkpt lat="47.3200690" lon="6.8300510">
        <ele>527.9</ele>
        <time>2022-07-20T17:35:20Z</time>
      </trkpt>
      <trkpt lat="47.3200490" lon="6.8300170">
        <ele>528.2</ele>
        <time>2022-07-20T17:35:21Z</time>
      </trkpt>
      <trkpt lat="47.3200420" lon="6.8300070">
        <ele>528.3</ele>
        <time>2022-07-20T17:35:22Z</time>
      </trkpt>
      <trkpt lat="47.3200240" lon="6.8299740">
        <ele>528.5</ele>
        <time>2022-07-20T17:35:24Z</time>
      </trkpt>
      <trkpt lat="47.3200160" lon="6.8299610">
        <ele>528.6</ele>
        <time>2022-07-20T17:35:25Z</time>
      </trkpt>
      <trkpt lat="47.3199940" lon="6.8299200">
        <ele>528.9</ele>
        <time>2022-07-20T17:35:26Z</time>
      </trkpt>
      <trkpt lat="47.3199880" lon="6.8299080">
        <ele>528.9</ele>
        <time>2022-07-20T17:35:27Z</time>
      </trkpt>
      <trkpt lat="47.3199770" lon="6.8298830">
        <ele>529.1</ele>
        <time>2022-07-20T17:35:28Z</time>
      </trkpt>
      <trkpt lat="47.3199620" lon="6.8298500">
        <ele>529.3</ele>
        <time>2022-07-20T17:35:30Z</time>
      </trkpt>
      <trkpt lat="47.3199480" lon="6.8298060">
        <ele>529.5</ele>
        <time>2022-07-20T17:35:31Z</time>
      </trkpt>
      <trkpt lat="47.3199430" lon="6.8297900">
        <ele>529.6</ele>
        <time>2022-07-20T17:35:32Z</time>
      </trkpt>
      <trkpt lat="47.3199310" lon="6.8297490">
        <ele>529.8</ele>
        <time>2022-07-20T17:35:33Z</time>
      </trkpt>
      <trkpt lat="47.3199250" lon="6.8297360">
        <ele>529.9</ele>
        <time>2022-07-20T17:35:34Z</time>
      </trkpt>
      <trkpt lat="47.3199080" lon="6.8296970">
        <ele>530.1</ele>
        <time>2022-07-20T17:35:35Z</time>
      </trkpt>
      <trkpt lat="47.3199020" lon="6.8296820">
        <ele>530.2</ele>
        <time>2022-07-20T17:35:36Z</time>
      </trkpt>
      <trkpt lat="47.3198830" lon="6.8296470">
        <ele>530.4</ele>
        <time>2022-07-20T17:35:37Z</time>
      </trkpt>
      <trkpt lat="47.3198700" lon="6.8296240">
        <ele>530.5</ele>
        <time>2022-07-20T17:35:38Z</time>
      </trkpt>
      <trkpt lat="47.3198540" lon="6.8296010">
        <ele>530.7</ele>
        <time>2022-07-20T17:35:40Z</time>
      </trkpt>
      <trkpt lat="47.3198320" lon="6.8295770">
        <ele>530.9</ele>
        <time>2022-07-20T17:35:41Z</time>
      </trkpt>
      <trkpt lat="47.3198110" lon="6.8295480">
        <ele>531.1</ele>
        <time>2022-07-20T17:35:43Z</time>
      </trkpt>
      <trkpt lat="47.3197980" lon="6.8295070">
        <ele>531.3</ele>
        <time>2022-07-20T17:35:44Z</time>
      </trkpt>
      <trkpt lat="47.3197940" lon="6.8294930">
        <ele>531.3</ele>
        <time>2022-07-20T17:35:45Z</time>
      </trkpt>
      <trkpt lat="47.3197780" lon="6.8294540">
        <ele>531.6</ele>
        <time>2022-07-20T17:35:46Z</time>
      </trkpt>
      <trkpt lat="47.3197740" lon="6.8294430">
        <ele>531.6</ele>
        <time>2022-07-20T17:35:47Z</time>
      </trkpt>
      <trkpt lat="47.3197560" lon="6.8293970">
        <ele>531.9</ele>
        <time>2022-07-20T17:35:49Z</time>
      </trkpt>
      <trkpt lat="47.3197500" lon="6.8293830">
        <ele>532.0</ele>
        <time>2022-07-20T17:35:50Z</time>
      </trkpt>
      <trkpt lat="47.3197410" lon="6.8293370">
        <ele>532.2</ele>
        <time>2022-07-20T17:35:51Z</time>
      </trkpt>
      <trkpt lat="47.3197400" lon="6.8293230">
        <ele>532.3</ele>
        <time>2022-07-20T17:35:52Z</time>
      </trkpt>
      <trkpt lat="47.3197370" lon="6.8292800">
        <ele>532.5</ele>
        <time>2022-07-20T17:35:53Z</time>
      </trkpt>
      <trkpt lat="47.3197350" lon="6.8292610">
        <ele>532.6</ele>
        <time>2022-07-20T17:35:54Z</time>
      </trkpt>
      <trkpt lat="47.3197260" lon="6.8292150">
        <ele>532.9</ele>
        <time>2022-07-20T17:35:56Z</time>
      </trkpt>
      <trkpt lat="47.3197240" lon="6.8292030">
        <ele>533.0</ele>
        <time>2022-07-20T17:35:57Z</time>
      </trkpt>
      <trkpt lat="47.3197250" lon="6.8291540">
        <ele>533.2</ele>
        <time>2022-07-20T17:35:58Z</time>
      </trkpt>
      <trkpt lat="47.3197240" lon="6.8291390">
        <ele>533.3</ele>
        <time>2022-07-20T17:35:59Z</time>
      </trkpt>
      <trkpt lat="47.3197130" lon="6.8290850">
        <ele>533.6</ele>
        <time>2022-07-20T17:36:01Z</time>
      </trkpt>
      <trkpt lat="47.3197090" lon="6.8290660">
        <ele>533.7</ele>
        <time>2022-07-20T17:36:02Z</time>
      </trkpt>
      <trkpt lat="47.3197030" lon="6.8290400">
        <ele>533.8</ele>
        <time>2022-07-20T17:36:03Z</time>
      </trkpt>
      <trkpt lat="47.3197020" lon="6.8290170">
        <ele>533.9</ele>
        <time>2022-07-20T17:36:04Z</time>
      </trkpt>
      <trkpt lat="47.3196920" lon="6.8289790">
        <ele>534.2</ele>
        <time>2022-07-20T17:36:05Z</time>
      </trkpt>
      <trkpt lat="47.3196860" lon="6.8289640">
        <ele>534.2</ele>
        <time>2022-07-20T17:36:06Z</time>
      </trkpt>
      <trkpt lat="47.3196680" lon="6.8289240">
        <ele>534.5</ele>
        <time>2022-07-20T17:36:08Z</time>
      </trkpt>
      <trkpt lat="47.3196640" lon="6.8289150">
        <ele>534.5</ele>
        <time>2022-07-20T17:36:09Z</time>
      </trkpt>
      <trkpt lat="47.3196620" lon="6.8289050">
        <ele>534.6</ele>
        <time>2022-07-20T17:36:10Z</time>
      </trkpt>
      <trkpt lat="47.3196600" lon="6.8288950">
        <ele>534.7</ele>
        <time>2022-07-20T17:36:11Z</time>
      </trkpt>
      <trkpt lat="47.3196560" lon="6.8288880">
        <ele>534.7</ele>
        <time>2022-07-20T17:36:12Z</time>
      </trkpt>
      <trkpt lat="47.3196520" lon="6.8288800">
        <ele>534.8</ele>
        <time>2022-07-20T17:36:13Z</time>
      </trkpt>
      <trkpt lat="47.3196480" lon="6.8288730">
        <ele>534.8</ele>
        <time>2022-07-20T17:36:14Z</time>
      </trkpt>
      <trkpt lat="47.3196440" lon="6.8288630">
        <ele>534.9</ele>
        <time>2022-07-20T17:36:15Z</time>
      </trkpt>
      <trkpt lat="47.3196400" lon="6.8288510">
        <ele>534.9</ele>
        <time>2022-07-20T17:36:16Z</time>
      </trkpt>
      <trkpt lat="47.3196350" lon="6.8288350">
        <ele>535.0</ele>
        <time>2022-07-20T17:36:17Z</time>
      </trkpt>
      <trkpt lat="47.3196270" lon="6.8288080">
        <ele>535.2</ele>
        <time>2022-07-20T17:36:18Z</time>
      </trkpt>
      <trkpt lat="47.3196240" lon="6.8287950">
        <ele>535.2</ele>
        <time>2022-07-20T17:36:19Z</time>
      </trkpt>
      <trkpt lat="47.3196210" lon="6.8287830">
        <ele>535.3</ele>
        <time>2022-07-20T17:36:20Z</time>
      </trkpt>
      <trkpt lat="47.3196000" lon="6.8287380">
        <ele>535.6</ele>
        <time>2022-07-20T17:36:22Z</time>
      </trkpt>
      <trkpt lat="47.3195920" lon="6.8287230">
        <ele>535.7</ele>
        <time>2022-07-20T17:36:23Z</time>
      </trkpt>
      <trkpt lat="47.3195750" lon="6.8286770">
        <ele>536.0</ele>
        <time>2022-07-20T17:36:24Z</time>
      </trkpt>
      <trkpt lat="47.3195710" lon="6.8286600">
        <ele>536.1</ele>
        <time>2022-07-20T17:36:25Z</time>
      </trkpt>
      <trkpt lat="47.3195560" lon="6.8286080">
        <ele>536.4</ele>
        <time>2022-07-20T17:36:26Z</time>
      </trkpt>
      <trkpt lat="47.3195500" lon="6.8285850">
        <ele>536.5</ele>
        <time>2022-07-20T17:36:27Z</time>
      </trkpt>
      <trkpt lat="47.3195450" lon="6.8285480">
        <ele>536.7</ele>
        <time>2022-07-20T17:36:28Z</time>
      </trkpt>
      <trkpt lat="47.3195440" lon="6.8285120">
        <ele>536.9</ele>
        <time>2022-07-20T17:36:30Z</time>
      </trkpt>
      <trkpt lat="47.3195460" lon="6.8284560">
        <ele>537.2</ele>
        <time>2022-07-20T17:36:31Z</time>
      </trkpt>
      <trkpt lat="47.3195450" lon="6.8284370">
        <ele>537.3</ele>
        <time>2022-07-20T17:36:32Z</time>
      </trkpt>
      <trkpt lat="47.3195410" lon="6.8284130">
        <ele>537.5</ele>
        <time>2022-07-20T17:36:33Z</time>
      </trkpt>
      <trkpt lat="47.3195370" lon="6.8283950">
        <ele>537.6</ele>
        <time>2022-07-20T17:36:34Z</time>
      </trkpt>
      <trkpt lat="47.3195320" lon="6.8283730">
        <ele>537.7</ele>
        <time>2022-07-20T17:36:35Z</time>
      </trkpt>
      <trkpt lat="47.3195280" lon="6.8283570">
        <ele>537.8</ele>
        <time>2022-07-20T17:36:36Z</time>
      </trkpt>
      <trkpt lat="47.3195240" lon="6.8283390">
        <ele>537.9</ele>
        <time>2022-07-20T17:36:37Z</time>
      </trkpt>
      <trkpt lat="47.3195210" lon="6.8283220">
        <ele>538.0</ele>
        <time>2022-07-20T17:36:38Z</time>
      </trkpt>
      <trkpt lat="47.3195170" lon="6.8283070">
        <ele>538.1</ele>
        <time>2022-07-20T17:36:39Z</time>
      </trkpt>
      <trkpt lat="47.3195130" lon="6.8282930">
        <ele>538.1</ele>
        <time>2022-07-20T17:36:40Z</time>
      </trkpt>
      <trkpt lat="47.3195000" lon="6.8282720">
        <ele>538.3</ele>
        <time>2022-07-20T17:36:41Z</time>
      </trkpt>
      <trkpt lat="47.3194850" lon="6.8282580">
        <ele>538.4</ele>
        <time>2022-07-20T17:36:42Z</time>
      </trkpt>
      <trkpt lat="47.3194730" lon="6.8282450">
        <ele>538.6</ele>
        <time>2022-07-20T17:36:43Z</time>
      </trkpt>
      <trkpt lat="47.3194610" lon="6.8282270">
        <ele>538.7</ele>
        <time>2022-07-20T17:36:44Z</time>
      </trkpt>
      <trkpt lat="47.3194450" lon="6.8282000">
        <ele>538.9</ele>
        <time>2022-07-20T17:36:46Z</time>
      </trkpt>
      <trkpt lat="47.3194290" lon="6.8281680">
        <ele>539.1</ele>
        <time>2022-07-20T17:36:47Z</time>
      </trkpt>
      <trkpt lat="47.3194110" lon="6.8281330">
        <ele>539.3</ele>
        <time>2022-07-20T17:36:48Z</time>
      </trkpt>
      <trkpt lat="47.3194060" lon="6.8281250">
        <ele>539.4</ele>
        <time>2022-07-20T17:36:49Z</time>
      </trkpt>
      <trkpt lat="47.3193990" lon="6.8281130">
        <ele>539.5</ele>
        <time>2022-07-20T17:36:50Z</time>
      </trkpt>
      <trkpt lat="47.3193970" lon="6.8281080">
        <ele>539.5</ele>
        <time>2022-07-20T17:36:51Z</time>
      </trkpt>
      <trkpt lat="47.3193900" lon="6.8280990">
        <ele>539.6</ele>
        <time>2022-07-20T17:36:52Z</time>
      </trkpt>
      <trkpt lat="47.3193820" lon="6.8280870">
        <ele>539.7</ele>
        <time>2022-07-20T17:36:53Z</time>
      </trkpt>
      <trkpt lat="47.3193670" lon="6.8280660">
        <ele>539.8</ele>
        <time>2022-07-20T17:36:54Z</time>
      </trkpt>
      <trkpt lat="47.3193600" lon="6.8280570">
        <ele>539.9</ele>
        <time>2022-07-20T17:36:55Z</time>
      </trkpt>
      <trkpt lat="47.3193530" lon="6.8280490">
        <ele>540.0</ele>
        <time>2022-07-20T17:36:56Z</time>
      </trkpt>
      <trkpt lat="47.3193290" lon="6.8280140">
        <ele>540.2</ele>
        <time>2022-07-20T17:36:58Z</time>
      </trkpt>
      <trkpt lat="47.3193220" lon="6.8280030">
        <ele>540.3</ele>
        <time>2022-07-20T17:36:59Z</time>
      </trkpt>
      <trkpt lat="47.3193100" lon="6.8279890">
        <ele>540.4</ele>
        <time>2022-07-20T17:37:00Z</time>
      </trkpt>
      <trkpt lat="47.3192990" lon="6.8279720">
        <ele>540.5</ele>
        <time>2022-07-20T17:37:01Z</time>
      </trkpt>
      <trkpt lat="47.3192930" lon="6.8279550">
        <ele>540.6</ele>
        <time>2022-07-20T17:37:02Z</time>
      </trkpt>
      <trkpt lat="47.3192840" lon="6.8279380">
        <ele>540.7</ele>
        <time>2022-07-20T17:37:04Z</time>
      </trkpt>
      <trkpt lat="47.3192740" lon="6.8279080">
        <ele>540.9</ele>
        <time>2022-07-20T17:37:05Z</time>
      </trkpt>
      <trkpt lat="47.3192650" lon="6.8278930">
        <ele>541.0</ele>
        <time>2022-07-20T17:37:06Z</time>
      </trkpt>
      <trkpt lat="47.3192520" lon="6.8278720">
        <ele>541.1</ele>
        <time>2022-07-20T17:37:07Z</time>
      </trkpt>
      <trkpt lat="47.3192360" lon="6.8278460">
        <ele>541.3</ele>
        <time>2022-07-20T17:37:09Z</time>
      </trkpt>
      <trkpt lat="47.3192190" lon="6.8278100">
        <ele>541.5</ele>
        <time>2022-07-20T17:37:10Z</time>
      </trkpt>
      <trkpt lat="47.3192150" lon="6.8278010">
        <ele>541.6</ele>
        <time>2022-07-20T17:37:11Z</time>
      </trkpt>
      <trkpt lat="47.3192110" lon="6.8277670">
        <ele>541.8</ele>
        <time>2022-07-20T17:37:12Z</time>
      </trkpt>
      <trkpt lat="47.3192030" lon="6.8277380">
        <ele>541.9</ele>
        <time>2022-07-20T17:37:14Z</time>
      </trkpt>
      <trkpt lat="47.3191830" lon="6.8277060">
        <ele>542.1</ele>
        <time>2022-07-20T17:37:15Z</time>
      </trkpt>
      <trkpt lat="47.3191760" lon="6.8276940">
        <ele>542.2</ele>
        <time>2022-07-20T17:37:16Z</time>
      </trkpt>
      <trkpt lat="47.3191480" lon="6.8276630">
        <ele>542.5</ele>
        <time>2022-07-20T17:37:17Z</time>
      </trkpt>
      <trkpt lat="47.3191410" lon="6.8276540">
        <ele>542.5</ele>
        <time>2022-07-20T17:37:18Z</time>
      </trkpt>
      <trkpt lat="47.3191270" lon="6.8276350">
        <ele>542.7</ele>
        <time>2022-07-20T17:37:20Z</time>
      </trkpt>
      <trkpt lat="47.3191160" lon="6.8276180">
        <ele>542.8</ele>
        <time>2022-07-20T17:37:21Z</time>
      </trkpt>
      <trkpt lat="47.3191010" lon="6.8275910">
        <ele>543.0</ele>
        <time>2022-07-20T17:37:22Z</time>
      </trkpt>
      <trkpt lat="47.3190850" lon="6.8275530">
        <ele>543.2</ele>
        <time>2022-07-20T17:37:24Z</time>
      </trkpt>
      <trkpt lat="47.3190670" lon="6.8275070">
        <ele>543.5</ele>
        <time>2022-07-20T17:37:25Z</time>
      </trkpt>
      <trkpt lat="47.3190620" lon="6.8274890">
        <ele>543.6</ele>
        <time>2022-07-20T17:37:26Z</time>
      </trkpt>
      <trkpt lat="47.3190540" lon="6.8274470">
        <ele>543.8</ele>
        <time>2022-07-20T17:37:27Z</time>
      </trkpt>
      <trkpt lat="47.3190520" lon="6.8274220">
        <ele>543.9</ele>
        <time>2022-07-20T17:37:28Z</time>
      </trkpt>
      <trkpt lat="47.3190420" lon="6.8273770">
        <ele>544.2</ele>
        <time>2022-07-20T17:37:29Z</time>
      </trkpt>
      <trkpt lat="47.3190370" lon="6.8273620">
        <ele>544.3</ele>
        <time>2022-07-20T17:37:30Z</time>
      </trkpt>
      <trkpt lat="47.3190150" lon="6.8273360">
        <ele>544.5</ele>
        <time>2022-07-20T17:37:32Z</time>
      </trkpt>
      <trkpt lat="47.3190080" lon="6.8273270">
        <ele>544.6</ele>
        <time>2022-07-20T17:37:33Z</time>
      </trkpt>
      <trkpt lat="47.3189970" lon="6.8273150">
        <ele>544.7</ele>
        <time>2022-07-20T17:37:34Z</time>
      </trkpt>
      <trkpt lat="47.3189850" lon="6.8273020">
        <ele>544.8</ele>
        <time>2022-07-20T17:37:35Z</time>
      </trkpt>
      <trkpt lat="47.3189660" lon="6.8272710">
        <ele>545.0</ele>
        <time>2022-07-20T17:37:36Z</time>
      </trkpt>
      <trkpt lat="47.3189590" lon="6.8272590">
        <ele>545.1</ele>
        <time>2022-07-20T17:37:37Z</time>
      </trkpt>
      <trkpt lat="47.3189320" lon="6.8272310">
        <ele>545.4</ele>
        <time>2022-07-20T17:37:39Z</time>
      </trkpt>
      <trkpt lat="47.3189250" lon="6.8272250">
        <ele>545.5</ele>
        <time>2022-07-20T17:37:40Z</time>
      </trkpt>
      <trkpt lat="47.3189080" lon="6.8272180">
        <ele>545.6</ele>
        <time>2022-07-20T17:37:41Z</time>
      </trkpt>
      <trkpt lat="47.3189010" lon="6.8272140">
        <ele>545.7</ele>
        <time>2022-07-20T17:37:42Z</time>
      </trkpt>
      <trkpt lat="47.3188940" lon="6.8272020">
        <ele>545.8</ele>
        <time>2022-07-20T17:37:43Z</time>
      </trkpt>
      <trkpt lat="47.3188830" lon="6.8271860">
        <ele>545.9</ele>
        <time>2022-07-20T17:37:44Z</time>
      </trkpt>
      <trkpt lat="47.3188690" lon="6.8271680">
        <ele>546.0</ele>
        <time>2022-07-20T17:37:46Z</time>
      </trkpt>
      <trkpt lat="47.3188590" lon="6.8271570">
        <ele>546.2</ele>
        <time>2022-07-20T17:37:47Z</time>
      </trkpt>
      <trkpt lat="47.3188480" lon="6.8271410">
        <ele>546.3</ele>
        <time>2022-07-20T17:37:48Z</time>
      </trkpt>
      <trkpt lat="47.3188140" lon="6.8271010">
        <ele>546.7</ele>
        <time>2022-07-20T17:37:50Z</time>
      </trkpt>
      <trkpt lat="47.3188050" lon="6.8270870">
        <ele>546.8</ele>
        <time>2022-07-20T17:37:51Z</time>
      </trkpt>
      <trkpt lat="47.3187960" lon="6.8270740">
        <ele>546.9</ele>
        <time>2022-07-20T17:37:52Z</time>
      </trkpt>
      <trkpt lat="47.3187780" lon="6.8270500">
        <ele>547.1</ele>
        <time>2022-07-20T17:37:53Z</time>
      </trkpt>
      <trkpt lat="47.3187720" lon="6.8270420">
        <ele>547.1</ele>
        <time>2022-07-20T17:37:54Z</time>
      </trkpt>
      <trkpt lat="47.3187650" lon="6.8270340">
        <ele>547.2</ele>
        <time>2022-07-20T17:37:55Z</time>
      </trkpt>
      <trkpt lat="47.3187530" lon="6.8270190">
        <ele>547.4</ele>
        <time>2022-07-20T17:37:56Z</time>
      </trkpt>
      <trkpt lat="47.3187460" lon="6.8270050">
        <ele>547.5</ele>
        <time>2022-07-20T17:37:57Z</time>
      </trkpt>
      <trkpt lat="47.3187370" lon="6.8269920">
        <ele>547.6</ele>
        <time>2022-07-20T17:37:58Z</time>
      </trkpt>
      <trkpt lat="47.3187280" lon="6.8269690">
        <ele>547.7</ele>
        <time>2022-07-20T17:37:59Z</time>
      </trkpt>
      <trkpt lat="47.3187150" lon="6.8269400">
        <ele>547.9</ele>
        <time>2022-07-20T17:38:00Z</time>
      </trkpt>
      <trkpt lat="47.3187100" lon="6.8269290">
        <ele>548.0</ele>
        <time>2022-07-20T17:38:01Z</time>
      </trkpt>
      <trkpt lat="47.3187050" lon="6.8269170">
        <ele>548.1</ele>
        <time>2022-07-20T17:38:02Z</time>
      </trkpt>
      <trkpt lat="47.3186980" lon="6.8268990">
        <ele>548.2</ele>
        <time>2022-07-20T17:38:03Z</time>
      </trkpt>
      <trkpt lat="47.3186910" lon="6.8268820">
        <ele>548.3</ele>
        <time>2022-07-20T17:38:04Z</time>
      </trkpt>
      <trkpt lat="47.3186700" lon="6.8268440">
        <ele>548.6</ele>
        <time>2022-07-20T17:38:06Z</time>
      </trkpt>
      <trkpt lat="47.3186620" lon="6.8268360">
        <ele>548.7</ele>
        <time>2022-07-20T17:38:07Z</time>
      </trkpt>
      <trkpt lat="47.3186490" lon="6.8268210">
        <ele>548.8</ele>
        <time>2022-07-20T17:38:08Z</time>
      </trkpt>
      <trkpt lat="47.3186400" lon="6.8268070">
        <ele>548.9</ele>
        <time>2022-07-20T17:38:09Z</time>
      </trkpt>
      <trkpt lat="47.3186350" lon="6.8267890">
        <ele>549.0</ele>
        <time>2022-07-20T17:38:10Z</time>
      </trkpt>
      <trkpt lat="47.3186310" lon="6.8267630">
        <ele>549.2</ele>
        <time>2022-07-20T17:38:11Z</time>
      </trkpt>
      <trkpt lat="47.3186160" lon="6.8267350">
        <ele>549.3</ele>
        <time>2022-07-20T17:38:12Z</time>
      </trkpt>
      <trkpt lat="47.3186110" lon="6.8267230">
        <ele>549.4</ele>
        <time>2022-07-20T17:38:14Z</time>
      </trkpt>
      <trkpt lat="47.3186060" lon="6.8267110">
        <ele>549.5</ele>
        <time>2022-07-20T17:38:15Z</time>
      </trkpt>
      <trkpt lat="47.3186000" lon="6.8266900">
        <ele>549.6</ele>
        <time>2022-07-20T17:38:16Z</time>
      </trkpt>
      <trkpt lat="47.3185900" lon="6.8266730">
        <ele>549.7</ele>
        <time>2022-07-20T17:38:17Z</time>
      </trkpt>
      <trkpt lat="47.3185800" lon="6.8266570">
        <ele>549.9</ele>
        <time>2022-07-20T17:38:18Z</time>
      </trkpt>
      <trkpt lat="47.3185710" lon="6.8266420">
        <ele>550.0</ele>
        <time>2022-07-20T17:38:19Z</time>
      </trkpt>
      <trkpt lat="47.3185640" lon="6.8266130">
        <ele>550.1</ele>
        <time>2022-07-20T17:38:20Z</time>
      </trkpt>
      <trkpt lat="47.3185620" lon="6.8265980">
        <ele>550.2</ele>
        <time>2022-07-20T17:38:21Z</time>
      </trkpt>
      <trkpt lat="47.3185600" lon="6.8265830">
        <ele>550.3</ele>
        <time>2022-07-20T17:38:22Z</time>
      </trkpt>
      <trkpt lat="47.3185540" lon="6.8265640">
        <ele>550.4</ele>
        <time>2022-07-20T17:38:23Z</time>
      </trkpt>
      <trkpt lat="47.3185490" lon="6.8265480">
        <ele>550.5</ele>
        <time>2022-07-20T17:38:24Z</time>
      </trkpt>
      <trkpt lat="47.3185460" lon="6.8265390">
        <ele>550.6</ele>
        <time>2022-07-20T17:38:25Z</time>
      </trkpt>
      <trkpt lat="47.3185420" lon="6.8265270">
        <ele>550.6</ele>
        <time>2022-07-20T17:38:26Z</time>
      </trkpt>
      <trkpt lat="47.3185360" lon="6.8265070">
        <ele>550.7</ele>
        <time>2022-07-20T17:38:28Z</time>
      </trkpt>
      <trkpt lat="47.3185280" lon="6.8264930">
        <ele>550.8</ele>
        <time>2022-07-20T17:38:29Z</time>
      </trkpt>
      <trkpt lat="47.3185140" lon="6.8264630">
        <ele>551.0</ele>
        <time>2022-07-20T17:38:30Z</time>
      </trkpt>
      <trkpt lat="47.3185060" lon="6.8264480">
        <ele>551.1</ele>
        <time>2022-07-20T17:38:31Z</time>
      </trkpt>
      <trkpt lat="47.3184870" lon="6.8264160">
        <ele>551.4</ele>
        <time>2022-07-20T17:38:33Z</time>
      </trkpt>
      <trkpt lat="47.3184780" lon="6.8264030">
        <ele>551.5</ele>
        <time>2022-07-20T17:38:34Z</time>
      </trkpt>
      <trkpt lat="47.3184550" lon="6.8263740">
        <ele>551.7</ele>
        <time>2022-07-20T17:38:35Z</time>
      </trkpt>
      <trkpt lat="47.3184490" lon="6.8263670">
        <ele>551.8</ele>
        <time>2022-07-20T17:38:36Z</time>
      </trkpt>
      <trkpt lat="47.3184230" lon="6.8263430">
        <ele>552.0</ele>
        <time>2022-07-20T17:38:37Z</time>
      </trkpt>
      <trkpt lat="47.3184170" lon="6.8263380">
        <ele>552.1</ele>
        <time>2022-07-20T17:38:38Z</time>
      </trkpt>
      <trkpt lat="47.3183940" lon="6.8263090">
        <ele>552.3</ele>
        <time>2022-07-20T17:38:40Z</time>
      </trkpt>
      <trkpt lat="47.3183890" lon="6.8263000">
        <ele>552.3</ele>
        <time>2022-07-20T17:38:41Z</time>
      </trkpt>
      <trkpt lat="47.3183780" lon="6.8262830">
        <ele>552.5</ele>
        <time>2022-07-20T17:38:42Z</time>
      </trkpt>
      <trkpt lat="47.3183680" lon="6.8262680">
        <ele>552.6</ele>
        <time>2022-07-20T17:38:43Z</time>
      </trkpt>
      <trkpt lat="47.3183340" lon="6.8262130">
        <ele>553.0</ele>
        <time>2022-07-20T17:38:45Z</time>
      </trkpt>
      <trkpt lat="47.3183200" lon="6.8261890">
        <ele>553.1</ele>
        <time>2022-07-20T17:38:46Z</time>
      </trkpt>
      <trkpt lat="47.3183070" lon="6.8261650">
        <ele>553.3</ele>
        <time>2022-07-20T17:38:47Z</time>
      </trkpt>
      <trkpt lat="47.3182880" lon="6.8261190">
        <ele>553.6</ele>
        <time>2022-07-20T17:38:49Z</time>
      </trkpt>
      <trkpt lat="47.3182810" lon="6.8261020">
        <ele>553.7</ele>
        <time>2022-07-20T17:38:50Z</time>
      </trkpt>
      <trkpt lat="47.3182730" lon="6.8260830">
        <ele>553.8</ele>
        <time>2022-07-20T17:38:51Z</time>
      </trkpt>
      <trkpt lat="47.3182640" lon="6.8260610">
        <ele>553.9</ele>
        <time>2022-07-20T17:38:52Z</time>
      </trkpt>
      <trkpt lat="47.3182550" lon="6.8260430">
        <ele>554.0</ele>
        <time>2022-07-20T17:38:53Z</time>
      </trkpt>
      <trkpt lat="47.3182370" lon="6.8260100">
        <ele>554.3</ele>
        <time>2022-07-20T17:38:55Z</time>
      </trkpt>
      <trkpt lat="47.3182220" lon="6.8259880">
        <ele>554.4</ele>
        <time>2022-07-20T17:38:56Z</time>
      </trkpt>
      <trkpt lat="47.3182130" lon="6.8259740">
        <ele>554.6</ele>
        <time>2022-07-20T17:38:57Z</time>
      </trkpt>
      <trkpt lat="47.3182030" lon="6.8259510">
        <ele>554.7</ele>
        <time>2022-07-20T17:38:58Z</time>
      </trkpt>
      <trkpt lat="47.3181860" lon="6.8259300">
        <ele>554.9</ele>
        <time>2022-07-20T17:39:00Z</time>
      </trkpt>
      <trkpt lat="47.3181760" lon="6.8259200">
        <ele>555.0</ele>
        <time>2022-07-20T17:39:01Z</time>
      </trkpt>
      <trkpt lat="47.3181610" lon="6.8259080">
        <ele>555.1</ele>
        <time>2022-07-20T17:39:02Z</time>
      </trkpt>
      <trkpt lat="47.3181480" lon="6.8259000">
        <ele>555.2</ele>
        <time>2022-07-20T17:39:03Z</time>
      </trkpt>
      <trkpt lat="47.3181300" lon="6.8258860">
        <ele>555.4</ele>
        <time>2022-07-20T17:39:04Z</time>
      </trkpt>
      <trkpt lat="47.3181200" lon="6.8258790">
        <ele>555.5</ele>
        <time>2022-07-20T17:39:05Z</time>
      </trkpt>
      <trkpt lat="47.3181030" lon="6.8258690">
        <ele>555.7</ele>
        <time>2022-07-20T17:39:06Z</time>
      </trkpt>
      <trkpt lat="47.3180750" lon="6.8258500">
        <ele>555.9</ele>
        <time>2022-07-20T17:39:07Z</time>
      </trkpt>
      <trkpt lat="47.3180690" lon="6.8258470">
        <ele>556.0</ele>
        <time>2022-07-20T17:39:08Z</time>
      </trkpt>
      <trkpt lat="47.3180500" lon="6.8258380">
        <ele>556.2</ele>
        <time>2022-07-20T17:39:09Z</time>
      </trkpt>
      <trkpt lat="47.3180420" lon="6.8258350">
        <ele>556.2</ele>
        <time>2022-07-20T17:39:10Z</time>
      </trkpt>
      <trkpt lat="47.3180330" lon="6.8258310">
        <ele>556.3</ele>
        <time>2022-07-20T17:39:11Z</time>
      </trkpt>
      <trkpt lat="47.3180250" lon="6.8258260">
        <ele>556.4</ele>
        <time>2022-07-20T17:39:13Z</time>
      </trkpt>
      <trkpt lat="47.3180230" lon="6.8258230">
        <ele>556.4</ele>
        <time>2022-07-20T17:39:14Z</time>
      </trkpt>
      <trkpt lat="47.3180170" lon="6.8258160">
        <ele>556.5</ele>
        <time>2022-07-20T17:39:15Z</time>
      </trkpt>
      <trkpt lat="47.3180120" lon="6.8258120">
        <ele>556.6</ele>
        <time>2022-07-20T17:39:17Z</time>
      </trkpt>
      <trkpt lat="47.3180110" lon="6.8258050">
        <ele>556.6</ele>
        <time>2022-07-20T17:39:18Z</time>
      </trkpt>
      <trkpt lat="47.3180010" lon="6.8257910">
        <ele>556.7</ele>
        <time>2022-07-20T17:39:19Z</time>
      </trkpt>
      <trkpt lat="47.3179950" lon="6.8257830">
        <ele>556.8</ele>
        <time>2022-07-20T17:39:20Z</time>
      </trkpt>
      <trkpt lat="47.3179890" lon="6.8257740">
        <ele>556.9</ele>
        <time>2022-07-20T17:39:22Z</time>
      </trkpt>
      <trkpt lat="47.3179830" lon="6.8257660">
        <ele>556.9</ele>
        <time>2022-07-20T17:39:23Z</time>
      </trkpt>
      <trkpt lat="47.3179660" lon="6.8257430">
        <ele>557.1</ele>
        <time>2022-07-20T17:39:24Z</time>
      </trkpt>
      <trkpt lat="47.3179580" lon="6.8257300">
        <ele>557.3</ele>
        <time>2022-07-20T17:39:25Z</time>
      </trkpt>
      <trkpt lat="47.3179510" lon="6.8257180">
        <ele>557.4</ele>
        <time>2022-07-20T17:39:26Z</time>
      </trkpt>
      <trkpt lat="47.3179290" lon="6.8256860">
        <ele>557.6</ele>
        <time>2022-07-20T17:39:28Z</time>
      </trkpt>
      <trkpt lat="47.3179210" lon="6.8256740">
        <ele>557.7</ele>
        <time>2022-07-20T17:39:29Z</time>
      </trkpt>
      <trkpt lat="47.3179020" lon="6.8256390">
        <ele>558.0</ele>
        <time>2022-07-20T17:39:30Z</time>
      </trkpt>
      <trkpt lat="47.3178960" lon="6.8256270">
        <ele>558.1</ele>
        <time>2022-07-20T17:39:31Z</time>
      </trkpt>
      <trkpt lat="47.3178710" lon="6.8255760">
        <ele>558.5</ele>
        <time>2022-07-20T17:39:33Z</time>
      </trkpt>
      <trkpt lat="47.3178640" lon="6.8255590">
        <ele>558.6</ele>
        <time>2022-07-20T17:39:34Z</time>
      </trkpt>
      <trkpt lat="47.3178570" lon="6.8255420">
        <ele>558.7</ele>
        <time>2022-07-20T17:39:35Z</time>
      </trkpt>
      <trkpt lat="47.3178460" lon="6.8255200">
        <ele>558.9</ele>
        <time>2022-07-20T17:39:36Z</time>
      </trkpt>
      <trkpt lat="47.3178340" lon="6.8255060">
        <ele>559.0</ele>
        <time>2022-07-20T17:39:37Z</time>
      </trkpt>
      <trkpt lat="47.3178150" lon="6.8254900">
        <ele>559.2</ele>
        <time>2022-07-20T17:39:39Z</time>
      </trkpt>
      <trkpt lat="47.3178040" lon="6.8254810">
        <ele>559.3</ele>
        <time>2022-07-20T17:39:40Z</time>
      </trkpt>
      <trkpt lat="47.3177880" lon="6.8254620">
        <ele>559.5</ele>
        <time>2022-07-20T17:39:41Z</time>
      </trkpt>
      <trkpt lat="47.3177800" lon="6.8254540">
        <ele>559.6</ele>
        <time>2022-07-20T17:39:42Z</time>
      </trkpt>
      <trkpt lat="47.3177730" lon="6.8254450">
        <ele>559.7</ele>
        <time>2022-07-20T17:39:43Z</time>
      </trkpt>
      <trkpt lat="47.3177500" lon="6.8254190">
        <ele>559.9</ele>
        <time>2022-07-20T17:39:45Z</time>
      </trkpt>
      <trkpt lat="47.3177400" lon="6.8254080">
        <ele>560.0</ele>
        <time>2022-07-20T17:39:46Z</time>
      </trkpt>
      <trkpt lat="47.3177280" lon="6.8254000">
        <ele>560.2</ele>
        <time>2022-07-20T17:39:47Z</time>
      </trkpt>
      <trkpt lat="47.3177150" lon="6.8253850">
        <ele>560.3</ele>
        <time>2022-07-20T17:39:48Z</time>
      </trkpt>
      <trkpt lat="47.3176930" lon="6.8253560">
        <ele>560.5</ele>
        <time>2022-07-20T17:39:50Z</time>
      </trkpt>
      <trkpt lat="47.3176880" lon="6.8253480">
        <ele>560.6</ele>
        <time>2022-07-20T17:39:51Z</time>
      </trkpt>
      <trkpt lat="47.3176800" lon="6.8253300">
        <ele>560.7</ele>
        <time>2022-07-20T17:39:52Z</time>
      </trkpt>
      <trkpt lat="47.3176700" lon="6.8253180">
        <ele>560.8</ele>
        <time>2022-07-20T17:39:53Z</time>
      </trkpt>
      <trkpt lat="47.3176420" lon="6.8252780">
        <ele>561.1</ele>
        <time>2022-07-20T17:39:55Z</time>
      </trkpt>
      <trkpt lat="47.3176290" lon="6.8252680">
        <ele>561.2</ele>
        <time>2022-07-20T17:39:56Z</time>
      </trkpt>
      <trkpt lat="47.3176110" lon="6.8252490">
        <ele>561.4</ele>
        <time>2022-07-20T17:39:58Z</time>
      </trkpt>
      <trkpt lat="47.3175900" lon="6.8252210">
        <ele>561.6</ele>
        <time>2022-07-20T17:39:59Z</time>
      </trkpt>
      <trkpt lat="47.3175830" lon="6.8252120">
        <ele>561.7</ele>
        <time>2022-07-20T17:40:00Z</time>
      </trkpt>
      <trkpt lat="47.3175690" lon="6.8251950">
        <ele>561.9</ele>
        <time>2022-07-20T17:40:01Z</time>
      </trkpt>
      <trkpt lat="47.3175550" lon="6.8251790">
        <ele>562.0</ele>
        <time>2022-07-20T17:40:02Z</time>
      </trkpt>
      <trkpt lat="47.3175380" lon="6.8251620">
        <ele>562.1</ele>
        <time>2022-07-20T17:40:03Z</time>
      </trkpt>
      <trkpt lat="47.3175310" lon="6.8251550">
        <ele>562.2</ele>
        <time>2022-07-20T17:40:05Z</time>
      </trkpt>
      <trkpt lat="47.3175240" lon="6.8251470">
        <ele>562.3</ele>
        <time>2022-07-20T17:40:06Z</time>
      </trkpt>
      <trkpt lat="47.3175140" lon="6.8251380">
        <ele>562.4</ele>
        <time>2022-07-20T17:40:07Z</time>
      </trkpt>
      <trkpt lat="47.3175060" lon="6.8251270">
        <ele>562.4</ele>
        <time>2022-07-20T17:40:09Z</time>
      </trkpt>
      <trkpt lat="47.3175030" lon="6.8251200">
        <ele>562.5</ele>
        <time>2022-07-20T17:40:10Z</time>
      </trkpt>
      <trkpt lat="47.3175000" lon="6.8251130">
        <ele>562.5</ele>
        <time>2022-07-20T17:40:11Z</time>
      </trkpt>
      <trkpt lat="47.3174950" lon="6.8251010">
        <ele>562.6</ele>
        <time>2022-07-20T17:40:12Z</time>
      </trkpt>
      <trkpt lat="47.3174900" lon="6.8250730">
        <ele>562.7</ele>
        <time>2022-07-20T17:40:13Z</time>
      </trkpt>
      <trkpt lat="47.3174880" lon="6.8250570">
        <ele>562.8</ele>
        <time>2022-07-20T17:40:14Z</time>
      </trkpt>
      <trkpt lat="47.3174880" lon="6.8250350">
        <ele>562.9</ele>
        <time>2022-07-20T17:40:15Z</time>
      </trkpt>
      <trkpt lat="47.3174840" lon="6.8249940">
        <ele>563.1</ele>
        <time>2022-07-20T17:40:17Z</time>
      </trkpt>
      <trkpt lat="47.3174900" lon="6.8249520">
        <ele>563.3</ele>
        <time>2022-07-20T17:40:18Z</time>
      </trkpt>
      <trkpt lat="47.3174920" lon="6.8249400">
        <ele>563.4</ele>
        <time>2022-07-20T17:40:19Z</time>
      </trkpt>
      <trkpt lat="47.3174970" lon="6.8249160">
        <ele>563.5</ele>
        <time>2022-07-20T17:40:20Z</time>
      </trkpt>
      <trkpt lat="47.3175000" lon="6.8248920">
        <ele>563.6</ele>
        <time>2022-07-20T17:40:21Z</time>
      </trkpt>
      <trkpt lat="47.3175010" lon="6.8248660">
        <ele>563.8</ele>
        <time>2022-07-20T17:40:22Z</time>
      </trkpt>
      <trkpt lat="47.3175020" lon="6.8248410">
        <ele>563.9</ele>
        <time>2022-07-20T17:40:24Z</time>
      </trkpt>
      <trkpt lat="47.3175030" lon="6.8248180">
        <ele>564.0</ele>
        <time>2022-07-20T17:40:25Z</time>
      </trkpt>
      <trkpt lat="47.3175010" lon="6.8247940">
        <ele>564.1</ele>
        <time>2022-07-20T17:40:26Z</time>
      </trkpt>
      <trkpt lat="47.3174980" lon="6.8247800">
        <ele>564.2</ele>
        <time>2022-07-20T17:40:27Z</time>
      </trkpt>
      <trkpt lat="47.3174980" lon="6.8247590">
        <ele>564.3</ele>
        <time>2022-07-20T17:40:28Z</time>
      </trkpt>
      <trkpt lat="47.3174990" lon="6.8247470">
        <ele>564.3</ele>
        <time>2022-07-20T17:40:30Z</time>
      </trkpt>
      <trkpt lat="47.3175000" lon="6.8247330">
        <ele>564.4</ele>
        <time>2022-07-20T17:40:31Z</time>
      </trkpt>
      <trkpt lat="47.3175010" lon="6.8247070">
        <ele>564.5</ele>
        <time>2022-07-20T17:40:32Z</time>
      </trkpt>
      <trkpt lat="47.3174910" lon="6.8246630">
        <ele>564.8</ele>
        <time>2022-07-20T17:40:34Z</time>
      </trkpt>
      <trkpt lat="47.3174870" lon="6.8246500">
        <ele>564.8</ele>
        <time>2022-07-20T17:40:35Z</time>
      </trkpt>
      <trkpt lat="47.3174820" lon="6.8246290">
        <ele>564.9</ele>
        <time>2022-07-20T17:40:36Z</time>
      </trkpt>
      <trkpt lat="47.3174770" lon="6.8246060">
        <ele>565.1</ele>
        <time>2022-07-20T17:40:37Z</time>
      </trkpt>
      <trkpt lat="47.3174750" lon="6.8245660">
        <ele>565.3</ele>
        <time>2022-07-20T17:40:38Z</time>
      </trkpt>
      <trkpt lat="47.3174750" lon="6.8245440">
        <ele>565.4</ele>
        <time>2022-07-20T17:40:39Z</time>
      </trkpt>
      <trkpt lat="47.3174730" lon="6.8245190">
        <ele>565.5</ele>
        <time>2022-07-20T17:40:41Z</time>
      </trkpt>
      <trkpt lat="47.3174710" lon="6.8244950">
        <ele>565.6</ele>
        <time>2022-07-20T17:40:42Z</time>
      </trkpt>
      <trkpt lat="47.3174680" lon="6.8244730">
        <ele>565.7</ele>
        <time>2022-07-20T17:40:43Z</time>
      </trkpt>
      <trkpt lat="47.3174660" lon="6.8244440">
        <ele>565.9</ele>
        <time>2022-07-20T17:40:44Z</time>
      </trkpt>
      <trkpt lat="47.3174740" lon="6.8243790">
        <ele>566.2</ele>
        <time>2022-07-20T17:40:46Z</time>
      </trkpt>
      <trkpt lat="47.3174760" lon="6.8243590">
        <ele>566.3</ele>
        <time>2022-07-20T17:40:47Z</time>
      </trkpt>
      <trkpt lat="47.3174780" lon="6.8243390">
        <ele>566.4</ele>
        <time>2022-07-20T17:40:48Z</time>
      </trkpt>
      <trkpt lat="47.3174820" lon="6.8243110">
        <ele>566.6</ele>
        <time>2022-07-20T17:40:49Z</time>
      </trkpt>
      <trkpt lat="47.3174850" lon="6.8242890">
        <ele>566.7</ele>
        <time>2022-07-20T17:40:50Z</time>
      </trkpt>
      <trkpt lat="47.3174830" lon="6.8242520">
        <ele>566.9</ele>
        <time>2022-07-20T17:40:51Z</time>
      </trkpt>
      <trkpt lat="47.3174820" lon="6.8242280">
        <ele>567.0</ele>
        <time>2022-07-20T17:40:53Z</time>
      </trkpt>
      <trkpt lat="47.3174790" lon="6.8242040">
        <ele>567.2</ele>
        <time>2022-07-20T17:40:54Z</time>
      </trkpt>
      <trkpt lat="47.3174700" lon="6.8241780">
        <ele>567.3</ele>
        <time>2022-07-20T17:40:55Z</time>
      </trkpt>
      <trkpt lat="47.3174650" lon="6.8241490">
        <ele>567.5</ele>
        <time>2022-07-20T17:40:56Z</time>
      </trkpt>
      <trkpt lat="47.3174610" lon="6.8241300">
        <ele>567.6</ele>
        <time>2022-07-20T17:40:57Z</time>
      </trkpt>
      <trkpt lat="47.3174510" lon="6.8241010">
        <ele>567.8</ele>
        <time>2022-07-20T17:40:58Z</time>
      </trkpt>
      <trkpt lat="47.3174440" lon="6.8240620">
        <ele>568.0</ele>
        <time>2022-07-20T17:41:00Z</time>
      </trkpt>
      <trkpt lat="47.3174390" lon="6.8240240">
        <ele>568.2</ele>
        <time>2022-07-20T17:41:01Z</time>
      </trkpt>
      <trkpt lat="47.3174360" lon="6.8240100">
        <ele>568.3</ele>
        <time>2022-07-20T17:41:02Z</time>
      </trkpt>
      <trkpt lat="47.3174130" lon="6.8239720">
        <ele>568.6</ele>
        <time>2022-07-20T17:41:04Z</time>
      </trkpt>
      <trkpt lat="47.3174070" lon="6.8239620">
        <ele>568.7</ele>
        <time>2022-07-20T17:41:05Z</time>
      </trkpt>
      <trkpt lat="47.3173960" lon="6.8239370">
        <ele>568.9</ele>
        <time>2022-07-20T17:41:07Z</time>
      </trkpt>
      <trkpt lat="47.3173890" lon="6.8239220">
        <ele>569.0</ele>
        <time>2022-07-20T17:41:08Z</time>
      </trkpt>
      <trkpt lat="47.3173770" lon="6.8238890">
        <ele>569.2</ele>
        <time>2022-07-20T17:41:09Z</time>
      </trkpt>
      <trkpt lat="47.3173720" lon="6.8238740">
        <ele>569.3</ele>
        <time>2022-07-20T17:41:10Z</time>
      </trkpt>
      <trkpt lat="47.3173650" lon="6.8238520">
        <ele>569.4</ele>
        <time>2022-07-20T17:41:12Z</time>
      </trkpt>
      <trkpt lat="47.3173560" lon="6.8238290">
        <ele>569.5</ele>
        <time>2022-07-20T17:41:13Z</time>
      </trkpt>
      <trkpt lat="47.3173450" lon="6.8237920">
        <ele>569.8</ele>
        <time>2022-07-20T17:41:14Z</time>
      </trkpt>
      <trkpt lat="47.3173400" lon="6.8237770">
        <ele>569.9</ele>
        <time>2022-07-20T17:41:16Z</time>
      </trkpt>
      <trkpt lat="47.3173350" lon="6.8237620">
        <ele>569.9</ele>
        <time>2022-07-20T17:41:17Z</time>
      </trkpt>
      <trkpt lat="47.3173310" lon="6.8237460">
        <ele>570.0</ele>
        <time>2022-07-20T17:41:18Z</time>
      </trkpt>
      <trkpt lat="47.3173260" lon="6.8237310">
        <ele>570.1</ele>
        <time>2022-07-20T17:41:19Z</time>
      </trkpt>
      <trkpt lat="47.3173180" lon="6.8236990">
        <ele>570.3</ele>
        <time>2022-07-20T17:41:20Z</time>
      </trkpt>
      <trkpt lat="47.3173140" lon="6.8236860">
        <ele>570.4</ele>
        <time>2022-07-20T17:41:21Z</time>
      </trkpt>
      <trkpt lat="47.3173100" lon="6.8236720">
        <ele>570.5</ele>
        <time>2022-07-20T17:41:22Z</time>
      </trkpt>
      <trkpt lat="47.3173050" lon="6.8236510">
        <ele>570.6</ele>
        <time>2022-07-20T17:41:23Z</time>
      </trkpt>
      <trkpt lat="47.3172980" lon="6.8236300">
        <ele>570.7</ele>
        <time>2022-07-20T17:41:24Z</time>
      </trkpt>
      <trkpt lat="47.3172850" lon="6.8236040">
        <ele>570.9</ele>
        <time>2022-07-20T17:41:25Z</time>
      </trkpt>
      <trkpt lat="47.3172790" lon="6.8235950">
        <ele>571.0</ele>
        <time>2022-07-20T17:41:27Z</time>
      </trkpt>
      <trkpt lat="47.3172730" lon="6.8235850">
        <ele>571.1</ele>
        <time>2022-07-20T17:41:28Z</time>
      </trkpt>
      <trkpt lat="47.3172560" lon="6.8235680">
        <ele>571.2</ele>
        <time>2022-07-20T17:41:29Z</time>
      </trkpt>
      <trkpt lat="47.3172400" lon="6.8235550">
        <ele>571.4</ele>
        <time>2022-07-20T17:41:31Z</time>
      </trkpt>
      <trkpt lat="47.3172240" lon="6.8235470">
        <ele>571.5</ele>
        <time>2022-07-20T17:41:32Z</time>
      </trkpt>
      <trkpt lat="47.3172100" lon="6.8235390">
        <ele>571.6</ele>
        <time>2022-07-20T17:41:33Z</time>
      </trkpt>
      <trkpt lat="47.3171820" lon="6.8235210">
        <ele>571.8</ele>
        <time>2022-07-20T17:41:34Z</time>
      </trkpt>
      <trkpt lat="47.3171450" lon="6.8234970">
        <ele>572.1</ele>
        <time>2022-07-20T17:41:35Z</time>
      </trkpt>
      <trkpt lat="47.3171060" lon="6.8234750">
        <ele>572.4</ele>
        <time>2022-07-20T17:41:37Z</time>
      </trkpt>
      <trkpt lat="47.3170950" lon="6.8234650">
        <ele>572.4</ele>
        <time>2022-07-20T17:41:38Z</time>
      </trkpt>
      <trkpt lat="47.3170830" lon="6.8234550">
        <ele>572.5</ele>
        <time>2022-07-20T17:41:39Z</time>
      </trkpt>
      <trkpt lat="47.3170500" lon="6.8234240">
        <ele>572.8</ele>
        <time>2022-07-20T17:41:41Z</time>
      </trkpt>
      <trkpt lat="47.3170370" lon="6.8234130">
        <ele>572.8</ele>
        <time>2022-07-20T17:41:42Z</time>
      </trkpt>
      <trkpt lat="47.3170030" lon="6.8234050">
        <ele>573.1</ele>
        <time>2022-07-20T17:41:44Z</time>
      </trkpt>
      <trkpt lat="47.3169920" lon="6.8234040">
        <ele>573.1</ele>
        <time>2022-07-20T17:41:45Z</time>
      </trkpt>
      <trkpt lat="47.3169750" lon="6.8234010">
        <ele>573.2</ele>
        <time>2022-07-20T17:41:46Z</time>
      </trkpt>
      <trkpt lat="47.3169620" lon="6.8234010">
        <ele>573.3</ele>
        <time>2022-07-20T17:41:47Z</time>
      </trkpt>
      <trkpt lat="47.3169390" lon="6.8234040">
        <ele>573.4</ele>
        <time>2022-07-20T17:41:48Z</time>
      </trkpt>
      <trkpt lat="47.3169270" lon="6.8234090">
        <ele>573.5</ele>
        <time>2022-07-20T17:41:49Z</time>
      </trkpt>
      <trkpt lat="47.3169150" lon="6.8234140">
        <ele>573.6</ele>
        <time>2022-07-20T17:41:50Z</time>
      </trkpt>
      <trkpt lat="47.3168860" lon="6.8234420">
        <ele>573.8</ele>
        <time>2022-07-20T17:41:52Z</time>
      </trkpt>
      <trkpt lat="47.3168790" lon="6.8234480">
        <ele>573.8</ele>
        <time>2022-07-20T17:41:53Z</time>
      </trkpt>
      <trkpt lat="47.3168580" lon="6.8234600">
        <ele>574.0</ele>
        <time>2022-07-20T17:41:54Z</time>
      </trkpt>
      <trkpt lat="47.3168510" lon="6.8234660">
        <ele>574.0</ele>
        <time>2022-07-20T17:41:56Z</time>
      </trkpt>
      <trkpt lat="47.3168440" lon="6.8234720">
        <ele>574.1</ele>
        <time>2022-07-20T17:41:57Z</time>
      </trkpt>
      <trkpt lat="47.3168320" lon="6.8234850">
        <ele>574.2</ele>
        <time>2022-07-20T17:41:58Z</time>
      </trkpt>
      <trkpt lat="47.3168040" lon="6.8234900">
        <ele>574.4</ele>
        <time>2022-07-20T17:42:00Z</time>
      </trkpt>
      <trkpt lat="47.3167920" lon="6.8234920">
        <ele>574.4</ele>
        <time>2022-07-20T17:42:01Z</time>
      </trkpt>
      <trkpt lat="47.3167850" lon="6.8234930">
        <ele>574.5</ele>
        <time>2022-07-20T17:42:02Z</time>
      </trkpt>
      <trkpt lat="47.3167780" lon="6.8234940">
        <ele>574.5</ele>
        <time>2022-07-20T17:42:03Z</time>
      </trkpt>
      <trkpt lat="47.3167720" lon="6.8234960">
        <ele>574.6</ele>
        <time>2022-07-20T17:42:04Z</time>
      </trkpt>
      <trkpt lat="47.3167650" lon="6.8234970">
        <ele>574.6</ele>
        <time>2022-07-20T17:42:05Z</time>
      </trkpt>
      <trkpt lat="47.3167550" lon="6.8235090">
        <ele>574.7</ele>
        <time>2022-07-20T17:42:07Z</time>
      </trkpt>
      <trkpt lat="47.3167390" lon="6.8235330">
        <ele>574.9</ele>
        <time>2022-07-20T17:42:08Z</time>
      </trkpt>
      <trkpt lat="47.3167240" lon="6.8235550">
        <ele>575.1</ele>
        <time>2022-07-20T17:42:09Z</time>
      </trkpt>
      <trkpt lat="47.3167030" lon="6.8235850">
        <ele>575.3</ele>
        <time>2022-07-20T17:42:11Z</time>
      </trkpt>
      <trkpt lat="47.3166950" lon="6.8236020">
        <ele>575.4</ele>
        <time>2022-07-20T17:42:12Z</time>
      </trkpt>
      <trkpt lat="47.3166900" lon="6.8236260">
        <ele>575.6</ele>
        <time>2022-07-20T17:42:13Z</time>
      </trkpt>
      <trkpt lat="47.3166850" lon="6.8236520">
        <ele>575.7</ele>
        <time>2022-07-20T17:42:14Z</time>
      </trkpt>
      <trkpt lat="47.3166830" lon="6.8236810">
        <ele>575.9</ele>
        <time>2022-07-20T17:42:16Z</time>
      </trkpt>
      <trkpt lat="47.3166830" lon="6.8237140">
        <ele>576.1</ele>
        <time>2022-07-20T17:42:17Z</time>
      </trkpt>
      <trkpt lat="47.3166840" lon="6.8237260">
        <ele>576.2</ele>
        <time>2022-07-20T17:42:18Z</time>
      </trkpt>
      <trkpt lat="47.3166860" lon="6.8237380">
        <ele>576.2</ele>
        <time>2022-07-20T17:42:19Z</time>
      </trkpt>
      <trkpt lat="47.3166890" lon="6.8237520">
        <ele>576.3</ele>
        <time>2022-07-20T17:42:20Z</time>
      </trkpt>
      <trkpt lat="47.3166940" lon="6.8237840">
        <ele>576.5</ele>
        <time>2022-07-20T17:42:21Z</time>
      </trkpt>
      <trkpt lat="47.3166990" lon="6.8238070">
        <ele>576.7</ele>
        <time>2022-07-20T17:42:22Z</time>
      </trkpt>
      <trkpt lat="47.3167050" lon="6.8238230">
        <ele>576.8</ele>
        <time>2022-07-20T17:42:24Z</time>
      </trkpt>
      <trkpt lat="47.3167140" lon="6.8238480">
        <ele>577.0</ele>
        <time>2022-07-20T17:42:25Z</time>
      </trkpt>
      <trkpt lat="47.3167190" lon="6.8238670">
        <ele>577.1</ele>
        <time>2022-07-20T17:42:26Z</time>
      </trkpt>
      <trkpt lat="47.3167220" lon="6.8238850">
        <ele>577.2</ele>
        <time>2022-07-20T17:42:28Z</time>
      </trkpt>
      <trkpt lat="47.3167260" lon="6.8238960">
        <ele>577.3</ele>
        <time>2022-07-20T17:42:29Z</time>
      </trkpt>
      <trkpt lat="47.3167290" lon="6.8239050">
        <ele>577.3</ele>
        <time>2022-07-20T17:42:30Z</time>
      </trkpt>
      <trkpt lat="47.3167390" lon="6.8239260">
        <ele>577.5</ele>
        <time>2022-07-20T17:42:31Z</time>
      </trkpt>
      <trkpt lat="47.3167500" lon="6.8239440">
        <ele>577.6</ele>
        <time>2022-07-20T17:42:33Z</time>
      </trkpt>
      <trkpt lat="47.3167620" lon="6.8239570">
        <ele>577.8</ele>
        <time>2022-07-20T17:42:34Z</time>
      </trkpt>
      <trkpt lat="47.3167750" lon="6.8239740">
        <ele>577.9</ele>
        <time>2022-07-20T17:42:35Z</time>
      </trkpt>
      <trkpt lat="47.3167900" lon="6.8239930">
        <ele>578.1</ele>
        <time>2022-07-20T17:42:36Z</time>
      </trkpt>
      <trkpt lat="47.3167990" lon="6.8240070">
        <ele>578.2</ele>
        <time>2022-07-20T17:42:37Z</time>
      </trkpt>
      <trkpt lat="47.3168090" lon="6.8240260">
        <ele>578.4</ele>
        <time>2022-07-20T17:42:39Z</time>
      </trkpt>
      <trkpt lat="47.3168170" lon="6.8240410">
        <ele>578.5</ele>
        <time>2022-07-20T17:42:40Z</time>
      </trkpt>
      <trkpt lat="47.3168250" lon="6.8240620">
        <ele>578.7</ele>
        <time>2022-07-20T17:42:41Z</time>
      </trkpt>
      <trkpt lat="47.3168330" lon="6.8240800">
        <ele>578.8</ele>
        <time>2022-07-20T17:42:42Z</time>
      </trkpt>
      <trkpt lat="47.3168410" lon="6.8240990">
        <ele>578.9</ele>
        <time>2022-07-20T17:42:44Z</time>
      </trkpt>
      <trkpt lat="47.3168530" lon="6.8241220">
        <ele>579.1</ele>
        <time>2022-07-20T17:42:45Z</time>
      </trkpt>
      <trkpt lat="47.3168700" lon="6.8241560">
        <ele>579.3</ele>
        <time>2022-07-20T17:42:46Z</time>
      </trkpt>
      <trkpt lat="47.3168750" lon="6.8241710">
        <ele>579.4</ele>
        <time>2022-07-20T17:42:47Z</time>
      </trkpt>
      <trkpt lat="47.3168910" lon="6.8242200">
        <ele>579.8</ele>
        <time>2022-07-20T17:42:49Z</time>
      </trkpt>
      <trkpt lat="47.3168970" lon="6.8242350">
        <ele>579.9</ele>
        <time>2022-07-20T17:42:50Z</time>
      </trkpt>
      <trkpt lat="47.3169090" lon="6.8242870">
        <ele>580.2</ele>
        <time>2022-07-20T17:42:51Z</time>
      </trkpt>
      <trkpt lat="47.3169300" lon="6.8243170">
        <ele>580.4</ele>
        <time>2022-07-20T17:42:52Z</time>
      </trkpt>
      <trkpt lat="47.3169410" lon="6.8243310">
        <ele>580.5</ele>
        <time>2022-07-20T17:42:54Z</time>
      </trkpt>
      <trkpt lat="47.3169530" lon="6.8243440">
        <ele>580.7</ele>
        <time>2022-07-20T17:42:55Z</time>
      </trkpt>
      <trkpt lat="47.3169640" lon="6.8243580">
        <ele>580.8</ele>
        <time>2022-07-20T17:42:56Z</time>
      </trkpt>
      <trkpt lat="47.3169790" lon="6.8243990">
        <ele>581.0</ele>
        <time>2022-07-20T17:42:58Z</time>
      </trkpt>
      <trkpt lat="47.3169840" lon="6.8244130">
        <ele>581.1</ele>
        <time>2022-07-20T17:42:59Z</time>
      </trkpt>
      <trkpt lat="47.3169960" lon="6.8244370">
        <ele>581.2</ele>
        <time>2022-07-20T17:43:00Z</time>
      </trkpt>
      <trkpt lat="47.3170040" lon="6.8244540">
        <ele>581.3</ele>
        <time>2022-07-20T17:43:01Z</time>
      </trkpt>
      <trkpt lat="47.3170150" lon="6.8245120">
        <ele>581.6</ele>
        <time>2022-07-20T17:43:03Z</time>
      </trkpt>
      <trkpt lat="47.3170170" lon="6.8245300">
        <ele>581.7</ele>
        <time>2022-07-20T17:43:04Z</time>
      </trkpt>
      <trkpt lat="47.3170200" lon="6.8245490">
        <ele>581.8</ele>
        <time>2022-07-20T17:43:05Z</time>
      </trkpt>
      <trkpt lat="47.3170190" lon="6.8245920">
        <ele>582.0</ele>
        <time>2022-07-20T17:43:06Z</time>
      </trkpt>
      <trkpt lat="47.3170190" lon="6.8246050">
        <ele>582.1</ele>
        <time>2022-07-20T17:43:07Z</time>
      </trkpt>
      <trkpt lat="47.3170200" lon="6.8246320">
        <ele>582.2</ele>
        <time>2022-07-20T17:43:08Z</time>
      </trkpt>
      <trkpt lat="47.3170250" lon="6.8246500">
        <ele>582.2</ele>
        <time>2022-07-20T17:43:10Z</time>
      </trkpt>
      <trkpt lat="47.3170350" lon="6.8246690">
        <ele>582.3</ele>
        <time>2022-07-20T17:43:11Z</time>
      </trkpt>
      <trkpt lat="47.3170470" lon="6.8246870">
        <ele>582.4</ele>
        <time>2022-07-20T17:43:12Z</time>
      </trkpt>
      <trkpt lat="47.3170650" lon="6.8247170">
        <ele>582.6</ele>
        <time>2022-07-20T17:43:13Z</time>
      </trkpt>
      <trkpt lat="47.3170710" lon="6.8247270">
        <ele>582.6</ele>
        <time>2022-07-20T17:43:14Z</time>
      </trkpt>
      <trkpt lat="47.3170820" lon="6.8247450">
        <ele>582.7</ele>
        <time>2022-07-20T17:43:15Z</time>
      </trkpt>
      <trkpt lat="47.3170900" lon="6.8247670">
        <ele>582.8</ele>
        <time>2022-07-20T17:43:16Z</time>
      </trkpt>
      <trkpt lat="47.3171020" lon="6.8248100">
        <ele>583.0</ele>
        <time>2022-07-20T17:43:17Z</time>
      </trkpt>
      <trkpt lat="47.3171040" lon="6.8248230">
        <ele>583.0</ele>
        <time>2022-07-20T17:43:18Z</time>
      </trkpt>
      <trkpt lat="47.3171080" lon="6.8248380">
        <ele>583.1</ele>
        <time>2022-07-20T17:43:19Z</time>
      </trkpt>
      <trkpt lat="47.3171160" lon="6.8248670">
        <ele>583.2</ele>
        <time>2022-07-20T17:43:21Z</time>
      </trkpt>
      <trkpt lat="47.3171260" lon="6.8249040">
        <ele>583.3</ele>
        <time>2022-07-20T17:43:22Z</time>
      </trkpt>
      <trkpt lat="47.3171320" lon="6.8249470">
        <ele>583.5</ele>
        <time>2022-07-20T17:43:23Z</time>
      </trkpt>
      <trkpt lat="47.3171330" lon="6.8249590">
        <ele>583.5</ele>
        <time>2022-07-20T17:43:24Z</time>
      </trkpt>
      <trkpt lat="47.3171370" lon="6.8250100">
        <ele>583.7</ele>
        <time>2022-07-20T17:43:25Z</time>
      </trkpt>
      <trkpt lat="47.3171390" lon="6.8250330">
        <ele>583.8</ele>
        <time>2022-07-20T17:43:26Z</time>
      </trkpt>
      <trkpt lat="47.3171430" lon="6.8250800">
        <ele>583.9</ele>
        <time>2022-07-20T17:43:28Z</time>
      </trkpt>
      <trkpt lat="47.3171440" lon="6.8250990">
        <ele>584.0</ele>
        <time>2022-07-20T17:43:29Z</time>
      </trkpt>
      <trkpt lat="47.3171480" lon="6.8251460">
        <ele>584.1</ele>
        <time>2022-07-20T17:43:30Z</time>
      </trkpt>
      <trkpt lat="47.3171500" lon="6.8251580">
        <ele>584.2</ele>
        <time>2022-07-20T17:43:31Z</time>
      </trkpt>
      <trkpt lat="47.3171580" lon="6.8251820">
        <ele>584.3</ele>
        <time>2022-07-20T17:43:32Z</time>
      </trkpt>
      <trkpt lat="47.3171710" lon="6.8252260">
        <ele>584.4</ele>
        <time>2022-07-20T17:43:34Z</time>
      </trkpt>
      <trkpt lat="47.3171830" lon="6.8252470">
        <ele>584.5</ele>
        <time>2022-07-20T17:43:35Z</time>
      </trkpt>
      <trkpt lat="47.3171880" lon="6.8252720">
        <ele>584.6</ele>
        <time>2022-07-20T17:43:36Z</time>
      </trkpt>
      <trkpt lat="47.3171910" lon="6.8252940">
        <ele>584.7</ele>
        <time>2022-07-20T17:43:37Z</time>
      </trkpt>
      <trkpt lat="47.3171990" lon="6.8253420">
        <ele>584.9</ele>
        <time>2022-07-20T17:43:39Z</time>
      </trkpt>
      <trkpt lat="47.3172200" lon="6.8253860">
        <ele>585.1</ele>
        <time>2022-07-20T17:43:40Z</time>
      </trkpt>
      <trkpt lat="47.3172270" lon="6.8254020">
        <ele>585.1</ele>
        <time>2022-07-20T17:43:41Z</time>
      </trkpt>
      <trkpt lat="47.3172430" lon="6.8254370">
        <ele>585.3</ele>
        <time>2022-07-20T17:43:42Z</time>
      </trkpt>
      <trkpt lat="47.3172470" lon="6.8254480">
        <ele>585.4</ele>
        <time>2022-07-20T17:43:43Z</time>
      </trkpt>
      <trkpt lat="47.3172670" lon="6.8255050">
        <ele>585.6</ele>
        <time>2022-07-20T17:43:45Z</time>
      </trkpt>
      <trkpt lat="47.3172730" lon="6.8255270">
        <ele>585.7</ele>
        <time>2022-07-20T17:43:46Z</time>
      </trkpt>
      <trkpt lat="47.3172790" lon="6.8255480">
        <ele>585.8</ele>
        <time>2022-07-20T17:43:47Z</time>
      </trkpt>
      <trkpt lat="47.3172850" lon="6.8255680">
        <ele>585.9</ele>
        <time>2022-07-20T17:43:48Z</time>
      </trkpt>
      <trkpt lat="47.3172880" lon="6.8255770">
        <ele>585.9</ele>
        <time>2022-07-20T17:43:49Z</time>
      </trkpt>
      <trkpt lat="47.3172920" lon="6.8255930">
        <ele>586.0</ele>
        <time>2022-07-20T17:43:50Z</time>
      </trkpt>
      <trkpt lat="47.3172960" lon="6.8256090">
        <ele>586.1</ele>
        <time>2022-07-20T17:43:51Z</time>
      </trkpt>
      <trkpt lat="47.3173000" lon="6.8256210">
        <ele>586.2</ele>
        <time>2022-07-20T17:43:52Z</time>
      </trkpt>
      <trkpt lat="47.3173030" lon="6.8256370">
        <ele>586.2</ele>
        <time>2022-07-20T17:43:53Z</time>
      </trkpt>
      <trkpt lat="47.3173100" lon="6.8256560">
        <ele>586.3</ele>
        <time>2022-07-20T17:43:54Z</time>
      </trkpt>
      <trkpt lat="47.3173200" lon="6.8256880">
        <ele>586.5</ele>
        <time>2022-07-20T17:43:56Z</time>
      </trkpt>
      <trkpt lat="47.3173420" lon="6.8257330">
        <ele>586.7</ele>
        <time>2022-07-20T17:43:57Z</time>
      </trkpt>
      <trkpt lat="47.3173580" lon="6.8257710">
        <ele>586.9</ele>
        <time>2022-07-20T17:43:58Z</time>
      </trkpt>
      <trkpt lat="47.3173620" lon="6.8257840">
        <ele>587.0</ele>
        <time>2022-07-20T17:43:59Z</time>
      </trkpt>
      <trkpt lat="47.3173700" lon="6.8258060">
        <ele>587.1</ele>
        <time>2022-07-20T17:44:00Z</time>
      </trkpt>
      <trkpt lat="47.3173770" lon="6.8258280">
        <ele>587.2</ele>
        <time>2022-07-20T17:44:01Z</time>
      </trkpt>
      <trkpt lat="47.3173950" lon="6.8258690">
        <ele>587.4</ele>
        <time>2022-07-20T17:44:03Z</time>
      </trkpt>
      <trkpt lat="47.3173990" lon="6.8258810">
        <ele>587.5</ele>
        <time>2022-07-20T17:44:04Z</time>
      </trkpt>
      <trkpt lat="47.3174140" lon="6.8259250">
        <ele>587.7</ele>
        <time>2022-07-20T17:44:05Z</time>
      </trkpt>
      <trkpt lat="47.3174190" lon="6.8259410">
        <ele>587.8</ele>
        <time>2022-07-20T17:44:06Z</time>
      </trkpt>
      <trkpt lat="47.3174400" lon="6.8259710">
        <ele>588.0</ele>
        <time>2022-07-20T17:44:07Z</time>
      </trkpt>
      <trkpt lat="47.3174480" lon="6.8259830">
        <ele>588.0</ele>
        <time>2022-07-20T17:44:08Z</time>
      </trkpt>
      <trkpt lat="47.3174650" lon="6.8260020">
        <ele>588.2</ele>
        <time>2022-07-20T17:44:09Z</time>
      </trkpt>
      <trkpt lat="47.3174810" lon="6.8260240">
        <ele>588.3</ele>
        <time>2022-07-20T17:44:11Z</time>
      </trkpt>
      <trkpt lat="47.3175040" lon="6.8260550">
        <ele>588.5</ele>
        <time>2022-07-20T17:44:12Z</time>
      </trkpt>
      <trkpt lat="47.3175100" lon="6.8260620">
        <ele>588.6</ele>
        <time>2022-07-20T17:44:13Z</time>
      </trkpt>
      <trkpt lat="47.3175310" lon="6.8260900">
        <ele>588.8</ele>
        <time>2022-07-20T17:44:15Z</time>
      </trkpt>
      <trkpt lat="47.3175420" lon="6.8261080">
        <ele>588.9</ele>
        <time>2022-07-20T17:44:16Z</time>
      </trkpt>
      <trkpt lat="47.3175530" lon="6.8261280">
        <ele>589.0</ele>
        <time>2022-07-20T17:44:17Z</time>
      </trkpt>
      <trkpt lat="47.3175740" lon="6.8261580">
        <ele>589.2</ele>
        <time>2022-07-20T17:44:19Z</time>
      </trkpt>
      <trkpt lat="47.3175810" lon="6.8261710">
        <ele>589.3</ele>
        <time>2022-07-20T17:44:20Z</time>
      </trkpt>
      <trkpt lat="47.3175900" lon="6.8261900">
        <ele>589.4</ele>
        <time>2022-07-20T17:44:21Z</time>
      </trkpt>
      <trkpt lat="47.3176030" lon="6.8262160">
        <ele>589.6</ele>
        <time>2022-07-20T17:44:23Z</time>
      </trkpt>
      <trkpt lat="47.3176150" lon="6.8262360">
        <ele>589.7</ele>
        <time>2022-07-20T17:44:24Z</time>
      </trkpt>
      <trkpt lat="47.3176240" lon="6.8262560">
        <ele>589.8</ele>
        <time>2022-07-20T17:44:25Z</time>
      </trkpt>
      <trkpt lat="47.3176330" lon="6.8262850">
        <ele>590.0</ele>
        <time>2022-07-20T17:44:26Z</time>
      </trkpt>
      <trkpt lat="47.3176380" lon="6.8262980">
        <ele>590.0</ele>
        <time>2022-07-20T17:44:27Z</time>
      </trkpt>
      <trkpt lat="47.3176430" lon="6.8263110">
        <ele>590.1</ele>
        <time>2022-07-20T17:44:28Z</time>
      </trkpt>
      <trkpt lat="47.3176610" lon="6.8263570">
        <ele>590.3</ele>
        <time>2022-07-20T17:44:29Z</time>
      </trkpt>
      <trkpt lat="47.3176660" lon="6.8263710">
        <ele>590.4</ele>
        <time>2022-07-20T17:44:30Z</time>
      </trkpt>
      <trkpt lat="47.3176830" lon="6.8263990">
        <ele>590.6</ele>
        <time>2022-07-20T17:44:31Z</time>
      </trkpt>
      <trkpt lat="47.3177020" lon="6.8264330">
        <ele>590.8</ele>
        <time>2022-07-20T17:44:33Z</time>
      </trkpt>
      <trkpt lat="47.3177060" lon="6.8264550">
        <ele>590.9</ele>
        <time>2022-07-20T17:44:34Z</time>
      </trkpt>
      <trkpt lat="47.3177060" lon="6.8264800">
        <ele>591.0</ele>
        <time>2022-07-20T17:44:35Z</time>
      </trkpt>
      <trkpt lat="47.3177070" lon="6.8265110">
        <ele>591.2</ele>
        <time>2022-07-20T17:44:36Z</time>
      </trkpt>
      <trkpt lat="47.3177170" lon="6.8265480">
        <ele>591.4</ele>
        <time>2022-07-20T17:44:38Z</time>
      </trkpt>
      <trkpt lat="47.3177340" lon="6.8265780">
        <ele>591.6</ele>
        <time>2022-07-20T17:44:39Z</time>
      </trkpt>
      <trkpt lat="47.3177410" lon="6.8265880">
        <ele>591.6</ele>
        <time>2022-07-20T17:44:40Z</time>
      </trkpt>
      <trkpt lat="47.3177580" lon="6.8266180">
        <ele>591.8</ele>
        <time>2022-07-20T17:44:41Z</time>
      </trkpt>
      <trkpt lat="47.3177730" lon="6.8266490">
        <ele>592.0</ele>
        <time>2022-07-20T17:44:43Z</time>
      </trkpt>
      <trkpt lat="47.3177870" lon="6.8266960">
        <ele>592.3</ele>
        <time>2022-07-20T17:44:44Z</time>
      </trkpt>
      <trkpt lat="47.3177900" lon="6.8267080">
        <ele>592.3</ele>
        <time>2022-07-20T17:44:45Z</time>
      </trkpt>
      <trkpt lat="47.3177940" lon="6.8267260">
        <ele>592.4</ele>
        <time>2022-07-20T17:44:46Z</time>
      </trkpt>
      <trkpt lat="47.3178010" lon="6.8267520">
        <ele>592.6</ele>
        <time>2022-07-20T17:44:47Z</time>
      </trkpt>
      <trkpt lat="47.3177990" lon="6.8268010">
        <ele>592.8</ele>
        <time>2022-07-20T17:44:49Z</time>
      </trkpt>
      <trkpt lat="47.3177980" lon="6.8268130">
        <ele>592.8</ele>
        <time>2022-07-20T17:44:50Z</time>
      </trkpt>
      <trkpt lat="47.3177910" lon="6.8268290">
        <ele>592.9</ele>
        <time>2022-07-20T17:44:51Z</time>
      </trkpt>
      <trkpt lat="47.3177910" lon="6.8268500">
        <ele>593.0</ele>
        <time>2022-07-20T17:44:52Z</time>
      </trkpt>
      <trkpt lat="47.3178000" lon="6.8268910">
        <ele>593.2</ele>
        <time>2022-07-20T17:44:54Z</time>
      </trkpt>
      <trkpt lat="47.3178090" lon="6.8269050">
        <ele>593.3</ele>
        <time>2022-07-20T17:44:55Z</time>
      </trkpt>
      <trkpt lat="47.3178210" lon="6.8269210">
        <ele>593.4</ele>
        <time>2022-07-20T17:44:56Z</time>
      </trkpt>
      <trkpt lat="47.3178280" lon="6.8269360">
        <ele>593.4</ele>
        <time>2022-07-20T17:44:57Z</time>
      </trkpt>
      <trkpt lat="47.3178420" lon="6.8269620">
        <ele>593.6</ele>
        <time>2022-07-20T17:44:58Z</time>
      </trkpt>
      <trkpt lat="47.3178530" lon="6.8269800">
        <ele>593.7</ele>
        <time>2022-07-20T17:44:59Z</time>
      </trkpt>
      <trkpt lat="47.3178660" lon="6.8270050">
        <ele>593.8</ele>
        <time>2022-07-20T17:45:01Z</time>
      </trkpt>
      <trkpt lat="47.3178780" lon="6.8270440">
        <ele>594.0</ele>
        <time>2022-07-20T17:45:02Z</time>
      </trkpt>
      <trkpt lat="47.3178820" lon="6.8270590">
        <ele>594.1</ele>
        <time>2022-07-20T17:45:03Z</time>
      </trkpt>
      <trkpt lat="47.3178950" lon="6.8271140">
        <ele>594.3</ele>
        <time>2022-07-20T17:45:04Z</time>
      </trkpt>
      <trkpt lat="47.3178990" lon="6.8271310">
        <ele>594.4</ele>
        <time>2022-07-20T17:45:05Z</time>
      </trkpt>
      <trkpt lat="47.3179080" lon="6.8271700">
        <ele>594.5</ele>
        <time>2022-07-20T17:45:06Z</time>
      </trkpt>
      <trkpt lat="47.3179110" lon="6.8271830">
        <ele>594.6</ele>
        <time>2022-07-20T17:45:07Z</time>
      </trkpt>
      <trkpt lat="47.3179160" lon="6.8272350">
        <ele>594.8</ele>
        <time>2022-07-20T17:45:09Z</time>
      </trkpt>
      <trkpt lat="47.3179160" lon="6.8272500">
        <ele>594.9</ele>
        <time>2022-07-20T17:45:10Z</time>
      </trkpt>
      <trkpt lat="47.3179220" lon="6.8272930">
        <ele>595.1</ele>
        <time>2022-07-20T17:45:11Z</time>
      </trkpt>
      <trkpt lat="47.3179240" lon="6.8273040">
        <ele>595.1</ele>
        <time>2022-07-20T17:45:12Z</time>
      </trkpt>
      <trkpt lat="47.3179290" lon="6.8273170">
        <ele>595.2</ele>
        <time>2022-07-20T17:45:13Z</time>
      </trkpt>
      <trkpt lat="47.3179320" lon="6.8273440">
        <ele>595.3</ele>
        <time>2022-07-20T17:45:15Z</time>
      </trkpt>
      <trkpt lat="47.3179350" lon="6.8273600">
        <ele>595.4</ele>
        <time>2022-07-20T17:45:16Z</time>
      </trkpt>
      <trkpt lat="47.3179380" lon="6.8273680">
        <ele>595.4</ele>
        <time>2022-07-20T17:45:17Z</time>
      </trkpt>
      <trkpt lat="47.3179440" lon="6.8273810">
        <ele>595.5</ele>
        <time>2022-07-20T17:45:18Z</time>
      </trkpt>
      <trkpt lat="47.3179520" lon="6.8273990">
        <ele>595.6</ele>
        <time>2022-07-20T17:45:19Z</time>
      </trkpt>
      <trkpt lat="47.3179610" lon="6.8274170">
        <ele>595.7</ele>
        <time>2022-07-20T17:45:20Z</time>
      </trkpt>
      <trkpt lat="47.3179840" lon="6.8274590">
        <ele>595.9</ele>
        <time>2022-07-20T17:45:22Z</time>
      </trkpt>
      <trkpt lat="47.3179900" lon="6.8274690">
        <ele>596.0</ele>
        <time>2022-07-20T17:45:23Z</time>
      </trkpt>
      <trkpt lat="47.3180110" lon="6.8275030">
        <ele>596.2</ele>
        <time>2022-07-20T17:45:24Z</time>
      </trkpt>
      <trkpt lat="47.3180180" lon="6.8275150">
        <ele>596.3</ele>
        <time>2022-07-20T17:45:25Z</time>
      </trkpt>
      <trkpt lat="47.3180370" lon="6.8275440">
        <ele>596.5</ele>
        <time>2022-07-20T17:45:26Z</time>
      </trkpt>
      <trkpt lat="47.3180450" lon="6.8275570">
        <ele>596.5</ele>
        <time>2022-07-20T17:45:27Z</time>
      </trkpt>
      <trkpt lat="47.3180650" lon="6.8275920">
        <ele>596.8</ele>
        <time>2022-07-20T17:45:29Z</time>
      </trkpt>
      <trkpt lat="47.3180730" lon="6.8276050">
        <ele>596.8</ele>
        <time>2022-07-20T17:45:30Z</time>
      </trkpt>
      <trkpt lat="47.3180850" lon="6.8276230">
        <ele>597.0</ele>
        <time>2022-07-20T17:45:31Z</time>
      </trkpt>
      <trkpt lat="47.3180940" lon="6.8276420">
        <ele>597.1</ele>
        <time>2022-07-20T17:45:32Z</time>
      </trkpt>
      <trkpt lat="47.3181040" lon="6.8276620">
        <ele>597.2</ele>
        <time>2022-07-20T17:45:33Z</time>
      </trkpt>
      <trkpt lat="47.3181120" lon="6.8276840">
        <ele>597.3</ele>
        <time>2022-07-20T17:45:34Z</time>
      </trkpt>
      <trkpt lat="47.3181260" lon="6.8277240">
        <ele>597.5</ele>
        <time>2022-07-20T17:45:35Z</time>
      </trkpt>
      <trkpt lat="47.3181310" lon="6.8277370">
        <ele>597.6</ele>
        <time>2022-07-20T17:45:36Z</time>
      </trkpt>
      <trkpt lat="47.3181500" lon="6.8277730">
        <ele>597.8</ele>
        <time>2022-07-20T17:45:38Z</time>
      </trkpt>
      <trkpt lat="47.3181570" lon="6.8277870">
        <ele>597.8</ele>
        <time>2022-07-20T17:45:39Z</time>
      </trkpt>
      <trkpt lat="47.3181650" lon="6.8278050">
        <ele>597.9</ele>
        <time>2022-07-20T17:45:40Z</time>
      </trkpt>
      <trkpt lat="47.3181720" lon="6.8278240">
        <ele>598.0</ele>
        <time>2022-07-20T17:45:41Z</time>
      </trkpt>
      <trkpt lat="47.3181810" lon="6.8278390">
        <ele>598.1</ele>
        <time>2022-07-20T17:45:42Z</time>
      </trkpt>
      <trkpt lat="47.3181910" lon="6.8278550">
        <ele>598.2</ele>
        <time>2022-07-20T17:45:43Z</time>
      </trkpt>
      <trkpt lat="47.3181990" lon="6.8278700">
        <ele>598.3</ele>
        <time>2022-07-20T17:45:44Z</time>
      </trkpt>
      <trkpt lat="47.3182070" lon="6.8278880">
        <ele>598.4</ele>
        <time>2022-07-20T17:45:45Z</time>
      </trkpt>
      <trkpt lat="47.3182140" lon="6.8279050">
        <ele>598.5</ele>
        <time>2022-07-20T17:45:46Z</time>
      </trkpt>
      <trkpt lat="47.3182230" lon="6.8279390">
        <ele>598.6</ele>
        <time>2022-07-20T17:45:48Z</time>
      </trkpt>
      <trkpt lat="47.3182230" lon="6.8279440">
        <ele>598.7</ele>
        <time>2022-07-20T17:45:49Z</time>
      </trkpt>
      <trkpt lat="47.3182230" lon="6.8279460">
        <ele>598.7</ele>
        <time>2022-07-20T17:45:50Z</time>
      </trkpt>
      <trkpt lat="47.3182240" lon="6.8279490">
        <ele>598.7</ele>
        <time>2022-07-20T17:45:51Z</time>
      </trkpt>
      <trkpt lat="47.3182240" lon="6.8279500">
        <ele>598.7</ele>
        <time>2022-07-20T17:45:52Z</time>
      </trkpt>
      <trkpt lat="47.3182250" lon="6.8279520">
        <ele>598.7</ele>
        <time>2022-07-20T17:45:53Z</time>
      </trkpt>
      <trkpt lat="47.3182260" lon="6.8279530">
        <ele>598.7</ele>
        <time>2022-07-20T17:45:54Z</time>
      </trkpt>
      <trkpt lat="47.3182260" lon="6.8279540">
        <ele>598.7</ele>
        <time>2022-07-20T17:45:55Z</time>
      </trkpt>
      <trkpt lat="47.3182260" lon="6.8279570">
        <ele>598.7</ele>
        <time>2022-07-20T17:45:56Z</time>
      </trkpt>
      <trkpt lat="47.3182090" lon="6.8280170">
        <ele>599.0</ele>
        <time>2022-07-20T17:46:08Z</time>
      </trkpt>
      <trkpt lat="47.3182020" lon="6.8280270">
        <ele>599.1</ele>
        <time>2022-07-20T17:46:09Z</time>
      </trkpt>
      <trkpt lat="47.3181990" lon="6.8280310">
        <ele>599.1</ele>
        <time>2022-07-20T17:46:10Z</time>
      </trkpt>
      <trkpt lat="47.3181980" lon="6.8280310">
        <ele>599.1</ele>
        <time>2022-07-20T17:46:11Z</time>
      </trkpt>
      <trkpt lat="47.3181990" lon="6.8280300">
        <ele>599.1</ele>
        <time>2022-07-20T17:46:12Z</time>
      </trkpt>
      <trkpt lat="47.3182000" lon="6.8280280">
        <ele>599.1</ele>
        <time>2022-07-20T17:46:13Z</time>
      </trkpt>
      <trkpt lat="47.3182020" lon="6.8280260">
        <ele>599.1</ele>
        <time>2022-07-20T17:46:14Z</time>
      </trkpt>
      <trkpt lat="47.3182030" lon="6.8280250">
        <ele>599.1</ele>
        <time>2022-07-20T17:46:15Z</time>
      </trkpt>
      <trkpt lat="47.3182050" lon="6.8280230">
        <ele>599.1</ele>
        <time>2022-07-20T17:46:16Z</time>
      </trkpt>
      <trkpt lat="47.3182050" lon="6.8280220">
        <ele>599.2</ele>
        <time>2022-07-20T17:46:17Z</time>
      </trkpt>
      <trkpt lat="47.3182060" lon="6.8280220">
        <ele>599.2</ele>
        <time>2022-07-20T17:46:18Z</time>
      </trkpt>
      <trkpt lat="47.3182060" lon="6.8280220">
        <ele>599.2</ele>
        <time>2022-07-20T17:46:19Z</time>
      </trkpt>
      <trkpt lat="47.3182060" lon="6.8280220">
        <ele>599.2</ele>
        <time>2022-07-20T17:46:20Z</time>
      </trkpt>
      <trkpt lat="47.3182060" lon="6.8280220">
        <ele>599.2</ele>
        <time>2022-07-20T17:46:21Z</time>
      </trkpt>
      <trkpt lat="47.3182240" lon="6.8280600">
        <ele>599.4</ele>
        <time>2022-07-20T17:46:58Z</time>
      </trkpt>
      <trkpt lat="47.3182390" lon="6.8280350">
        <ele>599.5</ele>
        <time>2022-07-20T17:47:00Z</time>
      </trkpt>
      <trkpt lat="47.3182450" lon="6.8280440">
        <ele>599.5</ele>
        <time>2022-07-20T17:47:01Z</time>
      </trkpt>
      <trkpt lat="47.3182550" lon="6.8280440">
        <ele>599.6</ele>
        <time>2022-07-20T17:47:02Z</time>
      </trkpt>
      <trkpt lat="47.3182650" lon="6.8280890">
        <ele>599.8</ele>
        <time>2022-07-20T17:47:03Z</time>
      </trkpt>
      <trkpt lat="47.3182680" lon="6.8281030">
        <ele>599.9</ele>
        <time>2022-07-20T17:47:04Z</time>
      </trkpt>
      <trkpt lat="47.3182770" lon="6.8281450">
        <ele>600.1</ele>
        <time>2022-07-20T17:47:05Z</time>
      </trkpt>
      <trkpt lat="47.3182800" lon="6.8281590">
        <ele>600.1</ele>
        <time>2022-07-20T17:47:06Z</time>
      </trkpt>
      <trkpt lat="47.3182950" lon="6.8282120">
        <ele>600.4</ele>
        <time>2022-07-20T17:47:08Z</time>
      </trkpt>
      <trkpt lat="47.3183010" lon="6.8282290">
        <ele>600.5</ele>
        <time>2022-07-20T17:47:09Z</time>
      </trkpt>
      <trkpt lat="47.3183220" lon="6.8282820">
        <ele>600.7</ele>
        <time>2022-07-20T17:47:10Z</time>
      </trkpt>
      <trkpt lat="47.3183310" lon="6.8283030">
        <ele>600.9</ele>
        <time>2022-07-20T17:47:11Z</time>
      </trkpt>
      <trkpt lat="47.3183510" lon="6.8283640">
        <ele>601.2</ele>
        <time>2022-07-20T17:47:13Z</time>
      </trkpt>
      <trkpt lat="47.3183580" lon="6.8283880">
        <ele>601.3</ele>
        <time>2022-07-20T17:47:14Z</time>
      </trkpt>
      <trkpt lat="47.3183650" lon="6.8284110">
        <ele>601.4</ele>
        <time>2022-07-20T17:47:15Z</time>
      </trkpt>
      <trkpt lat="47.3183770" lon="6.8284570">
        <ele>601.6</ele>
        <time>2022-07-20T17:47:16Z</time>
      </trkpt>
      <trkpt lat="47.3183800" lon="6.8284710">
        <ele>601.7</ele>
        <time>2022-07-20T17:47:17Z</time>
      </trkpt>
      <trkpt lat="47.3183900" lon="6.8285120">
        <ele>601.9</ele>
        <time>2022-07-20T17:47:18Z</time>
      </trkpt>
      <trkpt lat="47.3183920" lon="6.8285250">
        <ele>601.9</ele>
        <time>2022-07-20T17:47:19Z</time>
      </trkpt>
      <trkpt lat="47.3184020" lon="6.8285700">
        <ele>602.2</ele>
        <time>2022-07-20T17:47:20Z</time>
      </trkpt>
      <trkpt lat="47.3184090" lon="6.8285870">
        <ele>602.2</ele>
        <time>2022-07-20T17:47:21Z</time>
      </trkpt>
      <trkpt lat="47.3184240" lon="6.8286210">
        <ele>602.4</ele>
        <time>2022-07-20T17:47:22Z</time>
      </trkpt>
      <trkpt lat="47.3184400" lon="6.8286620">
        <ele>602.6</ele>
        <time>2022-07-20T17:47:24Z</time>
      </trkpt>
      <trkpt lat="47.3184430" lon="6.8286730">
        <ele>602.6</ele>
        <time>2022-07-20T17:47:25Z</time>
      </trkpt>
      <trkpt lat="47.3184510" lon="6.8287090">
        <ele>602.7</ele>
        <time>2022-07-20T17:47:26Z</time>
      </trkpt>
      <trkpt lat="47.3184540" lon="6.8287240">
        <ele>602.8</ele>
        <time>2022-07-20T17:47:27Z</time>
      </trkpt>
      <trkpt lat="47.3184530" lon="6.8287640">
        <ele>603.0</ele>
        <time>2022-07-20T17:47:28Z</time>
      </trkpt>
      <trkpt lat="47.3184450" lon="6.8288280">
        <ele>603.2</ele>
        <time>2022-07-20T17:47:30Z</time>
      </trkpt>
      <trkpt lat="47.3184430" lon="6.8288520">
        <ele>603.3</ele>
        <time>2022-07-20T17:47:31Z</time>
      </trkpt>
      <trkpt lat="47.3184420" lon="6.8288750">
        <ele>603.4</ele>
        <time>2022-07-20T17:47:32Z</time>
      </trkpt>
      <trkpt lat="47.3184450" lon="6.8289250">
        <ele>603.5</ele>
        <time>2022-07-20T17:47:34Z</time>
      </trkpt>
      <trkpt lat="47.3184460" lon="6.8289400">
        <ele>603.6</ele>
        <time>2022-07-20T17:47:35Z</time>
      </trkpt>
      <trkpt lat="47.3184530" lon="6.8289870">
        <ele>603.8</ele>
        <time>2022-07-20T17:47:36Z</time>
      </trkpt>
      <trkpt lat="47.3184580" lon="6.8290070">
        <ele>603.9</ele>
        <time>2022-07-20T17:47:37Z</time>
      </trkpt>
      <trkpt lat="47.3184680" lon="6.8290510">
        <ele>604.1</ele>
        <time>2022-07-20T17:47:39Z</time>
      </trkpt>
      <trkpt lat="47.3184730" lon="6.8290660">
        <ele>604.2</ele>
        <time>2022-07-20T17:47:40Z</time>
      </trkpt>
      <trkpt lat="47.3184800" lon="6.8291120">
        <ele>604.4</ele>
        <time>2022-07-20T17:47:41Z</time>
      </trkpt>
      <trkpt lat="47.3184870" lon="6.8291600">
        <ele>604.6</ele>
        <time>2022-07-20T17:47:43Z</time>
      </trkpt>
      <trkpt lat="47.3184900" lon="6.8291760">
        <ele>604.7</ele>
        <time>2022-07-20T17:47:44Z</time>
      </trkpt>
      <trkpt lat="47.3185070" lon="6.8292140">
        <ele>604.9</ele>
        <time>2022-07-20T17:47:45Z</time>
      </trkpt>
      <trkpt lat="47.3185130" lon="6.8292260">
        <ele>605.0</ele>
        <time>2022-07-20T17:47:46Z</time>
      </trkpt>
      <trkpt lat="47.3185260" lon="6.8292550">
        <ele>605.1</ele>
        <time>2022-07-20T17:47:47Z</time>
      </trkpt>
      <trkpt lat="47.3185290" lon="6.8292860">
        <ele>605.3</ele>
        <time>2022-07-20T17:47:49Z</time>
      </trkpt>
      <trkpt lat="47.3185370" lon="6.8293050">
        <ele>605.4</ele>
        <time>2022-07-20T17:47:50Z</time>
      </trkpt>
      <trkpt lat="47.3185410" lon="6.8293440">
        <ele>605.5</ele>
        <time>2022-07-20T17:47:52Z</time>
      </trkpt>
      <trkpt lat="47.3185450" lon="6.8293740">
        <ele>605.7</ele>
        <time>2022-07-20T17:47:53Z</time>
      </trkpt>
      <trkpt lat="47.3185430" lon="6.8293960">
        <ele>605.8</ele>
        <time>2022-07-20T17:47:54Z</time>
      </trkpt>
      <trkpt lat="47.3185470" lon="6.8294220">
        <ele>605.9</ele>
        <time>2022-07-20T17:47:55Z</time>
      </trkpt>
      <trkpt lat="47.3185510" lon="6.8294420">
        <ele>606.0</ele>
        <time>2022-07-20T17:47:56Z</time>
      </trkpt>
      <trkpt lat="47.3185570" lon="6.8294670">
        <ele>606.1</ele>
        <time>2022-07-20T17:47:57Z</time>
      </trkpt>
      <trkpt lat="47.3185630" lon="6.8295000">
        <ele>606.2</ele>
        <time>2022-07-20T17:47:59Z</time>
      </trkpt>
      <trkpt lat="47.3185710" lon="6.8295520">
        <ele>606.4</ele>
        <time>2022-07-20T17:48:00Z</time>
      </trkpt>
      <trkpt lat="47.3185740" lon="6.8295670">
        <ele>606.5</ele>
        <time>2022-07-20T17:48:01Z</time>
      </trkpt>
      <trkpt lat="47.3185770" lon="6.8296130">
        <ele>606.6</ele>
        <time>2022-07-20T17:48:02Z</time>
      </trkpt>
      <trkpt lat="47.3185770" lon="6.8296280">
        <ele>606.7</ele>
        <time>2022-07-20T17:48:03Z</time>
      </trkpt>
      <trkpt lat="47.3185770" lon="6.8296690">
        <ele>606.8</ele>
        <time>2022-07-20T17:48:04Z</time>
      </trkpt>
      <trkpt lat="47.3185750" lon="6.8297090">
        <ele>606.9</ele>
        <time>2022-07-20T17:48:06Z</time>
      </trkpt>
      <trkpt lat="47.3185700" lon="6.8297440">
        <ele>607.0</ele>
        <time>2022-07-20T17:48:07Z</time>
      </trkpt>
      <trkpt lat="47.3185700" lon="6.8297860">
        <ele>607.1</ele>
        <time>2022-07-20T17:48:09Z</time>
      </trkpt>
      <trkpt lat="47.3185700" lon="6.8298290">
        <ele>607.3</ele>
        <time>2022-07-20T17:48:10Z</time>
      </trkpt>
      <trkpt lat="47.3185700" lon="6.8298420">
        <ele>607.3</ele>
        <time>2022-07-20T17:48:11Z</time>
      </trkpt>
      <trkpt lat="47.3185640" lon="6.8298770">
        <ele>607.4</ele>
        <time>2022-07-20T17:48:12Z</time>
      </trkpt>
      <trkpt lat="47.3185590" lon="6.8299200">
        <ele>607.5</ele>
        <time>2022-07-20T17:48:14Z</time>
      </trkpt>
      <trkpt lat="47.3185580" lon="6.8299630">
        <ele>607.6</ele>
        <time>2022-07-20T17:48:15Z</time>
      </trkpt>
      <trkpt lat="47.3185580" lon="6.8299780">
        <ele>607.7</ele>
        <time>2022-07-20T17:48:16Z</time>
      </trkpt>
      <trkpt lat="47.3185610" lon="6.8300180">
        <ele>607.8</ele>
        <time>2022-07-20T17:48:17Z</time>
      </trkpt>
      <trkpt lat="47.3185640" lon="6.8300320">
        <ele>607.8</ele>
        <time>2022-07-20T17:48:18Z</time>
      </trkpt>
      <trkpt lat="47.3185760" lon="6.8300610">
        <ele>607.9</ele>
        <time>2022-07-20T17:48:19Z</time>
      </trkpt>
      <trkpt lat="47.3185930" lon="6.8301070">
        <ele>608.0</ele>
        <time>2022-07-20T17:48:21Z</time>
      </trkpt>
      <trkpt lat="47.3186020" lon="6.8301390">
        <ele>608.1</ele>
        <time>2022-07-20T17:48:22Z</time>
      </trkpt>
      <trkpt lat="47.3186080" lon="6.8301780">
        <ele>608.2</ele>
        <time>2022-07-20T17:48:24Z</time>
      </trkpt>
      <trkpt lat="47.3186150" lon="6.8302200">
        <ele>608.4</ele>
        <time>2022-07-20T17:48:25Z</time>
      </trkpt>
      <trkpt lat="47.3186170" lon="6.8302340">
        <ele>608.4</ele>
        <time>2022-07-20T17:48:26Z</time>
      </trkpt>
      <trkpt lat="47.3186190" lon="6.8302750">
        <ele>608.5</ele>
        <time>2022-07-20T17:48:27Z</time>
      </trkpt>
      <trkpt lat="47.3186190" lon="6.8302870">
        <ele>608.5</ele>
        <time>2022-07-20T17:48:28Z</time>
      </trkpt>
      <trkpt lat="47.3186220" lon="6.8303380">
        <ele>608.7</ele>
        <time>2022-07-20T17:48:29Z</time>
      </trkpt>
      <trkpt lat="47.3186240" lon="6.8303520">
        <ele>608.7</ele>
        <time>2022-07-20T17:48:30Z</time>
      </trkpt>
      <trkpt lat="47.3186260" lon="6.8304220">
        <ele>608.9</ele>
        <time>2022-07-20T17:48:32Z</time>
      </trkpt>
      <trkpt lat="47.3186270" lon="6.8304440">
        <ele>608.9</ele>
        <time>2022-07-20T17:48:33Z</time>
      </trkpt>
      <trkpt lat="47.3186270" lon="6.8304660">
        <ele>609.0</ele>
        <time>2022-07-20T17:48:34Z</time>
      </trkpt>
      <trkpt lat="47.3186340" lon="6.8305190">
        <ele>609.2</ele>
        <time>2022-07-20T17:48:36Z</time>
      </trkpt>
      <trkpt lat="47.3186360" lon="6.8305330">
        <ele>609.2</ele>
        <time>2022-07-20T17:48:37Z</time>
      </trkpt>
      <trkpt lat="47.3186450" lon="6.8305720">
        <ele>609.3</ele>
        <time>2022-07-20T17:48:38Z</time>
      </trkpt>
      <trkpt lat="47.3186470" lon="6.8305850">
        <ele>609.3</ele>
        <time>2022-07-20T17:48:39Z</time>
      </trkpt>
      <trkpt lat="47.3186510" lon="6.8306100">
        <ele>609.4</ele>
        <time>2022-07-20T17:48:40Z</time>
      </trkpt>
      <trkpt lat="47.3186520" lon="6.8306320">
        <ele>609.5</ele>
        <time>2022-07-20T17:48:41Z</time>
      </trkpt>
      <trkpt lat="47.3186530" lon="6.8306740">
        <ele>609.6</ele>
        <time>2022-07-20T17:48:42Z</time>
      </trkpt>
      <trkpt lat="47.3186530" lon="6.8306890">
        <ele>609.6</ele>
        <time>2022-07-20T17:48:43Z</time>
      </trkpt>
      <trkpt lat="47.3186490" lon="6.8307340">
        <ele>609.8</ele>
        <time>2022-07-20T17:48:44Z</time>
      </trkpt>
      <trkpt lat="47.3186480" lon="6.8307460">
        <ele>609.8</ele>
        <time>2022-07-20T17:48:45Z</time>
      </trkpt>
      <trkpt lat="47.3186350" lon="6.8307890">
        <ele>609.9</ele>
        <time>2022-07-20T17:48:46Z</time>
      </trkpt>
      <trkpt lat="47.3186260" lon="6.8308350">
        <ele>610.1</ele>
        <time>2022-07-20T17:48:48Z</time>
      </trkpt>
      <trkpt lat="47.3186240" lon="6.8308510">
        <ele>610.1</ele>
        <time>2022-07-20T17:48:49Z</time>
      </trkpt>
      <trkpt lat="47.3186230" lon="6.8308750">
        <ele>610.2</ele>
        <time>2022-07-20T17:48:50Z</time>
      </trkpt>
      <trkpt lat="47.3186260" lon="6.8308930">
        <ele>610.2</ele>
        <time>2022-07-20T17:48:51Z</time>
      </trkpt>
      <trkpt lat="47.3186250" lon="6.8309230">
        <ele>610.3</ele>
        <time>2022-07-20T17:48:52Z</time>
      </trkpt>
      <trkpt lat="47.3186250" lon="6.8309420">
        <ele>610.4</ele>
        <time>2022-07-20T17:48:53Z</time>
      </trkpt>
      <trkpt lat="47.3186300" lon="6.8309870">
        <ele>610.5</ele>
        <time>2022-07-20T17:48:54Z</time>
      </trkpt>
      <trkpt lat="47.3186320" lon="6.8310030">
        <ele>610.5</ele>
        <time>2022-07-20T17:48:55Z</time>
      </trkpt>
      <trkpt lat="47.3186370" lon="6.8310470">
        <ele>610.7</ele>
        <time>2022-07-20T17:48:56Z</time>
      </trkpt>
      <trkpt lat="47.3186370" lon="6.8310630">
        <ele>610.7</ele>
        <time>2022-07-20T17:48:57Z</time>
      </trkpt>
      <trkpt lat="47.3186360" lon="6.8310980">
        <ele>610.8</ele>
        <time>2022-07-20T17:48:58Z</time>
      </trkpt>
      <trkpt lat="47.3186350" lon="6.8311100">
        <ele>610.8</ele>
        <time>2022-07-20T17:49:00Z</time>
      </trkpt>
      <trkpt lat="47.3186350" lon="6.8311220">
        <ele>610.9</ele>
        <time>2022-07-20T17:49:01Z</time>
      </trkpt>
      <trkpt lat="47.3186400" lon="6.8311740">
        <ele>611.0</ele>
        <time>2022-07-20T17:49:02Z</time>
      </trkpt>
      <trkpt lat="47.3186410" lon="6.8311890">
        <ele>611.0</ele>
        <time>2022-07-20T17:49:03Z</time>
      </trkpt>
      <trkpt lat="47.3186320" lon="6.8312440">
        <ele>611.2</ele>
        <time>2022-07-20T17:49:05Z</time>
      </trkpt>
      <trkpt lat="47.3186360" lon="6.8312590">
        <ele>611.3</ele>
        <time>2022-07-20T17:49:06Z</time>
      </trkpt>
      <trkpt lat="47.3186390" lon="6.8312730">
        <ele>611.3</ele>
        <time>2022-07-20T17:49:07Z</time>
      </trkpt>
      <trkpt lat="47.3186430" lon="6.8312880">
        <ele>611.3</ele>
        <time>2022-07-20T17:49:08Z</time>
      </trkpt>
      <trkpt lat="47.3186510" lon="6.8313250">
        <ele>611.5</ele>
        <time>2022-07-20T17:49:09Z</time>
      </trkpt>
      <trkpt lat="47.3186560" lon="6.8313440">
        <ele>611.5</ele>
        <time>2022-07-20T17:49:10Z</time>
      </trkpt>
      <trkpt lat="47.3186770" lon="6.8313840">
        <ele>611.7</ele>
        <time>2022-07-20T17:49:12Z</time>
      </trkpt>
      <trkpt lat="47.3186830" lon="6.8313930">
        <ele>611.7</ele>
        <time>2022-07-20T17:49:13Z</time>
      </trkpt>
      <trkpt lat="47.3186940" lon="6.8314130">
        <ele>611.8</ele>
        <time>2022-07-20T17:49:14Z</time>
      </trkpt>
      <trkpt lat="47.3187060" lon="6.8314610">
        <ele>611.9</ele>
        <time>2022-07-20T17:49:16Z</time>
      </trkpt>
      <trkpt lat="47.3187240" lon="6.8314980">
        <ele>612.1</ele>
        <time>2022-07-20T17:49:17Z</time>
      </trkpt>
      <trkpt lat="47.3187300" lon="6.8315110">
        <ele>612.1</ele>
        <time>2022-07-20T17:49:18Z</time>
      </trkpt>
      <trkpt lat="47.3187460" lon="6.8315510">
        <ele>612.3</ele>
        <time>2022-07-20T17:49:19Z</time>
      </trkpt>
      <trkpt lat="47.3187520" lon="6.8315700">
        <ele>612.3</ele>
        <time>2022-07-20T17:49:20Z</time>
      </trkpt>
      <trkpt lat="47.3187690" lon="6.8316080">
        <ele>612.4</ele>
        <time>2022-07-20T17:49:22Z</time>
      </trkpt>
      <trkpt lat="47.3187730" lon="6.8316200">
        <ele>612.5</ele>
        <time>2022-07-20T17:49:23Z</time>
      </trkpt>
      <trkpt lat="47.3187840" lon="6.8316540">
        <ele>612.5</ele>
        <time>2022-07-20T17:49:24Z</time>
      </trkpt>
      <trkpt lat="47.3187870" lon="6.8316700">
        <ele>612.6</ele>
        <time>2022-07-20T17:49:25Z</time>
      </trkpt>
      <trkpt lat="47.3187840" lon="6.8317100">
        <ele>612.7</ele>
        <time>2022-07-20T17:49:26Z</time>
      </trkpt>
      <trkpt lat="47.3187840" lon="6.8317270">
        <ele>612.7</ele>
        <time>2022-07-20T17:49:27Z</time>
      </trkpt>
      <trkpt lat="47.3187830" lon="6.8317450">
        <ele>612.8</ele>
        <time>2022-07-20T17:49:28Z</time>
      </trkpt>
      <trkpt lat="47.3187820" lon="6.8317630">
        <ele>612.8</ele>
        <time>2022-07-20T17:49:30Z</time>
      </trkpt>
      <trkpt lat="47.3187820" lon="6.8317730">
        <ele>612.8</ele>
        <time>2022-07-20T17:49:31Z</time>
      </trkpt>
      <trkpt lat="47.3187980" lon="6.8318410">
        <ele>613.0</ele>
        <time>2022-07-20T17:49:33Z</time>
      </trkpt>
      <trkpt lat="47.3188020" lon="6.8318630">
        <ele>613.1</ele>
        <time>2022-07-20T17:49:34Z</time>
      </trkpt>
      <trkpt lat="47.3188060" lon="6.8318850">
        <ele>613.1</ele>
        <time>2022-07-20T17:49:35Z</time>
      </trkpt>
      <trkpt lat="47.3188200" lon="6.8319380">
        <ele>613.3</ele>
        <time>2022-07-20T17:49:36Z</time>
      </trkpt>
      <trkpt lat="47.3188260" lon="6.8319570">
        <ele>613.3</ele>
        <time>2022-07-20T17:49:37Z</time>
      </trkpt>
      <trkpt lat="47.3188360" lon="6.8319900">
        <ele>613.5</ele>
        <time>2022-07-20T17:49:38Z</time>
      </trkpt>
      <trkpt lat="47.3188480" lon="6.8320360">
        <ele>613.6</ele>
        <time>2022-07-20T17:49:40Z</time>
      </trkpt>
      <trkpt lat="47.3188610" lon="6.8320810">
        <ele>613.7</ele>
        <time>2022-07-20T17:49:41Z</time>
      </trkpt>
      <trkpt lat="47.3188630" lon="6.8320930">
        <ele>613.8</ele>
        <time>2022-07-20T17:49:42Z</time>
      </trkpt>
      <trkpt lat="47.3188770" lon="6.8321330">
        <ele>613.9</ele>
        <time>2022-07-20T17:49:43Z</time>
      </trkpt>
      <trkpt lat="47.3188880" lon="6.8321780">
        <ele>614.0</ele>
        <time>2022-07-20T17:49:45Z</time>
      </trkpt>
      <trkpt lat="47.3188930" lon="6.8322230">
        <ele>614.1</ele>
        <time>2022-07-20T17:49:46Z</time>
      </trkpt>
      <trkpt lat="47.3188940" lon="6.8322660">
        <ele>614.2</ele>
        <time>2022-07-20T17:49:47Z</time>
      </trkpt>
      <trkpt lat="47.3188930" lon="6.8322810">
        <ele>614.3</ele>
        <time>2022-07-20T17:49:48Z</time>
      </trkpt>
      <trkpt lat="47.3188870" lon="6.8323270">
        <ele>614.4</ele>
        <time>2022-07-20T17:49:50Z</time>
      </trkpt>
      <trkpt lat="47.3188830" lon="6.8323440">
        <ele>614.4</ele>
        <time>2022-07-20T17:49:51Z</time>
      </trkpt>
      <trkpt lat="47.3188750" lon="6.8323900">
        <ele>614.6</ele>
        <time>2022-07-20T17:49:52Z</time>
      </trkpt>
      <trkpt lat="47.3188720" lon="6.8324060">
        <ele>614.6</ele>
        <time>2022-07-20T17:49:53Z</time>
      </trkpt>
      <trkpt lat="47.3188610" lon="6.8324250">
        <ele>614.7</ele>
        <time>2022-07-20T17:49:55Z</time>
      </trkpt>
      <trkpt lat="47.3188510" lon="6.8324460">
        <ele>614.7</ele>
        <time>2022-07-20T17:49:56Z</time>
      </trkpt>
      <trkpt lat="47.3188490" lon="6.8324620">
        <ele>614.8</ele>
        <time>2022-07-20T17:49:57Z</time>
      </trkpt>
      <trkpt lat="47.3188460" lon="6.8324740">
        <ele>614.8</ele>
        <time>2022-07-20T17:49:59Z</time>
      </trkpt>
      <trkpt lat="47.3188400" lon="6.8324920">
        <ele>614.9</ele>
        <time>2022-07-20T17:50:00Z</time>
      </trkpt>
      <trkpt lat="47.3188360" lon="6.8325090">
        <ele>614.9</ele>
        <time>2022-07-20T17:50:01Z</time>
      </trkpt>
      <trkpt lat="47.3188360" lon="6.8325250">
        <ele>615.0</ele>
        <time>2022-07-20T17:50:02Z</time>
      </trkpt>
      <trkpt lat="47.3188360" lon="6.8325380">
        <ele>615.0</ele>
        <time>2022-07-20T17:50:03Z</time>
      </trkpt>
      <trkpt lat="47.3188400" lon="6.8325590">
        <ele>615.0</ele>
        <time>2022-07-20T17:50:04Z</time>
      </trkpt>
      <trkpt lat="47.3188430" lon="6.8325760">
        <ele>615.1</ele>
        <time>2022-07-20T17:50:05Z</time>
      </trkpt>
      <trkpt lat="47.3188510" lon="6.8326170">
        <ele>615.2</ele>
        <time>2022-07-20T17:50:07Z</time>
      </trkpt>
      <trkpt lat="47.3188650" lon="6.8326560">
        <ele>615.3</ele>
        <time>2022-07-20T17:50:08Z</time>
      </trkpt>
      <trkpt lat="47.3188700" lon="6.8326680">
        <ele>615.4</ele>
        <time>2022-07-20T17:50:09Z</time>
      </trkpt>
      <trkpt lat="47.3188730" lon="6.8326890">
        <ele>615.4</ele>
        <time>2022-07-20T17:50:11Z</time>
      </trkpt>
      <trkpt lat="47.3188780" lon="6.8327190">
        <ele>615.5</ele>
        <time>2022-07-20T17:50:12Z</time>
      </trkpt>
      <trkpt lat="47.3188820" lon="6.8327350">
        <ele>615.6</ele>
        <time>2022-07-20T17:50:13Z</time>
      </trkpt>
      <trkpt lat="47.3188840" lon="6.8327610">
        <ele>615.7</ele>
        <time>2022-07-20T17:50:14Z</time>
      </trkpt>
      <trkpt lat="47.3188820" lon="6.8327980">
        <ele>615.8</ele>
        <time>2022-07-20T17:50:15Z</time>
      </trkpt>
      <trkpt lat="47.3188800" lon="6.8328240">
        <ele>615.9</ele>
        <time>2022-07-20T17:50:17Z</time>
      </trkpt>
      <trkpt lat="47.3188850" lon="6.8328420">
        <ele>615.9</ele>
        <time>2022-07-20T17:50:18Z</time>
      </trkpt>
      <trkpt lat="47.3188980" lon="6.8328670">
        <ele>616.0</ele>
        <time>2022-07-20T17:50:19Z</time>
      </trkpt>
      <trkpt lat="47.3189170" lon="6.8328970">
        <ele>616.2</ele>
        <time>2022-07-20T17:50:21Z</time>
      </trkpt>
      <trkpt lat="47.3189230" lon="6.8329080">
        <ele>616.2</ele>
        <time>2022-07-20T17:50:22Z</time>
      </trkpt>
      <trkpt lat="47.3189410" lon="6.8329530">
        <ele>616.4</ele>
        <time>2022-07-20T17:50:23Z</time>
      </trkpt>
      <trkpt lat="47.3189460" lon="6.8329680">
        <ele>616.4</ele>
        <time>2022-07-20T17:50:24Z</time>
      </trkpt>
      <trkpt lat="47.3189530" lon="6.8330100">
        <ele>616.6</ele>
        <time>2022-07-20T17:50:25Z</time>
      </trkpt>
      <trkpt lat="47.3189540" lon="6.8330260">
        <ele>616.6</ele>
        <time>2022-07-20T17:50:26Z</time>
      </trkpt>
      <trkpt lat="47.3189630" lon="6.8330750">
        <ele>616.8</ele>
        <time>2022-07-20T17:50:27Z</time>
      </trkpt>
      <trkpt lat="47.3189670" lon="6.8330900">
        <ele>616.9</ele>
        <time>2022-07-20T17:50:28Z</time>
      </trkpt>
      <trkpt lat="47.3189770" lon="6.8331190">
        <ele>617.0</ele>
        <time>2022-07-20T17:50:29Z</time>
      </trkpt>
      <trkpt lat="47.3189840" lon="6.8331570">
        <ele>617.1</ele>
        <time>2022-07-20T17:50:31Z</time>
      </trkpt>
      <trkpt lat="47.3189790" lon="6.8332000">
        <ele>617.3</ele>
        <time>2022-07-20T17:50:32Z</time>
      </trkpt>
      <trkpt lat="47.3189770" lon="6.8332150">
        <ele>617.3</ele>
        <time>2022-07-20T17:50:33Z</time>
      </trkpt>
      <trkpt lat="47.3189700" lon="6.8332670">
        <ele>617.5</ele>
        <time>2022-07-20T17:50:35Z</time>
      </trkpt>
      <trkpt lat="47.3189700" lon="6.8332850">
        <ele>617.6</ele>
        <time>2022-07-20T17:50:36Z</time>
      </trkpt>
      <trkpt lat="47.3189770" lon="6.8333240">
        <ele>617.7</ele>
        <time>2022-07-20T17:50:37Z</time>
      </trkpt>
      <trkpt lat="47.3189810" lon="6.8333360">
        <ele>617.8</ele>
        <time>2022-07-20T17:50:38Z</time>
      </trkpt>
      <trkpt lat="47.3189890" lon="6.8333580">
        <ele>617.8</ele>
        <time>2022-07-20T17:50:39Z</time>
      </trkpt>
      <trkpt lat="47.3190000" lon="6.8333880">
        <ele>618.0</ele>
        <time>2022-07-20T17:50:41Z</time>
      </trkpt>
      <trkpt lat="47.3190140" lon="6.8334250">
        <ele>618.1</ele>
        <time>2022-07-20T17:50:42Z</time>
      </trkpt>
      <trkpt lat="47.3190190" lon="6.8334360">
        <ele>618.2</ele>
        <time>2022-07-20T17:50:43Z</time>
      </trkpt>
      <trkpt lat="47.3190340" lon="6.8334710">
        <ele>618.3</ele>
        <time>2022-07-20T17:50:44Z</time>
      </trkpt>
      <trkpt lat="47.3190380" lon="6.8334820">
        <ele>618.3</ele>
        <time>2022-07-20T17:50:45Z</time>
      </trkpt>
      <trkpt lat="47.3190380" lon="6.8335000">
        <ele>618.4</ele>
        <time>2022-07-20T17:50:46Z</time>
      </trkpt>
      <trkpt lat="47.3190360" lon="6.8335330">
        <ele>618.5</ele>
        <time>2022-07-20T17:50:47Z</time>
      </trkpt>
      <trkpt lat="47.3190290" lon="6.8335870">
        <ele>618.7</ele>
        <time>2022-07-20T17:50:49Z</time>
      </trkpt>
      <trkpt lat="47.3190160" lon="6.8336440">
        <ele>618.9</ele>
        <time>2022-07-20T17:50:51Z</time>
      </trkpt>
      <trkpt lat="47.3190050" lon="6.8336830">
        <ele>619.0</ele>
        <time>2022-07-20T17:50:52Z</time>
      </trkpt>
      <trkpt lat="47.3189890" lon="6.8337310">
        <ele>619.2</ele>
        <time>2022-07-20T17:50:53Z</time>
      </trkpt>
      <trkpt lat="47.3189850" lon="6.8337460">
        <ele>619.2</ele>
        <time>2022-07-20T17:50:54Z</time>
      </trkpt>
      <trkpt lat="47.3189810" lon="6.8337720">
        <ele>619.3</ele>
        <time>2022-07-20T17:50:55Z</time>
      </trkpt>
      <trkpt lat="47.3189810" lon="6.8337940">
        <ele>619.4</ele>
        <time>2022-07-20T17:50:56Z</time>
      </trkpt>
      <trkpt lat="47.3189830" lon="6.8338380">
        <ele>619.5</ele>
        <time>2022-07-20T17:50:57Z</time>
      </trkpt>
      <trkpt lat="47.3189860" lon="6.8338500">
        <ele>619.5</ele>
        <time>2022-07-20T17:50:58Z</time>
      </trkpt>
      <trkpt lat="47.3189930" lon="6.8338770">
        <ele>619.6</ele>
        <time>2022-07-20T17:50:59Z</time>
      </trkpt>
      <trkpt lat="47.3190010" lon="6.8338960">
        <ele>619.7</ele>
        <time>2022-07-20T17:51:01Z</time>
      </trkpt>
      <trkpt lat="47.3190140" lon="6.8339340">
        <ele>619.8</ele>
        <time>2022-07-20T17:51:02Z</time>
      </trkpt>
      <trkpt lat="47.3190240" lon="6.8339850">
        <ele>620.0</ele>
        <time>2022-07-20T17:51:03Z</time>
      </trkpt>
      <trkpt lat="47.3190270" lon="6.8340010">
        <ele>620.0</ele>
        <time>2022-07-20T17:51:04Z</time>
      </trkpt>
      <trkpt lat="47.3190330" lon="6.8340640">
        <ele>620.2</ele>
        <time>2022-07-20T17:51:06Z</time>
      </trkpt>
      <trkpt lat="47.3190370" lon="6.8340880">
        <ele>620.3</ele>
        <time>2022-07-20T17:51:07Z</time>
      </trkpt>
      <trkpt lat="47.3190420" lon="6.8341110">
        <ele>620.3</ele>
        <time>2022-07-20T17:51:08Z</time>
      </trkpt>
      <trkpt lat="47.3190450" lon="6.8341410">
        <ele>620.4</ele>
        <time>2022-07-20T17:51:09Z</time>
      </trkpt>
      <trkpt lat="47.3190480" lon="6.8341700">
        <ele>620.5</ele>
        <time>2022-07-20T17:51:11Z</time>
      </trkpt>
      <trkpt lat="47.3190460" lon="6.8342130">
        <ele>620.6</ele>
        <time>2022-07-20T17:51:12Z</time>
      </trkpt>
      <trkpt lat="47.3190440" lon="6.8342280">
        <ele>620.7</ele>
        <time>2022-07-20T17:51:13Z</time>
      </trkpt>
      <trkpt lat="47.3190400" lon="6.8342520">
        <ele>620.7</ele>
        <time>2022-07-20T17:51:14Z</time>
      </trkpt>
      <trkpt lat="47.3190370" lon="6.8342720">
        <ele>620.8</ele>
        <time>2022-07-20T17:51:15Z</time>
      </trkpt>
      <trkpt lat="47.3190420" lon="6.8343180">
        <ele>620.9</ele>
        <time>2022-07-20T17:51:16Z</time>
      </trkpt>
      <trkpt lat="47.3190440" lon="6.8343340">
        <ele>620.9</ele>
        <time>2022-07-20T17:51:17Z</time>
      </trkpt>
      <trkpt lat="47.3190510" lon="6.8343690">
        <ele>621.0</ele>
        <time>2022-07-20T17:51:18Z</time>
      </trkpt>
      <trkpt lat="47.3190600" lon="6.8344110">
        <ele>621.2</ele>
        <time>2022-07-20T17:51:20Z</time>
      </trkpt>
      <trkpt lat="47.3190650" lon="6.8344410">
        <ele>621.2</ele>
        <time>2022-07-20T17:51:21Z</time>
      </trkpt>
      <trkpt lat="47.3190680" lon="6.8344530">
        <ele>621.3</ele>
        <time>2022-07-20T17:51:22Z</time>
      </trkpt>
      <trkpt lat="47.3190700" lon="6.8344650">
        <ele>621.3</ele>
        <time>2022-07-20T17:51:23Z</time>
      </trkpt>
      <trkpt lat="47.3190780" lon="6.8344930">
        <ele>621.4</ele>
        <time>2022-07-20T17:51:25Z</time>
      </trkpt>
      <trkpt lat="47.3190790" lon="6.8345100">
        <ele>621.5</ele>
        <time>2022-07-20T17:51:26Z</time>
      </trkpt>
      <trkpt lat="47.3190800" lon="6.8345370">
        <ele>621.5</ele>
        <time>2022-07-20T17:51:27Z</time>
      </trkpt>
      <trkpt lat="47.3190790" lon="6.8345510">
        <ele>621.6</ele>
        <time>2022-07-20T17:51:28Z</time>
      </trkpt>
      <trkpt lat="47.3190790" lon="6.8345650">
        <ele>621.6</ele>
        <time>2022-07-20T17:51:29Z</time>
      </trkpt>
      <trkpt lat="47.3190750" lon="6.8345870">
        <ele>621.7</ele>
        <time>2022-07-20T17:51:30Z</time>
      </trkpt>
      <trkpt lat="47.3190780" lon="6.8346270">
        <ele>621.8</ele>
        <time>2022-07-20T17:51:32Z</time>
      </trkpt>
      <trkpt lat="47.3190730" lon="6.8346830">
        <ele>622.0</ele>
        <time>2022-07-20T17:51:33Z</time>
      </trkpt>
      <trkpt lat="47.3190680" lon="6.8347020">
        <ele>622.0</ele>
        <time>2022-07-20T17:51:34Z</time>
      </trkpt>
      <trkpt lat="47.3190620" lon="6.8347430">
        <ele>622.1</ele>
        <time>2022-07-20T17:51:35Z</time>
      </trkpt>
      <trkpt lat="47.3190550" lon="6.8347710">
        <ele>622.2</ele>
        <time>2022-07-20T17:51:36Z</time>
      </trkpt>
      <trkpt lat="47.3190500" lon="6.8348090">
        <ele>622.3</ele>
        <time>2022-07-20T17:51:38Z</time>
      </trkpt>
      <trkpt lat="47.3190470" lon="6.8348670">
        <ele>622.5</ele>
        <time>2022-07-20T17:51:39Z</time>
      </trkpt>
      <trkpt lat="47.3190470" lon="6.8348880">
        <ele>622.5</ele>
        <time>2022-07-20T17:51:40Z</time>
      </trkpt>
      <trkpt lat="47.3190430" lon="6.8349280">
        <ele>622.7</ele>
        <time>2022-07-20T17:51:41Z</time>
      </trkpt>
      <trkpt lat="47.3190410" lon="6.8349420">
        <ele>622.7</ele>
        <time>2022-07-20T17:51:42Z</time>
      </trkpt>
      <trkpt lat="47.3190200" lon="6.8349950">
        <ele>622.9</ele>
        <time>2022-07-20T17:51:44Z</time>
      </trkpt>
      <trkpt lat="47.3190160" lon="6.8350300">
        <ele>623.0</ele>
        <time>2022-07-20T17:51:45Z</time>
      </trkpt>
      <trkpt lat="47.3190140" lon="6.8350490">
        <ele>623.0</ele>
        <time>2022-07-20T17:51:46Z</time>
      </trkpt>
      <trkpt lat="47.3190100" lon="6.8350780">
        <ele>623.1</ele>
        <time>2022-07-20T17:51:47Z</time>
      </trkpt>
      <trkpt lat="47.3190080" lon="6.8350960">
        <ele>623.2</ele>
        <time>2022-07-20T17:51:48Z</time>
      </trkpt>
      <trkpt lat="47.3190040" lon="6.8351190">
        <ele>623.2</ele>
        <time>2022-07-20T17:51:49Z</time>
      </trkpt>
      <trkpt lat="47.3190030" lon="6.8351580">
        <ele>623.3</ele>
        <time>2022-07-20T17:51:51Z</time>
      </trkpt>
      <trkpt lat="47.3190070" lon="6.8351980">
        <ele>623.5</ele>
        <time>2022-07-20T17:51:52Z</time>
      </trkpt>
      <trkpt lat="47.3190110" lon="6.8352130">
        <ele>623.5</ele>
        <time>2022-07-20T17:51:53Z</time>
      </trkpt>
      <trkpt lat="47.3190210" lon="6.8352560">
        <ele>623.6</ele>
        <time>2022-07-20T17:51:54Z</time>
      </trkpt>
      <trkpt lat="47.3190260" lon="6.8352720">
        <ele>623.7</ele>
        <time>2022-07-20T17:51:55Z</time>
      </trkpt>
      <trkpt lat="47.3190380" lon="6.8353190">
        <ele>623.8</ele>
        <time>2022-07-20T17:51:56Z</time>
      </trkpt>
      <trkpt lat="47.3190430" lon="6.8353430">
        <ele>623.9</ele>
        <time>2022-07-20T17:51:57Z</time>
      </trkpt>
      <trkpt lat="47.3190550" lon="6.8353760">
        <ele>624.0</ele>
        <time>2022-07-20T17:51:58Z</time>
      </trkpt>
      <trkpt lat="47.3190590" lon="6.8354080">
        <ele>624.1</ele>
        <time>2022-07-20T17:52:00Z</time>
      </trkpt>
      <trkpt lat="47.3190670" lon="6.8354550">
        <ele>624.3</ele>
        <time>2022-07-20T17:52:01Z</time>
      </trkpt>
      <trkpt lat="47.3190710" lon="6.8354670">
        <ele>624.3</ele>
        <time>2022-07-20T17:52:02Z</time>
      </trkpt>
      <trkpt lat="47.3190850" lon="6.8355110">
        <ele>624.5</ele>
        <time>2022-07-20T17:52:03Z</time>
      </trkpt>
      <trkpt lat="47.3190990" lon="6.8355520">
        <ele>624.6</ele>
        <time>2022-07-20T17:52:05Z</time>
      </trkpt>
      <trkpt lat="47.3191130" lon="6.8355940">
        <ele>624.7</ele>
        <time>2022-07-20T17:52:06Z</time>
      </trkpt>
      <trkpt lat="47.3191240" lon="6.8356350">
        <ele>624.9</ele>
        <time>2022-07-20T17:52:07Z</time>
      </trkpt>
      <trkpt lat="47.3191320" lon="6.8356550">
        <ele>624.9</ele>
        <time>2022-07-20T17:52:08Z</time>
      </trkpt>
      <trkpt lat="47.3191410" lon="6.8356710">
        <ele>625.0</ele>
        <time>2022-07-20T17:52:09Z</time>
      </trkpt>
      <trkpt lat="47.3191510" lon="6.8356890">
        <ele>625.0</ele>
        <time>2022-07-20T17:52:10Z</time>
      </trkpt>
      <trkpt lat="47.3191590" lon="6.8357090">
        <ele>625.1</ele>
        <time>2022-07-20T17:52:11Z</time>
      </trkpt>
      <trkpt lat="47.3191660" lon="6.8357390">
        <ele>625.2</ele>
        <time>2022-07-20T17:52:12Z</time>
      </trkpt>
      <trkpt lat="47.3191720" lon="6.8357710">
        <ele>625.3</ele>
        <time>2022-07-20T17:52:14Z</time>
      </trkpt>
      <trkpt lat="47.3191770" lon="6.8357920">
        <ele>625.3</ele>
        <time>2022-07-20T17:52:15Z</time>
      </trkpt>
      <trkpt lat="47.3191830" lon="6.8358100">
        <ele>625.4</ele>
        <time>2022-07-20T17:52:16Z</time>
      </trkpt>
      <trkpt lat="47.3191930" lon="6.8358490">
        <ele>625.5</ele>
        <time>2022-07-20T17:52:17Z</time>
      </trkpt>
      <trkpt lat="47.3191960" lon="6.8358600">
        <ele>625.6</ele>
        <time>2022-07-20T17:52:18Z</time>
      </trkpt>
      <trkpt lat="47.3192020" lon="6.8358820">
        <ele>625.6</ele>
        <time>2022-07-20T17:52:19Z</time>
      </trkpt>
      <trkpt lat="47.3192070" lon="6.8359060">
        <ele>625.7</ele>
        <time>2022-07-20T17:52:20Z</time>
      </trkpt>
      <trkpt lat="47.3192090" lon="6.8359380">
        <ele>625.8</ele>
        <time>2022-07-20T17:52:21Z</time>
      </trkpt>
      <trkpt lat="47.3192090" lon="6.8359690">
        <ele>625.9</ele>
        <time>2022-07-20T17:52:23Z</time>
      </trkpt>
      <trkpt lat="47.3192040" lon="6.8360220">
        <ele>626.0</ele>
        <time>2022-07-20T17:52:24Z</time>
      </trkpt>
      <trkpt lat="47.3192000" lon="6.8360360">
        <ele>626.1</ele>
        <time>2022-07-20T17:52:25Z</time>
      </trkpt>
      <trkpt lat="47.3191860" lon="6.8360840">
        <ele>626.2</ele>
        <time>2022-07-20T17:52:26Z</time>
      </trkpt>
      <trkpt lat="47.3191840" lon="6.8360990">
        <ele>626.3</ele>
        <time>2022-07-20T17:52:27Z</time>
      </trkpt>
      <trkpt lat="47.3191960" lon="6.8361450">
        <ele>626.4</ele>
        <time>2022-07-20T17:52:29Z</time>
      </trkpt>
      <trkpt lat="47.3191990" lon="6.8361590">
        <ele>626.5</ele>
        <time>2022-07-20T17:52:30Z</time>
      </trkpt>
      <trkpt lat="47.3192060" lon="6.8361980">
        <ele>626.6</ele>
        <time>2022-07-20T17:52:31Z</time>
      </trkpt>
      <trkpt lat="47.3192090" lon="6.8362150">
        <ele>626.6</ele>
        <time>2022-07-20T17:52:32Z</time>
      </trkpt>
      <trkpt lat="47.3192200" lon="6.8362540">
        <ele>626.7</ele>
        <time>2022-07-20T17:52:34Z</time>
      </trkpt>
      <trkpt lat="47.3192230" lon="6.8362700">
        <ele>626.8</ele>
        <time>2022-07-20T17:52:35Z</time>
      </trkpt>
      <trkpt lat="47.3192300" lon="6.8363190">
        <ele>626.9</ele>
        <time>2022-07-20T17:52:36Z</time>
      </trkpt>
      <trkpt lat="47.3192330" lon="6.8363340">
        <ele>627.0</ele>
        <time>2022-07-20T17:52:37Z</time>
      </trkpt>
      <trkpt lat="47.3192460" lon="6.8363710">
        <ele>627.1</ele>
        <time>2022-07-20T17:52:39Z</time>
      </trkpt>
      <trkpt lat="47.3192510" lon="6.8363830">
        <ele>627.1</ele>
        <time>2022-07-20T17:52:40Z</time>
      </trkpt>
      <trkpt lat="47.3192650" lon="6.8364170">
        <ele>627.3</ele>
        <time>2022-07-20T17:52:41Z</time>
      </trkpt>
      <trkpt lat="47.3192710" lon="6.8364280">
        <ele>627.3</ele>
        <time>2022-07-20T17:52:42Z</time>
      </trkpt>
      <trkpt lat="47.3192920" lon="6.8364660">
        <ele>627.4</ele>
        <time>2022-07-20T17:52:43Z</time>
      </trkpt>
      <trkpt lat="47.3193000" lon="6.8364780">
        <ele>627.5</ele>
        <time>2022-07-20T17:52:44Z</time>
      </trkpt>
      <trkpt lat="47.3193200" lon="6.8365090">
        <ele>627.6</ele>
        <time>2022-07-20T17:52:45Z</time>
      </trkpt>
      <trkpt lat="47.3193260" lon="6.8365190">
        <ele>627.6</ele>
        <time>2022-07-20T17:52:46Z</time>
      </trkpt>
      <trkpt lat="47.3193410" lon="6.8365430">
        <ele>627.7</ele>
        <time>2022-07-20T17:52:47Z</time>
      </trkpt>
      <trkpt lat="47.3193550" lon="6.8365680">
        <ele>627.8</ele>
        <time>2022-07-20T17:52:49Z</time>
      </trkpt>
      <trkpt lat="47.3193580" lon="6.8365780">
        <ele>627.9</ele>
        <time>2022-07-20T17:52:50Z</time>
      </trkpt>
      <trkpt lat="47.3193680" lon="6.8366030">
        <ele>627.9</ele>
        <time>2022-07-20T17:52:51Z</time>
      </trkpt>
      <trkpt lat="47.3193740" lon="6.8366430">
        <ele>628.1</ele>
        <time>2022-07-20T17:52:52Z</time>
      </trkpt>
      <trkpt lat="47.3193760" lon="6.8366930">
        <ele>628.2</ele>
        <time>2022-07-20T17:52:54Z</time>
      </trkpt>
      <trkpt lat="47.3193760" lon="6.8367050">
        <ele>628.2</ele>
        <time>2022-07-20T17:52:55Z</time>
      </trkpt>
      <trkpt lat="47.3193680" lon="6.8367520">
        <ele>628.4</ele>
        <time>2022-07-20T17:52:56Z</time>
      </trkpt>
      <trkpt lat="47.3193640" lon="6.8367690">
        <ele>628.4</ele>
        <time>2022-07-20T17:52:57Z</time>
      </trkpt>
      <trkpt lat="47.3193520" lon="6.8368160">
        <ele>628.5</ele>
        <time>2022-07-20T17:52:58Z</time>
      </trkpt>
      <trkpt lat="47.3193480" lon="6.8368480">
        <ele>628.6</ele>
        <time>2022-07-20T17:53:00Z</time>
      </trkpt>
      <trkpt lat="47.3193480" lon="6.8368610">
        <ele>628.7</ele>
        <time>2022-07-20T17:53:01Z</time>
      </trkpt>
      <trkpt lat="47.3193400" lon="6.8368890">
        <ele>628.8</ele>
        <time>2022-07-20T17:53:02Z</time>
      </trkpt>
      <trkpt lat="47.3193430" lon="6.8369040">
        <ele>628.8</ele>
        <time>2022-07-20T17:53:03Z</time>
      </trkpt>
      <trkpt lat="47.3193460" lon="6.8369190">
        <ele>628.8</ele>
        <time>2022-07-20T17:53:04Z</time>
      </trkpt>
      <trkpt lat="47.3193560" lon="6.8369560">
        <ele>628.9</ele>
        <time>2022-07-20T17:53:06Z</time>
      </trkpt>
      <trkpt lat="47.3193610" lon="6.8369830">
        <ele>629.0</ele>
        <time>2022-07-20T17:53:07Z</time>
      </trkpt>
      <trkpt lat="47.3193620" lon="6.8370090">
        <ele>629.1</ele>
        <time>2022-07-20T17:53:09Z</time>
      </trkpt>
      <trkpt lat="47.3193600" lon="6.8370550">
        <ele>629.2</ele>
        <time>2022-07-20T17:53:10Z</time>
      </trkpt>
      <trkpt lat="47.3193580" lon="6.8370690">
        <ele>629.3</ele>
        <time>2022-07-20T17:53:11Z</time>
      </trkpt>
      <trkpt lat="47.3193590" lon="6.8371030">
        <ele>629.4</ele>
        <time>2022-07-20T17:53:13Z</time>
      </trkpt>
      <trkpt lat="47.3193570" lon="6.8371210">
        <ele>629.4</ele>
        <time>2022-07-20T17:53:14Z</time>
      </trkpt>
      <trkpt lat="47.3193550" lon="6.8371480">
        <ele>629.5</ele>
        <time>2022-07-20T17:53:15Z</time>
      </trkpt>
      <trkpt lat="47.3193530" lon="6.8371710">
        <ele>629.6</ele>
        <time>2022-07-20T17:53:16Z</time>
      </trkpt>
      <trkpt lat="47.3193530" lon="6.8372000">
        <ele>629.6</ele>
        <time>2022-07-20T17:53:17Z</time>
      </trkpt>
      <trkpt lat="47.3193530" lon="6.8372360">
        <ele>629.7</ele>
        <time>2022-07-20T17:53:19Z</time>
      </trkpt>
      <trkpt lat="47.3193480" lon="6.8372920">
        <ele>629.9</ele>
        <time>2022-07-20T17:53:20Z</time>
      </trkpt>
      <trkpt lat="47.3193460" lon="6.8373100">
        <ele>630.0</ele>
        <time>2022-07-20T17:53:21Z</time>
      </trkpt>
      <trkpt lat="47.3193330" lon="6.8373620">
        <ele>630.1</ele>
        <time>2022-07-20T17:53:22Z</time>
      </trkpt>
      <trkpt lat="47.3193270" lon="6.8373830">
        <ele>630.2</ele>
        <time>2022-07-20T17:53:23Z</time>
      </trkpt>
      <trkpt lat="47.3193170" lon="6.8374320">
        <ele>630.3</ele>
        <time>2022-07-20T17:53:24Z</time>
      </trkpt>
      <trkpt lat="47.3193190" lon="6.8375020">
        <ele>630.5</ele>
        <time>2022-07-20T17:53:26Z</time>
      </trkpt>
      <trkpt lat="47.3193220" lon="6.8375300">
        <ele>630.6</ele>
        <time>2022-07-20T17:53:27Z</time>
      </trkpt>
      <trkpt lat="47.3193250" lon="6.8375570">
        <ele>630.7</ele>
        <time>2022-07-20T17:53:28Z</time>
      </trkpt>
      <trkpt lat="47.3193200" lon="6.8376150">
        <ele>630.9</ele>
        <time>2022-07-20T17:53:29Z</time>
      </trkpt>
      <trkpt lat="47.3193160" lon="6.8376340">
        <ele>630.9</ele>
        <time>2022-07-20T17:53:30Z</time>
      </trkpt>
      <trkpt lat="47.3193100" lon="6.8376810">
        <ele>631.1</ele>
        <time>2022-07-20T17:53:32Z</time>
      </trkpt>
      <trkpt lat="47.3193080" lon="6.8376930">
        <ele>631.1</ele>
        <time>2022-07-20T17:53:33Z</time>
      </trkpt>
      <trkpt lat="47.3193030" lon="6.8377350">
        <ele>631.2</ele>
        <time>2022-07-20T17:53:34Z</time>
      </trkpt>
      <trkpt lat="47.3193010" lon="6.8377540">
        <ele>631.3</ele>
        <time>2022-07-20T17:53:35Z</time>
      </trkpt>
      <trkpt lat="47.3193040" lon="6.8378220">
        <ele>631.5</ele>
        <time>2022-07-20T17:53:37Z</time>
      </trkpt>
      <trkpt lat="47.3193080" lon="6.8378420">
        <ele>631.5</ele>
        <time>2022-07-20T17:53:38Z</time>
      </trkpt>
      <trkpt lat="47.3193120" lon="6.8378620">
        <ele>631.6</ele>
        <time>2022-07-20T17:53:39Z</time>
      </trkpt>
      <trkpt lat="47.3193230" lon="6.8378950">
        <ele>631.7</ele>
        <time>2022-07-20T17:53:40Z</time>
      </trkpt>
      <trkpt lat="47.3193260" lon="6.8379280">
        <ele>631.8</ele>
        <time>2022-07-20T17:53:42Z</time>
      </trkpt>
      <trkpt lat="47.3193220" lon="6.8379510">
        <ele>631.9</ele>
        <time>2022-07-20T17:53:43Z</time>
      </trkpt>
      <trkpt lat="47.3193200" lon="6.8379730">
        <ele>631.9</ele>
        <time>2022-07-20T17:53:44Z</time>
      </trkpt>
      <trkpt lat="47.3193180" lon="6.8379960">
        <ele>632.0</ele>
        <time>2022-07-20T17:53:45Z</time>
      </trkpt>
      <trkpt lat="47.3193100" lon="6.8380230">
        <ele>632.1</ele>
        <time>2022-07-20T17:53:46Z</time>
      </trkpt>
      <trkpt lat="47.3192970" lon="6.8380640">
        <ele>632.2</ele>
        <time>2022-07-20T17:53:47Z</time>
      </trkpt>
      <trkpt lat="47.3192930" lon="6.8380780">
        <ele>632.3</ele>
        <time>2022-07-20T17:53:48Z</time>
      </trkpt>
      <trkpt lat="47.3192890" lon="6.8381010">
        <ele>632.4</ele>
        <time>2022-07-20T17:53:49Z</time>
      </trkpt>
      <trkpt lat="47.3192840" lon="6.8381230">
        <ele>632.4</ele>
        <time>2022-07-20T17:53:50Z</time>
      </trkpt>
      <trkpt lat="47.3192790" lon="6.8381550">
        <ele>632.6</ele>
        <time>2022-07-20T17:53:51Z</time>
      </trkpt>
      <trkpt lat="47.3192790" lon="6.8381890">
        <ele>632.7</ele>
        <time>2022-07-20T17:53:53Z</time>
      </trkpt>
      <trkpt lat="47.3192810" lon="6.8382310">
        <ele>632.8</ele>
        <time>2022-07-20T17:53:54Z</time>
      </trkpt>
      <trkpt lat="47.3192810" lon="6.8382450">
        <ele>632.9</ele>
        <time>2022-07-20T17:53:55Z</time>
      </trkpt>
      <trkpt lat="47.3192760" lon="6.8382830">
        <ele>633.0</ele>
        <time>2022-07-20T17:53:56Z</time>
      </trkpt>
      <trkpt lat="47.3192720" lon="6.8383140">
        <ele>633.1</ele>
        <time>2022-07-20T17:53:58Z</time>
      </trkpt>
      <trkpt lat="47.3192710" lon="6.8383380">
        <ele>633.2</ele>
        <time>2022-07-20T17:53:59Z</time>
      </trkpt>
      <trkpt lat="47.3192700" lon="6.8383650">
        <ele>633.3</ele>
        <time>2022-07-20T17:54:00Z</time>
      </trkpt>
      <trkpt lat="47.3192670" lon="6.8383860">
        <ele>633.3</ele>
        <time>2022-07-20T17:54:01Z</time>
      </trkpt>
      <trkpt lat="47.3192630" lon="6.8384100">
        <ele>633.4</ele>
        <time>2022-07-20T17:54:02Z</time>
      </trkpt>
      <trkpt lat="47.3192540" lon="6.8384530">
        <ele>633.6</ele>
        <time>2022-07-20T17:54:03Z</time>
      </trkpt>
      <trkpt lat="47.3192500" lon="6.8384700">
        <ele>633.6</ele>
        <time>2022-07-20T17:54:04Z</time>
      </trkpt>
      <trkpt lat="47.3192440" lon="6.8385210">
        <ele>633.8</ele>
        <time>2022-07-20T17:54:06Z</time>
      </trkpt>
      <trkpt lat="47.3192440" lon="6.8385340">
        <ele>633.8</ele>
        <time>2022-07-20T17:54:07Z</time>
      </trkpt>
      <trkpt lat="47.3192440" lon="6.8385530">
        <ele>633.8</ele>
        <time>2022-07-20T17:54:08Z</time>
      </trkpt>
      <trkpt lat="47.3192450" lon="6.8385750">
        <ele>633.9</ele>
        <time>2022-07-20T17:54:09Z</time>
      </trkpt>
      <trkpt lat="47.3192530" lon="6.8386270">
        <ele>634.1</ele>
        <time>2022-07-20T17:54:11Z</time>
      </trkpt>
      <trkpt lat="47.3192570" lon="6.8386420">
        <ele>634.1</ele>
        <time>2022-07-20T17:54:12Z</time>
      </trkpt>
      <trkpt lat="47.3192600" lon="6.8386650">
        <ele>634.2</ele>
        <time>2022-07-20T17:54:13Z</time>
      </trkpt>
      <trkpt lat="47.3192610" lon="6.8386830">
        <ele>634.2</ele>
        <time>2022-07-20T17:54:14Z</time>
      </trkpt>
      <trkpt lat="47.3192580" lon="6.8387030">
        <ele>634.3</ele>
        <time>2022-07-20T17:54:15Z</time>
      </trkpt>
      <trkpt lat="47.3192530" lon="6.8387230">
        <ele>634.4</ele>
        <time>2022-07-20T17:54:16Z</time>
      </trkpt>
      <trkpt lat="47.3192480" lon="6.8387440">
        <ele>634.4</ele>
        <time>2022-07-20T17:54:17Z</time>
      </trkpt>
      <trkpt lat="47.3192440" lon="6.8387670">
        <ele>634.5</ele>
        <time>2022-07-20T17:54:18Z</time>
      </trkpt>
      <trkpt lat="47.3192410" lon="6.8388000">
        <ele>634.6</ele>
        <time>2022-07-20T17:54:19Z</time>
      </trkpt>
      <trkpt lat="47.3192380" lon="6.8388300">
        <ele>634.7</ele>
        <time>2022-07-20T17:54:21Z</time>
      </trkpt>
      <trkpt lat="47.3192390" lon="6.8388510">
        <ele>634.7</ele>
        <time>2022-07-20T17:54:22Z</time>
      </trkpt>
      <trkpt lat="47.3192440" lon="6.8388720">
        <ele>634.8</ele>
        <time>2022-07-20T17:54:23Z</time>
      </trkpt>
      <trkpt lat="47.3192590" lon="6.8389200">
        <ele>634.9</ele>
        <time>2022-07-20T17:54:24Z</time>
      </trkpt>
      <trkpt lat="47.3192640" lon="6.8389370">
        <ele>635.0</ele>
        <time>2022-07-20T17:54:25Z</time>
      </trkpt>
      <trkpt lat="47.3192670" lon="6.8389820">
        <ele>635.1</ele>
        <time>2022-07-20T17:54:27Z</time>
      </trkpt>
      <trkpt lat="47.3192690" lon="6.8389960">
        <ele>635.2</ele>
        <time>2022-07-20T17:54:28Z</time>
      </trkpt>
      <trkpt lat="47.3192630" lon="6.8390350">
        <ele>635.3</ele>
        <time>2022-07-20T17:54:29Z</time>
      </trkpt>
      <trkpt lat="47.3192610" lon="6.8390840">
        <ele>635.4</ele>
        <time>2022-07-20T17:54:31Z</time>
      </trkpt>
      <trkpt lat="47.3192600" lon="6.8390980">
        <ele>635.5</ele>
        <time>2022-07-20T17:54:32Z</time>
      </trkpt>
      <trkpt lat="47.3192600" lon="6.8391430">
        <ele>635.6</ele>
        <time>2022-07-20T17:54:33Z</time>
      </trkpt>
      <trkpt lat="47.3192590" lon="6.8391610">
        <ele>635.7</ele>
        <time>2022-07-20T17:54:34Z</time>
      </trkpt>
      <trkpt lat="47.3192610" lon="6.8391990">
        <ele>635.8</ele>
        <time>2022-07-20T17:54:35Z</time>
      </trkpt>
      <trkpt lat="47.3192650" lon="6.8392380">
        <ele>635.9</ele>
        <time>2022-07-20T17:54:37Z</time>
      </trkpt>
      <trkpt lat="47.3192680" lon="6.8392860">
        <ele>636.0</ele>
        <time>2022-07-20T17:54:38Z</time>
      </trkpt>
      <trkpt lat="47.3192680" lon="6.8393010">
        <ele>636.0</ele>
        <time>2022-07-20T17:54:39Z</time>
      </trkpt>
      <trkpt lat="47.3192680" lon="6.8393290">
        <ele>636.1</ele>
        <time>2022-07-20T17:54:40Z</time>
      </trkpt>
      <trkpt lat="47.3192660" lon="6.8393530">
        <ele>636.2</ele>
        <time>2022-07-20T17:54:41Z</time>
      </trkpt>
      <trkpt lat="47.3192610" lon="6.8393960">
        <ele>636.3</ele>
        <time>2022-07-20T17:54:42Z</time>
      </trkpt>
      <trkpt lat="47.3192600" lon="6.8394110">
        <ele>636.3</ele>
        <time>2022-07-20T17:54:43Z</time>
      </trkpt>
      <trkpt lat="47.3192520" lon="6.8394640">
        <ele>636.5</ele>
        <time>2022-07-20T17:54:44Z</time>
      </trkpt>
      <trkpt lat="47.3192480" lon="6.8394890">
        <ele>636.5</ele>
        <time>2022-07-20T17:54:45Z</time>
      </trkpt>
      <trkpt lat="47.3192380" lon="6.8395430">
        <ele>636.7</ele>
        <time>2022-07-20T17:54:47Z</time>
      </trkpt>
      <trkpt lat="47.3192360" lon="6.8395590">
        <ele>636.7</ele>
        <time>2022-07-20T17:54:48Z</time>
      </trkpt>
      <trkpt lat="47.3192340" lon="6.8395840">
        <ele>636.8</ele>
        <time>2022-07-20T17:54:49Z</time>
      </trkpt>
      <trkpt lat="47.3192370" lon="6.8396290">
        <ele>636.9</ele>
        <time>2022-07-20T17:54:51Z</time>
      </trkpt>
      <trkpt lat="47.3192400" lon="6.8396570">
        <ele>637.0</ele>
        <time>2022-07-20T17:54:52Z</time>
      </trkpt>
      <trkpt lat="47.3192430" lon="6.8396720">
        <ele>637.0</ele>
        <time>2022-07-20T17:54:53Z</time>
      </trkpt>
      <trkpt lat="47.3192670" lon="6.8397220">
        <ele>637.2</ele>
        <time>2022-07-20T17:54:54Z</time>
      </trkpt>
      <trkpt lat="47.3192750" lon="6.8397390">
        <ele>637.2</ele>
        <time>2022-07-20T17:54:55Z</time>
      </trkpt>
      <trkpt lat="47.3192800" lon="6.8397880">
        <ele>637.4</ele>
        <time>2022-07-20T17:54:57Z</time>
      </trkpt>
      <trkpt lat="47.3192800" lon="6.8398000">
        <ele>637.4</ele>
        <time>2022-07-20T17:54:58Z</time>
      </trkpt>
      <trkpt lat="47.3192780" lon="6.8398400">
        <ele>637.5</ele>
        <time>2022-07-20T17:54:59Z</time>
      </trkpt>
      <trkpt lat="47.3192760" lon="6.8398560">
        <ele>637.6</ele>
        <time>2022-07-20T17:55:00Z</time>
      </trkpt>
      <trkpt lat="47.3192800" lon="6.8399030">
        <ele>637.7</ele>
        <time>2022-07-20T17:55:01Z</time>
      </trkpt>
      <trkpt lat="47.3192800" lon="6.8399260">
        <ele>637.8</ele>
        <time>2022-07-20T17:55:03Z</time>
      </trkpt>
      <trkpt lat="47.3192810" lon="6.8399490">
        <ele>637.9</ele>
        <time>2022-07-20T17:55:04Z</time>
      </trkpt>
      <trkpt lat="47.3192810" lon="6.8399730">
        <ele>637.9</ele>
        <time>2022-07-20T17:55:05Z</time>
      </trkpt>
      <trkpt lat="47.3192780" lon="6.8399990">
        <ele>638.0</ele>
        <time>2022-07-20T17:55:06Z</time>
      </trkpt>
      <trkpt lat="47.3192750" lon="6.8400260">
        <ele>638.1</ele>
        <time>2022-07-20T17:55:08Z</time>
      </trkpt>
      <trkpt lat="47.3192750" lon="6.8400700">
        <ele>638.3</ele>
        <time>2022-07-20T17:55:09Z</time>
      </trkpt>
      <trkpt lat="47.3192760" lon="6.8400830">
        <ele>638.3</ele>
        <time>2022-07-20T17:55:10Z</time>
      </trkpt>
      <trkpt lat="47.3192760" lon="6.8401200">
        <ele>638.4</ele>
        <time>2022-07-20T17:55:11Z</time>
      </trkpt>
      <trkpt lat="47.3192760" lon="6.8401470">
        <ele>638.5</ele>
        <time>2022-07-20T17:55:13Z</time>
      </trkpt>
      <trkpt lat="47.3192620" lon="6.8401850">
        <ele>638.7</ele>
        <time>2022-07-20T17:55:14Z</time>
      </trkpt>
      <trkpt lat="47.3192540" lon="6.8401980">
        <ele>638.8</ele>
        <time>2022-07-20T17:55:15Z</time>
      </trkpt>
      <trkpt lat="47.3192370" lon="6.8402270">
        <ele>638.9</ele>
        <time>2022-07-20T17:55:16Z</time>
      </trkpt>
      <trkpt lat="47.3192300" lon="6.8402390">
        <ele>638.9</ele>
        <time>2022-07-20T17:55:17Z</time>
      </trkpt>
      <trkpt lat="47.3192170" lon="6.8402630">
        <ele>639.1</ele>
        <time>2022-07-20T17:55:19Z</time>
      </trkpt>
      <trkpt lat="47.3192110" lon="6.8402780">
        <ele>639.1</ele>
        <time>2022-07-20T17:55:20Z</time>
      </trkpt>
      <trkpt lat="47.3192030" lon="6.8403100">
        <ele>639.2</ele>
        <time>2022-07-20T17:55:21Z</time>
      </trkpt>
      <trkpt lat="47.3191940" lon="6.8403330">
        <ele>639.3</ele>
        <time>2022-07-20T17:55:23Z</time>
      </trkpt>
      <trkpt lat="47.3191970" lon="6.8403650">
        <ele>639.5</ele>
        <time>2022-07-20T17:55:24Z</time>
      </trkpt>
      <trkpt lat="47.3192020" lon="6.8404110">
        <ele>639.6</ele>
        <time>2022-07-20T17:55:26Z</time>
      </trkpt>
      <trkpt lat="47.3192080" lon="6.8404640">
        <ele>639.8</ele>
        <time>2022-07-20T17:55:27Z</time>
      </trkpt>
      <trkpt lat="47.3192100" lon="6.8404800">
        <ele>639.9</ele>
        <time>2022-07-20T17:55:28Z</time>
      </trkpt>
      <trkpt lat="47.3192100" lon="6.8405280">
        <ele>640.1</ele>
        <time>2022-07-20T17:55:29Z</time>
      </trkpt>
      <trkpt lat="47.3192080" lon="6.8405480">
        <ele>640.2</ele>
        <time>2022-07-20T17:55:30Z</time>
      </trkpt>
      <trkpt lat="47.3192070" lon="6.8405790">
        <ele>640.3</ele>
        <time>2022-07-20T17:55:31Z</time>
      </trkpt>
      <trkpt lat="47.3192110" lon="6.8405950">
        <ele>640.3</ele>
        <time>2022-07-20T17:55:32Z</time>
      </trkpt>
      <trkpt lat="47.3192220" lon="6.8406590">
        <ele>640.5</ele>
        <time>2022-07-20T17:55:34Z</time>
      </trkpt>
      <trkpt lat="47.3192250" lon="6.8407020">
        <ele>640.7</ele>
        <time>2022-07-20T17:55:35Z</time>
      </trkpt>
      <trkpt lat="47.3192250" lon="6.8407520">
        <ele>640.9</ele>
        <time>2022-07-20T17:55:36Z</time>
      </trkpt>
      <trkpt lat="47.3192250" lon="6.8407660">
        <ele>640.9</ele>
        <time>2022-07-20T17:55:37Z</time>
      </trkpt>
      <trkpt lat="47.3192280" lon="6.8408100">
        <ele>641.0</ele>
        <time>2022-07-20T17:55:39Z</time>
      </trkpt>
      <trkpt lat="47.3192360" lon="6.8408490">
        <ele>641.1</ele>
        <time>2022-07-20T17:55:40Z</time>
      </trkpt>
      <trkpt lat="47.3192470" lon="6.8408870">
        <ele>641.3</ele>
        <time>2022-07-20T17:55:41Z</time>
      </trkpt>
      <trkpt lat="47.3192590" lon="6.8409260">
        <ele>641.4</ele>
        <time>2022-07-20T17:55:42Z</time>
      </trkpt>
      <trkpt lat="47.3192790" lon="6.8409820">
        <ele>641.5</ele>
        <time>2022-07-20T17:55:43Z</time>
      </trkpt>
      <trkpt lat="47.3192860" lon="6.8410030">
        <ele>641.6</ele>
        <time>2022-07-20T17:55:44Z</time>
      </trkpt>
      <trkpt lat="47.3193030" lon="6.8410530">
        <ele>641.7</ele>
        <time>2022-07-20T17:55:46Z</time>
      </trkpt>
      <trkpt lat="47.3193080" lon="6.8410740">
        <ele>641.8</ele>
        <time>2022-07-20T17:55:47Z</time>
      </trkpt>
      <trkpt lat="47.3193150" lon="6.8411130">
        <ele>641.9</ele>
        <time>2022-07-20T17:55:48Z</time>
      </trkpt>
      <trkpt lat="47.3193130" lon="6.8411400">
        <ele>641.9</ele>
        <time>2022-07-20T17:55:49Z</time>
      </trkpt>
      <trkpt lat="47.3193030" lon="6.8411760">
        <ele>642.0</ele>
        <time>2022-07-20T17:55:51Z</time>
      </trkpt>
      <trkpt lat="47.3192830" lon="6.8412160">
        <ele>642.1</ele>
        <time>2022-07-20T17:55:52Z</time>
      </trkpt>
      <trkpt lat="47.3192630" lon="6.8412580">
        <ele>642.2</ele>
        <time>2022-07-20T17:55:53Z</time>
      </trkpt>
      <trkpt lat="47.3192560" lon="6.8412730">
        <ele>642.2</ele>
        <time>2022-07-20T17:55:54Z</time>
      </trkpt>
      <trkpt lat="47.3192340" lon="6.8413150">
        <ele>642.3</ele>
        <time>2022-07-20T17:55:55Z</time>
      </trkpt>
      <trkpt lat="47.3192260" lon="6.8413290">
        <ele>642.4</ele>
        <time>2022-07-20T17:55:56Z</time>
      </trkpt>
      <trkpt lat="47.3192040" lon="6.8413670">
        <ele>642.4</ele>
        <time>2022-07-20T17:55:57Z</time>
      </trkpt>
      <trkpt lat="47.3191830" lon="6.8414030">
        <ele>642.5</ele>
        <time>2022-07-20T17:55:59Z</time>
      </trkpt>
      <trkpt lat="47.3191600" lon="6.8414400">
        <ele>642.6</ele>
        <time>2022-07-20T17:56:00Z</time>
      </trkpt>
      <trkpt lat="47.3191390" lon="6.8414730">
        <ele>642.7</ele>
        <time>2022-07-20T17:56:01Z</time>
      </trkpt>
      <trkpt lat="47.3191100" lon="6.8415110">
        <ele>642.7</ele>
        <time>2022-07-20T17:56:02Z</time>
      </trkpt>
      <trkpt lat="47.3190860" lon="6.8415390">
        <ele>642.8</ele>
        <time>2022-07-20T17:56:04Z</time>
      </trkpt>
      <trkpt lat="47.3190660" lon="6.8415670">
        <ele>642.9</ele>
        <time>2022-07-20T17:56:05Z</time>
      </trkpt>
      <trkpt lat="47.3190520" lon="6.8416120">
        <ele>643.0</ele>
        <time>2022-07-20T17:56:06Z</time>
      </trkpt>
      <trkpt lat="47.3190500" lon="6.8416280">
        <ele>643.0</ele>
        <time>2022-07-20T17:56:07Z</time>
      </trkpt>
      <trkpt lat="47.3190470" lon="6.8416760">
        <ele>643.1</ele>
        <time>2022-07-20T17:56:08Z</time>
      </trkpt>
      <trkpt lat="47.3190460" lon="6.8416900">
        <ele>643.1</ele>
        <time>2022-07-20T17:56:09Z</time>
      </trkpt>
      <trkpt lat="47.3190400" lon="6.8417400">
        <ele>643.1</ele>
        <time>2022-07-20T17:56:10Z</time>
      </trkpt>
      <trkpt lat="47.3190370" lon="6.8417540">
        <ele>643.2</ele>
        <time>2022-07-20T17:56:11Z</time>
      </trkpt>
      <trkpt lat="47.3190240" lon="6.8417910">
        <ele>643.2</ele>
        <time>2022-07-20T17:56:12Z</time>
      </trkpt>
      <trkpt lat="47.3190120" lon="6.8418180">
        <ele>643.3</ele>
        <time>2022-07-20T17:56:13Z</time>
      </trkpt>
      <trkpt lat="47.3189990" lon="6.8418490">
        <ele>643.3</ele>
        <time>2022-07-20T17:56:15Z</time>
      </trkpt>
      <trkpt lat="47.3189760" lon="6.8418920">
        <ele>643.3</ele>
        <time>2022-07-20T17:56:16Z</time>
      </trkpt>
      <trkpt lat="47.3189700" lon="6.8419070">
        <ele>643.3</ele>
        <time>2022-07-20T17:56:17Z</time>
      </trkpt>
      <trkpt lat="47.3189620" lon="6.8419500">
        <ele>643.4</ele>
        <time>2022-07-20T17:56:18Z</time>
      </trkpt>
      <trkpt lat="47.3189570" lon="6.8419710">
        <ele>643.4</ele>
        <time>2022-07-20T17:56:19Z</time>
      </trkpt>
      <trkpt lat="47.3189420" lon="6.8420200">
        <ele>643.4</ele>
        <time>2022-07-20T17:56:21Z</time>
      </trkpt>
      <trkpt lat="47.3189290" lon="6.8420610">
        <ele>643.5</ele>
        <time>2022-07-20T17:56:22Z</time>
      </trkpt>
      <trkpt lat="47.3189240" lon="6.8420750">
        <ele>643.5</ele>
        <time>2022-07-20T17:56:23Z</time>
      </trkpt>
      <trkpt lat="47.3189060" lon="6.8421060">
        <ele>643.5</ele>
        <time>2022-07-20T17:56:24Z</time>
      </trkpt>
      <trkpt lat="47.3188820" lon="6.8421360">
        <ele>644.2</ele>
        <time>2022-07-20T17:56:25Z</time>
      </trkpt>
      <trkpt lat="47.3188520" lon="6.8421670">
        <ele>644.4</ele>
        <time>2022-07-20T17:56:26Z</time>
      </trkpt>
      <trkpt lat="47.3188250" lon="6.8421910">
        <ele>644.6</ele>
        <time>2022-07-20T17:56:27Z</time>
      </trkpt>
      <trkpt lat="47.3187840" lon="6.8422220">
        <ele>644.9</ele>
        <time>2022-07-20T17:56:28Z</time>
      </trkpt>
      <trkpt lat="47.3187520" lon="6.8422430">
        <ele>645.1</ele>
        <time>2022-07-20T17:56:29Z</time>
      </trkpt>
      <trkpt lat="47.3187170" lon="6.8422540">
        <ele>645.3</ele>
        <time>2022-07-20T17:56:31Z</time>
      </trkpt>
      <trkpt lat="47.3186820" lon="6.8422620">
        <ele>645.6</ele>
        <time>2022-07-20T17:56:32Z</time>
      </trkpt>
      <trkpt lat="47.3186480" lon="6.8422650">
        <ele>645.8</ele>
        <time>2022-07-20T17:56:33Z</time>
      </trkpt>
      <trkpt lat="47.3186110" lon="6.8422630">
        <ele>646.1</ele>
        <time>2022-07-20T17:56:34Z</time>
      </trkpt>
      <trkpt lat="47.3185680" lon="6.8422540">
        <ele>646.4</ele>
        <time>2022-07-20T17:56:36Z</time>
      </trkpt>
      <trkpt lat="47.3185520" lon="6.8422480">
        <ele>646.5</ele>
        <time>2022-07-20T17:56:37Z</time>
      </trkpt>
      <trkpt lat="47.3185360" lon="6.8422410">
        <ele>646.7</ele>
        <time>2022-07-20T17:56:38Z</time>
      </trkpt>
      <trkpt lat="47.3185130" lon="6.8422130">
        <ele>646.9</ele>
        <time>2022-07-20T17:56:39Z</time>
      </trkpt>
      <trkpt lat="47.3184770" lon="6.8421650">
        <ele>647.3</ele>
        <time>2022-07-20T17:56:41Z</time>
      </trkpt>
      <trkpt lat="47.3184680" lon="6.8421510">
        <ele>647.4</ele>
        <time>2022-07-20T17:56:42Z</time>
      </trkpt>
      <trkpt lat="47.3184590" lon="6.8421370">
        <ele>647.5</ele>
        <time>2022-07-20T17:56:43Z</time>
      </trkpt>
      <trkpt lat="47.3184400" lon="6.8420830">
        <ele>647.8</ele>
        <time>2022-07-20T17:56:45Z</time>
      </trkpt>
      <trkpt lat="47.3184360" lon="6.8420660">
        <ele>647.9</ele>
        <time>2022-07-20T17:56:46Z</time>
      </trkpt>
      <trkpt lat="47.3184320" lon="6.8420490">
        <ele>648.0</ele>
        <time>2022-07-20T17:56:47Z</time>
      </trkpt>
      <trkpt lat="47.3184290" lon="6.8420050">
        <ele>648.3</ele>
        <time>2022-07-20T17:56:48Z</time>
      </trkpt>
      <trkpt lat="47.3184300" lon="6.8419820">
        <ele>648.4</ele>
        <time>2022-07-20T17:56:50Z</time>
      </trkpt>
      <trkpt lat="47.3184250" lon="6.8419560">
        <ele>648.5</ele>
        <time>2022-07-20T17:56:51Z</time>
      </trkpt>
      <trkpt lat="47.3184180" lon="6.8419060">
        <ele>648.8</ele>
        <time>2022-07-20T17:56:52Z</time>
      </trkpt>
      <trkpt lat="47.3184170" lon="6.8418860">
        <ele>648.9</ele>
        <time>2022-07-20T17:56:53Z</time>
      </trkpt>
      <trkpt lat="47.3184160" lon="6.8418590">
        <ele>649.1</ele>
        <time>2022-07-20T17:56:54Z</time>
      </trkpt>
      <trkpt lat="47.3184160" lon="6.8418320">
        <ele>649.3</ele>
        <time>2022-07-20T17:56:56Z</time>
      </trkpt>
      <trkpt lat="47.3184130" lon="6.8418080">
        <ele>649.4</ele>
        <time>2022-07-20T17:56:57Z</time>
      </trkpt>
      <trkpt lat="47.3184120" lon="6.8417810">
        <ele>649.6</ele>
        <time>2022-07-20T17:56:58Z</time>
      </trkpt>
      <trkpt lat="47.3184070" lon="6.8417360">
        <ele>649.9</ele>
        <time>2022-07-20T17:56:59Z</time>
      </trkpt>
      <trkpt lat="47.3184060" lon="6.8417220">
        <ele>650.0</ele>
        <time>2022-07-20T17:57:00Z</time>
      </trkpt>
      <trkpt lat="47.3184010" lon="6.8416860">
        <ele>650.2</ele>
        <time>2022-07-20T17:57:01Z</time>
      </trkpt>
      <trkpt lat="47.3183980" lon="6.8416520">
        <ele>650.4</ele>
        <time>2022-07-20T17:57:03Z</time>
      </trkpt>
      <trkpt lat="47.3183980" lon="6.8416260">
        <ele>650.6</ele>
        <time>2022-07-20T17:57:04Z</time>
      </trkpt>
      <trkpt lat="47.3183950" lon="6.8416020">
        <ele>650.8</ele>
        <time>2022-07-20T17:57:05Z</time>
      </trkpt>
      <trkpt lat="47.3183940" lon="6.8415430">
        <ele>651.2</ele>
        <time>2022-07-20T17:57:07Z</time>
      </trkpt>
      <trkpt lat="47.3183950" lon="6.8415220">
        <ele>651.3</ele>
        <time>2022-07-20T17:57:08Z</time>
      </trkpt>
      <trkpt lat="47.3183960" lon="6.8414940">
        <ele>651.5</ele>
        <time>2022-07-20T17:57:09Z</time>
      </trkpt>
      <trkpt lat="47.3183980" lon="6.8414760">
        <ele>651.6</ele>
        <time>2022-07-20T17:57:10Z</time>
      </trkpt>
      <trkpt lat="47.3184020" lon="6.8414570">
        <ele>651.8</ele>
        <time>2022-07-20T17:57:11Z</time>
      </trkpt>
      <trkpt lat="47.3184040" lon="6.8414300">
        <ele>652.0</ele>
        <time>2022-07-20T17:57:12Z</time>
      </trkpt>
      <trkpt lat="47.3184050" lon="6.8414180">
        <ele>652.1</ele>
        <time>2022-07-20T17:57:13Z</time>
      </trkpt>
      <trkpt lat="47.3184050" lon="6.8414030">
        <ele>652.2</ele>
        <time>2022-07-20T17:57:15Z</time>
      </trkpt>
      <trkpt lat="47.3184040" lon="6.8413870">
        <ele>652.3</ele>
        <time>2022-07-20T17:57:16Z</time>
      </trkpt>
      <trkpt lat="47.3184000" lon="6.8413530">
        <ele>652.5</ele>
        <time>2022-07-20T17:57:17Z</time>
      </trkpt>
      <trkpt lat="47.3183980" lon="6.8413350">
        <ele>652.7</ele>
        <time>2022-07-20T17:57:19Z</time>
      </trkpt>
      <trkpt lat="47.3183960" lon="6.8413170">
        <ele>652.8</ele>
        <time>2022-07-20T17:57:20Z</time>
      </trkpt>
      <trkpt lat="47.3183940" lon="6.8412990">
        <ele>652.9</ele>
        <time>2022-07-20T17:57:21Z</time>
      </trkpt>
      <trkpt lat="47.3183910" lon="6.8412810">
        <ele>653.1</ele>
        <time>2022-07-20T17:57:22Z</time>
      </trkpt>
      <trkpt lat="47.3183820" lon="6.8412400">
        <ele>653.4</ele>
        <time>2022-07-20T17:57:24Z</time>
      </trkpt>
      <trkpt lat="47.3183790" lon="6.8412280">
        <ele>653.5</ele>
        <time>2022-07-20T17:57:25Z</time>
      </trkpt>
      <trkpt lat="47.3183690" lon="6.8411820">
        <ele>653.9</ele>
        <time>2022-07-20T17:57:26Z</time>
      </trkpt>
      <trkpt lat="47.3183660" lon="6.8411650">
        <ele>654.0</ele>
        <time>2022-07-20T17:57:27Z</time>
      </trkpt>
      <trkpt lat="47.3183610" lon="6.8411440">
        <ele>654.2</ele>
        <time>2022-07-20T17:57:28Z</time>
      </trkpt>
      <trkpt lat="47.3183530" lon="6.8411190">
        <ele>654.4</ele>
        <time>2022-07-20T17:57:29Z</time>
      </trkpt>
      <trkpt lat="47.3183320" lon="6.8410650">
        <ele>654.9</ele>
        <time>2022-07-20T17:57:31Z</time>
      </trkpt>
      <trkpt lat="47.3183270" lon="6.8410460">
        <ele>655.0</ele>
        <time>2022-07-20T17:57:32Z</time>
      </trkpt>
      <trkpt lat="47.3183220" lon="6.8410270">
        <ele>655.2</ele>
        <time>2022-07-20T17:57:33Z</time>
      </trkpt>
      <trkpt lat="47.3183200" lon="6.8410040">
        <ele>655.4</ele>
        <time>2022-07-20T17:57:35Z</time>
      </trkpt>
      <trkpt lat="47.3183180" lon="6.8409850">
        <ele>655.5</ele>
        <time>2022-07-20T17:57:36Z</time>
      </trkpt>
      <trkpt lat="47.3183160" lon="6.8409670">
        <ele>655.6</ele>
        <time>2022-07-20T17:57:38Z</time>
      </trkpt>
      <trkpt lat="47.3183130" lon="6.8409550">
        <ele>655.7</ele>
        <time>2022-07-20T17:57:39Z</time>
      </trkpt>
      <trkpt lat="47.3183100" lon="6.8409430">
        <ele>655.8</ele>
        <time>2022-07-20T17:57:40Z</time>
      </trkpt>
      <trkpt lat="47.3183050" lon="6.8409300">
        <ele>655.9</ele>
        <time>2022-07-20T17:57:41Z</time>
      </trkpt>
      <trkpt lat="47.3183010" lon="6.8409190">
        <ele>656.0</ele>
        <time>2022-07-20T17:57:42Z</time>
      </trkpt>
      <trkpt lat="47.3182880" lon="6.8408870">
        <ele>656.3</ele>
        <time>2022-07-20T17:57:44Z</time>
      </trkpt>
      <trkpt lat="47.3182740" lon="6.8408530">
        <ele>656.6</ele>
        <time>2022-07-20T17:57:45Z</time>
      </trkpt>
      <trkpt lat="47.3182680" lon="6.8408410">
        <ele>656.7</ele>
        <time>2022-07-20T17:57:46Z</time>
      </trkpt>
      <trkpt lat="47.3182500" lon="6.8408010">
        <ele>657.1</ele>
        <time>2022-07-20T17:57:47Z</time>
      </trkpt>
      <trkpt lat="47.3182430" lon="6.8407840">
        <ele>657.2</ele>
        <time>2022-07-20T17:57:49Z</time>
      </trkpt>
      <trkpt lat="47.3182350" lon="6.8407660">
        <ele>657.4</ele>
        <time>2022-07-20T17:57:50Z</time>
      </trkpt>
      <trkpt lat="47.3182280" lon="6.8407480">
        <ele>657.5</ele>
        <time>2022-07-20T17:57:51Z</time>
      </trkpt>
      <trkpt lat="47.3182210" lon="6.8407250">
        <ele>657.7</ele>
        <time>2022-07-20T17:57:52Z</time>
      </trkpt>
      <trkpt lat="47.3182130" lon="6.8407010">
        <ele>657.9</ele>
        <time>2022-07-20T17:57:53Z</time>
      </trkpt>
      <trkpt lat="47.3182040" lon="6.8406790">
        <ele>658.1</ele>
        <time>2022-07-20T17:57:54Z</time>
      </trkpt>
      <trkpt lat="47.3181950" lon="6.8406540">
        <ele>658.3</ele>
        <time>2022-07-20T17:57:56Z</time>
      </trkpt>
      <trkpt lat="47.3181890" lon="6.8406350">
        <ele>658.4</ele>
        <time>2022-07-20T17:57:57Z</time>
      </trkpt>
      <trkpt lat="47.3181830" lon="6.8406090">
        <ele>658.6</ele>
        <time>2022-07-20T17:57:58Z</time>
      </trkpt>
      <trkpt lat="47.3181790" lon="6.8405790">
        <ele>658.8</ele>
        <time>2022-07-20T17:57:59Z</time>
      </trkpt>
      <trkpt lat="47.3181760" lon="6.8405630">
        <ele>658.9</ele>
        <time>2022-07-20T17:58:00Z</time>
      </trkpt>
      <trkpt lat="47.3181690" lon="6.8405300">
        <ele>659.2</ele>
        <time>2022-07-20T17:58:01Z</time>
      </trkpt>
      <trkpt lat="47.3181650" lon="6.8405170">
        <ele>659.3</ele>
        <time>2022-07-20T17:58:02Z</time>
      </trkpt>
      <trkpt lat="47.3181620" lon="6.8405040">
        <ele>659.3</ele>
        <time>2022-07-20T17:58:03Z</time>
      </trkpt>
      <trkpt lat="47.3181540" lon="6.8404600">
        <ele>659.6</ele>
        <time>2022-07-20T17:58:04Z</time>
      </trkpt>
      <trkpt lat="47.3181520" lon="6.8404390">
        <ele>659.8</ele>
        <time>2022-07-20T17:58:06Z</time>
      </trkpt>
      <trkpt lat="47.3181500" lon="6.8404180">
        <ele>659.9</ele>
        <time>2022-07-20T17:58:07Z</time>
      </trkpt>
      <trkpt lat="47.3181470" lon="6.8403980">
        <ele>660.1</ele>
        <time>2022-07-20T17:58:08Z</time>
      </trkpt>
      <trkpt lat="47.3181430" lon="6.8403550">
        <ele>660.3</ele>
        <time>2022-07-20T17:58:09Z</time>
      </trkpt>
      <trkpt lat="47.3181360" lon="6.8403330">
        <ele>660.5</ele>
        <time>2022-07-20T17:58:10Z</time>
      </trkpt>
      <trkpt lat="47.3181280" lon="6.8403080">
        <ele>660.7</ele>
        <time>2022-07-20T17:58:12Z</time>
      </trkpt>
      <trkpt lat="47.3181160" lon="6.8402710">
        <ele>660.9</ele>
        <time>2022-07-20T17:58:13Z</time>
      </trkpt>
      <trkpt lat="47.3181020" lon="6.8402410">
        <ele>661.2</ele>
        <time>2022-07-20T17:58:14Z</time>
      </trkpt>
      <trkpt lat="47.3180940" lon="6.8402230">
        <ele>661.3</ele>
        <time>2022-07-20T17:58:16Z</time>
      </trkpt>
      <trkpt lat="47.3180800" lon="6.8401980">
        <ele>661.5</ele>
        <time>2022-07-20T17:58:17Z</time>
      </trkpt>
      <trkpt lat="47.3180750" lon="6.8401900">
        <ele>661.6</ele>
        <time>2022-07-20T17:58:18Z</time>
      </trkpt>
      <trkpt lat="47.3180700" lon="6.8401810">
        <ele>661.6</ele>
        <time>2022-07-20T17:58:19Z</time>
      </trkpt>
      <trkpt lat="47.3180520" lon="6.8401520">
        <ele>661.9</ele>
        <time>2022-07-20T17:58:20Z</time>
      </trkpt>
      <trkpt lat="47.3180450" lon="6.8401410">
        <ele>662.0</ele>
        <time>2022-07-20T17:58:21Z</time>
      </trkpt>
      <trkpt lat="47.3180390" lon="6.8401240">
        <ele>662.1</ele>
        <time>2022-07-20T17:58:22Z</time>
      </trkpt>
      <trkpt lat="47.3180300" lon="6.8401010">
        <ele>662.3</ele>
        <time>2022-07-20T17:58:23Z</time>
      </trkpt>
      <trkpt lat="47.3180130" lon="6.8400600">
        <ele>662.6</ele>
        <time>2022-07-20T17:58:24Z</time>
      </trkpt>
      <trkpt lat="47.3180090" lon="6.8400500">
        <ele>662.6</ele>
        <time>2022-07-20T17:58:25Z</time>
      </trkpt>
      <trkpt lat="47.3179950" lon="6.8400080">
        <ele>662.9</ele>
        <time>2022-07-20T17:58:27Z</time>
      </trkpt>
      <trkpt lat="47.3179900" lon="6.8399920">
        <ele>663.0</ele>
        <time>2022-07-20T17:58:28Z</time>
      </trkpt>
      <trkpt lat="47.3179760" lon="6.8399530">
        <ele>663.3</ele>
        <time>2022-07-20T17:58:29Z</time>
      </trkpt>
      <trkpt lat="47.3179680" lon="6.8398950">
        <ele>663.7</ele>
        <time>2022-07-20T17:58:31Z</time>
      </trkpt>
      <trkpt lat="47.3179660" lon="6.8398770">
        <ele>663.8</ele>
        <time>2022-07-20T17:58:32Z</time>
      </trkpt>
      <trkpt lat="47.3179640" lon="6.8398590">
        <ele>663.9</ele>
        <time>2022-07-20T17:58:33Z</time>
      </trkpt>
      <trkpt lat="47.3179500" lon="6.8398200">
        <ele>664.2</ele>
        <time>2022-07-20T17:58:34Z</time>
      </trkpt>
      <trkpt lat="47.3179450" lon="6.8398040">
        <ele>664.3</ele>
        <time>2022-07-20T17:58:35Z</time>
      </trkpt>
      <trkpt lat="47.3179280" lon="6.8397480">
        <ele>664.7</ele>
        <time>2022-07-20T17:58:37Z</time>
      </trkpt>
      <trkpt lat="47.3179190" lon="6.8397160">
        <ele>664.9</ele>
        <time>2022-07-20T17:58:38Z</time>
      </trkpt>
      <trkpt lat="47.3179070" lon="6.8396780">
        <ele>665.1</ele>
        <time>2022-07-20T17:58:40Z</time>
      </trkpt>
      <trkpt lat="47.3178850" lon="6.8396260">
        <ele>665.5</ele>
        <time>2022-07-20T17:58:41Z</time>
      </trkpt>
      <trkpt lat="47.3178680" lon="6.8395800">
        <ele>665.8</ele>
        <time>2022-07-20T17:58:42Z</time>
      </trkpt>
      <trkpt lat="47.3178630" lon="6.8395660">
        <ele>665.9</ele>
        <time>2022-07-20T17:58:43Z</time>
      </trkpt>
      <trkpt lat="47.3178540" lon="6.8395350">
        <ele>666.1</ele>
        <time>2022-07-20T17:58:44Z</time>
      </trkpt>
      <trkpt lat="47.3178430" lon="6.8395090">
        <ele>666.3</ele>
        <time>2022-07-20T17:58:46Z</time>
      </trkpt>
      <trkpt lat="47.3178320" lon="6.8394890">
        <ele>666.5</ele>
        <time>2022-07-20T17:58:47Z</time>
      </trkpt>
      <trkpt lat="47.3178210" lon="6.8394680">
        <ele>666.6</ele>
        <time>2022-07-20T17:58:48Z</time>
      </trkpt>
      <trkpt lat="47.3178130" lon="6.8394490">
        <ele>666.8</ele>
        <time>2022-07-20T17:58:49Z</time>
      </trkpt>
      <trkpt lat="47.3178050" lon="6.8394320">
        <ele>666.9</ele>
        <time>2022-07-20T17:58:50Z</time>
      </trkpt>
      <trkpt lat="47.3177920" lon="6.8393970">
        <ele>667.2</ele>
        <time>2022-07-20T17:58:51Z</time>
      </trkpt>
      <trkpt lat="47.3177790" lon="6.8393610">
        <ele>667.4</ele>
        <time>2022-07-20T17:58:52Z</time>
      </trkpt>
      <trkpt lat="47.3177750" lon="6.8393490">
        <ele>667.5</ele>
        <time>2022-07-20T17:58:53Z</time>
      </trkpt>
      <trkpt lat="47.3177680" lon="6.8393290">
        <ele>667.7</ele>
        <time>2022-07-20T17:58:54Z</time>
      </trkpt>
      <trkpt lat="47.3177590" lon="6.8393100">
        <ele>667.8</ele>
        <time>2022-07-20T17:58:55Z</time>
      </trkpt>
      <trkpt lat="47.3177520" lon="6.8392960">
        <ele>667.9</ele>
        <time>2022-07-20T17:58:56Z</time>
      </trkpt>
      <trkpt lat="47.3177460" lon="6.8392710">
        <ele>668.1</ele>
        <time>2022-07-20T17:58:57Z</time>
      </trkpt>
      <trkpt lat="47.3177410" lon="6.8392470">
        <ele>668.3</ele>
        <time>2022-07-20T17:58:58Z</time>
      </trkpt>
      <trkpt lat="47.3177390" lon="6.8392260">
        <ele>668.4</ele>
        <time>2022-07-20T17:58:59Z</time>
      </trkpt>
      <trkpt lat="47.3177360" lon="6.8392030">
        <ele>668.6</ele>
        <time>2022-07-20T17:59:00Z</time>
      </trkpt>
      <trkpt lat="47.3177340" lon="6.8391860">
        <ele>668.7</ele>
        <time>2022-07-20T17:59:01Z</time>
      </trkpt>
      <trkpt lat="47.3177290" lon="6.8391580">
        <ele>668.9</ele>
        <time>2022-07-20T17:59:03Z</time>
      </trkpt>
      <trkpt lat="47.3177250" lon="6.8391460">
        <ele>668.9</ele>
        <time>2022-07-20T17:59:04Z</time>
      </trkpt>
      <trkpt lat="47.3177220" lon="6.8391350">
        <ele>669.0</ele>
        <time>2022-07-20T17:59:05Z</time>
      </trkpt>
      <trkpt lat="47.3177190" lon="6.8391200">
        <ele>669.1</ele>
        <time>2022-07-20T17:59:06Z</time>
      </trkpt>
      <trkpt lat="47.3177140" lon="6.8390890">
        <ele>669.3</ele>
        <time>2022-07-20T17:59:07Z</time>
      </trkpt>
      <trkpt lat="47.3177080" lon="6.8390660">
        <ele>669.5</ele>
        <time>2022-07-20T17:59:09Z</time>
      </trkpt>
      <trkpt lat="47.3177040" lon="6.8390510">
        <ele>669.6</ele>
        <time>2022-07-20T17:59:10Z</time>
      </trkpt>
      <trkpt lat="47.3176990" lon="6.8390310">
        <ele>669.7</ele>
        <time>2022-07-20T17:59:11Z</time>
      </trkpt>
      <trkpt lat="47.3176940" lon="6.8390090">
        <ele>669.8</ele>
        <time>2022-07-20T17:59:12Z</time>
      </trkpt>
      <trkpt lat="47.3176850" lon="6.8389840">
        <ele>670.0</ele>
        <time>2022-07-20T17:59:13Z</time>
      </trkpt>
      <trkpt lat="47.3176780" lon="6.8389650">
        <ele>670.1</ele>
        <time>2022-07-20T17:59:14Z</time>
      </trkpt>
      <trkpt lat="47.3176740" lon="6.8389390">
        <ele>670.3</ele>
        <time>2022-07-20T17:59:15Z</time>
      </trkpt>
      <trkpt lat="47.3176650" lon="6.8389080">
        <ele>670.5</ele>
        <time>2022-07-20T17:59:17Z</time>
      </trkpt>
      <trkpt lat="47.3176500" lon="6.8388610">
        <ele>670.8</ele>
        <time>2022-07-20T17:59:18Z</time>
      </trkpt>
      <trkpt lat="47.3176470" lon="6.8388480">
        <ele>670.9</ele>
        <time>2022-07-20T17:59:19Z</time>
      </trkpt>
      <trkpt lat="47.3176350" lon="6.8387990">
        <ele>671.2</ele>
        <time>2022-07-20T17:59:21Z</time>
      </trkpt>
      <trkpt lat="47.3176310" lon="6.8387850">
        <ele>671.3</ele>
        <time>2022-07-20T17:59:22Z</time>
      </trkpt>
      <trkpt lat="47.3176240" lon="6.8387450">
        <ele>671.5</ele>
        <time>2022-07-20T17:59:23Z</time>
      </trkpt>
      <trkpt lat="47.3176210" lon="6.8387340">
        <ele>671.6</ele>
        <time>2022-07-20T17:59:24Z</time>
      </trkpt>
      <trkpt lat="47.3176130" lon="6.8386900">
        <ele>671.9</ele>
        <time>2022-07-20T17:59:26Z</time>
      </trkpt>
      <trkpt lat="47.3176110" lon="6.8386740">
        <ele>672.0</ele>
        <time>2022-07-20T17:59:27Z</time>
      </trkpt>
      <trkpt lat="47.3176090" lon="6.8386260">
        <ele>672.2</ele>
        <time>2022-07-20T17:59:28Z</time>
      </trkpt>
      <trkpt lat="47.3176080" lon="6.8386140">
        <ele>672.3</ele>
        <time>2022-07-20T17:59:29Z</time>
      </trkpt>
      <trkpt lat="47.3176030" lon="6.8385890">
        <ele>672.5</ele>
        <time>2022-07-20T17:59:30Z</time>
      </trkpt>
      <trkpt lat="47.3175930" lon="6.8385500">
        <ele>672.7</ele>
        <time>2022-07-20T17:59:32Z</time>
      </trkpt>
      <trkpt lat="47.3175830" lon="6.8385190">
        <ele>672.9</ele>
        <time>2022-07-20T17:59:33Z</time>
      </trkpt>
      <trkpt lat="47.3175790" lon="6.8385020">
        <ele>673.0</ele>
        <time>2022-07-20T17:59:34Z</time>
      </trkpt>
      <trkpt lat="47.3175640" lon="6.8384660">
        <ele>673.3</ele>
        <time>2022-07-20T17:59:35Z</time>
      </trkpt>
      <trkpt lat="47.3175560" lon="6.8384510">
        <ele>673.5</ele>
        <time>2022-07-20T17:59:36Z</time>
      </trkpt>
      <trkpt lat="47.3175370" lon="6.8384050">
        <ele>673.8</ele>
        <time>2022-07-20T17:59:37Z</time>
      </trkpt>
      <trkpt lat="47.3175310" lon="6.8383900">
        <ele>673.9</ele>
        <time>2022-07-20T17:59:38Z</time>
      </trkpt>
      <trkpt lat="47.3175150" lon="6.8383430">
        <ele>674.3</ele>
        <time>2022-07-20T17:59:40Z</time>
      </trkpt>
      <trkpt lat="47.3174990" lon="6.8383110">
        <ele>674.5</ele>
        <time>2022-07-20T17:59:41Z</time>
      </trkpt>
      <trkpt lat="47.3174770" lon="6.8382660">
        <ele>674.9</ele>
        <time>2022-07-20T17:59:43Z</time>
      </trkpt>
      <trkpt lat="47.3174620" lon="6.8382210">
        <ele>675.2</ele>
        <time>2022-07-20T17:59:44Z</time>
      </trkpt>
      <trkpt lat="47.3174540" lon="6.8382020">
        <ele>675.4</ele>
        <time>2022-07-20T17:59:45Z</time>
      </trkpt>
      <trkpt lat="47.3174390" lon="6.8381650">
        <ele>675.6</ele>
        <time>2022-07-20T17:59:47Z</time>
      </trkpt>
      <trkpt lat="47.3174350" lon="6.8381530">
        <ele>675.7</ele>
        <time>2022-07-20T17:59:48Z</time>
      </trkpt>
      <trkpt lat="47.3174190" lon="6.8381110">
        <ele>676.1</ele>
        <time>2022-07-20T17:59:49Z</time>
      </trkpt>
      <trkpt lat="47.3174140" lon="6.8381000">
        <ele>676.1</ele>
        <time>2022-07-20T17:59:50Z</time>
      </trkpt>
      <trkpt lat="47.3174010" lon="6.8380700">
        <ele>676.4</ele>
        <time>2022-07-20T17:59:51Z</time>
      </trkpt>
      <trkpt lat="47.3173940" lon="6.8380430">
        <ele>676.6</ele>
        <time>2022-07-20T17:59:53Z</time>
      </trkpt>
      <trkpt lat="47.3173870" lon="6.8380220">
        <ele>676.7</ele>
        <time>2022-07-20T17:59:54Z</time>
      </trkpt>
      <trkpt lat="47.3173770" lon="6.8380020">
        <ele>676.9</ele>
        <time>2022-07-20T17:59:55Z</time>
      </trkpt>
      <trkpt lat="47.3173680" lon="6.8379820">
        <ele>677.0</ele>
        <time>2022-07-20T17:59:56Z</time>
      </trkpt>
      <trkpt lat="47.3173630" lon="6.8379620">
        <ele>677.2</ele>
        <time>2022-07-20T17:59:57Z</time>
      </trkpt>
      <trkpt lat="47.3173550" lon="6.8379190">
        <ele>677.4</ele>
        <time>2022-07-20T17:59:58Z</time>
      </trkpt>
      <trkpt lat="47.3173530" lon="6.8378980">
        <ele>677.6</ele>
        <time>2022-07-20T18:00:00Z</time>
      </trkpt>
      <trkpt lat="47.3173520" lon="6.8378760">
        <ele>677.7</ele>
        <time>2022-07-20T18:00:01Z</time>
      </trkpt>
      <trkpt lat="47.3173500" lon="6.8378550">
        <ele>677.9</ele>
        <time>2022-07-20T18:00:02Z</time>
      </trkpt>
      <trkpt lat="47.3173470" lon="6.8378170">
        <ele>678.1</ele>
        <time>2022-07-20T18:00:03Z</time>
      </trkpt>
      <trkpt lat="47.3173460" lon="6.8378000">
        <ele>678.2</ele>
        <time>2022-07-20T18:00:04Z</time>
      </trkpt>
      <trkpt lat="47.3173390" lon="6.8377480">
        <ele>678.6</ele>
        <time>2022-07-20T18:00:06Z</time>
      </trkpt>
      <trkpt lat="47.3173380" lon="6.8377340">
        <ele>678.6</ele>
        <time>2022-07-20T18:00:07Z</time>
      </trkpt>
      <trkpt lat="47.3173340" lon="6.8376910">
        <ele>678.9</ele>
        <time>2022-07-20T18:00:08Z</time>
      </trkpt>
      <trkpt lat="47.3173320" lon="6.8376770">
        <ele>679.0</ele>
        <time>2022-07-20T18:00:09Z</time>
      </trkpt>
      <trkpt lat="47.3173300" lon="6.8376170">
        <ele>679.4</ele>
        <time>2022-07-20T18:00:11Z</time>
      </trkpt>
      <trkpt lat="47.3173310" lon="6.8375980">
        <ele>679.5</ele>
        <time>2022-07-20T18:00:12Z</time>
      </trkpt>
      <trkpt lat="47.3173320" lon="6.8375790">
        <ele>679.6</ele>
        <time>2022-07-20T18:00:13Z</time>
      </trkpt>
      <trkpt lat="47.3173290" lon="6.8375500">
        <ele>679.8</ele>
        <time>2022-07-20T18:00:14Z</time>
      </trkpt>
      <trkpt lat="47.3173180" lon="6.8375320">
        <ele>680.0</ele>
        <time>2022-07-20T18:00:15Z</time>
      </trkpt>
      <trkpt lat="47.3173110" lon="6.8375090">
        <ele>680.1</ele>
        <time>2022-07-20T18:00:16Z</time>
      </trkpt>
      <trkpt lat="47.3173050" lon="6.8374750">
        <ele>680.4</ele>
        <time>2022-07-20T18:00:18Z</time>
      </trkpt>
      <trkpt lat="47.3173030" lon="6.8374350">
        <ele>680.6</ele>
        <time>2022-07-20T18:00:19Z</time>
      </trkpt>
      <trkpt lat="47.3172980" lon="6.8373900">
        <ele>680.9</ele>
        <time>2022-07-20T18:00:21Z</time>
      </trkpt>
      <trkpt lat="47.3172950" lon="6.8373760">
        <ele>681.0</ele>
        <time>2022-07-20T18:00:22Z</time>
      </trkpt>
      <trkpt lat="47.3172920" lon="6.8373530">
        <ele>681.2</ele>
        <time>2022-07-20T18:00:23Z</time>
      </trkpt>
      <trkpt lat="47.3172870" lon="6.8373250">
        <ele>681.4</ele>
        <time>2022-07-20T18:00:24Z</time>
      </trkpt>
      <trkpt lat="47.3172790" lon="6.8372850">
        <ele>681.6</ele>
        <time>2022-07-20T18:00:25Z</time>
      </trkpt>
      <trkpt lat="47.3172750" lon="6.8372710">
        <ele>681.7</ele>
        <time>2022-07-20T18:00:26Z</time>
      </trkpt>
      <trkpt lat="47.3172670" lon="6.8372320">
        <ele>682.0</ele>
        <time>2022-07-20T18:00:28Z</time>
      </trkpt>
      <trkpt lat="47.3172640" lon="6.8372180">
        <ele>682.1</ele>
        <time>2022-07-20T18:00:29Z</time>
      </trkpt>
      <trkpt lat="47.3172600" lon="6.8372010">
        <ele>682.2</ele>
        <time>2022-07-20T18:00:30Z</time>
      </trkpt>
      <trkpt lat="47.3172480" lon="6.8371820">
        <ele>682.4</ele>
        <time>2022-07-20T18:00:31Z</time>
      </trkpt>
      <trkpt lat="47.3172290" lon="6.8371520">
        <ele>682.6</ele>
        <time>2022-07-20T18:00:33Z</time>
      </trkpt>
      <trkpt lat="47.3172170" lon="6.8371340">
        <ele>682.8</ele>
        <time>2022-07-20T18:00:34Z</time>
      </trkpt>
      <trkpt lat="47.3172110" lon="6.8371150">
        <ele>682.9</ele>
        <time>2022-07-20T18:00:35Z</time>
      </trkpt>
      <trkpt lat="47.3172050" lon="6.8370720">
        <ele>683.2</ele>
        <time>2022-07-20T18:00:36Z</time>
      </trkpt>
      <trkpt lat="47.3172020" lon="6.8370550">
        <ele>683.3</ele>
        <time>2022-07-20T18:00:37Z</time>
      </trkpt>
      <trkpt lat="47.3171920" lon="6.8370000">
        <ele>683.7</ele>
        <time>2022-07-20T18:00:39Z</time>
      </trkpt>
      <trkpt lat="47.3171880" lon="6.8369810">
        <ele>683.8</ele>
        <time>2022-07-20T18:00:40Z</time>
      </trkpt>
      <trkpt lat="47.3171860" lon="6.8369390">
        <ele>684.1</ele>
        <time>2022-07-20T18:00:41Z</time>
      </trkpt>
      <trkpt lat="47.3171860" lon="6.8369260">
        <ele>684.2</ele>
        <time>2022-07-20T18:00:42Z</time>
      </trkpt>
      <trkpt lat="47.3171800" lon="6.8368790">
        <ele>684.5</ele>
        <time>2022-07-20T18:00:43Z</time>
      </trkpt>
      <trkpt lat="47.3171570" lon="6.8368280">
        <ele>684.9</ele>
        <time>2022-07-20T18:00:45Z</time>
      </trkpt>
      <trkpt lat="47.3171490" lon="6.8368150">
        <ele>685.0</ele>
        <time>2022-07-20T18:00:46Z</time>
      </trkpt>
      <trkpt lat="47.3171400" lon="6.8368010">
        <ele>685.1</ele>
        <time>2022-07-20T18:00:47Z</time>
      </trkpt>
      <trkpt lat="47.3171300" lon="6.8367830">
        <ele>685.3</ele>
        <time>2022-07-20T18:00:48Z</time>
      </trkpt>
      <trkpt lat="47.3171150" lon="6.8367660">
        <ele>685.5</ele>
        <time>2022-07-20T18:00:49Z</time>
      </trkpt>
      <trkpt lat="47.3170910" lon="6.8367370">
        <ele>685.8</ele>
        <time>2022-07-20T18:00:50Z</time>
      </trkpt>
      <trkpt lat="47.3170810" lon="6.8367210">
        <ele>685.9</ele>
        <time>2022-07-20T18:00:52Z</time>
      </trkpt>
      <trkpt lat="47.3170710" lon="6.8367060">
        <ele>686.1</ele>
        <time>2022-07-20T18:00:53Z</time>
      </trkpt>
      <trkpt lat="47.3170610" lon="6.8366900">
        <ele>686.2</ele>
        <time>2022-07-20T18:00:54Z</time>
      </trkpt>
      <trkpt lat="47.3170510" lon="6.8366730">
        <ele>686.3</ele>
        <time>2022-07-20T18:00:55Z</time>
      </trkpt>
      <trkpt lat="47.3170410" lon="6.8366590">
        <ele>686.5</ele>
        <time>2022-07-20T18:00:56Z</time>
      </trkpt>
      <trkpt lat="47.3170330" lon="6.8366490">
        <ele>686.6</ele>
        <time>2022-07-20T18:00:57Z</time>
      </trkpt>
      <trkpt lat="47.3170180" lon="6.8366290">
        <ele>686.8</ele>
        <time>2022-07-20T18:00:58Z</time>
      </trkpt>
      <trkpt lat="47.3170050" lon="6.8366110">
        <ele>687.0</ele>
        <time>2022-07-20T18:00:59Z</time>
      </trkpt>
      <trkpt lat="47.3169910" lon="6.8365830">
        <ele>687.2</ele>
        <time>2022-07-20T18:01:01Z</time>
      </trkpt>
      <trkpt lat="47.3169780" lon="6.8365420">
        <ele>687.5</ele>
        <time>2022-07-20T18:01:02Z</time>
      </trkpt>
      <trkpt lat="47.3169740" lon="6.8365220">
        <ele>687.6</ele>
        <time>2022-07-20T18:01:04Z</time>
      </trkpt>
      <trkpt lat="47.3169700" lon="6.8365020">
        <ele>687.7</ele>
        <time>2022-07-20T18:01:05Z</time>
      </trkpt>
      <trkpt lat="47.3169660" lon="6.8364830">
        <ele>687.8</ele>
        <time>2022-07-20T18:01:06Z</time>
      </trkpt>
      <trkpt lat="47.3169570" lon="6.8364540">
        <ele>688.1</ele>
        <time>2022-07-20T18:01:07Z</time>
      </trkpt>
      <trkpt lat="47.3169440" lon="6.8364350">
        <ele>688.3</ele>
        <time>2022-07-20T18:01:09Z</time>
      </trkpt>
      <trkpt lat="47.3169270" lon="6.8364090">
        <ele>688.5</ele>
        <time>2022-07-20T18:01:10Z</time>
      </trkpt>
      <trkpt lat="47.3169190" lon="6.8363950">
        <ele>688.6</ele>
        <time>2022-07-20T18:01:11Z</time>
      </trkpt>
      <trkpt lat="47.3169100" lon="6.8363820">
        <ele>688.7</ele>
        <time>2022-07-20T18:01:12Z</time>
      </trkpt>
      <trkpt lat="47.3168980" lon="6.8363610">
        <ele>688.9</ele>
        <time>2022-07-20T18:01:14Z</time>
      </trkpt>
      <trkpt lat="47.3168900" lon="6.8363410">
        <ele>689.0</ele>
        <time>2022-07-20T18:01:15Z</time>
      </trkpt>
      <trkpt lat="47.3168660" lon="6.8363110">
        <ele>689.3</ele>
        <time>2022-07-20T18:01:16Z</time>
      </trkpt>
      <trkpt lat="47.3168590" lon="6.8363010">
        <ele>689.4</ele>
        <time>2022-07-20T18:01:17Z</time>
      </trkpt>
      <trkpt lat="47.3168470" lon="6.8362710">
        <ele>689.6</ele>
        <time>2022-07-20T18:01:18Z</time>
      </trkpt>
      <trkpt lat="47.3168380" lon="6.8362440">
        <ele>689.8</ele>
        <time>2022-07-20T18:01:20Z</time>
      </trkpt>
      <trkpt lat="47.3168250" lon="6.8362070">
        <ele>690.0</ele>
        <time>2022-07-20T18:01:21Z</time>
      </trkpt>
      <trkpt lat="47.3168180" lon="6.8361960">
        <ele>690.1</ele>
        <time>2022-07-20T18:01:22Z</time>
      </trkpt>
      <trkpt lat="47.3167980" lon="6.8361780">
        <ele>690.3</ele>
        <time>2022-07-20T18:01:23Z</time>
      </trkpt>
      <trkpt lat="47.3167780" lon="6.8361590">
        <ele>690.5</ele>
        <time>2022-07-20T18:01:25Z</time>
      </trkpt>
      <trkpt lat="47.3167500" lon="6.8361400">
        <ele>690.7</ele>
        <time>2022-07-20T18:01:26Z</time>
      </trkpt>
      <trkpt lat="47.3167440" lon="6.8361360">
        <ele>690.8</ele>
        <time>2022-07-20T18:01:27Z</time>
      </trkpt>
      <trkpt lat="47.3167330" lon="6.8361290">
        <ele>690.9</ele>
        <time>2022-07-20T18:01:28Z</time>
      </trkpt>
      <trkpt lat="47.3167240" lon="6.8361190">
        <ele>691.0</ele>
        <time>2022-07-20T18:01:29Z</time>
      </trkpt>
      <trkpt lat="47.3167090" lon="6.8361090">
        <ele>691.1</ele>
        <time>2022-07-20T18:01:31Z</time>
      </trkpt>
      <trkpt lat="47.3166790" lon="6.8361000">
        <ele>691.3</ele>
        <time>2022-07-20T18:01:32Z</time>
      </trkpt>
      <trkpt lat="47.3166680" lon="6.8360980">
        <ele>691.4</ele>
        <time>2022-07-20T18:01:33Z</time>
      </trkpt>
      <trkpt lat="47.3166570" lon="6.8360920">
        <ele>691.5</ele>
        <time>2022-07-20T18:01:34Z</time>
      </trkpt>
      <trkpt lat="47.3166220" lon="6.8360690">
        <ele>691.7</ele>
        <time>2022-07-20T18:01:36Z</time>
      </trkpt>
      <trkpt lat="47.3166100" lon="6.8360560">
        <ele>691.8</ele>
        <time>2022-07-20T18:01:37Z</time>
      </trkpt>
      <trkpt lat="47.3165690" lon="6.8360350">
        <ele>692.1</ele>
        <time>2022-07-20T18:01:39Z</time>
      </trkpt>
      <trkpt lat="47.3165530" lon="6.8360290">
        <ele>692.2</ele>
        <time>2022-07-20T18:01:40Z</time>
      </trkpt>
      <trkpt lat="47.3165370" lon="6.8360230">
        <ele>692.3</ele>
        <time>2022-07-20T18:01:41Z</time>
      </trkpt>
      <trkpt lat="47.3165090" lon="6.8360140">
        <ele>692.5</ele>
        <time>2022-07-20T18:01:42Z</time>
      </trkpt>
      <trkpt lat="47.3164770" lon="6.8360050">
        <ele>692.7</ele>
        <time>2022-07-20T18:01:44Z</time>
      </trkpt>
      <trkpt lat="47.3164520" lon="6.8359920">
        <ele>692.9</ele>
        <time>2022-07-20T18:01:45Z</time>
      </trkpt>
      <trkpt lat="47.3164260" lon="6.8359790">
        <ele>693.1</ele>
        <time>2022-07-20T18:01:47Z</time>
      </trkpt>
      <trkpt lat="47.3163940" lon="6.8359670">
        <ele>693.4</ele>
        <time>2022-07-20T18:01:48Z</time>
      </trkpt>
      <trkpt lat="47.3163860" lon="6.8359650">
        <ele>693.4</ele>
        <time>2022-07-20T18:01:49Z</time>
      </trkpt>
      <trkpt lat="47.3163670" lon="6.8359630">
        <ele>693.5</ele>
        <time>2022-07-20T18:01:50Z</time>
      </trkpt>
      <trkpt lat="47.3163500" lon="6.8359640">
        <ele>693.7</ele>
        <time>2022-07-20T18:01:51Z</time>
      </trkpt>
      <trkpt lat="47.3163210" lon="6.8359640">
        <ele>693.9</ele>
        <time>2022-07-20T18:01:52Z</time>
      </trkpt>
      <trkpt lat="47.3163110" lon="6.8359630">
        <ele>694.0</ele>
        <time>2022-07-20T18:01:53Z</time>
      </trkpt>
      <trkpt lat="47.3162820" lon="6.8359570">
        <ele>694.2</ele>
        <time>2022-07-20T18:01:54Z</time>
      </trkpt>
      <trkpt lat="47.3162730" lon="6.8359550">
        <ele>694.3</ele>
        <time>2022-07-20T18:01:55Z</time>
      </trkpt>
      <trkpt lat="47.3162500" lon="6.8359460">
        <ele>694.5</ele>
        <time>2022-07-20T18:01:56Z</time>
      </trkpt>
      <trkpt lat="47.3162200" lon="6.8359380">
        <ele>694.7</ele>
        <time>2022-07-20T18:01:58Z</time>
      </trkpt>
      <trkpt lat="47.3161910" lon="6.8359320">
        <ele>694.9</ele>
        <time>2022-07-20T18:01:59Z</time>
      </trkpt>
      <trkpt lat="47.3161810" lon="6.8359300">
        <ele>695.0</ele>
        <time>2022-07-20T18:02:00Z</time>
      </trkpt>
      <trkpt lat="47.3161500" lon="6.8359300">
        <ele>695.3</ele>
        <time>2022-07-20T18:02:01Z</time>
      </trkpt>
      <trkpt lat="47.3161350" lon="6.8359300">
        <ele>695.4</ele>
        <time>2022-07-20T18:02:02Z</time>
      </trkpt>
      <trkpt lat="47.3160990" lon="6.8359290">
        <ele>695.7</ele>
        <time>2022-07-20T18:02:04Z</time>
      </trkpt>
      <trkpt lat="47.3160840" lon="6.8359280">
        <ele>695.8</ele>
        <time>2022-07-20T18:02:05Z</time>
      </trkpt>
      <trkpt lat="47.3160540" lon="6.8359270">
        <ele>696.0</ele>
        <time>2022-07-20T18:02:06Z</time>
      </trkpt>
      <trkpt lat="47.3160450" lon="6.8359260">
        <ele>696.1</ele>
        <time>2022-07-20T18:02:07Z</time>
      </trkpt>
      <trkpt lat="47.3160130" lon="6.8359190">
        <ele>696.3</ele>
        <time>2022-07-20T18:02:08Z</time>
      </trkpt>
      <trkpt lat="47.3160020" lon="6.8359150">
        <ele>696.4</ele>
        <time>2022-07-20T18:02:09Z</time>
      </trkpt>
      <trkpt lat="47.3159620" lon="6.8359080">
        <ele>696.7</ele>
        <time>2022-07-20T18:02:10Z</time>
      </trkpt>
      <trkpt lat="47.3159470" lon="6.8359050">
        <ele>696.8</ele>
        <time>2022-07-20T18:02:11Z</time>
      </trkpt>
      <trkpt lat="47.3159180" lon="6.8358970">
        <ele>697.0</ele>
        <time>2022-07-20T18:02:12Z</time>
      </trkpt>
      <trkpt lat="47.3158780" lon="6.8358870">
        <ele>697.3</ele>
        <time>2022-07-20T18:02:14Z</time>
      </trkpt>
      <trkpt lat="47.3158430" lon="6.8358820">
        <ele>697.5</ele>
        <time>2022-07-20T18:02:15Z</time>
      </trkpt>
      <trkpt lat="47.3158290" lon="6.8358810">
        <ele>697.6</ele>
        <time>2022-07-20T18:02:16Z</time>
      </trkpt>
      <trkpt lat="47.3157990" lon="6.8358790">
        <ele>697.7</ele>
        <time>2022-07-20T18:02:17Z</time>
      </trkpt>
      <trkpt lat="47.3157640" lon="6.8358730">
        <ele>697.9</ele>
        <time>2022-07-20T18:02:18Z</time>
      </trkpt>
      <trkpt lat="47.3157250" lon="6.8358650">
        <ele>698.1</ele>
        <time>2022-07-20T18:02:20Z</time>
      </trkpt>
      <trkpt lat="47.3156850" lon="6.8358590">
        <ele>698.4</ele>
        <time>2022-07-20T18:02:21Z</time>
      </trkpt>
      <trkpt lat="47.3156700" lon="6.8358580">
        <ele>698.4</ele>
        <time>2022-07-20T18:02:22Z</time>
      </trkpt>
      <trkpt lat="47.3156340" lon="6.8358600">
        <ele>698.6</ele>
        <time>2022-07-20T18:02:24Z</time>
      </trkpt>
      <trkpt lat="47.3155980" lon="6.8358590">
        <ele>698.8</ele>
        <time>2022-07-20T18:02:25Z</time>
      </trkpt>
      <trkpt lat="47.3155880" lon="6.8358590">
        <ele>698.8</ele>
        <time>2022-07-20T18:02:26Z</time>
      </trkpt>
      <trkpt lat="47.3155640" lon="6.8358650">
        <ele>699.0</ele>
        <time>2022-07-20T18:02:27Z</time>
      </trkpt>
      <trkpt lat="47.3155260" lon="6.8358630">
        <ele>699.2</ele>
        <time>2022-07-20T18:02:29Z</time>
      </trkpt>
      <trkpt lat="47.3155040" lon="6.8358540">
        <ele>699.3</ele>
        <time>2022-07-20T18:02:30Z</time>
      </trkpt>
      <trkpt lat="47.3154850" lon="6.8358500">
        <ele>699.4</ele>
        <time>2022-07-20T18:02:31Z</time>
      </trkpt>
      <trkpt lat="47.3154610" lon="6.8358400">
        <ele>699.5</ele>
        <time>2022-07-20T18:02:33Z</time>
      </trkpt>
      <trkpt lat="47.3154340" lon="6.8358350">
        <ele>699.6</ele>
        <time>2022-07-20T18:02:34Z</time>
      </trkpt>
      <trkpt lat="47.3154040" lon="6.8358290">
        <ele>699.8</ele>
        <time>2022-07-20T18:02:35Z</time>
      </trkpt>
      <trkpt lat="47.3153930" lon="6.8358280">
        <ele>699.8</ele>
        <time>2022-07-20T18:02:36Z</time>
      </trkpt>
      <trkpt lat="47.3153540" lon="6.8358210">
        <ele>700.0</ele>
        <time>2022-07-20T18:02:37Z</time>
      </trkpt>
      <trkpt lat="47.3153400" lon="6.8358180">
        <ele>700.1</ele>
        <time>2022-07-20T18:02:38Z</time>
      </trkpt>
      <trkpt lat="47.3153020" lon="6.8358120">
        <ele>700.3</ele>
        <time>2022-07-20T18:02:40Z</time>
      </trkpt>
      <trkpt lat="47.3152880" lon="6.8358110">
        <ele>700.4</ele>
        <time>2022-07-20T18:02:41Z</time>
      </trkpt>
      <trkpt lat="47.3152530" lon="6.8358130">
        <ele>700.5</ele>
        <time>2022-07-20T18:02:42Z</time>
      </trkpt>
      <trkpt lat="47.3152410" lon="6.8358130">
        <ele>700.6</ele>
        <time>2022-07-20T18:02:43Z</time>
      </trkpt>
      <trkpt lat="47.3152020" lon="6.8358070">
        <ele>700.8</ele>
        <time>2022-07-20T18:02:44Z</time>
      </trkpt>
      <trkpt lat="47.3151890" lon="6.8358060">
        <ele>700.9</ele>
        <time>2022-07-20T18:02:45Z</time>
      </trkpt>
      <trkpt lat="47.3151520" lon="6.8358020">
        <ele>701.1</ele>
        <time>2022-07-20T18:02:47Z</time>
      </trkpt>
      <trkpt lat="47.3151210" lon="6.8357980">
        <ele>701.2</ele>
        <time>2022-07-20T18:02:48Z</time>
      </trkpt>
      <trkpt lat="47.3151100" lon="6.8357960">
        <ele>701.3</ele>
        <time>2022-07-20T18:02:49Z</time>
      </trkpt>
      <trkpt lat="47.3150760" lon="6.8357890">
        <ele>701.5</ele>
        <time>2022-07-20T18:02:50Z</time>
      </trkpt>
      <trkpt lat="47.3150670" lon="6.8357870">
        <ele>701.6</ele>
        <time>2022-07-20T18:02:51Z</time>
      </trkpt>
      <trkpt lat="47.3150360" lon="6.8357820">
        <ele>701.7</ele>
        <time>2022-07-20T18:02:52Z</time>
      </trkpt>
      <trkpt lat="47.3150240" lon="6.8357810">
        <ele>701.8</ele>
        <time>2022-07-20T18:02:53Z</time>
      </trkpt>
      <trkpt lat="47.3149900" lon="6.8357730">
        <ele>702.0</ele>
        <time>2022-07-20T18:02:54Z</time>
      </trkpt>
      <trkpt lat="47.3149780" lon="6.8357700">
        <ele>702.1</ele>
        <time>2022-07-20T18:02:55Z</time>
      </trkpt>
      <trkpt lat="47.3149440" lon="6.8357630">
        <ele>702.3</ele>
        <time>2022-07-20T18:02:56Z</time>
      </trkpt>
      <trkpt lat="47.3149330" lon="6.8357610">
        <ele>702.4</ele>
        <time>2022-07-20T18:02:57Z</time>
      </trkpt>
      <trkpt lat="47.3148950" lon="6.8357510">
        <ele>702.6</ele>
        <time>2022-07-20T18:02:58Z</time>
      </trkpt>
      <trkpt lat="47.3148830" lon="6.8357470">
        <ele>702.6</ele>
        <time>2022-07-20T18:02:59Z</time>
      </trkpt>
      <trkpt lat="47.3148400" lon="6.8357400">
        <ele>702.9</ele>
        <time>2022-07-20T18:03:01Z</time>
      </trkpt>
      <trkpt lat="47.3148160" lon="6.8357350">
        <ele>703.0</ele>
        <time>2022-07-20T18:03:02Z</time>
      </trkpt>
      <trkpt lat="47.3147760" lon="6.8357310">
        <ele>703.2</ele>
        <time>2022-07-20T18:03:04Z</time>
      </trkpt>
      <trkpt lat="47.3147490" lon="6.8357300">
        <ele>703.3</ele>
        <time>2022-07-20T18:03:05Z</time>
      </trkpt>
      <trkpt lat="47.3147120" lon="6.8357210">
        <ele>703.5</ele>
        <time>2022-07-20T18:03:06Z</time>
      </trkpt>
      <trkpt lat="47.3147010" lon="6.8357190">
        <ele>703.6</ele>
        <time>2022-07-20T18:03:07Z</time>
      </trkpt>
      <trkpt lat="47.3146650" lon="6.8357220">
        <ele>703.8</ele>
        <time>2022-07-20T18:03:09Z</time>
      </trkpt>
      <trkpt lat="47.3146370" lon="6.8357180">
        <ele>703.9</ele>
        <time>2022-07-20T18:03:10Z</time>
      </trkpt>
      <trkpt lat="47.3146020" lon="6.8357090">
        <ele>704.1</ele>
        <time>2022-07-20T18:03:11Z</time>
      </trkpt>
      <trkpt lat="47.3145890" lon="6.8357060">
        <ele>704.2</ele>
        <time>2022-07-20T18:03:12Z</time>
      </trkpt>
      <trkpt lat="47.3145540" lon="6.8357030">
        <ele>704.4</ele>
        <time>2022-07-20T18:03:13Z</time>
      </trkpt>
      <trkpt lat="47.3145230" lon="6.8357020">
        <ele>704.5</ele>
        <time>2022-07-20T18:03:15Z</time>
      </trkpt>
      <trkpt lat="47.3144850" lon="6.8357000">
        <ele>704.8</ele>
        <time>2022-07-20T18:03:16Z</time>
      </trkpt>
      <trkpt lat="47.3144370" lon="6.8356990">
        <ele>705.0</ele>
        <time>2022-07-20T18:03:18Z</time>
      </trkpt>
      <trkpt lat="47.3144230" lon="6.8356950">
        <ele>705.1</ele>
        <time>2022-07-20T18:03:19Z</time>
      </trkpt>
      <trkpt lat="47.3144090" lon="6.8356920">
        <ele>705.2</ele>
        <time>2022-07-20T18:03:20Z</time>
      </trkpt>
      <trkpt lat="47.3143760" lon="6.8356830">
        <ele>705.3</ele>
        <time>2022-07-20T18:03:21Z</time>
      </trkpt>
      <trkpt lat="47.3143660" lon="6.8356800">
        <ele>705.4</ele>
        <time>2022-07-20T18:03:22Z</time>
      </trkpt>
      <trkpt lat="47.3143310" lon="6.8356740">
        <ele>705.6</ele>
        <time>2022-07-20T18:03:23Z</time>
      </trkpt>
      <trkpt lat="47.3143190" lon="6.8356720">
        <ele>705.7</ele>
        <time>2022-07-20T18:03:24Z</time>
      </trkpt>
      <trkpt lat="47.3142850" lon="6.8356690">
        <ele>705.9</ele>
        <time>2022-07-20T18:03:25Z</time>
      </trkpt>
      <trkpt lat="47.3142740" lon="6.8356680">
        <ele>706.0</ele>
        <time>2022-07-20T18:03:26Z</time>
      </trkpt>
      <trkpt lat="47.3142330" lon="6.8356650">
        <ele>706.2</ele>
        <time>2022-07-20T18:03:27Z</time>
      </trkpt>
      <trkpt lat="47.3142150" lon="6.8356630">
        <ele>706.4</ele>
        <time>2022-07-20T18:03:28Z</time>
      </trkpt>
      <trkpt lat="47.3141760" lon="6.8356560">
        <ele>706.6</ele>
        <time>2022-07-20T18:03:30Z</time>
      </trkpt>
      <trkpt lat="47.3141630" lon="6.8356530">
        <ele>706.7</ele>
        <time>2022-07-20T18:03:31Z</time>
      </trkpt>
      <trkpt lat="47.3141290" lon="6.8356400">
        <ele>707.0</ele>
        <time>2022-07-20T18:03:32Z</time>
      </trkpt>
      <trkpt lat="47.3141180" lon="6.8356370">
        <ele>707.0</ele>
        <time>2022-07-20T18:03:33Z</time>
      </trkpt>
      <trkpt lat="47.3140910" lon="6.8356290">
        <ele>707.2</ele>
        <time>2022-07-20T18:03:34Z</time>
      </trkpt>
      <trkpt lat="47.3140580" lon="6.8356150">
        <ele>707.4</ele>
        <time>2022-07-20T18:03:36Z</time>
      </trkpt>
      <trkpt lat="47.3140450" lon="6.8356080">
        <ele>707.5</ele>
        <time>2022-07-20T18:03:37Z</time>
      </trkpt>
      <trkpt lat="47.3140270" lon="6.8356030">
        <ele>707.7</ele>
        <time>2022-07-20T18:03:38Z</time>
      </trkpt>
      <trkpt lat="47.3139990" lon="6.8355920">
        <ele>707.9</ele>
        <time>2022-07-20T18:03:40Z</time>
      </trkpt>
      <trkpt lat="47.3139670" lon="6.8355820">
        <ele>708.1</ele>
        <time>2022-07-20T18:03:41Z</time>
      </trkpt>
      <trkpt lat="47.3139560" lon="6.8355770">
        <ele>708.2</ele>
        <time>2022-07-20T18:03:42Z</time>
      </trkpt>
      <trkpt lat="47.3139290" lon="6.8355660">
        <ele>708.4</ele>
        <time>2022-07-20T18:03:43Z</time>
      </trkpt>
      <trkpt lat="47.3139080" lon="6.8355600">
        <ele>708.6</ele>
        <time>2022-07-20T18:03:44Z</time>
      </trkpt>
      <trkpt lat="47.3138780" lon="6.8355500">
        <ele>708.8</ele>
        <time>2022-07-20T18:03:46Z</time>
      </trkpt>
      <trkpt lat="47.3138500" lon="6.8355400">
        <ele>709.0</ele>
        <time>2022-07-20T18:03:47Z</time>
      </trkpt>
      <trkpt lat="47.3138400" lon="6.8355370">
        <ele>709.1</ele>
        <time>2022-07-20T18:03:48Z</time>
      </trkpt>
      <trkpt lat="47.3138090" lon="6.8355200">
        <ele>709.3</ele>
        <time>2022-07-20T18:03:49Z</time>
      </trkpt>
      <trkpt lat="47.3137970" lon="6.8355140">
        <ele>709.4</ele>
        <time>2022-07-20T18:03:50Z</time>
      </trkpt>
      <trkpt lat="47.3137640" lon="6.8355050">
        <ele>709.6</ele>
        <time>2022-07-20T18:03:51Z</time>
      </trkpt>
      <trkpt lat="47.3137540" lon="6.8355010">
        <ele>709.7</ele>
        <time>2022-07-20T18:03:52Z</time>
      </trkpt>
      <trkpt lat="47.3137230" lon="6.8354900">
        <ele>710.0</ele>
        <time>2022-07-20T18:03:53Z</time>
      </trkpt>
      <trkpt lat="47.3137120" lon="6.8354870">
        <ele>710.1</ele>
        <time>2022-07-20T18:03:54Z</time>
      </trkpt>
      <trkpt lat="47.3136780" lon="6.8354760">
        <ele>710.3</ele>
        <time>2022-07-20T18:03:55Z</time>
      </trkpt>
      <trkpt lat="47.3136660" lon="6.8354730">
        <ele>710.4</ele>
        <time>2022-07-20T18:03:56Z</time>
      </trkpt>
      <trkpt lat="47.3136380" lon="6.8354590">
        <ele>710.6</ele>
        <time>2022-07-20T18:03:57Z</time>
      </trkpt>
      <trkpt lat="47.3136300" lon="6.8354540">
        <ele>710.7</ele>
        <time>2022-07-20T18:03:58Z</time>
      </trkpt>
      <trkpt lat="47.3135950" lon="6.8354470">
        <ele>710.9</ele>
        <time>2022-07-20T18:04:00Z</time>
      </trkpt>
      <trkpt lat="47.3135660" lon="6.8354370">
        <ele>711.1</ele>
        <time>2022-07-20T18:04:01Z</time>
      </trkpt>
      <trkpt lat="47.3135320" lon="6.8354240">
        <ele>711.3</ele>
        <time>2022-07-20T18:04:02Z</time>
      </trkpt>
      <trkpt lat="47.3135190" lon="6.8354170">
        <ele>711.4</ele>
        <time>2022-07-20T18:04:03Z</time>
      </trkpt>
      <trkpt lat="47.3134770" lon="6.8353970">
        <ele>711.7</ele>
        <time>2022-07-20T18:04:05Z</time>
      </trkpt>
      <trkpt lat="47.3134650" lon="6.8353920">
        <ele>711.8</ele>
        <time>2022-07-20T18:04:06Z</time>
      </trkpt>
      <trkpt lat="47.3134530" lon="6.8353870">
        <ele>711.9</ele>
        <time>2022-07-20T18:04:07Z</time>
      </trkpt>
      <trkpt lat="47.3134210" lon="6.8353750">
        <ele>712.1</ele>
        <time>2022-07-20T18:04:08Z</time>
      </trkpt>
      <trkpt lat="47.3134120" lon="6.8353730">
        <ele>712.1</ele>
        <time>2022-07-20T18:04:09Z</time>
      </trkpt>
      <trkpt lat="47.3133750" lon="6.8353650">
        <ele>712.4</ele>
        <time>2022-07-20T18:04:10Z</time>
      </trkpt>
      <trkpt lat="47.3133620" lon="6.8353620">
        <ele>712.5</ele>
        <time>2022-07-20T18:04:11Z</time>
      </trkpt>
      <trkpt lat="47.3133330" lon="6.8353540">
        <ele>712.7</ele>
        <time>2022-07-20T18:04:13Z</time>
      </trkpt>
      <trkpt lat="47.3133030" lon="6.8353430">
        <ele>712.9</ele>
        <time>2022-07-20T18:04:14Z</time>
      </trkpt>
      <trkpt lat="47.3132860" lon="6.8353370">
        <ele>713.0</ele>
        <time>2022-07-20T18:04:15Z</time>
      </trkpt>
      <trkpt lat="47.3132690" lon="6.8353340">
        <ele>713.1</ele>
        <time>2022-07-20T18:04:16Z</time>
      </trkpt>
      <trkpt lat="47.3132550" lon="6.8353280">
        <ele>713.2</ele>
        <time>2022-07-20T18:04:17Z</time>
      </trkpt>
      <trkpt lat="47.3132420" lon="6.8353210">
        <ele>713.3</ele>
        <time>2022-07-20T18:04:18Z</time>
      </trkpt>
      <trkpt lat="47.3132300" lon="6.8353160">
        <ele>713.4</ele>
        <time>2022-07-20T18:04:19Z</time>
      </trkpt>
      <trkpt lat="47.3132110" lon="6.8353140">
        <ele>713.6</ele>
        <time>2022-07-20T18:04:20Z</time>
      </trkpt>
      <trkpt lat="47.3131840" lon="6.8353100">
        <ele>713.7</ele>
        <time>2022-07-20T18:04:21Z</time>
      </trkpt>
      <trkpt lat="47.3131740" lon="6.8353070">
        <ele>713.8</ele>
        <time>2022-07-20T18:04:22Z</time>
      </trkpt>
      <trkpt lat="47.3131550" lon="6.8352980">
        <ele>713.9</ele>
        <time>2022-07-20T18:04:23Z</time>
      </trkpt>
      <trkpt lat="47.3131180" lon="6.8352900">
        <ele>714.2</ele>
        <time>2022-07-20T18:04:25Z</time>
      </trkpt>
      <trkpt lat="47.3130800" lon="6.8352820">
        <ele>714.4</ele>
        <time>2022-07-20T18:04:26Z</time>
      </trkpt>
      <trkpt lat="47.3130690" lon="6.8352800">
        <ele>714.5</ele>
        <time>2022-07-20T18:04:27Z</time>
      </trkpt>
      <trkpt lat="47.3130390" lon="6.8352740">
        <ele>714.7</ele>
        <time>2022-07-20T18:04:28Z</time>
      </trkpt>
      <trkpt lat="47.3130290" lon="6.8352730">
        <ele>714.8</ele>
        <time>2022-07-20T18:04:29Z</time>
      </trkpt>
      <trkpt lat="47.3129930" lon="6.8352660">
        <ele>715.0</ele>
        <time>2022-07-20T18:04:30Z</time>
      </trkpt>
      <trkpt lat="47.3129820" lon="6.8352640">
        <ele>715.1</ele>
        <time>2022-07-20T18:04:31Z</time>
      </trkpt>
      <trkpt lat="47.3129480" lon="6.8352520">
        <ele>715.3</ele>
        <time>2022-07-20T18:04:32Z</time>
      </trkpt>
      <trkpt lat="47.3129360" lon="6.8352490">
        <ele>715.4</ele>
        <time>2022-07-20T18:04:33Z</time>
      </trkpt>
      <trkpt lat="47.3129130" lon="6.8352450">
        <ele>715.5</ele>
        <time>2022-07-20T18:04:34Z</time>
      </trkpt>
      <trkpt lat="47.3128780" lon="6.8352430">
        <ele>715.8</ele>
        <time>2022-07-20T18:04:36Z</time>
      </trkpt>
      <trkpt lat="47.3128360" lon="6.8352410">
        <ele>716.0</ele>
        <time>2022-07-20T18:04:37Z</time>
      </trkpt>
      <trkpt lat="47.3128170" lon="6.8352410">
        <ele>716.1</ele>
        <time>2022-07-20T18:04:38Z</time>
      </trkpt>
      <trkpt lat="47.3127850" lon="6.8352420">
        <ele>716.3</ele>
        <time>2022-07-20T18:04:39Z</time>
      </trkpt>
      <trkpt lat="47.3127740" lon="6.8352430">
        <ele>716.4</ele>
        <time>2022-07-20T18:04:40Z</time>
      </trkpt>
      <trkpt lat="47.3127410" lon="6.8352520">
        <ele>716.6</ele>
        <time>2022-07-20T18:04:41Z</time>
      </trkpt>
      <trkpt lat="47.3127290" lon="6.8352550">
        <ele>716.7</ele>
        <time>2022-07-20T18:04:42Z</time>
      </trkpt>
      <trkpt lat="47.3126930" lon="6.8352610">
        <ele>716.9</ele>
        <time>2022-07-20T18:04:43Z</time>
      </trkpt>
      <trkpt lat="47.3126830" lon="6.8352640">
        <ele>717.0</ele>
        <time>2022-07-20T18:04:44Z</time>
      </trkpt>
      <trkpt lat="47.3126510" lon="6.8352720">
        <ele>717.2</ele>
        <time>2022-07-20T18:04:46Z</time>
      </trkpt>
      <trkpt lat="47.3126220" lon="6.8352800">
        <ele>717.4</ele>
        <time>2022-07-20T18:04:47Z</time>
      </trkpt>
      <trkpt lat="47.3125810" lon="6.8352860">
        <ele>717.6</ele>
        <time>2022-07-20T18:04:49Z</time>
      </trkpt>
      <trkpt lat="47.3125450" lon="6.8352900">
        <ele>717.9</ele>
        <time>2022-07-20T18:04:51Z</time>
      </trkpt>
      <trkpt lat="47.3125110" lon="6.8353000">
        <ele>718.1</ele>
        <time>2022-07-20T18:04:52Z</time>
      </trkpt>
      <trkpt lat="47.3125020" lon="6.8353020">
        <ele>718.2</ele>
        <time>2022-07-20T18:04:53Z</time>
      </trkpt>
      <trkpt lat="47.3124870" lon="6.8353050">
        <ele>718.3</ele>
        <time>2022-07-20T18:04:54Z</time>
      </trkpt>
      <trkpt lat="47.3124710" lon="6.8353110">
        <ele>718.4</ele>
        <time>2022-07-20T18:04:55Z</time>
      </trkpt>
      <trkpt lat="47.3124500" lon="6.8353230">
        <ele>718.6</ele>
        <time>2022-07-20T18:04:56Z</time>
      </trkpt>
      <trkpt lat="47.3124320" lon="6.8353330">
        <ele>718.7</ele>
        <time>2022-07-20T18:04:58Z</time>
      </trkpt>
      <trkpt lat="47.3124170" lon="6.8353380">
        <ele>718.8</ele>
        <time>2022-07-20T18:04:59Z</time>
      </trkpt>
      <trkpt lat="47.3123990" lon="6.8353480">
        <ele>719.0</ele>
        <time>2022-07-20T18:05:00Z</time>
      </trkpt>
      <trkpt lat="47.3123830" lon="6.8353610">
        <ele>719.1</ele>
        <time>2022-07-20T18:05:01Z</time>
      </trkpt>
      <trkpt lat="47.3123700" lon="6.8353690">
        <ele>719.2</ele>
        <time>2022-07-20T18:05:02Z</time>
      </trkpt>
      <trkpt lat="47.3123430" lon="6.8353760">
        <ele>719.4</ele>
        <time>2022-07-20T18:05:03Z</time>
      </trkpt>
      <trkpt lat="47.3123290" lon="6.8353790">
        <ele>719.5</ele>
        <time>2022-07-20T18:05:04Z</time>
      </trkpt>
      <trkpt lat="47.3122870" lon="6.8353820">
        <ele>719.8</ele>
        <time>2022-07-20T18:05:06Z</time>
      </trkpt>
      <trkpt lat="47.3122730" lon="6.8353830">
        <ele>719.9</ele>
        <time>2022-07-20T18:05:07Z</time>
      </trkpt>
      <trkpt lat="47.3122590" lon="6.8353850">
        <ele>720.0</ele>
        <time>2022-07-20T18:05:08Z</time>
      </trkpt>
      <trkpt lat="47.3122330" lon="6.8353890">
        <ele>720.1</ele>
        <time>2022-07-20T18:05:09Z</time>
      </trkpt>
      <trkpt lat="47.3121940" lon="6.8353930">
        <ele>720.4</ele>
        <time>2022-07-20T18:05:11Z</time>
      </trkpt>
      <trkpt lat="47.3121580" lon="6.8353880">
        <ele>720.6</ele>
        <time>2022-07-20T18:05:12Z</time>
      </trkpt>
      <trkpt lat="47.3121450" lon="6.8353860">
        <ele>720.7</ele>
        <time>2022-07-20T18:05:13Z</time>
      </trkpt>
      <trkpt lat="47.3121140" lon="6.8353750">
        <ele>720.9</ele>
        <time>2022-07-20T18:05:14Z</time>
      </trkpt>
      <trkpt lat="47.3120870" lon="6.8353610">
        <ele>721.1</ele>
        <time>2022-07-20T18:05:16Z</time>
      </trkpt>
      <trkpt lat="47.3120770" lon="6.8353560">
        <ele>721.2</ele>
        <time>2022-07-20T18:05:17Z</time>
      </trkpt>
      <trkpt lat="47.3120420" lon="6.8353460">
        <ele>721.4</ele>
        <time>2022-07-20T18:05:18Z</time>
      </trkpt>
      <trkpt lat="47.3120120" lon="6.8353310">
        <ele>721.6</ele>
        <time>2022-07-20T18:05:19Z</time>
      </trkpt>
      <trkpt lat="47.3120030" lon="6.8353230">
        <ele>721.7</ele>
        <time>2022-07-20T18:05:20Z</time>
      </trkpt>
      <trkpt lat="47.3119890" lon="6.8353060">
        <ele>721.8</ele>
        <time>2022-07-20T18:05:22Z</time>
      </trkpt>
      <trkpt lat="47.3119650" lon="6.8352790">
        <ele>722.0</ele>
        <time>2022-07-20T18:05:24Z</time>
      </trkpt>
      <trkpt lat="47.3119380" lon="6.8352510">
        <ele>722.3</ele>
        <time>2022-07-20T18:05:25Z</time>
      </trkpt>
      <trkpt lat="47.3119250" lon="6.8352380">
        <ele>722.4</ele>
        <time>2022-07-20T18:05:26Z</time>
      </trkpt>
      <trkpt lat="47.3118820" lon="6.8352090">
        <ele>722.7</ele>
        <time>2022-07-20T18:05:28Z</time>
      </trkpt>
      <trkpt lat="47.3118700" lon="6.8352030">
        <ele>722.8</ele>
        <time>2022-07-20T18:05:29Z</time>
      </trkpt>
      <trkpt lat="47.3118580" lon="6.8351960">
        <ele>722.9</ele>
        <time>2022-07-20T18:05:30Z</time>
      </trkpt>
      <trkpt lat="47.3118410" lon="6.8351850">
        <ele>723.0</ele>
        <time>2022-07-20T18:05:31Z</time>
      </trkpt>
      <trkpt lat="47.3117970" lon="6.8351610">
        <ele>723.3</ele>
        <time>2022-07-20T18:05:33Z</time>
      </trkpt>
      <trkpt lat="47.3117770" lon="6.8351520">
        <ele>723.4</ele>
        <time>2022-07-20T18:05:34Z</time>
      </trkpt>
      <trkpt lat="47.3117490" lon="6.8351450">
        <ele>723.6</ele>
        <time>2022-07-20T18:05:36Z</time>
      </trkpt>
      <trkpt lat="47.3117140" lon="6.8351180">
        <ele>723.9</ele>
        <time>2022-07-20T18:05:37Z</time>
      </trkpt>
      <trkpt lat="47.3117000" lon="6.8351050">
        <ele>724.0</ele>
        <time>2022-07-20T18:05:38Z</time>
      </trkpt>
      <trkpt lat="47.3116630" lon="6.8350770">
        <ele>724.3</ele>
        <time>2022-07-20T18:05:40Z</time>
      </trkpt>
      <trkpt lat="47.3116520" lon="6.8350710">
        <ele>724.3</ele>
        <time>2022-07-20T18:05:41Z</time>
      </trkpt>
      <trkpt lat="47.3116400" lon="6.8350650">
        <ele>724.4</ele>
        <time>2022-07-20T18:05:42Z</time>
      </trkpt>
      <trkpt lat="47.3116130" lon="6.8350510">
        <ele>724.6</ele>
        <time>2022-07-20T18:05:43Z</time>
      </trkpt>
      <trkpt lat="47.3115790" lon="6.8350350">
        <ele>724.8</ele>
        <time>2022-07-20T18:05:44Z</time>
      </trkpt>
      <trkpt lat="47.3115680" lon="6.8350310">
        <ele>724.9</ele>
        <time>2022-07-20T18:05:45Z</time>
      </trkpt>
      <trkpt lat="47.3115370" lon="6.8350130">
        <ele>725.1</ele>
        <time>2022-07-20T18:05:46Z</time>
      </trkpt>
      <trkpt lat="47.3115270" lon="6.8350080">
        <ele>725.1</ele>
        <time>2022-07-20T18:05:47Z</time>
      </trkpt>
      <trkpt lat="47.3114900" lon="6.8349930">
        <ele>725.3</ele>
        <time>2022-07-20T18:05:48Z</time>
      </trkpt>
      <trkpt lat="47.3114740" lon="6.8349870">
        <ele>725.4</ele>
        <time>2022-07-20T18:05:49Z</time>
      </trkpt>
      <trkpt lat="47.3114530" lon="6.8349760">
        <ele>725.6</ele>
        <time>2022-07-20T18:05:50Z</time>
      </trkpt>
      <trkpt lat="47.3114250" lon="6.8349650">
        <ele>725.7</ele>
        <time>2022-07-20T18:05:52Z</time>
      </trkpt>
      <trkpt lat="47.3113960" lon="6.8349510">
        <ele>725.9</ele>
        <time>2022-07-20T18:05:53Z</time>
      </trkpt>
      <trkpt lat="47.3113630" lon="6.8349370">
        <ele>726.1</ele>
        <time>2022-07-20T18:05:54Z</time>
      </trkpt>
      <trkpt lat="47.3113520" lon="6.8349330">
        <ele>726.2</ele>
        <time>2022-07-20T18:05:55Z</time>
      </trkpt>
      <trkpt lat="47.3113150" lon="6.8349230">
        <ele>726.4</ele>
        <time>2022-07-20T18:05:56Z</time>
      </trkpt>
      <trkpt lat="47.3113040" lon="6.8349210">
        <ele>726.5</ele>
        <time>2022-07-20T18:05:57Z</time>
      </trkpt>
      <trkpt lat="47.3112710" lon="6.8349190">
        <ele>726.7</ele>
        <time>2022-07-20T18:05:58Z</time>
      </trkpt>
      <trkpt lat="47.3112590" lon="6.8349190">
        <ele>726.8</ele>
        <time>2022-07-20T18:05:59Z</time>
      </trkpt>
      <trkpt lat="47.3112170" lon="6.8349190">
        <ele>727.0</ele>
        <time>2022-07-20T18:06:00Z</time>
      </trkpt>
      <trkpt lat="47.3111700" lon="6.8349130">
        <ele>727.3</ele>
        <time>2022-07-20T18:06:02Z</time>
      </trkpt>
      <trkpt lat="47.3111520" lon="6.8349100">
        <ele>727.4</ele>
        <time>2022-07-20T18:06:03Z</time>
      </trkpt>
      <trkpt lat="47.3111330" lon="6.8349060">
        <ele>727.6</ele>
        <time>2022-07-20T18:06:04Z</time>
      </trkpt>
      <trkpt lat="47.3110950" lon="6.8349030">
        <ele>727.8</ele>
        <time>2022-07-20T18:06:05Z</time>
      </trkpt>
      <trkpt lat="47.3110830" lon="6.8349020">
        <ele>727.9</ele>
        <time>2022-07-20T18:06:06Z</time>
      </trkpt>
      <trkpt lat="47.3110470" lon="6.8348890">
        <ele>728.1</ele>
        <time>2022-07-20T18:06:07Z</time>
      </trkpt>
      <trkpt lat="47.3110370" lon="6.8348840">
        <ele>728.1</ele>
        <time>2022-07-20T18:06:08Z</time>
      </trkpt>
      <trkpt lat="47.3110100" lon="6.8348690">
        <ele>728.3</ele>
        <time>2022-07-20T18:06:09Z</time>
      </trkpt>
      <trkpt lat="47.3109790" lon="6.8348530">
        <ele>728.5</ele>
        <time>2022-07-20T18:06:11Z</time>
      </trkpt>
      <trkpt lat="47.3109470" lon="6.8348390">
        <ele>728.7</ele>
        <time>2022-07-20T18:06:12Z</time>
      </trkpt>
      <trkpt lat="47.3109150" lon="6.8348290">
        <ele>728.9</ele>
        <time>2022-07-20T18:06:13Z</time>
      </trkpt>
      <trkpt lat="47.3109010" lon="6.8348240">
        <ele>729.0</ele>
        <time>2022-07-20T18:06:14Z</time>
      </trkpt>
      <trkpt lat="47.3108640" lon="6.8348150">
        <ele>729.2</ele>
        <time>2022-07-20T18:06:16Z</time>
      </trkpt>
      <trkpt lat="47.3108290" lon="6.8348110">
        <ele>729.4</ele>
        <time>2022-07-20T18:06:17Z</time>
      </trkpt>
      <trkpt lat="47.3108190" lon="6.8348110">
        <ele>729.4</ele>
        <time>2022-07-20T18:06:18Z</time>
      </trkpt>
      <trkpt lat="47.3108040" lon="6.8348070">
        <ele>729.5</ele>
        <time>2022-07-20T18:06:19Z</time>
      </trkpt>
      <trkpt lat="47.3107890" lon="6.8348000">
        <ele>729.6</ele>
        <time>2022-07-20T18:06:20Z</time>
      </trkpt>
      <trkpt lat="47.3107560" lon="6.8347960">
        <ele>729.8</ele>
        <time>2022-07-20T18:06:21Z</time>
      </trkpt>
      <trkpt lat="47.3107210" lon="6.8347850">
        <ele>730.0</ele>
        <time>2022-07-20T18:06:23Z</time>
      </trkpt>
      <trkpt lat="47.3106900" lon="6.8347760">
        <ele>730.2</ele>
        <time>2022-07-20T18:06:24Z</time>
      </trkpt>
      <trkpt lat="47.3106550" lon="6.8347610">
        <ele>730.4</ele>
        <time>2022-07-20T18:06:25Z</time>
      </trkpt>
      <trkpt lat="47.3106450" lon="6.8347580">
        <ele>730.5</ele>
        <time>2022-07-20T18:06:26Z</time>
      </trkpt>
      <trkpt lat="47.3106080" lon="6.8347500">
        <ele>730.7</ele>
        <time>2022-07-20T18:06:27Z</time>
      </trkpt>
      <trkpt lat="47.3105950" lon="6.8347480">
        <ele>730.8</ele>
        <time>2022-07-20T18:06:28Z</time>
      </trkpt>
      <trkpt lat="47.3105650" lon="6.8347370">
        <ele>731.0</ele>
        <time>2022-07-20T18:06:29Z</time>
      </trkpt>
      <trkpt lat="47.3105320" lon="6.8347200">
        <ele>731.2</ele>
        <time>2022-07-20T18:06:31Z</time>
      </trkpt>
      <trkpt lat="47.3104990" lon="6.8347030">
        <ele>731.4</ele>
        <time>2022-07-20T18:06:32Z</time>
      </trkpt>
      <trkpt lat="47.3104720" lon="6.8346890">
        <ele>731.6</ele>
        <time>2022-07-20T18:06:33Z</time>
      </trkpt>
      <trkpt lat="47.3104260" lon="6.8346610">
        <ele>732.0</ele>
        <time>2022-07-20T18:06:35Z</time>
      </trkpt>
      <trkpt lat="47.3103880" lon="6.8346460">
        <ele>732.2</ele>
        <time>2022-07-20T18:06:36Z</time>
      </trkpt>
      <trkpt lat="47.3103750" lon="6.8346420">
        <ele>732.3</ele>
        <time>2022-07-20T18:06:37Z</time>
      </trkpt>
      <trkpt lat="47.3103460" lon="6.8346280">
        <ele>732.5</ele>
        <time>2022-07-20T18:06:38Z</time>
      </trkpt>
      <trkpt lat="47.3103110" lon="6.8346060">
        <ele>732.8</ele>
        <time>2022-07-20T18:06:39Z</time>
      </trkpt>
      <trkpt lat="47.3103010" lon="6.8345990">
        <ele>732.8</ele>
        <time>2022-07-20T18:06:40Z</time>
      </trkpt>
      <trkpt lat="47.3102680" lon="6.8345770">
        <ele>733.1</ele>
        <time>2022-07-20T18:06:41Z</time>
      </trkpt>
      <trkpt lat="47.3102570" lon="6.8345710">
        <ele>733.1</ele>
        <time>2022-07-20T18:06:42Z</time>
      </trkpt>
      <trkpt lat="47.3102210" lon="6.8345580">
        <ele>733.4</ele>
        <time>2022-07-20T18:06:43Z</time>
      </trkpt>
      <trkpt lat="47.3102100" lon="6.8345550">
        <ele>733.4</ele>
        <time>2022-07-20T18:06:44Z</time>
      </trkpt>
      <trkpt lat="47.3101770" lon="6.8345410">
        <ele>733.6</ele>
        <time>2022-07-20T18:06:45Z</time>
      </trkpt>
      <trkpt lat="47.3101480" lon="6.8345290">
        <ele>733.8</ele>
        <time>2022-07-20T18:06:47Z</time>
      </trkpt>
      <trkpt lat="47.3101100" lon="6.8345180">
        <ele>734.1</ele>
        <time>2022-07-20T18:06:48Z</time>
      </trkpt>
      <trkpt lat="47.3100750" lon="6.8345070">
        <ele>734.3</ele>
        <time>2022-07-20T18:06:49Z</time>
      </trkpt>
      <trkpt lat="47.3100660" lon="6.8345040">
        <ele>734.3</ele>
        <time>2022-07-20T18:06:50Z</time>
      </trkpt>
      <trkpt lat="47.3100370" lon="6.8344910">
        <ele>734.5</ele>
        <time>2022-07-20T18:06:51Z</time>
      </trkpt>
      <trkpt lat="47.3100280" lon="6.8344850">
        <ele>734.6</ele>
        <time>2022-07-20T18:06:52Z</time>
      </trkpt>
      <trkpt lat="47.3099950" lon="6.8344720">
        <ele>734.8</ele>
        <time>2022-07-20T18:06:53Z</time>
      </trkpt>
      <trkpt lat="47.3099820" lon="6.8344670">
        <ele>734.9</ele>
        <time>2022-07-20T18:06:54Z</time>
      </trkpt>
      <trkpt lat="47.3099510" lon="6.8344530">
        <ele>735.1</ele>
        <time>2022-07-20T18:06:55Z</time>
      </trkpt>
      <trkpt lat="47.3099420" lon="6.8344480">
        <ele>735.1</ele>
        <time>2022-07-20T18:06:56Z</time>
      </trkpt>
      <trkpt lat="47.3099130" lon="6.8344380">
        <ele>735.3</ele>
        <time>2022-07-20T18:06:57Z</time>
      </trkpt>
      <trkpt lat="47.3099030" lon="6.8344350">
        <ele>735.4</ele>
        <time>2022-07-20T18:06:58Z</time>
      </trkpt>
      <trkpt lat="47.3098700" lon="6.8344260">
        <ele>735.6</ele>
        <time>2022-07-20T18:06:59Z</time>
      </trkpt>
      <trkpt lat="47.3098590" lon="6.8344240">
        <ele>735.6</ele>
        <time>2022-07-20T18:07:00Z</time>
      </trkpt>
      <trkpt lat="47.3098300" lon="6.8344140">
        <ele>735.8</ele>
        <time>2022-07-20T18:07:01Z</time>
      </trkpt>
      <trkpt lat="47.3098190" lon="6.8344110">
        <ele>735.9</ele>
        <time>2022-07-20T18:07:02Z</time>
      </trkpt>
      <trkpt lat="47.3097790" lon="6.8343960">
        <ele>736.1</ele>
        <time>2022-07-20T18:07:03Z</time>
      </trkpt>
      <trkpt lat="47.3097640" lon="6.8343930">
        <ele>736.2</ele>
        <time>2022-07-20T18:07:04Z</time>
      </trkpt>
      <trkpt lat="47.3097330" lon="6.8343950">
        <ele>736.4</ele>
        <time>2022-07-20T18:07:05Z</time>
      </trkpt>
      <trkpt lat="47.3097000" lon="6.8343880">
        <ele>736.6</ele>
        <time>2022-07-20T18:07:06Z</time>
      </trkpt>
      <trkpt lat="47.3096880" lon="6.8343840">
        <ele>736.7</ele>
        <time>2022-07-20T18:07:07Z</time>
      </trkpt>
      <trkpt lat="47.3096660" lon="6.8343770">
        <ele>736.8</ele>
        <time>2022-07-20T18:07:08Z</time>
      </trkpt>
      <trkpt lat="47.3096420" lon="6.8343680">
        <ele>737.0</ele>
        <time>2022-07-20T18:07:10Z</time>
      </trkpt>
      <trkpt lat="47.3096140" lon="6.8343670">
        <ele>737.2</ele>
        <time>2022-07-20T18:07:11Z</time>
      </trkpt>
      <trkpt lat="47.3095830" lon="6.8343610">
        <ele>737.3</ele>
        <time>2022-07-20T18:07:12Z</time>
      </trkpt>
      <trkpt lat="47.3095720" lon="6.8343580">
        <ele>737.4</ele>
        <time>2022-07-20T18:07:13Z</time>
      </trkpt>
      <trkpt lat="47.3095420" lon="6.8343440">
        <ele>737.6</ele>
        <time>2022-07-20T18:07:14Z</time>
      </trkpt>
      <trkpt lat="47.3095320" lon="6.8343400">
        <ele>737.7</ele>
        <time>2022-07-20T18:07:15Z</time>
      </trkpt>
      <trkpt lat="47.3095000" lon="6.8343250">
        <ele>737.9</ele>
        <time>2022-07-20T18:07:17Z</time>
      </trkpt>
      <trkpt lat="47.3094670" lon="6.8343110">
        <ele>738.1</ele>
        <time>2022-07-20T18:07:18Z</time>
      </trkpt>
      <trkpt lat="47.3094390" lon="6.8343020">
        <ele>738.2</ele>
        <time>2022-07-20T18:07:19Z</time>
      </trkpt>
      <trkpt lat="47.3094300" lon="6.8342980">
        <ele>738.3</ele>
        <time>2022-07-20T18:07:20Z</time>
      </trkpt>
      <trkpt lat="47.3094050" lon="6.8342890">
        <ele>738.4</ele>
        <time>2022-07-20T18:07:21Z</time>
      </trkpt>
      <trkpt lat="47.3093890" lon="6.8342880">
        <ele>738.5</ele>
        <time>2022-07-20T18:07:23Z</time>
      </trkpt>
      <trkpt lat="47.3093610" lon="6.8342800">
        <ele>738.7</ele>
        <time>2022-07-20T18:07:24Z</time>
      </trkpt>
      <trkpt lat="47.3093330" lon="6.8342750">
        <ele>738.9</ele>
        <time>2022-07-20T18:07:25Z</time>
      </trkpt>
      <trkpt lat="47.3093070" lon="6.8342640">
        <ele>739.0</ele>
        <time>2022-07-20T18:07:26Z</time>
      </trkpt>
      <trkpt lat="47.3092830" lon="6.8342520">
        <ele>739.2</ele>
        <time>2022-07-20T18:07:27Z</time>
      </trkpt>
      <trkpt lat="47.3092630" lon="6.8342400">
        <ele>739.3</ele>
        <time>2022-07-20T18:07:29Z</time>
      </trkpt>
      <trkpt lat="47.3092370" lon="6.8342290">
        <ele>739.5</ele>
        <time>2022-07-20T18:07:30Z</time>
      </trkpt>
      <trkpt lat="47.3091990" lon="6.8342150">
        <ele>739.7</ele>
        <time>2022-07-20T18:07:31Z</time>
      </trkpt>
      <trkpt lat="47.3091840" lon="6.8342070">
        <ele>739.8</ele>
        <time>2022-07-20T18:07:32Z</time>
      </trkpt>
      <trkpt lat="47.3091490" lon="6.8341850">
        <ele>740.0</ele>
        <time>2022-07-20T18:07:34Z</time>
      </trkpt>
      <trkpt lat="47.3091340" lon="6.8341770">
        <ele>740.1</ele>
        <time>2022-07-20T18:07:35Z</time>
      </trkpt>
      <trkpt lat="47.3090990" lon="6.8341620">
        <ele>740.3</ele>
        <time>2022-07-20T18:07:36Z</time>
      </trkpt>
      <trkpt lat="47.3090850" lon="6.8341570">
        <ele>740.4</ele>
        <time>2022-07-20T18:07:37Z</time>
      </trkpt>
      <trkpt lat="47.3090490" lon="6.8341400">
        <ele>740.6</ele>
        <time>2022-07-20T18:07:38Z</time>
      </trkpt>
      <trkpt lat="47.3090360" lon="6.8341350">
        <ele>740.7</ele>
        <time>2022-07-20T18:07:39Z</time>
      </trkpt>
      <trkpt lat="47.3090020" lon="6.8341200">
        <ele>740.9</ele>
        <time>2022-07-20T18:07:40Z</time>
      </trkpt>
      <trkpt lat="47.3089900" lon="6.8341160">
        <ele>741.0</ele>
        <time>2022-07-20T18:07:41Z</time>
      </trkpt>
      <trkpt lat="47.3089520" lon="6.8341070">
        <ele>741.1</ele>
        <time>2022-07-20T18:07:43Z</time>
      </trkpt>
      <trkpt lat="47.3089200" lon="6.8340890">
        <ele>741.3</ele>
        <time>2022-07-20T18:07:44Z</time>
      </trkpt>
      <trkpt lat="47.3088970" lon="6.8340780">
        <ele>741.4</ele>
        <time>2022-07-20T18:07:45Z</time>
      </trkpt>
      <trkpt lat="47.3088560" lon="6.8340640">
        <ele>741.6</ele>
        <time>2022-07-20T18:07:47Z</time>
      </trkpt>
      <trkpt lat="47.3088190" lon="6.8340570">
        <ele>741.7</ele>
        <time>2022-07-20T18:07:48Z</time>
      </trkpt>
      <trkpt lat="47.3087870" lon="6.8340490">
        <ele>741.9</ele>
        <time>2022-07-20T18:07:49Z</time>
      </trkpt>
      <trkpt lat="47.3087600" lon="6.8340430">
        <ele>742.0</ele>
        <time>2022-07-20T18:07:50Z</time>
      </trkpt>
      <trkpt lat="47.3087300" lon="6.8340350">
        <ele>742.1</ele>
        <time>2022-07-20T18:07:52Z</time>
      </trkpt>
      <trkpt lat="47.3086930" lon="6.8340270">
        <ele>742.3</ele>
        <time>2022-07-20T18:07:53Z</time>
      </trkpt>
      <trkpt lat="47.3086580" lon="6.8340230">
        <ele>742.4</ele>
        <time>2022-07-20T18:07:54Z</time>
      </trkpt>
      <trkpt lat="47.3086270" lon="6.8340250">
        <ele>742.5</ele>
        <time>2022-07-20T18:07:55Z</time>
      </trkpt>
      <trkpt lat="47.3085990" lon="6.8340230">
        <ele>742.6</ele>
        <time>2022-07-20T18:07:56Z</time>
      </trkpt>
      <trkpt lat="47.3085640" lon="6.8340190">
        <ele>742.7</ele>
        <time>2022-07-20T18:07:57Z</time>
      </trkpt>
      <trkpt lat="47.3085520" lon="6.8340190">
        <ele>742.8</ele>
        <time>2022-07-20T18:07:58Z</time>
      </trkpt>
      <trkpt lat="47.3085110" lon="6.8340170">
        <ele>742.9</ele>
        <time>2022-07-20T18:07:59Z</time>
      </trkpt>
      <trkpt lat="47.3084660" lon="6.8340110">
        <ele>743.1</ele>
        <time>2022-07-20T18:08:01Z</time>
      </trkpt>
      <trkpt lat="47.3084380" lon="6.8340130">
        <ele>743.2</ele>
        <time>2022-07-20T18:08:02Z</time>
      </trkpt>
      <trkpt lat="47.3084060" lon="6.8340190">
        <ele>743.3</ele>
        <time>2022-07-20T18:08:03Z</time>
      </trkpt>
      <trkpt lat="47.3083650" lon="6.8340250">
        <ele>743.4</ele>
        <time>2022-07-20T18:08:04Z</time>
      </trkpt>
      <trkpt lat="47.3083170" lon="6.8340300">
        <ele>743.6</ele>
        <time>2022-07-20T18:08:06Z</time>
      </trkpt>
      <trkpt lat="47.3083000" lon="6.8340330">
        <ele>743.6</ele>
        <time>2022-07-20T18:08:07Z</time>
      </trkpt>
      <trkpt lat="47.3082830" lon="6.8340370">
        <ele>743.7</ele>
        <time>2022-07-20T18:08:08Z</time>
      </trkpt>
      <trkpt lat="47.3082460" lon="6.8340410">
        <ele>743.8</ele>
        <time>2022-07-20T18:08:09Z</time>
      </trkpt>
      <trkpt lat="47.3082160" lon="6.8340450">
        <ele>743.9</ele>
        <time>2022-07-20T18:08:10Z</time>
      </trkpt>
      <trkpt lat="47.3081880" lon="6.8340470">
        <ele>744.0</ele>
        <time>2022-07-20T18:08:11Z</time>
      </trkpt>
      <trkpt lat="47.3081510" lon="6.8340490">
        <ele>744.1</ele>
        <time>2022-07-20T18:08:12Z</time>
      </trkpt>
      <trkpt lat="47.3081360" lon="6.8340510">
        <ele>744.1</ele>
        <time>2022-07-20T18:08:13Z</time>
      </trkpt>
      <trkpt lat="47.3081060" lon="6.8340550">
        <ele>744.1</ele>
        <time>2022-07-20T18:08:14Z</time>
      </trkpt>
      <trkpt lat="47.3080600" lon="6.8340580">
        <ele>744.2</ele>
        <time>2022-07-20T18:08:16Z</time>
      </trkpt>
      <trkpt lat="47.3080260" lon="6.8340620">
        <ele>744.2</ele>
        <time>2022-07-20T18:08:17Z</time>
      </trkpt>
      <trkpt lat="47.3079970" lon="6.8340630">
        <ele>744.2</ele>
        <time>2022-07-20T18:08:18Z</time>
      </trkpt>
      <trkpt lat="47.3079520" lon="6.8340660">
        <ele>744.3</ele>
        <time>2022-07-20T18:08:20Z</time>
      </trkpt>
      <trkpt lat="47.3079110" lon="6.8340650">
        <ele>744.4</ele>
        <time>2022-07-20T18:08:21Z</time>
      </trkpt>
      <trkpt lat="47.3078660" lon="6.8340660">
        <ele>744.6</ele>
        <time>2022-07-20T18:08:22Z</time>
      </trkpt>
      <trkpt lat="47.3078310" lon="6.8340580">
        <ele>744.7</ele>
        <time>2022-07-20T18:08:24Z</time>
      </trkpt>
      <trkpt lat="47.3077970" lon="6.8340560">
        <ele>744.8</ele>
        <time>2022-07-20T18:08:25Z</time>
      </trkpt>
      <trkpt lat="47.3077650" lon="6.8340580">
        <ele>744.9</ele>
        <time>2022-07-20T18:08:26Z</time>
      </trkpt>
      <trkpt lat="47.3077280" lon="6.8340600">
        <ele>745.0</ele>
        <time>2022-07-20T18:08:27Z</time>
      </trkpt>
      <trkpt lat="47.3077160" lon="6.8340620">
        <ele>745.1</ele>
        <time>2022-07-20T18:08:28Z</time>
      </trkpt>
      <trkpt lat="47.3076790" lon="6.8340700">
        <ele>745.2</ele>
        <time>2022-07-20T18:08:29Z</time>
      </trkpt>
      <trkpt lat="47.3076460" lon="6.8340720">
        <ele>745.3</ele>
        <time>2022-07-20T18:08:31Z</time>
      </trkpt>
      <trkpt lat="47.3076150" lon="6.8340730">
        <ele>745.4</ele>
        <time>2022-07-20T18:08:32Z</time>
      </trkpt>
      <trkpt lat="47.3075770" lon="6.8340710">
        <ele>745.5</ele>
        <time>2022-07-20T18:08:33Z</time>
      </trkpt>
      <trkpt lat="47.3075660" lon="6.8340700">
        <ele>745.5</ele>
        <time>2022-07-20T18:08:34Z</time>
      </trkpt>
      <trkpt lat="47.3075330" lon="6.8340680">
        <ele>745.6</ele>
        <time>2022-07-20T18:08:35Z</time>
      </trkpt>
      <trkpt lat="47.3074990" lon="6.8340670">
        <ele>745.7</ele>
        <time>2022-07-20T18:08:36Z</time>
      </trkpt>
      <trkpt lat="47.3074660" lon="6.8340670">
        <ele>745.7</ele>
        <time>2022-07-20T18:08:37Z</time>
      </trkpt>
      <trkpt lat="47.3074350" lon="6.8340680">
        <ele>745.8</ele>
        <time>2022-07-20T18:08:38Z</time>
      </trkpt>
      <trkpt lat="47.3073660" lon="6.8340690">
        <ele>746.0</ele>
        <time>2022-07-20T18:08:40Z</time>
      </trkpt>
      <trkpt lat="47.3073260" lon="6.8340690">
        <ele>746.1</ele>
        <time>2022-07-20T18:08:41Z</time>
      </trkpt>
      <trkpt lat="47.3072930" lon="6.8340680">
        <ele>746.2</ele>
        <time>2022-07-20T18:08:42Z</time>
      </trkpt>
      <trkpt lat="47.3072560" lon="6.8340670">
        <ele>746.3</ele>
        <time>2022-07-20T18:08:43Z</time>
      </trkpt>
      <trkpt lat="47.3072040" lon="6.8340670">
        <ele>746.4</ele>
        <time>2022-07-20T18:08:45Z</time>
      </trkpt>
      <trkpt lat="47.3071660" lon="6.8340700">
        <ele>746.5</ele>
        <time>2022-07-20T18:08:46Z</time>
      </trkpt>
      <trkpt lat="47.3071350" lon="6.8340740">
        <ele>746.6</ele>
        <time>2022-07-20T18:08:47Z</time>
      </trkpt>
      <trkpt lat="47.3071060" lon="6.8340770">
        <ele>746.7</ele>
        <time>2022-07-20T18:08:48Z</time>
      </trkpt>
      <trkpt lat="47.3070570" lon="6.8340850">
        <ele>746.8</ele>
        <time>2022-07-20T18:08:49Z</time>
      </trkpt>
      <trkpt lat="47.3070340" lon="6.8340880">
        <ele>746.9</ele>
        <time>2022-07-20T18:08:50Z</time>
      </trkpt>
      <trkpt lat="47.3069970" lon="6.8340960">
        <ele>747.0</ele>
        <time>2022-07-20T18:08:52Z</time>
      </trkpt>
      <trkpt lat="47.3069620" lon="6.8341050">
        <ele>747.1</ele>
        <time>2022-07-20T18:08:53Z</time>
      </trkpt>
      <trkpt lat="47.3069270" lon="6.8341140">
        <ele>747.2</ele>
        <time>2022-07-20T18:08:54Z</time>
      </trkpt>
      <trkpt lat="47.3068990" lon="6.8341260">
        <ele>747.2</ele>
        <time>2022-07-20T18:08:55Z</time>
      </trkpt>
      <trkpt lat="47.3068690" lon="6.8341350">
        <ele>747.3</ele>
        <time>2022-07-20T18:08:56Z</time>
      </trkpt>
      <trkpt lat="47.3068320" lon="6.8341500">
        <ele>747.4</ele>
        <time>2022-07-20T18:08:58Z</time>
      </trkpt>
      <trkpt lat="47.3068020" lon="6.8341600">
        <ele>747.5</ele>
        <time>2022-07-20T18:08:59Z</time>
      </trkpt>
      <trkpt lat="47.3067690" lon="6.8341740">
        <ele>747.6</ele>
        <time>2022-07-20T18:09:00Z</time>
      </trkpt>
      <trkpt lat="47.3067310" lon="6.8341950">
        <ele>747.7</ele>
        <time>2022-07-20T18:09:01Z</time>
      </trkpt>
      <trkpt lat="47.3066960" lon="6.8342140">
        <ele>747.8</ele>
        <time>2022-07-20T18:09:03Z</time>
      </trkpt>
      <trkpt lat="47.3066630" lon="6.8342320">
        <ele>748.0</ele>
        <time>2022-07-20T18:09:04Z</time>
      </trkpt>
      <trkpt lat="47.3066340" lon="6.8342460">
        <ele>748.0</ele>
        <time>2022-07-20T18:09:05Z</time>
      </trkpt>
      <trkpt lat="47.3066070" lon="6.8342630">
        <ele>748.1</ele>
        <time>2022-07-20T18:09:06Z</time>
      </trkpt>
      <trkpt lat="47.3065800" lon="6.8342820">
        <ele>748.2</ele>
        <time>2022-07-20T18:09:07Z</time>
      </trkpt>
      <trkpt lat="47.3065480" lon="6.8343090">
        <ele>748.3</ele>
        <time>2022-07-20T18:09:08Z</time>
      </trkpt>
      <trkpt lat="47.3065370" lon="6.8343180">
        <ele>748.3</ele>
        <time>2022-07-20T18:09:09Z</time>
      </trkpt>
      <trkpt lat="47.3065020" lon="6.8343370">
        <ele>748.4</ele>
        <time>2022-07-20T18:09:10Z</time>
      </trkpt>
      <trkpt lat="47.3064910" lon="6.8343420">
        <ele>748.4</ele>
        <time>2022-07-20T18:09:11Z</time>
      </trkpt>
      <trkpt lat="47.3064450" lon="6.8343720">
        <ele>748.4</ele>
        <time>2022-07-20T18:09:13Z</time>
      </trkpt>
      <trkpt lat="47.3064140" lon="6.8343840">
        <ele>748.4</ele>
        <time>2022-07-20T18:09:14Z</time>
      </trkpt>
      <trkpt lat="47.3064030" lon="6.8343860">
        <ele>748.4</ele>
        <time>2022-07-20T18:09:15Z</time>
      </trkpt>
      <trkpt lat="47.3063860" lon="6.8343940">
        <ele>748.4</ele>
        <time>2022-07-20T18:09:16Z</time>
      </trkpt>
      <trkpt lat="47.3063700" lon="6.8344040">
        <ele>748.5</ele>
        <time>2022-07-20T18:09:17Z</time>
      </trkpt>
      <trkpt lat="47.3063370" lon="6.8344140">
        <ele>748.5</ele>
        <time>2022-07-20T18:09:18Z</time>
      </trkpt>
      <trkpt lat="47.3063240" lon="6.8344170">
        <ele>748.5</ele>
        <time>2022-07-20T18:09:19Z</time>
      </trkpt>
      <trkpt lat="47.3062890" lon="6.8344340">
        <ele>748.5</ele>
        <time>2022-07-20T18:09:20Z</time>
      </trkpt>
      <trkpt lat="47.3062770" lon="6.8344410">
        <ele>748.5</ele>
        <time>2022-07-20T18:09:21Z</time>
      </trkpt>
      <trkpt lat="47.3062520" lon="6.8344580">
        <ele>748.5</ele>
        <time>2022-07-20T18:09:22Z</time>
      </trkpt>
      <trkpt lat="47.3062270" lon="6.8344760">
        <ele>748.5</ele>
        <time>2022-07-20T18:09:23Z</time>
      </trkpt>
      <trkpt lat="47.3062030" lon="6.8345000">
        <ele>748.6</ele>
        <time>2022-07-20T18:09:24Z</time>
      </trkpt>
      <trkpt lat="47.3061740" lon="6.8345200">
        <ele>748.6</ele>
        <time>2022-07-20T18:09:25Z</time>
      </trkpt>
      <trkpt lat="47.3061410" lon="6.8345420">
        <ele>748.6</ele>
        <time>2022-07-20T18:09:26Z</time>
      </trkpt>
      <trkpt lat="47.3061130" lon="6.8345610">
        <ele>748.6</ele>
        <time>2022-07-20T18:09:27Z</time>
      </trkpt>
      <trkpt lat="47.3060850" lon="6.8345800">
        <ele>748.6</ele>
        <time>2022-07-20T18:09:28Z</time>
      </trkpt>
      <trkpt lat="47.3060570" lon="6.8346000">
        <ele>748.7</ele>
        <time>2022-07-20T18:09:29Z</time>
      </trkpt>
      <trkpt lat="47.3060290" lon="6.8346180">
        <ele>748.7</ele>
        <time>2022-07-20T18:09:30Z</time>
      </trkpt>
      <trkpt lat="47.3060020" lon="6.8346360">
        <ele>748.7</ele>
        <time>2022-07-20T18:09:31Z</time>
      </trkpt>
      <trkpt lat="47.3059740" lon="6.8346550">
        <ele>748.7</ele>
        <time>2022-07-20T18:09:32Z</time>
      </trkpt>
      <trkpt lat="47.3059490" lon="6.8346750">
        <ele>748.7</ele>
        <time>2022-07-20T18:09:33Z</time>
      </trkpt>
      <trkpt lat="47.3059120" lon="6.8347040">
        <ele>748.8</ele>
        <time>2022-07-20T18:09:34Z</time>
      </trkpt>
      <trkpt lat="47.3058970" lon="6.8347160">
        <ele>748.8</ele>
        <time>2022-07-20T18:09:35Z</time>
      </trkpt>
      <trkpt lat="47.3058680" lon="6.8347380">
        <ele>748.8</ele>
        <time>2022-07-20T18:09:36Z</time>
      </trkpt>
      <trkpt lat="47.3058400" lon="6.8347610">
        <ele>748.8</ele>
        <time>2022-07-20T18:09:37Z</time>
      </trkpt>
      <trkpt lat="47.3058100" lon="6.8347830">
        <ele>748.8</ele>
        <time>2022-07-20T18:09:38Z</time>
      </trkpt>
      <trkpt lat="47.3057720" lon="6.8348130">
        <ele>748.9</ele>
        <time>2022-07-20T18:09:39Z</time>
      </trkpt>
      <trkpt lat="47.3057570" lon="6.8348250">
        <ele>748.9</ele>
        <time>2022-07-20T18:09:40Z</time>
      </trkpt>
      <trkpt lat="47.3057270" lon="6.8348540">
        <ele>748.9</ele>
        <time>2022-07-20T18:09:41Z</time>
      </trkpt>
      <trkpt lat="47.3057000" lon="6.8348870">
        <ele>748.9</ele>
        <time>2022-07-20T18:09:42Z</time>
      </trkpt>
      <trkpt lat="47.3056750" lon="6.8349130">
        <ele>748.9</ele>
        <time>2022-07-20T18:09:43Z</time>
      </trkpt>
      <trkpt lat="47.3056490" lon="6.8349390">
        <ele>748.9</ele>
        <time>2022-07-20T18:09:44Z</time>
      </trkpt>
      <trkpt lat="47.3056240" lon="6.8349640">
        <ele>749.0</ele>
        <time>2022-07-20T18:09:45Z</time>
      </trkpt>
      <trkpt lat="47.3055950" lon="6.8350010">
        <ele>749.0</ele>
        <time>2022-07-20T18:09:46Z</time>
      </trkpt>
      <trkpt lat="47.3055840" lon="6.8350140">
        <ele>749.0</ele>
        <time>2022-07-20T18:09:47Z</time>
      </trkpt>
      <trkpt lat="47.3055550" lon="6.8350500">
        <ele>749.0</ele>
        <time>2022-07-20T18:09:48Z</time>
      </trkpt>
      <trkpt lat="47.3055450" lon="6.8350620">
        <ele>749.0</ele>
        <time>2022-07-20T18:09:49Z</time>
      </trkpt>
      <trkpt lat="47.3055270" lon="6.8350920">
        <ele>749.0</ele>
        <time>2022-07-20T18:09:50Z</time>
      </trkpt>
      <trkpt lat="47.3055100" lon="6.8351450">
        <ele>749.1</ele>
        <time>2022-07-20T18:09:51Z</time>
      </trkpt>
      <trkpt lat="47.3055050" lon="6.8351660">
        <ele>749.1</ele>
        <time>2022-07-20T18:09:52Z</time>
      </trkpt>
      <trkpt lat="47.3054910" lon="6.8352470">
        <ele>749.1</ele>
        <time>2022-07-20T18:09:53Z</time>
      </trkpt>
      <trkpt lat="47.3054870" lon="6.8353190">
        <ele>749.1</ele>
        <time>2022-07-20T18:09:55Z</time>
      </trkpt>
      <trkpt lat="47.3054960" lon="6.8353920">
        <ele>749.2</ele>
        <time>2022-07-20T18:09:56Z</time>
      </trkpt>
      <trkpt lat="47.3055020" lon="6.8354430">
        <ele>749.2</ele>
        <time>2022-07-20T18:09:57Z</time>
      </trkpt>
      <trkpt lat="47.3055050" lon="6.8355230">
        <ele>749.2</ele>
        <time>2022-07-20T18:09:59Z</time>
      </trkpt>
      <trkpt lat="47.3055130" lon="6.8355640">
        <ele>749.2</ele>
        <time>2022-07-20T18:10:00Z</time>
      </trkpt>
      <trkpt lat="47.3055350" lon="6.8356030">
        <ele>749.3</ele>
        <time>2022-07-20T18:10:01Z</time>
      </trkpt>
      <trkpt lat="47.3055450" lon="6.8356130">
        <ele>749.3</ele>
        <time>2022-07-20T18:10:02Z</time>
      </trkpt>
      <trkpt lat="47.3055830" lon="6.8356110">
        <ele>749.3</ele>
        <time>2022-07-20T18:10:03Z</time>
      </trkpt>
      <trkpt lat="47.3056000" lon="6.8356040">
        <ele>749.3</ele>
        <time>2022-07-20T18:10:04Z</time>
      </trkpt>
      <trkpt lat="47.3056390" lon="6.8356000">
        <ele>749.3</ele>
        <time>2022-07-20T18:10:06Z</time>
      </trkpt>
      <trkpt lat="47.3056700" lon="6.8356010">
        <ele>749.3</ele>
        <time>2022-07-20T18:10:07Z</time>
      </trkpt>
      <trkpt lat="47.3056960" lon="6.8356060">
        <ele>749.4</ele>
        <time>2022-07-20T18:10:08Z</time>
      </trkpt>
      <trkpt lat="47.3057030" lon="6.8355980">
        <ele>749.4</ele>
        <time>2022-07-20T18:10:10Z</time>
      </trkpt>
      <trkpt lat="47.3056910" lon="6.8355890">
        <ele>749.4</ele>
        <time>2022-07-20T18:10:11Z</time>
      </trkpt>
      <trkpt lat="47.3056850" lon="6.8355850">
        <ele>749.4</ele>
        <time>2022-07-20T18:10:12Z</time>
      </trkpt>
      <trkpt lat="47.3056820" lon="6.8355830">
        <ele>749.4</ele>
        <time>2022-07-20T18:10:13Z</time>
      </trkpt>
      <trkpt lat="47.3056800" lon="6.8355820">
        <ele>749.4</ele>
        <time>2022-07-20T18:10:14Z</time>
      </trkpt>
      <trkpt lat="47.3056790" lon="6.8355820">
        <ele>749.4</ele>
        <time>2022-07-20T18:10:15Z</time>
      </trkpt>
      <trkpt lat="47.3056780" lon="6.8355820">
        <ele>749.4</ele>
        <time>2022-07-20T18:10:16Z</time>
      </trkpt>
      <trkpt lat="47.3056770" lon="6.8355810">
        <ele>749.4</ele>
        <time>2022-07-20T18:10:17Z</time>
      </trkpt>
      <trkpt lat="47.3056770" lon="6.8355810">
        <ele>749.4</ele>
        <time>2022-07-20T18:10:18Z</time>
      </trkpt>
      <trkpt lat="47.3057200" lon="6.8356450">
        <ele>749.4</ele>
        <time>2022-07-20T18:15:36Z</time>
      </trkpt>
      <trkpt lat="47.3057200" lon="6.8356430">
        <ele>749.4</ele>
        <time>2022-07-20T18:15:37Z</time>
      </trkpt>
      <trkpt lat="47.3057200" lon="6.8356420">
        <ele>749.4</ele>
        <time>2022-07-20T18:15:38Z</time>
      </trkpt>
      <trkpt lat="47.3057180" lon="6.8356430">
        <ele>749.4</ele>
        <time>2022-07-20T18:15:39Z</time>
      </trkpt>
      <trkpt lat="47.3057170" lon="6.8356440">
        <ele>749.4</ele>
        <time>2022-07-20T18:15:40Z</time>
      </trkpt>
      <trkpt lat="47.3057150" lon="6.8356470">
        <ele>749.4</ele>
        <time>2022-07-20T18:15:41Z</time>
      </trkpt>
      <trkpt lat="47.3057030" lon="6.8356550">
        <ele>749.4</ele>
        <time>2022-07-20T18:15:42Z</time>
      </trkpt>
      <trkpt lat="47.3056920" lon="6.8356640">
        <ele>749.4</ele>
        <time>2022-07-20T18:15:43Z</time>
      </trkpt>
      <trkpt lat="47.3056850" lon="6.8356710">
        <ele>749.5</ele>
        <time>2022-07-20T18:15:44Z</time>
      </trkpt>
      <trkpt lat="47.3056810" lon="6.8356760">
        <ele>749.5</ele>
        <time>2022-07-20T18:15:45Z</time>
      </trkpt>
      <trkpt lat="47.3056800" lon="6.8356780">
        <ele>749.5</ele>
        <time>2022-07-20T18:15:46Z</time>
      </trkpt>
      <trkpt lat="47.3056800" lon="6.8356770">
        <ele>749.5</ele>
        <time>2022-07-20T18:15:47Z</time>
      </trkpt>
      <trkpt lat="47.3056810" lon="6.8356750">
        <ele>749.5</ele>
        <time>2022-07-20T18:15:48Z</time>
      </trkpt>
      <trkpt lat="47.3056820" lon="6.8356740">
        <ele>749.5</ele>
        <time>2022-07-20T18:15:49Z</time>
      </trkpt>
      <trkpt lat="47.3056830" lon="6.8356730">
        <ele>749.5</ele>
        <time>2022-07-20T18:15:50Z</time>
      </trkpt>
      <trkpt lat="47.3056830" lon="6.8356770">
        <ele>749.5</ele>
        <time>2022-07-20T18:15:51Z</time>
      </trkpt>
      <trkpt lat="47.3056830" lon="6.8356790">
        <ele>749.5</ele>
        <time>2022-07-20T18:15:52Z</time>
      </trkpt>
      <trkpt lat="47.3056790" lon="6.8356810">
        <ele>749.5</ele>
        <time>2022-07-20T18:15:53Z</time>
      </trkpt>
      <trkpt lat="47.3056770" lon="6.8356800">
        <ele>749.5</ele>
        <time>2022-07-20T18:15:54Z</time>
      </trkpt>
      <trkpt lat="47.3056760" lon="6.8356760">
        <ele>749.5</ele>
        <time>2022-07-20T18:15:55Z</time>
      </trkpt>
      <trkpt lat="47.3056760" lon="6.8356720">
        <ele>749.5</ele>
        <time>2022-07-20T18:15:56Z</time>
      </trkpt>
      <trkpt lat="47.3056750" lon="6.8356690">
        <ele>749.5</ele>
        <time>2022-07-20T18:15:57Z</time>
      </trkpt>
      <trkpt lat="47.3056740" lon="6.8356650">
        <ele>749.5</ele>
        <time>2022-07-20T18:15:58Z</time>
      </trkpt>
      <trkpt lat="47.3056750" lon="6.8356610">
        <ele>749.5</ele>
        <time>2022-07-20T18:15:59Z</time>
      </trkpt>
      <trkpt lat="47.3056770" lon="6.8356580">
        <ele>749.5</ele>
        <time>2022-07-20T18:16:00Z</time>
      </trkpt>
      <trkpt lat="47.3056770" lon="6.8356580">
        <ele>749.5</ele>
        <time>2022-07-20T18:16:01Z</time>
      </trkpt>
      <trkpt lat="47.3056760" lon="6.8356580">
        <ele>749.5</ele>
        <time>2022-07-20T18:16:02Z</time>
      </trkpt>
      <trkpt lat="47.3056750" lon="6.8356590">
        <ele>749.5</ele>
        <time>2022-07-20T18:16:03Z</time>
      </trkpt>
      <trkpt lat="47.3056740" lon="6.8356590">
        <ele>749.5</ele>
        <time>2022-07-20T18:16:04Z</time>
      </trkpt>
      <trkpt lat="47.3056940" lon="6.8356200">
        <ele>749.5</ele>
        <time>2022-07-20T18:17:38Z</time>
      </trkpt>
      <trkpt lat="47.3056910" lon="6.8356140">
        <ele>749.5</ele>
        <time>2022-07-20T18:17:39Z</time>
      </trkpt>
      <trkpt lat="47.3056880" lon="6.8356110">
        <ele>749.5</ele>
        <time>2022-07-20T18:17:40Z</time>
      </trkpt>
      <trkpt lat="47.3056840" lon="6.8356100">
        <ele>749.5</ele>
        <time>2022-07-20T18:17:41Z</time>
      </trkpt>
      <trkpt lat="47.3056820" lon="6.8356080">
        <ele>749.5</ele>
        <time>2022-07-20T18:17:42Z</time>
      </trkpt>
      <trkpt lat="47.3056820" lon="6.8356040">
        <ele>749.5</ele>
        <time>2022-07-20T18:17:43Z</time>
      </trkpt>
      <trkpt lat="47.3056850" lon="6.8355970">
        <ele>749.5</ele>
        <time>2022-07-20T18:17:44Z</time>
      </trkpt>
      <trkpt lat="47.3056870" lon="6.8355920">
        <ele>749.5</ele>
        <time>2022-07-20T18:17:45Z</time>
      </trkpt>
      <trkpt lat="47.3056880" lon="6.8355900">
        <ele>749.5</ele>
        <time>2022-07-20T18:17:46Z</time>
      </trkpt>
      <trkpt lat="47.3056880" lon="6.8355880">
        <ele>749.5</ele>
        <time>2022-07-20T18:17:47Z</time>
      </trkpt>
      <trkpt lat="47.3056860" lon="6.8355850">
        <ele>749.5</ele>
        <time>2022-07-20T18:17:48Z</time>
      </trkpt>
      <trkpt lat="47.3056850" lon="6.8355840">
        <ele>749.5</ele>
        <time>2022-07-20T18:17:49Z</time>
      </trkpt>
      <trkpt lat="47.3056840" lon="6.8355830">
        <ele>749.5</ele>
        <time>2022-07-20T18:17:50Z</time>
      </trkpt>
      <trkpt lat="47.3056840" lon="6.8355830">
        <ele>749.5</ele>
        <time>2022-07-20T18:17:51Z</time>
      </trkpt>
      <trkpt lat="47.3056840" lon="6.8355830">
        <ele>749.5</ele>
        <time>2022-07-20T18:17:52Z</time>
      </trkpt>
      <trkpt lat="47.3056840" lon="6.8355830">
        <ele>749.5</ele>
        <time>2022-07-20T18:17:53Z</time>
      </trkpt>
      <trkpt lat="47.3056830" lon="6.8355830">
        <ele>749.5</ele>
        <time>2022-07-20T18:17:54Z</time>
      </trkpt>
      <trkpt lat="47.3056830" lon="6.8355830">
        <ele>749.5</ele>
        <time>2022-07-20T18:17:55Z</time>
      </trkpt>
      <trkpt lat="47.3057100" lon="6.8356470">
        <ele>749.6</ele>
        <time>2022-07-20T18:19:15Z</time>
      </trkpt>
      <trkpt lat="47.3057150" lon="6.8356570">
        <ele>749.6</ele>
        <time>2022-07-20T18:19:16Z</time>
      </trkpt>
      <trkpt lat="47.3057240" lon="6.8356650">
        <ele>749.6</ele>
        <time>2022-07-20T18:19:17Z</time>
      </trkpt>
      <trkpt lat="47.3057300" lon="6.8356690">
        <ele>749.6</ele>
        <time>2022-07-20T18:19:18Z</time>
      </trkpt>
      <trkpt lat="47.3057370" lon="6.8356710">
        <ele>749.6</ele>
        <time>2022-07-20T18:19:19Z</time>
      </trkpt>
      <trkpt lat="47.3057450" lon="6.8356680">
        <ele>749.6</ele>
        <time>2022-07-20T18:19:20Z</time>
      </trkpt>
      <trkpt lat="47.3057550" lon="6.8356550">
        <ele>749.6</ele>
        <time>2022-07-20T18:19:21Z</time>
      </trkpt>
      <trkpt lat="47.3057670" lon="6.8356450">
        <ele>749.6</ele>
        <time>2022-07-20T18:19:22Z</time>
      </trkpt>
      <trkpt lat="47.3057760" lon="6.8356310">
        <ele>749.6</ele>
        <time>2022-07-20T18:19:23Z</time>
      </trkpt>
      <trkpt lat="47.3057830" lon="6.8356270">
        <ele>749.6</ele>
        <time>2022-07-20T18:19:24Z</time>
      </trkpt>
      <trkpt lat="47.3057870" lon="6.8356170">
        <ele>749.6</ele>
        <time>2022-07-20T18:19:25Z</time>
      </trkpt>
      <trkpt lat="47.3057920" lon="6.8356070">
        <ele>749.6</ele>
        <time>2022-07-20T18:19:26Z</time>
      </trkpt>
      <trkpt lat="47.3057970" lon="6.8356000">
        <ele>749.6</ele>
        <time>2022-07-20T18:19:28Z</time>
      </trkpt>
      <trkpt lat="47.3057990" lon="6.8355920">
        <ele>749.6</ele>
        <time>2022-07-20T18:19:29Z</time>
      </trkpt>
      <trkpt lat="47.3058020" lon="6.8355830">
        <ele>749.6</ele>
        <time>2022-07-20T18:19:30Z</time>
      </trkpt>
      <trkpt lat="47.3058020" lon="6.8355740">
        <ele>749.6</ele>
        <time>2022-07-20T18:19:31Z</time>
      </trkpt>
      <trkpt lat="47.3058020" lon="6.8355660">
        <ele>749.6</ele>
        <time>2022-07-20T18:19:32Z</time>
      </trkpt>
      <trkpt lat="47.3058000" lon="6.8355560">
        <ele>749.6</ele>
        <time>2022-07-20T18:19:33Z</time>
      </trkpt>
      <trkpt lat="47.3057960" lon="6.8355490">
        <ele>749.6</ele>
        <time>2022-07-20T18:19:34Z</time>
      </trkpt>
      <trkpt lat="47.3057910" lon="6.8355430">
        <ele>749.6</ele>
        <time>2022-07-20T18:19:35Z</time>
      </trkpt>
      <trkpt lat="47.3057870" lon="6.8355370">
        <ele>749.6</ele>
        <time>2022-07-20T18:19:36Z</time>
      </trkpt>
      <trkpt lat="47.3057840" lon="6.8355340">
        <ele>749.7</ele>
        <time>2022-07-20T18:19:37Z</time>
      </trkpt>
      <trkpt lat="47.3057840" lon="6.8355360">
        <ele>749.7</ele>
        <time>2022-07-20T18:19:38Z</time>
      </trkpt>
      <trkpt lat="47.3057840" lon="6.8355370">
        <ele>749.7</ele>
        <time>2022-07-20T18:19:39Z</time>
      </trkpt>
      <trkpt lat="47.3057850" lon="6.8355370">
        <ele>749.7</ele>
        <time>2022-07-20T18:19:40Z</time>
      </trkpt>
      <trkpt lat="47.3057860" lon="6.8355370">
        <ele>749.7</ele>
        <time>2022-07-20T18:19:41Z</time>
      </trkpt>
      <trkpt lat="47.3057870" lon="6.8355360">
        <ele>749.7</ele>
        <time>2022-07-20T18:19:42Z</time>
      </trkpt>
      <trkpt lat="47.3057890" lon="6.8355350">
        <ele>749.7</ele>
        <time>2022-07-20T18:19:43Z</time>
      </trkpt>
      <trkpt lat="47.3057910" lon="6.8355350">
        <ele>749.7</ele>
        <time>2022-07-20T18:19:44Z</time>
      </trkpt>
      <trkpt lat="47.3057920" lon="6.8355340">
        <ele>749.7</ele>
        <time>2022-07-20T18:19:45Z</time>
      </trkpt>
      <trkpt lat="47.3057940" lon="6.8355330">
        <ele>749.7</ele>
        <time>2022-07-20T18:19:46Z</time>
      </trkpt>
      <trkpt lat="47.3058250" lon="6.8355430">
        <ele>749.7</ele>
        <time>2022-07-20T18:19:50Z</time>
      </trkpt>
      <trkpt lat="47.3058390" lon="6.8355440">
        <ele>749.7</ele>
        <time>2022-07-20T18:19:51Z</time>
      </trkpt>
      <trkpt lat="47.3058450" lon="6.8355480">
        <ele>749.7</ele>
        <time>2022-07-20T18:19:52Z</time>
      </trkpt>
      <trkpt lat="47.3058430" lon="6.8355500">
        <ele>749.7</ele>
        <time>2022-07-20T18:19:53Z</time>
      </trkpt>
      <trkpt lat="47.3058380" lon="6.8355510">
        <ele>749.7</ele>
        <time>2022-07-20T18:19:54Z</time>
      </trkpt>
      <trkpt lat="47.3058350" lon="6.8355500">
        <ele>749.7</ele>
        <time>2022-07-20T18:19:55Z</time>
      </trkpt>
      <trkpt lat="47.3058340" lon="6.8355490">
        <ele>749.7</ele>
        <time>2022-07-20T18:19:56Z</time>
      </trkpt>
      <trkpt lat="47.3058360" lon="6.8355480">
        <ele>749.7</ele>
        <time>2022-07-20T18:19:57Z</time>
      </trkpt>
      <trkpt lat="47.3058390" lon="6.8355470">
        <ele>749.7</ele>
        <time>2022-07-20T18:19:58Z</time>
      </trkpt>
      <trkpt lat="47.3058420" lon="6.8355470">
        <ele>749.7</ele>
        <time>2022-07-20T18:19:59Z</time>
      </trkpt>
      <trkpt lat="47.3058450" lon="6.8355470">
        <ele>749.7</ele>
        <time>2022-07-20T18:20:00Z</time>
      </trkpt>
      <trkpt lat="47.3058480" lon="6.8355480">
        <ele>749.7</ele>
        <time>2022-07-20T18:20:01Z</time>
      </trkpt>
      <trkpt lat="47.3058490" lon="6.8355480">
        <ele>749.7</ele>
        <time>2022-07-20T18:20:02Z</time>
      </trkpt>
      <trkpt lat="47.3058500" lon="6.8355480">
        <ele>749.7</ele>
        <time>2022-07-20T18:20:03Z</time>
      </trkpt>
      <trkpt lat="47.3058510" lon="6.8355480">
        <ele>749.7</ele>
        <time>2022-07-20T18:20:04Z</time>
      </trkpt>
      <trkpt lat="47.3058510" lon="6.8355480">
        <ele>749.7</ele>
        <time>2022-07-20T18:20:05Z</time>
      </trkpt>
      <trkpt lat="47.3058510" lon="6.8355480">
        <ele>749.7</ele>
        <time>2022-07-20T18:20:06Z</time>
      </trkpt>
      <trkpt lat="47.3058510" lon="6.8355480">
        <ele>749.7</ele>
        <time>2022-07-20T18:20:07Z</time>
      </trkpt>
      <trkpt lat="47.3058510" lon="6.8355480">
        <ele>749.7</ele>
        <time>2022-07-20T18:20:08Z</time>
      </trkpt>
      <trkpt lat="47.3058510" lon="6.8355480">
        <ele>749.7</ele>
        <time>2022-07-20T18:20:09Z</time>
      </trkpt>
      <trkpt lat="47.3058510" lon="6.8355480">
        <ele>749.7</ele>
        <time>2022-07-20T18:20:10Z</time>
      </trkpt>
      <trkpt lat="47.3058410" lon="6.8355910">
        <ele>749.7</ele>
        <time>2022-07-20T18:21:40Z</time>
      </trkpt>
      <trkpt lat="47.3058390" lon="6.8355950">
        <ele>749.7</ele>
        <time>2022-07-20T18:21:41Z</time>
      </trkpt>
      <trkpt lat="47.3058390" lon="6.8355980">
        <ele>749.7</ele>
        <time>2022-07-20T18:21:42Z</time>
      </trkpt>
      <trkpt lat="47.3058400" lon="6.8355970">
        <ele>749.7</ele>
        <time>2022-07-20T18:21:43Z</time>
      </trkpt>
      <trkpt lat="47.3058430" lon="6.8355950">
        <ele>749.7</ele>
        <time>2022-07-20T18:21:44Z</time>
      </trkpt>
      <trkpt lat="47.3058450" lon="6.8355920">
        <ele>749.7</ele>
        <time>2022-07-20T18:21:45Z</time>
      </trkpt>
      <trkpt lat="47.3058460" lon="6.8355890">
        <ele>749.7</ele>
        <time>2022-07-20T18:21:46Z</time>
      </trkpt>
      <trkpt lat="47.3058470" lon="6.8355880">
        <ele>749.7</ele>
        <time>2022-07-20T18:21:47Z</time>
      </trkpt>
      <trkpt lat="47.3058470" lon="6.8355880">
        <ele>749.7</ele>
        <time>2022-07-20T18:21:48Z</time>
      </trkpt>
      <trkpt lat="47.3058490" lon="6.8355880">
        <ele>749.7</ele>
        <time>2022-07-20T18:21:49Z</time>
      </trkpt>
      <trkpt lat="47.3058500" lon="6.8355860">
        <ele>749.7</ele>
        <time>2022-07-20T18:21:50Z</time>
      </trkpt>
      <trkpt lat="47.3058500" lon="6.8355810">
        <ele>749.7</ele>
        <time>2022-07-20T18:21:51Z</time>
      </trkpt>
      <trkpt lat="47.3058350" lon="6.8355520">
        <ele>749.8</ele>
        <time>2022-07-20T18:22:03Z</time>
      </trkpt>
      <trkpt lat="47.3058350" lon="6.8355450">
        <ele>749.8</ele>
        <time>2022-07-20T18:22:04Z</time>
      </trkpt>
      <trkpt lat="47.3058330" lon="6.8355410">
        <ele>749.8</ele>
        <time>2022-07-20T18:22:05Z</time>
      </trkpt>
      <trkpt lat="47.3058300" lon="6.8355390">
        <ele>749.8</ele>
        <time>2022-07-20T18:22:06Z</time>
      </trkpt>
      <trkpt lat="47.3058280" lon="6.8355370">
        <ele>749.8</ele>
        <time>2022-07-20T18:22:07Z</time>
      </trkpt>
      <trkpt lat="47.3058280" lon="6.8355360">
        <ele>749.8</ele>
        <time>2022-07-20T18:22:08Z</time>
      </trkpt>
      <trkpt lat="47.3058300" lon="6.8355350">
        <ele>749.8</ele>
        <time>2022-07-20T18:22:09Z</time>
      </trkpt>
      <trkpt lat="47.3058320" lon="6.8355400">
        <ele>749.8</ele>
        <time>2022-07-20T18:22:10Z</time>
      </trkpt>
      <trkpt lat="47.3058340" lon="6.8355410">
        <ele>749.8</ele>
        <time>2022-07-20T18:22:11Z</time>
      </trkpt>
      <trkpt lat="47.3058350" lon="6.8355420">
        <ele>749.8</ele>
        <time>2022-07-20T18:22:12Z</time>
      </trkpt>
      <trkpt lat="47.3058350" lon="6.8355430">
        <ele>749.8</ele>
        <time>2022-07-20T18:22:13Z</time>
      </trkpt>
      <trkpt lat="47.3058350" lon="6.8355430">
        <ele>749.8</ele>
        <time>2022-07-20T18:22:14Z</time>
      </trkpt>
      <trkpt lat="47.3058350" lon="6.8355430">
        <ele>749.8</ele>
        <time>2022-07-20T18:22:15Z</time>
      </trkpt>
      <trkpt lat="47.3058360" lon="6.8355440">
        <ele>749.8</ele>
        <time>2022-07-20T18:22:16Z</time>
      </trkpt>
      <trkpt lat="47.3058360" lon="6.8355540">
        <ele>749.8</ele>
        <time>2022-07-20T18:24:25Z</time>
      </trkpt>
      <trkpt lat="47.3058420" lon="6.8355560">
        <ele>749.8</ele>
        <time>2022-07-20T18:24:26Z</time>
      </trkpt>
      <trkpt lat="47.3058460" lon="6.8355570">
        <ele>749.8</ele>
        <time>2022-07-20T18:24:27Z</time>
      </trkpt>
      <trkpt lat="47.3058480" lon="6.8355570">
        <ele>749.8</ele>
        <time>2022-07-20T18:24:28Z</time>
      </trkpt>
      <trkpt lat="47.3058500" lon="6.8355560">
        <ele>749.8</ele>
        <time>2022-07-20T18:24:29Z</time>
      </trkpt>
      <trkpt lat="47.3058510" lon="6.8355560">
        <ele>749.8</ele>
        <time>2022-07-20T18:24:30Z</time>
      </trkpt>
      <trkpt lat="47.3058500" lon="6.8355560">
        <ele>749.8</ele>
        <time>2022-07-20T18:24:31Z</time>
      </trkpt>
      <trkpt lat="47.3058470" lon="6.8355580">
        <ele>749.8</ele>
        <time>2022-07-20T18:24:32Z</time>
      </trkpt>
      <trkpt lat="47.3058450" lon="6.8355600">
        <ele>749.8</ele>
        <time>2022-07-20T18:24:33Z</time>
      </trkpt>
      <trkpt lat="47.3058440" lon="6.8355610">
        <ele>749.8</ele>
        <time>2022-07-20T18:24:34Z</time>
      </trkpt>
      <trkpt lat="47.3058440" lon="6.8355610">
        <ele>749.8</ele>
        <time>2022-07-20T18:24:35Z</time>
      </trkpt>
      <trkpt lat="47.3058440" lon="6.8355610">
        <ele>749.8</ele>
        <time>2022-07-20T18:24:36Z</time>
      </trkpt>
      <trkpt lat="47.3058440" lon="6.8355610">
        <ele>749.8</ele>
        <time>2022-07-20T18:24:37Z</time>
      </trkpt>
      <trkpt lat="47.3058440" lon="6.8355610">
        <ele>749.8</ele>
        <time>2022-07-20T18:24:38Z</time>
      </trkpt>
      <trkpt lat="47.3058060" lon="6.8355500">
        <ele>749.8</ele>
        <time>2022-07-20T18:25:20Z</time>
      </trkpt>
      <trkpt lat="47.3058010" lon="6.8355490">
        <ele>749.8</ele>
        <time>2022-07-20T18:25:21Z</time>
      </trkpt>
      <trkpt lat="47.3057990" lon="6.8355470">
        <ele>749.8</ele>
        <time>2022-07-20T18:25:22Z</time>
      </trkpt>
      <trkpt lat="47.3057980" lon="6.8355470">
        <ele>749.8</ele>
        <time>2022-07-20T18:25:23Z</time>
      </trkpt>
      <trkpt lat="47.3057960" lon="6.8355450">
        <ele>749.8</ele>
        <time>2022-07-20T18:25:24Z</time>
      </trkpt>
      <trkpt lat="47.3057930" lon="6.8355430">
        <ele>749.8</ele>
        <time>2022-07-20T18:25:25Z</time>
      </trkpt>
      <trkpt lat="47.3057900" lon="6.8355400">
        <ele>749.8</ele>
        <time>2022-07-20T18:25:26Z</time>
      </trkpt>
      <trkpt lat="47.3057880" lon="6.8355370">
        <ele>749.8</ele>
        <time>2022-07-20T18:25:27Z</time>
      </trkpt>
      <trkpt lat="47.3057830" lon="6.8355320">
        <ele>749.8</ele>
        <time>2022-07-20T18:25:28Z</time>
      </trkpt>
      <trkpt lat="47.3057810" lon="6.8355280">
        <ele>749.8</ele>
        <time>2022-07-20T18:25:29Z</time>
      </trkpt>
      <trkpt lat="47.3057790" lon="6.8355240">
        <ele>749.8</ele>
        <time>2022-07-20T18:25:30Z</time>
      </trkpt>
      <trkpt lat="47.3057780" lon="6.8355220">
        <ele>749.8</ele>
        <time>2022-07-20T18:25:31Z</time>
      </trkpt>
      <trkpt lat="47.3057800" lon="6.8355190">
        <ele>749.8</ele>
        <time>2022-07-20T18:25:32Z</time>
      </trkpt>
      <trkpt lat="47.3057770" lon="6.8355150">
        <ele>749.8</ele>
        <time>2022-07-20T18:25:33Z</time>
      </trkpt>
      <trkpt lat="47.3057730" lon="6.8355090">
        <ele>749.8</ele>
        <time>2022-07-20T18:25:34Z</time>
      </trkpt>
      <trkpt lat="47.3057710" lon="6.8355030">
        <ele>749.8</ele>
        <time>2022-07-20T18:25:35Z</time>
      </trkpt>
      <trkpt lat="47.3057700" lon="6.8355000">
        <ele>749.8</ele>
        <time>2022-07-20T18:25:36Z</time>
      </trkpt>
      <trkpt lat="47.3057710" lon="6.8354980">
        <ele>749.8</ele>
        <time>2022-07-20T18:25:37Z</time>
      </trkpt>
      <trkpt lat="47.3057710" lon="6.8354950">
        <ele>749.8</ele>
        <time>2022-07-20T18:25:38Z</time>
      </trkpt>
      <trkpt lat="47.3057690" lon="6.8354920">
        <ele>749.9</ele>
        <time>2022-07-20T18:25:39Z</time>
      </trkpt>
      <trkpt lat="47.3057650" lon="6.8354880">
        <ele>749.9</ele>
        <time>2022-07-20T18:25:40Z</time>
      </trkpt>
      <trkpt lat="47.3057620" lon="6.8354850">
        <ele>749.9</ele>
        <time>2022-07-20T18:25:41Z</time>
      </trkpt>
      <trkpt lat="47.3057600" lon="6.8354850">
        <ele>749.9</ele>
        <time>2022-07-20T18:25:42Z</time>
      </trkpt>
      <trkpt lat="47.3057600" lon="6.8354870">
        <ele>749.9</ele>
        <time>2022-07-20T18:25:43Z</time>
      </trkpt>
      <trkpt lat="47.3057610" lon="6.8354880">
        <ele>749.9</ele>
        <time>2022-07-20T18:25:44Z</time>
      </trkpt>
      <trkpt lat="47.3057610" lon="6.8354900">
        <ele>749.9</ele>
        <time>2022-07-20T18:25:45Z</time>
      </trkpt>
      <trkpt lat="47.3057610" lon="6.8354930">
        <ele>749.9</ele>
        <time>2022-07-20T18:25:46Z</time>
      </trkpt>
      <trkpt lat="47.3057600" lon="6.8354950">
        <ele>749.9</ele>
        <time>2022-07-20T18:25:47Z</time>
      </trkpt>
      <trkpt lat="47.3057600" lon="6.8354990">
        <ele>749.9</ele>
        <time>2022-07-20T18:25:48Z</time>
      </trkpt>
      <trkpt lat="47.3057590" lon="6.8355020">
        <ele>749.9</ele>
        <time>2022-07-20T18:25:49Z</time>
      </trkpt>
      <trkpt lat="47.3057590" lon="6.8355040">
        <ele>749.9</ele>
        <time>2022-07-20T18:25:50Z</time>
      </trkpt>
      <trkpt lat="47.3057590" lon="6.8355050">
        <ele>749.9</ele>
        <time>2022-07-20T18:25:51Z</time>
      </trkpt>
      <trkpt lat="47.3057440" lon="6.8355170">
        <ele>749.9</ele>
        <time>2022-07-20T18:26:42Z</time>
      </trkpt>
      <trkpt lat="47.3057410" lon="6.8355180">
        <ele>749.9</ele>
        <time>2022-07-20T18:26:43Z</time>
      </trkpt>
      <trkpt lat="47.3057380" lon="6.8355180">
        <ele>749.9</ele>
        <time>2022-07-20T18:26:44Z</time>
      </trkpt>
      <trkpt lat="47.3057360" lon="6.8355180">
        <ele>749.9</ele>
        <time>2022-07-20T18:26:45Z</time>
      </trkpt>
      <trkpt lat="47.3057360" lon="6.8355170">
        <ele>749.9</ele>
        <time>2022-07-20T18:26:46Z</time>
      </trkpt>
      <trkpt lat="47.3057370" lon="6.8355160">
        <ele>749.9</ele>
        <time>2022-07-20T18:26:47Z</time>
      </trkpt>
      <trkpt lat="47.3057400" lon="6.8355160">
        <ele>749.9</ele>
        <time>2022-07-20T18:26:48Z</time>
      </trkpt>
      <trkpt lat="47.3057430" lon="6.8355160">
        <ele>749.9</ele>
        <time>2022-07-20T18:26:49Z</time>
      </trkpt>
      <trkpt lat="47.3057460" lon="6.8355160">
        <ele>749.9</ele>
        <time>2022-07-20T18:26:50Z</time>
      </trkpt>
      <trkpt lat="47.3057480" lon="6.8355160">
        <ele>749.9</ele>
        <time>2022-07-20T18:26:51Z</time>
      </trkpt>
      <trkpt lat="47.3057490" lon="6.8355170">
        <ele>749.9</ele>
        <time>2022-07-20T18:26:52Z</time>
      </trkpt>
      <trkpt lat="47.3057500" lon="6.8355170">
        <ele>749.9</ele>
        <time>2022-07-20T18:26:53Z</time>
      </trkpt>
      <trkpt lat="47.3057500" lon="6.8355160">
        <ele>749.9</ele>
        <time>2022-07-20T18:26:54Z</time>
      </trkpt>
      <trkpt lat="47.3057500" lon="6.8355160">
        <ele>749.9</ele>
        <time>2022-07-20T18:26:55Z</time>
      </trkpt>
      <trkpt lat="47.3057800" lon="6.8355490">
        <ele>749.9</ele>
        <time>2022-07-20T18:27:29Z</time>
      </trkpt>
      <trkpt lat="47.3057850" lon="6.8355470">
        <ele>749.9</ele>
        <time>2022-07-20T18:27:30Z</time>
      </trkpt>
      <trkpt lat="47.3057870" lon="6.8355460">
        <ele>749.9</ele>
        <time>2022-07-20T18:27:31Z</time>
      </trkpt>
      <trkpt lat="47.3057840" lon="6.8355450">
        <ele>749.9</ele>
        <time>2022-07-20T18:27:32Z</time>
      </trkpt>
      <trkpt lat="47.3057810" lon="6.8355430">
        <ele>749.9</ele>
        <time>2022-07-20T18:27:33Z</time>
      </trkpt>
      <trkpt lat="47.3057790" lon="6.8355410">
        <ele>749.9</ele>
        <time>2022-07-20T18:27:34Z</time>
      </trkpt>
      <trkpt lat="47.3057820" lon="6.8355400">
        <ele>749.9</ele>
        <time>2022-07-20T18:27:35Z</time>
      </trkpt>
      <trkpt lat="47.3057830" lon="6.8355380">
        <ele>749.9</ele>
        <time>2022-07-20T18:27:36Z</time>
      </trkpt>
      <trkpt lat="47.3057840" lon="6.8355360">
        <ele>749.9</ele>
        <time>2022-07-20T18:27:37Z</time>
      </trkpt>
      <trkpt lat="47.3057880" lon="6.8355350">
        <ele>749.9</ele>
        <time>2022-07-20T18:27:38Z</time>
      </trkpt>
      <trkpt lat="47.3057910" lon="6.8355350">
        <ele>749.9</ele>
        <time>2022-07-20T18:27:39Z</time>
      </trkpt>
      <trkpt lat="47.3057930" lon="6.8355350">
        <ele>749.9</ele>
        <time>2022-07-20T18:27:40Z</time>
      </trkpt>
      <trkpt lat="47.3057940" lon="6.8355350">
        <ele>749.9</ele>
        <time>2022-07-20T18:27:41Z</time>
      </trkpt>
      <trkpt lat="47.3058330" lon="6.8355570">
        <ele>750.0</ele>
        <time>2022-07-20T18:28:56Z</time>
      </trkpt>
      <trkpt lat="47.3058320" lon="6.8355550">
        <ele>750.0</ele>
        <time>2022-07-20T18:28:57Z</time>
      </trkpt>
      <trkpt lat="47.3058290" lon="6.8355520">
        <ele>750.0</ele>
        <time>2022-07-20T18:28:58Z</time>
      </trkpt>
      <trkpt lat="47.3058260" lon="6.8355510">
        <ele>750.0</ele>
        <time>2022-07-20T18:28:59Z</time>
      </trkpt>
      <trkpt lat="47.3058240" lon="6.8355510">
        <ele>750.0</ele>
        <time>2022-07-20T18:29:00Z</time>
      </trkpt>
      <trkpt lat="47.3058250" lon="6.8355500">
        <ele>750.0</ele>
        <time>2022-07-20T18:29:01Z</time>
      </trkpt>
      <trkpt lat="47.3058260" lon="6.8355500">
        <ele>750.0</ele>
        <time>2022-07-20T18:29:02Z</time>
      </trkpt>
      <trkpt lat="47.3058260" lon="6.8355480">
        <ele>750.0</ele>
        <time>2022-07-20T18:29:03Z</time>
      </trkpt>
      <trkpt lat="47.3058280" lon="6.8355470">
        <ele>750.0</ele>
        <time>2022-07-20T18:29:04Z</time>
      </trkpt>
      <trkpt lat="47.3058330" lon="6.8355490">
        <ele>750.0</ele>
        <time>2022-07-20T18:29:05Z</time>
      </trkpt>
      <trkpt lat="47.3058380" lon="6.8355510">
        <ele>750.0</ele>
        <time>2022-07-20T18:29:06Z</time>
      </trkpt>
      <trkpt lat="47.3058460" lon="6.8355540">
        <ele>750.0</ele>
        <time>2022-07-20T18:29:07Z</time>
      </trkpt>
      <trkpt lat="47.3058530" lon="6.8355560">
        <ele>750.0</ele>
        <time>2022-07-20T18:29:08Z</time>
      </trkpt>
      <trkpt lat="47.3058580" lon="6.8355580">
        <ele>750.0</ele>
        <time>2022-07-20T18:29:09Z</time>
      </trkpt>
      <trkpt lat="47.3058530" lon="6.8355610">
        <ele>750.0</ele>
        <time>2022-07-20T18:29:10Z</time>
      </trkpt>
      <trkpt lat="47.3058480" lon="6.8355640">
        <ele>750.0</ele>
        <time>2022-07-20T18:29:11Z</time>
      </trkpt>
      <trkpt lat="47.3058420" lon="6.8355640">
        <ele>750.0</ele>
        <time>2022-07-20T18:29:12Z</time>
      </trkpt>
      <trkpt lat="47.3058380" lon="6.8355620">
        <ele>750.0</ele>
        <time>2022-07-20T18:29:13Z</time>
      </trkpt>
      <trkpt lat="47.3058340" lon="6.8355630">
        <ele>750.0</ele>
        <time>2022-07-20T18:29:14Z</time>
      </trkpt>
      <trkpt lat="47.3058300" lon="6.8355660">
        <ele>750.0</ele>
        <time>2022-07-20T18:29:15Z</time>
      </trkpt>
      <trkpt lat="47.3058270" lon="6.8355690">
        <ele>750.0</ele>
        <time>2022-07-20T18:29:16Z</time>
      </trkpt>
      <trkpt lat="47.3058260" lon="6.8355690">
        <ele>750.0</ele>
        <time>2022-07-20T18:29:17Z</time>
      </trkpt>
      <trkpt lat="47.3058220" lon="6.8355710">
        <ele>750.0</ele>
        <time>2022-07-20T18:29:18Z</time>
      </trkpt>
      <trkpt lat="47.3058210" lon="6.8355720">
        <ele>750.0</ele>
        <time>2022-07-20T18:29:19Z</time>
      </trkpt>
      <trkpt lat="47.3058210" lon="6.8355720">
        <ele>750.0</ele>
        <time>2022-07-20T18:29:20Z</time>
      </trkpt>
      <trkpt lat="47.3058220" lon="6.8355720">
        <ele>750.0</ele>
        <time>2022-07-20T18:29:21Z</time>
      </trkpt>
      <trkpt lat="47.3058210" lon="6.8355720">
        <ele>750.0</ele>
        <time>2022-07-20T18:29:22Z</time>
      </trkpt>
      <trkpt lat="47.3058200" lon="6.8355720">
        <ele>750.0</ele>
        <time>2022-07-20T18:29:23Z</time>
      </trkpt>
      <trkpt lat="47.3058200" lon="6.8355710">
        <ele>750.0</ele>
        <time>2022-07-20T18:29:24Z</time>
      </trkpt>
      <trkpt lat="47.3058200" lon="6.8355710">
        <ele>750.0</ele>
        <time>2022-07-20T18:29:25Z</time>
      </trkpt>
      <trkpt lat="47.3058200" lon="6.8355710">
        <ele>750.0</ele>
        <time>2022-07-20T18:29:26Z</time>
      </trkpt>
      <trkpt lat="47.3058200" lon="6.8355700">
        <ele>750.0</ele>
        <time>2022-07-20T18:29:27Z</time>
      </trkpt>
      <trkpt lat="47.3058200" lon="6.8355700">
        <ele>750.0</ele>
        <time>2022-07-20T18:29:28Z</time>
      </trkpt>
      <trkpt lat="47.3058070" lon="6.8355320">
        <ele>750.0</ele>
        <time>2022-07-20T18:29:48Z</time>
      </trkpt>
      <trkpt lat="47.3057990" lon="6.8355290">
        <ele>750.0</ele>
        <time>2022-07-20T18:29:49Z</time>
      </trkpt>
      <trkpt lat="47.3057900" lon="6.8355300">
        <ele>750.0</ele>
        <time>2022-07-20T18:29:50Z</time>
      </trkpt>
      <trkpt lat="47.3057860" lon="6.8355320">
        <ele>750.0</ele>
        <time>2022-07-20T18:29:51Z</time>
      </trkpt>
      <trkpt lat="47.3057870" lon="6.8355360">
        <ele>750.0</ele>
        <time>2022-07-20T18:29:52Z</time>
      </trkpt>
      <trkpt lat="47.3057890" lon="6.8355350">
        <ele>750.0</ele>
        <time>2022-07-20T18:29:53Z</time>
      </trkpt>
      <trkpt lat="47.3057930" lon="6.8355360">
        <ele>750.1</ele>
        <time>2022-07-20T18:29:54Z</time>
      </trkpt>
      <trkpt lat="47.3057990" lon="6.8355360">
        <ele>750.1</ele>
        <time>2022-07-20T18:29:55Z</time>
      </trkpt>
      <trkpt lat="47.3058040" lon="6.8355340">
        <ele>750.1</ele>
        <time>2022-07-20T18:29:56Z</time>
      </trkpt>
      <trkpt lat="47.3058080" lon="6.8355320">
        <ele>750.1</ele>
        <time>2022-07-20T18:29:57Z</time>
      </trkpt>
      <trkpt lat="47.3058100" lon="6.8355310">
        <ele>750.1</ele>
        <time>2022-07-20T18:29:58Z</time>
      </trkpt>
      <trkpt lat="47.3058100" lon="6.8355300">
        <ele>750.1</ele>
        <time>2022-07-20T18:29:59Z</time>
      </trkpt>
      <trkpt lat="47.3058100" lon="6.8355290">
        <ele>750.1</ele>
        <time>2022-07-20T18:30:00Z</time>
      </trkpt>
      <trkpt lat="47.3058100" lon="6.8355290">
        <ele>750.1</ele>
        <time>2022-07-20T18:30:01Z</time>
      </trkpt>
      <trkpt lat="47.3058090" lon="6.8355290">
        <ele>750.1</ele>
        <time>2022-07-20T18:30:02Z</time>
      </trkpt>
      <trkpt lat="47.3058090" lon="6.8355290">
        <ele>750.1</ele>
        <time>2022-07-20T18:30:03Z</time>
      </trkpt>
      <trkpt lat="47.3058090" lon="6.8355290">
        <ele>750.1</ele>
        <time>2022-07-20T18:30:04Z</time>
      </trkpt>
      <trkpt lat="47.3058100" lon="6.8355290">
        <ele>750.1</ele>
        <time>2022-07-20T18:30:05Z</time>
      </trkpt>
      <trkpt lat="47.3058100" lon="6.8355290">
        <ele>750.1</ele>
        <time>2022-07-20T18:30:06Z</time>
      </trkpt>
      <trkpt lat="47.3058100" lon="6.8355300">
        <ele>750.1</ele>
        <time>2022-07-20T18:30:07Z</time>
      </trkpt>
      <trkpt lat="47.3058320" lon="6.8355510">
        <ele>750.1</ele>
        <time>2022-07-20T18:30:28Z</time>
      </trkpt>
      <trkpt lat="47.3058340" lon="6.8355560">
        <ele>750.1</ele>
        <time>2022-07-20T18:30:29Z</time>
      </trkpt>
      <trkpt lat="47.3058350" lon="6.8355560">
        <ele>750.1</ele>
        <time>2022-07-20T18:30:30Z</time>
      </trkpt>
      <trkpt lat="47.3058350" lon="6.8355550">
        <ele>750.1</ele>
        <time>2022-07-20T18:30:31Z</time>
      </trkpt>
      <trkpt lat="47.3058350" lon="6.8355550">
        <ele>750.1</ele>
        <time>2022-07-20T18:30:32Z</time>
      </trkpt>
      <trkpt lat="47.3058340" lon="6.8355550">
        <ele>750.1</ele>
        <time>2022-07-20T18:30:33Z</time>
      </trkpt>
      <trkpt lat="47.3058320" lon="6.8355530">
        <ele>750.1</ele>
        <time>2022-07-20T18:30:34Z</time>
      </trkpt>
      <trkpt lat="47.3058330" lon="6.8355530">
        <ele>750.1</ele>
        <time>2022-07-20T18:30:35Z</time>
      </trkpt>
      <trkpt lat="47.3058330" lon="6.8355530">
        <ele>750.1</ele>
        <time>2022-07-20T18:30:36Z</time>
      </trkpt>
      <trkpt lat="47.3058330" lon="6.8355530">
        <ele>750.1</ele>
        <time>2022-07-20T18:30:37Z</time>
      </trkpt>
      <trkpt lat="47.3058330" lon="6.8355530">
        <ele>750.1</ele>
        <time>2022-07-20T18:30:38Z</time>
      </trkpt>
      <trkpt lat="47.3058330" lon="6.8355530">
        <ele>750.1</ele>
        <time>2022-07-20T18:30:39Z</time>
      </trkpt>
      <trkpt lat="47.3058480" lon="6.8355850">
        <ele>750.1</ele>
        <time>2022-07-20T18:30:57Z</time>
      </trkpt>
      <trkpt lat="47.3058500" lon="6.8355840">
        <ele>750.1</ele>
        <time>2022-07-20T18:30:58Z</time>
      </trkpt>
      <trkpt lat="47.3058530" lon="6.8355830">
        <ele>750.1</ele>
        <time>2022-07-20T18:30:59Z</time>
      </trkpt>
      <trkpt lat="47.3058500" lon="6.8355800">
        <ele>750.1</ele>
        <time>2022-07-20T18:31:00Z</time>
      </trkpt>
      <trkpt lat="47.3058440" lon="6.8355720">
        <ele>750.1</ele>
        <time>2022-07-20T18:31:01Z</time>
      </trkpt>
      <trkpt lat="47.3058380" lon="6.8355640">
        <ele>750.1</ele>
        <time>2022-07-20T18:31:02Z</time>
      </trkpt>
      <trkpt lat="47.3058350" lon="6.8355560">
        <ele>750.1</ele>
        <time>2022-07-20T18:31:03Z</time>
      </trkpt>
      <trkpt lat="47.3058370" lon="6.8355520">
        <ele>750.1</ele>
        <time>2022-07-20T18:31:04Z</time>
      </trkpt>
      <trkpt lat="47.3058380" lon="6.8355520">
        <ele>750.1</ele>
        <time>2022-07-20T18:31:05Z</time>
      </trkpt>
      <trkpt lat="47.3058410" lon="6.8355550">
        <ele>750.1</ele>
        <time>2022-07-20T18:31:06Z</time>
      </trkpt>
      <trkpt lat="47.3058430" lon="6.8355560">
        <ele>750.1</ele>
        <time>2022-07-20T18:31:07Z</time>
      </trkpt>
      <trkpt lat="47.3058450" lon="6.8355570">
        <ele>750.1</ele>
        <time>2022-07-20T18:31:08Z</time>
      </trkpt>
      <trkpt lat="47.3058450" lon="6.8355610">
        <ele>750.1</ele>
        <time>2022-07-20T18:31:09Z</time>
      </trkpt>
      <trkpt lat="47.3058410" lon="6.8355640">
        <ele>750.1</ele>
        <time>2022-07-20T18:31:10Z</time>
      </trkpt>
      <trkpt lat="47.3058370" lon="6.8355690">
        <ele>750.1</ele>
        <time>2022-07-20T18:31:11Z</time>
      </trkpt>
      <trkpt lat="47.3058350" lon="6.8355730">
        <ele>750.1</ele>
        <time>2022-07-20T18:31:12Z</time>
      </trkpt>
      <trkpt lat="47.3058330" lon="6.8355750">
        <ele>750.1</ele>
        <time>2022-07-20T18:31:13Z</time>
      </trkpt>
      <trkpt lat="47.3058350" lon="6.8355800">
        <ele>750.1</ele>
        <time>2022-07-20T18:31:14Z</time>
      </trkpt>
      <trkpt lat="47.3058370" lon="6.8355840">
        <ele>750.1</ele>
        <time>2022-07-20T18:31:15Z</time>
      </trkpt>
      <trkpt lat="47.3058400" lon="6.8355880">
        <ele>750.1</ele>
        <time>2022-07-20T18:31:16Z</time>
      </trkpt>
      <trkpt lat="47.3058420" lon="6.8355920">
        <ele>750.1</ele>
        <time>2022-07-20T18:31:17Z</time>
      </trkpt>
      <trkpt lat="47.3058410" lon="6.8355930">
        <ele>750.1</ele>
        <time>2022-07-20T18:31:18Z</time>
      </trkpt>
      <trkpt lat="47.3058380" lon="6.8355920">
        <ele>750.2</ele>
        <time>2022-07-20T18:31:19Z</time>
      </trkpt>
      <trkpt lat="47.3058370" lon="6.8355930">
        <ele>750.2</ele>
        <time>2022-07-20T18:31:20Z</time>
      </trkpt>
      <trkpt lat="47.3058370" lon="6.8355930">
        <ele>750.2</ele>
        <time>2022-07-20T18:31:21Z</time>
      </trkpt>
      <trkpt lat="47.3058380" lon="6.8355940">
        <ele>750.2</ele>
        <time>2022-07-20T18:31:22Z</time>
      </trkpt>
      <trkpt lat="47.3058380" lon="6.8355940">
        <ele>750.2</ele>
        <time>2022-07-20T18:31:23Z</time>
      </trkpt>
      <trkpt lat="47.3058380" lon="6.8355930">
        <ele>750.2</ele>
        <time>2022-07-20T18:31:24Z</time>
      </trkpt>
      <trkpt lat="47.3058370" lon="6.8355930">
        <ele>750.2</ele>
        <time>2022-07-20T18:31:25Z</time>
      </trkpt>
      <trkpt lat="47.3058370" lon="6.8355930">
        <ele>750.2</ele>
        <time>2022-07-20T18:31:26Z</time>
      </trkpt>
      <trkpt lat="47.3058360" lon="6.8355930">
        <ele>750.2</ele>
        <time>2022-07-20T18:31:27Z</time>
      </trkpt>
      <trkpt lat="47.3058200" lon="6.8355780">
        <ele>750.2</ele>
        <time>2022-07-20T18:31:40Z</time>
      </trkpt>
      <trkpt lat="47.3058150" lon="6.8355700">
        <ele>750.2</ele>
        <time>2022-07-20T18:31:41Z</time>
      </trkpt>
      <trkpt lat="47.3058140" lon="6.8355630">
        <ele>750.2</ele>
        <time>2022-07-20T18:31:42Z</time>
      </trkpt>
      <trkpt lat="47.3058140" lon="6.8355590">
        <ele>750.2</ele>
        <time>2022-07-20T18:31:43Z</time>
      </trkpt>
      <trkpt lat="47.3058130" lon="6.8355580">
        <ele>750.2</ele>
        <time>2022-07-20T18:31:44Z</time>
      </trkpt>
      <trkpt lat="47.3058160" lon="6.8355570">
        <ele>750.2</ele>
        <time>2022-07-20T18:31:45Z</time>
      </trkpt>
      <trkpt lat="47.3058180" lon="6.8355570">
        <ele>750.2</ele>
        <time>2022-07-20T18:31:46Z</time>
      </trkpt>
      <trkpt lat="47.3058180" lon="6.8355570">
        <ele>750.2</ele>
        <time>2022-07-20T18:31:47Z</time>
      </trkpt>
      <trkpt lat="47.3058170" lon="6.8355580">
        <ele>750.2</ele>
        <time>2022-07-20T18:31:48Z</time>
      </trkpt>
      <trkpt lat="47.3058150" lon="6.8355590">
        <ele>750.2</ele>
        <time>2022-07-20T18:31:49Z</time>
      </trkpt>
      <trkpt lat="47.3058140" lon="6.8355600">
        <ele>750.2</ele>
        <time>2022-07-20T18:31:50Z</time>
      </trkpt>
      <trkpt lat="47.3058130" lon="6.8355600">
        <ele>750.2</ele>
        <time>2022-07-20T18:31:51Z</time>
      </trkpt>
      <trkpt lat="47.3058130" lon="6.8355600">
        <ele>750.2</ele>
        <time>2022-07-20T18:31:52Z</time>
      </trkpt>
      <trkpt lat="47.3058130" lon="6.8355600">
        <ele>750.2</ele>
        <time>2022-07-20T18:31:53Z</time>
      </trkpt>
      <trkpt lat="47.3057950" lon="6.8355590">
        <ele>750.2</ele>
        <time>2022-07-20T18:32:32Z</time>
      </trkpt>
      <trkpt lat="47.3057940" lon="6.8355580">
        <ele>750.2</ele>
        <time>2022-07-20T18:32:33Z</time>
      </trkpt>
      <trkpt lat="47.3057930" lon="6.8355570">
        <ele>750.2</ele>
        <time>2022-07-20T18:32:34Z</time>
      </trkpt>
      <trkpt lat="47.3057920" lon="6.8355560">
        <ele>750.2</ele>
        <time>2022-07-20T18:32:35Z</time>
      </trkpt>
      <trkpt lat="47.3057920" lon="6.8355560">
        <ele>750.2</ele>
        <time>2022-07-20T18:32:36Z</time>
      </trkpt>
      <trkpt lat="47.3057920" lon="6.8355560">
        <ele>750.2</ele>
        <time>2022-07-20T18:32:37Z</time>
      </trkpt>
      <trkpt lat="47.3057920" lon="6.8355560">
        <ele>750.2</ele>
        <time>2022-07-20T18:32:38Z</time>
      </trkpt>
      <trkpt lat="47.3057920" lon="6.8355560">
        <ele>750.2</ele>
        <time>2022-07-20T18:32:39Z</time>
      </trkpt>
      <trkpt lat="47.3057950" lon="6.8355530">
        <ele>750.2</ele>
        <time>2022-07-20T18:32:40Z</time>
      </trkpt>
      <trkpt lat="47.3057980" lon="6.8355510">
        <ele>750.2</ele>
        <time>2022-07-20T18:32:41Z</time>
      </trkpt>
      <trkpt lat="47.3058000" lon="6.8355520">
        <ele>750.2</ele>
        <time>2022-07-20T18:32:42Z</time>
      </trkpt>
      <trkpt lat="47.3058000" lon="6.8355560">
        <ele>750.2</ele>
        <time>2022-07-20T18:32:43Z</time>
      </trkpt>
      <trkpt lat="47.3058000" lon="6.8355580">
        <ele>750.2</ele>
        <time>2022-07-20T18:32:44Z</time>
      </trkpt>
      <trkpt lat="47.3058010" lon="6.8355600">
        <ele>750.2</ele>
        <time>2022-07-20T18:32:45Z</time>
      </trkpt>
      <trkpt lat="47.3058010" lon="6.8355620">
        <ele>750.2</ele>
        <time>2022-07-20T18:32:46Z</time>
      </trkpt>
      <trkpt lat="47.3058030" lon="6.8355630">
        <ele>750.2</ele>
        <time>2022-07-20T18:32:47Z</time>
      </trkpt>
      <trkpt lat="47.3058040" lon="6.8355640">
        <ele>750.2</ele>
        <time>2022-07-20T18:32:48Z</time>
      </trkpt>
      <trkpt lat="47.3058020" lon="6.8355650">
        <ele>750.2</ele>
        <time>2022-07-20T18:32:49Z</time>
      </trkpt>
      <trkpt lat="47.3058010" lon="6.8355650">
        <ele>750.2</ele>
        <time>2022-07-20T18:32:50Z</time>
      </trkpt>
      <trkpt lat="47.3058010" lon="6.8355650">
        <ele>750.2</ele>
        <time>2022-07-20T18:32:51Z</time>
      </trkpt>
      <trkpt lat="47.3058010" lon="6.8355650">
        <ele>750.2</ele>
        <time>2022-07-20T18:32:52Z</time>
      </trkpt>
      <trkpt lat="47.3058230" lon="6.8355690">
        <ele>750.2</ele>
        <time>2022-07-20T18:33:03Z</time>
      </trkpt>
      <trkpt lat="47.3058280" lon="6.8355680">
        <ele>750.2</ele>
        <time>2022-07-20T18:33:04Z</time>
      </trkpt>
      <trkpt lat="47.3058290" lon="6.8355660">
        <ele>750.2</ele>
        <time>2022-07-20T18:33:05Z</time>
      </trkpt>
      <trkpt lat="47.3058290" lon="6.8355650">
        <ele>750.2</ele>
        <time>2022-07-20T18:33:06Z</time>
      </trkpt>
      <trkpt lat="47.3058270" lon="6.8355680">
        <ele>750.2</ele>
        <time>2022-07-20T18:33:07Z</time>
      </trkpt>
      <trkpt lat="47.3058230" lon="6.8355740">
        <ele>750.2</ele>
        <time>2022-07-20T18:33:08Z</time>
      </trkpt>
      <trkpt lat="47.3058190" lon="6.8355790">
        <ele>750.2</ele>
        <time>2022-07-20T18:33:09Z</time>
      </trkpt>
      <trkpt lat="47.3058140" lon="6.8355810">
        <ele>750.2</ele>
        <time>2022-07-20T18:33:10Z</time>
      </trkpt>
      <trkpt lat="47.3058070" lon="6.8355820">
        <ele>750.2</ele>
        <time>2022-07-20T18:33:11Z</time>
      </trkpt>
      <trkpt lat="47.3058010" lon="6.8355840">
        <ele>750.2</ele>
        <time>2022-07-20T18:33:12Z</time>
      </trkpt>
      <trkpt lat="47.3057970" lon="6.8355850">
        <ele>750.2</ele>
        <time>2022-07-20T18:33:13Z</time>
      </trkpt>
      <trkpt lat="47.3057960" lon="6.8355870">
        <ele>750.3</ele>
        <time>2022-07-20T18:33:14Z</time>
      </trkpt>
      <trkpt lat="47.3057970" lon="6.8355890">
        <ele>750.3</ele>
        <time>2022-07-20T18:33:15Z</time>
      </trkpt>
      <trkpt lat="47.3057990" lon="6.8355910">
        <ele>750.3</ele>
        <time>2022-07-20T18:33:16Z</time>
      </trkpt>
      <trkpt lat="47.3057990" lon="6.8355910">
        <ele>750.3</ele>
        <time>2022-07-20T18:33:17Z</time>
      </trkpt>
      <trkpt lat="47.3057950" lon="6.8355860">
        <ele>750.3</ele>
        <time>2022-07-20T18:33:18Z</time>
      </trkpt>
      <trkpt lat="47.3057870" lon="6.8355810">
        <ele>750.3</ele>
        <time>2022-07-20T18:33:19Z</time>
      </trkpt>
      <trkpt lat="47.3057840" lon="6.8355760">
        <ele>750.3</ele>
        <time>2022-07-20T18:33:20Z</time>
      </trkpt>
      <trkpt lat="47.3057840" lon="6.8355720">
        <ele>750.3</ele>
        <time>2022-07-20T18:33:21Z</time>
      </trkpt>
      <trkpt lat="47.3057850" lon="6.8355690">
        <ele>750.3</ele>
        <time>2022-07-20T18:33:22Z</time>
      </trkpt>
      <trkpt lat="47.3057890" lon="6.8355690">
        <ele>750.3</ele>
        <time>2022-07-20T18:33:23Z</time>
      </trkpt>
      <trkpt lat="47.3057930" lon="6.8355700">
        <ele>750.3</ele>
        <time>2022-07-20T18:33:24Z</time>
      </trkpt>
      <trkpt lat="47.3057950" lon="6.8355710">
        <ele>750.3</ele>
        <time>2022-07-20T18:33:25Z</time>
      </trkpt>
      <trkpt lat="47.3057950" lon="6.8355720">
        <ele>750.3</ele>
        <time>2022-07-20T18:33:26Z</time>
      </trkpt>
      <trkpt lat="47.3057960" lon="6.8355720">
        <ele>750.3</ele>
        <time>2022-07-20T18:33:27Z</time>
      </trkpt>
      <trkpt lat="47.3057960" lon="6.8355730">
        <ele>750.3</ele>
        <time>2022-07-20T18:33:28Z</time>
      </trkpt>
      <trkpt lat="47.3057990" lon="6.8355710">
        <ele>750.3</ele>
        <time>2022-07-20T18:33:29Z</time>
      </trkpt>
      <trkpt lat="47.3058000" lon="6.8355680">
        <ele>750.3</ele>
        <time>2022-07-20T18:33:30Z</time>
      </trkpt>
      <trkpt lat="47.3057980" lon="6.8355660">
        <ele>750.3</ele>
        <time>2022-07-20T18:33:31Z</time>
      </trkpt>
      <trkpt lat="47.3057920" lon="6.8355650">
        <ele>750.3</ele>
        <time>2022-07-20T18:33:32Z</time>
      </trkpt>
      <trkpt lat="47.3057850" lon="6.8355630">
        <ele>750.3</ele>
        <time>2022-07-20T18:33:33Z</time>
      </trkpt>
      <trkpt lat="47.3057770" lon="6.8355600">
        <ele>750.3</ele>
        <time>2022-07-20T18:33:34Z</time>
      </trkpt>
      <trkpt lat="47.3057710" lon="6.8355560">
        <ele>750.3</ele>
        <time>2022-07-20T18:33:35Z</time>
      </trkpt>
      <trkpt lat="47.3057690" lon="6.8355570">
        <ele>750.3</ele>
        <time>2022-07-20T18:33:36Z</time>
      </trkpt>
      <trkpt lat="47.3057710" lon="6.8355600">
        <ele>750.3</ele>
        <time>2022-07-20T18:33:37Z</time>
      </trkpt>
      <trkpt lat="47.3057740" lon="6.8355620">
        <ele>750.3</ele>
        <time>2022-07-20T18:33:38Z</time>
      </trkpt>
      <trkpt lat="47.3057750" lon="6.8355620">
        <ele>750.3</ele>
        <time>2022-07-20T18:33:39Z</time>
      </trkpt>
      <trkpt lat="47.3057770" lon="6.8355630">
        <ele>750.3</ele>
        <time>2022-07-20T18:33:40Z</time>
      </trkpt>
      <trkpt lat="47.3057800" lon="6.8355650">
        <ele>750.3</ele>
        <time>2022-07-20T18:33:41Z</time>
      </trkpt>
      <trkpt lat="47.3057810" lon="6.8355650">
        <ele>750.3</ele>
        <time>2022-07-20T18:33:42Z</time>
      </trkpt>
      <trkpt lat="47.3057820" lon="6.8355660">
        <ele>750.3</ele>
        <time>2022-07-20T18:33:43Z</time>
      </trkpt>
      <trkpt lat="47.3057880" lon="6.8355680">
        <ele>750.3</ele>
        <time>2022-07-20T18:33:44Z</time>
      </trkpt>
      <trkpt lat="47.3057950" lon="6.8355710">
        <ele>750.3</ele>
        <time>2022-07-20T18:33:45Z</time>
      </trkpt>
      <trkpt lat="47.3058000" lon="6.8355740">
        <ele>750.3</ele>
        <time>2022-07-20T18:33:46Z</time>
      </trkpt>
      <trkpt lat="47.3058020" lon="6.8355780">
        <ele>750.3</ele>
        <time>2022-07-20T18:33:47Z</time>
      </trkpt>
      <trkpt lat="47.3057990" lon="6.8355820">
        <ele>750.3</ele>
        <time>2022-07-20T18:33:48Z</time>
      </trkpt>
      <trkpt lat="47.3057930" lon="6.8355800">
        <ele>750.3</ele>
        <time>2022-07-20T18:33:49Z</time>
      </trkpt>
      <trkpt lat="47.3057870" lon="6.8355770">
        <ele>750.3</ele>
        <time>2022-07-20T18:33:50Z</time>
      </trkpt>
      <trkpt lat="47.3057850" lon="6.8355770">
        <ele>750.3</ele>
        <time>2022-07-20T18:33:51Z</time>
      </trkpt>
      <trkpt lat="47.3057870" lon="6.8355780">
        <ele>750.3</ele>
        <time>2022-07-20T18:33:52Z</time>
      </trkpt>
      <trkpt lat="47.3057870" lon="6.8355810">
        <ele>750.3</ele>
        <time>2022-07-20T18:33:53Z</time>
      </trkpt>
      <trkpt lat="47.3057880" lon="6.8355830">
        <ele>750.3</ele>
        <time>2022-07-20T18:33:54Z</time>
      </trkpt>
      <trkpt lat="47.3057860" lon="6.8355840">
        <ele>750.3</ele>
        <time>2022-07-20T18:33:55Z</time>
      </trkpt>
      <trkpt lat="47.3057850" lon="6.8355850">
        <ele>750.3</ele>
        <time>2022-07-20T18:33:56Z</time>
      </trkpt>
      <trkpt lat="47.3057850" lon="6.8355850">
        <ele>750.3</ele>
        <time>2022-07-20T18:33:57Z</time>
      </trkpt>
      <trkpt lat="47.3057850" lon="6.8355850">
        <ele>750.3</ele>
        <time>2022-07-20T18:33:58Z</time>
      </trkpt>
      <trkpt lat="47.3057850" lon="6.8355850">
        <ele>750.3</ele>
        <time>2022-07-20T18:33:59Z</time>
      </trkpt>
      <trkpt lat="47.3057850" lon="6.8355850">
        <ele>750.3</ele>
        <time>2022-07-20T18:34:00Z</time>
      </trkpt>
      <trkpt lat="47.3057750" lon="6.8355970">
        <ele>750.3</ele>
        <time>2022-07-20T18:34:11Z</time>
      </trkpt>
      <trkpt lat="47.3057620" lon="6.8355950">
        <ele>750.4</ele>
        <time>2022-07-20T18:34:12Z</time>
      </trkpt>
      <trkpt lat="47.3057480" lon="6.8355910">
        <ele>750.4</ele>
        <time>2022-07-20T18:34:13Z</time>
      </trkpt>
      <trkpt lat="47.3057420" lon="6.8355880">
        <ele>750.4</ele>
        <time>2022-07-20T18:34:14Z</time>
      </trkpt>
      <trkpt lat="47.3057400" lon="6.8355880">
        <ele>750.4</ele>
        <time>2022-07-20T18:34:15Z</time>
      </trkpt>
      <trkpt lat="47.3057410" lon="6.8355880">
        <ele>750.4</ele>
        <time>2022-07-20T18:34:16Z</time>
      </trkpt>
      <trkpt lat="47.3057450" lon="6.8355870">
        <ele>750.4</ele>
        <time>2022-07-20T18:34:17Z</time>
      </trkpt>
      <trkpt lat="47.3057500" lon="6.8355860">
        <ele>750.4</ele>
        <time>2022-07-20T18:34:18Z</time>
      </trkpt>
      <trkpt lat="47.3057540" lon="6.8355840">
        <ele>750.4</ele>
        <time>2022-07-20T18:34:19Z</time>
      </trkpt>
      <trkpt lat="47.3057570" lon="6.8355840">
        <ele>750.4</ele>
        <time>2022-07-20T18:34:20Z</time>
      </trkpt>
      <trkpt lat="47.3057590" lon="6.8355830">
        <ele>750.4</ele>
        <time>2022-07-20T18:34:21Z</time>
      </trkpt>
      <trkpt lat="47.3057620" lon="6.8355810">
        <ele>750.4</ele>
        <time>2022-07-20T18:34:22Z</time>
      </trkpt>
      <trkpt lat="47.3057640" lon="6.8355800">
        <ele>750.4</ele>
        <time>2022-07-20T18:34:23Z</time>
      </trkpt>
      <trkpt lat="47.3057650" lon="6.8355780">
        <ele>750.4</ele>
        <time>2022-07-20T18:34:24Z</time>
      </trkpt>
      <trkpt lat="47.3057660" lon="6.8355780">
        <ele>750.4</ele>
        <time>2022-07-20T18:34:25Z</time>
      </trkpt>
      <trkpt lat="47.3057630" lon="6.8355770">
        <ele>750.4</ele>
        <time>2022-07-20T18:34:26Z</time>
      </trkpt>
      <trkpt lat="47.3057600" lon="6.8355750">
        <ele>750.4</ele>
        <time>2022-07-20T18:34:27Z</time>
      </trkpt>
      <trkpt lat="47.3057580" lon="6.8355730">
        <ele>750.4</ele>
        <time>2022-07-20T18:34:28Z</time>
      </trkpt>
      <trkpt lat="47.3057560" lon="6.8355720">
        <ele>750.4</ele>
        <time>2022-07-20T18:34:29Z</time>
      </trkpt>
      <trkpt lat="47.3057510" lon="6.8355710">
        <ele>750.4</ele>
        <time>2022-07-20T18:34:30Z</time>
      </trkpt>
      <trkpt lat="47.3057510" lon="6.8355770">
        <ele>750.4</ele>
        <time>2022-07-20T18:36:03Z</time>
      </trkpt>
      <trkpt lat="47.3057600" lon="6.8355770">
        <ele>750.4</ele>
        <time>2022-07-20T18:36:04Z</time>
      </trkpt>
      <trkpt lat="47.3057650" lon="6.8355770">
        <ele>750.4</ele>
        <time>2022-07-20T18:36:05Z</time>
      </trkpt>
      <trkpt lat="47.3057690" lon="6.8355770">
        <ele>750.4</ele>
        <time>2022-07-20T18:36:06Z</time>
      </trkpt>
      <trkpt lat="47.3057700" lon="6.8355770">
        <ele>750.4</ele>
        <time>2022-07-20T18:36:07Z</time>
      </trkpt>
      <trkpt lat="47.3057740" lon="6.8355760">
        <ele>750.4</ele>
        <time>2022-07-20T18:36:08Z</time>
      </trkpt>
      <trkpt lat="47.3057790" lon="6.8355750">
        <ele>750.4</ele>
        <time>2022-07-20T18:36:09Z</time>
      </trkpt>
      <trkpt lat="47.3057840" lon="6.8355810">
        <ele>750.4</ele>
        <time>2022-07-20T18:36:10Z</time>
      </trkpt>
      <trkpt lat="47.3057880" lon="6.8355860">
        <ele>750.4</ele>
        <time>2022-07-20T18:36:11Z</time>
      </trkpt>
      <trkpt lat="47.3057930" lon="6.8355860">
        <ele>750.4</ele>
        <time>2022-07-20T18:36:12Z</time>
      </trkpt>
      <trkpt lat="47.3057920" lon="6.8355820">
        <ele>750.4</ele>
        <time>2022-07-20T18:36:13Z</time>
      </trkpt>
      <trkpt lat="47.3057900" lon="6.8355800">
        <ele>750.4</ele>
        <time>2022-07-20T18:36:14Z</time>
      </trkpt>
      <trkpt lat="47.3057860" lon="6.8355780">
        <ele>750.4</ele>
        <time>2022-07-20T18:36:15Z</time>
      </trkpt>
      <trkpt lat="47.3057840" lon="6.8355780">
        <ele>750.4</ele>
        <time>2022-07-20T18:36:16Z</time>
      </trkpt>
      <trkpt lat="47.3057850" lon="6.8355770">
        <ele>750.4</ele>
        <time>2022-07-20T18:36:17Z</time>
      </trkpt>
      <trkpt lat="47.3057840" lon="6.8355760">
        <ele>750.4</ele>
        <time>2022-07-20T18:36:18Z</time>
      </trkpt>
      <trkpt lat="47.3057760" lon="6.8355740">
        <ele>750.4</ele>
        <time>2022-07-20T18:36:19Z</time>
      </trkpt>
      <trkpt lat="47.3057660" lon="6.8355730">
        <ele>750.4</ele>
        <time>2022-07-20T18:36:20Z</time>
      </trkpt>
      <trkpt lat="47.3057580" lon="6.8355710">
        <ele>750.4</ele>
        <time>2022-07-20T18:36:21Z</time>
      </trkpt>
      <trkpt lat="47.3057550" lon="6.8355690">
        <ele>750.4</ele>
        <time>2022-07-20T18:36:22Z</time>
      </trkpt>
      <trkpt lat="47.3057540" lon="6.8355680">
        <ele>750.5</ele>
        <time>2022-07-20T18:36:23Z</time>
      </trkpt>
      <trkpt lat="47.3057540" lon="6.8355670">
        <ele>750.5</ele>
        <time>2022-07-20T18:36:24Z</time>
      </trkpt>
      <trkpt lat="47.3057500" lon="6.8355670">
        <ele>750.5</ele>
        <time>2022-07-20T18:36:25Z</time>
      </trkpt>
      <trkpt lat="47.3057400" lon="6.8355620">
        <ele>750.5</ele>
        <time>2022-07-20T18:36:26Z</time>
      </trkpt>
      <trkpt lat="47.3057310" lon="6.8355550">
        <ele>750.5</ele>
        <time>2022-07-20T18:36:27Z</time>
      </trkpt>
      <trkpt lat="47.3057250" lon="6.8355500">
        <ele>750.5</ele>
        <time>2022-07-20T18:36:28Z</time>
      </trkpt>
      <trkpt lat="47.3057190" lon="6.8355470">
        <ele>750.5</ele>
        <time>2022-07-20T18:36:29Z</time>
      </trkpt>
      <trkpt lat="47.3057150" lon="6.8355460">
        <ele>750.5</ele>
        <time>2022-07-20T18:36:30Z</time>
      </trkpt>
      <trkpt lat="47.3057130" lon="6.8355480">
        <ele>750.5</ele>
        <time>2022-07-20T18:36:31Z</time>
      </trkpt>
      <trkpt lat="47.3057120" lon="6.8355480">
        <ele>750.5</ele>
        <time>2022-07-20T18:36:32Z</time>
      </trkpt>
      <trkpt lat="47.3057110" lon="6.8355480">
        <ele>750.5</ele>
        <time>2022-07-20T18:36:33Z</time>
      </trkpt>
      <trkpt lat="47.3057100" lon="6.8355470">
        <ele>750.5</ele>
        <time>2022-07-20T18:36:34Z</time>
      </trkpt>
      <trkpt lat="47.3057100" lon="6.8355450">
        <ele>750.5</ele>
        <time>2022-07-20T18:36:35Z</time>
      </trkpt>
      <trkpt lat="47.3057110" lon="6.8355450">
        <ele>750.5</ele>
        <time>2022-07-20T18:36:36Z</time>
      </trkpt>
      <trkpt lat="47.3057090" lon="6.8355450">
        <ele>750.5</ele>
        <time>2022-07-20T18:36:37Z</time>
      </trkpt>
      <trkpt lat="47.3057060" lon="6.8355450">
        <ele>750.5</ele>
        <time>2022-07-20T18:36:38Z</time>
      </trkpt>
      <trkpt lat="47.3057050" lon="6.8355460">
        <ele>750.5</ele>
        <time>2022-07-20T18:36:39Z</time>
      </trkpt>
      <trkpt lat="47.3057040" lon="6.8355460">
        <ele>750.5</ele>
        <time>2022-07-20T18:36:40Z</time>
      </trkpt>
      <trkpt lat="47.3057040" lon="6.8355460">
        <ele>750.5</ele>
        <time>2022-07-20T18:36:41Z</time>
      </trkpt>
      <trkpt lat="47.3057540" lon="6.8355410">
        <ele>750.5</ele>
        <time>2022-07-20T18:37:00Z</time>
      </trkpt>
      <trkpt lat="47.3057540" lon="6.8355380">
        <ele>750.5</ele>
        <time>2022-07-20T18:37:01Z</time>
      </trkpt>
      <trkpt lat="47.3057530" lon="6.8355320">
        <ele>750.5</ele>
        <time>2022-07-20T18:37:02Z</time>
      </trkpt>
      <trkpt lat="47.3057510" lon="6.8355260">
        <ele>750.5</ele>
        <time>2022-07-20T18:37:03Z</time>
      </trkpt>
      <trkpt lat="47.3057500" lon="6.8355230">
        <ele>750.5</ele>
        <time>2022-07-20T18:37:04Z</time>
      </trkpt>
      <trkpt lat="47.3057500" lon="6.8355230">
        <ele>750.5</ele>
        <time>2022-07-20T18:37:05Z</time>
      </trkpt>
      <trkpt lat="47.3057530" lon="6.8355240">
        <ele>750.5</ele>
        <time>2022-07-20T18:37:06Z</time>
      </trkpt>
      <trkpt lat="47.3057520" lon="6.8355250">
        <ele>750.5</ele>
        <time>2022-07-20T18:37:07Z</time>
      </trkpt>
      <trkpt lat="47.3057520" lon="6.8355260">
        <ele>750.5</ele>
        <time>2022-07-20T18:37:08Z</time>
      </trkpt>
      <trkpt lat="47.3057490" lon="6.8355260">
        <ele>750.5</ele>
        <time>2022-07-20T18:37:09Z</time>
      </trkpt>
      <trkpt lat="47.3057460" lon="6.8355280">
        <ele>750.5</ele>
        <time>2022-07-20T18:37:10Z</time>
      </trkpt>
      <trkpt lat="47.3057430" lon="6.8355290">
        <ele>750.5</ele>
        <time>2022-07-20T18:37:11Z</time>
      </trkpt>
      <trkpt lat="47.3057410" lon="6.8355290">
        <ele>750.6</ele>
        <time>2022-07-20T18:37:12Z</time>
      </trkpt>
      <trkpt lat="47.3057400" lon="6.8355300">
        <ele>750.6</ele>
        <time>2022-07-20T18:37:13Z</time>
      </trkpt>
      <trkpt lat="47.3057250" lon="6.8355570">
        <ele>750.6</ele>
        <time>2022-07-20T18:37:31Z</time>
      </trkpt>
      <trkpt lat="47.3057180" lon="6.8355600">
        <ele>750.6</ele>
        <time>2022-07-20T18:37:32Z</time>
      </trkpt>
      <trkpt lat="47.3057140" lon="6.8355630">
        <ele>750.6</ele>
        <time>2022-07-20T18:37:33Z</time>
      </trkpt>
      <trkpt lat="47.3057100" lon="6.8355660">
        <ele>750.6</ele>
        <time>2022-07-20T18:37:34Z</time>
      </trkpt>
      <trkpt lat="47.3057070" lon="6.8355670">
        <ele>750.6</ele>
        <time>2022-07-20T18:37:35Z</time>
      </trkpt>
      <trkpt lat="47.3057030" lon="6.8355700">
        <ele>750.6</ele>
        <time>2022-07-20T18:37:36Z</time>
      </trkpt>
      <trkpt lat="47.3057010" lon="6.8355720">
        <ele>750.6</ele>
        <time>2022-07-20T18:37:37Z</time>
      </trkpt>
      <trkpt lat="47.3057000" lon="6.8355740">
        <ele>750.6</ele>
        <time>2022-07-20T18:37:38Z</time>
      </trkpt>
      <trkpt lat="47.3057000" lon="6.8355750">
        <ele>750.6</ele>
        <time>2022-07-20T18:37:39Z</time>
      </trkpt>
      <trkpt lat="47.3057010" lon="6.8355750">
        <ele>750.6</ele>
        <time>2022-07-20T18:37:40Z</time>
      </trkpt>
      <trkpt lat="47.3057010" lon="6.8355770">
        <ele>750.6</ele>
        <time>2022-07-20T18:37:41Z</time>
      </trkpt>
      <trkpt lat="47.3057020" lon="6.8355810">
        <ele>750.6</ele>
        <time>2022-07-20T18:37:42Z</time>
      </trkpt>
      <trkpt lat="47.3057030" lon="6.8355800">
        <ele>750.6</ele>
        <time>2022-07-20T18:37:43Z</time>
      </trkpt>
      <trkpt lat="47.3057020" lon="6.8355790">
        <ele>750.6</ele>
        <time>2022-07-20T18:37:44Z</time>
      </trkpt>
      <trkpt lat="47.3057020" lon="6.8355800">
        <ele>750.6</ele>
        <time>2022-07-20T18:37:45Z</time>
      </trkpt>
      <trkpt lat="47.3057020" lon="6.8355820">
        <ele>750.6</ele>
        <time>2022-07-20T18:37:46Z</time>
      </trkpt>
      <trkpt lat="47.3057030" lon="6.8355840">
        <ele>750.6</ele>
        <time>2022-07-20T18:37:47Z</time>
      </trkpt>
      <trkpt lat="47.3057030" lon="6.8355850">
        <ele>750.6</ele>
        <time>2022-07-20T18:37:48Z</time>
      </trkpt>
      <trkpt lat="47.3057040" lon="6.8355840">
        <ele>750.6</ele>
        <time>2022-07-20T18:37:49Z</time>
      </trkpt>
      <trkpt lat="47.3057060" lon="6.8355840">
        <ele>750.6</ele>
        <time>2022-07-20T18:37:50Z</time>
      </trkpt>
      <trkpt lat="47.3057090" lon="6.8355840">
        <ele>750.6</ele>
        <time>2022-07-20T18:37:51Z</time>
      </trkpt>
      <trkpt lat="47.3057270" lon="6.8355830">
        <ele>750.6</ele>
        <time>2022-07-20T18:37:57Z</time>
      </trkpt>
      <trkpt lat="47.3057310" lon="6.8355820">
        <ele>750.6</ele>
        <time>2022-07-20T18:37:58Z</time>
      </trkpt>
      <trkpt lat="47.3057370" lon="6.8355820">
        <ele>750.6</ele>
        <time>2022-07-20T18:37:59Z</time>
      </trkpt>
      <trkpt lat="47.3057380" lon="6.8355800">
        <ele>750.6</ele>
        <time>2022-07-20T18:38:00Z</time>
      </trkpt>
      <trkpt lat="47.3057370" lon="6.8355780">
        <ele>750.6</ele>
        <time>2022-07-20T18:38:01Z</time>
      </trkpt>
      <trkpt lat="47.3057380" lon="6.8355750">
        <ele>750.6</ele>
        <time>2022-07-20T18:38:02Z</time>
      </trkpt>
      <trkpt lat="47.3057380" lon="6.8355730">
        <ele>750.6</ele>
        <time>2022-07-20T18:38:03Z</time>
      </trkpt>
      <trkpt lat="47.3057380" lon="6.8355710">
        <ele>750.6</ele>
        <time>2022-07-20T18:38:04Z</time>
      </trkpt>
      <trkpt lat="47.3057380" lon="6.8355690">
        <ele>750.6</ele>
        <time>2022-07-20T18:38:05Z</time>
      </trkpt>
      <trkpt lat="47.3057380" lon="6.8355690">
        <ele>750.6</ele>
        <time>2022-07-20T18:38:06Z</time>
      </trkpt>
      <trkpt lat="47.3057380" lon="6.8355680">
        <ele>750.6</ele>
        <time>2022-07-20T18:38:07Z</time>
      </trkpt>
      <trkpt lat="47.3057380" lon="6.8355680">
        <ele>750.6</ele>
        <time>2022-07-20T18:38:08Z</time>
      </trkpt>
      <trkpt lat="47.3057380" lon="6.8355680">
        <ele>750.6</ele>
        <time>2022-07-20T18:38:09Z</time>
      </trkpt>
      <trkpt lat="47.3057540" lon="6.8355940">
        <ele>750.6</ele>
        <time>2022-07-20T18:38:34Z</time>
      </trkpt>
      <trkpt lat="47.3057550" lon="6.8355950">
        <ele>750.7</ele>
        <time>2022-07-20T18:38:35Z</time>
      </trkpt>
      <trkpt lat="47.3057560" lon="6.8355950">
        <ele>750.7</ele>
        <time>2022-07-20T18:38:36Z</time>
      </trkpt>
      <trkpt lat="47.3057560" lon="6.8355950">
        <ele>750.7</ele>
        <time>2022-07-20T18:38:37Z</time>
      </trkpt>
      <trkpt lat="47.3057560" lon="6.8355950">
        <ele>750.7</ele>
        <time>2022-07-20T18:38:38Z</time>
      </trkpt>
      <trkpt lat="47.3057570" lon="6.8355950">
        <ele>750.7</ele>
        <time>2022-07-20T18:38:39Z</time>
      </trkpt>
      <trkpt lat="47.3057570" lon="6.8355960">
        <ele>750.7</ele>
        <time>2022-07-20T18:38:40Z</time>
      </trkpt>
      <trkpt lat="47.3057570" lon="6.8355960">
        <ele>750.7</ele>
        <time>2022-07-20T18:38:41Z</time>
      </trkpt>
      <trkpt lat="47.3057570" lon="6.8355960">
        <ele>750.7</ele>
        <time>2022-07-20T18:38:42Z</time>
      </trkpt>
      <trkpt lat="47.3057570" lon="6.8355960">
        <ele>750.7</ele>
        <time>2022-07-20T18:38:43Z</time>
      </trkpt>
      <trkpt lat="47.3057570" lon="6.8355960">
        <ele>750.7</ele>
        <time>2022-07-20T18:38:44Z</time>
      </trkpt>
      <trkpt lat="47.3057570" lon="6.8355960">
        <ele>750.7</ele>
        <time>2022-07-20T18:38:45Z</time>
      </trkpt>
      <trkpt lat="47.3057570" lon="6.8355960">
        <ele>750.7</ele>
        <time>2022-07-20T18:38:46Z</time>
      </trkpt>
      <trkpt lat="47.3057570" lon="6.8355960">
        <ele>750.7</ele>
        <time>2022-07-20T18:38:47Z</time>
      </trkpt>
      <trkpt lat="47.3057570" lon="6.8355960">
        <ele>750.7</ele>
        <time>2022-07-20T18:38:48Z</time>
      </trkpt>
      <trkpt lat="47.3057570" lon="6.8355960">
        <ele>750.7</ele>
        <time>2022-07-20T18:38:49Z</time>
      </trkpt>
      <trkpt lat="47.3057570" lon="6.8355960">
        <ele>750.7</ele>
        <time>2022-07-20T18:38:50Z</time>
      </trkpt>
      <trkpt lat="47.3057600" lon="6.8355970">
        <ele>750.7</ele>
        <time>2022-07-20T18:38:51Z</time>
      </trkpt>
      <trkpt lat="47.3057620" lon="6.8355980">
        <ele>750.7</ele>
        <time>2022-07-20T18:38:52Z</time>
      </trkpt>
      <trkpt lat="47.3057620" lon="6.8355980">
        <ele>750.7</ele>
        <time>2022-07-20T18:38:53Z</time>
      </trkpt>
      <trkpt lat="47.3057620" lon="6.8355960">
        <ele>750.7</ele>
        <time>2022-07-20T18:38:54Z</time>
      </trkpt>
      <trkpt lat="47.3057620" lon="6.8355960">
        <ele>750.7</ele>
        <time>2022-07-20T18:38:55Z</time>
      </trkpt>
      <trkpt lat="47.3057620" lon="6.8355970">
        <ele>750.7</ele>
        <time>2022-07-20T18:38:56Z</time>
      </trkpt>
      <trkpt lat="47.3057600" lon="6.8355980">
        <ele>750.7</ele>
        <time>2022-07-20T18:38:57Z</time>
      </trkpt>
      <trkpt lat="47.3057570" lon="6.8356010">
        <ele>750.7</ele>
        <time>2022-07-20T18:38:58Z</time>
      </trkpt>
      <trkpt lat="47.3057580" lon="6.8356010">
        <ele>750.7</ele>
        <time>2022-07-20T18:38:59Z</time>
      </trkpt>
      <trkpt lat="47.3057590" lon="6.8356020">
        <ele>750.7</ele>
        <time>2022-07-20T18:39:00Z</time>
      </trkpt>
      <trkpt lat="47.3057620" lon="6.8356010">
        <ele>750.7</ele>
        <time>2022-07-20T18:39:01Z</time>
      </trkpt>
      <trkpt lat="47.3057650" lon="6.8356000">
        <ele>750.7</ele>
        <time>2022-07-20T18:39:02Z</time>
      </trkpt>
      <trkpt lat="47.3057650" lon="6.8356040">
        <ele>750.7</ele>
        <time>2022-07-20T18:39:03Z</time>
      </trkpt>
      <trkpt lat="47.3057670" lon="6.8356060">
        <ele>750.7</ele>
        <time>2022-07-20T18:39:04Z</time>
      </trkpt>
      <trkpt lat="47.3057680" lon="6.8356080">
        <ele>750.7</ele>
        <time>2022-07-20T18:39:05Z</time>
      </trkpt>
      <trkpt lat="47.3057710" lon="6.8356070">
        <ele>750.7</ele>
        <time>2022-07-20T18:39:06Z</time>
      </trkpt>
      <trkpt lat="47.3057720" lon="6.8356070">
        <ele>750.7</ele>
        <time>2022-07-20T18:39:07Z</time>
      </trkpt>
      <trkpt lat="47.3057740" lon="6.8356090">
        <ele>750.7</ele>
        <time>2022-07-20T18:39:08Z</time>
      </trkpt>
      <trkpt lat="47.3057750" lon="6.8356090">
        <ele>750.7</ele>
        <time>2022-07-20T18:39:09Z</time>
      </trkpt>
      <trkpt lat="47.3057760" lon="6.8356060">
        <ele>750.7</ele>
        <time>2022-07-20T18:39:10Z</time>
      </trkpt>
      <trkpt lat="47.3057740" lon="6.8356060">
        <ele>750.7</ele>
        <time>2022-07-20T18:39:11Z</time>
      </trkpt>
      <trkpt lat="47.3057740" lon="6.8356050">
        <ele>750.7</ele>
        <time>2022-07-20T18:39:12Z</time>
      </trkpt>
      <trkpt lat="47.3057750" lon="6.8356020">
        <ele>750.7</ele>
        <time>2022-07-20T18:39:13Z</time>
      </trkpt>
      <trkpt lat="47.3057780" lon="6.8355970">
        <ele>750.7</ele>
        <time>2022-07-20T18:39:14Z</time>
      </trkpt>
      <trkpt lat="47.3057830" lon="6.8355910">
        <ele>750.7</ele>
        <time>2022-07-20T18:39:15Z</time>
      </trkpt>
      <trkpt lat="47.3057850" lon="6.8355900">
        <ele>750.7</ele>
        <time>2022-07-20T18:39:16Z</time>
      </trkpt>
      <trkpt lat="47.3057840" lon="6.8355930">
        <ele>750.7</ele>
        <time>2022-07-20T18:39:17Z</time>
      </trkpt>
      <trkpt lat="47.3057830" lon="6.8355960">
        <ele>750.7</ele>
        <time>2022-07-20T18:39:18Z</time>
      </trkpt>
      <trkpt lat="47.3057810" lon="6.8355990">
        <ele>750.7</ele>
        <time>2022-07-20T18:39:19Z</time>
      </trkpt>
      <trkpt lat="47.3057800" lon="6.8356020">
        <ele>750.7</ele>
        <time>2022-07-20T18:39:20Z</time>
      </trkpt>
      <trkpt lat="47.3057780" lon="6.8356040">
        <ele>750.7</ele>
        <time>2022-07-20T18:39:21Z</time>
      </trkpt>
      <trkpt lat="47.3057770" lon="6.8356070">
        <ele>750.7</ele>
        <time>2022-07-20T18:39:22Z</time>
      </trkpt>
      <trkpt lat="47.3057750" lon="6.8356100">
        <ele>750.7</ele>
        <time>2022-07-20T18:39:23Z</time>
      </trkpt>
      <trkpt lat="47.3057740" lon="6.8356130">
        <ele>750.7</ele>
        <time>2022-07-20T18:39:24Z</time>
      </trkpt>
      <trkpt lat="47.3057730" lon="6.8356160">
        <ele>750.7</ele>
        <time>2022-07-20T18:39:25Z</time>
      </trkpt>
      <trkpt lat="47.3057710" lon="6.8356190">
        <ele>750.7</ele>
        <time>2022-07-20T18:39:26Z</time>
      </trkpt>
      <trkpt lat="47.3057700" lon="6.8356220">
        <ele>750.7</ele>
        <time>2022-07-20T18:39:28Z</time>
      </trkpt>
      <trkpt lat="47.3057680" lon="6.8356250">
        <ele>750.7</ele>
        <time>2022-07-20T18:39:29Z</time>
      </trkpt>
      <trkpt lat="47.3057670" lon="6.8356280">
        <ele>750.7</ele>
        <time>2022-07-20T18:39:30Z</time>
      </trkpt>
      <trkpt lat="47.3057650" lon="6.8356310">
        <ele>750.7</ele>
        <time>2022-07-20T18:39:31Z</time>
      </trkpt>
      <trkpt lat="47.3057640" lon="6.8356340">
        <ele>750.7</ele>
        <time>2022-07-20T18:39:32Z</time>
      </trkpt>
      <trkpt lat="47.3057630" lon="6.8356360">
        <ele>750.7</ele>
        <time>2022-07-20T18:39:33Z</time>
      </trkpt>
      <trkpt lat="47.3057610" lon="6.8356390">
        <ele>750.7</ele>
        <time>2022-07-20T18:39:34Z</time>
      </trkpt>
      <trkpt lat="47.3057600" lon="6.8356420">
        <ele>750.7</ele>
        <time>2022-07-20T18:39:35Z</time>
      </trkpt>
      <trkpt lat="47.3057580" lon="6.8356450">
        <ele>750.7</ele>
        <time>2022-07-20T18:39:36Z</time>
      </trkpt>
      <trkpt lat="47.3057570" lon="6.8356480">
        <ele>750.7</ele>
        <time>2022-07-20T18:39:37Z</time>
      </trkpt>
      <trkpt lat="47.3057550" lon="6.8356510">
        <ele>750.7</ele>
        <time>2022-07-20T18:39:38Z</time>
      </trkpt>
      <trkpt lat="47.3057540" lon="6.8356540">
        <ele>750.7</ele>
        <time>2022-07-20T18:39:39Z</time>
      </trkpt>
      <trkpt lat="47.3057530" lon="6.8356570">
        <ele>750.7</ele>
        <time>2022-07-20T18:42:33Z</time>
      </trkpt>
      <trkpt lat="47.3057510" lon="6.8356600">
        <ele>750.7</ele>
        <time>2022-07-20T18:42:34Z</time>
      </trkpt>
      <trkpt lat="47.3057500" lon="6.8356630">
        <ele>750.7</ele>
        <time>2022-07-20T18:42:35Z</time>
      </trkpt>
      <trkpt lat="47.3057520" lon="6.8356870">
        <ele>750.8</ele>
        <time>2022-07-20T18:42:36Z</time>
      </trkpt>
      <trkpt lat="47.3057560" lon="6.8357040">
        <ele>750.8</ele>
        <time>2022-07-20T18:42:37Z</time>
      </trkpt>
      <trkpt lat="47.3057560" lon="6.8357030">
        <ele>750.8</ele>
        <time>2022-07-20T18:42:38Z</time>
      </trkpt>
      <trkpt lat="47.3057570" lon="6.8356940">
        <ele>750.8</ele>
        <time>2022-07-20T18:42:39Z</time>
      </trkpt>
      <trkpt lat="47.3057580" lon="6.8356850">
        <ele>750.8</ele>
        <time>2022-07-20T18:42:40Z</time>
      </trkpt>
      <trkpt lat="47.3057590" lon="6.8356760">
        <ele>750.8</ele>
        <time>2022-07-20T18:42:41Z</time>
      </trkpt>
      <trkpt lat="47.3057600" lon="6.8356670">
        <ele>750.8</ele>
        <time>2022-07-20T18:42:42Z</time>
      </trkpt>
      <trkpt lat="47.3057610" lon="6.8356580">
        <ele>750.8</ele>
        <time>2022-07-20T18:42:43Z</time>
      </trkpt>
      <trkpt lat="47.3057620" lon="6.8356490">
        <ele>750.8</ele>
        <time>2022-07-20T18:42:44Z</time>
      </trkpt>
      <trkpt lat="47.3057730" lon="6.8355830">
        <ele>750.8</ele>
        <time>2022-07-20T18:42:45Z</time>
      </trkpt>
      <trkpt lat="47.3057820" lon="6.8355200">
        <ele>750.9</ele>
        <time>2022-07-20T18:42:46Z</time>
      </trkpt>
      <trkpt lat="47.3057860" lon="6.8354780">
        <ele>750.9</ele>
        <time>2022-07-20T18:42:47Z</time>
      </trkpt>
      <trkpt lat="47.3057850" lon="6.8354610">
        <ele>750.9</ele>
        <time>2022-07-20T18:42:48Z</time>
      </trkpt>
      <trkpt lat="47.3057820" lon="6.8354570">
        <ele>750.9</ele>
        <time>2022-07-20T18:42:49Z</time>
      </trkpt>
      <trkpt lat="47.3057760" lon="6.8354610">
        <ele>750.9</ele>
        <time>2022-07-20T18:42:50Z</time>
      </trkpt>
      <trkpt lat="47.3057680" lon="6.8354680">
        <ele>750.9</ele>
        <time>2022-07-20T18:42:51Z</time>
      </trkpt>
      <trkpt lat="47.3057600" lon="6.8354750">
        <ele>750.9</ele>
        <time>2022-07-20T18:42:52Z</time>
      </trkpt>
      <trkpt lat="47.3057550" lon="6.8354800">
        <ele>750.9</ele>
        <time>2022-07-20T18:42:53Z</time>
      </trkpt>
      <trkpt lat="47.3057500" lon="6.8354840">
        <ele>750.9</ele>
        <time>2022-07-20T18:42:54Z</time>
      </trkpt>
      <trkpt lat="47.3057480" lon="6.8354860">
        <ele>750.9</ele>
        <time>2022-07-20T18:42:55Z</time>
      </trkpt>
      <trkpt lat="47.3057470" lon="6.8354870">
        <ele>750.9</ele>
        <time>2022-07-20T18:42:56Z</time>
      </trkpt>
      <trkpt lat="47.3057480" lon="6.8354860">
        <ele>750.9</ele>
        <time>2022-07-20T18:42:57Z</time>
      </trkpt>
      <trkpt lat="47.3057480" lon="6.8354860">
        <ele>750.9</ele>
        <time>2022-07-20T18:42:58Z</time>
      </trkpt>
      <trkpt lat="47.3057490" lon="6.8354840">
        <ele>750.9</ele>
        <time>2022-07-20T18:42:59Z</time>
      </trkpt>
      <trkpt lat="47.3057490" lon="6.8354830">
        <ele>750.9</ele>
        <time>2022-07-20T18:43:00Z</time>
      </trkpt>
      <trkpt lat="47.3057490" lon="6.8354830">
        <ele>750.9</ele>
        <time>2022-07-20T18:43:01Z</time>
      </trkpt>
      <trkpt lat="47.3057490" lon="6.8354820">
        <ele>750.9</ele>
        <time>2022-07-20T18:43:02Z</time>
      </trkpt>
      <trkpt lat="47.3057490" lon="6.8354820">
        <ele>750.9</ele>
        <time>2022-07-20T18:43:03Z</time>
      </trkpt>
      <trkpt lat="47.3057490" lon="6.8354820">
        <ele>750.9</ele>
        <time>2022-07-20T18:43:04Z</time>
      </trkpt>
      <trkpt lat="47.3057490" lon="6.8354860">
        <ele>750.9</ele>
        <time>2022-07-20T18:43:05Z</time>
      </trkpt>
      <trkpt lat="47.3057490" lon="6.8354890">
        <ele>750.9</ele>
        <time>2022-07-20T18:43:06Z</time>
      </trkpt>
      <trkpt lat="47.3057420" lon="6.8355330">
        <ele>751.0</ele>
        <time>2022-07-20T18:43:12Z</time>
      </trkpt>
      <trkpt lat="47.3057350" lon="6.8355540">
        <ele>751.0</ele>
        <time>2022-07-20T18:43:13Z</time>
      </trkpt>
      <trkpt lat="47.3057280" lon="6.8355720">
        <ele>751.0</ele>
        <time>2022-07-20T18:43:14Z</time>
      </trkpt>
      <trkpt lat="47.3057230" lon="6.8355800">
        <ele>751.0</ele>
        <time>2022-07-20T18:43:15Z</time>
      </trkpt>
      <trkpt lat="47.3057210" lon="6.8355810">
        <ele>751.0</ele>
        <time>2022-07-20T18:43:16Z</time>
      </trkpt>
      <trkpt lat="47.3057190" lon="6.8355850">
        <ele>751.0</ele>
        <time>2022-07-20T18:43:17Z</time>
      </trkpt>
      <trkpt lat="47.3057190" lon="6.8355880">
        <ele>751.0</ele>
        <time>2022-07-20T18:43:18Z</time>
      </trkpt>
      <trkpt lat="47.3057180" lon="6.8355890">
        <ele>751.0</ele>
        <time>2022-07-20T18:43:19Z</time>
      </trkpt>
      <trkpt lat="47.3057200" lon="6.8355870">
        <ele>751.0</ele>
        <time>2022-07-20T18:43:20Z</time>
      </trkpt>
      <trkpt lat="47.3057200" lon="6.8355860">
        <ele>751.0</ele>
        <time>2022-07-20T18:43:21Z</time>
      </trkpt>
      <trkpt lat="47.3057200" lon="6.8355870">
        <ele>751.0</ele>
        <time>2022-07-20T18:43:22Z</time>
      </trkpt>
      <trkpt lat="47.3057210" lon="6.8355880">
        <ele>751.0</ele>
        <time>2022-07-20T18:43:23Z</time>
      </trkpt>
      <trkpt lat="47.3057210" lon="6.8355890">
        <ele>751.0</ele>
        <time>2022-07-20T18:43:24Z</time>
      </trkpt>
      <trkpt lat="47.3057210" lon="6.8355900">
        <ele>751.0</ele>
        <time>2022-07-20T18:43:25Z</time>
      </trkpt>
      <trkpt lat="47.3057220" lon="6.8355910">
        <ele>751.0</ele>
        <time>2022-07-20T18:43:26Z</time>
      </trkpt>
      <trkpt lat="47.3057200" lon="6.8355930">
        <ele>751.0</ele>
        <time>2022-07-20T18:43:27Z</time>
      </trkpt>
      <trkpt lat="47.3057190" lon="6.8355940">
        <ele>751.0</ele>
        <time>2022-07-20T18:43:28Z</time>
      </trkpt>
      <trkpt lat="47.3057190" lon="6.8355930">
        <ele>751.0</ele>
        <time>2022-07-20T18:43:29Z</time>
      </trkpt>
      <trkpt lat="47.3057190" lon="6.8355920">
        <ele>751.0</ele>
        <time>2022-07-20T18:43:30Z</time>
      </trkpt>
      <trkpt lat="47.3056120" lon="6.8356370">
        <ele>751.4</ele>
        <time>2022-07-21T06:45:29Z</time>
      </trkpt>
      <trkpt lat="47.3056730" lon="6.8355600">
        <ele>751.5</ele>
        <time>2022-07-21T06:45:30Z</time>
      </trkpt>
      <trkpt lat="47.3056800" lon="6.8355540">
        <ele>751.6</ele>
        <time>2022-07-21T06:45:31Z</time>
      </trkpt>
      <trkpt lat="47.3056870" lon="6.8355420">
        <ele>751.6</ele>
        <time>2022-07-21T06:45:32Z</time>
      </trkpt>
      <trkpt lat="47.3056860" lon="6.8355390">
        <ele>751.6</ele>
        <time>2022-07-21T06:45:33Z</time>
      </trkpt>
      <trkpt lat="47.3056810" lon="6.8355440">
        <ele>751.6</ele>
        <time>2022-07-21T06:45:34Z</time>
      </trkpt>
      <trkpt lat="47.3056740" lon="6.8355490">
        <ele>751.6</ele>
        <time>2022-07-21T06:45:35Z</time>
      </trkpt>
      <trkpt lat="47.3056680" lon="6.8355560">
        <ele>751.6</ele>
        <time>2022-07-21T06:45:36Z</time>
      </trkpt>
      <trkpt lat="47.3056660" lon="6.8355590">
        <ele>751.6</ele>
        <time>2022-07-21T06:45:37Z</time>
      </trkpt>
      <trkpt lat="47.3056660" lon="6.8355590">
        <ele>751.6</ele>
        <time>2022-07-21T06:45:38Z</time>
      </trkpt>
      <trkpt lat="47.3056650" lon="6.8355610">
        <ele>751.6</ele>
        <time>2022-07-21T06:45:39Z</time>
      </trkpt>
      <trkpt lat="47.3056640" lon="6.8355640">
        <ele>751.6</ele>
        <time>2022-07-21T06:45:40Z</time>
      </trkpt>
      <trkpt lat="47.3056610" lon="6.8355660">
        <ele>751.6</ele>
        <time>2022-07-21T06:45:41Z</time>
      </trkpt>
      <trkpt lat="47.3056590" lon="6.8355670">
        <ele>751.6</ele>
        <time>2022-07-21T06:45:42Z</time>
      </trkpt>
      <trkpt lat="47.3056570" lon="6.8355670">
        <ele>751.6</ele>
        <time>2022-07-21T06:45:43Z</time>
      </trkpt>
      <trkpt lat="47.3056550" lon="6.8355680">
        <ele>751.6</ele>
        <time>2022-07-21T06:45:45Z</time>
      </trkpt>
      <trkpt lat="47.3056530" lon="6.8355700">
        <ele>751.6</ele>
        <time>2022-07-21T06:45:46Z</time>
      </trkpt>
      <trkpt lat="47.3056400" lon="6.8354870">
        <ele>751.7</ele>
        <time>2022-07-21T06:46:12Z</time>
      </trkpt>
      <trkpt lat="47.3056330" lon="6.8354700">
        <ele>751.7</ele>
        <time>2022-07-21T06:46:13Z</time>
      </trkpt>
      <trkpt lat="47.3056260" lon="6.8354570">
        <ele>751.8</ele>
        <time>2022-07-21T06:46:14Z</time>
      </trkpt>
      <trkpt lat="47.3056150" lon="6.8354370">
        <ele>751.8</ele>
        <time>2022-07-21T06:46:16Z</time>
      </trkpt>
      <trkpt lat="47.3056060" lon="6.8354250">
        <ele>751.8</ele>
        <time>2022-07-21T06:46:17Z</time>
      </trkpt>
      <trkpt lat="47.3055950" lon="6.8354100">
        <ele>751.8</ele>
        <time>2022-07-21T06:46:18Z</time>
      </trkpt>
      <trkpt lat="47.3055750" lon="6.8353810">
        <ele>751.9</ele>
        <time>2022-07-21T06:46:19Z</time>
      </trkpt>
      <trkpt lat="47.3055660" lon="6.8353670">
        <ele>751.9</ele>
        <time>2022-07-21T06:46:20Z</time>
      </trkpt>
      <trkpt lat="47.3055520" lon="6.8353420">
        <ele>751.9</ele>
        <time>2022-07-21T06:46:22Z</time>
      </trkpt>
      <trkpt lat="47.3055410" lon="6.8353320">
        <ele>751.9</ele>
        <time>2022-07-21T06:46:23Z</time>
      </trkpt>
      <trkpt lat="47.3055310" lon="6.8353260">
        <ele>751.9</ele>
        <time>2022-07-21T06:46:24Z</time>
      </trkpt>
      <trkpt lat="47.3055120" lon="6.8353200">
        <ele>752.0</ele>
        <time>2022-07-21T06:46:25Z</time>
      </trkpt>
      <trkpt lat="47.3054840" lon="6.8353150">
        <ele>752.0</ele>
        <time>2022-07-21T06:46:26Z</time>
      </trkpt>
      <trkpt lat="47.3054590" lon="6.8353120">
        <ele>752.0</ele>
        <time>2022-07-21T06:46:27Z</time>
      </trkpt>
      <trkpt lat="47.3054370" lon="6.8353050">
        <ele>752.1</ele>
        <time>2022-07-21T06:46:29Z</time>
      </trkpt>
      <trkpt lat="47.3054200" lon="6.8353000">
        <ele>752.1</ele>
        <time>2022-07-21T06:46:30Z</time>
      </trkpt>
      <trkpt lat="47.3054060" lon="6.8352920">
        <ele>752.1</ele>
        <time>2022-07-21T06:46:31Z</time>
      </trkpt>
      <trkpt lat="47.3053760" lon="6.8352750">
        <ele>752.2</ele>
        <time>2022-07-21T06:46:32Z</time>
      </trkpt>
      <trkpt lat="47.3053670" lon="6.8352690">
        <ele>752.2</ele>
        <time>2022-07-21T06:46:33Z</time>
      </trkpt>
      <trkpt lat="47.3053480" lon="6.8352550">
        <ele>752.2</ele>
        <time>2022-07-21T06:46:34Z</time>
      </trkpt>
      <trkpt lat="47.3053220" lon="6.8352420">
        <ele>752.2</ele>
        <time>2022-07-21T06:46:36Z</time>
      </trkpt>
      <trkpt lat="47.3053050" lon="6.8352390">
        <ele>752.3</ele>
        <time>2022-07-21T06:46:37Z</time>
      </trkpt>
      <trkpt lat="47.3052870" lon="6.8352370">
        <ele>752.3</ele>
        <time>2022-07-21T06:46:38Z</time>
      </trkpt>
      <trkpt lat="47.3052550" lon="6.8352300">
        <ele>752.3</ele>
        <time>2022-07-21T06:46:40Z</time>
      </trkpt>
      <trkpt lat="47.3052490" lon="6.8352290">
        <ele>752.3</ele>
        <time>2022-07-21T06:46:41Z</time>
      </trkpt>
      <trkpt lat="47.3052320" lon="6.8352300">
        <ele>752.3</ele>
        <time>2022-07-21T06:46:42Z</time>
      </trkpt>
      <trkpt lat="47.3052160" lon="6.8352360">
        <ele>752.4</ele>
        <time>2022-07-21T06:46:43Z</time>
      </trkpt>
      <trkpt lat="47.3051960" lon="6.8352480">
        <ele>752.4</ele>
        <time>2022-07-21T06:46:44Z</time>
      </trkpt>
      <trkpt lat="47.3051880" lon="6.8352520">
        <ele>752.4</ele>
        <time>2022-07-21T06:46:45Z</time>
      </trkpt>
      <trkpt lat="47.3051800" lon="6.8352560">
        <ele>752.4</ele>
        <time>2022-07-21T06:46:46Z</time>
      </trkpt>
      <trkpt lat="47.3051660" lon="6.8352630">
        <ele>752.4</ele>
        <time>2022-07-21T06:46:47Z</time>
      </trkpt>
      <trkpt lat="47.3051520" lon="6.8352680">
        <ele>752.4</ele>
        <time>2022-07-21T06:46:48Z</time>
      </trkpt>
      <trkpt lat="47.3051380" lon="6.8352750">
        <ele>752.4</ele>
        <time>2022-07-21T06:46:49Z</time>
      </trkpt>
      <trkpt lat="47.3051240" lon="6.8352870">
        <ele>752.5</ele>
        <time>2022-07-21T06:46:50Z</time>
      </trkpt>
      <trkpt lat="47.3050940" lon="6.8353180">
        <ele>752.5</ele>
        <time>2022-07-21T06:46:52Z</time>
      </trkpt>
      <trkpt lat="47.3050680" lon="6.8353510">
        <ele>752.5</ele>
        <time>2022-07-21T06:46:53Z</time>
      </trkpt>
      <trkpt lat="47.3050580" lon="6.8353640">
        <ele>752.5</ele>
        <time>2022-07-21T06:46:54Z</time>
      </trkpt>
      <trkpt lat="47.3050310" lon="6.8354080">
        <ele>752.4</ele>
        <time>2022-07-21T06:46:55Z</time>
      </trkpt>
      <trkpt lat="47.3050220" lon="6.8354240">
        <ele>752.4</ele>
        <time>2022-07-21T06:46:56Z</time>
      </trkpt>
      <trkpt lat="47.3050070" lon="6.8354700">
        <ele>752.4</ele>
        <time>2022-07-21T06:46:57Z</time>
      </trkpt>
      <trkpt lat="47.3049970" lon="6.8355160">
        <ele>752.3</ele>
        <time>2022-07-21T06:46:58Z</time>
      </trkpt>
      <trkpt lat="47.3049900" lon="6.8355660">
        <ele>752.3</ele>
        <time>2022-07-21T06:46:59Z</time>
      </trkpt>
      <trkpt lat="47.3049810" lon="6.8356500">
        <ele>752.2</ele>
        <time>2022-07-21T06:47:00Z</time>
      </trkpt>
      <trkpt lat="47.3049730" lon="6.8357100">
        <ele>752.2</ele>
        <time>2022-07-21T06:47:01Z</time>
      </trkpt>
      <trkpt lat="47.3049650" lon="6.8357550">
        <ele>752.1</ele>
        <time>2022-07-21T06:47:02Z</time>
      </trkpt>
      <trkpt lat="47.3049560" lon="6.8358100">
        <ele>752.1</ele>
        <time>2022-07-21T06:47:03Z</time>
      </trkpt>
      <trkpt lat="47.3049480" lon="6.8358640">
        <ele>752.0</ele>
        <time>2022-07-21T06:47:04Z</time>
      </trkpt>
      <trkpt lat="47.3049410" lon="6.8359160">
        <ele>751.8</ele>
        <time>2022-07-21T06:47:05Z</time>
      </trkpt>
      <trkpt lat="47.3049310" lon="6.8359750">
        <ele>751.7</ele>
        <time>2022-07-21T06:47:06Z</time>
      </trkpt>
      <trkpt lat="47.3049010" lon="6.8360650">
        <ele>751.5</ele>
        <time>2022-07-21T06:47:07Z</time>
      </trkpt>
      <trkpt lat="47.3048920" lon="6.8361410">
        <ele>751.3</ele>
        <time>2022-07-21T06:47:08Z</time>
      </trkpt>
      <trkpt lat="47.3048810" lon="6.8362090">
        <ele>751.1</ele>
        <time>2022-07-21T06:47:09Z</time>
      </trkpt>
      <trkpt lat="47.3048870" lon="6.8362600">
        <ele>750.9</ele>
        <time>2022-07-21T06:47:10Z</time>
      </trkpt>
      <trkpt lat="47.3048700" lon="6.8363190">
        <ele>750.6</ele>
        <time>2022-07-21T06:47:11Z</time>
      </trkpt>
      <trkpt lat="47.3048550" lon="6.8363790">
        <ele>750.4</ele>
        <time>2022-07-21T06:47:12Z</time>
      </trkpt>
      <trkpt lat="47.3048170" lon="6.8364440">
        <ele>750.0</ele>
        <time>2022-07-21T06:47:13Z</time>
      </trkpt>
      <trkpt lat="47.3047870" lon="6.8365090">
        <ele>749.6</ele>
        <time>2022-07-21T06:47:14Z</time>
      </trkpt>
      <trkpt lat="47.3047530" lon="6.8365590">
        <ele>749.2</ele>
        <time>2022-07-21T06:47:15Z</time>
      </trkpt>
      <trkpt lat="47.3047250" lon="6.8365980">
        <ele>749.0</ele>
        <time>2022-07-21T06:47:16Z</time>
      </trkpt>
      <trkpt lat="47.3046910" lon="6.8366570">
        <ele>748.6</ele>
        <time>2022-07-21T06:47:17Z</time>
      </trkpt>
      <trkpt lat="47.3046600" lon="6.8367050">
        <ele>748.2</ele>
        <time>2022-07-21T06:47:18Z</time>
      </trkpt>
      <trkpt lat="47.3046330" lon="6.8367400">
        <ele>747.9</ele>
        <time>2022-07-21T06:47:19Z</time>
      </trkpt>
      <trkpt lat="47.3045900" lon="6.8367750">
        <ele>747.5</ele>
        <time>2022-07-21T06:47:20Z</time>
      </trkpt>
      <trkpt lat="47.3045320" lon="6.8368140">
        <ele>746.9</ele>
        <time>2022-07-21T06:47:21Z</time>
      </trkpt>
      <trkpt lat="47.3044810" lon="6.8368480">
        <ele>746.5</ele>
        <time>2022-07-21T06:47:22Z</time>
      </trkpt>
      <trkpt lat="47.3044360" lon="6.8368830">
        <ele>746.0</ele>
        <time>2022-07-21T06:47:23Z</time>
      </trkpt>
      <trkpt lat="47.3043840" lon="6.8369160">
        <ele>745.6</ele>
        <time>2022-07-21T06:47:24Z</time>
      </trkpt>
      <trkpt lat="47.3043320" lon="6.8369350">
        <ele>745.1</ele>
        <time>2022-07-21T06:47:25Z</time>
      </trkpt>
      <trkpt lat="47.3042890" lon="6.8369580">
        <ele>744.7</ele>
        <time>2022-07-21T06:47:26Z</time>
      </trkpt>
      <trkpt lat="47.3042450" lon="6.8369860">
        <ele>744.3</ele>
        <time>2022-07-21T06:47:27Z</time>
      </trkpt>
      <trkpt lat="47.3041990" lon="6.8370230">
        <ele>743.8</ele>
        <time>2022-07-21T06:47:28Z</time>
      </trkpt>
      <trkpt lat="47.3041640" lon="6.8370550">
        <ele>743.4</ele>
        <time>2022-07-21T06:47:29Z</time>
      </trkpt>
      <trkpt lat="47.3041190" lon="6.8370840">
        <ele>742.9</ele>
        <time>2022-07-21T06:47:30Z</time>
      </trkpt>
      <trkpt lat="47.3040760" lon="6.8371110">
        <ele>742.4</ele>
        <time>2022-07-21T06:47:31Z</time>
      </trkpt>
      <trkpt lat="47.3040460" lon="6.8371310">
        <ele>742.0</ele>
        <time>2022-07-21T06:47:32Z</time>
      </trkpt>
      <trkpt lat="47.3040210" lon="6.8371560">
        <ele>741.6</ele>
        <time>2022-07-21T06:47:33Z</time>
      </trkpt>
      <trkpt lat="47.3040010" lon="6.8372040">
        <ele>741.2</ele>
        <time>2022-07-21T06:47:34Z</time>
      </trkpt>
      <trkpt lat="47.3039830" lon="6.8372760">
        <ele>740.2</ele>
        <time>2022-07-21T06:47:35Z</time>
      </trkpt>
      <trkpt lat="47.3039710" lon="6.8373550">
        <ele>739.6</ele>
        <time>2022-07-21T06:47:36Z</time>
      </trkpt>
      <trkpt lat="47.3039570" lon="6.8374370">
        <ele>739.1</ele>
        <time>2022-07-21T06:47:37Z</time>
      </trkpt>
      <trkpt lat="47.3039440" lon="6.8375220">
        <ele>738.6</ele>
        <time>2022-07-21T06:47:38Z</time>
      </trkpt>
      <trkpt lat="47.3039230" lon="6.8375940">
        <ele>738.1</ele>
        <time>2022-07-21T06:47:39Z</time>
      </trkpt>
      <trkpt lat="47.3038930" lon="6.8376600">
        <ele>737.7</ele>
        <time>2022-07-21T06:47:40Z</time>
      </trkpt>
      <trkpt lat="47.3038440" lon="6.8377190">
        <ele>737.3</ele>
        <time>2022-07-21T06:47:41Z</time>
      </trkpt>
      <trkpt lat="47.3037900" lon="6.8377700">
        <ele>736.9</ele>
        <time>2022-07-21T06:47:42Z</time>
      </trkpt>
      <trkpt lat="47.3037490" lon="6.8378070">
        <ele>736.6</ele>
        <time>2022-07-21T06:47:43Z</time>
      </trkpt>
      <trkpt lat="47.3037040" lon="6.8378440">
        <ele>736.4</ele>
        <time>2022-07-21T06:47:44Z</time>
      </trkpt>
      <trkpt lat="47.3036510" lon="6.8378700">
        <ele>736.2</ele>
        <time>2022-07-21T06:47:45Z</time>
      </trkpt>
      <trkpt lat="47.3035990" lon="6.8378870">
        <ele>736.0</ele>
        <time>2022-07-21T06:47:46Z</time>
      </trkpt>
      <trkpt lat="47.3035700" lon="6.8379210">
        <ele>735.9</ele>
        <time>2022-07-21T06:47:47Z</time>
      </trkpt>
      <trkpt lat="47.3035350" lon="6.8379480">
        <ele>735.8</ele>
        <time>2022-07-21T06:47:48Z</time>
      </trkpt>
      <trkpt lat="47.3035080" lon="6.8379640">
        <ele>735.8</ele>
        <time>2022-07-21T06:47:49Z</time>
      </trkpt>
      <trkpt lat="47.3034770" lon="6.8379710">
        <ele>735.7</ele>
        <time>2022-07-21T06:47:50Z</time>
      </trkpt>
      <trkpt lat="47.3034700" lon="6.8379710">
        <ele>735.7</ele>
        <time>2022-07-21T06:47:51Z</time>
      </trkpt>
      <trkpt lat="47.3034400" lon="6.8379980">
        <ele>735.6</ele>
        <time>2022-07-21T06:47:52Z</time>
      </trkpt>
      <trkpt lat="47.3034130" lon="6.8380330">
        <ele>735.5</ele>
        <time>2022-07-21T06:47:53Z</time>
      </trkpt>
      <trkpt lat="47.3033860" lon="6.8380740">
        <ele>735.5</ele>
        <time>2022-07-21T06:47:54Z</time>
      </trkpt>
      <trkpt lat="47.3033600" lon="6.8381190">
        <ele>735.5</ele>
        <time>2022-07-21T06:47:55Z</time>
      </trkpt>
      <trkpt lat="47.3033370" lon="6.8381600">
        <ele>735.6</ele>
        <time>2022-07-21T06:47:56Z</time>
      </trkpt>
      <trkpt lat="47.3033210" lon="6.8381940">
        <ele>735.6</ele>
        <time>2022-07-21T06:47:57Z</time>
      </trkpt>
      <trkpt lat="47.3033030" lon="6.8382420">
        <ele>735.6</ele>
        <time>2022-07-21T06:47:58Z</time>
      </trkpt>
      <trkpt lat="47.3032850" lon="6.8382850">
        <ele>735.7</ele>
        <time>2022-07-21T06:47:59Z</time>
      </trkpt>
      <trkpt lat="47.3032710" lon="6.8383220">
        <ele>735.7</ele>
        <time>2022-07-21T06:48:00Z</time>
      </trkpt>
      <trkpt lat="47.3032530" lon="6.8383690">
        <ele>735.7</ele>
        <time>2022-07-21T06:48:01Z</time>
      </trkpt>
      <trkpt lat="47.3032360" lon="6.8384130">
        <ele>735.7</ele>
        <time>2022-07-21T06:48:02Z</time>
      </trkpt>
      <trkpt lat="47.3032160" lon="6.8384590">
        <ele>735.7</ele>
        <time>2022-07-21T06:48:03Z</time>
      </trkpt>
      <trkpt lat="47.3032080" lon="6.8384780">
        <ele>735.7</ele>
        <time>2022-07-21T06:48:04Z</time>
      </trkpt>
      <trkpt lat="47.3031890" lon="6.8385120">
        <ele>735.7</ele>
        <time>2022-07-21T06:48:05Z</time>
      </trkpt>
      <trkpt lat="47.3031720" lon="6.8385470">
        <ele>735.7</ele>
        <time>2022-07-21T06:48:06Z</time>
      </trkpt>
      <trkpt lat="47.3031470" lon="6.8385960">
        <ele>735.7</ele>
        <time>2022-07-21T06:48:07Z</time>
      </trkpt>
      <trkpt lat="47.3031380" lon="6.8386140">
        <ele>735.7</ele>
        <time>2022-07-21T06:48:08Z</time>
      </trkpt>
      <trkpt lat="47.3031260" lon="6.8386380">
        <ele>735.7</ele>
        <time>2022-07-21T06:48:09Z</time>
      </trkpt>
      <trkpt lat="47.3031190" lon="6.8386560">
        <ele>735.7</ele>
        <time>2022-07-21T06:48:10Z</time>
      </trkpt>
      <trkpt lat="47.3031110" lon="6.8386860">
        <ele>735.7</ele>
        <time>2022-07-21T06:48:11Z</time>
      </trkpt>
      <trkpt lat="47.3031080" lon="6.8387020">
        <ele>735.7</ele>
        <time>2022-07-21T06:48:12Z</time>
      </trkpt>
      <trkpt lat="47.3031040" lon="6.8387170">
        <ele>735.7</ele>
        <time>2022-07-21T06:48:13Z</time>
      </trkpt>
      <trkpt lat="47.3030890" lon="6.8387600">
        <ele>735.8</ele>
        <time>2022-07-21T06:48:14Z</time>
      </trkpt>
      <trkpt lat="47.3030820" lon="6.8387740">
        <ele>735.8</ele>
        <time>2022-07-21T06:48:15Z</time>
      </trkpt>
      <trkpt lat="47.3030620" lon="6.8388120">
        <ele>735.8</ele>
        <time>2022-07-21T06:48:16Z</time>
      </trkpt>
      <trkpt lat="47.3030560" lon="6.8388230">
        <ele>735.9</ele>
        <time>2022-07-21T06:48:17Z</time>
      </trkpt>
      <trkpt lat="47.3030360" lon="6.8388610">
        <ele>735.9</ele>
        <time>2022-07-21T06:48:18Z</time>
      </trkpt>
      <trkpt lat="47.3030280" lon="6.8388750">
        <ele>735.9</ele>
        <time>2022-07-21T06:48:19Z</time>
      </trkpt>
      <trkpt lat="47.3030120" lon="6.8389160">
        <ele>736.0</ele>
        <time>2022-07-21T06:48:20Z</time>
      </trkpt>
      <trkpt lat="47.3030060" lon="6.8389300">
        <ele>736.1</ele>
        <time>2022-07-21T06:48:21Z</time>
      </trkpt>
      <trkpt lat="47.3029910" lon="6.8389660">
        <ele>736.2</ele>
        <time>2022-07-21T06:48:22Z</time>
      </trkpt>
      <trkpt lat="47.3029860" lon="6.8389770">
        <ele>736.2</ele>
        <time>2022-07-21T06:48:23Z</time>
      </trkpt>
      <trkpt lat="47.3029760" lon="6.8389980">
        <ele>736.2</ele>
        <time>2022-07-21T06:48:24Z</time>
      </trkpt>
      <trkpt lat="47.3029680" lon="6.8390150">
        <ele>736.3</ele>
        <time>2022-07-21T06:48:25Z</time>
      </trkpt>
      <trkpt lat="47.3029590" lon="6.8390570">
        <ele>736.4</ele>
        <time>2022-07-21T06:48:26Z</time>
      </trkpt>
      <trkpt lat="47.3029570" lon="6.8390700">
        <ele>736.5</ele>
        <time>2022-07-21T06:48:27Z</time>
      </trkpt>
      <trkpt lat="47.3029490" lon="6.8391240">
        <ele>736.6</ele>
        <time>2022-07-21T06:48:28Z</time>
      </trkpt>
      <trkpt lat="47.3029450" lon="6.8391410">
        <ele>736.7</ele>
        <time>2022-07-21T06:48:29Z</time>
      </trkpt>
      <trkpt lat="47.3029350" lon="6.8391830">
        <ele>736.8</ele>
        <time>2022-07-21T06:48:30Z</time>
      </trkpt>
      <trkpt lat="47.3029320" lon="6.8391940">
        <ele>736.8</ele>
        <time>2022-07-21T06:48:31Z</time>
      </trkpt>
      <trkpt lat="47.3029250" lon="6.8392400">
        <ele>737.0</ele>
        <time>2022-07-21T06:48:32Z</time>
      </trkpt>
      <trkpt lat="47.3029220" lon="6.8392560">
        <ele>737.0</ele>
        <time>2022-07-21T06:48:33Z</time>
      </trkpt>
      <trkpt lat="47.3029120" lon="6.8392930">
        <ele>737.1</ele>
        <time>2022-07-21T06:48:34Z</time>
      </trkpt>
      <trkpt lat="47.3029080" lon="6.8393050">
        <ele>737.2</ele>
        <time>2022-07-21T06:48:35Z</time>
      </trkpt>
      <trkpt lat="47.3029010" lon="6.8393520">
        <ele>737.3</ele>
        <time>2022-07-21T06:48:36Z</time>
      </trkpt>
      <trkpt lat="47.3028990" lon="6.8393660">
        <ele>737.3</ele>
        <time>2022-07-21T06:48:37Z</time>
      </trkpt>
      <trkpt lat="47.3028930" lon="6.8394100">
        <ele>737.5</ele>
        <time>2022-07-21T06:48:38Z</time>
      </trkpt>
      <trkpt lat="47.3028910" lon="6.8394240">
        <ele>737.5</ele>
        <time>2022-07-21T06:48:39Z</time>
      </trkpt>
      <trkpt lat="47.3028850" lon="6.8394750">
        <ele>737.6</ele>
        <time>2022-07-21T06:48:40Z</time>
      </trkpt>
      <trkpt lat="47.3028830" lon="6.8394900">
        <ele>737.7</ele>
        <time>2022-07-21T06:48:41Z</time>
      </trkpt>
      <trkpt lat="47.3028760" lon="6.8395360">
        <ele>737.6</ele>
        <time>2022-07-21T06:48:42Z</time>
      </trkpt>
      <trkpt lat="47.3028670" lon="6.8395870">
        <ele>737.4</ele>
        <time>2022-07-21T06:48:43Z</time>
      </trkpt>
      <trkpt lat="47.3028600" lon="6.8396270">
        <ele>737.3</ele>
        <time>2022-07-21T06:48:44Z</time>
      </trkpt>
      <trkpt lat="47.3028500" lon="6.8396870">
        <ele>737.1</ele>
        <time>2022-07-21T06:48:45Z</time>
      </trkpt>
      <trkpt lat="47.3028400" lon="6.8397560">
        <ele>736.8</ele>
        <time>2022-07-21T06:48:46Z</time>
      </trkpt>
      <trkpt lat="47.3028290" lon="6.8398410">
        <ele>736.5</ele>
        <time>2022-07-21T06:48:47Z</time>
      </trkpt>
      <trkpt lat="47.3028180" lon="6.8399320">
        <ele>736.2</ele>
        <time>2022-07-21T06:48:48Z</time>
      </trkpt>
      <trkpt lat="47.3028080" lon="6.8400200">
        <ele>735.9</ele>
        <time>2022-07-21T06:48:49Z</time>
      </trkpt>
      <trkpt lat="47.3027950" lon="6.8401040">
        <ele>735.6</ele>
        <time>2022-07-21T06:48:50Z</time>
      </trkpt>
      <trkpt lat="47.3027810" lon="6.8401810">
        <ele>735.3</ele>
        <time>2022-07-21T06:48:51Z</time>
      </trkpt>
      <trkpt lat="47.3027630" lon="6.8402480">
        <ele>735.0</ele>
        <time>2022-07-21T06:48:52Z</time>
      </trkpt>
      <trkpt lat="47.3027440" lon="6.8403140">
        <ele>734.8</ele>
        <time>2022-07-21T06:48:53Z</time>
      </trkpt>
      <trkpt lat="47.3027330" lon="6.8403630">
        <ele>734.6</ele>
        <time>2022-07-21T06:48:54Z</time>
      </trkpt>
      <trkpt lat="47.3027170" lon="6.8404290">
        <ele>734.4</ele>
        <time>2022-07-21T06:48:55Z</time>
      </trkpt>
      <trkpt lat="47.3027000" lon="6.8404940">
        <ele>734.2</ele>
        <time>2022-07-21T06:48:56Z</time>
      </trkpt>
      <trkpt lat="47.3026770" lon="6.8405880">
        <ele>733.9</ele>
        <time>2022-07-21T06:48:57Z</time>
      </trkpt>
      <trkpt lat="47.3026510" lon="6.8406700">
        <ele>733.6</ele>
        <time>2022-07-21T06:48:58Z</time>
      </trkpt>
      <trkpt lat="47.3026220" lon="6.8407500">
        <ele>733.3</ele>
        <time>2022-07-21T06:48:59Z</time>
      </trkpt>
      <trkpt lat="47.3025920" lon="6.8408310">
        <ele>733.0</ele>
        <time>2022-07-21T06:49:00Z</time>
      </trkpt>
      <trkpt lat="47.3025680" lon="6.8409270">
        <ele>732.6</ele>
        <time>2022-07-21T06:49:01Z</time>
      </trkpt>
      <trkpt lat="47.3025390" lon="6.8410290">
        <ele>732.3</ele>
        <time>2022-07-21T06:49:02Z</time>
      </trkpt>
      <trkpt lat="47.3025100" lon="6.8411360">
        <ele>731.9</ele>
        <time>2022-07-21T06:49:03Z</time>
      </trkpt>
      <trkpt lat="47.3024800" lon="6.8412460">
        <ele>731.5</ele>
        <time>2022-07-21T06:49:04Z</time>
      </trkpt>
      <trkpt lat="47.3024470" lon="6.8413550">
        <ele>731.1</ele>
        <time>2022-07-21T06:49:05Z</time>
      </trkpt>
      <trkpt lat="47.3024160" lon="6.8414670">
        <ele>730.8</ele>
        <time>2022-07-21T06:49:06Z</time>
      </trkpt>
      <trkpt lat="47.3023850" lon="6.8415790">
        <ele>730.5</ele>
        <time>2022-07-21T06:49:07Z</time>
      </trkpt>
      <trkpt lat="47.3023480" lon="6.8416850">
        <ele>730.3</ele>
        <time>2022-07-21T06:49:08Z</time>
      </trkpt>
      <trkpt lat="47.3023190" lon="6.8417910">
        <ele>730.1</ele>
        <time>2022-07-21T06:49:09Z</time>
      </trkpt>
      <trkpt lat="47.3022920" lon="6.8418980">
        <ele>730.0</ele>
        <time>2022-07-21T06:49:10Z</time>
      </trkpt>
      <trkpt lat="47.3022580" lon="6.8420020">
        <ele>729.9</ele>
        <time>2022-07-21T06:49:11Z</time>
      </trkpt>
      <trkpt lat="47.3022280" lon="6.8421040">
        <ele>729.8</ele>
        <time>2022-07-21T06:49:12Z</time>
      </trkpt>
      <trkpt lat="47.3022060" lon="6.8421990">
        <ele>729.8</ele>
        <time>2022-07-21T06:49:13Z</time>
      </trkpt>
      <trkpt lat="47.3021840" lon="6.8422910">
        <ele>729.8</ele>
        <time>2022-07-21T06:49:14Z</time>
      </trkpt>
      <trkpt lat="47.3021590" lon="6.8423790">
        <ele>729.8</ele>
        <time>2022-07-21T06:49:15Z</time>
      </trkpt>
      <trkpt lat="47.3021350" lon="6.8424700">
        <ele>729.8</ele>
        <time>2022-07-21T06:49:16Z</time>
      </trkpt>
      <trkpt lat="47.3021170" lon="6.8425550">
        <ele>729.9</ele>
        <time>2022-07-21T06:49:17Z</time>
      </trkpt>
      <trkpt lat="47.3020940" lon="6.8426390">
        <ele>729.9</ele>
        <time>2022-07-21T06:49:18Z</time>
      </trkpt>
      <trkpt lat="47.3020740" lon="6.8427140">
        <ele>730.0</ele>
        <time>2022-07-21T06:49:19Z</time>
      </trkpt>
      <trkpt lat="47.3020520" lon="6.8427890">
        <ele>730.0</ele>
        <time>2022-07-21T06:49:20Z</time>
      </trkpt>
      <trkpt lat="47.3020300" lon="6.8428630">
        <ele>730.0</ele>
        <time>2022-07-21T06:49:21Z</time>
      </trkpt>
      <trkpt lat="47.3020100" lon="6.8429330">
        <ele>730.1</ele>
        <time>2022-07-21T06:49:22Z</time>
      </trkpt>
      <trkpt lat="47.3019900" lon="6.8429990">
        <ele>730.1</ele>
        <time>2022-07-21T06:49:23Z</time>
      </trkpt>
      <trkpt lat="47.3019770" lon="6.8430650">
        <ele>730.2</ele>
        <time>2022-07-21T06:49:24Z</time>
      </trkpt>
      <trkpt lat="47.3019660" lon="6.8431310">
        <ele>730.2</ele>
        <time>2022-07-21T06:49:25Z</time>
      </trkpt>
      <trkpt lat="47.3019610" lon="6.8431820">
        <ele>730.2</ele>
        <time>2022-07-21T06:49:26Z</time>
      </trkpt>
      <trkpt lat="47.3019450" lon="6.8432510">
        <ele>730.3</ele>
        <time>2022-07-21T06:49:27Z</time>
      </trkpt>
      <trkpt lat="47.3019350" lon="6.8433150">
        <ele>730.3</ele>
        <time>2022-07-21T06:49:28Z</time>
      </trkpt>
      <trkpt lat="47.3019260" lon="6.8433610">
        <ele>730.4</ele>
        <time>2022-07-21T06:49:29Z</time>
      </trkpt>
      <trkpt lat="47.3019140" lon="6.8434160">
        <ele>730.4</ele>
        <time>2022-07-21T06:49:30Z</time>
      </trkpt>
      <trkpt lat="47.3018960" lon="6.8434750">
        <ele>730.5</ele>
        <time>2022-07-21T06:49:31Z</time>
      </trkpt>
      <trkpt lat="47.3018800" lon="6.8435270">
        <ele>730.5</ele>
        <time>2022-07-21T06:49:32Z</time>
      </trkpt>
      <trkpt lat="47.3018630" lon="6.8435820">
        <ele>730.5</ele>
        <time>2022-07-21T06:49:33Z</time>
      </trkpt>
      <trkpt lat="47.3018470" lon="6.8436500">
        <ele>730.6</ele>
        <time>2022-07-21T06:49:34Z</time>
      </trkpt>
      <trkpt lat="47.3018300" lon="6.8437070">
        <ele>730.7</ele>
        <time>2022-07-21T06:49:35Z</time>
      </trkpt>
      <trkpt lat="47.3018130" lon="6.8437620">
        <ele>730.8</ele>
        <time>2022-07-21T06:49:36Z</time>
      </trkpt>
      <trkpt lat="47.3017960" lon="6.8438270">
        <ele>730.9</ele>
        <time>2022-07-21T06:49:37Z</time>
      </trkpt>
      <trkpt lat="47.3017880" lon="6.8438570">
        <ele>730.9</ele>
        <time>2022-07-21T06:49:38Z</time>
      </trkpt>
      <trkpt lat="47.3017720" lon="6.8439050">
        <ele>731.0</ele>
        <time>2022-07-21T06:49:39Z</time>
      </trkpt>
      <trkpt lat="47.3017490" lon="6.8439660">
        <ele>731.1</ele>
        <time>2022-07-21T06:49:40Z</time>
      </trkpt>
      <trkpt lat="47.3017390" lon="6.8439940">
        <ele>731.2</ele>
        <time>2022-07-21T06:49:41Z</time>
      </trkpt>
      <trkpt lat="47.3017270" lon="6.8440370">
        <ele>731.2</ele>
        <time>2022-07-21T06:49:42Z</time>
      </trkpt>
      <trkpt lat="47.3017120" lon="6.8440870">
        <ele>731.4</ele>
        <time>2022-07-21T06:49:43Z</time>
      </trkpt>
      <trkpt lat="47.3016980" lon="6.8441320">
        <ele>731.4</ele>
        <time>2022-07-21T06:49:44Z</time>
      </trkpt>
      <trkpt lat="47.3016830" lon="6.8441770">
        <ele>731.5</ele>
        <time>2022-07-21T06:49:45Z</time>
      </trkpt>
      <trkpt lat="47.3016700" lon="6.8442180">
        <ele>731.6</ele>
        <time>2022-07-21T06:49:46Z</time>
      </trkpt>
      <trkpt lat="47.3016530" lon="6.8442740">
        <ele>731.8</ele>
        <time>2022-07-21T06:49:47Z</time>
      </trkpt>
      <trkpt lat="47.3016470" lon="6.8442940">
        <ele>731.8</ele>
        <time>2022-07-21T06:49:48Z</time>
      </trkpt>
      <trkpt lat="47.3016350" lon="6.8443410">
        <ele>731.9</ele>
        <time>2022-07-21T06:49:49Z</time>
      </trkpt>
      <trkpt lat="47.3016230" lon="6.8443890">
        <ele>732.0</ele>
        <time>2022-07-21T06:49:50Z</time>
      </trkpt>
      <trkpt lat="47.3016140" lon="6.8444330">
        <ele>732.1</ele>
        <time>2022-07-21T06:49:51Z</time>
      </trkpt>
      <trkpt lat="47.3016060" lon="6.8444750">
        <ele>732.2</ele>
        <time>2022-07-21T06:49:52Z</time>
      </trkpt>
      <trkpt lat="47.3015940" lon="6.8445280">
        <ele>732.3</ele>
        <time>2022-07-21T06:49:53Z</time>
      </trkpt>
      <trkpt lat="47.3015880" lon="6.8445500">
        <ele>732.3</ele>
        <time>2022-07-21T06:49:54Z</time>
      </trkpt>
      <trkpt lat="47.3015760" lon="6.8445940">
        <ele>732.4</ele>
        <time>2022-07-21T06:49:55Z</time>
      </trkpt>
      <trkpt lat="47.3015650" lon="6.8446340">
        <ele>732.5</ele>
        <time>2022-07-21T06:49:56Z</time>
      </trkpt>
      <trkpt lat="47.3015560" lon="6.8446750">
        <ele>732.6</ele>
        <time>2022-07-21T06:49:57Z</time>
      </trkpt>
      <trkpt lat="47.3015480" lon="6.8447160">
        <ele>732.7</ele>
        <time>2022-07-21T06:49:58Z</time>
      </trkpt>
      <trkpt lat="47.3015390" lon="6.8447700">
        <ele>732.8</ele>
        <time>2022-07-21T06:49:59Z</time>
      </trkpt>
      <trkpt lat="47.3015360" lon="6.8447870">
        <ele>732.9</ele>
        <time>2022-07-21T06:50:00Z</time>
      </trkpt>
      <trkpt lat="47.3015270" lon="6.8448270">
        <ele>733.0</ele>
        <time>2022-07-21T06:50:01Z</time>
      </trkpt>
      <trkpt lat="47.3015170" lon="6.8448680">
        <ele>733.1</ele>
        <time>2022-07-21T06:50:02Z</time>
      </trkpt>
      <trkpt lat="47.3015040" lon="6.8449160">
        <ele>733.2</ele>
        <time>2022-07-21T06:50:03Z</time>
      </trkpt>
      <trkpt lat="47.3014880" lon="6.8449710">
        <ele>733.3</ele>
        <time>2022-07-21T06:50:04Z</time>
      </trkpt>
      <trkpt lat="47.3014840" lon="6.8449900">
        <ele>733.4</ele>
        <time>2022-07-21T06:50:05Z</time>
      </trkpt>
      <trkpt lat="47.3014720" lon="6.8450400">
        <ele>733.5</ele>
        <time>2022-07-21T06:50:06Z</time>
      </trkpt>
      <trkpt lat="47.3014670" lon="6.8450570">
        <ele>733.6</ele>
        <time>2022-07-21T06:50:07Z</time>
      </trkpt>
      <trkpt lat="47.3014530" lon="6.8451090">
        <ele>733.7</ele>
        <time>2022-07-21T06:50:08Z</time>
      </trkpt>
      <trkpt lat="47.3014480" lon="6.8451290">
        <ele>733.8</ele>
        <time>2022-07-21T06:50:09Z</time>
      </trkpt>
      <trkpt lat="47.3014370" lon="6.8451820">
        <ele>733.9</ele>
        <time>2022-07-21T06:50:10Z</time>
      </trkpt>
      <trkpt lat="47.3014330" lon="6.8452030">
        <ele>734.0</ele>
        <time>2022-07-21T06:50:11Z</time>
      </trkpt>
      <trkpt lat="47.3014250" lon="6.8452490">
        <ele>734.1</ele>
        <time>2022-07-21T06:50:12Z</time>
      </trkpt>
      <trkpt lat="47.3014160" lon="6.8452990">
        <ele>734.3</ele>
        <time>2022-07-21T06:50:13Z</time>
      </trkpt>
      <trkpt lat="47.3014130" lon="6.8453150">
        <ele>734.3</ele>
        <time>2022-07-21T06:50:14Z</time>
      </trkpt>
      <trkpt lat="47.3014030" lon="6.8453650">
        <ele>734.5</ele>
        <time>2022-07-21T06:50:15Z</time>
      </trkpt>
      <trkpt lat="47.3013990" lon="6.8453830">
        <ele>734.5</ele>
        <time>2022-07-21T06:50:16Z</time>
      </trkpt>
      <trkpt lat="47.3013920" lon="6.8454240">
        <ele>734.6</ele>
        <time>2022-07-21T06:50:17Z</time>
      </trkpt>
      <trkpt lat="47.3013830" lon="6.8454710">
        <ele>734.8</ele>
        <time>2022-07-21T06:50:18Z</time>
      </trkpt>
      <trkpt lat="47.3013810" lon="6.8454880">
        <ele>734.8</ele>
        <time>2022-07-21T06:50:19Z</time>
      </trkpt>
      <trkpt lat="47.3013700" lon="6.8455450">
        <ele>734.9</ele>
        <time>2022-07-21T06:50:20Z</time>
      </trkpt>
      <trkpt lat="47.3013660" lon="6.8455650">
        <ele>735.0</ele>
        <time>2022-07-21T06:50:21Z</time>
      </trkpt>
      <trkpt lat="47.3013560" lon="6.8456210">
        <ele>735.1</ele>
        <time>2022-07-21T06:50:22Z</time>
      </trkpt>
      <trkpt lat="47.3013540" lon="6.8456390">
        <ele>735.2</ele>
        <time>2022-07-21T06:50:23Z</time>
      </trkpt>
      <trkpt lat="47.3013440" lon="6.8456890">
        <ele>735.3</ele>
        <time>2022-07-21T06:50:24Z</time>
      </trkpt>
      <trkpt lat="47.3013400" lon="6.8457050">
        <ele>735.4</ele>
        <time>2022-07-21T06:50:25Z</time>
      </trkpt>
      <trkpt lat="47.3013290" lon="6.8457420">
        <ele>735.5</ele>
        <time>2022-07-21T06:50:26Z</time>
      </trkpt>
      <trkpt lat="47.3013170" lon="6.8457810">
        <ele>735.6</ele>
        <time>2022-07-21T06:50:27Z</time>
      </trkpt>
      <trkpt lat="47.3013060" lon="6.8458240">
        <ele>735.7</ele>
        <time>2022-07-21T06:50:28Z</time>
      </trkpt>
      <trkpt lat="47.3012980" lon="6.8458630">
        <ele>735.8</ele>
        <time>2022-07-21T06:50:29Z</time>
      </trkpt>
      <trkpt lat="47.3012870" lon="6.8459180">
        <ele>735.9</ele>
        <time>2022-07-21T06:50:30Z</time>
      </trkpt>
      <trkpt lat="47.3012840" lon="6.8459350">
        <ele>736.0</ele>
        <time>2022-07-21T06:50:31Z</time>
      </trkpt>
      <trkpt lat="47.3012760" lon="6.8459840">
        <ele>736.1</ele>
        <time>2022-07-21T06:50:32Z</time>
      </trkpt>
      <trkpt lat="47.3012730" lon="6.8459990">
        <ele>736.1</ele>
        <time>2022-07-21T06:50:33Z</time>
      </trkpt>
      <trkpt lat="47.3012540" lon="6.8460610">
        <ele>736.3</ele>
        <time>2022-07-21T06:50:34Z</time>
      </trkpt>
      <trkpt lat="47.3012440" lon="6.8460890">
        <ele>736.4</ele>
        <time>2022-07-21T06:50:35Z</time>
      </trkpt>
      <trkpt lat="47.3012380" lon="6.8461150">
        <ele>736.5</ele>
        <time>2022-07-21T06:50:36Z</time>
      </trkpt>
      <trkpt lat="47.3012270" lon="6.8461580">
        <ele>736.6</ele>
        <time>2022-07-21T06:50:38Z</time>
      </trkpt>
      <trkpt lat="47.3012140" lon="6.8462000">
        <ele>736.7</ele>
        <time>2022-07-21T06:50:39Z</time>
      </trkpt>
      <trkpt lat="47.3012080" lon="6.8462140">
        <ele>736.8</ele>
        <time>2022-07-21T06:50:40Z</time>
      </trkpt>
      <trkpt lat="47.3011950" lon="6.8462560">
        <ele>736.9</ele>
        <time>2022-07-21T06:50:41Z</time>
      </trkpt>
      <trkpt lat="47.3011910" lon="6.8462680">
        <ele>736.9</ele>
        <time>2022-07-21T06:50:42Z</time>
      </trkpt>
      <trkpt lat="47.3011610" lon="6.8463020">
        <ele>737.1</ele>
        <time>2022-07-21T06:50:44Z</time>
      </trkpt>
      <trkpt lat="47.3011530" lon="6.8463110">
        <ele>737.1</ele>
        <time>2022-07-21T06:50:45Z</time>
      </trkpt>
      <trkpt lat="47.3011420" lon="6.8463580">
        <ele>737.3</ele>
        <time>2022-07-21T06:50:46Z</time>
      </trkpt>
      <trkpt lat="47.3011390" lon="6.8463740">
        <ele>737.4</ele>
        <time>2022-07-21T06:50:47Z</time>
      </trkpt>
      <trkpt lat="47.3011390" lon="6.8464130">
        <ele>737.5</ele>
        <time>2022-07-21T06:50:48Z</time>
      </trkpt>
      <trkpt lat="47.3011400" lon="6.8464270">
        <ele>737.5</ele>
        <time>2022-07-21T06:50:49Z</time>
      </trkpt>
      <trkpt lat="47.3011260" lon="6.8464840">
        <ele>737.7</ele>
        <time>2022-07-21T06:50:51Z</time>
      </trkpt>
      <trkpt lat="47.3011040" lon="6.8465220">
        <ele>737.9</ele>
        <time>2022-07-21T06:50:52Z</time>
      </trkpt>
      <trkpt lat="47.3010930" lon="6.8465340">
        <ele>738.0</ele>
        <time>2022-07-21T06:50:53Z</time>
      </trkpt>
      <trkpt lat="47.3010770" lon="6.8465670">
        <ele>738.2</ele>
        <time>2022-07-21T06:50:54Z</time>
      </trkpt>
      <trkpt lat="47.3010550" lon="6.8466150">
        <ele>738.4</ele>
        <time>2022-07-21T06:50:55Z</time>
      </trkpt>
      <trkpt lat="47.3010460" lon="6.8466350">
        <ele>738.5</ele>
        <time>2022-07-21T06:50:56Z</time>
      </trkpt>
      <trkpt lat="47.3010250" lon="6.8466960">
        <ele>738.8</ele>
        <time>2022-07-21T06:50:58Z</time>
      </trkpt>
      <trkpt lat="47.3010190" lon="6.8467170">
        <ele>738.9</ele>
        <time>2022-07-21T06:50:59Z</time>
      </trkpt>
      <trkpt lat="47.3010120" lon="6.8467370">
        <ele>739.0</ele>
        <time>2022-07-21T06:51:00Z</time>
      </trkpt>
      <trkpt lat="47.3010010" lon="6.8467750">
        <ele>739.3</ele>
        <time>2022-07-21T06:51:01Z</time>
      </trkpt>
      <trkpt lat="47.3009960" lon="6.8467870">
        <ele>739.3</ele>
        <time>2022-07-21T06:51:02Z</time>
      </trkpt>
      <trkpt lat="47.3009890" lon="6.8468100">
        <ele>739.5</ele>
        <time>2022-07-21T06:51:03Z</time>
      </trkpt>
      <trkpt lat="47.3009820" lon="6.8468310">
        <ele>739.6</ele>
        <time>2022-07-21T06:51:04Z</time>
      </trkpt>
      <trkpt lat="47.3009680" lon="6.8468650">
        <ele>739.8</ele>
        <time>2022-07-21T06:51:05Z</time>
      </trkpt>
      <trkpt lat="47.3009630" lon="6.8468770">
        <ele>739.9</ele>
        <time>2022-07-21T06:51:06Z</time>
      </trkpt>
      <trkpt lat="47.3009550" lon="6.8468990">
        <ele>740.1</ele>
        <time>2022-07-21T06:51:07Z</time>
      </trkpt>
      <trkpt lat="47.3009480" lon="6.8469180">
        <ele>740.2</ele>
        <time>2022-07-21T06:51:08Z</time>
      </trkpt>
      <trkpt lat="47.3009390" lon="6.8469390">
        <ele>740.3</ele>
        <time>2022-07-21T06:51:09Z</time>
      </trkpt>
      <trkpt lat="47.3009320" lon="6.8469570">
        <ele>740.5</ele>
        <time>2022-07-21T06:51:10Z</time>
      </trkpt>
      <trkpt lat="47.3009240" lon="6.8469760">
        <ele>740.6</ele>
        <time>2022-07-21T06:51:11Z</time>
      </trkpt>
      <trkpt lat="47.3009160" lon="6.8470010">
        <ele>740.8</ele>
        <time>2022-07-21T06:51:12Z</time>
      </trkpt>
      <trkpt lat="47.3009090" lon="6.8470220">
        <ele>740.9</ele>
        <time>2022-07-21T06:51:13Z</time>
      </trkpt>
      <trkpt lat="47.3009000" lon="6.8470460">
        <ele>741.1</ele>
        <time>2022-07-21T06:51:14Z</time>
      </trkpt>
      <trkpt lat="47.3008870" lon="6.8470810">
        <ele>741.3</ele>
        <time>2022-07-21T06:51:15Z</time>
      </trkpt>
      <trkpt lat="47.3008820" lon="6.8470930">
        <ele>741.4</ele>
        <time>2022-07-21T06:51:16Z</time>
      </trkpt>
      <trkpt lat="47.3008750" lon="6.8471110">
        <ele>741.5</ele>
        <time>2022-07-21T06:51:17Z</time>
      </trkpt>
      <trkpt lat="47.3008670" lon="6.8471280">
        <ele>741.7</ele>
        <time>2022-07-21T06:51:18Z</time>
      </trkpt>
      <trkpt lat="47.3008610" lon="6.8471490">
        <ele>741.8</ele>
        <time>2022-07-21T06:51:19Z</time>
      </trkpt>
      <trkpt lat="47.3008550" lon="6.8471740">
        <ele>742.0</ele>
        <time>2022-07-21T06:51:20Z</time>
      </trkpt>
      <trkpt lat="47.3008490" lon="6.8471980">
        <ele>742.1</ele>
        <time>2022-07-21T06:51:21Z</time>
      </trkpt>
      <trkpt lat="47.3008450" lon="6.8472140">
        <ele>742.2</ele>
        <time>2022-07-21T06:51:22Z</time>
      </trkpt>
      <trkpt lat="47.3008400" lon="6.8472330">
        <ele>742.4</ele>
        <time>2022-07-21T06:51:23Z</time>
      </trkpt>
      <trkpt lat="47.3008370" lon="6.8472580">
        <ele>742.5</ele>
        <time>2022-07-21T06:51:24Z</time>
      </trkpt>
      <trkpt lat="47.3008230" lon="6.8472950">
        <ele>742.8</ele>
        <time>2022-07-21T06:51:25Z</time>
      </trkpt>
      <trkpt lat="47.3008180" lon="6.8473110">
        <ele>742.9</ele>
        <time>2022-07-21T06:51:26Z</time>
      </trkpt>
      <trkpt lat="47.3008000" lon="6.8473520">
        <ele>743.2</ele>
        <time>2022-07-21T06:51:28Z</time>
      </trkpt>
      <trkpt lat="47.3007960" lon="6.8473610">
        <ele>743.3</ele>
        <time>2022-07-21T06:51:29Z</time>
      </trkpt>
      <trkpt lat="47.3007880" lon="6.8473870">
        <ele>743.5</ele>
        <time>2022-07-21T06:51:30Z</time>
      </trkpt>
      <trkpt lat="47.3007850" lon="6.8474020">
        <ele>743.6</ele>
        <time>2022-07-21T06:51:31Z</time>
      </trkpt>
      <trkpt lat="47.3007820" lon="6.8474170">
        <ele>743.7</ele>
        <time>2022-07-21T06:51:32Z</time>
      </trkpt>
      <trkpt lat="47.3007750" lon="6.8474390">
        <ele>743.8</ele>
        <time>2022-07-21T06:51:33Z</time>
      </trkpt>
      <trkpt lat="47.3007690" lon="6.8474620">
        <ele>744.0</ele>
        <time>2022-07-21T06:51:34Z</time>
      </trkpt>
      <trkpt lat="47.3007620" lon="6.8474790">
        <ele>744.1</ele>
        <time>2022-07-21T06:51:35Z</time>
      </trkpt>
      <trkpt lat="47.3007540" lon="6.8474980">
        <ele>744.2</ele>
        <time>2022-07-21T06:51:36Z</time>
      </trkpt>
      <trkpt lat="47.3007450" lon="6.8475180">
        <ele>744.4</ele>
        <time>2022-07-21T06:51:37Z</time>
      </trkpt>
      <trkpt lat="47.3007370" lon="6.8475400">
        <ele>744.6</ele>
        <time>2022-07-21T06:51:38Z</time>
      </trkpt>
      <trkpt lat="47.3007300" lon="6.8475600">
        <ele>744.7</ele>
        <time>2022-07-21T06:51:39Z</time>
      </trkpt>
      <trkpt lat="47.3007240" lon="6.8475790">
        <ele>744.8</ele>
        <time>2022-07-21T06:51:40Z</time>
      </trkpt>
      <trkpt lat="47.3007170" lon="6.8476060">
        <ele>745.0</ele>
        <time>2022-07-21T06:51:41Z</time>
      </trkpt>
      <trkpt lat="47.3007150" lon="6.8476190">
        <ele>745.1</ele>
        <time>2022-07-21T06:51:42Z</time>
      </trkpt>
      <trkpt lat="47.3007120" lon="6.8476320">
        <ele>745.2</ele>
        <time>2022-07-21T06:51:43Z</time>
      </trkpt>
      <trkpt lat="47.3007100" lon="6.8476520">
        <ele>745.3</ele>
        <time>2022-07-21T06:51:44Z</time>
      </trkpt>
      <trkpt lat="47.3007020" lon="6.8476710">
        <ele>745.5</ele>
        <time>2022-07-21T06:51:45Z</time>
      </trkpt>
      <trkpt lat="47.3006890" lon="6.8477120">
        <ele>745.8</ele>
        <time>2022-07-21T06:51:46Z</time>
      </trkpt>
      <trkpt lat="47.3006850" lon="6.8477220">
        <ele>745.8</ele>
        <time>2022-07-21T06:51:47Z</time>
      </trkpt>
      <trkpt lat="47.3006780" lon="6.8477400">
        <ele>746.0</ele>
        <time>2022-07-21T06:51:48Z</time>
      </trkpt>
      <trkpt lat="47.3006700" lon="6.8477620">
        <ele>746.1</ele>
        <time>2022-07-21T06:51:49Z</time>
      </trkpt>
      <trkpt lat="47.3006580" lon="6.8477980">
        <ele>746.3</ele>
        <time>2022-07-21T06:51:50Z</time>
      </trkpt>
      <trkpt lat="47.3006540" lon="6.8478110">
        <ele>746.4</ele>
        <time>2022-07-21T06:51:51Z</time>
      </trkpt>
      <trkpt lat="47.3006350" lon="6.8478430">
        <ele>746.7</ele>
        <time>2022-07-21T06:51:52Z</time>
      </trkpt>
      <trkpt lat="47.3006280" lon="6.8478530">
        <ele>746.8</ele>
        <time>2022-07-21T06:51:53Z</time>
      </trkpt>
      <trkpt lat="47.3006190" lon="6.8478750">
        <ele>746.9</ele>
        <time>2022-07-21T06:51:54Z</time>
      </trkpt>
      <trkpt lat="47.3006060" lon="6.8478910">
        <ele>747.0</ele>
        <time>2022-07-21T06:51:55Z</time>
      </trkpt>
      <trkpt lat="47.3005940" lon="6.8479080">
        <ele>747.2</ele>
        <time>2022-07-21T06:51:56Z</time>
      </trkpt>
      <trkpt lat="47.3005820" lon="6.8479300">
        <ele>747.3</ele>
        <time>2022-07-21T06:51:57Z</time>
      </trkpt>
      <trkpt lat="47.3005590" lon="6.8479590">
        <ele>747.5</ele>
        <time>2022-07-21T06:51:58Z</time>
      </trkpt>
      <trkpt lat="47.3005300" lon="6.8479840">
        <ele>747.8</ele>
        <time>2022-07-21T06:52:00Z</time>
      </trkpt>
      <trkpt lat="47.3005190" lon="6.8479930">
        <ele>747.9</ele>
        <time>2022-07-21T06:52:01Z</time>
      </trkpt>
      <trkpt lat="47.3005080" lon="6.8480020">
        <ele>748.0</ele>
        <time>2022-07-21T06:52:02Z</time>
      </trkpt>
      <trkpt lat="47.3004950" lon="6.8480120">
        <ele>748.0</ele>
        <time>2022-07-21T06:52:03Z</time>
      </trkpt>
      <trkpt lat="47.3004630" lon="6.8480370">
        <ele>748.3</ele>
        <time>2022-07-21T06:52:04Z</time>
      </trkpt>
      <trkpt lat="47.3004530" lon="6.8480450">
        <ele>748.3</ele>
        <time>2022-07-21T06:52:05Z</time>
      </trkpt>
      <trkpt lat="47.3004300" lon="6.8480690">
        <ele>748.5</ele>
        <time>2022-07-21T06:52:06Z</time>
      </trkpt>
      <trkpt lat="47.3004230" lon="6.8480770">
        <ele>748.5</ele>
        <time>2022-07-21T06:52:07Z</time>
      </trkpt>
      <trkpt lat="47.3003990" lon="6.8481020">
        <ele>748.7</ele>
        <time>2022-07-21T06:52:08Z</time>
      </trkpt>
      <trkpt lat="47.3003710" lon="6.8481270">
        <ele>748.8</ele>
        <time>2022-07-21T06:52:09Z</time>
      </trkpt>
      <trkpt lat="47.3003590" lon="6.8481380">
        <ele>748.8</ele>
        <time>2022-07-21T06:52:10Z</time>
      </trkpt>
      <trkpt lat="47.3003350" lon="6.8481550">
        <ele>748.9</ele>
        <time>2022-07-21T06:52:11Z</time>
      </trkpt>
      <trkpt lat="47.3003010" lon="6.8481810">
        <ele>749.0</ele>
        <time>2022-07-21T06:52:13Z</time>
      </trkpt>
      <trkpt lat="47.3002760" lon="6.8482000">
        <ele>749.1</ele>
        <time>2022-07-21T06:52:14Z</time>
      </trkpt>
      <trkpt lat="47.3002680" lon="6.8482070">
        <ele>749.1</ele>
        <time>2022-07-21T06:52:15Z</time>
      </trkpt>
      <trkpt lat="47.3002440" lon="6.8482250">
        <ele>749.2</ele>
        <time>2022-07-21T06:52:16Z</time>
      </trkpt>
      <trkpt lat="47.3002170" lon="6.8482480">
        <ele>749.3</ele>
        <time>2022-07-21T06:52:17Z</time>
      </trkpt>
      <trkpt lat="47.3001880" lon="6.8482780">
        <ele>749.3</ele>
        <time>2022-07-21T06:52:18Z</time>
      </trkpt>
      <trkpt lat="47.3001810" lon="6.8482870">
        <ele>749.3</ele>
        <time>2022-07-21T06:52:19Z</time>
      </trkpt>
      <trkpt lat="47.3001540" lon="6.8483110">
        <ele>749.4</ele>
        <time>2022-07-21T06:52:20Z</time>
      </trkpt>
      <trkpt lat="47.3001440" lon="6.8483180">
        <ele>749.4</ele>
        <time>2022-07-21T06:52:21Z</time>
      </trkpt>
      <trkpt lat="47.3001120" lon="6.8483390">
        <ele>749.4</ele>
        <time>2022-07-21T06:52:22Z</time>
      </trkpt>
      <trkpt lat="47.3001000" lon="6.8483460">
        <ele>749.5</ele>
        <time>2022-07-21T06:52:23Z</time>
      </trkpt>
      <trkpt lat="47.3000740" lon="6.8483610">
        <ele>749.5</ele>
        <time>2022-07-21T06:52:24Z</time>
      </trkpt>
      <trkpt lat="47.3000410" lon="6.8483730">
        <ele>749.5</ele>
        <time>2022-07-21T06:52:25Z</time>
      </trkpt>
      <trkpt lat="47.3000290" lon="6.8483770">
        <ele>749.5</ele>
        <time>2022-07-21T06:52:26Z</time>
      </trkpt>
      <trkpt lat="47.3000010" lon="6.8483880">
        <ele>749.5</ele>
        <time>2022-07-21T06:52:27Z</time>
      </trkpt>
      <trkpt lat="47.2999610" lon="6.8483990">
        <ele>749.6</ele>
        <time>2022-07-21T06:52:28Z</time>
      </trkpt>
      <trkpt lat="47.2999460" lon="6.8484020">
        <ele>749.6</ele>
        <time>2022-07-21T06:52:29Z</time>
      </trkpt>
      <trkpt lat="47.2999180" lon="6.8484100">
        <ele>749.6</ele>
        <time>2022-07-21T06:52:30Z</time>
      </trkpt>
      <trkpt lat="47.2998880" lon="6.8484150">
        <ele>749.6</ele>
        <time>2022-07-21T06:52:31Z</time>
      </trkpt>
      <trkpt lat="47.2998430" lon="6.8484160">
        <ele>749.6</ele>
        <time>2022-07-21T06:52:32Z</time>
      </trkpt>
      <trkpt lat="47.2998240" lon="6.8484150">
        <ele>749.6</ele>
        <time>2022-07-21T06:52:33Z</time>
      </trkpt>
      <trkpt lat="47.2997720" lon="6.8484180">
        <ele>749.6</ele>
        <time>2022-07-21T06:52:35Z</time>
      </trkpt>
      <trkpt lat="47.2997270" lon="6.8484160">
        <ele>749.7</ele>
        <time>2022-07-21T06:52:36Z</time>
      </trkpt>
      <trkpt lat="47.2996940" lon="6.8484190">
        <ele>749.7</ele>
        <time>2022-07-21T06:52:37Z</time>
      </trkpt>
      <trkpt lat="47.2996390" lon="6.8484240">
        <ele>749.7</ele>
        <time>2022-07-21T06:52:39Z</time>
      </trkpt>
      <trkpt lat="47.2995990" lon="6.8484250">
        <ele>749.7</ele>
        <time>2022-07-21T06:52:40Z</time>
      </trkpt>
      <trkpt lat="47.2995630" lon="6.8484240">
        <ele>749.7</ele>
        <time>2022-07-21T06:52:41Z</time>
      </trkpt>
      <trkpt lat="47.2995300" lon="6.8484290">
        <ele>749.7</ele>
        <time>2022-07-21T06:52:42Z</time>
      </trkpt>
      <trkpt lat="47.2994980" lon="6.8484320">
        <ele>749.7</ele>
        <time>2022-07-21T06:52:43Z</time>
      </trkpt>
      <trkpt lat="47.2994470" lon="6.8484330">
        <ele>749.7</ele>
        <time>2022-07-21T06:52:44Z</time>
      </trkpt>
      <trkpt lat="47.2994050" lon="6.8484320">
        <ele>749.6</ele>
        <time>2022-07-21T06:52:46Z</time>
      </trkpt>
      <trkpt lat="47.2993660" lon="6.8484300">
        <ele>749.6</ele>
        <time>2022-07-21T06:52:47Z</time>
      </trkpt>
      <trkpt lat="47.2993230" lon="6.8484210">
        <ele>749.6</ele>
        <time>2022-07-21T06:52:48Z</time>
      </trkpt>
      <trkpt lat="47.2992710" lon="6.8484060">
        <ele>749.6</ele>
        <time>2022-07-21T06:52:50Z</time>
      </trkpt>
      <trkpt lat="47.2992260" lon="6.8483810">
        <ele>749.7</ele>
        <time>2022-07-21T06:52:51Z</time>
      </trkpt>
      <trkpt lat="47.2991940" lon="6.8483610">
        <ele>749.7</ele>
        <time>2022-07-21T06:52:52Z</time>
      </trkpt>
      <trkpt lat="47.2991630" lon="6.8483360">
        <ele>749.7</ele>
        <time>2022-07-21T06:52:53Z</time>
      </trkpt>
      <trkpt lat="47.2991310" lon="6.8483060">
        <ele>749.7</ele>
        <time>2022-07-21T06:52:54Z</time>
      </trkpt>
      <trkpt lat="47.2990810" lon="6.8482640">
        <ele>749.8</ele>
        <time>2022-07-21T06:52:56Z</time>
      </trkpt>
      <trkpt lat="47.2990480" lon="6.8482330">
        <ele>749.9</ele>
        <time>2022-07-21T06:52:57Z</time>
      </trkpt>
      <trkpt lat="47.2990230" lon="6.8482050">
        <ele>750.0</ele>
        <time>2022-07-21T06:52:58Z</time>
      </trkpt>
      <trkpt lat="47.2989610" lon="6.8481370">
        <ele>750.2</ele>
        <time>2022-07-21T06:53:00Z</time>
      </trkpt>
      <trkpt lat="47.2989460" lon="6.8481120">
        <ele>750.3</ele>
        <time>2022-07-21T06:53:01Z</time>
      </trkpt>
      <trkpt lat="47.2989210" lon="6.8480750">
        <ele>750.4</ele>
        <time>2022-07-21T06:53:03Z</time>
      </trkpt>
      <trkpt lat="47.2989100" lon="6.8480620">
        <ele>750.5</ele>
        <time>2022-07-21T06:53:04Z</time>
      </trkpt>
      <trkpt lat="47.2988850" lon="6.8480340">
        <ele>750.7</ele>
        <time>2022-07-21T06:53:05Z</time>
      </trkpt>
      <trkpt lat="47.2988510" lon="6.8479890">
        <ele>751.0</ele>
        <time>2022-07-21T06:53:07Z</time>
      </trkpt>
      <trkpt lat="47.2988280" lon="6.8479650">
        <ele>751.2</ele>
        <time>2022-07-21T06:53:08Z</time>
      </trkpt>
      <trkpt lat="47.2988070" lon="6.8479550">
        <ele>751.3</ele>
        <time>2022-07-21T06:53:09Z</time>
      </trkpt>
      <trkpt lat="47.2987840" lon="6.8479520">
        <ele>751.5</ele>
        <time>2022-07-21T06:53:11Z</time>
      </trkpt>
      <trkpt lat="47.2987660" lon="6.8479470">
        <ele>751.6</ele>
        <time>2022-07-21T06:53:12Z</time>
      </trkpt>
      <trkpt lat="47.2987520" lon="6.8479340">
        <ele>751.7</ele>
        <time>2022-07-21T06:53:13Z</time>
      </trkpt>
      <trkpt lat="47.2987400" lon="6.8479160">
        <ele>751.9</ele>
        <time>2022-07-21T06:53:14Z</time>
      </trkpt>
      <trkpt lat="47.2987310" lon="6.8478940">
        <ele>752.0</ele>
        <time>2022-07-21T06:53:15Z</time>
      </trkpt>
      <trkpt lat="47.2987060" lon="6.8478620">
        <ele>752.2</ele>
        <time>2022-07-21T06:53:16Z</time>
      </trkpt>
      <trkpt lat="47.2986630" lon="6.8478310">
        <ele>752.6</ele>
        <time>2022-07-21T06:53:18Z</time>
      </trkpt>
      <trkpt lat="47.2986500" lon="6.8478220">
        <ele>752.7</ele>
        <time>2022-07-21T06:53:19Z</time>
      </trkpt>
      <trkpt lat="47.2986360" lon="6.8478120">
        <ele>752.8</ele>
        <time>2022-07-21T06:53:20Z</time>
      </trkpt>
      <trkpt lat="47.2986130" lon="6.8477950">
        <ele>752.9</ele>
        <time>2022-07-21T06:53:21Z</time>
      </trkpt>
      <trkpt lat="47.2986010" lon="6.8477890">
        <ele>753.0</ele>
        <time>2022-07-21T06:53:22Z</time>
      </trkpt>
      <trkpt lat="47.2985900" lon="6.8477830">
        <ele>753.1</ele>
        <time>2022-07-21T06:53:23Z</time>
      </trkpt>
      <trkpt lat="47.2985650" lon="6.8477630">
        <ele>753.3</ele>
        <time>2022-07-21T06:53:24Z</time>
      </trkpt>
      <trkpt lat="47.2985560" lon="6.8477540">
        <ele>753.3</ele>
        <time>2022-07-21T06:53:25Z</time>
      </trkpt>
      <trkpt lat="47.2985320" lon="6.8477220">
        <ele>753.5</ele>
        <time>2022-07-21T06:53:26Z</time>
      </trkpt>
      <trkpt lat="47.2985130" lon="6.8476940">
        <ele>753.6</ele>
        <time>2022-07-21T06:53:27Z</time>
      </trkpt>
      <trkpt lat="47.2984940" lon="6.8476690">
        <ele>753.8</ele>
        <time>2022-07-21T06:53:29Z</time>
      </trkpt>
      <trkpt lat="47.2984720" lon="6.8476420">
        <ele>753.9</ele>
        <time>2022-07-21T06:53:30Z</time>
      </trkpt>
      <trkpt lat="47.2984500" lon="6.8476110">
        <ele>754.1</ele>
        <time>2022-07-21T06:53:31Z</time>
      </trkpt>
      <trkpt lat="47.2984280" lon="6.8475860">
        <ele>754.2</ele>
        <time>2022-07-21T06:53:32Z</time>
      </trkpt>
      <trkpt lat="47.2984020" lon="6.8475550">
        <ele>754.4</ele>
        <time>2022-07-21T06:53:33Z</time>
      </trkpt>
      <trkpt lat="47.2983930" lon="6.8475450">
        <ele>754.5</ele>
        <time>2022-07-21T06:53:34Z</time>
      </trkpt>
      <trkpt lat="47.2983660" lon="6.8475100">
        <ele>754.6</ele>
        <time>2022-07-21T06:53:35Z</time>
      </trkpt>
      <trkpt lat="47.2983440" lon="6.8474800">
        <ele>754.8</ele>
        <time>2022-07-21T06:53:37Z</time>
      </trkpt>
      <trkpt lat="47.2983380" lon="6.8474720">
        <ele>754.8</ele>
        <time>2022-07-21T06:53:38Z</time>
      </trkpt>
      <trkpt lat="47.2983160" lon="6.8474370">
        <ele>754.9</ele>
        <time>2022-07-21T06:53:39Z</time>
      </trkpt>
      <trkpt lat="47.2983010" lon="6.8474030">
        <ele>755.0</ele>
        <time>2022-07-21T06:53:40Z</time>
      </trkpt>
      <trkpt lat="47.2982770" lon="6.8473600">
        <ele>755.1</ele>
        <time>2022-07-21T06:53:41Z</time>
      </trkpt>
      <trkpt lat="47.2982690" lon="6.8473470">
        <ele>755.1</ele>
        <time>2022-07-21T06:53:42Z</time>
      </trkpt>
      <trkpt lat="47.2982490" lon="6.8473180">
        <ele>755.2</ele>
        <time>2022-07-21T06:53:43Z</time>
      </trkpt>
      <trkpt lat="47.2982260" lon="6.8472770">
        <ele>755.3</ele>
        <time>2022-07-21T06:53:44Z</time>
      </trkpt>
      <trkpt lat="47.2982100" lon="6.8472410">
        <ele>755.3</ele>
        <time>2022-07-21T06:53:46Z</time>
      </trkpt>
      <trkpt lat="47.2981930" lon="6.8471910">
        <ele>755.4</ele>
        <time>2022-07-21T06:53:47Z</time>
      </trkpt>
      <trkpt lat="47.2981690" lon="6.8471310">
        <ele>755.5</ele>
        <time>2022-07-21T06:53:48Z</time>
      </trkpt>
      <trkpt lat="47.2981440" lon="6.8470720">
        <ele>755.6</ele>
        <time>2022-07-21T06:53:50Z</time>
      </trkpt>
      <trkpt lat="47.2981230" lon="6.8470200">
        <ele>755.6</ele>
        <time>2022-07-21T06:53:51Z</time>
      </trkpt>
      <trkpt lat="47.2981160" lon="6.8470020">
        <ele>755.6</ele>
        <time>2022-07-21T06:53:52Z</time>
      </trkpt>
      <trkpt lat="47.2980950" lon="6.8469540">
        <ele>755.7</ele>
        <time>2022-07-21T06:53:53Z</time>
      </trkpt>
      <trkpt lat="47.2980690" lon="6.8469060">
        <ele>755.8</ele>
        <time>2022-07-21T06:53:55Z</time>
      </trkpt>
      <trkpt lat="47.2980430" lon="6.8468680">
        <ele>755.8</ele>
        <time>2022-07-21T06:53:56Z</time>
      </trkpt>
      <trkpt lat="47.2980180" lon="6.8468370">
        <ele>755.9</ele>
        <time>2022-07-21T06:53:57Z</time>
      </trkpt>
      <trkpt lat="47.2979940" lon="6.8468100">
        <ele>756.0</ele>
        <time>2022-07-21T06:53:58Z</time>
      </trkpt>
      <trkpt lat="47.2979720" lon="6.8467860">
        <ele>756.1</ele>
        <time>2022-07-21T06:53:59Z</time>
      </trkpt>
      <trkpt lat="47.2979370" lon="6.8467580">
        <ele>756.2</ele>
        <time>2022-07-21T06:54:00Z</time>
      </trkpt>
      <trkpt lat="47.2979040" lon="6.8467390">
        <ele>756.3</ele>
        <time>2022-07-21T06:54:01Z</time>
      </trkpt>
      <trkpt lat="47.2978780" lon="6.8467270">
        <ele>756.4</ele>
        <time>2022-07-21T06:54:02Z</time>
      </trkpt>
      <trkpt lat="47.2978460" lon="6.8467100">
        <ele>756.5</ele>
        <time>2022-07-21T06:54:03Z</time>
      </trkpt>
      <trkpt lat="47.2978110" lon="6.8466960">
        <ele>756.6</ele>
        <time>2022-07-21T06:54:04Z</time>
      </trkpt>
      <trkpt lat="47.2977790" lon="6.8466880">
        <ele>756.7</ele>
        <time>2022-07-21T06:54:06Z</time>
      </trkpt>
      <trkpt lat="47.2977450" lon="6.8466750">
        <ele>756.8</ele>
        <time>2022-07-21T06:54:07Z</time>
      </trkpt>
      <trkpt lat="47.2977080" lon="6.8466570">
        <ele>757.0</ele>
        <time>2022-07-21T06:54:08Z</time>
      </trkpt>
      <trkpt lat="47.2976930" lon="6.8466500">
        <ele>757.1</ele>
        <time>2022-07-21T06:54:09Z</time>
      </trkpt>
      <trkpt lat="47.2976650" lon="6.8466360">
        <ele>757.2</ele>
        <time>2022-07-21T06:54:11Z</time>
      </trkpt>
      <trkpt lat="47.2976540" lon="6.8466300">
        <ele>757.3</ele>
        <time>2022-07-21T06:54:12Z</time>
      </trkpt>
      <trkpt lat="47.2976290" lon="6.8466120">
        <ele>757.4</ele>
        <time>2022-07-21T06:54:13Z</time>
      </trkpt>
      <trkpt lat="47.2976200" lon="6.8466020">
        <ele>757.4</ele>
        <time>2022-07-21T06:54:14Z</time>
      </trkpt>
      <trkpt lat="47.2975970" lon="6.8465800">
        <ele>757.6</ele>
        <time>2022-07-21T06:54:16Z</time>
      </trkpt>
      <trkpt lat="47.2975860" lon="6.8465760">
        <ele>757.6</ele>
        <time>2022-07-21T06:54:17Z</time>
      </trkpt>
      <trkpt lat="47.2975690" lon="6.8465740">
        <ele>757.7</ele>
        <time>2022-07-21T06:54:18Z</time>
      </trkpt>
      <trkpt lat="47.2975520" lon="6.8465700">
        <ele>757.8</ele>
        <time>2022-07-21T06:54:19Z</time>
      </trkpt>
      <trkpt lat="47.2975350" lon="6.8465660">
        <ele>757.9</ele>
        <time>2022-07-21T06:54:20Z</time>
      </trkpt>
      <trkpt lat="47.2975230" lon="6.8465570">
        <ele>758.0</ele>
        <time>2022-07-21T06:54:22Z</time>
      </trkpt>
      <trkpt lat="47.2975110" lon="6.8465410">
        <ele>758.1</ele>
        <time>2022-07-21T06:54:23Z</time>
      </trkpt>
      <trkpt lat="47.2975010" lon="6.8465300">
        <ele>758.2</ele>
        <time>2022-07-21T06:54:24Z</time>
      </trkpt>
      <trkpt lat="47.2974790" lon="6.8465350">
        <ele>758.4</ele>
        <time>2022-07-21T06:54:25Z</time>
      </trkpt>
      <trkpt lat="47.2974650" lon="6.8465400">
        <ele>758.5</ele>
        <time>2022-07-21T06:54:26Z</time>
      </trkpt>
      <trkpt lat="47.2974430" lon="6.8465370">
        <ele>758.6</ele>
        <time>2022-07-21T06:54:28Z</time>
      </trkpt>
      <trkpt lat="47.2974350" lon="6.8465320">
        <ele>758.7</ele>
        <time>2022-07-21T06:54:29Z</time>
      </trkpt>
      <trkpt lat="47.2974270" lon="6.8465270">
        <ele>758.8</ele>
        <time>2022-07-21T06:54:30Z</time>
      </trkpt>
      <trkpt lat="47.2974150" lon="6.8465170">
        <ele>758.9</ele>
        <time>2022-07-21T06:54:31Z</time>
      </trkpt>
      <trkpt lat="47.2974000" lon="6.8465070">
        <ele>759.0</ele>
        <time>2022-07-21T06:54:32Z</time>
      </trkpt>
      <trkpt lat="47.2973840" lon="6.8464980">
        <ele>759.1</ele>
        <time>2022-07-21T06:54:33Z</time>
      </trkpt>
      <trkpt lat="47.2973440" lon="6.8464840">
        <ele>759.4</ele>
        <time>2022-07-21T06:54:35Z</time>
      </trkpt>
      <trkpt lat="47.2973260" lon="6.8464730">
        <ele>759.6</ele>
        <time>2022-07-21T06:54:37Z</time>
      </trkpt>
      <trkpt lat="47.2973110" lon="6.8464650">
        <ele>759.7</ele>
        <time>2022-07-21T06:54:38Z</time>
      </trkpt>
      <trkpt lat="47.2972950" lon="6.8464580">
        <ele>759.9</ele>
        <time>2022-07-21T06:54:39Z</time>
      </trkpt>
      <trkpt lat="47.2972750" lon="6.8464590">
        <ele>760.0</ele>
        <time>2022-07-21T06:54:40Z</time>
      </trkpt>
      <trkpt lat="47.2972680" lon="6.8464680">
        <ele>760.1</ele>
        <time>2022-07-21T06:54:41Z</time>
      </trkpt>
      <trkpt lat="47.2972600" lon="6.8464760">
        <ele>760.2</ele>
        <time>2022-07-21T06:54:42Z</time>
      </trkpt>
      <trkpt lat="47.2972520" lon="6.8464770">
        <ele>760.3</ele>
        <time>2022-07-21T06:54:44Z</time>
      </trkpt>
      <trkpt lat="47.2972520" lon="6.8464750">
        <ele>760.3</ele>
        <time>2022-07-21T06:54:45Z</time>
      </trkpt>
      <trkpt lat="47.2972540" lon="6.8464730">
        <ele>760.3</ele>
        <time>2022-07-21T06:54:46Z</time>
      </trkpt>
      <trkpt lat="47.2972550" lon="6.8464720">
        <ele>760.3</ele>
        <time>2022-07-21T06:54:47Z</time>
      </trkpt>
      <trkpt lat="47.2972550" lon="6.8464690">
        <ele>760.3</ele>
        <time>2022-07-21T06:54:48Z</time>
      </trkpt>
      <trkpt lat="47.2972540" lon="6.8464650">
        <ele>760.4</ele>
        <time>2022-07-21T06:54:49Z</time>
      </trkpt>
      <trkpt lat="47.2972530" lon="6.8464620">
        <ele>760.4</ele>
        <time>2022-07-21T06:54:50Z</time>
      </trkpt>
      <trkpt lat="47.2972520" lon="6.8464580">
        <ele>760.4</ele>
        <time>2022-07-21T06:54:51Z</time>
      </trkpt>
      <trkpt lat="47.2972520" lon="6.8464530">
        <ele>760.5</ele>
        <time>2022-07-21T06:54:52Z</time>
      </trkpt>
      <trkpt lat="47.2972270" lon="6.8464060">
        <ele>760.8</ele>
        <time>2022-07-21T06:55:09Z</time>
      </trkpt>
      <trkpt lat="47.2972080" lon="6.8463950">
        <ele>761.0</ele>
        <time>2022-07-21T06:55:10Z</time>
      </trkpt>
      <trkpt lat="47.2971960" lon="6.8463860">
        <ele>761.2</ele>
        <time>2022-07-21T06:55:11Z</time>
      </trkpt>
      <trkpt lat="47.2971810" lon="6.8463720">
        <ele>761.4</ele>
        <time>2022-07-21T06:55:12Z</time>
      </trkpt>
      <trkpt lat="47.2971710" lon="6.8463610">
        <ele>761.5</ele>
        <time>2022-07-21T06:55:13Z</time>
      </trkpt>
      <trkpt lat="47.2971600" lon="6.8463490">
        <ele>761.7</ele>
        <time>2022-07-21T06:55:15Z</time>
      </trkpt>
      <trkpt lat="47.2971460" lon="6.8463330">
        <ele>761.9</ele>
        <time>2022-07-21T06:55:16Z</time>
      </trkpt>
      <trkpt lat="47.2971280" lon="6.8463130">
        <ele>762.1</ele>
        <time>2022-07-21T06:55:17Z</time>
      </trkpt>
      <trkpt lat="47.2971050" lon="6.8462970">
        <ele>762.4</ele>
        <time>2022-07-21T06:55:19Z</time>
      </trkpt>
      <trkpt lat="47.2970910" lon="6.8462900">
        <ele>762.6</ele>
        <time>2022-07-21T06:55:20Z</time>
      </trkpt>
      <trkpt lat="47.2970780" lon="6.8462840">
        <ele>762.7</ele>
        <time>2022-07-21T06:55:21Z</time>
      </trkpt>
      <trkpt lat="47.2970480" lon="6.8462710">
        <ele>763.1</ele>
        <time>2022-07-21T06:55:23Z</time>
      </trkpt>
      <trkpt lat="47.2970350" lon="6.8462660">
        <ele>763.2</ele>
        <time>2022-07-21T06:55:24Z</time>
      </trkpt>
      <trkpt lat="47.2970220" lon="6.8462590">
        <ele>763.4</ele>
        <time>2022-07-21T06:55:25Z</time>
      </trkpt>
      <trkpt lat="47.2970100" lon="6.8462500">
        <ele>763.6</ele>
        <time>2022-07-21T06:55:26Z</time>
      </trkpt>
      <trkpt lat="47.2969940" lon="6.8462380">
        <ele>763.8</ele>
        <time>2022-07-21T06:55:28Z</time>
      </trkpt>
      <trkpt lat="47.2969790" lon="6.8462260">
        <ele>764.0</ele>
        <time>2022-07-21T06:55:29Z</time>
      </trkpt>
      <trkpt lat="47.2969710" lon="6.8462180">
        <ele>764.1</ele>
        <time>2022-07-21T06:55:30Z</time>
      </trkpt>
      <trkpt lat="47.2969640" lon="6.8462110">
        <ele>764.2</ele>
        <time>2022-07-21T06:55:31Z</time>
      </trkpt>
      <trkpt lat="47.2969610" lon="6.8462050">
        <ele>764.2</ele>
        <time>2022-07-21T06:55:32Z</time>
      </trkpt>
      <trkpt lat="47.2969580" lon="6.8462000">
        <ele>764.3</ele>
        <time>2022-07-21T06:55:33Z</time>
      </trkpt>
      <trkpt lat="47.2969520" lon="6.8461890">
        <ele>764.4</ele>
        <time>2022-07-21T06:55:34Z</time>
      </trkpt>
      <trkpt lat="47.2969500" lon="6.8461860">
        <ele>764.4</ele>
        <time>2022-07-21T06:55:35Z</time>
      </trkpt>
      <trkpt lat="47.2969470" lon="6.8461840">
        <ele>764.5</ele>
        <time>2022-07-21T06:55:36Z</time>
      </trkpt>
      <trkpt lat="47.2969440" lon="6.8461810">
        <ele>764.5</ele>
        <time>2022-07-21T06:55:38Z</time>
      </trkpt>
      <trkpt lat="47.2969420" lon="6.8461780">
        <ele>764.5</ele>
        <time>2022-07-21T06:55:39Z</time>
      </trkpt>
      <trkpt lat="47.2969390" lon="6.8461760">
        <ele>764.6</ele>
        <time>2022-07-21T06:55:41Z</time>
      </trkpt>
      <trkpt lat="47.2969370" lon="6.8461730">
        <ele>764.6</ele>
        <time>2022-07-21T06:55:42Z</time>
      </trkpt>
      <trkpt lat="47.2969340" lon="6.8461700">
        <ele>764.7</ele>
        <time>2022-07-21T06:55:43Z</time>
      </trkpt>
      <trkpt lat="47.2969310" lon="6.8461670">
        <ele>764.7</ele>
        <time>2022-07-21T06:55:45Z</time>
      </trkpt>
      <trkpt lat="47.2969290" lon="6.8461650">
        <ele>764.7</ele>
        <time>2022-07-21T06:55:46Z</time>
      </trkpt>
      <trkpt lat="47.2969260" lon="6.8461620">
        <ele>764.8</ele>
        <time>2022-07-21T06:55:47Z</time>
      </trkpt>
      <trkpt lat="47.2969240" lon="6.8461590">
        <ele>764.8</ele>
        <time>2022-07-21T06:55:48Z</time>
      </trkpt>
      <trkpt lat="47.2969210" lon="6.8461570">
        <ele>764.8</ele>
        <time>2022-07-21T06:55:50Z</time>
      </trkpt>
      <trkpt lat="47.2969180" lon="6.8461540">
        <ele>764.9</ele>
        <time>2022-07-21T06:55:51Z</time>
      </trkpt>
      <trkpt lat="47.2969160" lon="6.8461510">
        <ele>764.9</ele>
        <time>2022-07-21T06:55:52Z</time>
      </trkpt>
      <trkpt lat="47.2969130" lon="6.8461490">
        <ele>764.9</ele>
        <time>2022-07-21T06:55:53Z</time>
      </trkpt>
      <trkpt lat="47.2969110" lon="6.8461460">
        <ele>765.0</ele>
        <time>2022-07-21T06:55:54Z</time>
      </trkpt>
      <trkpt lat="47.2969080" lon="6.8461430">
        <ele>765.0</ele>
        <time>2022-07-21T06:55:56Z</time>
      </trkpt>
      <trkpt lat="47.2969050" lon="6.8461400">
        <ele>765.1</ele>
        <time>2022-07-21T06:55:57Z</time>
      </trkpt>
      <trkpt lat="47.2968860" lon="6.8461290">
        <ele>765.3</ele>
        <time>2022-07-21T06:55:58Z</time>
      </trkpt>
      <trkpt lat="47.2968780" lon="6.8461270">
        <ele>765.4</ele>
        <time>2022-07-21T06:55:59Z</time>
      </trkpt>
      <trkpt lat="47.2968690" lon="6.8461240">
        <ele>765.5</ele>
        <time>2022-07-21T06:56:00Z</time>
      </trkpt>
      <trkpt lat="47.2968430" lon="6.8461220">
        <ele>765.7</ele>
        <time>2022-07-21T06:56:02Z</time>
      </trkpt>
      <trkpt lat="47.2968270" lon="6.8461200">
        <ele>765.9</ele>
        <time>2022-07-21T06:56:04Z</time>
      </trkpt>
      <trkpt lat="47.2968000" lon="6.8461140">
        <ele>766.2</ele>
        <time>2022-07-21T06:56:05Z</time>
      </trkpt>
      <trkpt lat="47.2967730" lon="6.8461090">
        <ele>766.4</ele>
        <time>2022-07-21T06:56:07Z</time>
      </trkpt>
      <trkpt lat="47.2967630" lon="6.8461050">
        <ele>766.5</ele>
        <time>2022-07-21T06:56:08Z</time>
      </trkpt>
      <trkpt lat="47.2967480" lon="6.8460990">
        <ele>766.6</ele>
        <time>2022-07-21T06:56:09Z</time>
      </trkpt>
      <trkpt lat="47.2967360" lon="6.8460940">
        <ele>766.7</ele>
        <time>2022-07-21T06:56:10Z</time>
      </trkpt>
      <trkpt lat="47.2967200" lon="6.8460910">
        <ele>766.9</ele>
        <time>2022-07-21T06:56:11Z</time>
      </trkpt>
      <trkpt lat="47.2967040" lon="6.8460870">
        <ele>767.0</ele>
        <time>2022-07-21T06:56:12Z</time>
      </trkpt>
      <trkpt lat="47.2966910" lon="6.8460860">
        <ele>767.1</ele>
        <time>2022-07-21T06:56:13Z</time>
      </trkpt>
      <trkpt lat="47.2966770" lon="6.8460870">
        <ele>767.2</ele>
        <time>2022-07-21T06:56:15Z</time>
      </trkpt>
      <trkpt lat="47.2966660" lon="6.8460850">
        <ele>767.3</ele>
        <time>2022-07-21T06:56:16Z</time>
      </trkpt>
      <trkpt lat="47.2966580" lon="6.8460830">
        <ele>767.4</ele>
        <time>2022-07-21T06:56:17Z</time>
      </trkpt>
      <trkpt lat="47.2966470" lon="6.8460800">
        <ele>767.5</ele>
        <time>2022-07-21T06:56:18Z</time>
      </trkpt>
      <trkpt lat="47.2966190" lon="6.8460650">
        <ele>767.7</ele>
        <time>2022-07-21T06:56:19Z</time>
      </trkpt>
      <trkpt lat="47.2966110" lon="6.8460600">
        <ele>767.8</ele>
        <time>2022-07-21T06:56:20Z</time>
      </trkpt>
      <trkpt lat="47.2965860" lon="6.8460380">
        <ele>768.1</ele>
        <time>2022-07-21T06:56:21Z</time>
      </trkpt>
      <trkpt lat="47.2965750" lon="6.8460250">
        <ele>768.2</ele>
        <time>2022-07-21T06:56:23Z</time>
      </trkpt>
      <trkpt lat="47.2965650" lon="6.8460120">
        <ele>768.3</ele>
        <time>2022-07-21T06:56:24Z</time>
      </trkpt>
      <trkpt lat="47.2965540" lon="6.8459980">
        <ele>768.4</ele>
        <time>2022-07-21T06:56:25Z</time>
      </trkpt>
      <trkpt lat="47.2965440" lon="6.8459900">
        <ele>768.5</ele>
        <time>2022-07-21T06:56:26Z</time>
      </trkpt>
      <trkpt lat="47.2965320" lon="6.8459890">
        <ele>768.6</ele>
        <time>2022-07-21T06:56:27Z</time>
      </trkpt>
      <trkpt lat="47.2965230" lon="6.8459880">
        <ele>768.7</ele>
        <time>2022-07-21T06:56:28Z</time>
      </trkpt>
      <trkpt lat="47.2964970" lon="6.8459860">
        <ele>768.9</ele>
        <time>2022-07-21T06:56:29Z</time>
      </trkpt>
      <trkpt lat="47.2964860" lon="6.8459860">
        <ele>769.0</ele>
        <time>2022-07-21T06:56:31Z</time>
      </trkpt>
      <trkpt lat="47.2964760" lon="6.8459860">
        <ele>769.1</ele>
        <time>2022-07-21T06:56:32Z</time>
      </trkpt>
      <trkpt lat="47.2964650" lon="6.8459860">
        <ele>769.2</ele>
        <time>2022-07-21T06:56:33Z</time>
      </trkpt>
      <trkpt lat="47.2964550" lon="6.8459860">
        <ele>769.3</ele>
        <time>2022-07-21T06:56:34Z</time>
      </trkpt>
      <trkpt lat="47.2964390" lon="6.8459710">
        <ele>769.4</ele>
        <time>2022-07-21T06:56:35Z</time>
      </trkpt>
      <trkpt lat="47.2964170" lon="6.8459510">
        <ele>769.6</ele>
        <time>2022-07-21T06:56:37Z</time>
      </trkpt>
      <trkpt lat="47.2964020" lon="6.8459360">
        <ele>769.8</ele>
        <time>2022-07-21T06:56:38Z</time>
      </trkpt>
      <trkpt lat="47.2963890" lon="6.8459230">
        <ele>769.9</ele>
        <time>2022-07-21T06:56:39Z</time>
      </trkpt>
      <trkpt lat="47.2963580" lon="6.8459050">
        <ele>770.2</ele>
        <time>2022-07-21T06:56:40Z</time>
      </trkpt>
      <trkpt lat="47.2963440" lon="6.8459040">
        <ele>770.3</ele>
        <time>2022-07-21T06:56:41Z</time>
      </trkpt>
      <trkpt lat="47.2963240" lon="6.8459020">
        <ele>770.4</ele>
        <time>2022-07-21T06:56:42Z</time>
      </trkpt>
      <trkpt lat="47.2963040" lon="6.8459010">
        <ele>770.6</ele>
        <time>2022-07-21T06:56:44Z</time>
      </trkpt>
      <trkpt lat="47.2962880" lon="6.8459000">
        <ele>770.7</ele>
        <time>2022-07-21T06:56:45Z</time>
      </trkpt>
      <trkpt lat="47.2962610" lon="6.8458960">
        <ele>770.9</ele>
        <time>2022-07-21T06:56:47Z</time>
      </trkpt>
      <trkpt lat="47.2962320" lon="6.8458920">
        <ele>771.1</ele>
        <time>2022-07-21T06:56:48Z</time>
      </trkpt>
      <trkpt lat="47.2962240" lon="6.8458920">
        <ele>771.1</ele>
        <time>2022-07-21T06:56:49Z</time>
      </trkpt>
      <trkpt lat="47.2962100" lon="6.8458930">
        <ele>771.2</ele>
        <time>2022-07-21T06:56:50Z</time>
      </trkpt>
      <trkpt lat="47.2961940" lon="6.8458960">
        <ele>771.4</ele>
        <time>2022-07-21T06:56:51Z</time>
      </trkpt>
      <trkpt lat="47.2961650" lon="6.8459010">
        <ele>771.5</ele>
        <time>2022-07-21T06:56:52Z</time>
      </trkpt>
      <trkpt lat="47.2961530" lon="6.8459040">
        <ele>771.6</ele>
        <time>2022-07-21T06:56:53Z</time>
      </trkpt>
      <trkpt lat="47.2961330" lon="6.8459050">
        <ele>771.8</ele>
        <time>2022-07-21T06:56:54Z</time>
      </trkpt>
      <trkpt lat="47.2961110" lon="6.8459070">
        <ele>771.9</ele>
        <time>2022-07-21T06:56:56Z</time>
      </trkpt>
      <trkpt lat="47.2960810" lon="6.8459110">
        <ele>772.1</ele>
        <time>2022-07-21T06:56:57Z</time>
      </trkpt>
      <trkpt lat="47.2960640" lon="6.8459130">
        <ele>772.2</ele>
        <time>2022-07-21T06:56:58Z</time>
      </trkpt>
      <trkpt lat="47.2960450" lon="6.8459160">
        <ele>772.3</ele>
        <time>2022-07-21T06:57:00Z</time>
      </trkpt>
      <trkpt lat="47.2960150" lon="6.8459190">
        <ele>772.5</ele>
        <time>2022-07-21T06:57:01Z</time>
      </trkpt>
      <trkpt lat="47.2960060" lon="6.8459200">
        <ele>772.6</ele>
        <time>2022-07-21T06:57:02Z</time>
      </trkpt>
      <trkpt lat="47.2959860" lon="6.8459250">
        <ele>772.7</ele>
        <time>2022-07-21T06:57:03Z</time>
      </trkpt>
      <trkpt lat="47.2959710" lon="6.8459300">
        <ele>772.9</ele>
        <time>2022-07-21T06:57:04Z</time>
      </trkpt>
      <trkpt lat="47.2959560" lon="6.8459340">
        <ele>773.0</ele>
        <time>2022-07-21T06:57:05Z</time>
      </trkpt>
      <trkpt lat="47.2959420" lon="6.8459370">
        <ele>773.1</ele>
        <time>2022-07-21T06:57:06Z</time>
      </trkpt>
      <trkpt lat="47.2959260" lon="6.8459400">
        <ele>773.2</ele>
        <time>2022-07-21T06:57:07Z</time>
      </trkpt>
      <trkpt lat="47.2959070" lon="6.8459420">
        <ele>773.3</ele>
        <time>2022-07-21T06:57:08Z</time>
      </trkpt>
      <trkpt lat="47.2958920" lon="6.8459410">
        <ele>773.4</ele>
        <time>2022-07-21T06:57:09Z</time>
      </trkpt>
      <trkpt lat="47.2958790" lon="6.8459420">
        <ele>773.5</ele>
        <time>2022-07-21T06:57:10Z</time>
      </trkpt>
      <trkpt lat="47.2958610" lon="6.8459460">
        <ele>773.7</ele>
        <time>2022-07-21T06:57:12Z</time>
      </trkpt>
      <trkpt lat="47.2958460" lon="6.8459490">
        <ele>773.8</ele>
        <time>2022-07-21T06:57:13Z</time>
      </trkpt>
      <trkpt lat="47.2958300" lon="6.8459500">
        <ele>773.9</ele>
        <time>2022-07-21T06:57:14Z</time>
      </trkpt>
      <trkpt lat="47.2958180" lon="6.8459520">
        <ele>774.0</ele>
        <time>2022-07-21T06:57:15Z</time>
      </trkpt>
      <trkpt lat="47.2958030" lon="6.8459540">
        <ele>774.1</ele>
        <time>2022-07-21T06:57:16Z</time>
      </trkpt>
      <trkpt lat="47.2957870" lon="6.8459570">
        <ele>774.3</ele>
        <time>2022-07-21T06:57:17Z</time>
      </trkpt>
      <trkpt lat="47.2957740" lon="6.8459540">
        <ele>774.4</ele>
        <time>2022-07-21T06:57:18Z</time>
      </trkpt>
      <trkpt lat="47.2957570" lon="6.8459450">
        <ele>774.5</ele>
        <time>2022-07-21T06:57:19Z</time>
      </trkpt>
      <trkpt lat="47.2957360" lon="6.8459440">
        <ele>774.7</ele>
        <time>2022-07-21T06:57:21Z</time>
      </trkpt>
      <trkpt lat="47.2957230" lon="6.8459430">
        <ele>774.8</ele>
        <time>2022-07-21T06:57:22Z</time>
      </trkpt>
      <trkpt lat="47.2957140" lon="6.8459400">
        <ele>774.9</ele>
        <time>2022-07-21T06:57:23Z</time>
      </trkpt>
      <trkpt lat="47.2956900" lon="6.8459450">
        <ele>775.1</ele>
        <time>2022-07-21T06:57:24Z</time>
      </trkpt>
      <trkpt lat="47.2956750" lon="6.8459470">
        <ele>775.2</ele>
        <time>2022-07-21T06:57:26Z</time>
      </trkpt>
      <trkpt lat="47.2956610" lon="6.8459470">
        <ele>775.3</ele>
        <time>2022-07-21T06:57:27Z</time>
      </trkpt>
      <trkpt lat="47.2956440" lon="6.8459460">
        <ele>775.5</ele>
        <time>2022-07-21T06:57:28Z</time>
      </trkpt>
      <trkpt lat="47.2956280" lon="6.8459450">
        <ele>775.6</ele>
        <time>2022-07-21T06:57:29Z</time>
      </trkpt>
      <trkpt lat="47.2956020" lon="6.8459490">
        <ele>775.9</ele>
        <time>2022-07-21T06:57:30Z</time>
      </trkpt>
      <trkpt lat="47.2955830" lon="6.8459510">
        <ele>776.0</ele>
        <time>2022-07-21T06:57:32Z</time>
      </trkpt>
      <trkpt lat="47.2955590" lon="6.8459290">
        <ele>776.3</ele>
        <time>2022-07-21T06:57:33Z</time>
      </trkpt>
      <trkpt lat="47.2955300" lon="6.8459190">
        <ele>776.6</ele>
        <time>2022-07-21T06:57:34Z</time>
      </trkpt>
      <trkpt lat="47.2955190" lon="6.8459170">
        <ele>776.7</ele>
        <time>2022-07-21T06:57:35Z</time>
      </trkpt>
      <trkpt lat="47.2955000" lon="6.8459180">
        <ele>776.9</ele>
        <time>2022-07-21T06:57:37Z</time>
      </trkpt>
      <trkpt lat="47.2954850" lon="6.8459170">
        <ele>777.1</ele>
        <time>2022-07-21T06:57:38Z</time>
      </trkpt>
      <trkpt lat="47.2954710" lon="6.8459220">
        <ele>777.2</ele>
        <time>2022-07-21T06:57:39Z</time>
      </trkpt>
      <trkpt lat="47.2954490" lon="6.8459250">
        <ele>777.4</ele>
        <time>2022-07-21T06:57:40Z</time>
      </trkpt>
      <trkpt lat="47.2954340" lon="6.8459300">
        <ele>777.6</ele>
        <time>2022-07-21T06:57:41Z</time>
      </trkpt>
      <trkpt lat="47.2954200" lon="6.8459370">
        <ele>777.7</ele>
        <time>2022-07-21T06:57:42Z</time>
      </trkpt>
      <trkpt lat="47.2954020" lon="6.8459440">
        <ele>777.9</ele>
        <time>2022-07-21T06:57:44Z</time>
      </trkpt>
      <trkpt lat="47.2953880" lon="6.8459500">
        <ele>778.1</ele>
        <time>2022-07-21T06:57:45Z</time>
      </trkpt>
      <trkpt lat="47.2953700" lon="6.8459600">
        <ele>778.3</ele>
        <time>2022-07-21T06:57:46Z</time>
      </trkpt>
      <trkpt lat="47.2953580" lon="6.8459660">
        <ele>778.4</ele>
        <time>2022-07-21T06:57:47Z</time>
      </trkpt>
      <trkpt lat="47.2953380" lon="6.8459710">
        <ele>778.6</ele>
        <time>2022-07-21T06:57:48Z</time>
      </trkpt>
      <trkpt lat="47.2953290" lon="6.8459720">
        <ele>778.7</ele>
        <time>2022-07-21T06:57:49Z</time>
      </trkpt>
      <trkpt lat="47.2953190" lon="6.8459740">
        <ele>778.8</ele>
        <time>2022-07-21T06:57:50Z</time>
      </trkpt>
      <trkpt lat="47.2953040" lon="6.8459860">
        <ele>779.0</ele>
        <time>2022-07-21T06:57:51Z</time>
      </trkpt>
      <trkpt lat="47.2952910" lon="6.8459970">
        <ele>779.1</ele>
        <time>2022-07-21T06:57:52Z</time>
      </trkpt>
      <trkpt lat="47.2952770" lon="6.8460100">
        <ele>779.3</ele>
        <time>2022-07-21T06:57:54Z</time>
      </trkpt>
      <trkpt lat="47.2952600" lon="6.8460190">
        <ele>779.5</ele>
        <time>2022-07-21T06:57:55Z</time>
      </trkpt>
      <trkpt lat="47.2952320" lon="6.8460360">
        <ele>779.8</ele>
        <time>2022-07-21T06:57:56Z</time>
      </trkpt>
      <trkpt lat="47.2952200" lon="6.8460440">
        <ele>779.9</ele>
        <time>2022-07-21T06:57:57Z</time>
      </trkpt>
      <trkpt lat="47.2951840" lon="6.8460710">
        <ele>780.3</ele>
        <time>2022-07-21T06:57:59Z</time>
      </trkpt>
      <trkpt lat="47.2951730" lon="6.8460780">
        <ele>780.5</ele>
        <time>2022-07-21T06:58:00Z</time>
      </trkpt>
      <trkpt lat="47.2951610" lon="6.8460850">
        <ele>780.6</ele>
        <time>2022-07-21T06:58:01Z</time>
      </trkpt>
      <trkpt lat="47.2951500" lon="6.8460910">
        <ele>780.7</ele>
        <time>2022-07-21T06:58:02Z</time>
      </trkpt>
      <trkpt lat="47.2951390" lon="6.8460960">
        <ele>780.8</ele>
        <time>2022-07-21T06:58:04Z</time>
      </trkpt>
      <trkpt lat="47.2951280" lon="6.8461030">
        <ele>780.9</ele>
        <time>2022-07-21T06:58:05Z</time>
      </trkpt>
      <trkpt lat="47.2951140" lon="6.8461130">
        <ele>781.1</ele>
        <time>2022-07-21T06:58:06Z</time>
      </trkpt>
      <trkpt lat="47.2951000" lon="6.8461220">
        <ele>781.2</ele>
        <time>2022-07-21T06:58:07Z</time>
      </trkpt>
      <trkpt lat="47.2950740" lon="6.8461380">
        <ele>781.5</ele>
        <time>2022-07-21T06:58:08Z</time>
      </trkpt>
      <trkpt lat="47.2950620" lon="6.8461450">
        <ele>781.6</ele>
        <time>2022-07-21T06:58:10Z</time>
      </trkpt>
      <trkpt lat="47.2950500" lon="6.8461530">
        <ele>781.8</ele>
        <time>2022-07-21T06:58:11Z</time>
      </trkpt>
      <trkpt lat="47.2950380" lon="6.8461600">
        <ele>781.9</ele>
        <time>2022-07-21T06:58:12Z</time>
      </trkpt>
      <trkpt lat="47.2950080" lon="6.8461810">
        <ele>782.2</ele>
        <time>2022-07-21T06:58:14Z</time>
      </trkpt>
      <trkpt lat="47.2949960" lon="6.8461900">
        <ele>782.4</ele>
        <time>2022-07-21T06:58:15Z</time>
      </trkpt>
      <trkpt lat="47.2949800" lon="6.8462050">
        <ele>782.6</ele>
        <time>2022-07-21T06:58:16Z</time>
      </trkpt>
      <trkpt lat="47.2949670" lon="6.8462170">
        <ele>782.7</ele>
        <time>2022-07-21T06:58:17Z</time>
      </trkpt>
      <trkpt lat="47.2949550" lon="6.8462300">
        <ele>782.9</ele>
        <time>2022-07-21T06:58:18Z</time>
      </trkpt>
      <trkpt lat="47.2949460" lon="6.8462430">
        <ele>783.0</ele>
        <time>2022-07-21T06:58:20Z</time>
      </trkpt>
      <trkpt lat="47.2949380" lon="6.8462500">
        <ele>783.1</ele>
        <time>2022-07-21T06:58:21Z</time>
      </trkpt>
      <trkpt lat="47.2949290" lon="6.8462540">
        <ele>783.2</ele>
        <time>2022-07-21T06:58:22Z</time>
      </trkpt>
      <trkpt lat="47.2949190" lon="6.8462540">
        <ele>783.3</ele>
        <time>2022-07-21T06:58:23Z</time>
      </trkpt>
      <trkpt lat="47.2949110" lon="6.8462550">
        <ele>783.4</ele>
        <time>2022-07-21T06:58:24Z</time>
      </trkpt>
      <trkpt lat="47.2949020" lon="6.8462580">
        <ele>783.5</ele>
        <time>2022-07-21T06:58:25Z</time>
      </trkpt>
      <trkpt lat="47.2948940" lon="6.8462630">
        <ele>783.6</ele>
        <time>2022-07-21T06:58:26Z</time>
      </trkpt>
      <trkpt lat="47.2948850" lon="6.8462670">
        <ele>783.7</ele>
        <time>2022-07-21T06:58:27Z</time>
      </trkpt>
      <trkpt lat="47.2948770" lon="6.8462730">
        <ele>783.8</ele>
        <time>2022-07-21T06:58:28Z</time>
      </trkpt>
      <trkpt lat="47.2948680" lon="6.8462780">
        <ele>783.9</ele>
        <time>2022-07-21T06:58:29Z</time>
      </trkpt>
      <trkpt lat="47.2948580" lon="6.8462860">
        <ele>784.0</ele>
        <time>2022-07-21T06:58:30Z</time>
      </trkpt>
      <trkpt lat="47.2948300" lon="6.8462990">
        <ele>784.3</ele>
        <time>2022-07-21T06:58:31Z</time>
      </trkpt>
      <trkpt lat="47.2948200" lon="6.8463040">
        <ele>784.4</ele>
        <time>2022-07-21T06:58:33Z</time>
      </trkpt>
      <trkpt lat="47.2948090" lon="6.8463090">
        <ele>784.6</ele>
        <time>2022-07-21T06:58:34Z</time>
      </trkpt>
      <trkpt lat="47.2947990" lon="6.8463140">
        <ele>784.7</ele>
        <time>2022-07-21T06:58:35Z</time>
      </trkpt>
      <trkpt lat="47.2947880" lon="6.8463190">
        <ele>784.8</ele>
        <time>2022-07-21T06:58:36Z</time>
      </trkpt>
      <trkpt lat="47.2947780" lon="6.8463180">
        <ele>784.9</ele>
        <time>2022-07-21T06:58:37Z</time>
      </trkpt>
      <trkpt lat="47.2947670" lon="6.8463130">
        <ele>785.0</ele>
        <time>2022-07-21T06:58:38Z</time>
      </trkpt>
      <trkpt lat="47.2947570" lon="6.8463110">
        <ele>785.1</ele>
        <time>2022-07-21T06:58:39Z</time>
      </trkpt>
      <trkpt lat="47.2947460" lon="6.8463090">
        <ele>785.2</ele>
        <time>2022-07-21T06:58:40Z</time>
      </trkpt>
      <trkpt lat="47.2947270" lon="6.8463080">
        <ele>785.4</ele>
        <time>2022-07-21T06:58:41Z</time>
      </trkpt>
      <trkpt lat="47.2947130" lon="6.8463070">
        <ele>785.6</ele>
        <time>2022-07-21T06:58:43Z</time>
      </trkpt>
      <trkpt lat="47.2946930" lon="6.8463050">
        <ele>785.8</ele>
        <time>2022-07-21T06:58:44Z</time>
      </trkpt>
      <trkpt lat="47.2946760" lon="6.8463010">
        <ele>785.9</ele>
        <time>2022-07-21T06:58:45Z</time>
      </trkpt>
      <trkpt lat="47.2946620" lon="6.8462960">
        <ele>786.1</ele>
        <time>2022-07-21T06:58:46Z</time>
      </trkpt>
      <trkpt lat="47.2946460" lon="6.8462910">
        <ele>786.3</ele>
        <time>2022-07-21T06:58:47Z</time>
      </trkpt>
      <trkpt lat="47.2946350" lon="6.8462860">
        <ele>786.4</ele>
        <time>2022-07-21T06:58:48Z</time>
      </trkpt>
      <trkpt lat="47.2946090" lon="6.8462740">
        <ele>786.7</ele>
        <time>2022-07-21T06:58:49Z</time>
      </trkpt>
      <trkpt lat="47.2945940" lon="6.8462680">
        <ele>786.9</ele>
        <time>2022-07-21T06:58:51Z</time>
      </trkpt>
      <trkpt lat="47.2945780" lon="6.8462630">
        <ele>787.0</ele>
        <time>2022-07-21T06:58:52Z</time>
      </trkpt>
      <trkpt lat="47.2945630" lon="6.8462570">
        <ele>787.2</ele>
        <time>2022-07-21T06:58:53Z</time>
      </trkpt>
      <trkpt lat="47.2945480" lon="6.8462430">
        <ele>787.4</ele>
        <time>2022-07-21T06:58:55Z</time>
      </trkpt>
      <trkpt lat="47.2945230" lon="6.8462380">
        <ele>787.7</ele>
        <time>2022-07-21T06:58:56Z</time>
      </trkpt>
      <trkpt lat="47.2945120" lon="6.8462400">
        <ele>787.8</ele>
        <time>2022-07-21T06:58:58Z</time>
      </trkpt>
      <trkpt lat="47.2945020" lon="6.8462430">
        <ele>787.9</ele>
        <time>2022-07-21T06:58:59Z</time>
      </trkpt>
      <trkpt lat="47.2944940" lon="6.8462430">
        <ele>788.0</ele>
        <time>2022-07-21T06:59:00Z</time>
      </trkpt>
      <trkpt lat="47.2944890" lon="6.8462430">
        <ele>788.1</ele>
        <time>2022-07-21T06:59:01Z</time>
      </trkpt>
      <trkpt lat="47.2944790" lon="6.8462430">
        <ele>788.2</ele>
        <time>2022-07-21T06:59:02Z</time>
      </trkpt>
      <trkpt lat="47.2944640" lon="6.8462440">
        <ele>788.4</ele>
        <time>2022-07-21T06:59:04Z</time>
      </trkpt>
      <trkpt lat="47.2944440" lon="6.8462430">
        <ele>788.6</ele>
        <time>2022-07-21T06:59:05Z</time>
      </trkpt>
      <trkpt lat="47.2944350" lon="6.8462420">
        <ele>788.7</ele>
        <time>2022-07-21T06:59:06Z</time>
      </trkpt>
      <trkpt lat="47.2944270" lon="6.8462410">
        <ele>788.8</ele>
        <time>2022-07-21T06:59:07Z</time>
      </trkpt>
      <trkpt lat="47.2944050" lon="6.8462370">
        <ele>789.1</ele>
        <time>2022-07-21T06:59:09Z</time>
      </trkpt>
      <trkpt lat="47.2943960" lon="6.8462370">
        <ele>789.2</ele>
        <time>2022-07-21T06:59:10Z</time>
      </trkpt>
      <trkpt lat="47.2943860" lon="6.8462360">
        <ele>789.3</ele>
        <time>2022-07-21T06:59:11Z</time>
      </trkpt>
      <trkpt lat="47.2943720" lon="6.8462360">
        <ele>789.4</ele>
        <time>2022-07-21T06:59:12Z</time>
      </trkpt>
      <trkpt lat="47.2943560" lon="6.8462380">
        <ele>789.6</ele>
        <time>2022-07-21T06:59:13Z</time>
      </trkpt>
      <trkpt lat="47.2943390" lon="6.8462420">
        <ele>789.8</ele>
        <time>2022-07-21T06:59:14Z</time>
      </trkpt>
      <trkpt lat="47.2943260" lon="6.8462450">
        <ele>790.0</ele>
        <time>2022-07-21T06:59:15Z</time>
      </trkpt>
      <trkpt lat="47.2943150" lon="6.8462480">
        <ele>790.1</ele>
        <time>2022-07-21T06:59:16Z</time>
      </trkpt>
      <trkpt lat="47.2943020" lon="6.8462530">
        <ele>790.3</ele>
        <time>2022-07-21T06:59:17Z</time>
      </trkpt>
      <trkpt lat="47.2942840" lon="6.8462600">
        <ele>790.5</ele>
        <time>2022-07-21T06:59:19Z</time>
      </trkpt>
      <trkpt lat="47.2942690" lon="6.8462660">
        <ele>790.8</ele>
        <time>2022-07-21T06:59:20Z</time>
      </trkpt>
      <trkpt lat="47.2942540" lon="6.8462740">
        <ele>791.0</ele>
        <time>2022-07-21T06:59:21Z</time>
      </trkpt>
      <trkpt lat="47.2942320" lon="6.8462860">
        <ele>791.4</ele>
        <time>2022-07-21T06:59:22Z</time>
      </trkpt>
      <trkpt lat="47.2942140" lon="6.8462930">
        <ele>791.7</ele>
        <time>2022-07-21T06:59:24Z</time>
      </trkpt>
      <trkpt lat="47.2942010" lon="6.8463010">
        <ele>791.9</ele>
        <time>2022-07-21T06:59:25Z</time>
      </trkpt>
      <trkpt lat="47.2941870" lon="6.8463120">
        <ele>792.2</ele>
        <time>2022-07-21T06:59:26Z</time>
      </trkpt>
      <trkpt lat="47.2941730" lon="6.8463200">
        <ele>792.5</ele>
        <time>2022-07-21T06:59:27Z</time>
      </trkpt>
      <trkpt lat="47.2941620" lon="6.8463240">
        <ele>792.7</ele>
        <time>2022-07-21T06:59:28Z</time>
      </trkpt>
      <trkpt lat="47.2941530" lon="6.8463260">
        <ele>792.9</ele>
        <time>2022-07-21T06:59:29Z</time>
      </trkpt>
      <trkpt lat="47.2941330" lon="6.8463340">
        <ele>793.3</ele>
        <time>2022-07-21T06:59:30Z</time>
      </trkpt>
      <trkpt lat="47.2941250" lon="6.8463370">
        <ele>793.4</ele>
        <time>2022-07-21T06:59:31Z</time>
      </trkpt>
      <trkpt lat="47.2941170" lon="6.8463400">
        <ele>793.6</ele>
        <time>2022-07-21T06:59:32Z</time>
      </trkpt>
      <trkpt lat="47.2941060" lon="6.8463460">
        <ele>793.8</ele>
        <time>2022-07-21T06:59:33Z</time>
      </trkpt>
      <trkpt lat="47.2940860" lon="6.8463580">
        <ele>794.2</ele>
        <time>2022-07-21T06:59:34Z</time>
      </trkpt>
      <trkpt lat="47.2940550" lon="6.8463770">
        <ele>794.7</ele>
        <time>2022-07-21T06:59:35Z</time>
      </trkpt>
      <trkpt lat="47.2940280" lon="6.8463930">
        <ele>795.1</ele>
        <time>2022-07-21T06:59:36Z</time>
      </trkpt>
      <trkpt lat="47.2940200" lon="6.8463980">
        <ele>795.2</ele>
        <time>2022-07-21T06:59:37Z</time>
      </trkpt>
      <trkpt lat="47.2940060" lon="6.8464100">
        <ele>795.4</ele>
        <time>2022-07-21T06:59:38Z</time>
      </trkpt>
      <trkpt lat="47.2939970" lon="6.8464190">
        <ele>795.6</ele>
        <time>2022-07-21T06:59:39Z</time>
      </trkpt>
      <trkpt lat="47.2939790" lon="6.8464330">
        <ele>795.8</ele>
        <time>2022-07-21T06:59:40Z</time>
      </trkpt>
      <trkpt lat="47.2939650" lon="6.8464440">
        <ele>796.0</ele>
        <time>2022-07-21T06:59:41Z</time>
      </trkpt>
      <trkpt lat="47.2939500" lon="6.8464540">
        <ele>796.2</ele>
        <time>2022-07-21T06:59:43Z</time>
      </trkpt>
      <trkpt lat="47.2939400" lon="6.8464590">
        <ele>796.3</ele>
        <time>2022-07-21T06:59:44Z</time>
      </trkpt>
      <trkpt lat="47.2939290" lon="6.8464660">
        <ele>796.5</ele>
        <time>2022-07-21T06:59:45Z</time>
      </trkpt>
      <trkpt lat="47.2939180" lon="6.8464730">
        <ele>796.6</ele>
        <time>2022-07-21T06:59:46Z</time>
      </trkpt>
      <trkpt lat="47.2939090" lon="6.8464840">
        <ele>796.8</ele>
        <time>2022-07-21T06:59:47Z</time>
      </trkpt>
      <trkpt lat="47.2938970" lon="6.8464970">
        <ele>796.9</ele>
        <time>2022-07-21T06:59:48Z</time>
      </trkpt>
      <trkpt lat="47.2938860" lon="6.8465080">
        <ele>797.1</ele>
        <time>2022-07-21T06:59:49Z</time>
      </trkpt>
      <trkpt lat="47.2938680" lon="6.8465270">
        <ele>797.4</ele>
        <time>2022-07-21T06:59:51Z</time>
      </trkpt>
      <trkpt lat="47.2938620" lon="6.8465340">
        <ele>797.5</ele>
        <time>2022-07-21T06:59:52Z</time>
      </trkpt>
      <trkpt lat="47.2938550" lon="6.8465400">
        <ele>797.6</ele>
        <time>2022-07-21T06:59:53Z</time>
      </trkpt>
      <trkpt lat="47.2938460" lon="6.8465520">
        <ele>797.7</ele>
        <time>2022-07-21T06:59:54Z</time>
      </trkpt>
      <trkpt lat="47.2938380" lon="6.8465610">
        <ele>797.8</ele>
        <time>2022-07-21T06:59:55Z</time>
      </trkpt>
      <trkpt lat="47.2938280" lon="6.8465700">
        <ele>798.0</ele>
        <time>2022-07-21T06:59:56Z</time>
      </trkpt>
      <trkpt lat="47.2938180" lon="6.8465820">
        <ele>798.1</ele>
        <time>2022-07-21T06:59:57Z</time>
      </trkpt>
      <trkpt lat="47.2938110" lon="6.8465950">
        <ele>798.3</ele>
        <time>2022-07-21T06:59:58Z</time>
      </trkpt>
      <trkpt lat="47.2938040" lon="6.8466080">
        <ele>798.4</ele>
        <time>2022-07-21T06:59:59Z</time>
      </trkpt>
      <trkpt lat="47.2937930" lon="6.8466200">
        <ele>798.6</ele>
        <time>2022-07-21T07:00:00Z</time>
      </trkpt>
      <trkpt lat="47.2937720" lon="6.8466390">
        <ele>798.9</ele>
        <time>2022-07-21T07:00:02Z</time>
      </trkpt>
      <trkpt lat="47.2937610" lon="6.8466480">
        <ele>799.0</ele>
        <time>2022-07-21T07:00:03Z</time>
      </trkpt>
      <trkpt lat="47.2937540" lon="6.8466540">
        <ele>799.1</ele>
        <time>2022-07-21T07:00:04Z</time>
      </trkpt>
      <trkpt lat="47.2937470" lon="6.8466610">
        <ele>799.2</ele>
        <time>2022-07-21T07:00:05Z</time>
      </trkpt>
      <trkpt lat="47.2937410" lon="6.8466690">
        <ele>799.3</ele>
        <time>2022-07-21T07:00:06Z</time>
      </trkpt>
      <trkpt lat="47.2937340" lon="6.8466780">
        <ele>799.4</ele>
        <time>2022-07-21T07:00:07Z</time>
      </trkpt>
      <trkpt lat="47.2937290" lon="6.8466860">
        <ele>799.5</ele>
        <time>2022-07-21T07:00:08Z</time>
      </trkpt>
      <trkpt lat="47.2937220" lon="6.8466950">
        <ele>799.6</ele>
        <time>2022-07-21T07:00:09Z</time>
      </trkpt>
      <trkpt lat="47.2937120" lon="6.8467110">
        <ele>799.8</ele>
        <time>2022-07-21T07:00:10Z</time>
      </trkpt>
      <trkpt lat="47.2937020" lon="6.8467240">
        <ele>800.0</ele>
        <time>2022-07-21T07:00:11Z</time>
      </trkpt>
      <trkpt lat="47.2936940" lon="6.8467330">
        <ele>800.1</ele>
        <time>2022-07-21T07:00:13Z</time>
      </trkpt>
      <trkpt lat="47.2936730" lon="6.8467620">
        <ele>800.4</ele>
        <time>2022-07-21T07:00:15Z</time>
      </trkpt>
      <trkpt lat="47.2936500" lon="6.8467950">
        <ele>800.8</ele>
        <time>2022-07-21T07:00:17Z</time>
      </trkpt>
      <trkpt lat="47.2936450" lon="6.8468030">
        <ele>800.9</ele>
        <time>2022-07-21T07:00:18Z</time>
      </trkpt>
      <trkpt lat="47.2936300" lon="6.8468340">
        <ele>801.2</ele>
        <time>2022-07-21T07:00:19Z</time>
      </trkpt>
      <trkpt lat="47.2936220" lon="6.8468500">
        <ele>801.3</ele>
        <time>2022-07-21T07:00:20Z</time>
      </trkpt>
      <trkpt lat="47.2936020" lon="6.8468920">
        <ele>801.7</ele>
        <time>2022-07-21T07:00:21Z</time>
      </trkpt>
      <trkpt lat="47.2935970" lon="6.8469050">
        <ele>801.8</ele>
        <time>2022-07-21T07:00:22Z</time>
      </trkpt>
      <trkpt lat="47.2935870" lon="6.8469250">
        <ele>802.0</ele>
        <time>2022-07-21T07:00:23Z</time>
      </trkpt>
      <trkpt lat="47.2935760" lon="6.8469430">
        <ele>802.1</ele>
        <time>2022-07-21T07:00:24Z</time>
      </trkpt>
      <trkpt lat="47.2935640" lon="6.8469580">
        <ele>802.3</ele>
        <time>2022-07-21T07:00:25Z</time>
      </trkpt>
      <trkpt lat="47.2935530" lon="6.8469700">
        <ele>802.5</ele>
        <time>2022-07-21T07:00:26Z</time>
      </trkpt>
      <trkpt lat="47.2935380" lon="6.8469880">
        <ele>802.7</ele>
        <time>2022-07-21T07:00:27Z</time>
      </trkpt>
      <trkpt lat="47.2935310" lon="6.8469960">
        <ele>802.8</ele>
        <time>2022-07-21T07:00:28Z</time>
      </trkpt>
      <trkpt lat="47.2935250" lon="6.8470040">
        <ele>802.9</ele>
        <time>2022-07-21T07:00:29Z</time>
      </trkpt>
      <trkpt lat="47.2935160" lon="6.8470160">
        <ele>803.0</ele>
        <time>2022-07-21T07:00:30Z</time>
      </trkpt>
      <trkpt lat="47.2935090" lon="6.8470240">
        <ele>803.1</ele>
        <time>2022-07-21T07:00:31Z</time>
      </trkpt>
      <trkpt lat="47.2935010" lon="6.8470330">
        <ele>803.2</ele>
        <time>2022-07-21T07:00:32Z</time>
      </trkpt>
      <trkpt lat="47.2934810" lon="6.8470430">
        <ele>803.5</ele>
        <time>2022-07-21T07:00:33Z</time>
      </trkpt>
      <trkpt lat="47.2934730" lon="6.8470450">
        <ele>803.6</ele>
        <time>2022-07-21T07:00:34Z</time>
      </trkpt>
      <trkpt lat="47.2934660" lon="6.8470470">
        <ele>803.7</ele>
        <time>2022-07-21T07:00:35Z</time>
      </trkpt>
      <trkpt lat="47.2934440" lon="6.8470530">
        <ele>803.9</ele>
        <time>2022-07-21T07:00:36Z</time>
      </trkpt>
      <trkpt lat="47.2934350" lon="6.8470550">
        <ele>804.1</ele>
        <time>2022-07-21T07:00:37Z</time>
      </trkpt>
      <trkpt lat="47.2934260" lon="6.8470570">
        <ele>804.2</ele>
        <time>2022-07-21T07:00:38Z</time>
      </trkpt>
      <trkpt lat="47.2934100" lon="6.8470530">
        <ele>804.4</ele>
        <time>2022-07-21T07:00:39Z</time>
      </trkpt>
      <trkpt lat="47.2933910" lon="6.8470520">
        <ele>804.6</ele>
        <time>2022-07-21T07:00:40Z</time>
      </trkpt>
      <trkpt lat="47.2933770" lon="6.8470500">
        <ele>804.8</ele>
        <time>2022-07-21T07:00:41Z</time>
      </trkpt>
      <trkpt lat="47.2933660" lon="6.8470490">
        <ele>805.0</ele>
        <time>2022-07-21T07:00:42Z</time>
      </trkpt>
      <trkpt lat="47.2933550" lon="6.8470520">
        <ele>805.1</ele>
        <time>2022-07-21T07:00:43Z</time>
      </trkpt>
      <trkpt lat="47.2933480" lon="6.8470520">
        <ele>805.2</ele>
        <time>2022-07-21T07:00:44Z</time>
      </trkpt>
      <trkpt lat="47.2933410" lon="6.8470520">
        <ele>805.3</ele>
        <time>2022-07-21T07:00:45Z</time>
      </trkpt>
      <trkpt lat="47.2933300" lon="6.8470560">
        <ele>805.4</ele>
        <time>2022-07-21T07:00:46Z</time>
      </trkpt>
      <trkpt lat="47.2933220" lon="6.8470600">
        <ele>805.5</ele>
        <time>2022-07-21T07:00:47Z</time>
      </trkpt>
      <trkpt lat="47.2933130" lon="6.8470670">
        <ele>805.7</ele>
        <time>2022-07-21T07:00:48Z</time>
      </trkpt>
      <trkpt lat="47.2933080" lon="6.8470710">
        <ele>805.8</ele>
        <time>2022-07-21T07:00:49Z</time>
      </trkpt>
      <trkpt lat="47.2933010" lon="6.8470730">
        <ele>805.9</ele>
        <time>2022-07-21T07:00:50Z</time>
      </trkpt>
      <trkpt lat="47.2932940" lon="6.8470750">
        <ele>805.9</ele>
        <time>2022-07-21T07:00:51Z</time>
      </trkpt>
      <trkpt lat="47.2932800" lon="6.8470780">
        <ele>806.1</ele>
        <time>2022-07-21T07:00:52Z</time>
      </trkpt>
      <trkpt lat="47.2932720" lon="6.8470800">
        <ele>806.3</ele>
        <time>2022-07-21T07:00:54Z</time>
      </trkpt>
      <trkpt lat="47.2932660" lon="6.8470820">
        <ele>806.3</ele>
        <time>2022-07-21T07:00:55Z</time>
      </trkpt>
      <trkpt lat="47.2932480" lon="6.8470880">
        <ele>806.6</ele>
        <time>2022-07-21T07:00:56Z</time>
      </trkpt>
      <trkpt lat="47.2932380" lon="6.8470890">
        <ele>806.8</ele>
        <time>2022-07-21T07:00:58Z</time>
      </trkpt>
      <trkpt lat="47.2932270" lon="6.8470910">
        <ele>806.9</ele>
        <time>2022-07-21T07:00:59Z</time>
      </trkpt>
      <trkpt lat="47.2932170" lon="6.8470940">
        <ele>807.1</ele>
        <time>2022-07-21T07:01:01Z</time>
      </trkpt>
      <trkpt lat="47.2932160" lon="6.8470980">
        <ele>807.1</ele>
        <time>2022-07-21T07:01:02Z</time>
      </trkpt>
      <trkpt lat="47.2932160" lon="6.8471080">
        <ele>807.2</ele>
        <time>2022-07-21T07:01:03Z</time>
      </trkpt>
      <trkpt lat="47.2932110" lon="6.8471330">
        <ele>807.4</ele>
        <time>2022-07-21T07:01:04Z</time>
      </trkpt>
      <trkpt lat="47.2932050" lon="6.8471380">
        <ele>807.5</ele>
        <time>2022-07-21T07:01:06Z</time>
      </trkpt>
      <trkpt lat="47.2932000" lon="6.8471360">
        <ele>807.6</ele>
        <time>2022-07-21T07:01:07Z</time>
      </trkpt>
      <trkpt lat="47.2931960" lon="6.8471350">
        <ele>807.7</ele>
        <time>2022-07-21T07:01:08Z</time>
      </trkpt>
      <trkpt lat="47.2931980" lon="6.8471330">
        <ele>807.7</ele>
        <time>2022-07-21T07:01:09Z</time>
      </trkpt>
      <trkpt lat="47.2931970" lon="6.8471320">
        <ele>807.7</ele>
        <time>2022-07-21T07:01:10Z</time>
      </trkpt>
      <trkpt lat="47.2931950" lon="6.8471310">
        <ele>807.8</ele>
        <time>2022-07-21T07:01:12Z</time>
      </trkpt>
      <trkpt lat="47.2931920" lon="6.8471310">
        <ele>807.8</ele>
        <time>2022-07-21T07:01:13Z</time>
      </trkpt>
      <trkpt lat="47.2931910" lon="6.8471310">
        <ele>807.8</ele>
        <time>2022-07-21T07:01:14Z</time>
      </trkpt>
      <trkpt lat="47.2931870" lon="6.8471320">
        <ele>807.9</ele>
        <time>2022-07-21T07:01:15Z</time>
      </trkpt>
      <trkpt lat="47.2931740" lon="6.8471420">
        <ele>808.1</ele>
        <time>2022-07-21T07:01:17Z</time>
      </trkpt>
      <trkpt lat="47.2931690" lon="6.8471450">
        <ele>808.2</ele>
        <time>2022-07-21T07:01:18Z</time>
      </trkpt>
      <trkpt lat="47.2931620" lon="6.8471490">
        <ele>808.3</ele>
        <time>2022-07-21T07:01:19Z</time>
      </trkpt>
      <trkpt lat="47.2931530" lon="6.8471550">
        <ele>808.4</ele>
        <time>2022-07-21T07:01:20Z</time>
      </trkpt>
      <trkpt lat="47.2931470" lon="6.8471610">
        <ele>808.5</ele>
        <time>2022-07-21T07:01:21Z</time>
      </trkpt>
      <trkpt lat="47.2931400" lon="6.8471660">
        <ele>808.6</ele>
        <time>2022-07-21T07:01:22Z</time>
      </trkpt>
      <trkpt lat="47.2931300" lon="6.8471740">
        <ele>808.8</ele>
        <time>2022-07-21T07:01:23Z</time>
      </trkpt>
      <trkpt lat="47.2931170" lon="6.8471850">
        <ele>809.0</ele>
        <time>2022-07-21T07:01:24Z</time>
      </trkpt>
      <trkpt lat="47.2931060" lon="6.8471930">
        <ele>809.1</ele>
        <time>2022-07-21T07:01:25Z</time>
      </trkpt>
      <trkpt lat="47.2930920" lon="6.8472050">
        <ele>809.4</ele>
        <time>2022-07-21T07:01:26Z</time>
      </trkpt>
      <trkpt lat="47.2930810" lon="6.8472140">
        <ele>809.5</ele>
        <time>2022-07-21T07:01:27Z</time>
      </trkpt>
      <trkpt lat="47.2930640" lon="6.8472300">
        <ele>809.8</ele>
        <time>2022-07-21T07:01:28Z</time>
      </trkpt>
      <trkpt lat="47.2930520" lon="6.8472430">
        <ele>810.0</ele>
        <time>2022-07-21T07:01:29Z</time>
      </trkpt>
      <trkpt lat="47.2930390" lon="6.8472570">
        <ele>810.2</ele>
        <time>2022-07-21T07:01:30Z</time>
      </trkpt>
      <trkpt lat="47.2930160" lon="6.8472830">
        <ele>810.6</ele>
        <time>2022-07-21T07:01:31Z</time>
      </trkpt>
      <trkpt lat="47.2930070" lon="6.8472930">
        <ele>810.7</ele>
        <time>2022-07-21T07:01:32Z</time>
      </trkpt>
      <trkpt lat="47.2929830" lon="6.8473210">
        <ele>811.1</ele>
        <time>2022-07-21T07:01:33Z</time>
      </trkpt>
      <trkpt lat="47.2929750" lon="6.8473300">
        <ele>811.2</ele>
        <time>2022-07-21T07:01:34Z</time>
      </trkpt>
      <trkpt lat="47.2929480" lon="6.8473580">
        <ele>811.7</ele>
        <time>2022-07-21T07:01:36Z</time>
      </trkpt>
      <trkpt lat="47.2929390" lon="6.8473670">
        <ele>811.8</ele>
        <time>2022-07-21T07:01:37Z</time>
      </trkpt>
      <trkpt lat="47.2929120" lon="6.8473850">
        <ele>812.2</ele>
        <time>2022-07-21T07:01:38Z</time>
      </trkpt>
      <trkpt lat="47.2929060" lon="6.8473900">
        <ele>812.3</ele>
        <time>2022-07-21T07:01:39Z</time>
      </trkpt>
      <trkpt lat="47.2928810" lon="6.8474070">
        <ele>812.7</ele>
        <time>2022-07-21T07:01:40Z</time>
      </trkpt>
      <trkpt lat="47.2928490" lon="6.8474350">
        <ele>813.1</ele>
        <time>2022-07-21T07:01:42Z</time>
      </trkpt>
      <trkpt lat="47.2928290" lon="6.8474510">
        <ele>813.4</ele>
        <time>2022-07-21T07:01:44Z</time>
      </trkpt>
      <trkpt lat="47.2928230" lon="6.8474560">
        <ele>813.5</ele>
        <time>2022-07-21T07:01:45Z</time>
      </trkpt>
      <trkpt lat="47.2928170" lon="6.8474610">
        <ele>813.6</ele>
        <time>2022-07-21T07:01:46Z</time>
      </trkpt>
      <trkpt lat="47.2928060" lon="6.8474720">
        <ele>813.8</ele>
        <time>2022-07-21T07:01:47Z</time>
      </trkpt>
      <trkpt lat="47.2927990" lon="6.8474780">
        <ele>813.9</ele>
        <time>2022-07-21T07:01:48Z</time>
      </trkpt>
      <trkpt lat="47.2927880" lon="6.8474900">
        <ele>814.1</ele>
        <time>2022-07-21T07:01:49Z</time>
      </trkpt>
      <trkpt lat="47.2927700" lon="6.8475100">
        <ele>814.3</ele>
        <time>2022-07-21T07:01:50Z</time>
      </trkpt>
      <trkpt lat="47.2927620" lon="6.8475180">
        <ele>814.5</ele>
        <time>2022-07-21T07:01:51Z</time>
      </trkpt>
      <trkpt lat="47.2927550" lon="6.8475260">
        <ele>814.6</ele>
        <time>2022-07-21T07:01:52Z</time>
      </trkpt>
      <trkpt lat="47.2927440" lon="6.8475450">
        <ele>814.8</ele>
        <time>2022-07-21T07:01:53Z</time>
      </trkpt>
      <trkpt lat="47.2927340" lon="6.8475660">
        <ele>815.0</ele>
        <time>2022-07-21T07:01:54Z</time>
      </trkpt>
      <trkpt lat="47.2927230" lon="6.8475890">
        <ele>815.2</ele>
        <time>2022-07-21T07:01:55Z</time>
      </trkpt>
      <trkpt lat="47.2927170" lon="6.8476030">
        <ele>815.4</ele>
        <time>2022-07-21T07:01:56Z</time>
      </trkpt>
      <trkpt lat="47.2927110" lon="6.8476220">
        <ele>815.5</ele>
        <time>2022-07-21T07:01:58Z</time>
      </trkpt>
      <trkpt lat="47.2927020" lon="6.8476400">
        <ele>815.7</ele>
        <time>2022-07-21T07:01:59Z</time>
      </trkpt>
      <trkpt lat="47.2926940" lon="6.8476540">
        <ele>815.9</ele>
        <time>2022-07-21T07:02:00Z</time>
      </trkpt>
      <trkpt lat="47.2926870" lon="6.8476620">
        <ele>816.0</ele>
        <time>2022-07-21T07:02:01Z</time>
      </trkpt>
      <trkpt lat="47.2926820" lon="6.8476660">
        <ele>816.0</ele>
        <time>2022-07-21T07:02:03Z</time>
      </trkpt>
      <trkpt lat="47.2926800" lon="6.8476670">
        <ele>816.1</ele>
        <time>2022-07-21T07:02:04Z</time>
      </trkpt>
      <trkpt lat="47.2926780" lon="6.8476690">
        <ele>816.1</ele>
        <time>2022-07-21T07:02:05Z</time>
      </trkpt>
      <trkpt lat="47.2926680" lon="6.8476800">
        <ele>816.2</ele>
        <time>2022-07-21T07:02:06Z</time>
      </trkpt>
      <trkpt lat="47.2926630" lon="6.8476890">
        <ele>816.3</ele>
        <time>2022-07-21T07:02:07Z</time>
      </trkpt>
      <trkpt lat="47.2926570" lon="6.8477010">
        <ele>816.4</ele>
        <time>2022-07-21T07:02:08Z</time>
      </trkpt>
      <trkpt lat="47.2926520" lon="6.8477130">
        <ele>816.5</ele>
        <time>2022-07-21T07:02:09Z</time>
      </trkpt>
      <trkpt lat="47.2926470" lon="6.8477220">
        <ele>816.6</ele>
        <time>2022-07-21T07:02:10Z</time>
      </trkpt>
      <trkpt lat="47.2926430" lon="6.8477300">
        <ele>816.7</ele>
        <time>2022-07-21T07:02:11Z</time>
      </trkpt>
      <trkpt lat="47.2926370" lon="6.8477440">
        <ele>816.8</ele>
        <time>2022-07-21T07:02:12Z</time>
      </trkpt>
      <trkpt lat="47.2926290" lon="6.8477600">
        <ele>817.0</ele>
        <time>2022-07-21T07:02:13Z</time>
      </trkpt>
      <trkpt lat="47.2926220" lon="6.8477760">
        <ele>817.1</ele>
        <time>2022-07-21T07:02:14Z</time>
      </trkpt>
      <trkpt lat="47.2926130" lon="6.8477950">
        <ele>817.3</ele>
        <time>2022-07-21T07:02:16Z</time>
      </trkpt>
      <trkpt lat="47.2926080" lon="6.8478080">
        <ele>817.4</ele>
        <time>2022-07-21T07:02:17Z</time>
      </trkpt>
      <trkpt lat="47.2926010" lon="6.8478260">
        <ele>817.6</ele>
        <time>2022-07-21T07:02:18Z</time>
      </trkpt>
      <trkpt lat="47.2925920" lon="6.8478470">
        <ele>817.8</ele>
        <time>2022-07-21T07:02:20Z</time>
      </trkpt>
      <trkpt lat="47.2925870" lon="6.8478560">
        <ele>817.9</ele>
        <time>2022-07-21T07:02:21Z</time>
      </trkpt>
      <trkpt lat="47.2925830" lon="6.8478630">
        <ele>818.0</ele>
        <time>2022-07-21T07:02:22Z</time>
      </trkpt>
      <trkpt lat="47.2925760" lon="6.8478770">
        <ele>818.1</ele>
        <time>2022-07-21T07:02:23Z</time>
      </trkpt>
      <trkpt lat="47.2925600" lon="6.8479110">
        <ele>818.4</ele>
        <time>2022-07-21T07:02:25Z</time>
      </trkpt>
      <trkpt lat="47.2925490" lon="6.8479320">
        <ele>818.6</ele>
        <time>2022-07-21T07:02:26Z</time>
      </trkpt>
      <trkpt lat="47.2925390" lon="6.8479500">
        <ele>818.8</ele>
        <time>2022-07-21T07:02:27Z</time>
      </trkpt>
      <trkpt lat="47.2925270" lon="6.8479670">
        <ele>819.0</ele>
        <time>2022-07-21T07:02:28Z</time>
      </trkpt>
      <trkpt lat="47.2925140" lon="6.8479820">
        <ele>819.2</ele>
        <time>2022-07-21T07:02:29Z</time>
      </trkpt>
      <trkpt lat="47.2925020" lon="6.8479950">
        <ele>819.4</ele>
        <time>2022-07-21T07:02:30Z</time>
      </trkpt>
      <trkpt lat="47.2924810" lon="6.8480180">
        <ele>819.7</ele>
        <time>2022-07-21T07:02:32Z</time>
      </trkpt>
      <trkpt lat="47.2924580" lon="6.8480570">
        <ele>820.2</ele>
        <time>2022-07-21T07:02:33Z</time>
      </trkpt>
      <trkpt lat="47.2924520" lon="6.8480670">
        <ele>820.3</ele>
        <time>2022-07-21T07:02:34Z</time>
      </trkpt>
      <trkpt lat="47.2924420" lon="6.8480840">
        <ele>820.5</ele>
        <time>2022-07-21T07:02:35Z</time>
      </trkpt>
      <trkpt lat="47.2924300" lon="6.8481080">
        <ele>820.7</ele>
        <time>2022-07-21T07:02:37Z</time>
      </trkpt>
      <trkpt lat="47.2924210" lon="6.8481270">
        <ele>820.9</ele>
        <time>2022-07-21T07:02:38Z</time>
      </trkpt>
      <trkpt lat="47.2924130" lon="6.8481400">
        <ele>821.1</ele>
        <time>2022-07-21T07:02:39Z</time>
      </trkpt>
      <trkpt lat="47.2923900" lon="6.8481680">
        <ele>821.5</ele>
        <time>2022-07-21T07:02:41Z</time>
      </trkpt>
      <trkpt lat="47.2923780" lon="6.8481910">
        <ele>821.8</ele>
        <time>2022-07-21T07:02:42Z</time>
      </trkpt>
      <trkpt lat="47.2923710" lon="6.8482090">
        <ele>822.0</ele>
        <time>2022-07-21T07:02:44Z</time>
      </trkpt>
      <trkpt lat="47.2923690" lon="6.8482130">
        <ele>822.0</ele>
        <time>2022-07-21T07:02:45Z</time>
      </trkpt>
      <trkpt lat="47.2923680" lon="6.8482160">
        <ele>822.0</ele>
        <time>2022-07-21T07:02:46Z</time>
      </trkpt>
      <trkpt lat="47.2923680" lon="6.8482200">
        <ele>822.1</ele>
        <time>2022-07-21T07:02:48Z</time>
      </trkpt>
      <trkpt lat="47.2923680" lon="6.8482220">
        <ele>822.1</ele>
        <time>2022-07-21T07:02:49Z</time>
      </trkpt>
      <trkpt lat="47.2923670" lon="6.8482250">
        <ele>822.1</ele>
        <time>2022-07-21T07:02:50Z</time>
      </trkpt>
      <trkpt lat="47.2923640" lon="6.8482290">
        <ele>822.2</ele>
        <time>2022-07-21T07:02:51Z</time>
      </trkpt>
      <trkpt lat="47.2923610" lon="6.8482350">
        <ele>822.3</ele>
        <time>2022-07-21T07:02:52Z</time>
      </trkpt>
      <trkpt lat="47.2923580" lon="6.8482400">
        <ele>822.3</ele>
        <time>2022-07-21T07:02:53Z</time>
      </trkpt>
      <trkpt lat="47.2923570" lon="6.8482420">
        <ele>822.3</ele>
        <time>2022-07-21T07:02:54Z</time>
      </trkpt>
      <trkpt lat="47.2923580" lon="6.8482430">
        <ele>822.4</ele>
        <time>2022-07-21T07:02:55Z</time>
      </trkpt>
      <trkpt lat="47.2923580" lon="6.8482440">
        <ele>822.4</ele>
        <time>2022-07-21T07:02:56Z</time>
      </trkpt>
      <trkpt lat="47.2923570" lon="6.8482440">
        <ele>822.4</ele>
        <time>2022-07-21T07:02:57Z</time>
      </trkpt>
      <trkpt lat="47.2923560" lon="6.8482450">
        <ele>822.4</ele>
        <time>2022-07-21T07:02:58Z</time>
      </trkpt>
      <trkpt lat="47.2923560" lon="6.8482450">
        <ele>822.4</ele>
        <time>2022-07-21T07:02:59Z</time>
      </trkpt>
      <trkpt lat="47.2923550" lon="6.8482460">
        <ele>822.4</ele>
        <time>2022-07-21T07:03:00Z</time>
      </trkpt>
      <trkpt lat="47.2923540" lon="6.8482470">
        <ele>822.4</ele>
        <time>2022-07-21T07:03:01Z</time>
      </trkpt>
      <trkpt lat="47.2923530" lon="6.8482490">
        <ele>822.5</ele>
        <time>2022-07-21T07:03:02Z</time>
      </trkpt>
      <trkpt lat="47.2923470" lon="6.8482880">
        <ele>822.8</ele>
        <time>2022-07-21T07:03:07Z</time>
      </trkpt>
      <trkpt lat="47.2923470" lon="6.8483010">
        <ele>823.0</ele>
        <time>2022-07-21T07:03:08Z</time>
      </trkpt>
      <trkpt lat="47.2923470" lon="6.8483100">
        <ele>823.1</ele>
        <time>2022-07-21T07:03:09Z</time>
      </trkpt>
      <trkpt lat="47.2923450" lon="6.8483240">
        <ele>823.2</ele>
        <time>2022-07-21T07:03:11Z</time>
      </trkpt>
      <trkpt lat="47.2923420" lon="6.8483380">
        <ele>823.3</ele>
        <time>2022-07-21T07:03:12Z</time>
      </trkpt>
      <trkpt lat="47.2923370" lon="6.8483570">
        <ele>823.5</ele>
        <time>2022-07-21T07:03:13Z</time>
      </trkpt>
      <trkpt lat="47.2923300" lon="6.8483740">
        <ele>823.7</ele>
        <time>2022-07-21T07:03:14Z</time>
      </trkpt>
      <trkpt lat="47.2923180" lon="6.8484000">
        <ele>824.0</ele>
        <time>2022-07-21T07:03:15Z</time>
      </trkpt>
      <trkpt lat="47.2923130" lon="6.8484120">
        <ele>824.1</ele>
        <time>2022-07-21T07:03:17Z</time>
      </trkpt>
      <trkpt lat="47.2923080" lon="6.8484240">
        <ele>824.3</ele>
        <time>2022-07-21T07:03:18Z</time>
      </trkpt>
      <trkpt lat="47.2922990" lon="6.8484460">
        <ele>824.5</ele>
        <time>2022-07-21T07:03:19Z</time>
      </trkpt>
      <trkpt lat="47.2922920" lon="6.8484610">
        <ele>824.7</ele>
        <time>2022-07-21T07:03:20Z</time>
      </trkpt>
      <trkpt lat="47.2922860" lon="6.8484790">
        <ele>824.9</ele>
        <time>2022-07-21T07:03:22Z</time>
      </trkpt>
      <trkpt lat="47.2922810" lon="6.8484930">
        <ele>825.0</ele>
        <time>2022-07-21T07:03:23Z</time>
      </trkpt>
      <trkpt lat="47.2922780" lon="6.8485060">
        <ele>825.1</ele>
        <time>2022-07-21T07:03:24Z</time>
      </trkpt>
      <trkpt lat="47.2922740" lon="6.8485150">
        <ele>825.2</ele>
        <time>2022-07-21T07:03:25Z</time>
      </trkpt>
      <trkpt lat="47.2922670" lon="6.8485350">
        <ele>825.5</ele>
        <time>2022-07-21T07:03:27Z</time>
      </trkpt>
      <trkpt lat="47.2922630" lon="6.8485480">
        <ele>825.6</ele>
        <time>2022-07-21T07:03:28Z</time>
      </trkpt>
      <trkpt lat="47.2922600" lon="6.8485580">
        <ele>825.7</ele>
        <time>2022-07-21T07:03:29Z</time>
      </trkpt>
      <trkpt lat="47.2922560" lon="6.8485650">
        <ele>825.8</ele>
        <time>2022-07-21T07:03:30Z</time>
      </trkpt>
      <trkpt lat="47.2922510" lon="6.8485770">
        <ele>825.9</ele>
        <time>2022-07-21T07:03:32Z</time>
      </trkpt>
      <trkpt lat="47.2922480" lon="6.8485850">
        <ele>826.0</ele>
        <time>2022-07-21T07:03:33Z</time>
      </trkpt>
      <trkpt lat="47.2922360" lon="6.8486020">
        <ele>826.2</ele>
        <time>2022-07-21T07:03:34Z</time>
      </trkpt>
      <trkpt lat="47.2922300" lon="6.8486080">
        <ele>826.3</ele>
        <time>2022-07-21T07:03:35Z</time>
      </trkpt>
      <trkpt lat="47.2922230" lon="6.8486140">
        <ele>826.4</ele>
        <time>2022-07-21T07:03:36Z</time>
      </trkpt>
      <trkpt lat="47.2922170" lon="6.8486200">
        <ele>826.5</ele>
        <time>2022-07-21T07:03:37Z</time>
      </trkpt>
      <trkpt lat="47.2922060" lon="6.8486260">
        <ele>826.6</ele>
        <time>2022-07-21T07:03:38Z</time>
      </trkpt>
      <trkpt lat="47.2921950" lon="6.8486370">
        <ele>826.8</ele>
        <time>2022-07-21T07:03:39Z</time>
      </trkpt>
      <trkpt lat="47.2921850" lon="6.8486470">
        <ele>826.9</ele>
        <time>2022-07-21T07:03:41Z</time>
      </trkpt>
      <trkpt lat="47.2921740" lon="6.8486570">
        <ele>827.1</ele>
        <time>2022-07-21T07:03:42Z</time>
      </trkpt>
      <trkpt lat="47.2921590" lon="6.8486710">
        <ele>827.3</ele>
        <time>2022-07-21T07:03:43Z</time>
      </trkpt>
      <trkpt lat="47.2921440" lon="6.8486860">
        <ele>827.5</ele>
        <time>2022-07-21T07:03:44Z</time>
      </trkpt>
      <trkpt lat="47.2921300" lon="6.8486980">
        <ele>827.7</ele>
        <time>2022-07-21T07:03:45Z</time>
      </trkpt>
      <trkpt lat="47.2921170" lon="6.8487080">
        <ele>827.9</ele>
        <time>2022-07-21T07:03:46Z</time>
      </trkpt>
      <trkpt lat="47.2921040" lon="6.8487190">
        <ele>828.1</ele>
        <time>2022-07-21T07:03:47Z</time>
      </trkpt>
      <trkpt lat="47.2920910" lon="6.8487310">
        <ele>828.3</ele>
        <time>2022-07-21T07:03:48Z</time>
      </trkpt>
      <trkpt lat="47.2920810" lon="6.8487410">
        <ele>828.4</ele>
        <time>2022-07-21T07:03:49Z</time>
      </trkpt>
      <trkpt lat="47.2920520" lon="6.8487750">
        <ele>828.8</ele>
        <time>2022-07-21T07:03:50Z</time>
      </trkpt>
      <trkpt lat="47.2920330" lon="6.8487930">
        <ele>829.1</ele>
        <time>2022-07-21T07:03:51Z</time>
      </trkpt>
      <trkpt lat="47.2920160" lon="6.8488040">
        <ele>829.3</ele>
        <time>2022-07-21T07:03:53Z</time>
      </trkpt>
      <trkpt lat="47.2919970" lon="6.8488160">
        <ele>829.5</ele>
        <time>2022-07-21T07:03:54Z</time>
      </trkpt>
      <trkpt lat="47.2919880" lon="6.8488220">
        <ele>829.6</ele>
        <time>2022-07-21T07:03:55Z</time>
      </trkpt>
      <trkpt lat="47.2919790" lon="6.8488280">
        <ele>829.7</ele>
        <time>2022-07-21T07:03:57Z</time>
      </trkpt>
      <trkpt lat="47.2919710" lon="6.8488340">
        <ele>829.8</ele>
        <time>2022-07-21T07:03:58Z</time>
      </trkpt>
      <trkpt lat="47.2919620" lon="6.8488400">
        <ele>829.9</ele>
        <time>2022-07-21T07:03:59Z</time>
      </trkpt>
      <trkpt lat="47.2919530" lon="6.8488450">
        <ele>830.0</ele>
        <time>2022-07-21T07:04:00Z</time>
      </trkpt>
      <trkpt lat="47.2919440" lon="6.8488510">
        <ele>830.1</ele>
        <time>2022-07-21T07:04:01Z</time>
      </trkpt>
      <trkpt lat="47.2919210" lon="6.8488630">
        <ele>830.3</ele>
        <time>2022-07-21T07:04:03Z</time>
      </trkpt>
      <trkpt lat="47.2919130" lon="6.8488680">
        <ele>830.4</ele>
        <time>2022-07-21T07:04:04Z</time>
      </trkpt>
      <trkpt lat="47.2919060" lon="6.8488730">
        <ele>830.5</ele>
        <time>2022-07-21T07:04:05Z</time>
      </trkpt>
      <trkpt lat="47.2918820" lon="6.8488880">
        <ele>830.7</ele>
        <time>2022-07-21T07:04:06Z</time>
      </trkpt>
      <trkpt lat="47.2918710" lon="6.8488930">
        <ele>830.8</ele>
        <time>2022-07-21T07:04:07Z</time>
      </trkpt>
      <trkpt lat="47.2918700" lon="6.8488970">
        <ele>830.8</ele>
        <time>2022-07-21T07:04:08Z</time>
      </trkpt>
      <trkpt lat="47.2918700" lon="6.8489010">
        <ele>830.9</ele>
        <time>2022-07-21T07:04:09Z</time>
      </trkpt>
      <trkpt lat="47.2918660" lon="6.8489050">
        <ele>830.9</ele>
        <time>2022-07-21T07:04:11Z</time>
      </trkpt>
      <trkpt lat="47.2918420" lon="6.8489180">
        <ele>831.1</ele>
        <time>2022-07-21T07:04:12Z</time>
      </trkpt>
      <trkpt lat="47.2918150" lon="6.8489400">
        <ele>831.4</ele>
        <time>2022-07-21T07:04:13Z</time>
      </trkpt>
      <trkpt lat="47.2918070" lon="6.8489470">
        <ele>831.4</ele>
        <time>2022-07-21T07:04:14Z</time>
      </trkpt>
      <trkpt lat="47.2917950" lon="6.8489540">
        <ele>831.5</ele>
        <time>2022-07-21T07:04:15Z</time>
      </trkpt>
      <trkpt lat="47.2917800" lon="6.8489630">
        <ele>831.7</ele>
        <time>2022-07-21T07:04:17Z</time>
      </trkpt>
      <trkpt lat="47.2917670" lon="6.8489700">
        <ele>831.8</ele>
        <time>2022-07-21T07:04:18Z</time>
      </trkpt>
      <trkpt lat="47.2917490" lon="6.8489870">
        <ele>831.9</ele>
        <time>2022-07-21T07:04:19Z</time>
      </trkpt>
      <trkpt lat="47.2917310" lon="6.8489990">
        <ele>832.1</ele>
        <time>2022-07-21T07:04:20Z</time>
      </trkpt>
      <trkpt lat="47.2917170" lon="6.8490040">
        <ele>832.2</ele>
        <time>2022-07-21T07:04:22Z</time>
      </trkpt>
      <trkpt lat="47.2917050" lon="6.8490080">
        <ele>832.3</ele>
        <time>2022-07-21T07:04:23Z</time>
      </trkpt>
      <trkpt lat="47.2916950" lon="6.8490110">
        <ele>832.4</ele>
        <time>2022-07-21T07:04:25Z</time>
      </trkpt>
      <trkpt lat="47.2916880" lon="6.8490130">
        <ele>832.4</ele>
        <time>2022-07-21T07:04:26Z</time>
      </trkpt>
      <trkpt lat="47.2916700" lon="6.8490180">
        <ele>832.6</ele>
        <time>2022-07-21T07:04:27Z</time>
      </trkpt>
      <trkpt lat="47.2916630" lon="6.8490210">
        <ele>832.6</ele>
        <time>2022-07-21T07:04:28Z</time>
      </trkpt>
      <trkpt lat="47.2916560" lon="6.8490230">
        <ele>832.7</ele>
        <time>2022-07-21T07:04:29Z</time>
      </trkpt>
      <trkpt lat="47.2916490" lon="6.8490260">
        <ele>832.7</ele>
        <time>2022-07-21T07:04:30Z</time>
      </trkpt>
      <trkpt lat="47.2916370" lon="6.8490340">
        <ele>832.8</ele>
        <time>2022-07-21T07:04:31Z</time>
      </trkpt>
      <trkpt lat="47.2916070" lon="6.8490620">
        <ele>833.1</ele>
        <time>2022-07-21T07:04:33Z</time>
      </trkpt>
      <trkpt lat="47.2915800" lon="6.8490920">
        <ele>833.4</ele>
        <time>2022-07-21T07:04:35Z</time>
      </trkpt>
      <trkpt lat="47.2915510" lon="6.8491220">
        <ele>833.7</ele>
        <time>2022-07-21T07:04:36Z</time>
      </trkpt>
      <trkpt lat="47.2915440" lon="6.8491300">
        <ele>833.8</ele>
        <time>2022-07-21T07:04:37Z</time>
      </trkpt>
      <trkpt lat="47.2915180" lon="6.8491610">
        <ele>834.0</ele>
        <time>2022-07-21T07:04:38Z</time>
      </trkpt>
      <trkpt lat="47.2915110" lon="6.8491690">
        <ele>834.1</ele>
        <time>2022-07-21T07:04:39Z</time>
      </trkpt>
      <trkpt lat="47.2914980" lon="6.8491850">
        <ele>834.3</ele>
        <time>2022-07-21T07:04:41Z</time>
      </trkpt>
      <trkpt lat="47.2914890" lon="6.8492090">
        <ele>834.4</ele>
        <time>2022-07-21T07:04:42Z</time>
      </trkpt>
      <trkpt lat="47.2914730" lon="6.8492420">
        <ele>834.7</ele>
        <time>2022-07-21T07:04:43Z</time>
      </trkpt>
      <trkpt lat="47.2914560" lon="6.8492600">
        <ele>834.8</ele>
        <time>2022-07-21T07:04:44Z</time>
      </trkpt>
      <trkpt lat="47.2914350" lon="6.8492850">
        <ele>835.0</ele>
        <time>2022-07-21T07:04:46Z</time>
      </trkpt>
      <trkpt lat="47.2914140" lon="6.8493120">
        <ele>835.3</ele>
        <time>2022-07-21T07:04:47Z</time>
      </trkpt>
      <trkpt lat="47.2913890" lon="6.8493390">
        <ele>835.5</ele>
        <time>2022-07-21T07:04:48Z</time>
      </trkpt>
      <trkpt lat="47.2913660" lon="6.8493680">
        <ele>835.7</ele>
        <time>2022-07-21T07:04:49Z</time>
      </trkpt>
      <trkpt lat="47.2913430" lon="6.8493960">
        <ele>835.9</ele>
        <time>2022-07-21T07:04:51Z</time>
      </trkpt>
      <trkpt lat="47.2912980" lon="6.8494260">
        <ele>836.3</ele>
        <time>2022-07-21T07:04:52Z</time>
      </trkpt>
      <trkpt lat="47.2912250" lon="6.8494640">
        <ele>836.8</ele>
        <time>2022-07-21T07:04:53Z</time>
      </trkpt>
      <trkpt lat="47.2911840" lon="6.8494840">
        <ele>837.1</ele>
        <time>2022-07-21T07:04:55Z</time>
      </trkpt>
      <trkpt lat="47.2911640" lon="6.8494940">
        <ele>837.3</ele>
        <time>2022-07-21T07:04:56Z</time>
      </trkpt>
      <trkpt lat="47.2911540" lon="6.8494990">
        <ele>837.3</ele>
        <time>2022-07-21T07:04:57Z</time>
      </trkpt>
      <trkpt lat="47.2911330" lon="6.8495120">
        <ele>837.5</ele>
        <time>2022-07-21T07:04:58Z</time>
      </trkpt>
      <trkpt lat="47.2911250" lon="6.8495150">
        <ele>837.5</ele>
        <time>2022-07-21T07:05:00Z</time>
      </trkpt>
      <trkpt lat="47.2911160" lon="6.8495190">
        <ele>837.6</ele>
        <time>2022-07-21T07:05:01Z</time>
      </trkpt>
      <trkpt lat="47.2910960" lon="6.8495330">
        <ele>837.8</ele>
        <time>2022-07-21T07:05:02Z</time>
      </trkpt>
      <trkpt lat="47.2910840" lon="6.8495410">
        <ele>837.8</ele>
        <time>2022-07-21T07:05:03Z</time>
      </trkpt>
      <trkpt lat="47.2910730" lon="6.8495490">
        <ele>837.9</ele>
        <time>2022-07-21T07:05:04Z</time>
      </trkpt>
      <trkpt lat="47.2910540" lon="6.8495590">
        <ele>838.1</ele>
        <time>2022-07-21T07:05:05Z</time>
      </trkpt>
      <trkpt lat="47.2910370" lon="6.8495690">
        <ele>838.2</ele>
        <time>2022-07-21T07:05:07Z</time>
      </trkpt>
      <trkpt lat="47.2910120" lon="6.8495830">
        <ele>838.5</ele>
        <time>2022-07-21T07:05:08Z</time>
      </trkpt>
      <trkpt lat="47.2910020" lon="6.8495890">
        <ele>838.5</ele>
        <time>2022-07-21T07:05:09Z</time>
      </trkpt>
      <trkpt lat="47.2909730" lon="6.8496110">
        <ele>838.8</ele>
        <time>2022-07-21T07:05:10Z</time>
      </trkpt>
      <trkpt lat="47.2909620" lon="6.8496210">
        <ele>839.0</ele>
        <time>2022-07-21T07:05:12Z</time>
      </trkpt>
      <trkpt lat="47.2909500" lon="6.8496320">
        <ele>839.1</ele>
        <time>2022-07-21T07:05:13Z</time>
      </trkpt>
      <trkpt lat="47.2909390" lon="6.8496420">
        <ele>839.2</ele>
        <time>2022-07-21T07:05:14Z</time>
      </trkpt>
      <trkpt lat="47.2909270" lon="6.8496520">
        <ele>839.4</ele>
        <time>2022-07-21T07:05:15Z</time>
      </trkpt>
      <trkpt lat="47.2909180" lon="6.8496610">
        <ele>839.5</ele>
        <time>2022-07-21T07:05:17Z</time>
      </trkpt>
      <trkpt lat="47.2909090" lon="6.8496680">
        <ele>839.5</ele>
        <time>2022-07-21T07:05:18Z</time>
      </trkpt>
      <trkpt lat="47.2908970" lon="6.8496760">
        <ele>839.7</ele>
        <time>2022-07-21T07:05:19Z</time>
      </trkpt>
      <trkpt lat="47.2908840" lon="6.8496900">
        <ele>839.8</ele>
        <time>2022-07-21T07:05:20Z</time>
      </trkpt>
      <trkpt lat="47.2908740" lon="6.8496970">
        <ele>839.9</ele>
        <time>2022-07-21T07:05:21Z</time>
      </trkpt>
      <trkpt lat="47.2908660" lon="6.8497010">
        <ele>840.0</ele>
        <time>2022-07-21T07:05:22Z</time>
      </trkpt>
      <trkpt lat="47.2908500" lon="6.8497080">
        <ele>840.2</ele>
        <time>2022-07-21T07:05:24Z</time>
      </trkpt>
      <trkpt lat="47.2908380" lon="6.8497150">
        <ele>840.3</ele>
        <time>2022-07-21T07:05:25Z</time>
      </trkpt>
      <trkpt lat="47.2908300" lon="6.8497190">
        <ele>840.4</ele>
        <time>2022-07-21T07:05:26Z</time>
      </trkpt>
      <trkpt lat="47.2908200" lon="6.8497250">
        <ele>840.5</ele>
        <time>2022-07-21T07:05:27Z</time>
      </trkpt>
      <trkpt lat="47.2908080" lon="6.8497340">
        <ele>840.6</ele>
        <time>2022-07-21T07:05:29Z</time>
      </trkpt>
      <trkpt lat="47.2907940" lon="6.8497450">
        <ele>840.7</ele>
        <time>2022-07-21T07:05:30Z</time>
      </trkpt>
      <trkpt lat="47.2907680" lon="6.8497590">
        <ele>841.0</ele>
        <time>2022-07-21T07:05:31Z</time>
      </trkpt>
      <trkpt lat="47.2907350" lon="6.8497740">
        <ele>841.3</ele>
        <time>2022-07-21T07:05:33Z</time>
      </trkpt>
      <trkpt lat="47.2907150" lon="6.8497720">
        <ele>841.5</ele>
        <time>2022-07-21T07:05:34Z</time>
      </trkpt>
      <trkpt lat="47.2907020" lon="6.8497660">
        <ele>841.6</ele>
        <time>2022-07-21T07:05:35Z</time>
      </trkpt>
      <trkpt lat="47.2906610" lon="6.8497610">
        <ele>841.9</ele>
        <time>2022-07-21T07:05:36Z</time>
      </trkpt>
      <trkpt lat="47.2906410" lon="6.8497590">
        <ele>842.0</ele>
        <time>2022-07-21T07:05:38Z</time>
      </trkpt>
      <trkpt lat="47.2906300" lon="6.8497610">
        <ele>842.1</ele>
        <time>2022-07-21T07:05:39Z</time>
      </trkpt>
      <trkpt lat="47.2906130" lon="6.8497570">
        <ele>842.2</ele>
        <time>2022-07-21T07:05:40Z</time>
      </trkpt>
      <trkpt lat="47.2906040" lon="6.8497530">
        <ele>842.3</ele>
        <time>2022-07-21T07:05:41Z</time>
      </trkpt>
      <trkpt lat="47.2905950" lon="6.8497480">
        <ele>842.3</ele>
        <time>2022-07-21T07:05:42Z</time>
      </trkpt>
      <trkpt lat="47.2905860" lon="6.8497440">
        <ele>842.4</ele>
        <time>2022-07-21T07:05:44Z</time>
      </trkpt>
      <trkpt lat="47.2905760" lon="6.8497390">
        <ele>842.5</ele>
        <time>2022-07-21T07:05:45Z</time>
      </trkpt>
      <trkpt lat="47.2905670" lon="6.8497350">
        <ele>842.5</ele>
        <time>2022-07-21T07:05:46Z</time>
      </trkpt>
      <trkpt lat="47.2905580" lon="6.8497300">
        <ele>842.6</ele>
        <time>2022-07-21T07:05:47Z</time>
      </trkpt>
      <trkpt lat="47.2905420" lon="6.8497210">
        <ele>842.7</ele>
        <time>2022-07-21T07:05:49Z</time>
      </trkpt>
      <trkpt lat="47.2905270" lon="6.8497100">
        <ele>842.8</ele>
        <time>2022-07-21T07:05:50Z</time>
      </trkpt>
      <trkpt lat="47.2904900" lon="6.8496830">
        <ele>843.0</ele>
        <time>2022-07-21T07:05:51Z</time>
      </trkpt>
      <trkpt lat="47.2904710" lon="6.8496720">
        <ele>843.1</ele>
        <time>2022-07-21T07:05:52Z</time>
      </trkpt>
      <trkpt lat="47.2904300" lon="6.8496680">
        <ele>843.3</ele>
        <time>2022-07-21T07:05:54Z</time>
      </trkpt>
      <trkpt lat="47.2904040" lon="6.8496640">
        <ele>843.4</ele>
        <time>2022-07-21T07:05:55Z</time>
      </trkpt>
      <trkpt lat="47.2903670" lon="6.8496560">
        <ele>843.6</ele>
        <time>2022-07-21T07:05:57Z</time>
      </trkpt>
      <trkpt lat="47.2903290" lon="6.8496500">
        <ele>843.8</ele>
        <time>2022-07-21T07:05:58Z</time>
      </trkpt>
      <trkpt lat="47.2903160" lon="6.8496480">
        <ele>843.8</ele>
        <time>2022-07-21T07:05:59Z</time>
      </trkpt>
      <trkpt lat="47.2902940" lon="6.8496440">
        <ele>843.9</ele>
        <time>2022-07-21T07:06:00Z</time>
      </trkpt>
      <trkpt lat="47.2902470" lon="6.8496400">
        <ele>844.1</ele>
        <time>2022-07-21T07:06:02Z</time>
      </trkpt>
      <trkpt lat="47.2902110" lon="6.8496370">
        <ele>844.2</ele>
        <time>2022-07-21T07:06:03Z</time>
      </trkpt>
      <trkpt lat="47.2901960" lon="6.8496360">
        <ele>844.3</ele>
        <time>2022-07-21T07:06:04Z</time>
      </trkpt>
      <trkpt lat="47.2901610" lon="6.8496390">
        <ele>844.4</ele>
        <time>2022-07-21T07:06:05Z</time>
      </trkpt>
      <trkpt lat="47.2901480" lon="6.8496410">
        <ele>844.5</ele>
        <time>2022-07-21T07:06:06Z</time>
      </trkpt>
      <trkpt lat="47.2901180" lon="6.8496460">
        <ele>844.6</ele>
        <time>2022-07-21T07:06:07Z</time>
      </trkpt>
      <trkpt lat="47.2901090" lon="6.8496480">
        <ele>844.6</ele>
        <time>2022-07-21T07:06:08Z</time>
      </trkpt>
      <trkpt lat="47.2900750" lon="6.8496600">
        <ele>844.9</ele>
        <time>2022-07-21T07:06:09Z</time>
      </trkpt>
      <trkpt lat="47.2900660" lon="6.8496650">
        <ele>845.0</ele>
        <time>2022-07-21T07:06:10Z</time>
      </trkpt>
      <trkpt lat="47.2900350" lon="6.8496870">
        <ele>845.2</ele>
        <time>2022-07-21T07:06:11Z</time>
      </trkpt>
      <trkpt lat="47.2900230" lon="6.8496950">
        <ele>845.2</ele>
        <time>2022-07-21T07:06:12Z</time>
      </trkpt>
      <trkpt lat="47.2899980" lon="6.8497160">
        <ele>845.4</ele>
        <time>2022-07-21T07:06:13Z</time>
      </trkpt>
      <trkpt lat="47.2899890" lon="6.8497230">
        <ele>845.4</ele>
        <time>2022-07-21T07:06:14Z</time>
      </trkpt>
      <trkpt lat="47.2899640" lon="6.8497400">
        <ele>845.6</ele>
        <time>2022-07-21T07:06:15Z</time>
      </trkpt>
      <trkpt lat="47.2899550" lon="6.8497460">
        <ele>845.6</ele>
        <time>2022-07-21T07:06:16Z</time>
      </trkpt>
      <trkpt lat="47.2899250" lon="6.8497690">
        <ele>845.8</ele>
        <time>2022-07-21T07:06:17Z</time>
      </trkpt>
      <trkpt lat="47.2899150" lon="6.8497770">
        <ele>845.9</ele>
        <time>2022-07-21T07:06:18Z</time>
      </trkpt>
      <trkpt lat="47.2898900" lon="6.8497990">
        <ele>846.1</ele>
        <time>2022-07-21T07:06:19Z</time>
      </trkpt>
      <trkpt lat="47.2898810" lon="6.8498080">
        <ele>846.1</ele>
        <time>2022-07-21T07:06:20Z</time>
      </trkpt>
      <trkpt lat="47.2898510" lon="6.8498400">
        <ele>846.3</ele>
        <time>2022-07-21T07:06:21Z</time>
      </trkpt>
      <trkpt lat="47.2898360" lon="6.8498540">
        <ele>846.4</ele>
        <time>2022-07-21T07:06:23Z</time>
      </trkpt>
      <trkpt lat="47.2898050" lon="6.8498800">
        <ele>846.6</ele>
        <time>2022-07-21T07:06:25Z</time>
      </trkpt>
      <trkpt lat="47.2897840" lon="6.8499050">
        <ele>846.8</ele>
        <time>2022-07-21T07:06:26Z</time>
      </trkpt>
      <trkpt lat="47.2897730" lon="6.8499230">
        <ele>846.9</ele>
        <time>2022-07-21T07:06:27Z</time>
      </trkpt>
      <trkpt lat="47.2897620" lon="6.8499390">
        <ele>847.0</ele>
        <time>2022-07-21T07:06:28Z</time>
      </trkpt>
      <trkpt lat="47.2897350" lon="6.8499710">
        <ele>847.2</ele>
        <time>2022-07-21T07:06:29Z</time>
      </trkpt>
      <trkpt lat="47.2897240" lon="6.8499820">
        <ele>847.3</ele>
        <time>2022-07-21T07:06:30Z</time>
      </trkpt>
      <trkpt lat="47.2897010" lon="6.8500040">
        <ele>847.5</ele>
        <time>2022-07-21T07:06:31Z</time>
      </trkpt>
      <trkpt lat="47.2896910" lon="6.8500140">
        <ele>847.6</ele>
        <time>2022-07-21T07:06:32Z</time>
      </trkpt>
      <trkpt lat="47.2896610" lon="6.8500390">
        <ele>847.8</ele>
        <time>2022-07-21T07:06:34Z</time>
      </trkpt>
      <trkpt lat="47.2896510" lon="6.8500470">
        <ele>847.9</ele>
        <time>2022-07-21T07:06:35Z</time>
      </trkpt>
      <trkpt lat="47.2896320" lon="6.8500650">
        <ele>848.0</ele>
        <time>2022-07-21T07:06:36Z</time>
      </trkpt>
      <trkpt lat="47.2896090" lon="6.8500870">
        <ele>848.2</ele>
        <time>2022-07-21T07:06:38Z</time>
      </trkpt>
      <trkpt lat="47.2895820" lon="6.8501040">
        <ele>848.4</ele>
        <time>2022-07-21T07:06:39Z</time>
      </trkpt>
      <trkpt lat="47.2895710" lon="6.8501100">
        <ele>848.5</ele>
        <time>2022-07-21T07:06:40Z</time>
      </trkpt>
      <trkpt lat="47.2895510" lon="6.8501240">
        <ele>848.6</ele>
        <time>2022-07-21T07:06:41Z</time>
      </trkpt>
      <trkpt lat="47.2895420" lon="6.8501290">
        <ele>848.7</ele>
        <time>2022-07-21T07:06:42Z</time>
      </trkpt>
      <trkpt lat="47.2895330" lon="6.8501340">
        <ele>848.7</ele>
        <time>2022-07-21T07:06:43Z</time>
      </trkpt>
      <trkpt lat="47.2894950" lon="6.8501550">
        <ele>848.9</ele>
        <time>2022-07-21T07:06:45Z</time>
      </trkpt>
      <trkpt lat="47.2894860" lon="6.8501580">
        <ele>849.0</ele>
        <time>2022-07-21T07:06:46Z</time>
      </trkpt>
      <trkpt lat="47.2894770" lon="6.8501600">
        <ele>849.0</ele>
        <time>2022-07-21T07:06:47Z</time>
      </trkpt>
      <trkpt lat="47.2894680" lon="6.8501630">
        <ele>849.1</ele>
        <time>2022-07-21T07:06:48Z</time>
      </trkpt>
      <trkpt lat="47.2894570" lon="6.8501710">
        <ele>849.1</ele>
        <time>2022-07-21T07:06:49Z</time>
      </trkpt>
      <trkpt lat="47.2894470" lon="6.8501760">
        <ele>849.2</ele>
        <time>2022-07-21T07:06:50Z</time>
      </trkpt>
      <trkpt lat="47.2894400" lon="6.8501780">
        <ele>849.2</ele>
        <time>2022-07-21T07:06:51Z</time>
      </trkpt>
      <trkpt lat="47.2894180" lon="6.8501880">
        <ele>849.3</ele>
        <time>2022-07-21T07:06:53Z</time>
      </trkpt>
      <trkpt lat="47.2894060" lon="6.8501920">
        <ele>849.3</ele>
        <time>2022-07-21T07:06:54Z</time>
      </trkpt>
      <trkpt lat="47.2893700" lon="6.8502010">
        <ele>849.4</ele>
        <time>2022-07-21T07:06:55Z</time>
      </trkpt>
      <trkpt lat="47.2893600" lon="6.8502030">
        <ele>849.4</ele>
        <time>2022-07-21T07:06:56Z</time>
      </trkpt>
      <trkpt lat="47.2893260" lon="6.8502110">
        <ele>849.4</ele>
        <time>2022-07-21T07:06:58Z</time>
      </trkpt>
      <trkpt lat="47.2893130" lon="6.8502110">
        <ele>849.4</ele>
        <time>2022-07-21T07:06:59Z</time>
      </trkpt>
      <trkpt lat="47.2892790" lon="6.8502140">
        <ele>849.3</ele>
        <time>2022-07-21T07:07:00Z</time>
      </trkpt>
      <trkpt lat="47.2892490" lon="6.8502190">
        <ele>849.3</ele>
        <time>2022-07-21T07:07:01Z</time>
      </trkpt>
      <trkpt lat="47.2892010" lon="6.8502240">
        <ele>849.1</ele>
        <time>2022-07-21T07:07:02Z</time>
      </trkpt>
      <trkpt lat="47.2891540" lon="6.8502320">
        <ele>849.0</ele>
        <time>2022-07-21T07:07:04Z</time>
      </trkpt>
      <trkpt lat="47.2891040" lon="6.8502450">
        <ele>848.7</ele>
        <time>2022-07-21T07:07:05Z</time>
      </trkpt>
      <trkpt lat="47.2890530" lon="6.8502660">
        <ele>848.4</ele>
        <time>2022-07-21T07:07:07Z</time>
      </trkpt>
      <trkpt lat="47.2889950" lon="6.8502910">
        <ele>848.1</ele>
        <time>2022-07-21T07:07:08Z</time>
      </trkpt>
      <trkpt lat="47.2888680" lon="6.8503610">
        <ele>847.2</ele>
        <time>2022-07-21T07:07:09Z</time>
      </trkpt>
      <trkpt lat="47.2887980" lon="6.8504060">
        <ele>846.8</ele>
        <time>2022-07-21T07:07:10Z</time>
      </trkpt>
      <trkpt lat="47.2887170" lon="6.8504730">
        <ele>846.5</ele>
        <time>2022-07-21T07:07:11Z</time>
      </trkpt>
      <trkpt lat="47.2886580" lon="6.8505330">
        <ele>846.4</ele>
        <time>2022-07-21T07:07:12Z</time>
      </trkpt>
      <trkpt lat="47.2886110" lon="6.8506040">
        <ele>846.3</ele>
        <time>2022-07-21T07:07:13Z</time>
      </trkpt>
      <trkpt lat="47.2885710" lon="6.8506790">
        <ele>846.2</ele>
        <time>2022-07-21T07:07:14Z</time>
      </trkpt>
      <trkpt lat="47.2885430" lon="6.8507470">
        <ele>846.2</ele>
        <time>2022-07-21T07:07:15Z</time>
      </trkpt>
      <trkpt lat="47.2885110" lon="6.8508040">
        <ele>846.3</ele>
        <time>2022-07-21T07:07:16Z</time>
      </trkpt>
      <trkpt lat="47.2884850" lon="6.8508600">
        <ele>846.3</ele>
        <time>2022-07-21T07:07:17Z</time>
      </trkpt>
      <trkpt lat="47.2884840" lon="6.8509220">
        <ele>846.3</ele>
        <time>2022-07-21T07:07:18Z</time>
      </trkpt>
      <trkpt lat="47.2884620" lon="6.8509810">
        <ele>846.4</ele>
        <time>2022-07-21T07:07:19Z</time>
      </trkpt>
      <trkpt lat="47.2884200" lon="6.8510490">
        <ele>846.5</ele>
        <time>2022-07-21T07:07:21Z</time>
      </trkpt>
      <trkpt lat="47.2883910" lon="6.8510870">
        <ele>846.6</ele>
        <time>2022-07-21T07:07:22Z</time>
      </trkpt>
      <trkpt lat="47.2883650" lon="6.8511230">
        <ele>846.7</ele>
        <time>2022-07-21T07:07:23Z</time>
      </trkpt>
      <trkpt lat="47.2883300" lon="6.8511670">
        <ele>846.8</ele>
        <time>2022-07-21T07:07:24Z</time>
      </trkpt>
      <trkpt lat="47.2882960" lon="6.8512040">
        <ele>847.0</ele>
        <time>2022-07-21T07:07:26Z</time>
      </trkpt>
      <trkpt lat="47.2882790" lon="6.8512290">
        <ele>847.0</ele>
        <time>2022-07-21T07:07:27Z</time>
      </trkpt>
      <trkpt lat="47.2882620" lon="6.8512660">
        <ele>847.1</ele>
        <time>2022-07-21T07:07:29Z</time>
      </trkpt>
      <trkpt lat="47.2882520" lon="6.8513040">
        <ele>847.2</ele>
        <time>2022-07-21T07:07:30Z</time>
      </trkpt>
      <trkpt lat="47.2882420" lon="6.8513300">
        <ele>847.3</ele>
        <time>2022-07-21T07:07:31Z</time>
      </trkpt>
      <trkpt lat="47.2882340" lon="6.8513500">
        <ele>847.4</ele>
        <time>2022-07-21T07:07:32Z</time>
      </trkpt>
      <trkpt lat="47.2882110" lon="6.8513890">
        <ele>847.5</ele>
        <time>2022-07-21T07:07:33Z</time>
      </trkpt>
      <trkpt lat="47.2882010" lon="6.8514030">
        <ele>847.6</ele>
        <time>2022-07-21T07:07:34Z</time>
      </trkpt>
      <trkpt lat="47.2881710" lon="6.8514400">
        <ele>847.7</ele>
        <time>2022-07-21T07:07:35Z</time>
      </trkpt>
      <trkpt lat="47.2881530" lon="6.8514620">
        <ele>847.8</ele>
        <time>2022-07-21T07:07:36Z</time>
      </trkpt>
      <trkpt lat="47.2881370" lon="6.8514930">
        <ele>848.0</ele>
        <time>2022-07-21T07:07:38Z</time>
      </trkpt>
      <trkpt lat="47.2881160" lon="6.8515210">
        <ele>848.1</ele>
        <time>2022-07-21T07:07:39Z</time>
      </trkpt>
      <trkpt lat="47.2880960" lon="6.8515480">
        <ele>848.2</ele>
        <time>2022-07-21T07:07:40Z</time>
      </trkpt>
      <trkpt lat="47.2880680" lon="6.8515750">
        <ele>848.4</ele>
        <time>2022-07-21T07:07:41Z</time>
      </trkpt>
      <trkpt lat="47.2880440" lon="6.8516010">
        <ele>848.5</ele>
        <time>2022-07-21T07:07:42Z</time>
      </trkpt>
      <trkpt lat="47.2880360" lon="6.8516120">
        <ele>848.6</ele>
        <time>2022-07-21T07:07:43Z</time>
      </trkpt>
      <trkpt lat="47.2880080" lon="6.8516550">
        <ele>848.8</ele>
        <time>2022-07-21T07:07:44Z</time>
      </trkpt>
      <trkpt lat="47.2879980" lon="6.8516700">
        <ele>848.9</ele>
        <time>2022-07-21T07:07:45Z</time>
      </trkpt>
      <trkpt lat="47.2879770" lon="6.8517090">
        <ele>849.0</ele>
        <time>2022-07-21T07:07:46Z</time>
      </trkpt>
      <trkpt lat="47.2879580" lon="6.8517470">
        <ele>849.2</ele>
        <time>2022-07-21T07:07:47Z</time>
      </trkpt>
      <trkpt lat="47.2879370" lon="6.8517870">
        <ele>849.4</ele>
        <time>2022-07-21T07:07:48Z</time>
      </trkpt>
      <trkpt lat="47.2879300" lon="6.8517980">
        <ele>849.5</ele>
        <time>2022-07-21T07:07:49Z</time>
      </trkpt>
      <trkpt lat="47.2879070" lon="6.8518310">
        <ele>849.7</ele>
        <time>2022-07-21T07:07:50Z</time>
      </trkpt>
      <trkpt lat="47.2879000" lon="6.8518440">
        <ele>849.8</ele>
        <time>2022-07-21T07:07:51Z</time>
      </trkpt>
      <trkpt lat="47.2878910" lon="6.8518700">
        <ele>849.9</ele>
        <time>2022-07-21T07:07:52Z</time>
      </trkpt>
      <trkpt lat="47.2878840" lon="6.8518910">
        <ele>850.0</ele>
        <time>2022-07-21T07:07:53Z</time>
      </trkpt>
      <trkpt lat="47.2878800" lon="6.8519120">
        <ele>850.1</ele>
        <time>2022-07-21T07:07:54Z</time>
      </trkpt>
      <trkpt lat="47.2878740" lon="6.8519350">
        <ele>850.3</ele>
        <time>2022-07-21T07:07:55Z</time>
      </trkpt>
      <trkpt lat="47.2878700" lon="6.8519580">
        <ele>850.4</ele>
        <time>2022-07-21T07:07:56Z</time>
      </trkpt>
      <trkpt lat="47.2878660" lon="6.8519780">
        <ele>850.5</ele>
        <time>2022-07-21T07:07:57Z</time>
      </trkpt>
      <trkpt lat="47.2878560" lon="6.8520190">
        <ele>850.7</ele>
        <time>2022-07-21T07:07:58Z</time>
      </trkpt>
      <trkpt lat="47.2878520" lon="6.8520360">
        <ele>850.8</ele>
        <time>2022-07-21T07:07:59Z</time>
      </trkpt>
      <trkpt lat="47.2878460" lon="6.8520870">
        <ele>851.1</ele>
        <time>2022-07-21T07:08:00Z</time>
      </trkpt>
      <trkpt lat="47.2878450" lon="6.8521040">
        <ele>851.1</ele>
        <time>2022-07-21T07:08:01Z</time>
      </trkpt>
      <trkpt lat="47.2878450" lon="6.8521610">
        <ele>851.1</ele>
        <time>2022-07-21T07:08:02Z</time>
      </trkpt>
      <trkpt lat="47.2878460" lon="6.8521790">
        <ele>851.1</ele>
        <time>2022-07-21T07:08:03Z</time>
      </trkpt>
      <trkpt lat="47.2878450" lon="6.8522220">
        <ele>851.0</ele>
        <time>2022-07-21T07:08:04Z</time>
      </trkpt>
      <trkpt lat="47.2878450" lon="6.8522710">
        <ele>851.0</ele>
        <time>2022-07-21T07:08:05Z</time>
      </trkpt>
      <trkpt lat="47.2878480" lon="6.8523210">
        <ele>850.9</ele>
        <time>2022-07-21T07:08:06Z</time>
      </trkpt>
      <trkpt lat="47.2878500" lon="6.8523750">
        <ele>850.8</ele>
        <time>2022-07-21T07:08:07Z</time>
      </trkpt>
      <trkpt lat="47.2878530" lon="6.8524330">
        <ele>850.7</ele>
        <time>2022-07-21T07:08:08Z</time>
      </trkpt>
      <trkpt lat="47.2878540" lon="6.8524820">
        <ele>850.7</ele>
        <time>2022-07-21T07:08:09Z</time>
      </trkpt>
      <trkpt lat="47.2878550" lon="6.8525330">
        <ele>850.5</ele>
        <time>2022-07-21T07:08:10Z</time>
      </trkpt>
      <trkpt lat="47.2878570" lon="6.8525870">
        <ele>850.4</ele>
        <time>2022-07-21T07:08:11Z</time>
      </trkpt>
      <trkpt lat="47.2878570" lon="6.8526530">
        <ele>850.3</ele>
        <time>2022-07-21T07:08:12Z</time>
      </trkpt>
      <trkpt lat="47.2878540" lon="6.8527160">
        <ele>850.1</ele>
        <time>2022-07-21T07:08:13Z</time>
      </trkpt>
      <trkpt lat="47.2878490" lon="6.8527690">
        <ele>850.0</ele>
        <time>2022-07-21T07:08:14Z</time>
      </trkpt>
      <trkpt lat="47.2878130" lon="6.8529170">
        <ele>849.4</ele>
        <time>2022-07-21T07:08:16Z</time>
      </trkpt>
      <trkpt lat="47.2878060" lon="6.8529930">
        <ele>849.2</ele>
        <time>2022-07-21T07:08:17Z</time>
      </trkpt>
      <trkpt lat="47.2877970" lon="6.8530750">
        <ele>848.9</ele>
        <time>2022-07-21T07:08:18Z</time>
      </trkpt>
      <trkpt lat="47.2877900" lon="6.8531620">
        <ele>848.6</ele>
        <time>2022-07-21T07:08:19Z</time>
      </trkpt>
      <trkpt lat="47.2877760" lon="6.8532910">
        <ele>847.9</ele>
        <time>2022-07-21T07:08:20Z</time>
      </trkpt>
      <trkpt lat="47.2877600" lon="6.8534030">
        <ele>847.2</ele>
        <time>2022-07-21T07:08:21Z</time>
      </trkpt>
      <trkpt lat="47.2877460" lon="6.8534970">
        <ele>846.6</ele>
        <time>2022-07-21T07:08:22Z</time>
      </trkpt>
      <trkpt lat="47.2877270" lon="6.8536070">
        <ele>845.8</ele>
        <time>2022-07-21T07:08:23Z</time>
      </trkpt>
      <trkpt lat="47.2877060" lon="6.8537220">
        <ele>844.9</ele>
        <time>2022-07-21T07:08:24Z</time>
      </trkpt>
      <trkpt lat="47.2876880" lon="6.8538490">
        <ele>844.0</ele>
        <time>2022-07-21T07:08:25Z</time>
      </trkpt>
      <trkpt lat="47.2876800" lon="6.8539690">
        <ele>843.0</ele>
        <time>2022-07-21T07:08:26Z</time>
      </trkpt>
      <trkpt lat="47.2876750" lon="6.8540840">
        <ele>842.1</ele>
        <time>2022-07-21T07:08:27Z</time>
      </trkpt>
      <trkpt lat="47.2876750" lon="6.8541950">
        <ele>841.2</ele>
        <time>2022-07-21T07:08:28Z</time>
      </trkpt>
      <trkpt lat="47.2876720" lon="6.8543250">
        <ele>840.2</ele>
        <time>2022-07-21T07:08:29Z</time>
      </trkpt>
      <trkpt lat="47.2876620" lon="6.8544600">
        <ele>839.1</ele>
        <time>2022-07-21T07:08:30Z</time>
      </trkpt>
      <trkpt lat="47.2876550" lon="6.8545840">
        <ele>838.1</ele>
        <time>2022-07-21T07:08:31Z</time>
      </trkpt>
      <trkpt lat="47.2876520" lon="6.8546930">
        <ele>837.3</ele>
        <time>2022-07-21T07:08:32Z</time>
      </trkpt>
      <trkpt lat="47.2876480" lon="6.8548080">
        <ele>836.5</ele>
        <time>2022-07-21T07:08:33Z</time>
      </trkpt>
      <trkpt lat="47.2876400" lon="6.8549440">
        <ele>835.6</ele>
        <time>2022-07-21T07:08:34Z</time>
      </trkpt>
      <trkpt lat="47.2876460" lon="6.8550900">
        <ele>834.8</ele>
        <time>2022-07-21T07:08:35Z</time>
      </trkpt>
      <trkpt lat="47.2876640" lon="6.8552230">
        <ele>834.2</ele>
        <time>2022-07-21T07:08:36Z</time>
      </trkpt>
      <trkpt lat="47.2876870" lon="6.8553430">
        <ele>833.6</ele>
        <time>2022-07-21T07:08:37Z</time>
      </trkpt>
      <trkpt lat="47.2877170" lon="6.8554750">
        <ele>833.0</ele>
        <time>2022-07-21T07:08:38Z</time>
      </trkpt>
      <trkpt lat="47.2877510" lon="6.8556180">
        <ele>832.4</ele>
        <time>2022-07-21T07:08:39Z</time>
      </trkpt>
      <trkpt lat="47.2877840" lon="6.8557560">
        <ele>831.7</ele>
        <time>2022-07-21T07:08:40Z</time>
      </trkpt>
      <trkpt lat="47.2878130" lon="6.8558940">
        <ele>831.1</ele>
        <time>2022-07-21T07:08:41Z</time>
      </trkpt>
      <trkpt lat="47.2878460" lon="6.8560340">
        <ele>830.4</ele>
        <time>2022-07-21T07:08:42Z</time>
      </trkpt>
      <trkpt lat="47.2878760" lon="6.8561630">
        <ele>829.8</ele>
        <time>2022-07-21T07:08:43Z</time>
      </trkpt>
      <trkpt lat="47.2878900" lon="6.8562730">
        <ele>829.2</ele>
        <time>2022-07-21T07:08:44Z</time>
      </trkpt>
      <trkpt lat="47.2878930" lon="6.8563630">
        <ele>828.7</ele>
        <time>2022-07-21T07:08:45Z</time>
      </trkpt>
      <trkpt lat="47.2878840" lon="6.8564410">
        <ele>828.2</ele>
        <time>2022-07-21T07:08:46Z</time>
      </trkpt>
      <trkpt lat="47.2878580" lon="6.8565250">
        <ele>827.6</ele>
        <time>2022-07-21T07:08:47Z</time>
      </trkpt>
      <trkpt lat="47.2878350" lon="6.8566140">
        <ele>826.9</ele>
        <time>2022-07-21T07:08:48Z</time>
      </trkpt>
      <trkpt lat="47.2878070" lon="6.8566860">
        <ele>826.4</ele>
        <time>2022-07-21T07:08:49Z</time>
      </trkpt>
      <trkpt lat="47.2877830" lon="6.8567490">
        <ele>825.9</ele>
        <time>2022-07-21T07:08:50Z</time>
      </trkpt>
      <trkpt lat="47.2877630" lon="6.8567790">
        <ele>825.6</ele>
        <time>2022-07-21T07:08:51Z</time>
      </trkpt>
      <trkpt lat="47.2877140" lon="6.8568030">
        <ele>825.0</ele>
        <time>2022-07-21T07:08:52Z</time>
      </trkpt>
      <trkpt lat="47.2876400" lon="6.8568040">
        <ele>824.4</ele>
        <time>2022-07-21T07:08:53Z</time>
      </trkpt>
      <trkpt lat="47.2875290" lon="6.8567600">
        <ele>823.6</ele>
        <time>2022-07-21T07:08:54Z</time>
      </trkpt>
      <trkpt lat="47.2874560" lon="6.8566590">
        <ele>822.9</ele>
        <time>2022-07-21T07:08:55Z</time>
      </trkpt>
      <trkpt lat="47.2873890" lon="6.8565590">
        <ele>822.2</ele>
        <time>2022-07-21T07:08:56Z</time>
      </trkpt>
      <trkpt lat="47.2873090" lon="6.8564650">
        <ele>821.5</ele>
        <time>2022-07-21T07:08:57Z</time>
      </trkpt>
      <trkpt lat="47.2872290" lon="6.8563810">
        <ele>820.9</ele>
        <time>2022-07-21T07:08:58Z</time>
      </trkpt>
      <trkpt lat="47.2871460" lon="6.8563130">
        <ele>820.3</ele>
        <time>2022-07-21T07:08:59Z</time>
      </trkpt>
      <trkpt lat="47.2870550" lon="6.8562570">
        <ele>819.7</ele>
        <time>2022-07-21T07:09:00Z</time>
      </trkpt>
      <trkpt lat="47.2869690" lon="6.8562110">
        <ele>819.1</ele>
        <time>2022-07-21T07:09:01Z</time>
      </trkpt>
      <trkpt lat="47.2868850" lon="6.8561760">
        <ele>818.5</ele>
        <time>2022-07-21T07:09:02Z</time>
      </trkpt>
      <trkpt lat="47.2867970" lon="6.8561550">
        <ele>817.8</ele>
        <time>2022-07-21T07:09:03Z</time>
      </trkpt>
      <trkpt lat="47.2867030" lon="6.8561440">
        <ele>816.9</ele>
        <time>2022-07-21T07:09:04Z</time>
      </trkpt>
      <trkpt lat="47.2866010" lon="6.8561320">
        <ele>815.8</ele>
        <time>2022-07-21T07:09:05Z</time>
      </trkpt>
      <trkpt lat="47.2865070" lon="6.8561090">
        <ele>814.7</ele>
        <time>2022-07-21T07:09:06Z</time>
      </trkpt>
      <trkpt lat="47.2864220" lon="6.8560770">
        <ele>813.6</ele>
        <time>2022-07-21T07:09:07Z</time>
      </trkpt>
      <trkpt lat="47.2863360" lon="6.8560570">
        <ele>812.5</ele>
        <time>2022-07-21T07:09:08Z</time>
      </trkpt>
      <trkpt lat="47.2862510" lon="6.8560480">
        <ele>811.8</ele>
        <time>2022-07-21T07:09:09Z</time>
      </trkpt>
      <trkpt lat="47.2861740" lon="6.8560750">
        <ele>811.4</ele>
        <time>2022-07-21T07:09:10Z</time>
      </trkpt>
      <trkpt lat="47.2861030" lon="6.8561110">
        <ele>810.4</ele>
        <time>2022-07-21T07:09:11Z</time>
      </trkpt>
      <trkpt lat="47.2860230" lon="6.8561570">
        <ele>809.3</ele>
        <time>2022-07-21T07:09:12Z</time>
      </trkpt>
      <trkpt lat="47.2859390" lon="6.8562160">
        <ele>808.2</ele>
        <time>2022-07-21T07:09:13Z</time>
      </trkpt>
      <trkpt lat="47.2858630" lon="6.8562880">
        <ele>807.1</ele>
        <time>2022-07-21T07:09:14Z</time>
      </trkpt>
      <trkpt lat="47.2857840" lon="6.8563760">
        <ele>805.9</ele>
        <time>2022-07-21T07:09:15Z</time>
      </trkpt>
      <trkpt lat="47.2857130" lon="6.8564590">
        <ele>804.7</ele>
        <time>2022-07-21T07:09:16Z</time>
      </trkpt>
      <trkpt lat="47.2856480" lon="6.8565660">
        <ele>803.6</ele>
        <time>2022-07-21T07:09:17Z</time>
      </trkpt>
      <trkpt lat="47.2855900" lon="6.8566870">
        <ele>802.4</ele>
        <time>2022-07-21T07:09:18Z</time>
      </trkpt>
      <trkpt lat="47.2855270" lon="6.8567860">
        <ele>801.3</ele>
        <time>2022-07-21T07:09:19Z</time>
      </trkpt>
      <trkpt lat="47.2854630" lon="6.8568710">
        <ele>800.1</ele>
        <time>2022-07-21T07:09:20Z</time>
      </trkpt>
      <trkpt lat="47.2853980" lon="6.8569320">
        <ele>799.0</ele>
        <time>2022-07-21T07:09:21Z</time>
      </trkpt>
      <trkpt lat="47.2853340" lon="6.8569890">
        <ele>797.9</ele>
        <time>2022-07-21T07:09:22Z</time>
      </trkpt>
      <trkpt lat="47.2852460" lon="6.8570430">
        <ele>796.6</ele>
        <time>2022-07-21T07:09:23Z</time>
      </trkpt>
      <trkpt lat="47.2851530" lon="6.8571060">
        <ele>795.3</ele>
        <time>2022-07-21T07:09:24Z</time>
      </trkpt>
      <trkpt lat="47.2850670" lon="6.8571750">
        <ele>794.1</ele>
        <time>2022-07-21T07:09:25Z</time>
      </trkpt>
      <trkpt lat="47.2849910" lon="6.8572430">
        <ele>793.0</ele>
        <time>2022-07-21T07:09:26Z</time>
      </trkpt>
      <trkpt lat="47.2849190" lon="6.8573100">
        <ele>792.0</ele>
        <time>2022-07-21T07:09:27Z</time>
      </trkpt>
      <trkpt lat="47.2848500" lon="6.8573990">
        <ele>790.9</ele>
        <time>2022-07-21T07:09:28Z</time>
      </trkpt>
      <trkpt lat="47.2847840" lon="6.8574990">
        <ele>789.7</ele>
        <time>2022-07-21T07:09:29Z</time>
      </trkpt>
      <trkpt lat="47.2847180" lon="6.8576070">
        <ele>788.5</ele>
        <time>2022-07-21T07:09:30Z</time>
      </trkpt>
      <trkpt lat="47.2846590" lon="6.8577240">
        <ele>787.3</ele>
        <time>2022-07-21T07:09:31Z</time>
      </trkpt>
      <trkpt lat="47.2845900" lon="6.8578260">
        <ele>786.2</ele>
        <time>2022-07-21T07:09:32Z</time>
      </trkpt>
      <trkpt lat="47.2845230" lon="6.8579360">
        <ele>785.0</ele>
        <time>2022-07-21T07:09:33Z</time>
      </trkpt>
      <trkpt lat="47.2844620" lon="6.8580500">
        <ele>784.0</ele>
        <time>2022-07-21T07:09:34Z</time>
      </trkpt>
      <trkpt lat="47.2844020" lon="6.8581660">
        <ele>783.1</ele>
        <time>2022-07-21T07:09:35Z</time>
      </trkpt>
      <trkpt lat="47.2843520" lon="6.8582820">
        <ele>782.3</ele>
        <time>2022-07-21T07:09:36Z</time>
      </trkpt>
      <trkpt lat="47.2843000" lon="6.8584220">
        <ele>781.7</ele>
        <time>2022-07-21T07:09:37Z</time>
      </trkpt>
      <trkpt lat="47.2842480" lon="6.8585720">
        <ele>781.2</ele>
        <time>2022-07-21T07:09:38Z</time>
      </trkpt>
      <trkpt lat="47.2841990" lon="6.8587060">
        <ele>780.7</ele>
        <time>2022-07-21T07:09:39Z</time>
      </trkpt>
      <trkpt lat="47.2841570" lon="6.8588210">
        <ele>780.4</ele>
        <time>2022-07-21T07:09:40Z</time>
      </trkpt>
      <trkpt lat="47.2841190" lon="6.8589500">
        <ele>780.1</ele>
        <time>2022-07-21T07:09:41Z</time>
      </trkpt>
      <trkpt lat="47.2840840" lon="6.8590780">
        <ele>779.9</ele>
        <time>2022-07-21T07:09:42Z</time>
      </trkpt>
      <trkpt lat="47.2840570" lon="6.8591960">
        <ele>779.8</ele>
        <time>2022-07-21T07:09:43Z</time>
      </trkpt>
      <trkpt lat="47.2840330" lon="6.8593160">
        <ele>779.7</ele>
        <time>2022-07-21T07:09:44Z</time>
      </trkpt>
      <trkpt lat="47.2840140" lon="6.8594270">
        <ele>779.7</ele>
        <time>2022-07-21T07:09:45Z</time>
      </trkpt>
      <trkpt lat="47.2839970" lon="6.8595420">
        <ele>779.8</ele>
        <time>2022-07-21T07:09:46Z</time>
      </trkpt>
      <trkpt lat="47.2839850" lon="6.8596580">
        <ele>779.9</ele>
        <time>2022-07-21T07:09:47Z</time>
      </trkpt>
      <trkpt lat="47.2839760" lon="6.8597640">
        <ele>780.1</ele>
        <time>2022-07-21T07:09:48Z</time>
      </trkpt>
      <trkpt lat="47.2839780" lon="6.8598610">
        <ele>780.3</ele>
        <time>2022-07-21T07:09:49Z</time>
      </trkpt>
      <trkpt lat="47.2839830" lon="6.8599490">
        <ele>780.4</ele>
        <time>2022-07-21T07:09:50Z</time>
      </trkpt>
      <trkpt lat="47.2839830" lon="6.8600270">
        <ele>780.6</ele>
        <time>2022-07-21T07:09:51Z</time>
      </trkpt>
      <trkpt lat="47.2839870" lon="6.8600980">
        <ele>780.8</ele>
        <time>2022-07-21T07:09:52Z</time>
      </trkpt>
      <trkpt lat="47.2839970" lon="6.8601800">
        <ele>780.9</ele>
        <time>2022-07-21T07:09:53Z</time>
      </trkpt>
      <trkpt lat="47.2840090" lon="6.8602580">
        <ele>781.1</ele>
        <time>2022-07-21T07:09:54Z</time>
      </trkpt>
      <trkpt lat="47.2840190" lon="6.8603230">
        <ele>781.2</ele>
        <time>2022-07-21T07:09:55Z</time>
      </trkpt>
      <trkpt lat="47.2840260" lon="6.8603740">
        <ele>781.3</ele>
        <time>2022-07-21T07:09:56Z</time>
      </trkpt>
      <trkpt lat="47.2840240" lon="6.8604390">
        <ele>781.4</ele>
        <time>2022-07-21T07:09:57Z</time>
      </trkpt>
      <trkpt lat="47.2840280" lon="6.8605050">
        <ele>781.5</ele>
        <time>2022-07-21T07:09:58Z</time>
      </trkpt>
      <trkpt lat="47.2840370" lon="6.8605700">
        <ele>781.6</ele>
        <time>2022-07-21T07:09:59Z</time>
      </trkpt>
      <trkpt lat="47.2840400" lon="6.8606170">
        <ele>781.7</ele>
        <time>2022-07-21T07:10:00Z</time>
      </trkpt>
      <trkpt lat="47.2840460" lon="6.8606940">
        <ele>781.8</ele>
        <time>2022-07-21T07:10:01Z</time>
      </trkpt>
      <trkpt lat="47.2840500" lon="6.8607490">
        <ele>781.9</ele>
        <time>2022-07-21T07:10:02Z</time>
      </trkpt>
      <trkpt lat="47.2840560" lon="6.8608100">
        <ele>782.0</ele>
        <time>2022-07-21T07:10:03Z</time>
      </trkpt>
      <trkpt lat="47.2840660" lon="6.8608910">
        <ele>782.1</ele>
        <time>2022-07-21T07:10:04Z</time>
      </trkpt>
      <trkpt lat="47.2840740" lon="6.8609570">
        <ele>782.2</ele>
        <time>2022-07-21T07:10:05Z</time>
      </trkpt>
      <trkpt lat="47.2840860" lon="6.8610100">
        <ele>782.3</ele>
        <time>2022-07-21T07:10:06Z</time>
      </trkpt>
      <trkpt lat="47.2840990" lon="6.8610490">
        <ele>782.3</ele>
        <time>2022-07-21T07:10:07Z</time>
      </trkpt>
      <trkpt lat="47.2841080" lon="6.8611110">
        <ele>782.4</ele>
        <time>2022-07-21T07:10:08Z</time>
      </trkpt>
      <trkpt lat="47.2841130" lon="6.8611740">
        <ele>782.5</ele>
        <time>2022-07-21T07:10:09Z</time>
      </trkpt>
      <trkpt lat="47.2841190" lon="6.8612280">
        <ele>782.5</ele>
        <time>2022-07-21T07:10:10Z</time>
      </trkpt>
      <trkpt lat="47.2841210" lon="6.8612840">
        <ele>782.5</ele>
        <time>2022-07-21T07:10:11Z</time>
      </trkpt>
      <trkpt lat="47.2841170" lon="6.8613420">
        <ele>782.6</ele>
        <time>2022-07-21T07:10:12Z</time>
      </trkpt>
      <trkpt lat="47.2841120" lon="6.8613920">
        <ele>782.6</ele>
        <time>2022-07-21T07:10:13Z</time>
      </trkpt>
      <trkpt lat="47.2841060" lon="6.8614440">
        <ele>782.6</ele>
        <time>2022-07-21T07:10:14Z</time>
      </trkpt>
      <trkpt lat="47.2840980" lon="6.8614960">
        <ele>782.6</ele>
        <time>2022-07-21T07:10:15Z</time>
      </trkpt>
      <trkpt lat="47.2840870" lon="6.8615490">
        <ele>782.6</ele>
        <time>2022-07-21T07:10:16Z</time>
      </trkpt>
      <trkpt lat="47.2840720" lon="6.8615930">
        <ele>782.6</ele>
        <time>2022-07-21T07:10:17Z</time>
      </trkpt>
      <trkpt lat="47.2840530" lon="6.8616440">
        <ele>782.6</ele>
        <time>2022-07-21T07:10:18Z</time>
      </trkpt>
      <trkpt lat="47.2840310" lon="6.8616780">
        <ele>782.6</ele>
        <time>2022-07-21T07:10:19Z</time>
      </trkpt>
      <trkpt lat="47.2840080" lon="6.8617280">
        <ele>782.6</ele>
        <time>2022-07-21T07:10:20Z</time>
      </trkpt>
      <trkpt lat="47.2839850" lon="6.8617760">
        <ele>782.6</ele>
        <time>2022-07-21T07:10:21Z</time>
      </trkpt>
      <trkpt lat="47.2839640" lon="6.8618250">
        <ele>782.6</ele>
        <time>2022-07-21T07:10:22Z</time>
      </trkpt>
      <trkpt lat="47.2839430" lon="6.8618690">
        <ele>782.5</ele>
        <time>2022-07-21T07:10:23Z</time>
      </trkpt>
      <trkpt lat="47.2839220" lon="6.8619140">
        <ele>782.5</ele>
        <time>2022-07-21T07:10:24Z</time>
      </trkpt>
      <trkpt lat="47.2838990" lon="6.8619710">
        <ele>782.5</ele>
        <time>2022-07-21T07:10:25Z</time>
      </trkpt>
      <trkpt lat="47.2838770" lon="6.8620300">
        <ele>782.5</ele>
        <time>2022-07-21T07:10:26Z</time>
      </trkpt>
      <trkpt lat="47.2838600" lon="6.8620710">
        <ele>782.5</ele>
        <time>2022-07-21T07:10:27Z</time>
      </trkpt>
      <trkpt lat="47.2838390" lon="6.8621220">
        <ele>782.5</ele>
        <time>2022-07-21T07:10:28Z</time>
      </trkpt>
      <trkpt lat="47.2838150" lon="6.8621760">
        <ele>782.4</ele>
        <time>2022-07-21T07:10:29Z</time>
      </trkpt>
      <trkpt lat="47.2837960" lon="6.8622160">
        <ele>782.4</ele>
        <time>2022-07-21T07:10:30Z</time>
      </trkpt>
      <trkpt lat="47.2837720" lon="6.8622640">
        <ele>782.4</ele>
        <time>2022-07-21T07:10:31Z</time>
      </trkpt>
      <trkpt lat="47.2837490" lon="6.8623020">
        <ele>782.4</ele>
        <time>2022-07-21T07:10:32Z</time>
      </trkpt>
      <trkpt lat="47.2837220" lon="6.8623520">
        <ele>782.4</ele>
        <time>2022-07-21T07:10:33Z</time>
      </trkpt>
      <trkpt lat="47.2837100" lon="6.8623730">
        <ele>782.3</ele>
        <time>2022-07-21T07:10:34Z</time>
      </trkpt>
      <trkpt lat="47.2836850" lon="6.8624160">
        <ele>782.3</ele>
        <time>2022-07-21T07:10:35Z</time>
      </trkpt>
      <trkpt lat="47.2836620" lon="6.8624570">
        <ele>782.3</ele>
        <time>2022-07-21T07:10:36Z</time>
      </trkpt>
      <trkpt lat="47.2836390" lon="6.8624950">
        <ele>782.2</ele>
        <time>2022-07-21T07:10:37Z</time>
      </trkpt>
      <trkpt lat="47.2836130" lon="6.8625370">
        <ele>782.2</ele>
        <time>2022-07-21T07:10:38Z</time>
      </trkpt>
      <trkpt lat="47.2836040" lon="6.8625550">
        <ele>782.1</ele>
        <time>2022-07-21T07:10:39Z</time>
      </trkpt>
      <trkpt lat="47.2835810" lon="6.8626000">
        <ele>782.1</ele>
        <time>2022-07-21T07:10:40Z</time>
      </trkpt>
      <trkpt lat="47.2835590" lon="6.8626490">
        <ele>782.0</ele>
        <time>2022-07-21T07:10:41Z</time>
      </trkpt>
      <trkpt lat="47.2835350" lon="6.8627000">
        <ele>781.9</ele>
        <time>2022-07-21T07:10:42Z</time>
      </trkpt>
      <trkpt lat="47.2835110" lon="6.8627500">
        <ele>781.8</ele>
        <time>2022-07-21T07:10:43Z</time>
      </trkpt>
      <trkpt lat="47.2834930" lon="6.8627870">
        <ele>781.7</ele>
        <time>2022-07-21T07:10:44Z</time>
      </trkpt>
      <trkpt lat="47.2834700" lon="6.8628370">
        <ele>781.6</ele>
        <time>2022-07-21T07:10:45Z</time>
      </trkpt>
      <trkpt lat="47.2834480" lon="6.8628840">
        <ele>781.4</ele>
        <time>2022-07-21T07:10:46Z</time>
      </trkpt>
      <trkpt lat="47.2834240" lon="6.8629380">
        <ele>781.2</ele>
        <time>2022-07-21T07:10:47Z</time>
      </trkpt>
      <trkpt lat="47.2833980" lon="6.8629970">
        <ele>781.0</ele>
        <time>2022-07-21T07:10:48Z</time>
      </trkpt>
      <trkpt lat="47.2833660" lon="6.8630650">
        <ele>780.8</ele>
        <time>2022-07-21T07:10:49Z</time>
      </trkpt>
      <trkpt lat="47.2833390" lon="6.8631240">
        <ele>780.5</ele>
        <time>2022-07-21T07:10:50Z</time>
      </trkpt>
      <trkpt lat="47.2833110" lon="6.8631890">
        <ele>780.2</ele>
        <time>2022-07-21T07:10:51Z</time>
      </trkpt>
      <trkpt lat="47.2832830" lon="6.8632510">
        <ele>779.9</ele>
        <time>2022-07-21T07:10:52Z</time>
      </trkpt>
      <trkpt lat="47.2832570" lon="6.8633170">
        <ele>779.6</ele>
        <time>2022-07-21T07:10:53Z</time>
      </trkpt>
      <trkpt lat="47.2832240" lon="6.8633810">
        <ele>779.3</ele>
        <time>2022-07-21T07:10:54Z</time>
      </trkpt>
      <trkpt lat="47.2831960" lon="6.8634430">
        <ele>779.0</ele>
        <time>2022-07-21T07:10:55Z</time>
      </trkpt>
      <trkpt lat="47.2831710" lon="6.8635030">
        <ele>778.6</ele>
        <time>2022-07-21T07:10:56Z</time>
      </trkpt>
      <trkpt lat="47.2831440" lon="6.8635630">
        <ele>778.3</ele>
        <time>2022-07-21T07:10:57Z</time>
      </trkpt>
      <trkpt lat="47.2831190" lon="6.8636170">
        <ele>778.0</ele>
        <time>2022-07-21T07:10:58Z</time>
      </trkpt>
      <trkpt lat="47.2830890" lon="6.8636830">
        <ele>777.7</ele>
        <time>2022-07-21T07:10:59Z</time>
      </trkpt>
      <trkpt lat="47.2830580" lon="6.8637430">
        <ele>777.3</ele>
        <time>2022-07-21T07:11:00Z</time>
      </trkpt>
      <trkpt lat="47.2830220" lon="6.8638030">
        <ele>776.9</ele>
        <time>2022-07-21T07:11:01Z</time>
      </trkpt>
      <trkpt lat="47.2829860" lon="6.8638700">
        <ele>776.5</ele>
        <time>2022-07-21T07:11:02Z</time>
      </trkpt>
      <trkpt lat="47.2829570" lon="6.8639390">
        <ele>776.0</ele>
        <time>2022-07-21T07:11:03Z</time>
      </trkpt>
      <trkpt lat="47.2829200" lon="6.8640030">
        <ele>775.6</ele>
        <time>2022-07-21T07:11:04Z</time>
      </trkpt>
      <trkpt lat="47.2828830" lon="6.8640540">
        <ele>775.2</ele>
        <time>2022-07-21T07:11:05Z</time>
      </trkpt>
      <trkpt lat="47.2828550" lon="6.8641210">
        <ele>774.8</ele>
        <time>2022-07-21T07:11:06Z</time>
      </trkpt>
      <trkpt lat="47.2828320" lon="6.8642160">
        <ele>774.5</ele>
        <time>2022-07-21T07:11:07Z</time>
      </trkpt>
      <trkpt lat="47.2828170" lon="6.8643190">
        <ele>774.1</ele>
        <time>2022-07-21T07:11:08Z</time>
      </trkpt>
      <trkpt lat="47.2828010" lon="6.8644150">
        <ele>773.7</ele>
        <time>2022-07-21T07:11:09Z</time>
      </trkpt>
      <trkpt lat="47.2827840" lon="6.8645120">
        <ele>773.5</ele>
        <time>2022-07-21T07:11:10Z</time>
      </trkpt>
      <trkpt lat="47.2827660" lon="6.8645920">
        <ele>773.3</ele>
        <time>2022-07-21T07:11:11Z</time>
      </trkpt>
      <trkpt lat="47.2827460" lon="6.8646590">
        <ele>773.1</ele>
        <time>2022-07-21T07:11:12Z</time>
      </trkpt>
      <trkpt lat="47.2827220" lon="6.8647260">
        <ele>773.0</ele>
        <time>2022-07-21T07:11:13Z</time>
      </trkpt>
      <trkpt lat="47.2827050" lon="6.8647790">
        <ele>772.9</ele>
        <time>2022-07-21T07:11:14Z</time>
      </trkpt>
      <trkpt lat="47.2827040" lon="6.8647950">
        <ele>772.8</ele>
        <time>2022-07-21T07:11:15Z</time>
      </trkpt>
      <trkpt lat="47.2826930" lon="6.8648080">
        <ele>772.8</ele>
        <time>2022-07-21T07:11:16Z</time>
      </trkpt>
      <trkpt lat="47.2826830" lon="6.8648210">
        <ele>772.7</ele>
        <time>2022-07-21T07:11:17Z</time>
      </trkpt>
      <trkpt lat="47.2826730" lon="6.8648340">
        <ele>772.6</ele>
        <time>2022-07-21T07:11:18Z</time>
      </trkpt>
      <trkpt lat="47.2826610" lon="6.8648910">
        <ele>772.5</ele>
        <time>2022-07-21T07:11:19Z</time>
      </trkpt>
      <trkpt lat="47.2826620" lon="6.8649530">
        <ele>772.3</ele>
        <time>2022-07-21T07:11:20Z</time>
      </trkpt>
      <trkpt lat="47.2826610" lon="6.8650170">
        <ele>772.2</ele>
        <time>2022-07-21T07:11:21Z</time>
      </trkpt>
      <trkpt lat="47.2826590" lon="6.8650890">
        <ele>772.1</ele>
        <time>2022-07-21T07:11:22Z</time>
      </trkpt>
      <trkpt lat="47.2826570" lon="6.8651600">
        <ele>772.0</ele>
        <time>2022-07-21T07:11:23Z</time>
      </trkpt>
      <trkpt lat="47.2826490" lon="6.8652360">
        <ele>772.0</ele>
        <time>2022-07-21T07:11:24Z</time>
      </trkpt>
      <trkpt lat="47.2826360" lon="6.8653130">
        <ele>771.9</ele>
        <time>2022-07-21T07:11:25Z</time>
      </trkpt>
      <trkpt lat="47.2826240" lon="6.8653770">
        <ele>771.8</ele>
        <time>2022-07-21T07:11:26Z</time>
      </trkpt>
      <trkpt lat="47.2826010" lon="6.8654450">
        <ele>771.8</ele>
        <time>2022-07-21T07:11:27Z</time>
      </trkpt>
      <trkpt lat="47.2825780" lon="6.8655140">
        <ele>771.7</ele>
        <time>2022-07-21T07:11:28Z</time>
      </trkpt>
      <trkpt lat="47.2825590" lon="6.8655760">
        <ele>771.7</ele>
        <time>2022-07-21T07:11:29Z</time>
      </trkpt>
      <trkpt lat="47.2825450" lon="6.8656400">
        <ele>771.7</ele>
        <time>2022-07-21T07:11:30Z</time>
      </trkpt>
      <trkpt lat="47.2825240" lon="6.8657020">
        <ele>771.7</ele>
        <time>2022-07-21T07:11:31Z</time>
      </trkpt>
      <trkpt lat="47.2825060" lon="6.8657650">
        <ele>771.7</ele>
        <time>2022-07-21T07:11:32Z</time>
      </trkpt>
      <trkpt lat="47.2824760" lon="6.8658340">
        <ele>771.6</ele>
        <time>2022-07-21T07:11:33Z</time>
      </trkpt>
      <trkpt lat="47.2824490" lon="6.8659060">
        <ele>771.6</ele>
        <time>2022-07-21T07:11:34Z</time>
      </trkpt>
      <trkpt lat="47.2824210" lon="6.8659760">
        <ele>771.7</ele>
        <time>2022-07-21T07:11:35Z</time>
      </trkpt>
      <trkpt lat="47.2824010" lon="6.8660340">
        <ele>771.7</ele>
        <time>2022-07-21T07:11:36Z</time>
      </trkpt>
      <trkpt lat="47.2823870" lon="6.8660860">
        <ele>771.7</ele>
        <time>2022-07-21T07:11:37Z</time>
      </trkpt>
      <trkpt lat="47.2823690" lon="6.8661500">
        <ele>771.8</ele>
        <time>2022-07-21T07:11:38Z</time>
      </trkpt>
      <trkpt lat="47.2823510" lon="6.8662120">
        <ele>771.8</ele>
        <time>2022-07-21T07:11:39Z</time>
      </trkpt>
      <trkpt lat="47.2823250" lon="6.8662710">
        <ele>771.9</ele>
        <time>2022-07-21T07:11:40Z</time>
      </trkpt>
      <trkpt lat="47.2823150" lon="6.8663210">
        <ele>771.9</ele>
        <time>2022-07-21T07:11:41Z</time>
      </trkpt>
      <trkpt lat="47.2823090" lon="6.8663780">
        <ele>772.0</ele>
        <time>2022-07-21T07:11:42Z</time>
      </trkpt>
      <trkpt lat="47.2822910" lon="6.8664280">
        <ele>772.0</ele>
        <time>2022-07-21T07:11:43Z</time>
      </trkpt>
      <trkpt lat="47.2822740" lon="6.8664730">
        <ele>772.1</ele>
        <time>2022-07-21T07:11:44Z</time>
      </trkpt>
      <trkpt lat="47.2822550" lon="6.8665230">
        <ele>772.2</ele>
        <time>2022-07-21T07:11:45Z</time>
      </trkpt>
      <trkpt lat="47.2822350" lon="6.8665760">
        <ele>772.3</ele>
        <time>2022-07-21T07:11:46Z</time>
      </trkpt>
      <trkpt lat="47.2822230" lon="6.8666150">
        <ele>772.3</ele>
        <time>2022-07-21T07:11:47Z</time>
      </trkpt>
      <trkpt lat="47.2822090" lon="6.8666730">
        <ele>772.4</ele>
        <time>2022-07-21T07:11:48Z</time>
      </trkpt>
      <trkpt lat="47.2822030" lon="6.8666980">
        <ele>772.5</ele>
        <time>2022-07-21T07:11:49Z</time>
      </trkpt>
      <trkpt lat="47.2821900" lon="6.8667410">
        <ele>772.6</ele>
        <time>2022-07-21T07:11:50Z</time>
      </trkpt>
      <trkpt lat="47.2821790" lon="6.8667780">
        <ele>772.7</ele>
        <time>2022-07-21T07:11:51Z</time>
      </trkpt>
      <trkpt lat="47.2821670" lon="6.8668170">
        <ele>772.8</ele>
        <time>2022-07-21T07:11:52Z</time>
      </trkpt>
      <trkpt lat="47.2821520" lon="6.8668620">
        <ele>772.9</ele>
        <time>2022-07-21T07:11:53Z</time>
      </trkpt>
      <trkpt lat="47.2821460" lon="6.8668760">
        <ele>773.0</ele>
        <time>2022-07-21T07:11:54Z</time>
      </trkpt>
      <trkpt lat="47.2821250" lon="6.8669160">
        <ele>773.1</ele>
        <time>2022-07-21T07:11:55Z</time>
      </trkpt>
      <trkpt lat="47.2821170" lon="6.8669310">
        <ele>773.2</ele>
        <time>2022-07-21T07:11:56Z</time>
      </trkpt>
      <trkpt lat="47.2821000" lon="6.8669630">
        <ele>773.3</ele>
        <time>2022-07-21T07:11:57Z</time>
      </trkpt>
      <trkpt lat="47.2820800" lon="6.8670010">
        <ele>773.5</ele>
        <time>2022-07-21T07:11:58Z</time>
      </trkpt>
      <trkpt lat="47.2820620" lon="6.8670310">
        <ele>773.6</ele>
        <time>2022-07-21T07:11:59Z</time>
      </trkpt>
      <trkpt lat="47.2820370" lon="6.8670750">
        <ele>773.8</ele>
        <time>2022-07-21T07:12:00Z</time>
      </trkpt>
      <trkpt lat="47.2820300" lon="6.8670910">
        <ele>773.9</ele>
        <time>2022-07-21T07:12:01Z</time>
      </trkpt>
      <trkpt lat="47.2820190" lon="6.8671480">
        <ele>774.1</ele>
        <time>2022-07-21T07:12:02Z</time>
      </trkpt>
      <trkpt lat="47.2820150" lon="6.8671700">
        <ele>774.2</ele>
        <time>2022-07-21T07:12:03Z</time>
      </trkpt>
      <trkpt lat="47.2820090" lon="6.8672190">
        <ele>774.4</ele>
        <time>2022-07-21T07:12:04Z</time>
      </trkpt>
      <trkpt lat="47.2820060" lon="6.8672680">
        <ele>774.4</ele>
        <time>2022-07-21T07:12:05Z</time>
      </trkpt>
      <trkpt lat="47.2820050" lon="6.8672850">
        <ele>774.4</ele>
        <time>2022-07-21T07:12:06Z</time>
      </trkpt>
      <trkpt lat="47.2820040" lon="6.8673260">
        <ele>774.5</ele>
        <time>2022-07-21T07:12:07Z</time>
      </trkpt>
      <trkpt lat="47.2820030" lon="6.8673460">
        <ele>774.5</ele>
        <time>2022-07-21T07:12:08Z</time>
      </trkpt>
      <trkpt lat="47.2819990" lon="6.8673690">
        <ele>774.6</ele>
        <time>2022-07-21T07:12:09Z</time>
      </trkpt>
      <trkpt lat="47.2819990" lon="6.8674120">
        <ele>774.7</ele>
        <time>2022-07-21T07:12:10Z</time>
      </trkpt>
      <trkpt lat="47.2819990" lon="6.8674330">
        <ele>774.7</ele>
        <time>2022-07-21T07:12:11Z</time>
      </trkpt>
      <trkpt lat="47.2820100" lon="6.8674790">
        <ele>774.8</ele>
        <time>2022-07-21T07:12:12Z</time>
      </trkpt>
      <trkpt lat="47.2820220" lon="6.8675280">
        <ele>774.9</ele>
        <time>2022-07-21T07:12:13Z</time>
      </trkpt>
      <trkpt lat="47.2820300" lon="6.8675740">
        <ele>774.9</ele>
        <time>2022-07-21T07:12:14Z</time>
      </trkpt>
      <trkpt lat="47.2820310" lon="6.8676270">
        <ele>775.0</ele>
        <time>2022-07-21T07:12:15Z</time>
      </trkpt>
      <trkpt lat="47.2820260" lon="6.8676700">
        <ele>775.1</ele>
        <time>2022-07-21T07:12:16Z</time>
      </trkpt>
      <trkpt lat="47.2820160" lon="6.8677200">
        <ele>775.2</ele>
        <time>2022-07-21T07:12:17Z</time>
      </trkpt>
      <trkpt lat="47.2820030" lon="6.8677700">
        <ele>775.2</ele>
        <time>2022-07-21T07:12:18Z</time>
      </trkpt>
      <trkpt lat="47.2819910" lon="6.8678150">
        <ele>775.3</ele>
        <time>2022-07-21T07:12:19Z</time>
      </trkpt>
      <trkpt lat="47.2819860" lon="6.8678330">
        <ele>775.3</ele>
        <time>2022-07-21T07:12:20Z</time>
      </trkpt>
      <trkpt lat="47.2819740" lon="6.8678880">
        <ele>775.4</ele>
        <time>2022-07-21T07:12:21Z</time>
      </trkpt>
      <trkpt lat="47.2819770" lon="6.8679360">
        <ele>775.4</ele>
        <time>2022-07-21T07:12:22Z</time>
      </trkpt>
      <trkpt lat="47.2819910" lon="6.8680000">
        <ele>775.5</ele>
        <time>2022-07-21T07:12:23Z</time>
      </trkpt>
      <trkpt lat="47.2820130" lon="6.8680560">
        <ele>775.6</ele>
        <time>2022-07-21T07:12:24Z</time>
      </trkpt>
      <trkpt lat="47.2820390" lon="6.8681130">
        <ele>775.7</ele>
        <time>2022-07-21T07:12:25Z</time>
      </trkpt>
      <trkpt lat="47.2820660" lon="6.8681590">
        <ele>775.7</ele>
        <time>2022-07-21T07:12:26Z</time>
      </trkpt>
      <trkpt lat="47.2820900" lon="6.8681980">
        <ele>775.8</ele>
        <time>2022-07-21T07:12:27Z</time>
      </trkpt>
      <trkpt lat="47.2821110" lon="6.8682380">
        <ele>775.9</ele>
        <time>2022-07-21T07:12:28Z</time>
      </trkpt>
      <trkpt lat="47.2821280" lon="6.8682840">
        <ele>775.9</ele>
        <time>2022-07-21T07:12:29Z</time>
      </trkpt>
      <trkpt lat="47.2821410" lon="6.8683260">
        <ele>776.0</ele>
        <time>2022-07-21T07:12:30Z</time>
      </trkpt>
      <trkpt lat="47.2821530" lon="6.8683700">
        <ele>776.1</ele>
        <time>2022-07-21T07:12:31Z</time>
      </trkpt>
      <trkpt lat="47.2821570" lon="6.8683860">
        <ele>776.1</ele>
        <time>2022-07-21T07:12:32Z</time>
      </trkpt>
      <trkpt lat="47.2821640" lon="6.8684320">
        <ele>776.2</ele>
        <time>2022-07-21T07:12:33Z</time>
      </trkpt>
      <trkpt lat="47.2821660" lon="6.8684460">
        <ele>776.3</ele>
        <time>2022-07-21T07:12:34Z</time>
      </trkpt>
      <trkpt lat="47.2821740" lon="6.8684990">
        <ele>776.4</ele>
        <time>2022-07-21T07:12:35Z</time>
      </trkpt>
      <trkpt lat="47.2821790" lon="6.8685230">
        <ele>776.4</ele>
        <time>2022-07-21T07:12:36Z</time>
      </trkpt>
      <trkpt lat="47.2821950" lon="6.8685690">
        <ele>776.5</ele>
        <time>2022-07-21T07:12:37Z</time>
      </trkpt>
      <trkpt lat="47.2822120" lon="6.8686080">
        <ele>776.7</ele>
        <time>2022-07-21T07:12:38Z</time>
      </trkpt>
      <trkpt lat="47.2822300" lon="6.8686500">
        <ele>776.8</ele>
        <time>2022-07-21T07:12:39Z</time>
      </trkpt>
      <trkpt lat="47.2822470" lon="6.8686960">
        <ele>776.9</ele>
        <time>2022-07-21T07:12:40Z</time>
      </trkpt>
      <trkpt lat="47.2822620" lon="6.8687340">
        <ele>777.0</ele>
        <time>2022-07-21T07:12:41Z</time>
      </trkpt>
      <trkpt lat="47.2822870" lon="6.8687890">
        <ele>777.2</ele>
        <time>2022-07-21T07:12:42Z</time>
      </trkpt>
      <trkpt lat="47.2822980" lon="6.8688110">
        <ele>777.3</ele>
        <time>2022-07-21T07:12:43Z</time>
      </trkpt>
      <trkpt lat="47.2823200" lon="6.8688400">
        <ele>777.5</ele>
        <time>2022-07-21T07:12:45Z</time>
      </trkpt>
      <trkpt lat="47.2823400" lon="6.8688700">
        <ele>777.6</ele>
        <time>2022-07-21T07:12:46Z</time>
      </trkpt>
      <trkpt lat="47.2823700" lon="6.8689080">
        <ele>777.7</ele>
        <time>2022-07-21T07:12:47Z</time>
      </trkpt>
      <trkpt lat="47.2823800" lon="6.8689230">
        <ele>777.8</ele>
        <time>2022-07-21T07:12:48Z</time>
      </trkpt>
      <trkpt lat="47.2824020" lon="6.8689550">
        <ele>777.9</ele>
        <time>2022-07-21T07:12:49Z</time>
      </trkpt>
      <trkpt lat="47.2824240" lon="6.8689830">
        <ele>778.0</ele>
        <time>2022-07-21T07:12:50Z</time>
      </trkpt>
      <trkpt lat="47.2824500" lon="6.8690290">
        <ele>778.1</ele>
        <time>2022-07-21T07:12:51Z</time>
      </trkpt>
      <trkpt lat="47.2824600" lon="6.8690470">
        <ele>778.2</ele>
        <time>2022-07-21T07:12:52Z</time>
      </trkpt>
      <trkpt lat="47.2824800" lon="6.8690870">
        <ele>778.3</ele>
        <time>2022-07-21T07:12:53Z</time>
      </trkpt>
      <trkpt lat="47.2825020" lon="6.8691370">
        <ele>778.5</ele>
        <time>2022-07-21T07:12:54Z</time>
      </trkpt>
      <trkpt lat="47.2825250" lon="6.8692000">
        <ele>778.7</ele>
        <time>2022-07-21T07:12:56Z</time>
      </trkpt>
      <trkpt lat="47.2825330" lon="6.8692250">
        <ele>778.8</ele>
        <time>2022-07-21T07:12:57Z</time>
      </trkpt>
      <trkpt lat="47.2825410" lon="6.8692500">
        <ele>778.8</ele>
        <time>2022-07-21T07:12:58Z</time>
      </trkpt>
      <trkpt lat="47.2825710" lon="6.8693380">
        <ele>779.1</ele>
        <time>2022-07-21T07:13:00Z</time>
      </trkpt>
      <trkpt lat="47.2825790" lon="6.8693870">
        <ele>779.2</ele>
        <time>2022-07-21T07:13:02Z</time>
      </trkpt>
      <trkpt lat="47.2825830" lon="6.8694310">
        <ele>779.3</ele>
        <time>2022-07-21T07:13:03Z</time>
      </trkpt>
      <trkpt lat="47.2825880" lon="6.8694740">
        <ele>779.5</ele>
        <time>2022-07-21T07:13:04Z</time>
      </trkpt>
      <trkpt lat="47.2825890" lon="6.8695170">
        <ele>779.6</ele>
        <time>2022-07-21T07:13:05Z</time>
      </trkpt>
      <trkpt lat="47.2825890" lon="6.8695650">
        <ele>779.7</ele>
        <time>2022-07-21T07:13:06Z</time>
      </trkpt>
      <trkpt lat="47.2825890" lon="6.8696550">
        <ele>780.0</ele>
        <time>2022-07-21T07:13:08Z</time>
      </trkpt>
      <trkpt lat="47.2825890" lon="6.8697310">
        <ele>780.2</ele>
        <time>2022-07-21T07:13:10Z</time>
      </trkpt>
      <trkpt lat="47.2825890" lon="6.8697770">
        <ele>780.3</ele>
        <time>2022-07-21T07:13:11Z</time>
      </trkpt>
      <trkpt lat="47.2825940" lon="6.8698270">
        <ele>780.5</ele>
        <time>2022-07-21T07:13:12Z</time>
      </trkpt>
      <trkpt lat="47.2825960" lon="6.8698840">
        <ele>780.6</ele>
        <time>2022-07-21T07:13:13Z</time>
      </trkpt>
      <trkpt lat="47.2825980" lon="6.8699390">
        <ele>780.8</ele>
        <time>2022-07-21T07:13:14Z</time>
      </trkpt>
      <trkpt lat="47.2825980" lon="6.8699580">
        <ele>780.8</ele>
        <time>2022-07-21T07:13:15Z</time>
      </trkpt>
      <trkpt lat="47.2825950" lon="6.8700090">
        <ele>781.0</ele>
        <time>2022-07-21T07:13:17Z</time>
      </trkpt>
      <trkpt lat="47.2825910" lon="6.8700210">
        <ele>781.0</ele>
        <time>2022-07-21T07:13:18Z</time>
      </trkpt>
      <trkpt lat="47.2825800" lon="6.8700470">
        <ele>781.1</ele>
        <time>2022-07-21T07:13:19Z</time>
      </trkpt>
      <trkpt lat="47.2825760" lon="6.8700560">
        <ele>781.1</ele>
        <time>2022-07-21T07:13:20Z</time>
      </trkpt>
      <trkpt lat="47.2825720" lon="6.8700660">
        <ele>781.2</ele>
        <time>2022-07-21T07:13:21Z</time>
      </trkpt>
      <trkpt lat="47.2825620" lon="6.8701180">
        <ele>781.3</ele>
        <time>2022-07-21T07:13:22Z</time>
      </trkpt>
      <trkpt lat="47.2825570" lon="6.8701880">
        <ele>781.5</ele>
        <time>2022-07-21T07:13:24Z</time>
      </trkpt>
      <trkpt lat="47.2825590" lon="6.8702400">
        <ele>781.6</ele>
        <time>2022-07-21T07:13:25Z</time>
      </trkpt>
      <trkpt lat="47.2825610" lon="6.8702880">
        <ele>781.8</ele>
        <time>2022-07-21T07:13:26Z</time>
      </trkpt>
      <trkpt lat="47.2825660" lon="6.8703400">
        <ele>781.9</ele>
        <time>2022-07-21T07:13:27Z</time>
      </trkpt>
      <trkpt lat="47.2825710" lon="6.8703950">
        <ele>782.0</ele>
        <time>2022-07-21T07:13:28Z</time>
      </trkpt>
      <trkpt lat="47.2825790" lon="6.8704710">
        <ele>782.2</ele>
        <time>2022-07-21T07:13:30Z</time>
      </trkpt>
      <trkpt lat="47.2825900" lon="6.8705230">
        <ele>782.3</ele>
        <time>2022-07-21T07:13:31Z</time>
      </trkpt>
      <trkpt lat="47.2825980" lon="6.8705720">
        <ele>782.4</ele>
        <time>2022-07-21T07:13:32Z</time>
      </trkpt>
      <trkpt lat="47.2826010" lon="6.8706160">
        <ele>782.5</ele>
        <time>2022-07-21T07:13:33Z</time>
      </trkpt>
      <trkpt lat="47.2826040" lon="6.8706610">
        <ele>782.6</ele>
        <time>2022-07-21T07:13:34Z</time>
      </trkpt>
      <trkpt lat="47.2826080" lon="6.8707070">
        <ele>782.7</ele>
        <time>2022-07-21T07:13:35Z</time>
      </trkpt>
      <trkpt lat="47.2826180" lon="6.8707620">
        <ele>782.8</ele>
        <time>2022-07-21T07:13:36Z</time>
      </trkpt>
      <trkpt lat="47.2826340" lon="6.8708100">
        <ele>782.9</ele>
        <time>2022-07-21T07:13:37Z</time>
      </trkpt>
      <trkpt lat="47.2826550" lon="6.8708510">
        <ele>783.0</ele>
        <time>2022-07-21T07:13:38Z</time>
      </trkpt>
      <trkpt lat="47.2826620" lon="6.8708660">
        <ele>783.0</ele>
        <time>2022-07-21T07:13:39Z</time>
      </trkpt>
      <trkpt lat="47.2826690" lon="6.8709180">
        <ele>783.1</ele>
        <time>2022-07-21T07:13:40Z</time>
      </trkpt>
      <trkpt lat="47.2826720" lon="6.8709680">
        <ele>783.2</ele>
        <time>2022-07-21T07:13:41Z</time>
      </trkpt>
      <trkpt lat="47.2826710" lon="6.8710230">
        <ele>783.3</ele>
        <time>2022-07-21T07:13:42Z</time>
      </trkpt>
      <trkpt lat="47.2826690" lon="6.8710720">
        <ele>783.4</ele>
        <time>2022-07-21T07:13:43Z</time>
      </trkpt>
      <trkpt lat="47.2826610" lon="6.8711350">
        <ele>783.6</ele>
        <time>2022-07-21T07:13:44Z</time>
      </trkpt>
      <trkpt lat="47.2826550" lon="6.8711910">
        <ele>783.8</ele>
        <time>2022-07-21T07:13:46Z</time>
      </trkpt>
      <trkpt lat="47.2826490" lon="6.8712470">
        <ele>784.0</ele>
        <time>2022-07-21T07:13:47Z</time>
      </trkpt>
      <trkpt lat="47.2826430" lon="6.8712910">
        <ele>784.1</ele>
        <time>2022-07-21T07:13:48Z</time>
      </trkpt>
      <trkpt lat="47.2826370" lon="6.8713500">
        <ele>784.3</ele>
        <time>2022-07-21T07:13:49Z</time>
      </trkpt>
      <trkpt lat="47.2826340" lon="6.8713730">
        <ele>784.4</ele>
        <time>2022-07-21T07:13:50Z</time>
      </trkpt>
      <trkpt lat="47.2826270" lon="6.8714130">
        <ele>784.5</ele>
        <time>2022-07-21T07:13:51Z</time>
      </trkpt>
      <trkpt lat="47.2826170" lon="6.8714640">
        <ele>784.6</ele>
        <time>2022-07-21T07:13:52Z</time>
      </trkpt>
      <trkpt lat="47.2826110" lon="6.8715080">
        <ele>784.8</ele>
        <time>2022-07-21T07:13:53Z</time>
      </trkpt>
      <trkpt lat="47.2826070" lon="6.8715480">
        <ele>784.9</ele>
        <time>2022-07-21T07:13:54Z</time>
      </trkpt>
      <trkpt lat="47.2826080" lon="6.8716170">
        <ele>785.1</ele>
        <time>2022-07-21T07:13:55Z</time>
      </trkpt>
      <trkpt lat="47.2826110" lon="6.8716790">
        <ele>785.3</ele>
        <time>2022-07-21T07:13:57Z</time>
      </trkpt>
      <trkpt lat="47.2826100" lon="6.8717280">
        <ele>785.4</ele>
        <time>2022-07-21T07:13:58Z</time>
      </trkpt>
      <trkpt lat="47.2826090" lon="6.8717780">
        <ele>785.5</ele>
        <time>2022-07-21T07:13:59Z</time>
      </trkpt>
      <trkpt lat="47.2826070" lon="6.8718580">
        <ele>785.8</ele>
        <time>2022-07-21T07:14:01Z</time>
      </trkpt>
      <trkpt lat="47.2826040" lon="6.8719120">
        <ele>785.9</ele>
        <time>2022-07-21T07:14:02Z</time>
      </trkpt>
      <trkpt lat="47.2826010" lon="6.8719600">
        <ele>786.0</ele>
        <time>2022-07-21T07:14:03Z</time>
      </trkpt>
      <trkpt lat="47.2826000" lon="6.8720030">
        <ele>786.1</ele>
        <time>2022-07-21T07:14:04Z</time>
      </trkpt>
      <trkpt lat="47.2825960" lon="6.8720790">
        <ele>786.1</ele>
        <time>2022-07-21T07:14:06Z</time>
      </trkpt>
      <trkpt lat="47.2825920" lon="6.8721330">
        <ele>786.2</ele>
        <time>2022-07-21T07:14:07Z</time>
      </trkpt>
      <trkpt lat="47.2825870" lon="6.8721800">
        <ele>786.3</ele>
        <time>2022-07-21T07:14:08Z</time>
      </trkpt>
      <trkpt lat="47.2825840" lon="6.8722270">
        <ele>786.4</ele>
        <time>2022-07-21T07:14:09Z</time>
      </trkpt>
      <trkpt lat="47.2825840" lon="6.8722740">
        <ele>786.5</ele>
        <time>2022-07-21T07:14:10Z</time>
      </trkpt>
      <trkpt lat="47.2825890" lon="6.8723580">
        <ele>786.7</ele>
        <time>2022-07-21T07:14:12Z</time>
      </trkpt>
      <trkpt lat="47.2825880" lon="6.8724050">
        <ele>786.8</ele>
        <time>2022-07-21T07:14:13Z</time>
      </trkpt>
      <trkpt lat="47.2825880" lon="6.8724580">
        <ele>786.9</ele>
        <time>2022-07-21T07:14:14Z</time>
      </trkpt>
      <trkpt lat="47.2825850" lon="6.8725130">
        <ele>787.0</ele>
        <time>2022-07-21T07:14:15Z</time>
      </trkpt>
      <trkpt lat="47.2825830" lon="6.8725540">
        <ele>787.0</ele>
        <time>2022-07-21T07:14:16Z</time>
      </trkpt>
      <trkpt lat="47.2825780" lon="6.8726360">
        <ele>787.2</ele>
        <time>2022-07-21T07:14:17Z</time>
      </trkpt>
      <trkpt lat="47.2825730" lon="6.8727050">
        <ele>787.3</ele>
        <time>2022-07-21T07:14:19Z</time>
      </trkpt>
      <trkpt lat="47.2825720" lon="6.8727570">
        <ele>787.4</ele>
        <time>2022-07-21T07:14:20Z</time>
      </trkpt>
      <trkpt lat="47.2825670" lon="6.8728150">
        <ele>787.5</ele>
        <time>2022-07-21T07:14:21Z</time>
      </trkpt>
      <trkpt lat="47.2825580" lon="6.8728790">
        <ele>787.7</ele>
        <time>2022-07-21T07:14:23Z</time>
      </trkpt>
      <trkpt lat="47.2825410" lon="6.8729390">
        <ele>787.8</ele>
        <time>2022-07-21T07:14:24Z</time>
      </trkpt>
      <trkpt lat="47.2825310" lon="6.8729670">
        <ele>787.8</ele>
        <time>2022-07-21T07:14:25Z</time>
      </trkpt>
      <trkpt lat="47.2825170" lon="6.8730010">
        <ele>787.9</ele>
        <time>2022-07-21T07:14:26Z</time>
      </trkpt>
      <trkpt lat="47.2825050" lon="6.8730370">
        <ele>788.0</ele>
        <time>2022-07-21T07:14:27Z</time>
      </trkpt>
      <trkpt lat="47.2824930" lon="6.8730750">
        <ele>788.1</ele>
        <time>2022-07-21T07:14:28Z</time>
      </trkpt>
      <trkpt lat="47.2824830" lon="6.8731140">
        <ele>788.1</ele>
        <time>2022-07-21T07:14:29Z</time>
      </trkpt>
      <trkpt lat="47.2824710" lon="6.8731580">
        <ele>788.2</ele>
        <time>2022-07-21T07:14:30Z</time>
      </trkpt>
      <trkpt lat="47.2824540" lon="6.8732010">
        <ele>788.3</ele>
        <time>2022-07-21T07:14:31Z</time>
      </trkpt>
      <trkpt lat="47.2824410" lon="6.8732440">
        <ele>788.4</ele>
        <time>2022-07-21T07:14:33Z</time>
      </trkpt>
      <trkpt lat="47.2824370" lon="6.8732570">
        <ele>788.4</ele>
        <time>2022-07-21T07:14:34Z</time>
      </trkpt>
      <trkpt lat="47.2824310" lon="6.8732820">
        <ele>788.5</ele>
        <time>2022-07-21T07:14:35Z</time>
      </trkpt>
      <trkpt lat="47.2824200" lon="6.8733030">
        <ele>788.5</ele>
        <time>2022-07-21T07:14:36Z</time>
      </trkpt>
      <trkpt lat="47.2824130" lon="6.8733180">
        <ele>788.6</ele>
        <time>2022-07-21T07:14:37Z</time>
      </trkpt>
      <trkpt lat="47.2824050" lon="6.8733370">
        <ele>788.6</ele>
        <time>2022-07-21T07:14:38Z</time>
      </trkpt>
      <trkpt lat="47.2824010" lon="6.8733500">
        <ele>788.6</ele>
        <time>2022-07-21T07:14:39Z</time>
      </trkpt>
      <trkpt lat="47.2823960" lon="6.8733680">
        <ele>788.7</ele>
        <time>2022-07-21T07:14:40Z</time>
      </trkpt>
      <trkpt lat="47.2823930" lon="6.8733770">
        <ele>788.7</ele>
        <time>2022-07-21T07:14:41Z</time>
      </trkpt>
      <trkpt lat="47.2823960" lon="6.8733910">
        <ele>788.7</ele>
        <time>2022-07-21T07:14:42Z</time>
      </trkpt>
      <trkpt lat="47.2823930" lon="6.8734050">
        <ele>788.7</ele>
        <time>2022-07-21T07:14:43Z</time>
      </trkpt>
      <trkpt lat="47.2823860" lon="6.8734150">
        <ele>788.8</ele>
        <time>2022-07-21T07:14:44Z</time>
      </trkpt>
      <trkpt lat="47.2823790" lon="6.8734270">
        <ele>788.8</ele>
        <time>2022-07-21T07:14:46Z</time>
      </trkpt>
      <trkpt lat="47.2823720" lon="6.8734500">
        <ele>788.9</ele>
        <time>2022-07-21T07:14:47Z</time>
      </trkpt>
      <trkpt lat="47.2823770" lon="6.8734700">
        <ele>788.9</ele>
        <time>2022-07-21T07:14:48Z</time>
      </trkpt>
      <trkpt lat="47.2824000" lon="6.8734530">
        <ele>789.0</ele>
        <time>2022-07-21T07:14:49Z</time>
      </trkpt>
      <trkpt lat="47.2824160" lon="6.8734180">
        <ele>789.1</ele>
        <time>2022-07-21T07:14:50Z</time>
      </trkpt>
      <trkpt lat="47.2824260" lon="6.8733800">
        <ele>789.2</ele>
        <time>2022-07-21T07:14:51Z</time>
      </trkpt>
      <trkpt lat="47.2824420" lon="6.8733340">
        <ele>789.3</ele>
        <time>2022-07-21T07:14:52Z</time>
      </trkpt>
      <trkpt lat="47.2824580" lon="6.8732820">
        <ele>789.1</ele>
        <time>2022-07-21T07:14:53Z</time>
      </trkpt>
      <trkpt lat="47.2824770" lon="6.8732300">
        <ele>789.0</ele>
        <time>2022-07-21T07:14:54Z</time>
      </trkpt>
      <trkpt lat="47.2824960" lon="6.8731790">
        <ele>788.8</ele>
        <time>2022-07-21T07:14:55Z</time>
      </trkpt>
      <trkpt lat="47.2825160" lon="6.8731170">
        <ele>788.7</ele>
        <time>2022-07-21T07:14:56Z</time>
      </trkpt>
      <trkpt lat="47.2825390" lon="6.8730370">
        <ele>788.5</ele>
        <time>2022-07-21T07:14:57Z</time>
      </trkpt>
      <trkpt lat="47.2825630" lon="6.8729600">
        <ele>788.3</ele>
        <time>2022-07-21T07:14:59Z</time>
      </trkpt>
      <trkpt lat="47.2825840" lon="6.8728890">
        <ele>788.1</ele>
        <time>2022-07-21T07:15:00Z</time>
      </trkpt>
      <trkpt lat="47.2825880" lon="6.8728030">
        <ele>787.9</ele>
        <time>2022-07-21T07:15:01Z</time>
      </trkpt>
      <trkpt lat="47.2825990" lon="6.8727410">
        <ele>787.8</ele>
        <time>2022-07-21T07:15:02Z</time>
      </trkpt>
      <trkpt lat="47.2826120" lon="6.8726820">
        <ele>787.6</ele>
        <time>2022-07-21T07:15:03Z</time>
      </trkpt>
      <trkpt lat="47.2826220" lon="6.8726110">
        <ele>787.5</ele>
        <time>2022-07-21T07:15:04Z</time>
      </trkpt>
      <trkpt lat="47.2826270" lon="6.8725420">
        <ele>787.3</ele>
        <time>2022-07-21T07:15:05Z</time>
      </trkpt>
      <trkpt lat="47.2826260" lon="6.8724740">
        <ele>787.1</ele>
        <time>2022-07-21T07:15:06Z</time>
      </trkpt>
      <trkpt lat="47.2826280" lon="6.8724070">
        <ele>787.0</ele>
        <time>2022-07-21T07:15:07Z</time>
      </trkpt>
      <trkpt lat="47.2825990" lon="6.8723490">
        <ele>786.8</ele>
        <time>2022-07-21T07:15:08Z</time>
      </trkpt>
      <trkpt lat="47.2826050" lon="6.8722930">
        <ele>786.7</ele>
        <time>2022-07-21T07:15:09Z</time>
      </trkpt>
      <trkpt lat="47.2826130" lon="6.8722150">
        <ele>786.5</ele>
        <time>2022-07-21T07:15:11Z</time>
      </trkpt>
      <trkpt lat="47.2826170" lon="6.8721520">
        <ele>786.4</ele>
        <time>2022-07-21T07:15:12Z</time>
      </trkpt>
      <trkpt lat="47.2826400" lon="6.8721280">
        <ele>786.3</ele>
        <time>2022-07-21T07:15:13Z</time>
      </trkpt>
      <trkpt lat="47.2826400" lon="6.8721130">
        <ele>786.2</ele>
        <time>2022-07-21T07:15:14Z</time>
      </trkpt>
      <trkpt lat="47.2826390" lon="6.8721110">
        <ele>786.2</ele>
        <time>2022-07-21T07:15:15Z</time>
      </trkpt>
      <trkpt lat="47.2826380" lon="6.8721090">
        <ele>786.2</ele>
        <time>2022-07-21T07:15:16Z</time>
      </trkpt>
      <trkpt lat="47.2826370" lon="6.8721070">
        <ele>786.2</ele>
        <time>2022-07-21T07:15:17Z</time>
      </trkpt>
      <trkpt lat="47.2826360" lon="6.8721050">
        <ele>786.2</ele>
        <time>2022-07-21T07:15:18Z</time>
      </trkpt>
      <trkpt lat="47.2826350" lon="6.8721030">
        <ele>786.2</ele>
        <time>2022-07-21T07:15:19Z</time>
      </trkpt>
      <trkpt lat="47.2826340" lon="6.8721010">
        <ele>786.2</ele>
        <time>2022-07-21T07:15:20Z</time>
      </trkpt>
      <trkpt lat="47.2826330" lon="6.8720990">
        <ele>786.2</ele>
        <time>2022-07-21T07:15:21Z</time>
      </trkpt>
      <trkpt lat="47.2826320" lon="6.8720970">
        <ele>786.2</ele>
        <time>2022-07-21T07:15:22Z</time>
      </trkpt>
      <trkpt lat="47.2826310" lon="6.8720950">
        <ele>786.2</ele>
        <time>2022-07-21T07:15:23Z</time>
      </trkpt>
      <trkpt lat="47.2826300" lon="6.8720930">
        <ele>786.2</ele>
        <time>2022-07-21T07:15:24Z</time>
      </trkpt>
      <trkpt lat="47.2826290" lon="6.8720910">
        <ele>786.2</ele>
        <time>2022-07-21T07:15:25Z</time>
      </trkpt>
      <trkpt lat="47.2826280" lon="6.8720890">
        <ele>786.2</ele>
        <time>2022-07-21T07:15:26Z</time>
      </trkpt>
      <trkpt lat="47.2826270" lon="6.8720870">
        <ele>786.2</ele>
        <time>2022-07-21T07:15:27Z</time>
      </trkpt>
      <trkpt lat="47.2826260" lon="6.8720850">
        <ele>786.2</ele>
        <time>2022-07-21T07:15:28Z</time>
      </trkpt>
      <trkpt lat="47.2826250" lon="6.8720830">
        <ele>786.2</ele>
        <time>2022-07-21T07:15:29Z</time>
      </trkpt>
      <trkpt lat="47.2826240" lon="6.8720810">
        <ele>786.2</ele>
        <time>2022-07-21T07:15:30Z</time>
      </trkpt>
      <trkpt lat="47.2826230" lon="6.8720790">
        <ele>786.1</ele>
        <time>2022-07-21T07:15:31Z</time>
      </trkpt>
      <trkpt lat="47.2826130" lon="6.8720670">
        <ele>786.1</ele>
        <time>2022-07-21T07:15:32Z</time>
      </trkpt>
      <trkpt lat="47.2825970" lon="6.8720530">
        <ele>786.1</ele>
        <time>2022-07-21T07:15:33Z</time>
      </trkpt>
      <trkpt lat="47.2825640" lon="6.8720480">
        <ele>786.4</ele>
        <time>2022-07-21T07:15:34Z</time>
      </trkpt>
      <trkpt lat="47.2825510" lon="6.8720520">
        <ele>786.4</ele>
        <time>2022-07-21T07:15:35Z</time>
      </trkpt>
      <trkpt lat="47.2825180" lon="6.8720760">
        <ele>786.6</ele>
        <time>2022-07-21T07:15:36Z</time>
      </trkpt>
      <trkpt lat="47.2825080" lon="6.8720870">
        <ele>786.7</ele>
        <time>2022-07-21T07:15:37Z</time>
      </trkpt>
      <trkpt lat="47.2824820" lon="6.8721260">
        <ele>786.8</ele>
        <time>2022-07-21T07:15:38Z</time>
      </trkpt>
      <trkpt lat="47.2824740" lon="6.8721390">
        <ele>786.9</ele>
        <time>2022-07-21T07:15:39Z</time>
      </trkpt>
      <trkpt lat="47.2824550" lon="6.8721710">
        <ele>787.0</ele>
        <time>2022-07-21T07:15:40Z</time>
      </trkpt>
      <trkpt lat="47.2824380" lon="6.8722040">
        <ele>787.2</ele>
        <time>2022-07-21T07:15:41Z</time>
      </trkpt>
      <trkpt lat="47.2824210" lon="6.8722350">
        <ele>787.3</ele>
        <time>2022-07-21T07:15:42Z</time>
      </trkpt>
      <trkpt lat="47.2823950" lon="6.8722780">
        <ele>787.5</ele>
        <time>2022-07-21T07:15:43Z</time>
      </trkpt>
      <trkpt lat="47.2823860" lon="6.8722910">
        <ele>787.6</ele>
        <time>2022-07-21T07:15:44Z</time>
      </trkpt>
      <trkpt lat="47.2823670" lon="6.8723210">
        <ele>787.7</ele>
        <time>2022-07-21T07:15:45Z</time>
      </trkpt>
      <trkpt lat="47.2823430" lon="6.8723630">
        <ele>787.9</ele>
        <time>2022-07-21T07:15:46Z</time>
      </trkpt>
      <trkpt lat="47.2823360" lon="6.8723780">
        <ele>788.0</ele>
        <time>2022-07-21T07:15:47Z</time>
      </trkpt>
      <trkpt lat="47.2823150" lon="6.8724120">
        <ele>788.2</ele>
        <time>2022-07-21T07:15:48Z</time>
      </trkpt>
      <trkpt lat="47.2823060" lon="6.8724260">
        <ele>788.2</ele>
        <time>2022-07-21T07:15:49Z</time>
      </trkpt>
      <trkpt lat="47.2822780" lon="6.8724590">
        <ele>788.5</ele>
        <time>2022-07-21T07:15:50Z</time>
      </trkpt>
      <trkpt lat="47.2822680" lon="6.8724710">
        <ele>788.6</ele>
        <time>2022-07-21T07:15:51Z</time>
      </trkpt>
      <trkpt lat="47.2822530" lon="6.8724950">
        <ele>788.7</ele>
        <time>2022-07-21T07:15:52Z</time>
      </trkpt>
      <trkpt lat="47.2822450" lon="6.8725060">
        <ele>788.8</ele>
        <time>2022-07-21T07:15:53Z</time>
      </trkpt>
      <trkpt lat="47.2822310" lon="6.8725260">
        <ele>788.9</ele>
        <time>2022-07-21T07:15:54Z</time>
      </trkpt>
      <trkpt lat="47.2822180" lon="6.8725400">
        <ele>789.0</ele>
        <time>2022-07-21T07:15:55Z</time>
      </trkpt>
      <trkpt lat="47.2821950" lon="6.8725700">
        <ele>789.2</ele>
        <time>2022-07-21T07:15:56Z</time>
      </trkpt>
      <trkpt lat="47.2821880" lon="6.8725790">
        <ele>789.3</ele>
        <time>2022-07-21T07:15:57Z</time>
      </trkpt>
      <trkpt lat="47.2821650" lon="6.8726120">
        <ele>789.6</ele>
        <time>2022-07-21T07:15:58Z</time>
      </trkpt>
      <trkpt lat="47.2821580" lon="6.8726240">
        <ele>789.6</ele>
        <time>2022-07-21T07:15:59Z</time>
      </trkpt>
      <trkpt lat="47.2821420" lon="6.8726600">
        <ele>789.9</ele>
        <time>2022-07-21T07:16:00Z</time>
      </trkpt>
      <trkpt lat="47.2821370" lon="6.8726730">
        <ele>790.0</ele>
        <time>2022-07-21T07:16:01Z</time>
      </trkpt>
      <trkpt lat="47.2821240" lon="6.8727130">
        <ele>790.2</ele>
        <time>2022-07-21T07:16:02Z</time>
      </trkpt>
      <trkpt lat="47.2821200" lon="6.8727240">
        <ele>790.3</ele>
        <time>2022-07-21T07:16:03Z</time>
      </trkpt>
      <trkpt lat="47.2821000" lon="6.8727670">
        <ele>790.5</ele>
        <time>2022-07-21T07:16:04Z</time>
      </trkpt>
      <trkpt lat="47.2820940" lon="6.8727790">
        <ele>790.6</ele>
        <time>2022-07-21T07:16:05Z</time>
      </trkpt>
      <trkpt lat="47.2820740" lon="6.8728130">
        <ele>790.9</ele>
        <time>2022-07-21T07:16:06Z</time>
      </trkpt>
      <trkpt lat="47.2820680" lon="6.8728230">
        <ele>790.9</ele>
        <time>2022-07-21T07:16:07Z</time>
      </trkpt>
      <trkpt lat="47.2820460" lon="6.8728540">
        <ele>791.2</ele>
        <time>2022-07-21T07:16:08Z</time>
      </trkpt>
      <trkpt lat="47.2820380" lon="6.8728640">
        <ele>791.3</ele>
        <time>2022-07-21T07:16:09Z</time>
      </trkpt>
      <trkpt lat="47.2820130" lon="6.8728940">
        <ele>791.5</ele>
        <time>2022-07-21T07:16:10Z</time>
      </trkpt>
      <trkpt lat="47.2820050" lon="6.8729040">
        <ele>791.6</ele>
        <time>2022-07-21T07:16:11Z</time>
      </trkpt>
      <trkpt lat="47.2819860" lon="6.8729320">
        <ele>791.8</ele>
        <time>2022-07-21T07:16:12Z</time>
      </trkpt>
      <trkpt lat="47.2819790" lon="6.8729420">
        <ele>791.9</ele>
        <time>2022-07-21T07:16:13Z</time>
      </trkpt>
      <trkpt lat="47.2819670" lon="6.8729570">
        <ele>792.0</ele>
        <time>2022-07-21T07:16:14Z</time>
      </trkpt>
      <trkpt lat="47.2819560" lon="6.8729700">
        <ele>792.1</ele>
        <time>2022-07-21T07:16:15Z</time>
      </trkpt>
      <trkpt lat="47.2819350" lon="6.8729960">
        <ele>792.3</ele>
        <time>2022-07-21T07:16:16Z</time>
      </trkpt>
      <trkpt lat="47.2819280" lon="6.8730080">
        <ele>792.4</ele>
        <time>2022-07-21T07:16:17Z</time>
      </trkpt>
      <trkpt lat="47.2819100" lon="6.8730440">
        <ele>792.6</ele>
        <time>2022-07-21T07:16:18Z</time>
      </trkpt>
      <trkpt lat="47.2819040" lon="6.8730580">
        <ele>792.7</ele>
        <time>2022-07-21T07:16:19Z</time>
      </trkpt>
      <trkpt lat="47.2818930" lon="6.8731050">
        <ele>792.9</ele>
        <time>2022-07-21T07:16:20Z</time>
      </trkpt>
      <trkpt lat="47.2818890" lon="6.8731210">
        <ele>793.0</ele>
        <time>2022-07-21T07:16:21Z</time>
      </trkpt>
      <trkpt lat="47.2818790" lon="6.8731620">
        <ele>793.2</ele>
        <time>2022-07-21T07:16:22Z</time>
      </trkpt>
      <trkpt lat="47.2818740" lon="6.8731770">
        <ele>793.2</ele>
        <time>2022-07-21T07:16:23Z</time>
      </trkpt>
      <trkpt lat="47.2818680" lon="6.8732020">
        <ele>793.3</ele>
        <time>2022-07-21T07:16:24Z</time>
      </trkpt>
      <trkpt lat="47.2818650" lon="6.8732240">
        <ele>793.4</ele>
        <time>2022-07-21T07:16:25Z</time>
      </trkpt>
      <trkpt lat="47.2818540" lon="6.8732690">
        <ele>793.5</ele>
        <time>2022-07-21T07:16:26Z</time>
      </trkpt>
      <trkpt lat="47.2818490" lon="6.8732830">
        <ele>793.6</ele>
        <time>2022-07-21T07:16:27Z</time>
      </trkpt>
      <trkpt lat="47.2818250" lon="6.8733240">
        <ele>793.7</ele>
        <time>2022-07-21T07:16:28Z</time>
      </trkpt>
      <trkpt lat="47.2818160" lon="6.8733390">
        <ele>793.8</ele>
        <time>2022-07-21T07:16:29Z</time>
      </trkpt>
      <trkpt lat="47.2817980" lon="6.8733700">
        <ele>793.9</ele>
        <time>2022-07-21T07:16:30Z</time>
      </trkpt>
      <trkpt lat="47.2817740" lon="6.8734150">
        <ele>794.1</ele>
        <time>2022-07-21T07:16:31Z</time>
      </trkpt>
      <trkpt lat="47.2817660" lon="6.8734300">
        <ele>794.1</ele>
        <time>2022-07-21T07:16:32Z</time>
      </trkpt>
      <trkpt lat="47.2817470" lon="6.8734730">
        <ele>794.2</ele>
        <time>2022-07-21T07:16:33Z</time>
      </trkpt>
      <trkpt lat="47.2817440" lon="6.8734840">
        <ele>794.3</ele>
        <time>2022-07-21T07:16:34Z</time>
      </trkpt>
      <trkpt lat="47.2817330" lon="6.8735220">
        <ele>794.4</ele>
        <time>2022-07-21T07:16:35Z</time>
      </trkpt>
      <trkpt lat="47.2817160" lon="6.8735700">
        <ele>794.5</ele>
        <time>2022-07-21T07:16:36Z</time>
      </trkpt>
      <trkpt lat="47.2817090" lon="6.8735850">
        <ele>794.5</ele>
        <time>2022-07-21T07:16:37Z</time>
      </trkpt>
      <trkpt lat="47.2816890" lon="6.8736330">
        <ele>794.6</ele>
        <time>2022-07-21T07:16:38Z</time>
      </trkpt>
      <trkpt lat="47.2816810" lon="6.8736520">
        <ele>794.6</ele>
        <time>2022-07-21T07:16:39Z</time>
      </trkpt>
      <trkpt lat="47.2816580" lon="6.8737010">
        <ele>794.6</ele>
        <time>2022-07-21T07:16:40Z</time>
      </trkpt>
      <trkpt lat="47.2816350" lon="6.8737460">
        <ele>794.7</ele>
        <time>2022-07-21T07:16:41Z</time>
      </trkpt>
      <trkpt lat="47.2816130" lon="6.8737900">
        <ele>794.7</ele>
        <time>2022-07-21T07:16:42Z</time>
      </trkpt>
      <trkpt lat="47.2815920" lon="6.8738340">
        <ele>794.8</ele>
        <time>2022-07-21T07:16:43Z</time>
      </trkpt>
      <trkpt lat="47.2815730" lon="6.8738700">
        <ele>794.7</ele>
        <time>2022-07-21T07:16:44Z</time>
      </trkpt>
      <trkpt lat="47.2815520" lon="6.8739120">
        <ele>794.6</ele>
        <time>2022-07-21T07:16:45Z</time>
      </trkpt>
      <trkpt lat="47.2815270" lon="6.8739690">
        <ele>794.5</ele>
        <time>2022-07-21T07:16:46Z</time>
      </trkpt>
      <trkpt lat="47.2815090" lon="6.8740140">
        <ele>794.3</ele>
        <time>2022-07-21T07:16:47Z</time>
      </trkpt>
      <trkpt lat="47.2814860" lon="6.8740740">
        <ele>794.2</ele>
        <time>2022-07-21T07:16:48Z</time>
      </trkpt>
      <trkpt lat="47.2814620" lon="6.8741320">
        <ele>794.1</ele>
        <time>2022-07-21T07:16:49Z</time>
      </trkpt>
      <trkpt lat="47.2814420" lon="6.8741730">
        <ele>794.0</ele>
        <time>2022-07-21T07:16:50Z</time>
      </trkpt>
      <trkpt lat="47.2814170" lon="6.8742190">
        <ele>793.8</ele>
        <time>2022-07-21T07:16:51Z</time>
      </trkpt>
      <trkpt lat="47.2813930" lon="6.8742670">
        <ele>793.7</ele>
        <time>2022-07-21T07:16:52Z</time>
      </trkpt>
      <trkpt lat="47.2813770" lon="6.8743050">
        <ele>793.6</ele>
        <time>2022-07-21T07:16:53Z</time>
      </trkpt>
      <trkpt lat="47.2813590" lon="6.8743550">
        <ele>793.5</ele>
        <time>2022-07-21T07:16:54Z</time>
      </trkpt>
      <trkpt lat="47.2813330" lon="6.8744220">
        <ele>793.3</ele>
        <time>2022-07-21T07:16:55Z</time>
      </trkpt>
      <trkpt lat="47.2813160" lon="6.8744800">
        <ele>793.2</ele>
        <time>2022-07-21T07:16:56Z</time>
      </trkpt>
      <trkpt lat="47.2813020" lon="6.8745320">
        <ele>793.1</ele>
        <time>2022-07-21T07:16:57Z</time>
      </trkpt>
      <trkpt lat="47.2812770" lon="6.8745780">
        <ele>793.0</ele>
        <time>2022-07-21T07:16:58Z</time>
      </trkpt>
      <trkpt lat="47.2812510" lon="6.8746400">
        <ele>792.8</ele>
        <time>2022-07-21T07:16:59Z</time>
      </trkpt>
      <trkpt lat="47.2812280" lon="6.8746940">
        <ele>792.7</ele>
        <time>2022-07-21T07:17:00Z</time>
      </trkpt>
      <trkpt lat="47.2812120" lon="6.8747390">
        <ele>792.7</ele>
        <time>2022-07-21T07:17:01Z</time>
      </trkpt>
      <trkpt lat="47.2811870" lon="6.8747950">
        <ele>792.6</ele>
        <time>2022-07-21T07:17:02Z</time>
      </trkpt>
      <trkpt lat="47.2811690" lon="6.8748400">
        <ele>792.5</ele>
        <time>2022-07-21T07:17:03Z</time>
      </trkpt>
      <trkpt lat="47.2811550" lon="6.8749030">
        <ele>792.4</ele>
        <time>2022-07-21T07:17:04Z</time>
      </trkpt>
      <trkpt lat="47.2811420" lon="6.8749600">
        <ele>792.3</ele>
        <time>2022-07-21T07:17:05Z</time>
      </trkpt>
      <trkpt lat="47.2811180" lon="6.8750110">
        <ele>792.2</ele>
        <time>2022-07-21T07:17:06Z</time>
      </trkpt>
      <trkpt lat="47.2810990" lon="6.8750590">
        <ele>792.2</ele>
        <time>2022-07-21T07:17:07Z</time>
      </trkpt>
      <trkpt lat="47.2810770" lon="6.8751130">
        <ele>792.1</ele>
        <time>2022-07-21T07:17:08Z</time>
      </trkpt>
      <trkpt lat="47.2810580" lon="6.8751530">
        <ele>792.0</ele>
        <time>2022-07-21T07:17:09Z</time>
      </trkpt>
      <trkpt lat="47.2810370" lon="6.8751990">
        <ele>792.0</ele>
        <time>2022-07-21T07:17:10Z</time>
      </trkpt>
      <trkpt lat="47.2810130" lon="6.8752470">
        <ele>791.9</ele>
        <time>2022-07-21T07:17:11Z</time>
      </trkpt>
      <trkpt lat="47.2809920" lon="6.8752900">
        <ele>791.8</ele>
        <time>2022-07-21T07:17:12Z</time>
      </trkpt>
      <trkpt lat="47.2809700" lon="6.8753380">
        <ele>791.7</ele>
        <time>2022-07-21T07:17:13Z</time>
      </trkpt>
      <trkpt lat="47.2809510" lon="6.8753840">
        <ele>791.7</ele>
        <time>2022-07-21T07:17:14Z</time>
      </trkpt>
      <trkpt lat="47.2809290" lon="6.8754320">
        <ele>791.6</ele>
        <time>2022-07-21T07:17:15Z</time>
      </trkpt>
      <trkpt lat="47.2809060" lon="6.8754840">
        <ele>791.5</ele>
        <time>2022-07-21T07:17:16Z</time>
      </trkpt>
      <trkpt lat="47.2808850" lon="6.8755290">
        <ele>791.4</ele>
        <time>2022-07-21T07:17:17Z</time>
      </trkpt>
      <trkpt lat="47.2808630" lon="6.8755880">
        <ele>791.4</ele>
        <time>2022-07-21T07:17:18Z</time>
      </trkpt>
      <trkpt lat="47.2808500" lon="6.8756370">
        <ele>791.3</ele>
        <time>2022-07-21T07:17:19Z</time>
      </trkpt>
      <trkpt lat="47.2808380" lon="6.8756970">
        <ele>791.2</ele>
        <time>2022-07-21T07:17:20Z</time>
      </trkpt>
      <trkpt lat="47.2808270" lon="6.8757560">
        <ele>791.2</ele>
        <time>2022-07-21T07:17:21Z</time>
      </trkpt>
      <trkpt lat="47.2808180" lon="6.8758030">
        <ele>791.1</ele>
        <time>2022-07-21T07:17:22Z</time>
      </trkpt>
      <trkpt lat="47.2808070" lon="6.8758510">
        <ele>791.1</ele>
        <time>2022-07-21T07:17:23Z</time>
      </trkpt>
      <trkpt lat="47.2807920" lon="6.8759050">
        <ele>791.0</ele>
        <time>2022-07-21T07:17:24Z</time>
      </trkpt>
      <trkpt lat="47.2807750" lon="6.8759540">
        <ele>791.0</ele>
        <time>2022-07-21T07:17:25Z</time>
      </trkpt>
      <trkpt lat="47.2807510" lon="6.8760050">
        <ele>791.0</ele>
        <time>2022-07-21T07:17:26Z</time>
      </trkpt>
      <trkpt lat="47.2807270" lon="6.8760410">
        <ele>790.9</ele>
        <time>2022-07-21T07:17:27Z</time>
      </trkpt>
      <trkpt lat="47.2807000" lon="6.8760800">
        <ele>791.0</ele>
        <time>2022-07-21T07:17:28Z</time>
      </trkpt>
      <trkpt lat="47.2806670" lon="6.8761210">
        <ele>792.0</ele>
        <time>2022-07-21T07:17:29Z</time>
      </trkpt>
      <trkpt lat="47.2806410" lon="6.8761540">
        <ele>792.9</ele>
        <time>2022-07-21T07:17:30Z</time>
      </trkpt>
      <trkpt lat="47.2806180" lon="6.8761840">
        <ele>793.7</ele>
        <time>2022-07-21T07:17:31Z</time>
      </trkpt>
      <trkpt lat="47.2805880" lon="6.8762280">
        <ele>794.8</ele>
        <time>2022-07-21T07:17:32Z</time>
      </trkpt>
      <trkpt lat="47.2805790" lon="6.8762450">
        <ele>795.1</ele>
        <time>2022-07-21T07:17:33Z</time>
      </trkpt>
      <trkpt lat="47.2805550" lon="6.8762880">
        <ele>796.0</ele>
        <time>2022-07-21T07:17:34Z</time>
      </trkpt>
      <trkpt lat="47.2805470" lon="6.8763020">
        <ele>796.0</ele>
        <time>2022-07-21T07:17:35Z</time>
      </trkpt>
      <trkpt lat="47.2805240" lon="6.8763390">
        <ele>796.1</ele>
        <time>2022-07-21T07:17:36Z</time>
      </trkpt>
      <trkpt lat="47.2804960" lon="6.8763700">
        <ele>796.1</ele>
        <time>2022-07-21T07:17:37Z</time>
      </trkpt>
      <trkpt lat="47.2804870" lon="6.8763800">
        <ele>796.2</ele>
        <time>2022-07-21T07:17:38Z</time>
      </trkpt>
      <trkpt lat="47.2804650" lon="6.8764040">
        <ele>796.2</ele>
        <time>2022-07-21T07:17:39Z</time>
      </trkpt>
      <trkpt lat="47.2804300" lon="6.8764340">
        <ele>796.3</ele>
        <time>2022-07-21T07:17:40Z</time>
      </trkpt>
      <trkpt lat="47.2804150" lon="6.8764460">
        <ele>796.4</ele>
        <time>2022-07-21T07:17:41Z</time>
      </trkpt>
      <trkpt lat="47.2803870" lon="6.8764660">
        <ele>796.4</ele>
        <time>2022-07-21T07:17:42Z</time>
      </trkpt>
      <trkpt lat="47.2803580" lon="6.8764870">
        <ele>796.5</ele>
        <time>2022-07-21T07:17:43Z</time>
      </trkpt>
      <trkpt lat="47.2803360" lon="6.8765120">
        <ele>796.6</ele>
        <time>2022-07-21T07:17:44Z</time>
      </trkpt>
      <trkpt lat="47.2803140" lon="6.8765360">
        <ele>796.6</ele>
        <time>2022-07-21T07:17:45Z</time>
      </trkpt>
      <trkpt lat="47.2802780" lon="6.8765780">
        <ele>796.7</ele>
        <time>2022-07-21T07:17:47Z</time>
      </trkpt>
      <trkpt lat="47.2802570" lon="6.8766090">
        <ele>796.8</ele>
        <time>2022-07-21T07:17:48Z</time>
      </trkpt>
      <trkpt lat="47.2802510" lon="6.8766170">
        <ele>796.8</ele>
        <time>2022-07-21T07:17:49Z</time>
      </trkpt>
      <trkpt lat="47.2802310" lon="6.8766460">
        <ele>796.9</ele>
        <time>2022-07-21T07:17:50Z</time>
      </trkpt>
      <trkpt lat="47.2802250" lon="6.8766560">
        <ele>796.9</ele>
        <time>2022-07-21T07:17:51Z</time>
      </trkpt>
      <trkpt lat="47.2802260" lon="6.8766740">
        <ele>796.9</ele>
        <time>2022-07-21T07:17:52Z</time>
      </trkpt>
      <trkpt lat="47.2802480" lon="6.8766810">
        <ele>797.0</ele>
        <time>2022-07-21T07:17:53Z</time>
      </trkpt>
      <trkpt lat="47.2802720" lon="6.8766500">
        <ele>797.1</ele>
        <time>2022-07-21T07:17:54Z</time>
      </trkpt>
      <trkpt lat="47.2802930" lon="6.8766210">
        <ele>797.1</ele>
        <time>2022-07-21T07:17:55Z</time>
      </trkpt>
      <trkpt lat="47.2803130" lon="6.8765890">
        <ele>797.2</ele>
        <time>2022-07-21T07:17:56Z</time>
      </trkpt>
      <trkpt lat="47.2803330" lon="6.8765580">
        <ele>797.3</ele>
        <time>2022-07-21T07:17:57Z</time>
      </trkpt>
      <trkpt lat="47.2803560" lon="6.8765230">
        <ele>797.4</ele>
        <time>2022-07-21T07:17:58Z</time>
      </trkpt>
      <trkpt lat="47.2804010" lon="6.8764630">
        <ele>797.6</ele>
        <time>2022-07-21T07:18:00Z</time>
      </trkpt>
      <trkpt lat="47.2804200" lon="6.8764500">
        <ele>797.6</ele>
        <time>2022-07-21T07:18:01Z</time>
      </trkpt>
      <trkpt lat="47.2804310" lon="6.8764520">
        <ele>797.7</ele>
        <time>2022-07-21T07:18:02Z</time>
      </trkpt>
      <trkpt lat="47.2804270" lon="6.8764760">
        <ele>797.7</ele>
        <time>2022-07-21T07:18:03Z</time>
      </trkpt>
      <trkpt lat="47.2804320" lon="6.8764870">
        <ele>797.8</ele>
        <time>2022-07-21T07:18:04Z</time>
      </trkpt>
      <trkpt lat="47.2804370" lon="6.8764970">
        <ele>797.8</ele>
        <time>2022-07-21T07:18:05Z</time>
      </trkpt>
      <trkpt lat="47.2804410" lon="6.8765070">
        <ele>797.9</ele>
        <time>2022-07-21T07:18:06Z</time>
      </trkpt>
      <trkpt lat="47.2804410" lon="6.8765550">
        <ele>798.0</ele>
        <time>2022-07-21T07:18:07Z</time>
      </trkpt>
      <trkpt lat="47.2804390" lon="6.8765710">
        <ele>798.1</ele>
        <time>2022-07-21T07:18:08Z</time>
      </trkpt>
      <trkpt lat="47.2804110" lon="6.8766110">
        <ele>798.3</ele>
        <time>2022-07-21T07:18:09Z</time>
      </trkpt>
      <trkpt lat="47.2804000" lon="6.8766240">
        <ele>798.3</ele>
        <time>2022-07-21T07:18:10Z</time>
      </trkpt>
      <trkpt lat="47.2803670" lon="6.8766620">
        <ele>798.6</ele>
        <time>2022-07-21T07:18:11Z</time>
      </trkpt>
      <trkpt lat="47.2803540" lon="6.8766770">
        <ele>798.7</ele>
        <time>2022-07-21T07:18:12Z</time>
      </trkpt>
      <trkpt lat="47.2803350" lon="6.8766970">
        <ele>798.9</ele>
        <time>2022-07-21T07:18:13Z</time>
      </trkpt>
      <trkpt lat="47.2803130" lon="6.8767200">
        <ele>799.0</ele>
        <time>2022-07-21T07:18:15Z</time>
      </trkpt>
      <trkpt lat="47.2802870" lon="6.8767540">
        <ele>799.3</ele>
        <time>2022-07-21T07:18:16Z</time>
      </trkpt>
      <trkpt lat="47.2802790" lon="6.8767670">
        <ele>799.3</ele>
        <time>2022-07-21T07:18:17Z</time>
      </trkpt>
      <trkpt lat="47.2802610" lon="6.8768050">
        <ele>799.5</ele>
        <time>2022-07-21T07:18:18Z</time>
      </trkpt>
      <trkpt lat="47.2802560" lon="6.8768170">
        <ele>799.6</ele>
        <time>2022-07-21T07:18:19Z</time>
      </trkpt>
      <trkpt lat="47.2802320" lon="6.8768540">
        <ele>799.8</ele>
        <time>2022-07-21T07:18:20Z</time>
      </trkpt>
      <trkpt lat="47.2802250" lon="6.8768650">
        <ele>799.9</ele>
        <time>2022-07-21T07:18:21Z</time>
      </trkpt>
      <trkpt lat="47.2802030" lon="6.8769010">
        <ele>800.1</ele>
        <time>2022-07-21T07:18:22Z</time>
      </trkpt>
      <trkpt lat="47.2801970" lon="6.8769120">
        <ele>800.2</ele>
        <time>2022-07-21T07:18:23Z</time>
      </trkpt>
      <trkpt lat="47.2801840" lon="6.8769580">
        <ele>800.4</ele>
        <time>2022-07-21T07:18:24Z</time>
      </trkpt>
      <trkpt lat="47.2801770" lon="6.8769910">
        <ele>800.6</ele>
        <time>2022-07-21T07:18:25Z</time>
      </trkpt>
      <trkpt lat="47.2801600" lon="6.8770400">
        <ele>800.9</ele>
        <time>2022-07-21T07:18:27Z</time>
      </trkpt>
      <trkpt lat="47.2801520" lon="6.8770890">
        <ele>801.2</ele>
        <time>2022-07-21T07:18:28Z</time>
      </trkpt>
      <trkpt lat="47.2801490" lon="6.8771040">
        <ele>801.2</ele>
        <time>2022-07-21T07:18:29Z</time>
      </trkpt>
      <trkpt lat="47.2801360" lon="6.8771540">
        <ele>801.5</ele>
        <time>2022-07-21T07:18:30Z</time>
      </trkpt>
      <trkpt lat="47.2801310" lon="6.8771730">
        <ele>801.7</ele>
        <time>2022-07-21T07:18:31Z</time>
      </trkpt>
      <trkpt lat="47.2801260" lon="6.8772370">
        <ele>802.0</ele>
        <time>2022-07-21T07:18:33Z</time>
      </trkpt>
      <trkpt lat="47.2801250" lon="6.8772590">
        <ele>802.1</ele>
        <time>2022-07-21T07:18:34Z</time>
      </trkpt>
      <trkpt lat="47.2801250" lon="6.8772800">
        <ele>802.3</ele>
        <time>2022-07-21T07:18:35Z</time>
      </trkpt>
      <trkpt lat="47.2801230" lon="6.8773220">
        <ele>802.5</ele>
        <time>2022-07-21T07:18:36Z</time>
      </trkpt>
      <trkpt lat="47.2801210" lon="6.8773400">
        <ele>802.6</ele>
        <time>2022-07-21T07:18:37Z</time>
      </trkpt>
      <trkpt lat="47.2801170" lon="6.8773470">
        <ele>802.7</ele>
        <time>2022-07-21T07:18:39Z</time>
      </trkpt>
      <trkpt lat="47.2801170" lon="6.8773560">
        <ele>802.7</ele>
        <time>2022-07-21T07:18:40Z</time>
      </trkpt>
      <trkpt lat="47.2801160" lon="6.8773650">
        <ele>802.8</ele>
        <time>2022-07-21T07:18:41Z</time>
      </trkpt>
      <trkpt lat="47.2801160" lon="6.8773740">
        <ele>802.8</ele>
        <time>2022-07-21T07:18:42Z</time>
      </trkpt>
      <trkpt lat="47.2801160" lon="6.8773830">
        <ele>802.9</ele>
        <time>2022-07-21T07:18:43Z</time>
      </trkpt>
      <trkpt lat="47.2801150" lon="6.8773920">
        <ele>802.9</ele>
        <time>2022-07-21T07:18:44Z</time>
      </trkpt>
      <trkpt lat="47.2801190" lon="6.8774240">
        <ele>803.1</ele>
        <time>2022-07-21T07:18:45Z</time>
      </trkpt>
      <trkpt lat="47.2801210" lon="6.8774360">
        <ele>803.2</ele>
        <time>2022-07-21T07:18:46Z</time>
      </trkpt>
      <trkpt lat="47.2801220" lon="6.8774480">
        <ele>803.3</ele>
        <time>2022-07-21T07:18:47Z</time>
      </trkpt>
      <trkpt lat="47.2801190" lon="6.8774710">
        <ele>803.4</ele>
        <time>2022-07-21T07:18:48Z</time>
      </trkpt>
      <trkpt lat="47.2801170" lon="6.8774890">
        <ele>803.5</ele>
        <time>2022-07-21T07:18:49Z</time>
      </trkpt>
      <trkpt lat="47.2801060" lon="6.8775270">
        <ele>803.8</ele>
        <time>2022-07-21T07:18:51Z</time>
      </trkpt>
      <trkpt lat="47.2801020" lon="6.8775390">
        <ele>803.8</ele>
        <time>2022-07-21T07:18:52Z</time>
      </trkpt>
      <trkpt lat="47.2800970" lon="6.8775620">
        <ele>804.0</ele>
        <time>2022-07-21T07:18:53Z</time>
      </trkpt>
      <trkpt lat="47.2800910" lon="6.8775870">
        <ele>804.2</ele>
        <time>2022-07-21T07:18:54Z</time>
      </trkpt>
      <trkpt lat="47.2800920" lon="6.8776280">
        <ele>804.4</ele>
        <time>2022-07-21T07:18:56Z</time>
      </trkpt>
      <trkpt lat="47.2800900" lon="6.8776490">
        <ele>804.6</ele>
        <time>2022-07-21T07:18:57Z</time>
      </trkpt>
      <trkpt lat="47.2800870" lon="6.8776670">
        <ele>804.7</ele>
        <time>2022-07-21T07:18:58Z</time>
      </trkpt>
      <trkpt lat="47.2800870" lon="6.8776870">
        <ele>804.9</ele>
        <time>2022-07-21T07:18:59Z</time>
      </trkpt>
      <trkpt lat="47.2800850" lon="6.8777040">
        <ele>805.0</ele>
        <time>2022-07-21T07:19:00Z</time>
      </trkpt>
      <trkpt lat="47.2800820" lon="6.8777100">
        <ele>805.0</ele>
        <time>2022-07-21T07:19:01Z</time>
      </trkpt>
      <trkpt lat="47.2800740" lon="6.8777570">
        <ele>805.4</ele>
        <time>2022-07-21T07:19:02Z</time>
      </trkpt>
      <trkpt lat="47.2800710" lon="6.8777730">
        <ele>805.5</ele>
        <time>2022-07-21T07:19:03Z</time>
      </trkpt>
      <trkpt lat="47.2800650" lon="6.8778130">
        <ele>805.8</ele>
        <time>2022-07-21T07:19:05Z</time>
      </trkpt>
      <trkpt lat="47.2800630" lon="6.8778330">
        <ele>805.9</ele>
        <time>2022-07-21T07:19:06Z</time>
      </trkpt>
      <trkpt lat="47.2800590" lon="6.8778500">
        <ele>806.1</ele>
        <time>2022-07-21T07:19:07Z</time>
      </trkpt>
      <trkpt lat="47.2800570" lon="6.8778630">
        <ele>806.2</ele>
        <time>2022-07-21T07:19:09Z</time>
      </trkpt>
      <trkpt lat="47.2800530" lon="6.8778790">
        <ele>806.3</ele>
        <time>2022-07-21T07:19:10Z</time>
      </trkpt>
      <trkpt lat="47.2800470" lon="6.8778960">
        <ele>806.4</ele>
        <time>2022-07-21T07:19:11Z</time>
      </trkpt>
      <trkpt lat="47.2800370" lon="6.8779140">
        <ele>806.6</ele>
        <time>2022-07-21T07:19:12Z</time>
      </trkpt>
      <trkpt lat="47.2800230" lon="6.8779410">
        <ele>806.8</ele>
        <time>2022-07-21T07:19:13Z</time>
      </trkpt>
      <trkpt lat="47.2800190" lon="6.8779530">
        <ele>806.9</ele>
        <time>2022-07-21T07:19:14Z</time>
      </trkpt>
      <trkpt lat="47.2800140" lon="6.8779650">
        <ele>807.0</ele>
        <time>2022-07-21T07:19:15Z</time>
      </trkpt>
      <trkpt lat="47.2800100" lon="6.8779810">
        <ele>807.2</ele>
        <time>2022-07-21T07:19:16Z</time>
      </trkpt>
      <trkpt lat="47.2800050" lon="6.8779960">
        <ele>807.3</ele>
        <time>2022-07-21T07:19:17Z</time>
      </trkpt>
      <trkpt lat="47.2800020" lon="6.8780040">
        <ele>807.3</ele>
        <time>2022-07-21T07:19:18Z</time>
      </trkpt>
      <trkpt lat="47.2799950" lon="6.8780320">
        <ele>807.6</ele>
        <time>2022-07-21T07:19:19Z</time>
      </trkpt>
      <trkpt lat="47.2799930" lon="6.8780440">
        <ele>807.6</ele>
        <time>2022-07-21T07:19:20Z</time>
      </trkpt>
      <trkpt lat="47.2799920" lon="6.8780560">
        <ele>807.7</ele>
        <time>2022-07-21T07:19:21Z</time>
      </trkpt>
      <trkpt lat="47.2799930" lon="6.8780730">
        <ele>807.8</ele>
        <time>2022-07-21T07:19:23Z</time>
      </trkpt>
      <trkpt lat="47.2799930" lon="6.8781000">
        <ele>808.0</ele>
        <time>2022-07-21T07:19:24Z</time>
      </trkpt>
      <trkpt lat="47.2799950" lon="6.8781200">
        <ele>808.2</ele>
        <time>2022-07-21T07:19:25Z</time>
      </trkpt>
      <trkpt lat="47.2799990" lon="6.8781450">
        <ele>808.3</ele>
        <time>2022-07-21T07:19:26Z</time>
      </trkpt>
      <trkpt lat="47.2800010" lon="6.8781770">
        <ele>808.6</ele>
        <time>2022-07-21T07:19:27Z</time>
      </trkpt>
      <trkpt lat="47.2800030" lon="6.8782060">
        <ele>808.7</ele>
        <time>2022-07-21T07:19:29Z</time>
      </trkpt>
      <trkpt lat="47.2800030" lon="6.8782250">
        <ele>808.9</ele>
        <time>2022-07-21T07:19:30Z</time>
      </trkpt>
      <trkpt lat="47.2800000" lon="6.8782510">
        <ele>809.0</ele>
        <time>2022-07-21T07:19:31Z</time>
      </trkpt>
      <trkpt lat="47.2799960" lon="6.8782890">
        <ele>809.3</ele>
        <time>2022-07-21T07:19:32Z</time>
      </trkpt>
      <trkpt lat="47.2799940" lon="6.8783060">
        <ele>809.4</ele>
        <time>2022-07-21T07:19:34Z</time>
      </trkpt>
      <trkpt lat="47.2799930" lon="6.8783220">
        <ele>809.5</ele>
        <time>2022-07-21T07:19:35Z</time>
      </trkpt>
      <trkpt lat="47.2799910" lon="6.8783380">
        <ele>809.6</ele>
        <time>2022-07-21T07:19:36Z</time>
      </trkpt>
      <trkpt lat="47.2799890" lon="6.8783540">
        <ele>809.7</ele>
        <time>2022-07-21T07:19:37Z</time>
      </trkpt>
      <trkpt lat="47.2799880" lon="6.8783840">
        <ele>809.9</ele>
        <time>2022-07-21T07:19:38Z</time>
      </trkpt>
      <trkpt lat="47.2799880" lon="6.8784050">
        <ele>810.1</ele>
        <time>2022-07-21T07:19:39Z</time>
      </trkpt>
      <trkpt lat="47.2799860" lon="6.8784470">
        <ele>810.3</ele>
        <time>2022-07-21T07:19:40Z</time>
      </trkpt>
      <trkpt lat="47.2799860" lon="6.8784650">
        <ele>810.5</ele>
        <time>2022-07-21T07:19:42Z</time>
      </trkpt>
      <trkpt lat="47.2799860" lon="6.8784820">
        <ele>810.6</ele>
        <time>2022-07-21T07:19:43Z</time>
      </trkpt>
      <trkpt lat="47.2799860" lon="6.8785000">
        <ele>810.7</ele>
        <time>2022-07-21T07:19:44Z</time>
      </trkpt>
      <trkpt lat="47.2799860" lon="6.8785170">
        <ele>810.8</ele>
        <time>2022-07-21T07:19:45Z</time>
      </trkpt>
      <trkpt lat="47.2799860" lon="6.8785410">
        <ele>811.0</ele>
        <time>2022-07-21T07:19:46Z</time>
      </trkpt>
      <trkpt lat="47.2799800" lon="6.8785630">
        <ele>811.1</ele>
        <time>2022-07-21T07:19:47Z</time>
      </trkpt>
      <trkpt lat="47.2799740" lon="6.8786090">
        <ele>811.4</ele>
        <time>2022-07-21T07:19:49Z</time>
      </trkpt>
      <trkpt lat="47.2799740" lon="6.8786170">
        <ele>811.5</ele>
        <time>2022-07-21T07:19:50Z</time>
      </trkpt>
      <trkpt lat="47.2799740" lon="6.8786460">
        <ele>811.7</ele>
        <time>2022-07-21T07:19:51Z</time>
      </trkpt>
      <trkpt lat="47.2799740" lon="6.8786630">
        <ele>811.8</ele>
        <time>2022-07-21T07:19:52Z</time>
      </trkpt>
      <trkpt lat="47.2799740" lon="6.8786800">
        <ele>811.9</ele>
        <time>2022-07-21T07:19:53Z</time>
      </trkpt>
      <trkpt lat="47.2799720" lon="6.8787010">
        <ele>812.0</ele>
        <time>2022-07-21T07:19:54Z</time>
      </trkpt>
      <trkpt lat="47.2799730" lon="6.8787230">
        <ele>812.2</ele>
        <time>2022-07-21T07:19:56Z</time>
      </trkpt>
      <trkpt lat="47.2799740" lon="6.8787460">
        <ele>812.3</ele>
        <time>2022-07-21T07:19:57Z</time>
      </trkpt>
      <trkpt lat="47.2799770" lon="6.8787690">
        <ele>812.5</ele>
        <time>2022-07-21T07:19:58Z</time>
      </trkpt>
      <trkpt lat="47.2799780" lon="6.8788000">
        <ele>812.7</ele>
        <time>2022-07-21T07:19:59Z</time>
      </trkpt>
      <trkpt lat="47.2799800" lon="6.8788160">
        <ele>812.8</ele>
        <time>2022-07-21T07:20:00Z</time>
      </trkpt>
      <trkpt lat="47.2799810" lon="6.8788320">
        <ele>812.9</ele>
        <time>2022-07-21T07:20:01Z</time>
      </trkpt>
      <trkpt lat="47.2799830" lon="6.8788810">
        <ele>813.2</ele>
        <time>2022-07-21T07:20:03Z</time>
      </trkpt>
      <trkpt lat="47.2799830" lon="6.8788960">
        <ele>813.3</ele>
        <time>2022-07-21T07:20:04Z</time>
      </trkpt>
      <trkpt lat="47.2799890" lon="6.8789200">
        <ele>813.5</ele>
        <time>2022-07-21T07:20:05Z</time>
      </trkpt>
      <trkpt lat="47.2799960" lon="6.8789380">
        <ele>813.6</ele>
        <time>2022-07-21T07:20:06Z</time>
      </trkpt>
      <trkpt lat="47.2800060" lon="6.8789850">
        <ele>813.9</ele>
        <time>2022-07-21T07:20:08Z</time>
      </trkpt>
      <trkpt lat="47.2800060" lon="6.8789960">
        <ele>814.0</ele>
        <time>2022-07-21T07:20:09Z</time>
      </trkpt>
      <trkpt lat="47.2800020" lon="6.8790240">
        <ele>814.2</ele>
        <time>2022-07-21T07:20:10Z</time>
      </trkpt>
      <trkpt lat="47.2799980" lon="6.8790420">
        <ele>814.3</ele>
        <time>2022-07-21T07:20:11Z</time>
      </trkpt>
      <trkpt lat="47.2799940" lon="6.8790590">
        <ele>814.4</ele>
        <time>2022-07-21T07:20:12Z</time>
      </trkpt>
      <trkpt lat="47.2799860" lon="6.8791060">
        <ele>814.8</ele>
        <time>2022-07-21T07:20:13Z</time>
      </trkpt>
      <trkpt lat="47.2799860" lon="6.8791190">
        <ele>814.8</ele>
        <time>2022-07-21T07:20:14Z</time>
      </trkpt>
      <trkpt lat="47.2799840" lon="6.8791500">
        <ele>815.1</ele>
        <time>2022-07-21T07:20:16Z</time>
      </trkpt>
      <trkpt lat="47.2799830" lon="6.8791690">
        <ele>815.2</ele>
        <time>2022-07-21T07:20:17Z</time>
      </trkpt>
      <trkpt lat="47.2799800" lon="6.8791870">
        <ele>815.3</ele>
        <time>2022-07-21T07:20:18Z</time>
      </trkpt>
      <trkpt lat="47.2799760" lon="6.8792060">
        <ele>815.4</ele>
        <time>2022-07-21T07:20:19Z</time>
      </trkpt>
      <trkpt lat="47.2799720" lon="6.8792310">
        <ele>815.6</ele>
        <time>2022-07-21T07:20:21Z</time>
      </trkpt>
      <trkpt lat="47.2799710" lon="6.8792400">
        <ele>815.6</ele>
        <time>2022-07-21T07:20:22Z</time>
      </trkpt>
      <trkpt lat="47.2799700" lon="6.8792550">
        <ele>815.7</ele>
        <time>2022-07-21T07:20:23Z</time>
      </trkpt>
      <trkpt lat="47.2799680" lon="6.8792660">
        <ele>815.8</ele>
        <time>2022-07-21T07:20:24Z</time>
      </trkpt>
      <trkpt lat="47.2799660" lon="6.8792870">
        <ele>815.9</ele>
        <time>2022-07-21T07:20:26Z</time>
      </trkpt>
      <trkpt lat="47.2799640" lon="6.8793070">
        <ele>816.0</ele>
        <time>2022-07-21T07:20:27Z</time>
      </trkpt>
      <trkpt lat="47.2799620" lon="6.8793320">
        <ele>816.2</ele>
        <time>2022-07-21T07:20:28Z</time>
      </trkpt>
      <trkpt lat="47.2799590" lon="6.8793620">
        <ele>816.3</ele>
        <time>2022-07-21T07:20:29Z</time>
      </trkpt>
      <trkpt lat="47.2799570" lon="6.8793790">
        <ele>816.4</ele>
        <time>2022-07-21T07:20:30Z</time>
      </trkpt>
      <trkpt lat="47.2799540" lon="6.8794090">
        <ele>816.6</ele>
        <time>2022-07-21T07:20:31Z</time>
      </trkpt>
      <trkpt lat="47.2799510" lon="6.8794500">
        <ele>816.8</ele>
        <time>2022-07-21T07:20:33Z</time>
      </trkpt>
      <trkpt lat="47.2799440" lon="6.8794920">
        <ele>817.1</ele>
        <time>2022-07-21T07:20:34Z</time>
      </trkpt>
      <trkpt lat="47.2799430" lon="6.8795020">
        <ele>817.1</ele>
        <time>2022-07-21T07:20:35Z</time>
      </trkpt>
      <trkpt lat="47.2799380" lon="6.8795350">
        <ele>817.3</ele>
        <time>2022-07-21T07:20:36Z</time>
      </trkpt>
      <trkpt lat="47.2799370" lon="6.8795490">
        <ele>817.4</ele>
        <time>2022-07-21T07:20:37Z</time>
      </trkpt>
      <trkpt lat="47.2799350" lon="6.8795630">
        <ele>817.5</ele>
        <time>2022-07-21T07:20:38Z</time>
      </trkpt>
      <trkpt lat="47.2799310" lon="6.8796040">
        <ele>817.7</ele>
        <time>2022-07-21T07:20:39Z</time>
      </trkpt>
      <trkpt lat="47.2799300" lon="6.8796520">
        <ele>818.0</ele>
        <time>2022-07-21T07:20:41Z</time>
      </trkpt>
      <trkpt lat="47.2799300" lon="6.8796670">
        <ele>818.1</ele>
        <time>2022-07-21T07:20:42Z</time>
      </trkpt>
      <trkpt lat="47.2799290" lon="6.8796870">
        <ele>818.2</ele>
        <time>2022-07-21T07:20:43Z</time>
      </trkpt>
      <trkpt lat="47.2799280" lon="6.8797180">
        <ele>818.4</ele>
        <time>2022-07-21T07:20:44Z</time>
      </trkpt>
      <trkpt lat="47.2799260" lon="6.8797420">
        <ele>818.5</ele>
        <time>2022-07-21T07:20:45Z</time>
      </trkpt>
      <trkpt lat="47.2799260" lon="6.8797600">
        <ele>818.6</ele>
        <time>2022-07-21T07:20:46Z</time>
      </trkpt>
      <trkpt lat="47.2799260" lon="6.8797670">
        <ele>818.6</ele>
        <time>2022-07-21T07:20:47Z</time>
      </trkpt>
      <trkpt lat="47.2799260" lon="6.8797790">
        <ele>818.7</ele>
        <time>2022-07-21T07:20:49Z</time>
      </trkpt>
      <trkpt lat="47.2799250" lon="6.8798050">
        <ele>818.8</ele>
        <time>2022-07-21T07:20:50Z</time>
      </trkpt>
      <trkpt lat="47.2799240" lon="6.8798320">
        <ele>818.9</ele>
        <time>2022-07-21T07:20:51Z</time>
      </trkpt>
      <trkpt lat="47.2799220" lon="6.8798520">
        <ele>819.0</ele>
        <time>2022-07-21T07:20:52Z</time>
      </trkpt>
      <trkpt lat="47.2799150" lon="6.8798910">
        <ele>819.2</ele>
        <time>2022-07-21T07:20:53Z</time>
      </trkpt>
      <trkpt lat="47.2799120" lon="6.8799070">
        <ele>819.3</ele>
        <time>2022-07-21T07:20:54Z</time>
      </trkpt>
      <trkpt lat="47.2799150" lon="6.8799480">
        <ele>819.4</ele>
        <time>2022-07-21T07:20:56Z</time>
      </trkpt>
      <trkpt lat="47.2799150" lon="6.8799600">
        <ele>819.5</ele>
        <time>2022-07-21T07:20:57Z</time>
      </trkpt>
      <trkpt lat="47.2799070" lon="6.8799900">
        <ele>819.6</ele>
        <time>2022-07-21T07:20:58Z</time>
      </trkpt>
      <trkpt lat="47.2799060" lon="6.8800020">
        <ele>819.6</ele>
        <time>2022-07-21T07:20:59Z</time>
      </trkpt>
      <trkpt lat="47.2799050" lon="6.8800140">
        <ele>819.7</ele>
        <time>2022-07-21T07:21:00Z</time>
      </trkpt>
      <trkpt lat="47.2799030" lon="6.8800630">
        <ele>819.9</ele>
        <time>2022-07-21T07:21:02Z</time>
      </trkpt>
      <trkpt lat="47.2799040" lon="6.8800780">
        <ele>819.9</ele>
        <time>2022-07-21T07:21:03Z</time>
      </trkpt>
      <trkpt lat="47.2799040" lon="6.8801280">
        <ele>820.1</ele>
        <time>2022-07-21T07:21:04Z</time>
      </trkpt>
      <trkpt lat="47.2799030" lon="6.8801480">
        <ele>820.1</ele>
        <time>2022-07-21T07:21:05Z</time>
      </trkpt>
      <trkpt lat="47.2799030" lon="6.8801850">
        <ele>820.2</ele>
        <time>2022-07-21T07:21:06Z</time>
      </trkpt>
      <trkpt lat="47.2799040" lon="6.8802070">
        <ele>820.3</ele>
        <time>2022-07-21T07:21:08Z</time>
      </trkpt>
      <trkpt lat="47.2799050" lon="6.8802280">
        <ele>820.4</ele>
        <time>2022-07-21T07:21:09Z</time>
      </trkpt>
      <trkpt lat="47.2799060" lon="6.8802500">
        <ele>820.4</ele>
        <time>2022-07-21T07:21:10Z</time>
      </trkpt>
      <trkpt lat="47.2799120" lon="6.8803000">
        <ele>820.6</ele>
        <time>2022-07-21T07:21:12Z</time>
      </trkpt>
      <trkpt lat="47.2799160" lon="6.8803160">
        <ele>820.6</ele>
        <time>2022-07-21T07:21:13Z</time>
      </trkpt>
      <trkpt lat="47.2799230" lon="6.8803590">
        <ele>820.7</ele>
        <time>2022-07-21T07:21:14Z</time>
      </trkpt>
      <trkpt lat="47.2799250" lon="6.8803720">
        <ele>820.8</ele>
        <time>2022-07-21T07:21:15Z</time>
      </trkpt>
      <trkpt lat="47.2799260" lon="6.8804230">
        <ele>820.9</ele>
        <time>2022-07-21T07:21:16Z</time>
      </trkpt>
      <trkpt lat="47.2799260" lon="6.8804370">
        <ele>821.0</ele>
        <time>2022-07-21T07:21:17Z</time>
      </trkpt>
      <trkpt lat="47.2799260" lon="6.8804860">
        <ele>821.1</ele>
        <time>2022-07-21T07:21:18Z</time>
      </trkpt>
      <trkpt lat="47.2799260" lon="6.8805060">
        <ele>821.2</ele>
        <time>2022-07-21T07:21:19Z</time>
      </trkpt>
      <trkpt lat="47.2799270" lon="6.8805540">
        <ele>821.3</ele>
        <time>2022-07-21T07:21:20Z</time>
      </trkpt>
      <trkpt lat="47.2799280" lon="6.8805690">
        <ele>821.3</ele>
        <time>2022-07-21T07:21:21Z</time>
      </trkpt>
      <trkpt lat="47.2799290" lon="6.8806270">
        <ele>821.5</ele>
        <time>2022-07-21T07:21:23Z</time>
      </trkpt>
      <trkpt lat="47.2799260" lon="6.8806500">
        <ele>821.5</ele>
        <time>2022-07-21T07:21:24Z</time>
      </trkpt>
      <trkpt lat="47.2799250" lon="6.8807110">
        <ele>821.7</ele>
        <time>2022-07-21T07:21:25Z</time>
      </trkpt>
      <trkpt lat="47.2799260" lon="6.8807400">
        <ele>821.8</ele>
        <time>2022-07-21T07:21:26Z</time>
      </trkpt>
      <trkpt lat="47.2799280" lon="6.8807870">
        <ele>821.9</ele>
        <time>2022-07-21T07:21:27Z</time>
      </trkpt>
      <trkpt lat="47.2799280" lon="6.8808040">
        <ele>821.9</ele>
        <time>2022-07-21T07:21:28Z</time>
      </trkpt>
      <trkpt lat="47.2799160" lon="6.8808710">
        <ele>822.1</ele>
        <time>2022-07-21T07:21:30Z</time>
      </trkpt>
      <trkpt lat="47.2799100" lon="6.8809040">
        <ele>822.2</ele>
        <time>2022-07-21T07:21:32Z</time>
      </trkpt>
      <trkpt lat="47.2799120" lon="6.8809620">
        <ele>822.4</ele>
        <time>2022-07-21T07:21:34Z</time>
      </trkpt>
      <trkpt lat="47.2799120" lon="6.8809850">
        <ele>822.4</ele>
        <time>2022-07-21T07:21:35Z</time>
      </trkpt>
      <trkpt lat="47.2799110" lon="6.8810030">
        <ele>822.5</ele>
        <time>2022-07-21T07:21:36Z</time>
      </trkpt>
      <trkpt lat="47.2799040" lon="6.8810480">
        <ele>822.6</ele>
        <time>2022-07-21T07:21:37Z</time>
      </trkpt>
      <trkpt lat="47.2799040" lon="6.8810690">
        <ele>822.6</ele>
        <time>2022-07-21T07:21:38Z</time>
      </trkpt>
      <trkpt lat="47.2799120" lon="6.8811150">
        <ele>822.7</ele>
        <time>2022-07-21T07:21:40Z</time>
      </trkpt>
      <trkpt lat="47.2799270" lon="6.8811550">
        <ele>822.8</ele>
        <time>2022-07-21T07:21:41Z</time>
      </trkpt>
      <trkpt lat="47.2799300" lon="6.8811700">
        <ele>822.8</ele>
        <time>2022-07-21T07:21:42Z</time>
      </trkpt>
      <trkpt lat="47.2799360" lon="6.8812270">
        <ele>822.9</ele>
        <time>2022-07-21T07:21:44Z</time>
      </trkpt>
      <trkpt lat="47.2799410" lon="6.8812670">
        <ele>823.0</ele>
        <time>2022-07-21T07:21:45Z</time>
      </trkpt>
      <trkpt lat="47.2799450" lon="6.8813100">
        <ele>823.0</ele>
        <time>2022-07-21T07:21:46Z</time>
      </trkpt>
      <trkpt lat="47.2799510" lon="6.8813500">
        <ele>823.1</ele>
        <time>2022-07-21T07:21:47Z</time>
      </trkpt>
      <trkpt lat="47.2799630" lon="6.8813950">
        <ele>823.2</ele>
        <time>2022-07-21T07:21:48Z</time>
      </trkpt>
      <trkpt lat="47.2799710" lon="6.8814450">
        <ele>823.2</ele>
        <time>2022-07-21T07:21:50Z</time>
      </trkpt>
      <trkpt lat="47.2799730" lon="6.8814840">
        <ele>823.3</ele>
        <time>2022-07-21T07:21:51Z</time>
      </trkpt>
      <trkpt lat="47.2799750" lon="6.8815350">
        <ele>823.4</ele>
        <time>2022-07-21T07:21:52Z</time>
      </trkpt>
      <trkpt lat="47.2799750" lon="6.8815830">
        <ele>823.4</ele>
        <time>2022-07-21T07:21:53Z</time>
      </trkpt>
      <trkpt lat="47.2799750" lon="6.8816140">
        <ele>823.5</ele>
        <time>2022-07-21T07:21:54Z</time>
      </trkpt>
      <trkpt lat="47.2799800" lon="6.8816770">
        <ele>823.5</ele>
        <time>2022-07-21T07:21:56Z</time>
      </trkpt>
      <trkpt lat="47.2799840" lon="6.8817350">
        <ele>823.6</ele>
        <time>2022-07-21T07:21:57Z</time>
      </trkpt>
      <trkpt lat="47.2799840" lon="6.8817580">
        <ele>823.6</ele>
        <time>2022-07-21T07:21:58Z</time>
      </trkpt>
      <trkpt lat="47.2799820" lon="6.8818080">
        <ele>823.7</ele>
        <time>2022-07-21T07:22:00Z</time>
      </trkpt>
      <trkpt lat="47.2799880" lon="6.8818600">
        <ele>823.7</ele>
        <time>2022-07-21T07:22:01Z</time>
      </trkpt>
      <trkpt lat="47.2799950" lon="6.8819060">
        <ele>823.8</ele>
        <time>2022-07-21T07:22:02Z</time>
      </trkpt>
      <trkpt lat="47.2800010" lon="6.8819460">
        <ele>823.8</ele>
        <time>2022-07-21T07:22:03Z</time>
      </trkpt>
      <trkpt lat="47.2800090" lon="6.8820030">
        <ele>823.9</ele>
        <time>2022-07-21T07:22:04Z</time>
      </trkpt>
      <trkpt lat="47.2800140" lon="6.8820580">
        <ele>823.9</ele>
        <time>2022-07-21T07:22:05Z</time>
      </trkpt>
      <trkpt lat="47.2800150" lon="6.8820750">
        <ele>823.9</ele>
        <time>2022-07-21T07:22:06Z</time>
      </trkpt>
      <trkpt lat="47.2800170" lon="6.8821220">
        <ele>823.9</ele>
        <time>2022-07-21T07:22:08Z</time>
      </trkpt>
      <trkpt lat="47.2800200" lon="6.8821650">
        <ele>824.0</ele>
        <time>2022-07-21T07:22:09Z</time>
      </trkpt>
      <trkpt lat="47.2800270" lon="6.8822160">
        <ele>824.0</ele>
        <time>2022-07-21T07:22:10Z</time>
      </trkpt>
      <trkpt lat="47.2800320" lon="6.8822560">
        <ele>824.1</ele>
        <time>2022-07-21T07:22:11Z</time>
      </trkpt>
      <trkpt lat="47.2800380" lon="6.8822960">
        <ele>824.1</ele>
        <time>2022-07-21T07:22:12Z</time>
      </trkpt>
      <trkpt lat="47.2800420" lon="6.8823370">
        <ele>824.1</ele>
        <time>2022-07-21T07:22:13Z</time>
      </trkpt>
      <trkpt lat="47.2800480" lon="6.8824050">
        <ele>824.2</ele>
        <time>2022-07-21T07:22:14Z</time>
      </trkpt>
      <trkpt lat="47.2800460" lon="6.8824470">
        <ele>824.3</ele>
        <time>2022-07-21T07:22:16Z</time>
      </trkpt>
      <trkpt lat="47.2800430" lon="6.8824940">
        <ele>824.4</ele>
        <time>2022-07-21T07:22:17Z</time>
      </trkpt>
      <trkpt lat="47.2800360" lon="6.8825490">
        <ele>824.4</ele>
        <time>2022-07-21T07:22:18Z</time>
      </trkpt>
      <trkpt lat="47.2800340" lon="6.8825690">
        <ele>824.5</ele>
        <time>2022-07-21T07:22:19Z</time>
      </trkpt>
      <trkpt lat="47.2800260" lon="6.8826080">
        <ele>824.5</ele>
        <time>2022-07-21T07:22:20Z</time>
      </trkpt>
      <trkpt lat="47.2800220" lon="6.8826460">
        <ele>824.6</ele>
        <time>2022-07-21T07:22:21Z</time>
      </trkpt>
      <trkpt lat="47.2800190" lon="6.8827000">
        <ele>824.7</ele>
        <time>2022-07-21T07:22:23Z</time>
      </trkpt>
      <trkpt lat="47.2800130" lon="6.8827460">
        <ele>824.8</ele>
        <time>2022-07-21T07:22:24Z</time>
      </trkpt>
      <trkpt lat="47.2800060" lon="6.8828210">
        <ele>825.0</ele>
        <time>2022-07-21T07:22:25Z</time>
      </trkpt>
      <trkpt lat="47.2800030" lon="6.8828620">
        <ele>825.1</ele>
        <time>2022-07-21T07:22:26Z</time>
      </trkpt>
      <trkpt lat="47.2799950" lon="6.8829290">
        <ele>825.2</ele>
        <time>2022-07-21T07:22:28Z</time>
      </trkpt>
      <trkpt lat="47.2799850" lon="6.8829770">
        <ele>825.3</ele>
        <time>2022-07-21T07:22:29Z</time>
      </trkpt>
      <trkpt lat="47.2799830" lon="6.8829930">
        <ele>825.3</ele>
        <time>2022-07-21T07:22:30Z</time>
      </trkpt>
      <trkpt lat="47.2799820" lon="6.8830420">
        <ele>825.4</ele>
        <time>2022-07-21T07:22:31Z</time>
      </trkpt>
      <trkpt lat="47.2799820" lon="6.8830610">
        <ele>825.4</ele>
        <time>2022-07-21T07:22:32Z</time>
      </trkpt>
      <trkpt lat="47.2799780" lon="6.8831040">
        <ele>825.5</ele>
        <time>2022-07-21T07:22:33Z</time>
      </trkpt>
      <trkpt lat="47.2799750" lon="6.8831450">
        <ele>825.5</ele>
        <time>2022-07-21T07:22:34Z</time>
      </trkpt>
      <trkpt lat="47.2799690" lon="6.8831920">
        <ele>825.4</ele>
        <time>2022-07-21T07:22:35Z</time>
      </trkpt>
      <trkpt lat="47.2799570" lon="6.8832470">
        <ele>825.4</ele>
        <time>2022-07-21T07:22:37Z</time>
      </trkpt>
      <trkpt lat="47.2799520" lon="6.8832670">
        <ele>825.4</ele>
        <time>2022-07-21T07:22:38Z</time>
      </trkpt>
      <trkpt lat="47.2799420" lon="6.8833130">
        <ele>825.4</ele>
        <time>2022-07-21T07:22:39Z</time>
      </trkpt>
      <trkpt lat="47.2799360" lon="6.8833590">
        <ele>825.4</ele>
        <time>2022-07-21T07:22:40Z</time>
      </trkpt>
      <trkpt lat="47.2799340" lon="6.8833770">
        <ele>825.5</ele>
        <time>2022-07-21T07:22:41Z</time>
      </trkpt>
      <trkpt lat="47.2799280" lon="6.8834290">
        <ele>825.5</ele>
        <time>2022-07-21T07:22:42Z</time>
      </trkpt>
      <trkpt lat="47.2799260" lon="6.8834440">
        <ele>825.5</ele>
        <time>2022-07-21T07:22:43Z</time>
      </trkpt>
      <trkpt lat="47.2799130" lon="6.8835010">
        <ele>825.7</ele>
        <time>2022-07-21T07:22:44Z</time>
      </trkpt>
      <trkpt lat="47.2799090" lon="6.8835230">
        <ele>825.7</ele>
        <time>2022-07-21T07:22:45Z</time>
      </trkpt>
      <trkpt lat="47.2798980" lon="6.8835880">
        <ele>825.9</ele>
        <time>2022-07-21T07:22:47Z</time>
      </trkpt>
      <trkpt lat="47.2798940" lon="6.8836110">
        <ele>825.9</ele>
        <time>2022-07-21T07:22:48Z</time>
      </trkpt>
      <trkpt lat="47.2798900" lon="6.8836330">
        <ele>826.0</ele>
        <time>2022-07-21T07:22:49Z</time>
      </trkpt>
      <trkpt lat="47.2798840" lon="6.8836600">
        <ele>826.1</ele>
        <time>2022-07-21T07:22:50Z</time>
      </trkpt>
      <trkpt lat="47.2798680" lon="6.8837010">
        <ele>826.3</ele>
        <time>2022-07-21T07:22:52Z</time>
      </trkpt>
      <trkpt lat="47.2798470" lon="6.8837460">
        <ele>826.5</ele>
        <time>2022-07-21T07:22:53Z</time>
      </trkpt>
      <trkpt lat="47.2798420" lon="6.8837580">
        <ele>826.5</ele>
        <time>2022-07-21T07:22:54Z</time>
      </trkpt>
      <trkpt lat="47.2798280" lon="6.8837940">
        <ele>826.7</ele>
        <time>2022-07-21T07:22:55Z</time>
      </trkpt>
      <trkpt lat="47.2798230" lon="6.8838040">
        <ele>826.8</ele>
        <time>2022-07-21T07:22:56Z</time>
      </trkpt>
      <trkpt lat="47.2798160" lon="6.8838290">
        <ele>826.9</ele>
        <time>2022-07-21T07:22:57Z</time>
      </trkpt>
      <trkpt lat="47.2798110" lon="6.8838440">
        <ele>827.0</ele>
        <time>2022-07-21T07:22:58Z</time>
      </trkpt>
      <trkpt lat="47.2798050" lon="6.8838650">
        <ele>827.1</ele>
        <time>2022-07-21T07:22:59Z</time>
      </trkpt>
      <trkpt lat="47.2797970" lon="6.8839030">
        <ele>827.3</ele>
        <time>2022-07-21T07:23:01Z</time>
      </trkpt>
      <trkpt lat="47.2797930" lon="6.8839220">
        <ele>827.4</ele>
        <time>2022-07-21T07:23:02Z</time>
      </trkpt>
      <trkpt lat="47.2797880" lon="6.8839400">
        <ele>827.5</ele>
        <time>2022-07-21T07:23:03Z</time>
      </trkpt>
      <trkpt lat="47.2797830" lon="6.8839590">
        <ele>827.6</ele>
        <time>2022-07-21T07:23:04Z</time>
      </trkpt>
      <trkpt lat="47.2797730" lon="6.8839780">
        <ele>827.7</ele>
        <time>2022-07-21T07:23:05Z</time>
      </trkpt>
      <trkpt lat="47.2797570" lon="6.8840170">
        <ele>828.0</ele>
        <time>2022-07-21T07:23:06Z</time>
      </trkpt>
      <trkpt lat="47.2797520" lon="6.8840260">
        <ele>828.1</ele>
        <time>2022-07-21T07:23:07Z</time>
      </trkpt>
      <trkpt lat="47.2797440" lon="6.8840470">
        <ele>828.2</ele>
        <time>2022-07-21T07:23:08Z</time>
      </trkpt>
      <trkpt lat="47.2797330" lon="6.8840740">
        <ele>828.4</ele>
        <time>2022-07-21T07:23:10Z</time>
      </trkpt>
      <trkpt lat="47.2797210" lon="6.8841140">
        <ele>828.6</ele>
        <time>2022-07-21T07:23:11Z</time>
      </trkpt>
      <trkpt lat="47.2797160" lon="6.8841310">
        <ele>828.7</ele>
        <time>2022-07-21T07:23:12Z</time>
      </trkpt>
      <trkpt lat="47.2797000" lon="6.8841730">
        <ele>829.0</ele>
        <time>2022-07-21T07:23:14Z</time>
      </trkpt>
      <trkpt lat="47.2796950" lon="6.8841860">
        <ele>829.1</ele>
        <time>2022-07-21T07:23:15Z</time>
      </trkpt>
      <trkpt lat="47.2796850" lon="6.8842100">
        <ele>829.2</ele>
        <time>2022-07-21T07:23:17Z</time>
      </trkpt>
      <trkpt lat="47.2796770" lon="6.8842280">
        <ele>829.3</ele>
        <time>2022-07-21T07:23:18Z</time>
      </trkpt>
      <trkpt lat="47.2796710" lon="6.8842540">
        <ele>829.5</ele>
        <time>2022-07-21T07:23:19Z</time>
      </trkpt>
      <trkpt lat="47.2796700" lon="6.8842680">
        <ele>829.6</ele>
        <time>2022-07-21T07:23:20Z</time>
      </trkpt>
      <trkpt lat="47.2796690" lon="6.8842830">
        <ele>829.7</ele>
        <time>2022-07-21T07:23:21Z</time>
      </trkpt>
      <trkpt lat="47.2796640" lon="6.8843000">
        <ele>829.8</ele>
        <time>2022-07-21T07:23:22Z</time>
      </trkpt>
      <trkpt lat="47.2796560" lon="6.8843210">
        <ele>829.9</ele>
        <time>2022-07-21T07:23:23Z</time>
      </trkpt>
      <trkpt lat="47.2796520" lon="6.8843320">
        <ele>830.0</ele>
        <time>2022-07-21T07:23:24Z</time>
      </trkpt>
      <trkpt lat="47.2796490" lon="6.8843390">
        <ele>830.0</ele>
        <time>2022-07-21T07:23:25Z</time>
      </trkpt>
      <trkpt lat="47.2796470" lon="6.8843410">
        <ele>830.1</ele>
        <time>2022-07-21T07:23:26Z</time>
      </trkpt>
      <trkpt lat="47.2796460" lon="6.8843420">
        <ele>830.1</ele>
        <time>2022-07-21T07:23:27Z</time>
      </trkpt>
      <trkpt lat="47.2796440" lon="6.8843440">
        <ele>830.1</ele>
        <time>2022-07-21T07:23:28Z</time>
      </trkpt>
      <trkpt lat="47.2796440" lon="6.8843460">
        <ele>830.1</ele>
        <time>2022-07-21T07:23:29Z</time>
      </trkpt>
      <trkpt lat="47.2796440" lon="6.8843480">
        <ele>830.1</ele>
        <time>2022-07-21T07:23:30Z</time>
      </trkpt>
      <trkpt lat="47.2796440" lon="6.8843510">
        <ele>830.1</ele>
        <time>2022-07-21T07:23:31Z</time>
      </trkpt>
      <trkpt lat="47.2796440" lon="6.8843550">
        <ele>830.2</ele>
        <time>2022-07-21T07:23:33Z</time>
      </trkpt>
      <trkpt lat="47.2796440" lon="6.8843610">
        <ele>830.2</ele>
        <time>2022-07-21T07:23:34Z</time>
      </trkpt>
      <trkpt lat="47.2796360" lon="6.8844170">
        <ele>830.5</ele>
        <time>2022-07-21T07:23:39Z</time>
      </trkpt>
      <trkpt lat="47.2796300" lon="6.8844370">
        <ele>830.7</ele>
        <time>2022-07-21T07:23:40Z</time>
      </trkpt>
      <trkpt lat="47.2796220" lon="6.8844610">
        <ele>830.8</ele>
        <time>2022-07-21T07:23:41Z</time>
      </trkpt>
      <trkpt lat="47.2796150" lon="6.8844740">
        <ele>830.9</ele>
        <time>2022-07-21T07:23:42Z</time>
      </trkpt>
      <trkpt lat="47.2796040" lon="6.8844930">
        <ele>831.1</ele>
        <time>2022-07-21T07:23:43Z</time>
      </trkpt>
      <trkpt lat="47.2795940" lon="6.8845110">
        <ele>831.2</ele>
        <time>2022-07-21T07:23:45Z</time>
      </trkpt>
      <trkpt lat="47.2795830" lon="6.8845320">
        <ele>831.4</ele>
        <time>2022-07-21T07:23:47Z</time>
      </trkpt>
      <trkpt lat="47.2795720" lon="6.8845510">
        <ele>831.6</ele>
        <time>2022-07-21T07:23:48Z</time>
      </trkpt>
      <trkpt lat="47.2795660" lon="6.8845630">
        <ele>831.7</ele>
        <time>2022-07-21T07:23:49Z</time>
      </trkpt>
      <trkpt lat="47.2795490" lon="6.8845990">
        <ele>831.9</ele>
        <time>2022-07-21T07:23:51Z</time>
      </trkpt>
      <trkpt lat="47.2795300" lon="6.8846230">
        <ele>832.2</ele>
        <time>2022-07-21T07:23:53Z</time>
      </trkpt>
      <trkpt lat="47.2795240" lon="6.8846350">
        <ele>832.3</ele>
        <time>2022-07-21T07:23:54Z</time>
      </trkpt>
      <trkpt lat="47.2795180" lon="6.8846500">
        <ele>832.4</ele>
        <time>2022-07-21T07:23:55Z</time>
      </trkpt>
      <trkpt lat="47.2795060" lon="6.8846810">
        <ele>832.6</ele>
        <time>2022-07-21T07:23:56Z</time>
      </trkpt>
      <trkpt lat="47.2794890" lon="6.8847230">
        <ele>832.9</ele>
        <time>2022-07-21T07:23:58Z</time>
      </trkpt>
      <trkpt lat="47.2794840" lon="6.8847370">
        <ele>832.9</ele>
        <time>2022-07-21T07:23:59Z</time>
      </trkpt>
      <trkpt lat="47.2794720" lon="6.8847750">
        <ele>833.2</ele>
        <time>2022-07-21T07:24:00Z</time>
      </trkpt>
      <trkpt lat="47.2794670" lon="6.8847940">
        <ele>833.3</ele>
        <time>2022-07-21T07:24:01Z</time>
      </trkpt>
      <trkpt lat="47.2794510" lon="6.8848380">
        <ele>833.5</ele>
        <time>2022-07-21T07:24:02Z</time>
      </trkpt>
      <trkpt lat="47.2794450" lon="6.8848530">
        <ele>833.6</ele>
        <time>2022-07-21T07:24:03Z</time>
      </trkpt>
      <trkpt lat="47.2794320" lon="6.8848910">
        <ele>833.8</ele>
        <time>2022-07-21T07:24:04Z</time>
      </trkpt>
      <trkpt lat="47.2794250" lon="6.8849100">
        <ele>833.9</ele>
        <time>2022-07-21T07:24:06Z</time>
      </trkpt>
      <trkpt lat="47.2794190" lon="6.8849290">
        <ele>834.0</ele>
        <time>2022-07-21T07:24:07Z</time>
      </trkpt>
      <trkpt lat="47.2794130" lon="6.8849470">
        <ele>834.1</ele>
        <time>2022-07-21T07:24:08Z</time>
      </trkpt>
      <trkpt lat="47.2794020" lon="6.8849900">
        <ele>834.3</ele>
        <time>2022-07-21T07:24:09Z</time>
      </trkpt>
      <trkpt lat="47.2793990" lon="6.8850050">
        <ele>834.3</ele>
        <time>2022-07-21T07:24:10Z</time>
      </trkpt>
      <trkpt lat="47.2793910" lon="6.8850540">
        <ele>834.5</ele>
        <time>2022-07-21T07:24:11Z</time>
      </trkpt>
      <trkpt lat="47.2793890" lon="6.8850710">
        <ele>834.5</ele>
        <time>2022-07-21T07:24:12Z</time>
      </trkpt>
      <trkpt lat="47.2793840" lon="6.8851150">
        <ele>834.7</ele>
        <time>2022-07-21T07:24:13Z</time>
      </trkpt>
      <trkpt lat="47.2793830" lon="6.8851270">
        <ele>834.7</ele>
        <time>2022-07-21T07:24:14Z</time>
      </trkpt>
      <trkpt lat="47.2793740" lon="6.8851840">
        <ele>834.9</ele>
        <time>2022-07-21T07:24:15Z</time>
      </trkpt>
      <trkpt lat="47.2793710" lon="6.8852080">
        <ele>834.9</ele>
        <time>2022-07-21T07:24:16Z</time>
      </trkpt>
      <trkpt lat="47.2793630" lon="6.8852690">
        <ele>835.1</ele>
        <time>2022-07-21T07:24:18Z</time>
      </trkpt>
      <trkpt lat="47.2793610" lon="6.8852890">
        <ele>835.1</ele>
        <time>2022-07-21T07:24:19Z</time>
      </trkpt>
      <trkpt lat="47.2793580" lon="6.8853090">
        <ele>835.2</ele>
        <time>2022-07-21T07:24:20Z</time>
      </trkpt>
      <trkpt lat="47.2793520" lon="6.8853520">
        <ele>835.3</ele>
        <time>2022-07-21T07:24:21Z</time>
      </trkpt>
      <trkpt lat="47.2793500" lon="6.8853680">
        <ele>835.4</ele>
        <time>2022-07-21T07:24:22Z</time>
      </trkpt>
      <trkpt lat="47.2793450" lon="6.8853840">
        <ele>835.4</ele>
        <time>2022-07-21T07:24:23Z</time>
      </trkpt>
      <trkpt lat="47.2793380" lon="6.8854090">
        <ele>835.5</ele>
        <time>2022-07-21T07:24:25Z</time>
      </trkpt>
      <trkpt lat="47.2793320" lon="6.8854270">
        <ele>835.6</ele>
        <time>2022-07-21T07:24:26Z</time>
      </trkpt>
      <trkpt lat="47.2793230" lon="6.8854520">
        <ele>835.7</ele>
        <time>2022-07-21T07:24:27Z</time>
      </trkpt>
      <trkpt lat="47.2793150" lon="6.8854720">
        <ele>835.8</ele>
        <time>2022-07-21T07:24:29Z</time>
      </trkpt>
      <trkpt lat="47.2793060" lon="6.8854950">
        <ele>835.9</ele>
        <time>2022-07-21T07:24:30Z</time>
      </trkpt>
      <trkpt lat="47.2792880" lon="6.8855350">
        <ele>836.1</ele>
        <time>2022-07-21T07:24:31Z</time>
      </trkpt>
      <trkpt lat="47.2792810" lon="6.8855520">
        <ele>836.1</ele>
        <time>2022-07-21T07:24:32Z</time>
      </trkpt>
      <trkpt lat="47.2792670" lon="6.8855810">
        <ele>836.3</ele>
        <time>2022-07-21T07:24:33Z</time>
      </trkpt>
      <trkpt lat="47.2792500" lon="6.8856130">
        <ele>836.4</ele>
        <time>2022-07-21T07:24:35Z</time>
      </trkpt>
      <trkpt lat="47.2792280" lon="6.8856530">
        <ele>836.7</ele>
        <time>2022-07-21T07:24:36Z</time>
      </trkpt>
      <trkpt lat="47.2792200" lon="6.8856680">
        <ele>836.7</ele>
        <time>2022-07-21T07:24:37Z</time>
      </trkpt>
      <trkpt lat="47.2791970" lon="6.8857200">
        <ele>837.0</ele>
        <time>2022-07-21T07:24:39Z</time>
      </trkpt>
      <trkpt lat="47.2791900" lon="6.8857390">
        <ele>837.1</ele>
        <time>2022-07-21T07:24:40Z</time>
      </trkpt>
      <trkpt lat="47.2791820" lon="6.8857570">
        <ele>837.2</ele>
        <time>2022-07-21T07:24:41Z</time>
      </trkpt>
      <trkpt lat="47.2791650" lon="6.8857940">
        <ele>837.4</ele>
        <time>2022-07-21T07:24:42Z</time>
      </trkpt>
      <trkpt lat="47.2791600" lon="6.8858060">
        <ele>837.5</ele>
        <time>2022-07-21T07:24:43Z</time>
      </trkpt>
      <trkpt lat="47.2791460" lon="6.8858400">
        <ele>837.7</ele>
        <time>2022-07-21T07:24:44Z</time>
      </trkpt>
      <trkpt lat="47.2791410" lon="6.8858530">
        <ele>837.7</ele>
        <time>2022-07-21T07:24:45Z</time>
      </trkpt>
      <trkpt lat="47.2791250" lon="6.8858870">
        <ele>837.9</ele>
        <time>2022-07-21T07:24:46Z</time>
      </trkpt>
      <trkpt lat="47.2791180" lon="6.8859010">
        <ele>838.0</ele>
        <time>2022-07-21T07:24:47Z</time>
      </trkpt>
      <trkpt lat="47.2791110" lon="6.8859150">
        <ele>838.1</ele>
        <time>2022-07-21T07:24:48Z</time>
      </trkpt>
      <trkpt lat="47.2790960" lon="6.8859510">
        <ele>838.3</ele>
        <time>2022-07-21T07:24:49Z</time>
      </trkpt>
      <trkpt lat="47.2790910" lon="6.8859620">
        <ele>838.4</ele>
        <time>2022-07-21T07:24:50Z</time>
      </trkpt>
      <trkpt lat="47.2790780" lon="6.8859920">
        <ele>838.6</ele>
        <time>2022-07-21T07:24:52Z</time>
      </trkpt>
      <trkpt lat="47.2790750" lon="6.8860000">
        <ele>838.7</ele>
        <time>2022-07-21T07:24:53Z</time>
      </trkpt>
      <trkpt lat="47.2790710" lon="6.8860080">
        <ele>838.7</ele>
        <time>2022-07-21T07:24:54Z</time>
      </trkpt>
      <trkpt lat="47.2790600" lon="6.8860370">
        <ele>838.9</ele>
        <time>2022-07-21T07:24:55Z</time>
      </trkpt>
      <trkpt lat="47.2790560" lon="6.8860490">
        <ele>839.0</ele>
        <time>2022-07-21T07:24:57Z</time>
      </trkpt>
      <trkpt lat="47.2790520" lon="6.8860600">
        <ele>839.1</ele>
        <time>2022-07-21T07:24:58Z</time>
      </trkpt>
      <trkpt lat="47.2790480" lon="6.8860740">
        <ele>839.2</ele>
        <time>2022-07-21T07:24:59Z</time>
      </trkpt>
      <trkpt lat="47.2790430" lon="6.8860910">
        <ele>839.3</ele>
        <time>2022-07-21T07:25:00Z</time>
      </trkpt>
      <trkpt lat="47.2790390" lon="6.8861070">
        <ele>839.4</ele>
        <time>2022-07-21T07:25:01Z</time>
      </trkpt>
      <trkpt lat="47.2790340" lon="6.8861260">
        <ele>839.5</ele>
        <time>2022-07-21T07:25:02Z</time>
      </trkpt>
      <trkpt lat="47.2790280" lon="6.8861490">
        <ele>839.7</ele>
        <time>2022-07-21T07:25:03Z</time>
      </trkpt>
      <trkpt lat="47.2790220" lon="6.8861720">
        <ele>839.8</ele>
        <time>2022-07-21T07:25:04Z</time>
      </trkpt>
      <trkpt lat="47.2790180" lon="6.8861880">
        <ele>839.9</ele>
        <time>2022-07-21T07:25:05Z</time>
      </trkpt>
      <trkpt lat="47.2790130" lon="6.8862070">
        <ele>840.0</ele>
        <time>2022-07-21T07:25:06Z</time>
      </trkpt>
      <trkpt lat="47.2790070" lon="6.8862250">
        <ele>840.1</ele>
        <time>2022-07-21T07:25:07Z</time>
      </trkpt>
      <trkpt lat="47.2790010" lon="6.8862400">
        <ele>840.3</ele>
        <time>2022-07-21T07:25:08Z</time>
      </trkpt>
      <trkpt lat="47.2789900" lon="6.8862620">
        <ele>840.4</ele>
        <time>2022-07-21T07:25:09Z</time>
      </trkpt>
      <trkpt lat="47.2789580" lon="6.8863090">
        <ele>840.8</ele>
        <time>2022-07-21T07:25:11Z</time>
      </trkpt>
      <trkpt lat="47.2789470" lon="6.8863250">
        <ele>840.9</ele>
        <time>2022-07-21T07:25:12Z</time>
      </trkpt>
      <trkpt lat="47.2789360" lon="6.8863410">
        <ele>841.1</ele>
        <time>2022-07-21T07:25:13Z</time>
      </trkpt>
      <trkpt lat="47.2789080" lon="6.8863880">
        <ele>841.4</ele>
        <time>2022-07-21T07:25:15Z</time>
      </trkpt>
      <trkpt lat="47.2789000" lon="6.8864050">
        <ele>841.6</ele>
        <time>2022-07-21T07:25:16Z</time>
      </trkpt>
      <trkpt lat="47.2788910" lon="6.8864220">
        <ele>841.7</ele>
        <time>2022-07-21T07:25:17Z</time>
      </trkpt>
      <trkpt lat="47.2788760" lon="6.8864600">
        <ele>841.9</ele>
        <time>2022-07-21T07:25:18Z</time>
      </trkpt>
      <trkpt lat="47.2788710" lon="6.8864730">
        <ele>842.0</ele>
        <time>2022-07-21T07:25:19Z</time>
      </trkpt>
      <trkpt lat="47.2788580" lon="6.8865080">
        <ele>842.3</ele>
        <time>2022-07-21T07:25:21Z</time>
      </trkpt>
      <trkpt lat="47.2788530" lon="6.8865250">
        <ele>842.4</ele>
        <time>2022-07-21T07:25:22Z</time>
      </trkpt>
      <trkpt lat="47.2788460" lon="6.8865450">
        <ele>842.5</ele>
        <time>2022-07-21T07:25:23Z</time>
      </trkpt>
      <trkpt lat="47.2788330" lon="6.8865800">
        <ele>842.7</ele>
        <time>2022-07-21T07:25:24Z</time>
      </trkpt>
      <trkpt lat="47.2788180" lon="6.8866220">
        <ele>843.0</ele>
        <time>2022-07-21T07:25:26Z</time>
      </trkpt>
      <trkpt lat="47.2788110" lon="6.8866400">
        <ele>843.1</ele>
        <time>2022-07-21T07:25:27Z</time>
      </trkpt>
      <trkpt lat="47.2788020" lon="6.8866640">
        <ele>843.3</ele>
        <time>2022-07-21T07:25:29Z</time>
      </trkpt>
      <trkpt lat="47.2787960" lon="6.8866800">
        <ele>843.4</ele>
        <time>2022-07-21T07:25:30Z</time>
      </trkpt>
      <trkpt lat="47.2787840" lon="6.8867040">
        <ele>843.5</ele>
        <time>2022-07-21T07:25:31Z</time>
      </trkpt>
      <trkpt lat="47.2787710" lon="6.8867250">
        <ele>843.7</ele>
        <time>2022-07-21T07:25:33Z</time>
      </trkpt>
      <trkpt lat="47.2787610" lon="6.8867420">
        <ele>843.8</ele>
        <time>2022-07-21T07:25:34Z</time>
      </trkpt>
      <trkpt lat="47.2787460" lon="6.8867630">
        <ele>843.9</ele>
        <time>2022-07-21T07:25:35Z</time>
      </trkpt>
      <trkpt lat="47.2787240" lon="6.8867950">
        <ele>844.2</ele>
        <time>2022-07-21T07:25:36Z</time>
      </trkpt>
      <trkpt lat="47.2787140" lon="6.8868080">
        <ele>844.3</ele>
        <time>2022-07-21T07:25:37Z</time>
      </trkpt>
      <trkpt lat="47.2787070" lon="6.8868330">
        <ele>844.4</ele>
        <time>2022-07-21T07:25:38Z</time>
      </trkpt>
      <trkpt lat="47.2786980" lon="6.8868520">
        <ele>844.5</ele>
        <time>2022-07-21T07:25:40Z</time>
      </trkpt>
      <trkpt lat="47.2786870" lon="6.8868770">
        <ele>844.6</ele>
        <time>2022-07-21T07:25:41Z</time>
      </trkpt>
      <trkpt lat="47.2786790" lon="6.8869030">
        <ele>844.7</ele>
        <time>2022-07-21T07:25:43Z</time>
      </trkpt>
      <trkpt lat="47.2786710" lon="6.8869480">
        <ele>844.9</ele>
        <time>2022-07-21T07:25:44Z</time>
      </trkpt>
      <trkpt lat="47.2786690" lon="6.8869620">
        <ele>844.9</ele>
        <time>2022-07-21T07:25:45Z</time>
      </trkpt>
      <trkpt lat="47.2786570" lon="6.8870120">
        <ele>845.1</ele>
        <time>2022-07-21T07:25:46Z</time>
      </trkpt>
      <trkpt lat="47.2786530" lon="6.8870280">
        <ele>845.1</ele>
        <time>2022-07-21T07:25:47Z</time>
      </trkpt>
      <trkpt lat="47.2786440" lon="6.8870580">
        <ele>845.2</ele>
        <time>2022-07-21T07:25:48Z</time>
      </trkpt>
      <trkpt lat="47.2786360" lon="6.8870810">
        <ele>845.3</ele>
        <time>2022-07-21T07:25:50Z</time>
      </trkpt>
      <trkpt lat="47.2786260" lon="6.8871230">
        <ele>845.4</ele>
        <time>2022-07-21T07:25:51Z</time>
      </trkpt>
      <trkpt lat="47.2786230" lon="6.8871400">
        <ele>845.5</ele>
        <time>2022-07-21T07:25:52Z</time>
      </trkpt>
      <trkpt lat="47.2786130" lon="6.8871810">
        <ele>845.6</ele>
        <time>2022-07-21T07:25:53Z</time>
      </trkpt>
      <trkpt lat="47.2786090" lon="6.8871940">
        <ele>845.6</ele>
        <time>2022-07-21T07:25:54Z</time>
      </trkpt>
      <trkpt lat="47.2785890" lon="6.8872390">
        <ele>845.8</ele>
        <time>2022-07-21T07:25:55Z</time>
      </trkpt>
      <trkpt lat="47.2785790" lon="6.8872690">
        <ele>845.9</ele>
        <time>2022-07-21T07:25:56Z</time>
      </trkpt>
      <trkpt lat="47.2785620" lon="6.8873020">
        <ele>846.0</ele>
        <time>2022-07-21T07:25:58Z</time>
      </trkpt>
      <trkpt lat="47.2785560" lon="6.8873110">
        <ele>846.1</ele>
        <time>2022-07-21T07:25:59Z</time>
      </trkpt>
      <trkpt lat="47.2785450" lon="6.8873640">
        <ele>846.2</ele>
        <time>2022-07-21T07:26:00Z</time>
      </trkpt>
      <trkpt lat="47.2785420" lon="6.8873800">
        <ele>846.3</ele>
        <time>2022-07-21T07:26:01Z</time>
      </trkpt>
      <trkpt lat="47.2785360" lon="6.8874180">
        <ele>846.4</ele>
        <time>2022-07-21T07:26:03Z</time>
      </trkpt>
      <trkpt lat="47.2785350" lon="6.8874340">
        <ele>846.5</ele>
        <time>2022-07-21T07:26:04Z</time>
      </trkpt>
      <trkpt lat="47.2785340" lon="6.8874740">
        <ele>846.6</ele>
        <time>2022-07-21T07:26:05Z</time>
      </trkpt>
      <trkpt lat="47.2785330" lon="6.8874870">
        <ele>846.7</ele>
        <time>2022-07-21T07:26:06Z</time>
      </trkpt>
      <trkpt lat="47.2785280" lon="6.8875300">
        <ele>846.9</ele>
        <time>2022-07-21T07:26:07Z</time>
      </trkpt>
      <trkpt lat="47.2785260" lon="6.8875430">
        <ele>846.9</ele>
        <time>2022-07-21T07:26:08Z</time>
      </trkpt>
      <trkpt lat="47.2785180" lon="6.8875820">
        <ele>847.1</ele>
        <time>2022-07-21T07:26:09Z</time>
      </trkpt>
      <trkpt lat="47.2785070" lon="6.8876260">
        <ele>847.3</ele>
        <time>2022-07-21T07:26:10Z</time>
      </trkpt>
      <trkpt lat="47.2785030" lon="6.8876480">
        <ele>847.4</ele>
        <time>2022-07-21T07:26:11Z</time>
      </trkpt>
      <trkpt lat="47.2785000" lon="6.8876690">
        <ele>847.5</ele>
        <time>2022-07-21T07:26:12Z</time>
      </trkpt>
      <trkpt lat="47.2784980" lon="6.8876890">
        <ele>847.6</ele>
        <time>2022-07-21T07:26:14Z</time>
      </trkpt>
      <trkpt lat="47.2784960" lon="6.8877060">
        <ele>847.7</ele>
        <time>2022-07-21T07:26:15Z</time>
      </trkpt>
      <trkpt lat="47.2784930" lon="6.8877190">
        <ele>847.8</ele>
        <time>2022-07-21T07:26:16Z</time>
      </trkpt>
      <trkpt lat="47.2784850" lon="6.8877490">
        <ele>847.9</ele>
        <time>2022-07-21T07:26:17Z</time>
      </trkpt>
      <trkpt lat="47.2784810" lon="6.8877630">
        <ele>848.0</ele>
        <time>2022-07-21T07:26:18Z</time>
      </trkpt>
      <trkpt lat="47.2784760" lon="6.8877770">
        <ele>848.1</ele>
        <time>2022-07-21T07:26:19Z</time>
      </trkpt>
      <trkpt lat="47.2784660" lon="6.8878180">
        <ele>848.4</ele>
        <time>2022-07-21T07:26:20Z</time>
      </trkpt>
      <trkpt lat="47.2784620" lon="6.8878380">
        <ele>848.5</ele>
        <time>2022-07-21T07:26:22Z</time>
      </trkpt>
      <trkpt lat="47.2784580" lon="6.8878580">
        <ele>848.6</ele>
        <time>2022-07-21T07:26:23Z</time>
      </trkpt>
      <trkpt lat="47.2784540" lon="6.8878780">
        <ele>848.7</ele>
        <time>2022-07-21T07:26:24Z</time>
      </trkpt>
      <trkpt lat="47.2784480" lon="6.8879050">
        <ele>848.9</ele>
        <time>2022-07-21T07:26:25Z</time>
      </trkpt>
      <trkpt lat="47.2784440" lon="6.8879210">
        <ele>849.0</ele>
        <time>2022-07-21T07:26:26Z</time>
      </trkpt>
      <trkpt lat="47.2784340" lon="6.8879640">
        <ele>849.2</ele>
        <time>2022-07-21T07:26:27Z</time>
      </trkpt>
      <trkpt lat="47.2784310" lon="6.8879810">
        <ele>849.3</ele>
        <time>2022-07-21T07:26:28Z</time>
      </trkpt>
      <trkpt lat="47.2784270" lon="6.8880370">
        <ele>849.6</ele>
        <time>2022-07-21T07:26:29Z</time>
      </trkpt>
      <trkpt lat="47.2784210" lon="6.8880850">
        <ele>849.9</ele>
        <time>2022-07-21T07:26:31Z</time>
      </trkpt>
      <trkpt lat="47.2784190" lon="6.8881010">
        <ele>850.0</ele>
        <time>2022-07-21T07:26:32Z</time>
      </trkpt>
      <trkpt lat="47.2784040" lon="6.8881390">
        <ele>850.2</ele>
        <time>2022-07-21T07:26:33Z</time>
      </trkpt>
      <trkpt lat="47.2783970" lon="6.8881630">
        <ele>850.3</ele>
        <time>2022-07-21T07:26:34Z</time>
      </trkpt>
      <trkpt lat="47.2783900" lon="6.8881880">
        <ele>850.4</ele>
        <time>2022-07-21T07:26:35Z</time>
      </trkpt>
      <trkpt lat="47.2783860" lon="6.8882050">
        <ele>850.4</ele>
        <time>2022-07-21T07:26:36Z</time>
      </trkpt>
      <trkpt lat="47.2783810" lon="6.8882140">
        <ele>850.5</ele>
        <time>2022-07-21T07:26:37Z</time>
      </trkpt>
      <trkpt lat="47.2783760" lon="6.8882220">
        <ele>850.5</ele>
        <time>2022-07-21T07:26:38Z</time>
      </trkpt>
      <trkpt lat="47.2783730" lon="6.8882250">
        <ele>850.6</ele>
        <time>2022-07-21T07:26:39Z</time>
      </trkpt>
      <trkpt lat="47.2783710" lon="6.8882290">
        <ele>850.6</ele>
        <time>2022-07-21T07:26:40Z</time>
      </trkpt>
      <trkpt lat="47.2783680" lon="6.8882330">
        <ele>850.6</ele>
        <time>2022-07-21T07:26:41Z</time>
      </trkpt>
      <trkpt lat="47.2783650" lon="6.8882370">
        <ele>850.6</ele>
        <time>2022-07-21T07:26:42Z</time>
      </trkpt>
      <trkpt lat="47.2783640" lon="6.8882400">
        <ele>850.6</ele>
        <time>2022-07-21T07:26:43Z</time>
      </trkpt>
      <trkpt lat="47.2783610" lon="6.8882430">
        <ele>850.7</ele>
        <time>2022-07-21T07:26:44Z</time>
      </trkpt>
      <trkpt lat="47.2783590" lon="6.8882450">
        <ele>850.7</ele>
        <time>2022-07-21T07:26:45Z</time>
      </trkpt>
      <trkpt lat="47.2783150" lon="6.8882640">
        <ele>850.9</ele>
        <time>2022-07-21T07:26:54Z</time>
      </trkpt>
      <trkpt lat="47.2782960" lon="6.8882680">
        <ele>851.0</ele>
        <time>2022-07-21T07:26:55Z</time>
      </trkpt>
      <trkpt lat="47.2782840" lon="6.8882720">
        <ele>851.1</ele>
        <time>2022-07-21T07:26:56Z</time>
      </trkpt>
      <trkpt lat="47.2782800" lon="6.8882740">
        <ele>851.1</ele>
        <time>2022-07-21T07:26:57Z</time>
      </trkpt>
      <trkpt lat="47.2782790" lon="6.8882750">
        <ele>851.1</ele>
        <time>2022-07-21T07:26:58Z</time>
      </trkpt>
      <trkpt lat="47.2782810" lon="6.8882750">
        <ele>851.1</ele>
        <time>2022-07-21T07:26:59Z</time>
      </trkpt>
      <trkpt lat="47.2782820" lon="6.8882750">
        <ele>851.1</ele>
        <time>2022-07-21T07:27:00Z</time>
      </trkpt>
      <trkpt lat="47.2782830" lon="6.8882750">
        <ele>851.1</ele>
        <time>2022-07-21T07:27:01Z</time>
      </trkpt>
      <trkpt lat="47.2782840" lon="6.8882740">
        <ele>851.1</ele>
        <time>2022-07-21T07:27:02Z</time>
      </trkpt>
      <trkpt lat="47.2782840" lon="6.8882740">
        <ele>851.1</ele>
        <time>2022-07-21T07:27:03Z</time>
      </trkpt>
      <trkpt lat="47.2782840" lon="6.8882740">
        <ele>851.1</ele>
        <time>2022-07-21T07:27:04Z</time>
      </trkpt>
      <trkpt lat="47.2782840" lon="6.8882740">
        <ele>851.1</ele>
        <time>2022-07-21T07:27:05Z</time>
      </trkpt>
      <trkpt lat="47.2782840" lon="6.8882740">
        <ele>851.1</ele>
        <time>2022-07-21T07:27:06Z</time>
      </trkpt>
      <trkpt lat="47.2782840" lon="6.8882740">
        <ele>851.1</ele>
        <time>2022-07-21T07:27:07Z</time>
      </trkpt>
      <trkpt lat="47.2782840" lon="6.8882740">
        <ele>851.1</ele>
        <time>2022-07-21T07:27:08Z</time>
      </trkpt>
      <trkpt lat="47.2782780" lon="6.8883150">
        <ele>851.3</ele>
        <time>2022-07-21T07:27:20Z</time>
      </trkpt>
      <trkpt lat="47.2782780" lon="6.8883340">
        <ele>851.3</ele>
        <time>2022-07-21T07:27:21Z</time>
      </trkpt>
      <trkpt lat="47.2782800" lon="6.8883470">
        <ele>851.4</ele>
        <time>2022-07-21T07:27:22Z</time>
      </trkpt>
      <trkpt lat="47.2782820" lon="6.8883630">
        <ele>851.4</ele>
        <time>2022-07-21T07:27:23Z</time>
      </trkpt>
      <trkpt lat="47.2782830" lon="6.8883870">
        <ele>851.5</ele>
        <time>2022-07-21T07:27:24Z</time>
      </trkpt>
      <trkpt lat="47.2782810" lon="6.8884110">
        <ele>851.5</ele>
        <time>2022-07-21T07:27:25Z</time>
      </trkpt>
      <trkpt lat="47.2782730" lon="6.8884490">
        <ele>851.7</ele>
        <time>2022-07-21T07:27:26Z</time>
      </trkpt>
      <trkpt lat="47.2782690" lon="6.8884630">
        <ele>851.7</ele>
        <time>2022-07-21T07:27:27Z</time>
      </trkpt>
      <trkpt lat="47.2782630" lon="6.8885130">
        <ele>851.8</ele>
        <time>2022-07-21T07:27:28Z</time>
      </trkpt>
      <trkpt lat="47.2782610" lon="6.8885300">
        <ele>851.9</ele>
        <time>2022-07-21T07:27:29Z</time>
      </trkpt>
      <trkpt lat="47.2782550" lon="6.8885840">
        <ele>852.0</ele>
        <time>2022-07-21T07:27:30Z</time>
      </trkpt>
      <trkpt lat="47.2782520" lon="6.8886070">
        <ele>852.1</ele>
        <time>2022-07-21T07:27:31Z</time>
      </trkpt>
      <trkpt lat="47.2782520" lon="6.8886490">
        <ele>852.2</ele>
        <time>2022-07-21T07:27:32Z</time>
      </trkpt>
      <trkpt lat="47.2782510" lon="6.8886610">
        <ele>852.2</ele>
        <time>2022-07-21T07:27:33Z</time>
      </trkpt>
      <trkpt lat="47.2782420" lon="6.8887100">
        <ele>852.3</ele>
        <time>2022-07-21T07:27:34Z</time>
      </trkpt>
      <trkpt lat="47.2782390" lon="6.8887260">
        <ele>852.4</ele>
        <time>2022-07-21T07:27:35Z</time>
      </trkpt>
      <trkpt lat="47.2782260" lon="6.8887730">
        <ele>852.5</ele>
        <time>2022-07-21T07:27:36Z</time>
      </trkpt>
      <trkpt lat="47.2782230" lon="6.8887870">
        <ele>852.6</ele>
        <time>2022-07-21T07:27:37Z</time>
      </trkpt>
      <trkpt lat="47.2782120" lon="6.8888310">
        <ele>852.7</ele>
        <time>2022-07-21T07:27:38Z</time>
      </trkpt>
      <trkpt lat="47.2782000" lon="6.8888810">
        <ele>852.8</ele>
        <time>2022-07-21T07:27:39Z</time>
      </trkpt>
      <trkpt lat="47.2781960" lon="6.8888950">
        <ele>852.8</ele>
        <time>2022-07-21T07:27:40Z</time>
      </trkpt>
      <trkpt lat="47.2781830" lon="6.8889320">
        <ele>852.9</ele>
        <time>2022-07-21T07:27:41Z</time>
      </trkpt>
      <trkpt lat="47.2781770" lon="6.8889460">
        <ele>852.9</ele>
        <time>2022-07-21T07:27:42Z</time>
      </trkpt>
      <trkpt lat="47.2781660" lon="6.8889870">
        <ele>853.0</ele>
        <time>2022-07-21T07:27:43Z</time>
      </trkpt>
      <trkpt lat="47.2781550" lon="6.8890400">
        <ele>853.1</ele>
        <time>2022-07-21T07:27:44Z</time>
      </trkpt>
      <trkpt lat="47.2781510" lon="6.8890590">
        <ele>853.1</ele>
        <time>2022-07-21T07:27:45Z</time>
      </trkpt>
      <trkpt lat="47.2781430" lon="6.8890990">
        <ele>853.2</ele>
        <time>2022-07-21T07:27:46Z</time>
      </trkpt>
      <trkpt lat="47.2781330" lon="6.8891490">
        <ele>853.3</ele>
        <time>2022-07-21T07:27:47Z</time>
      </trkpt>
      <trkpt lat="47.2781290" lon="6.8891690">
        <ele>853.3</ele>
        <time>2022-07-21T07:27:48Z</time>
      </trkpt>
      <trkpt lat="47.2781130" lon="6.8892220">
        <ele>853.4</ele>
        <time>2022-07-21T07:27:49Z</time>
      </trkpt>
      <trkpt lat="47.2781070" lon="6.8892380">
        <ele>853.4</ele>
        <time>2022-07-21T07:27:50Z</time>
      </trkpt>
      <trkpt lat="47.2780910" lon="6.8892780">
        <ele>853.4</ele>
        <time>2022-07-21T07:27:51Z</time>
      </trkpt>
      <trkpt lat="47.2780820" lon="6.8893080">
        <ele>853.5</ele>
        <time>2022-07-21T07:27:52Z</time>
      </trkpt>
      <trkpt lat="47.2780770" lon="6.8893220">
        <ele>853.5</ele>
        <time>2022-07-21T07:27:53Z</time>
      </trkpt>
      <trkpt lat="47.2780640" lon="6.8893670">
        <ele>853.5</ele>
        <time>2022-07-21T07:27:54Z</time>
      </trkpt>
      <trkpt lat="47.2780590" lon="6.8893870">
        <ele>853.5</ele>
        <time>2022-07-21T07:27:55Z</time>
      </trkpt>
      <trkpt lat="47.2780470" lon="6.8894290">
        <ele>853.6</ele>
        <time>2022-07-21T07:27:56Z</time>
      </trkpt>
      <trkpt lat="47.2780340" lon="6.8894720">
        <ele>853.6</ele>
        <time>2022-07-21T07:27:57Z</time>
      </trkpt>
      <trkpt lat="47.2780210" lon="6.8895070">
        <ele>853.6</ele>
        <time>2022-07-21T07:27:58Z</time>
      </trkpt>
      <trkpt lat="47.2780040" lon="6.8895530">
        <ele>853.6</ele>
        <time>2022-07-21T07:27:59Z</time>
      </trkpt>
      <trkpt lat="47.2779910" lon="6.8895980">
        <ele>853.6</ele>
        <time>2022-07-21T07:28:00Z</time>
      </trkpt>
      <trkpt lat="47.2779780" lon="6.8896420">
        <ele>853.6</ele>
        <time>2022-07-21T07:28:01Z</time>
      </trkpt>
      <trkpt lat="47.2779650" lon="6.8896870">
        <ele>853.6</ele>
        <time>2022-07-21T07:28:02Z</time>
      </trkpt>
      <trkpt lat="47.2779500" lon="6.8897280">
        <ele>853.6</ele>
        <time>2022-07-21T07:28:03Z</time>
      </trkpt>
      <trkpt lat="47.2779330" lon="6.8897740">
        <ele>853.6</ele>
        <time>2022-07-21T07:28:04Z</time>
      </trkpt>
      <trkpt lat="47.2779160" lon="6.8898190">
        <ele>853.6</ele>
        <time>2022-07-21T07:28:05Z</time>
      </trkpt>
      <trkpt lat="47.2778950" lon="6.8898670">
        <ele>853.6</ele>
        <time>2022-07-21T07:28:06Z</time>
      </trkpt>
      <trkpt lat="47.2778740" lon="6.8899140">
        <ele>853.5</ele>
        <time>2022-07-21T07:28:07Z</time>
      </trkpt>
      <trkpt lat="47.2778530" lon="6.8899590">
        <ele>853.4</ele>
        <time>2022-07-21T07:28:08Z</time>
      </trkpt>
      <trkpt lat="47.2778360" lon="6.8899960">
        <ele>853.4</ele>
        <time>2022-07-21T07:28:09Z</time>
      </trkpt>
      <trkpt lat="47.2778160" lon="6.8900400">
        <ele>853.3</ele>
        <time>2022-07-21T07:28:10Z</time>
      </trkpt>
      <trkpt lat="47.2777930" lon="6.8900950">
        <ele>853.2</ele>
        <time>2022-07-21T07:28:11Z</time>
      </trkpt>
      <trkpt lat="47.2777730" lon="6.8901470">
        <ele>853.1</ele>
        <time>2022-07-21T07:28:12Z</time>
      </trkpt>
      <trkpt lat="47.2777550" lon="6.8901970">
        <ele>853.0</ele>
        <time>2022-07-21T07:28:13Z</time>
      </trkpt>
      <trkpt lat="47.2777170" lon="6.8902670">
        <ele>852.9</ele>
        <time>2022-07-21T07:28:15Z</time>
      </trkpt>
      <trkpt lat="47.2776820" lon="6.8903130">
        <ele>852.7</ele>
        <time>2022-07-21T07:28:16Z</time>
      </trkpt>
      <trkpt lat="47.2776600" lon="6.8903480">
        <ele>852.7</ele>
        <time>2022-07-21T07:28:17Z</time>
      </trkpt>
      <trkpt lat="47.2776310" lon="6.8904240">
        <ele>852.6</ele>
        <time>2022-07-21T07:28:19Z</time>
      </trkpt>
      <trkpt lat="47.2776180" lon="6.8904870">
        <ele>852.5</ele>
        <time>2022-07-21T07:28:20Z</time>
      </trkpt>
      <trkpt lat="47.2776080" lon="6.8905440">
        <ele>852.5</ele>
        <time>2022-07-21T07:28:21Z</time>
      </trkpt>
      <trkpt lat="47.2775990" lon="6.8906030">
        <ele>852.4</ele>
        <time>2022-07-21T07:28:22Z</time>
      </trkpt>
      <trkpt lat="47.2775840" lon="6.8906870">
        <ele>852.4</ele>
        <time>2022-07-21T07:28:24Z</time>
      </trkpt>
      <trkpt lat="47.2775780" lon="6.8907450">
        <ele>852.4</ele>
        <time>2022-07-21T07:28:25Z</time>
      </trkpt>
      <trkpt lat="47.2775780" lon="6.8908040">
        <ele>852.4</ele>
        <time>2022-07-21T07:28:26Z</time>
      </trkpt>
      <trkpt lat="47.2775810" lon="6.8908570">
        <ele>852.4</ele>
        <time>2022-07-21T07:28:27Z</time>
      </trkpt>
      <trkpt lat="47.2775860" lon="6.8909130">
        <ele>852.5</ele>
        <time>2022-07-21T07:28:28Z</time>
      </trkpt>
      <trkpt lat="47.2775920" lon="6.8909890">
        <ele>852.6</ele>
        <time>2022-07-21T07:28:30Z</time>
      </trkpt>
      <trkpt lat="47.2776010" lon="6.8910370">
        <ele>852.7</ele>
        <time>2022-07-21T07:28:31Z</time>
      </trkpt>
      <trkpt lat="47.2776090" lon="6.8910860">
        <ele>852.8</ele>
        <time>2022-07-21T07:28:32Z</time>
      </trkpt>
      <trkpt lat="47.2776150" lon="6.8911440">
        <ele>852.9</ele>
        <time>2022-07-21T07:28:33Z</time>
      </trkpt>
      <trkpt lat="47.2776220" lon="6.8912070">
        <ele>853.1</ele>
        <time>2022-07-21T07:28:34Z</time>
      </trkpt>
      <trkpt lat="47.2776240" lon="6.8912330">
        <ele>853.1</ele>
        <time>2022-07-21T07:28:35Z</time>
      </trkpt>
      <trkpt lat="47.2776230" lon="6.8912770">
        <ele>853.3</ele>
        <time>2022-07-21T07:28:36Z</time>
      </trkpt>
      <trkpt lat="47.2776200" lon="6.8913380">
        <ele>853.4</ele>
        <time>2022-07-21T07:28:38Z</time>
      </trkpt>
      <trkpt lat="47.2776190" lon="6.8913920">
        <ele>853.6</ele>
        <time>2022-07-21T07:28:39Z</time>
      </trkpt>
      <trkpt lat="47.2776190" lon="6.8914060">
        <ele>853.7</ele>
        <time>2022-07-21T07:28:40Z</time>
      </trkpt>
      <trkpt lat="47.2776210" lon="6.8914580">
        <ele>853.8</ele>
        <time>2022-07-21T07:28:41Z</time>
      </trkpt>
      <trkpt lat="47.2776230" lon="6.8914780">
        <ele>853.9</ele>
        <time>2022-07-21T07:28:42Z</time>
      </trkpt>
      <trkpt lat="47.2776270" lon="6.8915200">
        <ele>854.0</ele>
        <time>2022-07-21T07:28:43Z</time>
      </trkpt>
      <trkpt lat="47.2776280" lon="6.8915810">
        <ele>854.2</ele>
        <time>2022-07-21T07:28:44Z</time>
      </trkpt>
      <trkpt lat="47.2776270" lon="6.8916030">
        <ele>854.3</ele>
        <time>2022-07-21T07:28:45Z</time>
      </trkpt>
      <trkpt lat="47.2776280" lon="6.8916680">
        <ele>854.4</ele>
        <time>2022-07-21T07:28:46Z</time>
      </trkpt>
      <trkpt lat="47.2776320" lon="6.8917300">
        <ele>854.6</ele>
        <time>2022-07-21T07:28:48Z</time>
      </trkpt>
      <trkpt lat="47.2776310" lon="6.8917800">
        <ele>854.8</ele>
        <time>2022-07-21T07:28:49Z</time>
      </trkpt>
      <trkpt lat="47.2776280" lon="6.8918400">
        <ele>854.9</ele>
        <time>2022-07-21T07:28:50Z</time>
      </trkpt>
      <trkpt lat="47.2776170" lon="6.8919010">
        <ele>855.1</ele>
        <time>2022-07-21T07:28:52Z</time>
      </trkpt>
      <trkpt lat="47.2776140" lon="6.8919270">
        <ele>855.1</ele>
        <time>2022-07-21T07:28:53Z</time>
      </trkpt>
      <trkpt lat="47.2776090" lon="6.8919820">
        <ele>855.3</ele>
        <time>2022-07-21T07:28:54Z</time>
      </trkpt>
      <trkpt lat="47.2776040" lon="6.8920280">
        <ele>855.4</ele>
        <time>2022-07-21T07:28:55Z</time>
      </trkpt>
      <trkpt lat="47.2775970" lon="6.8920800">
        <ele>855.5</ele>
        <time>2022-07-21T07:28:56Z</time>
      </trkpt>
      <trkpt lat="47.2775870" lon="6.8921340">
        <ele>855.6</ele>
        <time>2022-07-21T07:28:58Z</time>
      </trkpt>
      <trkpt lat="47.2775780" lon="6.8921830">
        <ele>855.6</ele>
        <time>2022-07-21T07:28:59Z</time>
      </trkpt>
      <trkpt lat="47.2775720" lon="6.8922230">
        <ele>855.7</ele>
        <time>2022-07-21T07:29:00Z</time>
      </trkpt>
      <trkpt lat="47.2775700" lon="6.8922630">
        <ele>855.8</ele>
        <time>2022-07-21T07:29:01Z</time>
      </trkpt>
      <trkpt lat="47.2775700" lon="6.8923060">
        <ele>855.8</ele>
        <time>2022-07-21T07:29:03Z</time>
      </trkpt>
      <trkpt lat="47.2775660" lon="6.8923570">
        <ele>855.9</ele>
        <time>2022-07-21T07:29:04Z</time>
      </trkpt>
      <trkpt lat="47.2775610" lon="6.8924050">
        <ele>855.9</ele>
        <time>2022-07-21T07:29:05Z</time>
      </trkpt>
      <trkpt lat="47.2775550" lon="6.8924560">
        <ele>855.9</ele>
        <time>2022-07-21T07:29:06Z</time>
      </trkpt>
      <trkpt lat="47.2775530" lon="6.8924720">
        <ele>855.9</ele>
        <time>2022-07-21T07:29:07Z</time>
      </trkpt>
      <trkpt lat="47.2775470" lon="6.8925270">
        <ele>856.0</ele>
        <time>2022-07-21T07:29:08Z</time>
      </trkpt>
      <trkpt lat="47.2775450" lon="6.8925760">
        <ele>856.0</ele>
        <time>2022-07-21T07:29:09Z</time>
      </trkpt>
      <trkpt lat="47.2775430" lon="6.8926440">
        <ele>856.0</ele>
        <time>2022-07-21T07:29:11Z</time>
      </trkpt>
      <trkpt lat="47.2775420" lon="6.8927010">
        <ele>856.0</ele>
        <time>2022-07-21T07:29:12Z</time>
      </trkpt>
      <trkpt lat="47.2775380" lon="6.8927570">
        <ele>856.0</ele>
        <time>2022-07-21T07:29:13Z</time>
      </trkpt>
      <trkpt lat="47.2775340" lon="6.8927950">
        <ele>856.0</ele>
        <time>2022-07-21T07:29:14Z</time>
      </trkpt>
      <trkpt lat="47.2775260" lon="6.8928700">
        <ele>856.0</ele>
        <time>2022-07-21T07:29:16Z</time>
      </trkpt>
      <trkpt lat="47.2775170" lon="6.8929300">
        <ele>856.0</ele>
        <time>2022-07-21T07:29:17Z</time>
      </trkpt>
      <trkpt lat="47.2775090" lon="6.8929800">
        <ele>856.0</ele>
        <time>2022-07-21T07:29:18Z</time>
      </trkpt>
      <trkpt lat="47.2775010" lon="6.8930200">
        <ele>856.1</ele>
        <time>2022-07-21T07:29:19Z</time>
      </trkpt>
      <trkpt lat="47.2774920" lon="6.8930750">
        <ele>856.1</ele>
        <time>2022-07-21T07:29:20Z</time>
      </trkpt>
      <trkpt lat="47.2774870" lon="6.8931370">
        <ele>856.1</ele>
        <time>2022-07-21T07:29:21Z</time>
      </trkpt>
      <trkpt lat="47.2774890" lon="6.8932070">
        <ele>856.2</ele>
        <time>2022-07-21T07:29:23Z</time>
      </trkpt>
      <trkpt lat="47.2774900" lon="6.8932660">
        <ele>856.2</ele>
        <time>2022-07-21T07:29:24Z</time>
      </trkpt>
      <trkpt lat="47.2774930" lon="6.8933180">
        <ele>856.3</ele>
        <time>2022-07-21T07:29:25Z</time>
      </trkpt>
      <trkpt lat="47.2774970" lon="6.8933850">
        <ele>856.4</ele>
        <time>2022-07-21T07:29:26Z</time>
      </trkpt>
      <trkpt lat="47.2774970" lon="6.8934570">
        <ele>856.5</ele>
        <time>2022-07-21T07:29:28Z</time>
      </trkpt>
      <trkpt lat="47.2774980" lon="6.8935080">
        <ele>856.5</ele>
        <time>2022-07-21T07:29:29Z</time>
      </trkpt>
      <trkpt lat="47.2775000" lon="6.8935890">
        <ele>856.6</ele>
        <time>2022-07-21T07:29:31Z</time>
      </trkpt>
      <trkpt lat="47.2774990" lon="6.8936520">
        <ele>856.7</ele>
        <time>2022-07-21T07:29:32Z</time>
      </trkpt>
      <trkpt lat="47.2774980" lon="6.8936930">
        <ele>856.8</ele>
        <time>2022-07-21T07:29:33Z</time>
      </trkpt>
      <trkpt lat="47.2774900" lon="6.8937390">
        <ele>856.9</ele>
        <time>2022-07-21T07:29:34Z</time>
      </trkpt>
      <trkpt lat="47.2774800" lon="6.8937920">
        <ele>856.9</ele>
        <time>2022-07-21T07:29:35Z</time>
      </trkpt>
      <trkpt lat="47.2774760" lon="6.8938070">
        <ele>857.0</ele>
        <time>2022-07-21T07:29:36Z</time>
      </trkpt>
      <trkpt lat="47.2774640" lon="6.8938550">
        <ele>857.1</ele>
        <time>2022-07-21T07:29:37Z</time>
      </trkpt>
      <trkpt lat="47.2774600" lon="6.8938720">
        <ele>857.1</ele>
        <time>2022-07-21T07:29:38Z</time>
      </trkpt>
      <trkpt lat="47.2774560" lon="6.8939240">
        <ele>857.2</ele>
        <time>2022-07-21T07:29:39Z</time>
      </trkpt>
      <trkpt lat="47.2774650" lon="6.8940020">
        <ele>857.4</ele>
        <time>2022-07-21T07:29:41Z</time>
      </trkpt>
      <trkpt lat="47.2774830" lon="6.8940470">
        <ele>857.5</ele>
        <time>2022-07-21T07:29:42Z</time>
      </trkpt>
      <trkpt lat="47.2774930" lon="6.8940880">
        <ele>857.6</ele>
        <time>2022-07-21T07:29:43Z</time>
      </trkpt>
      <trkpt lat="47.2775120" lon="6.8941390">
        <ele>857.7</ele>
        <time>2022-07-21T07:29:44Z</time>
      </trkpt>
      <trkpt lat="47.2775220" lon="6.8941640">
        <ele>857.8</ele>
        <time>2022-07-21T07:29:45Z</time>
      </trkpt>
      <trkpt lat="47.2775400" lon="6.8942120">
        <ele>858.0</ele>
        <time>2022-07-21T07:29:47Z</time>
      </trkpt>
      <trkpt lat="47.2775450" lon="6.8942250">
        <ele>858.0</ele>
        <time>2022-07-21T07:29:48Z</time>
      </trkpt>
      <trkpt lat="47.2775630" lon="6.8942750">
        <ele>858.2</ele>
        <time>2022-07-21T07:29:49Z</time>
      </trkpt>
      <trkpt lat="47.2775680" lon="6.8942930">
        <ele>858.3</ele>
        <time>2022-07-21T07:29:50Z</time>
      </trkpt>
      <trkpt lat="47.2775790" lon="6.8943380">
        <ele>858.5</ele>
        <time>2022-07-21T07:29:51Z</time>
      </trkpt>
      <trkpt lat="47.2775850" lon="6.8943770">
        <ele>858.6</ele>
        <time>2022-07-21T07:29:53Z</time>
      </trkpt>
      <trkpt lat="47.2775820" lon="6.8944060">
        <ele>858.7</ele>
        <time>2022-07-21T07:29:54Z</time>
      </trkpt>
      <trkpt lat="47.2775870" lon="6.8944530">
        <ele>858.9</ele>
        <time>2022-07-21T07:29:56Z</time>
      </trkpt>
      <trkpt lat="47.2775970" lon="6.8945000">
        <ele>859.1</ele>
        <time>2022-07-21T07:29:57Z</time>
      </trkpt>
      <trkpt lat="47.2776030" lon="6.8945400">
        <ele>859.2</ele>
        <time>2022-07-21T07:29:58Z</time>
      </trkpt>
      <trkpt lat="47.2776080" lon="6.8945790">
        <ele>859.4</ele>
        <time>2022-07-21T07:29:59Z</time>
      </trkpt>
      <trkpt lat="47.2776100" lon="6.8946490">
        <ele>859.5</ele>
        <time>2022-07-21T07:30:01Z</time>
      </trkpt>
      <trkpt lat="47.2776150" lon="6.8946850">
        <ele>859.6</ele>
        <time>2022-07-21T07:30:02Z</time>
      </trkpt>
      <trkpt lat="47.2776170" lon="6.8947010">
        <ele>859.6</ele>
        <time>2022-07-21T07:30:03Z</time>
      </trkpt>
      <trkpt lat="47.2776110" lon="6.8947400">
        <ele>859.7</ele>
        <time>2022-07-21T07:30:04Z</time>
      </trkpt>
      <trkpt lat="47.2776010" lon="6.8947850">
        <ele>859.7</ele>
        <time>2022-07-21T07:30:05Z</time>
      </trkpt>
      <trkpt lat="47.2776040" lon="6.8948560">
        <ele>859.8</ele>
        <time>2022-07-21T07:30:07Z</time>
      </trkpt>
      <trkpt lat="47.2776070" lon="6.8948770">
        <ele>859.8</ele>
        <time>2022-07-21T07:30:08Z</time>
      </trkpt>
      <trkpt lat="47.2776110" lon="6.8948970">
        <ele>859.8</ele>
        <time>2022-07-21T07:30:09Z</time>
      </trkpt>
      <trkpt lat="47.2776070" lon="6.8949210">
        <ele>859.8</ele>
        <time>2022-07-21T07:30:10Z</time>
      </trkpt>
      <trkpt lat="47.2775950" lon="6.8949590">
        <ele>859.9</ele>
        <time>2022-07-21T07:30:12Z</time>
      </trkpt>
      <trkpt lat="47.2775890" lon="6.8950000">
        <ele>859.9</ele>
        <time>2022-07-21T07:30:13Z</time>
      </trkpt>
      <trkpt lat="47.2775850" lon="6.8950500">
        <ele>859.8</ele>
        <time>2022-07-21T07:30:14Z</time>
      </trkpt>
      <trkpt lat="47.2775840" lon="6.8950640">
        <ele>859.8</ele>
        <time>2022-07-21T07:30:15Z</time>
      </trkpt>
      <trkpt lat="47.2775800" lon="6.8951300">
        <ele>859.8</ele>
        <time>2022-07-21T07:30:16Z</time>
      </trkpt>
      <trkpt lat="47.2775790" lon="6.8951850">
        <ele>859.7</ele>
        <time>2022-07-21T07:30:17Z</time>
      </trkpt>
      <trkpt lat="47.2775850" lon="6.8952470">
        <ele>859.6</ele>
        <time>2022-07-21T07:30:19Z</time>
      </trkpt>
      <trkpt lat="47.2776030" lon="6.8953050">
        <ele>859.5</ele>
        <time>2022-07-21T07:30:20Z</time>
      </trkpt>
      <trkpt lat="47.2776130" lon="6.8953320">
        <ele>859.5</ele>
        <time>2022-07-21T07:30:21Z</time>
      </trkpt>
      <trkpt lat="47.2776200" lon="6.8953510">
        <ele>859.4</ele>
        <time>2022-07-21T07:30:22Z</time>
      </trkpt>
      <trkpt lat="47.2776330" lon="6.8953980">
        <ele>859.4</ele>
        <time>2022-07-21T07:30:23Z</time>
      </trkpt>
      <trkpt lat="47.2776480" lon="6.8954430">
        <ele>859.3</ele>
        <time>2022-07-21T07:30:24Z</time>
      </trkpt>
      <trkpt lat="47.2776520" lon="6.8954550">
        <ele>859.3</ele>
        <time>2022-07-21T07:30:25Z</time>
      </trkpt>
      <trkpt lat="47.2776750" lon="6.8954880">
        <ele>859.2</ele>
        <time>2022-07-21T07:30:26Z</time>
      </trkpt>
      <trkpt lat="47.2776820" lon="6.8954970">
        <ele>859.2</ele>
        <time>2022-07-21T07:30:27Z</time>
      </trkpt>
      <trkpt lat="47.2777190" lon="6.8955300">
        <ele>859.0</ele>
        <time>2022-07-21T07:30:29Z</time>
      </trkpt>
      <trkpt lat="47.2777350" lon="6.8955420">
        <ele>859.0</ele>
        <time>2022-07-21T07:30:30Z</time>
      </trkpt>
      <trkpt lat="47.2777620" lon="6.8955600">
        <ele>858.9</ele>
        <time>2022-07-21T07:30:31Z</time>
      </trkpt>
      <trkpt lat="47.2777890" lon="6.8955780">
        <ele>858.7</ele>
        <time>2022-07-21T07:30:32Z</time>
      </trkpt>
      <trkpt lat="47.2778160" lon="6.8955870">
        <ele>858.6</ele>
        <time>2022-07-21T07:30:33Z</time>
      </trkpt>
      <trkpt lat="47.2778620" lon="6.8955920">
        <ele>858.2</ele>
        <time>2022-07-21T07:30:35Z</time>
      </trkpt>
      <trkpt lat="47.2778950" lon="6.8956040">
        <ele>857.9</ele>
        <time>2022-07-21T07:30:36Z</time>
      </trkpt>
      <trkpt lat="47.2779360" lon="6.8956240">
        <ele>857.5</ele>
        <time>2022-07-21T07:30:37Z</time>
      </trkpt>
      <trkpt lat="47.2779780" lon="6.8956470">
        <ele>857.1</ele>
        <time>2022-07-21T07:30:38Z</time>
      </trkpt>
      <trkpt lat="47.2780720" lon="6.8957250">
        <ele>856.4</ele>
        <time>2022-07-21T07:30:40Z</time>
      </trkpt>
      <trkpt lat="47.2781190" lon="6.8957630">
        <ele>856.2</ele>
        <time>2022-07-21T07:30:41Z</time>
      </trkpt>
      <trkpt lat="47.2781840" lon="6.8958140">
        <ele>855.9</ele>
        <time>2022-07-21T07:30:42Z</time>
      </trkpt>
      <trkpt lat="47.2782410" lon="6.8958540">
        <ele>855.6</ele>
        <time>2022-07-21T07:30:44Z</time>
      </trkpt>
      <trkpt lat="47.2782990" lon="6.8959040">
        <ele>855.4</ele>
        <time>2022-07-21T07:30:46Z</time>
      </trkpt>
      <trkpt lat="47.2783320" lon="6.8959360">
        <ele>855.4</ele>
        <time>2022-07-21T07:30:47Z</time>
      </trkpt>
      <trkpt lat="47.2783660" lon="6.8959720">
        <ele>855.3</ele>
        <time>2022-07-21T07:30:48Z</time>
      </trkpt>
      <trkpt lat="47.2783980" lon="6.8960170">
        <ele>855.3</ele>
        <time>2022-07-21T07:30:49Z</time>
      </trkpt>
      <trkpt lat="47.2784210" lon="6.8960510">
        <ele>855.3</ele>
        <time>2022-07-21T07:30:50Z</time>
      </trkpt>
      <trkpt lat="47.2784540" lon="6.8960910">
        <ele>855.4</ele>
        <time>2022-07-21T07:30:51Z</time>
      </trkpt>
      <trkpt lat="47.2784670" lon="6.8961070">
        <ele>855.4</ele>
        <time>2022-07-21T07:30:52Z</time>
      </trkpt>
      <trkpt lat="47.2784880" lon="6.8961480">
        <ele>855.6</ele>
        <time>2022-07-21T07:30:54Z</time>
      </trkpt>
      <trkpt lat="47.2784920" lon="6.8961580">
        <ele>855.6</ele>
        <time>2022-07-21T07:30:55Z</time>
      </trkpt>
      <trkpt lat="47.2785010" lon="6.8961780">
        <ele>855.7</ele>
        <time>2022-07-21T07:30:56Z</time>
      </trkpt>
      <trkpt lat="47.2785110" lon="6.8962020">
        <ele>855.7</ele>
        <time>2022-07-21T07:30:57Z</time>
      </trkpt>
      <trkpt lat="47.2785220" lon="6.8962290">
        <ele>855.9</ele>
        <time>2022-07-21T07:30:58Z</time>
      </trkpt>
      <trkpt lat="47.2785370" lon="6.8962640">
        <ele>856.0</ele>
        <time>2022-07-21T07:31:00Z</time>
      </trkpt>
      <trkpt lat="47.2785450" lon="6.8963090">
        <ele>856.2</ele>
        <time>2022-07-21T07:31:01Z</time>
      </trkpt>
      <trkpt lat="47.2785470" lon="6.8963220">
        <ele>856.3</ele>
        <time>2022-07-21T07:31:02Z</time>
      </trkpt>
      <trkpt lat="47.2785450" lon="6.8963620">
        <ele>856.5</ele>
        <time>2022-07-21T07:31:03Z</time>
      </trkpt>
      <trkpt lat="47.2785420" lon="6.8963770">
        <ele>857.1</ele>
        <time>2022-07-21T07:31:04Z</time>
      </trkpt>
      <trkpt lat="47.2785310" lon="6.8964140">
        <ele>857.1</ele>
        <time>2022-07-21T07:31:05Z</time>
      </trkpt>
      <trkpt lat="47.2785270" lon="6.8964260">
        <ele>857.0</ele>
        <time>2022-07-21T07:31:06Z</time>
      </trkpt>
      <trkpt lat="47.2785000" lon="6.8964500">
        <ele>857.0</ele>
        <time>2022-07-21T07:31:07Z</time>
      </trkpt>
      <trkpt lat="47.2784910" lon="6.8964570">
        <ele>856.9</ele>
        <time>2022-07-21T07:31:08Z</time>
      </trkpt>
      <trkpt lat="47.2784540" lon="6.8964740">
        <ele>856.8</ele>
        <time>2022-07-21T07:31:09Z</time>
      </trkpt>
      <trkpt lat="47.2784410" lon="6.8964800">
        <ele>856.7</ele>
        <time>2022-07-21T07:31:10Z</time>
      </trkpt>
      <trkpt lat="47.2784120" lon="6.8964990">
        <ele>856.6</ele>
        <time>2022-07-21T07:31:11Z</time>
      </trkpt>
      <trkpt lat="47.2784020" lon="6.8965060">
        <ele>856.5</ele>
        <time>2022-07-21T07:31:12Z</time>
      </trkpt>
      <trkpt lat="47.2783530" lon="6.8965580">
        <ele>856.2</ele>
        <time>2022-07-21T07:31:14Z</time>
      </trkpt>
      <trkpt lat="47.2783240" lon="6.8965830">
        <ele>855.9</ele>
        <time>2022-07-21T07:31:15Z</time>
      </trkpt>
      <trkpt lat="47.2782920" lon="6.8966130">
        <ele>855.7</ele>
        <time>2022-07-21T07:31:16Z</time>
      </trkpt>
      <trkpt lat="47.2782390" lon="6.8966700">
        <ele>855.2</ele>
        <time>2022-07-21T07:31:17Z</time>
      </trkpt>
      <trkpt lat="47.2781900" lon="6.8967100">
        <ele>854.8</ele>
        <time>2022-07-21T07:31:18Z</time>
      </trkpt>
      <trkpt lat="47.2781410" lon="6.8967520">
        <ele>854.4</ele>
        <time>2022-07-21T07:31:19Z</time>
      </trkpt>
      <trkpt lat="47.2780890" lon="6.8967960">
        <ele>854.0</ele>
        <time>2022-07-21T07:31:20Z</time>
      </trkpt>
      <trkpt lat="47.2780340" lon="6.8968290">
        <ele>853.5</ele>
        <time>2022-07-21T07:31:21Z</time>
      </trkpt>
      <trkpt lat="47.2779740" lon="6.8968590">
        <ele>853.1</ele>
        <time>2022-07-21T07:31:22Z</time>
      </trkpt>
      <trkpt lat="47.2779040" lon="6.8968970">
        <ele>852.5</ele>
        <time>2022-07-21T07:31:23Z</time>
      </trkpt>
      <trkpt lat="47.2778290" lon="6.8969380">
        <ele>851.9</ele>
        <time>2022-07-21T07:31:24Z</time>
      </trkpt>
      <trkpt lat="47.2777610" lon="6.8969830">
        <ele>851.4</ele>
        <time>2022-07-21T07:31:25Z</time>
      </trkpt>
      <trkpt lat="47.2776830" lon="6.8970430">
        <ele>850.8</ele>
        <time>2022-07-21T07:31:26Z</time>
      </trkpt>
      <trkpt lat="47.2776200" lon="6.8971100">
        <ele>850.3</ele>
        <time>2022-07-21T07:31:27Z</time>
      </trkpt>
      <trkpt lat="47.2775540" lon="6.8971710">
        <ele>849.9</ele>
        <time>2022-07-21T07:31:28Z</time>
      </trkpt>
      <trkpt lat="47.2775360" lon="6.8972880">
        <ele>849.5</ele>
        <time>2022-07-21T07:31:29Z</time>
      </trkpt>
      <trkpt lat="47.2775090" lon="6.8973800">
        <ele>849.2</ele>
        <time>2022-07-21T07:31:30Z</time>
      </trkpt>
      <trkpt lat="47.2774630" lon="6.8974460">
        <ele>848.8</ele>
        <time>2022-07-21T07:31:31Z</time>
      </trkpt>
      <trkpt lat="47.2774150" lon="6.8974960">
        <ele>848.6</ele>
        <time>2022-07-21T07:31:32Z</time>
      </trkpt>
      <trkpt lat="47.2773660" lon="6.8975270">
        <ele>848.3</ele>
        <time>2022-07-21T07:31:33Z</time>
      </trkpt>
      <trkpt lat="47.2773260" lon="6.8975540">
        <ele>848.1</ele>
        <time>2022-07-21T07:31:34Z</time>
      </trkpt>
      <trkpt lat="47.2773000" lon="6.8975860">
        <ele>847.9</ele>
        <time>2022-07-21T07:31:35Z</time>
      </trkpt>
      <trkpt lat="47.2772920" lon="6.8975960">
        <ele>847.9</ele>
        <time>2022-07-21T07:31:36Z</time>
      </trkpt>
      <trkpt lat="47.2772730" lon="6.8976540">
        <ele>847.6</ele>
        <time>2022-07-21T07:31:37Z</time>
      </trkpt>
      <trkpt lat="47.2772680" lon="6.8976820">
        <ele>847.6</ele>
        <time>2022-07-21T07:31:38Z</time>
      </trkpt>
      <trkpt lat="47.2772640" lon="6.8977500">
        <ele>847.5</ele>
        <time>2022-07-21T07:31:39Z</time>
      </trkpt>
      <trkpt lat="47.2772630" lon="6.8977990">
        <ele>847.5</ele>
        <time>2022-07-21T07:31:40Z</time>
      </trkpt>
      <trkpt lat="47.2772850" lon="6.8978330">
        <ele>847.5</ele>
        <time>2022-07-21T07:31:41Z</time>
      </trkpt>
      <trkpt lat="47.2773170" lon="6.8978690">
        <ele>847.5</ele>
        <time>2022-07-21T07:31:42Z</time>
      </trkpt>
      <trkpt lat="47.2773230" lon="6.8979360">
        <ele>847.5</ele>
        <time>2022-07-21T07:31:43Z</time>
      </trkpt>
      <trkpt lat="47.2773230" lon="6.8980000">
        <ele>847.5</ele>
        <time>2022-07-21T07:31:44Z</time>
      </trkpt>
      <trkpt lat="47.2773230" lon="6.8980490">
        <ele>847.6</ele>
        <time>2022-07-21T07:31:45Z</time>
      </trkpt>
      <trkpt lat="47.2773280" lon="6.8981190">
        <ele>847.6</ele>
        <time>2022-07-21T07:31:46Z</time>
      </trkpt>
      <trkpt lat="47.2773400" lon="6.8982220">
        <ele>847.7</ele>
        <time>2022-07-21T07:31:47Z</time>
      </trkpt>
      <trkpt lat="47.2773570" lon="6.8983120">
        <ele>847.7</ele>
        <time>2022-07-21T07:31:49Z</time>
      </trkpt>
      <trkpt lat="47.2773710" lon="6.8983720">
        <ele>847.8</ele>
        <time>2022-07-21T07:31:50Z</time>
      </trkpt>
      <trkpt lat="47.2773830" lon="6.8984270">
        <ele>847.8</ele>
        <time>2022-07-21T07:31:51Z</time>
      </trkpt>
      <trkpt lat="47.2773960" lon="6.8984930">
        <ele>847.9</ele>
        <time>2022-07-21T07:31:52Z</time>
      </trkpt>
      <trkpt lat="47.2774040" lon="6.8985500">
        <ele>847.9</ele>
        <time>2022-07-21T07:31:53Z</time>
      </trkpt>
      <trkpt lat="47.2774110" lon="6.8986130">
        <ele>848.0</ele>
        <time>2022-07-21T07:31:54Z</time>
      </trkpt>
      <trkpt lat="47.2774160" lon="6.8986720">
        <ele>848.0</ele>
        <time>2022-07-21T07:31:55Z</time>
      </trkpt>
      <trkpt lat="47.2774220" lon="6.8987450">
        <ele>848.1</ele>
        <time>2022-07-21T07:31:56Z</time>
      </trkpt>
      <trkpt lat="47.2774380" lon="6.8988420">
        <ele>848.2</ele>
        <time>2022-07-21T07:31:58Z</time>
      </trkpt>
      <trkpt lat="47.2774500" lon="6.8989010">
        <ele>848.3</ele>
        <time>2022-07-21T07:31:59Z</time>
      </trkpt>
      <trkpt lat="47.2774620" lon="6.8989600">
        <ele>848.3</ele>
        <time>2022-07-21T07:32:00Z</time>
      </trkpt>
      <trkpt lat="47.2774720" lon="6.8990130">
        <ele>848.4</ele>
        <time>2022-07-21T07:32:01Z</time>
      </trkpt>
      <trkpt lat="47.2774840" lon="6.8990720">
        <ele>848.4</ele>
        <time>2022-07-21T07:32:02Z</time>
      </trkpt>
      <trkpt lat="47.2774930" lon="6.8991330">
        <ele>848.5</ele>
        <time>2022-07-21T07:32:03Z</time>
      </trkpt>
      <trkpt lat="47.2775050" lon="6.8991970">
        <ele>848.5</ele>
        <time>2022-07-21T07:32:04Z</time>
      </trkpt>
      <trkpt lat="47.2775140" lon="6.8992580">
        <ele>848.6</ele>
        <time>2022-07-21T07:32:05Z</time>
      </trkpt>
      <trkpt lat="47.2775240" lon="6.8993470">
        <ele>848.7</ele>
        <time>2022-07-21T07:32:06Z</time>
      </trkpt>
      <trkpt lat="47.2775320" lon="6.8994240">
        <ele>848.8</ele>
        <time>2022-07-21T07:32:08Z</time>
      </trkpt>
      <trkpt lat="47.2775450" lon="6.8995140">
        <ele>848.9</ele>
        <time>2022-07-21T07:32:09Z</time>
      </trkpt>
      <trkpt lat="47.2775640" lon="6.8995820">
        <ele>849.0</ele>
        <time>2022-07-21T07:32:10Z</time>
      </trkpt>
      <trkpt lat="47.2775700" lon="6.8996410">
        <ele>849.1</ele>
        <time>2022-07-21T07:32:11Z</time>
      </trkpt>
      <trkpt lat="47.2775950" lon="6.8997520">
        <ele>849.2</ele>
        <time>2022-07-21T07:32:13Z</time>
      </trkpt>
      <trkpt lat="47.2776030" lon="6.8998100">
        <ele>849.3</ele>
        <time>2022-07-21T07:32:14Z</time>
      </trkpt>
      <trkpt lat="47.2775630" lon="6.8998820">
        <ele>849.4</ele>
        <time>2022-07-21T07:32:15Z</time>
      </trkpt>
      <trkpt lat="47.2775570" lon="6.8999460">
        <ele>849.5</ele>
        <time>2022-07-21T07:32:16Z</time>
      </trkpt>
      <trkpt lat="47.2775670" lon="6.9000100">
        <ele>849.6</ele>
        <time>2022-07-21T07:32:17Z</time>
      </trkpt>
      <trkpt lat="47.2775710" lon="6.9000680">
        <ele>849.7</ele>
        <time>2022-07-21T07:32:18Z</time>
      </trkpt>
      <trkpt lat="47.2775730" lon="6.9001180">
        <ele>849.7</ele>
        <time>2022-07-21T07:32:19Z</time>
      </trkpt>
      <trkpt lat="47.2775860" lon="6.9001800">
        <ele>849.8</ele>
        <time>2022-07-21T07:32:20Z</time>
      </trkpt>
      <trkpt lat="47.2775940" lon="6.9002380">
        <ele>849.9</ele>
        <time>2022-07-21T07:32:21Z</time>
      </trkpt>
      <trkpt lat="47.2776050" lon="6.9003000">
        <ele>849.9</ele>
        <time>2022-07-21T07:32:22Z</time>
      </trkpt>
      <trkpt lat="47.2776150" lon="6.9003620">
        <ele>850.0</ele>
        <time>2022-07-21T07:32:23Z</time>
      </trkpt>
      <trkpt lat="47.2776270" lon="6.9004190">
        <ele>850.1</ele>
        <time>2022-07-21T07:32:24Z</time>
      </trkpt>
      <trkpt lat="47.2776410" lon="6.9004680">
        <ele>850.1</ele>
        <time>2022-07-21T07:32:25Z</time>
      </trkpt>
      <trkpt lat="47.2776560" lon="6.9005330">
        <ele>850.2</ele>
        <time>2022-07-21T07:32:26Z</time>
      </trkpt>
      <trkpt lat="47.2776690" lon="6.9005950">
        <ele>850.3</ele>
        <time>2022-07-21T07:32:27Z</time>
      </trkpt>
      <trkpt lat="47.2776770" lon="6.9006380">
        <ele>850.3</ele>
        <time>2022-07-21T07:32:28Z</time>
      </trkpt>
      <trkpt lat="47.2776900" lon="6.9006970">
        <ele>850.4</ele>
        <time>2022-07-21T07:32:29Z</time>
      </trkpt>
      <trkpt lat="47.2777010" lon="6.9007520">
        <ele>850.4</ele>
        <time>2022-07-21T07:32:30Z</time>
      </trkpt>
      <trkpt lat="47.2777170" lon="6.9008170">
        <ele>850.5</ele>
        <time>2022-07-21T07:32:31Z</time>
      </trkpt>
      <trkpt lat="47.2777320" lon="6.9008760">
        <ele>850.6</ele>
        <time>2022-07-21T07:32:32Z</time>
      </trkpt>
      <trkpt lat="47.2777500" lon="6.9009350">
        <ele>850.6</ele>
        <time>2022-07-21T07:32:33Z</time>
      </trkpt>
      <trkpt lat="47.2777780" lon="6.9009890">
        <ele>850.7</ele>
        <time>2022-07-21T07:32:34Z</time>
      </trkpt>
      <trkpt lat="47.2778030" lon="6.9010370">
        <ele>850.8</ele>
        <time>2022-07-21T07:32:35Z</time>
      </trkpt>
      <trkpt lat="47.2778240" lon="6.9010840">
        <ele>850.9</ele>
        <time>2022-07-21T07:32:36Z</time>
      </trkpt>
      <trkpt lat="47.2778430" lon="6.9011360">
        <ele>850.9</ele>
        <time>2022-07-21T07:32:37Z</time>
      </trkpt>
      <trkpt lat="47.2778560" lon="6.9011930">
        <ele>851.0</ele>
        <time>2022-07-21T07:32:38Z</time>
      </trkpt>
      <trkpt lat="47.2778690" lon="6.9012490">
        <ele>851.1</ele>
        <time>2022-07-21T07:32:39Z</time>
      </trkpt>
      <trkpt lat="47.2778820" lon="6.9013020">
        <ele>851.1</ele>
        <time>2022-07-21T07:32:40Z</time>
      </trkpt>
      <trkpt lat="47.2779010" lon="6.9013550">
        <ele>851.2</ele>
        <time>2022-07-21T07:32:41Z</time>
      </trkpt>
      <trkpt lat="47.2779220" lon="6.9014120">
        <ele>851.3</ele>
        <time>2022-07-21T07:32:42Z</time>
      </trkpt>
      <trkpt lat="47.2779400" lon="6.9014660">
        <ele>851.3</ele>
        <time>2022-07-21T07:32:43Z</time>
      </trkpt>
      <trkpt lat="47.2779490" lon="6.9015200">
        <ele>851.3</ele>
        <time>2022-07-21T07:32:44Z</time>
      </trkpt>
      <trkpt lat="47.2779630" lon="6.9015680">
        <ele>851.4</ele>
        <time>2022-07-21T07:32:45Z</time>
      </trkpt>
      <trkpt lat="47.2779810" lon="6.9016200">
        <ele>851.4</ele>
        <time>2022-07-21T07:32:46Z</time>
      </trkpt>
      <trkpt lat="47.2780070" lon="6.9016760">
        <ele>851.4</ele>
        <time>2022-07-21T07:32:47Z</time>
      </trkpt>
      <trkpt lat="47.2780300" lon="6.9017350">
        <ele>851.5</ele>
        <time>2022-07-21T07:32:48Z</time>
      </trkpt>
      <trkpt lat="47.2780500" lon="6.9017980">
        <ele>851.5</ele>
        <time>2022-07-21T07:32:49Z</time>
      </trkpt>
      <trkpt lat="47.2780710" lon="6.9018580">
        <ele>851.5</ele>
        <time>2022-07-21T07:32:50Z</time>
      </trkpt>
      <trkpt lat="47.2780700" lon="6.9019090">
        <ele>851.5</ele>
        <time>2022-07-21T07:32:51Z</time>
      </trkpt>
      <trkpt lat="47.2780990" lon="6.9019750">
        <ele>851.5</ele>
        <time>2022-07-21T07:32:52Z</time>
      </trkpt>
      <trkpt lat="47.2781140" lon="6.9020200">
        <ele>851.5</ele>
        <time>2022-07-21T07:32:53Z</time>
      </trkpt>
      <trkpt lat="47.2781310" lon="6.9020810">
        <ele>851.5</ele>
        <time>2022-07-21T07:32:54Z</time>
      </trkpt>
      <trkpt lat="47.2781580" lon="6.9021500">
        <ele>851.5</ele>
        <time>2022-07-21T07:32:55Z</time>
      </trkpt>
      <trkpt lat="47.2781850" lon="6.9022160">
        <ele>851.5</ele>
        <time>2022-07-21T07:32:56Z</time>
      </trkpt>
      <trkpt lat="47.2782140" lon="6.9022800">
        <ele>851.5</ele>
        <time>2022-07-21T07:32:57Z</time>
      </trkpt>
      <trkpt lat="47.2782460" lon="6.9023400">
        <ele>851.5</ele>
        <time>2022-07-21T07:32:58Z</time>
      </trkpt>
      <trkpt lat="47.2782790" lon="6.9024030">
        <ele>851.5</ele>
        <time>2022-07-21T07:32:59Z</time>
      </trkpt>
      <trkpt lat="47.2783120" lon="6.9024670">
        <ele>851.5</ele>
        <time>2022-07-21T07:33:00Z</time>
      </trkpt>
      <trkpt lat="47.2783450" lon="6.9025350">
        <ele>851.4</ele>
        <time>2022-07-21T07:33:01Z</time>
      </trkpt>
      <trkpt lat="47.2783730" lon="6.9026050">
        <ele>851.4</ele>
        <time>2022-07-21T07:33:02Z</time>
      </trkpt>
      <trkpt lat="47.2784000" lon="6.9026710">
        <ele>851.4</ele>
        <time>2022-07-21T07:33:03Z</time>
      </trkpt>
      <trkpt lat="47.2784240" lon="6.9027340">
        <ele>851.3</ele>
        <time>2022-07-21T07:33:04Z</time>
      </trkpt>
      <trkpt lat="47.2784450" lon="6.9028010">
        <ele>851.3</ele>
        <time>2022-07-21T07:33:05Z</time>
      </trkpt>
      <trkpt lat="47.2784650" lon="6.9028670">
        <ele>851.3</ele>
        <time>2022-07-21T07:33:06Z</time>
      </trkpt>
      <trkpt lat="47.2784850" lon="6.9029320">
        <ele>851.3</ele>
        <time>2022-07-21T07:33:07Z</time>
      </trkpt>
      <trkpt lat="47.2785050" lon="6.9029990">
        <ele>851.3</ele>
        <time>2022-07-21T07:33:08Z</time>
      </trkpt>
      <trkpt lat="47.2785300" lon="6.9030620">
        <ele>851.3</ele>
        <time>2022-07-21T07:33:09Z</time>
      </trkpt>
      <trkpt lat="47.2785550" lon="6.9031210">
        <ele>851.3</ele>
        <time>2022-07-21T07:33:10Z</time>
      </trkpt>
      <trkpt lat="47.2785790" lon="6.9031810">
        <ele>851.3</ele>
        <time>2022-07-21T07:33:11Z</time>
      </trkpt>
      <trkpt lat="47.2785970" lon="6.9032470">
        <ele>851.3</ele>
        <time>2022-07-21T07:33:12Z</time>
      </trkpt>
      <trkpt lat="47.2786080" lon="6.9033070">
        <ele>851.3</ele>
        <time>2022-07-21T07:33:13Z</time>
      </trkpt>
      <trkpt lat="47.2786250" lon="6.9033640">
        <ele>851.3</ele>
        <time>2022-07-21T07:33:14Z</time>
      </trkpt>
      <trkpt lat="47.2786380" lon="6.9034220">
        <ele>851.3</ele>
        <time>2022-07-21T07:33:15Z</time>
      </trkpt>
      <trkpt lat="47.2786570" lon="6.9034960">
        <ele>851.3</ele>
        <time>2022-07-21T07:33:16Z</time>
      </trkpt>
      <trkpt lat="47.2786670" lon="6.9035340">
        <ele>851.3</ele>
        <time>2022-07-21T07:33:17Z</time>
      </trkpt>
      <trkpt lat="47.2786960" lon="6.9036200">
        <ele>851.3</ele>
        <time>2022-07-21T07:33:18Z</time>
      </trkpt>
      <trkpt lat="47.2787290" lon="6.9037010">
        <ele>851.3</ele>
        <time>2022-07-21T07:33:19Z</time>
      </trkpt>
      <trkpt lat="47.2787540" lon="6.9037760">
        <ele>851.3</ele>
        <time>2022-07-21T07:33:20Z</time>
      </trkpt>
      <trkpt lat="47.2787730" lon="6.9038450">
        <ele>851.4</ele>
        <time>2022-07-21T07:33:21Z</time>
      </trkpt>
      <trkpt lat="47.2787980" lon="6.9039170">
        <ele>851.4</ele>
        <time>2022-07-21T07:33:22Z</time>
      </trkpt>
      <trkpt lat="47.2788230" lon="6.9039830">
        <ele>851.5</ele>
        <time>2022-07-21T07:33:23Z</time>
      </trkpt>
      <trkpt lat="47.2788430" lon="6.9040500">
        <ele>851.5</ele>
        <time>2022-07-21T07:33:24Z</time>
      </trkpt>
      <trkpt lat="47.2788610" lon="6.9041170">
        <ele>851.5</ele>
        <time>2022-07-21T07:33:25Z</time>
      </trkpt>
      <trkpt lat="47.2788810" lon="6.9041780">
        <ele>851.6</ele>
        <time>2022-07-21T07:33:26Z</time>
      </trkpt>
      <trkpt lat="47.2788980" lon="6.9042460">
        <ele>851.6</ele>
        <time>2022-07-21T07:33:27Z</time>
      </trkpt>
      <trkpt lat="47.2789110" lon="6.9043070">
        <ele>851.7</ele>
        <time>2022-07-21T07:33:28Z</time>
      </trkpt>
      <trkpt lat="47.2789220" lon="6.9043480">
        <ele>851.7</ele>
        <time>2022-07-21T07:33:29Z</time>
      </trkpt>
      <trkpt lat="47.2789390" lon="6.9044190">
        <ele>851.8</ele>
        <time>2022-07-21T07:33:30Z</time>
      </trkpt>
      <trkpt lat="47.2789590" lon="6.9044890">
        <ele>851.8</ele>
        <time>2022-07-21T07:33:31Z</time>
      </trkpt>
      <trkpt lat="47.2789720" lon="6.9045600">
        <ele>851.9</ele>
        <time>2022-07-21T07:33:32Z</time>
      </trkpt>
      <trkpt lat="47.2789820" lon="6.9046300">
        <ele>851.9</ele>
        <time>2022-07-21T07:33:33Z</time>
      </trkpt>
      <trkpt lat="47.2789930" lon="6.9047040">
        <ele>852.0</ele>
        <time>2022-07-21T07:33:34Z</time>
      </trkpt>
      <trkpt lat="47.2790050" lon="6.9047780">
        <ele>852.1</ele>
        <time>2022-07-21T07:33:35Z</time>
      </trkpt>
      <trkpt lat="47.2790190" lon="6.9048420">
        <ele>852.2</ele>
        <time>2022-07-21T07:33:36Z</time>
      </trkpt>
      <trkpt lat="47.2790310" lon="6.9049080">
        <ele>852.3</ele>
        <time>2022-07-21T07:33:37Z</time>
      </trkpt>
      <trkpt lat="47.2790450" lon="6.9049720">
        <ele>852.4</ele>
        <time>2022-07-21T07:33:38Z</time>
      </trkpt>
      <trkpt lat="47.2790530" lon="6.9050330">
        <ele>852.4</ele>
        <time>2022-07-21T07:33:39Z</time>
      </trkpt>
      <trkpt lat="47.2790600" lon="6.9050970">
        <ele>852.5</ele>
        <time>2022-07-21T07:33:40Z</time>
      </trkpt>
      <trkpt lat="47.2790780" lon="6.9051560">
        <ele>852.6</ele>
        <time>2022-07-21T07:33:41Z</time>
      </trkpt>
      <trkpt lat="47.2790980" lon="6.9052000">
        <ele>852.7</ele>
        <time>2022-07-21T07:33:42Z</time>
      </trkpt>
      <trkpt lat="47.2791200" lon="6.9052720">
        <ele>852.8</ele>
        <time>2022-07-21T07:33:43Z</time>
      </trkpt>
      <trkpt lat="47.2791350" lon="6.9053360">
        <ele>852.9</ele>
        <time>2022-07-21T07:33:44Z</time>
      </trkpt>
      <trkpt lat="47.2791510" lon="6.9054010">
        <ele>853.0</ele>
        <time>2022-07-21T07:33:45Z</time>
      </trkpt>
      <trkpt lat="47.2791680" lon="6.9054580">
        <ele>853.2</ele>
        <time>2022-07-21T07:33:46Z</time>
      </trkpt>
      <trkpt lat="47.2791830" lon="6.9055130">
        <ele>853.3</ele>
        <time>2022-07-21T07:33:47Z</time>
      </trkpt>
      <trkpt lat="47.2792000" lon="6.9055620">
        <ele>853.4</ele>
        <time>2022-07-21T07:33:48Z</time>
      </trkpt>
      <trkpt lat="47.2792330" lon="6.9055800">
        <ele>853.5</ele>
        <time>2022-07-21T07:33:49Z</time>
      </trkpt>
      <trkpt lat="47.2792410" lon="6.9056070">
        <ele>853.6</ele>
        <time>2022-07-21T07:33:50Z</time>
      </trkpt>
      <trkpt lat="47.2792480" lon="6.9056810">
        <ele>853.7</ele>
        <time>2022-07-21T07:33:51Z</time>
      </trkpt>
      <trkpt lat="47.2792580" lon="6.9057680">
        <ele>853.9</ele>
        <time>2022-07-21T07:33:52Z</time>
      </trkpt>
      <trkpt lat="47.2792740" lon="6.9058480">
        <ele>854.1</ele>
        <time>2022-07-21T07:33:54Z</time>
      </trkpt>
      <trkpt lat="47.2792870" lon="6.9058980">
        <ele>854.2</ele>
        <time>2022-07-21T07:33:55Z</time>
      </trkpt>
      <trkpt lat="47.2792990" lon="6.9059500">
        <ele>854.3</ele>
        <time>2022-07-21T07:33:56Z</time>
      </trkpt>
      <trkpt lat="47.2793110" lon="6.9060090">
        <ele>854.4</ele>
        <time>2022-07-21T07:33:57Z</time>
      </trkpt>
      <trkpt lat="47.2793220" lon="6.9060610">
        <ele>854.6</ele>
        <time>2022-07-21T07:33:58Z</time>
      </trkpt>
      <trkpt lat="47.2793430" lon="6.9061620">
        <ele>854.8</ele>
        <time>2022-07-21T07:34:00Z</time>
      </trkpt>
      <trkpt lat="47.2793570" lon="6.9062140">
        <ele>854.9</ele>
        <time>2022-07-21T07:34:01Z</time>
      </trkpt>
      <trkpt lat="47.2793700" lon="6.9062710">
        <ele>855.0</ele>
        <time>2022-07-21T07:34:02Z</time>
      </trkpt>
      <trkpt lat="47.2793810" lon="6.9063230">
        <ele>855.1</ele>
        <time>2022-07-21T07:34:03Z</time>
      </trkpt>
      <trkpt lat="47.2793910" lon="6.9063720">
        <ele>855.2</ele>
        <time>2022-07-21T07:34:04Z</time>
      </trkpt>
      <trkpt lat="47.2794000" lon="6.9064200">
        <ele>855.4</ele>
        <time>2022-07-21T07:34:05Z</time>
      </trkpt>
      <trkpt lat="47.2794130" lon="6.9064770">
        <ele>855.5</ele>
        <time>2022-07-21T07:34:06Z</time>
      </trkpt>
      <trkpt lat="47.2794220" lon="6.9065250">
        <ele>855.6</ele>
        <time>2022-07-21T07:34:07Z</time>
      </trkpt>
      <trkpt lat="47.2794300" lon="6.9065630">
        <ele>855.7</ele>
        <time>2022-07-21T07:34:08Z</time>
      </trkpt>
      <trkpt lat="47.2794360" lon="6.9066050">
        <ele>855.8</ele>
        <time>2022-07-21T07:34:09Z</time>
      </trkpt>
      <trkpt lat="47.2794410" lon="6.9066480">
        <ele>855.9</ele>
        <time>2022-07-21T07:34:10Z</time>
      </trkpt>
      <trkpt lat="47.2794520" lon="6.9067050">
        <ele>856.0</ele>
        <time>2022-07-21T07:34:11Z</time>
      </trkpt>
      <trkpt lat="47.2794610" lon="6.9067560">
        <ele>856.1</ele>
        <time>2022-07-21T07:34:12Z</time>
      </trkpt>
      <trkpt lat="47.2794810" lon="6.9068560">
        <ele>856.4</ele>
        <time>2022-07-21T07:34:14Z</time>
      </trkpt>
      <trkpt lat="47.2794940" lon="6.9069080">
        <ele>856.5</ele>
        <time>2022-07-21T07:34:15Z</time>
      </trkpt>
      <trkpt lat="47.2795050" lon="6.9069550">
        <ele>856.6</ele>
        <time>2022-07-21T07:34:16Z</time>
      </trkpt>
      <trkpt lat="47.2795160" lon="6.9070020">
        <ele>856.7</ele>
        <time>2022-07-21T07:34:17Z</time>
      </trkpt>
      <trkpt lat="47.2795270" lon="6.9070530">
        <ele>856.8</ele>
        <time>2022-07-21T07:34:18Z</time>
      </trkpt>
      <trkpt lat="47.2795370" lon="6.9071330">
        <ele>857.0</ele>
        <time>2022-07-21T07:34:19Z</time>
      </trkpt>
      <trkpt lat="47.2795440" lon="6.9071800">
        <ele>857.1</ele>
        <time>2022-07-21T07:34:20Z</time>
      </trkpt>
      <trkpt lat="47.2795530" lon="6.9072360">
        <ele>857.2</ele>
        <time>2022-07-21T07:34:21Z</time>
      </trkpt>
      <trkpt lat="47.2795680" lon="6.9073070">
        <ele>857.3</ele>
        <time>2022-07-21T07:34:23Z</time>
      </trkpt>
      <trkpt lat="47.2795810" lon="6.9073680">
        <ele>857.4</ele>
        <time>2022-07-21T07:34:24Z</time>
      </trkpt>
      <trkpt lat="47.2795900" lon="6.9074230">
        <ele>857.5</ele>
        <time>2022-07-21T07:34:25Z</time>
      </trkpt>
      <trkpt lat="47.2796000" lon="6.9074780">
        <ele>857.6</ele>
        <time>2022-07-21T07:34:26Z</time>
      </trkpt>
      <trkpt lat="47.2796100" lon="6.9075380">
        <ele>857.7</ele>
        <time>2022-07-21T07:34:27Z</time>
      </trkpt>
      <trkpt lat="47.2796290" lon="6.9076360">
        <ele>857.9</ele>
        <time>2022-07-21T07:34:29Z</time>
      </trkpt>
      <trkpt lat="47.2796370" lon="6.9076980">
        <ele>858.0</ele>
        <time>2022-07-21T07:34:30Z</time>
      </trkpt>
      <trkpt lat="47.2796450" lon="6.9077560">
        <ele>858.1</ele>
        <time>2022-07-21T07:34:31Z</time>
      </trkpt>
      <trkpt lat="47.2796530" lon="6.9078140">
        <ele>858.2</ele>
        <time>2022-07-21T07:34:32Z</time>
      </trkpt>
      <trkpt lat="47.2796650" lon="6.9078920">
        <ele>858.3</ele>
        <time>2022-07-21T07:34:33Z</time>
      </trkpt>
      <trkpt lat="47.2796760" lon="6.9079780">
        <ele>858.5</ele>
        <time>2022-07-21T07:34:35Z</time>
      </trkpt>
      <trkpt lat="47.2796860" lon="6.9080720">
        <ele>858.6</ele>
        <time>2022-07-21T07:34:36Z</time>
      </trkpt>
      <trkpt lat="47.2796950" lon="6.9081470">
        <ele>858.7</ele>
        <time>2022-07-21T07:34:38Z</time>
      </trkpt>
      <trkpt lat="47.2797040" lon="6.9082050">
        <ele>858.8</ele>
        <time>2022-07-21T07:34:39Z</time>
      </trkpt>
      <trkpt lat="47.2797100" lon="6.9082600">
        <ele>858.9</ele>
        <time>2022-07-21T07:34:40Z</time>
      </trkpt>
      <trkpt lat="47.2797190" lon="6.9083180">
        <ele>859.0</ele>
        <time>2022-07-21T07:34:41Z</time>
      </trkpt>
      <trkpt lat="47.2797280" lon="6.9083740">
        <ele>859.1</ele>
        <time>2022-07-21T07:34:42Z</time>
      </trkpt>
      <trkpt lat="47.2797420" lon="6.9084740">
        <ele>859.2</ele>
        <time>2022-07-21T07:34:44Z</time>
      </trkpt>
      <trkpt lat="47.2797500" lon="6.9085290">
        <ele>859.3</ele>
        <time>2022-07-21T07:34:45Z</time>
      </trkpt>
      <trkpt lat="47.2797560" lon="6.9085860">
        <ele>859.4</ele>
        <time>2022-07-21T07:34:46Z</time>
      </trkpt>
      <trkpt lat="47.2797740" lon="6.9086630">
        <ele>859.5</ele>
        <time>2022-07-21T07:34:47Z</time>
      </trkpt>
      <trkpt lat="47.2797850" lon="6.9087190">
        <ele>859.6</ele>
        <time>2022-07-21T07:34:48Z</time>
      </trkpt>
      <trkpt lat="47.2797970" lon="6.9087990">
        <ele>859.7</ele>
        <time>2022-07-21T07:34:50Z</time>
      </trkpt>
      <trkpt lat="47.2798080" lon="6.9088630">
        <ele>859.8</ele>
        <time>2022-07-21T07:34:51Z</time>
      </trkpt>
      <trkpt lat="47.2798270" lon="6.9089670">
        <ele>860.0</ele>
        <time>2022-07-21T07:34:53Z</time>
      </trkpt>
      <trkpt lat="47.2798400" lon="6.9090310">
        <ele>860.1</ele>
        <time>2022-07-21T07:34:54Z</time>
      </trkpt>
      <trkpt lat="47.2798480" lon="6.9090830">
        <ele>860.2</ele>
        <time>2022-07-21T07:34:55Z</time>
      </trkpt>
      <trkpt lat="47.2798560" lon="6.9091430">
        <ele>860.3</ele>
        <time>2022-07-21T07:34:56Z</time>
      </trkpt>
      <trkpt lat="47.2798630" lon="6.9091970">
        <ele>860.4</ele>
        <time>2022-07-21T07:34:57Z</time>
      </trkpt>
      <trkpt lat="47.2798910" lon="6.9093010">
        <ele>860.6</ele>
        <time>2022-07-21T07:34:59Z</time>
      </trkpt>
      <trkpt lat="47.2799010" lon="6.9093540">
        <ele>860.7</ele>
        <time>2022-07-21T07:35:00Z</time>
      </trkpt>
      <trkpt lat="47.2799100" lon="6.9093980">
        <ele>860.8</ele>
        <time>2022-07-21T07:35:01Z</time>
      </trkpt>
      <trkpt lat="47.2799180" lon="6.9094460">
        <ele>860.9</ele>
        <time>2022-07-21T07:35:02Z</time>
      </trkpt>
      <trkpt lat="47.2799250" lon="6.9094920">
        <ele>861.0</ele>
        <time>2022-07-21T07:35:03Z</time>
      </trkpt>
      <trkpt lat="47.2799330" lon="6.9095400">
        <ele>861.1</ele>
        <time>2022-07-21T07:35:04Z</time>
      </trkpt>
      <trkpt lat="47.2799420" lon="6.9095940">
        <ele>861.2</ele>
        <time>2022-07-21T07:35:05Z</time>
      </trkpt>
      <trkpt lat="47.2799540" lon="6.9096450">
        <ele>861.3</ele>
        <time>2022-07-21T07:35:06Z</time>
      </trkpt>
      <trkpt lat="47.2799670" lon="6.9096990">
        <ele>861.3</ele>
        <time>2022-07-21T07:35:07Z</time>
      </trkpt>
      <trkpt lat="47.2799810" lon="6.9097490">
        <ele>861.4</ele>
        <time>2022-07-21T07:35:08Z</time>
      </trkpt>
      <trkpt lat="47.2799940" lon="6.9098000">
        <ele>861.5</ele>
        <time>2022-07-21T07:35:09Z</time>
      </trkpt>
      <trkpt lat="47.2800070" lon="6.9098530">
        <ele>861.5</ele>
        <time>2022-07-21T07:35:10Z</time>
      </trkpt>
      <trkpt lat="47.2800190" lon="6.9099030">
        <ele>861.6</ele>
        <time>2022-07-21T07:35:11Z</time>
      </trkpt>
      <trkpt lat="47.2800370" lon="6.9099600">
        <ele>861.7</ele>
        <time>2022-07-21T07:35:12Z</time>
      </trkpt>
      <trkpt lat="47.2800520" lon="6.9100090">
        <ele>861.8</ele>
        <time>2022-07-21T07:35:13Z</time>
      </trkpt>
      <trkpt lat="47.2800650" lon="6.9100560">
        <ele>861.8</ele>
        <time>2022-07-21T07:35:14Z</time>
      </trkpt>
      <trkpt lat="47.2800770" lon="6.9101050">
        <ele>861.9</ele>
        <time>2022-07-21T07:35:15Z</time>
      </trkpt>
      <trkpt lat="47.2800890" lon="6.9101510">
        <ele>862.0</ele>
        <time>2022-07-21T07:35:16Z</time>
      </trkpt>
      <trkpt lat="47.2801010" lon="6.9101950">
        <ele>862.0</ele>
        <time>2022-07-21T07:35:17Z</time>
      </trkpt>
      <trkpt lat="47.2801110" lon="6.9102350">
        <ele>862.1</ele>
        <time>2022-07-21T07:35:18Z</time>
      </trkpt>
      <trkpt lat="47.2801190" lon="6.9102840">
        <ele>862.1</ele>
        <time>2022-07-21T07:35:19Z</time>
      </trkpt>
      <trkpt lat="47.2801280" lon="6.9103330">
        <ele>862.2</ele>
        <time>2022-07-21T07:35:20Z</time>
      </trkpt>
      <trkpt lat="47.2801370" lon="6.9103800">
        <ele>862.3</ele>
        <time>2022-07-21T07:35:21Z</time>
      </trkpt>
      <trkpt lat="47.2801480" lon="6.9104240">
        <ele>862.4</ele>
        <time>2022-07-21T07:35:22Z</time>
      </trkpt>
      <trkpt lat="47.2801580" lon="6.9104630">
        <ele>862.4</ele>
        <time>2022-07-21T07:35:23Z</time>
      </trkpt>
      <trkpt lat="47.2801580" lon="6.9104930">
        <ele>862.5</ele>
        <time>2022-07-21T07:35:24Z</time>
      </trkpt>
      <trkpt lat="47.2801390" lon="6.9105080">
        <ele>862.5</ele>
        <time>2022-07-21T07:35:25Z</time>
      </trkpt>
      <trkpt lat="47.2801200" lon="6.9105160">
        <ele>862.5</ele>
        <time>2022-07-21T07:35:27Z</time>
      </trkpt>
      <trkpt lat="47.2801130" lon="6.9105230">
        <ele>862.6</ele>
        <time>2022-07-21T07:35:28Z</time>
      </trkpt>
      <trkpt lat="47.2801120" lon="6.9105180">
        <ele>862.6</ele>
        <time>2022-07-21T07:35:29Z</time>
      </trkpt>
      <trkpt lat="47.2801100" lon="6.9105140">
        <ele>862.6</ele>
        <time>2022-07-21T07:35:30Z</time>
      </trkpt>
      <trkpt lat="47.2801080" lon="6.9105110">
        <ele>862.6</ele>
        <time>2022-07-21T07:35:31Z</time>
      </trkpt>
      <trkpt lat="47.2801060" lon="6.9105080">
        <ele>862.6</ele>
        <time>2022-07-21T07:35:32Z</time>
      </trkpt>
      <trkpt lat="47.2801050" lon="6.9105050">
        <ele>862.6</ele>
        <time>2022-07-21T07:35:33Z</time>
      </trkpt>
      <trkpt lat="47.2801050" lon="6.9104960">
        <ele>862.6</ele>
        <time>2022-07-21T07:35:34Z</time>
      </trkpt>
      <trkpt lat="47.2801050" lon="6.9104880">
        <ele>862.6</ele>
        <time>2022-07-21T07:35:35Z</time>
      </trkpt>
      <trkpt lat="47.2801080" lon="6.9104850">
        <ele>862.6</ele>
        <time>2022-07-21T07:35:36Z</time>
      </trkpt>
      <trkpt lat="47.2801090" lon="6.9104860">
        <ele>862.6</ele>
        <time>2022-07-21T07:35:37Z</time>
      </trkpt>
      <trkpt lat="47.2801110" lon="6.9104860">
        <ele>862.6</ele>
        <time>2022-07-21T07:35:38Z</time>
      </trkpt>
      <trkpt lat="47.2801120" lon="6.9104860">
        <ele>862.6</ele>
        <time>2022-07-21T07:35:39Z</time>
      </trkpt>
      <trkpt lat="47.2801130" lon="6.9104840">
        <ele>862.6</ele>
        <time>2022-07-21T07:35:40Z</time>
      </trkpt>
      <trkpt lat="47.2801130" lon="6.9104830">
        <ele>862.6</ele>
        <time>2022-07-21T07:35:41Z</time>
      </trkpt>
      <trkpt lat="47.2801130" lon="6.9104840">
        <ele>862.6</ele>
        <time>2022-07-21T07:35:42Z</time>
      </trkpt>
      <trkpt lat="47.2801130" lon="6.9104840">
        <ele>862.6</ele>
        <time>2022-07-21T07:35:43Z</time>
      </trkpt>
      <trkpt lat="47.2801130" lon="6.9104850">
        <ele>862.6</ele>
        <time>2022-07-21T07:35:44Z</time>
      </trkpt>
      <trkpt lat="47.2801130" lon="6.9104850">
        <ele>862.6</ele>
        <time>2022-07-21T07:35:45Z</time>
      </trkpt>
      <trkpt lat="47.2801380" lon="6.9105000">
        <ele>862.7</ele>
        <time>2022-07-21T07:36:44Z</time>
      </trkpt>
      <trkpt lat="47.2801380" lon="6.9104970">
        <ele>862.7</ele>
        <time>2022-07-21T07:36:45Z</time>
      </trkpt>
      <trkpt lat="47.2801370" lon="6.9104950">
        <ele>862.7</ele>
        <time>2022-07-21T07:36:46Z</time>
      </trkpt>
      <trkpt lat="47.2801370" lon="6.9104930">
        <ele>862.7</ele>
        <time>2022-07-21T07:36:47Z</time>
      </trkpt>
      <trkpt lat="47.2801360" lon="6.9104920">
        <ele>862.7</ele>
        <time>2022-07-21T07:36:48Z</time>
      </trkpt>
      <trkpt lat="47.2801370" lon="6.9104890">
        <ele>862.7</ele>
        <time>2022-07-21T07:36:49Z</time>
      </trkpt>
      <trkpt lat="47.2801390" lon="6.9104840">
        <ele>862.7</ele>
        <time>2022-07-21T07:36:50Z</time>
      </trkpt>
      <trkpt lat="47.2801410" lon="6.9104790">
        <ele>862.7</ele>
        <time>2022-07-21T07:36:51Z</time>
      </trkpt>
      <trkpt lat="47.2801440" lon="6.9104740">
        <ele>862.8</ele>
        <time>2022-07-21T07:36:52Z</time>
      </trkpt>
      <trkpt lat="47.2801450" lon="6.9104710">
        <ele>862.8</ele>
        <time>2022-07-21T07:36:53Z</time>
      </trkpt>
      <trkpt lat="47.2801460" lon="6.9104710">
        <ele>862.8</ele>
        <time>2022-07-21T07:36:54Z</time>
      </trkpt>
      <trkpt lat="47.2801460" lon="6.9104720">
        <ele>862.8</ele>
        <time>2022-07-21T07:36:55Z</time>
      </trkpt>
      <trkpt lat="47.2801470" lon="6.9104730">
        <ele>862.8</ele>
        <time>2022-07-21T07:36:56Z</time>
      </trkpt>
      <trkpt lat="47.2801470" lon="6.9104730">
        <ele>862.8</ele>
        <time>2022-07-21T07:36:57Z</time>
      </trkpt>
      <trkpt lat="47.2801470" lon="6.9104720">
        <ele>862.8</ele>
        <time>2022-07-21T07:36:58Z</time>
      </trkpt>
      <trkpt lat="47.2801490" lon="6.9104670">
        <ele>862.8</ele>
        <time>2022-07-21T07:36:59Z</time>
      </trkpt>
      <trkpt lat="47.2801500" lon="6.9104650">
        <ele>862.8</ele>
        <time>2022-07-21T07:37:00Z</time>
      </trkpt>
      <trkpt lat="47.2801510" lon="6.9104650">
        <ele>862.8</ele>
        <time>2022-07-21T07:37:01Z</time>
      </trkpt>
      <trkpt lat="47.2801510" lon="6.9104650">
        <ele>862.8</ele>
        <time>2022-07-21T07:37:02Z</time>
      </trkpt>
      <trkpt lat="47.2801470" lon="6.9105080">
        <ele>862.8</ele>
        <time>2022-07-21T07:37:47Z</time>
      </trkpt>
      <trkpt lat="47.2801460" lon="6.9105120">
        <ele>862.8</ele>
        <time>2022-07-21T07:37:48Z</time>
      </trkpt>
      <trkpt lat="47.2801530" lon="6.9105260">
        <ele>862.9</ele>
        <time>2022-07-21T07:37:49Z</time>
      </trkpt>
      <trkpt lat="47.2801630" lon="6.9105430">
        <ele>862.9</ele>
        <time>2022-07-21T07:37:50Z</time>
      </trkpt>
      <trkpt lat="47.2801770" lon="6.9105640">
        <ele>862.9</ele>
        <time>2022-07-21T07:37:51Z</time>
      </trkpt>
      <trkpt lat="47.2801830" lon="6.9105720">
        <ele>863.0</ele>
        <time>2022-07-21T07:37:52Z</time>
      </trkpt>
      <trkpt lat="47.2801900" lon="6.9105800">
        <ele>863.0</ele>
        <time>2022-07-21T07:37:53Z</time>
      </trkpt>
      <trkpt lat="47.2802100" lon="6.9106080">
        <ele>863.0</ele>
        <time>2022-07-21T07:37:54Z</time>
      </trkpt>
      <trkpt lat="47.2802160" lon="6.9106170">
        <ele>863.0</ele>
        <time>2022-07-21T07:37:55Z</time>
      </trkpt>
      <trkpt lat="47.2802360" lon="6.9106490">
        <ele>862.9</ele>
        <time>2022-07-21T07:37:56Z</time>
      </trkpt>
      <trkpt lat="47.2802410" lon="6.9106610">
        <ele>862.9</ele>
        <time>2022-07-21T07:37:57Z</time>
      </trkpt>
      <trkpt lat="47.2802590" lon="6.9107130">
        <ele>862.9</ele>
        <time>2022-07-21T07:37:58Z</time>
      </trkpt>
      <trkpt lat="47.2802640" lon="6.9107320">
        <ele>862.9</ele>
        <time>2022-07-21T07:37:59Z</time>
      </trkpt>
      <trkpt lat="47.2802740" lon="6.9107760">
        <ele>862.9</ele>
        <time>2022-07-21T07:38:00Z</time>
      </trkpt>
      <trkpt lat="47.2802820" lon="6.9108240">
        <ele>862.9</ele>
        <time>2022-07-21T07:38:01Z</time>
      </trkpt>
      <trkpt lat="47.2802900" lon="6.9108730">
        <ele>862.8</ele>
        <time>2022-07-21T07:38:02Z</time>
      </trkpt>
      <trkpt lat="47.2802970" lon="6.9109320">
        <ele>862.8</ele>
        <time>2022-07-21T07:38:03Z</time>
      </trkpt>
      <trkpt lat="47.2802990" lon="6.9109980">
        <ele>862.7</ele>
        <time>2022-07-21T07:38:04Z</time>
      </trkpt>
      <trkpt lat="47.2803030" lon="6.9110730">
        <ele>862.6</ele>
        <time>2022-07-21T07:38:05Z</time>
      </trkpt>
      <trkpt lat="47.2803080" lon="6.9111520">
        <ele>862.4</ele>
        <time>2022-07-21T07:38:06Z</time>
      </trkpt>
      <trkpt lat="47.2803100" lon="6.9112350">
        <ele>862.2</ele>
        <time>2022-07-21T07:38:07Z</time>
      </trkpt>
      <trkpt lat="47.2803100" lon="6.9113210">
        <ele>862.1</ele>
        <time>2022-07-21T07:38:08Z</time>
      </trkpt>
      <trkpt lat="47.2803210" lon="6.9114110">
        <ele>861.9</ele>
        <time>2022-07-21T07:38:09Z</time>
      </trkpt>
      <trkpt lat="47.2803250" lon="6.9115030">
        <ele>861.5</ele>
        <time>2022-07-21T07:38:10Z</time>
      </trkpt>
      <trkpt lat="47.2803110" lon="6.9116020">
        <ele>861.1</ele>
        <time>2022-07-21T07:38:11Z</time>
      </trkpt>
      <trkpt lat="47.2802980" lon="6.9117070">
        <ele>860.6</ele>
        <time>2022-07-21T07:38:12Z</time>
      </trkpt>
      <trkpt lat="47.2802770" lon="6.9118050">
        <ele>860.1</ele>
        <time>2022-07-21T07:38:13Z</time>
      </trkpt>
      <trkpt lat="47.2802400" lon="6.9119030">
        <ele>859.5</ele>
        <time>2022-07-21T07:38:14Z</time>
      </trkpt>
      <trkpt lat="47.2802060" lon="6.9120030">
        <ele>859.0</ele>
        <time>2022-07-21T07:38:15Z</time>
      </trkpt>
      <trkpt lat="47.2801750" lon="6.9121070">
        <ele>858.4</ele>
        <time>2022-07-21T07:38:16Z</time>
      </trkpt>
      <trkpt lat="47.2801450" lon="6.9122130">
        <ele>857.9</ele>
        <time>2022-07-21T07:38:17Z</time>
      </trkpt>
      <trkpt lat="47.2801070" lon="6.9123160">
        <ele>857.4</ele>
        <time>2022-07-21T07:38:18Z</time>
      </trkpt>
      <trkpt lat="47.2800730" lon="6.9124230">
        <ele>856.8</ele>
        <time>2022-07-21T07:38:19Z</time>
      </trkpt>
      <trkpt lat="47.2800710" lon="6.9125550">
        <ele>856.2</ele>
        <time>2022-07-21T07:38:20Z</time>
      </trkpt>
      <trkpt lat="47.2800690" lon="6.9126710">
        <ele>855.7</ele>
        <time>2022-07-21T07:38:21Z</time>
      </trkpt>
      <trkpt lat="47.2800680" lon="6.9127880">
        <ele>855.2</ele>
        <time>2022-07-21T07:38:22Z</time>
      </trkpt>
      <trkpt lat="47.2800740" lon="6.9129200">
        <ele>854.6</ele>
        <time>2022-07-21T07:38:23Z</time>
      </trkpt>
      <trkpt lat="47.2800830" lon="6.9130480">
        <ele>854.1</ele>
        <time>2022-07-21T07:38:24Z</time>
      </trkpt>
      <trkpt lat="47.2800870" lon="6.9131850">
        <ele>853.5</ele>
        <time>2022-07-21T07:38:25Z</time>
      </trkpt>
      <trkpt lat="47.2800850" lon="6.9133190">
        <ele>853.0</ele>
        <time>2022-07-21T07:38:26Z</time>
      </trkpt>
      <trkpt lat="47.2800920" lon="6.9134560">
        <ele>852.4</ele>
        <time>2022-07-21T07:38:27Z</time>
      </trkpt>
      <trkpt lat="47.2800820" lon="6.9135950">
        <ele>851.9</ele>
        <time>2022-07-21T07:38:28Z</time>
      </trkpt>
      <trkpt lat="47.2800730" lon="6.9137170">
        <ele>851.5</ele>
        <time>2022-07-21T07:38:29Z</time>
      </trkpt>
      <trkpt lat="47.2800780" lon="6.9138400">
        <ele>851.0</ele>
        <time>2022-07-21T07:38:30Z</time>
      </trkpt>
      <trkpt lat="47.2800770" lon="6.9139440">
        <ele>850.7</ele>
        <time>2022-07-21T07:38:31Z</time>
      </trkpt>
      <trkpt lat="47.2800770" lon="6.9140250">
        <ele>850.5</ele>
        <time>2022-07-21T07:38:32Z</time>
      </trkpt>
      <trkpt lat="47.2800780" lon="6.9140950">
        <ele>850.4</ele>
        <time>2022-07-21T07:38:33Z</time>
      </trkpt>
      <trkpt lat="47.2800790" lon="6.9141540">
        <ele>850.4</ele>
        <time>2022-07-21T07:38:34Z</time>
      </trkpt>
      <trkpt lat="47.2800830" lon="6.9142100">
        <ele>850.5</ele>
        <time>2022-07-21T07:38:35Z</time>
      </trkpt>
      <trkpt lat="47.2800850" lon="6.9142270">
        <ele>850.5</ele>
        <time>2022-07-21T07:38:36Z</time>
      </trkpt>
      <trkpt lat="47.2800920" lon="6.9142390">
        <ele>850.4</ele>
        <time>2022-07-21T07:38:37Z</time>
      </trkpt>
      <trkpt lat="47.2800920" lon="6.9142500">
        <ele>850.3</ele>
        <time>2022-07-21T07:38:38Z</time>
      </trkpt>
      <trkpt lat="47.2800860" lon="6.9142760">
        <ele>850.2</ele>
        <time>2022-07-21T07:38:39Z</time>
      </trkpt>
      <trkpt lat="47.2800920" lon="6.9143160">
        <ele>850.0</ele>
        <time>2022-07-21T07:38:40Z</time>
      </trkpt>
      <trkpt lat="47.2800980" lon="6.9143280">
        <ele>849.9</ele>
        <time>2022-07-21T07:38:41Z</time>
      </trkpt>
      <trkpt lat="47.2801140" lon="6.9143810">
        <ele>849.7</ele>
        <time>2022-07-21T07:38:42Z</time>
      </trkpt>
      <trkpt lat="47.2801190" lon="6.9144030">
        <ele>849.5</ele>
        <time>2022-07-21T07:38:43Z</time>
      </trkpt>
      <trkpt lat="47.2801300" lon="6.9144520">
        <ele>849.3</ele>
        <time>2022-07-21T07:38:44Z</time>
      </trkpt>
      <trkpt lat="47.2801480" lon="6.9145090">
        <ele>849.0</ele>
        <time>2022-07-21T07:38:45Z</time>
      </trkpt>
      <trkpt lat="47.2801490" lon="6.9145810">
        <ele>848.7</ele>
        <time>2022-07-21T07:38:46Z</time>
      </trkpt>
      <trkpt lat="47.2801430" lon="6.9146570">
        <ele>848.4</ele>
        <time>2022-07-21T07:38:47Z</time>
      </trkpt>
      <trkpt lat="47.2801380" lon="6.9147320">
        <ele>848.0</ele>
        <time>2022-07-21T07:38:48Z</time>
      </trkpt>
      <trkpt lat="47.2801440" lon="6.9148110">
        <ele>847.7</ele>
        <time>2022-07-21T07:38:49Z</time>
      </trkpt>
      <trkpt lat="47.2801490" lon="6.9148950">
        <ele>847.3</ele>
        <time>2022-07-21T07:38:50Z</time>
      </trkpt>
      <trkpt lat="47.2801570" lon="6.9149780">
        <ele>846.8</ele>
        <time>2022-07-21T07:38:51Z</time>
      </trkpt>
      <trkpt lat="47.2801700" lon="6.9150560">
        <ele>846.4</ele>
        <time>2022-07-21T07:38:52Z</time>
      </trkpt>
      <trkpt lat="47.2801880" lon="6.9151300">
        <ele>846.0</ele>
        <time>2022-07-21T07:38:53Z</time>
      </trkpt>
      <trkpt lat="47.2802070" lon="6.9152040">
        <ele>845.5</ele>
        <time>2022-07-21T07:38:54Z</time>
      </trkpt>
      <trkpt lat="47.2802290" lon="6.9152740">
        <ele>845.1</ele>
        <time>2022-07-21T07:38:55Z</time>
      </trkpt>
      <trkpt lat="47.2802730" lon="6.9153290">
        <ele>844.6</ele>
        <time>2022-07-21T07:38:56Z</time>
      </trkpt>
      <trkpt lat="47.2803220" lon="6.9153680">
        <ele>844.1</ele>
        <time>2022-07-21T07:38:57Z</time>
      </trkpt>
      <trkpt lat="47.2803680" lon="6.9153930">
        <ele>843.6</ele>
        <time>2022-07-21T07:38:58Z</time>
      </trkpt>
      <trkpt lat="47.2804100" lon="6.9153930">
        <ele>843.4</ele>
        <time>2022-07-21T07:38:59Z</time>
      </trkpt>
      <trkpt lat="47.2804450" lon="6.9154060">
        <ele>843.1</ele>
        <time>2022-07-21T07:39:00Z</time>
      </trkpt>
      <trkpt lat="47.2804810" lon="6.9154190">
        <ele>842.8</ele>
        <time>2022-07-21T07:39:01Z</time>
      </trkpt>
      <trkpt lat="47.2805090" lon="6.9154250">
        <ele>842.6</ele>
        <time>2022-07-21T07:39:02Z</time>
      </trkpt>
      <trkpt lat="47.2805380" lon="6.9154410">
        <ele>842.4</ele>
        <time>2022-07-21T07:39:03Z</time>
      </trkpt>
      <trkpt lat="47.2805700" lon="6.9154530">
        <ele>842.1</ele>
        <time>2022-07-21T07:39:04Z</time>
      </trkpt>
      <trkpt lat="47.2805810" lon="6.9154580">
        <ele>842.0</ele>
        <time>2022-07-21T07:39:05Z</time>
      </trkpt>
      <trkpt lat="47.2805830" lon="6.9154570">
        <ele>842.0</ele>
        <time>2022-07-21T07:39:06Z</time>
      </trkpt>
      <trkpt lat="47.2805850" lon="6.9154500">
        <ele>842.0</ele>
        <time>2022-07-21T07:39:07Z</time>
      </trkpt>
      <trkpt lat="47.2805810" lon="6.9154430">
        <ele>841.9</ele>
        <time>2022-07-21T07:39:08Z</time>
      </trkpt>
      <trkpt lat="47.2805750" lon="6.9154380">
        <ele>841.9</ele>
        <time>2022-07-21T07:39:09Z</time>
      </trkpt>
      <trkpt lat="47.2805730" lon="6.9154390">
        <ele>841.8</ele>
        <time>2022-07-21T07:39:10Z</time>
      </trkpt>
      <trkpt lat="47.2805720" lon="6.9154400">
        <ele>841.8</ele>
        <time>2022-07-21T07:39:11Z</time>
      </trkpt>
      <trkpt lat="47.2805690" lon="6.9154390">
        <ele>841.8</ele>
        <time>2022-07-21T07:39:12Z</time>
      </trkpt>
      <trkpt lat="47.2805650" lon="6.9154360">
        <ele>841.8</ele>
        <time>2022-07-21T07:39:13Z</time>
      </trkpt>
      <trkpt lat="47.2805610" lon="6.9154330">
        <ele>841.7</ele>
        <time>2022-07-21T07:39:14Z</time>
      </trkpt>
      <trkpt lat="47.2805580" lon="6.9154300">
        <ele>841.7</ele>
        <time>2022-07-21T07:39:15Z</time>
      </trkpt>
      <trkpt lat="47.2805580" lon="6.9154310">
        <ele>841.7</ele>
        <time>2022-07-21T07:39:16Z</time>
      </trkpt>
      <trkpt lat="47.2805590" lon="6.9154320">
        <ele>841.7</ele>
        <time>2022-07-21T07:39:17Z</time>
      </trkpt>
      <trkpt lat="47.2805630" lon="6.9154360">
        <ele>841.7</ele>
        <time>2022-07-21T07:39:18Z</time>
      </trkpt>
      <trkpt lat="47.2805650" lon="6.9154390">
        <ele>841.6</ele>
        <time>2022-07-21T07:39:19Z</time>
      </trkpt>
      <trkpt lat="47.2805700" lon="6.9154450">
        <ele>841.6</ele>
        <time>2022-07-21T07:39:20Z</time>
      </trkpt>
      <trkpt lat="47.2805720" lon="6.9154470">
        <ele>841.6</ele>
        <time>2022-07-21T07:39:21Z</time>
      </trkpt>
      <trkpt lat="47.2805720" lon="6.9154460">
        <ele>841.6</ele>
        <time>2022-07-21T07:39:22Z</time>
      </trkpt>
      <trkpt lat="47.2805710" lon="6.9154440">
        <ele>841.6</ele>
        <time>2022-07-21T07:39:23Z</time>
      </trkpt>
      <trkpt lat="47.2805650" lon="6.9154390">
        <ele>841.5</ele>
        <time>2022-07-21T07:39:24Z</time>
      </trkpt>
      <trkpt lat="47.2805620" lon="6.9154350">
        <ele>841.5</ele>
        <time>2022-07-21T07:39:25Z</time>
      </trkpt>
      <trkpt lat="47.2805620" lon="6.9154320">
        <ele>841.5</ele>
        <time>2022-07-21T07:39:26Z</time>
      </trkpt>
      <trkpt lat="47.2805660" lon="6.9154310">
        <ele>841.4</ele>
        <time>2022-07-21T07:39:27Z</time>
      </trkpt>
      <trkpt lat="47.2805660" lon="6.9154310">
        <ele>841.4</ele>
        <time>2022-07-21T07:39:28Z</time>
      </trkpt>
      <trkpt lat="47.2805670" lon="6.9154280">
        <ele>841.4</ele>
        <time>2022-07-21T07:39:29Z</time>
      </trkpt>
      <trkpt lat="47.2805710" lon="6.9154200">
        <ele>841.4</ele>
        <time>2022-07-21T07:39:30Z</time>
      </trkpt>
      <trkpt lat="47.2805760" lon="6.9154120">
        <ele>841.3</ele>
        <time>2022-07-21T07:39:31Z</time>
      </trkpt>
      <trkpt lat="47.2805790" lon="6.9154120">
        <ele>841.3</ele>
        <time>2022-07-21T07:39:32Z</time>
      </trkpt>
      <trkpt lat="47.2805790" lon="6.9154140">
        <ele>841.3</ele>
        <time>2022-07-21T07:39:33Z</time>
      </trkpt>
      <trkpt lat="47.2805780" lon="6.9154130">
        <ele>841.3</ele>
        <time>2022-07-21T07:39:34Z</time>
      </trkpt>
      <trkpt lat="47.2805780" lon="6.9154130">
        <ele>841.3</ele>
        <time>2022-07-21T07:39:35Z</time>
      </trkpt>
      <trkpt lat="47.2805780" lon="6.9154130">
        <ele>841.3</ele>
        <time>2022-07-21T07:39:36Z</time>
      </trkpt>
      <trkpt lat="47.2805790" lon="6.9154120">
        <ele>841.3</ele>
        <time>2022-07-21T07:39:37Z</time>
      </trkpt>
      <trkpt lat="47.2805810" lon="6.9154120">
        <ele>841.2</ele>
        <time>2022-07-21T07:39:38Z</time>
      </trkpt>
      <trkpt lat="47.2805820" lon="6.9154120">
        <ele>841.2</ele>
        <time>2022-07-21T07:39:39Z</time>
      </trkpt>
      <trkpt lat="47.2805820" lon="6.9154120">
        <ele>841.2</ele>
        <time>2022-07-21T07:39:40Z</time>
      </trkpt>
      <trkpt lat="47.2805820" lon="6.9154120">
        <ele>841.2</ele>
        <time>2022-07-21T07:39:41Z</time>
      </trkpt>
      <trkpt lat="47.2805810" lon="6.9154110">
        <ele>841.2</ele>
        <time>2022-07-21T07:39:42Z</time>
      </trkpt>
      <trkpt lat="47.2806230" lon="6.9153820">
        <ele>840.9</ele>
        <time>2022-07-21T07:39:46Z</time>
      </trkpt>
      <trkpt lat="47.2806470" lon="6.9153630">
        <ele>840.7</ele>
        <time>2022-07-21T07:39:47Z</time>
      </trkpt>
      <trkpt lat="47.2806740" lon="6.9153340">
        <ele>840.4</ele>
        <time>2022-07-21T07:39:48Z</time>
      </trkpt>
      <trkpt lat="47.2806970" lon="6.9152970">
        <ele>840.2</ele>
        <time>2022-07-21T07:39:49Z</time>
      </trkpt>
      <trkpt lat="47.2807120" lon="6.9152580">
        <ele>839.9</ele>
        <time>2022-07-21T07:39:50Z</time>
      </trkpt>
      <trkpt lat="47.2807280" lon="6.9152130">
        <ele>839.7</ele>
        <time>2022-07-21T07:39:51Z</time>
      </trkpt>
      <trkpt lat="47.2807330" lon="6.9152020">
        <ele>839.6</ele>
        <time>2022-07-21T07:39:52Z</time>
      </trkpt>
      <trkpt lat="47.2807600" lon="6.9152030">
        <ele>839.4</ele>
        <time>2022-07-21T07:39:53Z</time>
      </trkpt>
      <trkpt lat="47.2807710" lon="6.9152090">
        <ele>839.3</ele>
        <time>2022-07-21T07:39:54Z</time>
      </trkpt>
      <trkpt lat="47.2808020" lon="6.9152340">
        <ele>838.8</ele>
        <time>2022-07-21T07:39:55Z</time>
      </trkpt>
      <trkpt lat="47.2808340" lon="6.9152700">
        <ele>838.3</ele>
        <time>2022-07-21T07:39:56Z</time>
      </trkpt>
      <trkpt lat="47.2808880" lon="6.9153370">
        <ele>837.3</ele>
        <time>2022-07-21T07:39:57Z</time>
      </trkpt>
      <trkpt lat="47.2809460" lon="6.9154180">
        <ele>836.4</ele>
        <time>2022-07-21T07:39:58Z</time>
      </trkpt>
      <trkpt lat="47.2810050" lon="6.9154900">
        <ele>835.5</ele>
        <time>2022-07-21T07:39:59Z</time>
      </trkpt>
      <trkpt lat="47.2810640" lon="6.9155460">
        <ele>834.8</ele>
        <time>2022-07-21T07:40:00Z</time>
      </trkpt>
      <trkpt lat="47.2811240" lon="6.9155940">
        <ele>834.2</ele>
        <time>2022-07-21T07:40:01Z</time>
      </trkpt>
      <trkpt lat="47.2811900" lon="6.9156500">
        <ele>833.7</ele>
        <time>2022-07-21T07:40:02Z</time>
      </trkpt>
      <trkpt lat="47.2812530" lon="6.9157150">
        <ele>833.2</ele>
        <time>2022-07-21T07:40:03Z</time>
      </trkpt>
      <trkpt lat="47.2813090" lon="6.9157840">
        <ele>832.9</ele>
        <time>2022-07-21T07:40:04Z</time>
      </trkpt>
      <trkpt lat="47.2813510" lon="6.9158440">
        <ele>832.6</ele>
        <time>2022-07-21T07:40:05Z</time>
      </trkpt>
      <trkpt lat="47.2813780" lon="6.9159080">
        <ele>832.5</ele>
        <time>2022-07-21T07:40:06Z</time>
      </trkpt>
      <trkpt lat="47.2813920" lon="6.9159460">
        <ele>832.4</ele>
        <time>2022-07-21T07:40:07Z</time>
      </trkpt>
      <trkpt lat="47.2814040" lon="6.9159920">
        <ele>832.4</ele>
        <time>2022-07-21T07:40:08Z</time>
      </trkpt>
      <trkpt lat="47.2813980" lon="6.9160460">
        <ele>832.3</ele>
        <time>2022-07-21T07:40:09Z</time>
      </trkpt>
      <trkpt lat="47.2813770" lon="6.9160780">
        <ele>832.2</ele>
        <time>2022-07-21T07:40:10Z</time>
      </trkpt>
      <trkpt lat="47.2813670" lon="6.9161220">
        <ele>832.1</ele>
        <time>2022-07-21T07:40:11Z</time>
      </trkpt>
      <trkpt lat="47.2813480" lon="6.9161590">
        <ele>832.0</ele>
        <time>2022-07-21T07:40:12Z</time>
      </trkpt>
      <trkpt lat="47.2813360" lon="6.9161660">
        <ele>831.9</ele>
        <time>2022-07-21T07:40:13Z</time>
      </trkpt>
      <trkpt lat="47.2812730" lon="6.9161900">
        <ele>831.5</ele>
        <time>2022-07-21T07:40:14Z</time>
      </trkpt>
      <trkpt lat="47.2812140" lon="6.9162090">
        <ele>831.2</ele>
        <time>2022-07-21T07:40:15Z</time>
      </trkpt>
      <trkpt lat="47.2811700" lon="6.9162360">
        <ele>830.9</ele>
        <time>2022-07-21T07:40:16Z</time>
      </trkpt>
      <trkpt lat="47.2811400" lon="6.9162800">
        <ele>830.7</ele>
        <time>2022-07-21T07:40:17Z</time>
      </trkpt>
      <trkpt lat="47.2810970" lon="6.9163410">
        <ele>830.4</ele>
        <time>2022-07-21T07:40:18Z</time>
      </trkpt>
      <trkpt lat="47.2810720" lon="6.9163940">
        <ele>830.1</ele>
        <time>2022-07-21T07:40:19Z</time>
      </trkpt>
      <trkpt lat="47.2810520" lon="6.9164360">
        <ele>829.9</ele>
        <time>2022-07-21T07:40:20Z</time>
      </trkpt>
      <trkpt lat="47.2810330" lon="6.9164640">
        <ele>829.8</ele>
        <time>2022-07-21T07:40:21Z</time>
      </trkpt>
      <trkpt lat="47.2810000" lon="6.9164970">
        <ele>829.6</ele>
        <time>2022-07-21T07:40:22Z</time>
      </trkpt>
      <trkpt lat="47.2809890" lon="6.9165070">
        <ele>829.5</ele>
        <time>2022-07-21T07:40:23Z</time>
      </trkpt>
      <trkpt lat="47.2809600" lon="6.9165330">
        <ele>829.3</ele>
        <time>2022-07-21T07:40:24Z</time>
      </trkpt>
      <trkpt lat="47.2809250" lon="6.9165680">
        <ele>829.0</ele>
        <time>2022-07-21T07:40:25Z</time>
      </trkpt>
      <trkpt lat="47.2808910" lon="6.9166100">
        <ele>828.7</ele>
        <time>2022-07-21T07:40:26Z</time>
      </trkpt>
      <trkpt lat="47.2808690" lon="6.9166420">
        <ele>828.5</ele>
        <time>2022-07-21T07:40:27Z</time>
      </trkpt>
      <trkpt lat="47.2808610" lon="6.9166550">
        <ele>828.4</ele>
        <time>2022-07-21T07:40:28Z</time>
      </trkpt>
      <trkpt lat="47.2808460" lon="6.9166690">
        <ele>828.3</ele>
        <time>2022-07-21T07:40:29Z</time>
      </trkpt>
      <trkpt lat="47.2808300" lon="6.9166900">
        <ele>828.2</ele>
        <time>2022-07-21T07:40:30Z</time>
      </trkpt>
      <trkpt lat="47.2808200" lon="6.9167030">
        <ele>828.1</ele>
        <time>2022-07-21T07:40:31Z</time>
      </trkpt>
      <trkpt lat="47.2808140" lon="6.9167210">
        <ele>828.1</ele>
        <time>2022-07-21T07:40:32Z</time>
      </trkpt>
      <trkpt lat="47.2808110" lon="6.9167510">
        <ele>828.0</ele>
        <time>2022-07-21T07:40:33Z</time>
      </trkpt>
      <trkpt lat="47.2808090" lon="6.9168050">
        <ele>827.8</ele>
        <time>2022-07-21T07:40:34Z</time>
      </trkpt>
      <trkpt lat="47.2808080" lon="6.9168230">
        <ele>827.7</ele>
        <time>2022-07-21T07:40:35Z</time>
      </trkpt>
      <trkpt lat="47.2807980" lon="6.9168790">
        <ele>827.6</ele>
        <time>2022-07-21T07:40:36Z</time>
      </trkpt>
      <trkpt lat="47.2807940" lon="6.9168980">
        <ele>827.5</ele>
        <time>2022-07-21T07:40:37Z</time>
      </trkpt>
      <trkpt lat="47.2807820" lon="6.9169410">
        <ele>827.3</ele>
        <time>2022-07-21T07:40:38Z</time>
      </trkpt>
      <trkpt lat="47.2807620" lon="6.9169920">
        <ele>827.2</ele>
        <time>2022-07-21T07:40:39Z</time>
      </trkpt>
      <trkpt lat="47.2807540" lon="6.9170090">
        <ele>827.1</ele>
        <time>2022-07-21T07:40:40Z</time>
      </trkpt>
      <trkpt lat="47.2807280" lon="6.9170560">
        <ele>826.9</ele>
        <time>2022-07-21T07:40:41Z</time>
      </trkpt>
      <trkpt lat="47.2807170" lon="6.9170730">
        <ele>826.8</ele>
        <time>2022-07-21T07:40:42Z</time>
      </trkpt>
      <trkpt lat="47.2806900" lon="6.9171200">
        <ele>826.6</ele>
        <time>2022-07-21T07:40:43Z</time>
      </trkpt>
      <trkpt lat="47.2806610" lon="6.9171660">
        <ele>826.3</ele>
        <time>2022-07-21T07:40:44Z</time>
      </trkpt>
      <trkpt lat="47.2806370" lon="6.9172090">
        <ele>826.1</ele>
        <time>2022-07-21T07:40:45Z</time>
      </trkpt>
      <trkpt lat="47.2806250" lon="6.9172480">
        <ele>825.9</ele>
        <time>2022-07-21T07:40:46Z</time>
      </trkpt>
      <trkpt lat="47.2806210" lon="6.9172930">
        <ele>825.8</ele>
        <time>2022-07-21T07:40:47Z</time>
      </trkpt>
      <trkpt lat="47.2806260" lon="6.9173430">
        <ele>825.6</ele>
        <time>2022-07-21T07:40:48Z</time>
      </trkpt>
      <trkpt lat="47.2806360" lon="6.9173840">
        <ele>825.5</ele>
        <time>2022-07-21T07:40:49Z</time>
      </trkpt>
      <trkpt lat="47.2806530" lon="6.9174280">
        <ele>825.4</ele>
        <time>2022-07-21T07:40:50Z</time>
      </trkpt>
      <trkpt lat="47.2806780" lon="6.9174760">
        <ele>825.2</ele>
        <time>2022-07-21T07:40:51Z</time>
      </trkpt>
      <trkpt lat="47.2807020" lon="6.9175260">
        <ele>825.1</ele>
        <time>2022-07-21T07:40:52Z</time>
      </trkpt>
      <trkpt lat="47.2807260" lon="6.9175690">
        <ele>825.0</ele>
        <time>2022-07-21T07:40:53Z</time>
      </trkpt>
      <trkpt lat="47.2807520" lon="6.9175960">
        <ele>824.9</ele>
        <time>2022-07-21T07:40:54Z</time>
      </trkpt>
      <trkpt lat="47.2807750" lon="6.9176190">
        <ele>824.9</ele>
        <time>2022-07-21T07:40:55Z</time>
      </trkpt>
      <trkpt lat="47.2807870" lon="6.9176290">
        <ele>824.8</ele>
        <time>2022-07-21T07:40:56Z</time>
      </trkpt>
      <trkpt lat="47.2807920" lon="6.9176340">
        <ele>824.8</ele>
        <time>2022-07-21T07:40:57Z</time>
      </trkpt>
      <trkpt lat="47.2807940" lon="6.9176380">
        <ele>824.8</ele>
        <time>2022-07-21T07:40:58Z</time>
      </trkpt>
      <trkpt lat="47.2807890" lon="6.9176460">
        <ele>824.8</ele>
        <time>2022-07-21T07:40:59Z</time>
      </trkpt>
      <trkpt lat="47.2807870" lon="6.9176570">
        <ele>824.8</ele>
        <time>2022-07-21T07:41:00Z</time>
      </trkpt>
      <trkpt lat="47.2807870" lon="6.9176690">
        <ele>824.8</ele>
        <time>2022-07-21T07:41:01Z</time>
      </trkpt>
      <trkpt lat="47.2807890" lon="6.9176750">
        <ele>824.8</ele>
        <time>2022-07-21T07:41:02Z</time>
      </trkpt>
      <trkpt lat="47.2807930" lon="6.9176790">
        <ele>824.7</ele>
        <time>2022-07-21T07:41:03Z</time>
      </trkpt>
      <trkpt lat="47.2807990" lon="6.9176870">
        <ele>824.7</ele>
        <time>2022-07-21T07:41:04Z</time>
      </trkpt>
      <trkpt lat="47.2808070" lon="6.9176960">
        <ele>824.7</ele>
        <time>2022-07-21T07:41:05Z</time>
      </trkpt>
      <trkpt lat="47.2808300" lon="6.9177270">
        <ele>824.6</ele>
        <time>2022-07-21T07:41:06Z</time>
      </trkpt>
      <trkpt lat="47.2808370" lon="6.9177370">
        <ele>824.6</ele>
        <time>2022-07-21T07:41:07Z</time>
      </trkpt>
      <trkpt lat="47.2808530" lon="6.9177700">
        <ele>824.5</ele>
        <time>2022-07-21T07:41:08Z</time>
      </trkpt>
      <trkpt lat="47.2808580" lon="6.9177810">
        <ele>824.5</ele>
        <time>2022-07-21T07:41:09Z</time>
      </trkpt>
      <trkpt lat="47.2808690" lon="6.9178210">
        <ele>824.3</ele>
        <time>2022-07-21T07:41:10Z</time>
      </trkpt>
      <trkpt lat="47.2808730" lon="6.9178360">
        <ele>824.3</ele>
        <time>2022-07-21T07:41:11Z</time>
      </trkpt>
      <trkpt lat="47.2808870" lon="6.9178790">
        <ele>824.2</ele>
        <time>2022-07-21T07:41:12Z</time>
      </trkpt>
      <trkpt lat="47.2809020" lon="6.9179260">
        <ele>824.0</ele>
        <time>2022-07-21T07:41:13Z</time>
      </trkpt>
      <trkpt lat="47.2809070" lon="6.9179420">
        <ele>824.0</ele>
        <time>2022-07-21T07:41:14Z</time>
      </trkpt>
      <trkpt lat="47.2809250" lon="6.9179950">
        <ele>823.9</ele>
        <time>2022-07-21T07:41:15Z</time>
      </trkpt>
      <trkpt lat="47.2809320" lon="6.9180150">
        <ele>823.8</ele>
        <time>2022-07-21T07:41:16Z</time>
      </trkpt>
      <trkpt lat="47.2809480" lon="6.9180500">
        <ele>823.7</ele>
        <time>2022-07-21T07:41:17Z</time>
      </trkpt>
      <trkpt lat="47.2809620" lon="6.9180840">
        <ele>823.6</ele>
        <time>2022-07-21T07:41:18Z</time>
      </trkpt>
      <trkpt lat="47.2809660" lon="6.9180960">
        <ele>823.5</ele>
        <time>2022-07-21T07:41:19Z</time>
      </trkpt>
      <trkpt lat="47.2809830" lon="6.9181390">
        <ele>823.3</ele>
        <time>2022-07-21T07:41:20Z</time>
      </trkpt>
      <trkpt lat="47.2809890" lon="6.9181530">
        <ele>823.3</ele>
        <time>2022-07-21T07:41:21Z</time>
      </trkpt>
      <trkpt lat="47.2810090" lon="6.9182220">
        <ele>823.1</ele>
        <time>2022-07-21T07:41:22Z</time>
      </trkpt>
      <trkpt lat="47.2810180" lon="6.9182570">
        <ele>822.9</ele>
        <time>2022-07-21T07:41:23Z</time>
      </trkpt>
      <trkpt lat="47.2810350" lon="6.9183200">
        <ele>822.8</ele>
        <time>2022-07-21T07:41:25Z</time>
      </trkpt>
      <trkpt lat="47.2810530" lon="6.9183770">
        <ele>822.6</ele>
        <time>2022-07-21T07:41:26Z</time>
      </trkpt>
      <trkpt lat="47.2810700" lon="6.9184260">
        <ele>822.4</ele>
        <time>2022-07-21T07:41:27Z</time>
      </trkpt>
      <trkpt lat="47.2811020" lon="6.9184860">
        <ele>822.2</ele>
        <time>2022-07-21T07:41:28Z</time>
      </trkpt>
      <trkpt lat="47.2811330" lon="6.9185400">
        <ele>822.0</ele>
        <time>2022-07-21T07:41:30Z</time>
      </trkpt>
      <trkpt lat="47.2811430" lon="6.9185610">
        <ele>821.9</ele>
        <time>2022-07-21T07:41:31Z</time>
      </trkpt>
      <trkpt lat="47.2811540" lon="6.9185820">
        <ele>821.8</ele>
        <time>2022-07-21T07:41:32Z</time>
      </trkpt>
      <trkpt lat="47.2811710" lon="6.9186220">
        <ele>821.7</ele>
        <time>2022-07-21T07:41:33Z</time>
      </trkpt>
      <trkpt lat="47.2811770" lon="6.9186320">
        <ele>821.6</ele>
        <time>2022-07-21T07:41:34Z</time>
      </trkpt>
      <trkpt lat="47.2811810" lon="6.9186420">
        <ele>821.6</ele>
        <time>2022-07-21T07:41:35Z</time>
      </trkpt>
      <trkpt lat="47.2811940" lon="6.9186600">
        <ele>821.5</ele>
        <time>2022-07-21T07:41:36Z</time>
      </trkpt>
      <trkpt lat="47.2812010" lon="6.9186710">
        <ele>821.4</ele>
        <time>2022-07-21T07:41:37Z</time>
      </trkpt>
      <trkpt lat="47.2812050" lon="6.9186780">
        <ele>821.3</ele>
        <time>2022-07-21T07:41:38Z</time>
      </trkpt>
      <trkpt lat="47.2812070" lon="6.9186820">
        <ele>821.3</ele>
        <time>2022-07-21T07:41:39Z</time>
      </trkpt>
      <trkpt lat="47.2812120" lon="6.9186890">
        <ele>821.3</ele>
        <time>2022-07-21T07:41:40Z</time>
      </trkpt>
      <trkpt lat="47.2812130" lon="6.9186940">
        <ele>821.3</ele>
        <time>2022-07-21T07:41:41Z</time>
      </trkpt>
      <trkpt lat="47.2812140" lon="6.9186970">
        <ele>821.2</ele>
        <time>2022-07-21T07:41:42Z</time>
      </trkpt>
      <trkpt lat="47.2812150" lon="6.9187010">
        <ele>821.2</ele>
        <time>2022-07-21T07:41:43Z</time>
      </trkpt>
      <trkpt lat="47.2812160" lon="6.9187050">
        <ele>821.2</ele>
        <time>2022-07-21T07:41:44Z</time>
      </trkpt>
      <trkpt lat="47.2812170" lon="6.9187090">
        <ele>821.2</ele>
        <time>2022-07-21T07:41:45Z</time>
      </trkpt>
      <trkpt lat="47.2812190" lon="6.9187160">
        <ele>821.1</ele>
        <time>2022-07-21T07:41:46Z</time>
      </trkpt>
      <trkpt lat="47.2812200" lon="6.9187190">
        <ele>821.1</ele>
        <time>2022-07-21T07:41:47Z</time>
      </trkpt>
      <trkpt lat="47.2812220" lon="6.9187230">
        <ele>821.1</ele>
        <time>2022-07-21T07:41:48Z</time>
      </trkpt>
      <trkpt lat="47.2812240" lon="6.9187260">
        <ele>821.1</ele>
        <time>2022-07-21T07:41:49Z</time>
      </trkpt>
      <trkpt lat="47.2812280" lon="6.9187330">
        <ele>821.0</ele>
        <time>2022-07-21T07:41:50Z</time>
      </trkpt>
      <trkpt lat="47.2812310" lon="6.9187370">
        <ele>821.0</ele>
        <time>2022-07-21T07:41:51Z</time>
      </trkpt>
      <trkpt lat="47.2812330" lon="6.9187400">
        <ele>821.0</ele>
        <time>2022-07-21T07:41:52Z</time>
      </trkpt>
      <trkpt lat="47.2812370" lon="6.9187440">
        <ele>820.9</ele>
        <time>2022-07-21T07:41:53Z</time>
      </trkpt>
      <trkpt lat="47.2812400" lon="6.9187490">
        <ele>820.9</ele>
        <time>2022-07-21T07:41:54Z</time>
      </trkpt>
      <trkpt lat="47.2812450" lon="6.9187560">
        <ele>820.8</ele>
        <time>2022-07-21T07:41:56Z</time>
      </trkpt>
      <trkpt lat="47.2813090" lon="6.9188950">
        <ele>819.8</ele>
        <time>2022-07-21T07:42:36Z</time>
      </trkpt>
      <trkpt lat="47.2813210" lon="6.9189600">
        <ele>819.4</ele>
        <time>2022-07-21T07:42:38Z</time>
      </trkpt>
      <trkpt lat="47.2813400" lon="6.9190160">
        <ele>819.0</ele>
        <time>2022-07-21T07:42:39Z</time>
      </trkpt>
      <trkpt lat="47.2814000" lon="6.9191270">
        <ele>818.4</ele>
        <time>2022-07-21T07:42:40Z</time>
      </trkpt>
      <trkpt lat="47.2814410" lon="6.9192160">
        <ele>818.0</ele>
        <time>2022-07-21T07:42:41Z</time>
      </trkpt>
      <trkpt lat="47.2814810" lon="6.9193100">
        <ele>817.7</ele>
        <time>2022-07-21T07:42:42Z</time>
      </trkpt>
      <trkpt lat="47.2815180" lon="6.9194050">
        <ele>817.6</ele>
        <time>2022-07-21T07:42:43Z</time>
      </trkpt>
      <trkpt lat="47.2815570" lon="6.9194970">
        <ele>817.4</ele>
        <time>2022-07-21T07:42:44Z</time>
      </trkpt>
      <trkpt lat="47.2815850" lon="6.9195860">
        <ele>817.3</ele>
        <time>2022-07-21T07:42:45Z</time>
      </trkpt>
      <trkpt lat="47.2816080" lon="6.9196720">
        <ele>817.2</ele>
        <time>2022-07-21T07:42:46Z</time>
      </trkpt>
      <trkpt lat="47.2816250" lon="6.9197440">
        <ele>817.1</ele>
        <time>2022-07-21T07:42:47Z</time>
      </trkpt>
      <trkpt lat="47.2816450" lon="6.9197970">
        <ele>816.9</ele>
        <time>2022-07-21T07:42:48Z</time>
      </trkpt>
      <trkpt lat="47.2816700" lon="6.9198510">
        <ele>816.8</ele>
        <time>2022-07-21T07:42:49Z</time>
      </trkpt>
      <trkpt lat="47.2816930" lon="6.9199190">
        <ele>816.6</ele>
        <time>2022-07-21T07:42:50Z</time>
      </trkpt>
      <trkpt lat="47.2817320" lon="6.9200080">
        <ele>816.3</ele>
        <time>2022-07-21T07:42:52Z</time>
      </trkpt>
      <trkpt lat="47.2817550" lon="6.9200340">
        <ele>816.1</ele>
        <time>2022-07-21T07:42:54Z</time>
      </trkpt>
      <trkpt lat="47.2817610" lon="6.9200410">
        <ele>816.1</ele>
        <time>2022-07-21T07:42:55Z</time>
      </trkpt>
      <trkpt lat="47.2817770" lon="6.9200480">
        <ele>815.9</ele>
        <time>2022-07-21T07:42:56Z</time>
      </trkpt>
      <trkpt lat="47.2817900" lon="6.9200170">
        <ele>815.8</ele>
        <time>2022-07-21T07:42:57Z</time>
      </trkpt>
      <trkpt lat="47.2818020" lon="6.9199840">
        <ele>815.6</ele>
        <time>2022-07-21T07:42:58Z</time>
      </trkpt>
      <trkpt lat="47.2818180" lon="6.9198920">
        <ele>815.1</ele>
        <time>2022-07-21T07:43:00Z</time>
      </trkpt>
      <trkpt lat="47.2818170" lon="6.9198360">
        <ele>814.9</ele>
        <time>2022-07-21T07:43:02Z</time>
      </trkpt>
      <trkpt lat="47.2818150" lon="6.9197590">
        <ele>814.6</ele>
        <time>2022-07-21T07:43:03Z</time>
      </trkpt>
      <trkpt lat="47.2818060" lon="6.9196880">
        <ele>814.4</ele>
        <time>2022-07-21T07:43:05Z</time>
      </trkpt>
      <trkpt lat="47.2817740" lon="6.9196130">
        <ele>814.1</ele>
        <time>2022-07-21T07:43:06Z</time>
      </trkpt>
      <trkpt lat="47.2817620" lon="6.9195500">
        <ele>813.8</ele>
        <time>2022-07-21T07:43:07Z</time>
      </trkpt>
      <trkpt lat="47.2817490" lon="6.9194930">
        <ele>813.6</ele>
        <time>2022-07-21T07:43:08Z</time>
      </trkpt>
      <trkpt lat="47.2817630" lon="6.9194350">
        <ele>813.3</ele>
        <time>2022-07-21T07:43:09Z</time>
      </trkpt>
      <trkpt lat="47.2817620" lon="6.9193740">
        <ele>813.1</ele>
        <time>2022-07-21T07:43:10Z</time>
      </trkpt>
      <trkpt lat="47.2817490" lon="6.9193180">
        <ele>812.9</ele>
        <time>2022-07-21T07:43:11Z</time>
      </trkpt>
      <trkpt lat="47.2817380" lon="6.9192660">
        <ele>812.7</ele>
        <time>2022-07-21T07:43:12Z</time>
      </trkpt>
      <trkpt lat="47.2817280" lon="6.9192010">
        <ele>812.6</ele>
        <time>2022-07-21T07:43:13Z</time>
      </trkpt>
      <trkpt lat="47.2817150" lon="6.9191660">
        <ele>812.5</ele>
        <time>2022-07-21T07:43:14Z</time>
      </trkpt>
      <trkpt lat="47.2817090" lon="6.9191420">
        <ele>812.4</ele>
        <time>2022-07-21T07:43:15Z</time>
      </trkpt>
      <trkpt lat="47.2817050" lon="6.9191100">
        <ele>812.3</ele>
        <time>2022-07-21T07:43:17Z</time>
      </trkpt>
      <trkpt lat="47.2816930" lon="6.9190680">
        <ele>812.2</ele>
        <time>2022-07-21T07:43:18Z</time>
      </trkpt>
      <trkpt lat="47.2816900" lon="6.9190520">
        <ele>812.2</ele>
        <time>2022-07-21T07:43:19Z</time>
      </trkpt>
      <trkpt lat="47.2816810" lon="6.9190090">
        <ele>812.1</ele>
        <time>2022-07-21T07:43:20Z</time>
      </trkpt>
      <trkpt lat="47.2816770" lon="6.9189940">
        <ele>812.1</ele>
        <time>2022-07-21T07:43:21Z</time>
      </trkpt>
      <trkpt lat="47.2816570" lon="6.9189470">
        <ele>812.0</ele>
        <time>2022-07-21T07:43:22Z</time>
      </trkpt>
      <trkpt lat="47.2816510" lon="6.9189300">
        <ele>811.9</ele>
        <time>2022-07-21T07:43:23Z</time>
      </trkpt>
      <trkpt lat="47.2816460" lon="6.9188790">
        <ele>811.8</ele>
        <time>2022-07-21T07:43:24Z</time>
      </trkpt>
      <trkpt lat="47.2816450" lon="6.9188590">
        <ele>811.8</ele>
        <time>2022-07-21T07:43:25Z</time>
      </trkpt>
      <trkpt lat="47.2816370" lon="6.9188040">
        <ele>811.7</ele>
        <time>2022-07-21T07:43:27Z</time>
      </trkpt>
      <trkpt lat="47.2816250" lon="6.9187580">
        <ele>811.6</ele>
        <time>2022-07-21T07:43:28Z</time>
      </trkpt>
      <trkpt lat="47.2816230" lon="6.9187440">
        <ele>811.6</ele>
        <time>2022-07-21T07:43:29Z</time>
      </trkpt>
      <trkpt lat="47.2816150" lon="6.9187010">
        <ele>811.5</ele>
        <time>2022-07-21T07:43:30Z</time>
      </trkpt>
      <trkpt lat="47.2816060" lon="6.9186470">
        <ele>811.4</ele>
        <time>2022-07-21T07:43:31Z</time>
      </trkpt>
      <trkpt lat="47.2815950" lon="6.9185890">
        <ele>811.3</ele>
        <time>2022-07-21T07:43:33Z</time>
      </trkpt>
      <trkpt lat="47.2815870" lon="6.9185320">
        <ele>811.2</ele>
        <time>2022-07-21T07:43:34Z</time>
      </trkpt>
      <trkpt lat="47.2815800" lon="6.9184920">
        <ele>811.1</ele>
        <time>2022-07-21T07:43:35Z</time>
      </trkpt>
      <trkpt lat="47.2815750" lon="6.9184540">
        <ele>811.0</ele>
        <time>2022-07-21T07:43:36Z</time>
      </trkpt>
      <trkpt lat="47.2815670" lon="6.9183920">
        <ele>810.8</ele>
        <time>2022-07-21T07:43:38Z</time>
      </trkpt>
      <trkpt lat="47.2815610" lon="6.9183420">
        <ele>810.7</ele>
        <time>2022-07-21T07:43:39Z</time>
      </trkpt>
      <trkpt lat="47.2815560" lon="6.9182840">
        <ele>810.5</ele>
        <time>2022-07-21T07:43:40Z</time>
      </trkpt>
      <trkpt lat="47.2815550" lon="6.9182640">
        <ele>810.5</ele>
        <time>2022-07-21T07:43:41Z</time>
      </trkpt>
      <trkpt lat="47.2815540" lon="6.9181880">
        <ele>810.3</ele>
        <time>2022-07-21T07:43:43Z</time>
      </trkpt>
      <trkpt lat="47.2815510" lon="6.9181610">
        <ele>810.2</ele>
        <time>2022-07-21T07:43:44Z</time>
      </trkpt>
      <trkpt lat="47.2815480" lon="6.9181340">
        <ele>810.2</ele>
        <time>2022-07-21T07:43:45Z</time>
      </trkpt>
      <trkpt lat="47.2815420" lon="6.9180850">
        <ele>810.1</ele>
        <time>2022-07-21T07:43:46Z</time>
      </trkpt>
      <trkpt lat="47.2815430" lon="6.9180700">
        <ele>810.0</ele>
        <time>2022-07-21T07:43:47Z</time>
      </trkpt>
      <trkpt lat="47.2815460" lon="6.9180350">
        <ele>809.9</ele>
        <time>2022-07-21T07:43:48Z</time>
      </trkpt>
      <trkpt lat="47.2815520" lon="6.9179940">
        <ele>809.9</ele>
        <time>2022-07-21T07:43:50Z</time>
      </trkpt>
      <trkpt lat="47.2815670" lon="6.9179580">
        <ele>809.8</ele>
        <time>2022-07-21T07:43:51Z</time>
      </trkpt>
      <trkpt lat="47.2815960" lon="6.9179360">
        <ele>809.7</ele>
        <time>2022-07-21T07:43:52Z</time>
      </trkpt>
      <trkpt lat="47.2816060" lon="6.9179310">
        <ele>809.6</ele>
        <time>2022-07-21T07:43:53Z</time>
      </trkpt>
      <trkpt lat="47.2816460" lon="6.9179440">
        <ele>809.5</ele>
        <time>2022-07-21T07:43:54Z</time>
      </trkpt>
      <trkpt lat="47.2816620" lon="6.9179530">
        <ele>809.4</ele>
        <time>2022-07-21T07:43:55Z</time>
      </trkpt>
      <trkpt lat="47.2817080" lon="6.9179930">
        <ele>809.1</ele>
        <time>2022-07-21T07:43:56Z</time>
      </trkpt>
      <trkpt lat="47.2817390" lon="6.9180340">
        <ele>808.9</ele>
        <time>2022-07-21T07:43:57Z</time>
      </trkpt>
      <trkpt lat="47.2817670" lon="6.9180780">
        <ele>808.6</ele>
        <time>2022-07-21T07:43:58Z</time>
      </trkpt>
      <trkpt lat="47.2817980" lon="6.9181410">
        <ele>808.2</ele>
        <time>2022-07-21T07:44:00Z</time>
      </trkpt>
      <trkpt lat="47.2818360" lon="6.9181970">
        <ele>807.9</ele>
        <time>2022-07-21T07:44:01Z</time>
      </trkpt>
      <trkpt lat="47.2818810" lon="6.9182490">
        <ele>807.5</ele>
        <time>2022-07-21T07:44:02Z</time>
      </trkpt>
      <trkpt lat="47.2819130" lon="6.9182800">
        <ele>807.2</ele>
        <time>2022-07-21T07:44:03Z</time>
      </trkpt>
      <trkpt lat="47.2819560" lon="6.9183400">
        <ele>806.6</ele>
        <time>2022-07-21T07:44:05Z</time>
      </trkpt>
      <trkpt lat="47.2819850" lon="6.9183810">
        <ele>806.2</ele>
        <time>2022-07-21T07:44:06Z</time>
      </trkpt>
      <trkpt lat="47.2820500" lon="6.9184570">
        <ele>805.4</ele>
        <time>2022-07-21T07:44:07Z</time>
      </trkpt>
      <trkpt lat="47.2821010" lon="6.9185150">
        <ele>804.7</ele>
        <time>2022-07-21T07:44:08Z</time>
      </trkpt>
      <trkpt lat="47.2821530" lon="6.9185770">
        <ele>804.0</ele>
        <time>2022-07-21T07:44:09Z</time>
      </trkpt>
      <trkpt lat="47.2822010" lon="6.9186330">
        <ele>803.5</ele>
        <time>2022-07-21T07:44:10Z</time>
      </trkpt>
      <trkpt lat="47.2822370" lon="6.9186920">
        <ele>803.1</ele>
        <time>2022-07-21T07:44:11Z</time>
      </trkpt>
      <trkpt lat="47.2822700" lon="6.9187490">
        <ele>802.7</ele>
        <time>2022-07-21T07:44:12Z</time>
      </trkpt>
      <trkpt lat="47.2823030" lon="6.9187900">
        <ele>802.3</ele>
        <time>2022-07-21T07:44:13Z</time>
      </trkpt>
      <trkpt lat="47.2823370" lon="6.9188350">
        <ele>801.9</ele>
        <time>2022-07-21T07:44:14Z</time>
      </trkpt>
      <trkpt lat="47.2823520" lon="6.9188610">
        <ele>801.7</ele>
        <time>2022-07-21T07:44:15Z</time>
      </trkpt>
      <trkpt lat="47.2823670" lon="6.9188760">
        <ele>801.6</ele>
        <time>2022-07-21T07:44:17Z</time>
      </trkpt>
      <trkpt lat="47.2823830" lon="6.9188900">
        <ele>801.4</ele>
        <time>2022-07-21T07:44:18Z</time>
      </trkpt>
      <trkpt lat="47.2823980" lon="6.9189050">
        <ele>801.2</ele>
        <time>2022-07-21T07:44:19Z</time>
      </trkpt>
      <trkpt lat="47.2824340" lon="6.9189690">
        <ele>800.7</ele>
        <time>2022-07-21T07:44:20Z</time>
      </trkpt>
      <trkpt lat="47.2824560" lon="6.9190080">
        <ele>800.4</ele>
        <time>2022-07-21T07:44:21Z</time>
      </trkpt>
      <trkpt lat="47.2824800" lon="6.9190440">
        <ele>800.1</ele>
        <time>2022-07-21T07:44:22Z</time>
      </trkpt>
      <trkpt lat="47.2825110" lon="6.9190680">
        <ele>799.8</ele>
        <time>2022-07-21T07:44:23Z</time>
      </trkpt>
      <trkpt lat="47.2825740" lon="6.9191140">
        <ele>799.2</ele>
        <time>2022-07-21T07:44:25Z</time>
      </trkpt>
      <trkpt lat="47.2826060" lon="6.9191160">
        <ele>799.0</ele>
        <time>2022-07-21T07:44:26Z</time>
      </trkpt>
      <trkpt lat="47.2826480" lon="6.9190700">
        <ele>798.7</ele>
        <time>2022-07-21T07:44:28Z</time>
      </trkpt>
      <trkpt lat="47.2826770" lon="6.9190600">
        <ele>798.6</ele>
        <time>2022-07-21T07:44:29Z</time>
      </trkpt>
      <trkpt lat="47.2827060" lon="6.9190670">
        <ele>798.5</ele>
        <time>2022-07-21T07:44:30Z</time>
      </trkpt>
      <trkpt lat="47.2827360" lon="6.9190930">
        <ele>798.4</ele>
        <time>2022-07-21T07:44:31Z</time>
      </trkpt>
      <trkpt lat="47.2827730" lon="6.9191330">
        <ele>798.1</ele>
        <time>2022-07-21T07:44:32Z</time>
      </trkpt>
      <trkpt lat="47.2828130" lon="6.9191820">
        <ele>797.7</ele>
        <time>2022-07-21T07:44:33Z</time>
      </trkpt>
      <trkpt lat="47.2828590" lon="6.9192370">
        <ele>797.2</ele>
        <time>2022-07-21T07:44:35Z</time>
      </trkpt>
      <trkpt lat="47.2829010" lon="6.9192680">
        <ele>796.8</ele>
        <time>2022-07-21T07:44:36Z</time>
      </trkpt>
      <trkpt lat="47.2829360" lon="6.9192860">
        <ele>796.5</ele>
        <time>2022-07-21T07:44:37Z</time>
      </trkpt>
      <trkpt lat="47.2829770" lon="6.9192990">
        <ele>796.2</ele>
        <time>2022-07-21T07:44:38Z</time>
      </trkpt>
      <trkpt lat="47.2830820" lon="6.9193550">
        <ele>795.1</ele>
        <time>2022-07-21T07:44:40Z</time>
      </trkpt>
      <trkpt lat="47.2831230" lon="6.9193560">
        <ele>794.8</ele>
        <time>2022-07-21T07:44:41Z</time>
      </trkpt>
      <trkpt lat="47.2831850" lon="6.9193660">
        <ele>794.2</ele>
        <time>2022-07-21T07:44:42Z</time>
      </trkpt>
      <trkpt lat="47.2832280" lon="6.9193840">
        <ele>793.8</ele>
        <time>2022-07-21T07:44:43Z</time>
      </trkpt>
      <trkpt lat="47.2832810" lon="6.9194090">
        <ele>793.4</ele>
        <time>2022-07-21T07:44:45Z</time>
      </trkpt>
      <trkpt lat="47.2833200" lon="6.9194330">
        <ele>793.1</ele>
        <time>2022-07-21T07:44:46Z</time>
      </trkpt>
      <trkpt lat="47.2833710" lon="6.9194740">
        <ele>792.7</ele>
        <time>2022-07-21T07:44:47Z</time>
      </trkpt>
      <trkpt lat="47.2833970" lon="6.9194900">
        <ele>792.5</ele>
        <time>2022-07-21T07:44:48Z</time>
      </trkpt>
      <trkpt lat="47.2834340" lon="6.9195110">
        <ele>792.2</ele>
        <time>2022-07-21T07:44:49Z</time>
      </trkpt>
      <trkpt lat="47.2834780" lon="6.9195380">
        <ele>791.9</ele>
        <time>2022-07-21T07:44:50Z</time>
      </trkpt>
      <trkpt lat="47.2835170" lon="6.9195750">
        <ele>791.6</ele>
        <time>2022-07-21T07:44:51Z</time>
      </trkpt>
      <trkpt lat="47.2835430" lon="6.9196090">
        <ele>791.3</ele>
        <time>2022-07-21T07:44:52Z</time>
      </trkpt>
      <trkpt lat="47.2835830" lon="6.9196220">
        <ele>791.0</ele>
        <time>2022-07-21T07:44:53Z</time>
      </trkpt>
      <trkpt lat="47.2836180" lon="6.9196390">
        <ele>790.7</ele>
        <time>2022-07-21T07:44:54Z</time>
      </trkpt>
      <trkpt lat="47.2836550" lon="6.9196800">
        <ele>790.4</ele>
        <time>2022-07-21T07:44:55Z</time>
      </trkpt>
      <trkpt lat="47.2836880" lon="6.9197430">
        <ele>789.9</ele>
        <time>2022-07-21T07:44:56Z</time>
      </trkpt>
      <trkpt lat="47.2837280" lon="6.9197790">
        <ele>789.6</ele>
        <time>2022-07-21T07:44:57Z</time>
      </trkpt>
      <trkpt lat="47.2837740" lon="6.9198040">
        <ele>789.2</ele>
        <time>2022-07-21T07:44:58Z</time>
      </trkpt>
      <trkpt lat="47.2838180" lon="6.9198300">
        <ele>788.8</ele>
        <time>2022-07-21T07:44:59Z</time>
      </trkpt>
      <trkpt lat="47.2838640" lon="6.9198680">
        <ele>788.4</ele>
        <time>2022-07-21T07:45:00Z</time>
      </trkpt>
      <trkpt lat="47.2839050" lon="6.9199140">
        <ele>788.0</ele>
        <time>2022-07-21T07:45:01Z</time>
      </trkpt>
      <trkpt lat="47.2839410" lon="6.9199530">
        <ele>787.7</ele>
        <time>2022-07-21T07:45:02Z</time>
      </trkpt>
      <trkpt lat="47.2839760" lon="6.9199840">
        <ele>787.5</ele>
        <time>2022-07-21T07:45:03Z</time>
      </trkpt>
      <trkpt lat="47.2840230" lon="6.9200220">
        <ele>787.1</ele>
        <time>2022-07-21T07:45:04Z</time>
      </trkpt>
      <trkpt lat="47.2840680" lon="6.9200500">
        <ele>786.8</ele>
        <time>2022-07-21T07:45:05Z</time>
      </trkpt>
      <trkpt lat="47.2841170" lon="6.9200760">
        <ele>786.5</ele>
        <time>2022-07-21T07:45:06Z</time>
      </trkpt>
      <trkpt lat="47.2841650" lon="6.9200840">
        <ele>786.2</ele>
        <time>2022-07-21T07:45:07Z</time>
      </trkpt>
      <trkpt lat="47.2842100" lon="6.9201090">
        <ele>785.9</ele>
        <time>2022-07-21T07:45:08Z</time>
      </trkpt>
      <trkpt lat="47.2842520" lon="6.9201430">
        <ele>785.6</ele>
        <time>2022-07-21T07:45:09Z</time>
      </trkpt>
      <trkpt lat="47.2842860" lon="6.9201660">
        <ele>785.4</ele>
        <time>2022-07-21T07:45:10Z</time>
      </trkpt>
      <trkpt lat="47.2843240" lon="6.9201980">
        <ele>785.2</ele>
        <time>2022-07-21T07:45:11Z</time>
      </trkpt>
      <trkpt lat="47.2843410" lon="6.9202150">
        <ele>785.1</ele>
        <time>2022-07-21T07:45:12Z</time>
      </trkpt>
      <trkpt lat="47.2843740" lon="6.9202590">
        <ele>784.8</ele>
        <time>2022-07-21T07:45:13Z</time>
      </trkpt>
      <trkpt lat="47.2844050" lon="6.9203080">
        <ele>784.6</ele>
        <time>2022-07-21T07:45:14Z</time>
      </trkpt>
      <trkpt lat="47.2844300" lon="6.9203440">
        <ele>784.4</ele>
        <time>2022-07-21T07:45:15Z</time>
      </trkpt>
      <trkpt lat="47.2844660" lon="6.9203870">
        <ele>784.2</ele>
        <time>2022-07-21T07:45:16Z</time>
      </trkpt>
      <trkpt lat="47.2845020" lon="6.9204180">
        <ele>784.0</ele>
        <time>2022-07-21T07:45:17Z</time>
      </trkpt>
      <trkpt lat="47.2845390" lon="6.9204550">
        <ele>783.8</ele>
        <time>2022-07-21T07:45:18Z</time>
      </trkpt>
      <trkpt lat="47.2845640" lon="6.9205050">
        <ele>783.6</ele>
        <time>2022-07-21T07:45:19Z</time>
      </trkpt>
      <trkpt lat="47.2845780" lon="6.9205260">
        <ele>783.5</ele>
        <time>2022-07-21T07:45:20Z</time>
      </trkpt>
      <trkpt lat="47.2846190" lon="6.9205760">
        <ele>783.3</ele>
        <time>2022-07-21T07:45:21Z</time>
      </trkpt>
      <trkpt lat="47.2846620" lon="6.9206270">
        <ele>783.1</ele>
        <time>2022-07-21T07:45:22Z</time>
      </trkpt>
      <trkpt lat="47.2847170" lon="6.9206820">
        <ele>782.9</ele>
        <time>2022-07-21T07:45:24Z</time>
      </trkpt>
      <trkpt lat="47.2847810" lon="6.9207370">
        <ele>782.6</ele>
        <time>2022-07-21T07:45:25Z</time>
      </trkpt>
      <trkpt lat="47.2848230" lon="6.9207720">
        <ele>782.4</ele>
        <time>2022-07-21T07:45:26Z</time>
      </trkpt>
      <trkpt lat="47.2848510" lon="6.9208080">
        <ele>782.3</ele>
        <time>2022-07-21T07:45:27Z</time>
      </trkpt>
      <trkpt lat="47.2848850" lon="6.9208530">
        <ele>782.1</ele>
        <time>2022-07-21T07:45:28Z</time>
      </trkpt>
      <trkpt lat="47.2849030" lon="6.9209010">
        <ele>782.0</ele>
        <time>2022-07-21T07:45:30Z</time>
      </trkpt>
      <trkpt lat="47.2849220" lon="6.9209410">
        <ele>781.9</ele>
        <time>2022-07-21T07:45:31Z</time>
      </trkpt>
      <trkpt lat="47.2849370" lon="6.9209550">
        <ele>781.8</ele>
        <time>2022-07-21T07:45:32Z</time>
      </trkpt>
      <trkpt lat="47.2849480" lon="6.9209680">
        <ele>781.8</ele>
        <time>2022-07-21T07:45:33Z</time>
      </trkpt>
      <trkpt lat="47.2849610" lon="6.9209890">
        <ele>781.7</ele>
        <time>2022-07-21T07:45:35Z</time>
      </trkpt>
      <trkpt lat="47.2849620" lon="6.9209920">
        <ele>781.7</ele>
        <time>2022-07-21T07:45:36Z</time>
      </trkpt>
      <trkpt lat="47.2849640" lon="6.9209950">
        <ele>781.7</ele>
        <time>2022-07-21T07:45:37Z</time>
      </trkpt>
      <trkpt lat="47.2849650" lon="6.9209980">
        <ele>781.7</ele>
        <time>2022-07-21T07:45:38Z</time>
      </trkpt>
      <trkpt lat="47.2849670" lon="6.9210010">
        <ele>781.7</ele>
        <time>2022-07-21T07:45:39Z</time>
      </trkpt>
      <trkpt lat="47.2849680" lon="6.9210040">
        <ele>781.7</ele>
        <time>2022-07-21T07:45:40Z</time>
      </trkpt>
      <trkpt lat="47.2849700" lon="6.9210070">
        <ele>781.7</ele>
        <time>2022-07-21T07:45:41Z</time>
      </trkpt>
      <trkpt lat="47.2849710" lon="6.9210100">
        <ele>781.7</ele>
        <time>2022-07-21T07:45:42Z</time>
      </trkpt>
      <trkpt lat="47.2849730" lon="6.9210130">
        <ele>781.6</ele>
        <time>2022-07-21T07:45:44Z</time>
      </trkpt>
      <trkpt lat="47.2849740" lon="6.9210160">
        <ele>781.6</ele>
        <time>2022-07-21T07:45:45Z</time>
      </trkpt>
      <trkpt lat="47.2849760" lon="6.9210190">
        <ele>781.6</ele>
        <time>2022-07-21T07:46:12Z</time>
      </trkpt>
      <trkpt lat="47.2849770" lon="6.9210220">
        <ele>781.6</ele>
        <time>2022-07-21T07:46:13Z</time>
      </trkpt>
      <trkpt lat="47.2849790" lon="6.9210250">
        <ele>781.6</ele>
        <time>2022-07-21T07:46:14Z</time>
      </trkpt>
      <trkpt lat="47.2849800" lon="6.9210280">
        <ele>781.6</ele>
        <time>2022-07-21T07:46:15Z</time>
      </trkpt>
      <trkpt lat="47.2849820" lon="6.9210310">
        <ele>781.6</ele>
        <time>2022-07-21T07:46:16Z</time>
      </trkpt>
      <trkpt lat="47.2849830" lon="6.9210340">
        <ele>781.6</ele>
        <time>2022-07-21T07:46:17Z</time>
      </trkpt>
      <trkpt lat="47.2849850" lon="6.9210370">
        <ele>781.6</ele>
        <time>2022-07-21T07:46:18Z</time>
      </trkpt>
      <trkpt lat="47.2849870" lon="6.9210400">
        <ele>781.6</ele>
        <time>2022-07-21T07:46:19Z</time>
      </trkpt>
      <trkpt lat="47.2849880" lon="6.9210430">
        <ele>781.5</ele>
        <time>2022-07-21T07:46:20Z</time>
      </trkpt>
      <trkpt lat="47.2849900" lon="6.9210460">
        <ele>781.5</ele>
        <time>2022-07-21T07:46:21Z</time>
      </trkpt>
      <trkpt lat="47.2849910" lon="6.9210490">
        <ele>781.5</ele>
        <time>2022-07-21T07:46:22Z</time>
      </trkpt>
      <trkpt lat="47.2849930" lon="6.9210520">
        <ele>781.5</ele>
        <time>2022-07-21T07:46:23Z</time>
      </trkpt>
      <trkpt lat="47.2849940" lon="6.9210550">
        <ele>781.5</ele>
        <time>2022-07-21T07:46:24Z</time>
      </trkpt>
      <trkpt lat="47.2850260" lon="6.9210850">
        <ele>781.3</ele>
        <time>2022-07-21T07:46:25Z</time>
      </trkpt>
      <trkpt lat="47.2850400" lon="6.9210970">
        <ele>781.2</ele>
        <time>2022-07-21T07:46:26Z</time>
      </trkpt>
      <trkpt lat="47.2850650" lon="6.9211210">
        <ele>781.0</ele>
        <time>2022-07-21T07:46:27Z</time>
      </trkpt>
      <trkpt lat="47.2850920" lon="6.9211450">
        <ele>780.8</ele>
        <time>2022-07-21T07:46:28Z</time>
      </trkpt>
      <trkpt lat="47.2851180" lon="6.9211660">
        <ele>780.6</ele>
        <time>2022-07-21T07:46:29Z</time>
      </trkpt>
      <trkpt lat="47.2851480" lon="6.9211860">
        <ele>780.3</ele>
        <time>2022-07-21T07:46:30Z</time>
      </trkpt>
      <trkpt lat="47.2851760" lon="6.9211990">
        <ele>780.0</ele>
        <time>2022-07-21T07:46:31Z</time>
      </trkpt>
      <trkpt lat="47.2852040" lon="6.9212110">
        <ele>779.8</ele>
        <time>2022-07-21T07:46:32Z</time>
      </trkpt>
      <trkpt lat="47.2852460" lon="6.9212300">
        <ele>779.4</ele>
        <time>2022-07-21T07:46:34Z</time>
      </trkpt>
      <trkpt lat="47.2852800" lon="6.9212430">
        <ele>779.2</ele>
        <time>2022-07-21T07:46:35Z</time>
      </trkpt>
      <trkpt lat="47.2853180" lon="6.9212470">
        <ele>779.4</ele>
        <time>2022-07-21T07:46:36Z</time>
      </trkpt>
      <trkpt lat="47.2853300" lon="6.9212450">
        <ele>779.5</ele>
        <time>2022-07-21T07:46:37Z</time>
      </trkpt>
      <trkpt lat="47.2853460" lon="6.9212410">
        <ele>779.6</ele>
        <time>2022-07-21T07:46:38Z</time>
      </trkpt>
      <trkpt lat="47.2853610" lon="6.9212390">
        <ele>779.6</ele>
        <time>2022-07-21T07:46:40Z</time>
      </trkpt>
      <trkpt lat="47.2853680" lon="6.9212390">
        <ele>779.7</ele>
        <time>2022-07-21T07:46:41Z</time>
      </trkpt>
      <trkpt lat="47.2853730" lon="6.9212380">
        <ele>779.7</ele>
        <time>2022-07-21T07:46:42Z</time>
      </trkpt>
      <trkpt lat="47.2853780" lon="6.9212390">
        <ele>779.7</ele>
        <time>2022-07-21T07:46:43Z</time>
      </trkpt>
      <trkpt lat="47.2853690" lon="6.9212420">
        <ele>779.8</ele>
        <time>2022-07-21T07:46:44Z</time>
      </trkpt>
      <trkpt lat="47.2853640" lon="6.9212550">
        <ele>779.8</ele>
        <time>2022-07-21T07:46:45Z</time>
      </trkpt>
      <trkpt lat="47.2853590" lon="6.9212610">
        <ele>779.9</ele>
        <time>2022-07-21T07:46:46Z</time>
      </trkpt>
      <trkpt lat="47.2853520" lon="6.9212660">
        <ele>779.9</ele>
        <time>2022-07-21T07:46:47Z</time>
      </trkpt>
      <trkpt lat="47.2853450" lon="6.9212690">
        <ele>779.9</ele>
        <time>2022-07-21T07:46:48Z</time>
      </trkpt>
      <trkpt lat="47.2853390" lon="6.9212720">
        <ele>780.0</ele>
        <time>2022-07-21T07:46:49Z</time>
      </trkpt>
      <trkpt lat="47.2853310" lon="6.9212750">
        <ele>780.0</ele>
        <time>2022-07-21T07:46:50Z</time>
      </trkpt>
      <trkpt lat="47.2853250" lon="6.9212780">
        <ele>780.0</ele>
        <time>2022-07-21T07:46:51Z</time>
      </trkpt>
      <trkpt lat="47.2853180" lon="6.9212800">
        <ele>780.1</ele>
        <time>2022-07-21T07:46:52Z</time>
      </trkpt>
      <trkpt lat="47.2853120" lon="6.9212780">
        <ele>780.1</ele>
        <time>2022-07-21T07:46:53Z</time>
      </trkpt>
      <trkpt lat="47.2852770" lon="6.9212580">
        <ele>780.3</ele>
        <time>2022-07-21T07:46:54Z</time>
      </trkpt>
      <trkpt lat="47.2852650" lon="6.9212490">
        <ele>780.3</ele>
        <time>2022-07-21T07:46:55Z</time>
      </trkpt>
      <trkpt lat="47.2852510" lon="6.9212390">
        <ele>780.4</ele>
        <time>2022-07-21T07:46:56Z</time>
      </trkpt>
      <trkpt lat="47.2852410" lon="6.9212300">
        <ele>780.5</ele>
        <time>2022-07-21T07:46:57Z</time>
      </trkpt>
      <trkpt lat="47.2852350" lon="6.9212190">
        <ele>780.5</ele>
        <time>2022-07-21T07:46:58Z</time>
      </trkpt>
      <trkpt lat="47.2852410" lon="6.9212000">
        <ele>780.6</ele>
        <time>2022-07-21T07:46:59Z</time>
      </trkpt>
      <trkpt lat="47.2852490" lon="6.9211830">
        <ele>780.7</ele>
        <time>2022-07-21T07:47:00Z</time>
      </trkpt>
      <trkpt lat="47.2852570" lon="6.9211690">
        <ele>780.7</ele>
        <time>2022-07-21T07:47:01Z</time>
      </trkpt>
      <trkpt lat="47.2852660" lon="6.9211590">
        <ele>780.8</ele>
        <time>2022-07-21T07:47:02Z</time>
      </trkpt>
      <trkpt lat="47.2852750" lon="6.9211520">
        <ele>780.8</ele>
        <time>2022-07-21T07:47:03Z</time>
      </trkpt>
      <trkpt lat="47.2852860" lon="6.9211480">
        <ele>780.9</ele>
        <time>2022-07-21T07:47:04Z</time>
      </trkpt>
      <trkpt lat="47.2852950" lon="6.9211410">
        <ele>781.0</ele>
        <time>2022-07-21T07:47:05Z</time>
      </trkpt>
      <trkpt lat="47.2853020" lon="6.9211360">
        <ele>781.0</ele>
        <time>2022-07-21T07:47:06Z</time>
      </trkpt>
      <trkpt lat="47.2853140" lon="6.9211310">
        <ele>781.1</ele>
        <time>2022-07-21T07:47:07Z</time>
      </trkpt>
      <trkpt lat="47.2853210" lon="6.9211280">
        <ele>781.1</ele>
        <time>2022-07-21T07:47:08Z</time>
      </trkpt>
      <trkpt lat="47.2853280" lon="6.9211260">
        <ele>781.1</ele>
        <time>2022-07-21T07:47:09Z</time>
      </trkpt>
      <trkpt lat="47.2853340" lon="6.9211230">
        <ele>781.2</ele>
        <time>2022-07-21T07:47:10Z</time>
      </trkpt>
      <trkpt lat="47.2853410" lon="6.9211210">
        <ele>781.2</ele>
        <time>2022-07-21T07:47:11Z</time>
      </trkpt>
      <trkpt lat="47.2853570" lon="6.9211070">
        <ele>781.3</ele>
        <time>2022-07-21T07:47:12Z</time>
      </trkpt>
      <trkpt lat="47.2853710" lon="6.9210950">
        <ele>781.4</ele>
        <time>2022-07-21T07:47:13Z</time>
      </trkpt>
      <trkpt lat="47.2853860" lon="6.9210840">
        <ele>781.5</ele>
        <time>2022-07-21T07:47:14Z</time>
      </trkpt>
      <trkpt lat="47.2854010" lon="6.9210770">
        <ele>781.6</ele>
        <time>2022-07-21T07:47:15Z</time>
      </trkpt>
      <trkpt lat="47.2854150" lon="6.9210680">
        <ele>781.7</ele>
        <time>2022-07-21T07:47:16Z</time>
      </trkpt>
      <trkpt lat="47.2854310" lon="6.9210530">
        <ele>781.8</ele>
        <time>2022-07-21T07:47:17Z</time>
      </trkpt>
      <trkpt lat="47.2854600" lon="6.9210160">
        <ele>785.1</ele>
        <time>2022-07-21T07:47:18Z</time>
      </trkpt>
      <trkpt lat="47.2854690" lon="6.9210030">
        <ele>785.0</ele>
        <time>2022-07-21T07:47:19Z</time>
      </trkpt>
      <trkpt lat="47.2854920" lon="6.9209720">
        <ele>784.7</ele>
        <time>2022-07-21T07:47:20Z</time>
      </trkpt>
      <trkpt lat="47.2855000" lon="6.9209620">
        <ele>784.5</ele>
        <time>2022-07-21T07:47:21Z</time>
      </trkpt>
      <trkpt lat="47.2855280" lon="6.9209410">
        <ele>784.2</ele>
        <time>2022-07-21T07:47:22Z</time>
      </trkpt>
      <trkpt lat="47.2855370" lon="6.9209330">
        <ele>784.1</ele>
        <time>2022-07-21T07:47:23Z</time>
      </trkpt>
      <trkpt lat="47.2855580" lon="6.9209150">
        <ele>783.8</ele>
        <time>2022-07-21T07:47:24Z</time>
      </trkpt>
      <trkpt lat="47.2855660" lon="6.9209030">
        <ele>783.7</ele>
        <time>2022-07-21T07:47:25Z</time>
      </trkpt>
      <trkpt lat="47.2855750" lon="6.9208940">
        <ele>783.6</ele>
        <time>2022-07-21T07:47:26Z</time>
      </trkpt>
      <trkpt lat="47.2855810" lon="6.9208850">
        <ele>783.5</ele>
        <time>2022-07-21T07:47:27Z</time>
      </trkpt>
      <trkpt lat="47.2855870" lon="6.9208800">
        <ele>783.4</ele>
        <time>2022-07-21T07:47:28Z</time>
      </trkpt>
      <trkpt lat="47.2855970" lon="6.9208560">
        <ele>783.3</ele>
        <time>2022-07-21T07:47:29Z</time>
      </trkpt>
      <trkpt lat="47.2856000" lon="6.9208440">
        <ele>783.2</ele>
        <time>2022-07-21T07:47:30Z</time>
      </trkpt>
      <trkpt lat="47.2856030" lon="6.9208310">
        <ele>783.1</ele>
        <time>2022-07-21T07:47:31Z</time>
      </trkpt>
      <trkpt lat="47.2856060" lon="6.9208070">
        <ele>782.9</ele>
        <time>2022-07-21T07:47:32Z</time>
      </trkpt>
      <trkpt lat="47.2856060" lon="6.9207800">
        <ele>782.7</ele>
        <time>2022-07-21T07:47:33Z</time>
      </trkpt>
      <trkpt lat="47.2856090" lon="6.9207660">
        <ele>782.6</ele>
        <time>2022-07-21T07:47:34Z</time>
      </trkpt>
      <trkpt lat="47.2856120" lon="6.9207560">
        <ele>782.6</ele>
        <time>2022-07-21T07:47:35Z</time>
      </trkpt>
      <trkpt lat="47.2856130" lon="6.9207500">
        <ele>782.5</ele>
        <time>2022-07-21T07:47:36Z</time>
      </trkpt>
      <trkpt lat="47.2856200" lon="6.9207420">
        <ele>782.4</ele>
        <time>2022-07-21T07:47:37Z</time>
      </trkpt>
      <trkpt lat="47.2856290" lon="6.9207320">
        <ele>782.3</ele>
        <time>2022-07-21T07:47:38Z</time>
      </trkpt>
      <trkpt lat="47.2856360" lon="6.9207250">
        <ele>782.2</ele>
        <time>2022-07-21T07:47:39Z</time>
      </trkpt>
      <trkpt lat="47.2856420" lon="6.9207180">
        <ele>782.2</ele>
        <time>2022-07-21T07:47:40Z</time>
      </trkpt>
      <trkpt lat="47.2856430" lon="6.9207100">
        <ele>782.1</ele>
        <time>2022-07-21T07:47:41Z</time>
      </trkpt>
      <trkpt lat="47.2856390" lon="6.9207020">
        <ele>782.1</ele>
        <time>2022-07-21T07:47:42Z</time>
      </trkpt>
      <trkpt lat="47.2856430" lon="6.9207000">
        <ele>782.0</ele>
        <time>2022-07-21T07:47:43Z</time>
      </trkpt>
      <trkpt lat="47.2856500" lon="6.9206970">
        <ele>781.9</ele>
        <time>2022-07-21T07:47:44Z</time>
      </trkpt>
      <trkpt lat="47.2856590" lon="6.9206940">
        <ele>781.9</ele>
        <time>2022-07-21T07:47:45Z</time>
      </trkpt>
      <trkpt lat="47.2856690" lon="6.9206900">
        <ele>781.8</ele>
        <time>2022-07-21T07:47:46Z</time>
      </trkpt>
      <trkpt lat="47.2856960" lon="6.9206730">
        <ele>781.5</ele>
        <time>2022-07-21T07:47:47Z</time>
      </trkpt>
      <trkpt lat="47.2857030" lon="6.9206680">
        <ele>781.4</ele>
        <time>2022-07-21T07:47:48Z</time>
      </trkpt>
      <trkpt lat="47.2857310" lon="6.9206720">
        <ele>781.2</ele>
        <time>2022-07-21T07:47:49Z</time>
      </trkpt>
      <trkpt lat="47.2857420" lon="6.9206770">
        <ele>781.1</ele>
        <time>2022-07-21T07:47:50Z</time>
      </trkpt>
      <trkpt lat="47.2857620" lon="6.9206870">
        <ele>780.9</ele>
        <time>2022-07-21T07:47:51Z</time>
      </trkpt>
      <trkpt lat="47.2857750" lon="6.9206960">
        <ele>780.8</ele>
        <time>2022-07-21T07:47:52Z</time>
      </trkpt>
      <trkpt lat="47.2857860" lon="6.9207070">
        <ele>780.6</ele>
        <time>2022-07-21T07:47:53Z</time>
      </trkpt>
      <trkpt lat="47.2857980" lon="6.9207200">
        <ele>780.5</ele>
        <time>2022-07-21T07:47:54Z</time>
      </trkpt>
      <trkpt lat="47.2858190" lon="6.9207450">
        <ele>779.2</ele>
        <time>2022-07-21T07:47:55Z</time>
      </trkpt>
      <trkpt lat="47.2858250" lon="6.9207560">
        <ele>779.3</ele>
        <time>2022-07-21T07:47:56Z</time>
      </trkpt>
      <trkpt lat="47.2858320" lon="6.9207940">
        <ele>779.5</ele>
        <time>2022-07-21T07:47:57Z</time>
      </trkpt>
      <trkpt lat="47.2858350" lon="6.9208080">
        <ele>779.5</ele>
        <time>2022-07-21T07:47:58Z</time>
      </trkpt>
      <trkpt lat="47.2858400" lon="6.9208460">
        <ele>779.7</ele>
        <time>2022-07-21T07:47:59Z</time>
      </trkpt>
      <trkpt lat="47.2858430" lon="6.9208610">
        <ele>779.8</ele>
        <time>2022-07-21T07:48:00Z</time>
      </trkpt>
      <trkpt lat="47.2858560" lon="6.9209020">
        <ele>780.0</ele>
        <time>2022-07-21T07:48:01Z</time>
      </trkpt>
      <trkpt lat="47.2858600" lon="6.9209140">
        <ele>780.0</ele>
        <time>2022-07-21T07:48:02Z</time>
      </trkpt>
      <trkpt lat="47.2858830" lon="6.9209560">
        <ele>780.3</ele>
        <time>2022-07-21T07:48:03Z</time>
      </trkpt>
      <trkpt lat="47.2858910" lon="6.9209710">
        <ele>780.4</ele>
        <time>2022-07-21T07:48:04Z</time>
      </trkpt>
      <trkpt lat="47.2859040" lon="6.9210160">
        <ele>780.6</ele>
        <time>2022-07-21T07:48:05Z</time>
      </trkpt>
      <trkpt lat="47.2859080" lon="6.9210330">
        <ele>780.7</ele>
        <time>2022-07-21T07:48:06Z</time>
      </trkpt>
      <trkpt lat="47.2859220" lon="6.9210730">
        <ele>780.9</ele>
        <time>2022-07-21T07:48:07Z</time>
      </trkpt>
      <trkpt lat="47.2859280" lon="6.9210880">
        <ele>781.0</ele>
        <time>2022-07-21T07:48:08Z</time>
      </trkpt>
      <trkpt lat="47.2859450" lon="6.9211300">
        <ele>781.2</ele>
        <time>2022-07-21T07:48:09Z</time>
      </trkpt>
      <trkpt lat="47.2859510" lon="6.9211430">
        <ele>781.2</ele>
        <time>2022-07-21T07:48:10Z</time>
      </trkpt>
      <trkpt lat="47.2859630" lon="6.9211780">
        <ele>781.4</ele>
        <time>2022-07-21T07:48:11Z</time>
      </trkpt>
      <trkpt lat="47.2859680" lon="6.9211910">
        <ele>781.5</ele>
        <time>2022-07-21T07:48:12Z</time>
      </trkpt>
      <trkpt lat="47.2859740" lon="6.9212180">
        <ele>781.6</ele>
        <time>2022-07-21T07:48:13Z</time>
      </trkpt>
      <trkpt lat="47.2859830" lon="6.9212350">
        <ele>781.7</ele>
        <time>2022-07-21T07:48:14Z</time>
      </trkpt>
      <trkpt lat="47.2859930" lon="6.9212550">
        <ele>781.8</ele>
        <time>2022-07-21T07:48:15Z</time>
      </trkpt>
      <trkpt lat="47.2860040" lon="6.9212740">
        <ele>781.9</ele>
        <time>2022-07-21T07:48:16Z</time>
      </trkpt>
      <trkpt lat="47.2860120" lon="6.9212910">
        <ele>782.0</ele>
        <time>2022-07-21T07:48:17Z</time>
      </trkpt>
      <trkpt lat="47.2860170" lon="6.9212990">
        <ele>782.0</ele>
        <time>2022-07-21T07:48:18Z</time>
      </trkpt>
      <trkpt lat="47.2860230" lon="6.9213120">
        <ele>782.1</ele>
        <time>2022-07-21T07:48:19Z</time>
      </trkpt>
      <trkpt lat="47.2860320" lon="6.9213310">
        <ele>782.2</ele>
        <time>2022-07-21T07:48:20Z</time>
      </trkpt>
      <trkpt lat="47.2860410" lon="6.9213500">
        <ele>782.3</ele>
        <time>2022-07-21T07:48:21Z</time>
      </trkpt>
      <trkpt lat="47.2860500" lon="6.9213650">
        <ele>782.4</ele>
        <time>2022-07-21T07:48:22Z</time>
      </trkpt>
      <trkpt lat="47.2860580" lon="6.9213660">
        <ele>782.5</ele>
        <time>2022-07-21T07:48:23Z</time>
      </trkpt>
      <trkpt lat="47.2860650" lon="6.9213750">
        <ele>782.5</ele>
        <time>2022-07-21T07:48:24Z</time>
      </trkpt>
      <trkpt lat="47.2860760" lon="6.9213990">
        <ele>782.7</ele>
        <time>2022-07-21T07:48:25Z</time>
      </trkpt>
      <trkpt lat="47.2860820" lon="6.9214200">
        <ele>782.8</ele>
        <time>2022-07-21T07:48:26Z</time>
      </trkpt>
      <trkpt lat="47.2860870" lon="6.9214340">
        <ele>782.8</ele>
        <time>2022-07-21T07:48:27Z</time>
      </trkpt>
      <trkpt lat="47.2860990" lon="6.9214550">
        <ele>782.9</ele>
        <time>2022-07-21T07:48:28Z</time>
      </trkpt>
      <trkpt lat="47.2861130" lon="6.9214760">
        <ele>783.1</ele>
        <time>2022-07-21T07:48:29Z</time>
      </trkpt>
      <trkpt lat="47.2861230" lon="6.9214890">
        <ele>783.2</ele>
        <time>2022-07-21T07:48:30Z</time>
      </trkpt>
      <trkpt lat="47.2861320" lon="6.9215110">
        <ele>783.3</ele>
        <time>2022-07-21T07:48:31Z</time>
      </trkpt>
      <trkpt lat="47.2861350" lon="6.9215350">
        <ele>783.4</ele>
        <time>2022-07-21T07:48:32Z</time>
      </trkpt>
      <trkpt lat="47.2861420" lon="6.9215780">
        <ele>783.6</ele>
        <time>2022-07-21T07:48:33Z</time>
      </trkpt>
      <trkpt lat="47.2861450" lon="6.9215900">
        <ele>783.7</ele>
        <time>2022-07-21T07:48:34Z</time>
      </trkpt>
      <trkpt lat="47.2861490" lon="6.9216360">
        <ele>783.9</ele>
        <time>2022-07-21T07:48:35Z</time>
      </trkpt>
      <trkpt lat="47.2861470" lon="6.9216580">
        <ele>784.1</ele>
        <time>2022-07-21T07:48:36Z</time>
      </trkpt>
      <trkpt lat="47.2861490" lon="6.9217090">
        <ele>784.3</ele>
        <time>2022-07-21T07:48:37Z</time>
      </trkpt>
      <trkpt lat="47.2861500" lon="6.9217240">
        <ele>784.4</ele>
        <time>2022-07-21T07:48:38Z</time>
      </trkpt>
      <trkpt lat="47.2861540" lon="6.9217650">
        <ele>784.6</ele>
        <time>2022-07-21T07:48:39Z</time>
      </trkpt>
      <trkpt lat="47.2861560" lon="6.9217790">
        <ele>784.7</ele>
        <time>2022-07-21T07:48:40Z</time>
      </trkpt>
      <trkpt lat="47.2861600" lon="6.9218010">
        <ele>784.8</ele>
        <time>2022-07-21T07:48:41Z</time>
      </trkpt>
      <trkpt lat="47.2861630" lon="6.9218230">
        <ele>784.9</ele>
        <time>2022-07-21T07:48:42Z</time>
      </trkpt>
      <trkpt lat="47.2861710" lon="6.9218610">
        <ele>785.1</ele>
        <time>2022-07-21T07:48:43Z</time>
      </trkpt>
      <trkpt lat="47.2861740" lon="6.9218740">
        <ele>785.2</ele>
        <time>2022-07-21T07:48:44Z</time>
      </trkpt>
      <trkpt lat="47.2861860" lon="6.9219130">
        <ele>785.4</ele>
        <time>2022-07-21T07:48:45Z</time>
      </trkpt>
      <trkpt lat="47.2861900" lon="6.9219260">
        <ele>785.4</ele>
        <time>2022-07-21T07:48:46Z</time>
      </trkpt>
      <trkpt lat="47.2862040" lon="6.9219590">
        <ele>785.6</ele>
        <time>2022-07-21T07:48:47Z</time>
      </trkpt>
      <trkpt lat="47.2862100" lon="6.9219720">
        <ele>785.7</ele>
        <time>2022-07-21T07:48:48Z</time>
      </trkpt>
      <trkpt lat="47.2862220" lon="6.9220130">
        <ele>785.9</ele>
        <time>2022-07-21T07:48:49Z</time>
      </trkpt>
      <trkpt lat="47.2862250" lon="6.9220280">
        <ele>786.0</ele>
        <time>2022-07-21T07:48:50Z</time>
      </trkpt>
      <trkpt lat="47.2862410" lon="6.9220690">
        <ele>786.2</ele>
        <time>2022-07-21T07:48:51Z</time>
      </trkpt>
      <trkpt lat="47.2862460" lon="6.9220810">
        <ele>786.3</ele>
        <time>2022-07-21T07:48:52Z</time>
      </trkpt>
      <trkpt lat="47.2862710" lon="6.9221210">
        <ele>786.6</ele>
        <time>2022-07-21T07:48:53Z</time>
      </trkpt>
      <trkpt lat="47.2862780" lon="6.9221320">
        <ele>786.6</ele>
        <time>2022-07-21T07:48:54Z</time>
      </trkpt>
      <trkpt lat="47.2862960" lon="6.9221660">
        <ele>786.8</ele>
        <time>2022-07-21T07:48:55Z</time>
      </trkpt>
      <trkpt lat="47.2863010" lon="6.9221760">
        <ele>786.9</ele>
        <time>2022-07-21T07:48:56Z</time>
      </trkpt>
      <trkpt lat="47.2863090" lon="6.9221960">
        <ele>787.0</ele>
        <time>2022-07-21T07:48:57Z</time>
      </trkpt>
      <trkpt lat="47.2863190" lon="6.9222200">
        <ele>787.1</ele>
        <time>2022-07-21T07:48:58Z</time>
      </trkpt>
      <trkpt lat="47.2863280" lon="6.9222410">
        <ele>787.2</ele>
        <time>2022-07-21T07:48:59Z</time>
      </trkpt>
      <trkpt lat="47.2863360" lon="6.9222580">
        <ele>787.3</ele>
        <time>2022-07-21T07:49:00Z</time>
      </trkpt>
      <trkpt lat="47.2863450" lon="6.9222760">
        <ele>787.5</ele>
        <time>2022-07-21T07:49:01Z</time>
      </trkpt>
      <trkpt lat="47.2863540" lon="6.9222960">
        <ele>787.6</ele>
        <time>2022-07-21T07:49:02Z</time>
      </trkpt>
      <trkpt lat="47.2863730" lon="6.9223340">
        <ele>787.8</ele>
        <time>2022-07-21T07:49:03Z</time>
      </trkpt>
      <trkpt lat="47.2863790" lon="6.9223450">
        <ele>787.9</ele>
        <time>2022-07-21T07:49:04Z</time>
      </trkpt>
      <trkpt lat="47.2863920" lon="6.9223730">
        <ele>788.0</ele>
        <time>2022-07-21T07:49:05Z</time>
      </trkpt>
      <trkpt lat="47.2863980" lon="6.9223850">
        <ele>788.1</ele>
        <time>2022-07-21T07:49:06Z</time>
      </trkpt>
      <trkpt lat="47.2864040" lon="6.9223980">
        <ele>788.2</ele>
        <time>2022-07-21T07:49:07Z</time>
      </trkpt>
      <trkpt lat="47.2864200" lon="6.9224310">
        <ele>788.3</ele>
        <time>2022-07-21T07:49:08Z</time>
      </trkpt>
      <trkpt lat="47.2864270" lon="6.9224440">
        <ele>788.4</ele>
        <time>2022-07-21T07:49:09Z</time>
      </trkpt>
      <trkpt lat="47.2864470" lon="6.9224800">
        <ele>788.6</ele>
        <time>2022-07-21T07:49:10Z</time>
      </trkpt>
      <trkpt lat="47.2864540" lon="6.9224910">
        <ele>788.7</ele>
        <time>2022-07-21T07:49:11Z</time>
      </trkpt>
      <trkpt lat="47.2864710" lon="6.9225250">
        <ele>788.9</ele>
        <time>2022-07-21T07:49:12Z</time>
      </trkpt>
      <trkpt lat="47.2864750" lon="6.9225350">
        <ele>788.9</ele>
        <time>2022-07-21T07:49:13Z</time>
      </trkpt>
      <trkpt lat="47.2864910" lon="6.9225720">
        <ele>789.2</ele>
        <time>2022-07-21T07:49:14Z</time>
      </trkpt>
      <trkpt lat="47.2864950" lon="6.9225820">
        <ele>789.2</ele>
        <time>2022-07-21T07:49:15Z</time>
      </trkpt>
      <trkpt lat="47.2865050" lon="6.9225980">
        <ele>789.3</ele>
        <time>2022-07-21T07:49:16Z</time>
      </trkpt>
      <trkpt lat="47.2865170" lon="6.9226210">
        <ele>789.4</ele>
        <time>2022-07-21T07:49:17Z</time>
      </trkpt>
      <trkpt lat="47.2865290" lon="6.9226420">
        <ele>789.6</ele>
        <time>2022-07-21T07:49:18Z</time>
      </trkpt>
      <trkpt lat="47.2865380" lon="6.9226630">
        <ele>789.7</ele>
        <time>2022-07-21T07:49:19Z</time>
      </trkpt>
      <trkpt lat="47.2865470" lon="6.9226860">
        <ele>789.8</ele>
        <time>2022-07-21T07:49:20Z</time>
      </trkpt>
      <trkpt lat="47.2865550" lon="6.9227090">
        <ele>789.9</ele>
        <time>2022-07-21T07:49:21Z</time>
      </trkpt>
      <trkpt lat="47.2865620" lon="6.9227280">
        <ele>790.1</ele>
        <time>2022-07-21T07:49:22Z</time>
      </trkpt>
      <trkpt lat="47.2865720" lon="6.9227450">
        <ele>790.2</ele>
        <time>2022-07-21T07:49:23Z</time>
      </trkpt>
      <trkpt lat="47.2865780" lon="6.9227600">
        <ele>790.3</ele>
        <time>2022-07-21T07:49:24Z</time>
      </trkpt>
      <trkpt lat="47.2865860" lon="6.9227820">
        <ele>790.4</ele>
        <time>2022-07-21T07:49:25Z</time>
      </trkpt>
      <trkpt lat="47.2865930" lon="6.9228040">
        <ele>790.5</ele>
        <time>2022-07-21T07:49:26Z</time>
      </trkpt>
      <trkpt lat="47.2865990" lon="6.9228240">
        <ele>790.6</ele>
        <time>2022-07-21T07:49:27Z</time>
      </trkpt>
      <trkpt lat="47.2866060" lon="6.9228480">
        <ele>790.7</ele>
        <time>2022-07-21T07:49:28Z</time>
      </trkpt>
      <trkpt lat="47.2866130" lon="6.9228720">
        <ele>790.9</ele>
        <time>2022-07-21T07:49:29Z</time>
      </trkpt>
      <trkpt lat="47.2866180" lon="6.9228920">
        <ele>791.0</ele>
        <time>2022-07-21T07:49:30Z</time>
      </trkpt>
      <trkpt lat="47.2866220" lon="6.9229110">
        <ele>791.1</ele>
        <time>2022-07-21T07:49:31Z</time>
      </trkpt>
      <trkpt lat="47.2866300" lon="6.9229340">
        <ele>791.2</ele>
        <time>2022-07-21T07:49:32Z</time>
      </trkpt>
      <trkpt lat="47.2866390" lon="6.9229540">
        <ele>791.4</ele>
        <time>2022-07-21T07:49:33Z</time>
      </trkpt>
      <trkpt lat="47.2866500" lon="6.9229840">
        <ele>791.5</ele>
        <time>2022-07-21T07:49:34Z</time>
      </trkpt>
      <trkpt lat="47.2866540" lon="6.9229960">
        <ele>791.6</ele>
        <time>2022-07-21T07:49:35Z</time>
      </trkpt>
      <trkpt lat="47.2866580" lon="6.9230090">
        <ele>791.7</ele>
        <time>2022-07-21T07:49:36Z</time>
      </trkpt>
      <trkpt lat="47.2866650" lon="6.9230320">
        <ele>791.8</ele>
        <time>2022-07-21T07:49:37Z</time>
      </trkpt>
      <trkpt lat="47.2866700" lon="6.9230510">
        <ele>791.9</ele>
        <time>2022-07-21T07:49:38Z</time>
      </trkpt>
      <trkpt lat="47.2866770" lon="6.9230700">
        <ele>792.0</ele>
        <time>2022-07-21T07:49:39Z</time>
      </trkpt>
      <trkpt lat="47.2866830" lon="6.9230900">
        <ele>792.1</ele>
        <time>2022-07-21T07:49:40Z</time>
      </trkpt>
      <trkpt lat="47.2866880" lon="6.9231120">
        <ele>792.3</ele>
        <time>2022-07-21T07:49:41Z</time>
      </trkpt>
      <trkpt lat="47.2866930" lon="6.9231300">
        <ele>792.4</ele>
        <time>2022-07-21T07:49:42Z</time>
      </trkpt>
      <trkpt lat="47.2866990" lon="6.9231460">
        <ele>792.5</ele>
        <time>2022-07-21T07:49:43Z</time>
      </trkpt>
      <trkpt lat="47.2867070" lon="6.9231640">
        <ele>792.6</ele>
        <time>2022-07-21T07:49:44Z</time>
      </trkpt>
      <trkpt lat="47.2867180" lon="6.9231820">
        <ele>792.7</ele>
        <time>2022-07-21T07:49:45Z</time>
      </trkpt>
      <trkpt lat="47.2867280" lon="6.9232040">
        <ele>792.8</ele>
        <time>2022-07-21T07:49:46Z</time>
      </trkpt>
      <trkpt lat="47.2867370" lon="6.9232430">
        <ele>793.1</ele>
        <time>2022-07-21T07:49:47Z</time>
      </trkpt>
      <trkpt lat="47.2867410" lon="6.9232580">
        <ele>793.1</ele>
        <time>2022-07-21T07:49:48Z</time>
      </trkpt>
      <trkpt lat="47.2867480" lon="6.9232790">
        <ele>793.3</ele>
        <time>2022-07-21T07:49:49Z</time>
      </trkpt>
      <trkpt lat="47.2867560" lon="6.9232960">
        <ele>793.4</ele>
        <time>2022-07-21T07:49:50Z</time>
      </trkpt>
      <trkpt lat="47.2867660" lon="6.9233130">
        <ele>793.5</ele>
        <time>2022-07-21T07:49:51Z</time>
      </trkpt>
      <trkpt lat="47.2867760" lon="6.9233290">
        <ele>793.6</ele>
        <time>2022-07-21T07:49:52Z</time>
      </trkpt>
      <trkpt lat="47.2867900" lon="6.9233540">
        <ele>793.8</ele>
        <time>2022-07-21T07:49:53Z</time>
      </trkpt>
      <trkpt lat="47.2867950" lon="6.9233650">
        <ele>793.9</ele>
        <time>2022-07-21T07:49:54Z</time>
      </trkpt>
      <trkpt lat="47.2867990" lon="6.9233750">
        <ele>793.9</ele>
        <time>2022-07-21T07:49:55Z</time>
      </trkpt>
      <trkpt lat="47.2868040" lon="6.9233860">
        <ele>794.0</ele>
        <time>2022-07-21T07:49:56Z</time>
      </trkpt>
      <trkpt lat="47.2868130" lon="6.9234030">
        <ele>794.1</ele>
        <time>2022-07-21T07:49:57Z</time>
      </trkpt>
      <trkpt lat="47.2868180" lon="6.9234140">
        <ele>794.2</ele>
        <time>2022-07-21T07:49:58Z</time>
      </trkpt>
      <trkpt lat="47.2868250" lon="6.9234330">
        <ele>794.3</ele>
        <time>2022-07-21T07:49:59Z</time>
      </trkpt>
      <trkpt lat="47.2868330" lon="6.9234530">
        <ele>794.4</ele>
        <time>2022-07-21T07:50:00Z</time>
      </trkpt>
      <trkpt lat="47.2868440" lon="6.9234730">
        <ele>794.6</ele>
        <time>2022-07-21T07:50:01Z</time>
      </trkpt>
      <trkpt lat="47.2868570" lon="6.9234890">
        <ele>794.7</ele>
        <time>2022-07-21T07:50:02Z</time>
      </trkpt>
      <trkpt lat="47.2868690" lon="6.9235050">
        <ele>794.8</ele>
        <time>2022-07-21T07:50:03Z</time>
      </trkpt>
      <trkpt lat="47.2868810" lon="6.9235270">
        <ele>795.0</ele>
        <time>2022-07-21T07:50:04Z</time>
      </trkpt>
      <trkpt lat="47.2869000" lon="6.9235620">
        <ele>795.3</ele>
        <time>2022-07-21T07:50:05Z</time>
      </trkpt>
      <trkpt lat="47.2869060" lon="6.9235750">
        <ele>795.4</ele>
        <time>2022-07-21T07:50:06Z</time>
      </trkpt>
      <trkpt lat="47.2869150" lon="6.9235950">
        <ele>795.5</ele>
        <time>2022-07-21T07:50:07Z</time>
      </trkpt>
      <trkpt lat="47.2869230" lon="6.9236150">
        <ele>795.6</ele>
        <time>2022-07-21T07:50:08Z</time>
      </trkpt>
      <trkpt lat="47.2869410" lon="6.9236490">
        <ele>795.9</ele>
        <time>2022-07-21T07:50:09Z</time>
      </trkpt>
      <trkpt lat="47.2869470" lon="6.9236600">
        <ele>796.0</ele>
        <time>2022-07-21T07:50:10Z</time>
      </trkpt>
      <trkpt lat="47.2869580" lon="6.9236770">
        <ele>796.1</ele>
        <time>2022-07-21T07:50:11Z</time>
      </trkpt>
      <trkpt lat="47.2869690" lon="6.9236930">
        <ele>796.2</ele>
        <time>2022-07-21T07:50:12Z</time>
      </trkpt>
      <trkpt lat="47.2869790" lon="6.9237090">
        <ele>796.3</ele>
        <time>2022-07-21T07:50:13Z</time>
      </trkpt>
      <trkpt lat="47.2869920" lon="6.9237300">
        <ele>796.5</ele>
        <time>2022-07-21T07:50:14Z</time>
      </trkpt>
      <trkpt lat="47.2870030" lon="6.9237480">
        <ele>796.6</ele>
        <time>2022-07-21T07:50:15Z</time>
      </trkpt>
      <trkpt lat="47.2870130" lon="6.9237640">
        <ele>796.8</ele>
        <time>2022-07-21T07:50:16Z</time>
      </trkpt>
      <trkpt lat="47.2870230" lon="6.9237800">
        <ele>796.9</ele>
        <time>2022-07-21T07:50:17Z</time>
      </trkpt>
      <trkpt lat="47.2870310" lon="6.9237970">
        <ele>797.0</ele>
        <time>2022-07-21T07:50:18Z</time>
      </trkpt>
      <trkpt lat="47.2870370" lon="6.9238080">
        <ele>797.1</ele>
        <time>2022-07-21T07:50:19Z</time>
      </trkpt>
      <trkpt lat="47.2870450" lon="6.9238210">
        <ele>797.2</ele>
        <time>2022-07-21T07:50:20Z</time>
      </trkpt>
      <trkpt lat="47.2870520" lon="6.9238300">
        <ele>797.3</ele>
        <time>2022-07-21T07:50:21Z</time>
      </trkpt>
      <trkpt lat="47.2870620" lon="6.9238460">
        <ele>797.4</ele>
        <time>2022-07-21T07:50:22Z</time>
      </trkpt>
      <trkpt lat="47.2870710" lon="6.9238600">
        <ele>797.5</ele>
        <time>2022-07-21T07:50:23Z</time>
      </trkpt>
      <trkpt lat="47.2870770" lon="6.9238720">
        <ele>797.6</ele>
        <time>2022-07-21T07:50:24Z</time>
      </trkpt>
      <trkpt lat="47.2870840" lon="6.9238850">
        <ele>797.7</ele>
        <time>2022-07-21T07:50:25Z</time>
      </trkpt>
      <trkpt lat="47.2870940" lon="6.9238930">
        <ele>797.8</ele>
        <time>2022-07-21T07:50:26Z</time>
      </trkpt>
      <trkpt lat="47.2871030" lon="6.9239070">
        <ele>797.9</ele>
        <time>2022-07-21T07:50:27Z</time>
      </trkpt>
      <trkpt lat="47.2871150" lon="6.9239190">
        <ele>798.0</ele>
        <time>2022-07-21T07:50:28Z</time>
      </trkpt>
      <trkpt lat="47.2871250" lon="6.9239310">
        <ele>798.1</ele>
        <time>2022-07-21T07:50:29Z</time>
      </trkpt>
      <trkpt lat="47.2871380" lon="6.9239490">
        <ele>798.3</ele>
        <time>2022-07-21T07:50:30Z</time>
      </trkpt>
      <trkpt lat="47.2871530" lon="6.9239700">
        <ele>798.5</ele>
        <time>2022-07-21T07:50:31Z</time>
      </trkpt>
      <trkpt lat="47.2871660" lon="6.9239840">
        <ele>798.6</ele>
        <time>2022-07-21T07:50:32Z</time>
      </trkpt>
      <trkpt lat="47.2871790" lon="6.9239980">
        <ele>798.8</ele>
        <time>2022-07-21T07:50:33Z</time>
      </trkpt>
      <trkpt lat="47.2871900" lon="6.9240110">
        <ele>798.9</ele>
        <time>2022-07-21T07:50:34Z</time>
      </trkpt>
      <trkpt lat="47.2872050" lon="6.9240330">
        <ele>799.1</ele>
        <time>2022-07-21T07:50:35Z</time>
      </trkpt>
      <trkpt lat="47.2872110" lon="6.9240410">
        <ele>799.1</ele>
        <time>2022-07-21T07:50:36Z</time>
      </trkpt>
      <trkpt lat="47.2872170" lon="6.9240490">
        <ele>799.2</ele>
        <time>2022-07-21T07:50:37Z</time>
      </trkpt>
      <trkpt lat="47.2872250" lon="6.9240640">
        <ele>799.3</ele>
        <time>2022-07-21T07:50:38Z</time>
      </trkpt>
      <trkpt lat="47.2872320" lon="6.9240730">
        <ele>799.4</ele>
        <time>2022-07-21T07:50:39Z</time>
      </trkpt>
      <trkpt lat="47.2872400" lon="6.9240860">
        <ele>799.5</ele>
        <time>2022-07-21T07:50:40Z</time>
      </trkpt>
      <trkpt lat="47.2872590" lon="6.9241190">
        <ele>799.8</ele>
        <time>2022-07-21T07:50:41Z</time>
      </trkpt>
      <trkpt lat="47.2872680" lon="6.9241350">
        <ele>799.9</ele>
        <time>2022-07-21T07:50:42Z</time>
      </trkpt>
      <trkpt lat="47.2872920" lon="6.9241660">
        <ele>800.2</ele>
        <time>2022-07-21T07:50:43Z</time>
      </trkpt>
      <trkpt lat="47.2873000" lon="6.9241760">
        <ele>800.3</ele>
        <time>2022-07-21T07:50:44Z</time>
      </trkpt>
      <trkpt lat="47.2873230" lon="6.9241990">
        <ele>800.5</ele>
        <time>2022-07-21T07:50:45Z</time>
      </trkpt>
      <trkpt lat="47.2873300" lon="6.9242060">
        <ele>800.6</ele>
        <time>2022-07-21T07:50:46Z</time>
      </trkpt>
      <trkpt lat="47.2873430" lon="6.9242250">
        <ele>800.7</ele>
        <time>2022-07-21T07:50:47Z</time>
      </trkpt>
      <trkpt lat="47.2873530" lon="6.9242430">
        <ele>800.9</ele>
        <time>2022-07-21T07:50:48Z</time>
      </trkpt>
      <trkpt lat="47.2873620" lon="6.9242590">
        <ele>801.0</ele>
        <time>2022-07-21T07:50:49Z</time>
      </trkpt>
      <trkpt lat="47.2873720" lon="6.9242730">
        <ele>801.1</ele>
        <time>2022-07-21T07:50:50Z</time>
      </trkpt>
      <trkpt lat="47.2873870" lon="6.9242950">
        <ele>801.3</ele>
        <time>2022-07-21T07:50:51Z</time>
      </trkpt>
      <trkpt lat="47.2873940" lon="6.9243050">
        <ele>801.3</ele>
        <time>2022-07-21T07:50:52Z</time>
      </trkpt>
      <trkpt lat="47.2874010" lon="6.9243150">
        <ele>801.4</ele>
        <time>2022-07-21T07:50:53Z</time>
      </trkpt>
      <trkpt lat="47.2874130" lon="6.9243310">
        <ele>801.6</ele>
        <time>2022-07-21T07:50:54Z</time>
      </trkpt>
      <trkpt lat="47.2874250" lon="6.9243480">
        <ele>801.7</ele>
        <time>2022-07-21T07:50:55Z</time>
      </trkpt>
      <trkpt lat="47.2874470" lon="6.9243790">
        <ele>801.9</ele>
        <time>2022-07-21T07:50:56Z</time>
      </trkpt>
      <trkpt lat="47.2874540" lon="6.9243890">
        <ele>802.0</ele>
        <time>2022-07-21T07:50:57Z</time>
      </trkpt>
      <trkpt lat="47.2874630" lon="6.9243990">
        <ele>802.1</ele>
        <time>2022-07-21T07:50:58Z</time>
      </trkpt>
      <trkpt lat="47.2874720" lon="6.9244090">
        <ele>802.2</ele>
        <time>2022-07-21T07:50:59Z</time>
      </trkpt>
      <trkpt lat="47.2874780" lon="6.9244130">
        <ele>802.3</ele>
        <time>2022-07-21T07:51:00Z</time>
      </trkpt>
      <trkpt lat="47.2874860" lon="6.9244190">
        <ele>802.3</ele>
        <time>2022-07-21T07:51:01Z</time>
      </trkpt>
      <trkpt lat="47.2874990" lon="6.9244300">
        <ele>802.5</ele>
        <time>2022-07-21T07:51:02Z</time>
      </trkpt>
      <trkpt lat="47.2875080" lon="6.9244390">
        <ele>802.6</ele>
        <time>2022-07-21T07:51:03Z</time>
      </trkpt>
      <trkpt lat="47.2875200" lon="6.9244490">
        <ele>802.7</ele>
        <time>2022-07-21T07:51:04Z</time>
      </trkpt>
      <trkpt lat="47.2875330" lon="6.9244570">
        <ele>802.8</ele>
        <time>2022-07-21T07:51:05Z</time>
      </trkpt>
      <trkpt lat="47.2875520" lon="6.9244720">
        <ele>803.0</ele>
        <time>2022-07-21T07:51:06Z</time>
      </trkpt>
      <trkpt lat="47.2875590" lon="6.9244780">
        <ele>803.0</ele>
        <time>2022-07-21T07:51:07Z</time>
      </trkpt>
      <trkpt lat="47.2875660" lon="6.9244840">
        <ele>803.1</ele>
        <time>2022-07-21T07:51:08Z</time>
      </trkpt>
      <trkpt lat="47.2875800" lon="6.9244950">
        <ele>803.2</ele>
        <time>2022-07-21T07:51:09Z</time>
      </trkpt>
      <trkpt lat="47.2875940" lon="6.9245120">
        <ele>803.3</ele>
        <time>2022-07-21T07:51:10Z</time>
      </trkpt>
      <trkpt lat="47.2876050" lon="6.9245270">
        <ele>803.5</ele>
        <time>2022-07-21T07:51:11Z</time>
      </trkpt>
      <trkpt lat="47.2876150" lon="6.9245430">
        <ele>803.6</ele>
        <time>2022-07-21T07:51:12Z</time>
      </trkpt>
      <trkpt lat="47.2876360" lon="6.9245670">
        <ele>803.8</ele>
        <time>2022-07-21T07:51:13Z</time>
      </trkpt>
      <trkpt lat="47.2876440" lon="6.9245740">
        <ele>803.8</ele>
        <time>2022-07-21T07:51:14Z</time>
      </trkpt>
      <trkpt lat="47.2876680" lon="6.9245960">
        <ele>804.1</ele>
        <time>2022-07-21T07:51:15Z</time>
      </trkpt>
      <trkpt lat="47.2876760" lon="6.9246030">
        <ele>804.1</ele>
        <time>2022-07-21T07:51:16Z</time>
      </trkpt>
      <trkpt lat="47.2876970" lon="6.9246320">
        <ele>804.3</ele>
        <time>2022-07-21T07:51:17Z</time>
      </trkpt>
      <trkpt lat="47.2877040" lon="6.9246410">
        <ele>804.4</ele>
        <time>2022-07-21T07:51:18Z</time>
      </trkpt>
      <trkpt lat="47.2877280" lon="6.9246720">
        <ele>804.7</ele>
        <time>2022-07-21T07:51:19Z</time>
      </trkpt>
      <trkpt lat="47.2877360" lon="6.9246810">
        <ele>804.7</ele>
        <time>2022-07-21T07:51:20Z</time>
      </trkpt>
      <trkpt lat="47.2877520" lon="6.9247040">
        <ele>804.9</ele>
        <time>2022-07-21T07:51:21Z</time>
      </trkpt>
      <trkpt lat="47.2877580" lon="6.9247140">
        <ele>805.0</ele>
        <time>2022-07-21T07:51:22Z</time>
      </trkpt>
      <trkpt lat="47.2877640" lon="6.9247240">
        <ele>805.1</ele>
        <time>2022-07-21T07:51:23Z</time>
      </trkpt>
      <trkpt lat="47.2877760" lon="6.9247420">
        <ele>805.2</ele>
        <time>2022-07-21T07:51:24Z</time>
      </trkpt>
      <trkpt lat="47.2877900" lon="6.9247500">
        <ele>805.3</ele>
        <time>2022-07-21T07:51:25Z</time>
      </trkpt>
      <trkpt lat="47.2878040" lon="6.9247590">
        <ele>805.5</ele>
        <time>2022-07-21T07:51:26Z</time>
      </trkpt>
      <trkpt lat="47.2878200" lon="6.9247700">
        <ele>805.6</ele>
        <time>2022-07-21T07:51:27Z</time>
      </trkpt>
      <trkpt lat="47.2878360" lon="6.9247820">
        <ele>805.7</ele>
        <time>2022-07-21T07:51:28Z</time>
      </trkpt>
      <trkpt lat="47.2878480" lon="6.9247960">
        <ele>805.9</ele>
        <time>2022-07-21T07:51:29Z</time>
      </trkpt>
      <trkpt lat="47.2878610" lon="6.9248090">
        <ele>806.0</ele>
        <time>2022-07-21T07:51:30Z</time>
      </trkpt>
      <trkpt lat="47.2878740" lon="6.9248220">
        <ele>806.1</ele>
        <time>2022-07-21T07:51:31Z</time>
      </trkpt>
      <trkpt lat="47.2879000" lon="6.9248490">
        <ele>806.4</ele>
        <time>2022-07-21T07:51:32Z</time>
      </trkpt>
      <trkpt lat="47.2879090" lon="6.9248600">
        <ele>806.5</ele>
        <time>2022-07-21T07:51:33Z</time>
      </trkpt>
      <trkpt lat="47.2879320" lon="6.9248970">
        <ele>806.8</ele>
        <time>2022-07-21T07:51:34Z</time>
      </trkpt>
      <trkpt lat="47.2879380" lon="6.9249070">
        <ele>806.8</ele>
        <time>2022-07-21T07:51:35Z</time>
      </trkpt>
      <trkpt lat="47.2879610" lon="6.9249430">
        <ele>807.1</ele>
        <time>2022-07-21T07:51:36Z</time>
      </trkpt>
      <trkpt lat="47.2879690" lon="6.9249530">
        <ele>807.2</ele>
        <time>2022-07-21T07:51:37Z</time>
      </trkpt>
      <trkpt lat="47.2879830" lon="6.9249740">
        <ele>807.4</ele>
        <time>2022-07-21T07:51:38Z</time>
      </trkpt>
      <trkpt lat="47.2879950" lon="6.9249890">
        <ele>807.5</ele>
        <time>2022-07-21T07:51:39Z</time>
      </trkpt>
      <trkpt lat="47.2880080" lon="6.9250050">
        <ele>807.6</ele>
        <time>2022-07-21T07:51:40Z</time>
      </trkpt>
      <trkpt lat="47.2880220" lon="6.9250220">
        <ele>807.8</ele>
        <time>2022-07-21T07:51:41Z</time>
      </trkpt>
      <trkpt lat="47.2880490" lon="6.9250480">
        <ele>808.0</ele>
        <time>2022-07-21T07:51:42Z</time>
      </trkpt>
      <trkpt lat="47.2880570" lon="6.9250550">
        <ele>808.1</ele>
        <time>2022-07-21T07:51:43Z</time>
      </trkpt>
      <trkpt lat="47.2880810" lon="6.9250780">
        <ele>808.3</ele>
        <time>2022-07-21T07:51:44Z</time>
      </trkpt>
      <trkpt lat="47.2880880" lon="6.9250860">
        <ele>808.4</ele>
        <time>2022-07-21T07:51:45Z</time>
      </trkpt>
      <trkpt lat="47.2881020" lon="6.9251010">
        <ele>808.5</ele>
        <time>2022-07-21T07:51:46Z</time>
      </trkpt>
      <trkpt lat="47.2881160" lon="6.9251200">
        <ele>808.7</ele>
        <time>2022-07-21T07:51:47Z</time>
      </trkpt>
      <trkpt lat="47.2881280" lon="6.9251370">
        <ele>808.8</ele>
        <time>2022-07-21T07:51:48Z</time>
      </trkpt>
      <trkpt lat="47.2881380" lon="6.9251520">
        <ele>808.9</ele>
        <time>2022-07-21T07:51:49Z</time>
      </trkpt>
      <trkpt lat="47.2881500" lon="6.9251710">
        <ele>809.1</ele>
        <time>2022-07-21T07:51:50Z</time>
      </trkpt>
      <trkpt lat="47.2881640" lon="6.9251970">
        <ele>809.2</ele>
        <time>2022-07-21T07:51:52Z</time>
      </trkpt>
      <trkpt lat="47.2881760" lon="6.9252160">
        <ele>809.4</ele>
        <time>2022-07-21T07:51:53Z</time>
      </trkpt>
      <trkpt lat="47.2881890" lon="6.9252340">
        <ele>809.5</ele>
        <time>2022-07-21T07:51:54Z</time>
      </trkpt>
      <trkpt lat="47.2882090" lon="6.9252600">
        <ele>809.7</ele>
        <time>2022-07-21T07:51:55Z</time>
      </trkpt>
      <trkpt lat="47.2882170" lon="6.9252680">
        <ele>809.8</ele>
        <time>2022-07-21T07:51:56Z</time>
      </trkpt>
      <trkpt lat="47.2882400" lon="6.9252970">
        <ele>810.1</ele>
        <time>2022-07-21T07:51:57Z</time>
      </trkpt>
      <trkpt lat="47.2882490" lon="6.9253070">
        <ele>810.2</ele>
        <time>2022-07-21T07:51:58Z</time>
      </trkpt>
      <trkpt lat="47.2882680" lon="6.9253390">
        <ele>810.4</ele>
        <time>2022-07-21T07:51:59Z</time>
      </trkpt>
      <trkpt lat="47.2882740" lon="6.9253500">
        <ele>810.5</ele>
        <time>2022-07-21T07:52:00Z</time>
      </trkpt>
      <trkpt lat="47.2882930" lon="6.9253830">
        <ele>810.7</ele>
        <time>2022-07-21T07:52:01Z</time>
      </trkpt>
      <trkpt lat="47.2882990" lon="6.9253930">
        <ele>810.8</ele>
        <time>2022-07-21T07:52:02Z</time>
      </trkpt>
      <trkpt lat="47.2883140" lon="6.9254110">
        <ele>811.0</ele>
        <time>2022-07-21T07:52:03Z</time>
      </trkpt>
      <trkpt lat="47.2883230" lon="6.9254190">
        <ele>811.0</ele>
        <time>2022-07-21T07:52:04Z</time>
      </trkpt>
      <trkpt lat="47.2883520" lon="6.9254410">
        <ele>811.3</ele>
        <time>2022-07-21T07:52:05Z</time>
      </trkpt>
      <trkpt lat="47.2883640" lon="6.9254470">
        <ele>811.4</ele>
        <time>2022-07-21T07:52:06Z</time>
      </trkpt>
      <trkpt lat="47.2883930" lon="6.9254680">
        <ele>811.6</ele>
        <time>2022-07-21T07:52:07Z</time>
      </trkpt>
      <trkpt lat="47.2884010" lon="6.9254770">
        <ele>811.7</ele>
        <time>2022-07-21T07:52:08Z</time>
      </trkpt>
      <trkpt lat="47.2884290" lon="6.9255080">
        <ele>812.0</ele>
        <time>2022-07-21T07:52:09Z</time>
      </trkpt>
      <trkpt lat="47.2884370" lon="6.9255160">
        <ele>812.1</ele>
        <time>2022-07-21T07:52:10Z</time>
      </trkpt>
      <trkpt lat="47.2884610" lon="6.9255410">
        <ele>812.3</ele>
        <time>2022-07-21T07:52:11Z</time>
      </trkpt>
      <trkpt lat="47.2884690" lon="6.9255490">
        <ele>812.4</ele>
        <time>2022-07-21T07:52:12Z</time>
      </trkpt>
      <trkpt lat="47.2884940" lon="6.9255740">
        <ele>812.6</ele>
        <time>2022-07-21T07:52:13Z</time>
      </trkpt>
      <trkpt lat="47.2885020" lon="6.9255830">
        <ele>812.7</ele>
        <time>2022-07-21T07:52:14Z</time>
      </trkpt>
      <trkpt lat="47.2885150" lon="6.9255960">
        <ele>812.8</ele>
        <time>2022-07-21T07:52:15Z</time>
      </trkpt>
      <trkpt lat="47.2885310" lon="6.9256120">
        <ele>812.9</ele>
        <time>2022-07-21T07:52:16Z</time>
      </trkpt>
      <trkpt lat="47.2885420" lon="6.9256300">
        <ele>813.1</ele>
        <time>2022-07-21T07:52:17Z</time>
      </trkpt>
      <trkpt lat="47.2885540" lon="6.9256490">
        <ele>813.2</ele>
        <time>2022-07-21T07:52:18Z</time>
      </trkpt>
      <trkpt lat="47.2885700" lon="6.9256850">
        <ele>813.4</ele>
        <time>2022-07-21T07:52:19Z</time>
      </trkpt>
      <trkpt lat="47.2885750" lon="6.9256940">
        <ele>813.5</ele>
        <time>2022-07-21T07:52:20Z</time>
      </trkpt>
      <trkpt lat="47.2885820" lon="6.9257040">
        <ele>813.6</ele>
        <time>2022-07-21T07:52:21Z</time>
      </trkpt>
      <trkpt lat="47.2885950" lon="6.9257250">
        <ele>813.7</ele>
        <time>2022-07-21T07:52:22Z</time>
      </trkpt>
      <trkpt lat="47.2886060" lon="6.9257440">
        <ele>813.8</ele>
        <time>2022-07-21T07:52:23Z</time>
      </trkpt>
      <trkpt lat="47.2886170" lon="6.9257620">
        <ele>814.0</ele>
        <time>2022-07-21T07:52:24Z</time>
      </trkpt>
      <trkpt lat="47.2886310" lon="6.9257700">
        <ele>814.1</ele>
        <time>2022-07-21T07:52:25Z</time>
      </trkpt>
      <trkpt lat="47.2886450" lon="6.9257780">
        <ele>814.2</ele>
        <time>2022-07-21T07:52:26Z</time>
      </trkpt>
      <trkpt lat="47.2886620" lon="6.9257720">
        <ele>814.3</ele>
        <time>2022-07-21T07:52:27Z</time>
      </trkpt>
      <trkpt lat="47.2886800" lon="6.9257700">
        <ele>814.5</ele>
        <time>2022-07-21T07:52:28Z</time>
      </trkpt>
      <trkpt lat="47.2887060" lon="6.9257890">
        <ele>814.7</ele>
        <time>2022-07-21T07:52:29Z</time>
      </trkpt>
      <trkpt lat="47.2887130" lon="6.9257970">
        <ele>814.8</ele>
        <time>2022-07-21T07:52:30Z</time>
      </trkpt>
      <trkpt lat="47.2887310" lon="6.9258320">
        <ele>815.0</ele>
        <time>2022-07-21T07:52:31Z</time>
      </trkpt>
      <trkpt lat="47.2887370" lon="6.9258430">
        <ele>815.1</ele>
        <time>2022-07-21T07:52:32Z</time>
      </trkpt>
      <trkpt lat="47.2887470" lon="6.9258620">
        <ele>815.2</ele>
        <time>2022-07-21T07:52:33Z</time>
      </trkpt>
      <trkpt lat="47.2887590" lon="6.9258810">
        <ele>815.4</ele>
        <time>2022-07-21T07:52:34Z</time>
      </trkpt>
      <trkpt lat="47.2887710" lon="6.9258990">
        <ele>815.5</ele>
        <time>2022-07-21T07:52:35Z</time>
      </trkpt>
      <trkpt lat="47.2887810" lon="6.9259140">
        <ele>815.6</ele>
        <time>2022-07-21T07:52:36Z</time>
      </trkpt>
      <trkpt lat="47.2887950" lon="6.9259310">
        <ele>815.8</ele>
        <time>2022-07-21T07:52:37Z</time>
      </trkpt>
      <trkpt lat="47.2888050" lon="6.9259440">
        <ele>815.9</ele>
        <time>2022-07-21T07:52:38Z</time>
      </trkpt>
      <trkpt lat="47.2888270" lon="6.9259680">
        <ele>816.1</ele>
        <time>2022-07-21T07:52:39Z</time>
      </trkpt>
      <trkpt lat="47.2888360" lon="6.9259780">
        <ele>816.1</ele>
        <time>2022-07-21T07:52:40Z</time>
      </trkpt>
      <trkpt lat="47.2888580" lon="6.9260150">
        <ele>816.4</ele>
        <time>2022-07-21T07:52:41Z</time>
      </trkpt>
      <trkpt lat="47.2888650" lon="6.9260290">
        <ele>816.5</ele>
        <time>2022-07-21T07:52:42Z</time>
      </trkpt>
      <trkpt lat="47.2888800" lon="6.9260650">
        <ele>816.7</ele>
        <time>2022-07-21T07:52:43Z</time>
      </trkpt>
      <trkpt lat="47.2888860" lon="6.9260770">
        <ele>816.8</ele>
        <time>2022-07-21T07:52:44Z</time>
      </trkpt>
      <trkpt lat="47.2889090" lon="6.9261150">
        <ele>817.0</ele>
        <time>2022-07-21T07:52:45Z</time>
      </trkpt>
      <trkpt lat="47.2889160" lon="6.9261260">
        <ele>817.1</ele>
        <time>2022-07-21T07:52:46Z</time>
      </trkpt>
      <trkpt lat="47.2889360" lon="6.9261550">
        <ele>817.3</ele>
        <time>2022-07-21T07:52:47Z</time>
      </trkpt>
      <trkpt lat="47.2889420" lon="6.9261660">
        <ele>817.4</ele>
        <time>2022-07-21T07:52:48Z</time>
      </trkpt>
      <trkpt lat="47.2889620" lon="6.9261920">
        <ele>817.6</ele>
        <time>2022-07-21T07:52:49Z</time>
      </trkpt>
      <trkpt lat="47.2889700" lon="6.9262020">
        <ele>817.7</ele>
        <time>2022-07-21T07:52:50Z</time>
      </trkpt>
      <trkpt lat="47.2889860" lon="6.9262230">
        <ele>817.9</ele>
        <time>2022-07-21T07:52:51Z</time>
      </trkpt>
      <trkpt lat="47.2889920" lon="6.9262330">
        <ele>818.0</ele>
        <time>2022-07-21T07:52:52Z</time>
      </trkpt>
      <trkpt lat="47.2889980" lon="6.9262430">
        <ele>818.0</ele>
        <time>2022-07-21T07:52:53Z</time>
      </trkpt>
      <trkpt lat="47.2890030" lon="6.9262600">
        <ele>818.2</ele>
        <time>2022-07-21T07:52:54Z</time>
      </trkpt>
      <trkpt lat="47.2890110" lon="6.9262790">
        <ele>818.3</ele>
        <time>2022-07-21T07:52:55Z</time>
      </trkpt>
      <trkpt lat="47.2890210" lon="6.9263020">
        <ele>818.4</ele>
        <time>2022-07-21T07:52:56Z</time>
      </trkpt>
      <trkpt lat="47.2890290" lon="6.9263250">
        <ele>818.6</ele>
        <time>2022-07-21T07:52:57Z</time>
      </trkpt>
      <trkpt lat="47.2890380" lon="6.9263490">
        <ele>818.7</ele>
        <time>2022-07-21T07:52:58Z</time>
      </trkpt>
      <trkpt lat="47.2890430" lon="6.9263590">
        <ele>818.8</ele>
        <time>2022-07-21T07:52:59Z</time>
      </trkpt>
      <trkpt lat="47.2890620" lon="6.9263910">
        <ele>819.0</ele>
        <time>2022-07-21T07:53:00Z</time>
      </trkpt>
      <trkpt lat="47.2890680" lon="6.9264020">
        <ele>819.1</ele>
        <time>2022-07-21T07:53:01Z</time>
      </trkpt>
      <trkpt lat="47.2890760" lon="6.9264190">
        <ele>819.2</ele>
        <time>2022-07-21T07:53:02Z</time>
      </trkpt>
      <trkpt lat="47.2890870" lon="6.9264410">
        <ele>819.4</ele>
        <time>2022-07-21T07:53:03Z</time>
      </trkpt>
      <trkpt lat="47.2891100" lon="6.9264670">
        <ele>819.6</ele>
        <time>2022-07-21T07:53:04Z</time>
      </trkpt>
      <trkpt lat="47.2891190" lon="6.9264720">
        <ele>819.7</ele>
        <time>2022-07-21T07:53:05Z</time>
      </trkpt>
      <trkpt lat="47.2891460" lon="6.9264920">
        <ele>820.0</ele>
        <time>2022-07-21T07:53:06Z</time>
      </trkpt>
      <trkpt lat="47.2891720" lon="6.9265320">
        <ele>820.2</ele>
        <time>2022-07-21T07:53:07Z</time>
      </trkpt>
      <trkpt lat="47.2891800" lon="6.9265460">
        <ele>820.3</ele>
        <time>2022-07-21T07:53:08Z</time>
      </trkpt>
      <trkpt lat="47.2892060" lon="6.9265870">
        <ele>820.6</ele>
        <time>2022-07-21T07:53:09Z</time>
      </trkpt>
      <trkpt lat="47.2892140" lon="6.9266010">
        <ele>820.7</ele>
        <time>2022-07-21T07:53:10Z</time>
      </trkpt>
      <trkpt lat="47.2892350" lon="6.9266360">
        <ele>820.9</ele>
        <time>2022-07-21T07:53:11Z</time>
      </trkpt>
      <trkpt lat="47.2892390" lon="6.9266450">
        <ele>820.9</ele>
        <time>2022-07-21T07:53:12Z</time>
      </trkpt>
      <trkpt lat="47.2892590" lon="6.9266790">
        <ele>821.1</ele>
        <time>2022-07-21T07:53:13Z</time>
      </trkpt>
      <trkpt lat="47.2892650" lon="6.9266910">
        <ele>821.2</ele>
        <time>2022-07-21T07:53:14Z</time>
      </trkpt>
      <trkpt lat="47.2892830" lon="6.9267260">
        <ele>821.4</ele>
        <time>2022-07-21T07:53:15Z</time>
      </trkpt>
      <trkpt lat="47.2892880" lon="6.9267360">
        <ele>821.4</ele>
        <time>2022-07-21T07:53:16Z</time>
      </trkpt>
      <trkpt lat="47.2893050" lon="6.9267770">
        <ele>821.6</ele>
        <time>2022-07-21T07:53:17Z</time>
      </trkpt>
      <trkpt lat="47.2893100" lon="6.9267870">
        <ele>821.7</ele>
        <time>2022-07-21T07:53:18Z</time>
      </trkpt>
      <trkpt lat="47.2893170" lon="6.9268010">
        <ele>821.7</ele>
        <time>2022-07-21T07:53:19Z</time>
      </trkpt>
      <trkpt lat="47.2893320" lon="6.9268200">
        <ele>821.9</ele>
        <time>2022-07-21T07:53:20Z</time>
      </trkpt>
      <trkpt lat="47.2893540" lon="6.9268530">
        <ele>822.1</ele>
        <time>2022-07-21T07:53:21Z</time>
      </trkpt>
      <trkpt lat="47.2893590" lon="6.9268620">
        <ele>822.1</ele>
        <time>2022-07-21T07:53:22Z</time>
      </trkpt>
      <trkpt lat="47.2893720" lon="6.9268820">
        <ele>822.2</ele>
        <time>2022-07-21T07:53:23Z</time>
      </trkpt>
      <trkpt lat="47.2893820" lon="6.9269010">
        <ele>822.3</ele>
        <time>2022-07-21T07:53:24Z</time>
      </trkpt>
      <trkpt lat="47.2893920" lon="6.9269170">
        <ele>822.4</ele>
        <time>2022-07-21T07:53:25Z</time>
      </trkpt>
      <trkpt lat="47.2894010" lon="6.9269340">
        <ele>822.5</ele>
        <time>2022-07-21T07:53:26Z</time>
      </trkpt>
      <trkpt lat="47.2894200" lon="6.9269660">
        <ele>822.7</ele>
        <time>2022-07-21T07:53:27Z</time>
      </trkpt>
      <trkpt lat="47.2894260" lon="6.9269760">
        <ele>822.8</ele>
        <time>2022-07-21T07:53:28Z</time>
      </trkpt>
      <trkpt lat="47.2894430" lon="6.9270130">
        <ele>823.0</ele>
        <time>2022-07-21T07:53:29Z</time>
      </trkpt>
      <trkpt lat="47.2894490" lon="6.9270250">
        <ele>823.1</ele>
        <time>2022-07-21T07:53:30Z</time>
      </trkpt>
      <trkpt lat="47.2894690" lon="6.9270600">
        <ele>823.3</ele>
        <time>2022-07-21T07:53:31Z</time>
      </trkpt>
      <trkpt lat="47.2894750" lon="6.9270690">
        <ele>823.4</ele>
        <time>2022-07-21T07:53:32Z</time>
      </trkpt>
      <trkpt lat="47.2894940" lon="6.9271050">
        <ele>823.6</ele>
        <time>2022-07-21T07:53:33Z</time>
      </trkpt>
      <trkpt lat="47.2894990" lon="6.9271160">
        <ele>823.7</ele>
        <time>2022-07-21T07:53:34Z</time>
      </trkpt>
      <trkpt lat="47.2895220" lon="6.9271680">
        <ele>824.0</ele>
        <time>2022-07-21T07:53:36Z</time>
      </trkpt>
      <trkpt lat="47.2895320" lon="6.9271880">
        <ele>824.1</ele>
        <time>2022-07-21T07:53:37Z</time>
      </trkpt>
      <trkpt lat="47.2895420" lon="6.9272070">
        <ele>824.2</ele>
        <time>2022-07-21T07:53:38Z</time>
      </trkpt>
      <trkpt lat="47.2895590" lon="6.9272410">
        <ele>824.5</ele>
        <time>2022-07-21T07:53:39Z</time>
      </trkpt>
      <trkpt lat="47.2895640" lon="6.9272540">
        <ele>824.5</ele>
        <time>2022-07-21T07:53:40Z</time>
      </trkpt>
      <trkpt lat="47.2895790" lon="6.9272870">
        <ele>824.8</ele>
        <time>2022-07-21T07:53:41Z</time>
      </trkpt>
      <trkpt lat="47.2895840" lon="6.9272960">
        <ele>824.8</ele>
        <time>2022-07-21T07:53:42Z</time>
      </trkpt>
      <trkpt lat="47.2895890" lon="6.9273060">
        <ele>824.9</ele>
        <time>2022-07-21T07:53:43Z</time>
      </trkpt>
      <trkpt lat="47.2896000" lon="6.9273230">
        <ele>825.0</ele>
        <time>2022-07-21T07:53:44Z</time>
      </trkpt>
      <trkpt lat="47.2896300" lon="6.9273700">
        <ele>825.4</ele>
        <time>2022-07-21T07:53:46Z</time>
      </trkpt>
      <trkpt lat="47.2896720" lon="6.9273930">
        <ele>825.7</ele>
        <time>2022-07-21T07:53:48Z</time>
      </trkpt>
      <trkpt lat="47.2896990" lon="6.9274180">
        <ele>826.0</ele>
        <time>2022-07-21T07:53:49Z</time>
      </trkpt>
      <trkpt lat="47.2897060" lon="6.9274280">
        <ele>826.1</ele>
        <time>2022-07-21T07:53:50Z</time>
      </trkpt>
      <trkpt lat="47.2897220" lon="6.9274650">
        <ele>826.3</ele>
        <time>2022-07-21T07:53:51Z</time>
      </trkpt>
      <trkpt lat="47.2897270" lon="6.9274800">
        <ele>826.4</ele>
        <time>2022-07-21T07:53:52Z</time>
      </trkpt>
      <trkpt lat="47.2897470" lon="6.9275170">
        <ele>826.6</ele>
        <time>2022-07-21T07:53:53Z</time>
      </trkpt>
      <trkpt lat="47.2897530" lon="6.9275270">
        <ele>826.7</ele>
        <time>2022-07-21T07:53:54Z</time>
      </trkpt>
      <trkpt lat="47.2897750" lon="6.9275530">
        <ele>826.9</ele>
        <time>2022-07-21T07:53:55Z</time>
      </trkpt>
      <trkpt lat="47.2897830" lon="6.9275620">
        <ele>826.9</ele>
        <time>2022-07-21T07:53:56Z</time>
      </trkpt>
      <trkpt lat="47.2898080" lon="6.9275800">
        <ele>827.1</ele>
        <time>2022-07-21T07:53:57Z</time>
      </trkpt>
      <trkpt lat="47.2898160" lon="6.9275870">
        <ele>827.2</ele>
        <time>2022-07-21T07:53:58Z</time>
      </trkpt>
      <trkpt lat="47.2898380" lon="6.9276150">
        <ele>827.4</ele>
        <time>2022-07-21T07:53:59Z</time>
      </trkpt>
      <trkpt lat="47.2898460" lon="6.9276240">
        <ele>827.5</ele>
        <time>2022-07-21T07:54:00Z</time>
      </trkpt>
      <trkpt lat="47.2898740" lon="6.9276660">
        <ele>827.8</ele>
        <time>2022-07-21T07:54:02Z</time>
      </trkpt>
      <trkpt lat="47.2898980" lon="6.9276890">
        <ele>828.0</ele>
        <time>2022-07-21T07:54:03Z</time>
      </trkpt>
      <trkpt lat="47.2899060" lon="6.9276980">
        <ele>828.1</ele>
        <time>2022-07-21T07:54:04Z</time>
      </trkpt>
      <trkpt lat="47.2899180" lon="6.9277140">
        <ele>828.2</ele>
        <time>2022-07-21T07:54:05Z</time>
      </trkpt>
      <trkpt lat="47.2899260" lon="6.9277310">
        <ele>828.3</ele>
        <time>2022-07-21T07:54:06Z</time>
      </trkpt>
      <trkpt lat="47.2899430" lon="6.9277590">
        <ele>828.5</ele>
        <time>2022-07-21T07:54:07Z</time>
      </trkpt>
      <trkpt lat="47.2899490" lon="6.9277690">
        <ele>828.6</ele>
        <time>2022-07-21T07:54:08Z</time>
      </trkpt>
      <trkpt lat="47.2899550" lon="6.9277780">
        <ele>828.6</ele>
        <time>2022-07-21T07:54:09Z</time>
      </trkpt>
      <trkpt lat="47.2899780" lon="6.9278070">
        <ele>828.8</ele>
        <time>2022-07-21T07:54:10Z</time>
      </trkpt>
      <trkpt lat="47.2899870" lon="6.9278170">
        <ele>828.9</ele>
        <time>2022-07-21T07:54:11Z</time>
      </trkpt>
      <trkpt lat="47.2900090" lon="6.9278380">
        <ele>829.1</ele>
        <time>2022-07-21T07:54:12Z</time>
      </trkpt>
      <trkpt lat="47.2900160" lon="6.9278470">
        <ele>829.2</ele>
        <time>2022-07-21T07:54:13Z</time>
      </trkpt>
      <trkpt lat="47.2900430" lon="6.9278720">
        <ele>829.4</ele>
        <time>2022-07-21T07:54:14Z</time>
      </trkpt>
      <trkpt lat="47.2900510" lon="6.9278800">
        <ele>829.5</ele>
        <time>2022-07-21T07:54:15Z</time>
      </trkpt>
      <trkpt lat="47.2900780" lon="6.9279020">
        <ele>829.7</ele>
        <time>2022-07-21T07:54:16Z</time>
      </trkpt>
      <trkpt lat="47.2900860" lon="6.9279100">
        <ele>829.8</ele>
        <time>2022-07-21T07:54:17Z</time>
      </trkpt>
      <trkpt lat="47.2900980" lon="6.9279230">
        <ele>829.9</ele>
        <time>2022-07-21T07:54:18Z</time>
      </trkpt>
      <trkpt lat="47.2901100" lon="6.9279410">
        <ele>830.0</ele>
        <time>2022-07-21T07:54:19Z</time>
      </trkpt>
      <trkpt lat="47.2901290" lon="6.9279730">
        <ele>830.2</ele>
        <time>2022-07-21T07:54:20Z</time>
      </trkpt>
      <trkpt lat="47.2901350" lon="6.9279820">
        <ele>830.3</ele>
        <time>2022-07-21T07:54:21Z</time>
      </trkpt>
      <trkpt lat="47.2901560" lon="6.9280110">
        <ele>830.5</ele>
        <time>2022-07-21T07:54:22Z</time>
      </trkpt>
      <trkpt lat="47.2901640" lon="6.9280210">
        <ele>830.6</ele>
        <time>2022-07-21T07:54:23Z</time>
      </trkpt>
      <trkpt lat="47.2901860" lon="6.9280550">
        <ele>830.9</ele>
        <time>2022-07-21T07:54:24Z</time>
      </trkpt>
      <trkpt lat="47.2901920" lon="6.9280650">
        <ele>831.0</ele>
        <time>2022-07-21T07:54:25Z</time>
      </trkpt>
      <trkpt lat="47.2902150" lon="6.9281030">
        <ele>831.3</ele>
        <time>2022-07-21T07:54:26Z</time>
      </trkpt>
      <trkpt lat="47.2902240" lon="6.9281150">
        <ele>831.4</ele>
        <time>2022-07-21T07:54:27Z</time>
      </trkpt>
      <trkpt lat="47.2902460" lon="6.9281480">
        <ele>831.7</ele>
        <time>2022-07-21T07:54:28Z</time>
      </trkpt>
      <trkpt lat="47.2902540" lon="6.9281580">
        <ele>831.8</ele>
        <time>2022-07-21T07:54:29Z</time>
      </trkpt>
      <trkpt lat="47.2902660" lon="6.9281730">
        <ele>832.0</ele>
        <time>2022-07-21T07:54:30Z</time>
      </trkpt>
      <trkpt lat="47.2902790" lon="6.9281880">
        <ele>832.1</ele>
        <time>2022-07-21T07:54:31Z</time>
      </trkpt>
      <trkpt lat="47.2902990" lon="6.9282190">
        <ele>832.4</ele>
        <time>2022-07-21T07:54:32Z</time>
      </trkpt>
      <trkpt lat="47.2903050" lon="6.9282280">
        <ele>832.5</ele>
        <time>2022-07-21T07:54:33Z</time>
      </trkpt>
      <trkpt lat="47.2903290" lon="6.9282540">
        <ele>832.7</ele>
        <time>2022-07-21T07:54:34Z</time>
      </trkpt>
      <trkpt lat="47.2903350" lon="6.9282620">
        <ele>832.8</ele>
        <time>2022-07-21T07:54:35Z</time>
      </trkpt>
      <trkpt lat="47.2903600" lon="6.9282960">
        <ele>833.1</ele>
        <time>2022-07-21T07:54:36Z</time>
      </trkpt>
      <trkpt lat="47.2903690" lon="6.9283090">
        <ele>833.2</ele>
        <time>2022-07-21T07:54:37Z</time>
      </trkpt>
      <trkpt lat="47.2903940" lon="6.9283400">
        <ele>833.5</ele>
        <time>2022-07-21T07:54:38Z</time>
      </trkpt>
      <trkpt lat="47.2904020" lon="6.9283500">
        <ele>833.6</ele>
        <time>2022-07-21T07:54:39Z</time>
      </trkpt>
      <trkpt lat="47.2904210" lon="6.9283780">
        <ele>833.8</ele>
        <time>2022-07-21T07:54:40Z</time>
      </trkpt>
      <trkpt lat="47.2904270" lon="6.9283880">
        <ele>833.9</ele>
        <time>2022-07-21T07:54:41Z</time>
      </trkpt>
      <trkpt lat="47.2904480" lon="6.9284220">
        <ele>834.1</ele>
        <time>2022-07-21T07:54:42Z</time>
      </trkpt>
      <trkpt lat="47.2904560" lon="6.9284350">
        <ele>834.2</ele>
        <time>2022-07-21T07:54:43Z</time>
      </trkpt>
      <trkpt lat="47.2904790" lon="6.9284670">
        <ele>834.5</ele>
        <time>2022-07-21T07:54:44Z</time>
      </trkpt>
      <trkpt lat="47.2904880" lon="6.9284780">
        <ele>834.6</ele>
        <time>2022-07-21T07:54:45Z</time>
      </trkpt>
      <trkpt lat="47.2905150" lon="6.9285140">
        <ele>834.8</ele>
        <time>2022-07-21T07:54:46Z</time>
      </trkpt>
      <trkpt lat="47.2905230" lon="6.9285250">
        <ele>834.9</ele>
        <time>2022-07-21T07:54:47Z</time>
      </trkpt>
      <trkpt lat="47.2905480" lon="6.9285610">
        <ele>835.2</ele>
        <time>2022-07-21T07:54:48Z</time>
      </trkpt>
      <trkpt lat="47.2905570" lon="6.9285740">
        <ele>835.3</ele>
        <time>2022-07-21T07:54:49Z</time>
      </trkpt>
      <trkpt lat="47.2905780" lon="6.9286080">
        <ele>835.5</ele>
        <time>2022-07-21T07:54:50Z</time>
      </trkpt>
      <trkpt lat="47.2906020" lon="6.9286520">
        <ele>835.7</ele>
        <time>2022-07-21T07:54:51Z</time>
      </trkpt>
      <trkpt lat="47.2906120" lon="6.9286660">
        <ele>835.7</ele>
        <time>2022-07-21T07:54:52Z</time>
      </trkpt>
      <trkpt lat="47.2906330" lon="6.9286930">
        <ele>835.9</ele>
        <time>2022-07-21T07:54:53Z</time>
      </trkpt>
      <trkpt lat="47.2906610" lon="6.9287220">
        <ele>836.0</ele>
        <time>2022-07-21T07:54:54Z</time>
      </trkpt>
      <trkpt lat="47.2906710" lon="6.9287320">
        <ele>836.1</ele>
        <time>2022-07-21T07:54:55Z</time>
      </trkpt>
      <trkpt lat="47.2906960" lon="6.9287550">
        <ele>836.2</ele>
        <time>2022-07-21T07:54:56Z</time>
      </trkpt>
      <trkpt lat="47.2907050" lon="6.9287630">
        <ele>836.2</ele>
        <time>2022-07-21T07:54:57Z</time>
      </trkpt>
      <trkpt lat="47.2907350" lon="6.9287990">
        <ele>836.4</ele>
        <time>2022-07-21T07:54:58Z</time>
      </trkpt>
      <trkpt lat="47.2907450" lon="6.9288110">
        <ele>836.4</ele>
        <time>2022-07-21T07:54:59Z</time>
      </trkpt>
      <trkpt lat="47.2907690" lon="6.9288360">
        <ele>836.5</ele>
        <time>2022-07-21T07:55:00Z</time>
      </trkpt>
      <trkpt lat="47.2908090" lon="6.9288710">
        <ele>836.7</ele>
        <time>2022-07-21T07:55:02Z</time>
      </trkpt>
      <trkpt lat="47.2908350" lon="6.9289050">
        <ele>836.8</ele>
        <time>2022-07-21T07:55:03Z</time>
      </trkpt>
      <trkpt lat="47.2908600" lon="6.9289310">
        <ele>836.9</ele>
        <time>2022-07-21T07:55:04Z</time>
      </trkpt>
      <trkpt lat="47.2908860" lon="6.9289530">
        <ele>837.1</ele>
        <time>2022-07-21T07:55:05Z</time>
      </trkpt>
      <trkpt lat="47.2909100" lon="6.9289730">
        <ele>837.2</ele>
        <time>2022-07-21T07:55:06Z</time>
      </trkpt>
      <trkpt lat="47.2909440" lon="6.9290200">
        <ele>837.4</ele>
        <time>2022-07-21T07:55:07Z</time>
      </trkpt>
      <trkpt lat="47.2909740" lon="6.9290520">
        <ele>837.6</ele>
        <time>2022-07-21T07:55:09Z</time>
      </trkpt>
      <trkpt lat="47.2909830" lon="6.9290600">
        <ele>837.6</ele>
        <time>2022-07-21T07:55:10Z</time>
      </trkpt>
      <trkpt lat="47.2909990" lon="6.9290710">
        <ele>837.7</ele>
        <time>2022-07-21T07:55:11Z</time>
      </trkpt>
      <trkpt lat="47.2910100" lon="6.9290710">
        <ele>837.8</ele>
        <time>2022-07-21T07:55:12Z</time>
      </trkpt>
      <trkpt lat="47.2910220" lon="6.9290750">
        <ele>837.9</ele>
        <time>2022-07-21T07:55:13Z</time>
      </trkpt>
      <trkpt lat="47.2910370" lon="6.9290860">
        <ele>838.0</ele>
        <time>2022-07-21T07:55:14Z</time>
      </trkpt>
      <trkpt lat="47.2910480" lon="6.9290880">
        <ele>838.1</ele>
        <time>2022-07-21T07:55:15Z</time>
      </trkpt>
      <trkpt lat="47.2910580" lon="6.9290840">
        <ele>838.1</ele>
        <time>2022-07-21T07:55:16Z</time>
      </trkpt>
      <trkpt lat="47.2910780" lon="6.9290940">
        <ele>838.3</ele>
        <time>2022-07-21T07:55:18Z</time>
      </trkpt>
      <trkpt lat="47.2910870" lon="6.9291000">
        <ele>838.4</ele>
        <time>2022-07-21T07:55:19Z</time>
      </trkpt>
      <trkpt lat="47.2910930" lon="6.9291110">
        <ele>838.4</ele>
        <time>2022-07-21T07:55:20Z</time>
      </trkpt>
      <trkpt lat="47.2911050" lon="6.9291250">
        <ele>838.6</ele>
        <time>2022-07-21T07:55:21Z</time>
      </trkpt>
      <trkpt lat="47.2911280" lon="6.9291500">
        <ele>838.8</ele>
        <time>2022-07-21T07:55:23Z</time>
      </trkpt>
      <trkpt lat="47.2911330" lon="6.9291590">
        <ele>838.9</ele>
        <time>2022-07-21T07:55:24Z</time>
      </trkpt>
      <trkpt lat="47.2911580" lon="6.9291920">
        <ele>839.2</ele>
        <time>2022-07-21T07:55:26Z</time>
      </trkpt>
      <trkpt lat="47.2911640" lon="6.9291990">
        <ele>839.3</ele>
        <time>2022-07-21T07:55:27Z</time>
      </trkpt>
      <trkpt lat="47.2911830" lon="6.9292200">
        <ele>839.5</ele>
        <time>2022-07-21T07:55:28Z</time>
      </trkpt>
      <trkpt lat="47.2911910" lon="6.9292290">
        <ele>839.6</ele>
        <time>2022-07-21T07:55:29Z</time>
      </trkpt>
      <trkpt lat="47.2912000" lon="6.9292370">
        <ele>839.7</ele>
        <time>2022-07-21T07:55:30Z</time>
      </trkpt>
      <trkpt lat="47.2912310" lon="6.9292850">
        <ele>840.1</ele>
        <time>2022-07-21T07:55:32Z</time>
      </trkpt>
      <trkpt lat="47.2912400" lon="6.9292990">
        <ele>840.2</ele>
        <time>2022-07-21T07:55:33Z</time>
      </trkpt>
      <trkpt lat="47.2912490" lon="6.9293140">
        <ele>840.4</ele>
        <time>2022-07-21T07:55:34Z</time>
      </trkpt>
      <trkpt lat="47.2912750" lon="6.9293440">
        <ele>840.7</ele>
        <time>2022-07-21T07:55:35Z</time>
      </trkpt>
      <trkpt lat="47.2912830" lon="6.9293520">
        <ele>840.8</ele>
        <time>2022-07-21T07:55:36Z</time>
      </trkpt>
      <trkpt lat="47.2913110" lon="6.9293780">
        <ele>841.1</ele>
        <time>2022-07-21T07:55:37Z</time>
      </trkpt>
      <trkpt lat="47.2913210" lon="6.9293870">
        <ele>841.2</ele>
        <time>2022-07-21T07:55:38Z</time>
      </trkpt>
      <trkpt lat="47.2913480" lon="6.9294110">
        <ele>841.5</ele>
        <time>2022-07-21T07:55:39Z</time>
      </trkpt>
      <trkpt lat="47.2913560" lon="6.9294200">
        <ele>841.6</ele>
        <time>2022-07-21T07:55:40Z</time>
      </trkpt>
      <trkpt lat="47.2913810" lon="6.9294440">
        <ele>841.9</ele>
        <time>2022-07-21T07:55:41Z</time>
      </trkpt>
      <trkpt lat="47.2913900" lon="6.9294530">
        <ele>842.0</ele>
        <time>2022-07-21T07:55:42Z</time>
      </trkpt>
      <trkpt lat="47.2914020" lon="6.9294710">
        <ele>842.2</ele>
        <time>2022-07-21T07:55:43Z</time>
      </trkpt>
      <trkpt lat="47.2914400" lon="6.9295000">
        <ele>842.6</ele>
        <time>2022-07-21T07:55:45Z</time>
      </trkpt>
      <trkpt lat="47.2914690" lon="6.9295130">
        <ele>842.8</ele>
        <time>2022-07-21T07:55:46Z</time>
      </trkpt>
      <trkpt lat="47.2914780" lon="6.9295170">
        <ele>842.9</ele>
        <time>2022-07-21T07:55:47Z</time>
      </trkpt>
      <trkpt lat="47.2915070" lon="6.9295330">
        <ele>843.2</ele>
        <time>2022-07-21T07:55:48Z</time>
      </trkpt>
      <trkpt lat="47.2915290" lon="6.9295530">
        <ele>843.5</ele>
        <time>2022-07-21T07:55:50Z</time>
      </trkpt>
      <trkpt lat="47.2915370" lon="6.9295610">
        <ele>843.6</ele>
        <time>2022-07-21T07:55:51Z</time>
      </trkpt>
      <trkpt lat="47.2915580" lon="6.9295860">
        <ele>843.9</ele>
        <time>2022-07-21T07:55:52Z</time>
      </trkpt>
      <trkpt lat="47.2915660" lon="6.9295950">
        <ele>844.0</ele>
        <time>2022-07-21T07:55:53Z</time>
      </trkpt>
      <trkpt lat="47.2915880" lon="6.9296310">
        <ele>844.4</ele>
        <time>2022-07-21T07:55:54Z</time>
      </trkpt>
      <trkpt lat="47.2915960" lon="6.9296460">
        <ele>844.5</ele>
        <time>2022-07-21T07:55:55Z</time>
      </trkpt>
      <trkpt lat="47.2916100" lon="6.9296630">
        <ele>844.7</ele>
        <time>2022-07-21T07:55:56Z</time>
      </trkpt>
      <trkpt lat="47.2916210" lon="6.9296790">
        <ele>844.8</ele>
        <time>2022-07-21T07:55:57Z</time>
      </trkpt>
      <trkpt lat="47.2916350" lon="6.9297050">
        <ele>845.1</ele>
        <time>2022-07-21T07:55:58Z</time>
      </trkpt>
      <trkpt lat="47.2916610" lon="6.9297600">
        <ele>845.6</ele>
        <time>2022-07-21T07:56:00Z</time>
      </trkpt>
      <trkpt lat="47.2916860" lon="6.9297880">
        <ele>845.9</ele>
        <time>2022-07-21T07:56:01Z</time>
      </trkpt>
      <trkpt lat="47.2916940" lon="6.9297950">
        <ele>846.0</ele>
        <time>2022-07-21T07:56:02Z</time>
      </trkpt>
      <trkpt lat="47.2917220" lon="6.9298220">
        <ele>846.3</ele>
        <time>2022-07-21T07:56:03Z</time>
      </trkpt>
      <trkpt lat="47.2917500" lon="6.9298560">
        <ele>846.7</ele>
        <time>2022-07-21T07:56:04Z</time>
      </trkpt>
      <trkpt lat="47.2917580" lon="6.9298630">
        <ele>846.8</ele>
        <time>2022-07-21T07:56:05Z</time>
      </trkpt>
      <trkpt lat="47.2917770" lon="6.9298730">
        <ele>847.0</ele>
        <time>2022-07-21T07:56:07Z</time>
      </trkpt>
      <trkpt lat="47.2918150" lon="6.9298980">
        <ele>847.4</ele>
        <time>2022-07-21T07:56:09Z</time>
      </trkpt>
      <trkpt lat="47.2918310" lon="6.9299080">
        <ele>847.6</ele>
        <time>2022-07-21T07:56:10Z</time>
      </trkpt>
      <trkpt lat="47.2918470" lon="6.9299160">
        <ele>847.8</ele>
        <time>2022-07-21T07:56:11Z</time>
      </trkpt>
      <trkpt lat="47.2918680" lon="6.9299360">
        <ele>848.0</ele>
        <time>2022-07-21T07:56:12Z</time>
      </trkpt>
      <trkpt lat="47.2918740" lon="6.9299440">
        <ele>848.1</ele>
        <time>2022-07-21T07:56:13Z</time>
      </trkpt>
      <trkpt lat="47.2918810" lon="6.9299520">
        <ele>848.2</ele>
        <time>2022-07-21T07:56:14Z</time>
      </trkpt>
      <trkpt lat="47.2919040" lon="6.9299710">
        <ele>848.4</ele>
        <time>2022-07-21T07:56:15Z</time>
      </trkpt>
      <trkpt lat="47.2919130" lon="6.9299760">
        <ele>848.5</ele>
        <time>2022-07-21T07:56:16Z</time>
      </trkpt>
      <trkpt lat="47.2919400" lon="6.9299930">
        <ele>848.8</ele>
        <time>2022-07-21T07:56:17Z</time>
      </trkpt>
      <trkpt lat="47.2919480" lon="6.9299980">
        <ele>848.8</ele>
        <time>2022-07-21T07:56:18Z</time>
      </trkpt>
      <trkpt lat="47.2919750" lon="6.9300180">
        <ele>849.1</ele>
        <time>2022-07-21T07:56:19Z</time>
      </trkpt>
      <trkpt lat="47.2919840" lon="6.9300250">
        <ele>849.2</ele>
        <time>2022-07-21T07:56:20Z</time>
      </trkpt>
      <trkpt lat="47.2919970" lon="6.9300320">
        <ele>849.3</ele>
        <time>2022-07-21T07:56:21Z</time>
      </trkpt>
      <trkpt lat="47.2920160" lon="6.9300330">
        <ele>849.5</ele>
        <time>2022-07-21T07:56:22Z</time>
      </trkpt>
      <trkpt lat="47.2920420" lon="6.9300330">
        <ele>849.7</ele>
        <time>2022-07-21T07:56:23Z</time>
      </trkpt>
      <trkpt lat="47.2920790" lon="6.9300590">
        <ele>850.0</ele>
        <time>2022-07-21T07:56:25Z</time>
      </trkpt>
      <trkpt lat="47.2921060" lon="6.9300810">
        <ele>850.3</ele>
        <time>2022-07-21T07:56:26Z</time>
      </trkpt>
      <trkpt lat="47.2921150" lon="6.9300890">
        <ele>850.3</ele>
        <time>2022-07-21T07:56:27Z</time>
      </trkpt>
      <trkpt lat="47.2921320" lon="6.9301010">
        <ele>850.5</ele>
        <time>2022-07-21T07:56:28Z</time>
      </trkpt>
      <trkpt lat="47.2921420" lon="6.9301050">
        <ele>850.6</ele>
        <time>2022-07-21T07:56:29Z</time>
      </trkpt>
      <trkpt lat="47.2921670" lon="6.9301460">
        <ele>850.8</ele>
        <time>2022-07-21T07:56:30Z</time>
      </trkpt>
      <trkpt lat="47.2921790" lon="6.9301580">
        <ele>850.9</ele>
        <time>2022-07-21T07:56:31Z</time>
      </trkpt>
      <trkpt lat="47.2922160" lon="6.9301730">
        <ele>851.2</ele>
        <time>2022-07-21T07:56:32Z</time>
      </trkpt>
      <trkpt lat="47.2922290" lon="6.9301770">
        <ele>851.3</ele>
        <time>2022-07-21T07:56:33Z</time>
      </trkpt>
      <trkpt lat="47.2922600" lon="6.9301870">
        <ele>851.4</ele>
        <time>2022-07-21T07:56:34Z</time>
      </trkpt>
      <trkpt lat="47.2922680" lon="6.9301920">
        <ele>851.5</ele>
        <time>2022-07-21T07:56:35Z</time>
      </trkpt>
      <trkpt lat="47.2922960" lon="6.9302090">
        <ele>851.6</ele>
        <time>2022-07-21T07:56:36Z</time>
      </trkpt>
      <trkpt lat="47.2923060" lon="6.9302170">
        <ele>851.7</ele>
        <time>2022-07-21T07:56:37Z</time>
      </trkpt>
      <trkpt lat="47.2923270" lon="6.9302360">
        <ele>851.8</ele>
        <time>2022-07-21T07:56:38Z</time>
      </trkpt>
      <trkpt lat="47.2923380" lon="6.9302450">
        <ele>851.9</ele>
        <time>2022-07-21T07:56:39Z</time>
      </trkpt>
      <trkpt lat="47.2923660" lon="6.9302690">
        <ele>852.0</ele>
        <time>2022-07-21T07:56:40Z</time>
      </trkpt>
      <trkpt lat="47.2923760" lon="6.9302770">
        <ele>852.0</ele>
        <time>2022-07-21T07:56:41Z</time>
      </trkpt>
      <trkpt lat="47.2924060" lon="6.9302920">
        <ele>852.2</ele>
        <time>2022-07-21T07:56:42Z</time>
      </trkpt>
      <trkpt lat="47.2924160" lon="6.9302950">
        <ele>852.2</ele>
        <time>2022-07-21T07:56:43Z</time>
      </trkpt>
      <trkpt lat="47.2924510" lon="6.9303110">
        <ele>852.4</ele>
        <time>2022-07-21T07:56:44Z</time>
      </trkpt>
      <trkpt lat="47.2924590" lon="6.9303160">
        <ele>852.4</ele>
        <time>2022-07-21T07:56:45Z</time>
      </trkpt>
      <trkpt lat="47.2924830" lon="6.9303460">
        <ele>852.5</ele>
        <time>2022-07-21T07:56:46Z</time>
      </trkpt>
      <trkpt lat="47.2924910" lon="6.9303560">
        <ele>852.6</ele>
        <time>2022-07-21T07:56:47Z</time>
      </trkpt>
      <trkpt lat="47.2925160" lon="6.9303760">
        <ele>852.7</ele>
        <time>2022-07-21T07:56:48Z</time>
      </trkpt>
      <trkpt lat="47.2925470" lon="6.9303910">
        <ele>852.8</ele>
        <time>2022-07-21T07:56:49Z</time>
      </trkpt>
      <trkpt lat="47.2925580" lon="6.9303980">
        <ele>852.9</ele>
        <time>2022-07-21T07:56:50Z</time>
      </trkpt>
      <trkpt lat="47.2925850" lon="6.9304150">
        <ele>853.0</ele>
        <time>2022-07-21T07:56:51Z</time>
      </trkpt>
      <trkpt lat="47.2926180" lon="6.9304360">
        <ele>853.1</ele>
        <time>2022-07-21T07:56:52Z</time>
      </trkpt>
      <trkpt lat="47.2926310" lon="6.9304440">
        <ele>853.2</ele>
        <time>2022-07-21T07:56:53Z</time>
      </trkpt>
      <trkpt lat="47.2926670" lon="6.9304700">
        <ele>853.4</ele>
        <time>2022-07-21T07:56:54Z</time>
      </trkpt>
      <trkpt lat="47.2926790" lon="6.9304790">
        <ele>853.5</ele>
        <time>2022-07-21T07:56:55Z</time>
      </trkpt>
      <trkpt lat="47.2927070" lon="6.9304960">
        <ele>853.7</ele>
        <time>2022-07-21T07:56:56Z</time>
      </trkpt>
      <trkpt lat="47.2927140" lon="6.9304990">
        <ele>853.7</ele>
        <time>2022-07-21T07:56:57Z</time>
      </trkpt>
      <trkpt lat="47.2927420" lon="6.9305090">
        <ele>853.9</ele>
        <time>2022-07-21T07:56:58Z</time>
      </trkpt>
      <trkpt lat="47.2927530" lon="6.9305130">
        <ele>854.0</ele>
        <time>2022-07-21T07:56:59Z</time>
      </trkpt>
      <trkpt lat="47.2927850" lon="6.9305280">
        <ele>854.2</ele>
        <time>2022-07-21T07:57:00Z</time>
      </trkpt>
      <trkpt lat="47.2927970" lon="6.9305330">
        <ele>854.3</ele>
        <time>2022-07-21T07:57:01Z</time>
      </trkpt>
      <trkpt lat="47.2928280" lon="6.9305430">
        <ele>854.5</ele>
        <time>2022-07-21T07:57:02Z</time>
      </trkpt>
      <trkpt lat="47.2928360" lon="6.9305440">
        <ele>854.6</ele>
        <time>2022-07-21T07:57:03Z</time>
      </trkpt>
      <trkpt lat="47.2928500" lon="6.9305470">
        <ele>854.7</ele>
        <time>2022-07-21T07:57:04Z</time>
      </trkpt>
      <trkpt lat="47.2928680" lon="6.9305540">
        <ele>854.8</ele>
        <time>2022-07-21T07:57:05Z</time>
      </trkpt>
      <trkpt lat="47.2928850" lon="6.9305550">
        <ele>854.9</ele>
        <time>2022-07-21T07:57:06Z</time>
      </trkpt>
      <trkpt lat="47.2929040" lon="6.9305580">
        <ele>855.1</ele>
        <time>2022-07-21T07:57:07Z</time>
      </trkpt>
      <trkpt lat="47.2929310" lon="6.9305700">
        <ele>855.2</ele>
        <time>2022-07-21T07:57:08Z</time>
      </trkpt>
      <trkpt lat="47.2929410" lon="6.9305760">
        <ele>855.3</ele>
        <time>2022-07-21T07:57:09Z</time>
      </trkpt>
      <trkpt lat="47.2929750" lon="6.9305930">
        <ele>855.5</ele>
        <time>2022-07-21T07:57:10Z</time>
      </trkpt>
      <trkpt lat="47.2929860" lon="6.9305970">
        <ele>855.6</ele>
        <time>2022-07-21T07:57:11Z</time>
      </trkpt>
      <trkpt lat="47.2930230" lon="6.9306030">
        <ele>855.8</ele>
        <time>2022-07-21T07:57:12Z</time>
      </trkpt>
      <trkpt lat="47.2930350" lon="6.9306030">
        <ele>855.9</ele>
        <time>2022-07-21T07:57:13Z</time>
      </trkpt>
      <trkpt lat="47.2930730" lon="6.9306100">
        <ele>856.1</ele>
        <time>2022-07-21T07:57:14Z</time>
      </trkpt>
      <trkpt lat="47.2930870" lon="6.9306160">
        <ele>856.1</ele>
        <time>2022-07-21T07:57:15Z</time>
      </trkpt>
      <trkpt lat="47.2931170" lon="6.9306460">
        <ele>856.3</ele>
        <time>2022-07-21T07:57:16Z</time>
      </trkpt>
      <trkpt lat="47.2931430" lon="6.9306820">
        <ele>856.4</ele>
        <time>2022-07-21T07:57:17Z</time>
      </trkpt>
      <trkpt lat="47.2931740" lon="6.9307280">
        <ele>856.5</ele>
        <time>2022-07-21T07:57:18Z</time>
      </trkpt>
      <trkpt lat="47.2931870" lon="6.9307460">
        <ele>856.5</ele>
        <time>2022-07-21T07:57:19Z</time>
      </trkpt>
      <trkpt lat="47.2932170" lon="6.9307880">
        <ele>856.6</ele>
        <time>2022-07-21T07:57:20Z</time>
      </trkpt>
      <trkpt lat="47.2932440" lon="6.9308310">
        <ele>856.6</ele>
        <time>2022-07-21T07:57:21Z</time>
      </trkpt>
      <trkpt lat="47.2932690" lon="6.9308750">
        <ele>856.6</ele>
        <time>2022-07-21T07:57:22Z</time>
      </trkpt>
      <trkpt lat="47.2932920" lon="6.9309180">
        <ele>856.6</ele>
        <time>2022-07-21T07:57:23Z</time>
      </trkpt>
      <trkpt lat="47.2933280" lon="6.9309680">
        <ele>856.5</ele>
        <time>2022-07-21T07:57:24Z</time>
      </trkpt>
      <trkpt lat="47.2933550" lon="6.9310120">
        <ele>856.5</ele>
        <time>2022-07-21T07:57:25Z</time>
      </trkpt>
      <trkpt lat="47.2933830" lon="6.9310540">
        <ele>856.5</ele>
        <time>2022-07-21T07:57:26Z</time>
      </trkpt>
      <trkpt lat="47.2934120" lon="6.9310980">
        <ele>856.4</ele>
        <time>2022-07-21T07:57:27Z</time>
      </trkpt>
      <trkpt lat="47.2934440" lon="6.9311420">
        <ele>856.4</ele>
        <time>2022-07-21T07:57:28Z</time>
      </trkpt>
      <trkpt lat="47.2934770" lon="6.9311870">
        <ele>856.3</ele>
        <time>2022-07-21T07:57:29Z</time>
      </trkpt>
      <trkpt lat="47.2935210" lon="6.9312480">
        <ele>856.2</ele>
        <time>2022-07-21T07:57:30Z</time>
      </trkpt>
      <trkpt lat="47.2935660" lon="6.9313010">
        <ele>856.1</ele>
        <time>2022-07-21T07:57:31Z</time>
      </trkpt>
      <trkpt lat="47.2936060" lon="6.9313540">
        <ele>856.0</ele>
        <time>2022-07-21T07:57:32Z</time>
      </trkpt>
      <trkpt lat="47.2936400" lon="6.9314030">
        <ele>855.9</ele>
        <time>2022-07-21T07:57:33Z</time>
      </trkpt>
      <trkpt lat="47.2936730" lon="6.9314480">
        <ele>855.9</ele>
        <time>2022-07-21T07:57:34Z</time>
      </trkpt>
      <trkpt lat="47.2937040" lon="6.9314670">
        <ele>855.8</ele>
        <time>2022-07-21T07:57:35Z</time>
      </trkpt>
      <trkpt lat="47.2937430" lon="6.9315010">
        <ele>855.8</ele>
        <time>2022-07-21T07:57:36Z</time>
      </trkpt>
      <trkpt lat="47.2937740" lon="6.9315430">
        <ele>855.7</ele>
        <time>2022-07-21T07:57:37Z</time>
      </trkpt>
      <trkpt lat="47.2938250" lon="6.9316120">
        <ele>855.7</ele>
        <time>2022-07-21T07:57:39Z</time>
      </trkpt>
      <trkpt lat="47.2938530" lon="6.9316490">
        <ele>855.8</ele>
        <time>2022-07-21T07:57:40Z</time>
      </trkpt>
      <trkpt lat="47.2938800" lon="6.9316820">
        <ele>855.8</ele>
        <time>2022-07-21T07:57:41Z</time>
      </trkpt>
      <trkpt lat="47.2939040" lon="6.9317130">
        <ele>855.9</ele>
        <time>2022-07-21T07:57:42Z</time>
      </trkpt>
      <trkpt lat="47.2939380" lon="6.9317300">
        <ele>856.0</ele>
        <time>2022-07-21T07:57:43Z</time>
      </trkpt>
      <trkpt lat="47.2939490" lon="6.9317390">
        <ele>856.0</ele>
        <time>2022-07-21T07:57:44Z</time>
      </trkpt>
      <trkpt lat="47.2939710" lon="6.9317620">
        <ele>856.1</ele>
        <time>2022-07-21T07:57:45Z</time>
      </trkpt>
      <trkpt lat="47.2940200" lon="6.9317970">
        <ele>856.3</ele>
        <time>2022-07-21T07:57:47Z</time>
      </trkpt>
      <trkpt lat="47.2940510" lon="6.9318220">
        <ele>856.4</ele>
        <time>2022-07-21T07:57:48Z</time>
      </trkpt>
      <trkpt lat="47.2940620" lon="6.9318330">
        <ele>856.4</ele>
        <time>2022-07-21T07:57:49Z</time>
      </trkpt>
      <trkpt lat="47.2940850" lon="6.9318550">
        <ele>856.6</ele>
        <time>2022-07-21T07:57:50Z</time>
      </trkpt>
      <trkpt lat="47.2941130" lon="6.9318850">
        <ele>856.7</ele>
        <time>2022-07-21T07:57:51Z</time>
      </trkpt>
      <trkpt lat="47.2941230" lon="6.9318960">
        <ele>856.8</ele>
        <time>2022-07-21T07:57:52Z</time>
      </trkpt>
      <trkpt lat="47.2941490" lon="6.9319130">
        <ele>857.0</ele>
        <time>2022-07-21T07:57:53Z</time>
      </trkpt>
      <trkpt lat="47.2941820" lon="6.9319400">
        <ele>857.2</ele>
        <time>2022-07-21T07:57:54Z</time>
      </trkpt>
      <trkpt lat="47.2941940" lon="6.9319500">
        <ele>857.3</ele>
        <time>2022-07-21T07:57:55Z</time>
      </trkpt>
      <trkpt lat="47.2942180" lon="6.9319780">
        <ele>857.5</ele>
        <time>2022-07-21T07:57:57Z</time>
      </trkpt>
      <trkpt lat="47.2942250" lon="6.9319860">
        <ele>857.6</ele>
        <time>2022-07-21T07:57:58Z</time>
      </trkpt>
      <trkpt lat="47.2942400" lon="6.9319990">
        <ele>857.7</ele>
        <time>2022-07-21T07:57:59Z</time>
      </trkpt>
      <trkpt lat="47.2942570" lon="6.9320060">
        <ele>857.8</ele>
        <time>2022-07-21T07:58:00Z</time>
      </trkpt>
      <trkpt lat="47.2942910" lon="6.9320330">
        <ele>858.1</ele>
        <time>2022-07-21T07:58:01Z</time>
      </trkpt>
      <trkpt lat="47.2943030" lon="6.9320430">
        <ele>858.2</ele>
        <time>2022-07-21T07:58:02Z</time>
      </trkpt>
      <trkpt lat="47.2943250" lon="6.9320660">
        <ele>858.4</ele>
        <time>2022-07-21T07:58:03Z</time>
      </trkpt>
      <trkpt lat="47.2943550" lon="6.9321050">
        <ele>858.7</ele>
        <time>2022-07-21T07:58:04Z</time>
      </trkpt>
      <trkpt lat="47.2943670" lon="6.9321200">
        <ele>858.8</ele>
        <time>2022-07-21T07:58:05Z</time>
      </trkpt>
      <trkpt lat="47.2943850" lon="6.9321550">
        <ele>859.0</ele>
        <time>2022-07-21T07:58:06Z</time>
      </trkpt>
      <trkpt lat="47.2944000" lon="6.9321990">
        <ele>859.0</ele>
        <time>2022-07-21T07:58:07Z</time>
      </trkpt>
      <trkpt lat="47.2944120" lon="6.9322590">
        <ele>859.1</ele>
        <time>2022-07-21T07:58:08Z</time>
      </trkpt>
      <trkpt lat="47.2944170" lon="6.9323060">
        <ele>859.1</ele>
        <time>2022-07-21T07:58:09Z</time>
      </trkpt>
      <trkpt lat="47.2944160" lon="6.9323740">
        <ele>859.1</ele>
        <time>2022-07-21T07:58:10Z</time>
      </trkpt>
      <trkpt lat="47.2944070" lon="6.9324630">
        <ele>859.0</ele>
        <time>2022-07-21T07:58:11Z</time>
      </trkpt>
      <trkpt lat="47.2943970" lon="6.9325450">
        <ele>859.0</ele>
        <time>2022-07-21T07:58:12Z</time>
      </trkpt>
      <trkpt lat="47.2944010" lon="6.9326220">
        <ele>859.0</ele>
        <time>2022-07-21T07:58:13Z</time>
      </trkpt>
      <trkpt lat="47.2944260" lon="6.9326840">
        <ele>859.0</ele>
        <time>2022-07-21T07:58:14Z</time>
      </trkpt>
      <trkpt lat="47.2944550" lon="6.9327350">
        <ele>859.0</ele>
        <time>2022-07-21T07:58:15Z</time>
      </trkpt>
      <trkpt lat="47.2944740" lon="6.9327770">
        <ele>859.1</ele>
        <time>2022-07-21T07:58:16Z</time>
      </trkpt>
      <trkpt lat="47.2944770" lon="6.9328170">
        <ele>859.1</ele>
        <time>2022-07-21T07:58:17Z</time>
      </trkpt>
      <trkpt lat="47.2944770" lon="6.9328710">
        <ele>859.2</ele>
        <time>2022-07-21T07:58:18Z</time>
      </trkpt>
      <trkpt lat="47.2944830" lon="6.9328890">
        <ele>859.2</ele>
        <time>2022-07-21T07:58:19Z</time>
      </trkpt>
      <trkpt lat="47.2945000" lon="6.9329250">
        <ele>859.3</ele>
        <time>2022-07-21T07:58:20Z</time>
      </trkpt>
      <trkpt lat="47.2945200" lon="6.9329590">
        <ele>859.4</ele>
        <time>2022-07-21T07:58:21Z</time>
      </trkpt>
      <trkpt lat="47.2945390" lon="6.9329990">
        <ele>859.5</ele>
        <time>2022-07-21T07:58:22Z</time>
      </trkpt>
      <trkpt lat="47.2945570" lon="6.9330360">
        <ele>859.6</ele>
        <time>2022-07-21T07:58:23Z</time>
      </trkpt>
      <trkpt lat="47.2945630" lon="6.9330450">
        <ele>859.6</ele>
        <time>2022-07-21T07:58:24Z</time>
      </trkpt>
      <trkpt lat="47.2945690" lon="6.9330550">
        <ele>859.7</ele>
        <time>2022-07-21T07:58:25Z</time>
      </trkpt>
      <trkpt lat="47.2945710" lon="6.9330630">
        <ele>859.7</ele>
        <time>2022-07-21T07:58:26Z</time>
      </trkpt>
      <trkpt lat="47.2945710" lon="6.9330700">
        <ele>859.7</ele>
        <time>2022-07-21T07:58:27Z</time>
      </trkpt>
      <trkpt lat="47.2945660" lon="6.9330710">
        <ele>859.7</ele>
        <time>2022-07-21T07:58:28Z</time>
      </trkpt>
      <trkpt lat="47.2945610" lon="6.9330690">
        <ele>859.7</ele>
        <time>2022-07-21T07:58:29Z</time>
      </trkpt>
      <trkpt lat="47.2945580" lon="6.9330650">
        <ele>859.7</ele>
        <time>2022-07-21T07:58:30Z</time>
      </trkpt>
      <trkpt lat="47.2945600" lon="6.9330790">
        <ele>859.8</ele>
        <time>2022-07-21T07:58:31Z</time>
      </trkpt>
      <trkpt lat="47.2945620" lon="6.9330950">
        <ele>859.8</ele>
        <time>2022-07-21T07:58:32Z</time>
      </trkpt>
      <trkpt lat="47.2945670" lon="6.9330940">
        <ele>859.8</ele>
        <time>2022-07-21T07:58:33Z</time>
      </trkpt>
      <trkpt lat="47.2945720" lon="6.9330970">
        <ele>859.8</ele>
        <time>2022-07-21T07:58:34Z</time>
      </trkpt>
      <trkpt lat="47.2945750" lon="6.9331040">
        <ele>859.9</ele>
        <time>2022-07-21T07:58:35Z</time>
      </trkpt>
      <trkpt lat="47.2945750" lon="6.9331020">
        <ele>859.9</ele>
        <time>2022-07-21T07:58:36Z</time>
      </trkpt>
      <trkpt lat="47.2945760" lon="6.9331000">
        <ele>859.9</ele>
        <time>2022-07-21T07:58:37Z</time>
      </trkpt>
      <trkpt lat="47.2945790" lon="6.9331030">
        <ele>859.9</ele>
        <time>2022-07-21T07:58:38Z</time>
      </trkpt>
      <trkpt lat="47.2945920" lon="6.9331320">
        <ele>860.0</ele>
        <time>2022-07-21T07:58:40Z</time>
      </trkpt>
      <trkpt lat="47.2946040" lon="6.9331530">
        <ele>860.0</ele>
        <time>2022-07-21T07:58:41Z</time>
      </trkpt>
      <trkpt lat="47.2946110" lon="6.9331640">
        <ele>860.0</ele>
        <time>2022-07-21T07:58:42Z</time>
      </trkpt>
      <trkpt lat="47.2946190" lon="6.9331760">
        <ele>860.1</ele>
        <time>2022-07-21T07:58:43Z</time>
      </trkpt>
      <trkpt lat="47.2946420" lon="6.9332030">
        <ele>860.2</ele>
        <time>2022-07-21T07:58:44Z</time>
      </trkpt>
      <trkpt lat="47.2946510" lon="6.9332130">
        <ele>860.2</ele>
        <time>2022-07-21T07:58:45Z</time>
      </trkpt>
      <trkpt lat="47.2946810" lon="6.9332490">
        <ele>860.3</ele>
        <time>2022-07-21T07:58:46Z</time>
      </trkpt>
      <trkpt lat="47.2946920" lon="6.9332620">
        <ele>860.3</ele>
        <time>2022-07-21T07:58:47Z</time>
      </trkpt>
      <trkpt lat="47.2947220" lon="6.9333030">
        <ele>860.4</ele>
        <time>2022-07-21T07:58:48Z</time>
      </trkpt>
      <trkpt lat="47.2947490" lon="6.9333330">
        <ele>860.5</ele>
        <time>2022-07-21T07:58:49Z</time>
      </trkpt>
      <trkpt lat="47.2947570" lon="6.9333390">
        <ele>860.5</ele>
        <time>2022-07-21T07:58:50Z</time>
      </trkpt>
      <trkpt lat="47.2947760" lon="6.9333600">
        <ele>860.6</ele>
        <time>2022-07-21T07:58:51Z</time>
      </trkpt>
      <trkpt lat="47.2947940" lon="6.9333850">
        <ele>860.6</ele>
        <time>2022-07-21T07:58:53Z</time>
      </trkpt>
      <trkpt lat="47.2948170" lon="6.9334170">
        <ele>860.7</ele>
        <time>2022-07-21T07:58:54Z</time>
      </trkpt>
      <trkpt lat="47.2948280" lon="6.9334290">
        <ele>860.8</ele>
        <time>2022-07-21T07:58:55Z</time>
      </trkpt>
      <trkpt lat="47.2948550" lon="6.9334600">
        <ele>860.9</ele>
        <time>2022-07-21T07:58:56Z</time>
      </trkpt>
      <trkpt lat="47.2948660" lon="6.9334710">
        <ele>860.9</ele>
        <time>2022-07-21T07:58:57Z</time>
      </trkpt>
      <trkpt lat="47.2948890" lon="6.9334910">
        <ele>861.0</ele>
        <time>2022-07-21T07:58:58Z</time>
      </trkpt>
      <trkpt lat="47.2949050" lon="6.9335100">
        <ele>861.1</ele>
        <time>2022-07-21T07:59:00Z</time>
      </trkpt>
      <trkpt lat="47.2949200" lon="6.9335300">
        <ele>861.2</ele>
        <time>2022-07-21T07:59:01Z</time>
      </trkpt>
      <trkpt lat="47.2949280" lon="6.9335380">
        <ele>861.2</ele>
        <time>2022-07-21T07:59:02Z</time>
      </trkpt>
      <trkpt lat="47.2949350" lon="6.9335470">
        <ele>861.3</ele>
        <time>2022-07-21T07:59:03Z</time>
      </trkpt>
      <trkpt lat="47.2949540" lon="6.9335660">
        <ele>861.4</ele>
        <time>2022-07-21T07:59:05Z</time>
      </trkpt>
      <trkpt lat="47.2949600" lon="6.9335720">
        <ele>861.4</ele>
        <time>2022-07-21T07:59:06Z</time>
      </trkpt>
      <trkpt lat="47.2949540" lon="6.9335610">
        <ele>861.4</ele>
        <time>2022-07-21T07:59:07Z</time>
      </trkpt>
      <trkpt lat="47.2949480" lon="6.9335520">
        <ele>861.5</ele>
        <time>2022-07-21T07:59:09Z</time>
      </trkpt>
      <trkpt lat="47.2949470" lon="6.9335500">
        <ele>861.5</ele>
        <time>2022-07-21T07:59:10Z</time>
      </trkpt>
      <trkpt lat="47.2949460" lon="6.9335460">
        <ele>861.5</ele>
        <time>2022-07-21T07:59:11Z</time>
      </trkpt>
      <trkpt lat="47.2949460" lon="6.9335430">
        <ele>861.5</ele>
        <time>2022-07-21T07:59:12Z</time>
      </trkpt>
      <trkpt lat="47.2949460" lon="6.9335410">
        <ele>861.5</ele>
        <time>2022-07-21T07:59:13Z</time>
      </trkpt>
      <trkpt lat="47.2949460" lon="6.9335370">
        <ele>861.5</ele>
        <time>2022-07-21T07:59:14Z</time>
      </trkpt>
      <trkpt lat="47.2949450" lon="6.9335320">
        <ele>861.6</ele>
        <time>2022-07-21T07:59:16Z</time>
      </trkpt>
      <trkpt lat="47.2949870" lon="6.9335880">
        <ele>861.8</ele>
        <time>2022-07-21T07:59:39Z</time>
      </trkpt>
      <trkpt lat="47.2949930" lon="6.9335970">
        <ele>861.8</ele>
        <time>2022-07-21T07:59:40Z</time>
      </trkpt>
      <trkpt lat="47.2950090" lon="6.9336240">
        <ele>861.9</ele>
        <time>2022-07-21T07:59:41Z</time>
      </trkpt>
      <trkpt lat="47.2950360" lon="6.9336550">
        <ele>862.1</ele>
        <time>2022-07-21T07:59:43Z</time>
      </trkpt>
      <trkpt lat="47.2950450" lon="6.9336670">
        <ele>862.1</ele>
        <time>2022-07-21T07:59:44Z</time>
      </trkpt>
      <trkpt lat="47.2950690" lon="6.9336950">
        <ele>862.2</ele>
        <time>2022-07-21T07:59:45Z</time>
      </trkpt>
      <trkpt lat="47.2950790" lon="6.9337060">
        <ele>862.3</ele>
        <time>2022-07-21T07:59:46Z</time>
      </trkpt>
      <trkpt lat="47.2951030" lon="6.9337360">
        <ele>862.4</ele>
        <time>2022-07-21T07:59:47Z</time>
      </trkpt>
      <trkpt lat="47.2951300" lon="6.9337720">
        <ele>862.5</ele>
        <time>2022-07-21T07:59:49Z</time>
      </trkpt>
      <trkpt lat="47.2951380" lon="6.9337860">
        <ele>862.5</ele>
        <time>2022-07-21T07:59:50Z</time>
      </trkpt>
      <trkpt lat="47.2951580" lon="6.9338180">
        <ele>862.6</ele>
        <time>2022-07-21T07:59:51Z</time>
      </trkpt>
      <trkpt lat="47.2951930" lon="6.9338680">
        <ele>862.8</ele>
        <time>2022-07-21T07:59:53Z</time>
      </trkpt>
      <trkpt lat="47.2952050" lon="6.9338850">
        <ele>862.8</ele>
        <time>2022-07-21T07:59:54Z</time>
      </trkpt>
      <trkpt lat="47.2952180" lon="6.9339020">
        <ele>862.9</ele>
        <time>2022-07-21T07:59:55Z</time>
      </trkpt>
      <trkpt lat="47.2952460" lon="6.9339380">
        <ele>863.0</ele>
        <time>2022-07-21T07:59:56Z</time>
      </trkpt>
      <trkpt lat="47.2952550" lon="6.9339510">
        <ele>863.0</ele>
        <time>2022-07-21T07:59:57Z</time>
      </trkpt>
      <trkpt lat="47.2952870" lon="6.9339910">
        <ele>863.2</ele>
        <time>2022-07-21T07:59:58Z</time>
      </trkpt>
      <trkpt lat="47.2953210" lon="6.9340330">
        <ele>863.4</ele>
        <time>2022-07-21T08:00:00Z</time>
      </trkpt>
      <trkpt lat="47.2953370" lon="6.9340490">
        <ele>863.5</ele>
        <time>2022-07-21T08:00:01Z</time>
      </trkpt>
      <trkpt lat="47.2953620" lon="6.9340820">
        <ele>863.6</ele>
        <time>2022-07-21T08:00:03Z</time>
      </trkpt>
      <trkpt lat="47.2953830" lon="6.9341130">
        <ele>863.7</ele>
        <time>2022-07-21T08:00:04Z</time>
      </trkpt>
      <trkpt lat="47.2954050" lon="6.9341500">
        <ele>863.9</ele>
        <time>2022-07-21T08:00:05Z</time>
      </trkpt>
      <trkpt lat="47.2954120" lon="6.9341650">
        <ele>863.9</ele>
        <time>2022-07-21T08:00:06Z</time>
      </trkpt>
      <trkpt lat="47.2954340" lon="6.9342050">
        <ele>864.1</ele>
        <time>2022-07-21T08:00:07Z</time>
      </trkpt>
      <trkpt lat="47.2954400" lon="6.9342140">
        <ele>864.1</ele>
        <time>2022-07-21T08:00:08Z</time>
      </trkpt>
      <trkpt lat="47.2954680" lon="6.9342470">
        <ele>864.2</ele>
        <time>2022-07-21T08:00:09Z</time>
      </trkpt>
      <trkpt lat="47.2954770" lon="6.9342590">
        <ele>864.3</ele>
        <time>2022-07-21T08:00:10Z</time>
      </trkpt>
      <trkpt lat="47.2955030" lon="6.9342900">
        <ele>864.4</ele>
        <time>2022-07-21T08:00:11Z</time>
      </trkpt>
      <trkpt lat="47.2955140" lon="6.9342990">
        <ele>864.4</ele>
        <time>2022-07-21T08:00:12Z</time>
      </trkpt>
      <trkpt lat="47.2955310" lon="6.9343140">
        <ele>864.5</ele>
        <time>2022-07-21T08:00:13Z</time>
      </trkpt>
      <trkpt lat="47.2955440" lon="6.9343290">
        <ele>864.6</ele>
        <time>2022-07-21T08:00:14Z</time>
      </trkpt>
      <trkpt lat="47.2955690" lon="6.9343690">
        <ele>864.7</ele>
        <time>2022-07-21T08:00:16Z</time>
      </trkpt>
      <trkpt lat="47.2955770" lon="6.9343820">
        <ele>864.7</ele>
        <time>2022-07-21T08:00:17Z</time>
      </trkpt>
      <trkpt lat="47.2956030" lon="6.9344180">
        <ele>864.9</ele>
        <time>2022-07-21T08:00:18Z</time>
      </trkpt>
      <trkpt lat="47.2956110" lon="6.9344290">
        <ele>864.9</ele>
        <time>2022-07-21T08:00:19Z</time>
      </trkpt>
      <trkpt lat="47.2956340" lon="6.9344640">
        <ele>865.0</ele>
        <time>2022-07-21T08:00:20Z</time>
      </trkpt>
      <trkpt lat="47.2956420" lon="6.9344750">
        <ele>865.1</ele>
        <time>2022-07-21T08:00:21Z</time>
      </trkpt>
      <trkpt lat="47.2956710" lon="6.9345280">
        <ele>865.2</ele>
        <time>2022-07-21T08:00:23Z</time>
      </trkpt>
      <trkpt lat="47.2956940" lon="6.9345630">
        <ele>865.3</ele>
        <time>2022-07-21T08:00:24Z</time>
      </trkpt>
      <trkpt lat="47.2957120" lon="6.9345890">
        <ele>865.4</ele>
        <time>2022-07-21T08:00:25Z</time>
      </trkpt>
      <trkpt lat="47.2957340" lon="6.9346210">
        <ele>865.5</ele>
        <time>2022-07-21T08:00:27Z</time>
      </trkpt>
      <trkpt lat="47.2957580" lon="6.9346510">
        <ele>865.7</ele>
        <time>2022-07-21T08:00:28Z</time>
      </trkpt>
      <trkpt lat="47.2957940" lon="6.9346950">
        <ele>865.8</ele>
        <time>2022-07-21T08:00:29Z</time>
      </trkpt>
      <trkpt lat="47.2958100" lon="6.9347140">
        <ele>865.9</ele>
        <time>2022-07-21T08:00:30Z</time>
      </trkpt>
      <trkpt lat="47.2958390" lon="6.9347500">
        <ele>866.0</ele>
        <time>2022-07-21T08:00:31Z</time>
      </trkpt>
      <trkpt lat="47.2958500" lon="6.9347630">
        <ele>866.1</ele>
        <time>2022-07-21T08:00:32Z</time>
      </trkpt>
      <trkpt lat="47.2958840" lon="6.9348040">
        <ele>866.2</ele>
        <time>2022-07-21T08:00:34Z</time>
      </trkpt>
      <trkpt lat="47.2958950" lon="6.9348200">
        <ele>866.3</ele>
        <time>2022-07-21T08:00:35Z</time>
      </trkpt>
      <trkpt lat="47.2959060" lon="6.9348350">
        <ele>866.3</ele>
        <time>2022-07-21T08:00:36Z</time>
      </trkpt>
      <trkpt lat="47.2959370" lon="6.9348770">
        <ele>866.5</ele>
        <time>2022-07-21T08:00:37Z</time>
      </trkpt>
      <trkpt lat="47.2959500" lon="6.9348930">
        <ele>866.5</ele>
        <time>2022-07-21T08:00:38Z</time>
      </trkpt>
      <trkpt lat="47.2959790" lon="6.9349260">
        <ele>866.7</ele>
        <time>2022-07-21T08:00:40Z</time>
      </trkpt>
      <trkpt lat="47.2960080" lon="6.9349650">
        <ele>866.8</ele>
        <time>2022-07-21T08:00:41Z</time>
      </trkpt>
      <trkpt lat="47.2960200" lon="6.9349810">
        <ele>866.9</ele>
        <time>2022-07-21T08:00:42Z</time>
      </trkpt>
      <trkpt lat="47.2960460" lon="6.9350140">
        <ele>867.0</ele>
        <time>2022-07-21T08:00:44Z</time>
      </trkpt>
      <trkpt lat="47.2960670" lon="6.9350450">
        <ele>867.2</ele>
        <time>2022-07-21T08:00:45Z</time>
      </trkpt>
      <trkpt lat="47.2961010" lon="6.9350860">
        <ele>867.4</ele>
        <time>2022-07-21T08:00:46Z</time>
      </trkpt>
      <trkpt lat="47.2961140" lon="6.9351020">
        <ele>867.4</ele>
        <time>2022-07-21T08:00:47Z</time>
      </trkpt>
      <trkpt lat="47.2961540" lon="6.9351440">
        <ele>867.6</ele>
        <time>2022-07-21T08:00:49Z</time>
      </trkpt>
      <trkpt lat="47.2961670" lon="6.9351570">
        <ele>867.7</ele>
        <time>2022-07-21T08:00:50Z</time>
      </trkpt>
      <trkpt lat="47.2961790" lon="6.9351700">
        <ele>867.7</ele>
        <time>2022-07-21T08:00:51Z</time>
      </trkpt>
      <trkpt lat="47.2962080" lon="6.9352050">
        <ele>867.9</ele>
        <time>2022-07-21T08:00:52Z</time>
      </trkpt>
      <trkpt lat="47.2962320" lon="6.9352380">
        <ele>868.0</ele>
        <time>2022-07-21T08:00:53Z</time>
      </trkpt>
      <trkpt lat="47.2962410" lon="6.9352510">
        <ele>868.1</ele>
        <time>2022-07-21T08:00:54Z</time>
      </trkpt>
      <trkpt lat="47.2962590" lon="6.9352750">
        <ele>868.2</ele>
        <time>2022-07-21T08:00:55Z</time>
      </trkpt>
      <trkpt lat="47.2962790" lon="6.9352980">
        <ele>868.3</ele>
        <time>2022-07-21T08:00:57Z</time>
      </trkpt>
      <trkpt lat="47.2963050" lon="6.9353320">
        <ele>868.4</ele>
        <time>2022-07-21T08:00:58Z</time>
      </trkpt>
      <trkpt lat="47.2963130" lon="6.9353440">
        <ele>868.4</ele>
        <time>2022-07-21T08:00:59Z</time>
      </trkpt>
      <trkpt lat="47.2963360" lon="6.9353820">
        <ele>868.6</ele>
        <time>2022-07-21T08:01:00Z</time>
      </trkpt>
      <trkpt lat="47.2963680" lon="6.9354240">
        <ele>868.8</ele>
        <time>2022-07-21T08:01:02Z</time>
      </trkpt>
      <trkpt lat="47.2963790" lon="6.9354390">
        <ele>868.8</ele>
        <time>2022-07-21T08:01:03Z</time>
      </trkpt>
      <trkpt lat="47.2963910" lon="6.9354540">
        <ele>868.9</ele>
        <time>2022-07-21T08:01:04Z</time>
      </trkpt>
      <trkpt lat="47.2964120" lon="6.9354880">
        <ele>869.1</ele>
        <time>2022-07-21T08:01:05Z</time>
      </trkpt>
      <trkpt lat="47.2964190" lon="6.9354980">
        <ele>869.1</ele>
        <time>2022-07-21T08:01:06Z</time>
      </trkpt>
      <trkpt lat="47.2964410" lon="6.9355300">
        <ele>869.3</ele>
        <time>2022-07-21T08:01:07Z</time>
      </trkpt>
      <trkpt lat="47.2964490" lon="6.9355430">
        <ele>869.4</ele>
        <time>2022-07-21T08:01:08Z</time>
      </trkpt>
      <trkpt lat="47.2964830" lon="6.9355860">
        <ele>869.6</ele>
        <time>2022-07-21T08:01:10Z</time>
      </trkpt>
      <trkpt lat="47.2964940" lon="6.9355990">
        <ele>869.7</ele>
        <time>2022-07-21T08:01:11Z</time>
      </trkpt>
      <trkpt lat="47.2965040" lon="6.9356120">
        <ele>869.8</ele>
        <time>2022-07-21T08:01:12Z</time>
      </trkpt>
      <trkpt lat="47.2965320" lon="6.9356460">
        <ele>870.0</ele>
        <time>2022-07-21T08:01:13Z</time>
      </trkpt>
      <trkpt lat="47.2965440" lon="6.9356600">
        <ele>870.1</ele>
        <time>2022-07-21T08:01:14Z</time>
      </trkpt>
      <trkpt lat="47.2965660" lon="6.9356830">
        <ele>870.2</ele>
        <time>2022-07-21T08:01:15Z</time>
      </trkpt>
      <trkpt lat="47.2965850" lon="6.9357040">
        <ele>870.4</ele>
        <time>2022-07-21T08:01:17Z</time>
      </trkpt>
      <trkpt lat="47.2966140" lon="6.9357380">
        <ele>870.6</ele>
        <time>2022-07-21T08:01:18Z</time>
      </trkpt>
      <trkpt lat="47.2966260" lon="6.9357520">
        <ele>870.7</ele>
        <time>2022-07-21T08:01:19Z</time>
      </trkpt>
      <trkpt lat="47.2966530" lon="6.9357800">
        <ele>870.9</ele>
        <time>2022-07-21T08:01:21Z</time>
      </trkpt>
      <trkpt lat="47.2966660" lon="6.9357960">
        <ele>871.0</ele>
        <time>2022-07-21T08:01:22Z</time>
      </trkpt>
      <trkpt lat="47.2966800" lon="6.9358130">
        <ele>871.2</ele>
        <time>2022-07-21T08:01:23Z</time>
      </trkpt>
      <trkpt lat="47.2967060" lon="6.9358430">
        <ele>871.4</ele>
        <time>2022-07-21T08:01:24Z</time>
      </trkpt>
      <trkpt lat="47.2967290" lon="6.9358720">
        <ele>871.6</ele>
        <time>2022-07-21T08:01:26Z</time>
      </trkpt>
      <trkpt lat="47.2967370" lon="6.9358820">
        <ele>871.7</ele>
        <time>2022-07-21T08:01:27Z</time>
      </trkpt>
      <trkpt lat="47.2967580" lon="6.9359060">
        <ele>871.9</ele>
        <time>2022-07-21T08:01:28Z</time>
      </trkpt>
      <trkpt lat="47.2967670" lon="6.9359150">
        <ele>872.0</ele>
        <time>2022-07-21T08:01:29Z</time>
      </trkpt>
      <trkpt lat="47.2967830" lon="6.9359320">
        <ele>872.2</ele>
        <time>2022-07-21T08:01:30Z</time>
      </trkpt>
      <trkpt lat="47.2968100" lon="6.9359520">
        <ele>872.4</ele>
        <time>2022-07-21T08:01:32Z</time>
      </trkpt>
      <trkpt lat="47.2968370" lon="6.9359810">
        <ele>872.7</ele>
        <time>2022-07-21T08:01:33Z</time>
      </trkpt>
      <trkpt lat="47.2968480" lon="6.9359920">
        <ele>872.8</ele>
        <time>2022-07-21T08:01:34Z</time>
      </trkpt>
      <trkpt lat="47.2968660" lon="6.9360070">
        <ele>873.0</ele>
        <time>2022-07-21T08:01:35Z</time>
      </trkpt>
      <trkpt lat="47.2968960" lon="6.9360360">
        <ele>873.4</ele>
        <time>2022-07-21T08:01:37Z</time>
      </trkpt>
      <trkpt lat="47.2969080" lon="6.9360440">
        <ele>873.5</ele>
        <time>2022-07-21T08:01:38Z</time>
      </trkpt>
      <trkpt lat="47.2969210" lon="6.9360540">
        <ele>873.7</ele>
        <time>2022-07-21T08:01:39Z</time>
      </trkpt>
      <trkpt lat="47.2969310" lon="6.9360650">
        <ele>873.8</ele>
        <time>2022-07-21T08:01:40Z</time>
      </trkpt>
      <trkpt lat="47.2969430" lon="6.9360750">
        <ele>873.9</ele>
        <time>2022-07-21T08:01:41Z</time>
      </trkpt>
      <trkpt lat="47.2969770" lon="6.9360940">
        <ele>874.3</ele>
        <time>2022-07-21T08:01:43Z</time>
      </trkpt>
      <trkpt lat="47.2969940" lon="6.9361060">
        <ele>874.4</ele>
        <time>2022-07-21T08:01:44Z</time>
      </trkpt>
      <trkpt lat="47.2970020" lon="6.9361110">
        <ele>874.5</ele>
        <time>2022-07-21T08:01:45Z</time>
      </trkpt>
      <trkpt lat="47.2970150" lon="6.9361220">
        <ele>874.7</ele>
        <time>2022-07-21T08:01:46Z</time>
      </trkpt>
      <trkpt lat="47.2970320" lon="6.9361320">
        <ele>874.8</ele>
        <time>2022-07-21T08:01:47Z</time>
      </trkpt>
      <trkpt lat="47.2970500" lon="6.9361420">
        <ele>875.0</ele>
        <time>2022-07-21T08:01:49Z</time>
      </trkpt>
      <trkpt lat="47.2970650" lon="6.9361490">
        <ele>875.2</ele>
        <time>2022-07-21T08:01:50Z</time>
      </trkpt>
      <trkpt lat="47.2970830" lon="6.9361470">
        <ele>875.3</ele>
        <time>2022-07-21T08:01:52Z</time>
      </trkpt>
      <trkpt lat="47.2970930" lon="6.9361410">
        <ele>875.4</ele>
        <time>2022-07-21T08:01:53Z</time>
      </trkpt>
      <trkpt lat="47.2971070" lon="6.9361370">
        <ele>875.6</ele>
        <time>2022-07-21T08:01:54Z</time>
      </trkpt>
      <trkpt lat="47.2971150" lon="6.9361350">
        <ele>875.7</ele>
        <time>2022-07-21T08:01:55Z</time>
      </trkpt>
      <trkpt lat="47.2971220" lon="6.9361320">
        <ele>875.7</ele>
        <time>2022-07-21T08:01:56Z</time>
      </trkpt>
      <trkpt lat="47.2971300" lon="6.9361300">
        <ele>875.8</ele>
        <time>2022-07-21T08:01:57Z</time>
      </trkpt>
      <trkpt lat="47.2971480" lon="6.9361320">
        <ele>876.0</ele>
        <time>2022-07-21T08:01:58Z</time>
      </trkpt>
      <trkpt lat="47.2971640" lon="6.9361370">
        <ele>876.1</ele>
        <time>2022-07-21T08:01:59Z</time>
      </trkpt>
      <trkpt lat="47.2971940" lon="6.9361430">
        <ele>876.4</ele>
        <time>2022-07-21T08:02:00Z</time>
      </trkpt>
      <trkpt lat="47.2972030" lon="6.9361430">
        <ele>876.5</ele>
        <time>2022-07-21T08:02:01Z</time>
      </trkpt>
      <trkpt lat="47.2972230" lon="6.9361370">
        <ele>876.7</ele>
        <time>2022-07-21T08:02:02Z</time>
      </trkpt>
      <trkpt lat="47.2972370" lon="6.9361380">
        <ele>876.8</ele>
        <time>2022-07-21T08:02:03Z</time>
      </trkpt>
      <trkpt lat="47.2972520" lon="6.9361290">
        <ele>877.0</ele>
        <time>2022-07-21T08:02:04Z</time>
      </trkpt>
      <trkpt lat="47.2972670" lon="6.9361170">
        <ele>877.1</ele>
        <time>2022-07-21T08:02:05Z</time>
      </trkpt>
      <trkpt lat="47.2972780" lon="6.9361040">
        <ele>877.3</ele>
        <time>2022-07-21T08:02:07Z</time>
      </trkpt>
      <trkpt lat="47.2972880" lon="6.9360980">
        <ele>877.4</ele>
        <time>2022-07-21T08:02:08Z</time>
      </trkpt>
      <trkpt lat="47.2972970" lon="6.9360930">
        <ele>877.5</ele>
        <time>2022-07-21T08:02:09Z</time>
      </trkpt>
      <trkpt lat="47.2973100" lon="6.9360870">
        <ele>877.6</ele>
        <time>2022-07-21T08:02:10Z</time>
      </trkpt>
      <trkpt lat="47.2973250" lon="6.9360780">
        <ele>877.7</ele>
        <time>2022-07-21T08:02:11Z</time>
      </trkpt>
      <trkpt lat="47.2973390" lon="6.9360750">
        <ele>877.8</ele>
        <time>2022-07-21T08:02:12Z</time>
      </trkpt>
      <trkpt lat="47.2973520" lon="6.9360730">
        <ele>878.0</ele>
        <time>2022-07-21T08:02:13Z</time>
      </trkpt>
      <trkpt lat="47.2973680" lon="6.9360660">
        <ele>878.1</ele>
        <time>2022-07-21T08:02:14Z</time>
      </trkpt>
      <trkpt lat="47.2973860" lon="6.9360550">
        <ele>878.3</ele>
        <time>2022-07-21T08:02:16Z</time>
      </trkpt>
      <trkpt lat="47.2973940" lon="6.9360510">
        <ele>878.4</ele>
        <time>2022-07-21T08:02:17Z</time>
      </trkpt>
      <trkpt lat="47.2974040" lon="6.9360400">
        <ele>878.5</ele>
        <time>2022-07-21T08:02:18Z</time>
      </trkpt>
      <trkpt lat="47.2974150" lon="6.9360310">
        <ele>878.6</ele>
        <time>2022-07-21T08:02:19Z</time>
      </trkpt>
      <trkpt lat="47.2974320" lon="6.9360200">
        <ele>878.7</ele>
        <time>2022-07-21T08:02:20Z</time>
      </trkpt>
      <trkpt lat="47.2974430" lon="6.9360140">
        <ele>878.8</ele>
        <time>2022-07-21T08:02:21Z</time>
      </trkpt>
      <trkpt lat="47.2974710" lon="6.9359880">
        <ele>879.1</ele>
        <time>2022-07-21T08:02:23Z</time>
      </trkpt>
      <trkpt lat="47.2974760" lon="6.9359820">
        <ele>879.2</ele>
        <time>2022-07-21T08:02:24Z</time>
      </trkpt>
      <trkpt lat="47.2974920" lon="6.9359700">
        <ele>879.3</ele>
        <time>2022-07-21T08:02:25Z</time>
      </trkpt>
      <trkpt lat="47.2975060" lon="6.9359610">
        <ele>879.5</ele>
        <time>2022-07-21T08:02:26Z</time>
      </trkpt>
      <trkpt lat="47.2975170" lon="6.9359490">
        <ele>879.6</ele>
        <time>2022-07-21T08:02:27Z</time>
      </trkpt>
      <trkpt lat="47.2975340" lon="6.9359350">
        <ele>879.8</ele>
        <time>2022-07-21T08:02:28Z</time>
      </trkpt>
      <trkpt lat="47.2975490" lon="6.9359170">
        <ele>879.9</ele>
        <time>2022-07-21T08:02:29Z</time>
      </trkpt>
      <trkpt lat="47.2975590" lon="6.9359070">
        <ele>880.0</ele>
        <time>2022-07-21T08:02:31Z</time>
      </trkpt>
      <trkpt lat="47.2975660" lon="6.9359000">
        <ele>880.1</ele>
        <time>2022-07-21T08:02:32Z</time>
      </trkpt>
      <trkpt lat="47.2975880" lon="6.9358830">
        <ele>880.3</ele>
        <time>2022-07-21T08:02:34Z</time>
      </trkpt>
      <trkpt lat="47.2976040" lon="6.9358710">
        <ele>880.5</ele>
        <time>2022-07-21T08:02:35Z</time>
      </trkpt>
      <trkpt lat="47.2976200" lon="6.9358610">
        <ele>880.6</ele>
        <time>2022-07-21T08:02:36Z</time>
      </trkpt>
      <trkpt lat="47.2976420" lon="6.9358400">
        <ele>880.8</ele>
        <time>2022-07-21T08:02:37Z</time>
      </trkpt>
      <trkpt lat="47.2976520" lon="6.9358330">
        <ele>880.9</ele>
        <time>2022-07-21T08:02:38Z</time>
      </trkpt>
      <trkpt lat="47.2976750" lon="6.9358210">
        <ele>881.1</ele>
        <time>2022-07-21T08:02:39Z</time>
      </trkpt>
      <trkpt lat="47.2977090" lon="6.9358060">
        <ele>881.4</ele>
        <time>2022-07-21T08:02:41Z</time>
      </trkpt>
      <trkpt lat="47.2977410" lon="6.9357980">
        <ele>881.6</ele>
        <time>2022-07-21T08:02:42Z</time>
      </trkpt>
      <trkpt lat="47.2977530" lon="6.9357950">
        <ele>881.7</ele>
        <time>2022-07-21T08:02:43Z</time>
      </trkpt>
      <trkpt lat="47.2977760" lon="6.9357900">
        <ele>881.9</ele>
        <time>2022-07-21T08:02:44Z</time>
      </trkpt>
      <trkpt lat="47.2977930" lon="6.9357840">
        <ele>882.0</ele>
        <time>2022-07-21T08:02:46Z</time>
      </trkpt>
      <trkpt lat="47.2978320" lon="6.9357730">
        <ele>882.3</ele>
        <time>2022-07-21T08:02:47Z</time>
      </trkpt>
      <trkpt lat="47.2978450" lon="6.9357670">
        <ele>882.4</ele>
        <time>2022-07-21T08:02:48Z</time>
      </trkpt>
      <trkpt lat="47.2978740" lon="6.9357490">
        <ele>882.6</ele>
        <time>2022-07-21T08:02:50Z</time>
      </trkpt>
      <trkpt lat="47.2978950" lon="6.9357420">
        <ele>882.8</ele>
        <time>2022-07-21T08:02:51Z</time>
      </trkpt>
      <trkpt lat="47.2979070" lon="6.9357390">
        <ele>882.9</ele>
        <time>2022-07-21T08:02:52Z</time>
      </trkpt>
      <trkpt lat="47.2979270" lon="6.9357350">
        <ele>883.0</ele>
        <time>2022-07-21T08:02:53Z</time>
      </trkpt>
      <trkpt lat="47.2979350" lon="6.9357340">
        <ele>883.1</ele>
        <time>2022-07-21T08:02:54Z</time>
      </trkpt>
      <trkpt lat="47.2979430" lon="6.9357320">
        <ele>883.1</ele>
        <time>2022-07-21T08:02:55Z</time>
      </trkpt>
      <trkpt lat="47.2979570" lon="6.9357300">
        <ele>883.2</ele>
        <time>2022-07-21T08:02:56Z</time>
      </trkpt>
      <trkpt lat="47.2979760" lon="6.9357270">
        <ele>883.3</ele>
        <time>2022-07-21T08:02:57Z</time>
      </trkpt>
      <trkpt lat="47.2980040" lon="6.9357330">
        <ele>883.5</ele>
        <time>2022-07-21T08:02:58Z</time>
      </trkpt>
      <trkpt lat="47.2980140" lon="6.9357360">
        <ele>883.6</ele>
        <time>2022-07-21T08:02:59Z</time>
      </trkpt>
      <trkpt lat="47.2980460" lon="6.9357350">
        <ele>883.8</ele>
        <time>2022-07-21T08:03:00Z</time>
      </trkpt>
      <trkpt lat="47.2980600" lon="6.9357350">
        <ele>883.9</ele>
        <time>2022-07-21T08:03:01Z</time>
      </trkpt>
      <trkpt lat="47.2980940" lon="6.9357380">
        <ele>884.1</ele>
        <time>2022-07-21T08:03:03Z</time>
      </trkpt>
      <trkpt lat="47.2981050" lon="6.9357390">
        <ele>884.2</ele>
        <time>2022-07-21T08:03:04Z</time>
      </trkpt>
      <trkpt lat="47.2981370" lon="6.9357410">
        <ele>884.4</ele>
        <time>2022-07-21T08:03:05Z</time>
      </trkpt>
      <trkpt lat="47.2981480" lon="6.9357420">
        <ele>884.5</ele>
        <time>2022-07-21T08:03:06Z</time>
      </trkpt>
      <trkpt lat="47.2981700" lon="6.9357450">
        <ele>884.6</ele>
        <time>2022-07-21T08:03:07Z</time>
      </trkpt>
      <trkpt lat="47.2981950" lon="6.9357440">
        <ele>884.8</ele>
        <time>2022-07-21T08:03:09Z</time>
      </trkpt>
      <trkpt lat="47.2982110" lon="6.9357480">
        <ele>884.9</ele>
        <time>2022-07-21T08:03:10Z</time>
      </trkpt>
      <trkpt lat="47.2982260" lon="6.9357530">
        <ele>885.0</ele>
        <time>2022-07-21T08:03:11Z</time>
      </trkpt>
      <trkpt lat="47.2982510" lon="6.9357620">
        <ele>885.2</ele>
        <time>2022-07-21T08:03:12Z</time>
      </trkpt>
      <trkpt lat="47.2982700" lon="6.9357650">
        <ele>885.3</ele>
        <time>2022-07-21T08:03:14Z</time>
      </trkpt>
      <trkpt lat="47.2982880" lon="6.9357680">
        <ele>885.5</ele>
        <time>2022-07-21T08:03:15Z</time>
      </trkpt>
      <trkpt lat="47.2983000" lon="6.9357730">
        <ele>885.5</ele>
        <time>2022-07-21T08:03:16Z</time>
      </trkpt>
      <trkpt lat="47.2983120" lon="6.9357780">
        <ele>885.6</ele>
        <time>2022-07-21T08:03:17Z</time>
      </trkpt>
      <trkpt lat="47.2983290" lon="6.9357800">
        <ele>885.8</ele>
        <time>2022-07-21T08:03:18Z</time>
      </trkpt>
      <trkpt lat="47.2983460" lon="6.9357830">
        <ele>885.9</ele>
        <time>2022-07-21T08:03:19Z</time>
      </trkpt>
      <trkpt lat="47.2983530" lon="6.9357920">
        <ele>885.9</ele>
        <time>2022-07-21T08:03:20Z</time>
      </trkpt>
      <trkpt lat="47.2983610" lon="6.9357990">
        <ele>886.0</ele>
        <time>2022-07-21T08:03:21Z</time>
      </trkpt>
      <trkpt lat="47.2983760" lon="6.9358070">
        <ele>886.1</ele>
        <time>2022-07-21T08:03:23Z</time>
      </trkpt>
      <trkpt lat="47.2983930" lon="6.9358080">
        <ele>886.2</ele>
        <time>2022-07-21T08:03:24Z</time>
      </trkpt>
      <trkpt lat="47.2984170" lon="6.9358100">
        <ele>886.4</ele>
        <time>2022-07-21T08:03:25Z</time>
      </trkpt>
      <trkpt lat="47.2984430" lon="6.9358150">
        <ele>886.6</ele>
        <time>2022-07-21T08:03:27Z</time>
      </trkpt>
      <trkpt lat="47.2984730" lon="6.9358230">
        <ele>886.8</ele>
        <time>2022-07-21T08:03:28Z</time>
      </trkpt>
      <trkpt lat="47.2984860" lon="6.9358250">
        <ele>886.9</ele>
        <time>2022-07-21T08:03:29Z</time>
      </trkpt>
      <trkpt lat="47.2985130" lon="6.9358290">
        <ele>887.1</ele>
        <time>2022-07-21T08:03:30Z</time>
      </trkpt>
      <trkpt lat="47.2985410" lon="6.9358290">
        <ele>887.3</ele>
        <time>2022-07-21T08:03:32Z</time>
      </trkpt>
      <trkpt lat="47.2985500" lon="6.9358280">
        <ele>887.4</ele>
        <time>2022-07-21T08:03:33Z</time>
      </trkpt>
      <trkpt lat="47.2985670" lon="6.9358290">
        <ele>887.5</ele>
        <time>2022-07-21T08:03:34Z</time>
      </trkpt>
      <trkpt lat="47.2985850" lon="6.9358320">
        <ele>887.6</ele>
        <time>2022-07-21T08:03:35Z</time>
      </trkpt>
      <trkpt lat="47.2986210" lon="6.9358350">
        <ele>887.9</ele>
        <time>2022-07-21T08:03:37Z</time>
      </trkpt>
      <trkpt lat="47.2986290" lon="6.9358350">
        <ele>887.9</ele>
        <time>2022-07-21T08:03:38Z</time>
      </trkpt>
      <trkpt lat="47.2986630" lon="6.9358440">
        <ele>888.2</ele>
        <time>2022-07-21T08:03:39Z</time>
      </trkpt>
      <trkpt lat="47.2986780" lon="6.9358490">
        <ele>888.3</ele>
        <time>2022-07-21T08:03:40Z</time>
      </trkpt>
      <trkpt lat="47.2987060" lon="6.9358560">
        <ele>888.4</ele>
        <time>2022-07-21T08:03:41Z</time>
      </trkpt>
      <trkpt lat="47.2987380" lon="6.9358580">
        <ele>888.6</ele>
        <time>2022-07-21T08:03:43Z</time>
      </trkpt>
      <trkpt lat="47.2987480" lon="6.9358580">
        <ele>888.7</ele>
        <time>2022-07-21T08:03:44Z</time>
      </trkpt>
      <trkpt lat="47.2987750" lon="6.9358620">
        <ele>888.9</ele>
        <time>2022-07-21T08:03:45Z</time>
      </trkpt>
      <trkpt lat="47.2988090" lon="6.9358690">
        <ele>889.2</ele>
        <time>2022-07-21T08:03:47Z</time>
      </trkpt>
      <trkpt lat="47.2988410" lon="6.9358720">
        <ele>889.4</ele>
        <time>2022-07-21T08:03:48Z</time>
      </trkpt>
      <trkpt lat="47.2988510" lon="6.9358740">
        <ele>889.5</ele>
        <time>2022-07-21T08:03:49Z</time>
      </trkpt>
      <trkpt lat="47.2988790" lon="6.9358750">
        <ele>889.7</ele>
        <time>2022-07-21T08:03:50Z</time>
      </trkpt>
      <trkpt lat="47.2989150" lon="6.9358950">
        <ele>890.0</ele>
        <time>2022-07-21T08:03:52Z</time>
      </trkpt>
      <trkpt lat="47.2989270" lon="6.9359030">
        <ele>890.1</ele>
        <time>2022-07-21T08:03:53Z</time>
      </trkpt>
      <trkpt lat="47.2989540" lon="6.9359200">
        <ele>890.3</ele>
        <time>2022-07-21T08:03:54Z</time>
      </trkpt>
      <trkpt lat="47.2989630" lon="6.9359290">
        <ele>890.4</ele>
        <time>2022-07-21T08:03:55Z</time>
      </trkpt>
      <trkpt lat="47.2989730" lon="6.9359380">
        <ele>890.5</ele>
        <time>2022-07-21T08:03:56Z</time>
      </trkpt>
      <trkpt lat="47.2989900" lon="6.9359560">
        <ele>890.6</ele>
        <time>2022-07-21T08:03:57Z</time>
      </trkpt>
      <trkpt lat="47.2990070" lon="6.9359690">
        <ele>890.8</ele>
        <time>2022-07-21T08:03:59Z</time>
      </trkpt>
      <trkpt lat="47.2990160" lon="6.9359750">
        <ele>890.8</ele>
        <time>2022-07-21T08:04:00Z</time>
      </trkpt>
      <trkpt lat="47.2990260" lon="6.9359820">
        <ele>890.9</ele>
        <time>2022-07-21T08:04:01Z</time>
      </trkpt>
      <trkpt lat="47.2990540" lon="6.9360070">
        <ele>891.2</ele>
        <time>2022-07-21T08:04:03Z</time>
      </trkpt>
      <trkpt lat="47.2990650" lon="6.9360170">
        <ele>891.3</ele>
        <time>2022-07-21T08:04:04Z</time>
      </trkpt>
      <trkpt lat="47.2990770" lon="6.9360270">
        <ele>891.4</ele>
        <time>2022-07-21T08:04:05Z</time>
      </trkpt>
      <trkpt lat="47.2990910" lon="6.9360360">
        <ele>891.5</ele>
        <time>2022-07-21T08:04:06Z</time>
      </trkpt>
      <trkpt lat="47.2991180" lon="6.9360460">
        <ele>891.7</ele>
        <time>2022-07-21T08:04:08Z</time>
      </trkpt>
      <trkpt lat="47.2991270" lon="6.9360520">
        <ele>891.8</ele>
        <time>2022-07-21T08:04:09Z</time>
      </trkpt>
      <trkpt lat="47.2991470" lon="6.9360710">
        <ele>891.9</ele>
        <time>2022-07-21T08:04:10Z</time>
      </trkpt>
      <trkpt lat="47.2991560" lon="6.9360790">
        <ele>892.0</ele>
        <time>2022-07-21T08:04:11Z</time>
      </trkpt>
      <trkpt lat="47.2991650" lon="6.9360880">
        <ele>892.1</ele>
        <time>2022-07-21T08:04:12Z</time>
      </trkpt>
      <trkpt lat="47.2991900" lon="6.9361160">
        <ele>892.3</ele>
        <time>2022-07-21T08:04:13Z</time>
      </trkpt>
      <trkpt lat="47.2991980" lon="6.9361270">
        <ele>892.4</ele>
        <time>2022-07-21T08:04:14Z</time>
      </trkpt>
      <trkpt lat="47.2992250" lon="6.9361620">
        <ele>892.7</ele>
        <time>2022-07-21T08:04:15Z</time>
      </trkpt>
      <trkpt lat="47.2992340" lon="6.9361720">
        <ele>892.7</ele>
        <time>2022-07-21T08:04:16Z</time>
      </trkpt>
      <trkpt lat="47.2992620" lon="6.9362050">
        <ele>893.0</ele>
        <time>2022-07-21T08:04:17Z</time>
      </trkpt>
      <trkpt lat="47.2992730" lon="6.9362170">
        <ele>893.1</ele>
        <time>2022-07-21T08:04:18Z</time>
      </trkpt>
      <trkpt lat="47.2992910" lon="6.9362300">
        <ele>893.2</ele>
        <time>2022-07-21T08:04:19Z</time>
      </trkpt>
      <trkpt lat="47.2993220" lon="6.9362520">
        <ele>893.5</ele>
        <time>2022-07-21T08:04:21Z</time>
      </trkpt>
      <trkpt lat="47.2993450" lon="6.9362750">
        <ele>893.7</ele>
        <time>2022-07-21T08:04:22Z</time>
      </trkpt>
      <trkpt lat="47.2993530" lon="6.9362830">
        <ele>893.8</ele>
        <time>2022-07-21T08:04:23Z</time>
      </trkpt>
      <trkpt lat="47.2993810" lon="6.9363050">
        <ele>894.0</ele>
        <time>2022-07-21T08:04:25Z</time>
      </trkpt>
      <trkpt lat="47.2993890" lon="6.9363110">
        <ele>894.0</ele>
        <time>2022-07-21T08:04:26Z</time>
      </trkpt>
      <trkpt lat="47.2993970" lon="6.9363200">
        <ele>894.1</ele>
        <time>2022-07-21T08:04:27Z</time>
      </trkpt>
      <trkpt lat="47.2994040" lon="6.9363290">
        <ele>894.2</ele>
        <time>2022-07-21T08:04:28Z</time>
      </trkpt>
      <trkpt lat="47.2994100" lon="6.9363420">
        <ele>894.2</ele>
        <time>2022-07-21T08:04:29Z</time>
      </trkpt>
      <trkpt lat="47.2994200" lon="6.9363570">
        <ele>894.3</ele>
        <time>2022-07-21T08:04:30Z</time>
      </trkpt>
      <trkpt lat="47.2994290" lon="6.9363710">
        <ele>894.4</ele>
        <time>2022-07-21T08:04:31Z</time>
      </trkpt>
      <trkpt lat="47.2994400" lon="6.9363870">
        <ele>894.5</ele>
        <time>2022-07-21T08:04:32Z</time>
      </trkpt>
      <trkpt lat="47.2994500" lon="6.9364000">
        <ele>894.6</ele>
        <time>2022-07-21T08:04:33Z</time>
      </trkpt>
      <trkpt lat="47.2994700" lon="6.9364220">
        <ele>894.8</ele>
        <time>2022-07-21T08:04:34Z</time>
      </trkpt>
      <trkpt lat="47.2994810" lon="6.9364330">
        <ele>894.9</ele>
        <time>2022-07-21T08:04:35Z</time>
      </trkpt>
      <trkpt lat="47.2995180" lon="6.9364880">
        <ele>895.2</ele>
        <time>2022-07-21T08:04:36Z</time>
      </trkpt>
      <trkpt lat="47.2995430" lon="6.9365350">
        <ele>895.4</ele>
        <time>2022-07-21T08:04:38Z</time>
      </trkpt>
      <trkpt lat="47.2995740" lon="6.9365780">
        <ele>895.5</ele>
        <time>2022-07-21T08:04:39Z</time>
      </trkpt>
      <trkpt lat="47.2996090" lon="6.9366210">
        <ele>895.6</ele>
        <time>2022-07-21T08:04:40Z</time>
      </trkpt>
      <trkpt lat="47.2996420" lon="6.9366600">
        <ele>895.6</ele>
        <time>2022-07-21T08:04:41Z</time>
      </trkpt>
      <trkpt lat="47.2996670" lon="6.9366840">
        <ele>895.5</ele>
        <time>2022-07-21T08:04:42Z</time>
      </trkpt>
      <trkpt lat="47.2996910" lon="6.9367050">
        <ele>895.4</ele>
        <time>2022-07-21T08:04:44Z</time>
      </trkpt>
      <trkpt lat="47.2997180" lon="6.9367350">
        <ele>895.4</ele>
        <time>2022-07-21T08:04:45Z</time>
      </trkpt>
      <trkpt lat="47.2997410" lon="6.9367740">
        <ele>895.3</ele>
        <time>2022-07-21T08:04:46Z</time>
      </trkpt>
      <trkpt lat="47.2997760" lon="6.9368500">
        <ele>895.2</ele>
        <time>2022-07-21T08:04:48Z</time>
      </trkpt>
      <trkpt lat="47.2998080" lon="6.9368960">
        <ele>895.1</ele>
        <time>2022-07-21T08:04:49Z</time>
      </trkpt>
      <trkpt lat="47.2998380" lon="6.9369370">
        <ele>895.0</ele>
        <time>2022-07-21T08:04:50Z</time>
      </trkpt>
      <trkpt lat="47.2998670" lon="6.9369850">
        <ele>894.9</ele>
        <time>2022-07-21T08:04:51Z</time>
      </trkpt>
      <trkpt lat="47.2998980" lon="6.9370350">
        <ele>894.8</ele>
        <time>2022-07-21T08:04:52Z</time>
      </trkpt>
      <trkpt lat="47.2999270" lon="6.9370810">
        <ele>894.7</ele>
        <time>2022-07-21T08:04:53Z</time>
      </trkpt>
      <trkpt lat="47.2999570" lon="6.9371310">
        <ele>894.6</ele>
        <time>2022-07-21T08:04:54Z</time>
      </trkpt>
      <trkpt lat="47.2999830" lon="6.9371740">
        <ele>894.5</ele>
        <time>2022-07-21T08:04:55Z</time>
      </trkpt>
      <trkpt lat="47.3000030" lon="6.9372220">
        <ele>894.4</ele>
        <time>2022-07-21T08:04:56Z</time>
      </trkpt>
      <trkpt lat="47.3000240" lon="6.9372800">
        <ele>894.2</ele>
        <time>2022-07-21T08:04:57Z</time>
      </trkpt>
      <trkpt lat="47.3000470" lon="6.9373330">
        <ele>894.1</ele>
        <time>2022-07-21T08:04:58Z</time>
      </trkpt>
      <trkpt lat="47.3000850" lon="6.9374260">
        <ele>893.9</ele>
        <time>2022-07-21T08:05:00Z</time>
      </trkpt>
      <trkpt lat="47.3001080" lon="6.9374810">
        <ele>893.7</ele>
        <time>2022-07-21T08:05:01Z</time>
      </trkpt>
      <trkpt lat="47.3001320" lon="6.9375320">
        <ele>893.6</ele>
        <time>2022-07-21T08:05:02Z</time>
      </trkpt>
      <trkpt lat="47.3001590" lon="6.9375870">
        <ele>893.5</ele>
        <time>2022-07-21T08:05:03Z</time>
      </trkpt>
      <trkpt lat="47.3002080" lon="6.9376820">
        <ele>893.2</ele>
        <time>2022-07-21T08:05:05Z</time>
      </trkpt>
      <trkpt lat="47.3002410" lon="6.9377400">
        <ele>893.0</ele>
        <time>2022-07-21T08:05:06Z</time>
      </trkpt>
      <trkpt lat="47.3002660" lon="6.9377900">
        <ele>892.9</ele>
        <time>2022-07-21T08:05:07Z</time>
      </trkpt>
      <trkpt lat="47.3002910" lon="6.9378760">
        <ele>892.6</ele>
        <time>2022-07-21T08:05:08Z</time>
      </trkpt>
      <trkpt lat="47.3003140" lon="6.9379380">
        <ele>892.5</ele>
        <time>2022-07-21T08:05:09Z</time>
      </trkpt>
      <trkpt lat="47.3003430" lon="6.9379980">
        <ele>892.3</ele>
        <time>2022-07-21T08:05:10Z</time>
      </trkpt>
      <trkpt lat="47.3003750" lon="6.9380620">
        <ele>892.1</ele>
        <time>2022-07-21T08:05:11Z</time>
      </trkpt>
      <trkpt lat="47.3004040" lon="6.9381220">
        <ele>891.9</ele>
        <time>2022-07-21T08:05:12Z</time>
      </trkpt>
      <trkpt lat="47.3004280" lon="6.9381790">
        <ele>891.7</ele>
        <time>2022-07-21T08:05:13Z</time>
      </trkpt>
      <trkpt lat="47.3004500" lon="6.9382330">
        <ele>891.6</ele>
        <time>2022-07-21T08:05:14Z</time>
      </trkpt>
      <trkpt lat="47.3004760" lon="6.9382960">
        <ele>891.4</ele>
        <time>2022-07-21T08:05:15Z</time>
      </trkpt>
      <trkpt lat="47.3005020" lon="6.9383610">
        <ele>891.2</ele>
        <time>2022-07-21T08:05:16Z</time>
      </trkpt>
      <trkpt lat="47.3005310" lon="6.9384210">
        <ele>891.1</ele>
        <time>2022-07-21T08:05:17Z</time>
      </trkpt>
      <trkpt lat="47.3005630" lon="6.9384870">
        <ele>890.8</ele>
        <time>2022-07-21T08:05:18Z</time>
      </trkpt>
      <trkpt lat="47.3005930" lon="6.9385580">
        <ele>890.6</ele>
        <time>2022-07-21T08:05:19Z</time>
      </trkpt>
      <trkpt lat="47.3006280" lon="6.9386290">
        <ele>890.3</ele>
        <time>2022-07-21T08:05:20Z</time>
      </trkpt>
      <trkpt lat="47.3006650" lon="6.9387000">
        <ele>890.1</ele>
        <time>2022-07-21T08:05:21Z</time>
      </trkpt>
      <trkpt lat="47.3007030" lon="6.9387700">
        <ele>889.8</ele>
        <time>2022-07-21T08:05:22Z</time>
      </trkpt>
      <trkpt lat="47.3007410" lon="6.9388420">
        <ele>889.6</ele>
        <time>2022-07-21T08:05:23Z</time>
      </trkpt>
      <trkpt lat="47.3007790" lon="6.9389170">
        <ele>889.3</ele>
        <time>2022-07-21T08:05:24Z</time>
      </trkpt>
      <trkpt lat="47.3008180" lon="6.9389970">
        <ele>889.1</ele>
        <time>2022-07-21T08:05:25Z</time>
      </trkpt>
      <trkpt lat="47.3008570" lon="6.9390750">
        <ele>888.8</ele>
        <time>2022-07-21T08:05:26Z</time>
      </trkpt>
      <trkpt lat="47.3008910" lon="6.9391540">
        <ele>888.6</ele>
        <time>2022-07-21T08:05:27Z</time>
      </trkpt>
      <trkpt lat="47.3009350" lon="6.9392260">
        <ele>888.4</ele>
        <time>2022-07-21T08:05:28Z</time>
      </trkpt>
      <trkpt lat="47.3009740" lon="6.9392920">
        <ele>888.2</ele>
        <time>2022-07-21T08:05:29Z</time>
      </trkpt>
      <trkpt lat="47.3010100" lon="6.9393660">
        <ele>888.0</ele>
        <time>2022-07-21T08:05:30Z</time>
      </trkpt>
      <trkpt lat="47.3010470" lon="6.9394430">
        <ele>887.8</ele>
        <time>2022-07-21T08:05:31Z</time>
      </trkpt>
      <trkpt lat="47.3010830" lon="6.9395200">
        <ele>887.6</ele>
        <time>2022-07-21T08:05:32Z</time>
      </trkpt>
      <trkpt lat="47.3011240" lon="6.9395900">
        <ele>887.4</ele>
        <time>2022-07-21T08:05:33Z</time>
      </trkpt>
      <trkpt lat="47.3011720" lon="6.9396500">
        <ele>887.2</ele>
        <time>2022-07-21T08:05:34Z</time>
      </trkpt>
      <trkpt lat="47.3012180" lon="6.9397040">
        <ele>887.0</ele>
        <time>2022-07-21T08:05:35Z</time>
      </trkpt>
      <trkpt lat="47.3012720" lon="6.9397580">
        <ele>886.8</ele>
        <time>2022-07-21T08:05:36Z</time>
      </trkpt>
      <trkpt lat="47.3013300" lon="6.9398070">
        <ele>886.5</ele>
        <time>2022-07-21T08:05:37Z</time>
      </trkpt>
      <trkpt lat="47.3013890" lon="6.9398550">
        <ele>886.2</ele>
        <time>2022-07-21T08:05:38Z</time>
      </trkpt>
      <trkpt lat="47.3014520" lon="6.9399040">
        <ele>885.9</ele>
        <time>2022-07-21T08:05:39Z</time>
      </trkpt>
      <trkpt lat="47.3015080" lon="6.9399390">
        <ele>885.7</ele>
        <time>2022-07-21T08:05:40Z</time>
      </trkpt>
      <trkpt lat="47.3015570" lon="6.9399590">
        <ele>885.4</ele>
        <time>2022-07-21T08:05:41Z</time>
      </trkpt>
      <trkpt lat="47.3015870" lon="6.9399700">
        <ele>885.3</ele>
        <time>2022-07-21T08:05:42Z</time>
      </trkpt>
      <trkpt lat="47.3016270" lon="6.9399900">
        <ele>885.0</ele>
        <time>2022-07-21T08:05:43Z</time>
      </trkpt>
      <trkpt lat="47.3016660" lon="6.9400020">
        <ele>884.8</ele>
        <time>2022-07-21T08:05:44Z</time>
      </trkpt>
      <trkpt lat="47.3016800" lon="6.9400110">
        <ele>884.7</ele>
        <time>2022-07-21T08:05:45Z</time>
      </trkpt>
      <trkpt lat="47.3017140" lon="6.9400320">
        <ele>884.5</ele>
        <time>2022-07-21T08:05:46Z</time>
      </trkpt>
      <trkpt lat="47.3017280" lon="6.9400400">
        <ele>884.4</ele>
        <time>2022-07-21T08:05:47Z</time>
      </trkpt>
      <trkpt lat="47.3017660" lon="6.9400650">
        <ele>884.1</ele>
        <time>2022-07-21T08:05:48Z</time>
      </trkpt>
      <trkpt lat="47.3018030" lon="6.9400840">
        <ele>883.9</ele>
        <time>2022-07-21T08:05:49Z</time>
      </trkpt>
      <trkpt lat="47.3018440" lon="6.9401050">
        <ele>883.6</ele>
        <time>2022-07-21T08:05:50Z</time>
      </trkpt>
      <trkpt lat="47.3018820" lon="6.9401360">
        <ele>883.3</ele>
        <time>2022-07-21T08:05:51Z</time>
      </trkpt>
      <trkpt lat="47.3019230" lon="6.9401700">
        <ele>883.1</ele>
        <time>2022-07-21T08:05:52Z</time>
      </trkpt>
      <trkpt lat="47.3019570" lon="6.9401980">
        <ele>882.8</ele>
        <time>2022-07-21T08:05:53Z</time>
      </trkpt>
      <trkpt lat="47.3019850" lon="6.9402180">
        <ele>882.6</ele>
        <time>2022-07-21T08:05:54Z</time>
      </trkpt>
      <trkpt lat="47.3020220" lon="6.9402360">
        <ele>882.4</ele>
        <time>2022-07-21T08:05:55Z</time>
      </trkpt>
      <trkpt lat="47.3020330" lon="6.9402450">
        <ele>882.3</ele>
        <time>2022-07-21T08:05:56Z</time>
      </trkpt>
      <trkpt lat="47.3020620" lon="6.9402720">
        <ele>882.1</ele>
        <time>2022-07-21T08:05:57Z</time>
      </trkpt>
      <trkpt lat="47.3020700" lon="6.9402810">
        <ele>882.1</ele>
        <time>2022-07-21T08:05:58Z</time>
      </trkpt>
      <trkpt lat="47.3021070" lon="6.9403110">
        <ele>881.8</ele>
        <time>2022-07-21T08:05:59Z</time>
      </trkpt>
      <trkpt lat="47.3021250" lon="6.9403240">
        <ele>881.7</ele>
        <time>2022-07-21T08:06:00Z</time>
      </trkpt>
      <trkpt lat="47.3021700" lon="6.9403520">
        <ele>881.4</ele>
        <time>2022-07-21T08:06:02Z</time>
      </trkpt>
      <trkpt lat="47.3022150" lon="6.9403870">
        <ele>881.1</ele>
        <time>2022-07-21T08:06:03Z</time>
      </trkpt>
      <trkpt lat="47.3022930" lon="6.9404610">
        <ele>880.6</ele>
        <time>2022-07-21T08:06:04Z</time>
      </trkpt>
      <trkpt lat="47.3023610" lon="6.9404640">
        <ele>880.3</ele>
        <time>2022-07-21T08:06:05Z</time>
      </trkpt>
      <trkpt lat="47.3024080" lon="6.9404920">
        <ele>880.0</ele>
        <time>2022-07-21T08:06:07Z</time>
      </trkpt>
      <trkpt lat="47.3024430" lon="6.9405340">
        <ele>879.8</ele>
        <time>2022-07-21T08:06:08Z</time>
      </trkpt>
      <trkpt lat="47.3024750" lon="6.9405710">
        <ele>879.6</ele>
        <time>2022-07-21T08:06:09Z</time>
      </trkpt>
      <trkpt lat="47.3025240" lon="6.9406180">
        <ele>879.3</ele>
        <time>2022-07-21T08:06:10Z</time>
      </trkpt>
      <trkpt lat="47.3025750" lon="6.9406700">
        <ele>878.9</ele>
        <time>2022-07-21T08:06:12Z</time>
      </trkpt>
      <trkpt lat="47.3026280" lon="6.9406980">
        <ele>878.6</ele>
        <time>2022-07-21T08:06:13Z</time>
      </trkpt>
      <trkpt lat="47.3026650" lon="6.9407300">
        <ele>878.4</ele>
        <time>2022-07-21T08:06:14Z</time>
      </trkpt>
      <trkpt lat="47.3027020" lon="6.9407670">
        <ele>878.1</ele>
        <time>2022-07-21T08:06:15Z</time>
      </trkpt>
      <trkpt lat="47.3027440" lon="6.9408110">
        <ele>877.9</ele>
        <time>2022-07-21T08:06:16Z</time>
      </trkpt>
      <trkpt lat="47.3027900" lon="6.9408480">
        <ele>877.6</ele>
        <time>2022-07-21T08:06:17Z</time>
      </trkpt>
      <trkpt lat="47.3028290" lon="6.9408720">
        <ele>877.3</ele>
        <time>2022-07-21T08:06:18Z</time>
      </trkpt>
      <trkpt lat="47.3028640" lon="6.9409050">
        <ele>877.1</ele>
        <time>2022-07-21T08:06:19Z</time>
      </trkpt>
      <trkpt lat="47.3028750" lon="6.9409190">
        <ele>877.0</ele>
        <time>2022-07-21T08:06:20Z</time>
      </trkpt>
      <trkpt lat="47.3028950" lon="6.9409470">
        <ele>876.9</ele>
        <time>2022-07-21T08:06:21Z</time>
      </trkpt>
      <trkpt lat="47.3029270" lon="6.9409760">
        <ele>876.7</ele>
        <time>2022-07-21T08:06:22Z</time>
      </trkpt>
      <trkpt lat="47.3029380" lon="6.9409850">
        <ele>876.6</ele>
        <time>2022-07-21T08:06:23Z</time>
      </trkpt>
      <trkpt lat="47.3029750" lon="6.9410220">
        <ele>876.3</ele>
        <time>2022-07-21T08:06:24Z</time>
      </trkpt>
      <trkpt lat="47.3030120" lon="6.9410720">
        <ele>876.0</ele>
        <time>2022-07-21T08:06:25Z</time>
      </trkpt>
      <trkpt lat="47.3030510" lon="6.9411190">
        <ele>875.7</ele>
        <time>2022-07-21T08:06:26Z</time>
      </trkpt>
      <trkpt lat="47.3030940" lon="6.9411640">
        <ele>875.4</ele>
        <time>2022-07-21T08:06:27Z</time>
      </trkpt>
      <trkpt lat="47.3031330" lon="6.9412070">
        <ele>875.1</ele>
        <time>2022-07-21T08:06:28Z</time>
      </trkpt>
      <trkpt lat="47.3031720" lon="6.9412550">
        <ele>874.7</ele>
        <time>2022-07-21T08:06:29Z</time>
      </trkpt>
      <trkpt lat="47.3031940" lon="6.9412830">
        <ele>874.6</ele>
        <time>2022-07-21T08:06:30Z</time>
      </trkpt>
      <trkpt lat="47.3032110" lon="6.9413150">
        <ele>874.4</ele>
        <time>2022-07-21T08:06:31Z</time>
      </trkpt>
      <trkpt lat="47.3032320" lon="6.9413540">
        <ele>874.2</ele>
        <time>2022-07-21T08:06:32Z</time>
      </trkpt>
      <trkpt lat="47.3032540" lon="6.9413790">
        <ele>874.0</ele>
        <time>2022-07-21T08:06:33Z</time>
      </trkpt>
      <trkpt lat="47.3032820" lon="6.9414190">
        <ele>873.8</ele>
        <time>2022-07-21T08:06:34Z</time>
      </trkpt>
      <trkpt lat="47.3033120" lon="6.9414540">
        <ele>873.6</ele>
        <time>2022-07-21T08:06:35Z</time>
      </trkpt>
      <trkpt lat="47.3033440" lon="6.9415000">
        <ele>873.4</ele>
        <time>2022-07-21T08:06:36Z</time>
      </trkpt>
      <trkpt lat="47.3033790" lon="6.9415540">
        <ele>873.2</ele>
        <time>2022-07-21T08:06:37Z</time>
      </trkpt>
      <trkpt lat="47.3034070" lon="6.9415990">
        <ele>873.0</ele>
        <time>2022-07-21T08:06:38Z</time>
      </trkpt>
      <trkpt lat="47.3034350" lon="6.9416310">
        <ele>872.9</ele>
        <time>2022-07-21T08:06:39Z</time>
      </trkpt>
      <trkpt lat="47.3034590" lon="6.9416720">
        <ele>872.7</ele>
        <time>2022-07-21T08:06:40Z</time>
      </trkpt>
      <trkpt lat="47.3034640" lon="6.9416900">
        <ele>872.7</ele>
        <time>2022-07-21T08:06:41Z</time>
      </trkpt>
      <trkpt lat="47.3034820" lon="6.9417390">
        <ele>872.6</ele>
        <time>2022-07-21T08:06:42Z</time>
      </trkpt>
      <trkpt lat="47.3034870" lon="6.9417550">
        <ele>872.6</ele>
        <time>2022-07-21T08:06:43Z</time>
      </trkpt>
      <trkpt lat="47.3035000" lon="6.9417980">
        <ele>872.5</ele>
        <time>2022-07-21T08:06:44Z</time>
      </trkpt>
      <trkpt lat="47.3035030" lon="6.9418120">
        <ele>872.5</ele>
        <time>2022-07-21T08:06:45Z</time>
      </trkpt>
      <trkpt lat="47.3035020" lon="6.9418520">
        <ele>872.4</ele>
        <time>2022-07-21T08:06:46Z</time>
      </trkpt>
      <trkpt lat="47.3034950" lon="6.9418740">
        <ele>872.4</ele>
        <time>2022-07-21T08:06:48Z</time>
      </trkpt>
      <trkpt lat="47.3034900" lon="6.9418880">
        <ele>872.4</ele>
        <time>2022-07-21T08:06:49Z</time>
      </trkpt>
      <trkpt lat="47.3034890" lon="6.9418890">
        <ele>872.4</ele>
        <time>2022-07-21T08:06:50Z</time>
      </trkpt>
      <trkpt lat="47.3034870" lon="6.9418820">
        <ele>872.4</ele>
        <time>2022-07-21T08:06:51Z</time>
      </trkpt>
      <trkpt lat="47.3034870" lon="6.9418760">
        <ele>872.4</ele>
        <time>2022-07-21T08:06:52Z</time>
      </trkpt>
      <trkpt lat="47.3034860" lon="6.9418710">
        <ele>872.4</ele>
        <time>2022-07-21T08:06:53Z</time>
      </trkpt>
      <trkpt lat="47.3034860" lon="6.9418680">
        <ele>872.4</ele>
        <time>2022-07-21T08:06:54Z</time>
      </trkpt>
      <trkpt lat="47.3034850" lon="6.9418650">
        <ele>872.3</ele>
        <time>2022-07-21T08:06:55Z</time>
      </trkpt>
      <trkpt lat="47.3034850" lon="6.9418630">
        <ele>872.3</ele>
        <time>2022-07-21T08:06:56Z</time>
      </trkpt>
      <trkpt lat="47.3034850" lon="6.9418620">
        <ele>872.3</ele>
        <time>2022-07-21T08:06:57Z</time>
      </trkpt>
      <trkpt lat="47.3034850" lon="6.9418620">
        <ele>872.3</ele>
        <time>2022-07-21T08:06:58Z</time>
      </trkpt>
      <trkpt lat="47.3034850" lon="6.9418610">
        <ele>872.3</ele>
        <time>2022-07-21T08:06:59Z</time>
      </trkpt>
      <trkpt lat="47.3034300" lon="6.9418660">
        <ele>872.2</ele>
        <time>2022-07-21T08:08:39Z</time>
      </trkpt>
      <trkpt lat="47.3034240" lon="6.9418580">
        <ele>872.2</ele>
        <time>2022-07-21T08:08:40Z</time>
      </trkpt>
      <trkpt lat="47.3034230" lon="6.9418530">
        <ele>872.2</ele>
        <time>2022-07-21T08:08:41Z</time>
      </trkpt>
      <trkpt lat="47.3034250" lon="6.9418500">
        <ele>872.2</ele>
        <time>2022-07-21T08:08:42Z</time>
      </trkpt>
      <trkpt lat="47.3034240" lon="6.9418460">
        <ele>872.2</ele>
        <time>2022-07-21T08:08:43Z</time>
      </trkpt>
      <trkpt lat="47.3034210" lon="6.9418420">
        <ele>872.2</ele>
        <time>2022-07-21T08:08:44Z</time>
      </trkpt>
      <trkpt lat="47.3034180" lon="6.9418390">
        <ele>872.2</ele>
        <time>2022-07-21T08:08:45Z</time>
      </trkpt>
      <trkpt lat="47.3034160" lon="6.9418360">
        <ele>872.2</ele>
        <time>2022-07-21T08:08:46Z</time>
      </trkpt>
      <trkpt lat="47.3034150" lon="6.9418330">
        <ele>872.2</ele>
        <time>2022-07-21T08:08:47Z</time>
      </trkpt>
      <trkpt lat="47.3034140" lon="6.9418330">
        <ele>872.2</ele>
        <time>2022-07-21T08:08:48Z</time>
      </trkpt>
      <trkpt lat="47.3034120" lon="6.9418320">
        <ele>872.2</ele>
        <time>2022-07-21T08:08:49Z</time>
      </trkpt>
      <trkpt lat="47.3034100" lon="6.9418280">
        <ele>872.2</ele>
        <time>2022-07-21T08:08:50Z</time>
      </trkpt>
      <trkpt lat="47.3034090" lon="6.9418220">
        <ele>872.1</ele>
        <time>2022-07-21T08:08:51Z</time>
      </trkpt>
      <trkpt lat="47.3034090" lon="6.9418180">
        <ele>872.1</ele>
        <time>2022-07-21T08:08:52Z</time>
      </trkpt>
      <trkpt lat="47.3034100" lon="6.9418150">
        <ele>872.1</ele>
        <time>2022-07-21T08:08:53Z</time>
      </trkpt>
      <trkpt lat="47.3034100" lon="6.9418120">
        <ele>872.1</ele>
        <time>2022-07-21T08:08:54Z</time>
      </trkpt>
      <trkpt lat="47.3034110" lon="6.9418100">
        <ele>872.1</ele>
        <time>2022-07-21T08:08:55Z</time>
      </trkpt>
      <trkpt lat="47.3034110" lon="6.9418080">
        <ele>872.1</ele>
        <time>2022-07-21T08:08:56Z</time>
      </trkpt>
      <trkpt lat="47.3034160" lon="6.9417890">
        <ele>872.1</ele>
        <time>2022-07-21T08:09:01Z</time>
      </trkpt>
      <trkpt lat="47.3034170" lon="6.9417860">
        <ele>872.1</ele>
        <time>2022-07-21T08:09:02Z</time>
      </trkpt>
      <trkpt lat="47.3034190" lon="6.9417850">
        <ele>872.1</ele>
        <time>2022-07-21T08:09:03Z</time>
      </trkpt>
      <trkpt lat="47.3034200" lon="6.9417830">
        <ele>872.1</ele>
        <time>2022-07-21T08:09:04Z</time>
      </trkpt>
      <trkpt lat="47.3034210" lon="6.9417810">
        <ele>872.1</ele>
        <time>2022-07-21T08:09:05Z</time>
      </trkpt>
      <trkpt lat="47.3034210" lon="6.9417790">
        <ele>872.1</ele>
        <time>2022-07-21T08:09:06Z</time>
      </trkpt>
      <trkpt lat="47.3034220" lon="6.9417770">
        <ele>872.1</ele>
        <time>2022-07-21T08:09:07Z</time>
      </trkpt>
      <trkpt lat="47.3034220" lon="6.9417750">
        <ele>872.1</ele>
        <time>2022-07-21T08:09:08Z</time>
      </trkpt>
      <trkpt lat="47.3034230" lon="6.9417740">
        <ele>872.1</ele>
        <time>2022-07-21T08:09:09Z</time>
      </trkpt>
      <trkpt lat="47.3034230" lon="6.9417740">
        <ele>872.1</ele>
        <time>2022-07-21T08:09:10Z</time>
      </trkpt>
      <trkpt lat="47.3034230" lon="6.9417740">
        <ele>872.1</ele>
        <time>2022-07-21T08:09:11Z</time>
      </trkpt>
      <trkpt lat="47.3034240" lon="6.9417750">
        <ele>872.1</ele>
        <time>2022-07-21T08:09:12Z</time>
      </trkpt>
      <trkpt lat="47.3034240" lon="6.9417750">
        <ele>872.1</ele>
        <time>2022-07-21T08:09:13Z</time>
      </trkpt>
      <trkpt lat="47.3034240" lon="6.9417750">
        <ele>872.1</ele>
        <time>2022-07-21T08:09:14Z</time>
      </trkpt>
      <trkpt lat="47.3034240" lon="6.9417750">
        <ele>872.1</ele>
        <time>2022-07-21T08:09:15Z</time>
      </trkpt>
      <trkpt lat="47.3034250" lon="6.9417760">
        <ele>872.1</ele>
        <time>2022-07-21T08:09:16Z</time>
      </trkpt>
      <trkpt lat="47.3034270" lon="6.9417800">
        <ele>872.1</ele>
        <time>2022-07-21T08:09:17Z</time>
      </trkpt>
      <trkpt lat="47.3034300" lon="6.9417830">
        <ele>872.1</ele>
        <time>2022-07-21T08:09:18Z</time>
      </trkpt>
      <trkpt lat="47.3034330" lon="6.9417850">
        <ele>872.0</ele>
        <time>2022-07-21T08:09:19Z</time>
      </trkpt>
      <trkpt lat="47.3034380" lon="6.9417880">
        <ele>872.0</ele>
        <time>2022-07-21T08:09:20Z</time>
      </trkpt>
      <trkpt lat="47.3034430" lon="6.9417910">
        <ele>872.0</ele>
        <time>2022-07-21T08:09:21Z</time>
      </trkpt>
      <trkpt lat="47.3034470" lon="6.9417940">
        <ele>872.0</ele>
        <time>2022-07-21T08:09:22Z</time>
      </trkpt>
      <trkpt lat="47.3034480" lon="6.9417960">
        <ele>872.0</ele>
        <time>2022-07-21T08:09:23Z</time>
      </trkpt>
      <trkpt lat="47.3034460" lon="6.9417980">
        <ele>872.0</ele>
        <time>2022-07-21T08:09:24Z</time>
      </trkpt>
      <trkpt lat="47.3034450" lon="6.9417990">
        <ele>872.0</ele>
        <time>2022-07-21T08:09:25Z</time>
      </trkpt>
      <trkpt lat="47.3034460" lon="6.9417990">
        <ele>872.0</ele>
        <time>2022-07-21T08:09:26Z</time>
      </trkpt>
      <trkpt lat="47.3034460" lon="6.9417990">
        <ele>872.0</ele>
        <time>2022-07-21T08:09:27Z</time>
      </trkpt>
      <trkpt lat="47.3034460" lon="6.9417990">
        <ele>872.0</ele>
        <time>2022-07-21T08:09:28Z</time>
      </trkpt>
      <trkpt lat="47.3034470" lon="6.9417990">
        <ele>872.0</ele>
        <time>2022-07-21T08:09:29Z</time>
      </trkpt>
      <trkpt lat="47.3034470" lon="6.9418000">
        <ele>872.0</ele>
        <time>2022-07-21T08:09:30Z</time>
      </trkpt>
      <trkpt lat="47.3034480" lon="6.9418000">
        <ele>872.0</ele>
        <time>2022-07-21T08:09:31Z</time>
      </trkpt>
      <trkpt lat="47.3034490" lon="6.9418010">
        <ele>872.0</ele>
        <time>2022-07-21T08:09:32Z</time>
      </trkpt>
      <trkpt lat="47.3034620" lon="6.9418290">
        <ele>872.0</ele>
        <time>2022-07-21T08:09:43Z</time>
      </trkpt>
      <trkpt lat="47.3034620" lon="6.9418350">
        <ele>872.0</ele>
        <time>2022-07-21T08:09:44Z</time>
      </trkpt>
      <trkpt lat="47.3034630" lon="6.9418400">
        <ele>872.0</ele>
        <time>2022-07-21T08:09:45Z</time>
      </trkpt>
      <trkpt lat="47.3034640" lon="6.9418440">
        <ele>871.9</ele>
        <time>2022-07-21T08:09:46Z</time>
      </trkpt>
      <trkpt lat="47.3034650" lon="6.9418450">
        <ele>871.9</ele>
        <time>2022-07-21T08:09:47Z</time>
      </trkpt>
      <trkpt lat="47.3034660" lon="6.9418460">
        <ele>871.9</ele>
        <time>2022-07-21T08:09:48Z</time>
      </trkpt>
      <trkpt lat="47.3034660" lon="6.9418470">
        <ele>871.9</ele>
        <time>2022-07-21T08:09:49Z</time>
      </trkpt>
      <trkpt lat="47.3034650" lon="6.9418490">
        <ele>871.9</ele>
        <time>2022-07-21T08:09:50Z</time>
      </trkpt>
      <trkpt lat="47.3034630" lon="6.9418520">
        <ele>871.9</ele>
        <time>2022-07-21T08:09:51Z</time>
      </trkpt>
      <trkpt lat="47.3034600" lon="6.9418530">
        <ele>871.9</ele>
        <time>2022-07-21T08:09:52Z</time>
      </trkpt>
      <trkpt lat="47.3034590" lon="6.9418540">
        <ele>871.9</ele>
        <time>2022-07-21T08:09:53Z</time>
      </trkpt>
      <trkpt lat="47.3034580" lon="6.9418610">
        <ele>871.9</ele>
        <time>2022-07-21T08:09:54Z</time>
      </trkpt>
      <trkpt lat="47.3034570" lon="6.9418670">
        <ele>871.9</ele>
        <time>2022-07-21T08:09:55Z</time>
      </trkpt>
      <trkpt lat="47.3034560" lon="6.9418690">
        <ele>871.9</ele>
        <time>2022-07-21T08:09:56Z</time>
      </trkpt>
      <trkpt lat="47.3034540" lon="6.9418720">
        <ele>871.9</ele>
        <time>2022-07-21T08:09:57Z</time>
      </trkpt>
      <trkpt lat="47.3034530" lon="6.9418740">
        <ele>871.9</ele>
        <time>2022-07-21T08:09:58Z</time>
      </trkpt>
      <trkpt lat="47.3034530" lon="6.9418750">
        <ele>871.9</ele>
        <time>2022-07-21T08:09:59Z</time>
      </trkpt>
      <trkpt lat="47.3034520" lon="6.9418770">
        <ele>871.9</ele>
        <time>2022-07-21T08:10:00Z</time>
      </trkpt>
      <trkpt lat="47.3034510" lon="6.9418790">
        <ele>871.9</ele>
        <time>2022-07-21T08:10:01Z</time>
      </trkpt>
      <trkpt lat="47.3034510" lon="6.9418800">
        <ele>871.9</ele>
        <time>2022-07-21T08:10:02Z</time>
      </trkpt>
      <trkpt lat="47.3034500" lon="6.9418820">
        <ele>871.9</ele>
        <time>2022-07-21T08:10:03Z</time>
      </trkpt>
      <trkpt lat="47.3034490" lon="6.9418840">
        <ele>871.9</ele>
        <time>2022-07-21T08:10:04Z</time>
      </trkpt>
      <trkpt lat="47.3034490" lon="6.9418850">
        <ele>871.9</ele>
        <time>2022-07-21T08:10:05Z</time>
      </trkpt>
      <trkpt lat="47.3034480" lon="6.9418870">
        <ele>871.9</ele>
        <time>2022-07-21T08:10:06Z</time>
      </trkpt>
      <trkpt lat="47.3034470" lon="6.9418890">
        <ele>871.9</ele>
        <time>2022-07-21T08:10:07Z</time>
      </trkpt>
      <trkpt lat="47.3034470" lon="6.9418900">
        <ele>871.9</ele>
        <time>2022-07-21T08:10:08Z</time>
      </trkpt>
      <trkpt lat="47.3034460" lon="6.9418920">
        <ele>871.9</ele>
        <time>2022-07-21T08:10:09Z</time>
      </trkpt>
      <trkpt lat="47.3034450" lon="6.9418940">
        <ele>871.9</ele>
        <time>2022-07-21T08:10:10Z</time>
      </trkpt>
      <trkpt lat="47.3034440" lon="6.9418950">
        <ele>871.9</ele>
        <time>2022-07-21T08:10:11Z</time>
      </trkpt>
      <trkpt lat="47.3034440" lon="6.9418970">
        <ele>871.9</ele>
        <time>2022-07-21T08:10:12Z</time>
      </trkpt>
      <trkpt lat="47.3034430" lon="6.9418980">
        <ele>871.9</ele>
        <time>2022-07-21T08:10:13Z</time>
      </trkpt>
      <trkpt lat="47.3034420" lon="6.9419000">
        <ele>871.9</ele>
        <time>2022-07-21T08:10:14Z</time>
      </trkpt>
      <trkpt lat="47.3034420" lon="6.9419020">
        <ele>871.9</ele>
        <time>2022-07-21T08:10:15Z</time>
      </trkpt>
      <trkpt lat="47.3034410" lon="6.9419030">
        <ele>871.9</ele>
        <time>2022-07-21T08:10:16Z</time>
      </trkpt>
      <trkpt lat="47.3034400" lon="6.9419050">
        <ele>871.9</ele>
        <time>2022-07-21T08:10:17Z</time>
      </trkpt>
      <trkpt lat="47.3034400" lon="6.9419070">
        <ele>871.9</ele>
        <time>2022-07-21T08:10:18Z</time>
      </trkpt>
      <trkpt lat="47.3034390" lon="6.9419080">
        <ele>871.9</ele>
        <time>2022-07-21T08:10:19Z</time>
      </trkpt>
      <trkpt lat="47.3034380" lon="6.9419100">
        <ele>871.8</ele>
        <time>2022-07-21T08:10:20Z</time>
      </trkpt>
      <trkpt lat="47.3034380" lon="6.9419120">
        <ele>871.8</ele>
        <time>2022-07-21T08:11:33Z</time>
      </trkpt>
      <trkpt lat="47.3034370" lon="6.9419130">
        <ele>871.8</ele>
        <time>2022-07-21T08:11:34Z</time>
      </trkpt>
      <trkpt lat="47.3034360" lon="6.9419150">
        <ele>871.8</ele>
        <time>2022-07-21T08:11:35Z</time>
      </trkpt>
      <trkpt lat="47.3034350" lon="6.9419170">
        <ele>871.8</ele>
        <time>2022-07-21T08:11:36Z</time>
      </trkpt>
      <trkpt lat="47.3034350" lon="6.9419180">
        <ele>871.8</ele>
        <time>2022-07-21T08:11:37Z</time>
      </trkpt>
      <trkpt lat="47.3034340" lon="6.9419200">
        <ele>871.8</ele>
        <time>2022-07-21T08:11:38Z</time>
      </trkpt>
      <trkpt lat="47.3034330" lon="6.9419220">
        <ele>871.8</ele>
        <time>2022-07-21T08:11:39Z</time>
      </trkpt>
      <trkpt lat="47.3034330" lon="6.9419230">
        <ele>871.8</ele>
        <time>2022-07-21T08:11:40Z</time>
      </trkpt>
      <trkpt lat="47.3034320" lon="6.9419250">
        <ele>871.8</ele>
        <time>2022-07-21T08:11:41Z</time>
      </trkpt>
      <trkpt lat="47.3034310" lon="6.9419270">
        <ele>871.8</ele>
        <time>2022-07-21T08:11:42Z</time>
      </trkpt>
      <trkpt lat="47.3034310" lon="6.9419280">
        <ele>871.8</ele>
        <time>2022-07-21T08:11:43Z</time>
      </trkpt>
      <trkpt lat="47.3034300" lon="6.9419300">
        <ele>871.8</ele>
        <time>2022-07-21T08:11:44Z</time>
      </trkpt>
      <trkpt lat="47.3034290" lon="6.9419320">
        <ele>871.8</ele>
        <time>2022-07-21T08:11:45Z</time>
      </trkpt>
      <trkpt lat="47.3034280" lon="6.9419330">
        <ele>871.8</ele>
        <time>2022-07-21T08:11:46Z</time>
      </trkpt>
      <trkpt lat="47.3034280" lon="6.9419350">
        <ele>871.8</ele>
        <time>2022-07-21T08:11:47Z</time>
      </trkpt>
      <trkpt lat="47.3034270" lon="6.9419370">
        <ele>871.8</ele>
        <time>2022-07-21T08:11:48Z</time>
      </trkpt>
      <trkpt lat="47.3034260" lon="6.9419380">
        <ele>871.8</ele>
        <time>2022-07-21T08:11:49Z</time>
      </trkpt>
      <trkpt lat="47.3034260" lon="6.9419400">
        <ele>871.8</ele>
        <time>2022-07-21T08:11:50Z</time>
      </trkpt>
      <trkpt lat="47.3034250" lon="6.9419420">
        <ele>871.8</ele>
        <time>2022-07-21T08:12:02Z</time>
      </trkpt>
      <trkpt lat="47.3034240" lon="6.9419430">
        <ele>871.8</ele>
        <time>2022-07-21T08:12:03Z</time>
      </trkpt>
      <trkpt lat="47.3034240" lon="6.9419450">
        <ele>871.8</ele>
        <time>2022-07-21T08:12:04Z</time>
      </trkpt>
      <trkpt lat="47.3034230" lon="6.9419470">
        <ele>871.8</ele>
        <time>2022-07-21T08:12:05Z</time>
      </trkpt>
      <trkpt lat="47.3034310" lon="6.9419690">
        <ele>871.8</ele>
        <time>2022-07-21T08:12:06Z</time>
      </trkpt>
      <trkpt lat="47.3034250" lon="6.9419760">
        <ele>871.7</ele>
        <time>2022-07-21T08:12:07Z</time>
      </trkpt>
      <trkpt lat="47.3034340" lon="6.9420140">
        <ele>871.7</ele>
        <time>2022-07-21T08:12:09Z</time>
      </trkpt>
      <trkpt lat="47.3034470" lon="6.9420580">
        <ele>871.6</ele>
        <time>2022-07-21T08:12:10Z</time>
      </trkpt>
      <trkpt lat="47.3034570" lon="6.9421110">
        <ele>871.6</ele>
        <time>2022-07-21T08:12:11Z</time>
      </trkpt>
      <trkpt lat="47.3034600" lon="6.9421290">
        <ele>871.5</ele>
        <time>2022-07-21T08:12:12Z</time>
      </trkpt>
      <trkpt lat="47.3034620" lon="6.9421710">
        <ele>871.5</ele>
        <time>2022-07-21T08:12:13Z</time>
      </trkpt>
      <trkpt lat="47.3034620" lon="6.9422160">
        <ele>871.4</ele>
        <time>2022-07-21T08:12:14Z</time>
      </trkpt>
      <trkpt lat="47.3034630" lon="6.9422570">
        <ele>871.4</ele>
        <time>2022-07-21T08:12:15Z</time>
      </trkpt>
      <trkpt lat="47.3034660" lon="6.9423060">
        <ele>871.3</ele>
        <time>2022-07-21T08:12:16Z</time>
      </trkpt>
      <trkpt lat="47.3034670" lon="6.9423520">
        <ele>871.3</ele>
        <time>2022-07-21T08:12:17Z</time>
      </trkpt>
      <trkpt lat="47.3034680" lon="6.9424150">
        <ele>871.2</ele>
        <time>2022-07-21T08:12:19Z</time>
      </trkpt>
      <trkpt lat="47.3034700" lon="6.9424750">
        <ele>871.2</ele>
        <time>2022-07-21T08:12:20Z</time>
      </trkpt>
      <trkpt lat="47.3034740" lon="6.9425250">
        <ele>871.1</ele>
        <time>2022-07-21T08:12:21Z</time>
      </trkpt>
      <trkpt lat="47.3034800" lon="6.9425880">
        <ele>871.1</ele>
        <time>2022-07-21T08:12:22Z</time>
      </trkpt>
      <trkpt lat="47.3034860" lon="6.9426490">
        <ele>871.0</ele>
        <time>2022-07-21T08:12:24Z</time>
      </trkpt>
      <trkpt lat="47.3034900" lon="6.9426890">
        <ele>871.0</ele>
        <time>2022-07-21T08:12:25Z</time>
      </trkpt>
      <trkpt lat="47.3034940" lon="6.9427550">
        <ele>870.9</ele>
        <time>2022-07-21T08:12:26Z</time>
      </trkpt>
      <trkpt lat="47.3034940" lon="6.9427820">
        <ele>870.8</ele>
        <time>2022-07-21T08:12:27Z</time>
      </trkpt>
      <trkpt lat="47.3034950" lon="6.9428310">
        <ele>870.8</ele>
        <time>2022-07-21T08:12:28Z</time>
      </trkpt>
      <trkpt lat="47.3034990" lon="6.9428840">
        <ele>870.7</ele>
        <time>2022-07-21T08:12:30Z</time>
      </trkpt>
      <trkpt lat="47.3034990" lon="6.9429260">
        <ele>870.6</ele>
        <time>2022-07-21T08:12:31Z</time>
      </trkpt>
      <trkpt lat="47.3034980" lon="6.9429700">
        <ele>870.6</ele>
        <time>2022-07-21T08:12:32Z</time>
      </trkpt>
      <trkpt lat="47.3034980" lon="6.9430180">
        <ele>870.5</ele>
        <time>2022-07-21T08:12:33Z</time>
      </trkpt>
      <trkpt lat="47.3034990" lon="6.9430360">
        <ele>870.5</ele>
        <time>2022-07-21T08:12:34Z</time>
      </trkpt>
      <trkpt lat="47.3034950" lon="6.9430900">
        <ele>870.4</ele>
        <time>2022-07-21T08:12:35Z</time>
      </trkpt>
      <trkpt lat="47.3034930" lon="6.9431080">
        <ele>870.4</ele>
        <time>2022-07-21T08:12:36Z</time>
      </trkpt>
      <trkpt lat="47.3034910" lon="6.9431810">
        <ele>870.4</ele>
        <time>2022-07-21T08:12:37Z</time>
      </trkpt>
      <trkpt lat="47.3034900" lon="6.9432470">
        <ele>870.3</ele>
        <time>2022-07-21T08:12:38Z</time>
      </trkpt>
      <trkpt lat="47.3034900" lon="6.9433020">
        <ele>870.3</ele>
        <time>2022-07-21T08:12:39Z</time>
      </trkpt>
      <trkpt lat="47.3034900" lon="6.9433800">
        <ele>870.2</ele>
        <time>2022-07-21T08:12:41Z</time>
      </trkpt>
      <trkpt lat="47.3034890" lon="6.9434470">
        <ele>870.2</ele>
        <time>2022-07-21T08:12:42Z</time>
      </trkpt>
      <trkpt lat="47.3034880" lon="6.9434970">
        <ele>870.2</ele>
        <time>2022-07-21T08:12:43Z</time>
      </trkpt>
      <trkpt lat="47.3034850" lon="6.9435580">
        <ele>870.2</ele>
        <time>2022-07-21T08:12:45Z</time>
      </trkpt>
      <trkpt lat="47.3034830" lon="6.9436150">
        <ele>870.1</ele>
        <time>2022-07-21T08:12:46Z</time>
      </trkpt>
      <trkpt lat="47.3034800" lon="6.9436850">
        <ele>870.1</ele>
        <time>2022-07-21T08:12:47Z</time>
      </trkpt>
      <trkpt lat="47.3034770" lon="6.9437310">
        <ele>870.1</ele>
        <time>2022-07-21T08:12:48Z</time>
      </trkpt>
      <trkpt lat="47.3034790" lon="6.9437860">
        <ele>870.0</ele>
        <time>2022-07-21T08:12:50Z</time>
      </trkpt>
      <trkpt lat="47.3034790" lon="6.9438510">
        <ele>870.0</ele>
        <time>2022-07-21T08:12:51Z</time>
      </trkpt>
      <trkpt lat="47.3034720" lon="6.9439060">
        <ele>869.9</ele>
        <time>2022-07-21T08:12:52Z</time>
      </trkpt>
      <trkpt lat="47.3034520" lon="6.9439790">
        <ele>869.9</ele>
        <time>2022-07-21T08:12:54Z</time>
      </trkpt>
      <trkpt lat="47.3034310" lon="6.9440110">
        <ele>869.8</ele>
        <time>2022-07-21T08:12:55Z</time>
      </trkpt>
      <trkpt lat="47.3034060" lon="6.9440450">
        <ele>869.8</ele>
        <time>2022-07-21T08:12:56Z</time>
      </trkpt>
      <trkpt lat="47.3033770" lon="6.9440900">
        <ele>869.7</ele>
        <time>2022-07-21T08:12:57Z</time>
      </trkpt>
      <trkpt lat="47.3033660" lon="6.9441050">
        <ele>869.7</ele>
        <time>2022-07-21T08:12:58Z</time>
      </trkpt>
      <trkpt lat="47.3033250" lon="6.9441480">
        <ele>869.6</ele>
        <time>2022-07-21T08:13:00Z</time>
      </trkpt>
      <trkpt lat="47.3033110" lon="6.9441630">
        <ele>869.6</ele>
        <time>2022-07-21T08:13:01Z</time>
      </trkpt>
      <trkpt lat="47.3032970" lon="6.9441790">
        <ele>869.5</ele>
        <time>2022-07-21T08:13:02Z</time>
      </trkpt>
      <trkpt lat="47.3032670" lon="6.9442170">
        <ele>869.5</ele>
        <time>2022-07-21T08:13:03Z</time>
      </trkpt>
      <trkpt lat="47.3032550" lon="6.9442330">
        <ele>869.4</ele>
        <time>2022-07-21T08:13:04Z</time>
      </trkpt>
      <trkpt lat="47.3032360" lon="6.9442650">
        <ele>869.3</ele>
        <time>2022-07-21T08:13:05Z</time>
      </trkpt>
      <trkpt lat="47.3032140" lon="6.9442980">
        <ele>869.2</ele>
        <time>2022-07-21T08:13:06Z</time>
      </trkpt>
      <trkpt lat="47.3031920" lon="6.9443310">
        <ele>869.1</ele>
        <time>2022-07-21T08:13:07Z</time>
      </trkpt>
      <trkpt lat="47.3031750" lon="6.9443620">
        <ele>869.0</ele>
        <time>2022-07-21T08:13:08Z</time>
      </trkpt>
      <trkpt lat="47.3031530" lon="6.9444010">
        <ele>868.9</ele>
        <time>2022-07-21T08:13:09Z</time>
      </trkpt>
      <trkpt lat="47.3031310" lon="6.9444330">
        <ele>868.7</ele>
        <time>2022-07-21T08:13:10Z</time>
      </trkpt>
      <trkpt lat="47.3031080" lon="6.9444620">
        <ele>868.6</ele>
        <time>2022-07-21T08:13:11Z</time>
      </trkpt>
      <trkpt lat="47.3030730" lon="6.9445050">
        <ele>868.4</ele>
        <time>2022-07-21T08:13:12Z</time>
      </trkpt>
      <trkpt lat="47.3030580" lon="6.9445210">
        <ele>868.3</ele>
        <time>2022-07-21T08:13:13Z</time>
      </trkpt>
      <trkpt lat="47.3030310" lon="6.9445590">
        <ele>868.1</ele>
        <time>2022-07-21T08:13:14Z</time>
      </trkpt>
      <trkpt lat="47.3029970" lon="6.9446010">
        <ele>867.9</ele>
        <time>2022-07-21T08:13:16Z</time>
      </trkpt>
      <trkpt lat="47.3029700" lon="6.9446320">
        <ele>867.7</ele>
        <time>2022-07-21T08:13:17Z</time>
      </trkpt>
      <trkpt lat="47.3029450" lon="6.9446580">
        <ele>867.5</ele>
        <time>2022-07-21T08:13:18Z</time>
      </trkpt>
      <trkpt lat="47.3029010" lon="6.9447080">
        <ele>867.3</ele>
        <time>2022-07-21T08:13:19Z</time>
      </trkpt>
      <trkpt lat="47.3028340" lon="6.9447960">
        <ele>866.9</ele>
        <time>2022-07-21T08:13:21Z</time>
      </trkpt>
      <trkpt lat="47.3027930" lon="6.9448470">
        <ele>866.6</ele>
        <time>2022-07-21T08:13:22Z</time>
      </trkpt>
      <trkpt lat="47.3027550" lon="6.9448940">
        <ele>866.4</ele>
        <time>2022-07-21T08:13:23Z</time>
      </trkpt>
      <trkpt lat="47.3027070" lon="6.9449440">
        <ele>866.2</ele>
        <time>2022-07-21T08:13:24Z</time>
      </trkpt>
      <trkpt lat="47.3026670" lon="6.9449950">
        <ele>866.0</ele>
        <time>2022-07-21T08:13:25Z</time>
      </trkpt>
      <trkpt lat="47.3026280" lon="6.9450440">
        <ele>865.8</ele>
        <time>2022-07-21T08:13:26Z</time>
      </trkpt>
      <trkpt lat="47.3025860" lon="6.9450890">
        <ele>865.6</ele>
        <time>2022-07-21T08:13:27Z</time>
      </trkpt>
      <trkpt lat="47.3025500" lon="6.9451280">
        <ele>865.4</ele>
        <time>2022-07-21T08:13:28Z</time>
      </trkpt>
      <trkpt lat="47.3025120" lon="6.9451590">
        <ele>865.2</ele>
        <time>2022-07-21T08:13:29Z</time>
      </trkpt>
      <trkpt lat="47.3024730" lon="6.9451950">
        <ele>865.0</ele>
        <time>2022-07-21T08:13:30Z</time>
      </trkpt>
      <trkpt lat="47.3024370" lon="6.9452440">
        <ele>864.9</ele>
        <time>2022-07-21T08:13:31Z</time>
      </trkpt>
      <trkpt lat="47.3024030" lon="6.9452930">
        <ele>864.7</ele>
        <time>2022-07-21T08:13:32Z</time>
      </trkpt>
      <trkpt lat="47.3023710" lon="6.9453450">
        <ele>864.6</ele>
        <time>2022-07-21T08:13:33Z</time>
      </trkpt>
      <trkpt lat="47.3023390" lon="6.9453950">
        <ele>864.5</ele>
        <time>2022-07-21T08:13:34Z</time>
      </trkpt>
      <trkpt lat="47.3023060" lon="6.9454410">
        <ele>864.3</ele>
        <time>2022-07-21T08:13:35Z</time>
      </trkpt>
      <trkpt lat="47.3022730" lon="6.9454970">
        <ele>864.2</ele>
        <time>2022-07-21T08:13:36Z</time>
      </trkpt>
      <trkpt lat="47.3022400" lon="6.9455630">
        <ele>864.1</ele>
        <time>2022-07-21T08:13:37Z</time>
      </trkpt>
      <trkpt lat="47.3022110" lon="6.9456310">
        <ele>864.0</ele>
        <time>2022-07-21T08:13:38Z</time>
      </trkpt>
      <trkpt lat="47.3021800" lon="6.9457000">
        <ele>863.9</ele>
        <time>2022-07-21T08:13:39Z</time>
      </trkpt>
      <trkpt lat="47.3021500" lon="6.9457670">
        <ele>863.8</ele>
        <time>2022-07-21T08:13:40Z</time>
      </trkpt>
      <trkpt lat="47.3021320" lon="6.9458260">
        <ele>863.7</ele>
        <time>2022-07-21T08:13:41Z</time>
      </trkpt>
      <trkpt lat="47.3021290" lon="6.9458750">
        <ele>863.7</ele>
        <time>2022-07-21T08:13:42Z</time>
      </trkpt>
      <trkpt lat="47.3021030" lon="6.9459450">
        <ele>863.5</ele>
        <time>2022-07-21T08:13:43Z</time>
      </trkpt>
      <trkpt lat="47.3020790" lon="6.9459910">
        <ele>863.5</ele>
        <time>2022-07-21T08:13:44Z</time>
      </trkpt>
      <trkpt lat="47.3020520" lon="6.9460550">
        <ele>863.4</ele>
        <time>2022-07-21T08:13:45Z</time>
      </trkpt>
      <trkpt lat="47.3020360" lon="6.9460980">
        <ele>863.3</ele>
        <time>2022-07-21T08:13:46Z</time>
      </trkpt>
      <trkpt lat="47.3020170" lon="6.9461390">
        <ele>863.2</ele>
        <time>2022-07-21T08:13:47Z</time>
      </trkpt>
      <trkpt lat="47.3020090" lon="6.9461420">
        <ele>863.2</ele>
        <time>2022-07-21T08:13:48Z</time>
      </trkpt>
      <trkpt lat="47.3019900" lon="6.9462040">
        <ele>863.1</ele>
        <time>2022-07-21T08:13:50Z</time>
      </trkpt>
      <trkpt lat="47.3019690" lon="6.9462780">
        <ele>862.9</ele>
        <time>2022-07-21T08:13:51Z</time>
      </trkpt>
      <trkpt lat="47.3019520" lon="6.9463770">
        <ele>862.7</ele>
        <time>2022-07-21T08:13:52Z</time>
      </trkpt>
      <trkpt lat="47.3019410" lon="6.9464560">
        <ele>862.4</ele>
        <time>2022-07-21T08:13:53Z</time>
      </trkpt>
      <trkpt lat="47.3019330" lon="6.9465250">
        <ele>862.2</ele>
        <time>2022-07-21T08:13:55Z</time>
      </trkpt>
      <trkpt lat="47.3019250" lon="6.9465900">
        <ele>862.0</ele>
        <time>2022-07-21T08:13:56Z</time>
      </trkpt>
      <trkpt lat="47.3019130" lon="6.9466970">
        <ele>861.6</ele>
        <time>2022-07-21T08:13:57Z</time>
      </trkpt>
      <trkpt lat="47.3019080" lon="6.9467760">
        <ele>861.3</ele>
        <time>2022-07-21T08:13:58Z</time>
      </trkpt>
      <trkpt lat="47.3019030" lon="6.9468450">
        <ele>861.0</ele>
        <time>2022-07-21T08:13:59Z</time>
      </trkpt>
      <trkpt lat="47.3018890" lon="6.9469070">
        <ele>860.8</ele>
        <time>2022-07-21T08:14:00Z</time>
      </trkpt>
      <trkpt lat="47.3018790" lon="6.9469540">
        <ele>860.6</ele>
        <time>2022-07-21T08:14:01Z</time>
      </trkpt>
      <trkpt lat="47.3018660" lon="6.9470120">
        <ele>860.4</ele>
        <time>2022-07-21T08:14:02Z</time>
      </trkpt>
      <trkpt lat="47.3018560" lon="6.9470930">
        <ele>860.2</ele>
        <time>2022-07-21T08:14:03Z</time>
      </trkpt>
      <trkpt lat="47.3018480" lon="6.9471790">
        <ele>859.9</ele>
        <time>2022-07-21T08:14:04Z</time>
      </trkpt>
      <trkpt lat="47.3018320" lon="6.9472580">
        <ele>859.7</ele>
        <time>2022-07-21T08:14:05Z</time>
      </trkpt>
      <trkpt lat="47.3018100" lon="6.9473390">
        <ele>859.6</ele>
        <time>2022-07-21T08:14:06Z</time>
      </trkpt>
      <trkpt lat="47.3017950" lon="6.9474000">
        <ele>859.4</ele>
        <time>2022-07-21T08:14:07Z</time>
      </trkpt>
      <trkpt lat="47.3017820" lon="6.9474540">
        <ele>859.3</ele>
        <time>2022-07-21T08:14:08Z</time>
      </trkpt>
      <trkpt lat="47.3017770" lon="6.9474790">
        <ele>859.3</ele>
        <time>2022-07-21T08:14:09Z</time>
      </trkpt>
      <trkpt lat="47.3017740" lon="6.9475280">
        <ele>859.2</ele>
        <time>2022-07-21T08:14:10Z</time>
      </trkpt>
      <trkpt lat="47.3017940" lon="6.9475690">
        <ele>859.1</ele>
        <time>2022-07-21T08:14:11Z</time>
      </trkpt>
      <trkpt lat="47.3018150" lon="6.9476050">
        <ele>859.1</ele>
        <time>2022-07-21T08:14:12Z</time>
      </trkpt>
      <trkpt lat="47.3018410" lon="6.9476320">
        <ele>859.0</ele>
        <time>2022-07-21T08:14:13Z</time>
      </trkpt>
      <trkpt lat="47.3018700" lon="6.9476720">
        <ele>858.9</ele>
        <time>2022-07-21T08:14:14Z</time>
      </trkpt>
      <trkpt lat="47.3018990" lon="6.9477180">
        <ele>858.9</ele>
        <time>2022-07-21T08:14:15Z</time>
      </trkpt>
      <trkpt lat="47.3019280" lon="6.9477730">
        <ele>858.8</ele>
        <time>2022-07-21T08:14:16Z</time>
      </trkpt>
      <trkpt lat="47.3019510" lon="6.9478060">
        <ele>858.8</ele>
        <time>2022-07-21T08:14:17Z</time>
      </trkpt>
      <trkpt lat="47.3019750" lon="6.9478360">
        <ele>858.8</ele>
        <time>2022-07-21T08:14:18Z</time>
      </trkpt>
      <trkpt lat="47.3020070" lon="6.9478540">
        <ele>858.7</ele>
        <time>2022-07-21T08:14:19Z</time>
      </trkpt>
      <trkpt lat="47.3020160" lon="6.9478570">
        <ele>858.7</ele>
        <time>2022-07-21T08:14:20Z</time>
      </trkpt>
      <trkpt lat="47.3020450" lon="6.9478370">
        <ele>858.7</ele>
        <time>2022-07-21T08:14:21Z</time>
      </trkpt>
      <trkpt lat="47.3020540" lon="6.9478290">
        <ele>858.7</ele>
        <time>2022-07-21T08:14:22Z</time>
      </trkpt>
      <trkpt lat="47.3020850" lon="6.9478110">
        <ele>858.7</ele>
        <time>2022-07-21T08:14:23Z</time>
      </trkpt>
      <trkpt lat="47.3020950" lon="6.9478090">
        <ele>858.7</ele>
        <time>2022-07-21T08:14:24Z</time>
      </trkpt>
      <trkpt lat="47.3021370" lon="6.9478180">
        <ele>858.7</ele>
        <time>2022-07-21T08:14:25Z</time>
      </trkpt>
      <trkpt lat="47.3021510" lon="6.9478250">
        <ele>858.7</ele>
        <time>2022-07-21T08:14:26Z</time>
      </trkpt>
      <trkpt lat="47.3021880" lon="6.9478520">
        <ele>858.7</ele>
        <time>2022-07-21T08:14:27Z</time>
      </trkpt>
      <trkpt lat="47.3022210" lon="6.9478810">
        <ele>858.6</ele>
        <time>2022-07-21T08:14:28Z</time>
      </trkpt>
      <trkpt lat="47.3022600" lon="6.9479100">
        <ele>858.6</ele>
        <time>2022-07-21T08:14:29Z</time>
      </trkpt>
      <trkpt lat="47.3022760" lon="6.9479220">
        <ele>858.6</ele>
        <time>2022-07-21T08:14:30Z</time>
      </trkpt>
      <trkpt lat="47.3023070" lon="6.9479560">
        <ele>858.5</ele>
        <time>2022-07-21T08:14:31Z</time>
      </trkpt>
      <trkpt lat="47.3023390" lon="6.9479990">
        <ele>858.4</ele>
        <time>2022-07-21T08:14:32Z</time>
      </trkpt>
      <trkpt lat="47.3023640" lon="6.9480490">
        <ele>858.4</ele>
        <time>2022-07-21T08:14:33Z</time>
      </trkpt>
      <trkpt lat="47.3023880" lon="6.9481010">
        <ele>858.3</ele>
        <time>2022-07-21T08:14:34Z</time>
      </trkpt>
      <trkpt lat="47.3024120" lon="6.9481520">
        <ele>858.2</ele>
        <time>2022-07-21T08:14:35Z</time>
      </trkpt>
      <trkpt lat="47.3024350" lon="6.9482030">
        <ele>858.1</ele>
        <time>2022-07-21T08:14:36Z</time>
      </trkpt>
      <trkpt lat="47.3024520" lon="6.9482460">
        <ele>858.0</ele>
        <time>2022-07-21T08:14:37Z</time>
      </trkpt>
      <trkpt lat="47.3024720" lon="6.9483110">
        <ele>857.9</ele>
        <time>2022-07-21T08:14:38Z</time>
      </trkpt>
      <trkpt lat="47.3025000" lon="6.9483730">
        <ele>857.7</ele>
        <time>2022-07-21T08:14:39Z</time>
      </trkpt>
      <trkpt lat="47.3025380" lon="6.9484210">
        <ele>857.6</ele>
        <time>2022-07-21T08:14:40Z</time>
      </trkpt>
      <trkpt lat="47.3025580" lon="6.9484580">
        <ele>857.5</ele>
        <time>2022-07-21T08:14:41Z</time>
      </trkpt>
      <trkpt lat="47.3025740" lon="6.9485020">
        <ele>857.4</ele>
        <time>2022-07-21T08:14:42Z</time>
      </trkpt>
      <trkpt lat="47.3025980" lon="6.9485510">
        <ele>857.3</ele>
        <time>2022-07-21T08:14:43Z</time>
      </trkpt>
      <trkpt lat="47.3026140" lon="6.9485960">
        <ele>857.1</ele>
        <time>2022-07-21T08:14:44Z</time>
      </trkpt>
      <trkpt lat="47.3026330" lon="6.9486440">
        <ele>857.0</ele>
        <time>2022-07-21T08:14:45Z</time>
      </trkpt>
      <trkpt lat="47.3026460" lon="6.9486930">
        <ele>856.9</ele>
        <time>2022-07-21T08:14:46Z</time>
      </trkpt>
      <trkpt lat="47.3026680" lon="6.9487680">
        <ele>856.7</ele>
        <time>2022-07-21T08:14:47Z</time>
      </trkpt>
      <trkpt lat="47.3026850" lon="6.9488570">
        <ele>856.5</ele>
        <time>2022-07-21T08:14:48Z</time>
      </trkpt>
      <trkpt lat="47.3027050" lon="6.9489480">
        <ele>856.2</ele>
        <time>2022-07-21T08:14:49Z</time>
      </trkpt>
      <trkpt lat="47.3027300" lon="6.9490220">
        <ele>856.0</ele>
        <time>2022-07-21T08:14:50Z</time>
      </trkpt>
      <trkpt lat="47.3027530" lon="6.9490940">
        <ele>855.8</ele>
        <time>2022-07-21T08:14:51Z</time>
      </trkpt>
      <trkpt lat="47.3027760" lon="6.9491660">
        <ele>855.6</ele>
        <time>2022-07-21T08:14:52Z</time>
      </trkpt>
      <trkpt lat="47.3027910" lon="6.9492330">
        <ele>855.4</ele>
        <time>2022-07-21T08:14:53Z</time>
      </trkpt>
      <trkpt lat="47.3028100" lon="6.9493100">
        <ele>855.2</ele>
        <time>2022-07-21T08:14:54Z</time>
      </trkpt>
      <trkpt lat="47.3028260" lon="6.9493810">
        <ele>855.0</ele>
        <time>2022-07-21T08:14:55Z</time>
      </trkpt>
      <trkpt lat="47.3028470" lon="6.9494600">
        <ele>854.8</ele>
        <time>2022-07-21T08:14:56Z</time>
      </trkpt>
      <trkpt lat="47.3028720" lon="6.9495420">
        <ele>854.6</ele>
        <time>2022-07-21T08:14:57Z</time>
      </trkpt>
      <trkpt lat="47.3028970" lon="6.9496080">
        <ele>854.4</ele>
        <time>2022-07-21T08:14:58Z</time>
      </trkpt>
      <trkpt lat="47.3029220" lon="6.9496870">
        <ele>854.2</ele>
        <time>2022-07-21T08:14:59Z</time>
      </trkpt>
      <trkpt lat="47.3029500" lon="6.9497900">
        <ele>853.9</ele>
        <time>2022-07-21T08:15:00Z</time>
      </trkpt>
      <trkpt lat="47.3029740" lon="6.9498800">
        <ele>853.6</ele>
        <time>2022-07-21T08:15:01Z</time>
      </trkpt>
      <trkpt lat="47.3029940" lon="6.9499560">
        <ele>853.4</ele>
        <time>2022-07-21T08:15:02Z</time>
      </trkpt>
      <trkpt lat="47.3030170" lon="6.9500420">
        <ele>853.2</ele>
        <time>2022-07-21T08:15:03Z</time>
      </trkpt>
      <trkpt lat="47.3030390" lon="6.9501210">
        <ele>852.9</ele>
        <time>2022-07-21T08:15:04Z</time>
      </trkpt>
      <trkpt lat="47.3030670" lon="6.9501910">
        <ele>852.7</ele>
        <time>2022-07-21T08:15:05Z</time>
      </trkpt>
      <trkpt lat="47.3030980" lon="6.9502630">
        <ele>852.5</ele>
        <time>2022-07-21T08:15:06Z</time>
      </trkpt>
      <trkpt lat="47.3031350" lon="6.9503360">
        <ele>852.2</ele>
        <time>2022-07-21T08:15:07Z</time>
      </trkpt>
      <trkpt lat="47.3031710" lon="6.9504140">
        <ele>852.0</ele>
        <time>2022-07-21T08:15:08Z</time>
      </trkpt>
      <trkpt lat="47.3031990" lon="6.9504890">
        <ele>851.7</ele>
        <time>2022-07-21T08:15:09Z</time>
      </trkpt>
      <trkpt lat="47.3032270" lon="6.9505680">
        <ele>851.5</ele>
        <time>2022-07-21T08:15:10Z</time>
      </trkpt>
      <trkpt lat="47.3032600" lon="6.9506510">
        <ele>851.2</ele>
        <time>2022-07-21T08:15:11Z</time>
      </trkpt>
      <trkpt lat="47.3032920" lon="6.9507330">
        <ele>851.0</ele>
        <time>2022-07-21T08:15:12Z</time>
      </trkpt>
      <trkpt lat="47.3033240" lon="6.9508280">
        <ele>850.7</ele>
        <time>2022-07-21T08:15:13Z</time>
      </trkpt>
      <trkpt lat="47.3033560" lon="6.9509210">
        <ele>850.5</ele>
        <time>2022-07-21T08:15:14Z</time>
      </trkpt>
      <trkpt lat="47.3033910" lon="6.9510110">
        <ele>850.2</ele>
        <time>2022-07-21T08:15:15Z</time>
      </trkpt>
      <trkpt lat="47.3034220" lon="6.9511070">
        <ele>849.9</ele>
        <time>2022-07-21T08:15:16Z</time>
      </trkpt>
      <trkpt lat="47.3034530" lon="6.9511970">
        <ele>849.6</ele>
        <time>2022-07-21T08:15:17Z</time>
      </trkpt>
      <trkpt lat="47.3034880" lon="6.9512880">
        <ele>849.3</ele>
        <time>2022-07-21T08:15:18Z</time>
      </trkpt>
      <trkpt lat="47.3035220" lon="6.9513770">
        <ele>849.0</ele>
        <time>2022-07-21T08:15:19Z</time>
      </trkpt>
      <trkpt lat="47.3035550" lon="6.9514700">
        <ele>848.7</ele>
        <time>2022-07-21T08:15:20Z</time>
      </trkpt>
      <trkpt lat="47.3035900" lon="6.9515540">
        <ele>848.4</ele>
        <time>2022-07-21T08:15:21Z</time>
      </trkpt>
      <trkpt lat="47.3036270" lon="6.9516410">
        <ele>848.2</ele>
        <time>2022-07-21T08:15:22Z</time>
      </trkpt>
      <trkpt lat="47.3036650" lon="6.9517180">
        <ele>847.9</ele>
        <time>2022-07-21T08:15:23Z</time>
      </trkpt>
      <trkpt lat="47.3036990" lon="6.9517840">
        <ele>847.7</ele>
        <time>2022-07-21T08:15:24Z</time>
      </trkpt>
      <trkpt lat="47.3037330" lon="6.9518470">
        <ele>847.5</ele>
        <time>2022-07-21T08:15:25Z</time>
      </trkpt>
      <trkpt lat="47.3037660" lon="6.9519090">
        <ele>847.3</ele>
        <time>2022-07-21T08:15:26Z</time>
      </trkpt>
      <trkpt lat="47.3038010" lon="6.9519730">
        <ele>847.0</ele>
        <time>2022-07-21T08:15:27Z</time>
      </trkpt>
      <trkpt lat="47.3038290" lon="6.9520400">
        <ele>846.7</ele>
        <time>2022-07-21T08:15:28Z</time>
      </trkpt>
      <trkpt lat="47.3038510" lon="6.9521100">
        <ele>846.4</ele>
        <time>2022-07-21T08:15:29Z</time>
      </trkpt>
      <trkpt lat="47.3038740" lon="6.9521940">
        <ele>845.9</ele>
        <time>2022-07-21T08:15:30Z</time>
      </trkpt>
      <trkpt lat="47.3039020" lon="6.9522950">
        <ele>845.4</ele>
        <time>2022-07-21T08:15:31Z</time>
      </trkpt>
      <trkpt lat="47.3039390" lon="6.9523790">
        <ele>844.9</ele>
        <time>2022-07-21T08:15:32Z</time>
      </trkpt>
      <trkpt lat="47.3039740" lon="6.9524680">
        <ele>844.4</ele>
        <time>2022-07-21T08:15:33Z</time>
      </trkpt>
      <trkpt lat="47.3040110" lon="6.9525590">
        <ele>843.9</ele>
        <time>2022-07-21T08:15:34Z</time>
      </trkpt>
      <trkpt lat="47.3040440" lon="6.9526450">
        <ele>843.4</ele>
        <time>2022-07-21T08:15:35Z</time>
      </trkpt>
      <trkpt lat="47.3040680" lon="6.9527270">
        <ele>843.0</ele>
        <time>2022-07-21T08:15:36Z</time>
      </trkpt>
      <trkpt lat="47.3041010" lon="6.9527960">
        <ele>842.6</ele>
        <time>2022-07-21T08:15:37Z</time>
      </trkpt>
      <trkpt lat="47.3041380" lon="6.9528670">
        <ele>842.1</ele>
        <time>2022-07-21T08:15:38Z</time>
      </trkpt>
      <trkpt lat="47.3041730" lon="6.9529220">
        <ele>841.7</ele>
        <time>2022-07-21T08:15:39Z</time>
      </trkpt>
      <trkpt lat="47.3041970" lon="6.9529480">
        <ele>841.4</ele>
        <time>2022-07-21T08:15:40Z</time>
      </trkpt>
      <trkpt lat="47.3042360" lon="6.9529860">
        <ele>841.0</ele>
        <time>2022-07-21T08:15:41Z</time>
      </trkpt>
      <trkpt lat="47.3042530" lon="6.9530040">
        <ele>840.8</ele>
        <time>2022-07-21T08:15:42Z</time>
      </trkpt>
      <trkpt lat="47.3042850" lon="6.9530340">
        <ele>840.4</ele>
        <time>2022-07-21T08:15:43Z</time>
      </trkpt>
      <trkpt lat="47.3043140" lon="6.9530680">
        <ele>840.0</ele>
        <time>2022-07-21T08:15:44Z</time>
      </trkpt>
      <trkpt lat="47.3043490" lon="6.9530960">
        <ele>839.6</ele>
        <time>2022-07-21T08:15:45Z</time>
      </trkpt>
      <trkpt lat="47.3043880" lon="6.9531270">
        <ele>839.1</ele>
        <time>2022-07-21T08:15:46Z</time>
      </trkpt>
      <trkpt lat="47.3044040" lon="6.9531390">
        <ele>838.9</ele>
        <time>2022-07-21T08:15:47Z</time>
      </trkpt>
      <trkpt lat="47.3044370" lon="6.9531610">
        <ele>838.5</ele>
        <time>2022-07-21T08:15:48Z</time>
      </trkpt>
      <trkpt lat="47.3044460" lon="6.9531670">
        <ele>838.4</ele>
        <time>2022-07-21T08:15:49Z</time>
      </trkpt>
      <trkpt lat="47.3044740" lon="6.9531790">
        <ele>838.0</ele>
        <time>2022-07-21T08:15:50Z</time>
      </trkpt>
      <trkpt lat="47.3045090" lon="6.9532080">
        <ele>837.6</ele>
        <time>2022-07-21T08:15:51Z</time>
      </trkpt>
      <trkpt lat="47.3045610" lon="6.9532500">
        <ele>836.9</ele>
        <time>2022-07-21T08:15:52Z</time>
      </trkpt>
      <trkpt lat="47.3046200" lon="6.9532920">
        <ele>836.2</ele>
        <time>2022-07-21T08:15:53Z</time>
      </trkpt>
      <trkpt lat="47.3046760" lon="6.9533230">
        <ele>835.6</ele>
        <time>2022-07-21T08:15:54Z</time>
      </trkpt>
      <trkpt lat="47.3047300" lon="6.9533560">
        <ele>834.9</ele>
        <time>2022-07-21T08:15:55Z</time>
      </trkpt>
      <trkpt lat="47.3047760" lon="6.9533850">
        <ele>834.3</ele>
        <time>2022-07-21T08:15:56Z</time>
      </trkpt>
      <trkpt lat="47.3048190" lon="6.9534090">
        <ele>833.7</ele>
        <time>2022-07-21T08:15:57Z</time>
      </trkpt>
      <trkpt lat="47.3048570" lon="6.9534340">
        <ele>833.2</ele>
        <time>2022-07-21T08:15:58Z</time>
      </trkpt>
      <trkpt lat="47.3048880" lon="6.9534580">
        <ele>832.7</ele>
        <time>2022-07-21T08:15:59Z</time>
      </trkpt>
      <trkpt lat="47.3048980" lon="6.9534650">
        <ele>832.6</ele>
        <time>2022-07-21T08:16:00Z</time>
      </trkpt>
      <trkpt lat="47.3049240" lon="6.9534810">
        <ele>832.2</ele>
        <time>2022-07-21T08:16:01Z</time>
      </trkpt>
      <trkpt lat="47.3049340" lon="6.9534850">
        <ele>832.1</ele>
        <time>2022-07-21T08:16:02Z</time>
      </trkpt>
      <trkpt lat="47.3049600" lon="6.9535060">
        <ele>831.7</ele>
        <time>2022-07-21T08:16:03Z</time>
      </trkpt>
      <trkpt lat="47.3049680" lon="6.9535170">
        <ele>831.5</ele>
        <time>2022-07-21T08:16:04Z</time>
      </trkpt>
      <trkpt lat="47.3050060" lon="6.9535440">
        <ele>831.0</ele>
        <time>2022-07-21T08:16:05Z</time>
      </trkpt>
      <trkpt lat="47.3050530" lon="6.9535750">
        <ele>830.3</ele>
        <time>2022-07-21T08:16:06Z</time>
      </trkpt>
      <trkpt lat="47.3050980" lon="6.9536170">
        <ele>829.5</ele>
        <time>2022-07-21T08:16:07Z</time>
      </trkpt>
      <trkpt lat="47.3051410" lon="6.9536670">
        <ele>828.8</ele>
        <time>2022-07-21T08:16:08Z</time>
      </trkpt>
      <trkpt lat="47.3051700" lon="6.9537180">
        <ele>828.2</ele>
        <time>2022-07-21T08:16:09Z</time>
      </trkpt>
      <trkpt lat="47.3051780" lon="6.9537430">
        <ele>828.0</ele>
        <time>2022-07-21T08:16:10Z</time>
      </trkpt>
      <trkpt lat="47.3051830" lon="6.9537600">
        <ele>827.8</ele>
        <time>2022-07-21T08:16:11Z</time>
      </trkpt>
      <trkpt lat="47.3051930" lon="6.9537990">
        <ele>827.4</ele>
        <time>2022-07-21T08:16:12Z</time>
      </trkpt>
      <trkpt lat="47.3052060" lon="6.9538450">
        <ele>827.0</ele>
        <time>2022-07-21T08:16:13Z</time>
      </trkpt>
      <trkpt lat="47.3052190" lon="6.9538920">
        <ele>826.6</ele>
        <time>2022-07-21T08:16:14Z</time>
      </trkpt>
      <trkpt lat="47.3052260" lon="6.9539310">
        <ele>826.3</ele>
        <time>2022-07-21T08:16:15Z</time>
      </trkpt>
      <trkpt lat="47.3052250" lon="6.9539830">
        <ele>825.8</ele>
        <time>2022-07-21T08:16:16Z</time>
      </trkpt>
      <trkpt lat="47.3052260" lon="6.9540030">
        <ele>825.7</ele>
        <time>2022-07-21T08:16:17Z</time>
      </trkpt>
      <trkpt lat="47.3052340" lon="6.9540500">
        <ele>825.3</ele>
        <time>2022-07-21T08:16:18Z</time>
      </trkpt>
      <trkpt lat="47.3052380" lon="6.9540990">
        <ele>825.0</ele>
        <time>2022-07-21T08:16:19Z</time>
      </trkpt>
      <trkpt lat="47.3052380" lon="6.9541440">
        <ele>824.7</ele>
        <time>2022-07-21T08:16:20Z</time>
      </trkpt>
      <trkpt lat="47.3052440" lon="6.9542180">
        <ele>824.2</ele>
        <time>2022-07-21T08:16:21Z</time>
      </trkpt>
      <trkpt lat="47.3052500" lon="6.9543070">
        <ele>823.7</ele>
        <time>2022-07-21T08:16:22Z</time>
      </trkpt>
      <trkpt lat="47.3052530" lon="6.9543830">
        <ele>823.4</ele>
        <time>2022-07-21T08:16:23Z</time>
      </trkpt>
      <trkpt lat="47.3052500" lon="6.9544570">
        <ele>823.1</ele>
        <time>2022-07-21T08:16:24Z</time>
      </trkpt>
      <trkpt lat="47.3052460" lon="6.9545290">
        <ele>822.8</ele>
        <time>2022-07-21T08:16:25Z</time>
      </trkpt>
      <trkpt lat="47.3052410" lon="6.9545960">
        <ele>822.7</ele>
        <time>2022-07-21T08:16:26Z</time>
      </trkpt>
      <trkpt lat="47.3052370" lon="6.9546420">
        <ele>822.6</ele>
        <time>2022-07-21T08:16:27Z</time>
      </trkpt>
      <trkpt lat="47.3052240" lon="6.9547080">
        <ele>822.5</ele>
        <time>2022-07-21T08:16:28Z</time>
      </trkpt>
      <trkpt lat="47.3052120" lon="6.9547550">
        <ele>822.4</ele>
        <time>2022-07-21T08:16:29Z</time>
      </trkpt>
      <trkpt lat="47.3052030" lon="6.9548230">
        <ele>822.3</ele>
        <time>2022-07-21T08:16:30Z</time>
      </trkpt>
      <trkpt lat="47.3051910" lon="6.9548870">
        <ele>822.2</ele>
        <time>2022-07-21T08:16:31Z</time>
      </trkpt>
      <trkpt lat="47.3051820" lon="6.9549380">
        <ele>822.2</ele>
        <time>2022-07-21T08:16:32Z</time>
      </trkpt>
      <trkpt lat="47.3051780" lon="6.9550040">
        <ele>822.1</ele>
        <time>2022-07-21T08:16:33Z</time>
      </trkpt>
      <trkpt lat="47.3051670" lon="6.9550600">
        <ele>822.1</ele>
        <time>2022-07-21T08:16:34Z</time>
      </trkpt>
      <trkpt lat="47.3051560" lon="6.9551150">
        <ele>822.0</ele>
        <time>2022-07-21T08:16:35Z</time>
      </trkpt>
      <trkpt lat="47.3051500" lon="6.9551670">
        <ele>822.0</ele>
        <time>2022-07-21T08:16:36Z</time>
      </trkpt>
      <trkpt lat="47.3051460" lon="6.9552200">
        <ele>822.0</ele>
        <time>2022-07-21T08:16:37Z</time>
      </trkpt>
      <trkpt lat="47.3051420" lon="6.9552710">
        <ele>821.9</ele>
        <time>2022-07-21T08:16:38Z</time>
      </trkpt>
      <trkpt lat="47.3051370" lon="6.9553250">
        <ele>821.9</ele>
        <time>2022-07-21T08:16:39Z</time>
      </trkpt>
      <trkpt lat="47.3051320" lon="6.9553680">
        <ele>821.9</ele>
        <time>2022-07-21T08:16:40Z</time>
      </trkpt>
      <trkpt lat="47.3051250" lon="6.9554090">
        <ele>821.8</ele>
        <time>2022-07-21T08:16:41Z</time>
      </trkpt>
      <trkpt lat="47.3051160" lon="6.9554640">
        <ele>821.8</ele>
        <time>2022-07-21T08:16:42Z</time>
      </trkpt>
      <trkpt lat="47.3051100" lon="6.9555160">
        <ele>821.7</ele>
        <time>2022-07-21T08:16:43Z</time>
      </trkpt>
      <trkpt lat="47.3051060" lon="6.9555800">
        <ele>821.7</ele>
        <time>2022-07-21T08:16:44Z</time>
      </trkpt>
      <trkpt lat="47.3051050" lon="6.9556430">
        <ele>821.6</ele>
        <time>2022-07-21T08:16:45Z</time>
      </trkpt>
      <trkpt lat="47.3051000" lon="6.9557180">
        <ele>821.5</ele>
        <time>2022-07-21T08:16:46Z</time>
      </trkpt>
      <trkpt lat="47.3050920" lon="6.9558000">
        <ele>821.2</ele>
        <time>2022-07-21T08:16:47Z</time>
      </trkpt>
      <trkpt lat="47.3050890" lon="6.9558840">
        <ele>820.8</ele>
        <time>2022-07-21T08:16:48Z</time>
      </trkpt>
      <trkpt lat="47.3050890" lon="6.9559650">
        <ele>820.5</ele>
        <time>2022-07-21T08:16:49Z</time>
      </trkpt>
      <trkpt lat="47.3050950" lon="6.9560380">
        <ele>820.2</ele>
        <time>2022-07-21T08:16:50Z</time>
      </trkpt>
      <trkpt lat="47.3051000" lon="6.9561170">
        <ele>819.9</ele>
        <time>2022-07-21T08:16:51Z</time>
      </trkpt>
      <trkpt lat="47.3051180" lon="6.9561970">
        <ele>819.7</ele>
        <time>2022-07-21T08:16:52Z</time>
      </trkpt>
      <trkpt lat="47.3051360" lon="6.9562750">
        <ele>819.5</ele>
        <time>2022-07-21T08:16:53Z</time>
      </trkpt>
      <trkpt lat="47.3051560" lon="6.9563460">
        <ele>819.3</ele>
        <time>2022-07-21T08:16:54Z</time>
      </trkpt>
      <trkpt lat="47.3051790" lon="6.9564150">
        <ele>819.1</ele>
        <time>2022-07-21T08:16:55Z</time>
      </trkpt>
      <trkpt lat="47.3051970" lon="6.9564750">
        <ele>819.0</ele>
        <time>2022-07-21T08:16:56Z</time>
      </trkpt>
      <trkpt lat="47.3052170" lon="6.9565410">
        <ele>818.9</ele>
        <time>2022-07-21T08:16:57Z</time>
      </trkpt>
      <trkpt lat="47.3052260" lon="6.9565730">
        <ele>818.8</ele>
        <time>2022-07-21T08:16:58Z</time>
      </trkpt>
      <trkpt lat="47.3052470" lon="6.9566470">
        <ele>818.7</ele>
        <time>2022-07-21T08:16:59Z</time>
      </trkpt>
      <trkpt lat="47.3052600" lon="6.9566960">
        <ele>818.6</ele>
        <time>2022-07-21T08:17:00Z</time>
      </trkpt>
      <trkpt lat="47.3052790" lon="6.9567670">
        <ele>818.5</ele>
        <time>2022-07-21T08:17:01Z</time>
      </trkpt>
      <trkpt lat="47.3052980" lon="6.9568380">
        <ele>818.3</ele>
        <time>2022-07-21T08:17:02Z</time>
      </trkpt>
      <trkpt lat="47.3053130" lon="6.9569020">
        <ele>818.2</ele>
        <time>2022-07-21T08:17:03Z</time>
      </trkpt>
      <trkpt lat="47.3053280" lon="6.9569670">
        <ele>818.0</ele>
        <time>2022-07-21T08:17:04Z</time>
      </trkpt>
      <trkpt lat="47.3053420" lon="6.9570300">
        <ele>817.9</ele>
        <time>2022-07-21T08:17:05Z</time>
      </trkpt>
      <trkpt lat="47.3053460" lon="6.9571220">
        <ele>817.7</ele>
        <time>2022-07-21T08:17:07Z</time>
      </trkpt>
      <trkpt lat="47.3053600" lon="6.9571720">
        <ele>817.6</ele>
        <time>2022-07-21T08:17:08Z</time>
      </trkpt>
      <trkpt lat="47.3053770" lon="6.9572360">
        <ele>817.4</ele>
        <time>2022-07-21T08:17:09Z</time>
      </trkpt>
      <trkpt lat="47.3053880" lon="6.9573010">
        <ele>817.1</ele>
        <time>2022-07-21T08:17:10Z</time>
      </trkpt>
      <trkpt lat="47.3054090" lon="6.9573630">
        <ele>816.9</ele>
        <time>2022-07-21T08:17:11Z</time>
      </trkpt>
      <trkpt lat="47.3054260" lon="6.9574310">
        <ele>816.7</ele>
        <time>2022-07-21T08:17:12Z</time>
      </trkpt>
      <trkpt lat="47.3054380" lon="6.9575000">
        <ele>816.4</ele>
        <time>2022-07-21T08:17:13Z</time>
      </trkpt>
      <trkpt lat="47.3054510" lon="6.9575670">
        <ele>816.1</ele>
        <time>2022-07-21T08:17:14Z</time>
      </trkpt>
      <trkpt lat="47.3054610" lon="6.9576440">
        <ele>815.8</ele>
        <time>2022-07-21T08:17:15Z</time>
      </trkpt>
      <trkpt lat="47.3054740" lon="6.9577220">
        <ele>815.4</ele>
        <time>2022-07-21T08:17:16Z</time>
      </trkpt>
      <trkpt lat="47.3054900" lon="6.9578070">
        <ele>814.9</ele>
        <time>2022-07-21T08:17:17Z</time>
      </trkpt>
      <trkpt lat="47.3055060" lon="6.9578900">
        <ele>814.4</ele>
        <time>2022-07-21T08:17:18Z</time>
      </trkpt>
      <trkpt lat="47.3055170" lon="6.9579690">
        <ele>814.0</ele>
        <time>2022-07-21T08:17:19Z</time>
      </trkpt>
      <trkpt lat="47.3055270" lon="6.9580370">
        <ele>813.6</ele>
        <time>2022-07-21T08:17:20Z</time>
      </trkpt>
      <trkpt lat="47.3055400" lon="6.9581090">
        <ele>813.3</ele>
        <time>2022-07-21T08:17:21Z</time>
      </trkpt>
      <trkpt lat="47.3055550" lon="6.9582010">
        <ele>812.9</ele>
        <time>2022-07-21T08:17:22Z</time>
      </trkpt>
      <trkpt lat="47.3055630" lon="6.9582920">
        <ele>812.4</ele>
        <time>2022-07-21T08:17:23Z</time>
      </trkpt>
      <trkpt lat="47.3055650" lon="6.9583820">
        <ele>812.0</ele>
        <time>2022-07-21T08:17:24Z</time>
      </trkpt>
      <trkpt lat="47.3055630" lon="6.9584650">
        <ele>811.6</ele>
        <time>2022-07-21T08:17:25Z</time>
      </trkpt>
      <trkpt lat="47.3055570" lon="6.9585430">
        <ele>811.2</ele>
        <time>2022-07-21T08:17:26Z</time>
      </trkpt>
      <trkpt lat="47.3055510" lon="6.9586210">
        <ele>810.8</ele>
        <time>2022-07-21T08:17:27Z</time>
      </trkpt>
      <trkpt lat="47.3055500" lon="6.9586900">
        <ele>810.4</ele>
        <time>2022-07-21T08:17:28Z</time>
      </trkpt>
      <trkpt lat="47.3055510" lon="6.9587610">
        <ele>810.0</ele>
        <time>2022-07-21T08:17:29Z</time>
      </trkpt>
      <trkpt lat="47.3055600" lon="6.9588210">
        <ele>809.6</ele>
        <time>2022-07-21T08:17:30Z</time>
      </trkpt>
      <trkpt lat="47.3055790" lon="6.9588900">
        <ele>809.1</ele>
        <time>2022-07-21T08:17:31Z</time>
      </trkpt>
      <trkpt lat="47.3056040" lon="6.9589520">
        <ele>808.6</ele>
        <time>2022-07-21T08:17:32Z</time>
      </trkpt>
      <trkpt lat="47.3056430" lon="6.9590120">
        <ele>808.1</ele>
        <time>2022-07-21T08:17:33Z</time>
      </trkpt>
      <trkpt lat="47.3056820" lon="6.9590720">
        <ele>807.5</ele>
        <time>2022-07-21T08:17:34Z</time>
      </trkpt>
      <trkpt lat="47.3057250" lon="6.9591250">
        <ele>806.9</ele>
        <time>2022-07-21T08:17:35Z</time>
      </trkpt>
      <trkpt lat="47.3057680" lon="6.9591730">
        <ele>806.3</ele>
        <time>2022-07-21T08:17:36Z</time>
      </trkpt>
      <trkpt lat="47.3058230" lon="6.9592430">
        <ele>805.5</ele>
        <time>2022-07-21T08:17:37Z</time>
      </trkpt>
      <trkpt lat="47.3058700" lon="6.9592980">
        <ele>804.8</ele>
        <time>2022-07-21T08:17:38Z</time>
      </trkpt>
      <trkpt lat="47.3059160" lon="6.9593450">
        <ele>804.1</ele>
        <time>2022-07-21T08:17:39Z</time>
      </trkpt>
      <trkpt lat="47.3059560" lon="6.9593980">
        <ele>803.5</ele>
        <time>2022-07-21T08:17:40Z</time>
      </trkpt>
      <trkpt lat="47.3059890" lon="6.9594720">
        <ele>802.7</ele>
        <time>2022-07-21T08:17:41Z</time>
      </trkpt>
      <trkpt lat="47.3060000" lon="6.9595620">
        <ele>802.0</ele>
        <time>2022-07-21T08:17:42Z</time>
      </trkpt>
      <trkpt lat="47.3060100" lon="6.9596600">
        <ele>801.1</ele>
        <time>2022-07-21T08:17:43Z</time>
      </trkpt>
      <trkpt lat="47.3060150" lon="6.9597540">
        <ele>800.4</ele>
        <time>2022-07-21T08:17:44Z</time>
      </trkpt>
      <trkpt lat="47.3060280" lon="6.9598480">
        <ele>799.6</ele>
        <time>2022-07-21T08:17:45Z</time>
      </trkpt>
      <trkpt lat="47.3060380" lon="6.9599510">
        <ele>798.9</ele>
        <time>2022-07-21T08:17:46Z</time>
      </trkpt>
      <trkpt lat="47.3060480" lon="6.9600670">
        <ele>798.1</ele>
        <time>2022-07-21T08:17:47Z</time>
      </trkpt>
      <trkpt lat="47.3060620" lon="6.9601710">
        <ele>797.5</ele>
        <time>2022-07-21T08:17:48Z</time>
      </trkpt>
      <trkpt lat="47.3060780" lon="6.9602780">
        <ele>797.0</ele>
        <time>2022-07-21T08:17:49Z</time>
      </trkpt>
      <trkpt lat="47.3060920" lon="6.9603850">
        <ele>796.5</ele>
        <time>2022-07-21T08:17:50Z</time>
      </trkpt>
      <trkpt lat="47.3060950" lon="6.9604890">
        <ele>796.1</ele>
        <time>2022-07-21T08:17:51Z</time>
      </trkpt>
      <trkpt lat="47.3061010" lon="6.9605850">
        <ele>795.8</ele>
        <time>2022-07-21T08:17:52Z</time>
      </trkpt>
      <trkpt lat="47.3061090" lon="6.9606820">
        <ele>795.5</ele>
        <time>2022-07-21T08:17:53Z</time>
      </trkpt>
      <trkpt lat="47.3061220" lon="6.9607750">
        <ele>795.2</ele>
        <time>2022-07-21T08:17:54Z</time>
      </trkpt>
      <trkpt lat="47.3061370" lon="6.9608610">
        <ele>795.0</ele>
        <time>2022-07-21T08:17:55Z</time>
      </trkpt>
      <trkpt lat="47.3061490" lon="6.9609390">
        <ele>794.8</ele>
        <time>2022-07-21T08:17:56Z</time>
      </trkpt>
      <trkpt lat="47.3061610" lon="6.9610240">
        <ele>794.7</ele>
        <time>2022-07-21T08:17:57Z</time>
      </trkpt>
      <trkpt lat="47.3061780" lon="6.9611090">
        <ele>794.5</ele>
        <time>2022-07-21T08:17:58Z</time>
      </trkpt>
      <trkpt lat="47.3061950" lon="6.9611920">
        <ele>794.4</ele>
        <time>2022-07-21T08:17:59Z</time>
      </trkpt>
      <trkpt lat="47.3062130" lon="6.9612730">
        <ele>794.3</ele>
        <time>2022-07-21T08:18:00Z</time>
      </trkpt>
      <trkpt lat="47.3062360" lon="6.9613540">
        <ele>794.3</ele>
        <time>2022-07-21T08:18:01Z</time>
      </trkpt>
      <trkpt lat="47.3062590" lon="6.9614270">
        <ele>794.3</ele>
        <time>2022-07-21T08:18:02Z</time>
      </trkpt>
      <trkpt lat="47.3062810" lon="6.9614890">
        <ele>794.3</ele>
        <time>2022-07-21T08:18:03Z</time>
      </trkpt>
      <trkpt lat="47.3063050" lon="6.9615520">
        <ele>794.3</ele>
        <time>2022-07-21T08:18:04Z</time>
      </trkpt>
      <trkpt lat="47.3063280" lon="6.9616050">
        <ele>794.3</ele>
        <time>2022-07-21T08:18:05Z</time>
      </trkpt>
      <trkpt lat="47.3063360" lon="6.9616580">
        <ele>794.3</ele>
        <time>2022-07-21T08:18:06Z</time>
      </trkpt>
      <trkpt lat="47.3063360" lon="6.9616790">
        <ele>794.3</ele>
        <time>2022-07-21T08:18:07Z</time>
      </trkpt>
      <trkpt lat="47.3063240" lon="6.9617280">
        <ele>794.3</ele>
        <time>2022-07-21T08:18:08Z</time>
      </trkpt>
      <trkpt lat="47.3063030" lon="6.9617700">
        <ele>794.3</ele>
        <time>2022-07-21T08:18:09Z</time>
      </trkpt>
      <trkpt lat="47.3062730" lon="6.9617960">
        <ele>794.7</ele>
        <time>2022-07-21T08:18:10Z</time>
      </trkpt>
      <trkpt lat="47.3062620" lon="6.9618000">
        <ele>794.8</ele>
        <time>2022-07-21T08:18:11Z</time>
      </trkpt>
      <trkpt lat="47.3062270" lon="6.9617850">
        <ele>794.9</ele>
        <time>2022-07-21T08:18:12Z</time>
      </trkpt>
      <trkpt lat="47.3061950" lon="6.9617620">
        <ele>795.1</ele>
        <time>2022-07-21T08:18:13Z</time>
      </trkpt>
      <trkpt lat="47.3061700" lon="6.9617430">
        <ele>795.2</ele>
        <time>2022-07-21T08:18:14Z</time>
      </trkpt>
      <trkpt lat="47.3061400" lon="6.9617290">
        <ele>795.4</ele>
        <time>2022-07-21T08:18:15Z</time>
      </trkpt>
      <trkpt lat="47.3061090" lon="6.9617290">
        <ele>795.6</ele>
        <time>2022-07-21T08:18:16Z</time>
      </trkpt>
      <trkpt lat="47.3060750" lon="6.9617200">
        <ele>795.8</ele>
        <time>2022-07-21T08:18:17Z</time>
      </trkpt>
      <trkpt lat="47.3060600" lon="6.9617170">
        <ele>795.9</ele>
        <time>2022-07-21T08:18:18Z</time>
      </trkpt>
      <trkpt lat="47.3060230" lon="6.9617060">
        <ele>796.2</ele>
        <time>2022-07-21T08:18:19Z</time>
      </trkpt>
      <trkpt lat="47.3060110" lon="6.9617020">
        <ele>796.3</ele>
        <time>2022-07-21T08:18:20Z</time>
      </trkpt>
      <trkpt lat="47.3059720" lon="6.9616910">
        <ele>796.5</ele>
        <time>2022-07-21T08:18:21Z</time>
      </trkpt>
      <trkpt lat="47.3059590" lon="6.9616870">
        <ele>796.6</ele>
        <time>2022-07-21T08:18:22Z</time>
      </trkpt>
      <trkpt lat="47.3059240" lon="6.9616750">
        <ele>796.9</ele>
        <time>2022-07-21T08:18:23Z</time>
      </trkpt>
      <trkpt lat="47.3059120" lon="6.9616710">
        <ele>797.0</ele>
        <time>2022-07-21T08:18:24Z</time>
      </trkpt>
      <trkpt lat="47.3058740" lon="6.9616580">
        <ele>797.3</ele>
        <time>2022-07-21T08:18:25Z</time>
      </trkpt>
      <trkpt lat="47.3058600" lon="6.9616540">
        <ele>797.4</ele>
        <time>2022-07-21T08:18:26Z</time>
      </trkpt>
      <trkpt lat="47.3058270" lon="6.9616500">
        <ele>797.7</ele>
        <time>2022-07-21T08:18:27Z</time>
      </trkpt>
      <trkpt lat="47.3058150" lon="6.9616500">
        <ele>797.7</ele>
        <time>2022-07-21T08:18:28Z</time>
      </trkpt>
      <trkpt lat="47.3057850" lon="6.9616570">
        <ele>798.0</ele>
        <time>2022-07-21T08:18:29Z</time>
      </trkpt>
      <trkpt lat="47.3057750" lon="6.9616590">
        <ele>798.1</ele>
        <time>2022-07-21T08:18:30Z</time>
      </trkpt>
      <trkpt lat="47.3057380" lon="6.9616730">
        <ele>798.3</ele>
        <time>2022-07-21T08:18:31Z</time>
      </trkpt>
      <trkpt lat="47.3057250" lon="6.9616790">
        <ele>798.4</ele>
        <time>2022-07-21T08:18:32Z</time>
      </trkpt>
      <trkpt lat="47.3056880" lon="6.9617030">
        <ele>798.7</ele>
        <time>2022-07-21T08:18:33Z</time>
      </trkpt>
      <trkpt lat="47.3056750" lon="6.9617110">
        <ele>798.9</ele>
        <time>2022-07-21T08:18:34Z</time>
      </trkpt>
      <trkpt lat="47.3056480" lon="6.9617290">
        <ele>799.1</ele>
        <time>2022-07-21T08:18:35Z</time>
      </trkpt>
      <trkpt lat="47.3056220" lon="6.9617430">
        <ele>799.3</ele>
        <time>2022-07-21T08:18:36Z</time>
      </trkpt>
      <trkpt lat="47.3055840" lon="6.9617640">
        <ele>799.6</ele>
        <time>2022-07-21T08:18:37Z</time>
      </trkpt>
      <trkpt lat="47.3055690" lon="6.9617720">
        <ele>799.7</ele>
        <time>2022-07-21T08:18:38Z</time>
      </trkpt>
      <trkpt lat="47.3055320" lon="6.9617850">
        <ele>799.9</ele>
        <time>2022-07-21T08:18:39Z</time>
      </trkpt>
      <trkpt lat="47.3055190" lon="6.9617900">
        <ele>800.0</ele>
        <time>2022-07-21T08:18:40Z</time>
      </trkpt>
      <trkpt lat="47.3054870" lon="6.9617980">
        <ele>800.3</ele>
        <time>2022-07-21T08:18:41Z</time>
      </trkpt>
      <trkpt lat="47.3054750" lon="6.9618020">
        <ele>800.4</ele>
        <time>2022-07-21T08:18:42Z</time>
      </trkpt>
      <trkpt lat="47.3054420" lon="6.9618150">
        <ele>800.6</ele>
        <time>2022-07-21T08:18:43Z</time>
      </trkpt>
      <trkpt lat="47.3054310" lon="6.9618210">
        <ele>800.7</ele>
        <time>2022-07-21T08:18:44Z</time>
      </trkpt>
      <trkpt lat="47.3054060" lon="6.9618380">
        <ele>800.9</ele>
        <time>2022-07-21T08:18:45Z</time>
      </trkpt>
      <trkpt lat="47.3053970" lon="6.9618450">
        <ele>801.0</ele>
        <time>2022-07-21T08:18:46Z</time>
      </trkpt>
      <trkpt lat="47.3053730" lon="6.9618630">
        <ele>801.2</ele>
        <time>2022-07-21T08:18:47Z</time>
      </trkpt>
      <trkpt lat="47.3053640" lon="6.9618680">
        <ele>801.3</ele>
        <time>2022-07-21T08:18:48Z</time>
      </trkpt>
      <trkpt lat="47.3053460" lon="6.9618800">
        <ele>801.5</ele>
        <time>2022-07-21T08:18:49Z</time>
      </trkpt>
      <trkpt lat="47.3053340" lon="6.9618900">
        <ele>801.6</ele>
        <time>2022-07-21T08:18:50Z</time>
      </trkpt>
      <trkpt lat="47.3053050" lon="6.9619050">
        <ele>801.8</ele>
        <time>2022-07-21T08:18:51Z</time>
      </trkpt>
      <trkpt lat="47.3052930" lon="6.9619090">
        <ele>801.9</ele>
        <time>2022-07-21T08:18:52Z</time>
      </trkpt>
      <trkpt lat="47.3052740" lon="6.9619130">
        <ele>802.1</ele>
        <time>2022-07-21T08:18:53Z</time>
      </trkpt>
      <trkpt lat="47.3052590" lon="6.9619170">
        <ele>802.2</ele>
        <time>2022-07-21T08:18:54Z</time>
      </trkpt>
      <trkpt lat="47.3052330" lon="6.9619250">
        <ele>802.4</ele>
        <time>2022-07-21T08:18:55Z</time>
      </trkpt>
      <trkpt lat="47.3052240" lon="6.9619280">
        <ele>802.5</ele>
        <time>2022-07-21T08:18:56Z</time>
      </trkpt>
      <trkpt lat="47.3052060" lon="6.9619360">
        <ele>802.6</ele>
        <time>2022-07-21T08:18:57Z</time>
      </trkpt>
      <trkpt lat="47.3052030" lon="6.9619380">
        <ele>802.6</ele>
        <time>2022-07-21T08:18:58Z</time>
      </trkpt>
      <trkpt lat="47.3051910" lon="6.9619460">
        <ele>802.7</ele>
        <time>2022-07-21T08:18:59Z</time>
      </trkpt>
      <trkpt lat="47.3051620" lon="6.9619560">
        <ele>802.9</ele>
        <time>2022-07-21T08:19:00Z</time>
      </trkpt>
      <trkpt lat="47.3051530" lon="6.9619580">
        <ele>803.0</ele>
        <time>2022-07-21T08:19:01Z</time>
      </trkpt>
      <trkpt lat="47.3051310" lon="6.9619640">
        <ele>803.2</ele>
        <time>2022-07-21T08:19:02Z</time>
      </trkpt>
      <trkpt lat="47.3050920" lon="6.9619700">
        <ele>803.5</ele>
        <time>2022-07-21T08:19:04Z</time>
      </trkpt>
      <trkpt lat="47.3050630" lon="6.9619740">
        <ele>803.7</ele>
        <time>2022-07-21T08:19:05Z</time>
      </trkpt>
      <trkpt lat="47.3050160" lon="6.9619850">
        <ele>804.0</ele>
        <time>2022-07-21T08:19:06Z</time>
      </trkpt>
      <trkpt lat="47.3049930" lon="6.9619930">
        <ele>804.2</ele>
        <time>2022-07-21T08:19:07Z</time>
      </trkpt>
      <trkpt lat="47.3049420" lon="6.9619990">
        <ele>804.5</ele>
        <time>2022-07-21T08:19:09Z</time>
      </trkpt>
      <trkpt lat="47.3049270" lon="6.9620000">
        <ele>804.6</ele>
        <time>2022-07-21T08:19:10Z</time>
      </trkpt>
      <trkpt lat="47.3049120" lon="6.9620000">
        <ele>804.8</ele>
        <time>2022-07-21T08:19:11Z</time>
      </trkpt>
      <trkpt lat="47.3048850" lon="6.9620020">
        <ele>804.9</ele>
        <time>2022-07-21T08:19:12Z</time>
      </trkpt>
      <trkpt lat="47.3048550" lon="6.9620110">
        <ele>805.2</ele>
        <time>2022-07-21T08:19:13Z</time>
      </trkpt>
      <trkpt lat="47.3048130" lon="6.9620260">
        <ele>805.4</ele>
        <time>2022-07-21T08:19:15Z</time>
      </trkpt>
      <trkpt lat="47.3047800" lon="6.9620370">
        <ele>805.7</ele>
        <time>2022-07-21T08:19:16Z</time>
      </trkpt>
      <trkpt lat="47.3047530" lon="6.9620450">
        <ele>805.8</ele>
        <time>2022-07-21T08:19:17Z</time>
      </trkpt>
      <trkpt lat="47.3047170" lon="6.9620580">
        <ele>806.1</ele>
        <time>2022-07-21T08:19:18Z</time>
      </trkpt>
      <trkpt lat="47.3047030" lon="6.9620640">
        <ele>806.1</ele>
        <time>2022-07-21T08:19:19Z</time>
      </trkpt>
      <trkpt lat="47.3046610" lon="6.9620810">
        <ele>806.4</ele>
        <time>2022-07-21T08:19:20Z</time>
      </trkpt>
      <trkpt lat="47.3046230" lon="6.9620940">
        <ele>806.6</ele>
        <time>2022-07-21T08:19:22Z</time>
      </trkpt>
      <trkpt lat="47.3045810" lon="6.9621120">
        <ele>806.7</ele>
        <time>2022-07-21T08:19:23Z</time>
      </trkpt>
      <trkpt lat="47.3045640" lon="6.9621200">
        <ele>806.8</ele>
        <time>2022-07-21T08:19:24Z</time>
      </trkpt>
      <trkpt lat="47.3045210" lon="6.9621390">
        <ele>807.0</ele>
        <time>2022-07-21T08:19:25Z</time>
      </trkpt>
      <trkpt lat="47.3044860" lon="6.9621460">
        <ele>807.1</ele>
        <time>2022-07-21T08:19:26Z</time>
      </trkpt>
      <trkpt lat="47.3044570" lon="6.9621510">
        <ele>807.2</ele>
        <time>2022-07-21T08:19:27Z</time>
      </trkpt>
      <trkpt lat="47.3044250" lon="6.9621510">
        <ele>807.3</ele>
        <time>2022-07-21T08:19:28Z</time>
      </trkpt>
      <trkpt lat="47.3043840" lon="6.9621580">
        <ele>807.4</ele>
        <time>2022-07-21T08:19:30Z</time>
      </trkpt>
      <trkpt lat="47.3043420" lon="6.9621640">
        <ele>807.5</ele>
        <time>2022-07-21T08:19:31Z</time>
      </trkpt>
      <trkpt lat="47.3043040" lon="6.9621690">
        <ele>807.6</ele>
        <time>2022-07-21T08:19:32Z</time>
      </trkpt>
      <trkpt lat="47.3042680" lon="6.9621760">
        <ele>807.7</ele>
        <time>2022-07-21T08:19:33Z</time>
      </trkpt>
      <trkpt lat="47.3042190" lon="6.9621890">
        <ele>807.8</ele>
        <time>2022-07-21T08:19:35Z</time>
      </trkpt>
      <trkpt lat="47.3041860" lon="6.9622050">
        <ele>807.9</ele>
        <time>2022-07-21T08:19:36Z</time>
      </trkpt>
      <trkpt lat="47.3041520" lon="6.9622170">
        <ele>808.0</ele>
        <time>2022-07-21T08:19:37Z</time>
      </trkpt>
      <trkpt lat="47.3041220" lon="6.9622270">
        <ele>808.0</ele>
        <time>2022-07-21T08:19:38Z</time>
      </trkpt>
      <trkpt lat="47.3040550" lon="6.9622410">
        <ele>808.1</ele>
        <time>2022-07-21T08:19:40Z</time>
      </trkpt>
      <trkpt lat="47.3040140" lon="6.9622530">
        <ele>808.2</ele>
        <time>2022-07-21T08:19:41Z</time>
      </trkpt>
      <trkpt lat="47.3039690" lon="6.9622640">
        <ele>808.2</ele>
        <time>2022-07-21T08:19:42Z</time>
      </trkpt>
      <trkpt lat="47.3039320" lon="6.9622720">
        <ele>808.2</ele>
        <time>2022-07-21T08:19:43Z</time>
      </trkpt>
      <trkpt lat="47.3038900" lon="6.9622820">
        <ele>808.3</ele>
        <time>2022-07-21T08:19:44Z</time>
      </trkpt>
      <trkpt lat="47.3038510" lon="6.9622900">
        <ele>808.3</ele>
        <time>2022-07-21T08:19:45Z</time>
      </trkpt>
      <trkpt lat="47.3037940" lon="6.9622970">
        <ele>808.3</ele>
        <time>2022-07-21T08:19:47Z</time>
      </trkpt>
      <trkpt lat="47.3037250" lon="6.9623000">
        <ele>808.3</ele>
        <time>2022-07-21T08:19:48Z</time>
      </trkpt>
      <trkpt lat="47.3036900" lon="6.9623040">
        <ele>808.3</ele>
        <time>2022-07-21T08:19:50Z</time>
      </trkpt>
      <trkpt lat="47.3036460" lon="6.9623070">
        <ele>808.3</ele>
        <time>2022-07-21T08:19:51Z</time>
      </trkpt>
      <trkpt lat="47.3035950" lon="6.9623080">
        <ele>808.3</ele>
        <time>2022-07-21T08:19:52Z</time>
      </trkpt>
      <trkpt lat="47.3035390" lon="6.9623040">
        <ele>808.3</ele>
        <time>2022-07-21T08:19:53Z</time>
      </trkpt>
      <trkpt lat="47.3034920" lon="6.9622990">
        <ele>808.3</ele>
        <time>2022-07-21T08:19:54Z</time>
      </trkpt>
      <trkpt lat="47.3034410" lon="6.9622950">
        <ele>808.3</ele>
        <time>2022-07-21T08:19:55Z</time>
      </trkpt>
      <trkpt lat="47.3033920" lon="6.9622880">
        <ele>808.3</ele>
        <time>2022-07-21T08:19:56Z</time>
      </trkpt>
      <trkpt lat="47.3033110" lon="6.9622810">
        <ele>808.2</ele>
        <time>2022-07-21T08:19:58Z</time>
      </trkpt>
      <trkpt lat="47.3032800" lon="6.9622960">
        <ele>808.2</ele>
        <time>2022-07-21T08:19:59Z</time>
      </trkpt>
      <trkpt lat="47.3032080" lon="6.9623000">
        <ele>808.0</ele>
        <time>2022-07-21T08:20:00Z</time>
      </trkpt>
      <trkpt lat="47.3031490" lon="6.9623060">
        <ele>807.9</ele>
        <time>2022-07-21T08:20:01Z</time>
      </trkpt>
      <trkpt lat="47.3030960" lon="6.9623160">
        <ele>807.8</ele>
        <time>2022-07-21T08:20:02Z</time>
      </trkpt>
      <trkpt lat="47.3030780" lon="6.9623190">
        <ele>807.8</ele>
        <time>2022-07-21T08:20:03Z</time>
      </trkpt>
      <trkpt lat="47.3030000" lon="6.9623370">
        <ele>807.7</ele>
        <time>2022-07-21T08:20:05Z</time>
      </trkpt>
      <trkpt lat="47.3029510" lon="6.9623330">
        <ele>807.7</ele>
        <time>2022-07-21T08:20:06Z</time>
      </trkpt>
      <trkpt lat="47.3029100" lon="6.9623310">
        <ele>807.7</ele>
        <time>2022-07-21T08:20:07Z</time>
      </trkpt>
      <trkpt lat="47.3028730" lon="6.9623310">
        <ele>807.7</ele>
        <time>2022-07-21T08:20:08Z</time>
      </trkpt>
      <trkpt lat="47.3028090" lon="6.9623360">
        <ele>807.6</ele>
        <time>2022-07-21T08:20:09Z</time>
      </trkpt>
      <trkpt lat="47.3027560" lon="6.9623370">
        <ele>807.6</ele>
        <time>2022-07-21T08:20:11Z</time>
      </trkpt>
      <trkpt lat="47.3027040" lon="6.9623320">
        <ele>807.6</ele>
        <time>2022-07-21T08:20:12Z</time>
      </trkpt>
      <trkpt lat="47.3026670" lon="6.9623250">
        <ele>807.6</ele>
        <time>2022-07-21T08:20:13Z</time>
      </trkpt>
      <trkpt lat="47.3026350" lon="6.9623230">
        <ele>807.7</ele>
        <time>2022-07-21T08:20:14Z</time>
      </trkpt>
      <trkpt lat="47.3025860" lon="6.9623220">
        <ele>807.7</ele>
        <time>2022-07-21T08:20:15Z</time>
      </trkpt>
      <trkpt lat="47.3025260" lon="6.9623090">
        <ele>807.7</ele>
        <time>2022-07-21T08:20:17Z</time>
      </trkpt>
      <trkpt lat="47.3024740" lon="6.9622900">
        <ele>807.7</ele>
        <time>2022-07-21T08:20:18Z</time>
      </trkpt>
      <trkpt lat="47.3024270" lon="6.9622760">
        <ele>807.7</ele>
        <time>2022-07-21T08:20:19Z</time>
      </trkpt>
      <trkpt lat="47.3023200" lon="6.9622470">
        <ele>807.5</ele>
        <time>2022-07-21T08:20:21Z</time>
      </trkpt>
      <trkpt lat="47.3022720" lon="6.9622330">
        <ele>807.5</ele>
        <time>2022-07-21T08:20:22Z</time>
      </trkpt>
      <trkpt lat="47.3022400" lon="6.9622540">
        <ele>807.4</ele>
        <time>2022-07-21T08:20:23Z</time>
      </trkpt>
      <trkpt lat="47.3021890" lon="6.9622600">
        <ele>807.3</ele>
        <time>2022-07-21T08:20:25Z</time>
      </trkpt>
      <trkpt lat="47.3021490" lon="6.9622470">
        <ele>807.3</ele>
        <time>2022-07-21T08:20:26Z</time>
      </trkpt>
      <trkpt lat="47.3021140" lon="6.9622350">
        <ele>807.2</ele>
        <time>2022-07-21T08:20:27Z</time>
      </trkpt>
      <trkpt lat="47.3020740" lon="6.9622070">
        <ele>807.1</ele>
        <time>2022-07-21T08:20:28Z</time>
      </trkpt>
      <trkpt lat="47.3020430" lon="6.9621810">
        <ele>807.0</ele>
        <time>2022-07-21T08:20:30Z</time>
      </trkpt>
      <trkpt lat="47.3020000" lon="6.9621560">
        <ele>807.0</ele>
        <time>2022-07-21T08:20:31Z</time>
      </trkpt>
      <trkpt lat="47.3019630" lon="6.9621320">
        <ele>806.9</ele>
        <time>2022-07-21T08:20:32Z</time>
      </trkpt>
      <trkpt lat="47.3019190" lon="6.9621190">
        <ele>806.8</ele>
        <time>2022-07-21T08:20:33Z</time>
      </trkpt>
      <trkpt lat="47.3018770" lon="6.9621100">
        <ele>806.8</ele>
        <time>2022-07-21T08:20:34Z</time>
      </trkpt>
      <trkpt lat="47.3018150" lon="6.9621030">
        <ele>806.7</ele>
        <time>2022-07-21T08:20:35Z</time>
      </trkpt>
      <trkpt lat="47.3017710" lon="6.9621010">
        <ele>806.6</ele>
        <time>2022-07-21T08:20:37Z</time>
      </trkpt>
      <trkpt lat="47.3017320" lon="6.9620990">
        <ele>806.5</ele>
        <time>2022-07-21T08:20:38Z</time>
      </trkpt>
      <trkpt lat="47.3017160" lon="6.9620980">
        <ele>806.5</ele>
        <time>2022-07-21T08:20:39Z</time>
      </trkpt>
      <trkpt lat="47.3016880" lon="6.9620950">
        <ele>806.4</ele>
        <time>2022-07-21T08:20:40Z</time>
      </trkpt>
      <trkpt lat="47.3016580" lon="6.9620950">
        <ele>806.4</ele>
        <time>2022-07-21T08:20:41Z</time>
      </trkpt>
      <trkpt lat="47.3016260" lon="6.9620910">
        <ele>806.3</ele>
        <time>2022-07-21T08:20:42Z</time>
      </trkpt>
      <trkpt lat="47.3015870" lon="6.9620810">
        <ele>806.2</ele>
        <time>2022-07-21T08:20:43Z</time>
      </trkpt>
      <trkpt lat="47.3015390" lon="6.9620780">
        <ele>806.0</ele>
        <time>2022-07-21T08:20:45Z</time>
      </trkpt>
      <trkpt lat="47.3014910" lon="6.9620610">
        <ele>805.8</ele>
        <time>2022-07-21T08:20:46Z</time>
      </trkpt>
      <trkpt lat="47.3014440" lon="6.9620270">
        <ele>805.5</ele>
        <time>2022-07-21T08:20:47Z</time>
      </trkpt>
      <trkpt lat="47.3013970" lon="6.9619820">
        <ele>805.2</ele>
        <time>2022-07-21T08:20:49Z</time>
      </trkpt>
      <trkpt lat="47.3013590" lon="6.9619490">
        <ele>805.0</ele>
        <time>2022-07-21T08:20:50Z</time>
      </trkpt>
      <trkpt lat="47.3013230" lon="6.9619310">
        <ele>804.7</ele>
        <time>2022-07-21T08:20:51Z</time>
      </trkpt>
      <trkpt lat="47.3012620" lon="6.9619030">
        <ele>804.2</ele>
        <time>2022-07-21T08:20:53Z</time>
      </trkpt>
      <trkpt lat="47.3012350" lon="6.9618820">
        <ele>804.0</ele>
        <time>2022-07-21T08:20:54Z</time>
      </trkpt>
      <trkpt lat="47.3012270" lon="6.9618740">
        <ele>803.9</ele>
        <time>2022-07-21T08:20:55Z</time>
      </trkpt>
      <trkpt lat="47.3012000" lon="6.9618540">
        <ele>803.7</ele>
        <time>2022-07-21T08:20:56Z</time>
      </trkpt>
      <trkpt lat="47.3011670" lon="6.9618530">
        <ele>803.4</ele>
        <time>2022-07-21T08:20:57Z</time>
      </trkpt>
      <trkpt lat="47.3011590" lon="6.9618540">
        <ele>803.3</ele>
        <time>2022-07-21T08:20:58Z</time>
      </trkpt>
      <trkpt lat="47.3011290" lon="6.9618580">
        <ele>803.1</ele>
        <time>2022-07-21T08:20:59Z</time>
      </trkpt>
      <trkpt lat="47.3011190" lon="6.9618600">
        <ele>803.0</ele>
        <time>2022-07-21T08:21:00Z</time>
      </trkpt>
      <trkpt lat="47.3010820" lon="6.9618630">
        <ele>802.7</ele>
        <time>2022-07-21T08:21:01Z</time>
      </trkpt>
      <trkpt lat="47.3010630" lon="6.9618640">
        <ele>802.5</ele>
        <time>2022-07-21T08:21:02Z</time>
      </trkpt>
      <trkpt lat="47.3010170" lon="6.9618610">
        <ele>802.1</ele>
        <time>2022-07-21T08:21:04Z</time>
      </trkpt>
      <trkpt lat="47.3009740" lon="6.9618630">
        <ele>801.6</ele>
        <time>2022-07-21T08:21:05Z</time>
      </trkpt>
      <trkpt lat="47.3009390" lon="6.9618650">
        <ele>801.3</ele>
        <time>2022-07-21T08:21:06Z</time>
      </trkpt>
      <trkpt lat="47.3009280" lon="6.9618660">
        <ele>801.1</ele>
        <time>2022-07-21T08:21:07Z</time>
      </trkpt>
      <trkpt lat="47.3008880" lon="6.9618810">
        <ele>800.7</ele>
        <time>2022-07-21T08:21:08Z</time>
      </trkpt>
      <trkpt lat="47.3008590" lon="6.9618920">
        <ele>800.3</ele>
        <time>2022-07-21T08:21:10Z</time>
      </trkpt>
      <trkpt lat="47.3008460" lon="6.9618990">
        <ele>800.2</ele>
        <time>2022-07-21T08:21:11Z</time>
      </trkpt>
      <trkpt lat="47.3008280" lon="6.9619050">
        <ele>799.9</ele>
        <time>2022-07-21T08:21:12Z</time>
      </trkpt>
      <trkpt lat="47.3008090" lon="6.9619080">
        <ele>799.7</ele>
        <time>2022-07-21T08:21:13Z</time>
      </trkpt>
      <trkpt lat="47.3007950" lon="6.9619110">
        <ele>799.5</ele>
        <time>2022-07-21T08:21:15Z</time>
      </trkpt>
      <trkpt lat="47.3007820" lon="6.9619080">
        <ele>799.4</ele>
        <time>2022-07-21T08:21:16Z</time>
      </trkpt>
      <trkpt lat="47.3007770" lon="6.9619070">
        <ele>799.3</ele>
        <time>2022-07-21T08:21:17Z</time>
      </trkpt>
      <trkpt lat="47.3007810" lon="6.9619060">
        <ele>799.3</ele>
        <time>2022-07-21T08:21:18Z</time>
      </trkpt>
      <trkpt lat="47.3007800" lon="6.9619050">
        <ele>799.2</ele>
        <time>2022-07-21T08:21:20Z</time>
      </trkpt>
      <trkpt lat="47.3007790" lon="6.9619040">
        <ele>799.2</ele>
        <time>2022-07-21T08:21:21Z</time>
      </trkpt>
      <trkpt lat="47.3007650" lon="6.9619040">
        <ele>799.0</ele>
        <time>2022-07-21T08:21:22Z</time>
      </trkpt>
      <trkpt lat="47.3007460" lon="6.9619030">
        <ele>798.8</ele>
        <time>2022-07-21T08:21:23Z</time>
      </trkpt>
      <trkpt lat="47.3007210" lon="6.9619060">
        <ele>798.5</ele>
        <time>2022-07-21T08:21:25Z</time>
      </trkpt>
      <trkpt lat="47.3006880" lon="6.9619140">
        <ele>798.1</ele>
        <time>2022-07-21T08:21:26Z</time>
      </trkpt>
      <trkpt lat="47.3006760" lon="6.9619180">
        <ele>797.9</ele>
        <time>2022-07-21T08:21:27Z</time>
      </trkpt>
      <trkpt lat="47.3006400" lon="6.9619230">
        <ele>797.5</ele>
        <time>2022-07-21T08:21:28Z</time>
      </trkpt>
      <trkpt lat="47.3006220" lon="6.9619230">
        <ele>797.2</ele>
        <time>2022-07-21T08:21:29Z</time>
      </trkpt>
      <trkpt lat="47.3006020" lon="6.9619160">
        <ele>797.0</ele>
        <time>2022-07-21T08:21:30Z</time>
      </trkpt>
      <trkpt lat="47.3005730" lon="6.9619100">
        <ele>795.7</ele>
        <time>2022-07-21T08:21:32Z</time>
      </trkpt>
      <trkpt lat="47.3005560" lon="6.9619050">
        <ele>795.4</ele>
        <time>2022-07-21T08:21:33Z</time>
      </trkpt>
      <trkpt lat="47.3005440" lon="6.9619020">
        <ele>795.2</ele>
        <time>2022-07-21T08:21:34Z</time>
      </trkpt>
      <trkpt lat="47.3005250" lon="6.9618890">
        <ele>794.8</ele>
        <time>2022-07-21T08:21:35Z</time>
      </trkpt>
      <trkpt lat="47.3005170" lon="6.9618840">
        <ele>794.7</ele>
        <time>2022-07-21T08:21:36Z</time>
      </trkpt>
      <trkpt lat="47.3005080" lon="6.9618810">
        <ele>794.5</ele>
        <time>2022-07-21T08:21:38Z</time>
      </trkpt>
      <trkpt lat="47.3005040" lon="6.9618790">
        <ele>794.4</ele>
        <time>2022-07-21T08:21:39Z</time>
      </trkpt>
      <trkpt lat="47.3005040" lon="6.9618760">
        <ele>794.4</ele>
        <time>2022-07-21T08:21:40Z</time>
      </trkpt>
      <trkpt lat="47.3005040" lon="6.9618730">
        <ele>794.4</ele>
        <time>2022-07-21T08:21:41Z</time>
      </trkpt>
      <trkpt lat="47.3005040" lon="6.9618680">
        <ele>794.3</ele>
        <time>2022-07-21T08:21:42Z</time>
      </trkpt>
      <trkpt lat="47.3005010" lon="6.9618650">
        <ele>794.2</ele>
        <time>2022-07-21T08:21:43Z</time>
      </trkpt>
      <trkpt lat="47.3004980" lon="6.9618620">
        <ele>794.2</ele>
        <time>2022-07-21T08:21:44Z</time>
      </trkpt>
      <trkpt lat="47.3004970" lon="6.9618600">
        <ele>794.2</ele>
        <time>2022-07-21T08:21:45Z</time>
      </trkpt>
      <trkpt lat="47.3004980" lon="6.9618570">
        <ele>794.1</ele>
        <time>2022-07-21T08:21:46Z</time>
      </trkpt>
      <trkpt lat="47.3005030" lon="6.9618560">
        <ele>794.0</ele>
        <time>2022-07-21T08:21:47Z</time>
      </trkpt>
      <trkpt lat="47.3005050" lon="6.9618550">
        <ele>794.0</ele>
        <time>2022-07-21T08:21:48Z</time>
      </trkpt>
      <trkpt lat="47.3005080" lon="6.9618560">
        <ele>794.0</ele>
        <time>2022-07-21T08:21:49Z</time>
      </trkpt>
      <trkpt lat="47.3005110" lon="6.9618570">
        <ele>793.9</ele>
        <time>2022-07-21T08:21:50Z</time>
      </trkpt>
      <trkpt lat="47.3005120" lon="6.9618600">
        <ele>793.9</ele>
        <time>2022-07-21T08:21:51Z</time>
      </trkpt>
      <trkpt lat="47.3005140" lon="6.9618650">
        <ele>793.8</ele>
        <time>2022-07-21T08:21:52Z</time>
      </trkpt>
      <trkpt lat="47.3005150" lon="6.9618700">
        <ele>793.7</ele>
        <time>2022-07-21T08:21:53Z</time>
      </trkpt>
      <trkpt lat="47.3005160" lon="6.9618760">
        <ele>793.7</ele>
        <time>2022-07-21T08:21:54Z</time>
      </trkpt>
      <trkpt lat="47.3005160" lon="6.9618820">
        <ele>793.6</ele>
        <time>2022-07-21T08:21:55Z</time>
      </trkpt>
      <trkpt lat="47.3004880" lon="6.9618880">
        <ele>793.1</ele>
        <time>2022-07-21T08:22:10Z</time>
      </trkpt>
      <trkpt lat="47.3004860" lon="6.9618910">
        <ele>793.1</ele>
        <time>2022-07-21T08:22:11Z</time>
      </trkpt>
      <trkpt lat="47.3004830" lon="6.9618890">
        <ele>793.0</ele>
        <time>2022-07-21T08:22:12Z</time>
      </trkpt>
      <trkpt lat="47.3004780" lon="6.9618870">
        <ele>793.0</ele>
        <time>2022-07-21T08:22:13Z</time>
      </trkpt>
      <trkpt lat="47.3004680" lon="6.9618830">
        <ele>792.8</ele>
        <time>2022-07-21T08:22:14Z</time>
      </trkpt>
      <trkpt lat="47.3004630" lon="6.9618810">
        <ele>792.7</ele>
        <time>2022-07-21T08:22:16Z</time>
      </trkpt>
      <trkpt lat="47.3004540" lon="6.9618770">
        <ele>792.6</ele>
        <time>2022-07-21T08:22:17Z</time>
      </trkpt>
      <trkpt lat="47.3004470" lon="6.9618750">
        <ele>792.4</ele>
        <time>2022-07-21T08:22:18Z</time>
      </trkpt>
      <trkpt lat="47.3004360" lon="6.9618750">
        <ele>792.3</ele>
        <time>2022-07-21T08:22:19Z</time>
      </trkpt>
      <trkpt lat="47.3004210" lon="6.9618750">
        <ele>792.0</ele>
        <time>2022-07-21T08:22:20Z</time>
      </trkpt>
      <trkpt lat="47.3003930" lon="6.9618690">
        <ele>791.6</ele>
        <time>2022-07-21T08:22:21Z</time>
      </trkpt>
      <trkpt lat="47.3003790" lon="6.9618630">
        <ele>791.4</ele>
        <time>2022-07-21T08:22:22Z</time>
      </trkpt>
      <trkpt lat="47.3003470" lon="6.9618460">
        <ele>790.9</ele>
        <time>2022-07-21T08:22:23Z</time>
      </trkpt>
      <trkpt lat="47.3003370" lon="6.9618410">
        <ele>790.8</ele>
        <time>2022-07-21T08:22:24Z</time>
      </trkpt>
      <trkpt lat="47.3003050" lon="6.9618270">
        <ele>790.4</ele>
        <time>2022-07-21T08:22:26Z</time>
      </trkpt>
      <trkpt lat="47.3002730" lon="6.9618140">
        <ele>790.0</ele>
        <time>2022-07-21T08:22:27Z</time>
      </trkpt>
      <trkpt lat="47.3002370" lon="6.9617940">
        <ele>789.5</ele>
        <time>2022-07-21T08:22:28Z</time>
      </trkpt>
      <trkpt lat="47.3002110" lon="6.9617790">
        <ele>789.2</ele>
        <time>2022-07-21T08:22:29Z</time>
      </trkpt>
      <trkpt lat="47.3002030" lon="6.9617770">
        <ele>789.2</ele>
        <time>2022-07-21T08:22:30Z</time>
      </trkpt>
      <trkpt lat="47.3001680" lon="6.9617780">
        <ele>788.8</ele>
        <time>2022-07-21T08:22:31Z</time>
      </trkpt>
      <trkpt lat="47.3001580" lon="6.9617770">
        <ele>788.7</ele>
        <time>2022-07-21T08:22:32Z</time>
      </trkpt>
      <trkpt lat="47.3001280" lon="6.9617700">
        <ele>788.4</ele>
        <time>2022-07-21T08:22:34Z</time>
      </trkpt>
      <trkpt lat="47.3000980" lon="6.9617520">
        <ele>788.2</ele>
        <time>2022-07-21T08:22:35Z</time>
      </trkpt>
      <trkpt lat="47.3000700" lon="6.9617330">
        <ele>787.9</ele>
        <time>2022-07-21T08:22:36Z</time>
      </trkpt>
      <trkpt lat="47.3000430" lon="6.9617110">
        <ele>787.7</ele>
        <time>2022-07-21T08:22:37Z</time>
      </trkpt>
      <trkpt lat="47.3000150" lon="6.9616900">
        <ele>787.4</ele>
        <time>2022-07-21T08:22:38Z</time>
      </trkpt>
      <trkpt lat="47.3000000" lon="6.9616790">
        <ele>787.3</ele>
        <time>2022-07-21T08:22:39Z</time>
      </trkpt>
      <trkpt lat="47.2999870" lon="6.9616670">
        <ele>787.2</ele>
        <time>2022-07-21T08:22:40Z</time>
      </trkpt>
      <trkpt lat="47.2999740" lon="6.9616480">
        <ele>787.1</ele>
        <time>2022-07-21T08:22:41Z</time>
      </trkpt>
      <trkpt lat="47.2999630" lon="6.9616350">
        <ele>787.1</ele>
        <time>2022-07-21T08:22:42Z</time>
      </trkpt>
      <trkpt lat="47.2999330" lon="6.9616070">
        <ele>786.9</ele>
        <time>2022-07-21T08:22:43Z</time>
      </trkpt>
      <trkpt lat="47.2999210" lon="6.9615960">
        <ele>786.8</ele>
        <time>2022-07-21T08:22:44Z</time>
      </trkpt>
      <trkpt lat="47.2999120" lon="6.9615880">
        <ele>786.8</ele>
        <time>2022-07-21T08:22:45Z</time>
      </trkpt>
      <trkpt lat="47.2999040" lon="6.9615780">
        <ele>786.7</ele>
        <time>2022-07-21T08:22:46Z</time>
      </trkpt>
      <trkpt lat="47.2998920" lon="6.9615610">
        <ele>786.7</ele>
        <time>2022-07-21T08:22:48Z</time>
      </trkpt>
      <trkpt lat="47.2998840" lon="6.9615460">
        <ele>786.6</ele>
        <time>2022-07-21T08:22:49Z</time>
      </trkpt>
      <trkpt lat="47.2998760" lon="6.9615350">
        <ele>786.5</ele>
        <time>2022-07-21T08:22:50Z</time>
      </trkpt>
      <trkpt lat="47.2998670" lon="6.9615240">
        <ele>786.5</ele>
        <time>2022-07-21T08:22:52Z</time>
      </trkpt>
      <trkpt lat="47.2998530" lon="6.9615080">
        <ele>786.4</ele>
        <time>2022-07-21T08:22:53Z</time>
      </trkpt>
      <trkpt lat="47.2998350" lon="6.9614940">
        <ele>786.3</ele>
        <time>2022-07-21T08:22:55Z</time>
      </trkpt>
      <trkpt lat="47.2998060" lon="6.9614670">
        <ele>786.2</ele>
        <time>2022-07-21T08:22:56Z</time>
      </trkpt>
      <trkpt lat="47.2997980" lon="6.9614600">
        <ele>786.1</ele>
        <time>2022-07-21T08:22:57Z</time>
      </trkpt>
      <trkpt lat="47.2997430" lon="6.9614130">
        <ele>785.8</ele>
        <time>2022-07-21T08:22:58Z</time>
      </trkpt>
      <trkpt lat="47.2997100" lon="6.9613900">
        <ele>785.5</ele>
        <time>2022-07-21T08:22:59Z</time>
      </trkpt>
      <trkpt lat="47.2996810" lon="6.9613990">
        <ele>785.3</ele>
        <time>2022-07-21T08:23:00Z</time>
      </trkpt>
      <trkpt lat="47.2996430" lon="6.9613680">
        <ele>784.9</ele>
        <time>2022-07-21T08:23:02Z</time>
      </trkpt>
      <trkpt lat="47.2996060" lon="6.9613080">
        <ele>784.4</ele>
        <time>2022-07-21T08:23:03Z</time>
      </trkpt>
      <trkpt lat="47.2995700" lon="6.9612680">
        <ele>783.9</ele>
        <time>2022-07-21T08:23:04Z</time>
      </trkpt>
      <trkpt lat="47.2995060" lon="6.9612060">
        <ele>783.0</ele>
        <time>2022-07-21T08:23:05Z</time>
      </trkpt>
      <trkpt lat="47.2994240" lon="6.9610700">
        <ele>781.7</ele>
        <time>2022-07-21T08:23:07Z</time>
      </trkpt>
      <trkpt lat="47.2993870" lon="6.9610190">
        <ele>781.2</ele>
        <time>2022-07-21T08:23:08Z</time>
      </trkpt>
      <trkpt lat="47.2993550" lon="6.9609670">
        <ele>780.6</ele>
        <time>2022-07-21T08:23:09Z</time>
      </trkpt>
      <trkpt lat="47.2993290" lon="6.9608910">
        <ele>780.0</ele>
        <time>2022-07-21T08:23:11Z</time>
      </trkpt>
      <trkpt lat="47.2992680" lon="6.9608110">
        <ele>779.3</ele>
        <time>2022-07-21T08:23:12Z</time>
      </trkpt>
      <trkpt lat="47.2992460" lon="6.9607830">
        <ele>779.0</ele>
        <time>2022-07-21T08:23:13Z</time>
      </trkpt>
      <trkpt lat="47.2992340" lon="6.9607710">
        <ele>778.9</ele>
        <time>2022-07-21T08:23:14Z</time>
      </trkpt>
      <trkpt lat="47.2992120" lon="6.9607320">
        <ele>778.6</ele>
        <time>2022-07-21T08:23:15Z</time>
      </trkpt>
      <trkpt lat="47.2991830" lon="6.9606960">
        <ele>778.2</ele>
        <time>2022-07-21T08:23:17Z</time>
      </trkpt>
      <trkpt lat="47.2991550" lon="6.9606530">
        <ele>777.9</ele>
        <time>2022-07-21T08:23:18Z</time>
      </trkpt>
      <trkpt lat="47.2991320" lon="6.9606260">
        <ele>777.6</ele>
        <time>2022-07-21T08:23:19Z</time>
      </trkpt>
      <trkpt lat="47.2991060" lon="6.9605940">
        <ele>777.3</ele>
        <time>2022-07-21T08:23:21Z</time>
      </trkpt>
      <trkpt lat="47.2990800" lon="6.9605810">
        <ele>777.0</ele>
        <time>2022-07-21T08:23:22Z</time>
      </trkpt>
      <trkpt lat="47.2990450" lon="6.9605410">
        <ele>776.5</ele>
        <time>2022-07-21T08:23:23Z</time>
      </trkpt>
      <trkpt lat="47.2990110" lon="6.9604980">
        <ele>775.9</ele>
        <time>2022-07-21T08:23:24Z</time>
      </trkpt>
      <trkpt lat="47.2989810" lon="6.9604560">
        <ele>775.4</ele>
        <time>2022-07-21T08:23:25Z</time>
      </trkpt>
      <trkpt lat="47.2989590" lon="6.9604250">
        <ele>775.0</ele>
        <time>2022-07-21T08:23:26Z</time>
      </trkpt>
      <trkpt lat="47.2989340" lon="6.9603800">
        <ele>774.5</ele>
        <time>2022-07-21T08:23:27Z</time>
      </trkpt>
      <trkpt lat="47.2989100" lon="6.9603380">
        <ele>774.0</ele>
        <time>2022-07-21T08:23:28Z</time>
      </trkpt>
      <trkpt lat="47.2988880" lon="6.9603020">
        <ele>773.6</ele>
        <time>2022-07-21T08:23:29Z</time>
      </trkpt>
      <trkpt lat="47.2988660" lon="6.9602640">
        <ele>773.2</ele>
        <time>2022-07-21T08:23:30Z</time>
      </trkpt>
      <trkpt lat="47.2988590" lon="6.9602520">
        <ele>773.1</ele>
        <time>2022-07-21T08:23:31Z</time>
      </trkpt>
      <trkpt lat="47.2988050" lon="6.9601880">
        <ele>772.4</ele>
        <time>2022-07-21T08:23:33Z</time>
      </trkpt>
      <trkpt lat="47.2987780" lon="6.9601590">
        <ele>772.1</ele>
        <time>2022-07-21T08:23:34Z</time>
      </trkpt>
      <trkpt lat="47.2987490" lon="6.9601270">
        <ele>771.7</ele>
        <time>2022-07-21T08:23:35Z</time>
      </trkpt>
      <trkpt lat="47.2987320" lon="6.9601090">
        <ele>771.5</ele>
        <time>2022-07-21T08:23:36Z</time>
      </trkpt>
      <trkpt lat="47.2987040" lon="6.9600850">
        <ele>771.2</ele>
        <time>2022-07-21T08:23:37Z</time>
      </trkpt>
      <trkpt lat="47.2986710" lon="6.9600580">
        <ele>770.8</ele>
        <time>2022-07-21T08:23:38Z</time>
      </trkpt>
      <trkpt lat="47.2986570" lon="6.9600470">
        <ele>770.7</ele>
        <time>2022-07-21T08:23:39Z</time>
      </trkpt>
      <trkpt lat="47.2986310" lon="6.9600200">
        <ele>770.3</ele>
        <time>2022-07-21T08:23:40Z</time>
      </trkpt>
      <trkpt lat="47.2986040" lon="6.9599790">
        <ele>769.9</ele>
        <time>2022-07-21T08:23:41Z</time>
      </trkpt>
      <trkpt lat="47.2985960" lon="6.9599640">
        <ele>769.7</ele>
        <time>2022-07-21T08:23:42Z</time>
      </trkpt>
      <trkpt lat="47.2985760" lon="6.9599290">
        <ele>769.4</ele>
        <time>2022-07-21T08:23:43Z</time>
      </trkpt>
      <trkpt lat="47.2985530" lon="6.9598950">
        <ele>769.0</ele>
        <time>2022-07-21T08:23:44Z</time>
      </trkpt>
      <trkpt lat="47.2985450" lon="6.9598850">
        <ele>768.9</ele>
        <time>2022-07-21T08:23:45Z</time>
      </trkpt>
      <trkpt lat="47.2985270" lon="6.9598520">
        <ele>768.6</ele>
        <time>2022-07-21T08:23:46Z</time>
      </trkpt>
      <trkpt lat="47.2985220" lon="6.9598410">
        <ele>768.5</ele>
        <time>2022-07-21T08:23:47Z</time>
      </trkpt>
      <trkpt lat="47.2985060" lon="6.9598070">
        <ele>768.1</ele>
        <time>2022-07-21T08:23:48Z</time>
      </trkpt>
      <trkpt lat="47.2984860" lon="6.9597730">
        <ele>767.7</ele>
        <time>2022-07-21T08:23:49Z</time>
      </trkpt>
      <trkpt lat="47.2984540" lon="6.9597320">
        <ele>767.0</ele>
        <time>2022-07-21T08:23:50Z</time>
      </trkpt>
      <trkpt lat="47.2984420" lon="6.9597160">
        <ele>766.8</ele>
        <time>2022-07-21T08:23:51Z</time>
      </trkpt>
      <trkpt lat="47.2984170" lon="6.9596850">
        <ele>766.2</ele>
        <time>2022-07-21T08:23:52Z</time>
      </trkpt>
      <trkpt lat="47.2983860" lon="6.9596420">
        <ele>765.5</ele>
        <time>2022-07-21T08:23:53Z</time>
      </trkpt>
      <trkpt lat="47.2983550" lon="6.9595990">
        <ele>764.7</ele>
        <time>2022-07-21T08:23:54Z</time>
      </trkpt>
      <trkpt lat="47.2983280" lon="6.9595620">
        <ele>764.1</ele>
        <time>2022-07-21T08:23:55Z</time>
      </trkpt>
      <trkpt lat="47.2982950" lon="6.9595260">
        <ele>763.4</ele>
        <time>2022-07-21T08:23:56Z</time>
      </trkpt>
      <trkpt lat="47.2982710" lon="6.9595050">
        <ele>763.0</ele>
        <time>2022-07-21T08:23:57Z</time>
      </trkpt>
      <trkpt lat="47.2982360" lon="6.9594820">
        <ele>762.3</ele>
        <time>2022-07-21T08:23:58Z</time>
      </trkpt>
      <trkpt lat="47.2982230" lon="6.9594750">
        <ele>762.1</ele>
        <time>2022-07-21T08:23:59Z</time>
      </trkpt>
      <trkpt lat="47.2981920" lon="6.9594570">
        <ele>761.5</ele>
        <time>2022-07-21T08:24:00Z</time>
      </trkpt>
      <trkpt lat="47.2981640" lon="6.9594380">
        <ele>760.9</ele>
        <time>2022-07-21T08:24:01Z</time>
      </trkpt>
      <trkpt lat="47.2981380" lon="6.9594170">
        <ele>760.3</ele>
        <time>2022-07-21T08:24:02Z</time>
      </trkpt>
      <trkpt lat="47.2981060" lon="6.9593790">
        <ele>759.5</ele>
        <time>2022-07-21T08:24:03Z</time>
      </trkpt>
      <trkpt lat="47.2980950" lon="6.9593640">
        <ele>759.2</ele>
        <time>2022-07-21T08:24:04Z</time>
      </trkpt>
      <trkpt lat="47.2980640" lon="6.9593200">
        <ele>758.3</ele>
        <time>2022-07-21T08:24:05Z</time>
      </trkpt>
      <trkpt lat="47.2980330" lon="6.9592740">
        <ele>757.5</ele>
        <time>2022-07-21T08:24:06Z</time>
      </trkpt>
      <trkpt lat="47.2980020" lon="6.9592220">
        <ele>756.6</ele>
        <time>2022-07-21T08:24:07Z</time>
      </trkpt>
      <trkpt lat="47.2979780" lon="6.9591750">
        <ele>755.9</ele>
        <time>2022-07-21T08:24:08Z</time>
      </trkpt>
      <trkpt lat="47.2979570" lon="6.9591100">
        <ele>755.1</ele>
        <time>2022-07-21T08:24:09Z</time>
      </trkpt>
      <trkpt lat="47.2979350" lon="6.9590370">
        <ele>754.3</ele>
        <time>2022-07-21T08:24:10Z</time>
      </trkpt>
      <trkpt lat="47.2979090" lon="6.9589640">
        <ele>753.6</ele>
        <time>2022-07-21T08:24:11Z</time>
      </trkpt>
      <trkpt lat="47.2978870" lon="6.9588970">
        <ele>752.9</ele>
        <time>2022-07-21T08:24:12Z</time>
      </trkpt>
      <trkpt lat="47.2978740" lon="6.9588500">
        <ele>752.5</ele>
        <time>2022-07-21T08:24:13Z</time>
      </trkpt>
      <trkpt lat="47.2978620" lon="6.9588040">
        <ele>752.1</ele>
        <time>2022-07-21T08:24:14Z</time>
      </trkpt>
      <trkpt lat="47.2978510" lon="6.9587590">
        <ele>751.8</ele>
        <time>2022-07-21T08:24:15Z</time>
      </trkpt>
      <trkpt lat="47.2978370" lon="6.9587060">
        <ele>751.4</ele>
        <time>2022-07-21T08:24:16Z</time>
      </trkpt>
      <trkpt lat="47.2978200" lon="6.9586390">
        <ele>751.0</ele>
        <time>2022-07-21T08:24:17Z</time>
      </trkpt>
      <trkpt lat="47.2978030" lon="6.9585670">
        <ele>750.6</ele>
        <time>2022-07-21T08:24:18Z</time>
      </trkpt>
      <trkpt lat="47.2977940" lon="6.9585110">
        <ele>750.3</ele>
        <time>2022-07-21T08:24:19Z</time>
      </trkpt>
      <trkpt lat="47.2977930" lon="6.9584690">
        <ele>750.1</ele>
        <time>2022-07-21T08:24:20Z</time>
      </trkpt>
      <trkpt lat="47.2977910" lon="6.9584190">
        <ele>749.8</ele>
        <time>2022-07-21T08:24:21Z</time>
      </trkpt>
      <trkpt lat="47.2977880" lon="6.9584040">
        <ele>749.8</ele>
        <time>2022-07-21T08:24:22Z</time>
      </trkpt>
      <trkpt lat="47.2977800" lon="6.9583530">
        <ele>749.6</ele>
        <time>2022-07-21T08:24:23Z</time>
      </trkpt>
      <trkpt lat="47.2977770" lon="6.9583370">
        <ele>749.5</ele>
        <time>2022-07-21T08:24:24Z</time>
      </trkpt>
      <trkpt lat="47.2977690" lon="6.9582840">
        <ele>749.4</ele>
        <time>2022-07-21T08:24:25Z</time>
      </trkpt>
      <trkpt lat="47.2977670" lon="6.9582670">
        <ele>749.3</ele>
        <time>2022-07-21T08:24:26Z</time>
      </trkpt>
      <trkpt lat="47.2977610" lon="6.9582260">
        <ele>749.2</ele>
        <time>2022-07-21T08:24:27Z</time>
      </trkpt>
      <trkpt lat="47.2977500" lon="6.9581780">
        <ele>749.1</ele>
        <time>2022-07-21T08:24:28Z</time>
      </trkpt>
      <trkpt lat="47.2977360" lon="6.9581290">
        <ele>749.0</ele>
        <time>2022-07-21T08:24:29Z</time>
      </trkpt>
      <trkpt lat="47.2977300" lon="6.9581140">
        <ele>749.0</ele>
        <time>2022-07-21T08:24:30Z</time>
      </trkpt>
      <trkpt lat="47.2977120" lon="6.9580760">
        <ele>748.9</ele>
        <time>2022-07-21T08:24:31Z</time>
      </trkpt>
      <trkpt lat="47.2977050" lon="6.9580600">
        <ele>748.9</ele>
        <time>2022-07-21T08:24:32Z</time>
      </trkpt>
      <trkpt lat="47.2976900" lon="6.9580100">
        <ele>748.8</ele>
        <time>2022-07-21T08:24:33Z</time>
      </trkpt>
      <trkpt lat="47.2976810" lon="6.9579670">
        <ele>748.7</ele>
        <time>2022-07-21T08:24:34Z</time>
      </trkpt>
      <trkpt lat="47.2976720" lon="6.9579240">
        <ele>748.6</ele>
        <time>2022-07-21T08:24:35Z</time>
      </trkpt>
      <trkpt lat="47.2976620" lon="6.9578840">
        <ele>748.4</ele>
        <time>2022-07-21T08:24:36Z</time>
      </trkpt>
      <trkpt lat="47.2976510" lon="6.9578450">
        <ele>748.3</ele>
        <time>2022-07-21T08:24:37Z</time>
      </trkpt>
      <trkpt lat="47.2976390" lon="6.9577950">
        <ele>748.2</ele>
        <time>2022-07-21T08:24:38Z</time>
      </trkpt>
      <trkpt lat="47.2976290" lon="6.9577380">
        <ele>748.0</ele>
        <time>2022-07-21T08:24:39Z</time>
      </trkpt>
      <trkpt lat="47.2976210" lon="6.9576880">
        <ele>747.8</ele>
        <time>2022-07-21T08:24:40Z</time>
      </trkpt>
      <trkpt lat="47.2976130" lon="6.9576310">
        <ele>747.6</ele>
        <time>2022-07-21T08:24:41Z</time>
      </trkpt>
      <trkpt lat="47.2976000" lon="6.9575680">
        <ele>747.3</ele>
        <time>2022-07-21T08:24:42Z</time>
      </trkpt>
      <trkpt lat="47.2975820" lon="6.9575060">
        <ele>746.9</ele>
        <time>2022-07-21T08:24:43Z</time>
      </trkpt>
      <trkpt lat="47.2975640" lon="6.9574390">
        <ele>746.5</ele>
        <time>2022-07-21T08:24:44Z</time>
      </trkpt>
      <trkpt lat="47.2975550" lon="6.9573990">
        <ele>746.3</ele>
        <time>2022-07-21T08:24:45Z</time>
      </trkpt>
      <trkpt lat="47.2975490" lon="6.9573400">
        <ele>746.0</ele>
        <time>2022-07-21T08:24:46Z</time>
      </trkpt>
      <trkpt lat="47.2975390" lon="6.9572830">
        <ele>745.7</ele>
        <time>2022-07-21T08:24:47Z</time>
      </trkpt>
      <trkpt lat="47.2975370" lon="6.9572350">
        <ele>745.4</ele>
        <time>2022-07-21T08:24:48Z</time>
      </trkpt>
      <trkpt lat="47.2975280" lon="6.9571860">
        <ele>745.1</ele>
        <time>2022-07-21T08:24:49Z</time>
      </trkpt>
      <trkpt lat="47.2975200" lon="6.9571280">
        <ele>744.8</ele>
        <time>2022-07-21T08:24:50Z</time>
      </trkpt>
      <trkpt lat="47.2975180" lon="6.9570720">
        <ele>744.5</ele>
        <time>2022-07-21T08:24:51Z</time>
      </trkpt>
      <trkpt lat="47.2975150" lon="6.9570130">
        <ele>744.2</ele>
        <time>2022-07-21T08:24:52Z</time>
      </trkpt>
      <trkpt lat="47.2975140" lon="6.9569540">
        <ele>743.8</ele>
        <time>2022-07-21T08:24:53Z</time>
      </trkpt>
      <trkpt lat="47.2975150" lon="6.9568890">
        <ele>743.4</ele>
        <time>2022-07-21T08:24:54Z</time>
      </trkpt>
      <trkpt lat="47.2975130" lon="6.9568190">
        <ele>743.0</ele>
        <time>2022-07-21T08:24:55Z</time>
      </trkpt>
      <trkpt lat="47.2975090" lon="6.9567440">
        <ele>742.6</ele>
        <time>2022-07-21T08:24:56Z</time>
      </trkpt>
      <trkpt lat="47.2975000" lon="6.9566620">
        <ele>742.1</ele>
        <time>2022-07-21T08:24:57Z</time>
      </trkpt>
      <trkpt lat="47.2974930" lon="6.9565930">
        <ele>741.8</ele>
        <time>2022-07-21T08:24:58Z</time>
      </trkpt>
      <trkpt lat="47.2974920" lon="6.9565420">
        <ele>741.5</ele>
        <time>2022-07-21T08:24:59Z</time>
      </trkpt>
      <trkpt lat="47.2974920" lon="6.9564890">
        <ele>741.2</ele>
        <time>2022-07-21T08:25:00Z</time>
      </trkpt>
      <trkpt lat="47.2974960" lon="6.9564740">
        <ele>741.1</ele>
        <time>2022-07-21T08:25:01Z</time>
      </trkpt>
      <trkpt lat="47.2974980" lon="6.9564340">
        <ele>740.9</ele>
        <time>2022-07-21T08:25:02Z</time>
      </trkpt>
      <trkpt lat="47.2974980" lon="6.9563870">
        <ele>740.6</ele>
        <time>2022-07-21T08:25:03Z</time>
      </trkpt>
      <trkpt lat="47.2974980" lon="6.9563300">
        <ele>740.3</ele>
        <time>2022-07-21T08:25:04Z</time>
      </trkpt>
      <trkpt lat="47.2974900" lon="6.9562460">
        <ele>739.8</ele>
        <time>2022-07-21T08:25:05Z</time>
      </trkpt>
      <trkpt lat="47.2974860" lon="6.9561760">
        <ele>739.4</ele>
        <time>2022-07-21T08:25:06Z</time>
      </trkpt>
      <trkpt lat="47.2974950" lon="6.9561300">
        <ele>739.1</ele>
        <time>2022-07-21T08:25:07Z</time>
      </trkpt>
      <trkpt lat="47.2975090" lon="6.9560880">
        <ele>738.8</ele>
        <time>2022-07-21T08:25:08Z</time>
      </trkpt>
      <trkpt lat="47.2975230" lon="6.9560100">
        <ele>738.1</ele>
        <time>2022-07-21T08:25:09Z</time>
      </trkpt>
      <trkpt lat="47.2975230" lon="6.9559750">
        <ele>737.8</ele>
        <time>2022-07-21T08:25:10Z</time>
      </trkpt>
      <trkpt lat="47.2975200" lon="6.9559460">
        <ele>737.5</ele>
        <time>2022-07-21T08:25:12Z</time>
      </trkpt>
      <trkpt lat="47.2974950" lon="6.9559260">
        <ele>737.1</ele>
        <time>2022-07-21T08:25:13Z</time>
      </trkpt>
      <trkpt lat="47.2974810" lon="6.9559200">
        <ele>736.8</ele>
        <time>2022-07-21T08:25:14Z</time>
      </trkpt>
      <trkpt lat="47.2974540" lon="6.9559430">
        <ele>736.3</ele>
        <time>2022-07-21T08:25:16Z</time>
      </trkpt>
      <trkpt lat="47.2974480" lon="6.9559580">
        <ele>736.1</ele>
        <time>2022-07-21T08:25:17Z</time>
      </trkpt>
      <trkpt lat="47.2974340" lon="6.9560040">
        <ele>735.5</ele>
        <time>2022-07-21T08:25:18Z</time>
      </trkpt>
      <trkpt lat="47.2974300" lon="6.9560180">
        <ele>735.3</ele>
        <time>2022-07-21T08:25:19Z</time>
      </trkpt>
      <trkpt lat="47.2973990" lon="6.9560900">
        <ele>734.3</ele>
        <time>2022-07-21T08:25:21Z</time>
      </trkpt>
      <trkpt lat="47.2973430" lon="6.9561890">
        <ele>732.9</ele>
        <time>2022-07-21T08:25:22Z</time>
      </trkpt>
      <trkpt lat="47.2973240" lon="6.9562460">
        <ele>732.3</ele>
        <time>2022-07-21T08:25:23Z</time>
      </trkpt>
      <trkpt lat="47.2972980" lon="6.9562820">
        <ele>731.8</ele>
        <time>2022-07-21T08:25:24Z</time>
      </trkpt>
      <trkpt lat="47.2972870" lon="6.9563320">
        <ele>731.4</ele>
        <time>2022-07-21T08:25:25Z</time>
      </trkpt>
      <trkpt lat="47.2972850" lon="6.9563560">
        <ele>731.1</ele>
        <time>2022-07-21T08:25:26Z</time>
      </trkpt>
      <trkpt lat="47.2972770" lon="6.9564050">
        <ele>730.7</ele>
        <time>2022-07-21T08:25:27Z</time>
      </trkpt>
      <trkpt lat="47.2972710" lon="6.9564550">
        <ele>730.3</ele>
        <time>2022-07-21T08:25:28Z</time>
      </trkpt>
      <trkpt lat="47.2972700" lon="6.9565150">
        <ele>729.8</ele>
        <time>2022-07-21T08:25:29Z</time>
      </trkpt>
      <trkpt lat="47.2972690" lon="6.9565710">
        <ele>729.3</ele>
        <time>2022-07-21T08:25:31Z</time>
      </trkpt>
      <trkpt lat="47.2972590" lon="6.9566340">
        <ele>728.8</ele>
        <time>2022-07-21T08:25:32Z</time>
      </trkpt>
      <trkpt lat="47.2972540" lon="6.9566990">
        <ele>728.2</ele>
        <time>2022-07-21T08:25:33Z</time>
      </trkpt>
      <trkpt lat="47.2972530" lon="6.9567480">
        <ele>727.7</ele>
        <time>2022-07-21T08:25:34Z</time>
      </trkpt>
      <trkpt lat="47.2972450" lon="6.9567960">
        <ele>727.3</ele>
        <time>2022-07-21T08:25:35Z</time>
      </trkpt>
      <trkpt lat="47.2972390" lon="6.9568790">
        <ele>726.5</ele>
        <time>2022-07-21T08:25:37Z</time>
      </trkpt>
      <trkpt lat="47.2972430" lon="6.9569300">
        <ele>726.0</ele>
        <time>2022-07-21T08:25:38Z</time>
      </trkpt>
      <trkpt lat="47.2972470" lon="6.9569540">
        <ele>725.7</ele>
        <time>2022-07-21T08:25:39Z</time>
      </trkpt>
      <trkpt lat="47.2972460" lon="6.9570050">
        <ele>725.3</ele>
        <time>2022-07-21T08:25:40Z</time>
      </trkpt>
      <trkpt lat="47.2972350" lon="6.9570820">
        <ele>724.5</ele>
        <time>2022-07-21T08:25:41Z</time>
      </trkpt>
      <trkpt lat="47.2972280" lon="6.9571670">
        <ele>723.8</ele>
        <time>2022-07-21T08:25:43Z</time>
      </trkpt>
      <trkpt lat="47.2972350" lon="6.9572740">
        <ele>722.9</ele>
        <time>2022-07-21T08:25:45Z</time>
      </trkpt>
      <trkpt lat="47.2972330" lon="6.9573670">
        <ele>722.1</ele>
        <time>2022-07-21T08:25:46Z</time>
      </trkpt>
      <trkpt lat="47.2972280" lon="6.9574560">
        <ele>721.4</ele>
        <time>2022-07-21T08:25:48Z</time>
      </trkpt>
      <trkpt lat="47.2971680" lon="6.9575910">
        <ele>720.2</ele>
        <time>2022-07-21T08:25:49Z</time>
      </trkpt>
      <trkpt lat="47.2971410" lon="6.9576720">
        <ele>719.4</ele>
        <time>2022-07-21T08:25:50Z</time>
      </trkpt>
      <trkpt lat="47.2971280" lon="6.9577380">
        <ele>718.8</ele>
        <time>2022-07-21T08:25:51Z</time>
      </trkpt>
      <trkpt lat="47.2971330" lon="6.9577650">
        <ele>718.6</ele>
        <time>2022-07-21T08:25:52Z</time>
      </trkpt>
      <trkpt lat="47.2971290" lon="6.9578080">
        <ele>718.2</ele>
        <time>2022-07-21T08:25:54Z</time>
      </trkpt>
      <trkpt lat="47.2971350" lon="6.9578600">
        <ele>717.8</ele>
        <time>2022-07-21T08:25:55Z</time>
      </trkpt>
      <trkpt lat="47.2971280" lon="6.9579060">
        <ele>717.4</ele>
        <time>2022-07-21T08:25:56Z</time>
      </trkpt>
      <trkpt lat="47.2971120" lon="6.9579640">
        <ele>716.8</ele>
        <time>2022-07-21T08:25:57Z</time>
      </trkpt>
      <trkpt lat="47.2971040" lon="6.9580190">
        <ele>716.3</ele>
        <time>2022-07-21T08:25:59Z</time>
      </trkpt>
      <trkpt lat="47.2970990" lon="6.9580710">
        <ele>715.8</ele>
        <time>2022-07-21T08:26:00Z</time>
      </trkpt>
      <trkpt lat="47.2970870" lon="6.9581350">
        <ele>715.2</ele>
        <time>2022-07-21T08:26:01Z</time>
      </trkpt>
      <trkpt lat="47.2970760" lon="6.9581920">
        <ele>714.7</ele>
        <time>2022-07-21T08:26:02Z</time>
      </trkpt>
      <trkpt lat="47.2970820" lon="6.9582710">
        <ele>714.1</ele>
        <time>2022-07-21T08:26:03Z</time>
      </trkpt>
      <trkpt lat="47.2970910" lon="6.9585000">
        <ele>712.4</ele>
        <time>2022-07-21T08:26:05Z</time>
      </trkpt>
      <trkpt lat="47.2970670" lon="6.9585890">
        <ele>711.7</ele>
        <time>2022-07-21T08:26:06Z</time>
      </trkpt>
      <trkpt lat="47.2970530" lon="6.9586570">
        <ele>711.3</ele>
        <time>2022-07-21T08:26:07Z</time>
      </trkpt>
      <trkpt lat="47.2970570" lon="6.9586990">
        <ele>711.0</ele>
        <time>2022-07-21T08:26:08Z</time>
      </trkpt>
      <trkpt lat="47.2970580" lon="6.9587490">
        <ele>710.6</ele>
        <time>2022-07-21T08:26:09Z</time>
      </trkpt>
      <trkpt lat="47.2970400" lon="6.9588460">
        <ele>709.8</ele>
        <time>2022-07-21T08:26:10Z</time>
      </trkpt>
      <trkpt lat="47.2970410" lon="6.9589090">
        <ele>709.2</ele>
        <time>2022-07-21T08:26:11Z</time>
      </trkpt>
      <trkpt lat="47.2970520" lon="6.9589470">
        <ele>708.8</ele>
        <time>2022-07-21T08:26:12Z</time>
      </trkpt>
      <trkpt lat="47.2970690" lon="6.9590150">
        <ele>708.2</ele>
        <time>2022-07-21T08:26:13Z</time>
      </trkpt>
      <trkpt lat="47.2970970" lon="6.9591520">
        <ele>707.6</ele>
        <time>2022-07-21T08:26:15Z</time>
      </trkpt>
      <trkpt lat="47.2971180" lon="6.9592280">
        <ele>707.4</ele>
        <time>2022-07-21T08:26:16Z</time>
      </trkpt>
      <trkpt lat="47.2971330" lon="6.9592950">
        <ele>707.2</ele>
        <time>2022-07-21T08:26:17Z</time>
      </trkpt>
      <trkpt lat="47.2971340" lon="6.9593480">
        <ele>707.0</ele>
        <time>2022-07-21T08:26:18Z</time>
      </trkpt>
      <trkpt lat="47.2971400" lon="6.9594040">
        <ele>706.8</ele>
        <time>2022-07-21T08:26:20Z</time>
      </trkpt>
      <trkpt lat="47.2971480" lon="6.9594550">
        <ele>706.7</ele>
        <time>2022-07-21T08:26:21Z</time>
      </trkpt>
      <trkpt lat="47.2971520" lon="6.9594700">
        <ele>706.6</ele>
        <time>2022-07-21T08:26:22Z</time>
      </trkpt>
      <trkpt lat="47.2971670" lon="6.9595080">
        <ele>706.5</ele>
        <time>2022-07-21T08:26:23Z</time>
      </trkpt>
      <trkpt lat="47.2971830" lon="6.9595520">
        <ele>706.4</ele>
        <time>2022-07-21T08:26:24Z</time>
      </trkpt>
      <trkpt lat="47.2971980" lon="6.9595770">
        <ele>706.3</ele>
        <time>2022-07-21T08:26:25Z</time>
      </trkpt>
      <trkpt lat="47.2972200" lon="6.9596170">
        <ele>706.1</ele>
        <time>2022-07-21T08:26:27Z</time>
      </trkpt>
      <trkpt lat="47.2972280" lon="6.9597000">
        <ele>705.9</ele>
        <time>2022-07-21T08:26:28Z</time>
      </trkpt>
      <trkpt lat="47.2972330" lon="6.9597490">
        <ele>705.8</ele>
        <time>2022-07-21T08:26:30Z</time>
      </trkpt>
      <trkpt lat="47.2972340" lon="6.9597910">
        <ele>705.7</ele>
        <time>2022-07-21T08:26:31Z</time>
      </trkpt>
      <trkpt lat="47.2972360" lon="6.9598480">
        <ele>705.5</ele>
        <time>2022-07-21T08:26:32Z</time>
      </trkpt>
      <trkpt lat="47.2972390" lon="6.9598680">
        <ele>705.5</ele>
        <time>2022-07-21T08:26:33Z</time>
      </trkpt>
      <trkpt lat="47.2972410" lon="6.9599130">
        <ele>705.4</ele>
        <time>2022-07-21T08:26:34Z</time>
      </trkpt>
      <trkpt lat="47.2972460" lon="6.9599550">
        <ele>705.3</ele>
        <time>2022-07-21T08:26:35Z</time>
      </trkpt>
      <trkpt lat="47.2972490" lon="6.9600190">
        <ele>705.1</ele>
        <time>2022-07-21T08:26:36Z</time>
      </trkpt>
      <trkpt lat="47.2972530" lon="6.9600990">
        <ele>704.9</ele>
        <time>2022-07-21T08:26:38Z</time>
      </trkpt>
      <trkpt lat="47.2972880" lon="6.9602160">
        <ele>704.6</ele>
        <time>2022-07-21T08:26:39Z</time>
      </trkpt>
      <trkpt lat="47.2973150" lon="6.9603030">
        <ele>704.4</ele>
        <time>2022-07-21T08:26:40Z</time>
      </trkpt>
      <trkpt lat="47.2973300" lon="6.9603370">
        <ele>704.2</ele>
        <time>2022-07-21T08:26:41Z</time>
      </trkpt>
      <trkpt lat="47.2973430" lon="6.9603790">
        <ele>704.1</ele>
        <time>2022-07-21T08:26:42Z</time>
      </trkpt>
      <trkpt lat="47.2973660" lon="6.9604490">
        <ele>703.9</ele>
        <time>2022-07-21T08:26:44Z</time>
      </trkpt>
      <trkpt lat="47.2973930" lon="6.9605130">
        <ele>703.7</ele>
        <time>2022-07-21T08:26:45Z</time>
      </trkpt>
      <trkpt lat="47.2974080" lon="6.9605670">
        <ele>703.5</ele>
        <time>2022-07-21T08:26:46Z</time>
      </trkpt>
      <trkpt lat="47.2974180" lon="6.9606150">
        <ele>703.4</ele>
        <time>2022-07-21T08:26:47Z</time>
      </trkpt>
      <trkpt lat="47.2974420" lon="6.9606990">
        <ele>703.2</ele>
        <time>2022-07-21T08:26:48Z</time>
      </trkpt>
      <trkpt lat="47.2974750" lon="6.9607900">
        <ele>703.0</ele>
        <time>2022-07-21T08:26:50Z</time>
      </trkpt>
      <trkpt lat="47.2975000" lon="6.9608740">
        <ele>702.8</ele>
        <time>2022-07-21T08:26:51Z</time>
      </trkpt>
      <trkpt lat="47.2975200" lon="6.9609360">
        <ele>702.6</ele>
        <time>2022-07-21T08:26:52Z</time>
      </trkpt>
      <trkpt lat="47.2975450" lon="6.9609980">
        <ele>702.4</ele>
        <time>2022-07-21T08:26:53Z</time>
      </trkpt>
      <trkpt lat="47.2975670" lon="6.9610580">
        <ele>702.3</ele>
        <time>2022-07-21T08:26:54Z</time>
      </trkpt>
      <trkpt lat="47.2976390" lon="6.9611850">
        <ele>701.9</ele>
        <time>2022-07-21T08:26:56Z</time>
      </trkpt>
      <trkpt lat="47.2976710" lon="6.9612350">
        <ele>701.7</ele>
        <time>2022-07-21T08:26:57Z</time>
      </trkpt>
      <trkpt lat="47.2977110" lon="6.9612800">
        <ele>701.5</ele>
        <time>2022-07-21T08:26:58Z</time>
      </trkpt>
      <trkpt lat="47.2977370" lon="6.9613000">
        <ele>701.3</ele>
        <time>2022-07-21T08:26:59Z</time>
      </trkpt>
      <trkpt lat="47.2977590" lon="6.9613270">
        <ele>701.2</ele>
        <time>2022-07-21T08:27:00Z</time>
      </trkpt>
      <trkpt lat="47.2977770" lon="6.9613490">
        <ele>701.1</ele>
        <time>2022-07-21T08:27:01Z</time>
      </trkpt>
      <trkpt lat="47.2978000" lon="6.9613800">
        <ele>701.0</ele>
        <time>2022-07-21T08:27:03Z</time>
      </trkpt>
      <trkpt lat="47.2978260" lon="6.9614060">
        <ele>700.8</ele>
        <time>2022-07-21T08:27:04Z</time>
      </trkpt>
      <trkpt lat="47.2978570" lon="6.9614370">
        <ele>700.7</ele>
        <time>2022-07-21T08:27:05Z</time>
      </trkpt>
      <trkpt lat="47.2978660" lon="6.9615030">
        <ele>700.5</ele>
        <time>2022-07-21T08:27:06Z</time>
      </trkpt>
      <trkpt lat="47.2978740" lon="6.9615800">
        <ele>700.4</ele>
        <time>2022-07-21T08:27:08Z</time>
      </trkpt>
      <trkpt lat="47.2978770" lon="6.9616500">
        <ele>700.2</ele>
        <time>2022-07-21T08:27:09Z</time>
      </trkpt>
      <trkpt lat="47.2978630" lon="6.9617660">
        <ele>700.0</ele>
        <time>2022-07-21T08:27:10Z</time>
      </trkpt>
      <trkpt lat="47.2978430" lon="6.9618520">
        <ele>699.8</ele>
        <time>2022-07-21T08:27:11Z</time>
      </trkpt>
      <trkpt lat="47.2978160" lon="6.9619150">
        <ele>699.6</ele>
        <time>2022-07-21T08:27:12Z</time>
      </trkpt>
      <trkpt lat="47.2977850" lon="6.9619450">
        <ele>699.5</ele>
        <time>2022-07-21T08:27:13Z</time>
      </trkpt>
      <trkpt lat="47.2977490" lon="6.9619750">
        <ele>699.4</ele>
        <time>2022-07-21T08:27:15Z</time>
      </trkpt>
      <trkpt lat="47.2977210" lon="6.9619870">
        <ele>699.2</ele>
        <time>2022-07-21T08:27:16Z</time>
      </trkpt>
      <trkpt lat="47.2976770" lon="6.9620050">
        <ele>699.1</ele>
        <time>2022-07-21T08:27:17Z</time>
      </trkpt>
      <trkpt lat="47.2976580" lon="6.9620120">
        <ele>699.0</ele>
        <time>2022-07-21T08:27:18Z</time>
      </trkpt>
      <trkpt lat="47.2976050" lon="6.9620430">
        <ele>698.8</ele>
        <time>2022-07-21T08:27:19Z</time>
      </trkpt>
      <trkpt lat="47.2975630" lon="6.9620670">
        <ele>698.6</ele>
        <time>2022-07-21T08:27:20Z</time>
      </trkpt>
      <trkpt lat="47.2975440" lon="6.9620740">
        <ele>698.5</ele>
        <time>2022-07-21T08:27:21Z</time>
      </trkpt>
      <trkpt lat="47.2975310" lon="6.9620770">
        <ele>698.4</ele>
        <time>2022-07-21T08:27:22Z</time>
      </trkpt>
      <trkpt lat="47.2974980" lon="6.9620990">
        <ele>698.2</ele>
        <time>2022-07-21T08:27:23Z</time>
      </trkpt>
      <trkpt lat="47.2974810" lon="6.9621100">
        <ele>698.0</ele>
        <time>2022-07-21T08:27:24Z</time>
      </trkpt>
      <trkpt lat="47.2974720" lon="6.9621170">
        <ele>697.8</ele>
        <time>2022-07-21T08:27:25Z</time>
      </trkpt>
      <trkpt lat="47.2974700" lon="6.9621190">
        <ele>697.8</ele>
        <time>2022-07-21T08:27:26Z</time>
      </trkpt>
      <trkpt lat="47.2974710" lon="6.9621190">
        <ele>697.8</ele>
        <time>2022-07-21T08:27:27Z</time>
      </trkpt>
      <trkpt lat="47.2974760" lon="6.9621170">
        <ele>697.7</ele>
        <time>2022-07-21T08:27:28Z</time>
      </trkpt>
      <trkpt lat="47.2974810" lon="6.9621140">
        <ele>697.7</ele>
        <time>2022-07-21T08:27:29Z</time>
      </trkpt>
      <trkpt lat="47.2974850" lon="6.9621110">
        <ele>697.6</ele>
        <time>2022-07-21T08:27:30Z</time>
      </trkpt>
      <trkpt lat="47.2974890" lon="6.9621080">
        <ele>697.6</ele>
        <time>2022-07-21T08:27:31Z</time>
      </trkpt>
      <trkpt lat="47.2974910" lon="6.9621050">
        <ele>697.5</ele>
        <time>2022-07-21T08:27:32Z</time>
      </trkpt>
      <trkpt lat="47.2974940" lon="6.9621020">
        <ele>697.5</ele>
        <time>2022-07-21T08:27:33Z</time>
      </trkpt>
      <trkpt lat="47.2974960" lon="6.9620990">
        <ele>697.4</ele>
        <time>2022-07-21T08:27:34Z</time>
      </trkpt>
      <trkpt lat="47.2975210" lon="6.9620260">
        <ele>696.7</ele>
        <time>2022-07-21T08:28:07Z</time>
      </trkpt>
      <trkpt lat="47.2975230" lon="6.9620200">
        <ele>696.6</ele>
        <time>2022-07-21T08:28:08Z</time>
      </trkpt>
      <trkpt lat="47.2975250" lon="6.9620170">
        <ele>696.5</ele>
        <time>2022-07-21T08:28:09Z</time>
      </trkpt>
      <trkpt lat="47.2975270" lon="6.9620160">
        <ele>696.5</ele>
        <time>2022-07-21T08:28:10Z</time>
      </trkpt>
      <trkpt lat="47.2975330" lon="6.9620090">
        <ele>696.4</ele>
        <time>2022-07-21T08:28:11Z</time>
      </trkpt>
      <trkpt lat="47.2975440" lon="6.9619900">
        <ele>696.1</ele>
        <time>2022-07-21T08:28:12Z</time>
      </trkpt>
      <trkpt lat="47.2975630" lon="6.9619640">
        <ele>695.6</ele>
        <time>2022-07-21T08:28:13Z</time>
      </trkpt>
      <trkpt lat="47.2975660" lon="6.9619370">
        <ele>695.3</ele>
        <time>2022-07-21T08:28:15Z</time>
      </trkpt>
      <trkpt lat="47.2975650" lon="6.9619070">
        <ele>694.9</ele>
        <time>2022-07-21T08:28:16Z</time>
      </trkpt>
      <trkpt lat="47.2975640" lon="6.9618950">
        <ele>694.8</ele>
        <time>2022-07-21T08:28:17Z</time>
      </trkpt>
      <trkpt lat="47.2975620" lon="6.9618820">
        <ele>694.6</ele>
        <time>2022-07-21T08:28:18Z</time>
      </trkpt>
      <trkpt lat="47.2975580" lon="6.9618740">
        <ele>694.5</ele>
        <time>2022-07-21T08:28:19Z</time>
      </trkpt>
      <trkpt lat="47.2975460" lon="6.9618560">
        <ele>694.1</ele>
        <time>2022-07-21T08:28:20Z</time>
      </trkpt>
      <trkpt lat="47.2975270" lon="6.9618350">
        <ele>693.7</ele>
        <time>2022-07-21T08:28:22Z</time>
      </trkpt>
      <trkpt lat="47.2975180" lon="6.9618270">
        <ele>693.5</ele>
        <time>2022-07-21T08:28:23Z</time>
      </trkpt>
      <trkpt lat="47.2975060" lon="6.9618100">
        <ele>693.2</ele>
        <time>2022-07-21T08:28:24Z</time>
      </trkpt>
      <trkpt lat="47.2974980" lon="6.9617900">
        <ele>692.9</ele>
        <time>2022-07-21T08:28:25Z</time>
      </trkpt>
      <trkpt lat="47.2974910" lon="6.9617750">
        <ele>692.7</ele>
        <time>2022-07-21T08:28:26Z</time>
      </trkpt>
      <trkpt lat="47.2974850" lon="6.9617660">
        <ele>692.5</ele>
        <time>2022-07-21T08:28:27Z</time>
      </trkpt>
      <trkpt lat="47.2974810" lon="6.9617620">
        <ele>692.4</ele>
        <time>2022-07-21T08:28:28Z</time>
      </trkpt>
      <trkpt lat="47.2974760" lon="6.9617580">
        <ele>692.3</ele>
        <time>2022-07-21T08:28:29Z</time>
      </trkpt>
      <trkpt lat="47.2974720" lon="6.9617540">
        <ele>692.3</ele>
        <time>2022-07-21T08:28:30Z</time>
      </trkpt>
      <trkpt lat="47.2974680" lon="6.9617510">
        <ele>692.2</ele>
        <time>2022-07-21T08:28:31Z</time>
      </trkpt>
      <trkpt lat="47.2974640" lon="6.9617470">
        <ele>692.1</ele>
        <time>2022-07-21T08:28:32Z</time>
      </trkpt>
      <trkpt lat="47.2974600" lon="6.9617430">
        <ele>692.0</ele>
        <time>2022-07-21T08:28:33Z</time>
      </trkpt>
      <trkpt lat="47.2974560" lon="6.9617390">
        <ele>691.9</ele>
        <time>2022-07-21T08:28:34Z</time>
      </trkpt>
      <trkpt lat="47.2974510" lon="6.9617350">
        <ele>691.8</ele>
        <time>2022-07-21T08:28:36Z</time>
      </trkpt>
      <trkpt lat="47.2974470" lon="6.9617320">
        <ele>691.7</ele>
        <time>2022-07-21T08:28:37Z</time>
      </trkpt>
      <trkpt lat="47.2974430" lon="6.9617280">
        <ele>691.7</ele>
        <time>2022-07-21T08:28:38Z</time>
      </trkpt>
      <trkpt lat="47.2974190" lon="6.9617070">
        <ele>691.2</ele>
        <time>2022-07-21T08:28:39Z</time>
      </trkpt>
      <trkpt lat="47.2973980" lon="6.9616850">
        <ele>690.7</ele>
        <time>2022-07-21T08:28:40Z</time>
      </trkpt>
      <trkpt lat="47.2973790" lon="6.9616580">
        <ele>690.2</ele>
        <time>2022-07-21T08:28:42Z</time>
      </trkpt>
      <trkpt lat="47.2973560" lon="6.9616370">
        <ele>689.7</ele>
        <time>2022-07-21T08:28:43Z</time>
      </trkpt>
      <trkpt lat="47.2973170" lon="6.9616230">
        <ele>689.0</ele>
        <time>2022-07-21T08:28:45Z</time>
      </trkpt>
      <trkpt lat="47.2973000" lon="6.9616140">
        <ele>688.6</ele>
        <time>2022-07-21T08:28:46Z</time>
      </trkpt>
      <trkpt lat="47.2972890" lon="6.9616010">
        <ele>688.4</ele>
        <time>2022-07-21T08:28:47Z</time>
      </trkpt>
      <trkpt lat="47.2972710" lon="6.9615820">
        <ele>687.9</ele>
        <time>2022-07-21T08:28:48Z</time>
      </trkpt>
      <trkpt lat="47.2972640" lon="6.9615770">
        <ele>687.8</ele>
        <time>2022-07-21T08:28:49Z</time>
      </trkpt>
      <trkpt lat="47.2972580" lon="6.9615720">
        <ele>687.6</ele>
        <time>2022-07-21T08:28:50Z</time>
      </trkpt>
      <trkpt lat="47.2972430" lon="6.9615580">
        <ele>687.3</ele>
        <time>2022-07-21T08:28:52Z</time>
      </trkpt>
      <trkpt lat="47.2972370" lon="6.9615500">
        <ele>687.1</ele>
        <time>2022-07-21T08:28:53Z</time>
      </trkpt>
      <trkpt lat="47.2972290" lon="6.9615460">
        <ele>687.0</ele>
        <time>2022-07-21T08:28:54Z</time>
      </trkpt>
      <trkpt lat="47.2972090" lon="6.9615190">
        <ele>686.4</ele>
        <time>2022-07-21T08:28:55Z</time>
      </trkpt>
      <trkpt lat="47.2971890" lon="6.9614810">
        <ele>685.8</ele>
        <time>2022-07-21T08:28:57Z</time>
      </trkpt>
      <trkpt lat="47.2971770" lon="6.9614570">
        <ele>685.4</ele>
        <time>2022-07-21T08:28:58Z</time>
      </trkpt>
      <trkpt lat="47.2971810" lon="6.9614310">
        <ele>685.1</ele>
        <time>2022-07-21T08:28:59Z</time>
      </trkpt>
      <trkpt lat="47.2971780" lon="6.9614190">
        <ele>684.9</ele>
        <time>2022-07-21T08:29:00Z</time>
      </trkpt>
      <trkpt lat="47.2971740" lon="6.9614120">
        <ele>684.8</ele>
        <time>2022-07-21T08:29:01Z</time>
      </trkpt>
      <trkpt lat="47.2971700" lon="6.9614060">
        <ele>684.7</ele>
        <time>2022-07-21T08:29:02Z</time>
      </trkpt>
      <trkpt lat="47.2971670" lon="6.9613990">
        <ele>684.6</ele>
        <time>2022-07-21T08:29:03Z</time>
      </trkpt>
      <trkpt lat="47.2971630" lon="6.9613920">
        <ele>684.5</ele>
        <time>2022-07-21T08:29:04Z</time>
      </trkpt>
      <trkpt lat="47.2971590" lon="6.9613860">
        <ele>684.4</ele>
        <time>2022-07-21T08:29:05Z</time>
      </trkpt>
      <trkpt lat="47.2971550" lon="6.9613790">
        <ele>684.3</ele>
        <time>2022-07-21T08:29:06Z</time>
      </trkpt>
      <trkpt lat="47.2971510" lon="6.9613720">
        <ele>684.1</ele>
        <time>2022-07-21T08:29:07Z</time>
      </trkpt>
      <trkpt lat="47.2971470" lon="6.9613660">
        <ele>684.0</ele>
        <time>2022-07-21T08:29:08Z</time>
      </trkpt>
      <trkpt lat="47.2971430" lon="6.9613590">
        <ele>683.9</ele>
        <time>2022-07-21T08:29:11Z</time>
      </trkpt>
      <trkpt lat="47.2971390" lon="6.9613530">
        <ele>683.8</ele>
        <time>2022-07-21T08:29:12Z</time>
      </trkpt>
      <trkpt lat="47.2971360" lon="6.9613460">
        <ele>683.7</ele>
        <time>2022-07-21T08:29:13Z</time>
      </trkpt>
      <trkpt lat="47.2971070" lon="6.9613150">
        <ele>683.0</ele>
        <time>2022-07-21T08:29:14Z</time>
      </trkpt>
      <trkpt lat="47.2970800" lon="6.9612870">
        <ele>682.4</ele>
        <time>2022-07-21T08:29:15Z</time>
      </trkpt>
      <trkpt lat="47.2970470" lon="6.9612510">
        <ele>681.7</ele>
        <time>2022-07-21T08:29:16Z</time>
      </trkpt>
      <trkpt lat="47.2970360" lon="6.9612390">
        <ele>681.4</ele>
        <time>2022-07-21T08:29:17Z</time>
      </trkpt>
      <trkpt lat="47.2970110" lon="6.9612140">
        <ele>680.9</ele>
        <time>2022-07-21T08:29:18Z</time>
      </trkpt>
      <trkpt lat="47.2969810" lon="6.9611880">
        <ele>680.3</ele>
        <time>2022-07-21T08:29:20Z</time>
      </trkpt>
      <trkpt lat="47.2969530" lon="6.9611650">
        <ele>679.7</ele>
        <time>2022-07-21T08:29:21Z</time>
      </trkpt>
      <trkpt lat="47.2969320" lon="6.9611400">
        <ele>679.2</ele>
        <time>2022-07-21T08:29:22Z</time>
      </trkpt>
      <trkpt lat="47.2969180" lon="6.9611160">
        <ele>678.8</ele>
        <time>2022-07-21T08:29:23Z</time>
      </trkpt>
      <trkpt lat="47.2969050" lon="6.9610940">
        <ele>678.4</ele>
        <time>2022-07-21T08:29:25Z</time>
      </trkpt>
      <trkpt lat="47.2968910" lon="6.9610790">
        <ele>678.1</ele>
        <time>2022-07-21T08:29:26Z</time>
      </trkpt>
      <trkpt lat="47.2968760" lon="6.9610700">
        <ele>677.8</ele>
        <time>2022-07-21T08:29:27Z</time>
      </trkpt>
      <trkpt lat="47.2968680" lon="6.9610660">
        <ele>677.7</ele>
        <time>2022-07-21T08:29:28Z</time>
      </trkpt>
      <trkpt lat="47.2968570" lon="6.9610630">
        <ele>677.5</ele>
        <time>2022-07-21T08:29:29Z</time>
      </trkpt>
      <trkpt lat="47.2968430" lon="6.9610600">
        <ele>677.2</ele>
        <time>2022-07-21T08:29:30Z</time>
      </trkpt>
      <trkpt lat="47.2968320" lon="6.9610490">
        <ele>677.0</ele>
        <time>2022-07-21T08:29:31Z</time>
      </trkpt>
      <trkpt lat="47.2968280" lon="6.9610400">
        <ele>676.8</ele>
        <time>2022-07-21T08:29:32Z</time>
      </trkpt>
      <trkpt lat="47.2968240" lon="6.9610300">
        <ele>676.7</ele>
        <time>2022-07-21T08:29:33Z</time>
      </trkpt>
      <trkpt lat="47.2968210" lon="6.9610210">
        <ele>676.6</ele>
        <time>2022-07-21T08:29:34Z</time>
      </trkpt>
      <trkpt lat="47.2968170" lon="6.9610120">
        <ele>676.5</ele>
        <time>2022-07-21T08:29:35Z</time>
      </trkpt>
      <trkpt lat="47.2968020" lon="6.9610050">
        <ele>676.2</ele>
        <time>2022-07-21T08:29:37Z</time>
      </trkpt>
      <trkpt lat="47.2967930" lon="6.9610050">
        <ele>676.0</ele>
        <time>2022-07-21T08:29:38Z</time>
      </trkpt>
      <trkpt lat="47.2967840" lon="6.9610060">
        <ele>675.9</ele>
        <time>2022-07-21T08:29:39Z</time>
      </trkpt>
      <trkpt lat="47.2967750" lon="6.9610070">
        <ele>675.7</ele>
        <time>2022-07-21T08:29:40Z</time>
      </trkpt>
      <trkpt lat="47.2967550" lon="6.9610040">
        <ele>675.4</ele>
        <time>2022-07-21T08:29:41Z</time>
      </trkpt>
      <trkpt lat="47.2967470" lon="6.9610180">
        <ele>675.2</ele>
        <time>2022-07-21T08:29:43Z</time>
      </trkpt>
      <trkpt lat="47.2967380" lon="6.9610210">
        <ele>675.0</ele>
        <time>2022-07-21T08:29:44Z</time>
      </trkpt>
      <trkpt lat="47.2967200" lon="6.9610030">
        <ele>674.6</ele>
        <time>2022-07-21T08:29:45Z</time>
      </trkpt>
      <trkpt lat="47.2967060" lon="6.9609880">
        <ele>674.3</ele>
        <time>2022-07-21T08:29:46Z</time>
      </trkpt>
      <trkpt lat="47.2966890" lon="6.9609580">
        <ele>673.8</ele>
        <time>2022-07-21T08:29:48Z</time>
      </trkpt>
      <trkpt lat="47.2966640" lon="6.9609370">
        <ele>673.2</ele>
        <time>2022-07-21T08:29:49Z</time>
      </trkpt>
      <trkpt lat="47.2966540" lon="6.9609290">
        <ele>672.9</ele>
        <time>2022-07-21T08:29:50Z</time>
      </trkpt>
      <trkpt lat="47.2966390" lon="6.9609330">
        <ele>672.6</ele>
        <time>2022-07-21T08:29:52Z</time>
      </trkpt>
      <trkpt lat="47.2966290" lon="6.9609390">
        <ele>672.3</ele>
        <time>2022-07-21T08:29:53Z</time>
      </trkpt>
      <trkpt lat="47.2966200" lon="6.9609410">
        <ele>672.1</ele>
        <time>2022-07-21T08:29:54Z</time>
      </trkpt>
      <trkpt lat="47.2966030" lon="6.9609340">
        <ele>671.7</ele>
        <time>2022-07-21T08:29:55Z</time>
      </trkpt>
      <trkpt lat="47.2965940" lon="6.9609290">
        <ele>671.5</ele>
        <time>2022-07-21T08:29:56Z</time>
      </trkpt>
      <trkpt lat="47.2965850" lon="6.9609240">
        <ele>671.3</ele>
        <time>2022-07-21T08:29:57Z</time>
      </trkpt>
      <trkpt lat="47.2965680" lon="6.9609120">
        <ele>670.9</ele>
        <time>2022-07-21T08:29:58Z</time>
      </trkpt>
      <trkpt lat="47.2965600" lon="6.9609060">
        <ele>670.7</ele>
        <time>2022-07-21T08:29:59Z</time>
      </trkpt>
      <trkpt lat="47.2965530" lon="6.9609010">
        <ele>670.5</ele>
        <time>2022-07-21T08:30:00Z</time>
      </trkpt>
      <trkpt lat="47.2965450" lon="6.9608950">
        <ele>670.3</ele>
        <time>2022-07-21T08:30:01Z</time>
      </trkpt>
      <trkpt lat="47.2965240" lon="6.9608670">
        <ele>669.6</ele>
        <time>2022-07-21T08:30:02Z</time>
      </trkpt>
      <trkpt lat="47.2965170" lon="6.9608550">
        <ele>669.4</ele>
        <time>2022-07-21T08:30:03Z</time>
      </trkpt>
      <trkpt lat="47.2964950" lon="6.9608200">
        <ele>668.6</ele>
        <time>2022-07-21T08:30:05Z</time>
      </trkpt>
      <trkpt lat="47.2964880" lon="6.9608060">
        <ele>668.4</ele>
        <time>2022-07-21T08:30:06Z</time>
      </trkpt>
      <trkpt lat="47.2964790" lon="6.9607890">
        <ele>668.1</ele>
        <time>2022-07-21T08:30:07Z</time>
      </trkpt>
      <trkpt lat="47.2964680" lon="6.9607660">
        <ele>667.7</ele>
        <time>2022-07-21T08:30:08Z</time>
      </trkpt>
      <trkpt lat="47.2964510" lon="6.9607230">
        <ele>667.0</ele>
        <time>2022-07-21T08:30:10Z</time>
      </trkpt>
      <trkpt lat="47.2964470" lon="6.9607120">
        <ele>666.8</ele>
        <time>2022-07-21T08:30:11Z</time>
      </trkpt>
      <trkpt lat="47.2964320" lon="6.9606720">
        <ele>666.1</ele>
        <time>2022-07-21T08:30:12Z</time>
      </trkpt>
      <trkpt lat="47.2964280" lon="6.9606580">
        <ele>665.9</ele>
        <time>2022-07-21T08:30:13Z</time>
      </trkpt>
      <trkpt lat="47.2964200" lon="6.9606330">
        <ele>665.5</ele>
        <time>2022-07-21T08:30:14Z</time>
      </trkpt>
      <trkpt lat="47.2964130" lon="6.9606130">
        <ele>665.2</ele>
        <time>2022-07-21T08:30:15Z</time>
      </trkpt>
      <trkpt lat="47.2964080" lon="6.9605930">
        <ele>664.9</ele>
        <time>2022-07-21T08:30:16Z</time>
      </trkpt>
      <trkpt lat="47.2964010" lon="6.9605720">
        <ele>664.6</ele>
        <time>2022-07-21T08:30:17Z</time>
      </trkpt>
      <trkpt lat="47.2963930" lon="6.9605500">
        <ele>664.3</ele>
        <time>2022-07-21T08:30:18Z</time>
      </trkpt>
      <trkpt lat="47.2963880" lon="6.9605290">
        <ele>664.0</ele>
        <time>2022-07-21T08:30:19Z</time>
      </trkpt>
      <trkpt lat="47.2963840" lon="6.9605110">
        <ele>663.7</ele>
        <time>2022-07-21T08:30:20Z</time>
      </trkpt>
      <trkpt lat="47.2963780" lon="6.9604890">
        <ele>663.4</ele>
        <time>2022-07-21T08:30:21Z</time>
      </trkpt>
      <trkpt lat="47.2963640" lon="6.9604530">
        <ele>662.8</ele>
        <time>2022-07-21T08:30:22Z</time>
      </trkpt>
      <trkpt lat="47.2963590" lon="6.9604380">
        <ele>662.6</ele>
        <time>2022-07-21T08:30:24Z</time>
      </trkpt>
      <trkpt lat="47.2963530" lon="6.9604230">
        <ele>662.3</ele>
        <time>2022-07-21T08:30:25Z</time>
      </trkpt>
      <trkpt lat="47.2963470" lon="6.9604070">
        <ele>662.1</ele>
        <time>2022-07-21T08:30:26Z</time>
      </trkpt>
      <trkpt lat="47.2963410" lon="6.9603920">
        <ele>661.8</ele>
        <time>2022-07-21T08:30:27Z</time>
      </trkpt>
      <trkpt lat="47.2963350" lon="6.9603750">
        <ele>661.6</ele>
        <time>2022-07-21T08:30:28Z</time>
      </trkpt>
      <trkpt lat="47.2963290" lon="6.9603540">
        <ele>661.2</ele>
        <time>2022-07-21T08:30:29Z</time>
      </trkpt>
      <trkpt lat="47.2963240" lon="6.9603340">
        <ele>660.9</ele>
        <time>2022-07-21T08:30:30Z</time>
      </trkpt>
      <trkpt lat="47.2963190" lon="6.9603080">
        <ele>660.6</ele>
        <time>2022-07-21T08:30:31Z</time>
      </trkpt>
      <trkpt lat="47.2963070" lon="6.9602710">
        <ele>660.0</ele>
        <time>2022-07-21T08:30:32Z</time>
      </trkpt>
      <trkpt lat="47.2962980" lon="6.9602440">
        <ele>659.6</ele>
        <time>2022-07-21T08:30:34Z</time>
      </trkpt>
      <trkpt lat="47.2962950" lon="6.9602280">
        <ele>659.4</ele>
        <time>2022-07-21T08:30:35Z</time>
      </trkpt>
      <trkpt lat="47.2962880" lon="6.9601970">
        <ele>659.0</ele>
        <time>2022-07-21T08:30:36Z</time>
      </trkpt>
      <trkpt lat="47.2962840" lon="6.9601860">
        <ele>658.8</ele>
        <time>2022-07-21T08:30:37Z</time>
      </trkpt>
      <trkpt lat="47.2962810" lon="6.9601750">
        <ele>658.7</ele>
        <time>2022-07-21T08:30:38Z</time>
      </trkpt>
      <trkpt lat="47.2962740" lon="6.9601590">
        <ele>658.5</ele>
        <time>2022-07-21T08:30:39Z</time>
      </trkpt>
      <trkpt lat="47.2962660" lon="6.9601360">
        <ele>658.2</ele>
        <time>2022-07-21T08:30:41Z</time>
      </trkpt>
      <trkpt lat="47.2962590" lon="6.9601200">
        <ele>658.0</ele>
        <time>2022-07-21T08:30:42Z</time>
      </trkpt>
      <trkpt lat="47.2962520" lon="6.9601090">
        <ele>657.9</ele>
        <time>2022-07-21T08:30:43Z</time>
      </trkpt>
      <trkpt lat="47.2962440" lon="6.9601010">
        <ele>657.7</ele>
        <time>2022-07-21T08:30:44Z</time>
      </trkpt>
      <trkpt lat="47.2962360" lon="6.9600920">
        <ele>657.6</ele>
        <time>2022-07-21T08:30:45Z</time>
      </trkpt>
      <trkpt lat="47.2962340" lon="6.9600870">
        <ele>657.5</ele>
        <time>2022-07-21T08:30:46Z</time>
      </trkpt>
      <trkpt lat="47.2962330" lon="6.9600830">
        <ele>657.5</ele>
        <time>2022-07-21T08:30:47Z</time>
      </trkpt>
      <trkpt lat="47.2962310" lon="6.9600780">
        <ele>657.4</ele>
        <time>2022-07-21T08:30:48Z</time>
      </trkpt>
      <trkpt lat="47.2962290" lon="6.9600740">
        <ele>657.4</ele>
        <time>2022-07-21T08:30:49Z</time>
      </trkpt>
      <trkpt lat="47.2962280" lon="6.9600690">
        <ele>657.4</ele>
        <time>2022-07-21T08:30:50Z</time>
      </trkpt>
      <trkpt lat="47.2962260" lon="6.9600650">
        <ele>657.3</ele>
        <time>2022-07-21T08:30:51Z</time>
      </trkpt>
      <trkpt lat="47.2962240" lon="6.9600610">
        <ele>657.3</ele>
        <time>2022-07-21T08:30:52Z</time>
      </trkpt>
      <trkpt lat="47.2962230" lon="6.9600560">
        <ele>657.2</ele>
        <time>2022-07-21T08:30:53Z</time>
      </trkpt>
      <trkpt lat="47.2962210" lon="6.9600520">
        <ele>657.2</ele>
        <time>2022-07-21T08:30:54Z</time>
      </trkpt>
      <trkpt lat="47.2962190" lon="6.9600470">
        <ele>657.2</ele>
        <time>2022-07-21T08:30:55Z</time>
      </trkpt>
      <trkpt lat="47.2962170" lon="6.9600430">
        <ele>657.1</ele>
        <time>2022-07-21T08:30:56Z</time>
      </trkpt>
      <trkpt lat="47.2962160" lon="6.9600380">
        <ele>657.1</ele>
        <time>2022-07-21T08:30:57Z</time>
      </trkpt>
      <trkpt lat="47.2962140" lon="6.9600340">
        <ele>657.0</ele>
        <time>2022-07-21T08:30:58Z</time>
      </trkpt>
      <trkpt lat="47.2962120" lon="6.9600290">
        <ele>657.0</ele>
        <time>2022-07-21T08:30:59Z</time>
      </trkpt>
      <trkpt lat="47.2962110" lon="6.9600250">
        <ele>657.0</ele>
        <time>2022-07-21T08:31:00Z</time>
      </trkpt>
      <trkpt lat="47.2962090" lon="6.9600210">
        <ele>656.9</ele>
        <time>2022-07-21T08:31:01Z</time>
      </trkpt>
      <trkpt lat="47.2962070" lon="6.9600160">
        <ele>656.9</ele>
        <time>2022-07-21T08:31:02Z</time>
      </trkpt>
      <trkpt lat="47.2962060" lon="6.9600120">
        <ele>656.9</ele>
        <time>2022-07-21T08:31:03Z</time>
      </trkpt>
      <trkpt lat="47.2962040" lon="6.9600070">
        <ele>656.8</ele>
        <time>2022-07-21T08:31:04Z</time>
      </trkpt>
      <trkpt lat="47.2962020" lon="6.9600030">
        <ele>656.8</ele>
        <time>2022-07-21T08:31:05Z</time>
      </trkpt>
      <trkpt lat="47.2962010" lon="6.9599980">
        <ele>656.8</ele>
        <time>2022-07-21T08:31:06Z</time>
      </trkpt>
      <trkpt lat="47.2961990" lon="6.9599940">
        <ele>656.7</ele>
        <time>2022-07-21T08:31:07Z</time>
      </trkpt>
      <trkpt lat="47.2961970" lon="6.9599900">
        <ele>656.7</ele>
        <time>2022-07-21T08:31:26Z</time>
      </trkpt>
      <trkpt lat="47.2961950" lon="6.9599850">
        <ele>656.6</ele>
        <time>2022-07-21T08:31:27Z</time>
      </trkpt>
      <trkpt lat="47.2961940" lon="6.9599810">
        <ele>656.6</ele>
        <time>2022-07-21T08:31:28Z</time>
      </trkpt>
      <trkpt lat="47.2961920" lon="6.9599760">
        <ele>656.6</ele>
        <time>2022-07-21T08:31:29Z</time>
      </trkpt>
      <trkpt lat="47.2961750" lon="6.9599270">
        <ele>656.2</ele>
        <time>2022-07-21T08:31:31Z</time>
      </trkpt>
      <trkpt lat="47.2961570" lon="6.9598810">
        <ele>655.8</ele>
        <time>2022-07-21T08:31:32Z</time>
      </trkpt>
      <trkpt lat="47.2961390" lon="6.9598370">
        <ele>655.5</ele>
        <time>2022-07-21T08:31:33Z</time>
      </trkpt>
      <trkpt lat="47.2961150" lon="6.9597870">
        <ele>655.0</ele>
        <time>2022-07-21T08:31:34Z</time>
      </trkpt>
      <trkpt lat="47.2960970" lon="6.9597510">
        <ele>654.7</ele>
        <time>2022-07-21T08:31:35Z</time>
      </trkpt>
      <trkpt lat="47.2960780" lon="6.9597160">
        <ele>654.3</ele>
        <time>2022-07-21T08:31:36Z</time>
      </trkpt>
      <trkpt lat="47.2960280" lon="6.9596510">
        <ele>653.6</ele>
        <time>2022-07-21T08:31:37Z</time>
      </trkpt>
      <trkpt lat="47.2959790" lon="6.9595680">
        <ele>652.7</ele>
        <time>2022-07-21T08:31:39Z</time>
      </trkpt>
      <trkpt lat="47.2959550" lon="6.9595200">
        <ele>652.2</ele>
        <time>2022-07-21T08:31:41Z</time>
      </trkpt>
      <trkpt lat="47.2959350" lon="6.9594730">
        <ele>651.8</ele>
        <time>2022-07-21T08:31:42Z</time>
      </trkpt>
      <trkpt lat="47.2959110" lon="6.9594230">
        <ele>651.2</ele>
        <time>2022-07-21T08:31:43Z</time>
      </trkpt>
      <trkpt lat="47.2958910" lon="6.9593870">
        <ele>650.8</ele>
        <time>2022-07-21T08:31:44Z</time>
      </trkpt>
      <trkpt lat="47.2958860" lon="6.9593790">
        <ele>650.7</ele>
        <time>2022-07-21T08:31:45Z</time>
      </trkpt>
      <trkpt lat="47.2958760" lon="6.9593490">
        <ele>650.4</ele>
        <time>2022-07-21T08:31:46Z</time>
      </trkpt>
      <trkpt lat="47.2958630" lon="6.9593050">
        <ele>650.0</ele>
        <time>2022-07-21T08:31:48Z</time>
      </trkpt>
      <trkpt lat="47.2958460" lon="6.9592650">
        <ele>649.6</ele>
        <time>2022-07-21T08:31:49Z</time>
      </trkpt>
      <trkpt lat="47.2958250" lon="6.9592090">
        <ele>649.1</ele>
        <time>2022-07-21T08:31:50Z</time>
      </trkpt>
      <trkpt lat="47.2958060" lon="6.9591650">
        <ele>648.6</ele>
        <time>2022-07-21T08:31:51Z</time>
      </trkpt>
      <trkpt lat="47.2957820" lon="6.9591170">
        <ele>648.1</ele>
        <time>2022-07-21T08:31:52Z</time>
      </trkpt>
      <trkpt lat="47.2957640" lon="6.9590730">
        <ele>647.7</ele>
        <time>2022-07-21T08:31:53Z</time>
      </trkpt>
      <trkpt lat="47.2957420" lon="6.9590310">
        <ele>647.2</ele>
        <time>2022-07-21T08:31:54Z</time>
      </trkpt>
      <trkpt lat="47.2957170" lon="6.9589910">
        <ele>646.7</ele>
        <time>2022-07-21T08:31:55Z</time>
      </trkpt>
      <trkpt lat="47.2956920" lon="6.9589470">
        <ele>646.1</ele>
        <time>2022-07-21T08:31:56Z</time>
      </trkpt>
      <trkpt lat="47.2956730" lon="6.9589050">
        <ele>645.6</ele>
        <time>2022-07-21T08:31:57Z</time>
      </trkpt>
      <trkpt lat="47.2956480" lon="6.9588520">
        <ele>645.0</ele>
        <time>2022-07-21T08:31:58Z</time>
      </trkpt>
      <trkpt lat="47.2956180" lon="6.9587970">
        <ele>644.2</ele>
        <time>2022-07-21T08:31:59Z</time>
      </trkpt>
      <trkpt lat="47.2955820" lon="6.9587390">
        <ele>643.5</ele>
        <time>2022-07-21T08:32:00Z</time>
      </trkpt>
      <trkpt lat="47.2955500" lon="6.9586860">
        <ele>642.7</ele>
        <time>2022-07-21T08:32:02Z</time>
      </trkpt>
      <trkpt lat="47.2955110" lon="6.9586140">
        <ele>641.8</ele>
        <time>2022-07-21T08:32:03Z</time>
      </trkpt>
      <trkpt lat="47.2954870" lon="6.9585580">
        <ele>641.1</ele>
        <time>2022-07-21T08:32:04Z</time>
      </trkpt>
      <trkpt lat="47.2954770" lon="6.9585170">
        <ele>640.6</ele>
        <time>2022-07-21T08:32:05Z</time>
      </trkpt>
      <trkpt lat="47.2954410" lon="6.9584450">
        <ele>639.6</ele>
        <time>2022-07-21T08:32:06Z</time>
      </trkpt>
      <trkpt lat="47.2954350" lon="6.9583940">
        <ele>639.0</ele>
        <time>2022-07-21T08:32:07Z</time>
      </trkpt>
      <trkpt lat="47.2954410" lon="6.9583770">
        <ele>638.7</ele>
        <time>2022-07-21T08:32:08Z</time>
      </trkpt>
      <trkpt lat="47.2954160" lon="6.9582690">
        <ele>637.4</ele>
        <time>2022-07-21T08:32:09Z</time>
      </trkpt>
      <trkpt lat="47.2953950" lon="6.9581840">
        <ele>636.5</ele>
        <time>2022-07-21T08:32:11Z</time>
      </trkpt>
      <trkpt lat="47.2953760" lon="6.9581060">
        <ele>635.7</ele>
        <time>2022-07-21T08:32:12Z</time>
      </trkpt>
      <trkpt lat="47.2953640" lon="6.9580340">
        <ele>635.1</ele>
        <time>2022-07-21T08:32:14Z</time>
      </trkpt>
      <trkpt lat="47.2953500" lon="6.9579740">
        <ele>634.6</ele>
        <time>2022-07-21T08:32:15Z</time>
      </trkpt>
      <trkpt lat="47.2953310" lon="6.9579010">
        <ele>633.9</ele>
        <time>2022-07-21T08:32:16Z</time>
      </trkpt>
      <trkpt lat="47.2953150" lon="6.9578450">
        <ele>633.4</ele>
        <time>2022-07-21T08:32:17Z</time>
      </trkpt>
      <trkpt lat="47.2952980" lon="6.9577960">
        <ele>632.9</ele>
        <time>2022-07-21T08:32:18Z</time>
      </trkpt>
      <trkpt lat="47.2952880" lon="6.9577510">
        <ele>632.5</ele>
        <time>2022-07-21T08:32:19Z</time>
      </trkpt>
      <trkpt lat="47.2952750" lon="6.9576830">
        <ele>631.9</ele>
        <time>2022-07-21T08:32:20Z</time>
      </trkpt>
      <trkpt lat="47.2952590" lon="6.9576130">
        <ele>631.2</ele>
        <time>2022-07-21T08:32:21Z</time>
      </trkpt>
      <trkpt lat="47.2952440" lon="6.9575430">
        <ele>630.6</ele>
        <time>2022-07-21T08:32:22Z</time>
      </trkpt>
      <trkpt lat="47.2952260" lon="6.9574760">
        <ele>630.1</ele>
        <time>2022-07-21T08:32:23Z</time>
      </trkpt>
      <trkpt lat="47.2952140" lon="6.9574100">
        <ele>629.6</ele>
        <time>2022-07-21T08:32:24Z</time>
      </trkpt>
      <trkpt lat="47.2952100" lon="6.9573620">
        <ele>629.2</ele>
        <time>2022-07-21T08:32:25Z</time>
      </trkpt>
      <trkpt lat="47.2951960" lon="6.9572840">
        <ele>628.7</ele>
        <time>2022-07-21T08:32:26Z</time>
      </trkpt>
      <trkpt lat="47.2951840" lon="6.9572010">
        <ele>628.1</ele>
        <time>2022-07-21T08:32:27Z</time>
      </trkpt>
      <trkpt lat="47.2951780" lon="6.9571220">
        <ele>627.6</ele>
        <time>2022-07-21T08:32:28Z</time>
      </trkpt>
      <trkpt lat="47.2951690" lon="6.9570460">
        <ele>627.1</ele>
        <time>2022-07-21T08:32:29Z</time>
      </trkpt>
      <trkpt lat="47.2951680" lon="6.9569640">
        <ele>626.5</ele>
        <time>2022-07-21T08:32:30Z</time>
      </trkpt>
      <trkpt lat="47.2951780" lon="6.9569160">
        <ele>626.1</ele>
        <time>2022-07-21T08:32:31Z</time>
      </trkpt>
      <trkpt lat="47.2951510" lon="6.9568480">
        <ele>625.4</ele>
        <time>2022-07-21T08:32:32Z</time>
      </trkpt>
      <trkpt lat="47.2951560" lon="6.9567920">
        <ele>625.0</ele>
        <time>2022-07-21T08:32:33Z</time>
      </trkpt>
      <trkpt lat="47.2951640" lon="6.9567280">
        <ele>624.4</ele>
        <time>2022-07-21T08:32:34Z</time>
      </trkpt>
      <trkpt lat="47.2951480" lon="6.9566700">
        <ele>623.9</ele>
        <time>2022-07-21T08:32:36Z</time>
      </trkpt>
      <trkpt lat="47.2951330" lon="6.9566140">
        <ele>623.4</ele>
        <time>2022-07-21T08:32:37Z</time>
      </trkpt>
      <trkpt lat="47.2951240" lon="6.9565510">
        <ele>622.8</ele>
        <time>2022-07-21T08:32:38Z</time>
      </trkpt>
      <trkpt lat="47.2951170" lon="6.9564990">
        <ele>622.4</ele>
        <time>2022-07-21T08:32:39Z</time>
      </trkpt>
      <trkpt lat="47.2951050" lon="6.9564480">
        <ele>621.9</ele>
        <time>2022-07-21T08:32:40Z</time>
      </trkpt>
      <trkpt lat="47.2950960" lon="6.9563970">
        <ele>621.4</ele>
        <time>2022-07-21T08:32:41Z</time>
      </trkpt>
      <trkpt lat="47.2950880" lon="6.9563570">
        <ele>621.1</ele>
        <time>2022-07-21T08:32:42Z</time>
      </trkpt>
      <trkpt lat="47.2950770" lon="6.9562970">
        <ele>620.5</ele>
        <time>2022-07-21T08:32:43Z</time>
      </trkpt>
      <trkpt lat="47.2950780" lon="6.9562260">
        <ele>619.9</ele>
        <time>2022-07-21T08:32:44Z</time>
      </trkpt>
      <trkpt lat="47.2950840" lon="6.9561470">
        <ele>619.2</ele>
        <time>2022-07-21T08:32:45Z</time>
      </trkpt>
      <trkpt lat="47.2950930" lon="6.9560730">
        <ele>618.6</ele>
        <time>2022-07-21T08:32:46Z</time>
      </trkpt>
      <trkpt lat="47.2951020" lon="6.9559970">
        <ele>618.0</ele>
        <time>2022-07-21T08:32:47Z</time>
      </trkpt>
      <trkpt lat="47.2951070" lon="6.9559200">
        <ele>617.5</ele>
        <time>2022-07-21T08:32:48Z</time>
      </trkpt>
      <trkpt lat="47.2951140" lon="6.9558430">
        <ele>616.9</ele>
        <time>2022-07-21T08:32:49Z</time>
      </trkpt>
      <trkpt lat="47.2951240" lon="6.9557660">
        <ele>616.3</ele>
        <time>2022-07-21T08:32:50Z</time>
      </trkpt>
      <trkpt lat="47.2951380" lon="6.9556890">
        <ele>615.8</ele>
        <time>2022-07-21T08:32:51Z</time>
      </trkpt>
      <trkpt lat="47.2951480" lon="6.9556100">
        <ele>615.3</ele>
        <time>2022-07-21T08:32:52Z</time>
      </trkpt>
      <trkpt lat="47.2951570" lon="6.9555310">
        <ele>614.9</ele>
        <time>2022-07-21T08:32:53Z</time>
      </trkpt>
      <trkpt lat="47.2951750" lon="6.9554460">
        <ele>614.5</ele>
        <time>2022-07-21T08:32:54Z</time>
      </trkpt>
      <trkpt lat="47.2952010" lon="6.9553570">
        <ele>614.1</ele>
        <time>2022-07-21T08:32:55Z</time>
      </trkpt>
      <trkpt lat="47.2952270" lon="6.9552650">
        <ele>613.8</ele>
        <time>2022-07-21T08:32:56Z</time>
      </trkpt>
      <trkpt lat="47.2952530" lon="6.9551700">
        <ele>613.6</ele>
        <time>2022-07-21T08:32:57Z</time>
      </trkpt>
      <trkpt lat="47.2952800" lon="6.9550850">
        <ele>613.4</ele>
        <time>2022-07-21T08:32:58Z</time>
      </trkpt>
      <trkpt lat="47.2952990" lon="6.9550130">
        <ele>613.2</ele>
        <time>2022-07-21T08:32:59Z</time>
      </trkpt>
      <trkpt lat="47.2953170" lon="6.9549530">
        <ele>613.0</ele>
        <time>2022-07-21T08:33:00Z</time>
      </trkpt>
      <trkpt lat="47.2953220" lon="6.9549040">
        <ele>612.9</ele>
        <time>2022-07-21T08:33:01Z</time>
      </trkpt>
      <trkpt lat="47.2953340" lon="6.9548620">
        <ele>612.8</ele>
        <time>2022-07-21T08:33:02Z</time>
      </trkpt>
      <trkpt lat="47.2953550" lon="6.9548190">
        <ele>612.7</ele>
        <time>2022-07-21T08:33:03Z</time>
      </trkpt>
      <trkpt lat="47.2953640" lon="6.9548080">
        <ele>612.6</ele>
        <time>2022-07-21T08:33:04Z</time>
      </trkpt>
      <trkpt lat="47.2953960" lon="6.9547820">
        <ele>612.5</ele>
        <time>2022-07-21T08:33:05Z</time>
      </trkpt>
      <trkpt lat="47.2954270" lon="6.9547700">
        <ele>612.3</ele>
        <time>2022-07-21T08:33:06Z</time>
      </trkpt>
      <trkpt lat="47.2954540" lon="6.9547580">
        <ele>612.1</ele>
        <time>2022-07-21T08:33:07Z</time>
      </trkpt>
      <trkpt lat="47.2954620" lon="6.9547540">
        <ele>612.0</ele>
        <time>2022-07-21T08:33:08Z</time>
      </trkpt>
      <trkpt lat="47.2954750" lon="6.9547290">
        <ele>611.9</ele>
        <time>2022-07-21T08:33:09Z</time>
      </trkpt>
      <trkpt lat="47.2954810" lon="6.9547190">
        <ele>611.8</ele>
        <time>2022-07-21T08:33:10Z</time>
      </trkpt>
      <trkpt lat="47.2954880" lon="6.9547090">
        <ele>611.7</ele>
        <time>2022-07-21T08:33:11Z</time>
      </trkpt>
      <trkpt lat="47.2955180" lon="6.9546910">
        <ele>611.5</ele>
        <time>2022-07-21T08:33:12Z</time>
      </trkpt>
      <trkpt lat="47.2955270" lon="6.9546850">
        <ele>611.4</ele>
        <time>2022-07-21T08:33:13Z</time>
      </trkpt>
      <trkpt lat="47.2955410" lon="6.9546720">
        <ele>611.2</ele>
        <time>2022-07-21T08:33:14Z</time>
      </trkpt>
      <trkpt lat="47.2955550" lon="6.9546540">
        <ele>611.1</ele>
        <time>2022-07-21T08:33:15Z</time>
      </trkpt>
      <trkpt lat="47.2955790" lon="6.9546200">
        <ele>610.8</ele>
        <time>2022-07-21T08:33:16Z</time>
      </trkpt>
      <trkpt lat="47.2955870" lon="6.9546080">
        <ele>610.8</ele>
        <time>2022-07-21T08:33:17Z</time>
      </trkpt>
      <trkpt lat="47.2955980" lon="6.9545940">
        <ele>610.7</ele>
        <time>2022-07-21T08:33:18Z</time>
      </trkpt>
      <trkpt lat="47.2956110" lon="6.9545810">
        <ele>610.6</ele>
        <time>2022-07-21T08:33:19Z</time>
      </trkpt>
      <trkpt lat="47.2956360" lon="6.9545580">
        <ele>610.4</ele>
        <time>2022-07-21T08:33:20Z</time>
      </trkpt>
      <trkpt lat="47.2956450" lon="6.9545490">
        <ele>610.3</ele>
        <time>2022-07-21T08:33:21Z</time>
      </trkpt>
      <trkpt lat="47.2956690" lon="6.9545190">
        <ele>610.1</ele>
        <time>2022-07-21T08:33:22Z</time>
      </trkpt>
      <trkpt lat="47.2956780" lon="6.9545080">
        <ele>610.0</ele>
        <time>2022-07-21T08:33:23Z</time>
      </trkpt>
      <trkpt lat="47.2957070" lon="6.9544700">
        <ele>609.8</ele>
        <time>2022-07-21T08:33:24Z</time>
      </trkpt>
      <trkpt lat="47.2957180" lon="6.9544560">
        <ele>609.7</ele>
        <time>2022-07-21T08:33:25Z</time>
      </trkpt>
      <trkpt lat="47.2957480" lon="6.9544200">
        <ele>609.4</ele>
        <time>2022-07-21T08:33:26Z</time>
      </trkpt>
      <trkpt lat="47.2957770" lon="6.9543770">
        <ele>609.2</ele>
        <time>2022-07-21T08:33:27Z</time>
      </trkpt>
      <trkpt lat="47.2958020" lon="6.9543320">
        <ele>608.9</ele>
        <time>2022-07-21T08:33:28Z</time>
      </trkpt>
      <trkpt lat="47.2958270" lon="6.9542750">
        <ele>608.5</ele>
        <time>2022-07-21T08:33:29Z</time>
      </trkpt>
      <trkpt lat="47.2958460" lon="6.9542070">
        <ele>608.1</ele>
        <time>2022-07-21T08:33:30Z</time>
      </trkpt>
      <trkpt lat="47.2958570" lon="6.9541290">
        <ele>607.6</ele>
        <time>2022-07-21T08:33:31Z</time>
      </trkpt>
      <trkpt lat="47.2958500" lon="6.9540220">
        <ele>606.7</ele>
        <time>2022-07-21T08:33:32Z</time>
      </trkpt>
      <trkpt lat="47.2958250" lon="6.9539070">
        <ele>605.8</ele>
        <time>2022-07-21T08:33:33Z</time>
      </trkpt>
      <trkpt lat="47.2957950" lon="6.9537920">
        <ele>604.8</ele>
        <time>2022-07-21T08:33:34Z</time>
      </trkpt>
      <trkpt lat="47.2957750" lon="6.9536880">
        <ele>603.9</ele>
        <time>2022-07-21T08:33:35Z</time>
      </trkpt>
      <trkpt lat="47.2957510" lon="6.9535870">
        <ele>602.9</ele>
        <time>2022-07-21T08:33:36Z</time>
      </trkpt>
      <trkpt lat="47.2957270" lon="6.9534960">
        <ele>602.0</ele>
        <time>2022-07-21T08:33:37Z</time>
      </trkpt>
      <trkpt lat="47.2956950" lon="6.9534250">
        <ele>601.2</ele>
        <time>2022-07-21T08:33:38Z</time>
      </trkpt>
      <trkpt lat="47.2956590" lon="6.9533550">
        <ele>600.4</ele>
        <time>2022-07-21T08:33:39Z</time>
      </trkpt>
      <trkpt lat="47.2956390" lon="6.9532930">
        <ele>599.8</ele>
        <time>2022-07-21T08:33:40Z</time>
      </trkpt>
      <trkpt lat="47.2956120" lon="6.9532450">
        <ele>599.2</ele>
        <time>2022-07-21T08:33:41Z</time>
      </trkpt>
      <trkpt lat="47.2955880" lon="6.9532200">
        <ele>598.8</ele>
        <time>2022-07-21T08:33:42Z</time>
      </trkpt>
      <trkpt lat="47.2955490" lon="6.9531680">
        <ele>598.0</ele>
        <time>2022-07-21T08:33:43Z</time>
      </trkpt>
      <trkpt lat="47.2955190" lon="6.9531130">
        <ele>597.2</ele>
        <time>2022-07-21T08:33:44Z</time>
      </trkpt>
      <trkpt lat="47.2954890" lon="6.9530550">
        <ele>596.4</ele>
        <time>2022-07-21T08:33:45Z</time>
      </trkpt>
      <trkpt lat="47.2954660" lon="6.9529910">
        <ele>595.6</ele>
        <time>2022-07-21T08:33:46Z</time>
      </trkpt>
      <trkpt lat="47.2954540" lon="6.9529320">
        <ele>594.9</ele>
        <time>2022-07-21T08:33:47Z</time>
      </trkpt>
      <trkpt lat="47.2954490" lon="6.9528650">
        <ele>594.1</ele>
        <time>2022-07-21T08:33:48Z</time>
      </trkpt>
      <trkpt lat="47.2954400" lon="6.9528370">
        <ele>593.8</ele>
        <time>2022-07-21T08:33:49Z</time>
      </trkpt>
      <trkpt lat="47.2954170" lon="6.9527850">
        <ele>593.1</ele>
        <time>2022-07-21T08:33:50Z</time>
      </trkpt>
      <trkpt lat="47.2953940" lon="6.9527440">
        <ele>592.6</ele>
        <time>2022-07-21T08:33:51Z</time>
      </trkpt>
      <trkpt lat="47.2953810" lon="6.9526790">
        <ele>592.0</ele>
        <time>2022-07-21T08:33:52Z</time>
      </trkpt>
      <trkpt lat="47.2953780" lon="6.9526240">
        <ele>591.5</ele>
        <time>2022-07-21T08:33:53Z</time>
      </trkpt>
      <trkpt lat="47.2953780" lon="6.9525970">
        <ele>591.2</ele>
        <time>2022-07-21T08:33:54Z</time>
      </trkpt>
      <trkpt lat="47.2953730" lon="6.9525800">
        <ele>591.1</ele>
        <time>2022-07-21T08:33:55Z</time>
      </trkpt>
      <trkpt lat="47.2953660" lon="6.9525400">
        <ele>590.7</ele>
        <time>2022-07-21T08:33:56Z</time>
      </trkpt>
      <trkpt lat="47.2953620" lon="6.9525240">
        <ele>590.5</ele>
        <time>2022-07-21T08:33:57Z</time>
      </trkpt>
      <trkpt lat="47.2953460" lon="6.9524800">
        <ele>590.1</ele>
        <time>2022-07-21T08:33:58Z</time>
      </trkpt>
      <trkpt lat="47.2953340" lon="6.9524430">
        <ele>589.7</ele>
        <time>2022-07-21T08:33:59Z</time>
      </trkpt>
      <trkpt lat="47.2953210" lon="6.9523900">
        <ele>589.2</ele>
        <time>2022-07-21T08:34:00Z</time>
      </trkpt>
      <trkpt lat="47.2953180" lon="6.9523720">
        <ele>589.0</ele>
        <time>2022-07-21T08:34:01Z</time>
      </trkpt>
      <trkpt lat="47.2953150" lon="6.9523440">
        <ele>588.7</ele>
        <time>2022-07-21T08:34:02Z</time>
      </trkpt>
      <trkpt lat="47.2953140" lon="6.9523200">
        <ele>588.5</ele>
        <time>2022-07-21T08:34:03Z</time>
      </trkpt>
      <trkpt lat="47.2953100" lon="6.9522880">
        <ele>588.2</ele>
        <time>2022-07-21T08:34:04Z</time>
      </trkpt>
      <trkpt lat="47.2953070" lon="6.9522700">
        <ele>588.0</ele>
        <time>2022-07-21T08:34:05Z</time>
      </trkpt>
      <trkpt lat="47.2953030" lon="6.9522530">
        <ele>587.9</ele>
        <time>2022-07-21T08:34:06Z</time>
      </trkpt>
      <trkpt lat="47.2952930" lon="6.9521920">
        <ele>587.4</ele>
        <time>2022-07-21T08:34:07Z</time>
      </trkpt>
      <trkpt lat="47.2952900" lon="6.9521670">
        <ele>587.1</ele>
        <time>2022-07-21T08:34:08Z</time>
      </trkpt>
      <trkpt lat="47.2952850" lon="6.9521120">
        <ele>586.7</ele>
        <time>2022-07-21T08:34:09Z</time>
      </trkpt>
      <trkpt lat="47.2952800" lon="6.9520570">
        <ele>586.3</ele>
        <time>2022-07-21T08:34:10Z</time>
      </trkpt>
      <trkpt lat="47.2952750" lon="6.9520020">
        <ele>585.9</ele>
        <time>2022-07-21T08:34:11Z</time>
      </trkpt>
      <trkpt lat="47.2952710" lon="6.9519360">
        <ele>585.4</ele>
        <time>2022-07-21T08:34:12Z</time>
      </trkpt>
      <trkpt lat="47.2952640" lon="6.9518610">
        <ele>584.9</ele>
        <time>2022-07-21T08:34:13Z</time>
      </trkpt>
      <trkpt lat="47.2952600" lon="6.9517990">
        <ele>584.5</ele>
        <time>2022-07-21T08:34:14Z</time>
      </trkpt>
      <trkpt lat="47.2952520" lon="6.9517400">
        <ele>584.2</ele>
        <time>2022-07-21T08:34:15Z</time>
      </trkpt>
      <trkpt lat="47.2952440" lon="6.9516830">
        <ele>583.9</ele>
        <time>2022-07-21T08:34:16Z</time>
      </trkpt>
      <trkpt lat="47.2952370" lon="6.9516230">
        <ele>583.7</ele>
        <time>2022-07-21T08:34:17Z</time>
      </trkpt>
      <trkpt lat="47.2952300" lon="6.9515660">
        <ele>583.6</ele>
        <time>2022-07-21T08:34:18Z</time>
      </trkpt>
      <trkpt lat="47.2952230" lon="6.9515050">
        <ele>583.5</ele>
        <time>2022-07-21T08:34:19Z</time>
      </trkpt>
      <trkpt lat="47.2952140" lon="6.9514470">
        <ele>583.4</ele>
        <time>2022-07-21T08:34:20Z</time>
      </trkpt>
      <trkpt lat="47.2951990" lon="6.9513880">
        <ele>583.4</ele>
        <time>2022-07-21T08:34:21Z</time>
      </trkpt>
      <trkpt lat="47.2951860" lon="6.9513490">
        <ele>583.4</ele>
        <time>2022-07-21T08:34:22Z</time>
      </trkpt>
      <trkpt lat="47.2951760" lon="6.9512880">
        <ele>583.3</ele>
        <time>2022-07-21T08:34:23Z</time>
      </trkpt>
      <trkpt lat="47.2951730" lon="6.9512390">
        <ele>583.2</ele>
        <time>2022-07-21T08:34:24Z</time>
      </trkpt>
      <trkpt lat="47.2951810" lon="6.9511820">
        <ele>582.9</ele>
        <time>2022-07-21T08:34:25Z</time>
      </trkpt>
      <trkpt lat="47.2951840" lon="6.9511640">
        <ele>582.9</ele>
        <time>2022-07-21T08:34:26Z</time>
      </trkpt>
      <trkpt lat="47.2951880" lon="6.9511150">
        <ele>582.7</ele>
        <time>2022-07-21T08:34:27Z</time>
      </trkpt>
      <trkpt lat="47.2951910" lon="6.9510630">
        <ele>582.6</ele>
        <time>2022-07-21T08:34:28Z</time>
      </trkpt>
      <trkpt lat="47.2951950" lon="6.9510040">
        <ele>582.4</ele>
        <time>2022-07-21T08:34:29Z</time>
      </trkpt>
      <trkpt lat="47.2951970" lon="6.9509460">
        <ele>582.3</ele>
        <time>2022-07-21T08:34:30Z</time>
      </trkpt>
      <trkpt lat="47.2951950" lon="6.9509000">
        <ele>582.1</ele>
        <time>2022-07-21T08:34:31Z</time>
      </trkpt>
      <trkpt lat="47.2951890" lon="6.9508460">
        <ele>582.0</ele>
        <time>2022-07-21T08:34:32Z</time>
      </trkpt>
      <trkpt lat="47.2951810" lon="6.9507910">
        <ele>581.8</ele>
        <time>2022-07-21T08:34:33Z</time>
      </trkpt>
      <trkpt lat="47.2951800" lon="6.9507730">
        <ele>581.7</ele>
        <time>2022-07-21T08:34:34Z</time>
      </trkpt>
      <trkpt lat="47.2951750" lon="6.9507200">
        <ele>581.6</ele>
        <time>2022-07-21T08:34:35Z</time>
      </trkpt>
      <trkpt lat="47.2951730" lon="6.9507020">
        <ele>581.5</ele>
        <time>2022-07-21T08:34:36Z</time>
      </trkpt>
      <trkpt lat="47.2951720" lon="6.9506460">
        <ele>581.4</ele>
        <time>2022-07-21T08:34:37Z</time>
      </trkpt>
      <trkpt lat="47.2951720" lon="6.9506270">
        <ele>581.3</ele>
        <time>2022-07-21T08:34:38Z</time>
      </trkpt>
      <trkpt lat="47.2951720" lon="6.9505820">
        <ele>581.2</ele>
        <time>2022-07-21T08:34:39Z</time>
      </trkpt>
      <trkpt lat="47.2951710" lon="6.9505360">
        <ele>581.0</ele>
        <time>2022-07-21T08:34:40Z</time>
      </trkpt>
      <trkpt lat="47.2951710" lon="6.9504900">
        <ele>580.9</ele>
        <time>2022-07-21T08:34:41Z</time>
      </trkpt>
      <trkpt lat="47.2951720" lon="6.9504450">
        <ele>580.8</ele>
        <time>2022-07-21T08:34:42Z</time>
      </trkpt>
      <trkpt lat="47.2951720" lon="6.9503990">
        <ele>580.6</ele>
        <time>2022-07-21T08:34:43Z</time>
      </trkpt>
      <trkpt lat="47.2951720" lon="6.9503520">
        <ele>580.5</ele>
        <time>2022-07-21T08:34:44Z</time>
      </trkpt>
      <trkpt lat="47.2951730" lon="6.9503030">
        <ele>580.3</ele>
        <time>2022-07-21T08:34:45Z</time>
      </trkpt>
      <trkpt lat="47.2951710" lon="6.9502490">
        <ele>580.2</ele>
        <time>2022-07-21T08:34:46Z</time>
      </trkpt>
      <trkpt lat="47.2951690" lon="6.9501960">
        <ele>580.0</ele>
        <time>2022-07-21T08:34:47Z</time>
      </trkpt>
      <trkpt lat="47.2951640" lon="6.9501430">
        <ele>579.8</ele>
        <time>2022-07-21T08:34:48Z</time>
      </trkpt>
      <trkpt lat="47.2951630" lon="6.9500950">
        <ele>579.7</ele>
        <time>2022-07-21T08:34:49Z</time>
      </trkpt>
      <trkpt lat="47.2951640" lon="6.9500430">
        <ele>579.5</ele>
        <time>2022-07-21T08:34:50Z</time>
      </trkpt>
      <trkpt lat="47.2951670" lon="6.9499950">
        <ele>579.4</ele>
        <time>2022-07-21T08:34:51Z</time>
      </trkpt>
      <trkpt lat="47.2951660" lon="6.9499240">
        <ele>579.1</ele>
        <time>2022-07-21T08:34:52Z</time>
      </trkpt>
      <trkpt lat="47.2951680" lon="6.9498640">
        <ele>578.9</ele>
        <time>2022-07-21T08:34:53Z</time>
      </trkpt>
      <trkpt lat="47.2951700" lon="6.9497970">
        <ele>578.6</ele>
        <time>2022-07-21T08:34:55Z</time>
      </trkpt>
      <trkpt lat="47.2951720" lon="6.9497780">
        <ele>578.5</ele>
        <time>2022-07-21T08:34:56Z</time>
      </trkpt>
      <trkpt lat="47.2951730" lon="6.9497590">
        <ele>578.4</ele>
        <time>2022-07-21T08:34:57Z</time>
      </trkpt>
      <trkpt lat="47.2951820" lon="6.9497120">
        <ele>578.2</ele>
        <time>2022-07-21T08:34:58Z</time>
      </trkpt>
      <trkpt lat="47.2951870" lon="6.9496960">
        <ele>578.1</ele>
        <time>2022-07-21T08:34:59Z</time>
      </trkpt>
      <trkpt lat="47.2951980" lon="6.9496230">
        <ele>577.8</ele>
        <time>2022-07-21T08:35:00Z</time>
      </trkpt>
      <trkpt lat="47.2952000" lon="6.9495720">
        <ele>577.6</ele>
        <time>2022-07-21T08:35:01Z</time>
      </trkpt>
      <trkpt lat="47.2951990" lon="6.9494900">
        <ele>577.3</ele>
        <time>2022-07-21T08:35:03Z</time>
      </trkpt>
      <trkpt lat="47.2951940" lon="6.9494430">
        <ele>577.1</ele>
        <time>2022-07-21T08:35:04Z</time>
      </trkpt>
      <trkpt lat="47.2951750" lon="6.9493860">
        <ele>576.9</ele>
        <time>2022-07-21T08:35:05Z</time>
      </trkpt>
      <trkpt lat="47.2951640" lon="6.9493610">
        <ele>576.8</ele>
        <time>2022-07-21T08:35:06Z</time>
      </trkpt>
      <trkpt lat="47.2951420" lon="6.9493220">
        <ele>576.7</ele>
        <time>2022-07-21T08:35:07Z</time>
      </trkpt>
      <trkpt lat="47.2951120" lon="6.9492690">
        <ele>576.5</ele>
        <time>2022-07-21T08:35:08Z</time>
      </trkpt>
      <trkpt lat="47.2950660" lon="6.9492200">
        <ele>576.4</ele>
        <time>2022-07-21T08:35:10Z</time>
      </trkpt>
      <trkpt lat="47.2950310" lon="6.9492030">
        <ele>576.3</ele>
        <time>2022-07-21T08:35:11Z</time>
      </trkpt>
      <trkpt lat="47.2950010" lon="6.9491810">
        <ele>576.2</ele>
        <time>2022-07-21T08:35:12Z</time>
      </trkpt>
      <trkpt lat="47.2949660" lon="6.9491430">
        <ele>576.1</ele>
        <time>2022-07-21T08:35:13Z</time>
      </trkpt>
      <trkpt lat="47.2949510" lon="6.9491280">
        <ele>576.0</ele>
        <time>2022-07-21T08:35:14Z</time>
      </trkpt>
      <trkpt lat="47.2949210" lon="6.9490950">
        <ele>575.9</ele>
        <time>2022-07-21T08:35:15Z</time>
      </trkpt>
      <trkpt lat="47.2948830" lon="6.9490480">
        <ele>575.7</ele>
        <time>2022-07-21T08:35:16Z</time>
      </trkpt>
      <trkpt lat="47.2948620" lon="6.9490250">
        <ele>575.5</ele>
        <time>2022-07-21T08:35:17Z</time>
      </trkpt>
      <trkpt lat="47.2948290" lon="6.9489970">
        <ele>575.3</ele>
        <time>2022-07-21T08:35:18Z</time>
      </trkpt>
      <trkpt lat="47.2947940" lon="6.9489720">
        <ele>575.1</ele>
        <time>2022-07-21T08:35:19Z</time>
      </trkpt>
      <trkpt lat="47.2947570" lon="6.9489350">
        <ele>574.8</ele>
        <time>2022-07-21T08:35:21Z</time>
      </trkpt>
      <trkpt lat="47.2947090" lon="6.9488920">
        <ele>574.4</ele>
        <time>2022-07-21T08:35:22Z</time>
      </trkpt>
      <trkpt lat="47.2946620" lon="6.9488500">
        <ele>573.9</ele>
        <time>2022-07-21T08:35:23Z</time>
      </trkpt>
      <trkpt lat="47.2946120" lon="6.9487970">
        <ele>573.3</ele>
        <time>2022-07-21T08:35:25Z</time>
      </trkpt>
      <trkpt lat="47.2945770" lon="6.9487820">
        <ele>572.2</ele>
        <time>2022-07-21T08:35:26Z</time>
      </trkpt>
      <trkpt lat="47.2945520" lon="6.9488000">
        <ele>571.8</ele>
        <time>2022-07-21T08:35:27Z</time>
      </trkpt>
      <trkpt lat="47.2945380" lon="6.9488360">
        <ele>571.3</ele>
        <time>2022-07-21T08:35:28Z</time>
      </trkpt>
      <trkpt lat="47.2945480" lon="6.9488870">
        <ele>570.7</ele>
        <time>2022-07-21T08:35:29Z</time>
      </trkpt>
      <trkpt lat="47.2945540" lon="6.9489020">
        <ele>570.5</ele>
        <time>2022-07-21T08:35:30Z</time>
      </trkpt>
      <trkpt lat="47.2945680" lon="6.9489370">
        <ele>570.1</ele>
        <time>2022-07-21T08:35:31Z</time>
      </trkpt>
      <trkpt lat="47.2945840" lon="6.9489750">
        <ele>569.6</ele>
        <time>2022-07-21T08:35:32Z</time>
      </trkpt>
      <trkpt lat="47.2946080" lon="6.9490240">
        <ele>569.1</ele>
        <time>2022-07-21T08:35:33Z</time>
      </trkpt>
      <trkpt lat="47.2946430" lon="6.9490670">
        <ele>568.5</ele>
        <time>2022-07-21T08:35:34Z</time>
      </trkpt>
      <trkpt lat="47.2946850" lon="6.9491130">
        <ele>567.9</ele>
        <time>2022-07-21T08:35:35Z</time>
      </trkpt>
      <trkpt lat="47.2947250" lon="6.9491520">
        <ele>567.4</ele>
        <time>2022-07-21T08:35:36Z</time>
      </trkpt>
      <trkpt lat="47.2947680" lon="6.9491880">
        <ele>566.9</ele>
        <time>2022-07-21T08:35:37Z</time>
      </trkpt>
      <trkpt lat="47.2948100" lon="6.9492220">
        <ele>566.4</ele>
        <time>2022-07-21T08:35:38Z</time>
      </trkpt>
      <trkpt lat="47.2948470" lon="6.9492660">
        <ele>566.0</ele>
        <time>2022-07-21T08:35:39Z</time>
      </trkpt>
      <trkpt lat="47.2948790" lon="6.9493260">
        <ele>565.6</ele>
        <time>2022-07-21T08:35:40Z</time>
      </trkpt>
      <trkpt lat="47.2949070" lon="6.9493840">
        <ele>565.1</ele>
        <time>2022-07-21T08:35:41Z</time>
      </trkpt>
      <trkpt lat="47.2949370" lon="6.9494400">
        <ele>564.6</ele>
        <time>2022-07-21T08:35:42Z</time>
      </trkpt>
      <trkpt lat="47.2949450" lon="6.9494800">
        <ele>564.3</ele>
        <time>2022-07-21T08:35:43Z</time>
      </trkpt>
      <trkpt lat="47.2949490" lon="6.9495010">
        <ele>564.2</ele>
        <time>2022-07-21T08:35:44Z</time>
      </trkpt>
      <trkpt lat="47.2949420" lon="6.9495560">
        <ele>563.7</ele>
        <time>2022-07-21T08:35:45Z</time>
      </trkpt>
      <trkpt lat="47.2949250" lon="6.9496150">
        <ele>563.2</ele>
        <time>2022-07-21T08:35:46Z</time>
      </trkpt>
      <trkpt lat="47.2949060" lon="6.9496630">
        <ele>562.7</ele>
        <time>2022-07-21T08:35:47Z</time>
      </trkpt>
      <trkpt lat="47.2948890" lon="6.9496970">
        <ele>562.3</ele>
        <time>2022-07-21T08:35:48Z</time>
      </trkpt>
      <trkpt lat="47.2948640" lon="6.9497250">
        <ele>561.9</ele>
        <time>2022-07-21T08:35:49Z</time>
      </trkpt>
      <trkpt lat="47.2948350" lon="6.9497570">
        <ele>561.3</ele>
        <time>2022-07-21T08:35:50Z</time>
      </trkpt>
      <trkpt lat="47.2948080" lon="6.9498070">
        <ele>560.7</ele>
        <time>2022-07-21T08:35:51Z</time>
      </trkpt>
      <trkpt lat="47.2947480" lon="6.9499590">
        <ele>559.0</ele>
        <time>2022-07-21T08:35:52Z</time>
      </trkpt>
      <trkpt lat="47.2947110" lon="6.9500650">
        <ele>557.9</ele>
        <time>2022-07-21T08:35:53Z</time>
      </trkpt>
      <trkpt lat="47.2946710" lon="6.9501590">
        <ele>556.9</ele>
        <time>2022-07-21T08:35:54Z</time>
      </trkpt>
      <trkpt lat="47.2946330" lon="6.9502540">
        <ele>556.0</ele>
        <time>2022-07-21T08:35:55Z</time>
      </trkpt>
      <trkpt lat="47.2945900" lon="6.9503510">
        <ele>555.1</ele>
        <time>2022-07-21T08:35:56Z</time>
      </trkpt>
      <trkpt lat="47.2945320" lon="6.9504380">
        <ele>554.2</ele>
        <time>2022-07-21T08:35:57Z</time>
      </trkpt>
      <trkpt lat="47.2944720" lon="6.9505150">
        <ele>553.3</ele>
        <time>2022-07-21T08:35:58Z</time>
      </trkpt>
      <trkpt lat="47.2944150" lon="6.9505880">
        <ele>552.5</ele>
        <time>2022-07-21T08:35:59Z</time>
      </trkpt>
      <trkpt lat="47.2943620" lon="6.9506500">
        <ele>551.8</ele>
        <time>2022-07-21T08:36:00Z</time>
      </trkpt>
      <trkpt lat="47.2943180" lon="6.9507160">
        <ele>551.2</ele>
        <time>2022-07-21T08:36:01Z</time>
      </trkpt>
      <trkpt lat="47.2942780" lon="6.9507810">
        <ele>550.5</ele>
        <time>2022-07-21T08:36:02Z</time>
      </trkpt>
      <trkpt lat="47.2942340" lon="6.9508300">
        <ele>549.9</ele>
        <time>2022-07-21T08:36:03Z</time>
      </trkpt>
      <trkpt lat="47.2941900" lon="6.9508860">
        <ele>549.2</ele>
        <time>2022-07-21T08:36:04Z</time>
      </trkpt>
      <trkpt lat="47.2941370" lon="6.9509440">
        <ele>548.3</ele>
        <time>2022-07-21T08:36:05Z</time>
      </trkpt>
      <trkpt lat="47.2940850" lon="6.9510080">
        <ele>547.4</ele>
        <time>2022-07-21T08:36:06Z</time>
      </trkpt>
      <trkpt lat="47.2940400" lon="6.9511050">
        <ele>546.3</ele>
        <time>2022-07-21T08:36:07Z</time>
      </trkpt>
      <trkpt lat="47.2939950" lon="6.9512060">
        <ele>545.2</ele>
        <time>2022-07-21T08:36:08Z</time>
      </trkpt>
      <trkpt lat="47.2939520" lon="6.9512980">
        <ele>544.3</ele>
        <time>2022-07-21T08:36:09Z</time>
      </trkpt>
      <trkpt lat="47.2939100" lon="6.9513990">
        <ele>543.4</ele>
        <time>2022-07-21T08:36:10Z</time>
      </trkpt>
      <trkpt lat="47.2938690" lon="6.9515000">
        <ele>542.5</ele>
        <time>2022-07-21T08:36:11Z</time>
      </trkpt>
      <trkpt lat="47.2938300" lon="6.9515940">
        <ele>541.7</ele>
        <time>2022-07-21T08:36:12Z</time>
      </trkpt>
      <trkpt lat="47.2938070" lon="6.9516640">
        <ele>541.1</ele>
        <time>2022-07-21T08:36:13Z</time>
      </trkpt>
      <trkpt lat="47.2937830" lon="6.9517380">
        <ele>540.4</ele>
        <time>2022-07-21T08:36:14Z</time>
      </trkpt>
      <trkpt lat="47.2937570" lon="6.9518110">
        <ele>539.7</ele>
        <time>2022-07-21T08:36:15Z</time>
      </trkpt>
      <trkpt lat="47.2937290" lon="6.9518740">
        <ele>539.0</ele>
        <time>2022-07-21T08:36:16Z</time>
      </trkpt>
      <trkpt lat="47.2937150" lon="6.9519120">
        <ele>538.6</ele>
        <time>2022-07-21T08:36:17Z</time>
      </trkpt>
      <trkpt lat="47.2937280" lon="6.9519490">
        <ele>538.2</ele>
        <time>2022-07-21T08:36:18Z</time>
      </trkpt>
      <trkpt lat="47.2937320" lon="6.9520060">
        <ele>537.6</ele>
        <time>2022-07-21T08:36:19Z</time>
      </trkpt>
      <trkpt lat="47.2937320" lon="6.9520670">
        <ele>537.0</ele>
        <time>2022-07-21T08:36:20Z</time>
      </trkpt>
      <trkpt lat="47.2937350" lon="6.9521420">
        <ele>536.3</ele>
        <time>2022-07-21T08:36:21Z</time>
      </trkpt>
      <trkpt lat="47.2937510" lon="6.9522130">
        <ele>535.5</ele>
        <time>2022-07-21T08:36:22Z</time>
      </trkpt>
      <trkpt lat="47.2937560" lon="6.9522890">
        <ele>534.5</ele>
        <time>2022-07-21T08:36:23Z</time>
      </trkpt>
      <trkpt lat="47.2937560" lon="6.9523610">
        <ele>533.5</ele>
        <time>2022-07-21T08:36:24Z</time>
      </trkpt>
      <trkpt lat="47.2937540" lon="6.9524290">
        <ele>532.6</ele>
        <time>2022-07-21T08:36:25Z</time>
      </trkpt>
      <trkpt lat="47.2937560" lon="6.9524600">
        <ele>532.2</ele>
        <time>2022-07-21T08:36:26Z</time>
      </trkpt>
      <trkpt lat="47.2937620" lon="6.9525060">
        <ele>531.4</ele>
        <time>2022-07-21T08:36:27Z</time>
      </trkpt>
      <trkpt lat="47.2937610" lon="6.9525290">
        <ele>531.1</ele>
        <time>2022-07-21T08:36:28Z</time>
      </trkpt>
      <trkpt lat="47.2937580" lon="6.9525420">
        <ele>530.8</ele>
        <time>2022-07-21T08:36:29Z</time>
      </trkpt>
      <trkpt lat="47.2937540" lon="6.9525490">
        <ele>530.7</ele>
        <time>2022-07-21T08:36:30Z</time>
      </trkpt>
      <trkpt lat="47.2937440" lon="6.9525480">
        <ele>530.4</ele>
        <time>2022-07-21T08:36:31Z</time>
      </trkpt>
      <trkpt lat="47.2937410" lon="6.9525520">
        <ele>530.3</ele>
        <time>2022-07-21T08:36:32Z</time>
      </trkpt>
      <trkpt lat="47.2937380" lon="6.9525550">
        <ele>530.2</ele>
        <time>2022-07-21T08:36:33Z</time>
      </trkpt>
      <trkpt lat="47.2937340" lon="6.9525590">
        <ele>530.1</ele>
        <time>2022-07-21T08:36:34Z</time>
      </trkpt>
      <trkpt lat="47.2937310" lon="6.9525620">
        <ele>530.0</ele>
        <time>2022-07-21T08:36:35Z</time>
      </trkpt>
      <trkpt lat="47.2937280" lon="6.9525650">
        <ele>529.9</ele>
        <time>2022-07-21T08:36:36Z</time>
      </trkpt>
      <trkpt lat="47.2937250" lon="6.9525690">
        <ele>529.8</ele>
        <time>2022-07-21T08:36:37Z</time>
      </trkpt>
      <trkpt lat="47.2937210" lon="6.9525720">
        <ele>529.7</ele>
        <time>2022-07-21T08:36:38Z</time>
      </trkpt>
      <trkpt lat="47.2937100" lon="6.9525640">
        <ele>529.4</ele>
        <time>2022-07-21T08:36:39Z</time>
      </trkpt>
      <trkpt lat="47.2937000" lon="6.9525480">
        <ele>529.0</ele>
        <time>2022-07-21T08:36:40Z</time>
      </trkpt>
      <trkpt lat="47.2936760" lon="6.9525250">
        <ele>528.2</ele>
        <time>2022-07-21T08:36:41Z</time>
      </trkpt>
      <trkpt lat="47.2936690" lon="6.9525190">
        <ele>527.9</ele>
        <time>2022-07-21T08:36:42Z</time>
      </trkpt>
      <trkpt lat="47.2936510" lon="6.9524980">
        <ele>527.3</ele>
        <time>2022-07-21T08:36:43Z</time>
      </trkpt>
      <trkpt lat="47.2936450" lon="6.9524870">
        <ele>527.0</ele>
        <time>2022-07-21T08:36:44Z</time>
      </trkpt>
      <trkpt lat="47.2936390" lon="6.9524770">
        <ele>526.7</ele>
        <time>2022-07-21T08:36:45Z</time>
      </trkpt>
      <trkpt lat="47.2936280" lon="6.9524550">
        <ele>526.2</ele>
        <time>2022-07-21T08:36:46Z</time>
      </trkpt>
      <trkpt lat="47.2936200" lon="6.9524370">
        <ele>525.7</ele>
        <time>2022-07-21T08:36:47Z</time>
      </trkpt>
      <trkpt lat="47.2936140" lon="6.9524190">
        <ele>525.3</ele>
        <time>2022-07-21T08:36:48Z</time>
      </trkpt>
      <trkpt lat="47.2936040" lon="6.9523960">
        <ele>524.8</ele>
        <time>2022-07-21T08:36:49Z</time>
      </trkpt>
      <trkpt lat="47.2935830" lon="6.9523620">
        <ele>523.8</ele>
        <time>2022-07-21T08:36:50Z</time>
      </trkpt>
      <trkpt lat="47.2935750" lon="6.9523520">
        <ele>523.5</ele>
        <time>2022-07-21T08:36:51Z</time>
      </trkpt>
      <trkpt lat="47.2935510" lon="6.9523170">
        <ele>522.6</ele>
        <time>2022-07-21T08:36:52Z</time>
      </trkpt>
      <trkpt lat="47.2935430" lon="6.9523040">
        <ele>522.2</ele>
        <time>2022-07-21T08:36:53Z</time>
      </trkpt>
      <trkpt lat="47.2935140" lon="6.9522580">
        <ele>521.0</ele>
        <time>2022-07-21T08:36:54Z</time>
      </trkpt>
      <trkpt lat="47.2935040" lon="6.9522400">
        <ele>520.6</ele>
        <time>2022-07-21T08:36:55Z</time>
      </trkpt>
      <trkpt lat="47.2934790" lon="6.9522000">
        <ele>519.6</ele>
        <time>2022-07-21T08:36:56Z</time>
      </trkpt>
      <trkpt lat="47.2934540" lon="6.9521590">
        <ele>518.7</ele>
        <time>2022-07-21T08:36:57Z</time>
      </trkpt>
      <trkpt lat="47.2934320" lon="6.9521150">
        <ele>517.7</ele>
        <time>2022-07-21T08:36:58Z</time>
      </trkpt>
      <trkpt lat="47.2934090" lon="6.9520710">
        <ele>517.4</ele>
        <time>2022-07-21T08:36:59Z</time>
      </trkpt>
      <trkpt lat="47.2933920" lon="6.9520330">
        <ele>517.3</ele>
        <time>2022-07-21T08:37:00Z</time>
      </trkpt>
      <trkpt lat="47.2933700" lon="6.9519860">
        <ele>517.1</ele>
        <time>2022-07-21T08:37:01Z</time>
      </trkpt>
      <trkpt lat="47.2933490" lon="6.9519410">
        <ele>516.9</ele>
        <time>2022-07-21T08:37:02Z</time>
      </trkpt>
      <trkpt lat="47.2933300" lon="6.9519050">
        <ele>516.8</ele>
        <time>2022-07-21T08:37:03Z</time>
      </trkpt>
      <trkpt lat="47.2933060" lon="6.9518610">
        <ele>516.6</ele>
        <time>2022-07-21T08:37:04Z</time>
      </trkpt>
      <trkpt lat="47.2932830" lon="6.9518220">
        <ele>516.4</ele>
        <time>2022-07-21T08:37:05Z</time>
      </trkpt>
      <trkpt lat="47.2932470" lon="6.9517580">
        <ele>516.1</ele>
        <time>2022-07-21T08:37:06Z</time>
      </trkpt>
      <trkpt lat="47.2932080" lon="6.9516730">
        <ele>515.8</ele>
        <time>2022-07-21T08:37:07Z</time>
      </trkpt>
      <trkpt lat="47.2931720" lon="6.9515910">
        <ele>515.5</ele>
        <time>2022-07-21T08:37:08Z</time>
      </trkpt>
      <trkpt lat="47.2931380" lon="6.9515110">
        <ele>515.3</ele>
        <time>2022-07-21T08:37:09Z</time>
      </trkpt>
      <trkpt lat="47.2931160" lon="6.9514480">
        <ele>515.1</ele>
        <time>2022-07-21T08:37:10Z</time>
      </trkpt>
      <trkpt lat="47.2931090" lon="6.9513910">
        <ele>514.9</ele>
        <time>2022-07-21T08:37:11Z</time>
      </trkpt>
      <trkpt lat="47.2931060" lon="6.9513680">
        <ele>514.9</ele>
        <time>2022-07-21T08:37:12Z</time>
      </trkpt>
      <trkpt lat="47.2930960" lon="6.9513080">
        <ele>514.7</ele>
        <time>2022-07-21T08:37:13Z</time>
      </trkpt>
      <trkpt lat="47.2930860" lon="6.9512580">
        <ele>514.5</ele>
        <time>2022-07-21T08:37:14Z</time>
      </trkpt>
      <trkpt lat="47.2930760" lon="6.9512070">
        <ele>514.4</ele>
        <time>2022-07-21T08:37:15Z</time>
      </trkpt>
      <trkpt lat="47.2930560" lon="6.9511490">
        <ele>514.4</ele>
        <time>2022-07-21T08:37:16Z</time>
      </trkpt>
      <trkpt lat="47.2930350" lon="6.9510990">
        <ele>514.3</ele>
        <time>2022-07-21T08:37:17Z</time>
      </trkpt>
      <trkpt lat="47.2930210" lon="6.9510460">
        <ele>514.1</ele>
        <time>2022-07-21T08:37:18Z</time>
      </trkpt>
      <trkpt lat="47.2930140" lon="6.9509900">
        <ele>513.8</ele>
        <time>2022-07-21T08:37:19Z</time>
      </trkpt>
      <trkpt lat="47.2930120" lon="6.9509740">
        <ele>513.7</ele>
        <time>2022-07-21T08:37:20Z</time>
      </trkpt>
      <trkpt lat="47.2930130" lon="6.9509250">
        <ele>513.5</ele>
        <time>2022-07-21T08:37:21Z</time>
      </trkpt>
      <trkpt lat="47.2930140" lon="6.9509090">
        <ele>513.4</ele>
        <time>2022-07-21T08:37:22Z</time>
      </trkpt>
      <trkpt lat="47.2930100" lon="6.9508640">
        <ele>513.2</ele>
        <time>2022-07-21T08:37:23Z</time>
      </trkpt>
      <trkpt lat="47.2930090" lon="6.9508530">
        <ele>513.1</ele>
        <time>2022-07-21T08:37:24Z</time>
      </trkpt>
      <trkpt lat="47.2929980" lon="6.9508030">
        <ele>512.9</ele>
        <time>2022-07-21T08:37:25Z</time>
      </trkpt>
      <trkpt lat="47.2929940" lon="6.9507860">
        <ele>512.9</ele>
        <time>2022-07-21T08:37:26Z</time>
      </trkpt>
      <trkpt lat="47.2929810" lon="6.9507440">
        <ele>512.7</ele>
        <time>2022-07-21T08:37:27Z</time>
      </trkpt>
      <trkpt lat="47.2929780" lon="6.9507320">
        <ele>512.7</ele>
        <time>2022-07-21T08:37:28Z</time>
      </trkpt>
      <trkpt lat="47.2929680" lon="6.9506830">
        <ele>512.5</ele>
        <time>2022-07-21T08:37:29Z</time>
      </trkpt>
      <trkpt lat="47.2929650" lon="6.9506690">
        <ele>512.5</ele>
        <time>2022-07-21T08:37:30Z</time>
      </trkpt>
      <trkpt lat="47.2929540" lon="6.9506320">
        <ele>512.4</ele>
        <time>2022-07-21T08:37:31Z</time>
      </trkpt>
      <trkpt lat="47.2929360" lon="6.9506020">
        <ele>512.3</ele>
        <time>2022-07-21T08:37:32Z</time>
      </trkpt>
      <trkpt lat="47.2929170" lon="6.9505680">
        <ele>512.2</ele>
        <time>2022-07-21T08:37:33Z</time>
      </trkpt>
      <trkpt lat="47.2928950" lon="6.9505220">
        <ele>512.0</ele>
        <time>2022-07-21T08:37:34Z</time>
      </trkpt>
      <trkpt lat="47.2928900" lon="6.9505060">
        <ele>512.0</ele>
        <time>2022-07-21T08:37:35Z</time>
      </trkpt>
      <trkpt lat="47.2928790" lon="6.9504660">
        <ele>511.9</ele>
        <time>2022-07-21T08:37:36Z</time>
      </trkpt>
      <trkpt lat="47.2928750" lon="6.9504540">
        <ele>511.9</ele>
        <time>2022-07-21T08:37:37Z</time>
      </trkpt>
      <trkpt lat="47.2928560" lon="6.9504160">
        <ele>511.7</ele>
        <time>2022-07-21T08:37:38Z</time>
      </trkpt>
      <trkpt lat="47.2928480" lon="6.9503990">
        <ele>511.7</ele>
        <time>2022-07-21T08:37:39Z</time>
      </trkpt>
      <trkpt lat="47.2928310" lon="6.9503610">
        <ele>511.5</ele>
        <time>2022-07-21T08:37:40Z</time>
      </trkpt>
      <trkpt lat="47.2928110" lon="6.9503050">
        <ele>511.3</ele>
        <time>2022-07-21T08:37:41Z</time>
      </trkpt>
      <trkpt lat="47.2928040" lon="6.9502800">
        <ele>511.2</ele>
        <time>2022-07-21T08:37:42Z</time>
      </trkpt>
      <trkpt lat="47.2927910" lon="6.9502370">
        <ele>511.0</ele>
        <time>2022-07-21T08:37:43Z</time>
      </trkpt>
      <trkpt lat="47.2927720" lon="6.9501890">
        <ele>510.8</ele>
        <time>2022-07-21T08:37:44Z</time>
      </trkpt>
      <trkpt lat="47.2927550" lon="6.9501540">
        <ele>510.6</ele>
        <time>2022-07-21T08:37:45Z</time>
      </trkpt>
      <trkpt lat="47.2927330" lon="6.9501180">
        <ele>510.3</ele>
        <time>2022-07-21T08:37:46Z</time>
      </trkpt>
      <trkpt lat="47.2927260" lon="6.9501090">
        <ele>510.3</ele>
        <time>2022-07-21T08:37:47Z</time>
      </trkpt>
      <trkpt lat="47.2927080" lon="6.9500960">
        <ele>510.1</ele>
        <time>2022-07-21T08:37:48Z</time>
      </trkpt>
      <trkpt lat="47.2926990" lon="6.9500970">
        <ele>510.0</ele>
        <time>2022-07-21T08:37:49Z</time>
      </trkpt>
      <trkpt lat="47.2926910" lon="6.9501060">
        <ele>510.0</ele>
        <time>2022-07-21T08:37:50Z</time>
      </trkpt>
      <trkpt lat="47.2926810" lon="6.9501160">
        <ele>509.9</ele>
        <time>2022-07-21T08:37:51Z</time>
      </trkpt>
      <trkpt lat="47.2926690" lon="6.9501240">
        <ele>509.8</ele>
        <time>2022-07-21T08:37:52Z</time>
      </trkpt>
      <trkpt lat="47.2926540" lon="6.9501050">
        <ele>509.6</ele>
        <time>2022-07-21T08:37:53Z</time>
      </trkpt>
      <trkpt lat="47.2926490" lon="6.9500880">
        <ele>509.5</ele>
        <time>2022-07-21T08:37:54Z</time>
      </trkpt>
      <trkpt lat="47.2926440" lon="6.9500710">
        <ele>509.4</ele>
        <time>2022-07-21T08:37:55Z</time>
      </trkpt>
      <trkpt lat="47.2926280" lon="6.9500320">
        <ele>509.2</ele>
        <time>2022-07-21T08:37:56Z</time>
      </trkpt>
      <trkpt lat="47.2926100" lon="6.9499920">
        <ele>508.9</ele>
        <time>2022-07-21T08:37:57Z</time>
      </trkpt>
      <trkpt lat="47.2925890" lon="6.9499340">
        <ele>508.5</ele>
        <time>2022-07-21T08:37:58Z</time>
      </trkpt>
      <trkpt lat="47.2925810" lon="6.9499100">
        <ele>508.4</ele>
        <time>2022-07-21T08:37:59Z</time>
      </trkpt>
      <trkpt lat="47.2925580" lon="6.9498500">
        <ele>508.0</ele>
        <time>2022-07-21T08:38:00Z</time>
      </trkpt>
      <trkpt lat="47.2925320" lon="6.9497860">
        <ele>507.5</ele>
        <time>2022-07-21T08:38:01Z</time>
      </trkpt>
      <trkpt lat="47.2925260" lon="6.9497200">
        <ele>507.1</ele>
        <time>2022-07-21T08:38:02Z</time>
      </trkpt>
      <trkpt lat="47.2925040" lon="6.9496480">
        <ele>506.5</ele>
        <time>2022-07-21T08:38:03Z</time>
      </trkpt>
      <trkpt lat="47.2924740" lon="6.9495740">
        <ele>505.9</ele>
        <time>2022-07-21T08:38:04Z</time>
      </trkpt>
      <trkpt lat="47.2924540" lon="6.9494980">
        <ele>505.3</ele>
        <time>2022-07-21T08:38:05Z</time>
      </trkpt>
      <trkpt lat="47.2924270" lon="6.9494170">
        <ele>504.6</ele>
        <time>2022-07-21T08:38:06Z</time>
      </trkpt>
      <trkpt lat="47.2923970" lon="6.9493400">
        <ele>504.0</ele>
        <time>2022-07-21T08:38:07Z</time>
      </trkpt>
      <trkpt lat="47.2923660" lon="6.9492610">
        <ele>503.4</ele>
        <time>2022-07-21T08:38:08Z</time>
      </trkpt>
      <trkpt lat="47.2923400" lon="6.9492010">
        <ele>503.0</ele>
        <time>2022-07-21T08:38:09Z</time>
      </trkpt>
      <trkpt lat="47.2922930" lon="6.9491290">
        <ele>502.3</ele>
        <time>2022-07-21T08:38:10Z</time>
      </trkpt>
      <trkpt lat="47.2922460" lon="6.9490480">
        <ele>502.0</ele>
        <time>2022-07-21T08:38:11Z</time>
      </trkpt>
      <trkpt lat="47.2922020" lon="6.9489700">
        <ele>501.7</ele>
        <time>2022-07-21T08:38:12Z</time>
      </trkpt>
      <trkpt lat="47.2921630" lon="6.9488890">
        <ele>501.2</ele>
        <time>2022-07-21T08:38:13Z</time>
      </trkpt>
      <trkpt lat="47.2921330" lon="6.9488030">
        <ele>500.7</ele>
        <time>2022-07-21T08:38:14Z</time>
      </trkpt>
      <trkpt lat="47.2921070" lon="6.9487160">
        <ele>500.2</ele>
        <time>2022-07-21T08:38:15Z</time>
      </trkpt>
      <trkpt lat="47.2920690" lon="6.9486100">
        <ele>499.6</ele>
        <time>2022-07-21T08:38:16Z</time>
      </trkpt>
      <trkpt lat="47.2920310" lon="6.9485130">
        <ele>499.3</ele>
        <time>2022-07-21T08:38:17Z</time>
      </trkpt>
      <trkpt lat="47.2919910" lon="6.9484110">
        <ele>499.0</ele>
        <time>2022-07-21T08:38:18Z</time>
      </trkpt>
      <trkpt lat="47.2919490" lon="6.9483080">
        <ele>498.8</ele>
        <time>2022-07-21T08:38:19Z</time>
      </trkpt>
      <trkpt lat="47.2919200" lon="6.9482230">
        <ele>498.8</ele>
        <time>2022-07-21T08:38:20Z</time>
      </trkpt>
      <trkpt lat="47.2918910" lon="6.9481430">
        <ele>498.8</ele>
        <time>2022-07-21T08:38:21Z</time>
      </trkpt>
      <trkpt lat="47.2918610" lon="6.9480560">
        <ele>498.8</ele>
        <time>2022-07-21T08:38:22Z</time>
      </trkpt>
      <trkpt lat="47.2918350" lon="6.9479740">
        <ele>498.8</ele>
        <time>2022-07-21T08:38:23Z</time>
      </trkpt>
      <trkpt lat="47.2918080" lon="6.9478930">
        <ele>498.8</ele>
        <time>2022-07-21T08:38:24Z</time>
      </trkpt>
      <trkpt lat="47.2917750" lon="6.9478200">
        <ele>498.7</ele>
        <time>2022-07-21T08:38:25Z</time>
      </trkpt>
      <trkpt lat="47.2917400" lon="6.9477590">
        <ele>498.6</ele>
        <time>2022-07-21T08:38:26Z</time>
      </trkpt>
      <trkpt lat="47.2917130" lon="6.9476740">
        <ele>498.5</ele>
        <time>2022-07-21T08:38:27Z</time>
      </trkpt>
      <trkpt lat="47.2916880" lon="6.9475870">
        <ele>498.3</ele>
        <time>2022-07-21T08:38:28Z</time>
      </trkpt>
      <trkpt lat="47.2916690" lon="6.9474980">
        <ele>498.2</ele>
        <time>2022-07-21T08:38:29Z</time>
      </trkpt>
      <trkpt lat="47.2916400" lon="6.9474120">
        <ele>498.1</ele>
        <time>2022-07-21T08:38:30Z</time>
      </trkpt>
      <trkpt lat="47.2916070" lon="6.9473380">
        <ele>498.1</ele>
        <time>2022-07-21T08:38:31Z</time>
      </trkpt>
      <trkpt lat="47.2915790" lon="6.9472690">
        <ele>498.1</ele>
        <time>2022-07-21T08:38:32Z</time>
      </trkpt>
      <trkpt lat="47.2915480" lon="6.9471990">
        <ele>498.2</ele>
        <time>2022-07-21T08:38:33Z</time>
      </trkpt>
      <trkpt lat="47.2915190" lon="6.9471390">
        <ele>498.3</ele>
        <time>2022-07-21T08:38:34Z</time>
      </trkpt>
      <trkpt lat="47.2915000" lon="6.9471010">
        <ele>498.3</ele>
        <time>2022-07-21T08:38:35Z</time>
      </trkpt>
      <trkpt lat="47.2914810" lon="6.9470420">
        <ele>498.4</ele>
        <time>2022-07-21T08:38:36Z</time>
      </trkpt>
      <trkpt lat="47.2914650" lon="6.9469650">
        <ele>498.4</ele>
        <time>2022-07-21T08:38:37Z</time>
      </trkpt>
      <trkpt lat="47.2914440" lon="6.9469010">
        <ele>498.5</ele>
        <time>2022-07-21T08:38:38Z</time>
      </trkpt>
      <trkpt lat="47.2914250" lon="6.9468410">
        <ele>498.6</ele>
        <time>2022-07-21T08:38:39Z</time>
      </trkpt>
      <trkpt lat="47.2914130" lon="6.9467950">
        <ele>498.7</ele>
        <time>2022-07-21T08:38:40Z</time>
      </trkpt>
      <trkpt lat="47.2913880" lon="6.9467460">
        <ele>498.7</ele>
        <time>2022-07-21T08:38:41Z</time>
      </trkpt>
      <trkpt lat="47.2913520" lon="6.9466990">
        <ele>498.8</ele>
        <time>2022-07-21T08:38:42Z</time>
      </trkpt>
      <trkpt lat="47.2913160" lon="6.9466500">
        <ele>499.0</ele>
        <time>2022-07-21T08:38:43Z</time>
      </trkpt>
      <trkpt lat="47.2912820" lon="6.9465970">
        <ele>499.1</ele>
        <time>2022-07-21T08:38:44Z</time>
      </trkpt>
      <trkpt lat="47.2912470" lon="6.9465450">
        <ele>499.2</ele>
        <time>2022-07-21T08:38:45Z</time>
      </trkpt>
      <trkpt lat="47.2912160" lon="6.9465200">
        <ele>499.3</ele>
        <time>2022-07-21T08:38:46Z</time>
      </trkpt>
      <trkpt lat="47.2911850" lon="6.9464910">
        <ele>499.5</ele>
        <time>2022-07-21T08:38:47Z</time>
      </trkpt>
      <trkpt lat="47.2911640" lon="6.9464610">
        <ele>499.6</ele>
        <time>2022-07-21T08:38:48Z</time>
      </trkpt>
      <trkpt lat="47.2911430" lon="6.9464270">
        <ele>499.7</ele>
        <time>2022-07-21T08:38:49Z</time>
      </trkpt>
      <trkpt lat="47.2911190" lon="6.9463890">
        <ele>499.9</ele>
        <time>2022-07-21T08:38:50Z</time>
      </trkpt>
      <trkpt lat="47.2911000" lon="6.9463560">
        <ele>500.0</ele>
        <time>2022-07-21T08:38:51Z</time>
      </trkpt>
      <trkpt lat="47.2910680" lon="6.9463190">
        <ele>500.2</ele>
        <time>2022-07-21T08:38:52Z</time>
      </trkpt>
      <trkpt lat="47.2910550" lon="6.9463060">
        <ele>500.3</ele>
        <time>2022-07-21T08:38:53Z</time>
      </trkpt>
      <trkpt lat="47.2910270" lon="6.9462720">
        <ele>500.5</ele>
        <time>2022-07-21T08:38:54Z</time>
      </trkpt>
      <trkpt lat="47.2910180" lon="6.9462600">
        <ele>500.6</ele>
        <time>2022-07-21T08:38:55Z</time>
      </trkpt>
      <trkpt lat="47.2909980" lon="6.9462230">
        <ele>500.8</ele>
        <time>2022-07-21T08:38:56Z</time>
      </trkpt>
      <trkpt lat="47.2909910" lon="6.9462120">
        <ele>500.9</ele>
        <time>2022-07-21T08:38:57Z</time>
      </trkpt>
      <trkpt lat="47.2909700" lon="6.9461770">
        <ele>501.1</ele>
        <time>2022-07-21T08:38:58Z</time>
      </trkpt>
      <trkpt lat="47.2909630" lon="6.9461670">
        <ele>501.2</ele>
        <time>2022-07-21T08:38:59Z</time>
      </trkpt>
      <trkpt lat="47.2909410" lon="6.9461290">
        <ele>501.4</ele>
        <time>2022-07-21T08:39:00Z</time>
      </trkpt>
      <trkpt lat="47.2909330" lon="6.9461170">
        <ele>501.5</ele>
        <time>2022-07-21T08:39:01Z</time>
      </trkpt>
      <trkpt lat="47.2909210" lon="6.9461050">
        <ele>501.6</ele>
        <time>2022-07-21T08:39:02Z</time>
      </trkpt>
      <trkpt lat="47.2909070" lon="6.9460850">
        <ele>501.7</ele>
        <time>2022-07-21T08:39:03Z</time>
      </trkpt>
      <trkpt lat="47.2908840" lon="6.9460520">
        <ele>501.9</ele>
        <time>2022-07-21T08:39:04Z</time>
      </trkpt>
      <trkpt lat="47.2908770" lon="6.9460440">
        <ele>502.0</ele>
        <time>2022-07-21T08:39:05Z</time>
      </trkpt>
      <trkpt lat="47.2908550" lon="6.9460060">
        <ele>502.2</ele>
        <time>2022-07-21T08:39:06Z</time>
      </trkpt>
      <trkpt lat="47.2908490" lon="6.9459910">
        <ele>502.3</ele>
        <time>2022-07-21T08:39:07Z</time>
      </trkpt>
      <trkpt lat="47.2908300" lon="6.9459530">
        <ele>502.5</ele>
        <time>2022-07-21T08:39:08Z</time>
      </trkpt>
      <trkpt lat="47.2908220" lon="6.9459410">
        <ele>502.6</ele>
        <time>2022-07-21T08:39:09Z</time>
      </trkpt>
      <trkpt lat="47.2907990" lon="6.9459090">
        <ele>502.8</ele>
        <time>2022-07-21T08:39:10Z</time>
      </trkpt>
      <trkpt lat="47.2907910" lon="6.9458980">
        <ele>502.8</ele>
        <time>2022-07-21T08:39:11Z</time>
      </trkpt>
      <trkpt lat="47.2907660" lon="6.9458630">
        <ele>503.0</ele>
        <time>2022-07-21T08:39:12Z</time>
      </trkpt>
      <trkpt lat="47.2907580" lon="6.9458510">
        <ele>503.1</ele>
        <time>2022-07-21T08:39:13Z</time>
      </trkpt>
      <trkpt lat="47.2907450" lon="6.9458350">
        <ele>503.2</ele>
        <time>2022-07-21T08:39:14Z</time>
      </trkpt>
      <trkpt lat="47.2907330" lon="6.9458210">
        <ele>503.2</ele>
        <time>2022-07-21T08:39:15Z</time>
      </trkpt>
      <trkpt lat="47.2907050" lon="6.9457950">
        <ele>503.4</ele>
        <time>2022-07-21T08:39:16Z</time>
      </trkpt>
      <trkpt lat="47.2906950" lon="6.9457880">
        <ele>503.4</ele>
        <time>2022-07-21T08:39:17Z</time>
      </trkpt>
      <trkpt lat="47.2906710" lon="6.9457570">
        <ele>503.6</ele>
        <time>2022-07-21T08:39:18Z</time>
      </trkpt>
      <trkpt lat="47.2906660" lon="6.9457480">
        <ele>503.6</ele>
        <time>2022-07-21T08:39:19Z</time>
      </trkpt>
      <trkpt lat="47.2906570" lon="6.9457320">
        <ele>503.6</ele>
        <time>2022-07-21T08:39:20Z</time>
      </trkpt>
      <trkpt lat="47.2906460" lon="6.9457110">
        <ele>503.7</ele>
        <time>2022-07-21T08:39:21Z</time>
      </trkpt>
      <trkpt lat="47.2906390" lon="6.9456980">
        <ele>503.7</ele>
        <time>2022-07-21T08:39:22Z</time>
      </trkpt>
      <trkpt lat="47.2906280" lon="6.9456820">
        <ele>503.7</ele>
        <time>2022-07-21T08:39:23Z</time>
      </trkpt>
      <trkpt lat="47.2905940" lon="6.9456460">
        <ele>503.8</ele>
        <time>2022-07-21T08:39:24Z</time>
      </trkpt>
      <trkpt lat="47.2905820" lon="6.9456350">
        <ele>503.8</ele>
        <time>2022-07-21T08:39:25Z</time>
      </trkpt>
      <trkpt lat="47.2905500" lon="6.9456060">
        <ele>503.8</ele>
        <time>2022-07-21T08:39:26Z</time>
      </trkpt>
      <trkpt lat="47.2905400" lon="6.9455960">
        <ele>503.8</ele>
        <time>2022-07-21T08:39:27Z</time>
      </trkpt>
      <trkpt lat="47.2905150" lon="6.9455700">
        <ele>503.7</ele>
        <time>2022-07-21T08:39:28Z</time>
      </trkpt>
      <trkpt lat="47.2904820" lon="6.9455430">
        <ele>503.6</ele>
        <time>2022-07-21T08:39:29Z</time>
      </trkpt>
      <trkpt lat="47.2904460" lon="6.9455100">
        <ele>503.5</ele>
        <time>2022-07-21T08:39:30Z</time>
      </trkpt>
      <trkpt lat="47.2904070" lon="6.9454680">
        <ele>503.3</ele>
        <time>2022-07-21T08:39:31Z</time>
      </trkpt>
      <trkpt lat="47.2903640" lon="6.9454260">
        <ele>503.1</ele>
        <time>2022-07-21T08:39:32Z</time>
      </trkpt>
      <trkpt lat="47.2903170" lon="6.9453790">
        <ele>502.9</ele>
        <time>2022-07-21T08:39:33Z</time>
      </trkpt>
      <trkpt lat="47.2902670" lon="6.9453380">
        <ele>502.6</ele>
        <time>2022-07-21T08:39:34Z</time>
      </trkpt>
      <trkpt lat="47.2902110" lon="6.9452970">
        <ele>502.2</ele>
        <time>2022-07-21T08:39:35Z</time>
      </trkpt>
      <trkpt lat="47.2901470" lon="6.9452570">
        <ele>501.9</ele>
        <time>2022-07-21T08:39:36Z</time>
      </trkpt>
      <trkpt lat="47.2900870" lon="6.9451970">
        <ele>501.5</ele>
        <time>2022-07-21T08:39:37Z</time>
      </trkpt>
      <trkpt lat="47.2900420" lon="6.9451450">
        <ele>501.2</ele>
        <time>2022-07-21T08:39:38Z</time>
      </trkpt>
      <trkpt lat="47.2899980" lon="6.9450910">
        <ele>500.9</ele>
        <time>2022-07-21T08:39:39Z</time>
      </trkpt>
      <trkpt lat="47.2899370" lon="6.9450220">
        <ele>500.5</ele>
        <time>2022-07-21T08:39:40Z</time>
      </trkpt>
      <trkpt lat="47.2898790" lon="6.9449520">
        <ele>500.1</ele>
        <time>2022-07-21T08:39:41Z</time>
      </trkpt>
      <trkpt lat="47.2898210" lon="6.9448800">
        <ele>499.8</ele>
        <time>2022-07-21T08:39:42Z</time>
      </trkpt>
      <trkpt lat="47.2897620" lon="6.9448050">
        <ele>499.5</ele>
        <time>2022-07-21T08:39:43Z</time>
      </trkpt>
      <trkpt lat="47.2897030" lon="6.9447330">
        <ele>499.3</ele>
        <time>2022-07-21T08:39:44Z</time>
      </trkpt>
      <trkpt lat="47.2896500" lon="6.9446630">
        <ele>499.3</ele>
        <time>2022-07-21T08:39:45Z</time>
      </trkpt>
      <trkpt lat="47.2896020" lon="6.9445940">
        <ele>499.2</ele>
        <time>2022-07-21T08:39:46Z</time>
      </trkpt>
      <trkpt lat="47.2895540" lon="6.9445280">
        <ele>499.2</ele>
        <time>2022-07-21T08:39:47Z</time>
      </trkpt>
      <trkpt lat="47.2895130" lon="6.9444620">
        <ele>499.2</ele>
        <time>2022-07-21T08:39:48Z</time>
      </trkpt>
      <trkpt lat="47.2894720" lon="6.9444090">
        <ele>499.2</ele>
        <time>2022-07-21T08:39:49Z</time>
      </trkpt>
      <trkpt lat="47.2894340" lon="6.9443540">
        <ele>499.2</ele>
        <time>2022-07-21T08:39:50Z</time>
      </trkpt>
      <trkpt lat="47.2893990" lon="6.9442970">
        <ele>499.2</ele>
        <time>2022-07-21T08:39:51Z</time>
      </trkpt>
      <trkpt lat="47.2893640" lon="6.9442360">
        <ele>499.2</ele>
        <time>2022-07-21T08:39:52Z</time>
      </trkpt>
      <trkpt lat="47.2893280" lon="6.9441780">
        <ele>499.3</ele>
        <time>2022-07-21T08:39:53Z</time>
      </trkpt>
      <trkpt lat="47.2892950" lon="6.9441190">
        <ele>499.3</ele>
        <time>2022-07-21T08:39:54Z</time>
      </trkpt>
      <trkpt lat="47.2892750" lon="6.9440720">
        <ele>499.3</ele>
        <time>2022-07-21T08:39:55Z</time>
      </trkpt>
      <trkpt lat="47.2892480" lon="6.9440210">
        <ele>499.4</ele>
        <time>2022-07-21T08:39:56Z</time>
      </trkpt>
      <trkpt lat="47.2892190" lon="6.9439720">
        <ele>499.5</ele>
        <time>2022-07-21T08:39:57Z</time>
      </trkpt>
      <trkpt lat="47.2891820" lon="6.9439260">
        <ele>499.5</ele>
        <time>2022-07-21T08:39:58Z</time>
      </trkpt>
      <trkpt lat="47.2891430" lon="6.9438870">
        <ele>499.6</ele>
        <time>2022-07-21T08:39:59Z</time>
      </trkpt>
      <trkpt lat="47.2891110" lon="6.9438420">
        <ele>499.7</ele>
        <time>2022-07-21T08:40:00Z</time>
      </trkpt>
      <trkpt lat="47.2890880" lon="6.9438020">
        <ele>499.7</ele>
        <time>2022-07-21T08:40:01Z</time>
      </trkpt>
      <trkpt lat="47.2890570" lon="6.9437580">
        <ele>499.8</ele>
        <time>2022-07-21T08:40:02Z</time>
      </trkpt>
      <trkpt lat="47.2890270" lon="6.9437300">
        <ele>499.9</ele>
        <time>2022-07-21T08:40:03Z</time>
      </trkpt>
      <trkpt lat="47.2890030" lon="6.9437080">
        <ele>500.0</ele>
        <time>2022-07-21T08:40:04Z</time>
      </trkpt>
      <trkpt lat="47.2889760" lon="6.9436760">
        <ele>500.0</ele>
        <time>2022-07-21T08:40:05Z</time>
      </trkpt>
      <trkpt lat="47.2889420" lon="6.9436400">
        <ele>500.1</ele>
        <time>2022-07-21T08:40:06Z</time>
      </trkpt>
      <trkpt lat="47.2889130" lon="6.9436080">
        <ele>500.2</ele>
        <time>2022-07-21T08:40:07Z</time>
      </trkpt>
      <trkpt lat="47.2888860" lon="6.9435780">
        <ele>500.3</ele>
        <time>2022-07-21T08:40:08Z</time>
      </trkpt>
      <trkpt lat="47.2888520" lon="6.9435410">
        <ele>500.4</ele>
        <time>2022-07-21T08:40:09Z</time>
      </trkpt>
      <trkpt lat="47.2888400" lon="6.9435240">
        <ele>500.4</ele>
        <time>2022-07-21T08:40:10Z</time>
      </trkpt>
      <trkpt lat="47.2888190" lon="6.9434940">
        <ele>500.4</ele>
        <time>2022-07-21T08:40:11Z</time>
      </trkpt>
      <trkpt lat="47.2887920" lon="6.9434580">
        <ele>500.5</ele>
        <time>2022-07-21T08:40:12Z</time>
      </trkpt>
      <trkpt lat="47.2887660" lon="6.9434230">
        <ele>500.6</ele>
        <time>2022-07-21T08:40:13Z</time>
      </trkpt>
      <trkpt lat="47.2887400" lon="6.9433900">
        <ele>500.6</ele>
        <time>2022-07-21T08:40:14Z</time>
      </trkpt>
      <trkpt lat="47.2887180" lon="6.9433590">
        <ele>500.6</ele>
        <time>2022-07-21T08:40:15Z</time>
      </trkpt>
      <trkpt lat="47.2886910" lon="6.9433190">
        <ele>500.7</ele>
        <time>2022-07-21T08:40:16Z</time>
      </trkpt>
      <trkpt lat="47.2886640" lon="6.9432790">
        <ele>500.6</ele>
        <time>2022-07-21T08:40:17Z</time>
      </trkpt>
      <trkpt lat="47.2886450" lon="6.9432490">
        <ele>500.6</ele>
        <time>2022-07-21T08:40:18Z</time>
      </trkpt>
      <trkpt lat="47.2886260" lon="6.9432180">
        <ele>500.6</ele>
        <time>2022-07-21T08:40:19Z</time>
      </trkpt>
      <trkpt lat="47.2886020" lon="6.9431790">
        <ele>500.5</ele>
        <time>2022-07-21T08:40:20Z</time>
      </trkpt>
      <trkpt lat="47.2885740" lon="6.9431380">
        <ele>500.4</ele>
        <time>2022-07-21T08:40:21Z</time>
      </trkpt>
      <trkpt lat="47.2885410" lon="6.9430940">
        <ele>500.2</ele>
        <time>2022-07-21T08:40:22Z</time>
      </trkpt>
      <trkpt lat="47.2885160" lon="6.9430580">
        <ele>500.1</ele>
        <time>2022-07-21T08:40:23Z</time>
      </trkpt>
      <trkpt lat="47.2884900" lon="6.9430170">
        <ele>500.0</ele>
        <time>2022-07-21T08:40:24Z</time>
      </trkpt>
      <trkpt lat="47.2884650" lon="6.9429710">
        <ele>499.8</ele>
        <time>2022-07-21T08:40:25Z</time>
      </trkpt>
      <trkpt lat="47.2884260" lon="6.9428990">
        <ele>499.6</ele>
        <time>2022-07-21T08:40:26Z</time>
      </trkpt>
      <trkpt lat="47.2883860" lon="6.9428220">
        <ele>499.4</ele>
        <time>2022-07-21T08:40:27Z</time>
      </trkpt>
      <trkpt lat="47.2883450" lon="6.9427510">
        <ele>499.2</ele>
        <time>2022-07-21T08:40:28Z</time>
      </trkpt>
      <trkpt lat="47.2883070" lon="6.9426850">
        <ele>499.1</ele>
        <time>2022-07-21T08:40:29Z</time>
      </trkpt>
      <trkpt lat="47.2882770" lon="6.9426230">
        <ele>499.0</ele>
        <time>2022-07-21T08:40:30Z</time>
      </trkpt>
      <trkpt lat="47.2882500" lon="6.9425560">
        <ele>499.0</ele>
        <time>2022-07-21T08:40:31Z</time>
      </trkpt>
      <trkpt lat="47.2882170" lon="6.9424850">
        <ele>499.0</ele>
        <time>2022-07-21T08:40:32Z</time>
      </trkpt>
      <trkpt lat="47.2881840" lon="6.9424280">
        <ele>499.0</ele>
        <time>2022-07-21T08:40:33Z</time>
      </trkpt>
      <trkpt lat="47.2881630" lon="6.9423920">
        <ele>499.1</ele>
        <time>2022-07-21T08:40:34Z</time>
      </trkpt>
      <trkpt lat="47.2881390" lon="6.9423470">
        <ele>499.1</ele>
        <time>2022-07-21T08:40:35Z</time>
      </trkpt>
      <trkpt lat="47.2881160" lon="6.9422990">
        <ele>499.2</ele>
        <time>2022-07-21T08:40:36Z</time>
      </trkpt>
      <trkpt lat="47.2881000" lon="6.9422500">
        <ele>499.3</ele>
        <time>2022-07-21T08:40:37Z</time>
      </trkpt>
      <trkpt lat="47.2880890" lon="6.9422040">
        <ele>499.4</ele>
        <time>2022-07-21T08:40:38Z</time>
      </trkpt>
      <trkpt lat="47.2880640" lon="6.9421560">
        <ele>499.5</ele>
        <time>2022-07-21T08:40:39Z</time>
      </trkpt>
      <trkpt lat="47.2880380" lon="6.9421150">
        <ele>499.6</ele>
        <time>2022-07-21T08:40:40Z</time>
      </trkpt>
      <trkpt lat="47.2880200" lon="6.9420700">
        <ele>499.7</ele>
        <time>2022-07-21T08:40:41Z</time>
      </trkpt>
      <trkpt lat="47.2880020" lon="6.9420350">
        <ele>499.8</ele>
        <time>2022-07-21T08:40:42Z</time>
      </trkpt>
      <trkpt lat="47.2879860" lon="6.9420000">
        <ele>499.9</ele>
        <time>2022-07-21T08:40:43Z</time>
      </trkpt>
      <trkpt lat="47.2879510" lon="6.9419680">
        <ele>500.0</ele>
        <time>2022-07-21T08:40:44Z</time>
      </trkpt>
      <trkpt lat="47.2879390" lon="6.9419550">
        <ele>500.1</ele>
        <time>2022-07-21T08:40:45Z</time>
      </trkpt>
      <trkpt lat="47.2879090" lon="6.9419180">
        <ele>500.2</ele>
        <time>2022-07-21T08:40:46Z</time>
      </trkpt>
      <trkpt lat="47.2878990" lon="6.9419040">
        <ele>500.3</ele>
        <time>2022-07-21T08:40:47Z</time>
      </trkpt>
      <trkpt lat="47.2878800" lon="6.9418770">
        <ele>500.4</ele>
        <time>2022-07-21T08:40:48Z</time>
      </trkpt>
      <trkpt lat="47.2878480" lon="6.9418140">
        <ele>500.7</ele>
        <time>2022-07-21T08:40:50Z</time>
      </trkpt>
      <trkpt lat="47.2878140" lon="6.9417470">
        <ele>501.0</ele>
        <time>2022-07-21T08:40:52Z</time>
      </trkpt>
      <trkpt lat="47.2877960" lon="6.9417170">
        <ele>501.1</ele>
        <time>2022-07-21T08:40:53Z</time>
      </trkpt>
      <trkpt lat="47.2877780" lon="6.9416870">
        <ele>501.3</ele>
        <time>2022-07-21T08:40:54Z</time>
      </trkpt>
      <trkpt lat="47.2877500" lon="6.9416390">
        <ele>501.5</ele>
        <time>2022-07-21T08:40:55Z</time>
      </trkpt>
      <trkpt lat="47.2877370" lon="6.9416140">
        <ele>501.6</ele>
        <time>2022-07-21T08:40:56Z</time>
      </trkpt>
      <trkpt lat="47.2877130" lon="6.9415570">
        <ele>501.9</ele>
        <time>2022-07-21T08:40:58Z</time>
      </trkpt>
      <trkpt lat="47.2877070" lon="6.9415420">
        <ele>502.0</ele>
        <time>2022-07-21T08:40:59Z</time>
      </trkpt>
      <trkpt lat="47.2877000" lon="6.9415260">
        <ele>502.0</ele>
        <time>2022-07-21T08:41:00Z</time>
      </trkpt>
      <trkpt lat="47.2876830" lon="6.9414910">
        <ele>502.2</ele>
        <time>2022-07-21T08:41:01Z</time>
      </trkpt>
      <trkpt lat="47.2876520" lon="6.9414330">
        <ele>502.6</ele>
        <time>2022-07-21T08:41:03Z</time>
      </trkpt>
      <trkpt lat="47.2876390" lon="6.9414140">
        <ele>502.7</ele>
        <time>2022-07-21T08:41:04Z</time>
      </trkpt>
      <trkpt lat="47.2876260" lon="6.9413950">
        <ele>502.8</ele>
        <time>2022-07-21T08:41:05Z</time>
      </trkpt>
      <trkpt lat="47.2875900" lon="6.9413530">
        <ele>503.1</ele>
        <time>2022-07-21T08:41:07Z</time>
      </trkpt>
      <trkpt lat="47.2875740" lon="6.9413160">
        <ele>503.3</ele>
        <time>2022-07-21T08:41:08Z</time>
      </trkpt>
      <trkpt lat="47.2875700" lon="6.9413010">
        <ele>503.4</ele>
        <time>2022-07-21T08:41:09Z</time>
      </trkpt>
      <trkpt lat="47.2875540" lon="6.9412620">
        <ele>503.6</ele>
        <time>2022-07-21T08:41:10Z</time>
      </trkpt>
      <trkpt lat="47.2875300" lon="6.9412070">
        <ele>503.9</ele>
        <time>2022-07-21T08:41:12Z</time>
      </trkpt>
      <trkpt lat="47.2875080" lon="6.9411690">
        <ele>504.1</ele>
        <time>2022-07-21T08:41:13Z</time>
      </trkpt>
      <trkpt lat="47.2874850" lon="6.9411320">
        <ele>504.3</ele>
        <time>2022-07-21T08:41:14Z</time>
      </trkpt>
      <trkpt lat="47.2874770" lon="6.9411220">
        <ele>504.4</ele>
        <time>2022-07-21T08:41:15Z</time>
      </trkpt>
      <trkpt lat="47.2874550" lon="6.9410940">
        <ele>504.5</ele>
        <time>2022-07-21T08:41:16Z</time>
      </trkpt>
      <trkpt lat="47.2874350" lon="6.9410490">
        <ele>504.7</ele>
        <time>2022-07-21T08:41:17Z</time>
      </trkpt>
      <trkpt lat="47.2874200" lon="6.9409980">
        <ele>504.9</ele>
        <time>2022-07-21T08:41:18Z</time>
      </trkpt>
      <trkpt lat="47.2874160" lon="6.9409800">
        <ele>504.9</ele>
        <time>2022-07-21T08:41:19Z</time>
      </trkpt>
      <trkpt lat="47.2873980" lon="6.9409380">
        <ele>505.1</ele>
        <time>2022-07-21T08:41:20Z</time>
      </trkpt>
      <trkpt lat="47.2873770" lon="6.9408990">
        <ele>505.2</ele>
        <time>2022-07-21T08:41:21Z</time>
      </trkpt>
      <trkpt lat="47.2873580" lon="6.9408600">
        <ele>505.3</ele>
        <time>2022-07-21T08:41:22Z</time>
      </trkpt>
      <trkpt lat="47.2873390" lon="6.9408160">
        <ele>505.4</ele>
        <time>2022-07-21T08:41:23Z</time>
      </trkpt>
      <trkpt lat="47.2873200" lon="6.9407510">
        <ele>505.5</ele>
        <time>2022-07-21T08:41:24Z</time>
      </trkpt>
      <trkpt lat="47.2873060" lon="6.9407070">
        <ele>505.5</ele>
        <time>2022-07-21T08:41:25Z</time>
      </trkpt>
      <trkpt lat="47.2872820" lon="6.9406470">
        <ele>505.6</ele>
        <time>2022-07-21T08:41:27Z</time>
      </trkpt>
      <trkpt lat="47.2872650" lon="6.9406100">
        <ele>505.6</ele>
        <time>2022-07-21T08:41:28Z</time>
      </trkpt>
      <trkpt lat="47.2872150" lon="6.9405320">
        <ele>505.7</ele>
        <time>2022-07-21T08:41:30Z</time>
      </trkpt>
      <trkpt lat="47.2871700" lon="6.9404840">
        <ele>505.7</ele>
        <time>2022-07-21T08:41:31Z</time>
      </trkpt>
      <trkpt lat="47.2871370" lon="6.9404460">
        <ele>505.7</ele>
        <time>2022-07-21T08:41:32Z</time>
      </trkpt>
      <trkpt lat="47.2870990" lon="6.9403920">
        <ele>505.7</ele>
        <time>2022-07-21T08:41:33Z</time>
      </trkpt>
      <trkpt lat="47.2870690" lon="6.9403360">
        <ele>505.7</ele>
        <time>2022-07-21T08:41:34Z</time>
      </trkpt>
      <trkpt lat="47.2870420" lon="6.9402850">
        <ele>505.8</ele>
        <time>2022-07-21T08:41:35Z</time>
      </trkpt>
      <trkpt lat="47.2870050" lon="6.9402320">
        <ele>505.8</ele>
        <time>2022-07-21T08:41:36Z</time>
      </trkpt>
      <trkpt lat="47.2869700" lon="6.9401880">
        <ele>505.8</ele>
        <time>2022-07-21T08:41:37Z</time>
      </trkpt>
      <trkpt lat="47.2869350" lon="6.9401460">
        <ele>505.8</ele>
        <time>2022-07-21T08:41:38Z</time>
      </trkpt>
      <trkpt lat="47.2868880" lon="6.9400940">
        <ele>505.8</ele>
        <time>2022-07-21T08:41:39Z</time>
      </trkpt>
      <trkpt lat="47.2868110" lon="6.9399950">
        <ele>505.8</ele>
        <time>2022-07-21T08:41:41Z</time>
      </trkpt>
      <trkpt lat="47.2867400" lon="6.9399910">
        <ele>505.9</ele>
        <time>2022-07-21T08:41:42Z</time>
      </trkpt>
      <trkpt lat="47.2866960" lon="6.9399860">
        <ele>505.9</ele>
        <time>2022-07-21T08:41:43Z</time>
      </trkpt>
      <trkpt lat="47.2866330" lon="6.9399670">
        <ele>505.9</ele>
        <time>2022-07-21T08:41:44Z</time>
      </trkpt>
      <trkpt lat="47.2865940" lon="6.9399280">
        <ele>505.9</ele>
        <time>2022-07-21T08:41:45Z</time>
      </trkpt>
      <trkpt lat="47.2865800" lon="6.9399190">
        <ele>505.9</ele>
        <time>2022-07-21T08:41:46Z</time>
      </trkpt>
      <trkpt lat="47.2865210" lon="6.9398730">
        <ele>505.9</ele>
        <time>2022-07-21T08:41:48Z</time>
      </trkpt>
      <trkpt lat="47.2864330" lon="6.9398200">
        <ele>506.0</ele>
        <time>2022-07-21T08:41:49Z</time>
      </trkpt>
      <trkpt lat="47.2863900" lon="6.9397930">
        <ele>506.1</ele>
        <time>2022-07-21T08:41:50Z</time>
      </trkpt>
      <trkpt lat="47.2863280" lon="6.9397370">
        <ele>506.1</ele>
        <time>2022-07-21T08:41:52Z</time>
      </trkpt>
      <trkpt lat="47.2862710" lon="6.9397060">
        <ele>506.2</ele>
        <time>2022-07-21T08:41:53Z</time>
      </trkpt>
      <trkpt lat="47.2862290" lon="6.9396770">
        <ele>506.2</ele>
        <time>2022-07-21T08:41:54Z</time>
      </trkpt>
      <trkpt lat="47.2861880" lon="6.9396530">
        <ele>506.3</ele>
        <time>2022-07-21T08:41:55Z</time>
      </trkpt>
      <trkpt lat="47.2861260" lon="6.9396210">
        <ele>506.4</ele>
        <time>2022-07-21T08:41:56Z</time>
      </trkpt>
      <trkpt lat="47.2860740" lon="6.9396000">
        <ele>506.5</ele>
        <time>2022-07-21T08:41:58Z</time>
      </trkpt>
      <trkpt lat="47.2860190" lon="6.9395770">
        <ele>506.6</ele>
        <time>2022-07-21T08:41:59Z</time>
      </trkpt>
      <trkpt lat="47.2859720" lon="6.9395560">
        <ele>506.7</ele>
        <time>2022-07-21T08:42:00Z</time>
      </trkpt>
      <trkpt lat="47.2859140" lon="6.9395230">
        <ele>506.8</ele>
        <time>2022-07-21T08:42:01Z</time>
      </trkpt>
      <trkpt lat="47.2858650" lon="6.9394990">
        <ele>506.8</ele>
        <time>2022-07-21T08:42:03Z</time>
      </trkpt>
      <trkpt lat="47.2858230" lon="6.9394890">
        <ele>506.9</ele>
        <time>2022-07-21T08:42:04Z</time>
      </trkpt>
      <trkpt lat="47.2857850" lon="6.9394870">
        <ele>507.0</ele>
        <time>2022-07-21T08:42:05Z</time>
      </trkpt>
      <trkpt lat="47.2857520" lon="6.9394860">
        <ele>507.0</ele>
        <time>2022-07-21T08:42:06Z</time>
      </trkpt>
      <trkpt lat="47.2857090" lon="6.9395040">
        <ele>507.1</ele>
        <time>2022-07-21T08:42:07Z</time>
      </trkpt>
      <trkpt lat="47.2856290" lon="6.9395720">
        <ele>507.2</ele>
        <time>2022-07-21T08:42:09Z</time>
      </trkpt>
      <trkpt lat="47.2856020" lon="6.9395750">
        <ele>507.3</ele>
        <time>2022-07-21T08:42:10Z</time>
      </trkpt>
      <trkpt lat="47.2855690" lon="6.9395790">
        <ele>507.3</ele>
        <time>2022-07-21T08:42:11Z</time>
      </trkpt>
      <trkpt lat="47.2855490" lon="6.9396070">
        <ele>507.3</ele>
        <time>2022-07-21T08:42:12Z</time>
      </trkpt>
      <trkpt lat="47.2854820" lon="6.9396730">
        <ele>507.3</ele>
        <time>2022-07-21T08:42:13Z</time>
      </trkpt>
      <trkpt lat="47.2854310" lon="6.9397020">
        <ele>507.2</ele>
        <time>2022-07-21T08:42:14Z</time>
      </trkpt>
      <trkpt lat="47.2853840" lon="6.9397200">
        <ele>507.2</ele>
        <time>2022-07-21T08:42:15Z</time>
      </trkpt>
      <trkpt lat="47.2853380" lon="6.9397300">
        <ele>507.2</ele>
        <time>2022-07-21T08:42:16Z</time>
      </trkpt>
      <trkpt lat="47.2853090" lon="6.9397230">
        <ele>507.1</ele>
        <time>2022-07-21T08:42:17Z</time>
      </trkpt>
      <trkpt lat="47.2852800" lon="6.9397240">
        <ele>507.1</ele>
        <time>2022-07-21T08:42:18Z</time>
      </trkpt>
      <trkpt lat="47.2852080" lon="6.9397220">
        <ele>507.1</ele>
        <time>2022-07-21T08:42:20Z</time>
      </trkpt>
      <trkpt lat="47.2851700" lon="6.9397300">
        <ele>507.1</ele>
        <time>2022-07-21T08:42:21Z</time>
      </trkpt>
      <trkpt lat="47.2851500" lon="6.9397730">
        <ele>507.0</ele>
        <time>2022-07-21T08:42:22Z</time>
      </trkpt>
      <trkpt lat="47.2851120" lon="6.9398040">
        <ele>507.0</ele>
        <time>2022-07-21T08:42:23Z</time>
      </trkpt>
      <trkpt lat="47.2850780" lon="6.9398300">
        <ele>507.0</ele>
        <time>2022-07-21T08:42:24Z</time>
      </trkpt>
      <trkpt lat="47.2850460" lon="6.9398540">
        <ele>506.9</ele>
        <time>2022-07-21T08:42:25Z</time>
      </trkpt>
      <trkpt lat="47.2849880" lon="6.9398850">
        <ele>506.9</ele>
        <time>2022-07-21T08:42:26Z</time>
      </trkpt>
      <trkpt lat="47.2849650" lon="6.9399070">
        <ele>506.9</ele>
        <time>2022-07-21T08:42:27Z</time>
      </trkpt>
      <trkpt lat="47.2849500" lon="6.9399160">
        <ele>506.9</ele>
        <time>2022-07-21T08:42:28Z</time>
      </trkpt>
      <trkpt lat="47.2848360" lon="6.9399440">
        <ele>506.7</ele>
        <time>2022-07-21T08:42:30Z</time>
      </trkpt>
      <trkpt lat="47.2847680" lon="6.9399580">
        <ele>506.6</ele>
        <time>2022-07-21T08:42:31Z</time>
      </trkpt>
      <trkpt lat="47.2847230" lon="6.9399870">
        <ele>506.5</ele>
        <time>2022-07-21T08:42:32Z</time>
      </trkpt>
      <trkpt lat="47.2846630" lon="6.9400180">
        <ele>506.4</ele>
        <time>2022-07-21T08:42:33Z</time>
      </trkpt>
      <trkpt lat="47.2846070" lon="6.9400510">
        <ele>506.2</ele>
        <time>2022-07-21T08:42:34Z</time>
      </trkpt>
      <trkpt lat="47.2845570" lon="6.9401000">
        <ele>506.1</ele>
        <time>2022-07-21T08:42:35Z</time>
      </trkpt>
      <trkpt lat="47.2845120" lon="6.9401570">
        <ele>506.0</ele>
        <time>2022-07-21T08:42:36Z</time>
      </trkpt>
      <trkpt lat="47.2844650" lon="6.9402110">
        <ele>505.9</ele>
        <time>2022-07-21T08:42:37Z</time>
      </trkpt>
      <trkpt lat="47.2844150" lon="6.9402610">
        <ele>505.9</ele>
        <time>2022-07-21T08:42:38Z</time>
      </trkpt>
      <trkpt lat="47.2843680" lon="6.9403080">
        <ele>505.8</ele>
        <time>2022-07-21T08:42:39Z</time>
      </trkpt>
      <trkpt lat="47.2843220" lon="6.9403580">
        <ele>505.8</ele>
        <time>2022-07-21T08:42:40Z</time>
      </trkpt>
      <trkpt lat="47.2842810" lon="6.9403970">
        <ele>505.8</ele>
        <time>2022-07-21T08:42:41Z</time>
      </trkpt>
      <trkpt lat="47.2842460" lon="6.9404270">
        <ele>505.7</ele>
        <time>2022-07-21T08:42:42Z</time>
      </trkpt>
      <trkpt lat="47.2842070" lon="6.9404270">
        <ele>505.7</ele>
        <time>2022-07-21T08:42:43Z</time>
      </trkpt>
      <trkpt lat="47.2841660" lon="6.9404590">
        <ele>505.6</ele>
        <time>2022-07-21T08:42:44Z</time>
      </trkpt>
      <trkpt lat="47.2841430" lon="6.9405060">
        <ele>505.6</ele>
        <time>2022-07-21T08:42:45Z</time>
      </trkpt>
      <trkpt lat="47.2841050" lon="6.9405500">
        <ele>505.5</ele>
        <time>2022-07-21T08:42:46Z</time>
      </trkpt>
      <trkpt lat="47.2840680" lon="6.9405880">
        <ele>505.4</ele>
        <time>2022-07-21T08:42:47Z</time>
      </trkpt>
      <trkpt lat="47.2840240" lon="6.9406140">
        <ele>505.4</ele>
        <time>2022-07-21T08:42:48Z</time>
      </trkpt>
      <trkpt lat="47.2839850" lon="6.9406470">
        <ele>505.3</ele>
        <time>2022-07-21T08:42:50Z</time>
      </trkpt>
      <trkpt lat="47.2839240" lon="6.9407370">
        <ele>505.2</ele>
        <time>2022-07-21T08:42:51Z</time>
      </trkpt>
      <trkpt lat="47.2838870" lon="6.9407760">
        <ele>505.1</ele>
        <time>2022-07-21T08:42:52Z</time>
      </trkpt>
      <trkpt lat="47.2838530" lon="6.9408560">
        <ele>505.1</ele>
        <time>2022-07-21T08:42:54Z</time>
      </trkpt>
      <trkpt lat="47.2838160" lon="6.9409000">
        <ele>505.0</ele>
        <time>2022-07-21T08:42:55Z</time>
      </trkpt>
      <trkpt lat="47.2837940" lon="6.9409350">
        <ele>505.0</ele>
        <time>2022-07-21T08:42:56Z</time>
      </trkpt>
      <trkpt lat="47.2837670" lon="6.9409700">
        <ele>505.0</ele>
        <time>2022-07-21T08:42:57Z</time>
      </trkpt>
      <trkpt lat="47.2837390" lon="6.9410010">
        <ele>505.0</ele>
        <time>2022-07-21T08:42:58Z</time>
      </trkpt>
      <trkpt lat="47.2837140" lon="6.9410470">
        <ele>505.0</ele>
        <time>2022-07-21T08:42:59Z</time>
      </trkpt>
      <trkpt lat="47.2836950" lon="6.9410950">
        <ele>505.0</ele>
        <time>2022-07-21T08:43:00Z</time>
      </trkpt>
      <trkpt lat="47.2836330" lon="6.9411990">
        <ele>505.0</ele>
        <time>2022-07-21T08:43:01Z</time>
      </trkpt>
      <trkpt lat="47.2836020" lon="6.9412440">
        <ele>505.0</ele>
        <time>2022-07-21T08:43:02Z</time>
      </trkpt>
      <trkpt lat="47.2835740" lon="6.9412390">
        <ele>505.0</ele>
        <time>2022-07-21T08:43:03Z</time>
      </trkpt>
      <trkpt lat="47.2835370" lon="6.9412610">
        <ele>505.0</ele>
        <time>2022-07-21T08:43:04Z</time>
      </trkpt>
      <trkpt lat="47.2834830" lon="6.9413310">
        <ele>505.0</ele>
        <time>2022-07-21T08:43:06Z</time>
      </trkpt>
      <trkpt lat="47.2833900" lon="6.9414470">
        <ele>505.0</ele>
        <time>2022-07-21T08:43:07Z</time>
      </trkpt>
      <trkpt lat="47.2833730" lon="6.9414860">
        <ele>504.9</ele>
        <time>2022-07-21T08:43:08Z</time>
      </trkpt>
      <trkpt lat="47.2833130" lon="6.9415530">
        <ele>504.8</ele>
        <time>2022-07-21T08:43:09Z</time>
      </trkpt>
      <trkpt lat="47.2833180" lon="6.9415960">
        <ele>504.8</ele>
        <time>2022-07-21T08:43:10Z</time>
      </trkpt>
      <trkpt lat="47.2832800" lon="6.9416410">
        <ele>504.7</ele>
        <time>2022-07-21T08:43:12Z</time>
      </trkpt>
      <trkpt lat="47.2831640" lon="6.9416900">
        <ele>504.6</ele>
        <time>2022-07-21T08:43:13Z</time>
      </trkpt>
      <trkpt lat="47.2830890" lon="6.9417210">
        <ele>504.6</ele>
        <time>2022-07-21T08:43:14Z</time>
      </trkpt>
      <trkpt lat="47.2830470" lon="6.9417650">
        <ele>504.5</ele>
        <time>2022-07-21T08:43:15Z</time>
      </trkpt>
      <trkpt lat="47.2830030" lon="6.9417900">
        <ele>504.5</ele>
        <time>2022-07-21T08:43:16Z</time>
      </trkpt>
      <trkpt lat="47.2829840" lon="6.9418070">
        <ele>504.5</ele>
        <time>2022-07-21T08:43:17Z</time>
      </trkpt>
      <trkpt lat="47.2829470" lon="6.9418490">
        <ele>504.4</ele>
        <time>2022-07-21T08:43:18Z</time>
      </trkpt>
      <trkpt lat="47.2829080" lon="6.9419020">
        <ele>504.3</ele>
        <time>2022-07-21T08:43:19Z</time>
      </trkpt>
      <trkpt lat="47.2828750" lon="6.9419470">
        <ele>504.3</ele>
        <time>2022-07-21T08:43:20Z</time>
      </trkpt>
      <trkpt lat="47.2828400" lon="6.9419790">
        <ele>504.2</ele>
        <time>2022-07-21T08:43:21Z</time>
      </trkpt>
      <trkpt lat="47.2828270" lon="6.9420020">
        <ele>504.2</ele>
        <time>2022-07-21T08:43:22Z</time>
      </trkpt>
      <trkpt lat="47.2827940" lon="6.9420710">
        <ele>504.0</ele>
        <time>2022-07-21T08:43:23Z</time>
      </trkpt>
      <trkpt lat="47.2827610" lon="6.9421360">
        <ele>503.9</ele>
        <time>2022-07-21T08:43:24Z</time>
      </trkpt>
      <trkpt lat="47.2827330" lon="6.9421900">
        <ele>503.7</ele>
        <time>2022-07-21T08:43:25Z</time>
      </trkpt>
      <trkpt lat="47.2827140" lon="6.9422370">
        <ele>503.6</ele>
        <time>2022-07-21T08:43:26Z</time>
      </trkpt>
      <trkpt lat="47.2826920" lon="6.9423080">
        <ele>503.5</ele>
        <time>2022-07-21T08:43:27Z</time>
      </trkpt>
      <trkpt lat="47.2826540" lon="6.9423760">
        <ele>503.3</ele>
        <time>2022-07-21T08:43:28Z</time>
      </trkpt>
      <trkpt lat="47.2826300" lon="6.9424400">
        <ele>503.2</ele>
        <time>2022-07-21T08:43:29Z</time>
      </trkpt>
      <trkpt lat="47.2826050" lon="6.9424890">
        <ele>503.1</ele>
        <time>2022-07-21T08:43:30Z</time>
      </trkpt>
      <trkpt lat="47.2825760" lon="6.9425480">
        <ele>503.0</ele>
        <time>2022-07-21T08:43:31Z</time>
      </trkpt>
      <trkpt lat="47.2825460" lon="6.9426010">
        <ele>502.9</ele>
        <time>2022-07-21T08:43:32Z</time>
      </trkpt>
      <trkpt lat="47.2825180" lon="6.9426370">
        <ele>502.8</ele>
        <time>2022-07-21T08:43:33Z</time>
      </trkpt>
      <trkpt lat="47.2824850" lon="6.9426630">
        <ele>502.7</ele>
        <time>2022-07-21T08:43:34Z</time>
      </trkpt>
      <trkpt lat="47.2824280" lon="6.9427960">
        <ele>502.5</ele>
        <time>2022-07-21T08:43:36Z</time>
      </trkpt>
      <trkpt lat="47.2824030" lon="6.9428720">
        <ele>502.4</ele>
        <time>2022-07-21T08:43:37Z</time>
      </trkpt>
      <trkpt lat="47.2823740" lon="6.9429340">
        <ele>502.4</ele>
        <time>2022-07-21T08:43:38Z</time>
      </trkpt>
      <trkpt lat="47.2823300" lon="6.9429910">
        <ele>502.3</ele>
        <time>2022-07-21T08:43:39Z</time>
      </trkpt>
      <trkpt lat="47.2822860" lon="6.9430490">
        <ele>502.2</ele>
        <time>2022-07-21T08:43:40Z</time>
      </trkpt>
      <trkpt lat="47.2822520" lon="6.9431150">
        <ele>502.1</ele>
        <time>2022-07-21T08:43:41Z</time>
      </trkpt>
      <trkpt lat="47.2822150" lon="6.9431770">
        <ele>502.1</ele>
        <time>2022-07-21T08:43:42Z</time>
      </trkpt>
      <trkpt lat="47.2821720" lon="6.9432330">
        <ele>502.1</ele>
        <time>2022-07-21T08:43:43Z</time>
      </trkpt>
      <trkpt lat="47.2821370" lon="6.9432840">
        <ele>502.0</ele>
        <time>2022-07-21T08:43:44Z</time>
      </trkpt>
      <trkpt lat="47.2821010" lon="6.9433340">
        <ele>502.0</ele>
        <time>2022-07-21T08:43:45Z</time>
      </trkpt>
      <trkpt lat="47.2820650" lon="6.9433940">
        <ele>502.0</ele>
        <time>2022-07-21T08:43:46Z</time>
      </trkpt>
      <trkpt lat="47.2819760" lon="6.9434500">
        <ele>501.9</ele>
        <time>2022-07-21T08:43:48Z</time>
      </trkpt>
      <trkpt lat="47.2819330" lon="6.9435080">
        <ele>501.8</ele>
        <time>2022-07-21T08:43:49Z</time>
      </trkpt>
      <trkpt lat="47.2818930" lon="6.9435590">
        <ele>501.8</ele>
        <time>2022-07-21T08:43:50Z</time>
      </trkpt>
      <trkpt lat="47.2818550" lon="6.9436120">
        <ele>501.7</ele>
        <time>2022-07-21T08:43:51Z</time>
      </trkpt>
      <trkpt lat="47.2818280" lon="6.9436590">
        <ele>501.7</ele>
        <time>2022-07-21T08:43:52Z</time>
      </trkpt>
      <trkpt lat="47.2817840" lon="6.9437080">
        <ele>501.7</ele>
        <time>2022-07-21T08:43:53Z</time>
      </trkpt>
      <trkpt lat="47.2817310" lon="6.9437480">
        <ele>501.7</ele>
        <time>2022-07-21T08:43:54Z</time>
      </trkpt>
      <trkpt lat="47.2816850" lon="6.9437910">
        <ele>501.7</ele>
        <time>2022-07-21T08:43:55Z</time>
      </trkpt>
      <trkpt lat="47.2816450" lon="6.9438360">
        <ele>501.7</ele>
        <time>2022-07-21T08:43:56Z</time>
      </trkpt>
      <trkpt lat="47.2816170" lon="6.9438920">
        <ele>501.8</ele>
        <time>2022-07-21T08:43:57Z</time>
      </trkpt>
      <trkpt lat="47.2815950" lon="6.9439160">
        <ele>501.8</ele>
        <time>2022-07-21T08:43:58Z</time>
      </trkpt>
      <trkpt lat="47.2815640" lon="6.9439490">
        <ele>501.8</ele>
        <time>2022-07-21T08:43:59Z</time>
      </trkpt>
      <trkpt lat="47.2815310" lon="6.9439920">
        <ele>501.8</ele>
        <time>2022-07-21T08:44:00Z</time>
      </trkpt>
      <trkpt lat="47.2814790" lon="6.9440300">
        <ele>501.9</ele>
        <time>2022-07-21T08:44:01Z</time>
      </trkpt>
      <trkpt lat="47.2814390" lon="6.9440660">
        <ele>501.9</ele>
        <time>2022-07-21T08:44:02Z</time>
      </trkpt>
      <trkpt lat="47.2813980" lon="6.9440840">
        <ele>502.0</ele>
        <time>2022-07-21T08:44:04Z</time>
      </trkpt>
      <trkpt lat="47.2813780" lon="6.9441060">
        <ele>502.0</ele>
        <time>2022-07-21T08:44:05Z</time>
      </trkpt>
      <trkpt lat="47.2813350" lon="6.9441600">
        <ele>502.1</ele>
        <time>2022-07-21T08:44:06Z</time>
      </trkpt>
      <trkpt lat="47.2812970" lon="6.9442000">
        <ele>502.1</ele>
        <time>2022-07-21T08:44:07Z</time>
      </trkpt>
      <trkpt lat="47.2812210" lon="6.9442950">
        <ele>502.3</ele>
        <time>2022-07-21T08:44:09Z</time>
      </trkpt>
      <trkpt lat="47.2811740" lon="6.9443480">
        <ele>502.4</ele>
        <time>2022-07-21T08:44:10Z</time>
      </trkpt>
      <trkpt lat="47.2811340" lon="6.9443870">
        <ele>502.5</ele>
        <time>2022-07-21T08:44:11Z</time>
      </trkpt>
      <trkpt lat="47.2810940" lon="6.9444160">
        <ele>502.6</ele>
        <time>2022-07-21T08:44:12Z</time>
      </trkpt>
      <trkpt lat="47.2810550" lon="6.9444460">
        <ele>502.7</ele>
        <time>2022-07-21T08:44:13Z</time>
      </trkpt>
      <trkpt lat="47.2810170" lon="6.9444730">
        <ele>502.8</ele>
        <time>2022-07-21T08:44:14Z</time>
      </trkpt>
      <trkpt lat="47.2809800" lon="6.9444960">
        <ele>502.9</ele>
        <time>2022-07-21T08:44:15Z</time>
      </trkpt>
      <trkpt lat="47.2809500" lon="6.9445130">
        <ele>503.0</ele>
        <time>2022-07-21T08:44:16Z</time>
      </trkpt>
      <trkpt lat="47.2809060" lon="6.9445300">
        <ele>503.2</ele>
        <time>2022-07-21T08:44:17Z</time>
      </trkpt>
      <trkpt lat="47.2808730" lon="6.9445390">
        <ele>503.3</ele>
        <time>2022-07-21T08:44:18Z</time>
      </trkpt>
      <trkpt lat="47.2808400" lon="6.9445480">
        <ele>503.4</ele>
        <time>2022-07-21T08:44:19Z</time>
      </trkpt>
      <trkpt lat="47.2808040" lon="6.9445550">
        <ele>503.6</ele>
        <time>2022-07-21T08:44:20Z</time>
      </trkpt>
      <trkpt lat="47.2807710" lon="6.9445620">
        <ele>503.7</ele>
        <time>2022-07-21T08:44:21Z</time>
      </trkpt>
      <trkpt lat="47.2807380" lon="6.9445700">
        <ele>503.8</ele>
        <time>2022-07-21T08:44:22Z</time>
      </trkpt>
      <trkpt lat="47.2807040" lon="6.9445750">
        <ele>503.9</ele>
        <time>2022-07-21T08:44:23Z</time>
      </trkpt>
      <trkpt lat="47.2806690" lon="6.9445780">
        <ele>504.1</ele>
        <time>2022-07-21T08:44:24Z</time>
      </trkpt>
      <trkpt lat="47.2806350" lon="6.9445790">
        <ele>504.2</ele>
        <time>2022-07-21T08:44:25Z</time>
      </trkpt>
      <trkpt lat="47.2806020" lon="6.9445850">
        <ele>504.3</ele>
        <time>2022-07-21T08:44:26Z</time>
      </trkpt>
      <trkpt lat="47.2805730" lon="6.9445880">
        <ele>504.4</ele>
        <time>2022-07-21T08:44:27Z</time>
      </trkpt>
      <trkpt lat="47.2805260" lon="6.9445970">
        <ele>504.5</ele>
        <time>2022-07-21T08:44:28Z</time>
      </trkpt>
      <trkpt lat="47.2804900" lon="6.9446020">
        <ele>504.6</ele>
        <time>2022-07-21T08:44:29Z</time>
      </trkpt>
      <trkpt lat="47.2804530" lon="6.9446150">
        <ele>504.8</ele>
        <time>2022-07-21T08:44:30Z</time>
      </trkpt>
      <trkpt lat="47.2804020" lon="6.9446230">
        <ele>505.0</ele>
        <time>2022-07-21T08:44:32Z</time>
      </trkpt>
      <trkpt lat="47.2803580" lon="6.9446390">
        <ele>505.1</ele>
        <time>2022-07-21T08:44:33Z</time>
      </trkpt>
      <trkpt lat="47.2803260" lon="6.9446580">
        <ele>505.3</ele>
        <time>2022-07-21T08:44:35Z</time>
      </trkpt>
      <trkpt lat="47.2802910" lon="6.9446740">
        <ele>505.4</ele>
        <time>2022-07-21T08:44:36Z</time>
      </trkpt>
      <trkpt lat="47.2802540" lon="6.9446960">
        <ele>505.5</ele>
        <time>2022-07-21T08:44:37Z</time>
      </trkpt>
      <trkpt lat="47.2802130" lon="6.9447290">
        <ele>505.7</ele>
        <time>2022-07-21T08:44:39Z</time>
      </trkpt>
      <trkpt lat="47.2801710" lon="6.9447370">
        <ele>505.8</ele>
        <time>2022-07-21T08:44:40Z</time>
      </trkpt>
      <trkpt lat="47.2801350" lon="6.9447170">
        <ele>505.9</ele>
        <time>2022-07-21T08:44:41Z</time>
      </trkpt>
      <trkpt lat="47.2801180" lon="6.9447110">
        <ele>505.9</ele>
        <time>2022-07-21T08:44:42Z</time>
      </trkpt>
      <trkpt lat="47.2800810" lon="6.9446890">
        <ele>505.9</ele>
        <time>2022-07-21T08:44:43Z</time>
      </trkpt>
      <trkpt lat="47.2800510" lon="6.9446630">
        <ele>505.9</ele>
        <time>2022-07-21T08:44:44Z</time>
      </trkpt>
      <trkpt lat="47.2800100" lon="6.9446350">
        <ele>505.9</ele>
        <time>2022-07-21T08:44:45Z</time>
      </trkpt>
      <trkpt lat="47.2799640" lon="6.9446040">
        <ele>505.9</ele>
        <time>2022-07-21T08:44:47Z</time>
      </trkpt>
      <trkpt lat="47.2799030" lon="6.9445520">
        <ele>505.9</ele>
        <time>2022-07-21T08:44:49Z</time>
      </trkpt>
      <trkpt lat="47.2798670" lon="6.9445160">
        <ele>505.9</ele>
        <time>2022-07-21T08:44:50Z</time>
      </trkpt>
      <trkpt lat="47.2798430" lon="6.9444880">
        <ele>505.8</ele>
        <time>2022-07-21T08:44:51Z</time>
      </trkpt>
      <trkpt lat="47.2797920" lon="6.9444550">
        <ele>505.8</ele>
        <time>2022-07-21T08:44:52Z</time>
      </trkpt>
      <trkpt lat="47.2797580" lon="6.9444370">
        <ele>505.7</ele>
        <time>2022-07-21T08:44:53Z</time>
      </trkpt>
      <trkpt lat="47.2796860" lon="6.9443980">
        <ele>505.7</ele>
        <time>2022-07-21T08:44:54Z</time>
      </trkpt>
      <trkpt lat="47.2796320" lon="6.9443730">
        <ele>505.6</ele>
        <time>2022-07-21T08:44:55Z</time>
      </trkpt>
      <trkpt lat="47.2795620" lon="6.9443510">
        <ele>505.5</ele>
        <time>2022-07-21T08:44:56Z</time>
      </trkpt>
      <trkpt lat="47.2794990" lon="6.9443380">
        <ele>505.4</ele>
        <time>2022-07-21T08:44:57Z</time>
      </trkpt>
      <trkpt lat="47.2794350" lon="6.9443330">
        <ele>505.3</ele>
        <time>2022-07-21T08:44:58Z</time>
      </trkpt>
      <trkpt lat="47.2793850" lon="6.9443260">
        <ele>505.3</ele>
        <time>2022-07-21T08:44:59Z</time>
      </trkpt>
      <trkpt lat="47.2793360" lon="6.9443130">
        <ele>505.2</ele>
        <time>2022-07-21T08:45:00Z</time>
      </trkpt>
      <trkpt lat="47.2792900" lon="6.9443020">
        <ele>505.2</ele>
        <time>2022-07-21T08:45:01Z</time>
      </trkpt>
      <trkpt lat="47.2792540" lon="6.9443010">
        <ele>505.2</ele>
        <time>2022-07-21T08:45:02Z</time>
      </trkpt>
      <trkpt lat="47.2792160" lon="6.9443000">
        <ele>505.2</ele>
        <time>2022-07-21T08:45:03Z</time>
      </trkpt>
      <trkpt lat="47.2791910" lon="6.9442990">
        <ele>505.2</ele>
        <time>2022-07-21T08:45:04Z</time>
      </trkpt>
      <trkpt lat="47.2791270" lon="6.9443060">
        <ele>505.3</ele>
        <time>2022-07-21T08:45:05Z</time>
      </trkpt>
      <trkpt lat="47.2790220" lon="6.9443230">
        <ele>505.4</ele>
        <time>2022-07-21T08:45:07Z</time>
      </trkpt>
      <trkpt lat="47.2789760" lon="6.9443420">
        <ele>505.4</ele>
        <time>2022-07-21T08:45:08Z</time>
      </trkpt>
      <trkpt lat="47.2789240" lon="6.9443800">
        <ele>505.5</ele>
        <time>2022-07-21T08:45:09Z</time>
      </trkpt>
      <trkpt lat="47.2788790" lon="6.9444190">
        <ele>505.6</ele>
        <time>2022-07-21T08:45:10Z</time>
      </trkpt>
      <trkpt lat="47.2788360" lon="6.9444550">
        <ele>505.6</ele>
        <time>2022-07-21T08:45:11Z</time>
      </trkpt>
      <trkpt lat="47.2787930" lon="6.9445070">
        <ele>505.7</ele>
        <time>2022-07-21T08:45:12Z</time>
      </trkpt>
      <trkpt lat="47.2787660" lon="6.9445340">
        <ele>505.7</ele>
        <time>2022-07-21T08:45:13Z</time>
      </trkpt>
      <trkpt lat="47.2787300" lon="6.9445650">
        <ele>505.7</ele>
        <time>2022-07-21T08:45:14Z</time>
      </trkpt>
      <trkpt lat="47.2786880" lon="6.9446030">
        <ele>505.8</ele>
        <time>2022-07-21T08:45:15Z</time>
      </trkpt>
      <trkpt lat="47.2786380" lon="6.9446370">
        <ele>505.8</ele>
        <time>2022-07-21T08:45:17Z</time>
      </trkpt>
      <trkpt lat="47.2785990" lon="6.9446640">
        <ele>505.9</ele>
        <time>2022-07-21T08:45:18Z</time>
      </trkpt>
      <trkpt lat="47.2785610" lon="6.9446930">
        <ele>506.0</ele>
        <time>2022-07-21T08:45:19Z</time>
      </trkpt>
      <trkpt lat="47.2785240" lon="6.9447140">
        <ele>506.0</ele>
        <time>2022-07-21T08:45:20Z</time>
      </trkpt>
      <trkpt lat="47.2784860" lon="6.9447350">
        <ele>506.1</ele>
        <time>2022-07-21T08:45:21Z</time>
      </trkpt>
      <trkpt lat="47.2784480" lon="6.9447560">
        <ele>506.2</ele>
        <time>2022-07-21T08:45:22Z</time>
      </trkpt>
      <trkpt lat="47.2784160" lon="6.9447710">
        <ele>506.3</ele>
        <time>2022-07-21T08:45:23Z</time>
      </trkpt>
      <trkpt lat="47.2783890" lon="6.9447810">
        <ele>506.3</ele>
        <time>2022-07-21T08:45:24Z</time>
      </trkpt>
      <trkpt lat="47.2783590" lon="6.9447970">
        <ele>506.4</ele>
        <time>2022-07-21T08:45:25Z</time>
      </trkpt>
      <trkpt lat="47.2783210" lon="6.9448230">
        <ele>506.5</ele>
        <time>2022-07-21T08:45:26Z</time>
      </trkpt>
      <trkpt lat="47.2782840" lon="6.9448520">
        <ele>506.5</ele>
        <time>2022-07-21T08:45:27Z</time>
      </trkpt>
      <trkpt lat="47.2782520" lon="6.9448770">
        <ele>506.6</ele>
        <time>2022-07-21T08:45:28Z</time>
      </trkpt>
      <trkpt lat="47.2782070" lon="6.9449400">
        <ele>506.7</ele>
        <time>2022-07-21T08:45:29Z</time>
      </trkpt>
      <trkpt lat="47.2781750" lon="6.9449850">
        <ele>506.8</ele>
        <time>2022-07-21T08:45:30Z</time>
      </trkpt>
      <trkpt lat="47.2781360" lon="6.9450080">
        <ele>506.9</ele>
        <time>2022-07-21T08:45:31Z</time>
      </trkpt>
      <trkpt lat="47.2781180" lon="6.9450110">
        <ele>507.0</ele>
        <time>2022-07-21T08:45:32Z</time>
      </trkpt>
      <trkpt lat="47.2780770" lon="6.9450560">
        <ele>507.1</ele>
        <time>2022-07-21T08:45:34Z</time>
      </trkpt>
      <trkpt lat="47.2780500" lon="6.9450850">
        <ele>507.1</ele>
        <time>2022-07-21T08:45:35Z</time>
      </trkpt>
      <trkpt lat="47.2780160" lon="6.9451160">
        <ele>507.2</ele>
        <time>2022-07-21T08:45:36Z</time>
      </trkpt>
      <trkpt lat="47.2779910" lon="6.9451480">
        <ele>507.2</ele>
        <time>2022-07-21T08:45:37Z</time>
      </trkpt>
      <trkpt lat="47.2779580" lon="6.9451770">
        <ele>507.2</ele>
        <time>2022-07-21T08:45:38Z</time>
      </trkpt>
      <trkpt lat="47.2779190" lon="6.9451980">
        <ele>507.1</ele>
        <time>2022-07-21T08:45:39Z</time>
      </trkpt>
      <trkpt lat="47.2778860" lon="6.9452160">
        <ele>507.1</ele>
        <time>2022-07-21T08:45:40Z</time>
      </trkpt>
      <trkpt lat="47.2778300" lon="6.9452640">
        <ele>506.9</ele>
        <time>2022-07-21T08:45:41Z</time>
      </trkpt>
      <trkpt lat="47.2777800" lon="6.9453030">
        <ele>506.8</ele>
        <time>2022-07-21T08:45:42Z</time>
      </trkpt>
      <trkpt lat="47.2777360" lon="6.9453390">
        <ele>506.6</ele>
        <time>2022-07-21T08:45:43Z</time>
      </trkpt>
      <trkpt lat="47.2776910" lon="6.9453750">
        <ele>506.5</ele>
        <time>2022-07-21T08:45:44Z</time>
      </trkpt>
      <trkpt lat="47.2776430" lon="6.9454160">
        <ele>506.3</ele>
        <time>2022-07-21T08:45:45Z</time>
      </trkpt>
      <trkpt lat="47.2776020" lon="6.9454710">
        <ele>506.2</ele>
        <time>2022-07-21T08:45:46Z</time>
      </trkpt>
      <trkpt lat="47.2775660" lon="6.9455160">
        <ele>506.0</ele>
        <time>2022-07-21T08:45:47Z</time>
      </trkpt>
      <trkpt lat="47.2775280" lon="6.9455590">
        <ele>505.9</ele>
        <time>2022-07-21T08:45:48Z</time>
      </trkpt>
      <trkpt lat="47.2774880" lon="6.9455990">
        <ele>505.8</ele>
        <time>2022-07-21T08:45:49Z</time>
      </trkpt>
      <trkpt lat="47.2774450" lon="6.9456330">
        <ele>505.6</ele>
        <time>2022-07-21T08:45:50Z</time>
      </trkpt>
      <trkpt lat="47.2773970" lon="6.9456630">
        <ele>505.5</ele>
        <time>2022-07-21T08:45:51Z</time>
      </trkpt>
      <trkpt lat="47.2773520" lon="6.9456950">
        <ele>505.3</ele>
        <time>2022-07-21T08:45:52Z</time>
      </trkpt>
      <trkpt lat="47.2773060" lon="6.9457300">
        <ele>505.2</ele>
        <time>2022-07-21T08:45:53Z</time>
      </trkpt>
      <trkpt lat="47.2772620" lon="6.9457710">
        <ele>505.1</ele>
        <time>2022-07-21T08:45:54Z</time>
      </trkpt>
      <trkpt lat="47.2772180" lon="6.9458180">
        <ele>505.1</ele>
        <time>2022-07-21T08:45:55Z</time>
      </trkpt>
      <trkpt lat="47.2771760" lon="6.9458630">
        <ele>505.0</ele>
        <time>2022-07-21T08:45:56Z</time>
      </trkpt>
      <trkpt lat="47.2771350" lon="6.9459060">
        <ele>505.0</ele>
        <time>2022-07-21T08:45:57Z</time>
      </trkpt>
      <trkpt lat="47.2770930" lon="6.9459430">
        <ele>505.0</ele>
        <time>2022-07-21T08:45:58Z</time>
      </trkpt>
      <trkpt lat="47.2770550" lon="6.9459770">
        <ele>505.0</ele>
        <time>2022-07-21T08:45:59Z</time>
      </trkpt>
      <trkpt lat="47.2770160" lon="6.9460060">
        <ele>504.9</ele>
        <time>2022-07-21T08:46:00Z</time>
      </trkpt>
      <trkpt lat="47.2769780" lon="6.9460400">
        <ele>504.9</ele>
        <time>2022-07-21T08:46:01Z</time>
      </trkpt>
      <trkpt lat="47.2769560" lon="6.9460730">
        <ele>504.9</ele>
        <time>2022-07-21T08:46:02Z</time>
      </trkpt>
      <trkpt lat="47.2769250" lon="6.9461070">
        <ele>504.9</ele>
        <time>2022-07-21T08:46:03Z</time>
      </trkpt>
      <trkpt lat="47.2769000" lon="6.9461360">
        <ele>504.8</ele>
        <time>2022-07-21T08:46:04Z</time>
      </trkpt>
      <trkpt lat="47.2768720" lon="6.9461580">
        <ele>504.8</ele>
        <time>2022-07-21T08:46:05Z</time>
      </trkpt>
      <trkpt lat="47.2768310" lon="6.9461920">
        <ele>504.7</ele>
        <time>2022-07-21T08:46:06Z</time>
      </trkpt>
      <trkpt lat="47.2767990" lon="6.9462140">
        <ele>504.7</ele>
        <time>2022-07-21T08:46:07Z</time>
      </trkpt>
      <trkpt lat="47.2767630" lon="6.9462390">
        <ele>504.6</ele>
        <time>2022-07-21T08:46:08Z</time>
      </trkpt>
      <trkpt lat="47.2767200" lon="6.9462790">
        <ele>504.5</ele>
        <time>2022-07-21T08:46:09Z</time>
      </trkpt>
      <trkpt lat="47.2766740" lon="6.9463230">
        <ele>504.3</ele>
        <time>2022-07-21T08:46:10Z</time>
      </trkpt>
      <trkpt lat="47.2766280" lon="6.9463560">
        <ele>504.2</ele>
        <time>2022-07-21T08:46:11Z</time>
      </trkpt>
      <trkpt lat="47.2765800" lon="6.9463950">
        <ele>504.0</ele>
        <time>2022-07-21T08:46:12Z</time>
      </trkpt>
      <trkpt lat="47.2765330" lon="6.9464420">
        <ele>503.9</ele>
        <time>2022-07-21T08:46:13Z</time>
      </trkpt>
      <trkpt lat="47.2764800" lon="6.9464840">
        <ele>503.7</ele>
        <time>2022-07-21T08:46:14Z</time>
      </trkpt>
      <trkpt lat="47.2764260" lon="6.9465210">
        <ele>503.6</ele>
        <time>2022-07-21T08:46:15Z</time>
      </trkpt>
      <trkpt lat="47.2763740" lon="6.9465560">
        <ele>503.4</ele>
        <time>2022-07-21T08:46:16Z</time>
      </trkpt>
      <trkpt lat="47.2763280" lon="6.9465950">
        <ele>503.3</ele>
        <time>2022-07-21T08:46:17Z</time>
      </trkpt>
      <trkpt lat="47.2762810" lon="6.9466230">
        <ele>503.3</ele>
        <time>2022-07-21T08:46:18Z</time>
      </trkpt>
      <trkpt lat="47.2762350" lon="6.9466520">
        <ele>503.2</ele>
        <time>2022-07-21T08:46:19Z</time>
      </trkpt>
      <trkpt lat="47.2761980" lon="6.9466920">
        <ele>503.1</ele>
        <time>2022-07-21T08:46:20Z</time>
      </trkpt>
      <trkpt lat="47.2761760" lon="6.9467210">
        <ele>503.1</ele>
        <time>2022-07-21T08:46:21Z</time>
      </trkpt>
      <trkpt lat="47.2761360" lon="6.9467610">
        <ele>503.0</ele>
        <time>2022-07-21T08:46:22Z</time>
      </trkpt>
      <trkpt lat="47.2760960" lon="6.9467900">
        <ele>503.0</ele>
        <time>2022-07-21T08:46:23Z</time>
      </trkpt>
      <trkpt lat="47.2760460" lon="6.9468220">
        <ele>503.0</ele>
        <time>2022-07-21T08:46:24Z</time>
      </trkpt>
      <trkpt lat="47.2760030" lon="6.9468590">
        <ele>503.0</ele>
        <time>2022-07-21T08:46:25Z</time>
      </trkpt>
      <trkpt lat="47.2759600" lon="6.9468850">
        <ele>502.9</ele>
        <time>2022-07-21T08:46:26Z</time>
      </trkpt>
      <trkpt lat="47.2759120" lon="6.9469230">
        <ele>502.9</ele>
        <time>2022-07-21T08:46:27Z</time>
      </trkpt>
      <trkpt lat="47.2758690" lon="6.9469540">
        <ele>502.9</ele>
        <time>2022-07-21T08:46:28Z</time>
      </trkpt>
      <trkpt lat="47.2758430" lon="6.9469870">
        <ele>502.9</ele>
        <time>2022-07-21T08:46:29Z</time>
      </trkpt>
      <trkpt lat="47.2758310" lon="6.9470040">
        <ele>502.9</ele>
        <time>2022-07-21T08:46:30Z</time>
      </trkpt>
      <trkpt lat="47.2757940" lon="6.9470360">
        <ele>502.9</ele>
        <time>2022-07-21T08:46:31Z</time>
      </trkpt>
      <trkpt lat="47.2757520" lon="6.9470740">
        <ele>502.9</ele>
        <time>2022-07-21T08:46:32Z</time>
      </trkpt>
      <trkpt lat="47.2757170" lon="6.9471110">
        <ele>503.0</ele>
        <time>2022-07-21T08:46:33Z</time>
      </trkpt>
      <trkpt lat="47.2756980" lon="6.9471380">
        <ele>503.0</ele>
        <time>2022-07-21T08:46:34Z</time>
      </trkpt>
      <trkpt lat="47.2756960" lon="6.9471400">
        <ele>503.0</ele>
        <time>2022-07-21T08:46:35Z</time>
      </trkpt>
      <trkpt lat="47.2756520" lon="6.9471620">
        <ele>503.0</ele>
        <time>2022-07-21T08:46:36Z</time>
      </trkpt>
      <trkpt lat="47.2756340" lon="6.9471750">
        <ele>503.0</ele>
        <time>2022-07-21T08:46:37Z</time>
      </trkpt>
      <trkpt lat="47.2755650" lon="6.9472170">
        <ele>503.1</ele>
        <time>2022-07-21T08:46:39Z</time>
      </trkpt>
      <trkpt lat="47.2755270" lon="6.9472320">
        <ele>503.1</ele>
        <time>2022-07-21T08:46:40Z</time>
      </trkpt>
      <trkpt lat="47.2754790" lon="6.9472440">
        <ele>503.2</ele>
        <time>2022-07-21T08:46:41Z</time>
      </trkpt>
      <trkpt lat="47.2754370" lon="6.9472590">
        <ele>503.2</ele>
        <time>2022-07-21T08:46:42Z</time>
      </trkpt>
      <trkpt lat="47.2754030" lon="6.9472900">
        <ele>503.2</ele>
        <time>2022-07-21T08:46:43Z</time>
      </trkpt>
      <trkpt lat="47.2753340" lon="6.9473460">
        <ele>503.3</ele>
        <time>2022-07-21T08:46:44Z</time>
      </trkpt>
      <trkpt lat="47.2752970" lon="6.9473860">
        <ele>503.3</ele>
        <time>2022-07-21T08:46:45Z</time>
      </trkpt>
      <trkpt lat="47.2752540" lon="6.9474250">
        <ele>503.4</ele>
        <time>2022-07-21T08:46:46Z</time>
      </trkpt>
      <trkpt lat="47.2752310" lon="6.9474510">
        <ele>503.4</ele>
        <time>2022-07-21T08:46:48Z</time>
      </trkpt>
      <trkpt lat="47.2751970" lon="6.9474710">
        <ele>503.4</ele>
        <time>2022-07-21T08:46:49Z</time>
      </trkpt>
      <trkpt lat="47.2751200" lon="6.9475180">
        <ele>503.5</ele>
        <time>2022-07-21T08:46:51Z</time>
      </trkpt>
      <trkpt lat="47.2750780" lon="6.9475410">
        <ele>503.6</ele>
        <time>2022-07-21T08:46:52Z</time>
      </trkpt>
      <trkpt lat="47.2750390" lon="6.9475610">
        <ele>503.6</ele>
        <time>2022-07-21T08:46:53Z</time>
      </trkpt>
      <trkpt lat="47.2750000" lon="6.9475850">
        <ele>503.6</ele>
        <time>2022-07-21T08:46:54Z</time>
      </trkpt>
      <trkpt lat="47.2749640" lon="6.9475950">
        <ele>503.6</ele>
        <time>2022-07-21T08:46:55Z</time>
      </trkpt>
      <trkpt lat="47.2749330" lon="6.9476060">
        <ele>503.6</ele>
        <time>2022-07-21T08:46:56Z</time>
      </trkpt>
      <trkpt lat="47.2748500" lon="6.9476750">
        <ele>503.6</ele>
        <time>2022-07-21T08:46:58Z</time>
      </trkpt>
      <trkpt lat="47.2747760" lon="6.9477310">
        <ele>503.5</ele>
        <time>2022-07-21T08:47:00Z</time>
      </trkpt>
      <trkpt lat="47.2747240" lon="6.9477610">
        <ele>503.5</ele>
        <time>2022-07-21T08:47:01Z</time>
      </trkpt>
      <trkpt lat="47.2746790" lon="6.9477840">
        <ele>503.4</ele>
        <time>2022-07-21T08:47:02Z</time>
      </trkpt>
      <trkpt lat="47.2746560" lon="6.9478120">
        <ele>503.4</ele>
        <time>2022-07-21T08:47:03Z</time>
      </trkpt>
      <trkpt lat="47.2746090" lon="6.9478540">
        <ele>503.3</ele>
        <time>2022-07-21T08:47:04Z</time>
      </trkpt>
      <trkpt lat="47.2745740" lon="6.9478780">
        <ele>503.2</ele>
        <time>2022-07-21T08:47:05Z</time>
      </trkpt>
      <trkpt lat="47.2745280" lon="6.9479050">
        <ele>503.2</ele>
        <time>2022-07-21T08:47:06Z</time>
      </trkpt>
      <trkpt lat="47.2745040" lon="6.9479320">
        <ele>503.1</ele>
        <time>2022-07-21T08:47:07Z</time>
      </trkpt>
      <trkpt lat="47.2744870" lon="6.9479660">
        <ele>503.1</ele>
        <time>2022-07-21T08:47:08Z</time>
      </trkpt>
      <trkpt lat="47.2744170" lon="6.9480140">
        <ele>503.0</ele>
        <time>2022-07-21T08:47:09Z</time>
      </trkpt>
      <trkpt lat="47.2743750" lon="6.9480360">
        <ele>503.0</ele>
        <time>2022-07-21T08:47:10Z</time>
      </trkpt>
      <trkpt lat="47.2743180" lon="6.9480760">
        <ele>503.0</ele>
        <time>2022-07-21T08:47:11Z</time>
      </trkpt>
      <trkpt lat="47.2742730" lon="6.9481020">
        <ele>502.9</ele>
        <time>2022-07-21T08:47:12Z</time>
      </trkpt>
      <trkpt lat="47.2742060" lon="6.9481210">
        <ele>502.8</ele>
        <time>2022-07-21T08:47:13Z</time>
      </trkpt>
      <trkpt lat="47.2741580" lon="6.9481440">
        <ele>502.7</ele>
        <time>2022-07-21T08:47:14Z</time>
      </trkpt>
      <trkpt lat="47.2741060" lon="6.9481590">
        <ele>502.7</ele>
        <time>2022-07-21T08:47:15Z</time>
      </trkpt>
      <trkpt lat="47.2740530" lon="6.9481800">
        <ele>502.6</ele>
        <time>2022-07-21T08:47:16Z</time>
      </trkpt>
      <trkpt lat="47.2739940" lon="6.9481940">
        <ele>502.4</ele>
        <time>2022-07-21T08:47:17Z</time>
      </trkpt>
      <trkpt lat="47.2739350" lon="6.9481990">
        <ele>502.3</ele>
        <time>2022-07-21T08:47:18Z</time>
      </trkpt>
      <trkpt lat="47.2739030" lon="6.9482040">
        <ele>502.3</ele>
        <time>2022-07-21T08:47:19Z</time>
      </trkpt>
      <trkpt lat="47.2738380" lon="6.9482560">
        <ele>502.2</ele>
        <time>2022-07-21T08:47:20Z</time>
      </trkpt>
      <trkpt lat="47.2737870" lon="6.9482870">
        <ele>502.2</ele>
        <time>2022-07-21T08:47:21Z</time>
      </trkpt>
      <trkpt lat="47.2737410" lon="6.9483190">
        <ele>502.1</ele>
        <time>2022-07-21T08:47:22Z</time>
      </trkpt>
      <trkpt lat="47.2736870" lon="6.9483480">
        <ele>502.1</ele>
        <time>2022-07-21T08:47:23Z</time>
      </trkpt>
      <trkpt lat="47.2736260" lon="6.9483820">
        <ele>502.1</ele>
        <time>2022-07-21T08:47:24Z</time>
      </trkpt>
      <trkpt lat="47.2735710" lon="6.9484190">
        <ele>502.1</ele>
        <time>2022-07-21T08:47:25Z</time>
      </trkpt>
      <trkpt lat="47.2735200" lon="6.9484430">
        <ele>502.2</ele>
        <time>2022-07-21T08:47:26Z</time>
      </trkpt>
      <trkpt lat="47.2734690" lon="6.9484550">
        <ele>502.2</ele>
        <time>2022-07-21T08:47:27Z</time>
      </trkpt>
      <trkpt lat="47.2734220" lon="6.9484630">
        <ele>502.3</ele>
        <time>2022-07-21T08:47:28Z</time>
      </trkpt>
      <trkpt lat="47.2733730" lon="6.9484590">
        <ele>502.4</ele>
        <time>2022-07-21T08:47:29Z</time>
      </trkpt>
      <trkpt lat="47.2733280" lon="6.9484750">
        <ele>502.5</ele>
        <time>2022-07-21T08:47:30Z</time>
      </trkpt>
      <trkpt lat="47.2732870" lon="6.9484840">
        <ele>502.6</ele>
        <time>2022-07-21T08:47:31Z</time>
      </trkpt>
      <trkpt lat="47.2732450" lon="6.9484870">
        <ele>502.8</ele>
        <time>2022-07-21T08:47:32Z</time>
      </trkpt>
      <trkpt lat="47.2732280" lon="6.9484910">
        <ele>502.8</ele>
        <time>2022-07-21T08:47:33Z</time>
      </trkpt>
      <trkpt lat="47.2731890" lon="6.9485000">
        <ele>503.0</ele>
        <time>2022-07-21T08:47:34Z</time>
      </trkpt>
      <trkpt lat="47.2731550" lon="6.9485080">
        <ele>503.1</ele>
        <time>2022-07-21T08:47:35Z</time>
      </trkpt>
      <trkpt lat="47.2731170" lon="6.9485160">
        <ele>503.3</ele>
        <time>2022-07-21T08:47:36Z</time>
      </trkpt>
      <trkpt lat="47.2730810" lon="6.9485260">
        <ele>503.4</ele>
        <time>2022-07-21T08:47:37Z</time>
      </trkpt>
      <trkpt lat="47.2730220" lon="6.9485410">
        <ele>503.7</ele>
        <time>2022-07-21T08:47:38Z</time>
      </trkpt>
      <trkpt lat="47.2729770" lon="6.9485460">
        <ele>503.9</ele>
        <time>2022-07-21T08:47:40Z</time>
      </trkpt>
      <trkpt lat="47.2729440" lon="6.9485630">
        <ele>504.1</ele>
        <time>2022-07-21T08:47:41Z</time>
      </trkpt>
      <trkpt lat="47.2729040" lon="6.9485800">
        <ele>504.3</ele>
        <time>2022-07-21T08:47:42Z</time>
      </trkpt>
      <trkpt lat="47.2728810" lon="6.9485870">
        <ele>504.4</ele>
        <time>2022-07-21T08:47:43Z</time>
      </trkpt>
      <trkpt lat="47.2728520" lon="6.9485950">
        <ele>504.6</ele>
        <time>2022-07-21T08:47:44Z</time>
      </trkpt>
      <trkpt lat="47.2727900" lon="6.9486160">
        <ele>504.8</ele>
        <time>2022-07-21T08:47:46Z</time>
      </trkpt>
      <trkpt lat="47.2727610" lon="6.9486320">
        <ele>504.9</ele>
        <time>2022-07-21T08:47:47Z</time>
      </trkpt>
      <trkpt lat="47.2727230" lon="6.9486540">
        <ele>505.0</ele>
        <time>2022-07-21T08:47:49Z</time>
      </trkpt>
      <trkpt lat="47.2726840" lon="6.9486890">
        <ele>505.1</ele>
        <time>2022-07-21T08:47:50Z</time>
      </trkpt>
      <trkpt lat="47.2726680" lon="6.9487090">
        <ele>505.2</ele>
        <time>2022-07-21T08:47:51Z</time>
      </trkpt>
      <trkpt lat="47.2726280" lon="6.9487390">
        <ele>505.3</ele>
        <time>2022-07-21T08:47:52Z</time>
      </trkpt>
      <trkpt lat="47.2725800" lon="6.9487500">
        <ele>505.3</ele>
        <time>2022-07-21T08:47:53Z</time>
      </trkpt>
      <trkpt lat="47.2725370" lon="6.9487680">
        <ele>505.4</ele>
        <time>2022-07-21T08:47:54Z</time>
      </trkpt>
      <trkpt lat="47.2725060" lon="6.9487990">
        <ele>505.4</ele>
        <time>2022-07-21T08:47:55Z</time>
      </trkpt>
      <trkpt lat="47.2724750" lon="6.9488320">
        <ele>505.5</ele>
        <time>2022-07-21T08:47:56Z</time>
      </trkpt>
      <trkpt lat="47.2724340" lon="6.9488680">
        <ele>505.6</ele>
        <time>2022-07-21T08:47:58Z</time>
      </trkpt>
      <trkpt lat="47.2723930" lon="6.9488880">
        <ele>505.7</ele>
        <time>2022-07-21T08:47:59Z</time>
      </trkpt>
      <trkpt lat="47.2723490" lon="6.9489090">
        <ele>505.9</ele>
        <time>2022-07-21T08:48:00Z</time>
      </trkpt>
      <trkpt lat="47.2722650" lon="6.9489410">
        <ele>506.3</ele>
        <time>2022-07-21T08:48:02Z</time>
      </trkpt>
      <trkpt lat="47.2722280" lon="6.9489570">
        <ele>506.5</ele>
        <time>2022-07-21T08:48:03Z</time>
      </trkpt>
      <trkpt lat="47.2721870" lon="6.9489790">
        <ele>506.8</ele>
        <time>2022-07-21T08:48:04Z</time>
      </trkpt>
      <trkpt lat="47.2721660" lon="6.9489940">
        <ele>507.0</ele>
        <time>2022-07-21T08:48:05Z</time>
      </trkpt>
      <trkpt lat="47.2721420" lon="6.9490120">
        <ele>507.2</ele>
        <time>2022-07-21T08:48:07Z</time>
      </trkpt>
      <trkpt lat="47.2721090" lon="6.9490200">
        <ele>507.4</ele>
        <time>2022-07-21T08:48:08Z</time>
      </trkpt>
      <trkpt lat="47.2720880" lon="6.9490410">
        <ele>507.6</ele>
        <time>2022-07-21T08:48:09Z</time>
      </trkpt>
      <trkpt lat="47.2720420" lon="6.9490880">
        <ele>507.9</ele>
        <time>2022-07-21T08:48:11Z</time>
      </trkpt>
      <trkpt lat="47.2720070" lon="6.9491080">
        <ele>508.2</ele>
        <time>2022-07-21T08:48:12Z</time>
      </trkpt>
      <trkpt lat="47.2719770" lon="6.9491260">
        <ele>508.4</ele>
        <time>2022-07-21T08:48:13Z</time>
      </trkpt>
      <trkpt lat="47.2719580" lon="6.9491500">
        <ele>508.5</ele>
        <time>2022-07-21T08:48:14Z</time>
      </trkpt>
      <trkpt lat="47.2719250" lon="6.9491750">
        <ele>508.7</ele>
        <time>2022-07-21T08:48:16Z</time>
      </trkpt>
      <trkpt lat="47.2718970" lon="6.9491930">
        <ele>508.9</ele>
        <time>2022-07-21T08:48:17Z</time>
      </trkpt>
      <trkpt lat="47.2718600" lon="6.9492110">
        <ele>509.1</ele>
        <time>2022-07-21T08:48:18Z</time>
      </trkpt>
      <trkpt lat="47.2718420" lon="6.9492200">
        <ele>509.2</ele>
        <time>2022-07-21T08:48:19Z</time>
      </trkpt>
      <trkpt lat="47.2718130" lon="6.9492400">
        <ele>509.4</ele>
        <time>2022-07-21T08:48:20Z</time>
      </trkpt>
      <trkpt lat="47.2717860" lon="6.9492630">
        <ele>509.6</ele>
        <time>2022-07-21T08:48:21Z</time>
      </trkpt>
      <trkpt lat="47.2717640" lon="6.9492840">
        <ele>509.8</ele>
        <time>2022-07-21T08:48:22Z</time>
      </trkpt>
      <trkpt lat="47.2717390" lon="6.9493200">
        <ele>510.0</ele>
        <time>2022-07-21T08:48:23Z</time>
      </trkpt>
      <trkpt lat="47.2717260" lon="6.9493410">
        <ele>510.2</ele>
        <time>2022-07-21T08:48:24Z</time>
      </trkpt>
      <trkpt lat="47.2717090" lon="6.9493680">
        <ele>510.4</ele>
        <time>2022-07-21T08:48:26Z</time>
      </trkpt>
      <trkpt lat="47.2717000" lon="6.9494080">
        <ele>510.6</ele>
        <time>2022-07-21T08:48:27Z</time>
      </trkpt>
      <trkpt lat="47.2716970" lon="6.9494290">
        <ele>510.7</ele>
        <time>2022-07-21T08:48:28Z</time>
      </trkpt>
      <trkpt lat="47.2716870" lon="6.9494720">
        <ele>511.0</ele>
        <time>2022-07-21T08:48:29Z</time>
      </trkpt>
      <trkpt lat="47.2716810" lon="6.9494890">
        <ele>511.1</ele>
        <time>2022-07-21T08:48:30Z</time>
      </trkpt>
      <trkpt lat="47.2716550" lon="6.9495180">
        <ele>511.4</ele>
        <time>2022-07-21T08:48:31Z</time>
      </trkpt>
      <trkpt lat="47.2716480" lon="6.9495250">
        <ele>511.5</ele>
        <time>2022-07-21T08:48:32Z</time>
      </trkpt>
      <trkpt lat="47.2716350" lon="6.9495440">
        <ele>511.6</ele>
        <time>2022-07-21T08:48:34Z</time>
      </trkpt>
      <trkpt lat="47.2716230" lon="6.9495630">
        <ele>511.8</ele>
        <time>2022-07-21T08:48:35Z</time>
      </trkpt>
      <trkpt lat="47.2715960" lon="6.9495940">
        <ele>512.1</ele>
        <time>2022-07-21T08:48:36Z</time>
      </trkpt>
      <trkpt lat="47.2715860" lon="6.9496030">
        <ele>512.2</ele>
        <time>2022-07-21T08:48:37Z</time>
      </trkpt>
      <trkpt lat="47.2715530" lon="6.9496260">
        <ele>512.5</ele>
        <time>2022-07-21T08:48:38Z</time>
      </trkpt>
      <trkpt lat="47.2715390" lon="6.9496370">
        <ele>512.6</ele>
        <time>2022-07-21T08:48:39Z</time>
      </trkpt>
      <trkpt lat="47.2715090" lon="6.9496580">
        <ele>512.8</ele>
        <time>2022-07-21T08:48:40Z</time>
      </trkpt>
      <trkpt lat="47.2714590" lon="6.9496780">
        <ele>513.1</ele>
        <time>2022-07-21T08:48:42Z</time>
      </trkpt>
      <trkpt lat="47.2714420" lon="6.9496820">
        <ele>513.2</ele>
        <time>2022-07-21T08:48:43Z</time>
      </trkpt>
      <trkpt lat="47.2714250" lon="6.9496860">
        <ele>513.3</ele>
        <time>2022-07-21T08:48:44Z</time>
      </trkpt>
      <trkpt lat="47.2713900" lon="6.9496940">
        <ele>513.5</ele>
        <time>2022-07-21T08:48:45Z</time>
      </trkpt>
      <trkpt lat="47.2713590" lon="6.9496990">
        <ele>513.6</ele>
        <time>2022-07-21T08:48:46Z</time>
      </trkpt>
      <trkpt lat="47.2713260" lon="6.9497010">
        <ele>513.7</ele>
        <time>2022-07-21T08:48:47Z</time>
      </trkpt>
      <trkpt lat="47.2712930" lon="6.9497050">
        <ele>513.8</ele>
        <time>2022-07-21T08:48:48Z</time>
      </trkpt>
      <trkpt lat="47.2712630" lon="6.9497050">
        <ele>513.8</ele>
        <time>2022-07-21T08:48:49Z</time>
      </trkpt>
      <trkpt lat="47.2712340" lon="6.9497080">
        <ele>513.9</ele>
        <time>2022-07-21T08:48:50Z</time>
      </trkpt>
      <trkpt lat="47.2711970" lon="6.9497140">
        <ele>513.9</ele>
        <time>2022-07-21T08:48:51Z</time>
      </trkpt>
      <trkpt lat="47.2711550" lon="6.9497220">
        <ele>514.0</ele>
        <time>2022-07-21T08:48:52Z</time>
      </trkpt>
      <trkpt lat="47.2711210" lon="6.9497340">
        <ele>514.0</ele>
        <time>2022-07-21T08:48:53Z</time>
      </trkpt>
      <trkpt lat="47.2710800" lon="6.9497470">
        <ele>513.9</ele>
        <time>2022-07-21T08:48:54Z</time>
      </trkpt>
      <trkpt lat="47.2710340" lon="6.9497740">
        <ele>513.9</ele>
        <time>2022-07-21T08:48:56Z</time>
      </trkpt>
      <trkpt lat="47.2710010" lon="6.9497960">
        <ele>513.8</ele>
        <time>2022-07-21T08:48:57Z</time>
      </trkpt>
      <trkpt lat="47.2709670" lon="6.9498190">
        <ele>513.7</ele>
        <time>2022-07-21T08:48:58Z</time>
      </trkpt>
      <trkpt lat="47.2709330" lon="6.9498420">
        <ele>513.6</ele>
        <time>2022-07-21T08:48:59Z</time>
      </trkpt>
      <trkpt lat="47.2708610" lon="6.9499000">
        <ele>513.3</ele>
        <time>2022-07-21T08:49:01Z</time>
      </trkpt>
      <trkpt lat="47.2708190" lon="6.9499280">
        <ele>513.1</ele>
        <time>2022-07-21T08:49:02Z</time>
      </trkpt>
      <trkpt lat="47.2707870" lon="6.9499400">
        <ele>512.9</ele>
        <time>2022-07-21T08:49:03Z</time>
      </trkpt>
      <trkpt lat="47.2707290" lon="6.9499600">
        <ele>512.6</ele>
        <time>2022-07-21T08:49:04Z</time>
      </trkpt>
      <trkpt lat="47.2706960" lon="6.9499750">
        <ele>512.4</ele>
        <time>2022-07-21T08:49:05Z</time>
      </trkpt>
      <trkpt lat="47.2706410" lon="6.9499990">
        <ele>512.1</ele>
        <time>2022-07-21T08:49:06Z</time>
      </trkpt>
      <trkpt lat="47.2705840" lon="6.9500300">
        <ele>511.8</ele>
        <time>2022-07-21T08:49:07Z</time>
      </trkpt>
      <trkpt lat="47.2705280" lon="6.9500600">
        <ele>511.6</ele>
        <time>2022-07-21T08:49:08Z</time>
      </trkpt>
      <trkpt lat="47.2704800" lon="6.9501010">
        <ele>511.5</ele>
        <time>2022-07-21T08:49:09Z</time>
      </trkpt>
      <trkpt lat="47.2704400" lon="6.9501420">
        <ele>511.5</ele>
        <time>2022-07-21T08:49:10Z</time>
      </trkpt>
      <trkpt lat="47.2704060" lon="6.9501940">
        <ele>511.5</ele>
        <time>2022-07-21T08:49:11Z</time>
      </trkpt>
      <trkpt lat="47.2703740" lon="6.9502400">
        <ele>511.5</ele>
        <time>2022-07-21T08:49:12Z</time>
      </trkpt>
      <trkpt lat="47.2703510" lon="6.9503310">
        <ele>511.6</ele>
        <time>2022-07-21T08:49:14Z</time>
      </trkpt>
      <trkpt lat="47.2703260" lon="6.9503590">
        <ele>511.7</ele>
        <time>2022-07-21T08:49:15Z</time>
      </trkpt>
      <trkpt lat="47.2703180" lon="6.9503700">
        <ele>511.7</ele>
        <time>2022-07-21T08:49:16Z</time>
      </trkpt>
      <trkpt lat="47.2702930" lon="6.9503900">
        <ele>511.8</ele>
        <time>2022-07-21T08:49:17Z</time>
      </trkpt>
      <trkpt lat="47.2702660" lon="6.9504160">
        <ele>511.9</ele>
        <time>2022-07-21T08:49:18Z</time>
      </trkpt>
      <trkpt lat="47.2702370" lon="6.9504510">
        <ele>512.0</ele>
        <time>2022-07-21T08:49:19Z</time>
      </trkpt>
      <trkpt lat="47.2702140" lon="6.9504750">
        <ele>512.0</ele>
        <time>2022-07-21T08:49:20Z</time>
      </trkpt>
      <trkpt lat="47.2701780" lon="6.9505080">
        <ele>512.0</ele>
        <time>2022-07-21T08:49:22Z</time>
      </trkpt>
      <trkpt lat="47.2701450" lon="6.9505320">
        <ele>512.0</ele>
        <time>2022-07-21T08:49:23Z</time>
      </trkpt>
      <trkpt lat="47.2701220" lon="6.9505520">
        <ele>512.0</ele>
        <time>2022-07-21T08:49:24Z</time>
      </trkpt>
      <trkpt lat="47.2700770" lon="6.9505910">
        <ele>512.0</ele>
        <time>2022-07-21T08:49:26Z</time>
      </trkpt>
      <trkpt lat="47.2700550" lon="6.9506030">
        <ele>512.1</ele>
        <time>2022-07-21T08:49:27Z</time>
      </trkpt>
      <trkpt lat="47.2700110" lon="6.9506380">
        <ele>512.3</ele>
        <time>2022-07-21T08:49:29Z</time>
      </trkpt>
      <trkpt lat="47.2699870" lon="6.9506650">
        <ele>512.5</ele>
        <time>2022-07-21T08:49:30Z</time>
      </trkpt>
      <trkpt lat="47.2699600" lon="6.9506990">
        <ele>512.7</ele>
        <time>2022-07-21T08:49:31Z</time>
      </trkpt>
      <trkpt lat="47.2699360" lon="6.9507210">
        <ele>512.8</ele>
        <time>2022-07-21T08:49:32Z</time>
      </trkpt>
      <trkpt lat="47.2698890" lon="6.9507530">
        <ele>513.2</ele>
        <time>2022-07-21T08:49:34Z</time>
      </trkpt>
      <trkpt lat="47.2698600" lon="6.9507660">
        <ele>513.4</ele>
        <time>2022-07-21T08:49:35Z</time>
      </trkpt>
      <trkpt lat="47.2698160" lon="6.9507750">
        <ele>513.8</ele>
        <time>2022-07-21T08:49:36Z</time>
      </trkpt>
      <trkpt lat="47.2697990" lon="6.9507770">
        <ele>513.9</ele>
        <time>2022-07-21T08:49:37Z</time>
      </trkpt>
      <trkpt lat="47.2697560" lon="6.9507820">
        <ele>514.3</ele>
        <time>2022-07-21T08:49:39Z</time>
      </trkpt>
      <trkpt lat="47.2697420" lon="6.9507870">
        <ele>514.4</ele>
        <time>2022-07-21T08:49:40Z</time>
      </trkpt>
      <trkpt lat="47.2697280" lon="6.9507910">
        <ele>514.6</ele>
        <time>2022-07-21T08:49:41Z</time>
      </trkpt>
      <trkpt lat="47.2697000" lon="6.9508000">
        <ele>514.8</ele>
        <time>2022-07-21T08:49:43Z</time>
      </trkpt>
      <trkpt lat="47.2696700" lon="6.9508040">
        <ele>515.1</ele>
        <time>2022-07-21T08:49:44Z</time>
      </trkpt>
      <trkpt lat="47.2696390" lon="6.9508020">
        <ele>515.4</ele>
        <time>2022-07-21T08:49:45Z</time>
      </trkpt>
      <trkpt lat="47.2696300" lon="6.9508020">
        <ele>515.5</ele>
        <time>2022-07-21T08:49:46Z</time>
      </trkpt>
      <trkpt lat="47.2696020" lon="6.9507970">
        <ele>515.7</ele>
        <time>2022-07-21T08:49:48Z</time>
      </trkpt>
      <trkpt lat="47.2695900" lon="6.9507940">
        <ele>515.8</ele>
        <time>2022-07-21T08:49:49Z</time>
      </trkpt>
      <trkpt lat="47.2695610" lon="6.9507890">
        <ele>516.1</ele>
        <time>2022-07-21T08:49:50Z</time>
      </trkpt>
      <trkpt lat="47.2695500" lon="6.9507880">
        <ele>516.2</ele>
        <time>2022-07-21T08:49:51Z</time>
      </trkpt>
      <trkpt lat="47.2695210" lon="6.9507830">
        <ele>516.4</ele>
        <time>2022-07-21T08:49:52Z</time>
      </trkpt>
      <trkpt lat="47.2694820" lon="6.9507760">
        <ele>516.7</ele>
        <time>2022-07-21T08:49:53Z</time>
      </trkpt>
      <trkpt lat="47.2694690" lon="6.9507740">
        <ele>516.8</ele>
        <time>2022-07-21T08:49:54Z</time>
      </trkpt>
      <trkpt lat="47.2694420" lon="6.9507730">
        <ele>517.0</ele>
        <time>2022-07-21T08:49:55Z</time>
      </trkpt>
      <trkpt lat="47.2693900" lon="6.9507630">
        <ele>517.4</ele>
        <time>2022-07-21T08:49:57Z</time>
      </trkpt>
      <trkpt lat="47.2693510" lon="6.9507490">
        <ele>517.6</ele>
        <time>2022-07-21T08:49:58Z</time>
      </trkpt>
      <trkpt lat="47.2693370" lon="6.9507440">
        <ele>517.7</ele>
        <time>2022-07-21T08:49:59Z</time>
      </trkpt>
      <trkpt lat="47.2692940" lon="6.9507260">
        <ele>518.0</ele>
        <time>2022-07-21T08:50:00Z</time>
      </trkpt>
      <trkpt lat="47.2692700" lon="6.9507160">
        <ele>518.1</ele>
        <time>2022-07-21T08:50:01Z</time>
      </trkpt>
      <trkpt lat="47.2692280" lon="6.9507010">
        <ele>518.4</ele>
        <time>2022-07-21T08:50:03Z</time>
      </trkpt>
      <trkpt lat="47.2691960" lon="6.9506930">
        <ele>518.5</ele>
        <time>2022-07-21T08:50:04Z</time>
      </trkpt>
      <trkpt lat="47.2691600" lon="6.9506820">
        <ele>518.7</ele>
        <time>2022-07-21T08:50:05Z</time>
      </trkpt>
      <trkpt lat="47.2691350" lon="6.9506650">
        <ele>518.9</ele>
        <time>2022-07-21T08:50:06Z</time>
      </trkpt>
      <trkpt lat="47.2691030" lon="6.9506430">
        <ele>519.0</ele>
        <time>2022-07-21T08:50:07Z</time>
      </trkpt>
      <trkpt lat="47.2690910" lon="6.9506360">
        <ele>519.1</ele>
        <time>2022-07-21T08:50:08Z</time>
      </trkpt>
      <trkpt lat="47.2690530" lon="6.9506250">
        <ele>519.3</ele>
        <time>2022-07-21T08:50:09Z</time>
      </trkpt>
      <trkpt lat="47.2690410" lon="6.9506230">
        <ele>519.3</ele>
        <time>2022-07-21T08:50:10Z</time>
      </trkpt>
      <trkpt lat="47.2690120" lon="6.9506150">
        <ele>519.4</ele>
        <time>2022-07-21T08:50:11Z</time>
      </trkpt>
      <trkpt lat="47.2689830" lon="6.9505970">
        <ele>519.6</ele>
        <time>2022-07-21T08:50:12Z</time>
      </trkpt>
      <trkpt lat="47.2689580" lon="6.9505730">
        <ele>519.7</ele>
        <time>2022-07-21T08:50:13Z</time>
      </trkpt>
      <trkpt lat="47.2689390" lon="6.9505480">
        <ele>519.8</ele>
        <time>2022-07-21T08:50:14Z</time>
      </trkpt>
      <trkpt lat="47.2689070" lon="6.9504990">
        <ele>519.9</ele>
        <time>2022-07-21T08:50:16Z</time>
      </trkpt>
      <trkpt lat="47.2688840" lon="6.9504620">
        <ele>520.0</ele>
        <time>2022-07-21T08:50:17Z</time>
      </trkpt>
      <trkpt lat="47.2688740" lon="6.9504480">
        <ele>520.0</ele>
        <time>2022-07-21T08:50:18Z</time>
      </trkpt>
      <trkpt lat="47.2688510" lon="6.9504240">
        <ele>520.1</ele>
        <time>2022-07-21T08:50:19Z</time>
      </trkpt>
      <trkpt lat="47.2688190" lon="6.9503940">
        <ele>520.2</ele>
        <time>2022-07-21T08:50:20Z</time>
      </trkpt>
      <trkpt lat="47.2688070" lon="6.9503830">
        <ele>520.2</ele>
        <time>2022-07-21T08:50:21Z</time>
      </trkpt>
      <trkpt lat="47.2687760" lon="6.9503490">
        <ele>520.2</ele>
        <time>2022-07-21T08:50:22Z</time>
      </trkpt>
      <trkpt lat="47.2687640" lon="6.9503350">
        <ele>520.2</ele>
        <time>2022-07-21T08:50:23Z</time>
      </trkpt>
      <trkpt lat="47.2687360" lon="6.9503110">
        <ele>520.2</ele>
        <time>2022-07-21T08:50:24Z</time>
      </trkpt>
      <trkpt lat="47.2687020" lon="6.9502810">
        <ele>520.2</ele>
        <time>2022-07-21T08:50:25Z</time>
      </trkpt>
      <trkpt lat="47.2686690" lon="6.9502530">
        <ele>520.1</ele>
        <time>2022-07-21T08:50:26Z</time>
      </trkpt>
      <trkpt lat="47.2686210" lon="6.9502050">
        <ele>520.1</ele>
        <time>2022-07-21T08:50:27Z</time>
      </trkpt>
      <trkpt lat="47.2685770" lon="6.9501820">
        <ele>520.0</ele>
        <time>2022-07-21T08:50:28Z</time>
      </trkpt>
      <trkpt lat="47.2685310" lon="6.9501650">
        <ele>520.0</ele>
        <time>2022-07-21T08:50:29Z</time>
      </trkpt>
      <trkpt lat="47.2684870" lon="6.9501470">
        <ele>520.0</ele>
        <time>2022-07-21T08:50:30Z</time>
      </trkpt>
      <trkpt lat="47.2684510" lon="6.9501160">
        <ele>520.0</ele>
        <time>2022-07-21T08:50:31Z</time>
      </trkpt>
      <trkpt lat="47.2684180" lon="6.9500790">
        <ele>520.0</ele>
        <time>2022-07-21T08:50:32Z</time>
      </trkpt>
      <trkpt lat="47.2683830" lon="6.9500570">
        <ele>520.0</ele>
        <time>2022-07-21T08:50:33Z</time>
      </trkpt>
      <trkpt lat="47.2683510" lon="6.9500420">
        <ele>520.0</ele>
        <time>2022-07-21T08:50:34Z</time>
      </trkpt>
      <trkpt lat="47.2683160" lon="6.9500220">
        <ele>520.1</ele>
        <time>2022-07-21T08:50:35Z</time>
      </trkpt>
      <trkpt lat="47.2682790" lon="6.9499960">
        <ele>520.1</ele>
        <time>2022-07-21T08:50:36Z</time>
      </trkpt>
      <trkpt lat="47.2682380" lon="6.9499760">
        <ele>520.0</ele>
        <time>2022-07-21T08:50:37Z</time>
      </trkpt>
      <trkpt lat="47.2682110" lon="6.9499560">
        <ele>520.0</ele>
        <time>2022-07-21T08:50:38Z</time>
      </trkpt>
      <trkpt lat="47.2681650" lon="6.9499450">
        <ele>519.9</ele>
        <time>2022-07-21T08:50:39Z</time>
      </trkpt>
      <trkpt lat="47.2680930" lon="6.9498990">
        <ele>519.4</ele>
        <time>2022-07-21T08:50:41Z</time>
      </trkpt>
      <trkpt lat="47.2680430" lon="6.9498830">
        <ele>519.1</ele>
        <time>2022-07-21T08:50:42Z</time>
      </trkpt>
      <trkpt lat="47.2679920" lon="6.9498760">
        <ele>518.7</ele>
        <time>2022-07-21T08:50:43Z</time>
      </trkpt>
      <trkpt lat="47.2679370" lon="6.9498630">
        <ele>518.3</ele>
        <time>2022-07-21T08:50:44Z</time>
      </trkpt>
      <trkpt lat="47.2678860" lon="6.9498490">
        <ele>518.0</ele>
        <time>2022-07-21T08:50:45Z</time>
      </trkpt>
      <trkpt lat="47.2678380" lon="6.9498640">
        <ele>517.6</ele>
        <time>2022-07-21T08:50:46Z</time>
      </trkpt>
      <trkpt lat="47.2677900" lon="6.9498670">
        <ele>517.2</ele>
        <time>2022-07-21T08:50:47Z</time>
      </trkpt>
      <trkpt lat="47.2677480" lon="6.9498590">
        <ele>516.9</ele>
        <time>2022-07-21T08:50:48Z</time>
      </trkpt>
      <trkpt lat="47.2677070" lon="6.9498430">
        <ele>516.5</ele>
        <time>2022-07-21T08:50:49Z</time>
      </trkpt>
      <trkpt lat="47.2676580" lon="6.9498440">
        <ele>516.1</ele>
        <time>2022-07-21T08:50:50Z</time>
      </trkpt>
      <trkpt lat="47.2675880" lon="6.9498810">
        <ele>515.3</ele>
        <time>2022-07-21T08:50:51Z</time>
      </trkpt>
      <trkpt lat="47.2675400" lon="6.9498900">
        <ele>514.7</ele>
        <time>2022-07-21T08:50:52Z</time>
      </trkpt>
      <trkpt lat="47.2674910" lon="6.9498810">
        <ele>514.1</ele>
        <time>2022-07-21T08:50:53Z</time>
      </trkpt>
      <trkpt lat="47.2674300" lon="6.9498510">
        <ele>513.3</ele>
        <time>2022-07-21T08:50:54Z</time>
      </trkpt>
      <trkpt lat="47.2673790" lon="6.9498170">
        <ele>512.6</ele>
        <time>2022-07-21T08:50:55Z</time>
      </trkpt>
      <trkpt lat="47.2673310" lon="6.9497860">
        <ele>511.9</ele>
        <time>2022-07-21T08:50:56Z</time>
      </trkpt>
      <trkpt lat="47.2672900" lon="6.9497490">
        <ele>511.3</ele>
        <time>2022-07-21T08:50:57Z</time>
      </trkpt>
      <trkpt lat="47.2672440" lon="6.9497040">
        <ele>510.7</ele>
        <time>2022-07-21T08:50:58Z</time>
      </trkpt>
      <trkpt lat="47.2672050" lon="6.9496750">
        <ele>510.1</ele>
        <time>2022-07-21T08:50:59Z</time>
      </trkpt>
      <trkpt lat="47.2671640" lon="6.9496440">
        <ele>509.5</ele>
        <time>2022-07-21T08:51:00Z</time>
      </trkpt>
      <trkpt lat="47.2671190" lon="6.9496140">
        <ele>508.9</ele>
        <time>2022-07-21T08:51:01Z</time>
      </trkpt>
      <trkpt lat="47.2670810" lon="6.9495980">
        <ele>508.3</ele>
        <time>2022-07-21T08:51:02Z</time>
      </trkpt>
      <trkpt lat="47.2670190" lon="6.9495820">
        <ele>507.5</ele>
        <time>2022-07-21T08:51:03Z</time>
      </trkpt>
      <trkpt lat="47.2669690" lon="6.9495740">
        <ele>506.9</ele>
        <time>2022-07-21T08:51:04Z</time>
      </trkpt>
      <trkpt lat="47.2669230" lon="6.9495710">
        <ele>506.3</ele>
        <time>2022-07-21T08:51:05Z</time>
      </trkpt>
      <trkpt lat="47.2668520" lon="6.9495920">
        <ele>505.5</ele>
        <time>2022-07-21T08:51:06Z</time>
      </trkpt>
      <trkpt lat="47.2668050" lon="6.9496050">
        <ele>505.1</ele>
        <time>2022-07-21T08:51:07Z</time>
      </trkpt>
      <trkpt lat="47.2667320" lon="6.9496080">
        <ele>504.4</ele>
        <time>2022-07-21T08:51:08Z</time>
      </trkpt>
      <trkpt lat="47.2666630" lon="6.9496070">
        <ele>503.9</ele>
        <time>2022-07-21T08:51:09Z</time>
      </trkpt>
      <trkpt lat="47.2666010" lon="6.9495970">
        <ele>503.4</ele>
        <time>2022-07-21T08:51:10Z</time>
      </trkpt>
      <trkpt lat="47.2665310" lon="6.9495770">
        <ele>502.9</ele>
        <time>2022-07-21T08:51:11Z</time>
      </trkpt>
      <trkpt lat="47.2664570" lon="6.9495540">
        <ele>502.3</ele>
        <time>2022-07-21T08:51:12Z</time>
      </trkpt>
      <trkpt lat="47.2663850" lon="6.9495290">
        <ele>501.9</ele>
        <time>2022-07-21T08:51:13Z</time>
      </trkpt>
      <trkpt lat="47.2663150" lon="6.9494980">
        <ele>501.5</ele>
        <time>2022-07-21T08:51:14Z</time>
      </trkpt>
      <trkpt lat="47.2662430" lon="6.9494660">
        <ele>501.2</ele>
        <time>2022-07-21T08:51:15Z</time>
      </trkpt>
      <trkpt lat="47.2661740" lon="6.9494430">
        <ele>501.0</ele>
        <time>2022-07-21T08:51:16Z</time>
      </trkpt>
      <trkpt lat="47.2661050" lon="6.9494220">
        <ele>500.9</ele>
        <time>2022-07-21T08:51:17Z</time>
      </trkpt>
      <trkpt lat="47.2660360" lon="6.9494120">
        <ele>500.9</ele>
        <time>2022-07-21T08:51:18Z</time>
      </trkpt>
      <trkpt lat="47.2659810" lon="6.9494300">
        <ele>500.9</ele>
        <time>2022-07-21T08:51:19Z</time>
      </trkpt>
      <trkpt lat="47.2659310" lon="6.9494620">
        <ele>500.9</ele>
        <time>2022-07-21T08:51:20Z</time>
      </trkpt>
      <trkpt lat="47.2658820" lon="6.9494910">
        <ele>500.9</ele>
        <time>2022-07-21T08:51:21Z</time>
      </trkpt>
      <trkpt lat="47.2658390" lon="6.9495130">
        <ele>500.9</ele>
        <time>2022-07-21T08:51:22Z</time>
      </trkpt>
      <trkpt lat="47.2658030" lon="6.9495310">
        <ele>500.9</ele>
        <time>2022-07-21T08:51:23Z</time>
      </trkpt>
      <trkpt lat="47.2657550" lon="6.9495410">
        <ele>500.9</ele>
        <time>2022-07-21T08:51:24Z</time>
      </trkpt>
      <trkpt lat="47.2657050" lon="6.9495460">
        <ele>500.8</ele>
        <time>2022-07-21T08:51:25Z</time>
      </trkpt>
      <trkpt lat="47.2656480" lon="6.9495190">
        <ele>500.7</ele>
        <time>2022-07-21T08:51:26Z</time>
      </trkpt>
      <trkpt lat="47.2655960" lon="6.9495000">
        <ele>500.6</ele>
        <time>2022-07-21T08:51:27Z</time>
      </trkpt>
      <trkpt lat="47.2655460" lon="6.9495000">
        <ele>500.4</ele>
        <time>2022-07-21T08:51:28Z</time>
      </trkpt>
      <trkpt lat="47.2654940" lon="6.9495070">
        <ele>500.3</ele>
        <time>2022-07-21T08:51:29Z</time>
      </trkpt>
      <trkpt lat="47.2654480" lon="6.9495230">
        <ele>500.2</ele>
        <time>2022-07-21T08:51:30Z</time>
      </trkpt>
      <trkpt lat="47.2653910" lon="6.9495610">
        <ele>500.1</ele>
        <time>2022-07-21T08:51:31Z</time>
      </trkpt>
      <trkpt lat="47.2653350" lon="6.9495930">
        <ele>500.1</ele>
        <time>2022-07-21T08:51:32Z</time>
      </trkpt>
      <trkpt lat="47.2652820" lon="6.9496290">
        <ele>500.1</ele>
        <time>2022-07-21T08:51:33Z</time>
      </trkpt>
      <trkpt lat="47.2652400" lon="6.9496660">
        <ele>500.1</ele>
        <time>2022-07-21T08:51:34Z</time>
      </trkpt>
      <trkpt lat="47.2652000" lon="6.9496920">
        <ele>500.1</ele>
        <time>2022-07-21T08:51:35Z</time>
      </trkpt>
      <trkpt lat="47.2651760" lon="6.9497240">
        <ele>500.1</ele>
        <time>2022-07-21T08:51:36Z</time>
      </trkpt>
      <trkpt lat="47.2651520" lon="6.9497600">
        <ele>500.2</ele>
        <time>2022-07-21T08:51:37Z</time>
      </trkpt>
      <trkpt lat="47.2651440" lon="6.9497840">
        <ele>500.2</ele>
        <time>2022-07-21T08:51:39Z</time>
      </trkpt>
      <trkpt lat="47.2651660" lon="6.9497840">
        <ele>500.2</ele>
        <time>2022-07-21T08:51:40Z</time>
      </trkpt>
      <trkpt lat="47.2651730" lon="6.9497820">
        <ele>500.2</ele>
        <time>2022-07-21T08:51:41Z</time>
      </trkpt>
      <trkpt lat="47.2651770" lon="6.9497780">
        <ele>500.2</ele>
        <time>2022-07-21T08:51:42Z</time>
      </trkpt>
      <trkpt lat="47.2651780" lon="6.9497730">
        <ele>500.2</ele>
        <time>2022-07-21T08:51:43Z</time>
      </trkpt>
      <trkpt lat="47.2651780" lon="6.9497690">
        <ele>500.2</ele>
        <time>2022-07-21T08:51:44Z</time>
      </trkpt>
      <trkpt lat="47.2651760" lon="6.9497640">
        <ele>500.2</ele>
        <time>2022-07-21T08:51:45Z</time>
      </trkpt>
      <trkpt lat="47.2651760" lon="6.9497610">
        <ele>500.3</ele>
        <time>2022-07-21T08:51:46Z</time>
      </trkpt>
      <trkpt lat="47.2651750" lon="6.9497590">
        <ele>500.3</ele>
        <time>2022-07-21T08:51:47Z</time>
      </trkpt>
      <trkpt lat="47.2651730" lon="6.9497560">
        <ele>500.3</ele>
        <time>2022-07-21T08:51:48Z</time>
      </trkpt>
      <trkpt lat="47.2651720" lon="6.9497560">
        <ele>500.3</ele>
        <time>2022-07-21T08:51:49Z</time>
      </trkpt>
      <trkpt lat="47.2651270" lon="6.9498130">
        <ele>500.3</ele>
        <time>2022-07-21T08:51:59Z</time>
      </trkpt>
      <trkpt lat="47.2650930" lon="6.9498290">
        <ele>500.4</ele>
        <time>2022-07-21T08:52:00Z</time>
      </trkpt>
      <trkpt lat="47.2650510" lon="6.9498620">
        <ele>500.4</ele>
        <time>2022-07-21T08:52:01Z</time>
      </trkpt>
      <trkpt lat="47.2650150" lon="6.9499040">
        <ele>500.4</ele>
        <time>2022-07-21T08:52:02Z</time>
      </trkpt>
      <trkpt lat="47.2649830" lon="6.9499420">
        <ele>500.5</ele>
        <time>2022-07-21T08:52:03Z</time>
      </trkpt>
      <trkpt lat="47.2649510" lon="6.9499840">
        <ele>500.5</ele>
        <time>2022-07-21T08:52:04Z</time>
      </trkpt>
      <trkpt lat="47.2649240" lon="6.9500210">
        <ele>500.5</ele>
        <time>2022-07-21T08:52:05Z</time>
      </trkpt>
      <trkpt lat="47.2648690" lon="6.9500800">
        <ele>500.6</ele>
        <time>2022-07-21T08:52:06Z</time>
      </trkpt>
      <trkpt lat="47.2648270" lon="6.9501220">
        <ele>500.7</ele>
        <time>2022-07-21T08:52:07Z</time>
      </trkpt>
      <trkpt lat="47.2647770" lon="6.9501650">
        <ele>500.8</ele>
        <time>2022-07-21T08:52:09Z</time>
      </trkpt>
      <trkpt lat="47.2647360" lon="6.9501960">
        <ele>500.8</ele>
        <time>2022-07-21T08:52:10Z</time>
      </trkpt>
      <trkpt lat="47.2646820" lon="6.9502310">
        <ele>500.8</ele>
        <time>2022-07-21T08:52:12Z</time>
      </trkpt>
      <trkpt lat="47.2646500" lon="6.9502450">
        <ele>500.9</ele>
        <time>2022-07-21T08:52:13Z</time>
      </trkpt>
      <trkpt lat="47.2646210" lon="6.9502560">
        <ele>500.9</ele>
        <time>2022-07-21T08:52:14Z</time>
      </trkpt>
      <trkpt lat="47.2645840" lon="6.9502580">
        <ele>500.9</ele>
        <time>2022-07-21T08:52:15Z</time>
      </trkpt>
      <trkpt lat="47.2645360" lon="6.9502530">
        <ele>500.9</ele>
        <time>2022-07-21T08:52:16Z</time>
      </trkpt>
      <trkpt lat="47.2644950" lon="6.9502460">
        <ele>500.9</ele>
        <time>2022-07-21T08:52:17Z</time>
      </trkpt>
      <trkpt lat="47.2644430" lon="6.9502390">
        <ele>500.9</ele>
        <time>2022-07-21T08:52:18Z</time>
      </trkpt>
      <trkpt lat="47.2643770" lon="6.9502230">
        <ele>501.0</ele>
        <time>2022-07-21T08:52:19Z</time>
      </trkpt>
      <trkpt lat="47.2643410" lon="6.9502070">
        <ele>501.0</ele>
        <time>2022-07-21T08:52:20Z</time>
      </trkpt>
      <trkpt lat="47.2643020" lon="6.9501900">
        <ele>501.0</ele>
        <time>2022-07-21T08:52:21Z</time>
      </trkpt>
      <trkpt lat="47.2642630" lon="6.9501680">
        <ele>501.0</ele>
        <time>2022-07-21T08:52:22Z</time>
      </trkpt>
      <trkpt lat="47.2642210" lon="6.9501430">
        <ele>501.1</ele>
        <time>2022-07-21T08:52:24Z</time>
      </trkpt>
      <trkpt lat="47.2641790" lon="6.9501200">
        <ele>501.1</ele>
        <time>2022-07-21T08:52:25Z</time>
      </trkpt>
      <trkpt lat="47.2641370" lon="6.9500970">
        <ele>501.1</ele>
        <time>2022-07-21T08:52:26Z</time>
      </trkpt>
      <trkpt lat="47.2640940" lon="6.9500730">
        <ele>501.2</ele>
        <time>2022-07-21T08:52:27Z</time>
      </trkpt>
      <trkpt lat="47.2640550" lon="6.9500510">
        <ele>501.3</ele>
        <time>2022-07-21T08:52:28Z</time>
      </trkpt>
      <trkpt lat="47.2640200" lon="6.9500230">
        <ele>501.4</ele>
        <time>2022-07-21T08:52:29Z</time>
      </trkpt>
      <trkpt lat="47.2639800" lon="6.9499910">
        <ele>501.6</ele>
        <time>2022-07-21T08:52:30Z</time>
      </trkpt>
      <trkpt lat="47.2639250" lon="6.9499570">
        <ele>501.8</ele>
        <time>2022-07-21T08:52:32Z</time>
      </trkpt>
      <trkpt lat="47.2638920" lon="6.9499390">
        <ele>502.0</ele>
        <time>2022-07-21T08:52:33Z</time>
      </trkpt>
      <trkpt lat="47.2638580" lon="6.9499250">
        <ele>502.2</ele>
        <time>2022-07-21T08:52:34Z</time>
      </trkpt>
      <trkpt lat="47.2638210" lon="6.9499060">
        <ele>502.4</ele>
        <time>2022-07-21T08:52:35Z</time>
      </trkpt>
      <trkpt lat="47.2637750" lon="6.9498790">
        <ele>502.8</ele>
        <time>2022-07-21T08:52:37Z</time>
      </trkpt>
      <trkpt lat="47.2637400" lon="6.9498510">
        <ele>503.0</ele>
        <time>2022-07-21T08:52:38Z</time>
      </trkpt>
      <trkpt lat="47.2637270" lon="6.9498390">
        <ele>503.1</ele>
        <time>2022-07-21T08:52:39Z</time>
      </trkpt>
      <trkpt lat="47.2636940" lon="6.9498130">
        <ele>503.4</ele>
        <time>2022-07-21T08:52:40Z</time>
      </trkpt>
      <trkpt lat="47.2636590" lon="6.9497970">
        <ele>503.7</ele>
        <time>2022-07-21T08:52:42Z</time>
      </trkpt>
      <trkpt lat="47.2636240" lon="6.9497810">
        <ele>503.9</ele>
        <time>2022-07-21T08:52:43Z</time>
      </trkpt>
      <trkpt lat="47.2636130" lon="6.9497750">
        <ele>503.9</ele>
        <time>2022-07-21T08:52:44Z</time>
      </trkpt>
      <trkpt lat="47.2635800" lon="6.9497640">
        <ele>504.1</ele>
        <time>2022-07-21T08:52:45Z</time>
      </trkpt>
      <trkpt lat="47.2635450" lon="6.9497630">
        <ele>504.3</ele>
        <time>2022-07-21T08:52:46Z</time>
      </trkpt>
      <trkpt lat="47.2635340" lon="6.9497640">
        <ele>504.4</ele>
        <time>2022-07-21T08:52:47Z</time>
      </trkpt>
      <trkpt lat="47.2634980" lon="6.9497680">
        <ele>504.6</ele>
        <time>2022-07-21T08:52:48Z</time>
      </trkpt>
      <trkpt lat="47.2634870" lon="6.9497680">
        <ele>504.7</ele>
        <time>2022-07-21T08:52:49Z</time>
      </trkpt>
      <trkpt lat="47.2634490" lon="6.9497710">
        <ele>504.9</ele>
        <time>2022-07-21T08:52:50Z</time>
      </trkpt>
      <trkpt lat="47.2634360" lon="6.9497710">
        <ele>505.0</ele>
        <time>2022-07-21T08:52:51Z</time>
      </trkpt>
      <trkpt lat="47.2634010" lon="6.9497690">
        <ele>505.2</ele>
        <time>2022-07-21T08:52:52Z</time>
      </trkpt>
      <trkpt lat="47.2633900" lon="6.9497690">
        <ele>505.3</ele>
        <time>2022-07-21T08:52:53Z</time>
      </trkpt>
      <trkpt lat="47.2633490" lon="6.9497700">
        <ele>505.5</ele>
        <time>2022-07-21T08:52:54Z</time>
      </trkpt>
      <trkpt lat="47.2633080" lon="6.9497770">
        <ele>505.7</ele>
        <time>2022-07-21T08:52:56Z</time>
      </trkpt>
      <trkpt lat="47.2632770" lon="6.9497860">
        <ele>505.9</ele>
        <time>2022-07-21T08:52:57Z</time>
      </trkpt>
      <trkpt lat="47.2632680" lon="6.9497900">
        <ele>505.9</ele>
        <time>2022-07-21T08:52:58Z</time>
      </trkpt>
      <trkpt lat="47.2632230" lon="6.9497980">
        <ele>506.2</ele>
        <time>2022-07-21T08:53:00Z</time>
      </trkpt>
      <trkpt lat="47.2631910" lon="6.9498000">
        <ele>506.3</ele>
        <time>2022-07-21T08:53:01Z</time>
      </trkpt>
      <trkpt lat="47.2631550" lon="6.9497980">
        <ele>506.4</ele>
        <time>2022-07-21T08:53:02Z</time>
      </trkpt>
      <trkpt lat="47.2631450" lon="6.9497970">
        <ele>506.5</ele>
        <time>2022-07-21T08:53:03Z</time>
      </trkpt>
      <trkpt lat="47.2631080" lon="6.9497950">
        <ele>506.6</ele>
        <time>2022-07-21T08:53:04Z</time>
      </trkpt>
      <trkpt lat="47.2630960" lon="6.9497960">
        <ele>506.7</ele>
        <time>2022-07-21T08:53:05Z</time>
      </trkpt>
      <trkpt lat="47.2630650" lon="6.9498070">
        <ele>506.7</ele>
        <time>2022-07-21T08:53:06Z</time>
      </trkpt>
      <trkpt lat="47.2630040" lon="6.9498190">
        <ele>506.9</ele>
        <time>2022-07-21T08:53:08Z</time>
      </trkpt>
      <trkpt lat="47.2629650" lon="6.9498270">
        <ele>507.0</ele>
        <time>2022-07-21T08:53:09Z</time>
      </trkpt>
      <trkpt lat="47.2629520" lon="6.9498290">
        <ele>507.0</ele>
        <time>2022-07-21T08:53:10Z</time>
      </trkpt>
      <trkpt lat="47.2629140" lon="6.9498410">
        <ele>507.0</ele>
        <time>2022-07-21T08:53:11Z</time>
      </trkpt>
      <trkpt lat="47.2629000" lon="6.9498460">
        <ele>507.0</ele>
        <time>2022-07-21T08:53:12Z</time>
      </trkpt>
      <trkpt lat="47.2628610" lon="6.9498540">
        <ele>507.1</ele>
        <time>2022-07-21T08:53:13Z</time>
      </trkpt>
      <trkpt lat="47.2628470" lon="6.9498560">
        <ele>507.1</ele>
        <time>2022-07-21T08:53:14Z</time>
      </trkpt>
      <trkpt lat="47.2628180" lon="6.9498610">
        <ele>507.1</ele>
        <time>2022-07-21T08:53:15Z</time>
      </trkpt>
      <trkpt lat="47.2627860" lon="6.9498690">
        <ele>507.1</ele>
        <time>2022-07-21T08:53:16Z</time>
      </trkpt>
      <trkpt lat="47.2627530" lon="6.9498730">
        <ele>507.1</ele>
        <time>2022-07-21T08:53:17Z</time>
      </trkpt>
      <trkpt lat="47.2627150" lon="6.9498790">
        <ele>507.1</ele>
        <time>2022-07-21T08:53:18Z</time>
      </trkpt>
      <trkpt lat="47.2626720" lon="6.9498930">
        <ele>507.1</ele>
        <time>2022-07-21T08:53:20Z</time>
      </trkpt>
      <trkpt lat="47.2626320" lon="6.9499020">
        <ele>507.1</ele>
        <time>2022-07-21T08:53:21Z</time>
      </trkpt>
      <trkpt lat="47.2625990" lon="6.9499130">
        <ele>507.1</ele>
        <time>2022-07-21T08:53:22Z</time>
      </trkpt>
      <trkpt lat="47.2625630" lon="6.9499250">
        <ele>507.1</ele>
        <time>2022-07-21T08:53:23Z</time>
      </trkpt>
      <trkpt lat="47.2625270" lon="6.9499320">
        <ele>507.2</ele>
        <time>2022-07-21T08:53:24Z</time>
      </trkpt>
      <trkpt lat="47.2624980" lon="6.9499380">
        <ele>507.2</ele>
        <time>2022-07-21T08:53:25Z</time>
      </trkpt>
      <trkpt lat="47.2624580" lon="6.9499430">
        <ele>507.2</ele>
        <time>2022-07-21T08:53:26Z</time>
      </trkpt>
      <trkpt lat="47.2624250" lon="6.9499450">
        <ele>507.2</ele>
        <time>2022-07-21T08:53:27Z</time>
      </trkpt>
      <trkpt lat="47.2623920" lon="6.9499440">
        <ele>507.2</ele>
        <time>2022-07-21T08:53:28Z</time>
      </trkpt>
      <trkpt lat="47.2623630" lon="6.9499450">
        <ele>507.2</ele>
        <time>2022-07-21T08:53:29Z</time>
      </trkpt>
      <trkpt lat="47.2623320" lon="6.9499480">
        <ele>507.3</ele>
        <time>2022-07-21T08:53:30Z</time>
      </trkpt>
      <trkpt lat="47.2622930" lon="6.9499590">
        <ele>507.3</ele>
        <time>2022-07-21T08:53:31Z</time>
      </trkpt>
      <trkpt lat="47.2622440" lon="6.9499700">
        <ele>507.3</ele>
        <time>2022-07-21T08:53:33Z</time>
      </trkpt>
      <trkpt lat="47.2622170" lon="6.9499760">
        <ele>507.3</ele>
        <time>2022-07-21T08:53:34Z</time>
      </trkpt>
      <trkpt lat="47.2621790" lon="6.9499800">
        <ele>507.3</ele>
        <time>2022-07-21T08:53:35Z</time>
      </trkpt>
      <trkpt lat="47.2621640" lon="6.9499790">
        <ele>507.3</ele>
        <time>2022-07-21T08:53:36Z</time>
      </trkpt>
      <trkpt lat="47.2621320" lon="6.9499790">
        <ele>507.3</ele>
        <time>2022-07-21T08:53:37Z</time>
      </trkpt>
      <trkpt lat="47.2620940" lon="6.9499770">
        <ele>507.3</ele>
        <time>2022-07-21T08:53:39Z</time>
      </trkpt>
      <trkpt lat="47.2620500" lon="6.9499650">
        <ele>507.3</ele>
        <time>2022-07-21T08:53:40Z</time>
      </trkpt>
      <trkpt lat="47.2620170" lon="6.9499460">
        <ele>507.3</ele>
        <time>2022-07-21T08:53:41Z</time>
      </trkpt>
      <trkpt lat="47.2619950" lon="6.9499360">
        <ele>507.3</ele>
        <time>2022-07-21T08:53:42Z</time>
      </trkpt>
      <trkpt lat="47.2619560" lon="6.9499230">
        <ele>507.3</ele>
        <time>2022-07-21T08:53:44Z</time>
      </trkpt>
      <trkpt lat="47.2619130" lon="6.9499150">
        <ele>507.3</ele>
        <time>2022-07-21T08:53:45Z</time>
      </trkpt>
      <trkpt lat="47.2618970" lon="6.9499140">
        <ele>507.3</ele>
        <time>2022-07-21T08:53:46Z</time>
      </trkpt>
      <trkpt lat="47.2618660" lon="6.9499160">
        <ele>507.3</ele>
        <time>2022-07-21T08:53:47Z</time>
      </trkpt>
      <trkpt lat="47.2618560" lon="6.9499160">
        <ele>507.3</ele>
        <time>2022-07-21T08:53:48Z</time>
      </trkpt>
      <trkpt lat="47.2618270" lon="6.9499190">
        <ele>507.3</ele>
        <time>2022-07-21T08:53:49Z</time>
      </trkpt>
      <trkpt lat="47.2617900" lon="6.9499240">
        <ele>507.1</ele>
        <time>2022-07-21T08:53:50Z</time>
      </trkpt>
      <trkpt lat="47.2617410" lon="6.9499410">
        <ele>506.8</ele>
        <time>2022-07-21T08:53:52Z</time>
      </trkpt>
      <trkpt lat="47.2617160" lon="6.9499550">
        <ele>506.7</ele>
        <time>2022-07-21T08:53:53Z</time>
      </trkpt>
      <trkpt lat="47.2617010" lon="6.9499700">
        <ele>506.6</ele>
        <time>2022-07-21T08:53:54Z</time>
      </trkpt>
      <trkpt lat="47.2616950" lon="6.9499850">
        <ele>506.5</ele>
        <time>2022-07-21T08:53:55Z</time>
      </trkpt>
      <trkpt lat="47.2616990" lon="6.9499900">
        <ele>506.5</ele>
        <time>2022-07-21T08:53:56Z</time>
      </trkpt>
      <trkpt lat="47.2617150" lon="6.9500070">
        <ele>506.4</ele>
        <time>2022-07-21T08:53:57Z</time>
      </trkpt>
      <trkpt lat="47.2617200" lon="6.9500140">
        <ele>506.4</ele>
        <time>2022-07-21T08:53:58Z</time>
      </trkpt>
      <trkpt lat="47.2617130" lon="6.9500220">
        <ele>506.3</ele>
        <time>2022-07-21T08:53:59Z</time>
      </trkpt>
      <trkpt lat="47.2617070" lon="6.9500220">
        <ele>506.3</ele>
        <time>2022-07-21T08:54:01Z</time>
      </trkpt>
      <trkpt lat="47.2617020" lon="6.9500210">
        <ele>506.2</ele>
        <time>2022-07-21T08:54:02Z</time>
      </trkpt>
      <trkpt lat="47.2616970" lon="6.9500200">
        <ele>506.2</ele>
        <time>2022-07-21T08:54:03Z</time>
      </trkpt>
      <trkpt lat="47.2616910" lon="6.9500200">
        <ele>506.2</ele>
        <time>2022-07-21T08:54:04Z</time>
      </trkpt>
      <trkpt lat="47.2616860" lon="6.9500190">
        <ele>506.2</ele>
        <time>2022-07-21T08:54:05Z</time>
      </trkpt>
      <trkpt lat="47.2616810" lon="6.9500190">
        <ele>506.1</ele>
        <time>2022-07-21T08:54:06Z</time>
      </trkpt>
      <trkpt lat="47.2616760" lon="6.9500180">
        <ele>506.1</ele>
        <time>2022-07-21T08:54:07Z</time>
      </trkpt>
      <trkpt lat="47.2616700" lon="6.9500180">
        <ele>506.1</ele>
        <time>2022-07-21T08:54:08Z</time>
      </trkpt>
      <trkpt lat="47.2616650" lon="6.9500170">
        <ele>506.0</ele>
        <time>2022-07-21T08:54:09Z</time>
      </trkpt>
      <trkpt lat="47.2616600" lon="6.9500160">
        <ele>506.0</ele>
        <time>2022-07-21T08:54:20Z</time>
      </trkpt>
      <trkpt lat="47.2616540" lon="6.9500160">
        <ele>506.0</ele>
        <time>2022-07-21T08:54:21Z</time>
      </trkpt>
      <trkpt lat="47.2616490" lon="6.9500150">
        <ele>506.0</ele>
        <time>2022-07-21T08:54:22Z</time>
      </trkpt>
      <trkpt lat="47.2616440" lon="6.9500150">
        <ele>506.0</ele>
        <time>2022-07-21T08:54:23Z</time>
      </trkpt>
      <trkpt lat="47.2616090" lon="6.9499910">
        <ele>506.2</ele>
        <time>2022-07-21T08:54:24Z</time>
      </trkpt>
      <trkpt lat="47.2615980" lon="6.9499800">
        <ele>506.3</ele>
        <time>2022-07-21T08:54:25Z</time>
      </trkpt>
      <trkpt lat="47.2615860" lon="6.9499660">
        <ele>506.4</ele>
        <time>2022-07-21T08:54:26Z</time>
      </trkpt>
      <trkpt lat="47.2615710" lon="6.9499500">
        <ele>506.5</ele>
        <time>2022-07-21T08:54:27Z</time>
      </trkpt>
      <trkpt lat="47.2615450" lon="6.9499330">
        <ele>506.6</ele>
        <time>2022-07-21T08:54:28Z</time>
      </trkpt>
      <trkpt lat="47.2615350" lon="6.9499290">
        <ele>506.7</ele>
        <time>2022-07-21T08:54:29Z</time>
      </trkpt>
      <trkpt lat="47.2614980" lon="6.9499060">
        <ele>506.9</ele>
        <time>2022-07-21T08:54:30Z</time>
      </trkpt>
      <trkpt lat="47.2614840" lon="6.9498960">
        <ele>507.0</ele>
        <time>2022-07-21T08:54:31Z</time>
      </trkpt>
      <trkpt lat="47.2614470" lon="6.9498650">
        <ele>507.1</ele>
        <time>2022-07-21T08:54:33Z</time>
      </trkpt>
      <trkpt lat="47.2614330" lon="6.9498540">
        <ele>507.2</ele>
        <time>2022-07-21T08:54:34Z</time>
      </trkpt>
      <trkpt lat="47.2614070" lon="6.9498100">
        <ele>507.4</ele>
        <time>2022-07-21T08:54:35Z</time>
      </trkpt>
      <trkpt lat="47.2613980" lon="6.9497920">
        <ele>507.5</ele>
        <time>2022-07-21T08:54:36Z</time>
      </trkpt>
      <trkpt lat="47.2613720" lon="6.9497510">
        <ele>507.7</ele>
        <time>2022-07-21T08:54:37Z</time>
      </trkpt>
      <trkpt lat="47.2613630" lon="6.9497380">
        <ele>507.7</ele>
        <time>2022-07-21T08:54:38Z</time>
      </trkpt>
      <trkpt lat="47.2613300" lon="6.9497100">
        <ele>507.9</ele>
        <time>2022-07-21T08:54:39Z</time>
      </trkpt>
      <trkpt lat="47.2613180" lon="6.9497010">
        <ele>508.0</ele>
        <time>2022-07-21T08:54:40Z</time>
      </trkpt>
      <trkpt lat="47.2612820" lon="6.9496850">
        <ele>508.2</ele>
        <time>2022-07-21T08:54:41Z</time>
      </trkpt>
      <trkpt lat="47.2612720" lon="6.9496810">
        <ele>508.3</ele>
        <time>2022-07-21T08:54:42Z</time>
      </trkpt>
      <trkpt lat="47.2612380" lon="6.9496630">
        <ele>508.5</ele>
        <time>2022-07-21T08:54:43Z</time>
      </trkpt>
      <trkpt lat="47.2612290" lon="6.9496580">
        <ele>508.5</ele>
        <time>2022-07-21T08:54:44Z</time>
      </trkpt>
      <trkpt lat="47.2611960" lon="6.9496460">
        <ele>508.7</ele>
        <time>2022-07-21T08:54:45Z</time>
      </trkpt>
      <trkpt lat="47.2611850" lon="6.9496430">
        <ele>508.7</ele>
        <time>2022-07-21T08:54:46Z</time>
      </trkpt>
      <trkpt lat="47.2611700" lon="6.9496430">
        <ele>508.8</ele>
        <time>2022-07-21T08:54:47Z</time>
      </trkpt>
      <trkpt lat="47.2611590" lon="6.9496440">
        <ele>508.9</ele>
        <time>2022-07-21T08:54:48Z</time>
      </trkpt>
      <trkpt lat="47.2611510" lon="6.9496510">
        <ele>508.9</ele>
        <time>2022-07-21T08:54:49Z</time>
      </trkpt>
      <trkpt lat="47.2611370" lon="6.9496560">
        <ele>509.0</ele>
        <time>2022-07-21T08:54:50Z</time>
      </trkpt>
      <trkpt lat="47.2611240" lon="6.9496550">
        <ele>509.1</ele>
        <time>2022-07-21T08:54:51Z</time>
      </trkpt>
      <trkpt lat="47.2611180" lon="6.9496490">
        <ele>509.1</ele>
        <time>2022-07-21T08:54:52Z</time>
      </trkpt>
      <trkpt lat="47.2611090" lon="6.9496250">
        <ele>509.2</ele>
        <time>2022-07-21T08:54:53Z</time>
      </trkpt>
      <trkpt lat="47.2611050" lon="6.9496100">
        <ele>509.2</ele>
        <time>2022-07-21T08:54:54Z</time>
      </trkpt>
      <trkpt lat="47.2611010" lon="6.9495960">
        <ele>509.3</ele>
        <time>2022-07-21T08:54:55Z</time>
      </trkpt>
      <trkpt lat="47.2610910" lon="6.9495770">
        <ele>509.3</ele>
        <time>2022-07-21T08:54:56Z</time>
      </trkpt>
      <trkpt lat="47.2610780" lon="6.9495670">
        <ele>509.4</ele>
        <time>2022-07-21T08:54:57Z</time>
      </trkpt>
      <trkpt lat="47.2610650" lon="6.9495580">
        <ele>509.5</ele>
        <time>2022-07-21T08:54:58Z</time>
      </trkpt>
      <trkpt lat="47.2610390" lon="6.9495420">
        <ele>509.6</ele>
        <time>2022-07-21T08:55:00Z</time>
      </trkpt>
      <trkpt lat="47.2610240" lon="6.9495320">
        <ele>509.6</ele>
        <time>2022-07-21T08:55:01Z</time>
      </trkpt>
      <trkpt lat="47.2610110" lon="6.9495220">
        <ele>509.6</ele>
        <time>2022-07-21T08:55:02Z</time>
      </trkpt>
      <trkpt lat="47.2609890" lon="6.9495170">
        <ele>509.6</ele>
        <time>2022-07-21T08:55:03Z</time>
      </trkpt>
      <trkpt lat="47.2609800" lon="6.9495160">
        <ele>509.6</ele>
        <time>2022-07-21T08:55:04Z</time>
      </trkpt>
      <trkpt lat="47.2609700" lon="6.9495150">
        <ele>509.6</ele>
        <time>2022-07-21T08:55:05Z</time>
      </trkpt>
      <trkpt lat="47.2609600" lon="6.9495270">
        <ele>509.6</ele>
        <time>2022-07-21T08:55:06Z</time>
      </trkpt>
      <trkpt lat="47.2609600" lon="6.9495580">
        <ele>509.6</ele>
        <time>2022-07-21T08:55:07Z</time>
      </trkpt>
      <trkpt lat="47.2609750" lon="6.9496120">
        <ele>509.7</ele>
        <time>2022-07-21T08:55:08Z</time>
      </trkpt>
      <trkpt lat="47.2609840" lon="6.9496290">
        <ele>509.7</ele>
        <time>2022-07-21T08:55:09Z</time>
      </trkpt>
      <trkpt lat="47.2610150" lon="6.9496500">
        <ele>509.6</ele>
        <time>2022-07-21T08:55:10Z</time>
      </trkpt>
      <trkpt lat="47.2610280" lon="6.9496550">
        <ele>509.5</ele>
        <time>2022-07-21T08:55:11Z</time>
      </trkpt>
      <trkpt lat="47.2610640" lon="6.9496600">
        <ele>509.3</ele>
        <time>2022-07-21T08:55:13Z</time>
      </trkpt>
      <trkpt lat="47.2611040" lon="6.9496640">
        <ele>509.1</ele>
        <time>2022-07-21T08:55:15Z</time>
      </trkpt>
      <trkpt lat="47.2611470" lon="6.9496790">
        <ele>508.9</ele>
        <time>2022-07-21T08:55:17Z</time>
      </trkpt>
      <trkpt lat="47.2611630" lon="6.9496940">
        <ele>508.9</ele>
        <time>2022-07-21T08:55:18Z</time>
      </trkpt>
      <trkpt lat="47.2611690" lon="6.9497010">
        <ele>508.8</ele>
        <time>2022-07-21T08:55:19Z</time>
      </trkpt>
      <trkpt lat="47.2611680" lon="6.9497030">
        <ele>508.8</ele>
        <time>2022-07-21T08:55:21Z</time>
      </trkpt>
      <trkpt lat="47.2611710" lon="6.9497080">
        <ele>508.8</ele>
        <time>2022-07-21T08:55:22Z</time>
      </trkpt>
      <trkpt lat="47.2611740" lon="6.9497140">
        <ele>508.8</ele>
        <time>2022-07-21T08:55:23Z</time>
      </trkpt>
      <trkpt lat="47.2611750" lon="6.9497170">
        <ele>508.8</ele>
        <time>2022-07-21T08:55:24Z</time>
      </trkpt>
      <trkpt lat="47.2611760" lon="6.9497210">
        <ele>508.7</ele>
        <time>2022-07-21T08:55:25Z</time>
      </trkpt>
      <trkpt lat="47.2611740" lon="6.9497220">
        <ele>508.7</ele>
        <time>2022-07-21T08:55:26Z</time>
      </trkpt>
      <trkpt lat="47.2611730" lon="6.9497240">
        <ele>508.7</ele>
        <time>2022-07-21T08:55:27Z</time>
      </trkpt>
      <trkpt lat="47.2611720" lon="6.9497260">
        <ele>508.7</ele>
        <time>2022-07-21T08:55:28Z</time>
      </trkpt>
      <trkpt lat="47.2611710" lon="6.9497270">
        <ele>508.7</ele>
        <time>2022-07-21T08:55:29Z</time>
      </trkpt>
      <trkpt lat="47.2611710" lon="6.9497300">
        <ele>508.7</ele>
        <time>2022-07-21T08:55:30Z</time>
      </trkpt>
      <trkpt lat="47.2611700" lon="6.9497320">
        <ele>508.7</ele>
        <time>2022-07-21T08:55:31Z</time>
      </trkpt>
      <trkpt lat="47.2611700" lon="6.9497350">
        <ele>508.7</ele>
        <time>2022-07-21T08:55:32Z</time>
      </trkpt>
      <trkpt lat="47.2611690" lon="6.9497360">
        <ele>508.7</ele>
        <time>2022-07-21T08:55:33Z</time>
      </trkpt>
      <trkpt lat="47.2611690" lon="6.9497370">
        <ele>508.7</ele>
        <time>2022-07-21T08:55:34Z</time>
      </trkpt>
      <trkpt lat="47.2611840" lon="6.9497460">
        <ele>508.6</ele>
        <time>2022-07-21T08:55:52Z</time>
      </trkpt>
      <trkpt lat="47.2611920" lon="6.9497460">
        <ele>508.5</ele>
        <time>2022-07-21T08:55:53Z</time>
      </trkpt>
      <trkpt lat="47.2612010" lon="6.9497450">
        <ele>508.5</ele>
        <time>2022-07-21T08:55:54Z</time>
      </trkpt>
      <trkpt lat="47.2612150" lon="6.9497480">
        <ele>508.4</ele>
        <time>2022-07-21T08:55:55Z</time>
      </trkpt>
      <trkpt lat="47.2612480" lon="6.9497540">
        <ele>508.3</ele>
        <time>2022-07-21T08:55:56Z</time>
      </trkpt>
      <trkpt lat="47.2612580" lon="6.9497550">
        <ele>508.2</ele>
        <time>2022-07-21T08:55:57Z</time>
      </trkpt>
      <trkpt lat="47.2612920" lon="6.9497570">
        <ele>508.0</ele>
        <time>2022-07-21T08:55:58Z</time>
      </trkpt>
      <trkpt lat="47.2613020" lon="6.9497570">
        <ele>508.0</ele>
        <time>2022-07-21T08:55:59Z</time>
      </trkpt>
      <trkpt lat="47.2613400" lon="6.9497780">
        <ele>507.8</ele>
        <time>2022-07-21T08:56:01Z</time>
      </trkpt>
      <trkpt lat="47.2613670" lon="6.9498110">
        <ele>507.6</ele>
        <time>2022-07-21T08:56:02Z</time>
      </trkpt>
      <trkpt lat="47.2613790" lon="6.9498220">
        <ele>507.5</ele>
        <time>2022-07-21T08:56:03Z</time>
      </trkpt>
      <trkpt lat="47.2614050" lon="6.9498470">
        <ele>507.3</ele>
        <time>2022-07-21T08:56:04Z</time>
      </trkpt>
      <trkpt lat="47.2614100" lon="6.9498560">
        <ele>507.3</ele>
        <time>2022-07-21T08:56:05Z</time>
      </trkpt>
      <trkpt lat="47.2614230" lon="6.9498710">
        <ele>507.2</ele>
        <time>2022-07-21T08:56:06Z</time>
      </trkpt>
      <trkpt lat="47.2614510" lon="6.9498910">
        <ele>507.1</ele>
        <time>2022-07-21T08:56:08Z</time>
      </trkpt>
      <trkpt lat="47.2614770" lon="6.9499220">
        <ele>506.9</ele>
        <time>2022-07-21T08:56:09Z</time>
      </trkpt>
      <trkpt lat="47.2614990" lon="6.9499420">
        <ele>506.8</ele>
        <time>2022-07-21T08:56:10Z</time>
      </trkpt>
      <trkpt lat="47.2615460" lon="6.9499890">
        <ele>506.5</ele>
        <time>2022-07-21T08:56:12Z</time>
      </trkpt>
      <trkpt lat="47.2615730" lon="6.9500130">
        <ele>506.4</ele>
        <time>2022-07-21T08:56:13Z</time>
      </trkpt>
      <trkpt lat="47.2616040" lon="6.9500380">
        <ele>506.2</ele>
        <time>2022-07-21T08:56:14Z</time>
      </trkpt>
      <trkpt lat="47.2616140" lon="6.9500470">
        <ele>506.1</ele>
        <time>2022-07-21T08:56:15Z</time>
      </trkpt>
      <trkpt lat="47.2616370" lon="6.9500720">
        <ele>505.8</ele>
        <time>2022-07-21T08:56:16Z</time>
      </trkpt>
      <trkpt lat="47.2616440" lon="6.9500790">
        <ele>505.8</ele>
        <time>2022-07-21T08:56:17Z</time>
      </trkpt>
      <trkpt lat="47.2616530" lon="6.9500940">
        <ele>505.7</ele>
        <time>2022-07-21T08:56:18Z</time>
      </trkpt>
      <trkpt lat="47.2616610" lon="6.9501050">
        <ele>505.7</ele>
        <time>2022-07-21T08:56:19Z</time>
      </trkpt>
      <trkpt lat="47.2616670" lon="6.9501120">
        <ele>505.7</ele>
        <time>2022-07-21T08:56:20Z</time>
      </trkpt>
      <trkpt lat="47.2616730" lon="6.9501290">
        <ele>505.7</ele>
        <time>2022-07-21T08:56:21Z</time>
      </trkpt>
      <trkpt lat="47.2616800" lon="6.9501390">
        <ele>505.7</ele>
        <time>2022-07-21T08:56:22Z</time>
      </trkpt>
      <trkpt lat="47.2616850" lon="6.9501410">
        <ele>505.7</ele>
        <time>2022-07-21T08:56:23Z</time>
      </trkpt>
      <trkpt lat="47.2616880" lon="6.9501410">
        <ele>505.7</ele>
        <time>2022-07-21T08:56:24Z</time>
      </trkpt>
      <trkpt lat="47.2616920" lon="6.9501420">
        <ele>505.7</ele>
        <time>2022-07-21T08:56:25Z</time>
      </trkpt>
      <trkpt lat="47.2616940" lon="6.9501420">
        <ele>505.7</ele>
        <time>2022-07-21T08:56:26Z</time>
      </trkpt>
      <trkpt lat="47.2616930" lon="6.9501410">
        <ele>505.6</ele>
        <time>2022-07-21T08:56:27Z</time>
      </trkpt>
      <trkpt lat="47.2616930" lon="6.9501400">
        <ele>505.6</ele>
        <time>2022-07-21T08:56:28Z</time>
      </trkpt>
      <trkpt lat="47.2616920" lon="6.9501400">
        <ele>505.6</ele>
        <time>2022-07-21T08:56:29Z</time>
      </trkpt>
      <trkpt lat="47.2616930" lon="6.9501400">
        <ele>505.6</ele>
        <time>2022-07-21T08:56:30Z</time>
      </trkpt>
      <trkpt lat="47.2616910" lon="6.9501430">
        <ele>505.6</ele>
        <time>2022-07-21T08:56:31Z</time>
      </trkpt>
      <trkpt lat="47.2616900" lon="6.9501420">
        <ele>505.6</ele>
        <time>2022-07-21T08:56:32Z</time>
      </trkpt>
      <trkpt lat="47.2616910" lon="6.9501390">
        <ele>505.6</ele>
        <time>2022-07-21T08:56:33Z</time>
      </trkpt>
      <trkpt lat="47.2616920" lon="6.9501370">
        <ele>505.6</ele>
        <time>2022-07-21T08:56:34Z</time>
      </trkpt>
      <trkpt lat="47.2616930" lon="6.9501360">
        <ele>505.6</ele>
        <time>2022-07-21T08:56:35Z</time>
      </trkpt>
      <trkpt lat="47.2616950" lon="6.9501370">
        <ele>505.6</ele>
        <time>2022-07-21T08:56:36Z</time>
      </trkpt>
      <trkpt lat="47.2616970" lon="6.9501380">
        <ele>505.6</ele>
        <time>2022-07-21T08:56:37Z</time>
      </trkpt>
      <trkpt lat="47.2616980" lon="6.9501390">
        <ele>505.6</ele>
        <time>2022-07-21T08:56:38Z</time>
      </trkpt>
      <trkpt lat="47.2616970" lon="6.9501400">
        <ele>505.6</ele>
        <time>2022-07-21T08:56:39Z</time>
      </trkpt>
      <trkpt lat="47.2616970" lon="6.9501410">
        <ele>505.6</ele>
        <time>2022-07-21T08:56:40Z</time>
      </trkpt>
      <trkpt lat="47.2616960" lon="6.9501400">
        <ele>505.6</ele>
        <time>2022-07-21T08:56:41Z</time>
      </trkpt>
      <trkpt lat="47.2616950" lon="6.9501400">
        <ele>505.6</ele>
        <time>2022-07-21T08:56:42Z</time>
      </trkpt>
      <trkpt lat="47.2616960" lon="6.9501440">
        <ele>505.6</ele>
        <time>2022-07-21T08:56:43Z</time>
      </trkpt>
      <trkpt lat="47.2616980" lon="6.9501490">
        <ele>505.6</ele>
        <time>2022-07-21T08:56:44Z</time>
      </trkpt>
      <trkpt lat="47.2617160" lon="6.9501270">
        <ele>505.6</ele>
        <time>2022-07-21T09:03:40Z</time>
      </trkpt>
      <trkpt lat="47.2617210" lon="6.9501260">
        <ele>505.6</ele>
        <time>2022-07-21T09:03:41Z</time>
      </trkpt>
      <trkpt lat="47.2617240" lon="6.9501250">
        <ele>505.6</ele>
        <time>2022-07-21T09:03:42Z</time>
      </trkpt>
      <trkpt lat="47.2617270" lon="6.9501230">
        <ele>505.6</ele>
        <time>2022-07-21T09:03:43Z</time>
      </trkpt>
      <trkpt lat="47.2617300" lon="6.9501220">
        <ele>505.5</ele>
        <time>2022-07-21T09:03:44Z</time>
      </trkpt>
      <trkpt lat="47.2617310" lon="6.9501220">
        <ele>505.5</ele>
        <time>2022-07-21T09:03:45Z</time>
      </trkpt>
      <trkpt lat="47.2617300" lon="6.9501210">
        <ele>505.5</ele>
        <time>2022-07-21T09:03:46Z</time>
      </trkpt>
      <trkpt lat="47.2617290" lon="6.9501200">
        <ele>505.5</ele>
        <time>2022-07-21T09:03:47Z</time>
      </trkpt>
      <trkpt lat="47.2617290" lon="6.9501190">
        <ele>505.5</ele>
        <time>2022-07-21T09:03:48Z</time>
      </trkpt>
      <trkpt lat="47.2617290" lon="6.9501190">
        <ele>505.5</ele>
        <time>2022-07-21T09:03:49Z</time>
      </trkpt>
      <trkpt lat="47.2617290" lon="6.9501190">
        <ele>505.5</ele>
        <time>2022-07-21T09:03:50Z</time>
      </trkpt>
      <trkpt lat="47.2617290" lon="6.9501180">
        <ele>505.5</ele>
        <time>2022-07-21T09:03:51Z</time>
      </trkpt>
      <trkpt lat="47.2617300" lon="6.9501150">
        <ele>505.5</ele>
        <time>2022-07-21T09:03:52Z</time>
      </trkpt>
      <trkpt lat="47.2617320" lon="6.9501080">
        <ele>505.5</ele>
        <time>2022-07-21T09:03:53Z</time>
      </trkpt>
      <trkpt lat="47.2617340" lon="6.9501040">
        <ele>505.5</ele>
        <time>2022-07-21T09:03:54Z</time>
      </trkpt>
      <trkpt lat="47.2617320" lon="6.9501010">
        <ele>505.5</ele>
        <time>2022-07-21T09:03:55Z</time>
      </trkpt>
      <trkpt lat="47.2617330" lon="6.9501000">
        <ele>505.5</ele>
        <time>2022-07-21T09:03:56Z</time>
      </trkpt>
      <trkpt lat="47.2617300" lon="6.9501010">
        <ele>505.5</ele>
        <time>2022-07-21T09:03:57Z</time>
      </trkpt>
      <trkpt lat="47.2617280" lon="6.9501020">
        <ele>505.5</ele>
        <time>2022-07-21T09:03:58Z</time>
      </trkpt>
      <trkpt lat="47.2617270" lon="6.9501030">
        <ele>505.5</ele>
        <time>2022-07-21T09:03:59Z</time>
      </trkpt>
      <trkpt lat="47.2617260" lon="6.9501030">
        <ele>505.5</ele>
        <time>2022-07-21T09:04:00Z</time>
      </trkpt>
      <trkpt lat="47.2617250" lon="6.9501040">
        <ele>505.5</ele>
        <time>2022-07-21T09:04:01Z</time>
      </trkpt>
      <trkpt lat="47.2617240" lon="6.9501040">
        <ele>505.5</ele>
        <time>2022-07-21T09:04:02Z</time>
      </trkpt>
      <trkpt lat="47.2617240" lon="6.9501040">
        <ele>505.5</ele>
        <time>2022-07-21T09:04:03Z</time>
      </trkpt>
      <trkpt lat="47.2617230" lon="6.9501040">
        <ele>505.5</ele>
        <time>2022-07-21T09:04:04Z</time>
      </trkpt>
      <trkpt lat="47.2617230" lon="6.9501030">
        <ele>505.5</ele>
        <time>2022-07-21T09:04:05Z</time>
      </trkpt>
      <trkpt lat="47.2617180" lon="6.9500860">
        <ele>505.5</ele>
        <time>2022-07-21T09:04:18Z</time>
      </trkpt>
      <trkpt lat="47.2617160" lon="6.9500810">
        <ele>505.5</ele>
        <time>2022-07-21T09:04:19Z</time>
      </trkpt>
      <trkpt lat="47.2617160" lon="6.9500800">
        <ele>505.5</ele>
        <time>2022-07-21T09:04:20Z</time>
      </trkpt>
      <trkpt lat="47.2617150" lon="6.9500800">
        <ele>505.5</ele>
        <time>2022-07-21T09:04:21Z</time>
      </trkpt>
      <trkpt lat="47.2617150" lon="6.9500800">
        <ele>505.5</ele>
        <time>2022-07-21T09:04:22Z</time>
      </trkpt>
      <trkpt lat="47.2617150" lon="6.9500800">
        <ele>505.5</ele>
        <time>2022-07-21T09:04:23Z</time>
      </trkpt>
      <trkpt lat="47.2617150" lon="6.9500810">
        <ele>505.5</ele>
        <time>2022-07-21T09:04:24Z</time>
      </trkpt>
      <trkpt lat="47.2617110" lon="6.9500760">
        <ele>505.5</ele>
        <time>2022-07-21T09:04:25Z</time>
      </trkpt>
      <trkpt lat="47.2617060" lon="6.9500730">
        <ele>505.5</ele>
        <time>2022-07-21T09:04:26Z</time>
      </trkpt>
      <trkpt lat="47.2617010" lon="6.9500770">
        <ele>505.4</ele>
        <time>2022-07-21T09:04:27Z</time>
      </trkpt>
      <trkpt lat="47.2616970" lon="6.9500840">
        <ele>505.4</ele>
        <time>2022-07-21T09:04:28Z</time>
      </trkpt>
      <trkpt lat="47.2616950" lon="6.9500880">
        <ele>505.4</ele>
        <time>2022-07-21T09:04:29Z</time>
      </trkpt>
      <trkpt lat="47.2616950" lon="6.9500930">
        <ele>505.4</ele>
        <time>2022-07-21T09:04:30Z</time>
      </trkpt>
      <trkpt lat="47.2616950" lon="6.9500950">
        <ele>505.4</ele>
        <time>2022-07-21T09:04:31Z</time>
      </trkpt>
      <trkpt lat="47.2616940" lon="6.9500960">
        <ele>505.4</ele>
        <time>2022-07-21T09:04:32Z</time>
      </trkpt>
      <trkpt lat="47.2616930" lon="6.9500950">
        <ele>505.4</ele>
        <time>2022-07-21T09:04:33Z</time>
      </trkpt>
      <trkpt lat="47.2616930" lon="6.9500940">
        <ele>505.4</ele>
        <time>2022-07-21T09:04:34Z</time>
      </trkpt>
      <trkpt lat="47.2616930" lon="6.9500940">
        <ele>505.4</ele>
        <time>2022-07-21T09:04:35Z</time>
      </trkpt>
      <trkpt lat="47.2616940" lon="6.9500950">
        <ele>505.4</ele>
        <time>2022-07-21T09:04:36Z</time>
      </trkpt>
      <trkpt lat="47.2616950" lon="6.9500950">
        <ele>505.4</ele>
        <time>2022-07-21T09:04:37Z</time>
      </trkpt>
      <trkpt lat="47.2616950" lon="6.9500950">
        <ele>505.4</ele>
        <time>2022-07-21T09:04:38Z</time>
      </trkpt>
      <trkpt lat="47.2616940" lon="6.9500950">
        <ele>505.4</ele>
        <time>2022-07-21T09:04:39Z</time>
      </trkpt>
      <trkpt lat="47.2616940" lon="6.9500950">
        <ele>505.4</ele>
        <time>2022-07-21T09:04:40Z</time>
      </trkpt>
      <trkpt lat="47.2617280" lon="6.9500960">
        <ele>505.4</ele>
        <time>2022-07-21T09:05:46Z</time>
      </trkpt>
      <trkpt lat="47.2617390" lon="6.9500890">
        <ele>505.3</ele>
        <time>2022-07-21T09:05:47Z</time>
      </trkpt>
      <trkpt lat="47.2617430" lon="6.9500770">
        <ele>505.3</ele>
        <time>2022-07-21T09:05:48Z</time>
      </trkpt>
      <trkpt lat="47.2617410" lon="6.9500680">
        <ele>505.3</ele>
        <time>2022-07-21T09:05:49Z</time>
      </trkpt>
      <trkpt lat="47.2617330" lon="6.9500630">
        <ele>505.3</ele>
        <time>2022-07-21T09:05:50Z</time>
      </trkpt>
      <trkpt lat="47.2617270" lon="6.9500620">
        <ele>505.3</ele>
        <time>2022-07-21T09:05:51Z</time>
      </trkpt>
      <trkpt lat="47.2617230" lon="6.9500630">
        <ele>505.3</ele>
        <time>2022-07-21T09:05:52Z</time>
      </trkpt>
      <trkpt lat="47.2617210" lon="6.9500640">
        <ele>505.3</ele>
        <time>2022-07-21T09:05:53Z</time>
      </trkpt>
      <trkpt lat="47.2617200" lon="6.9500660">
        <ele>505.3</ele>
        <time>2022-07-21T09:05:54Z</time>
      </trkpt>
      <trkpt lat="47.2617190" lon="6.9500630">
        <ele>505.3</ele>
        <time>2022-07-21T09:05:55Z</time>
      </trkpt>
      <trkpt lat="47.2617160" lon="6.9500620">
        <ele>505.3</ele>
        <time>2022-07-21T09:05:56Z</time>
      </trkpt>
      <trkpt lat="47.2617130" lon="6.9500640">
        <ele>505.3</ele>
        <time>2022-07-21T09:05:57Z</time>
      </trkpt>
      <trkpt lat="47.2617050" lon="6.9500680">
        <ele>505.3</ele>
        <time>2022-07-21T09:05:58Z</time>
      </trkpt>
      <trkpt lat="47.2617000" lon="6.9500700">
        <ele>505.3</ele>
        <time>2022-07-21T09:05:59Z</time>
      </trkpt>
      <trkpt lat="47.2616960" lon="6.9500740">
        <ele>505.3</ele>
        <time>2022-07-21T09:06:00Z</time>
      </trkpt>
      <trkpt lat="47.2616940" lon="6.9500760">
        <ele>505.2</ele>
        <time>2022-07-21T09:06:01Z</time>
      </trkpt>
      <trkpt lat="47.2616970" lon="6.9500820">
        <ele>505.2</ele>
        <time>2022-07-21T09:06:02Z</time>
      </trkpt>
      <trkpt lat="47.2616990" lon="6.9500870">
        <ele>505.2</ele>
        <time>2022-07-21T09:06:03Z</time>
      </trkpt>
      <trkpt lat="47.2617040" lon="6.9500950">
        <ele>505.2</ele>
        <time>2022-07-21T09:06:04Z</time>
      </trkpt>
      <trkpt lat="47.2617080" lon="6.9501010">
        <ele>505.2</ele>
        <time>2022-07-21T09:06:05Z</time>
      </trkpt>
      <trkpt lat="47.2617100" lon="6.9501070">
        <ele>505.2</ele>
        <time>2022-07-21T09:06:06Z</time>
      </trkpt>
      <trkpt lat="47.2617120" lon="6.9501150">
        <ele>505.2</ele>
        <time>2022-07-21T09:06:07Z</time>
      </trkpt>
      <trkpt lat="47.2617130" lon="6.9501210">
        <ele>505.2</ele>
        <time>2022-07-21T09:06:08Z</time>
      </trkpt>
      <trkpt lat="47.2617130" lon="6.9501240">
        <ele>505.2</ele>
        <time>2022-07-21T09:06:09Z</time>
      </trkpt>
      <trkpt lat="47.2617120" lon="6.9501250">
        <ele>505.2</ele>
        <time>2022-07-21T09:06:10Z</time>
      </trkpt>
      <trkpt lat="47.2617110" lon="6.9501250">
        <ele>505.2</ele>
        <time>2022-07-21T09:06:11Z</time>
      </trkpt>
      <trkpt lat="47.2617090" lon="6.9501240">
        <ele>505.2</ele>
        <time>2022-07-21T09:06:12Z</time>
      </trkpt>
      <trkpt lat="47.2617080" lon="6.9501230">
        <ele>505.2</ele>
        <time>2022-07-21T09:06:13Z</time>
      </trkpt>
      <trkpt lat="47.2617060" lon="6.9501210">
        <ele>505.2</ele>
        <time>2022-07-21T09:06:14Z</time>
      </trkpt>
      <trkpt lat="47.2617080" lon="6.9501220">
        <ele>505.2</ele>
        <time>2022-07-21T09:06:15Z</time>
      </trkpt>
      <trkpt lat="47.2617080" lon="6.9501220">
        <ele>505.2</ele>
        <time>2022-07-21T09:06:16Z</time>
      </trkpt>
      <trkpt lat="47.2617070" lon="6.9501220">
        <ele>505.2</ele>
        <time>2022-07-21T09:06:17Z</time>
      </trkpt>
      <trkpt lat="47.2617080" lon="6.9501240">
        <ele>505.2</ele>
        <time>2022-07-21T09:06:18Z</time>
      </trkpt>
      <trkpt lat="47.2617080" lon="6.9501260">
        <ele>505.2</ele>
        <time>2022-07-21T09:06:19Z</time>
      </trkpt>
      <trkpt lat="47.2616700" lon="6.9500550">
        <ele>505.1</ele>
        <time>2022-07-21T09:11:39Z</time>
      </trkpt>
      <trkpt lat="47.2616580" lon="6.9500470">
        <ele>505.1</ele>
        <time>2022-07-21T09:11:40Z</time>
      </trkpt>
      <trkpt lat="47.2616480" lon="6.9500380">
        <ele>505.0</ele>
        <time>2022-07-21T09:11:41Z</time>
      </trkpt>
      <trkpt lat="47.2616450" lon="6.9500330">
        <ele>505.0</ele>
        <time>2022-07-21T09:11:42Z</time>
      </trkpt>
      <trkpt lat="47.2616450" lon="6.9500290">
        <ele>505.0</ele>
        <time>2022-07-21T09:11:43Z</time>
      </trkpt>
      <trkpt lat="47.2616440" lon="6.9500240">
        <ele>505.0</ele>
        <time>2022-07-21T09:11:44Z</time>
      </trkpt>
      <trkpt lat="47.2616420" lon="6.9500190">
        <ele>505.0</ele>
        <time>2022-07-21T09:11:45Z</time>
      </trkpt>
      <trkpt lat="47.2616430" lon="6.9500160">
        <ele>505.0</ele>
        <time>2022-07-21T09:11:46Z</time>
      </trkpt>
      <trkpt lat="47.2616440" lon="6.9500150">
        <ele>505.0</ele>
        <time>2022-07-21T09:11:47Z</time>
      </trkpt>
      <trkpt lat="47.2616460" lon="6.9500140">
        <ele>505.0</ele>
        <time>2022-07-21T09:11:48Z</time>
      </trkpt>
      <trkpt lat="47.2616470" lon="6.9500140">
        <ele>505.0</ele>
        <time>2022-07-21T09:11:49Z</time>
      </trkpt>
      <trkpt lat="47.2616470" lon="6.9500130">
        <ele>505.0</ele>
        <time>2022-07-21T09:11:50Z</time>
      </trkpt>
      <trkpt lat="47.2616480" lon="6.9500130">
        <ele>505.0</ele>
        <time>2022-07-21T09:11:51Z</time>
      </trkpt>
      <trkpt lat="47.2616470" lon="6.9500130">
        <ele>505.0</ele>
        <time>2022-07-21T09:11:52Z</time>
      </trkpt>
      <trkpt lat="47.2616470" lon="6.9500130">
        <ele>505.0</ele>
        <time>2022-07-21T09:11:53Z</time>
      </trkpt>
      <trkpt lat="47.2616470" lon="6.9500130">
        <ele>505.0</ele>
        <time>2022-07-21T09:11:54Z</time>
      </trkpt>
      <trkpt lat="47.2616470" lon="6.9500130">
        <ele>505.0</ele>
        <time>2022-07-21T09:11:55Z</time>
      </trkpt>
      <trkpt lat="47.2616470" lon="6.9500130">
        <ele>505.0</ele>
        <time>2022-07-21T09:11:56Z</time>
      </trkpt>
      <trkpt lat="47.2616430" lon="6.9499880">
        <ele>505.0</ele>
        <time>2022-07-21T09:12:03Z</time>
      </trkpt>
      <trkpt lat="47.2616370" lon="6.9499810">
        <ele>505.0</ele>
        <time>2022-07-21T09:12:04Z</time>
      </trkpt>
      <trkpt lat="47.2616340" lon="6.9499770">
        <ele>505.0</ele>
        <time>2022-07-21T09:12:05Z</time>
      </trkpt>
      <trkpt lat="47.2616310" lon="6.9499740">
        <ele>505.0</ele>
        <time>2022-07-21T09:12:06Z</time>
      </trkpt>
      <trkpt lat="47.2616280" lon="6.9499720">
        <ele>504.9</ele>
        <time>2022-07-21T09:12:07Z</time>
      </trkpt>
      <trkpt lat="47.2616260" lon="6.9499710">
        <ele>504.9</ele>
        <time>2022-07-21T09:12:08Z</time>
      </trkpt>
      <trkpt lat="47.2616270" lon="6.9499710">
        <ele>504.9</ele>
        <time>2022-07-21T09:12:09Z</time>
      </trkpt>
      <trkpt lat="47.2616270" lon="6.9499710">
        <ele>504.9</ele>
        <time>2022-07-21T09:12:10Z</time>
      </trkpt>
      <trkpt lat="47.2616270" lon="6.9499700">
        <ele>504.9</ele>
        <time>2022-07-21T09:12:11Z</time>
      </trkpt>
      <trkpt lat="47.2616250" lon="6.9499690">
        <ele>504.9</ele>
        <time>2022-07-21T09:12:12Z</time>
      </trkpt>
      <trkpt lat="47.2616240" lon="6.9499680">
        <ele>504.9</ele>
        <time>2022-07-21T09:12:13Z</time>
      </trkpt>
      <trkpt lat="47.2616240" lon="6.9499680">
        <ele>504.9</ele>
        <time>2022-07-21T09:12:14Z</time>
      </trkpt>
      <trkpt lat="47.2616300" lon="6.9499660">
        <ele>504.9</ele>
        <time>2022-07-21T09:12:15Z</time>
      </trkpt>
      <trkpt lat="47.2616350" lon="6.9499650">
        <ele>504.9</ele>
        <time>2022-07-21T09:12:16Z</time>
      </trkpt>
      <trkpt lat="47.2616390" lon="6.9499660">
        <ele>504.9</ele>
        <time>2022-07-21T09:12:17Z</time>
      </trkpt>
      <trkpt lat="47.2616410" lon="6.9499680">
        <ele>504.9</ele>
        <time>2022-07-21T09:12:18Z</time>
      </trkpt>
      <trkpt lat="47.2616390" lon="6.9499730">
        <ele>504.9</ele>
        <time>2022-07-21T09:12:19Z</time>
      </trkpt>
      <trkpt lat="47.2616380" lon="6.9499730">
        <ele>504.9</ele>
        <time>2022-07-21T09:12:20Z</time>
      </trkpt>
      <trkpt lat="47.2616450" lon="6.9499770">
        <ele>504.9</ele>
        <time>2022-07-21T09:12:21Z</time>
      </trkpt>
      <trkpt lat="47.2616500" lon="6.9499810">
        <ele>504.9</ele>
        <time>2022-07-21T09:12:22Z</time>
      </trkpt>
      <trkpt lat="47.2616530" lon="6.9499810">
        <ele>504.9</ele>
        <time>2022-07-21T09:12:23Z</time>
      </trkpt>
      <trkpt lat="47.2616500" lon="6.9499760">
        <ele>504.9</ele>
        <time>2022-07-21T09:12:24Z</time>
      </trkpt>
      <trkpt lat="47.2616450" lon="6.9499690">
        <ele>504.9</ele>
        <time>2022-07-21T09:12:25Z</time>
      </trkpt>
      <trkpt lat="47.2616400" lon="6.9499630">
        <ele>504.8</ele>
        <time>2022-07-21T09:12:26Z</time>
      </trkpt>
      <trkpt lat="47.2616360" lon="6.9499600">
        <ele>504.8</ele>
        <time>2022-07-21T09:12:27Z</time>
      </trkpt>
      <trkpt lat="47.2616320" lon="6.9499580">
        <ele>504.8</ele>
        <time>2022-07-21T09:12:28Z</time>
      </trkpt>
      <trkpt lat="47.2616300" lon="6.9499550">
        <ele>504.8</ele>
        <time>2022-07-21T09:12:29Z</time>
      </trkpt>
      <trkpt lat="47.2616300" lon="6.9499550">
        <ele>504.8</ele>
        <time>2022-07-21T09:12:30Z</time>
      </trkpt>
      <trkpt lat="47.2616310" lon="6.9499550">
        <ele>504.8</ele>
        <time>2022-07-21T09:12:31Z</time>
      </trkpt>
      <trkpt lat="47.2616330" lon="6.9499560">
        <ele>504.8</ele>
        <time>2022-07-21T09:12:32Z</time>
      </trkpt>
      <trkpt lat="47.2616350" lon="6.9499570">
        <ele>504.8</ele>
        <time>2022-07-21T09:12:33Z</time>
      </trkpt>
      <trkpt lat="47.2616360" lon="6.9499570">
        <ele>504.8</ele>
        <time>2022-07-21T09:12:34Z</time>
      </trkpt>
      <trkpt lat="47.2616370" lon="6.9499580">
        <ele>504.8</ele>
        <time>2022-07-21T09:12:35Z</time>
      </trkpt>
      <trkpt lat="47.2616370" lon="6.9499580">
        <ele>504.8</ele>
        <time>2022-07-21T09:12:36Z</time>
      </trkpt>
      <trkpt lat="47.2616370" lon="6.9499580">
        <ele>504.8</ele>
        <time>2022-07-21T09:12:37Z</time>
      </trkpt>
      <trkpt lat="47.2616370" lon="6.9499580">
        <ele>504.8</ele>
        <time>2022-07-21T09:12:38Z</time>
      </trkpt>
      <trkpt lat="47.2616370" lon="6.9499580">
        <ele>504.8</ele>
        <time>2022-07-21T09:12:39Z</time>
      </trkpt>
      <trkpt lat="47.2616710" lon="6.9499910">
        <ele>504.8</ele>
        <time>2022-07-21T09:12:56Z</time>
      </trkpt>
      <trkpt lat="47.2616750" lon="6.9499950">
        <ele>504.8</ele>
        <time>2022-07-21T09:12:57Z</time>
      </trkpt>
      <trkpt lat="47.2616760" lon="6.9499970">
        <ele>504.7</ele>
        <time>2022-07-21T09:12:58Z</time>
      </trkpt>
      <trkpt lat="47.2616760" lon="6.9499990">
        <ele>504.7</ele>
        <time>2022-07-21T09:12:59Z</time>
      </trkpt>
      <trkpt lat="47.2616760" lon="6.9500010">
        <ele>504.7</ele>
        <time>2022-07-21T09:13:00Z</time>
      </trkpt>
      <trkpt lat="47.2616740" lon="6.9500010">
        <ele>504.7</ele>
        <time>2022-07-21T09:13:01Z</time>
      </trkpt>
      <trkpt lat="47.2616720" lon="6.9500010">
        <ele>504.7</ele>
        <time>2022-07-21T09:13:02Z</time>
      </trkpt>
      <trkpt lat="47.2616710" lon="6.9500000">
        <ele>504.7</ele>
        <time>2022-07-21T09:13:03Z</time>
      </trkpt>
      <trkpt lat="47.2616700" lon="6.9500000">
        <ele>504.7</ele>
        <time>2022-07-21T09:13:04Z</time>
      </trkpt>
      <trkpt lat="47.2616700" lon="6.9499990">
        <ele>504.7</ele>
        <time>2022-07-21T09:13:05Z</time>
      </trkpt>
      <trkpt lat="47.2616690" lon="6.9499990">
        <ele>504.7</ele>
        <time>2022-07-21T09:13:06Z</time>
      </trkpt>
      <trkpt lat="47.2616690" lon="6.9499990">
        <ele>504.7</ele>
        <time>2022-07-21T09:13:07Z</time>
      </trkpt>
      <trkpt lat="47.2616690" lon="6.9499990">
        <ele>504.7</ele>
        <time>2022-07-21T09:13:08Z</time>
      </trkpt>
      <trkpt lat="47.2616500" lon="6.9499660">
        <ele>504.7</ele>
        <time>2022-07-21T09:14:50Z</time>
      </trkpt>
      <trkpt lat="47.2616470" lon="6.9499620">
        <ele>504.7</ele>
        <time>2022-07-21T09:14:51Z</time>
      </trkpt>
      <trkpt lat="47.2616510" lon="6.9499660">
        <ele>504.7</ele>
        <time>2022-07-21T09:14:52Z</time>
      </trkpt>
      <trkpt lat="47.2616560" lon="6.9499720">
        <ele>504.7</ele>
        <time>2022-07-21T09:14:53Z</time>
      </trkpt>
      <trkpt lat="47.2616640" lon="6.9499800">
        <ele>504.7</ele>
        <time>2022-07-21T09:14:54Z</time>
      </trkpt>
      <trkpt lat="47.2616700" lon="6.9499860">
        <ele>504.6</ele>
        <time>2022-07-21T09:14:55Z</time>
      </trkpt>
      <trkpt lat="47.2616750" lon="6.9499910">
        <ele>504.6</ele>
        <time>2022-07-21T09:14:56Z</time>
      </trkpt>
      <trkpt lat="47.2616780" lon="6.9499940">
        <ele>504.6</ele>
        <time>2022-07-21T09:14:57Z</time>
      </trkpt>
      <trkpt lat="47.2616800" lon="6.9499970">
        <ele>504.6</ele>
        <time>2022-07-21T09:14:58Z</time>
      </trkpt>
      <trkpt lat="47.2616810" lon="6.9499980">
        <ele>504.6</ele>
        <time>2022-07-21T09:14:59Z</time>
      </trkpt>
      <trkpt lat="47.2616820" lon="6.9499980">
        <ele>504.6</ele>
        <time>2022-07-21T09:15:00Z</time>
      </trkpt>
      <trkpt lat="47.2616830" lon="6.9499990">
        <ele>504.6</ele>
        <time>2022-07-21T09:15:01Z</time>
      </trkpt>
      <trkpt lat="47.2616830" lon="6.9499980">
        <ele>504.6</ele>
        <time>2022-07-21T09:15:02Z</time>
      </trkpt>
      <trkpt lat="47.2616820" lon="6.9499980">
        <ele>504.6</ele>
        <time>2022-07-21T09:15:03Z</time>
      </trkpt>
      <trkpt lat="47.2616800" lon="6.9499990">
        <ele>504.6</ele>
        <time>2022-07-21T09:15:04Z</time>
      </trkpt>
      <trkpt lat="47.2616800" lon="6.9500020">
        <ele>504.6</ele>
        <time>2022-07-21T09:15:05Z</time>
      </trkpt>
      <trkpt lat="47.2616800" lon="6.9500050">
        <ele>504.6</ele>
        <time>2022-07-21T09:15:06Z</time>
      </trkpt>
      <trkpt lat="47.2616800" lon="6.9500070">
        <ele>504.6</ele>
        <time>2022-07-21T09:15:07Z</time>
      </trkpt>
      <trkpt lat="47.2616760" lon="6.9500040">
        <ele>504.6</ele>
        <time>2022-07-21T09:15:08Z</time>
      </trkpt>
      <trkpt lat="47.2616510" lon="6.9499630">
        <ele>504.5</ele>
        <time>2022-07-21T09:17:03Z</time>
      </trkpt>
      <trkpt lat="47.2616350" lon="6.9499490">
        <ele>504.5</ele>
        <time>2022-07-21T09:17:04Z</time>
      </trkpt>
      <trkpt lat="47.2616270" lon="6.9499420">
        <ele>504.5</ele>
        <time>2022-07-21T09:17:05Z</time>
      </trkpt>
      <trkpt lat="47.2616190" lon="6.9499340">
        <ele>504.5</ele>
        <time>2022-07-21T09:17:06Z</time>
      </trkpt>
      <trkpt lat="47.2616140" lon="6.9499250">
        <ele>504.5</ele>
        <time>2022-07-21T09:17:07Z</time>
      </trkpt>
      <trkpt lat="47.2616220" lon="6.9499310">
        <ele>504.5</ele>
        <time>2022-07-21T09:17:08Z</time>
      </trkpt>
      <trkpt lat="47.2616380" lon="6.9499510">
        <ele>504.4</ele>
        <time>2022-07-21T09:17:09Z</time>
      </trkpt>
      <trkpt lat="47.2616510" lon="6.9499710">
        <ele>504.4</ele>
        <time>2022-07-21T09:17:10Z</time>
      </trkpt>
      <trkpt lat="47.2616630" lon="6.9499900">
        <ele>504.4</ele>
        <time>2022-07-21T09:17:11Z</time>
      </trkpt>
      <trkpt lat="47.2616720" lon="6.9500040">
        <ele>504.4</ele>
        <time>2022-07-21T09:17:12Z</time>
      </trkpt>
      <trkpt lat="47.2616770" lon="6.9500120">
        <ele>504.3</ele>
        <time>2022-07-21T09:17:13Z</time>
      </trkpt>
      <trkpt lat="47.2616780" lon="6.9500150">
        <ele>504.3</ele>
        <time>2022-07-21T09:17:14Z</time>
      </trkpt>
      <trkpt lat="47.2616780" lon="6.9500150">
        <ele>504.3</ele>
        <time>2022-07-21T09:17:15Z</time>
      </trkpt>
      <trkpt lat="47.2616780" lon="6.9500150">
        <ele>504.3</ele>
        <time>2022-07-21T09:17:16Z</time>
      </trkpt>
      <trkpt lat="47.2616780" lon="6.9500140">
        <ele>504.3</ele>
        <time>2022-07-21T09:17:17Z</time>
      </trkpt>
      <trkpt lat="47.2616770" lon="6.9500140">
        <ele>504.3</ele>
        <time>2022-07-21T09:17:18Z</time>
      </trkpt>
      <trkpt lat="47.2616770" lon="6.9500140">
        <ele>504.3</ele>
        <time>2022-07-21T09:17:19Z</time>
      </trkpt>
      <trkpt lat="47.2616770" lon="6.9500140">
        <ele>504.3</ele>
        <time>2022-07-21T09:17:20Z</time>
      </trkpt>
      <trkpt lat="47.2616770" lon="6.9500140">
        <ele>504.3</ele>
        <time>2022-07-21T09:17:21Z</time>
      </trkpt>
      <trkpt lat="47.2616770" lon="6.9500140">
        <ele>504.3</ele>
        <time>2022-07-21T09:17:22Z</time>
      </trkpt>
      <trkpt lat="47.2616770" lon="6.9500140">
        <ele>504.3</ele>
        <time>2022-07-21T09:17:23Z</time>
      </trkpt>
      <trkpt lat="47.2616770" lon="6.9500140">
        <ele>504.3</ele>
        <time>2022-07-21T09:17:24Z</time>
      </trkpt>
      <trkpt lat="47.2616490" lon="6.9499790">
        <ele>504.3</ele>
        <time>2022-07-21T09:17:42Z</time>
      </trkpt>
      <trkpt lat="47.2616430" lon="6.9499740">
        <ele>504.3</ele>
        <time>2022-07-21T09:17:43Z</time>
      </trkpt>
      <trkpt lat="47.2616390" lon="6.9499700">
        <ele>504.3</ele>
        <time>2022-07-21T09:17:44Z</time>
      </trkpt>
      <trkpt lat="47.2616370" lon="6.9499690">
        <ele>504.3</ele>
        <time>2022-07-21T09:17:45Z</time>
      </trkpt>
      <trkpt lat="47.2616350" lon="6.9499680">
        <ele>504.3</ele>
        <time>2022-07-21T09:17:46Z</time>
      </trkpt>
      <trkpt lat="47.2616410" lon="6.9499730">
        <ele>504.2</ele>
        <time>2022-07-21T09:17:47Z</time>
      </trkpt>
      <trkpt lat="47.2616470" lon="6.9499780">
        <ele>504.2</ele>
        <time>2022-07-21T09:17:48Z</time>
      </trkpt>
      <trkpt lat="47.2616510" lon="6.9499810">
        <ele>504.2</ele>
        <time>2022-07-21T09:17:49Z</time>
      </trkpt>
      <trkpt lat="47.2616560" lon="6.9499850">
        <ele>504.2</ele>
        <time>2022-07-21T09:17:50Z</time>
      </trkpt>
      <trkpt lat="47.2616590" lon="6.9499880">
        <ele>504.2</ele>
        <time>2022-07-21T09:17:51Z</time>
      </trkpt>
      <trkpt lat="47.2616670" lon="6.9499940">
        <ele>504.2</ele>
        <time>2022-07-21T09:17:52Z</time>
      </trkpt>
      <trkpt lat="47.2616780" lon="6.9500020">
        <ele>504.2</ele>
        <time>2022-07-21T09:17:53Z</time>
      </trkpt>
      <trkpt lat="47.2616890" lon="6.9500120">
        <ele>504.2</ele>
        <time>2022-07-21T09:17:54Z</time>
      </trkpt>
      <trkpt lat="47.2616970" lon="6.9500210">
        <ele>504.2</ele>
        <time>2022-07-21T09:17:55Z</time>
      </trkpt>
      <trkpt lat="47.2617020" lon="6.9500270">
        <ele>504.1</ele>
        <time>2022-07-21T09:17:56Z</time>
      </trkpt>
      <trkpt lat="47.2617020" lon="6.9500300">
        <ele>504.1</ele>
        <time>2022-07-21T09:17:57Z</time>
      </trkpt>
      <trkpt lat="47.2616970" lon="6.9500260">
        <ele>504.1</ele>
        <time>2022-07-21T09:17:58Z</time>
      </trkpt>
      <trkpt lat="47.2616920" lon="6.9500220">
        <ele>504.1</ele>
        <time>2022-07-21T09:17:59Z</time>
      </trkpt>
      <trkpt lat="47.2616870" lon="6.9500170">
        <ele>504.1</ele>
        <time>2022-07-21T09:18:00Z</time>
      </trkpt>
      <trkpt lat="47.2616820" lon="6.9500130">
        <ele>504.1</ele>
        <time>2022-07-21T09:18:01Z</time>
      </trkpt>
      <trkpt lat="47.2616770" lon="6.9500090">
        <ele>504.1</ele>
        <time>2022-07-21T09:18:02Z</time>
      </trkpt>
      <trkpt lat="47.2616720" lon="6.9500050">
        <ele>504.1</ele>
        <time>2022-07-21T09:18:03Z</time>
      </trkpt>
      <trkpt lat="47.2616670" lon="6.9500010">
        <ele>504.1</ele>
        <time>2022-07-21T09:18:04Z</time>
      </trkpt>
      <trkpt lat="47.2616620" lon="6.9499970">
        <ele>504.1</ele>
        <time>2022-07-21T09:18:05Z</time>
      </trkpt>
      <trkpt lat="47.2616570" lon="6.9499930">
        <ele>504.1</ele>
        <time>2022-07-21T09:18:06Z</time>
      </trkpt>
      <trkpt lat="47.2616520" lon="6.9499890">
        <ele>504.1</ele>
        <time>2022-07-21T09:18:07Z</time>
      </trkpt>
      <trkpt lat="47.2616470" lon="6.9499850">
        <ele>504.0</ele>
        <time>2022-07-21T09:18:08Z</time>
      </trkpt>
      <trkpt lat="47.2616430" lon="6.9499810">
        <ele>504.0</ele>
        <time>2022-07-21T09:18:09Z</time>
      </trkpt>
      <trkpt lat="47.2616380" lon="6.9499770">
        <ele>504.0</ele>
        <time>2022-07-21T09:20:03Z</time>
      </trkpt>
      <trkpt lat="47.2616330" lon="6.9499730">
        <ele>504.0</ele>
        <time>2022-07-21T09:20:04Z</time>
      </trkpt>
      <trkpt lat="47.2616280" lon="6.9499690">
        <ele>504.0</ele>
        <time>2022-07-21T09:20:05Z</time>
      </trkpt>
      <trkpt lat="47.2616250" lon="6.9499550">
        <ele>504.0</ele>
        <time>2022-07-21T09:20:06Z</time>
      </trkpt>
      <trkpt lat="47.2616210" lon="6.9499430">
        <ele>504.0</ele>
        <time>2022-07-21T09:20:07Z</time>
      </trkpt>
      <trkpt lat="47.2616240" lon="6.9499430">
        <ele>504.0</ele>
        <time>2022-07-21T09:20:08Z</time>
      </trkpt>
      <trkpt lat="47.2616290" lon="6.9499520">
        <ele>504.0</ele>
        <time>2022-07-21T09:20:09Z</time>
      </trkpt>
      <trkpt lat="47.2616370" lon="6.9499650">
        <ele>504.0</ele>
        <time>2022-07-21T09:20:10Z</time>
      </trkpt>
      <trkpt lat="47.2616380" lon="6.9499700">
        <ele>504.0</ele>
        <time>2022-07-21T09:20:11Z</time>
      </trkpt>
      <trkpt lat="47.2616340" lon="6.9499640">
        <ele>503.9</ele>
        <time>2022-07-21T09:20:12Z</time>
      </trkpt>
      <trkpt lat="47.2616290" lon="6.9499560">
        <ele>503.9</ele>
        <time>2022-07-21T09:20:13Z</time>
      </trkpt>
      <trkpt lat="47.2616230" lon="6.9499490">
        <ele>503.9</ele>
        <time>2022-07-21T09:20:14Z</time>
      </trkpt>
      <trkpt lat="47.2616160" lon="6.9499420">
        <ele>503.9</ele>
        <time>2022-07-21T09:20:15Z</time>
      </trkpt>
      <trkpt lat="47.2616070" lon="6.9499350">
        <ele>503.9</ele>
        <time>2022-07-21T09:20:16Z</time>
      </trkpt>
      <trkpt lat="47.2615990" lon="6.9499280">
        <ele>503.9</ele>
        <time>2022-07-21T09:20:17Z</time>
      </trkpt>
      <trkpt lat="47.2615930" lon="6.9499200">
        <ele>503.9</ele>
        <time>2022-07-21T09:20:18Z</time>
      </trkpt>
      <trkpt lat="47.2615890" lon="6.9499150">
        <ele>503.9</ele>
        <time>2022-07-21T09:20:19Z</time>
      </trkpt>
      <trkpt lat="47.2615870" lon="6.9499140">
        <ele>503.9</ele>
        <time>2022-07-21T09:20:20Z</time>
      </trkpt>
      <trkpt lat="47.2615880" lon="6.9499140">
        <ele>503.9</ele>
        <time>2022-07-21T09:20:21Z</time>
      </trkpt>
      <trkpt lat="47.2615890" lon="6.9499150">
        <ele>503.9</ele>
        <time>2022-07-21T09:20:22Z</time>
      </trkpt>
      <trkpt lat="47.2615900" lon="6.9499150">
        <ele>503.9</ele>
        <time>2022-07-21T09:20:23Z</time>
      </trkpt>
      <trkpt lat="47.2615910" lon="6.9499160">
        <ele>503.8</ele>
        <time>2022-07-21T09:20:24Z</time>
      </trkpt>
      <trkpt lat="47.2615910" lon="6.9499160">
        <ele>503.8</ele>
        <time>2022-07-21T09:20:25Z</time>
      </trkpt>
      <trkpt lat="47.2615910" lon="6.9499170">
        <ele>503.8</ele>
        <time>2022-07-21T09:20:26Z</time>
      </trkpt>
      <trkpt lat="47.2615910" lon="6.9499170">
        <ele>503.8</ele>
        <time>2022-07-21T09:20:27Z</time>
      </trkpt>
      <trkpt lat="47.2615920" lon="6.9499170">
        <ele>503.8</ele>
        <time>2022-07-21T09:20:28Z</time>
      </trkpt>
      <trkpt lat="47.2615930" lon="6.9499180">
        <ele>503.8</ele>
        <time>2022-07-21T09:20:29Z</time>
      </trkpt>
      <trkpt lat="47.2615930" lon="6.9499190">
        <ele>503.8</ele>
        <time>2022-07-21T09:20:30Z</time>
      </trkpt>
      <trkpt lat="47.2616440" lon="6.9499890">
        <ele>503.7</ele>
        <time>2022-07-21T09:23:31Z</time>
      </trkpt>
      <trkpt lat="47.2616440" lon="6.9499910">
        <ele>503.7</ele>
        <time>2022-07-21T09:23:32Z</time>
      </trkpt>
      <trkpt lat="47.2616440" lon="6.9499950">
        <ele>503.7</ele>
        <time>2022-07-21T09:23:33Z</time>
      </trkpt>
      <trkpt lat="47.2616450" lon="6.9499990">
        <ele>503.7</ele>
        <time>2022-07-21T09:23:34Z</time>
      </trkpt>
      <trkpt lat="47.2616470" lon="6.9500040">
        <ele>503.7</ele>
        <time>2022-07-21T09:23:35Z</time>
      </trkpt>
      <trkpt lat="47.2616490" lon="6.9500070">
        <ele>503.7</ele>
        <time>2022-07-21T09:23:36Z</time>
      </trkpt>
      <trkpt lat="47.2616520" lon="6.9500080">
        <ele>503.7</ele>
        <time>2022-07-21T09:23:37Z</time>
      </trkpt>
      <trkpt lat="47.2616540" lon="6.9500080">
        <ele>503.7</ele>
        <time>2022-07-21T09:23:38Z</time>
      </trkpt>
      <trkpt lat="47.2616560" lon="6.9500090">
        <ele>503.7</ele>
        <time>2022-07-21T09:23:39Z</time>
      </trkpt>
      <trkpt lat="47.2616590" lon="6.9500110">
        <ele>503.7</ele>
        <time>2022-07-21T09:23:40Z</time>
      </trkpt>
      <trkpt lat="47.2616620" lon="6.9500120">
        <ele>503.7</ele>
        <time>2022-07-21T09:23:41Z</time>
      </trkpt>
      <trkpt lat="47.2616670" lon="6.9500170">
        <ele>503.7</ele>
        <time>2022-07-21T09:23:42Z</time>
      </trkpt>
      <trkpt lat="47.2616720" lon="6.9500220">
        <ele>503.7</ele>
        <time>2022-07-21T09:23:43Z</time>
      </trkpt>
      <trkpt lat="47.2616760" lon="6.9500240">
        <ele>503.7</ele>
        <time>2022-07-21T09:23:44Z</time>
      </trkpt>
      <trkpt lat="47.2616780" lon="6.9500260">
        <ele>503.7</ele>
        <time>2022-07-21T09:23:45Z</time>
      </trkpt>
      <trkpt lat="47.2616790" lon="6.9500260">
        <ele>503.7</ele>
        <time>2022-07-21T09:23:46Z</time>
      </trkpt>
      <trkpt lat="47.2616800" lon="6.9500260">
        <ele>503.7</ele>
        <time>2022-07-21T09:23:47Z</time>
      </trkpt>
      <trkpt lat="47.2616800" lon="6.9500260">
        <ele>503.7</ele>
        <time>2022-07-21T09:23:48Z</time>
      </trkpt>
      <trkpt lat="47.2616800" lon="6.9500260">
        <ele>503.7</ele>
        <time>2022-07-21T09:23:49Z</time>
      </trkpt>
      <trkpt lat="47.2616800" lon="6.9500260">
        <ele>503.7</ele>
        <time>2022-07-21T09:23:50Z</time>
      </trkpt>
      <trkpt lat="47.2616800" lon="6.9500260">
        <ele>503.7</ele>
        <time>2022-07-21T09:23:51Z</time>
      </trkpt>
      <trkpt lat="47.2616800" lon="6.9500260">
        <ele>503.7</ele>
        <time>2022-07-21T09:23:52Z</time>
      </trkpt>
      <trkpt lat="47.2616800" lon="6.9500260">
        <ele>503.7</ele>
        <time>2022-07-21T09:23:53Z</time>
      </trkpt>
      <trkpt lat="47.2616800" lon="6.9500260">
        <ele>503.7</ele>
        <time>2022-07-21T09:23:54Z</time>
      </trkpt>
      <trkpt lat="47.2616800" lon="6.9500260">
        <ele>503.7</ele>
        <time>2022-07-21T09:23:55Z</time>
      </trkpt>
      <trkpt lat="47.2616940" lon="6.9499960">
        <ele>503.6</ele>
        <time>2022-07-21T09:27:14Z</time>
      </trkpt>
      <trkpt lat="47.2616960" lon="6.9500020">
        <ele>503.6</ele>
        <time>2022-07-21T09:27:15Z</time>
      </trkpt>
      <trkpt lat="47.2616980" lon="6.9500070">
        <ele>503.6</ele>
        <time>2022-07-21T09:27:16Z</time>
      </trkpt>
      <trkpt lat="47.2617020" lon="6.9500130">
        <ele>503.6</ele>
        <time>2022-07-21T09:27:17Z</time>
      </trkpt>
      <trkpt lat="47.2617060" lon="6.9500170">
        <ele>503.6</ele>
        <time>2022-07-21T09:27:18Z</time>
      </trkpt>
      <trkpt lat="47.2617070" lon="6.9500180">
        <ele>503.6</ele>
        <time>2022-07-21T09:27:19Z</time>
      </trkpt>
      <trkpt lat="47.2617040" lon="6.9500200">
        <ele>503.6</ele>
        <time>2022-07-21T09:27:20Z</time>
      </trkpt>
      <trkpt lat="47.2617000" lon="6.9500190">
        <ele>503.6</ele>
        <time>2022-07-21T09:27:21Z</time>
      </trkpt>
      <trkpt lat="47.2616960" lon="6.9500150">
        <ele>503.6</ele>
        <time>2022-07-21T09:27:22Z</time>
      </trkpt>
      <trkpt lat="47.2616910" lon="6.9500070">
        <ele>503.6</ele>
        <time>2022-07-21T09:27:23Z</time>
      </trkpt>
      <trkpt lat="47.2616880" lon="6.9499990">
        <ele>503.6</ele>
        <time>2022-07-21T09:27:24Z</time>
      </trkpt>
      <trkpt lat="47.2616840" lon="6.9499930">
        <ele>503.6</ele>
        <time>2022-07-21T09:27:25Z</time>
      </trkpt>
      <trkpt lat="47.2616820" lon="6.9499890">
        <ele>503.6</ele>
        <time>2022-07-21T09:27:26Z</time>
      </trkpt>
      <trkpt lat="47.2616790" lon="6.9499870">
        <ele>503.6</ele>
        <time>2022-07-21T09:27:27Z</time>
      </trkpt>
      <trkpt lat="47.2616760" lon="6.9499880">
        <ele>503.6</ele>
        <time>2022-07-21T09:27:28Z</time>
      </trkpt>
      <trkpt lat="47.2616720" lon="6.9499880">
        <ele>503.5</ele>
        <time>2022-07-21T09:27:29Z</time>
      </trkpt>
      <trkpt lat="47.2616680" lon="6.9499860">
        <ele>503.5</ele>
        <time>2022-07-21T09:27:30Z</time>
      </trkpt>
      <trkpt lat="47.2616650" lon="6.9499840">
        <ele>503.5</ele>
        <time>2022-07-21T09:27:31Z</time>
      </trkpt>
      <trkpt lat="47.2616630" lon="6.9499820">
        <ele>503.5</ele>
        <time>2022-07-21T09:27:32Z</time>
      </trkpt>
      <trkpt lat="47.2616630" lon="6.9499820">
        <ele>503.5</ele>
        <time>2022-07-21T09:27:33Z</time>
      </trkpt>
      <trkpt lat="47.2616630" lon="6.9499820">
        <ele>503.5</ele>
        <time>2022-07-21T09:27:34Z</time>
      </trkpt>
      <trkpt lat="47.2616630" lon="6.9499840">
        <ele>503.5</ele>
        <time>2022-07-21T09:27:35Z</time>
      </trkpt>
      <trkpt lat="47.2616620" lon="6.9499840">
        <ele>503.5</ele>
        <time>2022-07-21T09:27:36Z</time>
      </trkpt>
      <trkpt lat="47.2616630" lon="6.9499830">
        <ele>503.5</ele>
        <time>2022-07-21T09:27:37Z</time>
      </trkpt>
      <trkpt lat="47.2616930" lon="6.9500090">
        <ele>503.5</ele>
        <time>2022-07-21T09:29:11Z</time>
      </trkpt>
      <trkpt lat="47.2616980" lon="6.9500150">
        <ele>503.5</ele>
        <time>2022-07-21T09:29:12Z</time>
      </trkpt>
      <trkpt lat="47.2617020" lon="6.9500220">
        <ele>503.5</ele>
        <time>2022-07-21T09:29:13Z</time>
      </trkpt>
      <trkpt lat="47.2617060" lon="6.9500270">
        <ele>503.5</ele>
        <time>2022-07-21T09:29:14Z</time>
      </trkpt>
      <trkpt lat="47.2617130" lon="6.9500360">
        <ele>503.4</ele>
        <time>2022-07-21T09:29:15Z</time>
      </trkpt>
      <trkpt lat="47.2617220" lon="6.9500470">
        <ele>503.4</ele>
        <time>2022-07-21T09:29:16Z</time>
      </trkpt>
      <trkpt lat="47.2617290" lon="6.9500550">
        <ele>503.4</ele>
        <time>2022-07-21T09:29:17Z</time>
      </trkpt>
      <trkpt lat="47.2617310" lon="6.9500570">
        <ele>503.4</ele>
        <time>2022-07-21T09:29:18Z</time>
      </trkpt>
      <trkpt lat="47.2617310" lon="6.9500580">
        <ele>503.4</ele>
        <time>2022-07-21T09:29:19Z</time>
      </trkpt>
      <trkpt lat="47.2617300" lon="6.9500560">
        <ele>503.4</ele>
        <time>2022-07-21T09:29:20Z</time>
      </trkpt>
      <trkpt lat="47.2617280" lon="6.9500520">
        <ele>503.4</ele>
        <time>2022-07-21T09:29:21Z</time>
      </trkpt>
      <trkpt lat="47.2617270" lon="6.9500490">
        <ele>503.4</ele>
        <time>2022-07-21T09:29:22Z</time>
      </trkpt>
      <trkpt lat="47.2617270" lon="6.9500480">
        <ele>503.4</ele>
        <time>2022-07-21T09:29:23Z</time>
      </trkpt>
      <trkpt lat="47.2617270" lon="6.9500480">
        <ele>503.4</ele>
        <time>2022-07-21T09:29:24Z</time>
      </trkpt>
      <trkpt lat="47.2617280" lon="6.9500480">
        <ele>503.4</ele>
        <time>2022-07-21T09:29:25Z</time>
      </trkpt>
      <trkpt lat="47.2617280" lon="6.9500480">
        <ele>503.4</ele>
        <time>2022-07-21T09:29:26Z</time>
      </trkpt>
      <trkpt lat="47.2617280" lon="6.9500480">
        <ele>503.4</ele>
        <time>2022-07-21T09:29:27Z</time>
      </trkpt>
      <trkpt lat="47.2617280" lon="6.9500480">
        <ele>503.4</ele>
        <time>2022-07-21T09:29:28Z</time>
      </trkpt>
      <trkpt lat="47.2617280" lon="6.9500480">
        <ele>503.4</ele>
        <time>2022-07-21T09:29:29Z</time>
      </trkpt>
      <trkpt lat="47.2617360" lon="6.9500630">
        <ele>503.4</ele>
        <time>2022-07-21T09:29:38Z</time>
      </trkpt>
      <trkpt lat="47.2617420" lon="6.9500730">
        <ele>503.4</ele>
        <time>2022-07-21T09:29:39Z</time>
      </trkpt>
      <trkpt lat="47.2617530" lon="6.9500850">
        <ele>503.3</ele>
        <time>2022-07-21T09:29:40Z</time>
      </trkpt>
      <trkpt lat="47.2617550" lon="6.9500800">
        <ele>503.3</ele>
        <time>2022-07-21T09:29:41Z</time>
      </trkpt>
      <trkpt lat="47.2617570" lon="6.9500760">
        <ele>503.3</ele>
        <time>2022-07-21T09:29:42Z</time>
      </trkpt>
      <trkpt lat="47.2617610" lon="6.9500760">
        <ele>503.3</ele>
        <time>2022-07-21T09:29:43Z</time>
      </trkpt>
      <trkpt lat="47.2617640" lon="6.9500810">
        <ele>503.3</ele>
        <time>2022-07-21T09:29:44Z</time>
      </trkpt>
      <trkpt lat="47.2617670" lon="6.9500870">
        <ele>503.3</ele>
        <time>2022-07-21T09:29:45Z</time>
      </trkpt>
      <trkpt lat="47.2617710" lon="6.9500910">
        <ele>503.3</ele>
        <time>2022-07-21T09:29:46Z</time>
      </trkpt>
      <trkpt lat="47.2617780" lon="6.9500960">
        <ele>503.3</ele>
        <time>2022-07-21T09:29:47Z</time>
      </trkpt>
      <trkpt lat="47.2617850" lon="6.9501000">
        <ele>503.3</ele>
        <time>2022-07-21T09:29:48Z</time>
      </trkpt>
      <trkpt lat="47.2617880" lon="6.9501020">
        <ele>503.3</ele>
        <time>2022-07-21T09:29:49Z</time>
      </trkpt>
      <trkpt lat="47.2617900" lon="6.9501010">
        <ele>503.3</ele>
        <time>2022-07-21T09:29:50Z</time>
      </trkpt>
      <trkpt lat="47.2617910" lon="6.9501000">
        <ele>503.3</ele>
        <time>2022-07-21T09:29:51Z</time>
      </trkpt>
      <trkpt lat="47.2617900" lon="6.9500980">
        <ele>503.3</ele>
        <time>2022-07-21T09:29:52Z</time>
      </trkpt>
      <trkpt lat="47.2617890" lon="6.9500970">
        <ele>503.3</ele>
        <time>2022-07-21T09:29:53Z</time>
      </trkpt>
      <trkpt lat="47.2617870" lon="6.9500960">
        <ele>503.3</ele>
        <time>2022-07-21T09:29:54Z</time>
      </trkpt>
      <trkpt lat="47.2617860" lon="6.9500960">
        <ele>503.3</ele>
        <time>2022-07-21T09:29:55Z</time>
      </trkpt>
      <trkpt lat="47.2617850" lon="6.9500970">
        <ele>503.3</ele>
        <time>2022-07-21T09:29:56Z</time>
      </trkpt>
      <trkpt lat="47.2617850" lon="6.9500970">
        <ele>503.3</ele>
        <time>2022-07-21T09:29:57Z</time>
      </trkpt>
      <trkpt lat="47.2617850" lon="6.9500980">
        <ele>503.3</ele>
        <time>2022-07-21T09:29:58Z</time>
      </trkpt>
      <trkpt lat="47.2617850" lon="6.9500980">
        <ele>503.3</ele>
        <time>2022-07-21T09:29:59Z</time>
      </trkpt>
      <trkpt lat="47.2617850" lon="6.9500980">
        <ele>503.3</ele>
        <time>2022-07-21T09:30:00Z</time>
      </trkpt>
      <trkpt lat="47.2617580" lon="6.9500730">
        <ele>503.2</ele>
        <time>2022-07-21T09:30:37Z</time>
      </trkpt>
      <trkpt lat="47.2617540" lon="6.9500690">
        <ele>503.2</ele>
        <time>2022-07-21T09:30:38Z</time>
      </trkpt>
      <trkpt lat="47.2617570" lon="6.9500770">
        <ele>503.2</ele>
        <time>2022-07-21T09:30:39Z</time>
      </trkpt>
      <trkpt lat="47.2617540" lon="6.9500770">
        <ele>503.2</ele>
        <time>2022-07-21T09:30:40Z</time>
      </trkpt>
      <trkpt lat="47.2617440" lon="6.9500700">
        <ele>503.2</ele>
        <time>2022-07-21T09:30:41Z</time>
      </trkpt>
      <trkpt lat="47.2617340" lon="6.9500650">
        <ele>503.2</ele>
        <time>2022-07-21T09:30:42Z</time>
      </trkpt>
      <trkpt lat="47.2617450" lon="6.9500650">
        <ele>503.2</ele>
        <time>2022-07-21T09:30:43Z</time>
      </trkpt>
      <trkpt lat="47.2617460" lon="6.9500640">
        <ele>503.2</ele>
        <time>2022-07-21T09:30:44Z</time>
      </trkpt>
      <trkpt lat="47.2617440" lon="6.9500620">
        <ele>503.2</ele>
        <time>2022-07-21T09:30:45Z</time>
      </trkpt>
      <trkpt lat="47.2617400" lon="6.9500610">
        <ele>503.2</ele>
        <time>2022-07-21T09:30:46Z</time>
      </trkpt>
      <trkpt lat="47.2617390" lon="6.9500610">
        <ele>503.2</ele>
        <time>2022-07-21T09:30:47Z</time>
      </trkpt>
      <trkpt lat="47.2617370" lon="6.9500610">
        <ele>503.1</ele>
        <time>2022-07-21T09:30:48Z</time>
      </trkpt>
      <trkpt lat="47.2617360" lon="6.9500620">
        <ele>503.1</ele>
        <time>2022-07-21T09:30:49Z</time>
      </trkpt>
      <trkpt lat="47.2617330" lon="6.9500640">
        <ele>503.1</ele>
        <time>2022-07-21T09:30:50Z</time>
      </trkpt>
      <trkpt lat="47.2617280" lon="6.9500650">
        <ele>503.1</ele>
        <time>2022-07-21T09:30:51Z</time>
      </trkpt>
      <trkpt lat="47.2617140" lon="6.9500680">
        <ele>503.1</ele>
        <time>2022-07-21T09:30:53Z</time>
      </trkpt>
      <trkpt lat="47.2616990" lon="6.9500860">
        <ele>503.1</ele>
        <time>2022-07-21T09:30:54Z</time>
      </trkpt>
      <trkpt lat="47.2616930" lon="6.9500910">
        <ele>503.1</ele>
        <time>2022-07-21T09:30:55Z</time>
      </trkpt>
      <trkpt lat="47.2616910" lon="6.9500930">
        <ele>503.1</ele>
        <time>2022-07-21T09:30:57Z</time>
      </trkpt>
      <trkpt lat="47.2616900" lon="6.9500920">
        <ele>503.1</ele>
        <time>2022-07-21T09:30:58Z</time>
      </trkpt>
      <trkpt lat="47.2616900" lon="6.9500920">
        <ele>503.1</ele>
        <time>2022-07-21T09:30:59Z</time>
      </trkpt>
      <trkpt lat="47.2616890" lon="6.9500940">
        <ele>503.1</ele>
        <time>2022-07-21T09:31:01Z</time>
      </trkpt>
      <trkpt lat="47.2616890" lon="6.9500950">
        <ele>503.1</ele>
        <time>2022-07-21T09:31:02Z</time>
      </trkpt>
      <trkpt lat="47.2616880" lon="6.9500960">
        <ele>503.1</ele>
        <time>2022-07-21T09:31:03Z</time>
      </trkpt>
      <trkpt lat="47.2616870" lon="6.9500970">
        <ele>503.1</ele>
        <time>2022-07-21T09:31:04Z</time>
      </trkpt>
      <trkpt lat="47.2616440" lon="6.9500920">
        <ele>503.0</ele>
        <time>2022-07-21T09:37:27Z</time>
      </trkpt>
      <trkpt lat="47.2616480" lon="6.9501000">
        <ele>503.0</ele>
        <time>2022-07-21T09:37:28Z</time>
      </trkpt>
      <trkpt lat="47.2616520" lon="6.9501040">
        <ele>503.0</ele>
        <time>2022-07-21T09:37:29Z</time>
      </trkpt>
      <trkpt lat="47.2616580" lon="6.9501040">
        <ele>503.0</ele>
        <time>2022-07-21T09:37:30Z</time>
      </trkpt>
      <trkpt lat="47.2616610" lon="6.9501040">
        <ele>503.0</ele>
        <time>2022-07-21T09:37:31Z</time>
      </trkpt>
      <trkpt lat="47.2616610" lon="6.9501010">
        <ele>503.0</ele>
        <time>2022-07-21T09:37:32Z</time>
      </trkpt>
      <trkpt lat="47.2616600" lon="6.9500980">
        <ele>503.0</ele>
        <time>2022-07-21T09:37:33Z</time>
      </trkpt>
      <trkpt lat="47.2616570" lon="6.9500960">
        <ele>503.0</ele>
        <time>2022-07-21T09:37:34Z</time>
      </trkpt>
      <trkpt lat="47.2616560" lon="6.9500990">
        <ele>503.0</ele>
        <time>2022-07-21T09:37:35Z</time>
      </trkpt>
      <trkpt lat="47.2616570" lon="6.9501040">
        <ele>503.0</ele>
        <time>2022-07-21T09:37:36Z</time>
      </trkpt>
      <trkpt lat="47.2616590" lon="6.9501100">
        <ele>503.0</ele>
        <time>2022-07-21T09:37:37Z</time>
      </trkpt>
      <trkpt lat="47.2616600" lon="6.9501180">
        <ele>503.0</ele>
        <time>2022-07-21T09:37:38Z</time>
      </trkpt>
      <trkpt lat="47.2616630" lon="6.9501260">
        <ele>502.9</ele>
        <time>2022-07-21T09:37:39Z</time>
      </trkpt>
      <trkpt lat="47.2616660" lon="6.9501320">
        <ele>502.9</ele>
        <time>2022-07-21T09:37:40Z</time>
      </trkpt>
      <trkpt lat="47.2616690" lon="6.9501340">
        <ele>502.9</ele>
        <time>2022-07-21T09:37:41Z</time>
      </trkpt>
      <trkpt lat="47.2616710" lon="6.9501360">
        <ele>502.9</ele>
        <time>2022-07-21T09:37:42Z</time>
      </trkpt>
      <trkpt lat="47.2616710" lon="6.9501420">
        <ele>502.9</ele>
        <time>2022-07-21T09:37:43Z</time>
      </trkpt>
      <trkpt lat="47.2616720" lon="6.9501510">
        <ele>502.9</ele>
        <time>2022-07-21T09:37:44Z</time>
      </trkpt>
      <trkpt lat="47.2616730" lon="6.9501700">
        <ele>502.9</ele>
        <time>2022-07-21T09:37:45Z</time>
      </trkpt>
      <trkpt lat="47.2616710" lon="6.9502170">
        <ele>502.9</ele>
        <time>2022-07-21T09:37:46Z</time>
      </trkpt>
      <trkpt lat="47.2616690" lon="6.9502310">
        <ele>502.8</ele>
        <time>2022-07-21T09:37:47Z</time>
      </trkpt>
      <trkpt lat="47.2616610" lon="6.9502700">
        <ele>502.8</ele>
        <time>2022-07-21T09:37:48Z</time>
      </trkpt>
      <trkpt lat="47.2616550" lon="6.9503130">
        <ele>502.8</ele>
        <time>2022-07-21T09:37:49Z</time>
      </trkpt>
      <trkpt lat="47.2616500" lon="6.9503730">
        <ele>502.7</ele>
        <time>2022-07-21T09:37:50Z</time>
      </trkpt>
      <trkpt lat="47.2616450" lon="6.9504470">
        <ele>502.7</ele>
        <time>2022-07-21T09:37:51Z</time>
      </trkpt>
      <trkpt lat="47.2616450" lon="6.9505100">
        <ele>502.6</ele>
        <time>2022-07-21T09:37:52Z</time>
      </trkpt>
      <trkpt lat="47.2616450" lon="6.9505860">
        <ele>502.5</ele>
        <time>2022-07-21T09:37:54Z</time>
      </trkpt>
      <trkpt lat="47.2616450" lon="6.9506930">
        <ele>502.2</ele>
        <time>2022-07-21T09:37:56Z</time>
      </trkpt>
      <trkpt lat="47.2616470" lon="6.9507470">
        <ele>502.1</ele>
        <time>2022-07-21T09:37:57Z</time>
      </trkpt>
      <trkpt lat="47.2616450" lon="6.9507980">
        <ele>502.1</ele>
        <time>2022-07-21T09:37:58Z</time>
      </trkpt>
      <trkpt lat="47.2616430" lon="6.9508340">
        <ele>502.0</ele>
        <time>2022-07-21T09:37:59Z</time>
      </trkpt>
      <trkpt lat="47.2616450" lon="6.9508460">
        <ele>502.0</ele>
        <time>2022-07-21T09:38:00Z</time>
      </trkpt>
      <trkpt lat="47.2616450" lon="6.9508530">
        <ele>502.0</ele>
        <time>2022-07-21T09:38:01Z</time>
      </trkpt>
      <trkpt lat="47.2616510" lon="6.9508420">
        <ele>502.0</ele>
        <time>2022-07-21T09:38:02Z</time>
      </trkpt>
      <trkpt lat="47.2616530" lon="6.9508410">
        <ele>502.0</ele>
        <time>2022-07-21T09:38:03Z</time>
      </trkpt>
      <trkpt lat="47.2616560" lon="6.9508400">
        <ele>502.0</ele>
        <time>2022-07-21T09:38:04Z</time>
      </trkpt>
      <trkpt lat="47.2616570" lon="6.9508430">
        <ele>502.0</ele>
        <time>2022-07-21T09:38:05Z</time>
      </trkpt>
      <trkpt lat="47.2616580" lon="6.9508410">
        <ele>502.0</ele>
        <time>2022-07-21T09:38:06Z</time>
      </trkpt>
      <trkpt lat="47.2616590" lon="6.9508370">
        <ele>501.9</ele>
        <time>2022-07-21T09:38:07Z</time>
      </trkpt>
      <trkpt lat="47.2616610" lon="6.9508360">
        <ele>501.9</ele>
        <time>2022-07-21T09:38:08Z</time>
      </trkpt>
      <trkpt lat="47.2616610" lon="6.9508340">
        <ele>501.9</ele>
        <time>2022-07-21T09:38:09Z</time>
      </trkpt>
      <trkpt lat="47.2616610" lon="6.9508340">
        <ele>501.9</ele>
        <time>2022-07-21T09:38:10Z</time>
      </trkpt>
      <trkpt lat="47.2616620" lon="6.9508330">
        <ele>501.9</ele>
        <time>2022-07-21T09:38:11Z</time>
      </trkpt>
      <trkpt lat="47.2616620" lon="6.9508320">
        <ele>501.9</ele>
        <time>2022-07-21T09:38:12Z</time>
      </trkpt>
      <trkpt lat="47.2616630" lon="6.9508310">
        <ele>501.9</ele>
        <time>2022-07-21T09:38:13Z</time>
      </trkpt>
      <trkpt lat="47.2616640" lon="6.9508300">
        <ele>501.9</ele>
        <time>2022-07-21T09:38:14Z</time>
      </trkpt>
      <trkpt lat="47.2616470" lon="6.9509010">
        <ele>501.8</ele>
        <time>2022-07-21T09:38:48Z</time>
      </trkpt>
      <trkpt lat="47.2616490" lon="6.9509420">
        <ele>501.8</ele>
        <time>2022-07-21T09:38:49Z</time>
      </trkpt>
      <trkpt lat="47.2616520" lon="6.9510150">
        <ele>501.7</ele>
        <time>2022-07-21T09:38:50Z</time>
      </trkpt>
      <trkpt lat="47.2616550" lon="6.9511170">
        <ele>501.6</ele>
        <time>2022-07-21T09:38:52Z</time>
      </trkpt>
      <trkpt lat="47.2616530" lon="6.9511690">
        <ele>501.5</ele>
        <time>2022-07-21T09:38:53Z</time>
      </trkpt>
      <trkpt lat="47.2616500" lon="6.9512250">
        <ele>501.5</ele>
        <time>2022-07-21T09:38:54Z</time>
      </trkpt>
      <trkpt lat="47.2616460" lon="6.9512770">
        <ele>501.4</ele>
        <time>2022-07-21T09:38:55Z</time>
      </trkpt>
      <trkpt lat="47.2616440" lon="6.9513350">
        <ele>501.4</ele>
        <time>2022-07-21T09:38:56Z</time>
      </trkpt>
      <trkpt lat="47.2616430" lon="6.9513880">
        <ele>501.4</ele>
        <time>2022-07-21T09:38:57Z</time>
      </trkpt>
      <trkpt lat="47.2616370" lon="6.9514470">
        <ele>501.3</ele>
        <time>2022-07-21T09:38:58Z</time>
      </trkpt>
      <trkpt lat="47.2616360" lon="6.9515030">
        <ele>501.3</ele>
        <time>2022-07-21T09:38:59Z</time>
      </trkpt>
      <trkpt lat="47.2616300" lon="6.9515590">
        <ele>501.3</ele>
        <time>2022-07-21T09:39:00Z</time>
      </trkpt>
      <trkpt lat="47.2616220" lon="6.9516020">
        <ele>501.3</ele>
        <time>2022-07-21T09:39:01Z</time>
      </trkpt>
      <trkpt lat="47.2616190" lon="6.9516290">
        <ele>501.3</ele>
        <time>2022-07-21T09:39:02Z</time>
      </trkpt>
      <trkpt lat="47.2616170" lon="6.9516460">
        <ele>501.3</ele>
        <time>2022-07-21T09:39:03Z</time>
      </trkpt>
      <trkpt lat="47.2616170" lon="6.9516490">
        <ele>501.3</ele>
        <time>2022-07-21T09:39:04Z</time>
      </trkpt>
      <trkpt lat="47.2616180" lon="6.9516280">
        <ele>501.3</ele>
        <time>2022-07-21T09:39:05Z</time>
      </trkpt>
      <trkpt lat="47.2616210" lon="6.9516180">
        <ele>501.3</ele>
        <time>2022-07-21T09:39:06Z</time>
      </trkpt>
      <trkpt lat="47.2616240" lon="6.9516120">
        <ele>501.3</ele>
        <time>2022-07-21T09:39:07Z</time>
      </trkpt>
      <trkpt lat="47.2616260" lon="6.9516070">
        <ele>501.3</ele>
        <time>2022-07-21T09:39:08Z</time>
      </trkpt>
      <trkpt lat="47.2616280" lon="6.9516020">
        <ele>501.3</ele>
        <time>2022-07-21T09:39:09Z</time>
      </trkpt>
      <trkpt lat="47.2616310" lon="6.9515920">
        <ele>501.3</ele>
        <time>2022-07-21T09:39:10Z</time>
      </trkpt>
      <trkpt lat="47.2616320" lon="6.9515940">
        <ele>501.3</ele>
        <time>2022-07-21T09:39:11Z</time>
      </trkpt>
      <trkpt lat="47.2616170" lon="6.9516880">
        <ele>501.3</ele>
        <time>2022-07-21T09:39:13Z</time>
      </trkpt>
      <trkpt lat="47.2616060" lon="6.9517330">
        <ele>501.4</ele>
        <time>2022-07-21T09:39:14Z</time>
      </trkpt>
      <trkpt lat="47.2615940" lon="6.9517750">
        <ele>501.4</ele>
        <time>2022-07-21T09:39:15Z</time>
      </trkpt>
      <trkpt lat="47.2615750" lon="6.9518220">
        <ele>501.5</ele>
        <time>2022-07-21T09:39:17Z</time>
      </trkpt>
      <trkpt lat="47.2615540" lon="6.9518650">
        <ele>501.6</ele>
        <time>2022-07-21T09:39:18Z</time>
      </trkpt>
      <trkpt lat="47.2615470" lon="6.9518790">
        <ele>501.6</ele>
        <time>2022-07-21T09:39:19Z</time>
      </trkpt>
      <trkpt lat="47.2615270" lon="6.9519140">
        <ele>501.7</ele>
        <time>2022-07-21T09:39:20Z</time>
      </trkpt>
      <trkpt lat="47.2615200" lon="6.9519260">
        <ele>501.7</ele>
        <time>2022-07-21T09:39:21Z</time>
      </trkpt>
      <trkpt lat="47.2614570" lon="6.9519690">
        <ele>501.9</ele>
        <time>2022-07-21T09:39:23Z</time>
      </trkpt>
      <trkpt lat="47.2614250" lon="6.9519810">
        <ele>501.9</ele>
        <time>2022-07-21T09:39:24Z</time>
      </trkpt>
      <trkpt lat="47.2613970" lon="6.9519940">
        <ele>502.0</ele>
        <time>2022-07-21T09:39:25Z</time>
      </trkpt>
      <trkpt lat="47.2613840" lon="6.9520070">
        <ele>502.0</ele>
        <time>2022-07-21T09:39:26Z</time>
      </trkpt>
      <trkpt lat="47.2613750" lon="6.9520180">
        <ele>502.0</ele>
        <time>2022-07-21T09:39:27Z</time>
      </trkpt>
      <trkpt lat="47.2613730" lon="6.9520300">
        <ele>502.0</ele>
        <time>2022-07-21T09:39:28Z</time>
      </trkpt>
      <trkpt lat="47.2613640" lon="6.9520430">
        <ele>502.0</ele>
        <time>2022-07-21T09:39:29Z</time>
      </trkpt>
      <trkpt lat="47.2613550" lon="6.9520570">
        <ele>502.0</ele>
        <time>2022-07-21T09:39:30Z</time>
      </trkpt>
      <trkpt lat="47.2613440" lon="6.9520680">
        <ele>502.0</ele>
        <time>2022-07-21T09:39:31Z</time>
      </trkpt>
      <trkpt lat="47.2613280" lon="6.9520790">
        <ele>501.9</ele>
        <time>2022-07-21T09:39:32Z</time>
      </trkpt>
      <trkpt lat="47.2612990" lon="6.9520870">
        <ele>501.4</ele>
        <time>2022-07-21T09:39:33Z</time>
      </trkpt>
      <trkpt lat="47.2612880" lon="6.9520890">
        <ele>501.3</ele>
        <time>2022-07-21T09:39:34Z</time>
      </trkpt>
      <trkpt lat="47.2612610" lon="6.9520870">
        <ele>501.2</ele>
        <time>2022-07-21T09:39:35Z</time>
      </trkpt>
      <trkpt lat="47.2612520" lon="6.9520860">
        <ele>501.2</ele>
        <time>2022-07-21T09:39:36Z</time>
      </trkpt>
      <trkpt lat="47.2612210" lon="6.9520740">
        <ele>501.1</ele>
        <time>2022-07-21T09:39:37Z</time>
      </trkpt>
      <trkpt lat="47.2612090" lon="6.9520700">
        <ele>501.1</ele>
        <time>2022-07-21T09:39:38Z</time>
      </trkpt>
      <trkpt lat="47.2611740" lon="6.9520580">
        <ele>501.1</ele>
        <time>2022-07-21T09:39:39Z</time>
      </trkpt>
      <trkpt lat="47.2611390" lon="6.9520480">
        <ele>501.1</ele>
        <time>2022-07-21T09:39:40Z</time>
      </trkpt>
      <trkpt lat="47.2611090" lon="6.9520380">
        <ele>501.1</ele>
        <time>2022-07-21T09:39:41Z</time>
      </trkpt>
      <trkpt lat="47.2610830" lon="6.9520240">
        <ele>501.1</ele>
        <time>2022-07-21T09:39:42Z</time>
      </trkpt>
      <trkpt lat="47.2610560" lon="6.9519990">
        <ele>501.1</ele>
        <time>2022-07-21T09:39:43Z</time>
      </trkpt>
      <trkpt lat="47.2610230" lon="6.9519730">
        <ele>501.1</ele>
        <time>2022-07-21T09:39:44Z</time>
      </trkpt>
      <trkpt lat="47.2610120" lon="6.9519640">
        <ele>501.1</ele>
        <time>2022-07-21T09:39:45Z</time>
      </trkpt>
      <trkpt lat="47.2609740" lon="6.9519370">
        <ele>501.1</ele>
        <time>2022-07-21T09:39:46Z</time>
      </trkpt>
      <trkpt lat="47.2609620" lon="6.9519280">
        <ele>501.2</ele>
        <time>2022-07-21T09:39:47Z</time>
      </trkpt>
      <trkpt lat="47.2609290" lon="6.9518990">
        <ele>501.2</ele>
        <time>2022-07-21T09:39:48Z</time>
      </trkpt>
      <trkpt lat="47.2609180" lon="6.9518900">
        <ele>501.2</ele>
        <time>2022-07-21T09:39:49Z</time>
      </trkpt>
      <trkpt lat="47.2608880" lon="6.9518660">
        <ele>501.3</ele>
        <time>2022-07-21T09:39:50Z</time>
      </trkpt>
      <trkpt lat="47.2608780" lon="6.9518600">
        <ele>501.3</ele>
        <time>2022-07-21T09:39:51Z</time>
      </trkpt>
      <trkpt lat="47.2608510" lon="6.9518400">
        <ele>501.4</ele>
        <time>2022-07-21T09:39:52Z</time>
      </trkpt>
      <trkpt lat="47.2608420" lon="6.9518320">
        <ele>501.4</ele>
        <time>2022-07-21T09:39:53Z</time>
      </trkpt>
      <trkpt lat="47.2608100" lon="6.9518000">
        <ele>501.5</ele>
        <time>2022-07-21T09:39:54Z</time>
      </trkpt>
      <trkpt lat="47.2607990" lon="6.9517910">
        <ele>501.6</ele>
        <time>2022-07-21T09:39:55Z</time>
      </trkpt>
      <trkpt lat="47.2607660" lon="6.9517700">
        <ele>501.7</ele>
        <time>2022-07-21T09:39:56Z</time>
      </trkpt>
      <trkpt lat="47.2607530" lon="6.9517640">
        <ele>501.7</ele>
        <time>2022-07-21T09:39:57Z</time>
      </trkpt>
      <trkpt lat="47.2607230" lon="6.9517520">
        <ele>501.8</ele>
        <time>2022-07-21T09:39:58Z</time>
      </trkpt>
      <trkpt lat="47.2606930" lon="6.9517470">
        <ele>501.9</ele>
        <time>2022-07-21T09:39:59Z</time>
      </trkpt>
      <trkpt lat="47.2606850" lon="6.9517420">
        <ele>501.9</ele>
        <time>2022-07-21T09:40:00Z</time>
      </trkpt>
      <trkpt lat="47.2606680" lon="6.9517310">
        <ele>502.0</ele>
        <time>2022-07-21T09:40:01Z</time>
      </trkpt>
      <trkpt lat="47.2606570" lon="6.9517230">
        <ele>502.1</ele>
        <time>2022-07-21T09:40:02Z</time>
      </trkpt>
      <trkpt lat="47.2606470" lon="6.9517160">
        <ele>502.1</ele>
        <time>2022-07-21T09:40:03Z</time>
      </trkpt>
      <trkpt lat="47.2606180" lon="6.9517040">
        <ele>502.2</ele>
        <time>2022-07-21T09:40:04Z</time>
      </trkpt>
      <trkpt lat="47.2606090" lon="6.9517000">
        <ele>502.3</ele>
        <time>2022-07-21T09:40:05Z</time>
      </trkpt>
      <trkpt lat="47.2605780" lon="6.9516950">
        <ele>502.4</ele>
        <time>2022-07-21T09:40:06Z</time>
      </trkpt>
      <trkpt lat="47.2605680" lon="6.9516950">
        <ele>502.4</ele>
        <time>2022-07-21T09:40:07Z</time>
      </trkpt>
      <trkpt lat="47.2605330" lon="6.9516920">
        <ele>502.6</ele>
        <time>2022-07-21T09:40:08Z</time>
      </trkpt>
      <trkpt lat="47.2605230" lon="6.9516900">
        <ele>502.6</ele>
        <time>2022-07-21T09:40:09Z</time>
      </trkpt>
      <trkpt lat="47.2605060" lon="6.9516860">
        <ele>502.7</ele>
        <time>2022-07-21T09:40:10Z</time>
      </trkpt>
      <trkpt lat="47.2604900" lon="6.9516790">
        <ele>502.8</ele>
        <time>2022-07-21T09:40:11Z</time>
      </trkpt>
      <trkpt lat="47.2604750" lon="6.9516730">
        <ele>502.9</ele>
        <time>2022-07-21T09:40:12Z</time>
      </trkpt>
      <trkpt lat="47.2604250" lon="6.9516460">
        <ele>503.2</ele>
        <time>2022-07-21T09:40:14Z</time>
      </trkpt>
      <trkpt lat="47.2603930" lon="6.9516350">
        <ele>503.3</ele>
        <time>2022-07-21T09:40:15Z</time>
      </trkpt>
      <trkpt lat="47.2603820" lon="6.9516320">
        <ele>503.4</ele>
        <time>2022-07-21T09:40:16Z</time>
      </trkpt>
      <trkpt lat="47.2603660" lon="6.9516270">
        <ele>503.5</ele>
        <time>2022-07-21T09:40:17Z</time>
      </trkpt>
      <trkpt lat="47.2603470" lon="6.9516210">
        <ele>503.6</ele>
        <time>2022-07-21T09:40:18Z</time>
      </trkpt>
      <trkpt lat="47.2603190" lon="6.9516110">
        <ele>503.8</ele>
        <time>2022-07-21T09:40:19Z</time>
      </trkpt>
      <trkpt lat="47.2603100" lon="6.9516080">
        <ele>503.8</ele>
        <time>2022-07-21T09:40:20Z</time>
      </trkpt>
      <trkpt lat="47.2602930" lon="6.9516060">
        <ele>503.9</ele>
        <time>2022-07-21T09:40:21Z</time>
      </trkpt>
      <trkpt lat="47.2602760" lon="6.9516000">
        <ele>504.0</ele>
        <time>2022-07-21T09:40:22Z</time>
      </trkpt>
      <trkpt lat="47.2602600" lon="6.9515840">
        <ele>504.2</ele>
        <time>2022-07-21T09:40:23Z</time>
      </trkpt>
      <trkpt lat="47.2602460" lon="6.9515740">
        <ele>504.3</ele>
        <time>2022-07-21T09:40:24Z</time>
      </trkpt>
      <trkpt lat="47.2602210" lon="6.9515580">
        <ele>504.4</ele>
        <time>2022-07-21T09:40:25Z</time>
      </trkpt>
      <trkpt lat="47.2602120" lon="6.9515500">
        <ele>504.5</ele>
        <time>2022-07-21T09:40:26Z</time>
      </trkpt>
      <trkpt lat="47.2601760" lon="6.9515390">
        <ele>504.8</ele>
        <time>2022-07-21T09:40:27Z</time>
      </trkpt>
      <trkpt lat="47.2601650" lon="6.9515350">
        <ele>504.8</ele>
        <time>2022-07-21T09:40:28Z</time>
      </trkpt>
      <trkpt lat="47.2601370" lon="6.9515240">
        <ele>505.0</ele>
        <time>2022-07-21T09:40:29Z</time>
      </trkpt>
      <trkpt lat="47.2601280" lon="6.9515200">
        <ele>505.1</ele>
        <time>2022-07-21T09:40:30Z</time>
      </trkpt>
      <trkpt lat="47.2600980" lon="6.9515100">
        <ele>505.3</ele>
        <time>2022-07-21T09:40:31Z</time>
      </trkpt>
      <trkpt lat="47.2600870" lon="6.9515070">
        <ele>505.4</ele>
        <time>2022-07-21T09:40:32Z</time>
      </trkpt>
      <trkpt lat="47.2600560" lon="6.9515010">
        <ele>505.6</ele>
        <time>2022-07-21T09:40:33Z</time>
      </trkpt>
      <trkpt lat="47.2600470" lon="6.9514990">
        <ele>505.7</ele>
        <time>2022-07-21T09:40:34Z</time>
      </trkpt>
      <trkpt lat="47.2600340" lon="6.9514960">
        <ele>505.8</ele>
        <time>2022-07-21T09:40:35Z</time>
      </trkpt>
      <trkpt lat="47.2600170" lon="6.9514950">
        <ele>505.9</ele>
        <time>2022-07-21T09:40:36Z</time>
      </trkpt>
      <trkpt lat="47.2599810" lon="6.9514900">
        <ele>506.1</ele>
        <time>2022-07-21T09:40:37Z</time>
      </trkpt>
      <trkpt lat="47.2599700" lon="6.9514880">
        <ele>506.2</ele>
        <time>2022-07-21T09:40:38Z</time>
      </trkpt>
      <trkpt lat="47.2599470" lon="6.9514920">
        <ele>506.4</ele>
        <time>2022-07-21T09:40:39Z</time>
      </trkpt>
      <trkpt lat="47.2599370" lon="6.9514930">
        <ele>506.5</ele>
        <time>2022-07-21T09:40:40Z</time>
      </trkpt>
      <trkpt lat="47.2599260" lon="6.9514940">
        <ele>506.6</ele>
        <time>2022-07-21T09:40:41Z</time>
      </trkpt>
      <trkpt lat="47.2599120" lon="6.9514920">
        <ele>506.7</ele>
        <time>2022-07-21T09:40:42Z</time>
      </trkpt>
      <trkpt lat="47.2598960" lon="6.9514910">
        <ele>506.8</ele>
        <time>2022-07-21T09:40:43Z</time>
      </trkpt>
      <trkpt lat="47.2598800" lon="6.9514870">
        <ele>506.9</ele>
        <time>2022-07-21T09:40:44Z</time>
      </trkpt>
      <trkpt lat="47.2598650" lon="6.9514820">
        <ele>507.0</ele>
        <time>2022-07-21T09:40:45Z</time>
      </trkpt>
      <trkpt lat="47.2598510" lon="6.9514760">
        <ele>507.1</ele>
        <time>2022-07-21T09:40:46Z</time>
      </trkpt>
      <trkpt lat="47.2598380" lon="6.9514700">
        <ele>507.2</ele>
        <time>2022-07-21T09:40:47Z</time>
      </trkpt>
      <trkpt lat="47.2598190" lon="6.9514640">
        <ele>507.4</ele>
        <time>2022-07-21T09:40:48Z</time>
      </trkpt>
      <trkpt lat="47.2598100" lon="6.9514620">
        <ele>507.5</ele>
        <time>2022-07-21T09:40:49Z</time>
      </trkpt>
      <trkpt lat="47.2598020" lon="6.9514600">
        <ele>507.5</ele>
        <time>2022-07-21T09:40:50Z</time>
      </trkpt>
      <trkpt lat="47.2597820" lon="6.9514540">
        <ele>507.7</ele>
        <time>2022-07-21T09:40:51Z</time>
      </trkpt>
      <trkpt lat="47.2597740" lon="6.9514510">
        <ele>507.7</ele>
        <time>2022-07-21T09:40:52Z</time>
      </trkpt>
      <trkpt lat="47.2597650" lon="6.9514490">
        <ele>507.8</ele>
        <time>2022-07-21T09:40:53Z</time>
      </trkpt>
      <trkpt lat="47.2597530" lon="6.9514450">
        <ele>507.9</ele>
        <time>2022-07-21T09:40:54Z</time>
      </trkpt>
      <trkpt lat="47.2597370" lon="6.9514380">
        <ele>508.0</ele>
        <time>2022-07-21T09:40:55Z</time>
      </trkpt>
      <trkpt lat="47.2597240" lon="6.9514330">
        <ele>508.2</ele>
        <time>2022-07-21T09:40:56Z</time>
      </trkpt>
      <trkpt lat="47.2597140" lon="6.9514310">
        <ele>508.2</ele>
        <time>2022-07-21T09:40:57Z</time>
      </trkpt>
      <trkpt lat="47.2597070" lon="6.9514320">
        <ele>508.3</ele>
        <time>2022-07-21T09:40:58Z</time>
      </trkpt>
      <trkpt lat="47.2596980" lon="6.9514340">
        <ele>508.4</ele>
        <time>2022-07-21T09:40:59Z</time>
      </trkpt>
      <trkpt lat="47.2596870" lon="6.9514340">
        <ele>508.4</ele>
        <time>2022-07-21T09:41:00Z</time>
      </trkpt>
      <trkpt lat="47.2596720" lon="6.9514290">
        <ele>508.6</ele>
        <time>2022-07-21T09:41:01Z</time>
      </trkpt>
      <trkpt lat="47.2596550" lon="6.9514210">
        <ele>508.7</ele>
        <time>2022-07-21T09:41:02Z</time>
      </trkpt>
      <trkpt lat="47.2596400" lon="6.9514120">
        <ele>508.8</ele>
        <time>2022-07-21T09:41:03Z</time>
      </trkpt>
      <trkpt lat="47.2596250" lon="6.9514030">
        <ele>509.0</ele>
        <time>2022-07-21T09:41:04Z</time>
      </trkpt>
      <trkpt lat="47.2596100" lon="6.9513940">
        <ele>509.1</ele>
        <time>2022-07-21T09:41:05Z</time>
      </trkpt>
      <trkpt lat="47.2595930" lon="6.9513850">
        <ele>509.2</ele>
        <time>2022-07-21T09:41:06Z</time>
      </trkpt>
      <trkpt lat="47.2595770" lon="6.9513800">
        <ele>509.4</ele>
        <time>2022-07-21T09:41:07Z</time>
      </trkpt>
      <trkpt lat="47.2595620" lon="6.9513760">
        <ele>509.5</ele>
        <time>2022-07-21T09:41:08Z</time>
      </trkpt>
      <trkpt lat="47.2595460" lon="6.9513690">
        <ele>509.6</ele>
        <time>2022-07-21T09:41:09Z</time>
      </trkpt>
      <trkpt lat="47.2595190" lon="6.9513500">
        <ele>509.8</ele>
        <time>2022-07-21T09:41:10Z</time>
      </trkpt>
      <trkpt lat="47.2595080" lon="6.9513410">
        <ele>509.9</ele>
        <time>2022-07-21T09:41:11Z</time>
      </trkpt>
      <trkpt lat="47.2594800" lon="6.9513140">
        <ele>510.2</ele>
        <time>2022-07-21T09:41:12Z</time>
      </trkpt>
      <trkpt lat="47.2594720" lon="6.9513030">
        <ele>510.3</ele>
        <time>2022-07-21T09:41:13Z</time>
      </trkpt>
      <trkpt lat="47.2594450" lon="6.9512790">
        <ele>510.5</ele>
        <time>2022-07-21T09:41:14Z</time>
      </trkpt>
      <trkpt lat="47.2594380" lon="6.9512710">
        <ele>510.6</ele>
        <time>2022-07-21T09:41:15Z</time>
      </trkpt>
      <trkpt lat="47.2594160" lon="6.9512490">
        <ele>510.8</ele>
        <time>2022-07-21T09:41:16Z</time>
      </trkpt>
      <trkpt lat="47.2594080" lon="6.9512420">
        <ele>510.9</ele>
        <time>2022-07-21T09:41:17Z</time>
      </trkpt>
      <trkpt lat="47.2593790" lon="6.9512290">
        <ele>511.1</ele>
        <time>2022-07-21T09:41:18Z</time>
      </trkpt>
      <trkpt lat="47.2593680" lon="6.9512260">
        <ele>511.2</ele>
        <time>2022-07-21T09:41:19Z</time>
      </trkpt>
      <trkpt lat="47.2593510" lon="6.9512230">
        <ele>511.3</ele>
        <time>2022-07-21T09:41:20Z</time>
      </trkpt>
      <trkpt lat="47.2593330" lon="6.9512190">
        <ele>511.4</ele>
        <time>2022-07-21T09:41:21Z</time>
      </trkpt>
      <trkpt lat="47.2593180" lon="6.9512150">
        <ele>511.6</ele>
        <time>2022-07-21T09:41:22Z</time>
      </trkpt>
      <trkpt lat="47.2593060" lon="6.9512130">
        <ele>511.7</ele>
        <time>2022-07-21T09:41:23Z</time>
      </trkpt>
      <trkpt lat="47.2592980" lon="6.9512170">
        <ele>511.7</ele>
        <time>2022-07-21T09:41:24Z</time>
      </trkpt>
      <trkpt lat="47.2592870" lon="6.9512200">
        <ele>511.8</ele>
        <time>2022-07-21T09:41:25Z</time>
      </trkpt>
      <trkpt lat="47.2592730" lon="6.9512260">
        <ele>511.9</ele>
        <time>2022-07-21T09:41:26Z</time>
      </trkpt>
      <trkpt lat="47.2592560" lon="6.9512330">
        <ele>512.1</ele>
        <time>2022-07-21T09:41:27Z</time>
      </trkpt>
      <trkpt lat="47.2592430" lon="6.9512360">
        <ele>512.2</ele>
        <time>2022-07-21T09:41:28Z</time>
      </trkpt>
      <trkpt lat="47.2592100" lon="6.9512320">
        <ele>512.4</ele>
        <time>2022-07-21T09:41:29Z</time>
      </trkpt>
      <trkpt lat="47.2591990" lon="6.9512290">
        <ele>512.5</ele>
        <time>2022-07-21T09:41:30Z</time>
      </trkpt>
      <trkpt lat="47.2591840" lon="6.9512300">
        <ele>512.6</ele>
        <time>2022-07-21T09:41:31Z</time>
      </trkpt>
      <trkpt lat="47.2591720" lon="6.9512360">
        <ele>512.7</ele>
        <time>2022-07-21T09:41:32Z</time>
      </trkpt>
      <trkpt lat="47.2591630" lon="6.9512430">
        <ele>512.8</ele>
        <time>2022-07-21T09:41:33Z</time>
      </trkpt>
      <trkpt lat="47.2591530" lon="6.9512470">
        <ele>512.9</ele>
        <time>2022-07-21T09:41:34Z</time>
      </trkpt>
      <trkpt lat="47.2591400" lon="6.9512430">
        <ele>513.0</ele>
        <time>2022-07-21T09:41:35Z</time>
      </trkpt>
      <trkpt lat="47.2591150" lon="6.9512270">
        <ele>513.2</ele>
        <time>2022-07-21T09:41:36Z</time>
      </trkpt>
      <trkpt lat="47.2591060" lon="6.9512200">
        <ele>513.2</ele>
        <time>2022-07-21T09:41:37Z</time>
      </trkpt>
      <trkpt lat="47.2590930" lon="6.9512140">
        <ele>513.3</ele>
        <time>2022-07-21T09:41:38Z</time>
      </trkpt>
      <trkpt lat="47.2590720" lon="6.9512050">
        <ele>513.5</ele>
        <time>2022-07-21T09:41:39Z</time>
      </trkpt>
      <trkpt lat="47.2590570" lon="6.9512010">
        <ele>513.6</ele>
        <time>2022-07-21T09:41:40Z</time>
      </trkpt>
      <trkpt lat="47.2590410" lon="6.9511960">
        <ele>513.8</ele>
        <time>2022-07-21T09:41:41Z</time>
      </trkpt>
      <trkpt lat="47.2590130" lon="6.9511810">
        <ele>514.0</ele>
        <time>2022-07-21T09:41:42Z</time>
      </trkpt>
      <trkpt lat="47.2590040" lon="6.9511760">
        <ele>514.1</ele>
        <time>2022-07-21T09:41:43Z</time>
      </trkpt>
      <trkpt lat="47.2589790" lon="6.9511550">
        <ele>514.3</ele>
        <time>2022-07-21T09:41:44Z</time>
      </trkpt>
      <trkpt lat="47.2589720" lon="6.9511490">
        <ele>514.3</ele>
        <time>2022-07-21T09:41:45Z</time>
      </trkpt>
      <trkpt lat="47.2589410" lon="6.9511350">
        <ele>514.6</ele>
        <time>2022-07-21T09:41:46Z</time>
      </trkpt>
      <trkpt lat="47.2589300" lon="6.9511320">
        <ele>514.7</ele>
        <time>2022-07-21T09:41:47Z</time>
      </trkpt>
      <trkpt lat="47.2589010" lon="6.9511240">
        <ele>514.9</ele>
        <time>2022-07-21T09:41:48Z</time>
      </trkpt>
      <trkpt lat="47.2588740" lon="6.9511150">
        <ele>515.1</ele>
        <time>2022-07-21T09:41:49Z</time>
      </trkpt>
      <trkpt lat="47.2588430" lon="6.9511050">
        <ele>515.4</ele>
        <time>2022-07-21T09:41:50Z</time>
      </trkpt>
      <trkpt lat="47.2588340" lon="6.9511030">
        <ele>515.5</ele>
        <time>2022-07-21T09:41:51Z</time>
      </trkpt>
      <trkpt lat="47.2587990" lon="6.9510960">
        <ele>515.7</ele>
        <time>2022-07-21T09:41:53Z</time>
      </trkpt>
      <trkpt lat="47.2587740" lon="6.9510900">
        <ele>515.9</ele>
        <time>2022-07-21T09:41:54Z</time>
      </trkpt>
      <trkpt lat="47.2587370" lon="6.9510810">
        <ele>516.2</ele>
        <time>2022-07-21T09:41:56Z</time>
      </trkpt>
      <trkpt lat="47.2587000" lon="6.9510720">
        <ele>516.5</ele>
        <time>2022-07-21T09:41:57Z</time>
      </trkpt>
      <trkpt lat="47.2586830" lon="6.9510680">
        <ele>516.7</ele>
        <time>2022-07-21T09:41:58Z</time>
      </trkpt>
      <trkpt lat="47.2586500" lon="6.9510620">
        <ele>516.9</ele>
        <time>2022-07-21T09:42:00Z</time>
      </trkpt>
      <trkpt lat="47.2586360" lon="6.9510610">
        <ele>517.0</ele>
        <time>2022-07-21T09:42:01Z</time>
      </trkpt>
      <trkpt lat="47.2586070" lon="6.9510680">
        <ele>517.3</ele>
        <time>2022-07-21T09:42:02Z</time>
      </trkpt>
      <trkpt lat="47.2585970" lon="6.9510710">
        <ele>517.3</ele>
        <time>2022-07-21T09:42:03Z</time>
      </trkpt>
      <trkpt lat="47.2585810" lon="6.9510740">
        <ele>517.5</ele>
        <time>2022-07-21T09:42:04Z</time>
      </trkpt>
      <trkpt lat="47.2585690" lon="6.9510740">
        <ele>517.6</ele>
        <time>2022-07-21T09:42:05Z</time>
      </trkpt>
      <trkpt lat="47.2585550" lon="6.9510660">
        <ele>517.7</ele>
        <time>2022-07-21T09:42:06Z</time>
      </trkpt>
      <trkpt lat="47.2585440" lon="6.9510560">
        <ele>517.8</ele>
        <time>2022-07-21T09:42:07Z</time>
      </trkpt>
      <trkpt lat="47.2585330" lon="6.9510400">
        <ele>517.9</ele>
        <time>2022-07-21T09:42:08Z</time>
      </trkpt>
      <trkpt lat="47.2585280" lon="6.9510310">
        <ele>518.0</ele>
        <time>2022-07-21T09:42:09Z</time>
      </trkpt>
      <trkpt lat="47.2585230" lon="6.9510220">
        <ele>518.0</ele>
        <time>2022-07-21T09:42:10Z</time>
      </trkpt>
      <trkpt lat="47.2585190" lon="6.9510130">
        <ele>518.1</ele>
        <time>2022-07-21T09:42:11Z</time>
      </trkpt>
      <trkpt lat="47.2585110" lon="6.9510030">
        <ele>518.2</ele>
        <time>2022-07-21T09:42:12Z</time>
      </trkpt>
      <trkpt lat="47.2585050" lon="6.9509940">
        <ele>518.2</ele>
        <time>2022-07-21T09:42:13Z</time>
      </trkpt>
      <trkpt lat="47.2584970" lon="6.9509830">
        <ele>518.3</ele>
        <time>2022-07-21T09:42:14Z</time>
      </trkpt>
      <trkpt lat="47.2584860" lon="6.9509730">
        <ele>518.4</ele>
        <time>2022-07-21T09:42:15Z</time>
      </trkpt>
      <trkpt lat="47.2584790" lon="6.9509650">
        <ele>518.5</ele>
        <time>2022-07-21T09:42:16Z</time>
      </trkpt>
      <trkpt lat="47.2584680" lon="6.9509540">
        <ele>518.6</ele>
        <time>2022-07-21T09:42:17Z</time>
      </trkpt>
      <trkpt lat="47.2584470" lon="6.9509410">
        <ele>518.8</ele>
        <time>2022-07-21T09:42:18Z</time>
      </trkpt>
      <trkpt lat="47.2584370" lon="6.9509350">
        <ele>518.9</ele>
        <time>2022-07-21T09:42:19Z</time>
      </trkpt>
      <trkpt lat="47.2584270" lon="6.9509290">
        <ele>519.0</ele>
        <time>2022-07-21T09:42:20Z</time>
      </trkpt>
      <trkpt lat="47.2583890" lon="6.9509110">
        <ele>519.3</ele>
        <time>2022-07-21T09:42:21Z</time>
      </trkpt>
      <trkpt lat="47.2583760" lon="6.9509060">
        <ele>519.4</ele>
        <time>2022-07-21T09:42:22Z</time>
      </trkpt>
      <trkpt lat="47.2583440" lon="6.9508990">
        <ele>519.7</ele>
        <time>2022-07-21T09:42:23Z</time>
      </trkpt>
      <trkpt lat="47.2583300" lon="6.9508960">
        <ele>519.8</ele>
        <time>2022-07-21T09:42:24Z</time>
      </trkpt>
      <trkpt lat="47.2582930" lon="6.9508920">
        <ele>520.1</ele>
        <time>2022-07-21T09:42:25Z</time>
      </trkpt>
      <trkpt lat="47.2582800" lon="6.9508930">
        <ele>520.2</ele>
        <time>2022-07-21T09:42:26Z</time>
      </trkpt>
      <trkpt lat="47.2582500" lon="6.9508950">
        <ele>520.5</ele>
        <time>2022-07-21T09:42:27Z</time>
      </trkpt>
      <trkpt lat="47.2582400" lon="6.9508960">
        <ele>520.6</ele>
        <time>2022-07-21T09:42:28Z</time>
      </trkpt>
      <trkpt lat="47.2582090" lon="6.9508950">
        <ele>520.8</ele>
        <time>2022-07-21T09:42:29Z</time>
      </trkpt>
      <trkpt lat="47.2582000" lon="6.9508950">
        <ele>520.9</ele>
        <time>2022-07-21T09:42:30Z</time>
      </trkpt>
      <trkpt lat="47.2581650" lon="6.9508940">
        <ele>521.2</ele>
        <time>2022-07-21T09:42:31Z</time>
      </trkpt>
      <trkpt lat="47.2581530" lon="6.9508940">
        <ele>521.3</ele>
        <time>2022-07-21T09:42:32Z</time>
      </trkpt>
      <trkpt lat="47.2581260" lon="6.9508860">
        <ele>521.5</ele>
        <time>2022-07-21T09:42:33Z</time>
      </trkpt>
      <trkpt lat="47.2581180" lon="6.9508800">
        <ele>521.6</ele>
        <time>2022-07-21T09:42:34Z</time>
      </trkpt>
      <trkpt lat="47.2580880" lon="6.9508700">
        <ele>521.9</ele>
        <time>2022-07-21T09:42:35Z</time>
      </trkpt>
      <trkpt lat="47.2580790" lon="6.9508700">
        <ele>521.9</ele>
        <time>2022-07-21T09:42:36Z</time>
      </trkpt>
      <trkpt lat="47.2580500" lon="6.9508640">
        <ele>522.2</ele>
        <time>2022-07-21T09:42:37Z</time>
      </trkpt>
      <trkpt lat="47.2580430" lon="6.9508620">
        <ele>522.2</ele>
        <time>2022-07-21T09:42:38Z</time>
      </trkpt>
      <trkpt lat="47.2580280" lon="6.9508560">
        <ele>522.4</ele>
        <time>2022-07-21T09:42:39Z</time>
      </trkpt>
      <trkpt lat="47.2580090" lon="6.9508480">
        <ele>522.5</ele>
        <time>2022-07-21T09:42:40Z</time>
      </trkpt>
      <trkpt lat="47.2579800" lon="6.9508340">
        <ele>522.8</ele>
        <time>2022-07-21T09:42:41Z</time>
      </trkpt>
      <trkpt lat="47.2579710" lon="6.9508290">
        <ele>522.9</ele>
        <time>2022-07-21T09:42:42Z</time>
      </trkpt>
      <trkpt lat="47.2579450" lon="6.9508240">
        <ele>523.1</ele>
        <time>2022-07-21T09:42:43Z</time>
      </trkpt>
      <trkpt lat="47.2579320" lon="6.9508230">
        <ele>523.2</ele>
        <time>2022-07-21T09:42:44Z</time>
      </trkpt>
      <trkpt lat="47.2579000" lon="6.9508160">
        <ele>523.5</ele>
        <time>2022-07-21T09:42:45Z</time>
      </trkpt>
      <trkpt lat="47.2578890" lon="6.9508130">
        <ele>523.5</ele>
        <time>2022-07-21T09:42:46Z</time>
      </trkpt>
      <trkpt lat="47.2578710" lon="6.9508060">
        <ele>523.7</ele>
        <time>2022-07-21T09:42:47Z</time>
      </trkpt>
      <trkpt lat="47.2578550" lon="6.9508030">
        <ele>523.8</ele>
        <time>2022-07-21T09:42:48Z</time>
      </trkpt>
      <trkpt lat="47.2578390" lon="6.9508020">
        <ele>524.0</ele>
        <time>2022-07-21T09:42:49Z</time>
      </trkpt>
      <trkpt lat="47.2578220" lon="6.9508050">
        <ele>524.1</ele>
        <time>2022-07-21T09:42:50Z</time>
      </trkpt>
      <trkpt lat="47.2578150" lon="6.9508080">
        <ele>524.2</ele>
        <time>2022-07-21T09:42:51Z</time>
      </trkpt>
      <trkpt lat="47.2578060" lon="6.9508110">
        <ele>524.2</ele>
        <time>2022-07-21T09:42:52Z</time>
      </trkpt>
      <trkpt lat="47.2577960" lon="6.9508130">
        <ele>524.3</ele>
        <time>2022-07-21T09:42:53Z</time>
      </trkpt>
      <trkpt lat="47.2577810" lon="6.9508130">
        <ele>524.5</ele>
        <time>2022-07-21T09:42:54Z</time>
      </trkpt>
      <trkpt lat="47.2577630" lon="6.9508090">
        <ele>524.6</ele>
        <time>2022-07-21T09:42:55Z</time>
      </trkpt>
      <trkpt lat="47.2577340" lon="6.9507930">
        <ele>524.9</ele>
        <time>2022-07-21T09:42:56Z</time>
      </trkpt>
      <trkpt lat="47.2577270" lon="6.9507880">
        <ele>524.9</ele>
        <time>2022-07-21T09:42:57Z</time>
      </trkpt>
      <trkpt lat="47.2576950" lon="6.9507770">
        <ele>525.2</ele>
        <time>2022-07-21T09:42:58Z</time>
      </trkpt>
      <trkpt lat="47.2576830" lon="6.9507760">
        <ele>525.3</ele>
        <time>2022-07-21T09:42:59Z</time>
      </trkpt>
      <trkpt lat="47.2576640" lon="6.9507760">
        <ele>525.4</ele>
        <time>2022-07-21T09:43:00Z</time>
      </trkpt>
      <trkpt lat="47.2576520" lon="6.9507740">
        <ele>525.5</ele>
        <time>2022-07-21T09:43:01Z</time>
      </trkpt>
      <trkpt lat="47.2576350" lon="6.9507710">
        <ele>525.7</ele>
        <time>2022-07-21T09:43:02Z</time>
      </trkpt>
      <trkpt lat="47.2576220" lon="6.9507720">
        <ele>525.8</ele>
        <time>2022-07-21T09:43:03Z</time>
      </trkpt>
      <trkpt lat="47.2576120" lon="6.9507740">
        <ele>525.9</ele>
        <time>2022-07-21T09:43:04Z</time>
      </trkpt>
      <trkpt lat="47.2575940" lon="6.9507780">
        <ele>526.0</ele>
        <time>2022-07-21T09:43:05Z</time>
      </trkpt>
      <trkpt lat="47.2575640" lon="6.9507870">
        <ele>526.2</ele>
        <time>2022-07-21T09:43:06Z</time>
      </trkpt>
      <trkpt lat="47.2575580" lon="6.9507900">
        <ele>526.3</ele>
        <time>2022-07-21T09:43:07Z</time>
      </trkpt>
      <trkpt lat="47.2575380" lon="6.9507930">
        <ele>526.4</ele>
        <time>2022-07-21T09:43:08Z</time>
      </trkpt>
      <trkpt lat="47.2575300" lon="6.9507930">
        <ele>526.5</ele>
        <time>2022-07-21T09:43:09Z</time>
      </trkpt>
      <trkpt lat="47.2575210" lon="6.9507930">
        <ele>526.6</ele>
        <time>2022-07-21T09:43:10Z</time>
      </trkpt>
      <trkpt lat="47.2575040" lon="6.9507890">
        <ele>526.7</ele>
        <time>2022-07-21T09:43:11Z</time>
      </trkpt>
      <trkpt lat="47.2574880" lon="6.9507840">
        <ele>526.8</ele>
        <time>2022-07-21T09:43:12Z</time>
      </trkpt>
      <trkpt lat="47.2574730" lon="6.9507790">
        <ele>527.0</ele>
        <time>2022-07-21T09:43:13Z</time>
      </trkpt>
      <trkpt lat="47.2574600" lon="6.9507760">
        <ele>527.1</ele>
        <time>2022-07-21T09:43:14Z</time>
      </trkpt>
      <trkpt lat="47.2574390" lon="6.9507760">
        <ele>527.2</ele>
        <time>2022-07-21T09:43:15Z</time>
      </trkpt>
      <trkpt lat="47.2574310" lon="6.9507770">
        <ele>527.3</ele>
        <time>2022-07-21T09:43:16Z</time>
      </trkpt>
      <trkpt lat="47.2574220" lon="6.9507770">
        <ele>527.3</ele>
        <time>2022-07-21T09:43:17Z</time>
      </trkpt>
      <trkpt lat="47.2574070" lon="6.9507690">
        <ele>527.5</ele>
        <time>2022-07-21T09:43:18Z</time>
      </trkpt>
      <trkpt lat="47.2573940" lon="6.9507580">
        <ele>527.6</ele>
        <time>2022-07-21T09:43:19Z</time>
      </trkpt>
      <trkpt lat="47.2573760" lon="6.9507500">
        <ele>527.7</ele>
        <time>2022-07-21T09:43:20Z</time>
      </trkpt>
      <trkpt lat="47.2573620" lon="6.9507470">
        <ele>527.8</ele>
        <time>2022-07-21T09:43:21Z</time>
      </trkpt>
      <trkpt lat="47.2573480" lon="6.9507430">
        <ele>527.9</ele>
        <time>2022-07-21T09:43:22Z</time>
      </trkpt>
      <trkpt lat="47.2573300" lon="6.9507350">
        <ele>528.1</ele>
        <time>2022-07-21T09:43:23Z</time>
      </trkpt>
      <trkpt lat="47.2573170" lon="6.9507210">
        <ele>528.2</ele>
        <time>2022-07-21T09:43:24Z</time>
      </trkpt>
      <trkpt lat="47.2573070" lon="6.9507130">
        <ele>528.3</ele>
        <time>2022-07-21T09:43:25Z</time>
      </trkpt>
      <trkpt lat="47.2572740" lon="6.9507010">
        <ele>528.5</ele>
        <time>2022-07-21T09:43:26Z</time>
      </trkpt>
      <trkpt lat="47.2572610" lon="6.9506980">
        <ele>528.6</ele>
        <time>2022-07-21T09:43:27Z</time>
      </trkpt>
      <trkpt lat="47.2572430" lon="6.9506960">
        <ele>528.8</ele>
        <time>2022-07-21T09:43:28Z</time>
      </trkpt>
      <trkpt lat="47.2572260" lon="6.9506950">
        <ele>528.9</ele>
        <time>2022-07-21T09:43:29Z</time>
      </trkpt>
      <trkpt lat="47.2571910" lon="6.9506890">
        <ele>529.1</ele>
        <time>2022-07-21T09:43:30Z</time>
      </trkpt>
      <trkpt lat="47.2571790" lon="6.9506850">
        <ele>529.2</ele>
        <time>2022-07-21T09:43:31Z</time>
      </trkpt>
      <trkpt lat="47.2571460" lon="6.9506680">
        <ele>529.5</ele>
        <time>2022-07-21T09:43:32Z</time>
      </trkpt>
      <trkpt lat="47.2571370" lon="6.9506620">
        <ele>529.6</ele>
        <time>2022-07-21T09:43:33Z</time>
      </trkpt>
      <trkpt lat="47.2571100" lon="6.9506470">
        <ele>529.7</ele>
        <time>2022-07-21T09:43:34Z</time>
      </trkpt>
      <trkpt lat="47.2570820" lon="6.9506340">
        <ele>529.8</ele>
        <time>2022-07-21T09:43:35Z</time>
      </trkpt>
      <trkpt lat="47.2570530" lon="6.9506250">
        <ele>529.9</ele>
        <time>2022-07-21T09:43:36Z</time>
      </trkpt>
      <trkpt lat="47.2570180" lon="6.9506160">
        <ele>530.0</ele>
        <time>2022-07-21T09:43:37Z</time>
      </trkpt>
      <trkpt lat="47.2569910" lon="6.9506110">
        <ele>530.1</ele>
        <time>2022-07-21T09:43:38Z</time>
      </trkpt>
      <trkpt lat="47.2569580" lon="6.9506010">
        <ele>530.1</ele>
        <time>2022-07-21T09:43:39Z</time>
      </trkpt>
      <trkpt lat="47.2569320" lon="6.9505910">
        <ele>530.1</ele>
        <time>2022-07-21T09:43:40Z</time>
      </trkpt>
      <trkpt lat="47.2569140" lon="6.9505830">
        <ele>530.2</ele>
        <time>2022-07-21T09:43:41Z</time>
      </trkpt>
      <trkpt lat="47.2568990" lon="6.9505770">
        <ele>530.2</ele>
        <time>2022-07-21T09:43:42Z</time>
      </trkpt>
      <trkpt lat="47.2568800" lon="6.9505710">
        <ele>530.2</ele>
        <time>2022-07-21T09:43:43Z</time>
      </trkpt>
      <trkpt lat="47.2568670" lon="6.9505670">
        <ele>530.2</ele>
        <time>2022-07-21T09:43:44Z</time>
      </trkpt>
      <trkpt lat="47.2568430" lon="6.9505620">
        <ele>530.3</ele>
        <time>2022-07-21T09:43:45Z</time>
      </trkpt>
      <trkpt lat="47.2568310" lon="6.9505610">
        <ele>530.3</ele>
        <time>2022-07-21T09:43:46Z</time>
      </trkpt>
      <trkpt lat="47.2567930" lon="6.9505620">
        <ele>530.3</ele>
        <time>2022-07-21T09:43:47Z</time>
      </trkpt>
      <trkpt lat="47.2567800" lon="6.9505630">
        <ele>530.4</ele>
        <time>2022-07-21T09:43:48Z</time>
      </trkpt>
      <trkpt lat="47.2567470" lon="6.9505620">
        <ele>530.4</ele>
        <time>2022-07-21T09:43:49Z</time>
      </trkpt>
      <trkpt lat="47.2567110" lon="6.9505560">
        <ele>530.5</ele>
        <time>2022-07-21T09:43:50Z</time>
      </trkpt>
      <trkpt lat="47.2566790" lon="6.9505490">
        <ele>530.5</ele>
        <time>2022-07-21T09:43:51Z</time>
      </trkpt>
      <trkpt lat="47.2566530" lon="6.9505400">
        <ele>530.6</ele>
        <time>2022-07-21T09:43:52Z</time>
      </trkpt>
      <trkpt lat="47.2566210" lon="6.9505270">
        <ele>530.6</ele>
        <time>2022-07-21T09:43:53Z</time>
      </trkpt>
      <trkpt lat="47.2566100" lon="6.9505220">
        <ele>530.6</ele>
        <time>2022-07-21T09:43:54Z</time>
      </trkpt>
      <trkpt lat="47.2565700" lon="6.9505050">
        <ele>530.7</ele>
        <time>2022-07-21T09:43:55Z</time>
      </trkpt>
      <trkpt lat="47.2565340" lon="6.9504910">
        <ele>530.8</ele>
        <time>2022-07-21T09:43:56Z</time>
      </trkpt>
      <trkpt lat="47.2564970" lon="6.9504750">
        <ele>530.8</ele>
        <time>2022-07-21T09:43:57Z</time>
      </trkpt>
      <trkpt lat="47.2564510" lon="6.9504560">
        <ele>530.9</ele>
        <time>2022-07-21T09:43:58Z</time>
      </trkpt>
      <trkpt lat="47.2564250" lon="6.9504430">
        <ele>530.9</ele>
        <time>2022-07-21T09:43:59Z</time>
      </trkpt>
      <trkpt lat="47.2563930" lon="6.9504240">
        <ele>531.0</ele>
        <time>2022-07-21T09:44:00Z</time>
      </trkpt>
      <trkpt lat="47.2563670" lon="6.9504030">
        <ele>531.0</ele>
        <time>2022-07-21T09:44:01Z</time>
      </trkpt>
      <trkpt lat="47.2563380" lon="6.9503810">
        <ele>531.1</ele>
        <time>2022-07-21T09:44:02Z</time>
      </trkpt>
      <trkpt lat="47.2563130" lon="6.9503630">
        <ele>531.1</ele>
        <time>2022-07-21T09:44:03Z</time>
      </trkpt>
      <trkpt lat="47.2562880" lon="6.9503460">
        <ele>531.2</ele>
        <time>2022-07-21T09:44:04Z</time>
      </trkpt>
      <trkpt lat="47.2562580" lon="6.9503280">
        <ele>531.2</ele>
        <time>2022-07-21T09:44:05Z</time>
      </trkpt>
      <trkpt lat="47.2562280" lon="6.9503130">
        <ele>531.3</ele>
        <time>2022-07-21T09:44:06Z</time>
      </trkpt>
      <trkpt lat="47.2561960" lon="6.9503010">
        <ele>531.3</ele>
        <time>2022-07-21T09:44:07Z</time>
      </trkpt>
      <trkpt lat="47.2561620" lon="6.9502860">
        <ele>531.4</ele>
        <time>2022-07-21T09:44:08Z</time>
      </trkpt>
      <trkpt lat="47.2561350" lon="6.9502600">
        <ele>531.5</ele>
        <time>2022-07-21T09:44:09Z</time>
      </trkpt>
      <trkpt lat="47.2561240" lon="6.9502490">
        <ele>531.5</ele>
        <time>2022-07-21T09:44:10Z</time>
      </trkpt>
      <trkpt lat="47.2561030" lon="6.9502220">
        <ele>531.6</ele>
        <time>2022-07-21T09:44:11Z</time>
      </trkpt>
      <trkpt lat="47.2560710" lon="6.9501880">
        <ele>531.7</ele>
        <time>2022-07-21T09:44:12Z</time>
      </trkpt>
      <trkpt lat="47.2560600" lon="6.9501770">
        <ele>531.7</ele>
        <time>2022-07-21T09:44:13Z</time>
      </trkpt>
      <trkpt lat="47.2560250" lon="6.9501490">
        <ele>531.9</ele>
        <time>2022-07-21T09:44:14Z</time>
      </trkpt>
      <trkpt lat="47.2560010" lon="6.9501290">
        <ele>532.0</ele>
        <time>2022-07-21T09:44:15Z</time>
      </trkpt>
      <trkpt lat="47.2559840" lon="6.9501150">
        <ele>532.0</ele>
        <time>2022-07-21T09:44:16Z</time>
      </trkpt>
      <trkpt lat="47.2559710" lon="6.9501020">
        <ele>532.1</ele>
        <time>2022-07-21T09:44:17Z</time>
      </trkpt>
      <trkpt lat="47.2559490" lon="6.9500810">
        <ele>532.2</ele>
        <time>2022-07-21T09:44:18Z</time>
      </trkpt>
      <trkpt lat="47.2559400" lon="6.9500720">
        <ele>532.3</ele>
        <time>2022-07-21T09:44:19Z</time>
      </trkpt>
      <trkpt lat="47.2559070" lon="6.9500520">
        <ele>532.4</ele>
        <time>2022-07-21T09:44:20Z</time>
      </trkpt>
      <trkpt lat="47.2558980" lon="6.9500480">
        <ele>532.5</ele>
        <time>2022-07-21T09:44:21Z</time>
      </trkpt>
      <trkpt lat="47.2558570" lon="6.9500380">
        <ele>532.7</ele>
        <time>2022-07-21T09:44:22Z</time>
      </trkpt>
      <trkpt lat="47.2558400" lon="6.9500360">
        <ele>532.8</ele>
        <time>2022-07-21T09:44:23Z</time>
      </trkpt>
      <trkpt lat="47.2558070" lon="6.9500370">
        <ele>532.9</ele>
        <time>2022-07-21T09:44:24Z</time>
      </trkpt>
      <trkpt lat="47.2557950" lon="6.9500380">
        <ele>533.0</ele>
        <time>2022-07-21T09:44:25Z</time>
      </trkpt>
      <trkpt lat="47.2557660" lon="6.9500390">
        <ele>533.1</ele>
        <time>2022-07-21T09:44:26Z</time>
      </trkpt>
      <trkpt lat="47.2557280" lon="6.9500370">
        <ele>533.3</ele>
        <time>2022-07-21T09:44:27Z</time>
      </trkpt>
      <trkpt lat="47.2557170" lon="6.9500350">
        <ele>533.4</ele>
        <time>2022-07-21T09:44:28Z</time>
      </trkpt>
      <trkpt lat="47.2556790" lon="6.9500340">
        <ele>533.6</ele>
        <time>2022-07-21T09:44:29Z</time>
      </trkpt>
      <trkpt lat="47.2556650" lon="6.9500330">
        <ele>533.7</ele>
        <time>2022-07-21T09:44:30Z</time>
      </trkpt>
      <trkpt lat="47.2556300" lon="6.9500340">
        <ele>533.9</ele>
        <time>2022-07-21T09:44:31Z</time>
      </trkpt>
      <trkpt lat="47.2556170" lon="6.9500340">
        <ele>533.9</ele>
        <time>2022-07-21T09:44:32Z</time>
      </trkpt>
      <trkpt lat="47.2555960" lon="6.9500240">
        <ele>534.0</ele>
        <time>2022-07-21T09:44:33Z</time>
      </trkpt>
      <trkpt lat="47.2555890" lon="6.9500170">
        <ele>534.1</ele>
        <time>2022-07-21T09:44:34Z</time>
      </trkpt>
      <trkpt lat="47.2555810" lon="6.9500100">
        <ele>534.1</ele>
        <time>2022-07-21T09:44:35Z</time>
      </trkpt>
      <trkpt lat="47.2555520" lon="6.9499870">
        <ele>534.3</ele>
        <time>2022-07-21T09:44:36Z</time>
      </trkpt>
      <trkpt lat="47.2555430" lon="6.9499790">
        <ele>534.4</ele>
        <time>2022-07-21T09:44:37Z</time>
      </trkpt>
      <trkpt lat="47.2555130" lon="6.9499610">
        <ele>534.5</ele>
        <time>2022-07-21T09:44:38Z</time>
      </trkpt>
      <trkpt lat="47.2555030" lon="6.9499540">
        <ele>534.6</ele>
        <time>2022-07-21T09:44:39Z</time>
      </trkpt>
      <trkpt lat="47.2554720" lon="6.9499380">
        <ele>534.7</ele>
        <time>2022-07-21T09:44:40Z</time>
      </trkpt>
      <trkpt lat="47.2554610" lon="6.9499330">
        <ele>534.8</ele>
        <time>2022-07-21T09:44:41Z</time>
      </trkpt>
      <trkpt lat="47.2554340" lon="6.9499190">
        <ele>535.0</ele>
        <time>2022-07-21T09:44:42Z</time>
      </trkpt>
      <trkpt lat="47.2554240" lon="6.9499140">
        <ele>535.0</ele>
        <time>2022-07-21T09:44:43Z</time>
      </trkpt>
      <trkpt lat="47.2553960" lon="6.9499000">
        <ele>535.2</ele>
        <time>2022-07-21T09:44:44Z</time>
      </trkpt>
      <trkpt lat="47.2553610" lon="6.9498830">
        <ele>535.3</ele>
        <time>2022-07-21T09:44:45Z</time>
      </trkpt>
      <trkpt lat="47.2553510" lon="6.9498770">
        <ele>535.4</ele>
        <time>2022-07-21T09:44:46Z</time>
      </trkpt>
      <trkpt lat="47.2553220" lon="6.9498560">
        <ele>535.6</ele>
        <time>2022-07-21T09:44:47Z</time>
      </trkpt>
      <trkpt lat="47.2552910" lon="6.9498260">
        <ele>535.8</ele>
        <time>2022-07-21T09:44:49Z</time>
      </trkpt>
      <trkpt lat="47.2552640" lon="6.9498070">
        <ele>535.9</ele>
        <time>2022-07-21T09:44:51Z</time>
      </trkpt>
      <trkpt lat="47.2552320" lon="6.9497870">
        <ele>536.1</ele>
        <time>2022-07-21T09:44:52Z</time>
      </trkpt>
      <trkpt lat="47.2552130" lon="6.9497800">
        <ele>536.2</ele>
        <time>2022-07-21T09:44:53Z</time>
      </trkpt>
      <trkpt lat="47.2551920" lon="6.9497690">
        <ele>536.3</ele>
        <time>2022-07-21T09:44:55Z</time>
      </trkpt>
      <trkpt lat="47.2551670" lon="6.9497510">
        <ele>536.4</ele>
        <time>2022-07-21T09:44:56Z</time>
      </trkpt>
      <trkpt lat="47.2551370" lon="6.9497320">
        <ele>536.6</ele>
        <time>2022-07-21T09:44:57Z</time>
      </trkpt>
      <trkpt lat="47.2551000" lon="6.9497080">
        <ele>536.8</ele>
        <time>2022-07-21T09:44:59Z</time>
      </trkpt>
      <trkpt lat="47.2550900" lon="6.9496980">
        <ele>536.9</ele>
        <time>2022-07-21T09:45:00Z</time>
      </trkpt>
      <trkpt lat="47.2550790" lon="6.9496890">
        <ele>536.9</ele>
        <time>2022-07-21T09:45:01Z</time>
      </trkpt>
      <trkpt lat="47.2550390" lon="6.9496550">
        <ele>537.1</ele>
        <time>2022-07-21T09:45:03Z</time>
      </trkpt>
      <trkpt lat="47.2550080" lon="6.9496310">
        <ele>537.3</ele>
        <time>2022-07-21T09:45:04Z</time>
      </trkpt>
      <trkpt lat="47.2549990" lon="6.9496220">
        <ele>537.3</ele>
        <time>2022-07-21T09:45:05Z</time>
      </trkpt>
      <trkpt lat="47.2549670" lon="6.9495900">
        <ele>537.5</ele>
        <time>2022-07-21T09:45:06Z</time>
      </trkpt>
      <trkpt lat="47.2549550" lon="6.9495750">
        <ele>537.6</ele>
        <time>2022-07-21T09:45:07Z</time>
      </trkpt>
      <trkpt lat="47.2549430" lon="6.9495430">
        <ele>537.6</ele>
        <time>2022-07-21T09:45:08Z</time>
      </trkpt>
      <trkpt lat="47.2549240" lon="6.9494920">
        <ele>537.8</ele>
        <time>2022-07-21T09:45:10Z</time>
      </trkpt>
      <trkpt lat="47.2549030" lon="6.9494450">
        <ele>537.9</ele>
        <time>2022-07-21T09:45:11Z</time>
      </trkpt>
      <trkpt lat="47.2548960" lon="6.9494290">
        <ele>537.9</ele>
        <time>2022-07-21T09:45:12Z</time>
      </trkpt>
      <trkpt lat="47.2548780" lon="6.9493950">
        <ele>538.0</ele>
        <time>2022-07-21T09:45:13Z</time>
      </trkpt>
      <trkpt lat="47.2548740" lon="6.9493860">
        <ele>538.0</ele>
        <time>2022-07-21T09:45:14Z</time>
      </trkpt>
      <trkpt lat="47.2548620" lon="6.9493640">
        <ele>538.1</ele>
        <time>2022-07-21T09:45:15Z</time>
      </trkpt>
      <trkpt lat="47.2548510" lon="6.9493440">
        <ele>538.1</ele>
        <time>2022-07-21T09:45:16Z</time>
      </trkpt>
      <trkpt lat="47.2548280" lon="6.9493020">
        <ele>538.2</ele>
        <time>2022-07-21T09:45:17Z</time>
      </trkpt>
      <trkpt lat="47.2548210" lon="6.9492880">
        <ele>538.2</ele>
        <time>2022-07-21T09:45:18Z</time>
      </trkpt>
      <trkpt lat="47.2547990" lon="6.9492470">
        <ele>538.2</ele>
        <time>2022-07-21T09:45:19Z</time>
      </trkpt>
      <trkpt lat="47.2547910" lon="6.9492290">
        <ele>538.3</ele>
        <time>2022-07-21T09:45:20Z</time>
      </trkpt>
      <trkpt lat="47.2547710" lon="6.9491910">
        <ele>538.3</ele>
        <time>2022-07-21T09:45:21Z</time>
      </trkpt>
      <trkpt lat="47.2547480" lon="6.9491520">
        <ele>538.3</ele>
        <time>2022-07-21T09:45:22Z</time>
      </trkpt>
      <trkpt lat="47.2547220" lon="6.9491140">
        <ele>538.3</ele>
        <time>2022-07-21T09:45:23Z</time>
      </trkpt>
      <trkpt lat="47.2546930" lon="6.9490660">
        <ele>538.3</ele>
        <time>2022-07-21T09:45:24Z</time>
      </trkpt>
      <trkpt lat="47.2546650" lon="6.9490090">
        <ele>538.3</ele>
        <time>2022-07-21T09:45:26Z</time>
      </trkpt>
      <trkpt lat="47.2546400" lon="6.9489650">
        <ele>538.3</ele>
        <time>2022-07-21T09:45:27Z</time>
      </trkpt>
      <trkpt lat="47.2546140" lon="6.9489300">
        <ele>538.3</ele>
        <time>2022-07-21T09:45:28Z</time>
      </trkpt>
      <trkpt lat="47.2545780" lon="6.9488790">
        <ele>538.4</ele>
        <time>2022-07-21T09:45:30Z</time>
      </trkpt>
      <trkpt lat="47.2545570" lon="6.9488430">
        <ele>538.4</ele>
        <time>2022-07-21T09:45:31Z</time>
      </trkpt>
      <trkpt lat="47.2545360" lon="6.9488140">
        <ele>538.4</ele>
        <time>2022-07-21T09:45:32Z</time>
      </trkpt>
      <trkpt lat="47.2545000" lon="6.9487700">
        <ele>538.3</ele>
        <time>2022-07-21T09:45:33Z</time>
      </trkpt>
      <trkpt lat="47.2544740" lon="6.9487450">
        <ele>538.3</ele>
        <time>2022-07-21T09:45:34Z</time>
      </trkpt>
      <trkpt lat="47.2544530" lon="6.9487250">
        <ele>538.3</ele>
        <time>2022-07-21T09:45:35Z</time>
      </trkpt>
      <trkpt lat="47.2544210" lon="6.9486990">
        <ele>538.3</ele>
        <time>2022-07-21T09:45:37Z</time>
      </trkpt>
      <trkpt lat="47.2543790" lon="6.9486690">
        <ele>538.2</ele>
        <time>2022-07-21T09:45:38Z</time>
      </trkpt>
      <trkpt lat="47.2543480" lon="6.9486540">
        <ele>538.2</ele>
        <time>2022-07-21T09:45:40Z</time>
      </trkpt>
      <trkpt lat="47.2543190" lon="6.9486370">
        <ele>538.2</ele>
        <time>2022-07-21T09:45:41Z</time>
      </trkpt>
      <trkpt lat="47.2542800" lon="6.9486140">
        <ele>538.1</ele>
        <time>2022-07-21T09:45:42Z</time>
      </trkpt>
      <trkpt lat="47.2542640" lon="6.9486040">
        <ele>538.1</ele>
        <time>2022-07-21T09:45:43Z</time>
      </trkpt>
      <trkpt lat="47.2542350" lon="6.9485880">
        <ele>538.0</ele>
        <time>2022-07-21T09:45:44Z</time>
      </trkpt>
      <trkpt lat="47.2542030" lon="6.9485690">
        <ele>537.9</ele>
        <time>2022-07-21T09:45:45Z</time>
      </trkpt>
      <trkpt lat="47.2541590" lon="6.9485460">
        <ele>537.8</ele>
        <time>2022-07-21T09:45:47Z</time>
      </trkpt>
      <trkpt lat="47.2540940" lon="6.9485050">
        <ele>537.6</ele>
        <time>2022-07-21T09:45:48Z</time>
      </trkpt>
      <trkpt lat="47.2540500" lon="6.9484820">
        <ele>537.5</ele>
        <time>2022-07-21T09:45:49Z</time>
      </trkpt>
      <trkpt lat="47.2540000" lon="6.9484590">
        <ele>537.3</ele>
        <time>2022-07-21T09:45:50Z</time>
      </trkpt>
      <trkpt lat="47.2539480" lon="6.9484440">
        <ele>537.2</ele>
        <time>2022-07-21T09:45:51Z</time>
      </trkpt>
      <trkpt lat="47.2538980" lon="6.9484350">
        <ele>537.0</ele>
        <time>2022-07-21T09:45:52Z</time>
      </trkpt>
      <trkpt lat="47.2538490" lon="6.9484350">
        <ele>536.9</ele>
        <time>2022-07-21T09:45:53Z</time>
      </trkpt>
      <trkpt lat="47.2538000" lon="6.9484370">
        <ele>536.8</ele>
        <time>2022-07-21T09:45:54Z</time>
      </trkpt>
      <trkpt lat="47.2537520" lon="6.9484320">
        <ele>536.6</ele>
        <time>2022-07-21T09:45:55Z</time>
      </trkpt>
      <trkpt lat="47.2537080" lon="6.9484220">
        <ele>536.5</ele>
        <time>2022-07-21T09:45:56Z</time>
      </trkpt>
      <trkpt lat="47.2536610" lon="6.9484150">
        <ele>536.5</ele>
        <time>2022-07-21T09:45:57Z</time>
      </trkpt>
      <trkpt lat="47.2536120" lon="6.9484070">
        <ele>536.4</ele>
        <time>2022-07-21T09:45:58Z</time>
      </trkpt>
      <trkpt lat="47.2535630" lon="6.9483990">
        <ele>536.3</ele>
        <time>2022-07-21T09:45:59Z</time>
      </trkpt>
      <trkpt lat="47.2535230" lon="6.9483880">
        <ele>536.3</ele>
        <time>2022-07-21T09:46:00Z</time>
      </trkpt>
      <trkpt lat="47.2534780" lon="6.9483750">
        <ele>536.3</ele>
        <time>2022-07-21T09:46:01Z</time>
      </trkpt>
      <trkpt lat="47.2534370" lon="6.9483650">
        <ele>536.3</ele>
        <time>2022-07-21T09:46:02Z</time>
      </trkpt>
      <trkpt lat="47.2533810" lon="6.9483570">
        <ele>536.2</ele>
        <time>2022-07-21T09:46:03Z</time>
      </trkpt>
      <trkpt lat="47.2533280" lon="6.9483620">
        <ele>536.2</ele>
        <time>2022-07-21T09:46:05Z</time>
      </trkpt>
      <trkpt lat="47.2532880" lon="6.9483630">
        <ele>536.1</ele>
        <time>2022-07-21T09:46:06Z</time>
      </trkpt>
      <trkpt lat="47.2532280" lon="6.9483980">
        <ele>536.0</ele>
        <time>2022-07-21T09:46:08Z</time>
      </trkpt>
      <trkpt lat="47.2531880" lon="6.9484230">
        <ele>535.9</ele>
        <time>2022-07-21T09:46:09Z</time>
      </trkpt>
      <trkpt lat="47.2531420" lon="6.9484430">
        <ele>535.7</ele>
        <time>2022-07-21T09:46:10Z</time>
      </trkpt>
      <trkpt lat="47.2530780" lon="6.9484490">
        <ele>535.4</ele>
        <time>2022-07-21T09:46:11Z</time>
      </trkpt>
      <trkpt lat="47.2530240" lon="6.9484380">
        <ele>535.1</ele>
        <time>2022-07-21T09:46:12Z</time>
      </trkpt>
      <trkpt lat="47.2529710" lon="6.9484210">
        <ele>534.8</ele>
        <time>2022-07-21T09:46:13Z</time>
      </trkpt>
      <trkpt lat="47.2529140" lon="6.9483970">
        <ele>534.5</ele>
        <time>2022-07-21T09:46:14Z</time>
      </trkpt>
      <trkpt lat="47.2528650" lon="6.9483670">
        <ele>534.3</ele>
        <time>2022-07-21T09:46:15Z</time>
      </trkpt>
      <trkpt lat="47.2528190" lon="6.9483390">
        <ele>534.0</ele>
        <time>2022-07-21T09:46:16Z</time>
      </trkpt>
      <trkpt lat="47.2527600" lon="6.9483070">
        <ele>533.7</ele>
        <time>2022-07-21T09:46:17Z</time>
      </trkpt>
      <trkpt lat="47.2526910" lon="6.9482860">
        <ele>533.4</ele>
        <time>2022-07-21T09:46:18Z</time>
      </trkpt>
      <trkpt lat="47.2526370" lon="6.9482760">
        <ele>533.1</ele>
        <time>2022-07-21T09:46:19Z</time>
      </trkpt>
      <trkpt lat="47.2525970" lon="6.9482670">
        <ele>532.9</ele>
        <time>2022-07-21T09:46:20Z</time>
      </trkpt>
      <trkpt lat="47.2525560" lon="6.9482550">
        <ele>532.7</ele>
        <time>2022-07-21T09:46:21Z</time>
      </trkpt>
      <trkpt lat="47.2525360" lon="6.9482490">
        <ele>532.6</ele>
        <time>2022-07-21T09:46:22Z</time>
      </trkpt>
      <trkpt lat="47.2525080" lon="6.9482470">
        <ele>532.5</ele>
        <time>2022-07-21T09:46:23Z</time>
      </trkpt>
      <trkpt lat="47.2524770" lon="6.9482510">
        <ele>532.3</ele>
        <time>2022-07-21T09:46:24Z</time>
      </trkpt>
      <trkpt lat="47.2524680" lon="6.9482520">
        <ele>532.2</ele>
        <time>2022-07-21T09:46:25Z</time>
      </trkpt>
      <trkpt lat="47.2524500" lon="6.9482550">
        <ele>532.1</ele>
        <time>2022-07-21T09:46:26Z</time>
      </trkpt>
      <trkpt lat="47.2524380" lon="6.9482460">
        <ele>532.0</ele>
        <time>2022-07-21T09:46:27Z</time>
      </trkpt>
      <trkpt lat="47.2524230" lon="6.9482480">
        <ele>531.9</ele>
        <time>2022-07-21T09:46:28Z</time>
      </trkpt>
      <trkpt lat="47.2524030" lon="6.9482490">
        <ele>531.8</ele>
        <time>2022-07-21T09:46:29Z</time>
      </trkpt>
      <trkpt lat="47.2523890" lon="6.9482490">
        <ele>531.7</ele>
        <time>2022-07-21T09:46:30Z</time>
      </trkpt>
      <trkpt lat="47.2523850" lon="6.9482500">
        <ele>531.6</ele>
        <time>2022-07-21T09:46:31Z</time>
      </trkpt>
      <trkpt lat="47.2523870" lon="6.9482520">
        <ele>531.6</ele>
        <time>2022-07-21T09:46:32Z</time>
      </trkpt>
      <trkpt lat="47.2523880" lon="6.9482530">
        <ele>531.6</ele>
        <time>2022-07-21T09:46:33Z</time>
      </trkpt>
      <trkpt lat="47.2523870" lon="6.9482570">
        <ele>531.6</ele>
        <time>2022-07-21T09:46:34Z</time>
      </trkpt>
      <trkpt lat="47.2523870" lon="6.9482660">
        <ele>531.5</ele>
        <time>2022-07-21T09:46:35Z</time>
      </trkpt>
      <trkpt lat="47.2523940" lon="6.9482780">
        <ele>531.4</ele>
        <time>2022-07-21T09:46:36Z</time>
      </trkpt>
      <trkpt lat="47.2524000" lon="6.9482860">
        <ele>531.3</ele>
        <time>2022-07-21T09:46:37Z</time>
      </trkpt>
      <trkpt lat="47.2524030" lon="6.9482890">
        <ele>531.3</ele>
        <time>2022-07-21T09:46:38Z</time>
      </trkpt>
      <trkpt lat="47.2524000" lon="6.9482920">
        <ele>531.3</ele>
        <time>2022-07-21T09:46:39Z</time>
      </trkpt>
      <trkpt lat="47.2523940" lon="6.9482950">
        <ele>531.2</ele>
        <time>2022-07-21T09:46:40Z</time>
      </trkpt>
      <trkpt lat="47.2523890" lon="6.9482970">
        <ele>531.2</ele>
        <time>2022-07-21T09:46:41Z</time>
      </trkpt>
      <trkpt lat="47.2523830" lon="6.9482990">
        <ele>531.1</ele>
        <time>2022-07-21T09:46:42Z</time>
      </trkpt>
      <trkpt lat="47.2523780" lon="6.9483020">
        <ele>531.0</ele>
        <time>2022-07-21T09:46:43Z</time>
      </trkpt>
      <trkpt lat="47.2523720" lon="6.9483040">
        <ele>531.0</ele>
        <time>2022-07-21T09:46:44Z</time>
      </trkpt>
      <trkpt lat="47.2523670" lon="6.9483060">
        <ele>530.9</ele>
        <time>2022-07-21T09:46:45Z</time>
      </trkpt>
      <trkpt lat="47.2523610" lon="6.9483090">
        <ele>530.9</ele>
        <time>2022-07-21T09:46:46Z</time>
      </trkpt>
      <trkpt lat="47.2523550" lon="6.9483110">
        <ele>530.8</ele>
        <time>2022-07-21T09:46:47Z</time>
      </trkpt>
      <trkpt lat="47.2523500" lon="6.9483140">
        <ele>530.7</ele>
        <time>2022-07-21T09:46:48Z</time>
      </trkpt>
      <trkpt lat="47.2523440" lon="6.9483160">
        <ele>530.7</ele>
        <time>2022-07-21T09:46:49Z</time>
      </trkpt>
      <trkpt lat="47.2523390" lon="6.9483180">
        <ele>530.6</ele>
        <time>2022-07-21T09:46:50Z</time>
      </trkpt>
      <trkpt lat="47.2523330" lon="6.9483210">
        <ele>530.6</ele>
        <time>2022-07-21T09:46:51Z</time>
      </trkpt>
      <trkpt lat="47.2523280" lon="6.9483230">
        <ele>530.5</ele>
        <time>2022-07-21T09:46:52Z</time>
      </trkpt>
      <trkpt lat="47.2523220" lon="6.9483250">
        <ele>530.2</ele>
        <time>2022-07-21T09:47:00Z</time>
      </trkpt>
      <trkpt lat="47.2523160" lon="6.9483280">
        <ele>530.1</ele>
        <time>2022-07-21T09:47:01Z</time>
      </trkpt>
      <trkpt lat="47.2523110" lon="6.9483300">
        <ele>530.1</ele>
        <time>2022-07-21T09:47:02Z</time>
      </trkpt>
      <trkpt lat="47.2522780" lon="6.9483190">
        <ele>529.7</ele>
        <time>2022-07-21T09:47:03Z</time>
      </trkpt>
      <trkpt lat="47.2522430" lon="6.9482950">
        <ele>529.2</ele>
        <time>2022-07-21T09:47:04Z</time>
      </trkpt>
      <trkpt lat="47.2522090" lon="6.9482570">
        <ele>528.8</ele>
        <time>2022-07-21T09:47:05Z</time>
      </trkpt>
      <trkpt lat="47.2521740" lon="6.9482200">
        <ele>528.3</ele>
        <time>2022-07-21T09:47:06Z</time>
      </trkpt>
      <trkpt lat="47.2521350" lon="6.9481790">
        <ele>527.8</ele>
        <time>2022-07-21T09:47:07Z</time>
      </trkpt>
      <trkpt lat="47.2521050" lon="6.9481510">
        <ele>527.4</ele>
        <time>2022-07-21T09:47:08Z</time>
      </trkpt>
      <trkpt lat="47.2520790" lon="6.9481320">
        <ele>527.1</ele>
        <time>2022-07-21T09:47:09Z</time>
      </trkpt>
      <trkpt lat="47.2520690" lon="6.9481260">
        <ele>527.0</ele>
        <time>2022-07-21T09:47:10Z</time>
      </trkpt>
      <trkpt lat="47.2520400" lon="6.9481010">
        <ele>526.7</ele>
        <time>2022-07-21T09:47:11Z</time>
      </trkpt>
      <trkpt lat="47.2520130" lon="6.9480720">
        <ele>526.3</ele>
        <time>2022-07-21T09:47:12Z</time>
      </trkpt>
      <trkpt lat="47.2519860" lon="6.9480450">
        <ele>525.9</ele>
        <time>2022-07-21T09:47:13Z</time>
      </trkpt>
      <trkpt lat="47.2519570" lon="6.9480170">
        <ele>525.6</ele>
        <time>2022-07-21T09:47:14Z</time>
      </trkpt>
      <trkpt lat="47.2519240" lon="6.9479920">
        <ele>525.1</ele>
        <time>2022-07-21T09:47:15Z</time>
      </trkpt>
      <trkpt lat="47.2519100" lon="6.9479830">
        <ele>525.0</ele>
        <time>2022-07-21T09:47:16Z</time>
      </trkpt>
      <trkpt lat="47.2518750" lon="6.9479680">
        <ele>524.6</ele>
        <time>2022-07-21T09:47:17Z</time>
      </trkpt>
      <trkpt lat="47.2518470" lon="6.9479670">
        <ele>524.2</ele>
        <time>2022-07-21T09:47:18Z</time>
      </trkpt>
      <trkpt lat="47.2518200" lon="6.9479730">
        <ele>523.9</ele>
        <time>2022-07-21T09:47:19Z</time>
      </trkpt>
      <trkpt lat="47.2517860" lon="6.9479970">
        <ele>523.4</ele>
        <time>2022-07-21T09:47:20Z</time>
      </trkpt>
      <trkpt lat="47.2517750" lon="6.9480080">
        <ele>523.3</ele>
        <time>2022-07-21T09:47:21Z</time>
      </trkpt>
      <trkpt lat="47.2517510" lon="6.9480310">
        <ele>522.9</ele>
        <time>2022-07-21T09:47:22Z</time>
      </trkpt>
      <trkpt lat="47.2517140" lon="6.9480580">
        <ele>522.4</ele>
        <time>2022-07-21T09:47:23Z</time>
      </trkpt>
      <trkpt lat="47.2517010" lon="6.9480670">
        <ele>522.3</ele>
        <time>2022-07-21T09:47:24Z</time>
      </trkpt>
      <trkpt lat="47.2516670" lon="6.9480850">
        <ele>521.8</ele>
        <time>2022-07-21T09:47:25Z</time>
      </trkpt>
      <trkpt lat="47.2516290" lon="6.9480970">
        <ele>521.4</ele>
        <time>2022-07-21T09:47:26Z</time>
      </trkpt>
      <trkpt lat="47.2515800" lon="6.9480930">
        <ele>520.8</ele>
        <time>2022-07-21T09:47:27Z</time>
      </trkpt>
      <trkpt lat="47.2515250" lon="6.9480700">
        <ele>520.2</ele>
        <time>2022-07-21T09:47:28Z</time>
      </trkpt>
      <trkpt lat="47.2514590" lon="6.9480400">
        <ele>519.5</ele>
        <time>2022-07-21T09:47:29Z</time>
      </trkpt>
      <trkpt lat="47.2514100" lon="6.9480150">
        <ele>519.0</ele>
        <time>2022-07-21T09:47:30Z</time>
      </trkpt>
      <trkpt lat="47.2513850" lon="6.9480000">
        <ele>518.8</ele>
        <time>2022-07-21T09:47:31Z</time>
      </trkpt>
      <trkpt lat="47.2513540" lon="6.9479830">
        <ele>518.5</ele>
        <time>2022-07-21T09:47:32Z</time>
      </trkpt>
      <trkpt lat="47.2513160" lon="6.9479590">
        <ele>518.2</ele>
        <time>2022-07-21T09:47:33Z</time>
      </trkpt>
      <trkpt lat="47.2512940" lon="6.9479340">
        <ele>518.0</ele>
        <time>2022-07-21T09:47:34Z</time>
      </trkpt>
      <trkpt lat="47.2512740" lon="6.9478950">
        <ele>517.7</ele>
        <time>2022-07-21T09:47:35Z</time>
      </trkpt>
      <trkpt lat="47.2512450" lon="6.9478550">
        <ele>517.4</ele>
        <time>2022-07-21T09:47:36Z</time>
      </trkpt>
      <trkpt lat="47.2512340" lon="6.9478390">
        <ele>517.3</ele>
        <time>2022-07-21T09:47:37Z</time>
      </trkpt>
      <trkpt lat="47.2512240" lon="6.9478180">
        <ele>517.2</ele>
        <time>2022-07-21T09:47:38Z</time>
      </trkpt>
      <trkpt lat="47.2512140" lon="6.9477990">
        <ele>517.0</ele>
        <time>2022-07-21T09:47:39Z</time>
      </trkpt>
      <trkpt lat="47.2512050" lon="6.9477810">
        <ele>516.9</ele>
        <time>2022-07-21T09:47:40Z</time>
      </trkpt>
      <trkpt lat="47.2511960" lon="6.9477640">
        <ele>516.8</ele>
        <time>2022-07-21T09:47:41Z</time>
      </trkpt>
      <trkpt lat="47.2511750" lon="6.9477350">
        <ele>516.6</ele>
        <time>2022-07-21T09:47:42Z</time>
      </trkpt>
      <trkpt lat="47.2511400" lon="6.9476910">
        <ele>516.3</ele>
        <time>2022-07-21T09:47:43Z</time>
      </trkpt>
      <trkpt lat="47.2511070" lon="6.9476530">
        <ele>516.0</ele>
        <time>2022-07-21T09:47:44Z</time>
      </trkpt>
      <trkpt lat="47.2510760" lon="6.9476210">
        <ele>515.7</ele>
        <time>2022-07-21T09:47:45Z</time>
      </trkpt>
      <trkpt lat="47.2510470" lon="6.9475950">
        <ele>515.4</ele>
        <time>2022-07-21T09:47:46Z</time>
      </trkpt>
      <trkpt lat="47.2510070" lon="6.9475680">
        <ele>515.0</ele>
        <time>2022-07-21T09:47:47Z</time>
      </trkpt>
      <trkpt lat="47.2509690" lon="6.9475510">
        <ele>514.6</ele>
        <time>2022-07-21T09:47:48Z</time>
      </trkpt>
      <trkpt lat="47.2509310" lon="6.9475450">
        <ele>514.3</ele>
        <time>2022-07-21T09:47:49Z</time>
      </trkpt>
      <trkpt lat="47.2508930" lon="6.9475480">
        <ele>513.9</ele>
        <time>2022-07-21T09:47:50Z</time>
      </trkpt>
      <trkpt lat="47.2508560" lon="6.9475640">
        <ele>513.5</ele>
        <time>2022-07-21T09:47:51Z</time>
      </trkpt>
      <trkpt lat="47.2508120" lon="6.9475820">
        <ele>513.1</ele>
        <time>2022-07-21T09:47:52Z</time>
      </trkpt>
      <trkpt lat="47.2507730" lon="6.9475940">
        <ele>512.7</ele>
        <time>2022-07-21T09:47:53Z</time>
      </trkpt>
      <trkpt lat="47.2507410" lon="6.9475960">
        <ele>512.3</ele>
        <time>2022-07-21T09:47:54Z</time>
      </trkpt>
      <trkpt lat="47.2507100" lon="6.9475990">
        <ele>512.1</ele>
        <time>2022-07-21T09:47:55Z</time>
      </trkpt>
      <trkpt lat="47.2506810" lon="6.9476090">
        <ele>511.8</ele>
        <time>2022-07-21T09:47:56Z</time>
      </trkpt>
      <trkpt lat="47.2506750" lon="6.9476120">
        <ele>511.7</ele>
        <time>2022-07-21T09:47:57Z</time>
      </trkpt>
      <trkpt lat="47.2506410" lon="6.9476220">
        <ele>511.5</ele>
        <time>2022-07-21T09:47:58Z</time>
      </trkpt>
      <trkpt lat="47.2506300" lon="6.9476260">
        <ele>511.4</ele>
        <time>2022-07-21T09:47:59Z</time>
      </trkpt>
      <trkpt lat="47.2505940" lon="6.9476460">
        <ele>511.2</ele>
        <time>2022-07-21T09:48:00Z</time>
      </trkpt>
      <trkpt lat="47.2505820" lon="6.9476540">
        <ele>511.1</ele>
        <time>2022-07-21T09:48:01Z</time>
      </trkpt>
      <trkpt lat="47.2505640" lon="6.9476750">
        <ele>511.0</ele>
        <time>2022-07-21T09:48:02Z</time>
      </trkpt>
      <trkpt lat="47.2505590" lon="6.9476850">
        <ele>511.0</ele>
        <time>2022-07-21T09:48:03Z</time>
      </trkpt>
      <trkpt lat="47.2505530" lon="6.9476940">
        <ele>510.9</ele>
        <time>2022-07-21T09:48:04Z</time>
      </trkpt>
      <trkpt lat="47.2505230" lon="6.9477370">
        <ele>510.8</ele>
        <time>2022-07-21T09:48:05Z</time>
      </trkpt>
      <trkpt lat="47.2505100" lon="6.9477500">
        <ele>510.7</ele>
        <time>2022-07-21T09:48:06Z</time>
      </trkpt>
      <trkpt lat="47.2504760" lon="6.9477680">
        <ele>510.6</ele>
        <time>2022-07-21T09:48:07Z</time>
      </trkpt>
      <trkpt lat="47.2504470" lon="6.9477770">
        <ele>510.5</ele>
        <time>2022-07-21T09:48:08Z</time>
      </trkpt>
      <trkpt lat="47.2504130" lon="6.9477890">
        <ele>510.5</ele>
        <time>2022-07-21T09:48:09Z</time>
      </trkpt>
      <trkpt lat="47.2503860" lon="6.9478050">
        <ele>510.4</ele>
        <time>2022-07-21T09:48:10Z</time>
      </trkpt>
      <trkpt lat="47.2503620" lon="6.9478270">
        <ele>510.3</ele>
        <time>2022-07-21T09:48:11Z</time>
      </trkpt>
      <trkpt lat="47.2503400" lon="6.9478550">
        <ele>510.3</ele>
        <time>2022-07-21T09:48:12Z</time>
      </trkpt>
      <trkpt lat="47.2503200" lon="6.9478860">
        <ele>510.2</ele>
        <time>2022-07-21T09:48:13Z</time>
      </trkpt>
      <trkpt lat="47.2503010" lon="6.9479290">
        <ele>510.2</ele>
        <time>2022-07-21T09:48:14Z</time>
      </trkpt>
      <trkpt lat="47.2502950" lon="6.9479460">
        <ele>510.1</ele>
        <time>2022-07-21T09:48:15Z</time>
      </trkpt>
      <trkpt lat="47.2502880" lon="6.9479880">
        <ele>510.1</ele>
        <time>2022-07-21T09:48:16Z</time>
      </trkpt>
      <trkpt lat="47.2502870" lon="6.9479980">
        <ele>510.1</ele>
        <time>2022-07-21T09:48:17Z</time>
      </trkpt>
      <trkpt lat="47.2502570" lon="6.9480690">
        <ele>510.0</ele>
        <time>2022-07-21T09:48:19Z</time>
      </trkpt>
      <trkpt lat="47.2502470" lon="6.9480980">
        <ele>509.9</ele>
        <time>2022-07-21T09:48:20Z</time>
      </trkpt>
      <trkpt lat="47.2502360" lon="6.9481260">
        <ele>509.9</ele>
        <time>2022-07-21T09:48:21Z</time>
      </trkpt>
      <trkpt lat="47.2502090" lon="6.9481710">
        <ele>509.7</ele>
        <time>2022-07-21T09:48:22Z</time>
      </trkpt>
      <trkpt lat="47.2501970" lon="6.9481880">
        <ele>509.7</ele>
        <time>2022-07-21T09:48:23Z</time>
      </trkpt>
      <trkpt lat="47.2501490" lon="6.9482290">
        <ele>509.4</ele>
        <time>2022-07-21T09:48:25Z</time>
      </trkpt>
      <trkpt lat="47.2501330" lon="6.9482540">
        <ele>509.3</ele>
        <time>2022-07-21T09:48:26Z</time>
      </trkpt>
      <trkpt lat="47.2501020" lon="6.9483060">
        <ele>509.1</ele>
        <time>2022-07-21T09:48:28Z</time>
      </trkpt>
      <trkpt lat="47.2500650" lon="6.9483390">
        <ele>508.9</ele>
        <time>2022-07-21T09:48:29Z</time>
      </trkpt>
      <trkpt lat="47.2500280" lon="6.9483700">
        <ele>508.7</ele>
        <time>2022-07-21T09:48:30Z</time>
      </trkpt>
      <trkpt lat="47.2499990" lon="6.9484050">
        <ele>508.6</ele>
        <time>2022-07-21T09:48:31Z</time>
      </trkpt>
      <trkpt lat="47.2499660" lon="6.9484400">
        <ele>508.5</ele>
        <time>2022-07-21T09:48:32Z</time>
      </trkpt>
      <trkpt lat="47.2499290" lon="6.9484820">
        <ele>508.4</ele>
        <time>2022-07-21T09:48:34Z</time>
      </trkpt>
      <trkpt lat="47.2498940" lon="6.9485130">
        <ele>508.4</ele>
        <time>2022-07-21T09:48:35Z</time>
      </trkpt>
      <trkpt lat="47.2498790" lon="6.9485250">
        <ele>508.4</ele>
        <time>2022-07-21T09:48:36Z</time>
      </trkpt>
      <trkpt lat="47.2498500" lon="6.9485520">
        <ele>508.3</ele>
        <time>2022-07-21T09:48:37Z</time>
      </trkpt>
      <trkpt lat="47.2498070" lon="6.9485940">
        <ele>508.3</ele>
        <time>2022-07-21T09:48:38Z</time>
      </trkpt>
      <trkpt lat="47.2497780" lon="6.9486210">
        <ele>508.5</ele>
        <time>2022-07-21T09:48:39Z</time>
      </trkpt>
      <trkpt lat="47.2497560" lon="6.9486500">
        <ele>508.6</ele>
        <time>2022-07-21T09:48:40Z</time>
      </trkpt>
      <trkpt lat="47.2497450" lon="6.9486620">
        <ele>508.7</ele>
        <time>2022-07-21T09:48:42Z</time>
      </trkpt>
      <trkpt lat="47.2497280" lon="6.9486700">
        <ele>508.7</ele>
        <time>2022-07-21T09:48:43Z</time>
      </trkpt>
      <trkpt lat="47.2496980" lon="6.9486730">
        <ele>508.9</ele>
        <time>2022-07-21T09:48:44Z</time>
      </trkpt>
      <trkpt lat="47.2496880" lon="6.9486750">
        <ele>508.9</ele>
        <time>2022-07-21T09:48:45Z</time>
      </trkpt>
      <trkpt lat="47.2496610" lon="6.9486830">
        <ele>509.0</ele>
        <time>2022-07-21T09:48:46Z</time>
      </trkpt>
      <trkpt lat="47.2496510" lon="6.9486870">
        <ele>509.1</ele>
        <time>2022-07-21T09:48:47Z</time>
      </trkpt>
      <trkpt lat="47.2496350" lon="6.9486920">
        <ele>509.1</ele>
        <time>2022-07-21T09:48:48Z</time>
      </trkpt>
      <trkpt lat="47.2496220" lon="6.9486990">
        <ele>509.2</ele>
        <time>2022-07-21T09:48:49Z</time>
      </trkpt>
      <trkpt lat="47.2495990" lon="6.9487140">
        <ele>509.3</ele>
        <time>2022-07-21T09:48:50Z</time>
      </trkpt>
      <trkpt lat="47.2495740" lon="6.9487360">
        <ele>509.3</ele>
        <time>2022-07-21T09:48:52Z</time>
      </trkpt>
      <trkpt lat="47.2495520" lon="6.9487610">
        <ele>509.4</ele>
        <time>2022-07-21T09:48:53Z</time>
      </trkpt>
      <trkpt lat="47.2495290" lon="6.9487920">
        <ele>509.4</ele>
        <time>2022-07-21T09:48:54Z</time>
      </trkpt>
      <trkpt lat="47.2495080" lon="6.9488300">
        <ele>509.4</ele>
        <time>2022-07-21T09:48:55Z</time>
      </trkpt>
      <trkpt lat="47.2494820" lon="6.9488630">
        <ele>509.4</ele>
        <time>2022-07-21T09:48:56Z</time>
      </trkpt>
      <trkpt lat="47.2494400" lon="6.9489150">
        <ele>509.3</ele>
        <time>2022-07-21T09:48:57Z</time>
      </trkpt>
      <trkpt lat="47.2494050" lon="6.9489510">
        <ele>509.2</ele>
        <time>2022-07-21T09:48:58Z</time>
      </trkpt>
      <trkpt lat="47.2493670" lon="6.9489870">
        <ele>509.1</ele>
        <time>2022-07-21T09:48:59Z</time>
      </trkpt>
      <trkpt lat="47.2493190" lon="6.9490250">
        <ele>509.1</ele>
        <time>2022-07-21T09:49:01Z</time>
      </trkpt>
      <trkpt lat="47.2492810" lon="6.9490740">
        <ele>509.1</ele>
        <time>2022-07-21T09:49:02Z</time>
      </trkpt>
      <trkpt lat="47.2492610" lon="6.9490990">
        <ele>509.0</ele>
        <time>2022-07-21T09:49:03Z</time>
      </trkpt>
      <trkpt lat="47.2492070" lon="6.9491620">
        <ele>509.0</ele>
        <time>2022-07-21T09:49:05Z</time>
      </trkpt>
      <trkpt lat="47.2491850" lon="6.9491980">
        <ele>509.0</ele>
        <time>2022-07-21T09:49:07Z</time>
      </trkpt>
      <trkpt lat="47.2491670" lon="6.9492430">
        <ele>509.0</ele>
        <time>2022-07-21T09:49:08Z</time>
      </trkpt>
      <trkpt lat="47.2491610" lon="6.9492620">
        <ele>509.1</ele>
        <time>2022-07-21T09:49:09Z</time>
      </trkpt>
      <trkpt lat="47.2491470" lon="6.9493020">
        <ele>509.1</ele>
        <time>2022-07-21T09:49:10Z</time>
      </trkpt>
      <trkpt lat="47.2491320" lon="6.9493580">
        <ele>509.1</ele>
        <time>2022-07-21T09:49:11Z</time>
      </trkpt>
      <trkpt lat="47.2491280" lon="6.9493800">
        <ele>509.1</ele>
        <time>2022-07-21T09:49:12Z</time>
      </trkpt>
      <trkpt lat="47.2491200" lon="6.9494360">
        <ele>509.2</ele>
        <time>2022-07-21T09:49:13Z</time>
      </trkpt>
      <trkpt lat="47.2491100" lon="6.9494950">
        <ele>509.3</ele>
        <time>2022-07-21T09:49:14Z</time>
      </trkpt>
      <trkpt lat="47.2490940" lon="6.9495670">
        <ele>509.5</ele>
        <time>2022-07-21T09:49:16Z</time>
      </trkpt>
      <trkpt lat="47.2490830" lon="6.9496170">
        <ele>509.7</ele>
        <time>2022-07-21T09:49:17Z</time>
      </trkpt>
      <trkpt lat="47.2490710" lon="6.9496820">
        <ele>510.0</ele>
        <time>2022-07-21T09:49:18Z</time>
      </trkpt>
      <trkpt lat="47.2490640" lon="6.9497150">
        <ele>510.2</ele>
        <time>2022-07-21T09:49:19Z</time>
      </trkpt>
      <trkpt lat="47.2490530" lon="6.9497520">
        <ele>510.5</ele>
        <time>2022-07-21T09:49:21Z</time>
      </trkpt>
      <trkpt lat="47.2490440" lon="6.9497800">
        <ele>510.7</ele>
        <time>2022-07-21T09:49:22Z</time>
      </trkpt>
      <trkpt lat="47.2490380" lon="6.9497960">
        <ele>510.8</ele>
        <time>2022-07-21T09:49:23Z</time>
      </trkpt>
      <trkpt lat="47.2490190" lon="6.9498430">
        <ele>511.3</ele>
        <time>2022-07-21T09:49:24Z</time>
      </trkpt>
      <trkpt lat="47.2490150" lon="6.9498580">
        <ele>511.4</ele>
        <time>2022-07-21T09:49:25Z</time>
      </trkpt>
      <trkpt lat="47.2490160" lon="6.9499170">
        <ele>512.0</ele>
        <time>2022-07-21T09:49:27Z</time>
      </trkpt>
      <trkpt lat="47.2490140" lon="6.9499350">
        <ele>512.1</ele>
        <time>2022-07-21T09:49:28Z</time>
      </trkpt>
      <trkpt lat="47.2490130" lon="6.9499540">
        <ele>512.3</ele>
        <time>2022-07-21T09:49:29Z</time>
      </trkpt>
      <trkpt lat="47.2490040" lon="6.9499790">
        <ele>512.6</ele>
        <time>2022-07-21T09:49:30Z</time>
      </trkpt>
      <trkpt lat="47.2489980" lon="6.9499940">
        <ele>512.8</ele>
        <time>2022-07-21T09:49:31Z</time>
      </trkpt>
      <trkpt lat="47.2489870" lon="6.9500120">
        <ele>513.0</ele>
        <time>2022-07-21T09:49:33Z</time>
      </trkpt>
      <trkpt lat="47.2489780" lon="6.9500300">
        <ele>513.2</ele>
        <time>2022-07-21T09:49:34Z</time>
      </trkpt>
      <trkpt lat="47.2489710" lon="6.9500520">
        <ele>513.4</ele>
        <time>2022-07-21T09:49:35Z</time>
      </trkpt>
      <trkpt lat="47.2489700" lon="6.9500730">
        <ele>513.6</ele>
        <time>2022-07-21T09:49:36Z</time>
      </trkpt>
      <trkpt lat="47.2489700" lon="6.9500940">
        <ele>513.8</ele>
        <time>2022-07-21T09:49:37Z</time>
      </trkpt>
      <trkpt lat="47.2489710" lon="6.9501140">
        <ele>514.0</ele>
        <time>2022-07-21T09:49:38Z</time>
      </trkpt>
      <trkpt lat="47.2489710" lon="6.9501400">
        <ele>514.2</ele>
        <time>2022-07-21T09:49:40Z</time>
      </trkpt>
      <trkpt lat="47.2489690" lon="6.9501510">
        <ele>514.3</ele>
        <time>2022-07-21T09:49:41Z</time>
      </trkpt>
      <trkpt lat="47.2489660" lon="6.9501610">
        <ele>514.3</ele>
        <time>2022-07-21T09:49:42Z</time>
      </trkpt>
      <trkpt lat="47.2489630" lon="6.9501720">
        <ele>514.4</ele>
        <time>2022-07-21T09:49:43Z</time>
      </trkpt>
      <trkpt lat="47.2489590" lon="6.9501860">
        <ele>514.5</ele>
        <time>2022-07-21T09:49:44Z</time>
      </trkpt>
      <trkpt lat="47.2489540" lon="6.9501980">
        <ele>514.6</ele>
        <time>2022-07-21T09:49:45Z</time>
      </trkpt>
      <trkpt lat="47.2489520" lon="6.9502160">
        <ele>514.7</ele>
        <time>2022-07-21T09:49:46Z</time>
      </trkpt>
      <trkpt lat="47.2489500" lon="6.9502340">
        <ele>514.8</ele>
        <time>2022-07-21T09:49:47Z</time>
      </trkpt>
      <trkpt lat="47.2489490" lon="6.9502470">
        <ele>514.9</ele>
        <time>2022-07-21T09:49:48Z</time>
      </trkpt>
      <trkpt lat="47.2489490" lon="6.9502920">
        <ele>515.1</ele>
        <time>2022-07-21T09:49:50Z</time>
      </trkpt>
      <trkpt lat="47.2489520" lon="6.9503090">
        <ele>515.2</ele>
        <time>2022-07-21T09:49:51Z</time>
      </trkpt>
      <trkpt lat="47.2489480" lon="6.9503250">
        <ele>515.3</ele>
        <time>2022-07-21T09:49:52Z</time>
      </trkpt>
      <trkpt lat="47.2489460" lon="6.9503560">
        <ele>515.4</ele>
        <time>2022-07-21T09:49:54Z</time>
      </trkpt>
      <trkpt lat="47.2489460" lon="6.9503800">
        <ele>515.5</ele>
        <time>2022-07-21T09:49:55Z</time>
      </trkpt>
      <trkpt lat="47.2489450" lon="6.9504050">
        <ele>515.6</ele>
        <time>2022-07-21T09:49:56Z</time>
      </trkpt>
      <trkpt lat="47.2489420" lon="6.9504420">
        <ele>515.8</ele>
        <time>2022-07-21T09:49:57Z</time>
      </trkpt>
      <trkpt lat="47.2489410" lon="6.9504590">
        <ele>515.8</ele>
        <time>2022-07-21T09:49:58Z</time>
      </trkpt>
      <trkpt lat="47.2489370" lon="6.9505050">
        <ele>516.0</ele>
        <time>2022-07-21T09:50:00Z</time>
      </trkpt>
      <trkpt lat="47.2489370" lon="6.9505140">
        <ele>516.0</ele>
        <time>2022-07-21T09:50:01Z</time>
      </trkpt>
      <trkpt lat="47.2489360" lon="6.9505310">
        <ele>516.1</ele>
        <time>2022-07-21T09:50:02Z</time>
      </trkpt>
      <trkpt lat="47.2489330" lon="6.9505490">
        <ele>516.1</ele>
        <time>2022-07-21T09:50:03Z</time>
      </trkpt>
      <trkpt lat="47.2489260" lon="6.9505650">
        <ele>516.1</ele>
        <time>2022-07-21T09:50:04Z</time>
      </trkpt>
      <trkpt lat="47.2489220" lon="6.9505730">
        <ele>516.1</ele>
        <time>2022-07-21T09:50:05Z</time>
      </trkpt>
      <trkpt lat="47.2489200" lon="6.9505680">
        <ele>516.1</ele>
        <time>2022-07-21T09:50:06Z</time>
      </trkpt>
      <trkpt lat="47.2489150" lon="6.9505770">
        <ele>516.1</ele>
        <time>2022-07-21T09:50:07Z</time>
      </trkpt>
      <trkpt lat="47.2489090" lon="6.9505860">
        <ele>516.1</ele>
        <time>2022-07-21T09:50:08Z</time>
      </trkpt>
      <trkpt lat="47.2489050" lon="6.9505880">
        <ele>516.1</ele>
        <time>2022-07-21T09:50:09Z</time>
      </trkpt>
      <trkpt lat="47.2489050" lon="6.9505840">
        <ele>516.1</ele>
        <time>2022-07-21T09:50:10Z</time>
      </trkpt>
      <trkpt lat="47.2489040" lon="6.9505820">
        <ele>516.1</ele>
        <time>2022-07-21T09:50:11Z</time>
      </trkpt>
      <trkpt lat="47.2489040" lon="6.9505820">
        <ele>516.1</ele>
        <time>2022-07-21T09:50:12Z</time>
      </trkpt>
      <trkpt lat="47.2489040" lon="6.9505830">
        <ele>516.1</ele>
        <time>2022-07-21T09:50:13Z</time>
      </trkpt>
      <trkpt lat="47.2489000" lon="6.9505920">
        <ele>516.1</ele>
        <time>2022-07-21T09:50:14Z</time>
      </trkpt>
      <trkpt lat="47.2488950" lon="6.9506030">
        <ele>516.1</ele>
        <time>2022-07-21T09:50:15Z</time>
      </trkpt>
      <trkpt lat="47.2488890" lon="6.9506150">
        <ele>516.1</ele>
        <time>2022-07-21T09:50:16Z</time>
      </trkpt>
      <trkpt lat="47.2488880" lon="6.9506200">
        <ele>516.1</ele>
        <time>2022-07-21T09:50:17Z</time>
      </trkpt>
      <trkpt lat="47.2488910" lon="6.9506210">
        <ele>516.1</ele>
        <time>2022-07-21T09:50:18Z</time>
      </trkpt>
      <trkpt lat="47.2488930" lon="6.9506200">
        <ele>516.1</ele>
        <time>2022-07-21T09:50:19Z</time>
      </trkpt>
      <trkpt lat="47.2488940" lon="6.9506200">
        <ele>516.1</ele>
        <time>2022-07-21T09:50:20Z</time>
      </trkpt>
      <trkpt lat="47.2488910" lon="6.9506280">
        <ele>516.2</ele>
        <time>2022-07-21T09:50:21Z</time>
      </trkpt>
      <trkpt lat="47.2488880" lon="6.9506340">
        <ele>516.2</ele>
        <time>2022-07-21T09:50:22Z</time>
      </trkpt>
      <trkpt lat="47.2488850" lon="6.9506420">
        <ele>516.2</ele>
        <time>2022-07-21T09:50:23Z</time>
      </trkpt>
      <trkpt lat="47.2488780" lon="6.9506540">
        <ele>516.2</ele>
        <time>2022-07-21T09:50:24Z</time>
      </trkpt>
      <trkpt lat="47.2488700" lon="6.9506700">
        <ele>516.2</ele>
        <time>2022-07-21T09:50:25Z</time>
      </trkpt>
      <trkpt lat="47.2488640" lon="6.9506820">
        <ele>516.2</ele>
        <time>2022-07-21T09:50:26Z</time>
      </trkpt>
      <trkpt lat="47.2488600" lon="6.9506980">
        <ele>516.2</ele>
        <time>2022-07-21T09:50:27Z</time>
      </trkpt>
      <trkpt lat="47.2488560" lon="6.9507120">
        <ele>516.2</ele>
        <time>2022-07-21T09:50:28Z</time>
      </trkpt>
      <trkpt lat="47.2488470" lon="6.9507320">
        <ele>516.2</ele>
        <time>2022-07-21T09:50:29Z</time>
      </trkpt>
      <trkpt lat="47.2488420" lon="6.9507450">
        <ele>516.2</ele>
        <time>2022-07-21T09:50:30Z</time>
      </trkpt>
      <trkpt lat="47.2488410" lon="6.9507530">
        <ele>516.2</ele>
        <time>2022-07-21T09:50:31Z</time>
      </trkpt>
      <trkpt lat="47.2488340" lon="6.9507710">
        <ele>516.2</ele>
        <time>2022-07-21T09:50:32Z</time>
      </trkpt>
      <trkpt lat="47.2488240" lon="6.9507910">
        <ele>516.3</ele>
        <time>2022-07-21T09:50:33Z</time>
      </trkpt>
      <trkpt lat="47.2488120" lon="6.9508070">
        <ele>516.3</ele>
        <time>2022-07-21T09:50:34Z</time>
      </trkpt>
      <trkpt lat="47.2488000" lon="6.9508290">
        <ele>516.3</ele>
        <time>2022-07-21T09:50:35Z</time>
      </trkpt>
      <trkpt lat="47.2487910" lon="6.9508480">
        <ele>516.3</ele>
        <time>2022-07-21T09:50:36Z</time>
      </trkpt>
      <trkpt lat="47.2487840" lon="6.9508700">
        <ele>516.3</ele>
        <time>2022-07-21T09:50:37Z</time>
      </trkpt>
      <trkpt lat="47.2487790" lon="6.9508890">
        <ele>516.3</ele>
        <time>2022-07-21T09:50:38Z</time>
      </trkpt>
      <trkpt lat="47.2487730" lon="6.9509140">
        <ele>516.3</ele>
        <time>2022-07-21T09:50:39Z</time>
      </trkpt>
      <trkpt lat="47.2487620" lon="6.9509520">
        <ele>516.3</ele>
        <time>2022-07-21T09:50:40Z</time>
      </trkpt>
      <trkpt lat="47.2487580" lon="6.9509640">
        <ele>516.2</ele>
        <time>2022-07-21T09:50:41Z</time>
      </trkpt>
      <trkpt lat="47.2487430" lon="6.9510050">
        <ele>516.2</ele>
        <time>2022-07-21T09:50:42Z</time>
      </trkpt>
      <trkpt lat="47.2487390" lon="6.9510180">
        <ele>516.2</ele>
        <time>2022-07-21T09:50:43Z</time>
      </trkpt>
      <trkpt lat="47.2487160" lon="6.9510540">
        <ele>516.2</ele>
        <time>2022-07-21T09:50:44Z</time>
      </trkpt>
      <trkpt lat="47.2487070" lon="6.9510680">
        <ele>516.2</ele>
        <time>2022-07-21T09:50:45Z</time>
      </trkpt>
      <trkpt lat="47.2486740" lon="6.9510950">
        <ele>516.2</ele>
        <time>2022-07-21T09:50:46Z</time>
      </trkpt>
      <trkpt lat="47.2486620" lon="6.9511030">
        <ele>516.2</ele>
        <time>2022-07-21T09:50:47Z</time>
      </trkpt>
      <trkpt lat="47.2486350" lon="6.9511180">
        <ele>516.3</ele>
        <time>2022-07-21T09:50:48Z</time>
      </trkpt>
      <trkpt lat="47.2486040" lon="6.9511330">
        <ele>516.3</ele>
        <time>2022-07-21T09:50:49Z</time>
      </trkpt>
      <trkpt lat="47.2485730" lon="6.9511530">
        <ele>516.3</ele>
        <time>2022-07-21T09:50:50Z</time>
      </trkpt>
      <trkpt lat="47.2485640" lon="6.9511590">
        <ele>516.3</ele>
        <time>2022-07-21T09:50:51Z</time>
      </trkpt>
      <trkpt lat="47.2485290" lon="6.9511850">
        <ele>516.4</ele>
        <time>2022-07-21T09:50:52Z</time>
      </trkpt>
      <trkpt lat="47.2485160" lon="6.9511940">
        <ele>516.4</ele>
        <time>2022-07-21T09:50:53Z</time>
      </trkpt>
      <trkpt lat="47.2484840" lon="6.9512240">
        <ele>516.6</ele>
        <time>2022-07-21T09:50:54Z</time>
      </trkpt>
      <trkpt lat="47.2484750" lon="6.9512350">
        <ele>516.6</ele>
        <time>2022-07-21T09:50:55Z</time>
      </trkpt>
      <trkpt lat="47.2484570" lon="6.9512670">
        <ele>516.8</ele>
        <time>2022-07-21T09:50:56Z</time>
      </trkpt>
      <trkpt lat="47.2484500" lon="6.9512800">
        <ele>516.9</ele>
        <time>2022-07-21T09:50:57Z</time>
      </trkpt>
      <trkpt lat="47.2484290" lon="6.9513100">
        <ele>517.0</ele>
        <time>2022-07-21T09:50:58Z</time>
      </trkpt>
      <trkpt lat="47.2484040" lon="6.9513390">
        <ele>517.2</ele>
        <time>2022-07-21T09:50:59Z</time>
      </trkpt>
      <trkpt lat="47.2483950" lon="6.9513470">
        <ele>517.3</ele>
        <time>2022-07-21T09:51:00Z</time>
      </trkpt>
      <trkpt lat="47.2483710" lon="6.9513720">
        <ele>517.5</ele>
        <time>2022-07-21T09:51:01Z</time>
      </trkpt>
      <trkpt lat="47.2483630" lon="6.9513810">
        <ele>517.6</ele>
        <time>2022-07-21T09:51:02Z</time>
      </trkpt>
      <trkpt lat="47.2483390" lon="6.9514120">
        <ele>517.8</ele>
        <time>2022-07-21T09:51:03Z</time>
      </trkpt>
      <trkpt lat="47.2483290" lon="6.9514260">
        <ele>517.9</ele>
        <time>2022-07-21T09:51:04Z</time>
      </trkpt>
      <trkpt lat="47.2483180" lon="6.9514450">
        <ele>518.0</ele>
        <time>2022-07-21T09:51:05Z</time>
      </trkpt>
      <trkpt lat="47.2483070" lon="6.9514640">
        <ele>518.2</ele>
        <time>2022-07-21T09:51:06Z</time>
      </trkpt>
      <trkpt lat="47.2482950" lon="6.9514820">
        <ele>518.3</ele>
        <time>2022-07-21T09:51:07Z</time>
      </trkpt>
      <trkpt lat="47.2482910" lon="6.9514860">
        <ele>518.3</ele>
        <time>2022-07-21T09:51:08Z</time>
      </trkpt>
      <trkpt lat="47.2482830" lon="6.9514940">
        <ele>518.4</ele>
        <time>2022-07-21T09:51:09Z</time>
      </trkpt>
      <trkpt lat="47.2482690" lon="6.9515150">
        <ele>518.6</ele>
        <time>2022-07-21T09:51:10Z</time>
      </trkpt>
      <trkpt lat="47.2482620" lon="6.9515240">
        <ele>518.7</ele>
        <time>2022-07-21T09:51:11Z</time>
      </trkpt>
      <trkpt lat="47.2482550" lon="6.9515340">
        <ele>518.8</ele>
        <time>2022-07-21T09:51:12Z</time>
      </trkpt>
      <trkpt lat="47.2482270" lon="6.9515580">
        <ele>519.0</ele>
        <time>2022-07-21T09:51:13Z</time>
      </trkpt>
      <trkpt lat="47.2482150" lon="6.9515680">
        <ele>519.2</ele>
        <time>2022-07-21T09:51:14Z</time>
      </trkpt>
      <trkpt lat="47.2481890" lon="6.9515940">
        <ele>519.5</ele>
        <time>2022-07-21T09:51:15Z</time>
      </trkpt>
      <trkpt lat="47.2481830" lon="6.9516010">
        <ele>519.5</ele>
        <time>2022-07-21T09:51:16Z</time>
      </trkpt>
      <trkpt lat="47.2481730" lon="6.9516160">
        <ele>519.7</ele>
        <time>2022-07-21T09:51:17Z</time>
      </trkpt>
      <trkpt lat="47.2481600" lon="6.9516400">
        <ele>519.9</ele>
        <time>2022-07-21T09:51:18Z</time>
      </trkpt>
      <trkpt lat="47.2481440" lon="6.9516740">
        <ele>520.1</ele>
        <time>2022-07-21T09:51:19Z</time>
      </trkpt>
      <trkpt lat="47.2481390" lon="6.9516870">
        <ele>520.3</ele>
        <time>2022-07-21T09:51:20Z</time>
      </trkpt>
      <trkpt lat="47.2481270" lon="6.9517230">
        <ele>520.5</ele>
        <time>2022-07-21T09:51:21Z</time>
      </trkpt>
      <trkpt lat="47.2481230" lon="6.9517360">
        <ele>520.7</ele>
        <time>2022-07-21T09:51:22Z</time>
      </trkpt>
      <trkpt lat="47.2481070" lon="6.9517700">
        <ele>521.0</ele>
        <time>2022-07-21T09:51:23Z</time>
      </trkpt>
      <trkpt lat="47.2481020" lon="6.9517790">
        <ele>521.1</ele>
        <time>2022-07-21T09:51:24Z</time>
      </trkpt>
      <trkpt lat="47.2480960" lon="6.9517880">
        <ele>521.2</ele>
        <time>2022-07-21T09:51:25Z</time>
      </trkpt>
      <trkpt lat="47.2480910" lon="6.9518000">
        <ele>521.3</ele>
        <time>2022-07-21T09:51:26Z</time>
      </trkpt>
      <trkpt lat="47.2480870" lon="6.9518140">
        <ele>521.4</ele>
        <time>2022-07-21T09:51:27Z</time>
      </trkpt>
      <trkpt lat="47.2480830" lon="6.9518350">
        <ele>521.6</ele>
        <time>2022-07-21T09:51:28Z</time>
      </trkpt>
      <trkpt lat="47.2480780" lon="6.9518590">
        <ele>521.8</ele>
        <time>2022-07-21T09:51:29Z</time>
      </trkpt>
      <trkpt lat="47.2480680" lon="6.9519000">
        <ele>522.1</ele>
        <time>2022-07-21T09:51:30Z</time>
      </trkpt>
      <trkpt lat="47.2480660" lon="6.9519110">
        <ele>522.2</ele>
        <time>2022-07-21T09:51:31Z</time>
      </trkpt>
      <trkpt lat="47.2480520" lon="6.9519460">
        <ele>522.5</ele>
        <time>2022-07-21T09:51:32Z</time>
      </trkpt>
      <trkpt lat="47.2480460" lon="6.9519590">
        <ele>522.6</ele>
        <time>2022-07-21T09:51:33Z</time>
      </trkpt>
      <trkpt lat="47.2480230" lon="6.9519960">
        <ele>523.0</ele>
        <time>2022-07-21T09:51:34Z</time>
      </trkpt>
      <trkpt lat="47.2480180" lon="6.9520060">
        <ele>523.1</ele>
        <time>2022-07-21T09:51:35Z</time>
      </trkpt>
      <trkpt lat="47.2480120" lon="6.9520250">
        <ele>523.3</ele>
        <time>2022-07-21T09:51:36Z</time>
      </trkpt>
      <trkpt lat="47.2480030" lon="6.9520450">
        <ele>523.5</ele>
        <time>2022-07-21T09:51:37Z</time>
      </trkpt>
      <trkpt lat="47.2479910" lon="6.9520670">
        <ele>523.7</ele>
        <time>2022-07-21T09:51:38Z</time>
      </trkpt>
      <trkpt lat="47.2479860" lon="6.9520770">
        <ele>523.7</ele>
        <time>2022-07-21T09:51:39Z</time>
      </trkpt>
      <trkpt lat="47.2479810" lon="6.9520870">
        <ele>523.8</ele>
        <time>2022-07-21T09:51:40Z</time>
      </trkpt>
      <trkpt lat="47.2479720" lon="6.9521080">
        <ele>524.0</ele>
        <time>2022-07-21T09:51:41Z</time>
      </trkpt>
      <trkpt lat="47.2479660" lon="6.9521230">
        <ele>524.1</ele>
        <time>2022-07-21T09:51:42Z</time>
      </trkpt>
      <trkpt lat="47.2479570" lon="6.9521400">
        <ele>524.2</ele>
        <time>2022-07-21T09:51:43Z</time>
      </trkpt>
      <trkpt lat="47.2479460" lon="6.9521540">
        <ele>524.3</ele>
        <time>2022-07-21T09:51:44Z</time>
      </trkpt>
      <trkpt lat="47.2479350" lon="6.9521650">
        <ele>524.5</ele>
        <time>2022-07-21T09:51:45Z</time>
      </trkpt>
      <trkpt lat="47.2479190" lon="6.9521740">
        <ele>524.6</ele>
        <time>2022-07-21T09:51:46Z</time>
      </trkpt>
      <trkpt lat="47.2478930" lon="6.9521960">
        <ele>524.9</ele>
        <time>2022-07-21T09:51:47Z</time>
      </trkpt>
      <trkpt lat="47.2478860" lon="6.9522010">
        <ele>524.9</ele>
        <time>2022-07-21T09:51:48Z</time>
      </trkpt>
      <trkpt lat="47.2478760" lon="6.9522100">
        <ele>525.0</ele>
        <time>2022-07-21T09:51:49Z</time>
      </trkpt>
      <trkpt lat="47.2478690" lon="6.9522300">
        <ele>525.1</ele>
        <time>2022-07-21T09:51:50Z</time>
      </trkpt>
      <trkpt lat="47.2478660" lon="6.9522430">
        <ele>525.2</ele>
        <time>2022-07-21T09:51:51Z</time>
      </trkpt>
      <trkpt lat="47.2478570" lon="6.9522620">
        <ele>525.3</ele>
        <time>2022-07-21T09:51:52Z</time>
      </trkpt>
      <trkpt lat="47.2478480" lon="6.9522800">
        <ele>525.4</ele>
        <time>2022-07-21T09:51:53Z</time>
      </trkpt>
      <trkpt lat="47.2478330" lon="6.9523090">
        <ele>525.6</ele>
        <time>2022-07-21T09:51:54Z</time>
      </trkpt>
      <trkpt lat="47.2478260" lon="6.9523190">
        <ele>525.7</ele>
        <time>2022-07-21T09:51:55Z</time>
      </trkpt>
      <trkpt lat="47.2478180" lon="6.9523290">
        <ele>525.8</ele>
        <time>2022-07-21T09:51:56Z</time>
      </trkpt>
      <trkpt lat="47.2478070" lon="6.9523450">
        <ele>525.9</ele>
        <time>2022-07-21T09:51:57Z</time>
      </trkpt>
      <trkpt lat="47.2477980" lon="6.9523620">
        <ele>526.0</ele>
        <time>2022-07-21T09:51:58Z</time>
      </trkpt>
      <trkpt lat="47.2477840" lon="6.9523970">
        <ele>526.1</ele>
        <time>2022-07-21T09:51:59Z</time>
      </trkpt>
      <trkpt lat="47.2477790" lon="6.9524100">
        <ele>526.2</ele>
        <time>2022-07-21T09:52:00Z</time>
      </trkpt>
      <trkpt lat="47.2477640" lon="6.9524490">
        <ele>526.3</ele>
        <time>2022-07-21T09:52:01Z</time>
      </trkpt>
      <trkpt lat="47.2477580" lon="6.9524620">
        <ele>526.4</ele>
        <time>2022-07-21T09:52:02Z</time>
      </trkpt>
      <trkpt lat="47.2477490" lon="6.9524800">
        <ele>526.4</ele>
        <time>2022-07-21T09:52:03Z</time>
      </trkpt>
      <trkpt lat="47.2477410" lon="6.9524940">
        <ele>526.5</ele>
        <time>2022-07-21T09:52:04Z</time>
      </trkpt>
      <trkpt lat="47.2477300" lon="6.9525150">
        <ele>526.6</ele>
        <time>2022-07-21T09:52:05Z</time>
      </trkpt>
      <trkpt lat="47.2477250" lon="6.9525330">
        <ele>526.6</ele>
        <time>2022-07-21T09:52:06Z</time>
      </trkpt>
      <trkpt lat="47.2477090" lon="6.9525630">
        <ele>526.7</ele>
        <time>2022-07-21T09:52:07Z</time>
      </trkpt>
      <trkpt lat="47.2477020" lon="6.9525750">
        <ele>526.7</ele>
        <time>2022-07-21T09:52:08Z</time>
      </trkpt>
      <trkpt lat="47.2476780" lon="6.9526060">
        <ele>526.7</ele>
        <time>2022-07-21T09:52:09Z</time>
      </trkpt>
      <trkpt lat="47.2476660" lon="6.9526180">
        <ele>526.7</ele>
        <time>2022-07-21T09:52:10Z</time>
      </trkpt>
      <trkpt lat="47.2476320" lon="6.9526460">
        <ele>526.8</ele>
        <time>2022-07-21T09:52:11Z</time>
      </trkpt>
      <trkpt lat="47.2476000" lon="6.9526690">
        <ele>526.7</ele>
        <time>2022-07-21T09:52:12Z</time>
      </trkpt>
      <trkpt lat="47.2475740" lon="6.9526890">
        <ele>526.6</ele>
        <time>2022-07-21T09:52:13Z</time>
      </trkpt>
      <trkpt lat="47.2475390" lon="6.9527080">
        <ele>526.4</ele>
        <time>2022-07-21T09:52:14Z</time>
      </trkpt>
      <trkpt lat="47.2475020" lon="6.9527380">
        <ele>526.2</ele>
        <time>2022-07-21T09:52:15Z</time>
      </trkpt>
      <trkpt lat="47.2474560" lon="6.9527620">
        <ele>526.0</ele>
        <time>2022-07-21T09:52:16Z</time>
      </trkpt>
      <trkpt lat="47.2473680" lon="6.9527810">
        <ele>525.6</ele>
        <time>2022-07-21T09:52:17Z</time>
      </trkpt>
      <trkpt lat="47.2473170" lon="6.9528090">
        <ele>525.4</ele>
        <time>2022-07-21T09:52:18Z</time>
      </trkpt>
      <trkpt lat="47.2472600" lon="6.9528380">
        <ele>525.2</ele>
        <time>2022-07-21T09:52:19Z</time>
      </trkpt>
      <trkpt lat="47.2472170" lon="6.9528710">
        <ele>525.1</ele>
        <time>2022-07-21T09:52:20Z</time>
      </trkpt>
      <trkpt lat="47.2471610" lon="6.9528350">
        <ele>524.9</ele>
        <time>2022-07-21T09:52:21Z</time>
      </trkpt>
      <trkpt lat="47.2471090" lon="6.9528600">
        <ele>524.8</ele>
        <time>2022-07-21T09:52:23Z</time>
      </trkpt>
      <trkpt lat="47.2470370" lon="6.9529580">
        <ele>524.6</ele>
        <time>2022-07-21T09:52:24Z</time>
      </trkpt>
      <trkpt lat="47.2470130" lon="6.9529830">
        <ele>524.5</ele>
        <time>2022-07-21T09:52:25Z</time>
      </trkpt>
      <trkpt lat="47.2469770" lon="6.9530440">
        <ele>524.5</ele>
        <time>2022-07-21T09:52:26Z</time>
      </trkpt>
      <trkpt lat="47.2469490" lon="6.9531030">
        <ele>524.4</ele>
        <time>2022-07-21T09:52:27Z</time>
      </trkpt>
      <trkpt lat="47.2469180" lon="6.9531420">
        <ele>524.4</ele>
        <time>2022-07-21T09:52:28Z</time>
      </trkpt>
      <trkpt lat="47.2468870" lon="6.9531740">
        <ele>524.4</ele>
        <time>2022-07-21T09:52:29Z</time>
      </trkpt>
      <trkpt lat="47.2468500" lon="6.9532140">
        <ele>524.4</ele>
        <time>2022-07-21T09:52:30Z</time>
      </trkpt>
      <trkpt lat="47.2468030" lon="6.9532500">
        <ele>524.4</ele>
        <time>2022-07-21T09:52:32Z</time>
      </trkpt>
      <trkpt lat="47.2467680" lon="6.9532810">
        <ele>524.4</ele>
        <time>2022-07-21T09:52:33Z</time>
      </trkpt>
      <trkpt lat="47.2467270" lon="6.9533090">
        <ele>524.4</ele>
        <time>2022-07-21T09:52:34Z</time>
      </trkpt>
      <trkpt lat="47.2466870" lon="6.9533320">
        <ele>524.4</ele>
        <time>2022-07-21T09:52:35Z</time>
      </trkpt>
      <trkpt lat="47.2466550" lon="6.9533530">
        <ele>524.4</ele>
        <time>2022-07-21T09:52:36Z</time>
      </trkpt>
      <trkpt lat="47.2466110" lon="6.9533800">
        <ele>524.4</ele>
        <time>2022-07-21T09:52:37Z</time>
      </trkpt>
      <trkpt lat="47.2465320" lon="6.9534100">
        <ele>524.4</ele>
        <time>2022-07-21T09:52:39Z</time>
      </trkpt>
      <trkpt lat="47.2464870" lon="6.9534200">
        <ele>524.5</ele>
        <time>2022-07-21T09:52:40Z</time>
      </trkpt>
      <trkpt lat="47.2464580" lon="6.9534180">
        <ele>524.5</ele>
        <time>2022-07-21T09:52:41Z</time>
      </trkpt>
      <trkpt lat="47.2464090" lon="6.9534180">
        <ele>524.5</ele>
        <time>2022-07-21T09:52:42Z</time>
      </trkpt>
      <trkpt lat="47.2463860" lon="6.9534200">
        <ele>524.5</ele>
        <time>2022-07-21T09:52:43Z</time>
      </trkpt>
      <trkpt lat="47.2463460" lon="6.9534300">
        <ele>524.5</ele>
        <time>2022-07-21T09:52:45Z</time>
      </trkpt>
      <trkpt lat="47.2463070" lon="6.9534490">
        <ele>524.5</ele>
        <time>2022-07-21T09:52:46Z</time>
      </trkpt>
      <trkpt lat="47.2462700" lon="6.9534780">
        <ele>524.5</ele>
        <time>2022-07-21T09:52:47Z</time>
      </trkpt>
      <trkpt lat="47.2462360" lon="6.9535140">
        <ele>524.5</ele>
        <time>2022-07-21T09:52:48Z</time>
      </trkpt>
      <trkpt lat="47.2461950" lon="6.9535550">
        <ele>524.5</ele>
        <time>2022-07-21T09:52:49Z</time>
      </trkpt>
      <trkpt lat="47.2461640" lon="6.9535850">
        <ele>524.5</ele>
        <time>2022-07-21T09:52:50Z</time>
      </trkpt>
      <trkpt lat="47.2461290" lon="6.9536220">
        <ele>524.5</ele>
        <time>2022-07-21T09:52:51Z</time>
      </trkpt>
      <trkpt lat="47.2460980" lon="6.9536600">
        <ele>524.5</ele>
        <time>2022-07-21T09:52:52Z</time>
      </trkpt>
      <trkpt lat="47.2460720" lon="6.9536950">
        <ele>524.5</ele>
        <time>2022-07-21T09:52:53Z</time>
      </trkpt>
      <trkpt lat="47.2460480" lon="6.9537290">
        <ele>524.4</ele>
        <time>2022-07-21T09:52:54Z</time>
      </trkpt>
      <trkpt lat="47.2460260" lon="6.9537610">
        <ele>524.4</ele>
        <time>2022-07-21T09:52:55Z</time>
      </trkpt>
      <trkpt lat="47.2459980" lon="6.9537930">
        <ele>524.4</ele>
        <time>2022-07-21T09:52:56Z</time>
      </trkpt>
      <trkpt lat="47.2459670" lon="6.9538260">
        <ele>524.4</ele>
        <time>2022-07-21T09:52:57Z</time>
      </trkpt>
      <trkpt lat="47.2459200" lon="6.9538640">
        <ele>524.4</ele>
        <time>2022-07-21T09:52:58Z</time>
      </trkpt>
      <trkpt lat="47.2458840" lon="6.9538950">
        <ele>524.4</ele>
        <time>2022-07-21T09:52:59Z</time>
      </trkpt>
      <trkpt lat="47.2458400" lon="6.9539490">
        <ele>524.4</ele>
        <time>2022-07-21T09:53:01Z</time>
      </trkpt>
      <trkpt lat="47.2458100" lon="6.9539790">
        <ele>524.4</ele>
        <time>2022-07-21T09:53:02Z</time>
      </trkpt>
      <trkpt lat="47.2457660" lon="6.9540100">
        <ele>524.4</ele>
        <time>2022-07-21T09:53:03Z</time>
      </trkpt>
      <trkpt lat="47.2457440" lon="6.9540250">
        <ele>524.4</ele>
        <time>2022-07-21T09:53:04Z</time>
      </trkpt>
      <trkpt lat="47.2457040" lon="6.9540560">
        <ele>524.4</ele>
        <time>2022-07-21T09:53:05Z</time>
      </trkpt>
      <trkpt lat="47.2456690" lon="6.9540940">
        <ele>524.4</ele>
        <time>2022-07-21T09:53:06Z</time>
      </trkpt>
      <trkpt lat="47.2456480" lon="6.9541290">
        <ele>524.4</ele>
        <time>2022-07-21T09:53:08Z</time>
      </trkpt>
      <trkpt lat="47.2456220" lon="6.9541680">
        <ele>524.5</ele>
        <time>2022-07-21T09:53:09Z</time>
      </trkpt>
      <trkpt lat="47.2455920" lon="6.9542020">
        <ele>524.5</ele>
        <time>2022-07-21T09:53:10Z</time>
      </trkpt>
      <trkpt lat="47.2455640" lon="6.9542250">
        <ele>524.5</ele>
        <time>2022-07-21T09:53:11Z</time>
      </trkpt>
      <trkpt lat="47.2455310" lon="6.9542590">
        <ele>524.6</ele>
        <time>2022-07-21T09:53:12Z</time>
      </trkpt>
      <trkpt lat="47.2455130" lon="6.9542780">
        <ele>524.6</ele>
        <time>2022-07-21T09:53:13Z</time>
      </trkpt>
      <trkpt lat="47.2454740" lon="6.9543280">
        <ele>524.7</ele>
        <time>2022-07-21T09:53:14Z</time>
      </trkpt>
      <trkpt lat="47.2454400" lon="6.9543620">
        <ele>524.7</ele>
        <time>2022-07-21T09:53:15Z</time>
      </trkpt>
      <trkpt lat="47.2454030" lon="6.9543930">
        <ele>524.7</ele>
        <time>2022-07-21T09:53:16Z</time>
      </trkpt>
      <trkpt lat="47.2453530" lon="6.9544280">
        <ele>524.8</ele>
        <time>2022-07-21T09:53:18Z</time>
      </trkpt>
      <trkpt lat="47.2453220" lon="6.9544450">
        <ele>524.8</ele>
        <time>2022-07-21T09:53:19Z</time>
      </trkpt>
      <trkpt lat="47.2452900" lon="6.9544620">
        <ele>524.8</ele>
        <time>2022-07-21T09:53:20Z</time>
      </trkpt>
      <trkpt lat="47.2452610" lon="6.9544780">
        <ele>524.9</ele>
        <time>2022-07-21T09:53:21Z</time>
      </trkpt>
      <trkpt lat="47.2452210" lon="6.9545090">
        <ele>524.9</ele>
        <time>2022-07-21T09:53:22Z</time>
      </trkpt>
      <trkpt lat="47.2451930" lon="6.9545370">
        <ele>524.9</ele>
        <time>2022-07-21T09:53:24Z</time>
      </trkpt>
      <trkpt lat="47.2451670" lon="6.9545610">
        <ele>525.0</ele>
        <time>2022-07-21T09:53:25Z</time>
      </trkpt>
      <trkpt lat="47.2451410" lon="6.9545800">
        <ele>525.0</ele>
        <time>2022-07-21T09:53:26Z</time>
      </trkpt>
      <trkpt lat="47.2451130" lon="6.9545940">
        <ele>525.1</ele>
        <time>2022-07-21T09:53:27Z</time>
      </trkpt>
      <trkpt lat="47.2450590" lon="6.9546130">
        <ele>525.2</ele>
        <time>2022-07-21T09:53:28Z</time>
      </trkpt>
      <trkpt lat="47.2450150" lon="6.9546330">
        <ele>525.2</ele>
        <time>2022-07-21T09:53:29Z</time>
      </trkpt>
      <trkpt lat="47.2449670" lon="6.9546690">
        <ele>525.3</ele>
        <time>2022-07-21T09:53:31Z</time>
      </trkpt>
      <trkpt lat="47.2449270" lon="6.9547180">
        <ele>525.4</ele>
        <time>2022-07-21T09:53:32Z</time>
      </trkpt>
      <trkpt lat="47.2449000" lon="6.9547590">
        <ele>525.5</ele>
        <time>2022-07-21T09:53:33Z</time>
      </trkpt>
      <trkpt lat="47.2448760" lon="6.9548320">
        <ele>525.5</ele>
        <time>2022-07-21T09:53:34Z</time>
      </trkpt>
      <trkpt lat="47.2448670" lon="6.9549060">
        <ele>525.5</ele>
        <time>2022-07-21T09:53:36Z</time>
      </trkpt>
      <trkpt lat="47.2448630" lon="6.9549860">
        <ele>525.5</ele>
        <time>2022-07-21T09:53:37Z</time>
      </trkpt>
      <trkpt lat="47.2448590" lon="6.9550460">
        <ele>525.5</ele>
        <time>2022-07-21T09:53:38Z</time>
      </trkpt>
      <trkpt lat="47.2448520" lon="6.9551100">
        <ele>525.4</ele>
        <time>2022-07-21T09:53:39Z</time>
      </trkpt>
      <trkpt lat="47.2448440" lon="6.9551720">
        <ele>525.4</ele>
        <time>2022-07-21T09:53:40Z</time>
      </trkpt>
      <trkpt lat="47.2448290" lon="6.9552320">
        <ele>525.3</ele>
        <time>2022-07-21T09:53:41Z</time>
      </trkpt>
      <trkpt lat="47.2448000" lon="6.9553060">
        <ele>525.2</ele>
        <time>2022-07-21T09:53:42Z</time>
      </trkpt>
      <trkpt lat="47.2447680" lon="6.9553630">
        <ele>525.1</ele>
        <time>2022-07-21T09:53:44Z</time>
      </trkpt>
      <trkpt lat="47.2447320" lon="6.9554100">
        <ele>525.1</ele>
        <time>2022-07-21T09:53:45Z</time>
      </trkpt>
      <trkpt lat="47.2447000" lon="6.9554470">
        <ele>525.0</ele>
        <time>2022-07-21T09:53:46Z</time>
      </trkpt>
      <trkpt lat="47.2446650" lon="6.9554840">
        <ele>524.9</ele>
        <time>2022-07-21T09:53:47Z</time>
      </trkpt>
      <trkpt lat="47.2445870" lon="6.9555660">
        <ele>524.8</ele>
        <time>2022-07-21T09:53:48Z</time>
      </trkpt>
      <trkpt lat="47.2445400" lon="6.9556310">
        <ele>524.7</ele>
        <time>2022-07-21T09:53:49Z</time>
      </trkpt>
      <trkpt lat="47.2445100" lon="6.9556810">
        <ele>524.6</ele>
        <time>2022-07-21T09:53:50Z</time>
      </trkpt>
      <trkpt lat="47.2445050" lon="6.9557380">
        <ele>524.5</ele>
        <time>2022-07-21T09:53:52Z</time>
      </trkpt>
      <trkpt lat="47.2444320" lon="6.9557900">
        <ele>524.3</ele>
        <time>2022-07-21T09:53:53Z</time>
      </trkpt>
      <trkpt lat="47.2443970" lon="6.9558280">
        <ele>524.1</ele>
        <time>2022-07-21T09:53:54Z</time>
      </trkpt>
      <trkpt lat="47.2443620" lon="6.9557980">
        <ele>524.0</ele>
        <time>2022-07-21T09:53:55Z</time>
      </trkpt>
      <trkpt lat="47.2443230" lon="6.9558230">
        <ele>523.9</ele>
        <time>2022-07-21T09:53:57Z</time>
      </trkpt>
      <trkpt lat="47.2442190" lon="6.9559070">
        <ele>523.5</ele>
        <time>2022-07-21T09:53:58Z</time>
      </trkpt>
      <trkpt lat="47.2441610" lon="6.9559570">
        <ele>523.2</ele>
        <time>2022-07-21T09:53:59Z</time>
      </trkpt>
      <trkpt lat="47.2441020" lon="6.9560040">
        <ele>522.8</ele>
        <time>2022-07-21T09:54:00Z</time>
      </trkpt>
      <trkpt lat="47.2440420" lon="6.9560520">
        <ele>522.4</ele>
        <time>2022-07-21T09:54:01Z</time>
      </trkpt>
      <trkpt lat="47.2439830" lon="6.9561070">
        <ele>522.0</ele>
        <time>2022-07-21T09:54:02Z</time>
      </trkpt>
      <trkpt lat="47.2439190" lon="6.9561580">
        <ele>521.6</ele>
        <time>2022-07-21T09:54:03Z</time>
      </trkpt>
      <trkpt lat="47.2438500" lon="6.9561950">
        <ele>521.2</ele>
        <time>2022-07-21T09:54:04Z</time>
      </trkpt>
      <trkpt lat="47.2437820" lon="6.9562250">
        <ele>520.9</ele>
        <time>2022-07-21T09:54:05Z</time>
      </trkpt>
      <trkpt lat="47.2437160" lon="6.9562520">
        <ele>520.6</ele>
        <time>2022-07-21T09:54:06Z</time>
      </trkpt>
      <trkpt lat="47.2436560" lon="6.9562690">
        <ele>520.4</ele>
        <time>2022-07-21T09:54:07Z</time>
      </trkpt>
      <trkpt lat="47.2435920" lon="6.9562830">
        <ele>520.2</ele>
        <time>2022-07-21T09:54:08Z</time>
      </trkpt>
      <trkpt lat="47.2435280" lon="6.9562750">
        <ele>520.0</ele>
        <time>2022-07-21T09:54:09Z</time>
      </trkpt>
      <trkpt lat="47.2434710" lon="6.9562320">
        <ele>519.8</ele>
        <time>2022-07-21T09:54:10Z</time>
      </trkpt>
      <trkpt lat="47.2434080" lon="6.9561810">
        <ele>519.6</ele>
        <time>2022-07-21T09:54:11Z</time>
      </trkpt>
      <trkpt lat="47.2433510" lon="6.9561310">
        <ele>519.3</ele>
        <time>2022-07-21T09:54:12Z</time>
      </trkpt>
      <trkpt lat="47.2432990" lon="6.9560870">
        <ele>519.2</ele>
        <time>2022-07-21T09:54:13Z</time>
      </trkpt>
      <trkpt lat="47.2432450" lon="6.9560460">
        <ele>519.0</ele>
        <time>2022-07-21T09:54:14Z</time>
      </trkpt>
      <trkpt lat="47.2431890" lon="6.9560140">
        <ele>518.8</ele>
        <time>2022-07-21T09:54:15Z</time>
      </trkpt>
      <trkpt lat="47.2431300" lon="6.9559740">
        <ele>518.6</ele>
        <time>2022-07-21T09:54:16Z</time>
      </trkpt>
      <trkpt lat="47.2430710" lon="6.9559230">
        <ele>518.4</ele>
        <time>2022-07-21T09:54:17Z</time>
      </trkpt>
      <trkpt lat="47.2430300" lon="6.9558680">
        <ele>518.3</ele>
        <time>2022-07-21T09:54:18Z</time>
      </trkpt>
      <trkpt lat="47.2429850" lon="6.9558180">
        <ele>518.1</ele>
        <time>2022-07-21T09:54:19Z</time>
      </trkpt>
      <trkpt lat="47.2429390" lon="6.9557630">
        <ele>518.0</ele>
        <time>2022-07-21T09:54:20Z</time>
      </trkpt>
      <trkpt lat="47.2428900" lon="6.9557190">
        <ele>517.8</ele>
        <time>2022-07-21T09:54:21Z</time>
      </trkpt>
      <trkpt lat="47.2428450" lon="6.9556720">
        <ele>517.7</ele>
        <time>2022-07-21T09:54:22Z</time>
      </trkpt>
      <trkpt lat="47.2428040" lon="6.9556080">
        <ele>517.5</ele>
        <time>2022-07-21T09:54:23Z</time>
      </trkpt>
      <trkpt lat="47.2427750" lon="6.9555410">
        <ele>517.4</ele>
        <time>2022-07-21T09:54:24Z</time>
      </trkpt>
      <trkpt lat="47.2427530" lon="6.9554830">
        <ele>517.3</ele>
        <time>2022-07-21T09:54:25Z</time>
      </trkpt>
      <trkpt lat="47.2427330" lon="6.9554340">
        <ele>517.2</ele>
        <time>2022-07-21T09:54:26Z</time>
      </trkpt>
      <trkpt lat="47.2427170" lon="6.9553900">
        <ele>517.2</ele>
        <time>2022-07-21T09:54:27Z</time>
      </trkpt>
      <trkpt lat="47.2426970" lon="6.9553450">
        <ele>517.2</ele>
        <time>2022-07-21T09:54:28Z</time>
      </trkpt>
      <trkpt lat="47.2426720" lon="6.9553170">
        <ele>517.2</ele>
        <time>2022-07-21T09:54:29Z</time>
      </trkpt>
      <trkpt lat="47.2426510" lon="6.9552920">
        <ele>517.3</ele>
        <time>2022-07-21T09:54:30Z</time>
      </trkpt>
      <trkpt lat="47.2426160" lon="6.9552840">
        <ele>517.3</ele>
        <time>2022-07-21T09:54:31Z</time>
      </trkpt>
      <trkpt lat="47.2426010" lon="6.9552800">
        <ele>517.3</ele>
        <time>2022-07-21T09:54:32Z</time>
      </trkpt>
      <trkpt lat="47.2425550" lon="6.9552760">
        <ele>517.3</ele>
        <time>2022-07-21T09:54:33Z</time>
      </trkpt>
      <trkpt lat="47.2425110" lon="6.9552490">
        <ele>517.4</ele>
        <time>2022-07-21T09:54:35Z</time>
      </trkpt>
      <trkpt lat="47.2424880" lon="6.9552190">
        <ele>517.4</ele>
        <time>2022-07-21T09:54:36Z</time>
      </trkpt>
      <trkpt lat="47.2424580" lon="6.9551810">
        <ele>517.4</ele>
        <time>2022-07-21T09:54:37Z</time>
      </trkpt>
      <trkpt lat="47.2424350" lon="6.9551550">
        <ele>517.4</ele>
        <time>2022-07-21T09:54:38Z</time>
      </trkpt>
      <trkpt lat="47.2424080" lon="6.9551030">
        <ele>517.4</ele>
        <time>2022-07-21T09:54:40Z</time>
      </trkpt>
      <trkpt lat="47.2423980" lon="6.9550650">
        <ele>517.4</ele>
        <time>2022-07-21T09:54:41Z</time>
      </trkpt>
      <trkpt lat="47.2423960" lon="6.9550150">
        <ele>517.4</ele>
        <time>2022-07-21T09:54:42Z</time>
      </trkpt>
      <trkpt lat="47.2423970" lon="6.9550000">
        <ele>517.4</ele>
        <time>2022-07-21T09:54:43Z</time>
      </trkpt>
      <trkpt lat="47.2423910" lon="6.9549620">
        <ele>517.4</ele>
        <time>2022-07-21T09:54:44Z</time>
      </trkpt>
      <trkpt lat="47.2423870" lon="6.9548930">
        <ele>517.4</ele>
        <time>2022-07-21T09:54:46Z</time>
      </trkpt>
      <trkpt lat="47.2423840" lon="6.9548490">
        <ele>517.4</ele>
        <time>2022-07-21T09:54:48Z</time>
      </trkpt>
      <trkpt lat="47.2423820" lon="6.9547970">
        <ele>517.4</ele>
        <time>2022-07-21T09:54:49Z</time>
      </trkpt>
      <trkpt lat="47.2423810" lon="6.9547750">
        <ele>517.4</ele>
        <time>2022-07-21T09:54:50Z</time>
      </trkpt>
      <trkpt lat="47.2423780" lon="6.9547320">
        <ele>517.4</ele>
        <time>2022-07-21T09:54:51Z</time>
      </trkpt>
      <trkpt lat="47.2423720" lon="6.9546910">
        <ele>517.4</ele>
        <time>2022-07-21T09:54:52Z</time>
      </trkpt>
      <trkpt lat="47.2423610" lon="6.9546280">
        <ele>517.4</ele>
        <time>2022-07-21T09:54:53Z</time>
      </trkpt>
      <trkpt lat="47.2423560" lon="6.9545860">
        <ele>517.4</ele>
        <time>2022-07-21T09:54:54Z</time>
      </trkpt>
      <trkpt lat="47.2423550" lon="6.9545370">
        <ele>517.4</ele>
        <time>2022-07-21T09:54:55Z</time>
      </trkpt>
      <trkpt lat="47.2423500" lon="6.9545050">
        <ele>517.4</ele>
        <time>2022-07-21T09:54:57Z</time>
      </trkpt>
      <trkpt lat="47.2423470" lon="6.9544900">
        <ele>517.3</ele>
        <time>2022-07-21T09:54:58Z</time>
      </trkpt>
      <trkpt lat="47.2423470" lon="6.9544830">
        <ele>517.3</ele>
        <time>2022-07-21T09:54:59Z</time>
      </trkpt>
      <trkpt lat="47.2423460" lon="6.9544760">
        <ele>517.3</ele>
        <time>2022-07-21T09:55:00Z</time>
      </trkpt>
      <trkpt lat="47.2423480" lon="6.9544740">
        <ele>517.3</ele>
        <time>2022-07-21T09:55:01Z</time>
      </trkpt>
      <trkpt lat="47.2423480" lon="6.9544780">
        <ele>517.3</ele>
        <time>2022-07-21T09:55:02Z</time>
      </trkpt>
      <trkpt lat="47.2423480" lon="6.9544800">
        <ele>517.3</ele>
        <time>2022-07-21T09:55:03Z</time>
      </trkpt>
      <trkpt lat="47.2423480" lon="6.9544800">
        <ele>517.3</ele>
        <time>2022-07-21T09:55:04Z</time>
      </trkpt>
      <trkpt lat="47.2423420" lon="6.9544810">
        <ele>517.3</ele>
        <time>2022-07-21T09:55:05Z</time>
      </trkpt>
      <trkpt lat="47.2423360" lon="6.9544810">
        <ele>517.3</ele>
        <time>2022-07-21T09:55:06Z</time>
      </trkpt>
      <trkpt lat="47.2423280" lon="6.9544810">
        <ele>517.3</ele>
        <time>2022-07-21T09:55:07Z</time>
      </trkpt>
      <trkpt lat="47.2423210" lon="6.9544810">
        <ele>517.3</ele>
        <time>2022-07-21T09:55:08Z</time>
      </trkpt>
      <trkpt lat="47.2423180" lon="6.9544810">
        <ele>517.3</ele>
        <time>2022-07-21T09:55:09Z</time>
      </trkpt>
      <trkpt lat="47.2423150" lon="6.9544720">
        <ele>517.3</ele>
        <time>2022-07-21T09:55:10Z</time>
      </trkpt>
      <trkpt lat="47.2423120" lon="6.9544640">
        <ele>517.3</ele>
        <time>2022-07-21T09:55:11Z</time>
      </trkpt>
      <trkpt lat="47.2423100" lon="6.9544560">
        <ele>517.3</ele>
        <time>2022-07-21T09:55:12Z</time>
      </trkpt>
      <trkpt lat="47.2423070" lon="6.9544480">
        <ele>517.3</ele>
        <time>2022-07-21T09:55:13Z</time>
      </trkpt>
      <trkpt lat="47.2423050" lon="6.9544400">
        <ele>517.3</ele>
        <time>2022-07-21T09:55:14Z</time>
      </trkpt>
      <trkpt lat="47.2423020" lon="6.9544320">
        <ele>517.3</ele>
        <time>2022-07-21T09:55:15Z</time>
      </trkpt>
      <trkpt lat="47.2423000" lon="6.9544240">
        <ele>517.3</ele>
        <time>2022-07-21T09:55:16Z</time>
      </trkpt>
      <trkpt lat="47.2422930" lon="6.9544040">
        <ele>517.3</ele>
        <time>2022-07-21T09:55:17Z</time>
      </trkpt>
      <trkpt lat="47.2422880" lon="6.9543800">
        <ele>517.2</ele>
        <time>2022-07-21T09:55:18Z</time>
      </trkpt>
      <trkpt lat="47.2422840" lon="6.9543250">
        <ele>517.2</ele>
        <time>2022-07-21T09:55:19Z</time>
      </trkpt>
      <trkpt lat="47.2422830" lon="6.9543050">
        <ele>517.2</ele>
        <time>2022-07-21T09:55:20Z</time>
      </trkpt>
      <trkpt lat="47.2422800" lon="6.9542580">
        <ele>517.1</ele>
        <time>2022-07-21T09:55:21Z</time>
      </trkpt>
      <trkpt lat="47.2422800" lon="6.9542470">
        <ele>517.1</ele>
        <time>2022-07-21T09:55:22Z</time>
      </trkpt>
      <trkpt lat="47.2422720" lon="6.9542060">
        <ele>517.1</ele>
        <time>2022-07-21T09:55:23Z</time>
      </trkpt>
      <trkpt lat="47.2422700" lon="6.9541930">
        <ele>517.1</ele>
        <time>2022-07-21T09:55:24Z</time>
      </trkpt>
      <trkpt lat="47.2422720" lon="6.9541770">
        <ele>517.1</ele>
        <time>2022-07-21T09:55:25Z</time>
      </trkpt>
      <trkpt lat="47.2422750" lon="6.9541700">
        <ele>517.0</ele>
        <time>2022-07-21T09:55:26Z</time>
      </trkpt>
      <trkpt lat="47.2422820" lon="6.9541640">
        <ele>517.0</ele>
        <time>2022-07-21T09:55:27Z</time>
      </trkpt>
      <trkpt lat="47.2422900" lon="6.9541570">
        <ele>517.0</ele>
        <time>2022-07-21T09:55:28Z</time>
      </trkpt>
      <trkpt lat="47.2423010" lon="6.9541480">
        <ele>517.0</ele>
        <time>2022-07-21T09:55:29Z</time>
      </trkpt>
      <trkpt lat="47.2423080" lon="6.9541370">
        <ele>517.0</ele>
        <time>2022-07-21T09:55:30Z</time>
      </trkpt>
      <trkpt lat="47.2423120" lon="6.9541240">
        <ele>517.0</ele>
        <time>2022-07-21T09:55:31Z</time>
      </trkpt>
      <trkpt lat="47.2423160" lon="6.9541170">
        <ele>517.0</ele>
        <time>2022-07-21T09:55:32Z</time>
      </trkpt>
      <trkpt lat="47.2423200" lon="6.9541110">
        <ele>516.9</ele>
        <time>2022-07-21T09:55:33Z</time>
      </trkpt>
      <trkpt lat="47.2423240" lon="6.9541040">
        <ele>516.9</ele>
        <time>2022-07-21T09:55:34Z</time>
      </trkpt>
      <trkpt lat="47.2423270" lon="6.9540950">
        <ele>516.9</ele>
        <time>2022-07-21T09:55:35Z</time>
      </trkpt>
      <trkpt lat="47.2423290" lon="6.9540870">
        <ele>516.9</ele>
        <time>2022-07-21T09:55:36Z</time>
      </trkpt>
      <trkpt lat="47.2423310" lon="6.9540770">
        <ele>516.9</ele>
        <time>2022-07-21T09:55:37Z</time>
      </trkpt>
      <trkpt lat="47.2423320" lon="6.9540680">
        <ele>516.9</ele>
        <time>2022-07-21T09:55:38Z</time>
      </trkpt>
      <trkpt lat="47.2423280" lon="6.9540590">
        <ele>516.9</ele>
        <time>2022-07-21T09:55:39Z</time>
      </trkpt>
      <trkpt lat="47.2423220" lon="6.9540500">
        <ele>516.9</ele>
        <time>2022-07-21T09:55:40Z</time>
      </trkpt>
      <trkpt lat="47.2423160" lon="6.9540430">
        <ele>516.9</ele>
        <time>2022-07-21T09:55:41Z</time>
      </trkpt>
      <trkpt lat="47.2423120" lon="6.9540340">
        <ele>516.9</ele>
        <time>2022-07-21T09:55:42Z</time>
      </trkpt>
      <trkpt lat="47.2423110" lon="6.9540300">
        <ele>516.9</ele>
        <time>2022-07-21T09:55:43Z</time>
      </trkpt>
      <trkpt lat="47.2423110" lon="6.9540250">
        <ele>516.9</ele>
        <time>2022-07-21T09:55:44Z</time>
      </trkpt>
      <trkpt lat="47.2423100" lon="6.9540200">
        <ele>516.9</ele>
        <time>2022-07-21T09:55:45Z</time>
      </trkpt>
      <trkpt lat="47.2423100" lon="6.9540160">
        <ele>516.9</ele>
        <time>2022-07-21T09:55:46Z</time>
      </trkpt>
      <trkpt lat="47.2423100" lon="6.9540110">
        <ele>516.9</ele>
        <time>2022-07-21T09:55:47Z</time>
      </trkpt>
      <trkpt lat="47.2423090" lon="6.9540070">
        <ele>516.9</ele>
        <time>2022-07-21T09:55:48Z</time>
      </trkpt>
      <trkpt lat="47.2423090" lon="6.9540020">
        <ele>516.9</ele>
        <time>2022-07-21T09:55:49Z</time>
      </trkpt>
      <trkpt lat="47.2423090" lon="6.9539980">
        <ele>516.8</ele>
        <time>2022-07-21T09:55:50Z</time>
      </trkpt>
      <trkpt lat="47.2423080" lon="6.9539930">
        <ele>516.8</ele>
        <time>2022-07-21T09:55:51Z</time>
      </trkpt>
      <trkpt lat="47.2423080" lon="6.9539890">
        <ele>516.8</ele>
        <time>2022-07-21T09:55:52Z</time>
      </trkpt>
      <trkpt lat="47.2423070" lon="6.9539840">
        <ele>516.8</ele>
        <time>2022-07-21T09:55:53Z</time>
      </trkpt>
      <trkpt lat="47.2422970" lon="6.9539600">
        <ele>516.9</ele>
        <time>2022-07-21T09:55:54Z</time>
      </trkpt>
      <trkpt lat="47.2422860" lon="6.9539440">
        <ele>516.9</ele>
        <time>2022-07-21T09:55:55Z</time>
      </trkpt>
      <trkpt lat="47.2422710" lon="6.9539090">
        <ele>517.0</ele>
        <time>2022-07-21T09:55:56Z</time>
      </trkpt>
      <trkpt lat="47.2422660" lon="6.9538960">
        <ele>517.0</ele>
        <time>2022-07-21T09:55:57Z</time>
      </trkpt>
      <trkpt lat="47.2422530" lon="6.9538590">
        <ele>517.1</ele>
        <time>2022-07-21T09:55:58Z</time>
      </trkpt>
      <trkpt lat="47.2422360" lon="6.9538100">
        <ele>517.2</ele>
        <time>2022-07-21T09:55:59Z</time>
      </trkpt>
      <trkpt lat="47.2422300" lon="6.9537930">
        <ele>517.2</ele>
        <time>2022-07-21T09:56:00Z</time>
      </trkpt>
      <trkpt lat="47.2422190" lon="6.9537370">
        <ele>517.2</ele>
        <time>2022-07-21T09:56:01Z</time>
      </trkpt>
      <trkpt lat="47.2422160" lon="6.9537150">
        <ele>517.2</ele>
        <time>2022-07-21T09:56:02Z</time>
      </trkpt>
      <trkpt lat="47.2422090" lon="6.9536710">
        <ele>517.2</ele>
        <time>2022-07-21T09:56:03Z</time>
      </trkpt>
      <trkpt lat="47.2421980" lon="6.9536200">
        <ele>517.3</ele>
        <time>2022-07-21T09:56:04Z</time>
      </trkpt>
      <trkpt lat="47.2421940" lon="6.9536040">
        <ele>517.3</ele>
        <time>2022-07-21T09:56:05Z</time>
      </trkpt>
      <trkpt lat="47.2421790" lon="6.9535610">
        <ele>517.3</ele>
        <time>2022-07-21T09:56:06Z</time>
      </trkpt>
      <trkpt lat="47.2421770" lon="6.9535500">
        <ele>517.3</ele>
        <time>2022-07-21T09:56:07Z</time>
      </trkpt>
      <trkpt lat="47.2421730" lon="6.9535300">
        <ele>517.3</ele>
        <time>2022-07-21T09:56:08Z</time>
      </trkpt>
      <trkpt lat="47.2421650" lon="6.9535050">
        <ele>517.3</ele>
        <time>2022-07-21T09:56:09Z</time>
      </trkpt>
      <trkpt lat="47.2421490" lon="6.9534660">
        <ele>517.3</ele>
        <time>2022-07-21T09:56:10Z</time>
      </trkpt>
      <trkpt lat="47.2421390" lon="6.9534480">
        <ele>517.3</ele>
        <time>2022-07-21T09:56:11Z</time>
      </trkpt>
      <trkpt lat="47.2421170" lon="6.9534080">
        <ele>517.3</ele>
        <time>2022-07-21T09:56:12Z</time>
      </trkpt>
      <trkpt lat="47.2420970" lon="6.9533720">
        <ele>517.4</ele>
        <time>2022-07-21T09:56:13Z</time>
      </trkpt>
      <trkpt lat="47.2420780" lon="6.9533340">
        <ele>517.4</ele>
        <time>2022-07-21T09:56:14Z</time>
      </trkpt>
      <trkpt lat="47.2420600" lon="6.9532770">
        <ele>517.4</ele>
        <time>2022-07-21T09:56:15Z</time>
      </trkpt>
      <trkpt lat="47.2420540" lon="6.9532570">
        <ele>517.4</ele>
        <time>2022-07-21T09:56:16Z</time>
      </trkpt>
      <trkpt lat="47.2420400" lon="6.9532130">
        <ele>517.4</ele>
        <time>2022-07-21T09:56:17Z</time>
      </trkpt>
      <trkpt lat="47.2420270" lon="6.9531710">
        <ele>517.5</ele>
        <time>2022-07-21T09:56:18Z</time>
      </trkpt>
      <trkpt lat="47.2420160" lon="6.9531320">
        <ele>517.5</ele>
        <time>2022-07-21T09:56:19Z</time>
      </trkpt>
      <trkpt lat="47.2420030" lon="6.9530860">
        <ele>517.5</ele>
        <time>2022-07-21T09:56:20Z</time>
      </trkpt>
      <trkpt lat="47.2419980" lon="6.9530700">
        <ele>517.6</ele>
        <time>2022-07-21T09:56:21Z</time>
      </trkpt>
      <trkpt lat="47.2419850" lon="6.9530320">
        <ele>517.6</ele>
        <time>2022-07-21T09:56:22Z</time>
      </trkpt>
      <trkpt lat="47.2419750" lon="6.9529760">
        <ele>517.6</ele>
        <time>2022-07-21T09:56:23Z</time>
      </trkpt>
      <trkpt lat="47.2419710" lon="6.9529580">
        <ele>517.6</ele>
        <time>2022-07-21T09:56:24Z</time>
      </trkpt>
      <trkpt lat="47.2419610" lon="6.9528970">
        <ele>517.7</ele>
        <time>2022-07-21T09:56:25Z</time>
      </trkpt>
      <trkpt lat="47.2419570" lon="6.9528750">
        <ele>517.7</ele>
        <time>2022-07-21T09:56:26Z</time>
      </trkpt>
      <trkpt lat="47.2419470" lon="6.9528350">
        <ele>517.7</ele>
        <time>2022-07-21T09:56:27Z</time>
      </trkpt>
      <trkpt lat="47.2419320" lon="6.9527910">
        <ele>517.7</ele>
        <time>2022-07-21T09:56:28Z</time>
      </trkpt>
      <trkpt lat="47.2419180" lon="6.9527520">
        <ele>517.8</ele>
        <time>2022-07-21T09:56:29Z</time>
      </trkpt>
      <trkpt lat="47.2418970" lon="6.9527150">
        <ele>517.8</ele>
        <time>2022-07-21T09:56:30Z</time>
      </trkpt>
      <trkpt lat="47.2418830" lon="6.9526910">
        <ele>517.8</ele>
        <time>2022-07-21T09:56:31Z</time>
      </trkpt>
      <trkpt lat="47.2418740" lon="6.9526760">
        <ele>517.8</ele>
        <time>2022-07-21T09:56:32Z</time>
      </trkpt>
      <trkpt lat="47.2418700" lon="6.9526690">
        <ele>517.8</ele>
        <time>2022-07-21T09:56:33Z</time>
      </trkpt>
      <trkpt lat="47.2418670" lon="6.9526650">
        <ele>517.8</ele>
        <time>2022-07-21T09:56:34Z</time>
      </trkpt>
      <trkpt lat="47.2418620" lon="6.9526590">
        <ele>517.8</ele>
        <time>2022-07-21T09:56:35Z</time>
      </trkpt>
      <trkpt lat="47.2418560" lon="6.9526510">
        <ele>517.8</ele>
        <time>2022-07-21T09:56:36Z</time>
      </trkpt>
      <trkpt lat="47.2418540" lon="6.9526460">
        <ele>517.8</ele>
        <time>2022-07-21T09:56:37Z</time>
      </trkpt>
      <trkpt lat="47.2418530" lon="6.9526430">
        <ele>517.8</ele>
        <time>2022-07-21T09:56:38Z</time>
      </trkpt>
      <trkpt lat="47.2418530" lon="6.9526420">
        <ele>517.8</ele>
        <time>2022-07-21T09:56:39Z</time>
      </trkpt>
      <trkpt lat="47.2418520" lon="6.9526400">
        <ele>517.8</ele>
        <time>2022-07-21T09:56:40Z</time>
      </trkpt>
      <trkpt lat="47.2418500" lon="6.9526380">
        <ele>517.8</ele>
        <time>2022-07-21T09:56:42Z</time>
      </trkpt>
      <trkpt lat="47.2418500" lon="6.9526380">
        <ele>517.8</ele>
        <time>2022-07-21T09:56:43Z</time>
      </trkpt>
      <trkpt lat="47.2418500" lon="6.9526370">
        <ele>517.8</ele>
        <time>2022-07-21T09:56:44Z</time>
      </trkpt>
      <trkpt lat="47.2418490" lon="6.9526360">
        <ele>517.8</ele>
        <time>2022-07-21T09:56:45Z</time>
      </trkpt>
      <trkpt lat="47.2418420" lon="6.9526340">
        <ele>517.8</ele>
        <time>2022-07-21T09:56:46Z</time>
      </trkpt>
      <trkpt lat="47.2418380" lon="6.9526140">
        <ele>517.8</ele>
        <time>2022-07-21T09:56:47Z</time>
      </trkpt>
      <trkpt lat="47.2418230" lon="6.9525800">
        <ele>517.8</ele>
        <time>2022-07-21T09:56:48Z</time>
      </trkpt>
      <trkpt lat="47.2418180" lon="6.9525660">
        <ele>517.8</ele>
        <time>2022-07-21T09:56:49Z</time>
      </trkpt>
      <trkpt lat="47.2418090" lon="6.9525270">
        <ele>517.8</ele>
        <time>2022-07-21T09:56:50Z</time>
      </trkpt>
      <trkpt lat="47.2418020" lon="6.9524770">
        <ele>517.9</ele>
        <time>2022-07-21T09:56:52Z</time>
      </trkpt>
      <trkpt lat="47.2417980" lon="6.9524590">
        <ele>517.9</ele>
        <time>2022-07-21T09:56:53Z</time>
      </trkpt>
      <trkpt lat="47.2417960" lon="6.9524170">
        <ele>517.9</ele>
        <time>2022-07-21T09:56:54Z</time>
      </trkpt>
      <trkpt lat="47.2417970" lon="6.9524050">
        <ele>517.9</ele>
        <time>2022-07-21T09:56:55Z</time>
      </trkpt>
      <trkpt lat="47.2417980" lon="6.9523880">
        <ele>517.9</ele>
        <time>2022-07-21T09:56:56Z</time>
      </trkpt>
      <trkpt lat="47.2417970" lon="6.9523770">
        <ele>517.9</ele>
        <time>2022-07-21T09:56:57Z</time>
      </trkpt>
      <trkpt lat="47.2417970" lon="6.9523660">
        <ele>517.9</ele>
        <time>2022-07-21T09:56:58Z</time>
      </trkpt>
      <trkpt lat="47.2417960" lon="6.9523550">
        <ele>517.9</ele>
        <time>2022-07-21T09:56:59Z</time>
      </trkpt>
      <trkpt lat="47.2417960" lon="6.9523440">
        <ele>517.9</ele>
        <time>2022-07-21T09:57:00Z</time>
      </trkpt>
      <trkpt lat="47.2417950" lon="6.9523330">
        <ele>517.9</ele>
        <time>2022-07-21T09:57:01Z</time>
      </trkpt>
      <trkpt lat="47.2417950" lon="6.9523220">
        <ele>517.9</ele>
        <time>2022-07-21T09:57:02Z</time>
      </trkpt>
      <trkpt lat="47.2417940" lon="6.9523110">
        <ele>517.9</ele>
        <time>2022-07-21T09:57:03Z</time>
      </trkpt>
      <trkpt lat="47.2417940" lon="6.9523000">
        <ele>517.9</ele>
        <time>2022-07-21T09:57:04Z</time>
      </trkpt>
      <trkpt lat="47.2417930" lon="6.9522890">
        <ele>517.9</ele>
        <time>2022-07-21T09:57:21Z</time>
      </trkpt>
      <trkpt lat="47.2417930" lon="6.9522780">
        <ele>517.9</ele>
        <time>2022-07-21T09:57:22Z</time>
      </trkpt>
      <trkpt lat="47.2417920" lon="6.9522670">
        <ele>517.9</ele>
        <time>2022-07-21T09:57:23Z</time>
      </trkpt>
      <trkpt lat="47.2417920" lon="6.9522560">
        <ele>517.9</ele>
        <time>2022-07-21T09:57:24Z</time>
      </trkpt>
      <trkpt lat="47.2417910" lon="6.9522450">
        <ele>517.9</ele>
        <time>2022-07-21T09:57:25Z</time>
      </trkpt>
      <trkpt lat="47.2417760" lon="6.9522070">
        <ele>517.9</ele>
        <time>2022-07-21T09:57:26Z</time>
      </trkpt>
      <trkpt lat="47.2417660" lon="6.9521710">
        <ele>517.9</ele>
        <time>2022-07-21T09:57:27Z</time>
      </trkpt>
      <trkpt lat="47.2417570" lon="6.9521280">
        <ele>517.9</ele>
        <time>2022-07-21T09:57:29Z</time>
      </trkpt>
      <trkpt lat="47.2417410" lon="6.9520760">
        <ele>517.9</ele>
        <time>2022-07-21T09:57:30Z</time>
      </trkpt>
      <trkpt lat="47.2417270" lon="6.9520340">
        <ele>517.9</ele>
        <time>2022-07-21T09:57:31Z</time>
      </trkpt>
      <trkpt lat="47.2417160" lon="6.9519730">
        <ele>517.8</ele>
        <time>2022-07-21T09:57:32Z</time>
      </trkpt>
      <trkpt lat="47.2417120" lon="6.9519480">
        <ele>517.8</ele>
        <time>2022-07-21T09:57:33Z</time>
      </trkpt>
      <trkpt lat="47.2416860" lon="6.9518650">
        <ele>517.8</ele>
        <time>2022-07-21T09:57:35Z</time>
      </trkpt>
      <trkpt lat="47.2416570" lon="6.9518180">
        <ele>517.7</ele>
        <time>2022-07-21T09:57:36Z</time>
      </trkpt>
      <trkpt lat="47.2416280" lon="6.9517750">
        <ele>517.7</ele>
        <time>2022-07-21T09:57:37Z</time>
      </trkpt>
      <trkpt lat="47.2415940" lon="6.9517230">
        <ele>517.7</ele>
        <time>2022-07-21T09:57:38Z</time>
      </trkpt>
      <trkpt lat="47.2415800" lon="6.9516940">
        <ele>517.7</ele>
        <time>2022-07-21T09:57:39Z</time>
      </trkpt>
      <trkpt lat="47.2415520" lon="6.9516470">
        <ele>517.7</ele>
        <time>2022-07-21T09:57:41Z</time>
      </trkpt>
      <trkpt lat="47.2415250" lon="6.9516010">
        <ele>517.7</ele>
        <time>2022-07-21T09:57:42Z</time>
      </trkpt>
      <trkpt lat="47.2415060" lon="6.9515680">
        <ele>517.7</ele>
        <time>2022-07-21T09:57:43Z</time>
      </trkpt>
      <trkpt lat="47.2414770" lon="6.9515170">
        <ele>517.8</ele>
        <time>2022-07-21T09:57:44Z</time>
      </trkpt>
      <trkpt lat="47.2414500" lon="6.9514760">
        <ele>517.8</ele>
        <time>2022-07-21T09:57:45Z</time>
      </trkpt>
      <trkpt lat="47.2414120" lon="6.9514230">
        <ele>517.8</ele>
        <time>2022-07-21T09:57:47Z</time>
      </trkpt>
      <trkpt lat="47.2413910" lon="6.9513840">
        <ele>517.9</ele>
        <time>2022-07-21T09:57:48Z</time>
      </trkpt>
      <trkpt lat="47.2413730" lon="6.9513550">
        <ele>517.9</ele>
        <time>2022-07-21T09:57:49Z</time>
      </trkpt>
      <trkpt lat="47.2413520" lon="6.9513130">
        <ele>517.9</ele>
        <time>2022-07-21T09:57:50Z</time>
      </trkpt>
      <trkpt lat="47.2413480" lon="6.9513010">
        <ele>517.9</ele>
        <time>2022-07-21T09:57:51Z</time>
      </trkpt>
      <trkpt lat="47.2413350" lon="6.9512670">
        <ele>517.9</ele>
        <time>2022-07-21T09:57:52Z</time>
      </trkpt>
      <trkpt lat="47.2413290" lon="6.9512520">
        <ele>517.9</ele>
        <time>2022-07-21T09:57:53Z</time>
      </trkpt>
      <trkpt lat="47.2413060" lon="6.9512170">
        <ele>517.9</ele>
        <time>2022-07-21T09:57:54Z</time>
      </trkpt>
      <trkpt lat="47.2412990" lon="6.9512060">
        <ele>517.9</ele>
        <time>2022-07-21T09:57:55Z</time>
      </trkpt>
      <trkpt lat="47.2412790" lon="6.9511710">
        <ele>518.0</ele>
        <time>2022-07-21T09:57:56Z</time>
      </trkpt>
      <trkpt lat="47.2412560" lon="6.9511340">
        <ele>518.0</ele>
        <time>2022-07-21T09:57:57Z</time>
      </trkpt>
      <trkpt lat="47.2412480" lon="6.9511220">
        <ele>518.0</ele>
        <time>2022-07-21T09:57:58Z</time>
      </trkpt>
      <trkpt lat="47.2412260" lon="6.9510890">
        <ele>518.0</ele>
        <time>2022-07-21T09:58:00Z</time>
      </trkpt>
      <trkpt lat="47.2411980" lon="6.9510470">
        <ele>518.0</ele>
        <time>2022-07-21T09:58:01Z</time>
      </trkpt>
      <trkpt lat="47.2411710" lon="6.9510110">
        <ele>518.0</ele>
        <time>2022-07-21T09:58:02Z</time>
      </trkpt>
      <trkpt lat="47.2411420" lon="6.9509760">
        <ele>518.0</ele>
        <time>2022-07-21T09:58:04Z</time>
      </trkpt>
      <trkpt lat="47.2411100" lon="6.9509420">
        <ele>518.0</ele>
        <time>2022-07-21T09:58:05Z</time>
      </trkpt>
      <trkpt lat="47.2410790" lon="6.9509100">
        <ele>518.0</ele>
        <time>2022-07-21T09:58:07Z</time>
      </trkpt>
      <trkpt lat="47.2410460" lon="6.9508760">
        <ele>518.0</ele>
        <time>2022-07-21T09:58:08Z</time>
      </trkpt>
      <trkpt lat="47.2410340" lon="6.9508630">
        <ele>518.0</ele>
        <time>2022-07-21T09:58:09Z</time>
      </trkpt>
      <trkpt lat="47.2410100" lon="6.9508310">
        <ele>518.0</ele>
        <time>2022-07-21T09:58:10Z</time>
      </trkpt>
      <trkpt lat="47.2409880" lon="6.9507910">
        <ele>518.0</ele>
        <time>2022-07-21T09:58:11Z</time>
      </trkpt>
      <trkpt lat="47.2409450" lon="6.9507110">
        <ele>518.1</ele>
        <time>2022-07-21T09:58:13Z</time>
      </trkpt>
      <trkpt lat="47.2409190" lon="6.9506600">
        <ele>518.1</ele>
        <time>2022-07-21T09:58:14Z</time>
      </trkpt>
      <trkpt lat="47.2408960" lon="6.9506190">
        <ele>518.1</ele>
        <time>2022-07-21T09:58:15Z</time>
      </trkpt>
      <trkpt lat="47.2408630" lon="6.9505710">
        <ele>518.1</ele>
        <time>2022-07-21T09:58:16Z</time>
      </trkpt>
      <trkpt lat="47.2408310" lon="6.9505290">
        <ele>518.1</ele>
        <time>2022-07-21T09:58:17Z</time>
      </trkpt>
      <trkpt lat="47.2407940" lon="6.9504800">
        <ele>518.1</ele>
        <time>2022-07-21T09:58:18Z</time>
      </trkpt>
      <trkpt lat="47.2407630" lon="6.9504420">
        <ele>518.2</ele>
        <time>2022-07-21T09:58:19Z</time>
      </trkpt>
      <trkpt lat="47.2407330" lon="6.9503960">
        <ele>518.2</ele>
        <time>2022-07-21T09:58:20Z</time>
      </trkpt>
      <trkpt lat="47.2407090" lon="6.9503610">
        <ele>518.2</ele>
        <time>2022-07-21T09:58:21Z</time>
      </trkpt>
      <trkpt lat="47.2406880" lon="6.9503340">
        <ele>518.3</ele>
        <time>2022-07-21T09:58:22Z</time>
      </trkpt>
      <trkpt lat="47.2406810" lon="6.9503260">
        <ele>518.3</ele>
        <time>2022-07-21T09:58:23Z</time>
      </trkpt>
      <trkpt lat="47.2406730" lon="6.9503150">
        <ele>518.3</ele>
        <time>2022-07-21T09:58:24Z</time>
      </trkpt>
      <trkpt lat="47.2406660" lon="6.9503040">
        <ele>518.3</ele>
        <time>2022-07-21T09:58:25Z</time>
      </trkpt>
      <trkpt lat="47.2406610" lon="6.9502960">
        <ele>518.3</ele>
        <time>2022-07-21T09:58:26Z</time>
      </trkpt>
      <trkpt lat="47.2406570" lon="6.9502910">
        <ele>518.3</ele>
        <time>2022-07-21T09:58:27Z</time>
      </trkpt>
      <trkpt lat="47.2406540" lon="6.9502900">
        <ele>518.3</ele>
        <time>2022-07-21T09:58:28Z</time>
      </trkpt>
      <trkpt lat="47.2406530" lon="6.9502910">
        <ele>518.3</ele>
        <time>2022-07-21T09:58:29Z</time>
      </trkpt>
      <trkpt lat="47.2406510" lon="6.9502900">
        <ele>518.3</ele>
        <time>2022-07-21T09:58:30Z</time>
      </trkpt>
      <trkpt lat="47.2406510" lon="6.9502920">
        <ele>518.3</ele>
        <time>2022-07-21T09:58:31Z</time>
      </trkpt>
      <trkpt lat="47.2406530" lon="6.9502940">
        <ele>518.3</ele>
        <time>2022-07-21T09:58:32Z</time>
      </trkpt>
      <trkpt lat="47.2406560" lon="6.9502970">
        <ele>518.4</ele>
        <time>2022-07-21T09:58:34Z</time>
      </trkpt>
      <trkpt lat="47.2406100" lon="6.9502400">
        <ele>518.5</ele>
        <time>2022-07-21T09:58:56Z</time>
      </trkpt>
      <trkpt lat="47.2406050" lon="6.9502360">
        <ele>518.5</ele>
        <time>2022-07-21T09:58:57Z</time>
      </trkpt>
      <trkpt lat="47.2406040" lon="6.9502370">
        <ele>518.5</ele>
        <time>2022-07-21T09:58:58Z</time>
      </trkpt>
      <trkpt lat="47.2406020" lon="6.9502370">
        <ele>518.5</ele>
        <time>2022-07-21T09:58:59Z</time>
      </trkpt>
      <trkpt lat="47.2405990" lon="6.9502370">
        <ele>518.5</ele>
        <time>2022-07-21T09:59:00Z</time>
      </trkpt>
      <trkpt lat="47.2405970" lon="6.9502360">
        <ele>518.5</ele>
        <time>2022-07-21T09:59:01Z</time>
      </trkpt>
      <trkpt lat="47.2405960" lon="6.9502360">
        <ele>518.5</ele>
        <time>2022-07-21T09:59:02Z</time>
      </trkpt>
      <trkpt lat="47.2405950" lon="6.9502370">
        <ele>518.5</ele>
        <time>2022-07-21T09:59:03Z</time>
      </trkpt>
      <trkpt lat="47.2405910" lon="6.9502350">
        <ele>518.5</ele>
        <time>2022-07-21T09:59:04Z</time>
      </trkpt>
      <trkpt lat="47.2405890" lon="6.9502360">
        <ele>518.5</ele>
        <time>2022-07-21T09:59:05Z</time>
      </trkpt>
      <trkpt lat="47.2405880" lon="6.9502360">
        <ele>518.5</ele>
        <time>2022-07-21T09:59:06Z</time>
      </trkpt>
      <trkpt lat="47.2405880" lon="6.9502360">
        <ele>518.5</ele>
        <time>2022-07-21T09:59:07Z</time>
      </trkpt>
      <trkpt lat="47.2405910" lon="6.9502400">
        <ele>518.5</ele>
        <time>2022-07-21T09:59:08Z</time>
      </trkpt>
      <trkpt lat="47.2405910" lon="6.9502430">
        <ele>518.5</ele>
        <time>2022-07-21T09:59:09Z</time>
      </trkpt>
      <trkpt lat="47.2405910" lon="6.9502450">
        <ele>518.5</ele>
        <time>2022-07-21T09:59:10Z</time>
      </trkpt>
      <trkpt lat="47.2405880" lon="6.9502460">
        <ele>518.5</ele>
        <time>2022-07-21T09:59:11Z</time>
      </trkpt>
      <trkpt lat="47.2405860" lon="6.9502450">
        <ele>518.5</ele>
        <time>2022-07-21T09:59:12Z</time>
      </trkpt>
      <trkpt lat="47.2405840" lon="6.9502440">
        <ele>518.6</ele>
        <time>2022-07-21T09:59:13Z</time>
      </trkpt>
      <trkpt lat="47.2405840" lon="6.9502450">
        <ele>518.6</ele>
        <time>2022-07-21T09:59:14Z</time>
      </trkpt>
      <trkpt lat="47.2405850" lon="6.9502480">
        <ele>518.6</ele>
        <time>2022-07-21T09:59:15Z</time>
      </trkpt>
      <trkpt lat="47.2405860" lon="6.9502510">
        <ele>518.6</ele>
        <time>2022-07-21T09:59:16Z</time>
      </trkpt>
      <trkpt lat="47.2405860" lon="6.9502540">
        <ele>518.6</ele>
        <time>2022-07-21T09:59:17Z</time>
      </trkpt>
      <trkpt lat="47.2405840" lon="6.9502560">
        <ele>518.6</ele>
        <time>2022-07-21T09:59:25Z</time>
      </trkpt>
      <trkpt lat="47.2405790" lon="6.9502560">
        <ele>518.6</ele>
        <time>2022-07-21T09:59:26Z</time>
      </trkpt>
      <trkpt lat="47.2405760" lon="6.9502580">
        <ele>518.6</ele>
        <time>2022-07-21T09:59:27Z</time>
      </trkpt>
      <trkpt lat="47.2405760" lon="6.9502620">
        <ele>518.6</ele>
        <time>2022-07-21T09:59:28Z</time>
      </trkpt>
      <trkpt lat="47.2405770" lon="6.9502690">
        <ele>518.6</ele>
        <time>2022-07-21T09:59:29Z</time>
      </trkpt>
      <trkpt lat="47.2405790" lon="6.9502740">
        <ele>518.6</ele>
        <time>2022-07-21T09:59:30Z</time>
      </trkpt>
      <trkpt lat="47.2405800" lon="6.9502800">
        <ele>518.6</ele>
        <time>2022-07-21T09:59:31Z</time>
      </trkpt>
      <trkpt lat="47.2405800" lon="6.9502850">
        <ele>518.6</ele>
        <time>2022-07-21T09:59:32Z</time>
      </trkpt>
      <trkpt lat="47.2405790" lon="6.9502890">
        <ele>518.6</ele>
        <time>2022-07-21T09:59:33Z</time>
      </trkpt>
      <trkpt lat="47.2405790" lon="6.9502900">
        <ele>518.6</ele>
        <time>2022-07-21T09:59:34Z</time>
      </trkpt>
      <trkpt lat="47.2405780" lon="6.9502900">
        <ele>518.6</ele>
        <time>2022-07-21T09:59:35Z</time>
      </trkpt>
      <trkpt lat="47.2405780" lon="6.9502900">
        <ele>518.6</ele>
        <time>2022-07-21T09:59:36Z</time>
      </trkpt>
      <trkpt lat="47.2405780" lon="6.9502890">
        <ele>518.6</ele>
        <time>2022-07-21T09:59:37Z</time>
      </trkpt>
      <trkpt lat="47.2405780" lon="6.9502880">
        <ele>518.6</ele>
        <time>2022-07-21T09:59:38Z</time>
      </trkpt>
      <trkpt lat="47.2405790" lon="6.9502870">
        <ele>518.6</ele>
        <time>2022-07-21T09:59:39Z</time>
      </trkpt>
      <trkpt lat="47.2405790" lon="6.9502850">
        <ele>518.6</ele>
        <time>2022-07-21T09:59:40Z</time>
      </trkpt>
      <trkpt lat="47.2405790" lon="6.9502840">
        <ele>518.6</ele>
        <time>2022-07-21T09:59:41Z</time>
      </trkpt>
      <trkpt lat="47.2405790" lon="6.9502840">
        <ele>518.6</ele>
        <time>2022-07-21T09:59:42Z</time>
      </trkpt>
      <trkpt lat="47.2405770" lon="6.9502830">
        <ele>518.6</ele>
        <time>2022-07-21T09:59:43Z</time>
      </trkpt>
      <trkpt lat="47.2405760" lon="6.9502830">
        <ele>518.6</ele>
        <time>2022-07-21T09:59:44Z</time>
      </trkpt>
      <trkpt lat="47.2405770" lon="6.9502860">
        <ele>518.7</ele>
        <time>2022-07-21T09:59:45Z</time>
      </trkpt>
      <trkpt lat="47.2405770" lon="6.9502870">
        <ele>518.7</ele>
        <time>2022-07-21T09:59:46Z</time>
      </trkpt>
      <trkpt lat="47.2405800" lon="6.9502910">
        <ele>518.7</ele>
        <time>2022-07-21T09:59:47Z</time>
      </trkpt>
      <trkpt lat="47.2405860" lon="6.9502990">
        <ele>518.7</ele>
        <time>2022-07-21T09:59:48Z</time>
      </trkpt>
      <trkpt lat="47.2405840" lon="6.9502860">
        <ele>518.7</ele>
        <time>2022-07-21T09:59:49Z</time>
      </trkpt>
      <trkpt lat="47.2405830" lon="6.9502800">
        <ele>518.7</ele>
        <time>2022-07-21T09:59:50Z</time>
      </trkpt>
      <trkpt lat="47.2405830" lon="6.9502790">
        <ele>518.7</ele>
        <time>2022-07-21T09:59:51Z</time>
      </trkpt>
      <trkpt lat="47.2405820" lon="6.9502780">
        <ele>518.7</ele>
        <time>2022-07-21T09:59:52Z</time>
      </trkpt>
      <trkpt lat="47.2405820" lon="6.9502780">
        <ele>518.7</ele>
        <time>2022-07-21T09:59:53Z</time>
      </trkpt>
      <trkpt lat="47.2405820" lon="6.9502780">
        <ele>518.7</ele>
        <time>2022-07-21T09:59:54Z</time>
      </trkpt>
      <trkpt lat="47.2405830" lon="6.9502790">
        <ele>518.7</ele>
        <time>2022-07-21T09:59:55Z</time>
      </trkpt>
      <trkpt lat="47.2405830" lon="6.9502800">
        <ele>518.7</ele>
        <time>2022-07-21T09:59:56Z</time>
      </trkpt>
      <trkpt lat="47.2405830" lon="6.9502810">
        <ele>518.7</ele>
        <time>2022-07-21T09:59:57Z</time>
      </trkpt>
      <trkpt lat="47.2405830" lon="6.9502810">
        <ele>518.7</ele>
        <time>2022-07-21T09:59:58Z</time>
      </trkpt>
      <trkpt lat="47.2405990" lon="6.9501860">
        <ele>518.8</ele>
        <time>2022-07-21T10:15:09Z</time>
      </trkpt>
      <trkpt lat="47.2405940" lon="6.9501580">
        <ele>518.9</ele>
        <time>2022-07-21T10:15:11Z</time>
      </trkpt>
      <trkpt lat="47.2405900" lon="6.9501390">
        <ele>518.9</ele>
        <time>2022-07-21T10:15:12Z</time>
      </trkpt>
      <trkpt lat="47.2405690" lon="6.9501140">
        <ele>519.0</ele>
        <time>2022-07-21T10:15:13Z</time>
      </trkpt>
      <trkpt lat="47.2405610" lon="6.9501070">
        <ele>519.0</ele>
        <time>2022-07-21T10:15:14Z</time>
      </trkpt>
      <trkpt lat="47.2405490" lon="6.9501010">
        <ele>519.0</ele>
        <time>2022-07-21T10:15:15Z</time>
      </trkpt>
      <trkpt lat="47.2405340" lon="6.9500890">
        <ele>519.0</ele>
        <time>2022-07-21T10:15:16Z</time>
      </trkpt>
      <trkpt lat="47.2405010" lon="6.9500580">
        <ele>519.1</ele>
        <time>2022-07-21T10:15:18Z</time>
      </trkpt>
      <trkpt lat="47.2404910" lon="6.9500480">
        <ele>519.1</ele>
        <time>2022-07-21T10:15:19Z</time>
      </trkpt>
      <trkpt lat="47.2404580" lon="6.9500170">
        <ele>519.2</ele>
        <time>2022-07-21T10:15:20Z</time>
      </trkpt>
      <trkpt lat="47.2404480" lon="6.9500060">
        <ele>519.2</ele>
        <time>2022-07-21T10:15:21Z</time>
      </trkpt>
      <trkpt lat="47.2404170" lon="6.9499760">
        <ele>519.2</ele>
        <time>2022-07-21T10:15:22Z</time>
      </trkpt>
      <trkpt lat="47.2404080" lon="6.9499650">
        <ele>519.2</ele>
        <time>2022-07-21T10:15:23Z</time>
      </trkpt>
      <trkpt lat="47.2403820" lon="6.9499300">
        <ele>519.3</ele>
        <time>2022-07-21T10:15:24Z</time>
      </trkpt>
      <trkpt lat="47.2403750" lon="6.9499180">
        <ele>519.3</ele>
        <time>2022-07-21T10:15:25Z</time>
      </trkpt>
      <trkpt lat="47.2403480" lon="6.9498710">
        <ele>519.3</ele>
        <time>2022-07-21T10:15:26Z</time>
      </trkpt>
      <trkpt lat="47.2403380" lon="6.9498540">
        <ele>519.4</ele>
        <time>2022-07-21T10:15:27Z</time>
      </trkpt>
      <trkpt lat="47.2403140" lon="6.9498110">
        <ele>519.4</ele>
        <time>2022-07-21T10:15:28Z</time>
      </trkpt>
      <trkpt lat="47.2402920" lon="6.9497730">
        <ele>519.4</ele>
        <time>2022-07-21T10:15:29Z</time>
      </trkpt>
      <trkpt lat="47.2402650" lon="6.9497340">
        <ele>519.5</ele>
        <time>2022-07-21T10:15:31Z</time>
      </trkpt>
      <trkpt lat="47.2402350" lon="6.9497070">
        <ele>519.5</ele>
        <time>2022-07-21T10:15:32Z</time>
      </trkpt>
      <trkpt lat="47.2402010" lon="6.9496760">
        <ele>519.6</ele>
        <time>2022-07-21T10:15:33Z</time>
      </trkpt>
      <trkpt lat="47.2401150" lon="6.9496060">
        <ele>519.7</ele>
        <time>2022-07-21T10:15:34Z</time>
      </trkpt>
      <trkpt lat="47.2400650" lon="6.9495650">
        <ele>519.8</ele>
        <time>2022-07-21T10:15:35Z</time>
      </trkpt>
      <trkpt lat="47.2400320" lon="6.9495390">
        <ele>519.8</ele>
        <time>2022-07-21T10:15:37Z</time>
      </trkpt>
      <trkpt lat="47.2400020" lon="6.9495130">
        <ele>519.9</ele>
        <time>2022-07-21T10:15:38Z</time>
      </trkpt>
      <trkpt lat="47.2399940" lon="6.9495060">
        <ele>519.9</ele>
        <time>2022-07-21T10:15:39Z</time>
      </trkpt>
      <trkpt lat="47.2399700" lon="6.9494770">
        <ele>519.9</ele>
        <time>2022-07-21T10:15:40Z</time>
      </trkpt>
      <trkpt lat="47.2399560" lon="6.9494580">
        <ele>519.9</ele>
        <time>2022-07-21T10:15:41Z</time>
      </trkpt>
      <trkpt lat="47.2399340" lon="6.9494240">
        <ele>520.0</ele>
        <time>2022-07-21T10:15:42Z</time>
      </trkpt>
      <trkpt lat="47.2399210" lon="6.9494020">
        <ele>520.0</ele>
        <time>2022-07-21T10:15:43Z</time>
      </trkpt>
      <trkpt lat="47.2399050" lon="6.9493770">
        <ele>520.0</ele>
        <time>2022-07-21T10:15:45Z</time>
      </trkpt>
      <trkpt lat="47.2398800" lon="6.9493250">
        <ele>520.1</ele>
        <time>2022-07-21T10:15:46Z</time>
      </trkpt>
      <trkpt lat="47.2398580" lon="6.9492650">
        <ele>520.1</ele>
        <time>2022-07-21T10:15:48Z</time>
      </trkpt>
      <trkpt lat="47.2398520" lon="6.9492420">
        <ele>520.1</ele>
        <time>2022-07-21T10:15:49Z</time>
      </trkpt>
      <trkpt lat="47.2398460" lon="6.9492200">
        <ele>520.1</ele>
        <time>2022-07-21T10:15:50Z</time>
      </trkpt>
      <trkpt lat="47.2398360" lon="6.9491760">
        <ele>520.2</ele>
        <time>2022-07-21T10:15:51Z</time>
      </trkpt>
      <trkpt lat="47.2398320" lon="6.9491610">
        <ele>520.2</ele>
        <time>2022-07-21T10:15:52Z</time>
      </trkpt>
      <trkpt lat="47.2398210" lon="6.9491180">
        <ele>520.2</ele>
        <time>2022-07-21T10:15:53Z</time>
      </trkpt>
      <trkpt lat="47.2398170" lon="6.9491060">
        <ele>520.2</ele>
        <time>2022-07-21T10:15:54Z</time>
      </trkpt>
      <trkpt lat="47.2397960" lon="6.9490530">
        <ele>520.3</ele>
        <time>2022-07-21T10:15:55Z</time>
      </trkpt>
      <trkpt lat="47.2397870" lon="6.9490290">
        <ele>520.3</ele>
        <time>2022-07-21T10:15:56Z</time>
      </trkpt>
      <trkpt lat="47.2397680" lon="6.9489810">
        <ele>520.3</ele>
        <time>2022-07-21T10:15:57Z</time>
      </trkpt>
      <trkpt lat="47.2397610" lon="6.9489630">
        <ele>520.4</ele>
        <time>2022-07-21T10:15:58Z</time>
      </trkpt>
      <trkpt lat="47.2397390" lon="6.9489060">
        <ele>520.4</ele>
        <time>2022-07-21T10:16:00Z</time>
      </trkpt>
      <trkpt lat="47.2397320" lon="6.9488880">
        <ele>520.4</ele>
        <time>2022-07-21T10:16:01Z</time>
      </trkpt>
      <trkpt lat="47.2397250" lon="6.9488700">
        <ele>520.4</ele>
        <time>2022-07-21T10:16:02Z</time>
      </trkpt>
      <trkpt lat="47.2397070" lon="6.9488290">
        <ele>520.5</ele>
        <time>2022-07-21T10:16:03Z</time>
      </trkpt>
      <trkpt lat="47.2397010" lon="6.9488190">
        <ele>520.5</ele>
        <time>2022-07-21T10:16:04Z</time>
      </trkpt>
      <trkpt lat="47.2396860" lon="6.9487860">
        <ele>520.5</ele>
        <time>2022-07-21T10:16:05Z</time>
      </trkpt>
      <trkpt lat="47.2396810" lon="6.9487750">
        <ele>520.5</ele>
        <time>2022-07-21T10:16:06Z</time>
      </trkpt>
      <trkpt lat="47.2396640" lon="6.9487350">
        <ele>520.6</ele>
        <time>2022-07-21T10:16:07Z</time>
      </trkpt>
      <trkpt lat="47.2396460" lon="6.9486890">
        <ele>520.6</ele>
        <time>2022-07-21T10:16:09Z</time>
      </trkpt>
      <trkpt lat="47.2396300" lon="6.9486340">
        <ele>520.6</ele>
        <time>2022-07-21T10:16:10Z</time>
      </trkpt>
      <trkpt lat="47.2396120" lon="6.9485750">
        <ele>520.7</ele>
        <time>2022-07-21T10:16:11Z</time>
      </trkpt>
      <trkpt lat="47.2395940" lon="6.9485320">
        <ele>520.7</ele>
        <time>2022-07-21T10:16:12Z</time>
      </trkpt>
      <trkpt lat="47.2395730" lon="6.9484970">
        <ele>520.7</ele>
        <time>2022-07-21T10:16:13Z</time>
      </trkpt>
      <trkpt lat="47.2395530" lon="6.9484650">
        <ele>520.8</ele>
        <time>2022-07-21T10:16:14Z</time>
      </trkpt>
      <trkpt lat="47.2395280" lon="6.9484100">
        <ele>520.9</ele>
        <time>2022-07-21T10:16:15Z</time>
      </trkpt>
      <trkpt lat="47.2395030" lon="6.9483510">
        <ele>521.0</ele>
        <time>2022-07-21T10:16:16Z</time>
      </trkpt>
      <trkpt lat="47.2394850" lon="6.9483050">
        <ele>521.1</ele>
        <time>2022-07-21T10:16:17Z</time>
      </trkpt>
      <trkpt lat="47.2394690" lon="6.9482620">
        <ele>521.3</ele>
        <time>2022-07-21T10:16:18Z</time>
      </trkpt>
      <trkpt lat="47.2394540" lon="6.9482270">
        <ele>521.4</ele>
        <time>2022-07-21T10:16:19Z</time>
      </trkpt>
      <trkpt lat="47.2394310" lon="6.9481690">
        <ele>521.6</ele>
        <time>2022-07-21T10:16:21Z</time>
      </trkpt>
      <trkpt lat="47.2394230" lon="6.9481540">
        <ele>521.7</ele>
        <time>2022-07-21T10:16:22Z</time>
      </trkpt>
      <trkpt lat="47.2394150" lon="6.9481390">
        <ele>521.8</ele>
        <time>2022-07-21T10:16:23Z</time>
      </trkpt>
      <trkpt lat="47.2393950" lon="6.9481000">
        <ele>522.0</ele>
        <time>2022-07-21T10:16:24Z</time>
      </trkpt>
      <trkpt lat="47.2393890" lon="6.9480870">
        <ele>522.1</ele>
        <time>2022-07-21T10:16:25Z</time>
      </trkpt>
      <trkpt lat="47.2393730" lon="6.9480500">
        <ele>522.3</ele>
        <time>2022-07-21T10:16:26Z</time>
      </trkpt>
      <trkpt lat="47.2393450" lon="6.9480000">
        <ele>522.7</ele>
        <time>2022-07-21T10:16:28Z</time>
      </trkpt>
      <trkpt lat="47.2393320" lon="6.9479800">
        <ele>522.9</ele>
        <time>2022-07-21T10:16:29Z</time>
      </trkpt>
      <trkpt lat="47.2393070" lon="6.9479410">
        <ele>523.2</ele>
        <time>2022-07-21T10:16:30Z</time>
      </trkpt>
      <trkpt lat="47.2392870" lon="6.9479040">
        <ele>523.5</ele>
        <time>2022-07-21T10:16:31Z</time>
      </trkpt>
      <trkpt lat="47.2392710" lon="6.9478640">
        <ele>523.8</ele>
        <time>2022-07-21T10:16:32Z</time>
      </trkpt>
      <trkpt lat="47.2392690" lon="6.9478550">
        <ele>523.9</ele>
        <time>2022-07-21T10:16:33Z</time>
      </trkpt>
      <trkpt lat="47.2392640" lon="6.9478340">
        <ele>524.1</ele>
        <time>2022-07-21T10:16:34Z</time>
      </trkpt>
      <trkpt lat="47.2392620" lon="6.9478130">
        <ele>524.2</ele>
        <time>2022-07-21T10:16:36Z</time>
      </trkpt>
      <trkpt lat="47.2392650" lon="6.9477900">
        <ele>524.4</ele>
        <time>2022-07-21T10:16:37Z</time>
      </trkpt>
      <trkpt lat="47.2392660" lon="6.9477710">
        <ele>524.6</ele>
        <time>2022-07-21T10:16:38Z</time>
      </trkpt>
      <trkpt lat="47.2392680" lon="6.9477490">
        <ele>524.8</ele>
        <time>2022-07-21T10:16:39Z</time>
      </trkpt>
      <trkpt lat="47.2392670" lon="6.9477270">
        <ele>524.9</ele>
        <time>2022-07-21T10:16:40Z</time>
      </trkpt>
      <trkpt lat="47.2392680" lon="6.9476960">
        <ele>525.2</ele>
        <time>2022-07-21T10:16:41Z</time>
      </trkpt>
      <trkpt lat="47.2392650" lon="6.9476670">
        <ele>525.5</ele>
        <time>2022-07-21T10:16:43Z</time>
      </trkpt>
      <trkpt lat="47.2392630" lon="6.9476390">
        <ele>525.8</ele>
        <time>2022-07-21T10:16:44Z</time>
      </trkpt>
      <trkpt lat="47.2392620" lon="6.9476230">
        <ele>526.0</ele>
        <time>2022-07-21T10:16:45Z</time>
      </trkpt>
      <trkpt lat="47.2392470" lon="6.9475880">
        <ele>526.4</ele>
        <time>2022-07-21T10:16:46Z</time>
      </trkpt>
      <trkpt lat="47.2392260" lon="6.9475530">
        <ele>526.9</ele>
        <time>2022-07-21T10:16:48Z</time>
      </trkpt>
      <trkpt lat="47.2392190" lon="6.9475430">
        <ele>527.0</ele>
        <time>2022-07-21T10:16:49Z</time>
      </trkpt>
      <trkpt lat="47.2391980" lon="6.9475210">
        <ele>527.4</ele>
        <time>2022-07-21T10:16:50Z</time>
      </trkpt>
      <trkpt lat="47.2391890" lon="6.9475130">
        <ele>527.6</ele>
        <time>2022-07-21T10:16:51Z</time>
      </trkpt>
      <trkpt lat="47.2391750" lon="6.9474950">
        <ele>527.9</ele>
        <time>2022-07-21T10:16:53Z</time>
      </trkpt>
      <trkpt lat="47.2391640" lon="6.9474790">
        <ele>528.1</ele>
        <time>2022-07-21T10:16:54Z</time>
      </trkpt>
      <trkpt lat="47.2391540" lon="6.9474670">
        <ele>528.3</ele>
        <time>2022-07-21T10:16:55Z</time>
      </trkpt>
      <trkpt lat="47.2391430" lon="6.9474530">
        <ele>528.6</ele>
        <time>2022-07-21T10:16:56Z</time>
      </trkpt>
      <trkpt lat="47.2391330" lon="6.9474320">
        <ele>528.8</ele>
        <time>2022-07-21T10:16:58Z</time>
      </trkpt>
      <trkpt lat="47.2391300" lon="6.9474200">
        <ele>529.0</ele>
        <time>2022-07-21T10:16:59Z</time>
      </trkpt>
      <trkpt lat="47.2391280" lon="6.9474060">
        <ele>529.1</ele>
        <time>2022-07-21T10:17:00Z</time>
      </trkpt>
      <trkpt lat="47.2391240" lon="6.9473850">
        <ele>529.4</ele>
        <time>2022-07-21T10:17:01Z</time>
      </trkpt>
      <trkpt lat="47.2391180" lon="6.9473630">
        <ele>529.6</ele>
        <time>2022-07-21T10:17:02Z</time>
      </trkpt>
      <trkpt lat="47.2391140" lon="6.9473440">
        <ele>529.9</ele>
        <time>2022-07-21T10:17:04Z</time>
      </trkpt>
      <trkpt lat="47.2391110" lon="6.9473300">
        <ele>530.0</ele>
        <time>2022-07-21T10:17:05Z</time>
      </trkpt>
      <trkpt lat="47.2391080" lon="6.9473180">
        <ele>530.2</ele>
        <time>2022-07-21T10:17:06Z</time>
      </trkpt>
      <trkpt lat="47.2391030" lon="6.9472950">
        <ele>530.4</ele>
        <time>2022-07-21T10:17:07Z</time>
      </trkpt>
      <trkpt lat="47.2391010" lon="6.9472820">
        <ele>530.5</ele>
        <time>2022-07-21T10:17:08Z</time>
      </trkpt>
      <trkpt lat="47.2390980" lon="6.9472670">
        <ele>530.7</ele>
        <time>2022-07-21T10:17:10Z</time>
      </trkpt>
      <trkpt lat="47.2390960" lon="6.9472520">
        <ele>530.9</ele>
        <time>2022-07-21T10:17:11Z</time>
      </trkpt>
      <trkpt lat="47.2390930" lon="6.9472390">
        <ele>531.0</ele>
        <time>2022-07-21T10:17:12Z</time>
      </trkpt>
      <trkpt lat="47.2390910" lon="6.9472290">
        <ele>531.1</ele>
        <time>2022-07-21T10:17:13Z</time>
      </trkpt>
      <trkpt lat="47.2390880" lon="6.9472220">
        <ele>531.2</ele>
        <time>2022-07-21T10:17:14Z</time>
      </trkpt>
      <trkpt lat="47.2390770" lon="6.9471980">
        <ele>531.5</ele>
        <time>2022-07-21T10:17:15Z</time>
      </trkpt>
      <trkpt lat="47.2390730" lon="6.9471880">
        <ele>531.6</ele>
        <time>2022-07-21T10:17:16Z</time>
      </trkpt>
      <trkpt lat="47.2390690" lon="6.9471780">
        <ele>531.8</ele>
        <time>2022-07-21T10:17:17Z</time>
      </trkpt>
      <trkpt lat="47.2390630" lon="6.9471640">
        <ele>531.9</ele>
        <time>2022-07-21T10:17:18Z</time>
      </trkpt>
      <trkpt lat="47.2390560" lon="6.9471510">
        <ele>532.1</ele>
        <time>2022-07-21T10:17:19Z</time>
      </trkpt>
      <trkpt lat="47.2390480" lon="6.9471390">
        <ele>532.3</ele>
        <time>2022-07-21T10:17:20Z</time>
      </trkpt>
      <trkpt lat="47.2390380" lon="6.9471280">
        <ele>532.5</ele>
        <time>2022-07-21T10:17:21Z</time>
      </trkpt>
      <trkpt lat="47.2390230" lon="6.9471140">
        <ele>532.8</ele>
        <time>2022-07-21T10:17:22Z</time>
      </trkpt>
      <trkpt lat="47.2390110" lon="6.9470990">
        <ele>533.0</ele>
        <time>2022-07-21T10:17:24Z</time>
      </trkpt>
      <trkpt lat="47.2389990" lon="6.9470830">
        <ele>533.3</ele>
        <time>2022-07-21T10:17:25Z</time>
      </trkpt>
      <trkpt lat="47.2389890" lon="6.9470670">
        <ele>533.5</ele>
        <time>2022-07-21T10:17:26Z</time>
      </trkpt>
      <trkpt lat="47.2389760" lon="6.9470540">
        <ele>533.7</ele>
        <time>2022-07-21T10:17:27Z</time>
      </trkpt>
      <trkpt lat="47.2389580" lon="6.9470360">
        <ele>534.1</ele>
        <time>2022-07-21T10:17:28Z</time>
      </trkpt>
      <trkpt lat="47.2389440" lon="6.9470190">
        <ele>534.4</ele>
        <time>2022-07-21T10:17:30Z</time>
      </trkpt>
      <trkpt lat="47.2389300" lon="6.9470010">
        <ele>534.7</ele>
        <time>2022-07-21T10:17:31Z</time>
      </trkpt>
      <trkpt lat="47.2389200" lon="6.9469850">
        <ele>534.9</ele>
        <time>2022-07-21T10:17:32Z</time>
      </trkpt>
      <trkpt lat="47.2388930" lon="6.9469700">
        <ele>535.4</ele>
        <time>2022-07-21T10:17:33Z</time>
      </trkpt>
      <trkpt lat="47.2388810" lon="6.9469620">
        <ele>535.6</ele>
        <time>2022-07-21T10:17:34Z</time>
      </trkpt>
      <trkpt lat="47.2388700" lon="6.9469540">
        <ele>535.8</ele>
        <time>2022-07-21T10:17:35Z</time>
      </trkpt>
      <trkpt lat="47.2388450" lon="6.9469340">
        <ele>536.2</ele>
        <time>2022-07-21T10:17:37Z</time>
      </trkpt>
      <trkpt lat="47.2388380" lon="6.9469280">
        <ele>536.4</ele>
        <time>2022-07-21T10:17:38Z</time>
      </trkpt>
      <trkpt lat="47.2388260" lon="6.9469130">
        <ele>536.6</ele>
        <time>2022-07-21T10:17:40Z</time>
      </trkpt>
      <trkpt lat="47.2388180" lon="6.9468940">
        <ele>536.9</ele>
        <time>2022-07-21T10:17:41Z</time>
      </trkpt>
      <trkpt lat="47.2388080" lon="6.9468760">
        <ele>537.1</ele>
        <time>2022-07-21T10:17:42Z</time>
      </trkpt>
      <trkpt lat="47.2387970" lon="6.9468650">
        <ele>537.3</ele>
        <time>2022-07-21T10:17:43Z</time>
      </trkpt>
      <trkpt lat="47.2387900" lon="6.9468560">
        <ele>537.5</ele>
        <time>2022-07-21T10:17:44Z</time>
      </trkpt>
      <trkpt lat="47.2387880" lon="6.9468460">
        <ele>537.6</ele>
        <time>2022-07-21T10:17:45Z</time>
      </trkpt>
      <trkpt lat="47.2387910" lon="6.9468390">
        <ele>537.7</ele>
        <time>2022-07-21T10:17:46Z</time>
      </trkpt>
      <trkpt lat="47.2388090" lon="6.9468260">
        <ele>538.0</ele>
        <time>2022-07-21T10:17:47Z</time>
      </trkpt>
      <trkpt lat="47.2388160" lon="6.9468200">
        <ele>538.1</ele>
        <time>2022-07-21T10:17:48Z</time>
      </trkpt>
      <trkpt lat="47.2388280" lon="6.9468140">
        <ele>538.3</ele>
        <time>2022-07-21T10:17:49Z</time>
      </trkpt>
      <trkpt lat="47.2388360" lon="6.9468070">
        <ele>538.5</ele>
        <time>2022-07-21T10:17:50Z</time>
      </trkpt>
      <trkpt lat="47.2388380" lon="6.9468010">
        <ele>538.5</ele>
        <time>2022-07-21T10:17:51Z</time>
      </trkpt>
      <trkpt lat="47.2388420" lon="6.9467930">
        <ele>538.6</ele>
        <time>2022-07-21T10:17:52Z</time>
      </trkpt>
      <trkpt lat="47.2388440" lon="6.9467800">
        <ele>538.8</ele>
        <time>2022-07-21T10:17:53Z</time>
      </trkpt>
      <trkpt lat="47.2388440" lon="6.9467660">
        <ele>538.9</ele>
        <time>2022-07-21T10:17:54Z</time>
      </trkpt>
      <trkpt lat="47.2388360" lon="6.9467490">
        <ele>539.1</ele>
        <time>2022-07-21T10:17:55Z</time>
      </trkpt>
      <trkpt lat="47.2388270" lon="6.9467340">
        <ele>539.3</ele>
        <time>2022-07-21T10:17:56Z</time>
      </trkpt>
      <trkpt lat="47.2388230" lon="6.9467260">
        <ele>539.4</ele>
        <time>2022-07-21T10:17:57Z</time>
      </trkpt>
      <trkpt lat="47.2388210" lon="6.9467160">
        <ele>539.5</ele>
        <time>2022-07-21T10:17:58Z</time>
      </trkpt>
      <trkpt lat="47.2388200" lon="6.9467050">
        <ele>539.6</ele>
        <time>2022-07-21T10:17:59Z</time>
      </trkpt>
      <trkpt lat="47.2388180" lon="6.9466910">
        <ele>539.8</ele>
        <time>2022-07-21T10:18:00Z</time>
      </trkpt>
      <trkpt lat="47.2387990" lon="6.9466720">
        <ele>540.1</ele>
        <time>2022-07-21T10:18:01Z</time>
      </trkpt>
      <trkpt lat="47.2387920" lon="6.9466680">
        <ele>540.2</ele>
        <time>2022-07-21T10:18:02Z</time>
      </trkpt>
      <trkpt lat="47.2387850" lon="6.9466640">
        <ele>540.3</ele>
        <time>2022-07-21T10:18:03Z</time>
      </trkpt>
      <trkpt lat="47.2387780" lon="6.9466550">
        <ele>540.4</ele>
        <time>2022-07-21T10:18:04Z</time>
      </trkpt>
      <trkpt lat="47.2387660" lon="6.9466380">
        <ele>540.6</ele>
        <time>2022-07-21T10:18:05Z</time>
      </trkpt>
      <trkpt lat="47.2387600" lon="6.9466270">
        <ele>540.7</ele>
        <time>2022-07-21T10:18:06Z</time>
      </trkpt>
      <trkpt lat="47.2387560" lon="6.9466060">
        <ele>540.9</ele>
        <time>2022-07-21T10:18:07Z</time>
      </trkpt>
      <trkpt lat="47.2387560" lon="6.9465940">
        <ele>541.0</ele>
        <time>2022-07-21T10:18:08Z</time>
      </trkpt>
      <trkpt lat="47.2387550" lon="6.9465840">
        <ele>541.1</ele>
        <time>2022-07-21T10:18:09Z</time>
      </trkpt>
      <trkpt lat="47.2387520" lon="6.9465740">
        <ele>541.2</ele>
        <time>2022-07-21T10:18:10Z</time>
      </trkpt>
      <trkpt lat="47.2387470" lon="6.9465620">
        <ele>541.3</ele>
        <time>2022-07-21T10:18:11Z</time>
      </trkpt>
      <trkpt lat="47.2387440" lon="6.9465430">
        <ele>541.4</ele>
        <time>2022-07-21T10:18:12Z</time>
      </trkpt>
      <trkpt lat="47.2387430" lon="6.9465190">
        <ele>541.6</ele>
        <time>2022-07-21T10:18:13Z</time>
      </trkpt>
      <trkpt lat="47.2387390" lon="6.9464940">
        <ele>541.8</ele>
        <time>2022-07-21T10:18:14Z</time>
      </trkpt>
      <trkpt lat="47.2387310" lon="6.9464700">
        <ele>541.9</ele>
        <time>2022-07-21T10:18:15Z</time>
      </trkpt>
      <trkpt lat="47.2387210" lon="6.9464510">
        <ele>542.1</ele>
        <time>2022-07-21T10:18:16Z</time>
      </trkpt>
      <trkpt lat="47.2387130" lon="6.9464320">
        <ele>542.2</ele>
        <time>2022-07-21T10:18:17Z</time>
      </trkpt>
      <trkpt lat="47.2387070" lon="6.9464110">
        <ele>542.3</ele>
        <time>2022-07-21T10:18:18Z</time>
      </trkpt>
      <trkpt lat="47.2386940" lon="6.9463730">
        <ele>542.5</ele>
        <time>2022-07-21T10:18:19Z</time>
      </trkpt>
      <trkpt lat="47.2386890" lon="6.9463600">
        <ele>542.6</ele>
        <time>2022-07-21T10:18:20Z</time>
      </trkpt>
      <trkpt lat="47.2386770" lon="6.9463400">
        <ele>542.7</ele>
        <time>2022-07-21T10:18:21Z</time>
      </trkpt>
      <trkpt lat="47.2386670" lon="6.9463210">
        <ele>542.8</ele>
        <time>2022-07-21T10:18:22Z</time>
      </trkpt>
      <trkpt lat="47.2386620" lon="6.9463020">
        <ele>542.8</ele>
        <time>2022-07-21T10:18:23Z</time>
      </trkpt>
      <trkpt lat="47.2386600" lon="6.9462760">
        <ele>542.9</ele>
        <time>2022-07-21T10:18:24Z</time>
      </trkpt>
      <trkpt lat="47.2386600" lon="6.9462440">
        <ele>543.0</ele>
        <time>2022-07-21T10:18:25Z</time>
      </trkpt>
      <trkpt lat="47.2386590" lon="6.9462330">
        <ele>543.0</ele>
        <time>2022-07-21T10:18:26Z</time>
      </trkpt>
      <trkpt lat="47.2386590" lon="6.9462220">
        <ele>543.1</ele>
        <time>2022-07-21T10:18:27Z</time>
      </trkpt>
      <trkpt lat="47.2386570" lon="6.9462000">
        <ele>543.1</ele>
        <time>2022-07-21T10:18:28Z</time>
      </trkpt>
      <trkpt lat="47.2386570" lon="6.9461780">
        <ele>543.2</ele>
        <time>2022-07-21T10:18:29Z</time>
      </trkpt>
      <trkpt lat="47.2386540" lon="6.9461530">
        <ele>543.2</ele>
        <time>2022-07-21T10:18:30Z</time>
      </trkpt>
      <trkpt lat="47.2386520" lon="6.9461320">
        <ele>543.3</ele>
        <time>2022-07-21T10:18:31Z</time>
      </trkpt>
      <trkpt lat="47.2386470" lon="6.9460910">
        <ele>543.4</ele>
        <time>2022-07-21T10:18:32Z</time>
      </trkpt>
      <trkpt lat="47.2386470" lon="6.9460770">
        <ele>543.4</ele>
        <time>2022-07-21T10:18:33Z</time>
      </trkpt>
      <trkpt lat="47.2386440" lon="6.9460540">
        <ele>543.4</ele>
        <time>2022-07-21T10:18:34Z</time>
      </trkpt>
      <trkpt lat="47.2386370" lon="6.9460300">
        <ele>543.5</ele>
        <time>2022-07-21T10:18:35Z</time>
      </trkpt>
      <trkpt lat="47.2386190" lon="6.9459900">
        <ele>543.6</ele>
        <time>2022-07-21T10:18:36Z</time>
      </trkpt>
      <trkpt lat="47.2386130" lon="6.9459750">
        <ele>543.6</ele>
        <time>2022-07-21T10:18:37Z</time>
      </trkpt>
      <trkpt lat="47.2386050" lon="6.9459510">
        <ele>543.7</ele>
        <time>2022-07-21T10:18:38Z</time>
      </trkpt>
      <trkpt lat="47.2386120" lon="6.9459590">
        <ele>543.7</ele>
        <time>2022-07-21T10:18:39Z</time>
      </trkpt>
      <trkpt lat="47.2386150" lon="6.9459560">
        <ele>543.7</ele>
        <time>2022-07-21T10:18:40Z</time>
      </trkpt>
      <trkpt lat="47.2386110" lon="6.9459340">
        <ele>543.8</ele>
        <time>2022-07-21T10:18:41Z</time>
      </trkpt>
      <trkpt lat="47.2385970" lon="6.9458890">
        <ele>543.9</ele>
        <time>2022-07-21T10:18:42Z</time>
      </trkpt>
      <trkpt lat="47.2385910" lon="6.9458700">
        <ele>543.9</ele>
        <time>2022-07-21T10:18:44Z</time>
      </trkpt>
      <trkpt lat="47.2385840" lon="6.9458520">
        <ele>543.9</ele>
        <time>2022-07-21T10:18:45Z</time>
      </trkpt>
      <trkpt lat="47.2385770" lon="6.9458330">
        <ele>544.0</ele>
        <time>2022-07-21T10:18:46Z</time>
      </trkpt>
      <trkpt lat="47.2385590" lon="6.9457780">
        <ele>544.1</ele>
        <time>2022-07-21T10:18:47Z</time>
      </trkpt>
      <trkpt lat="47.2385430" lon="6.9457350">
        <ele>544.2</ele>
        <time>2022-07-21T10:18:48Z</time>
      </trkpt>
      <trkpt lat="47.2385380" lon="6.9457200">
        <ele>544.2</ele>
        <time>2022-07-21T10:18:49Z</time>
      </trkpt>
      <trkpt lat="47.2385280" lon="6.9456880">
        <ele>544.2</ele>
        <time>2022-07-21T10:18:50Z</time>
      </trkpt>
      <trkpt lat="47.2385150" lon="6.9456460">
        <ele>544.3</ele>
        <time>2022-07-21T10:18:52Z</time>
      </trkpt>
      <trkpt lat="47.2385050" lon="6.9456040">
        <ele>544.4</ele>
        <time>2022-07-21T10:18:53Z</time>
      </trkpt>
      <trkpt lat="47.2384930" lon="6.9455550">
        <ele>544.5</ele>
        <time>2022-07-21T10:18:54Z</time>
      </trkpt>
      <trkpt lat="47.2384880" lon="6.9455350">
        <ele>544.5</ele>
        <time>2022-07-21T10:18:55Z</time>
      </trkpt>
      <trkpt lat="47.2384770" lon="6.9454920">
        <ele>544.6</ele>
        <time>2022-07-21T10:18:56Z</time>
      </trkpt>
      <trkpt lat="47.2384630" lon="6.9454350">
        <ele>544.7</ele>
        <time>2022-07-21T10:18:58Z</time>
      </trkpt>
      <trkpt lat="47.2384500" lon="6.9453850">
        <ele>544.7</ele>
        <time>2022-07-21T10:18:59Z</time>
      </trkpt>
      <trkpt lat="47.2384460" lon="6.9453710">
        <ele>544.8</ele>
        <time>2022-07-21T10:19:00Z</time>
      </trkpt>
      <trkpt lat="47.2384370" lon="6.9453210">
        <ele>544.8</ele>
        <time>2022-07-21T10:19:01Z</time>
      </trkpt>
      <trkpt lat="47.2384340" lon="6.9453070">
        <ele>544.9</ele>
        <time>2022-07-21T10:19:02Z</time>
      </trkpt>
      <trkpt lat="47.2384210" lon="6.9452630">
        <ele>544.9</ele>
        <time>2022-07-21T10:19:03Z</time>
      </trkpt>
      <trkpt lat="47.2384170" lon="6.9452510">
        <ele>545.0</ele>
        <time>2022-07-21T10:19:04Z</time>
      </trkpt>
      <trkpt lat="47.2384100" lon="6.9452280">
        <ele>545.0</ele>
        <time>2022-07-21T10:19:05Z</time>
      </trkpt>
      <trkpt lat="47.2384030" lon="6.9452040">
        <ele>545.0</ele>
        <time>2022-07-21T10:19:06Z</time>
      </trkpt>
      <trkpt lat="47.2383850" lon="6.9451570">
        <ele>545.1</ele>
        <time>2022-07-21T10:19:07Z</time>
      </trkpt>
      <trkpt lat="47.2383630" lon="6.9451110">
        <ele>545.2</ele>
        <time>2022-07-21T10:19:08Z</time>
      </trkpt>
      <trkpt lat="47.2383550" lon="6.9450950">
        <ele>545.3</ele>
        <time>2022-07-21T10:19:09Z</time>
      </trkpt>
      <trkpt lat="47.2383250" lon="6.9450450">
        <ele>545.4</ele>
        <time>2022-07-21T10:19:11Z</time>
      </trkpt>
      <trkpt lat="47.2383130" lon="6.9450280">
        <ele>545.4</ele>
        <time>2022-07-21T10:19:12Z</time>
      </trkpt>
      <trkpt lat="47.2383010" lon="6.9450110">
        <ele>545.4</ele>
        <time>2022-07-21T10:19:13Z</time>
      </trkpt>
      <trkpt lat="47.2382790" lon="6.9449690">
        <ele>545.5</ele>
        <time>2022-07-21T10:19:14Z</time>
      </trkpt>
      <trkpt lat="47.2382700" lon="6.9449490">
        <ele>545.6</ele>
        <time>2022-07-21T10:19:15Z</time>
      </trkpt>
      <trkpt lat="47.2382570" lon="6.9448820">
        <ele>545.6</ele>
        <time>2022-07-21T10:19:17Z</time>
      </trkpt>
      <trkpt lat="47.2382540" lon="6.9448570">
        <ele>545.7</ele>
        <time>2022-07-21T10:19:18Z</time>
      </trkpt>
      <trkpt lat="47.2382510" lon="6.9448330">
        <ele>545.7</ele>
        <time>2022-07-21T10:19:19Z</time>
      </trkpt>
      <trkpt lat="47.2382480" lon="6.9447920">
        <ele>545.7</ele>
        <time>2022-07-21T10:19:20Z</time>
      </trkpt>
      <trkpt lat="47.2382450" lon="6.9447500">
        <ele>545.8</ele>
        <time>2022-07-21T10:19:21Z</time>
      </trkpt>
      <trkpt lat="47.2382410" lon="6.9446940">
        <ele>545.8</ele>
        <time>2022-07-21T10:19:22Z</time>
      </trkpt>
      <trkpt lat="47.2382310" lon="6.9446540">
        <ele>545.8</ele>
        <time>2022-07-21T10:19:23Z</time>
      </trkpt>
      <trkpt lat="47.2382110" lon="6.9446070">
        <ele>545.8</ele>
        <time>2022-07-21T10:19:25Z</time>
      </trkpt>
      <trkpt lat="47.2381950" lon="6.9445670">
        <ele>545.8</ele>
        <time>2022-07-21T10:19:26Z</time>
      </trkpt>
      <trkpt lat="47.2381700" lon="6.9445090">
        <ele>545.7</ele>
        <time>2022-07-21T10:19:28Z</time>
      </trkpt>
      <trkpt lat="47.2381590" lon="6.9444840">
        <ele>545.7</ele>
        <time>2022-07-21T10:19:29Z</time>
      </trkpt>
      <trkpt lat="47.2381410" lon="6.9444350">
        <ele>545.6</ele>
        <time>2022-07-21T10:19:31Z</time>
      </trkpt>
      <trkpt lat="47.2381320" lon="6.9443920">
        <ele>545.6</ele>
        <time>2022-07-21T10:19:32Z</time>
      </trkpt>
      <trkpt lat="47.2381310" lon="6.9443810">
        <ele>545.6</ele>
        <time>2022-07-21T10:19:33Z</time>
      </trkpt>
      <trkpt lat="47.2381090" lon="6.9443210">
        <ele>545.5</ele>
        <time>2022-07-21T10:19:34Z</time>
      </trkpt>
      <trkpt lat="47.2380960" lon="6.9442940">
        <ele>545.4</ele>
        <time>2022-07-21T10:19:35Z</time>
      </trkpt>
      <trkpt lat="47.2380710" lon="6.9442540">
        <ele>545.3</ele>
        <time>2022-07-21T10:19:37Z</time>
      </trkpt>
      <trkpt lat="47.2380500" lon="6.9442090">
        <ele>545.2</ele>
        <time>2022-07-21T10:19:38Z</time>
      </trkpt>
      <trkpt lat="47.2380440" lon="6.9441900">
        <ele>545.2</ele>
        <time>2022-07-21T10:19:39Z</time>
      </trkpt>
      <trkpt lat="47.2380080" lon="6.9441350">
        <ele>545.1</ele>
        <time>2022-07-21T10:19:40Z</time>
      </trkpt>
      <trkpt lat="47.2379700" lon="6.9441130">
        <ele>544.9</ele>
        <time>2022-07-21T10:19:41Z</time>
      </trkpt>
      <trkpt lat="47.2379720" lon="6.9440790">
        <ele>544.8</ele>
        <time>2022-07-21T10:19:42Z</time>
      </trkpt>
      <trkpt lat="47.2379760" lon="6.9440680">
        <ele>544.8</ele>
        <time>2022-07-21T10:19:43Z</time>
      </trkpt>
      <trkpt lat="47.2379230" lon="6.9440210">
        <ele>544.6</ele>
        <time>2022-07-21T10:19:44Z</time>
      </trkpt>
      <trkpt lat="47.2378590" lon="6.9439790">
        <ele>544.3</ele>
        <time>2022-07-21T10:19:46Z</time>
      </trkpt>
      <trkpt lat="47.2377780" lon="6.9439090">
        <ele>543.8</ele>
        <time>2022-07-21T10:19:47Z</time>
      </trkpt>
      <trkpt lat="47.2377190" lon="6.9438660">
        <ele>543.5</ele>
        <time>2022-07-21T10:19:48Z</time>
      </trkpt>
      <trkpt lat="47.2376870" lon="6.9438430">
        <ele>543.3</ele>
        <time>2022-07-21T10:19:49Z</time>
      </trkpt>
      <trkpt lat="47.2376320" lon="6.9437970">
        <ele>543.0</ele>
        <time>2022-07-21T10:19:50Z</time>
      </trkpt>
      <trkpt lat="47.2375930" lon="6.9437520">
        <ele>542.7</ele>
        <time>2022-07-21T10:19:51Z</time>
      </trkpt>
      <trkpt lat="47.2375440" lon="6.9437070">
        <ele>542.4</ele>
        <time>2022-07-21T10:19:52Z</time>
      </trkpt>
      <trkpt lat="47.2374800" lon="6.9436220">
        <ele>541.9</ele>
        <time>2022-07-21T10:19:53Z</time>
      </trkpt>
      <trkpt lat="47.2374500" lon="6.9435810">
        <ele>541.6</ele>
        <time>2022-07-21T10:19:54Z</time>
      </trkpt>
      <trkpt lat="47.2374190" lon="6.9435410">
        <ele>541.4</ele>
        <time>2022-07-21T10:19:55Z</time>
      </trkpt>
      <trkpt lat="47.2373820" lon="6.9434730">
        <ele>541.0</ele>
        <time>2022-07-21T10:19:56Z</time>
      </trkpt>
      <trkpt lat="47.2373490" lon="6.9434320">
        <ele>540.6</ele>
        <time>2022-07-21T10:19:57Z</time>
      </trkpt>
      <trkpt lat="47.2372710" lon="6.9433760">
        <ele>540.0</ele>
        <time>2022-07-21T10:19:58Z</time>
      </trkpt>
      <trkpt lat="47.2371810" lon="6.9433160">
        <ele>539.3</ele>
        <time>2022-07-21T10:19:59Z</time>
      </trkpt>
      <trkpt lat="47.2370940" lon="6.9432650">
        <ele>538.5</ele>
        <time>2022-07-21T10:20:00Z</time>
      </trkpt>
      <trkpt lat="47.2369920" lon="6.9432340">
        <ele>537.7</ele>
        <time>2022-07-21T10:20:01Z</time>
      </trkpt>
      <trkpt lat="47.2368920" lon="6.9432140">
        <ele>536.9</ele>
        <time>2022-07-21T10:20:02Z</time>
      </trkpt>
      <trkpt lat="47.2368050" lon="6.9431920">
        <ele>536.0</ele>
        <time>2022-07-21T10:20:03Z</time>
      </trkpt>
      <trkpt lat="47.2367310" lon="6.9431770">
        <ele>535.3</ele>
        <time>2022-07-21T10:20:04Z</time>
      </trkpt>
      <trkpt lat="47.2366810" lon="6.9431600">
        <ele>534.8</ele>
        <time>2022-07-21T10:20:05Z</time>
      </trkpt>
      <trkpt lat="47.2366530" lon="6.9430830">
        <ele>534.1</ele>
        <time>2022-07-21T10:20:07Z</time>
      </trkpt>
      <trkpt lat="47.2365390" lon="6.9430990">
        <ele>532.9</ele>
        <time>2022-07-21T10:20:08Z</time>
      </trkpt>
      <trkpt lat="47.2364670" lon="6.9431230">
        <ele>532.1</ele>
        <time>2022-07-21T10:20:09Z</time>
      </trkpt>
      <trkpt lat="47.2363970" lon="6.9431580">
        <ele>531.3</ele>
        <time>2022-07-21T10:20:10Z</time>
      </trkpt>
      <trkpt lat="47.2363280" lon="6.9431580">
        <ele>530.6</ele>
        <time>2022-07-21T10:20:11Z</time>
      </trkpt>
      <trkpt lat="47.2362670" lon="6.9431520">
        <ele>529.9</ele>
        <time>2022-07-21T10:20:12Z</time>
      </trkpt>
      <trkpt lat="47.2362210" lon="6.9431380">
        <ele>529.4</ele>
        <time>2022-07-21T10:20:13Z</time>
      </trkpt>
      <trkpt lat="47.2361940" lon="6.9430810">
        <ele>528.9</ele>
        <time>2022-07-21T10:20:15Z</time>
      </trkpt>
      <trkpt lat="47.2361410" lon="6.9430880">
        <ele>528.3</ele>
        <time>2022-07-21T10:20:16Z</time>
      </trkpt>
      <trkpt lat="47.2360920" lon="6.9430860">
        <ele>527.7</ele>
        <time>2022-07-21T10:20:17Z</time>
      </trkpt>
      <trkpt lat="47.2360620" lon="6.9430810">
        <ele>527.4</ele>
        <time>2022-07-21T10:20:18Z</time>
      </trkpt>
      <trkpt lat="47.2360480" lon="6.9430460">
        <ele>527.1</ele>
        <time>2022-07-21T10:20:19Z</time>
      </trkpt>
      <trkpt lat="47.2360290" lon="6.9430460">
        <ele>526.9</ele>
        <time>2022-07-21T10:20:20Z</time>
      </trkpt>
      <trkpt lat="47.2359370" lon="6.9430500">
        <ele>525.9</ele>
        <time>2022-07-21T10:20:21Z</time>
      </trkpt>
      <trkpt lat="47.2358420" lon="6.9430320">
        <ele>524.8</ele>
        <time>2022-07-21T10:20:22Z</time>
      </trkpt>
      <trkpt lat="47.2357490" lon="6.9430340">
        <ele>523.6</ele>
        <time>2022-07-21T10:20:23Z</time>
      </trkpt>
      <trkpt lat="47.2356760" lon="6.9430260">
        <ele>522.8</ele>
        <time>2022-07-21T10:20:24Z</time>
      </trkpt>
      <trkpt lat="47.2356000" lon="6.9430050">
        <ele>521.9</ele>
        <time>2022-07-21T10:20:25Z</time>
      </trkpt>
      <trkpt lat="47.2355380" lon="6.9429950">
        <ele>521.2</ele>
        <time>2022-07-21T10:20:26Z</time>
      </trkpt>
      <trkpt lat="47.2354780" lon="6.9429840">
        <ele>520.6</ele>
        <time>2022-07-21T10:20:27Z</time>
      </trkpt>
      <trkpt lat="47.2354210" lon="6.9429850">
        <ele>520.2</ele>
        <time>2022-07-21T10:20:28Z</time>
      </trkpt>
      <trkpt lat="47.2353560" lon="6.9429840">
        <ele>519.7</ele>
        <time>2022-07-21T10:20:29Z</time>
      </trkpt>
      <trkpt lat="47.2352700" lon="6.9429640">
        <ele>519.3</ele>
        <time>2022-07-21T10:20:30Z</time>
      </trkpt>
      <trkpt lat="47.2351850" lon="6.9429380">
        <ele>519.1</ele>
        <time>2022-07-21T10:20:31Z</time>
      </trkpt>
      <trkpt lat="47.2351110" lon="6.9429230">
        <ele>519.0</ele>
        <time>2022-07-21T10:20:32Z</time>
      </trkpt>
      <trkpt lat="47.2350360" lon="6.9429000">
        <ele>519.0</ele>
        <time>2022-07-21T10:20:33Z</time>
      </trkpt>
      <trkpt lat="47.2349600" lon="6.9428770">
        <ele>519.1</ele>
        <time>2022-07-21T10:20:34Z</time>
      </trkpt>
      <trkpt lat="47.2348950" lon="6.9428730">
        <ele>519.2</ele>
        <time>2022-07-21T10:20:35Z</time>
      </trkpt>
      <trkpt lat="47.2348570" lon="6.9428660">
        <ele>519.2</ele>
        <time>2022-07-21T10:20:36Z</time>
      </trkpt>
      <trkpt lat="47.2348450" lon="6.9428260">
        <ele>519.3</ele>
        <time>2022-07-21T10:20:37Z</time>
      </trkpt>
      <trkpt lat="47.2348370" lon="6.9428200">
        <ele>519.3</ele>
        <time>2022-07-21T10:20:38Z</time>
      </trkpt>
      <trkpt lat="47.2348240" lon="6.9428140">
        <ele>519.3</ele>
        <time>2022-07-21T10:20:39Z</time>
      </trkpt>
      <trkpt lat="47.2348110" lon="6.9428050">
        <ele>519.3</ele>
        <time>2022-07-21T10:20:40Z</time>
      </trkpt>
      <trkpt lat="47.2347690" lon="6.9428150">
        <ele>519.2</ele>
        <time>2022-07-21T10:20:41Z</time>
      </trkpt>
      <trkpt lat="47.2347490" lon="6.9428220">
        <ele>519.2</ele>
        <time>2022-07-21T10:20:42Z</time>
      </trkpt>
      <trkpt lat="47.2347030" lon="6.9428390">
        <ele>519.2</ele>
        <time>2022-07-21T10:20:43Z</time>
      </trkpt>
      <trkpt lat="47.2346580" lon="6.9428420">
        <ele>519.2</ele>
        <time>2022-07-21T10:20:44Z</time>
      </trkpt>
      <trkpt lat="47.2346240" lon="6.9428380">
        <ele>519.2</ele>
        <time>2022-07-21T10:20:45Z</time>
      </trkpt>
      <trkpt lat="47.2346300" lon="6.9428130">
        <ele>519.2</ele>
        <time>2022-07-21T10:20:46Z</time>
      </trkpt>
      <trkpt lat="47.2346360" lon="6.9428080">
        <ele>519.2</ele>
        <time>2022-07-21T10:20:48Z</time>
      </trkpt>
      <trkpt lat="47.2346160" lon="6.9428130">
        <ele>519.3</ele>
        <time>2022-07-21T10:20:49Z</time>
      </trkpt>
      <trkpt lat="47.2345940" lon="6.9428150">
        <ele>519.3</ele>
        <time>2022-07-21T10:20:50Z</time>
      </trkpt>
      <trkpt lat="47.2345620" lon="6.9428200">
        <ele>519.3</ele>
        <time>2022-07-21T10:20:51Z</time>
      </trkpt>
      <trkpt lat="47.2345250" lon="6.9428160">
        <ele>519.3</ele>
        <time>2022-07-21T10:20:52Z</time>
      </trkpt>
      <trkpt lat="47.2344670" lon="6.9428120">
        <ele>519.3</ele>
        <time>2022-07-21T10:20:53Z</time>
      </trkpt>
      <trkpt lat="47.2344390" lon="6.9428070">
        <ele>519.4</ele>
        <time>2022-07-21T10:20:54Z</time>
      </trkpt>
      <trkpt lat="47.2344090" lon="6.9427990">
        <ele>519.4</ele>
        <time>2022-07-21T10:20:56Z</time>
      </trkpt>
      <trkpt lat="47.2344030" lon="6.9427970">
        <ele>519.4</ele>
        <time>2022-07-21T10:20:57Z</time>
      </trkpt>
      <trkpt lat="47.2343820" lon="6.9427810">
        <ele>519.4</ele>
        <time>2022-07-21T10:20:58Z</time>
      </trkpt>
      <trkpt lat="47.2343650" lon="6.9427620">
        <ele>519.4</ele>
        <time>2022-07-21T10:21:00Z</time>
      </trkpt>
      <trkpt lat="47.2343400" lon="6.9427300">
        <ele>519.4</ele>
        <time>2022-07-21T10:21:01Z</time>
      </trkpt>
      <trkpt lat="47.2343260" lon="6.9427160">
        <ele>519.4</ele>
        <time>2022-07-21T10:21:02Z</time>
      </trkpt>
      <trkpt lat="47.2342950" lon="6.9427020">
        <ele>519.4</ele>
        <time>2022-07-21T10:21:03Z</time>
      </trkpt>
      <trkpt lat="47.2342630" lon="6.9426660">
        <ele>519.4</ele>
        <time>2022-07-21T10:21:04Z</time>
      </trkpt>
      <trkpt lat="47.2342360" lon="6.9426440">
        <ele>519.4</ele>
        <time>2022-07-21T10:21:05Z</time>
      </trkpt>
      <trkpt lat="47.2342000" lon="6.9426320">
        <ele>519.4</ele>
        <time>2022-07-21T10:21:06Z</time>
      </trkpt>
      <trkpt lat="47.2341740" lon="6.9426690">
        <ele>519.3</ele>
        <time>2022-07-21T10:21:07Z</time>
      </trkpt>
      <trkpt lat="47.2341230" lon="6.9426760">
        <ele>519.3</ele>
        <time>2022-07-21T10:21:08Z</time>
      </trkpt>
      <trkpt lat="47.2340770" lon="6.9426490">
        <ele>519.3</ele>
        <time>2022-07-21T10:21:10Z</time>
      </trkpt>
      <trkpt lat="47.2340250" lon="6.9426240">
        <ele>519.3</ele>
        <time>2022-07-21T10:21:11Z</time>
      </trkpt>
      <trkpt lat="47.2339620" lon="6.9425870">
        <ele>519.2</ele>
        <time>2022-07-21T10:21:12Z</time>
      </trkpt>
      <trkpt lat="47.2339020" lon="6.9425430">
        <ele>519.2</ele>
        <time>2022-07-21T10:21:13Z</time>
      </trkpt>
      <trkpt lat="47.2338410" lon="6.9424950">
        <ele>519.3</ele>
        <time>2022-07-21T10:21:15Z</time>
      </trkpt>
      <trkpt lat="47.2337970" lon="6.9424600">
        <ele>519.3</ele>
        <time>2022-07-21T10:21:16Z</time>
      </trkpt>
      <trkpt lat="47.2337520" lon="6.9424280">
        <ele>519.4</ele>
        <time>2022-07-21T10:21:17Z</time>
      </trkpt>
      <trkpt lat="47.2337030" lon="6.9423950">
        <ele>519.5</ele>
        <time>2022-07-21T10:21:18Z</time>
      </trkpt>
      <trkpt lat="47.2336590" lon="6.9423700">
        <ele>519.5</ele>
        <time>2022-07-21T10:21:19Z</time>
      </trkpt>
      <trkpt lat="47.2335830" lon="6.9423340">
        <ele>519.6</ele>
        <time>2022-07-21T10:21:20Z</time>
      </trkpt>
      <trkpt lat="47.2335380" lon="6.9423210">
        <ele>519.7</ele>
        <time>2022-07-21T10:21:22Z</time>
      </trkpt>
      <trkpt lat="47.2335020" lon="6.9423120">
        <ele>519.7</ele>
        <time>2022-07-21T10:21:23Z</time>
      </trkpt>
      <trkpt lat="47.2334410" lon="6.9423070">
        <ele>519.8</ele>
        <time>2022-07-21T10:21:24Z</time>
      </trkpt>
      <trkpt lat="47.2333830" lon="6.9423080">
        <ele>519.8</ele>
        <time>2022-07-21T10:21:25Z</time>
      </trkpt>
      <trkpt lat="47.2333450" lon="6.9423050">
        <ele>519.9</ele>
        <time>2022-07-21T10:21:26Z</time>
      </trkpt>
      <trkpt lat="47.2333000" lon="6.9423010">
        <ele>519.9</ele>
        <time>2022-07-21T10:21:28Z</time>
      </trkpt>
      <trkpt lat="47.2332520" lon="6.9422820">
        <ele>520.0</ele>
        <time>2022-07-21T10:21:29Z</time>
      </trkpt>
      <trkpt lat="47.2332020" lon="6.9422550">
        <ele>520.0</ele>
        <time>2022-07-21T10:21:31Z</time>
      </trkpt>
      <trkpt lat="47.2331640" lon="6.9422330">
        <ele>520.1</ele>
        <time>2022-07-21T10:21:32Z</time>
      </trkpt>
      <trkpt lat="47.2331350" lon="6.9422170">
        <ele>520.1</ele>
        <time>2022-07-21T10:21:33Z</time>
      </trkpt>
      <trkpt lat="47.2331080" lon="6.9421980">
        <ele>520.1</ele>
        <time>2022-07-21T10:21:34Z</time>
      </trkpt>
      <trkpt lat="47.2330640" lon="6.9421640">
        <ele>520.2</ele>
        <time>2022-07-21T10:21:35Z</time>
      </trkpt>
      <trkpt lat="47.2330430" lon="6.9421490">
        <ele>520.2</ele>
        <time>2022-07-21T10:21:36Z</time>
      </trkpt>
      <trkpt lat="47.2330020" lon="6.9421170">
        <ele>520.2</ele>
        <time>2022-07-21T10:21:38Z</time>
      </trkpt>
      <trkpt lat="47.2329740" lon="6.9420950">
        <ele>520.2</ele>
        <time>2022-07-21T10:21:39Z</time>
      </trkpt>
      <trkpt lat="47.2329480" lon="6.9420730">
        <ele>520.2</ele>
        <time>2022-07-21T10:21:40Z</time>
      </trkpt>
      <trkpt lat="47.2329390" lon="6.9420650">
        <ele>520.2</ele>
        <time>2022-07-21T10:21:41Z</time>
      </trkpt>
      <trkpt lat="47.2329110" lon="6.9420460">
        <ele>520.2</ele>
        <time>2022-07-21T10:21:42Z</time>
      </trkpt>
      <trkpt lat="47.2328790" lon="6.9420240">
        <ele>520.2</ele>
        <time>2022-07-21T10:21:43Z</time>
      </trkpt>
      <trkpt lat="47.2328650" lon="6.9420140">
        <ele>520.2</ele>
        <time>2022-07-21T10:21:44Z</time>
      </trkpt>
      <trkpt lat="47.2328400" lon="6.9419980">
        <ele>520.2</ele>
        <time>2022-07-21T10:21:45Z</time>
      </trkpt>
      <trkpt lat="47.2328060" lon="6.9419830">
        <ele>520.2</ele>
        <time>2022-07-21T10:21:46Z</time>
      </trkpt>
      <trkpt lat="47.2327870" lon="6.9419730">
        <ele>520.2</ele>
        <time>2022-07-21T10:21:47Z</time>
      </trkpt>
      <trkpt lat="47.2327630" lon="6.9419540">
        <ele>520.2</ele>
        <time>2022-07-21T10:21:49Z</time>
      </trkpt>
      <trkpt lat="47.2327290" lon="6.9419220">
        <ele>520.2</ele>
        <time>2022-07-21T10:21:50Z</time>
      </trkpt>
      <trkpt lat="47.2327140" lon="6.9419060">
        <ele>520.2</ele>
        <time>2022-07-21T10:21:51Z</time>
      </trkpt>
      <trkpt lat="47.2326910" lon="6.9418830">
        <ele>520.1</ele>
        <time>2022-07-21T10:21:52Z</time>
      </trkpt>
      <trkpt lat="47.2326600" lon="6.9418450">
        <ele>520.1</ele>
        <time>2022-07-21T10:21:53Z</time>
      </trkpt>
      <trkpt lat="47.2326260" lon="6.9418030">
        <ele>520.1</ele>
        <time>2022-07-21T10:21:54Z</time>
      </trkpt>
      <trkpt lat="47.2326080" lon="6.9417800">
        <ele>520.1</ele>
        <time>2022-07-21T10:21:55Z</time>
      </trkpt>
      <trkpt lat="47.2325770" lon="6.9417440">
        <ele>520.1</ele>
        <time>2022-07-21T10:21:57Z</time>
      </trkpt>
      <trkpt lat="47.2325450" lon="6.9417170">
        <ele>520.1</ele>
        <time>2022-07-21T10:21:58Z</time>
      </trkpt>
      <trkpt lat="47.2325210" lon="6.9416940">
        <ele>520.1</ele>
        <time>2022-07-21T10:21:59Z</time>
      </trkpt>
      <trkpt lat="47.2324910" lon="6.9416650">
        <ele>520.1</ele>
        <time>2022-07-21T10:22:00Z</time>
      </trkpt>
      <trkpt lat="47.2324460" lon="6.9416300">
        <ele>520.1</ele>
        <time>2022-07-21T10:22:01Z</time>
      </trkpt>
      <trkpt lat="47.2324060" lon="6.9416070">
        <ele>520.1</ele>
        <time>2022-07-21T10:22:03Z</time>
      </trkpt>
      <trkpt lat="47.2323580" lon="6.9415790">
        <ele>520.1</ele>
        <time>2022-07-21T10:22:04Z</time>
      </trkpt>
      <trkpt lat="47.2323140" lon="6.9415500">
        <ele>520.1</ele>
        <time>2022-07-21T10:22:05Z</time>
      </trkpt>
      <trkpt lat="47.2322750" lon="6.9415220">
        <ele>520.1</ele>
        <time>2022-07-21T10:22:06Z</time>
      </trkpt>
      <trkpt lat="47.2322200" lon="6.9414850">
        <ele>520.1</ele>
        <time>2022-07-21T10:22:07Z</time>
      </trkpt>
      <trkpt lat="47.2321610" lon="6.9414470">
        <ele>520.1</ele>
        <time>2022-07-21T10:22:08Z</time>
      </trkpt>
      <trkpt lat="47.2321110" lon="6.9414130">
        <ele>520.1</ele>
        <time>2022-07-21T10:22:09Z</time>
      </trkpt>
      <trkpt lat="47.2320390" lon="6.9413640">
        <ele>520.1</ele>
        <time>2022-07-21T10:22:11Z</time>
      </trkpt>
      <trkpt lat="47.2319840" lon="6.9413280">
        <ele>520.1</ele>
        <time>2022-07-21T10:22:12Z</time>
      </trkpt>
      <trkpt lat="47.2318990" lon="6.9412830">
        <ele>520.2</ele>
        <time>2022-07-21T10:22:14Z</time>
      </trkpt>
      <trkpt lat="47.2318290" lon="6.9412450">
        <ele>520.3</ele>
        <time>2022-07-21T10:22:15Z</time>
      </trkpt>
      <trkpt lat="47.2317770" lon="6.9412130">
        <ele>520.4</ele>
        <time>2022-07-21T10:22:16Z</time>
      </trkpt>
      <trkpt lat="47.2317380" lon="6.9411860">
        <ele>520.4</ele>
        <time>2022-07-21T10:22:17Z</time>
      </trkpt>
      <trkpt lat="47.2316980" lon="6.9411560">
        <ele>520.5</ele>
        <time>2022-07-21T10:22:18Z</time>
      </trkpt>
      <trkpt lat="47.2316630" lon="6.9411290">
        <ele>520.5</ele>
        <time>2022-07-21T10:22:19Z</time>
      </trkpt>
      <trkpt lat="47.2316330" lon="6.9410980">
        <ele>520.6</ele>
        <time>2022-07-21T10:22:20Z</time>
      </trkpt>
      <trkpt lat="47.2315940" lon="6.9410620">
        <ele>520.7</ele>
        <time>2022-07-21T10:22:21Z</time>
      </trkpt>
      <trkpt lat="47.2315620" lon="6.9410260">
        <ele>520.7</ele>
        <time>2022-07-21T10:22:23Z</time>
      </trkpt>
      <trkpt lat="47.2315360" lon="6.9409840">
        <ele>520.8</ele>
        <time>2022-07-21T10:22:24Z</time>
      </trkpt>
      <trkpt lat="47.2315020" lon="6.9409430">
        <ele>520.8</ele>
        <time>2022-07-21T10:22:25Z</time>
      </trkpt>
      <trkpt lat="47.2314870" lon="6.9409290">
        <ele>520.9</ele>
        <time>2022-07-21T10:22:26Z</time>
      </trkpt>
      <trkpt lat="47.2314700" lon="6.9409150">
        <ele>520.9</ele>
        <time>2022-07-21T10:22:27Z</time>
      </trkpt>
      <trkpt lat="47.2314540" lon="6.9409040">
        <ele>520.9</ele>
        <time>2022-07-21T10:22:29Z</time>
      </trkpt>
      <trkpt lat="47.2314360" lon="6.9408700">
        <ele>520.9</ele>
        <time>2022-07-21T10:22:30Z</time>
      </trkpt>
      <trkpt lat="47.2314240" lon="6.9408430">
        <ele>521.0</ele>
        <time>2022-07-21T10:22:32Z</time>
      </trkpt>
      <trkpt lat="47.2314130" lon="6.9408170">
        <ele>521.0</ele>
        <time>2022-07-21T10:22:33Z</time>
      </trkpt>
      <trkpt lat="47.2314010" lon="6.9407900">
        <ele>521.0</ele>
        <time>2022-07-21T10:22:34Z</time>
      </trkpt>
      <trkpt lat="47.2313790" lon="6.9407440">
        <ele>521.0</ele>
        <time>2022-07-21T10:22:36Z</time>
      </trkpt>
      <trkpt lat="47.2313690" lon="6.9407060">
        <ele>521.0</ele>
        <time>2022-07-21T10:22:37Z</time>
      </trkpt>
      <trkpt lat="47.2313460" lon="6.9406580">
        <ele>521.1</ele>
        <time>2022-07-21T10:22:39Z</time>
      </trkpt>
      <trkpt lat="47.2313240" lon="6.9406120">
        <ele>521.1</ele>
        <time>2022-07-21T10:22:40Z</time>
      </trkpt>
      <trkpt lat="47.2313030" lon="6.9405750">
        <ele>521.1</ele>
        <time>2022-07-21T10:22:41Z</time>
      </trkpt>
      <trkpt lat="47.2312660" lon="6.9405270">
        <ele>521.2</ele>
        <time>2022-07-21T10:22:42Z</time>
      </trkpt>
      <trkpt lat="47.2312370" lon="6.9404860">
        <ele>521.2</ele>
        <time>2022-07-21T10:22:44Z</time>
      </trkpt>
      <trkpt lat="47.2312120" lon="6.9404470">
        <ele>521.2</ele>
        <time>2022-07-21T10:22:45Z</time>
      </trkpt>
      <trkpt lat="47.2311820" lon="6.9403950">
        <ele>521.3</ele>
        <time>2022-07-21T10:22:46Z</time>
      </trkpt>
      <trkpt lat="47.2311670" lon="6.9403680">
        <ele>521.3</ele>
        <time>2022-07-21T10:22:47Z</time>
      </trkpt>
      <trkpt lat="47.2311310" lon="6.9402990">
        <ele>521.4</ele>
        <time>2022-07-21T10:22:48Z</time>
      </trkpt>
      <trkpt lat="47.2311010" lon="6.9402410">
        <ele>521.4</ele>
        <time>2022-07-21T10:22:49Z</time>
      </trkpt>
      <trkpt lat="47.2310720" lon="6.9401720">
        <ele>521.4</ele>
        <time>2022-07-21T10:22:51Z</time>
      </trkpt>
      <trkpt lat="47.2309920" lon="6.9400230">
        <ele>521.2</ele>
        <time>2022-07-21T10:22:52Z</time>
      </trkpt>
      <trkpt lat="47.2309730" lon="6.9399610">
        <ele>521.0</ele>
        <time>2022-07-21T10:22:53Z</time>
      </trkpt>
      <trkpt lat="47.2309390" lon="6.9398830">
        <ele>520.9</ele>
        <time>2022-07-21T10:22:54Z</time>
      </trkpt>
      <trkpt lat="47.2309140" lon="6.9398300">
        <ele>520.8</ele>
        <time>2022-07-21T10:22:55Z</time>
      </trkpt>
      <trkpt lat="47.2308570" lon="6.9396700">
        <ele>520.5</ele>
        <time>2022-07-21T10:22:57Z</time>
      </trkpt>
      <trkpt lat="47.2308400" lon="6.9395800">
        <ele>520.4</ele>
        <time>2022-07-21T10:22:58Z</time>
      </trkpt>
      <trkpt lat="47.2308330" lon="6.9394950">
        <ele>520.3</ele>
        <time>2022-07-21T10:22:59Z</time>
      </trkpt>
      <trkpt lat="47.2308310" lon="6.9394140">
        <ele>520.2</ele>
        <time>2022-07-21T10:23:00Z</time>
      </trkpt>
      <trkpt lat="47.2308230" lon="6.9393500">
        <ele>520.1</ele>
        <time>2022-07-21T10:23:01Z</time>
      </trkpt>
      <trkpt lat="47.2307950" lon="6.9392960">
        <ele>520.0</ele>
        <time>2022-07-21T10:23:02Z</time>
      </trkpt>
      <trkpt lat="47.2307670" lon="6.9392340">
        <ele>520.0</ele>
        <time>2022-07-21T10:23:03Z</time>
      </trkpt>
      <trkpt lat="47.2307480" lon="6.9391760">
        <ele>519.9</ele>
        <time>2022-07-21T10:23:04Z</time>
      </trkpt>
      <trkpt lat="47.2307260" lon="6.9391190">
        <ele>519.9</ele>
        <time>2022-07-21T10:23:05Z</time>
      </trkpt>
      <trkpt lat="47.2307100" lon="6.9390390">
        <ele>519.8</ele>
        <time>2022-07-21T10:23:06Z</time>
      </trkpt>
      <trkpt lat="47.2306960" lon="6.9389600">
        <ele>519.8</ele>
        <time>2022-07-21T10:23:07Z</time>
      </trkpt>
      <trkpt lat="47.2306840" lon="6.9388950">
        <ele>519.8</ele>
        <time>2022-07-21T10:23:08Z</time>
      </trkpt>
      <trkpt lat="47.2306910" lon="6.9388180">
        <ele>519.8</ele>
        <time>2022-07-21T10:23:09Z</time>
      </trkpt>
      <trkpt lat="47.2306880" lon="6.9387530">
        <ele>519.8</ele>
        <time>2022-07-21T10:23:10Z</time>
      </trkpt>
      <trkpt lat="47.2306730" lon="6.9386990">
        <ele>519.8</ele>
        <time>2022-07-21T10:23:11Z</time>
      </trkpt>
      <trkpt lat="47.2306670" lon="6.9386710">
        <ele>519.8</ele>
        <time>2022-07-21T10:23:12Z</time>
      </trkpt>
      <trkpt lat="47.2306560" lon="6.9385970">
        <ele>519.9</ele>
        <time>2022-07-21T10:23:14Z</time>
      </trkpt>
      <trkpt lat="47.2306450" lon="6.9385320">
        <ele>519.9</ele>
        <time>2022-07-21T10:23:15Z</time>
      </trkpt>
      <trkpt lat="47.2306350" lon="6.9384770">
        <ele>519.9</ele>
        <time>2022-07-21T10:23:16Z</time>
      </trkpt>
      <trkpt lat="47.2306220" lon="6.9384170">
        <ele>520.0</ele>
        <time>2022-07-21T10:23:17Z</time>
      </trkpt>
      <trkpt lat="47.2306130" lon="6.9383590">
        <ele>520.0</ele>
        <time>2022-07-21T10:23:18Z</time>
      </trkpt>
      <trkpt lat="47.2306110" lon="6.9383000">
        <ele>520.0</ele>
        <time>2022-07-21T10:23:19Z</time>
      </trkpt>
      <trkpt lat="47.2306030" lon="6.9382380">
        <ele>520.1</ele>
        <time>2022-07-21T10:23:20Z</time>
      </trkpt>
      <trkpt lat="47.2305950" lon="6.9381760">
        <ele>520.1</ele>
        <time>2022-07-21T10:23:21Z</time>
      </trkpt>
      <trkpt lat="47.2305900" lon="6.9381210">
        <ele>520.1</ele>
        <time>2022-07-21T10:23:22Z</time>
      </trkpt>
      <trkpt lat="47.2305880" lon="6.9380620">
        <ele>520.2</ele>
        <time>2022-07-21T10:23:23Z</time>
      </trkpt>
      <trkpt lat="47.2305940" lon="6.9379660">
        <ele>520.2</ele>
        <time>2022-07-21T10:23:25Z</time>
      </trkpt>
      <trkpt lat="47.2306040" lon="6.9378910">
        <ele>520.2</ele>
        <time>2022-07-21T10:23:26Z</time>
      </trkpt>
      <trkpt lat="47.2306070" lon="6.9378300">
        <ele>520.2</ele>
        <time>2022-07-21T10:23:27Z</time>
      </trkpt>
      <trkpt lat="47.2306040" lon="6.9377470">
        <ele>520.2</ele>
        <time>2022-07-21T10:23:28Z</time>
      </trkpt>
      <trkpt lat="47.2306000" lon="6.9376570">
        <ele>520.1</ele>
        <time>2022-07-21T10:23:30Z</time>
      </trkpt>
      <trkpt lat="47.2305940" lon="6.9375900">
        <ele>520.1</ele>
        <time>2022-07-21T10:23:31Z</time>
      </trkpt>
      <trkpt lat="47.2305880" lon="6.9375290">
        <ele>520.1</ele>
        <time>2022-07-21T10:23:32Z</time>
      </trkpt>
      <trkpt lat="47.2305860" lon="6.9374660">
        <ele>520.1</ele>
        <time>2022-07-21T10:23:33Z</time>
      </trkpt>
      <trkpt lat="47.2305820" lon="6.9373870">
        <ele>520.0</ele>
        <time>2022-07-21T10:23:34Z</time>
      </trkpt>
      <trkpt lat="47.2305780" lon="6.9372940">
        <ele>520.0</ele>
        <time>2022-07-21T10:23:35Z</time>
      </trkpt>
      <trkpt lat="47.2305810" lon="6.9372250">
        <ele>520.0</ele>
        <time>2022-07-21T10:23:37Z</time>
      </trkpt>
      <trkpt lat="47.2305840" lon="6.9371690">
        <ele>520.0</ele>
        <time>2022-07-21T10:23:38Z</time>
      </trkpt>
      <trkpt lat="47.2305940" lon="6.9370790">
        <ele>519.9</ele>
        <time>2022-07-21T10:23:39Z</time>
      </trkpt>
      <trkpt lat="47.2305890" lon="6.9369360">
        <ele>519.9</ele>
        <time>2022-07-21T10:23:41Z</time>
      </trkpt>
      <trkpt lat="47.2305770" lon="6.9369130">
        <ele>519.9</ele>
        <time>2022-07-21T10:23:43Z</time>
      </trkpt>
      <trkpt lat="47.2305740" lon="6.9368800">
        <ele>519.9</ele>
        <time>2022-07-21T10:23:44Z</time>
      </trkpt>
      <trkpt lat="47.2305660" lon="6.9367940">
        <ele>519.9</ele>
        <time>2022-07-21T10:23:45Z</time>
      </trkpt>
      <trkpt lat="47.2305590" lon="6.9367260">
        <ele>520.0</ele>
        <time>2022-07-21T10:23:46Z</time>
      </trkpt>
      <trkpt lat="47.2305550" lon="6.9366670">
        <ele>520.0</ele>
        <time>2022-07-21T10:23:47Z</time>
      </trkpt>
      <trkpt lat="47.2305570" lon="6.9365680">
        <ele>520.0</ele>
        <time>2022-07-21T10:23:48Z</time>
      </trkpt>
      <trkpt lat="47.2305430" lon="6.9365000">
        <ele>520.1</ele>
        <time>2022-07-21T10:23:49Z</time>
      </trkpt>
      <trkpt lat="47.2305420" lon="6.9364210">
        <ele>520.2</ele>
        <time>2022-07-21T10:23:51Z</time>
      </trkpt>
      <trkpt lat="47.2305470" lon="6.9363570">
        <ele>520.3</ele>
        <time>2022-07-21T10:23:52Z</time>
      </trkpt>
      <trkpt lat="47.2305530" lon="6.9363010">
        <ele>520.3</ele>
        <time>2022-07-21T10:23:53Z</time>
      </trkpt>
      <trkpt lat="47.2305610" lon="6.9362240">
        <ele>520.4</ele>
        <time>2022-07-21T10:23:54Z</time>
      </trkpt>
      <trkpt lat="47.2305650" lon="6.9361440">
        <ele>520.5</ele>
        <time>2022-07-21T10:23:56Z</time>
      </trkpt>
      <trkpt lat="47.2305710" lon="6.9360910">
        <ele>520.5</ele>
        <time>2022-07-21T10:23:57Z</time>
      </trkpt>
      <trkpt lat="47.2305780" lon="6.9360370">
        <ele>520.6</ele>
        <time>2022-07-21T10:23:58Z</time>
      </trkpt>
      <trkpt lat="47.2305910" lon="6.9359590">
        <ele>520.7</ele>
        <time>2022-07-21T10:23:59Z</time>
      </trkpt>
      <trkpt lat="47.2305960" lon="6.9359080">
        <ele>520.7</ele>
        <time>2022-07-21T10:24:00Z</time>
      </trkpt>
      <trkpt lat="47.2306030" lon="6.9358500">
        <ele>520.8</ele>
        <time>2022-07-21T10:24:01Z</time>
      </trkpt>
      <trkpt lat="47.2306140" lon="6.9357920">
        <ele>520.8</ele>
        <time>2022-07-21T10:24:02Z</time>
      </trkpt>
      <trkpt lat="47.2306300" lon="6.9357180">
        <ele>520.9</ele>
        <time>2022-07-21T10:24:04Z</time>
      </trkpt>
      <trkpt lat="47.2306730" lon="6.9355880">
        <ele>520.9</ele>
        <time>2022-07-21T10:24:05Z</time>
      </trkpt>
      <trkpt lat="47.2306790" lon="6.9355210">
        <ele>521.0</ele>
        <time>2022-07-21T10:24:06Z</time>
      </trkpt>
      <trkpt lat="47.2306750" lon="6.9354620">
        <ele>521.0</ele>
        <time>2022-07-21T10:24:07Z</time>
      </trkpt>
      <trkpt lat="47.2306530" lon="6.9354100">
        <ele>521.1</ele>
        <time>2022-07-21T10:24:08Z</time>
      </trkpt>
      <trkpt lat="47.2306610" lon="6.9353500">
        <ele>521.2</ele>
        <time>2022-07-21T10:24:09Z</time>
      </trkpt>
      <trkpt lat="47.2306670" lon="6.9352940">
        <ele>521.2</ele>
        <time>2022-07-21T10:24:10Z</time>
      </trkpt>
      <trkpt lat="47.2306690" lon="6.9352380">
        <ele>521.3</ele>
        <time>2022-07-21T10:24:11Z</time>
      </trkpt>
      <trkpt lat="47.2306700" lon="6.9351690">
        <ele>521.4</ele>
        <time>2022-07-21T10:24:12Z</time>
      </trkpt>
      <trkpt lat="47.2306760" lon="6.9350940">
        <ele>521.5</ele>
        <time>2022-07-21T10:24:13Z</time>
      </trkpt>
      <trkpt lat="47.2306720" lon="6.9350200">
        <ele>521.7</ele>
        <time>2022-07-21T10:24:15Z</time>
      </trkpt>
      <trkpt lat="47.2306690" lon="6.9349580">
        <ele>521.9</ele>
        <time>2022-07-21T10:24:16Z</time>
      </trkpt>
      <trkpt lat="47.2306680" lon="6.9349080">
        <ele>522.1</ele>
        <time>2022-07-21T10:24:17Z</time>
      </trkpt>
      <trkpt lat="47.2306650" lon="6.9348540">
        <ele>522.2</ele>
        <time>2022-07-21T10:24:18Z</time>
      </trkpt>
      <trkpt lat="47.2306640" lon="6.9348360">
        <ele>522.3</ele>
        <time>2022-07-21T10:24:19Z</time>
      </trkpt>
      <trkpt lat="47.2306650" lon="6.9347930">
        <ele>522.5</ele>
        <time>2022-07-21T10:24:20Z</time>
      </trkpt>
      <trkpt lat="47.2306650" lon="6.9347790">
        <ele>522.5</ele>
        <time>2022-07-21T10:24:21Z</time>
      </trkpt>
      <trkpt lat="47.2306680" lon="6.9347280">
        <ele>522.7</ele>
        <time>2022-07-21T10:24:22Z</time>
      </trkpt>
      <trkpt lat="47.2306740" lon="6.9346740">
        <ele>523.0</ele>
        <time>2022-07-21T10:24:23Z</time>
      </trkpt>
      <trkpt lat="47.2306810" lon="6.9346280">
        <ele>523.1</ele>
        <time>2022-07-21T10:24:25Z</time>
      </trkpt>
      <trkpt lat="47.2306840" lon="6.9345830">
        <ele>523.3</ele>
        <time>2022-07-21T10:24:26Z</time>
      </trkpt>
      <trkpt lat="47.2306860" lon="6.9345260">
        <ele>523.6</ele>
        <time>2022-07-21T10:24:27Z</time>
      </trkpt>
      <trkpt lat="47.2306880" lon="6.9344940">
        <ele>523.7</ele>
        <time>2022-07-21T10:24:28Z</time>
      </trkpt>
      <trkpt lat="47.2306840" lon="6.9344520">
        <ele>523.9</ele>
        <time>2022-07-21T10:24:30Z</time>
      </trkpt>
      <trkpt lat="47.2306670" lon="6.9344180">
        <ele>524.1</ele>
        <time>2022-07-21T10:24:31Z</time>
      </trkpt>
      <trkpt lat="47.2306480" lon="6.9343790">
        <ele>524.4</ele>
        <time>2022-07-21T10:24:32Z</time>
      </trkpt>
      <trkpt lat="47.2306320" lon="6.9343380">
        <ele>524.6</ele>
        <time>2022-07-21T10:24:33Z</time>
      </trkpt>
      <trkpt lat="47.2306270" lon="6.9343120">
        <ele>524.7</ele>
        <time>2022-07-21T10:24:34Z</time>
      </trkpt>
      <trkpt lat="47.2306230" lon="6.9342600">
        <ele>524.9</ele>
        <time>2022-07-21T10:24:36Z</time>
      </trkpt>
      <trkpt lat="47.2306200" lon="6.9342040">
        <ele>525.2</ele>
        <time>2022-07-21T10:24:37Z</time>
      </trkpt>
      <trkpt lat="47.2306180" lon="6.9341860">
        <ele>525.3</ele>
        <time>2022-07-21T10:24:38Z</time>
      </trkpt>
      <trkpt lat="47.2306170" lon="6.9341350">
        <ele>525.5</ele>
        <time>2022-07-21T10:24:39Z</time>
      </trkpt>
      <trkpt lat="47.2306230" lon="6.9340950">
        <ele>525.7</ele>
        <time>2022-07-21T10:24:40Z</time>
      </trkpt>
      <trkpt lat="47.2306300" lon="6.9340540">
        <ele>525.9</ele>
        <time>2022-07-21T10:24:41Z</time>
      </trkpt>
      <trkpt lat="47.2306340" lon="6.9340240">
        <ele>526.0</ele>
        <time>2022-07-21T10:24:42Z</time>
      </trkpt>
      <trkpt lat="47.2306350" lon="6.9339830">
        <ele>526.2</ele>
        <time>2022-07-21T10:24:44Z</time>
      </trkpt>
      <trkpt lat="47.2306330" lon="6.9339410">
        <ele>526.3</ele>
        <time>2022-07-21T10:24:45Z</time>
      </trkpt>
      <trkpt lat="47.2306310" lon="6.9338990">
        <ele>526.5</ele>
        <time>2022-07-21T10:24:46Z</time>
      </trkpt>
      <trkpt lat="47.2306300" lon="6.9338500">
        <ele>526.6</ele>
        <time>2022-07-21T10:24:47Z</time>
      </trkpt>
      <trkpt lat="47.2306300" lon="6.9338080">
        <ele>526.8</ele>
        <time>2022-07-21T10:24:48Z</time>
      </trkpt>
      <trkpt lat="47.2306310" lon="6.9337530">
        <ele>526.9</ele>
        <time>2022-07-21T10:24:49Z</time>
      </trkpt>
      <trkpt lat="47.2306340" lon="6.9337130">
        <ele>527.0</ele>
        <time>2022-07-21T10:24:51Z</time>
      </trkpt>
      <trkpt lat="47.2306330" lon="6.9336700">
        <ele>527.1</ele>
        <time>2022-07-21T10:24:52Z</time>
      </trkpt>
      <trkpt lat="47.2306320" lon="6.9336110">
        <ele>527.3</ele>
        <time>2022-07-21T10:24:53Z</time>
      </trkpt>
      <trkpt lat="47.2306340" lon="6.9335870">
        <ele>527.3</ele>
        <time>2022-07-21T10:24:54Z</time>
      </trkpt>
      <trkpt lat="47.2306190" lon="6.9335220">
        <ele>527.4</ele>
        <time>2022-07-21T10:24:55Z</time>
      </trkpt>
      <trkpt lat="47.2306060" lon="6.9334950">
        <ele>527.5</ele>
        <time>2022-07-21T10:24:56Z</time>
      </trkpt>
      <trkpt lat="47.2305850" lon="6.9334560">
        <ele>527.5</ele>
        <time>2022-07-21T10:24:58Z</time>
      </trkpt>
      <trkpt lat="47.2305650" lon="6.9334000">
        <ele>527.6</ele>
        <time>2022-07-21T10:24:59Z</time>
      </trkpt>
      <trkpt lat="47.2305590" lon="6.9333520">
        <ele>527.6</ele>
        <time>2022-07-21T10:25:00Z</time>
      </trkpt>
      <trkpt lat="47.2305570" lon="6.9333070">
        <ele>527.6</ele>
        <time>2022-07-21T10:25:01Z</time>
      </trkpt>
      <trkpt lat="47.2305610" lon="6.9332530">
        <ele>527.6</ele>
        <time>2022-07-21T10:25:02Z</time>
      </trkpt>
      <trkpt lat="47.2305680" lon="6.9331660">
        <ele>527.6</ele>
        <time>2022-07-21T10:25:04Z</time>
      </trkpt>
      <trkpt lat="47.2305680" lon="6.9331170">
        <ele>527.5</ele>
        <time>2022-07-21T10:25:05Z</time>
      </trkpt>
      <trkpt lat="47.2305710" lon="6.9330380">
        <ele>527.5</ele>
        <time>2022-07-21T10:25:06Z</time>
      </trkpt>
      <trkpt lat="47.2305740" lon="6.9329680">
        <ele>527.3</ele>
        <time>2022-07-21T10:25:07Z</time>
      </trkpt>
      <trkpt lat="47.2305750" lon="6.9329080">
        <ele>527.2</ele>
        <time>2022-07-21T10:25:08Z</time>
      </trkpt>
      <trkpt lat="47.2305500" lon="6.9327730">
        <ele>527.0</ele>
        <time>2022-07-21T10:25:10Z</time>
      </trkpt>
      <trkpt lat="47.2305270" lon="6.9326750">
        <ele>526.8</ele>
        <time>2022-07-21T10:25:12Z</time>
      </trkpt>
      <trkpt lat="47.2305090" lon="6.9325980">
        <ele>526.6</ele>
        <time>2022-07-21T10:25:13Z</time>
      </trkpt>
      <trkpt lat="47.2305110" lon="6.9324890">
        <ele>526.4</ele>
        <time>2022-07-21T10:25:14Z</time>
      </trkpt>
      <trkpt lat="47.2304900" lon="6.9324280">
        <ele>526.3</ele>
        <time>2022-07-21T10:25:15Z</time>
      </trkpt>
      <trkpt lat="47.2304940" lon="6.9323660">
        <ele>526.2</ele>
        <time>2022-07-21T10:25:16Z</time>
      </trkpt>
      <trkpt lat="47.2305000" lon="6.9322940">
        <ele>526.1</ele>
        <time>2022-07-21T10:25:17Z</time>
      </trkpt>
      <trkpt lat="47.2304880" lon="6.9322250">
        <ele>526.0</ele>
        <time>2022-07-21T10:25:18Z</time>
      </trkpt>
      <trkpt lat="47.2304760" lon="6.9321610">
        <ele>525.9</ele>
        <time>2022-07-21T10:25:19Z</time>
      </trkpt>
      <trkpt lat="47.2304560" lon="6.9321140">
        <ele>525.8</ele>
        <time>2022-07-21T10:25:20Z</time>
      </trkpt>
      <trkpt lat="47.2304320" lon="6.9320640">
        <ele>525.7</ele>
        <time>2022-07-21T10:25:21Z</time>
      </trkpt>
      <trkpt lat="47.2304110" lon="6.9320090">
        <ele>525.6</ele>
        <time>2022-07-21T10:25:22Z</time>
      </trkpt>
      <trkpt lat="47.2303910" lon="6.9319630">
        <ele>525.5</ele>
        <time>2022-07-21T10:25:23Z</time>
      </trkpt>
      <trkpt lat="47.2303510" lon="6.9318770">
        <ele>525.4</ele>
        <time>2022-07-21T10:25:24Z</time>
      </trkpt>
      <trkpt lat="47.2303300" lon="6.9318140">
        <ele>525.3</ele>
        <time>2022-07-21T10:25:25Z</time>
      </trkpt>
      <trkpt lat="47.2303270" lon="6.9317600">
        <ele>525.2</ele>
        <time>2022-07-21T10:25:26Z</time>
      </trkpt>
      <trkpt lat="47.2303040" lon="6.9316880">
        <ele>525.0</ele>
        <time>2022-07-21T10:25:27Z</time>
      </trkpt>
      <trkpt lat="47.2302620" lon="6.9316200">
        <ele>524.9</ele>
        <time>2022-07-21T10:25:28Z</time>
      </trkpt>
      <trkpt lat="47.2302280" lon="6.9315600">
        <ele>524.9</ele>
        <time>2022-07-21T10:25:29Z</time>
      </trkpt>
      <trkpt lat="47.2302130" lon="6.9315020">
        <ele>524.8</ele>
        <time>2022-07-21T10:25:30Z</time>
      </trkpt>
      <trkpt lat="47.2302000" lon="6.9314380">
        <ele>524.8</ele>
        <time>2022-07-21T10:25:31Z</time>
      </trkpt>
      <trkpt lat="47.2301860" lon="6.9313790">
        <ele>524.7</ele>
        <time>2022-07-21T10:25:32Z</time>
      </trkpt>
      <trkpt lat="47.2301170" lon="6.9312640">
        <ele>524.6</ele>
        <time>2022-07-21T10:25:34Z</time>
      </trkpt>
      <trkpt lat="47.2300840" lon="6.9311530">
        <ele>524.5</ele>
        <time>2022-07-21T10:25:36Z</time>
      </trkpt>
      <trkpt lat="47.2300450" lon="6.9311040">
        <ele>524.5</ele>
        <time>2022-07-21T10:25:37Z</time>
      </trkpt>
      <trkpt lat="47.2300190" lon="6.9310610">
        <ele>524.5</ele>
        <time>2022-07-21T10:25:38Z</time>
      </trkpt>
      <trkpt lat="47.2299850" lon="6.9310180">
        <ele>524.5</ele>
        <time>2022-07-21T10:25:39Z</time>
      </trkpt>
      <trkpt lat="47.2299650" lon="6.9309660">
        <ele>524.4</ele>
        <time>2022-07-21T10:25:40Z</time>
      </trkpt>
      <trkpt lat="47.2299430" lon="6.9308500">
        <ele>524.4</ele>
        <time>2022-07-21T10:25:42Z</time>
      </trkpt>
      <trkpt lat="47.2299270" lon="6.9307960">
        <ele>524.4</ele>
        <time>2022-07-21T10:25:43Z</time>
      </trkpt>
      <trkpt lat="47.2299160" lon="6.9307420">
        <ele>524.4</ele>
        <time>2022-07-21T10:25:44Z</time>
      </trkpt>
      <trkpt lat="47.2298700" lon="6.9306350">
        <ele>524.4</ele>
        <time>2022-07-21T10:25:46Z</time>
      </trkpt>
      <trkpt lat="47.2298620" lon="6.9305870">
        <ele>524.5</ele>
        <time>2022-07-21T10:25:47Z</time>
      </trkpt>
      <trkpt lat="47.2298420" lon="6.9305490">
        <ele>524.5</ele>
        <time>2022-07-21T10:25:48Z</time>
      </trkpt>
      <trkpt lat="47.2298300" lon="6.9305270">
        <ele>524.5</ele>
        <time>2022-07-21T10:25:49Z</time>
      </trkpt>
      <trkpt lat="47.2297970" lon="6.9304870">
        <ele>524.5</ele>
        <time>2022-07-21T10:25:50Z</time>
      </trkpt>
      <trkpt lat="47.2297650" lon="6.9304550">
        <ele>524.5</ele>
        <time>2022-07-21T10:25:51Z</time>
      </trkpt>
      <trkpt lat="47.2297250" lon="6.9304040">
        <ele>524.6</ele>
        <time>2022-07-21T10:25:52Z</time>
      </trkpt>
      <trkpt lat="47.2296930" lon="6.9303550">
        <ele>524.6</ele>
        <time>2022-07-21T10:25:53Z</time>
      </trkpt>
      <trkpt lat="47.2296550" lon="6.9302860">
        <ele>524.7</ele>
        <time>2022-07-21T10:25:55Z</time>
      </trkpt>
      <trkpt lat="47.2296380" lon="6.9302320">
        <ele>524.7</ele>
        <time>2022-07-21T10:25:56Z</time>
      </trkpt>
      <trkpt lat="47.2296080" lon="6.9301550">
        <ele>524.9</ele>
        <time>2022-07-21T10:25:57Z</time>
      </trkpt>
      <trkpt lat="47.2295780" lon="6.9301010">
        <ele>525.1</ele>
        <time>2022-07-21T10:25:59Z</time>
      </trkpt>
      <trkpt lat="47.2295540" lon="6.9300650">
        <ele>525.2</ele>
        <time>2022-07-21T10:26:00Z</time>
      </trkpt>
      <trkpt lat="47.2295310" lon="6.9300340">
        <ele>525.4</ele>
        <time>2022-07-21T10:26:01Z</time>
      </trkpt>
      <trkpt lat="47.2295080" lon="6.9300000">
        <ele>525.5</ele>
        <time>2022-07-21T10:26:02Z</time>
      </trkpt>
      <trkpt lat="47.2295010" lon="6.9299880">
        <ele>525.6</ele>
        <time>2022-07-21T10:26:03Z</time>
      </trkpt>
      <trkpt lat="47.2294890" lon="6.9299740">
        <ele>525.7</ele>
        <time>2022-07-21T10:26:04Z</time>
      </trkpt>
      <trkpt lat="47.2294520" lon="6.9299590">
        <ele>525.9</ele>
        <time>2022-07-21T10:26:06Z</time>
      </trkpt>
      <trkpt lat="47.2294230" lon="6.9299490">
        <ele>526.2</ele>
        <time>2022-07-21T10:26:07Z</time>
      </trkpt>
      <trkpt lat="47.2293760" lon="6.9299420">
        <ele>526.6</ele>
        <time>2022-07-21T10:26:09Z</time>
      </trkpt>
      <trkpt lat="47.2293440" lon="6.9299350">
        <ele>526.9</ele>
        <time>2022-07-21T10:26:10Z</time>
      </trkpt>
      <trkpt lat="47.2293360" lon="6.9299330">
        <ele>527.0</ele>
        <time>2022-07-21T10:26:11Z</time>
      </trkpt>
      <trkpt lat="47.2293020" lon="6.9299110">
        <ele>527.4</ele>
        <time>2022-07-21T10:26:12Z</time>
      </trkpt>
      <trkpt lat="47.2292920" lon="6.9299050">
        <ele>527.5</ele>
        <time>2022-07-21T10:26:13Z</time>
      </trkpt>
      <trkpt lat="47.2292660" lon="6.9298880">
        <ele>527.8</ele>
        <time>2022-07-21T10:26:14Z</time>
      </trkpt>
      <trkpt lat="47.2292380" lon="6.9298690">
        <ele>528.2</ele>
        <time>2022-07-21T10:26:15Z</time>
      </trkpt>
      <trkpt lat="47.2292080" lon="6.9298580">
        <ele>528.6</ele>
        <time>2022-07-21T10:26:17Z</time>
      </trkpt>
      <trkpt lat="47.2291900" lon="6.9298500">
        <ele>528.8</ele>
        <time>2022-07-21T10:26:18Z</time>
      </trkpt>
      <trkpt lat="47.2291770" lon="6.9298410">
        <ele>529.0</ele>
        <time>2022-07-21T10:26:19Z</time>
      </trkpt>
      <trkpt lat="47.2291450" lon="6.9298230">
        <ele>529.5</ele>
        <time>2022-07-21T10:26:20Z</time>
      </trkpt>
      <trkpt lat="47.2291390" lon="6.9298170">
        <ele>529.6</ele>
        <time>2022-07-21T10:26:21Z</time>
      </trkpt>
      <trkpt lat="47.2291140" lon="6.9297920">
        <ele>530.0</ele>
        <time>2022-07-21T10:26:22Z</time>
      </trkpt>
      <trkpt lat="47.2291010" lon="6.9297810">
        <ele>530.2</ele>
        <time>2022-07-21T10:26:23Z</time>
      </trkpt>
      <trkpt lat="47.2290750" lon="6.9297590">
        <ele>530.5</ele>
        <time>2022-07-21T10:26:25Z</time>
      </trkpt>
      <trkpt lat="47.2290620" lon="6.9297490">
        <ele>530.6</ele>
        <time>2022-07-21T10:26:26Z</time>
      </trkpt>
      <trkpt lat="47.2290480" lon="6.9297380">
        <ele>530.8</ele>
        <time>2022-07-21T10:26:27Z</time>
      </trkpt>
      <trkpt lat="47.2290350" lon="6.9297270">
        <ele>531.0</ele>
        <time>2022-07-21T10:26:28Z</time>
      </trkpt>
      <trkpt lat="47.2290220" lon="6.9297170">
        <ele>531.1</ele>
        <time>2022-07-21T10:26:29Z</time>
      </trkpt>
      <trkpt lat="47.2290050" lon="6.9297010">
        <ele>531.3</ele>
        <time>2022-07-21T10:26:30Z</time>
      </trkpt>
      <trkpt lat="47.2289900" lon="6.9296850">
        <ele>531.4</ele>
        <time>2022-07-21T10:26:32Z</time>
      </trkpt>
      <trkpt lat="47.2289790" lon="6.9296680">
        <ele>531.6</ele>
        <time>2022-07-21T10:26:33Z</time>
      </trkpt>
      <trkpt lat="47.2289740" lon="6.9296550">
        <ele>531.7</ele>
        <time>2022-07-21T10:26:34Z</time>
      </trkpt>
      <trkpt lat="47.2289690" lon="6.9296420">
        <ele>531.8</ele>
        <time>2022-07-21T10:26:35Z</time>
      </trkpt>
      <trkpt lat="47.2289650" lon="6.9296300">
        <ele>531.8</ele>
        <time>2022-07-21T10:26:36Z</time>
      </trkpt>
      <trkpt lat="47.2289620" lon="6.9296270">
        <ele>531.9</ele>
        <time>2022-07-21T10:26:37Z</time>
      </trkpt>
      <trkpt lat="47.2289570" lon="6.9296270">
        <ele>531.9</ele>
        <time>2022-07-21T10:26:38Z</time>
      </trkpt>
      <trkpt lat="47.2289530" lon="6.9296260">
        <ele>531.9</ele>
        <time>2022-07-21T10:26:39Z</time>
      </trkpt>
      <trkpt lat="47.2289490" lon="6.9296260">
        <ele>532.0</ele>
        <time>2022-07-21T10:26:40Z</time>
      </trkpt>
      <trkpt lat="47.2289440" lon="6.9296260">
        <ele>532.0</ele>
        <time>2022-07-21T10:26:41Z</time>
      </trkpt>
      <trkpt lat="47.2289400" lon="6.9296250">
        <ele>532.0</ele>
        <time>2022-07-21T10:26:42Z</time>
      </trkpt>
      <trkpt lat="47.2289350" lon="6.9296250">
        <ele>532.1</ele>
        <time>2022-07-21T10:26:43Z</time>
      </trkpt>
      <trkpt lat="47.2289310" lon="6.9296250">
        <ele>532.1</ele>
        <time>2022-07-21T10:26:44Z</time>
      </trkpt>
      <trkpt lat="47.2289270" lon="6.9296240">
        <ele>532.1</ele>
        <time>2022-07-21T10:26:45Z</time>
      </trkpt>
      <trkpt lat="47.2289220" lon="6.9296240">
        <ele>532.2</ele>
        <time>2022-07-21T10:26:46Z</time>
      </trkpt>
      <trkpt lat="47.2289180" lon="6.9296240">
        <ele>532.2</ele>
        <time>2022-07-21T10:26:47Z</time>
      </trkpt>
      <trkpt lat="47.2289130" lon="6.9296230">
        <ele>532.3</ele>
        <time>2022-07-21T10:26:48Z</time>
      </trkpt>
      <trkpt lat="47.2289090" lon="6.9296230">
        <ele>532.3</ele>
        <time>2022-07-21T10:26:49Z</time>
      </trkpt>
      <trkpt lat="47.2288930" lon="6.9296190">
        <ele>532.4</ele>
        <time>2022-07-21T10:26:50Z</time>
      </trkpt>
      <trkpt lat="47.2288710" lon="6.9296060">
        <ele>532.7</ele>
        <time>2022-07-21T10:26:52Z</time>
      </trkpt>
      <trkpt lat="47.2288560" lon="6.9295950">
        <ele>532.9</ele>
        <time>2022-07-21T10:26:53Z</time>
      </trkpt>
      <trkpt lat="47.2288360" lon="6.9295830">
        <ele>533.1</ele>
        <time>2022-07-21T10:26:55Z</time>
      </trkpt>
      <trkpt lat="47.2288210" lon="6.9295730">
        <ele>533.3</ele>
        <time>2022-07-21T10:26:56Z</time>
      </trkpt>
      <trkpt lat="47.2288110" lon="6.9295670">
        <ele>533.4</ele>
        <time>2022-07-21T10:26:57Z</time>
      </trkpt>
      <trkpt lat="47.2287990" lon="6.9295540">
        <ele>533.6</ele>
        <time>2022-07-21T10:26:58Z</time>
      </trkpt>
      <trkpt lat="47.2287860" lon="6.9295410">
        <ele>533.8</ele>
        <time>2022-07-21T10:26:59Z</time>
      </trkpt>
      <trkpt lat="47.2287670" lon="6.9295260">
        <ele>534.1</ele>
        <time>2022-07-21T10:27:01Z</time>
      </trkpt>
      <trkpt lat="47.2287620" lon="6.9295230">
        <ele>534.1</ele>
        <time>2022-07-21T10:27:02Z</time>
      </trkpt>
      <trkpt lat="47.2287560" lon="6.9295160">
        <ele>534.2</ele>
        <time>2022-07-21T10:27:03Z</time>
      </trkpt>
      <trkpt lat="47.2287510" lon="6.9295110">
        <ele>534.3</ele>
        <time>2022-07-21T10:27:04Z</time>
      </trkpt>
      <trkpt lat="47.2287410" lon="6.9295060">
        <ele>534.4</ele>
        <time>2022-07-21T10:27:05Z</time>
      </trkpt>
      <trkpt lat="47.2287320" lon="6.9295020">
        <ele>534.6</ele>
        <time>2022-07-21T10:27:06Z</time>
      </trkpt>
      <trkpt lat="47.2287200" lon="6.9294930">
        <ele>534.7</ele>
        <time>2022-07-21T10:27:07Z</time>
      </trkpt>
      <trkpt lat="47.2287060" lon="6.9294790">
        <ele>535.0</ele>
        <time>2022-07-21T10:27:08Z</time>
      </trkpt>
      <trkpt lat="47.2286930" lon="6.9294700">
        <ele>535.2</ele>
        <time>2022-07-21T10:27:09Z</time>
      </trkpt>
      <trkpt lat="47.2286810" lon="6.9294620">
        <ele>535.4</ele>
        <time>2022-07-21T10:27:10Z</time>
      </trkpt>
      <trkpt lat="47.2286670" lon="6.9294520">
        <ele>535.6</ele>
        <time>2022-07-21T10:27:11Z</time>
      </trkpt>
      <trkpt lat="47.2286540" lon="6.9294420">
        <ele>535.8</ele>
        <time>2022-07-21T10:27:12Z</time>
      </trkpt>
      <trkpt lat="47.2286380" lon="6.9294260">
        <ele>536.1</ele>
        <time>2022-07-21T10:27:13Z</time>
      </trkpt>
      <trkpt lat="47.2286310" lon="6.9294200">
        <ele>536.2</ele>
        <time>2022-07-21T10:27:14Z</time>
      </trkpt>
      <trkpt lat="47.2286230" lon="6.9294130">
        <ele>536.3</ele>
        <time>2022-07-21T10:27:15Z</time>
      </trkpt>
      <trkpt lat="47.2285980" lon="6.9293940">
        <ele>536.7</ele>
        <time>2022-07-21T10:27:16Z</time>
      </trkpt>
      <trkpt lat="47.2285900" lon="6.9293860">
        <ele>536.9</ele>
        <time>2022-07-21T10:27:17Z</time>
      </trkpt>
      <trkpt lat="47.2285780" lon="6.9293740">
        <ele>537.1</ele>
        <time>2022-07-21T10:27:18Z</time>
      </trkpt>
      <trkpt lat="47.2285720" lon="6.9293660">
        <ele>537.2</ele>
        <time>2022-07-21T10:27:19Z</time>
      </trkpt>
      <trkpt lat="47.2285660" lon="6.9293540">
        <ele>537.3</ele>
        <time>2022-07-21T10:27:20Z</time>
      </trkpt>
      <trkpt lat="47.2285630" lon="6.9293430">
        <ele>537.4</ele>
        <time>2022-07-21T10:27:21Z</time>
      </trkpt>
      <trkpt lat="47.2285580" lon="6.9293360">
        <ele>537.5</ele>
        <time>2022-07-21T10:27:22Z</time>
      </trkpt>
      <trkpt lat="47.2285520" lon="6.9293290">
        <ele>537.6</ele>
        <time>2022-07-21T10:27:23Z</time>
      </trkpt>
      <trkpt lat="47.2285480" lon="6.9293180">
        <ele>537.8</ele>
        <time>2022-07-21T10:27:24Z</time>
      </trkpt>
      <trkpt lat="47.2285370" lon="6.9292910">
        <ele>538.1</ele>
        <time>2022-07-21T10:27:25Z</time>
      </trkpt>
      <trkpt lat="47.2285330" lon="6.9292800">
        <ele>538.2</ele>
        <time>2022-07-21T10:27:27Z</time>
      </trkpt>
      <trkpt lat="47.2285300" lon="6.9292700">
        <ele>538.3</ele>
        <time>2022-07-21T10:27:28Z</time>
      </trkpt>
      <trkpt lat="47.2285230" lon="6.9292580">
        <ele>538.5</ele>
        <time>2022-07-21T10:27:29Z</time>
      </trkpt>
      <trkpt lat="47.2285200" lon="6.9292500">
        <ele>538.5</ele>
        <time>2022-07-21T10:27:30Z</time>
      </trkpt>
      <trkpt lat="47.2284960" lon="6.9291900">
        <ele>539.2</ele>
        <time>2022-07-21T10:27:32Z</time>
      </trkpt>
      <trkpt lat="47.2284790" lon="6.9291470">
        <ele>539.7</ele>
        <time>2022-07-21T10:27:33Z</time>
      </trkpt>
      <trkpt lat="47.2284730" lon="6.9291340">
        <ele>539.9</ele>
        <time>2022-07-21T10:27:34Z</time>
      </trkpt>
      <trkpt lat="47.2284500" lon="6.9291100">
        <ele>540.3</ele>
        <time>2022-07-21T10:27:35Z</time>
      </trkpt>
      <trkpt lat="47.2284400" lon="6.9291020">
        <ele>540.4</ele>
        <time>2022-07-21T10:27:36Z</time>
      </trkpt>
      <trkpt lat="47.2284260" lon="6.9290870">
        <ele>540.7</ele>
        <time>2022-07-21T10:27:37Z</time>
      </trkpt>
      <trkpt lat="47.2284170" lon="6.9290730">
        <ele>540.9</ele>
        <time>2022-07-21T10:27:38Z</time>
      </trkpt>
      <trkpt lat="47.2284090" lon="6.9290590">
        <ele>541.1</ele>
        <time>2022-07-21T10:27:39Z</time>
      </trkpt>
      <trkpt lat="47.2283980" lon="6.9290440">
        <ele>541.3</ele>
        <time>2022-07-21T10:27:40Z</time>
      </trkpt>
      <trkpt lat="47.2283840" lon="6.9290340">
        <ele>541.5</ele>
        <time>2022-07-21T10:27:41Z</time>
      </trkpt>
      <trkpt lat="47.2283670" lon="6.9290260">
        <ele>541.8</ele>
        <time>2022-07-21T10:27:42Z</time>
      </trkpt>
      <trkpt lat="47.2283340" lon="6.9290140">
        <ele>542.3</ele>
        <time>2022-07-21T10:27:43Z</time>
      </trkpt>
      <trkpt lat="47.2283240" lon="6.9290100">
        <ele>542.4</ele>
        <time>2022-07-21T10:27:44Z</time>
      </trkpt>
      <trkpt lat="47.2283080" lon="6.9290050">
        <ele>542.6</ele>
        <time>2022-07-21T10:27:45Z</time>
      </trkpt>
      <trkpt lat="47.2282920" lon="6.9290000">
        <ele>542.9</ele>
        <time>2022-07-21T10:27:46Z</time>
      </trkpt>
      <trkpt lat="47.2282790" lon="6.9289960">
        <ele>543.0</ele>
        <time>2022-07-21T10:27:47Z</time>
      </trkpt>
      <trkpt lat="47.2282690" lon="6.9289890">
        <ele>543.2</ele>
        <time>2022-07-21T10:27:48Z</time>
      </trkpt>
      <trkpt lat="47.2282600" lon="6.9289780">
        <ele>543.4</ele>
        <time>2022-07-21T10:27:49Z</time>
      </trkpt>
      <trkpt lat="47.2282550" lon="6.9289600">
        <ele>543.5</ele>
        <time>2022-07-21T10:27:50Z</time>
      </trkpt>
      <trkpt lat="47.2282490" lon="6.9289400">
        <ele>543.7</ele>
        <time>2022-07-21T10:27:51Z</time>
      </trkpt>
      <trkpt lat="47.2282380" lon="6.9289210">
        <ele>544.0</ele>
        <time>2022-07-21T10:27:52Z</time>
      </trkpt>
      <trkpt lat="47.2282270" lon="6.9289090">
        <ele>544.2</ele>
        <time>2022-07-21T10:27:53Z</time>
      </trkpt>
      <trkpt lat="47.2282150" lon="6.9288940">
        <ele>544.4</ele>
        <time>2022-07-21T10:27:54Z</time>
      </trkpt>
      <trkpt lat="47.2282020" lon="6.9288760">
        <ele>544.6</ele>
        <time>2022-07-21T10:27:55Z</time>
      </trkpt>
      <trkpt lat="47.2281920" lon="6.9288620">
        <ele>544.8</ele>
        <time>2022-07-21T10:27:56Z</time>
      </trkpt>
      <trkpt lat="47.2281790" lon="6.9288500">
        <ele>545.0</ele>
        <time>2022-07-21T10:27:57Z</time>
      </trkpt>
      <trkpt lat="47.2281630" lon="6.9288410">
        <ele>545.3</ele>
        <time>2022-07-21T10:27:58Z</time>
      </trkpt>
      <trkpt lat="47.2281490" lon="6.9288290">
        <ele>545.5</ele>
        <time>2022-07-21T10:27:59Z</time>
      </trkpt>
      <trkpt lat="47.2281210" lon="6.9288090">
        <ele>545.9</ele>
        <time>2022-07-21T10:28:00Z</time>
      </trkpt>
      <trkpt lat="47.2281130" lon="6.9288030">
        <ele>546.0</ele>
        <time>2022-07-21T10:28:01Z</time>
      </trkpt>
      <trkpt lat="47.2280970" lon="6.9287920">
        <ele>546.2</ele>
        <time>2022-07-21T10:28:02Z</time>
      </trkpt>
      <trkpt lat="47.2280810" lon="6.9287830">
        <ele>546.4</ele>
        <time>2022-07-21T10:28:03Z</time>
      </trkpt>
      <trkpt lat="47.2280670" lon="6.9287750">
        <ele>546.6</ele>
        <time>2022-07-21T10:28:04Z</time>
      </trkpt>
      <trkpt lat="47.2280500" lon="6.9287660">
        <ele>546.9</ele>
        <time>2022-07-21T10:28:05Z</time>
      </trkpt>
      <trkpt lat="47.2280340" lon="6.9287590">
        <ele>547.1</ele>
        <time>2022-07-21T10:28:06Z</time>
      </trkpt>
      <trkpt lat="47.2280190" lon="6.9287500">
        <ele>547.3</ele>
        <time>2022-07-21T10:28:07Z</time>
      </trkpt>
      <trkpt lat="47.2280060" lon="6.9287420">
        <ele>547.4</ele>
        <time>2022-07-21T10:28:08Z</time>
      </trkpt>
      <trkpt lat="47.2279930" lon="6.9287340">
        <ele>547.6</ele>
        <time>2022-07-21T10:28:09Z</time>
      </trkpt>
      <trkpt lat="47.2279790" lon="6.9287260">
        <ele>547.8</ele>
        <time>2022-07-21T10:28:10Z</time>
      </trkpt>
      <trkpt lat="47.2279630" lon="6.9287180">
        <ele>548.0</ele>
        <time>2022-07-21T10:28:11Z</time>
      </trkpt>
      <trkpt lat="47.2279490" lon="6.9287110">
        <ele>548.2</ele>
        <time>2022-07-21T10:28:12Z</time>
      </trkpt>
      <trkpt lat="47.2279370" lon="6.9287050">
        <ele>548.3</ele>
        <time>2022-07-21T10:28:13Z</time>
      </trkpt>
      <trkpt lat="47.2279270" lon="6.9286960">
        <ele>548.5</ele>
        <time>2022-07-21T10:28:14Z</time>
      </trkpt>
      <trkpt lat="47.2279070" lon="6.9286880">
        <ele>548.7</ele>
        <time>2022-07-21T10:28:15Z</time>
      </trkpt>
      <trkpt lat="47.2278880" lon="6.9286710">
        <ele>549.0</ele>
        <time>2022-07-21T10:28:16Z</time>
      </trkpt>
      <trkpt lat="47.2278810" lon="6.9286630">
        <ele>549.1</ele>
        <time>2022-07-21T10:28:17Z</time>
      </trkpt>
      <trkpt lat="47.2278730" lon="6.9286560">
        <ele>549.2</ele>
        <time>2022-07-21T10:28:18Z</time>
      </trkpt>
      <trkpt lat="47.2278620" lon="6.9286460">
        <ele>549.3</ele>
        <time>2022-07-21T10:28:19Z</time>
      </trkpt>
      <trkpt lat="47.2278500" lon="6.9286350">
        <ele>549.5</ele>
        <time>2022-07-21T10:28:20Z</time>
      </trkpt>
      <trkpt lat="47.2278360" lon="6.9286240">
        <ele>549.6</ele>
        <time>2022-07-21T10:28:21Z</time>
      </trkpt>
      <trkpt lat="47.2278240" lon="6.9286130">
        <ele>549.8</ele>
        <time>2022-07-21T10:28:22Z</time>
      </trkpt>
      <trkpt lat="47.2278110" lon="6.9285990">
        <ele>550.0</ele>
        <time>2022-07-21T10:28:23Z</time>
      </trkpt>
      <trkpt lat="47.2278000" lon="6.9285890">
        <ele>550.1</ele>
        <time>2022-07-21T10:28:24Z</time>
      </trkpt>
      <trkpt lat="47.2277870" lon="6.9285760">
        <ele>550.3</ele>
        <time>2022-07-21T10:28:25Z</time>
      </trkpt>
      <trkpt lat="47.2277730" lon="6.9285640">
        <ele>550.5</ele>
        <time>2022-07-21T10:28:26Z</time>
      </trkpt>
      <trkpt lat="47.2277610" lon="6.9285550">
        <ele>550.6</ele>
        <time>2022-07-21T10:28:27Z</time>
      </trkpt>
      <trkpt lat="47.2277470" lon="6.9285450">
        <ele>550.8</ele>
        <time>2022-07-21T10:28:28Z</time>
      </trkpt>
      <trkpt lat="47.2277340" lon="6.9285320">
        <ele>551.0</ele>
        <time>2022-07-21T10:28:29Z</time>
      </trkpt>
      <trkpt lat="47.2277240" lon="6.9285230">
        <ele>551.1</ele>
        <time>2022-07-21T10:28:30Z</time>
      </trkpt>
      <trkpt lat="47.2277110" lon="6.9285100">
        <ele>551.3</ele>
        <time>2022-07-21T10:28:31Z</time>
      </trkpt>
      <trkpt lat="47.2277000" lon="6.9284960">
        <ele>551.4</ele>
        <time>2022-07-21T10:28:32Z</time>
      </trkpt>
      <trkpt lat="47.2276890" lon="6.9284810">
        <ele>551.6</ele>
        <time>2022-07-21T10:28:33Z</time>
      </trkpt>
      <trkpt lat="47.2276800" lon="6.9284680">
        <ele>551.7</ele>
        <time>2022-07-21T10:28:34Z</time>
      </trkpt>
      <trkpt lat="47.2276690" lon="6.9284540">
        <ele>551.9</ele>
        <time>2022-07-21T10:28:35Z</time>
      </trkpt>
      <trkpt lat="47.2276540" lon="6.9284420">
        <ele>552.1</ele>
        <time>2022-07-21T10:28:36Z</time>
      </trkpt>
      <trkpt lat="47.2276410" lon="6.9284310">
        <ele>552.3</ele>
        <time>2022-07-21T10:28:37Z</time>
      </trkpt>
      <trkpt lat="47.2276300" lon="6.9284210">
        <ele>552.4</ele>
        <time>2022-07-21T10:28:38Z</time>
      </trkpt>
      <trkpt lat="47.2276190" lon="6.9284070">
        <ele>552.6</ele>
        <time>2022-07-21T10:28:39Z</time>
      </trkpt>
      <trkpt lat="47.2276080" lon="6.9283930">
        <ele>552.7</ele>
        <time>2022-07-21T10:28:40Z</time>
      </trkpt>
      <trkpt lat="47.2275970" lon="6.9283790">
        <ele>552.9</ele>
        <time>2022-07-21T10:28:41Z</time>
      </trkpt>
      <trkpt lat="47.2275860" lon="6.9283660">
        <ele>553.0</ele>
        <time>2022-07-21T10:28:42Z</time>
      </trkpt>
      <trkpt lat="47.2275680" lon="6.9283480">
        <ele>553.3</ele>
        <time>2022-07-21T10:28:43Z</time>
      </trkpt>
      <trkpt lat="47.2275610" lon="6.9283400">
        <ele>553.4</ele>
        <time>2022-07-21T10:28:44Z</time>
      </trkpt>
      <trkpt lat="47.2275540" lon="6.9283320">
        <ele>553.5</ele>
        <time>2022-07-21T10:28:45Z</time>
      </trkpt>
      <trkpt lat="47.2275410" lon="6.9283210">
        <ele>553.6</ele>
        <time>2022-07-21T10:28:46Z</time>
      </trkpt>
      <trkpt lat="47.2275290" lon="6.9283110">
        <ele>553.8</ele>
        <time>2022-07-21T10:28:47Z</time>
      </trkpt>
      <trkpt lat="47.2275140" lon="6.9282950">
        <ele>554.0</ele>
        <time>2022-07-21T10:28:48Z</time>
      </trkpt>
      <trkpt lat="47.2275060" lon="6.9282870">
        <ele>554.1</ele>
        <time>2022-07-21T10:28:49Z</time>
      </trkpt>
      <trkpt lat="47.2274980" lon="6.9282780">
        <ele>554.2</ele>
        <time>2022-07-21T10:28:50Z</time>
      </trkpt>
      <trkpt lat="47.2274870" lon="6.9282670">
        <ele>554.4</ele>
        <time>2022-07-21T10:28:51Z</time>
      </trkpt>
      <trkpt lat="47.2274750" lon="6.9282570">
        <ele>554.5</ele>
        <time>2022-07-21T10:28:52Z</time>
      </trkpt>
      <trkpt lat="47.2274640" lon="6.9282470">
        <ele>554.7</ele>
        <time>2022-07-21T10:28:53Z</time>
      </trkpt>
      <trkpt lat="47.2274480" lon="6.9282340">
        <ele>554.9</ele>
        <time>2022-07-21T10:28:54Z</time>
      </trkpt>
      <trkpt lat="47.2274300" lon="6.9282170">
        <ele>555.1</ele>
        <time>2022-07-21T10:28:55Z</time>
      </trkpt>
      <trkpt lat="47.2274240" lon="6.9282110">
        <ele>555.2</ele>
        <time>2022-07-21T10:28:56Z</time>
      </trkpt>
      <trkpt lat="47.2274170" lon="6.9282040">
        <ele>555.3</ele>
        <time>2022-07-21T10:28:57Z</time>
      </trkpt>
      <trkpt lat="47.2274040" lon="6.9281870">
        <ele>555.5</ele>
        <time>2022-07-21T10:28:58Z</time>
      </trkpt>
      <trkpt lat="47.2273970" lon="6.9281780">
        <ele>555.6</ele>
        <time>2022-07-21T10:28:59Z</time>
      </trkpt>
      <trkpt lat="47.2273910" lon="6.9281680">
        <ele>555.7</ele>
        <time>2022-07-21T10:29:00Z</time>
      </trkpt>
      <trkpt lat="47.2273760" lon="6.9281490">
        <ele>556.0</ele>
        <time>2022-07-21T10:29:01Z</time>
      </trkpt>
      <trkpt lat="47.2273690" lon="6.9281420">
        <ele>556.1</ele>
        <time>2022-07-21T10:29:02Z</time>
      </trkpt>
      <trkpt lat="47.2273620" lon="6.9281350">
        <ele>556.2</ele>
        <time>2022-07-21T10:29:03Z</time>
      </trkpt>
      <trkpt lat="47.2273480" lon="6.9281250">
        <ele>556.4</ele>
        <time>2022-07-21T10:29:04Z</time>
      </trkpt>
      <trkpt lat="47.2273350" lon="6.9281180">
        <ele>556.5</ele>
        <time>2022-07-21T10:29:05Z</time>
      </trkpt>
      <trkpt lat="47.2273160" lon="6.9281100">
        <ele>556.7</ele>
        <time>2022-07-21T10:29:06Z</time>
      </trkpt>
      <trkpt lat="47.2273020" lon="6.9281040">
        <ele>556.9</ele>
        <time>2022-07-21T10:29:07Z</time>
      </trkpt>
      <trkpt lat="47.2272880" lon="6.9280950">
        <ele>557.1</ele>
        <time>2022-07-21T10:29:08Z</time>
      </trkpt>
      <trkpt lat="47.2272750" lon="6.9280840">
        <ele>557.2</ele>
        <time>2022-07-21T10:29:09Z</time>
      </trkpt>
      <trkpt lat="47.2272600" lon="6.9280740">
        <ele>557.4</ele>
        <time>2022-07-21T10:29:10Z</time>
      </trkpt>
      <trkpt lat="47.2272460" lon="6.9280620">
        <ele>557.6</ele>
        <time>2022-07-21T10:29:11Z</time>
      </trkpt>
      <trkpt lat="47.2272310" lon="6.9280530">
        <ele>557.7</ele>
        <time>2022-07-21T10:29:12Z</time>
      </trkpt>
      <trkpt lat="47.2272180" lon="6.9280390">
        <ele>557.9</ele>
        <time>2022-07-21T10:29:13Z</time>
      </trkpt>
      <trkpt lat="47.2272010" lon="6.9280200">
        <ele>558.1</ele>
        <time>2022-07-21T10:29:14Z</time>
      </trkpt>
      <trkpt lat="47.2271940" lon="6.9280110">
        <ele>558.2</ele>
        <time>2022-07-21T10:29:15Z</time>
      </trkpt>
      <trkpt lat="47.2271870" lon="6.9280020">
        <ele>558.3</ele>
        <time>2022-07-21T10:29:16Z</time>
      </trkpt>
      <trkpt lat="47.2271660" lon="6.9279780">
        <ele>558.6</ele>
        <time>2022-07-21T10:29:17Z</time>
      </trkpt>
      <trkpt lat="47.2271590" lon="6.9279690">
        <ele>558.7</ele>
        <time>2022-07-21T10:29:18Z</time>
      </trkpt>
      <trkpt lat="47.2271430" lon="6.9279490">
        <ele>559.0</ele>
        <time>2022-07-21T10:29:19Z</time>
      </trkpt>
      <trkpt lat="47.2271350" lon="6.9279400">
        <ele>559.1</ele>
        <time>2022-07-21T10:29:20Z</time>
      </trkpt>
      <trkpt lat="47.2271270" lon="6.9279310">
        <ele>559.2</ele>
        <time>2022-07-21T10:29:21Z</time>
      </trkpt>
      <trkpt lat="47.2271140" lon="6.9279210">
        <ele>559.3</ele>
        <time>2022-07-21T10:29:22Z</time>
      </trkpt>
      <trkpt lat="47.2270980" lon="6.9279090">
        <ele>559.5</ele>
        <time>2022-07-21T10:29:23Z</time>
      </trkpt>
      <trkpt lat="47.2270840" lon="6.9278950">
        <ele>559.7</ele>
        <time>2022-07-21T10:29:24Z</time>
      </trkpt>
      <trkpt lat="47.2270750" lon="6.9278880">
        <ele>559.8</ele>
        <time>2022-07-21T10:29:25Z</time>
      </trkpt>
      <trkpt lat="47.2270600" lon="6.9278760">
        <ele>560.0</ele>
        <time>2022-07-21T10:29:26Z</time>
      </trkpt>
      <trkpt lat="47.2270480" lon="6.9278670">
        <ele>560.1</ele>
        <time>2022-07-21T10:29:27Z</time>
      </trkpt>
      <trkpt lat="47.2270310" lon="6.9278530">
        <ele>560.4</ele>
        <time>2022-07-21T10:29:28Z</time>
      </trkpt>
      <trkpt lat="47.2270180" lon="6.9278420">
        <ele>560.5</ele>
        <time>2022-07-21T10:29:29Z</time>
      </trkpt>
      <trkpt lat="47.2269930" lon="6.9278290">
        <ele>560.8</ele>
        <time>2022-07-21T10:29:30Z</time>
      </trkpt>
      <trkpt lat="47.2269830" lon="6.9278250">
        <ele>560.9</ele>
        <time>2022-07-21T10:29:31Z</time>
      </trkpt>
      <trkpt lat="47.2269710" lon="6.9278210">
        <ele>561.0</ele>
        <time>2022-07-21T10:29:32Z</time>
      </trkpt>
      <trkpt lat="47.2269550" lon="6.9278220">
        <ele>561.2</ele>
        <time>2022-07-21T10:29:33Z</time>
      </trkpt>
      <trkpt lat="47.2269390" lon="6.9278190">
        <ele>561.4</ele>
        <time>2022-07-21T10:29:34Z</time>
      </trkpt>
      <trkpt lat="47.2269200" lon="6.9278140">
        <ele>561.6</ele>
        <time>2022-07-21T10:29:35Z</time>
      </trkpt>
      <trkpt lat="47.2269070" lon="6.9278090">
        <ele>561.7</ele>
        <time>2022-07-21T10:29:36Z</time>
      </trkpt>
      <trkpt lat="47.2268920" lon="6.9278020">
        <ele>561.9</ele>
        <time>2022-07-21T10:29:37Z</time>
      </trkpt>
      <trkpt lat="47.2268790" lon="6.9277920">
        <ele>562.0</ele>
        <time>2022-07-21T10:29:38Z</time>
      </trkpt>
      <trkpt lat="47.2268720" lon="6.9277870">
        <ele>562.1</ele>
        <time>2022-07-21T10:29:39Z</time>
      </trkpt>
      <trkpt lat="47.2268620" lon="6.9277820">
        <ele>562.2</ele>
        <time>2022-07-21T10:29:40Z</time>
      </trkpt>
      <trkpt lat="47.2268510" lon="6.9277790">
        <ele>562.3</ele>
        <time>2022-07-21T10:29:41Z</time>
      </trkpt>
      <trkpt lat="47.2268340" lon="6.9277760">
        <ele>562.5</ele>
        <time>2022-07-21T10:29:42Z</time>
      </trkpt>
      <trkpt lat="47.2268210" lon="6.9277700">
        <ele>562.7</ele>
        <time>2022-07-21T10:29:43Z</time>
      </trkpt>
      <trkpt lat="47.2268070" lon="6.9277650">
        <ele>562.8</ele>
        <time>2022-07-21T10:29:44Z</time>
      </trkpt>
      <trkpt lat="47.2267850" lon="6.9277570">
        <ele>563.0</ele>
        <time>2022-07-21T10:29:45Z</time>
      </trkpt>
      <trkpt lat="47.2267760" lon="6.9277530">
        <ele>563.1</ele>
        <time>2022-07-21T10:29:46Z</time>
      </trkpt>
      <trkpt lat="47.2267660" lon="6.9277490">
        <ele>563.2</ele>
        <time>2022-07-21T10:29:47Z</time>
      </trkpt>
      <trkpt lat="47.2267490" lon="6.9277430">
        <ele>563.4</ele>
        <time>2022-07-21T10:29:48Z</time>
      </trkpt>
      <trkpt lat="47.2267350" lon="6.9277380">
        <ele>563.5</ele>
        <time>2022-07-21T10:29:49Z</time>
      </trkpt>
      <trkpt lat="47.2267050" lon="6.9277330">
        <ele>563.8</ele>
        <time>2022-07-21T10:29:50Z</time>
      </trkpt>
      <trkpt lat="47.2266960" lon="6.9277320">
        <ele>563.9</ele>
        <time>2022-07-21T10:29:51Z</time>
      </trkpt>
      <trkpt lat="47.2266700" lon="6.9277190">
        <ele>564.2</ele>
        <time>2022-07-21T10:29:52Z</time>
      </trkpt>
      <trkpt lat="47.2266610" lon="6.9277140">
        <ele>564.3</ele>
        <time>2022-07-21T10:29:53Z</time>
      </trkpt>
      <trkpt lat="47.2266470" lon="6.9277020">
        <ele>564.4</ele>
        <time>2022-07-21T10:29:54Z</time>
      </trkpt>
      <trkpt lat="47.2266330" lon="6.9276930">
        <ele>564.6</ele>
        <time>2022-07-21T10:29:55Z</time>
      </trkpt>
      <trkpt lat="47.2266170" lon="6.9276830">
        <ele>564.7</ele>
        <time>2022-07-21T10:29:56Z</time>
      </trkpt>
      <trkpt lat="47.2266010" lon="6.9276750">
        <ele>564.9</ele>
        <time>2022-07-21T10:29:57Z</time>
      </trkpt>
      <trkpt lat="47.2265840" lon="6.9276680">
        <ele>565.1</ele>
        <time>2022-07-21T10:29:58Z</time>
      </trkpt>
      <trkpt lat="47.2265690" lon="6.9276620">
        <ele>565.2</ele>
        <time>2022-07-21T10:29:59Z</time>
      </trkpt>
      <trkpt lat="47.2265530" lon="6.9276580">
        <ele>565.4</ele>
        <time>2022-07-21T10:30:00Z</time>
      </trkpt>
      <trkpt lat="47.2265370" lon="6.9276470">
        <ele>565.5</ele>
        <time>2022-07-21T10:30:01Z</time>
      </trkpt>
      <trkpt lat="47.2265170" lon="6.9276380">
        <ele>565.7</ele>
        <time>2022-07-21T10:30:02Z</time>
      </trkpt>
      <trkpt lat="47.2265090" lon="6.9276360">
        <ele>565.8</ele>
        <time>2022-07-21T10:30:03Z</time>
      </trkpt>
      <trkpt lat="47.2265010" lon="6.9276340">
        <ele>565.9</ele>
        <time>2022-07-21T10:30:04Z</time>
      </trkpt>
      <trkpt lat="47.2264860" lon="6.9276330">
        <ele>566.0</ele>
        <time>2022-07-21T10:30:05Z</time>
      </trkpt>
      <trkpt lat="47.2264700" lon="6.9276280">
        <ele>566.2</ele>
        <time>2022-07-21T10:30:06Z</time>
      </trkpt>
      <trkpt lat="47.2264540" lon="6.9276260">
        <ele>566.3</ele>
        <time>2022-07-21T10:30:07Z</time>
      </trkpt>
      <trkpt lat="47.2264370" lon="6.9276220">
        <ele>566.5</ele>
        <time>2022-07-21T10:30:08Z</time>
      </trkpt>
      <trkpt lat="47.2264160" lon="6.9276170">
        <ele>566.7</ele>
        <time>2022-07-21T10:30:09Z</time>
      </trkpt>
      <trkpt lat="47.2264060" lon="6.9276140">
        <ele>566.8</ele>
        <time>2022-07-21T10:30:10Z</time>
      </trkpt>
      <trkpt lat="47.2263970" lon="6.9276120">
        <ele>566.9</ele>
        <time>2022-07-21T10:30:11Z</time>
      </trkpt>
      <trkpt lat="47.2263850" lon="6.9276090">
        <ele>567.0</ele>
        <time>2022-07-21T10:30:12Z</time>
      </trkpt>
      <trkpt lat="47.2263770" lon="6.9276090">
        <ele>567.1</ele>
        <time>2022-07-21T10:30:13Z</time>
      </trkpt>
      <trkpt lat="47.2263690" lon="6.9276080">
        <ele>567.1</ele>
        <time>2022-07-21T10:30:14Z</time>
      </trkpt>
      <trkpt lat="47.2263610" lon="6.9276070">
        <ele>567.2</ele>
        <time>2022-07-21T10:30:15Z</time>
      </trkpt>
      <trkpt lat="47.2263490" lon="6.9276070">
        <ele>567.3</ele>
        <time>2022-07-21T10:30:16Z</time>
      </trkpt>
      <trkpt lat="47.2263320" lon="6.9276050">
        <ele>567.5</ele>
        <time>2022-07-21T10:30:17Z</time>
      </trkpt>
      <trkpt lat="47.2263150" lon="6.9276030">
        <ele>567.6</ele>
        <time>2022-07-21T10:30:18Z</time>
      </trkpt>
      <trkpt lat="47.2263040" lon="6.9276020">
        <ele>567.7</ele>
        <time>2022-07-21T10:30:19Z</time>
      </trkpt>
      <trkpt lat="47.2262870" lon="6.9276000">
        <ele>567.9</ele>
        <time>2022-07-21T10:30:20Z</time>
      </trkpt>
      <trkpt lat="47.2262680" lon="6.9276000">
        <ele>568.0</ele>
        <time>2022-07-21T10:30:21Z</time>
      </trkpt>
      <trkpt lat="47.2262390" lon="6.9275980">
        <ele>568.2</ele>
        <time>2022-07-21T10:30:22Z</time>
      </trkpt>
      <trkpt lat="47.2262280" lon="6.9275970">
        <ele>568.3</ele>
        <time>2022-07-21T10:30:23Z</time>
      </trkpt>
      <trkpt lat="47.2261960" lon="6.9275950">
        <ele>568.5</ele>
        <time>2022-07-21T10:30:24Z</time>
      </trkpt>
      <trkpt lat="47.2261870" lon="6.9275940">
        <ele>568.5</ele>
        <time>2022-07-21T10:30:25Z</time>
      </trkpt>
      <trkpt lat="47.2261590" lon="6.9275960">
        <ele>568.7</ele>
        <time>2022-07-21T10:30:26Z</time>
      </trkpt>
      <trkpt lat="47.2261490" lon="6.9275970">
        <ele>568.8</ele>
        <time>2022-07-21T10:30:27Z</time>
      </trkpt>
      <trkpt lat="47.2261320" lon="6.9276000">
        <ele>568.9</ele>
        <time>2022-07-21T10:30:28Z</time>
      </trkpt>
      <trkpt lat="47.2261150" lon="6.9276040">
        <ele>569.0</ele>
        <time>2022-07-21T10:30:29Z</time>
      </trkpt>
      <trkpt lat="47.2260880" lon="6.9276140">
        <ele>569.1</ele>
        <time>2022-07-21T10:30:30Z</time>
      </trkpt>
      <trkpt lat="47.2260790" lon="6.9276170">
        <ele>569.1</ele>
        <time>2022-07-21T10:30:31Z</time>
      </trkpt>
      <trkpt lat="47.2260530" lon="6.9276230">
        <ele>569.2</ele>
        <time>2022-07-21T10:30:32Z</time>
      </trkpt>
      <trkpt lat="47.2260430" lon="6.9276240">
        <ele>569.3</ele>
        <time>2022-07-21T10:30:33Z</time>
      </trkpt>
      <trkpt lat="47.2260270" lon="6.9276240">
        <ele>569.4</ele>
        <time>2022-07-21T10:30:34Z</time>
      </trkpt>
      <trkpt lat="47.2260080" lon="6.9276230">
        <ele>569.4</ele>
        <time>2022-07-21T10:30:35Z</time>
      </trkpt>
      <trkpt lat="47.2259760" lon="6.9276210">
        <ele>569.5</ele>
        <time>2022-07-21T10:30:36Z</time>
      </trkpt>
      <trkpt lat="47.2259650" lon="6.9276200">
        <ele>569.5</ele>
        <time>2022-07-21T10:30:37Z</time>
      </trkpt>
      <trkpt lat="47.2259230" lon="6.9276070">
        <ele>569.6</ele>
        <time>2022-07-21T10:30:38Z</time>
      </trkpt>
      <trkpt lat="47.2259070" lon="6.9276010">
        <ele>569.6</ele>
        <time>2022-07-21T10:30:39Z</time>
      </trkpt>
      <trkpt lat="47.2258750" lon="6.9275900">
        <ele>569.6</ele>
        <time>2022-07-21T10:30:40Z</time>
      </trkpt>
      <trkpt lat="47.2258450" lon="6.9275790">
        <ele>569.6</ele>
        <time>2022-07-21T10:30:41Z</time>
      </trkpt>
      <trkpt lat="47.2258130" lon="6.9275660">
        <ele>569.5</ele>
        <time>2022-07-21T10:30:42Z</time>
      </trkpt>
      <trkpt lat="47.2257810" lon="6.9275520">
        <ele>569.4</ele>
        <time>2022-07-21T10:30:43Z</time>
      </trkpt>
      <trkpt lat="47.2257470" lon="6.9275370">
        <ele>569.3</ele>
        <time>2022-07-21T10:30:44Z</time>
      </trkpt>
      <trkpt lat="47.2257080" lon="6.9275230">
        <ele>569.2</ele>
        <time>2022-07-21T10:30:45Z</time>
      </trkpt>
      <trkpt lat="47.2256690" lon="6.9275090">
        <ele>569.0</ele>
        <time>2022-07-21T10:30:46Z</time>
      </trkpt>
      <trkpt lat="47.2256280" lon="6.9274900">
        <ele>568.8</ele>
        <time>2022-07-21T10:30:47Z</time>
      </trkpt>
      <trkpt lat="47.2255840" lon="6.9274560">
        <ele>568.6</ele>
        <time>2022-07-21T10:30:48Z</time>
      </trkpt>
      <trkpt lat="47.2255380" lon="6.9274070">
        <ele>568.3</ele>
        <time>2022-07-21T10:30:49Z</time>
      </trkpt>
      <trkpt lat="47.2254940" lon="6.9273610">
        <ele>568.1</ele>
        <time>2022-07-21T10:30:50Z</time>
      </trkpt>
      <trkpt lat="47.2254510" lon="6.9273230">
        <ele>567.8</ele>
        <time>2022-07-21T10:30:51Z</time>
      </trkpt>
      <trkpt lat="47.2254070" lon="6.9272910">
        <ele>567.6</ele>
        <time>2022-07-21T10:30:52Z</time>
      </trkpt>
      <trkpt lat="47.2253650" lon="6.9272550">
        <ele>567.4</ele>
        <time>2022-07-21T10:30:53Z</time>
      </trkpt>
      <trkpt lat="47.2253190" lon="6.9272160">
        <ele>567.1</ele>
        <time>2022-07-21T10:30:54Z</time>
      </trkpt>
      <trkpt lat="47.2252690" lon="6.9271780">
        <ele>566.9</ele>
        <time>2022-07-21T10:30:55Z</time>
      </trkpt>
      <trkpt lat="47.2252170" lon="6.9271290">
        <ele>566.6</ele>
        <time>2022-07-21T10:30:56Z</time>
      </trkpt>
      <trkpt lat="47.2251920" lon="6.9270960">
        <ele>566.5</ele>
        <time>2022-07-21T10:30:57Z</time>
      </trkpt>
      <trkpt lat="47.2251520" lon="6.9270620">
        <ele>566.3</ele>
        <time>2022-07-21T10:30:58Z</time>
      </trkpt>
      <trkpt lat="47.2251010" lon="6.9270270">
        <ele>566.1</ele>
        <time>2022-07-21T10:30:59Z</time>
      </trkpt>
      <trkpt lat="47.2250450" lon="6.9269940">
        <ele>565.8</ele>
        <time>2022-07-21T10:31:00Z</time>
      </trkpt>
      <trkpt lat="47.2249810" lon="6.9269670">
        <ele>565.4</ele>
        <time>2022-07-21T10:31:01Z</time>
      </trkpt>
      <trkpt lat="47.2249170" lon="6.9269360">
        <ele>565.0</ele>
        <time>2022-07-21T10:31:02Z</time>
      </trkpt>
      <trkpt lat="47.2248480" lon="6.9269000">
        <ele>564.6</ele>
        <time>2022-07-21T10:31:03Z</time>
      </trkpt>
      <trkpt lat="47.2247820" lon="6.9268680">
        <ele>564.1</ele>
        <time>2022-07-21T10:31:04Z</time>
      </trkpt>
      <trkpt lat="47.2247280" lon="6.9268280">
        <ele>563.6</ele>
        <time>2022-07-21T10:31:05Z</time>
      </trkpt>
      <trkpt lat="47.2246820" lon="6.9267850">
        <ele>563.1</ele>
        <time>2022-07-21T10:31:06Z</time>
      </trkpt>
      <trkpt lat="47.2246390" lon="6.9267390">
        <ele>562.6</ele>
        <time>2022-07-21T10:31:07Z</time>
      </trkpt>
      <trkpt lat="47.2245840" lon="6.9266860">
        <ele>562.0</ele>
        <time>2022-07-21T10:31:08Z</time>
      </trkpt>
      <trkpt lat="47.2245260" lon="6.9266340">
        <ele>561.4</ele>
        <time>2022-07-21T10:31:09Z</time>
      </trkpt>
      <trkpt lat="47.2244620" lon="6.9265730">
        <ele>560.7</ele>
        <time>2022-07-21T10:31:10Z</time>
      </trkpt>
      <trkpt lat="47.2244060" lon="6.9265090">
        <ele>560.0</ele>
        <time>2022-07-21T10:31:11Z</time>
      </trkpt>
      <trkpt lat="47.2243500" lon="6.9264380">
        <ele>559.4</ele>
        <time>2022-07-21T10:31:12Z</time>
      </trkpt>
      <trkpt lat="47.2242990" lon="6.9263630">
        <ele>558.8</ele>
        <time>2022-07-21T10:31:13Z</time>
      </trkpt>
      <trkpt lat="47.2242540" lon="6.9262920">
        <ele>558.3</ele>
        <time>2022-07-21T10:31:14Z</time>
      </trkpt>
      <trkpt lat="47.2242040" lon="6.9262270">
        <ele>557.7</ele>
        <time>2022-07-21T10:31:15Z</time>
      </trkpt>
      <trkpt lat="47.2241650" lon="6.9261780">
        <ele>557.3</ele>
        <time>2022-07-21T10:31:16Z</time>
      </trkpt>
      <trkpt lat="47.2241330" lon="6.9261400">
        <ele>556.9</ele>
        <time>2022-07-21T10:31:17Z</time>
      </trkpt>
      <trkpt lat="47.2241090" lon="6.9261150">
        <ele>556.7</ele>
        <time>2022-07-21T10:31:18Z</time>
      </trkpt>
      <trkpt lat="47.2240880" lon="6.9260890">
        <ele>556.5</ele>
        <time>2022-07-21T10:31:19Z</time>
      </trkpt>
      <trkpt lat="47.2240640" lon="6.9260550">
        <ele>556.2</ele>
        <time>2022-07-21T10:31:20Z</time>
      </trkpt>
      <trkpt lat="47.2240570" lon="6.9260440">
        <ele>556.1</ele>
        <time>2022-07-21T10:31:21Z</time>
      </trkpt>
      <trkpt lat="47.2240470" lon="6.9259890">
        <ele>555.2</ele>
        <time>2022-07-21T10:31:22Z</time>
      </trkpt>
      <trkpt lat="47.2240460" lon="6.9259660">
        <ele>555.1</ele>
        <time>2022-07-21T10:31:23Z</time>
      </trkpt>
      <trkpt lat="47.2240450" lon="6.9259140">
        <ele>555.0</ele>
        <time>2022-07-21T10:31:24Z</time>
      </trkpt>
      <trkpt lat="47.2240530" lon="6.9258640">
        <ele>554.9</ele>
        <time>2022-07-21T10:31:25Z</time>
      </trkpt>
      <trkpt lat="47.2240840" lon="6.9258060">
        <ele>554.8</ele>
        <time>2022-07-21T10:31:26Z</time>
      </trkpt>
      <trkpt lat="47.2241320" lon="6.9257410">
        <ele>554.7</ele>
        <time>2022-07-21T10:31:27Z</time>
      </trkpt>
      <trkpt lat="47.2241660" lon="6.9256720">
        <ele>554.7</ele>
        <time>2022-07-21T10:31:28Z</time>
      </trkpt>
      <trkpt lat="47.2241940" lon="6.9256200">
        <ele>554.8</ele>
        <time>2022-07-21T10:31:29Z</time>
      </trkpt>
      <trkpt lat="47.2242110" lon="6.9255870">
        <ele>554.8</ele>
        <time>2022-07-21T10:31:30Z</time>
      </trkpt>
      <trkpt lat="47.2242350" lon="6.9255420">
        <ele>554.8</ele>
        <time>2022-07-21T10:31:31Z</time>
      </trkpt>
      <trkpt lat="47.2242520" lon="6.9255030">
        <ele>554.8</ele>
        <time>2022-07-21T10:31:32Z</time>
      </trkpt>
      <trkpt lat="47.2242710" lon="6.9254620">
        <ele>554.7</ele>
        <time>2022-07-21T10:31:33Z</time>
      </trkpt>
      <trkpt lat="47.2242890" lon="6.9254230">
        <ele>554.7</ele>
        <time>2022-07-21T10:31:34Z</time>
      </trkpt>
      <trkpt lat="47.2243030" lon="6.9253780">
        <ele>554.6</ele>
        <time>2022-07-21T10:31:35Z</time>
      </trkpt>
      <trkpt lat="47.2243050" lon="6.9253360">
        <ele>554.6</ele>
        <time>2022-07-21T10:31:36Z</time>
      </trkpt>
      <trkpt lat="47.2242960" lon="6.9252910">
        <ele>554.6</ele>
        <time>2022-07-21T10:31:37Z</time>
      </trkpt>
      <trkpt lat="47.2242900" lon="6.9252340">
        <ele>554.5</ele>
        <time>2022-07-21T10:31:38Z</time>
      </trkpt>
      <trkpt lat="47.2242900" lon="6.9252150">
        <ele>554.5</ele>
        <time>2022-07-21T10:31:39Z</time>
      </trkpt>
      <trkpt lat="47.2242900" lon="6.9251600">
        <ele>554.5</ele>
        <time>2022-07-21T10:31:40Z</time>
      </trkpt>
      <trkpt lat="47.2242900" lon="6.9251420">
        <ele>554.5</ele>
        <time>2022-07-21T10:31:41Z</time>
      </trkpt>
      <trkpt lat="47.2242890" lon="6.9251000">
        <ele>554.4</ele>
        <time>2022-07-21T10:31:42Z</time>
      </trkpt>
      <trkpt lat="47.2242870" lon="6.9250410">
        <ele>554.4</ele>
        <time>2022-07-21T10:31:43Z</time>
      </trkpt>
      <trkpt lat="47.2242860" lon="6.9250210">
        <ele>554.4</ele>
        <time>2022-07-21T10:31:44Z</time>
      </trkpt>
      <trkpt lat="47.2242830" lon="6.9249790">
        <ele>554.5</ele>
        <time>2022-07-21T10:31:45Z</time>
      </trkpt>
      <trkpt lat="47.2242830" lon="6.9249360">
        <ele>554.5</ele>
        <time>2022-07-21T10:31:46Z</time>
      </trkpt>
      <trkpt lat="47.2242840" lon="6.9248880">
        <ele>554.5</ele>
        <time>2022-07-21T10:31:47Z</time>
      </trkpt>
      <trkpt lat="47.2242880" lon="6.9248470">
        <ele>554.6</ele>
        <time>2022-07-21T10:31:48Z</time>
      </trkpt>
      <trkpt lat="47.2242930" lon="6.9248040">
        <ele>554.7</ele>
        <time>2022-07-21T10:31:49Z</time>
      </trkpt>
      <trkpt lat="47.2243000" lon="6.9247600">
        <ele>554.7</ele>
        <time>2022-07-21T10:31:50Z</time>
      </trkpt>
      <trkpt lat="47.2243010" lon="6.9247440">
        <ele>554.8</ele>
        <time>2022-07-21T10:31:51Z</time>
      </trkpt>
      <trkpt lat="47.2243030" lon="6.9247230">
        <ele>554.8</ele>
        <time>2022-07-21T10:31:52Z</time>
      </trkpt>
      <trkpt lat="47.2243040" lon="6.9247000">
        <ele>554.9</ele>
        <time>2022-07-21T10:31:53Z</time>
      </trkpt>
      <trkpt lat="47.2243060" lon="6.9246790">
        <ele>555.0</ele>
        <time>2022-07-21T10:31:54Z</time>
      </trkpt>
      <trkpt lat="47.2243060" lon="6.9246660">
        <ele>555.0</ele>
        <time>2022-07-21T10:31:55Z</time>
      </trkpt>
      <trkpt lat="47.2243050" lon="6.9246550">
        <ele>555.0</ele>
        <time>2022-07-21T10:31:56Z</time>
      </trkpt>
      <trkpt lat="47.2243010" lon="6.9246470">
        <ele>555.1</ele>
        <time>2022-07-21T10:31:57Z</time>
      </trkpt>
      <trkpt lat="47.2242980" lon="6.9246430">
        <ele>555.1</ele>
        <time>2022-07-21T10:31:58Z</time>
      </trkpt>
      <trkpt lat="47.2242950" lon="6.9246430">
        <ele>555.1</ele>
        <time>2022-07-21T10:31:59Z</time>
      </trkpt>
      <trkpt lat="47.2242900" lon="6.9246480">
        <ele>555.1</ele>
        <time>2022-07-21T10:32:00Z</time>
      </trkpt>
      <trkpt lat="47.2242870" lon="6.9246540">
        <ele>555.2</ele>
        <time>2022-07-21T10:32:01Z</time>
      </trkpt>
      <trkpt lat="47.2242850" lon="6.9246580">
        <ele>555.2</ele>
        <time>2022-07-21T10:32:02Z</time>
      </trkpt>
      <trkpt lat="47.2242840" lon="6.9246600">
        <ele>555.2</ele>
        <time>2022-07-21T10:32:03Z</time>
      </trkpt>
      <trkpt lat="47.2242840" lon="6.9246600">
        <ele>555.2</ele>
        <time>2022-07-21T10:32:04Z</time>
      </trkpt>
      <trkpt lat="47.2242840" lon="6.9246600">
        <ele>555.2</ele>
        <time>2022-07-21T10:32:05Z</time>
      </trkpt>
      <trkpt lat="47.2242840" lon="6.9246590">
        <ele>555.2</ele>
        <time>2022-07-21T10:32:06Z</time>
      </trkpt>
      <trkpt lat="47.2242840" lon="6.9246590">
        <ele>555.2</ele>
        <time>2022-07-21T10:32:07Z</time>
      </trkpt>
      <trkpt lat="47.2242850" lon="6.9246590">
        <ele>555.2</ele>
        <time>2022-07-21T10:32:08Z</time>
      </trkpt>
      <trkpt lat="47.2242850" lon="6.9246580">
        <ele>555.2</ele>
        <time>2022-07-21T10:32:09Z</time>
      </trkpt>
      <trkpt lat="47.2242850" lon="6.9246580">
        <ele>555.2</ele>
        <time>2022-07-21T10:32:10Z</time>
      </trkpt>
      <trkpt lat="47.2242850" lon="6.9246580">
        <ele>555.2</ele>
        <time>2022-07-21T10:32:11Z</time>
      </trkpt>
      <trkpt lat="47.2242860" lon="6.9246580">
        <ele>555.2</ele>
        <time>2022-07-21T10:32:12Z</time>
      </trkpt>
      <trkpt lat="47.2242920" lon="6.9246140">
        <ele>555.3</ele>
        <time>2022-07-21T10:32:16Z</time>
      </trkpt>
      <trkpt lat="47.2242990" lon="6.9245730">
        <ele>555.5</ele>
        <time>2022-07-21T10:32:17Z</time>
      </trkpt>
      <trkpt lat="47.2243130" lon="6.9245290">
        <ele>555.6</ele>
        <time>2022-07-21T10:32:18Z</time>
      </trkpt>
      <trkpt lat="47.2243180" lon="6.9245160">
        <ele>555.7</ele>
        <time>2022-07-21T10:32:19Z</time>
      </trkpt>
      <trkpt lat="47.2243290" lon="6.9244630">
        <ele>555.9</ele>
        <time>2022-07-21T10:32:20Z</time>
      </trkpt>
      <trkpt lat="47.2243310" lon="6.9244450">
        <ele>556.0</ele>
        <time>2022-07-21T10:32:21Z</time>
      </trkpt>
      <trkpt lat="47.2243400" lon="6.9243850">
        <ele>556.2</ele>
        <time>2022-07-21T10:32:22Z</time>
      </trkpt>
      <trkpt lat="47.2243430" lon="6.9243640">
        <ele>556.3</ele>
        <time>2022-07-21T10:32:23Z</time>
      </trkpt>
      <trkpt lat="47.2243540" lon="6.9243240">
        <ele>556.4</ele>
        <time>2022-07-21T10:32:24Z</time>
      </trkpt>
      <trkpt lat="47.2243680" lon="6.9242720">
        <ele>556.6</ele>
        <time>2022-07-21T10:32:25Z</time>
      </trkpt>
      <trkpt lat="47.2243730" lon="6.9242530">
        <ele>556.7</ele>
        <time>2022-07-21T10:32:26Z</time>
      </trkpt>
      <trkpt lat="47.2243830" lon="6.9242100">
        <ele>556.9</ele>
        <time>2022-07-21T10:32:27Z</time>
      </trkpt>
      <trkpt lat="47.2243950" lon="6.9241530">
        <ele>557.2</ele>
        <time>2022-07-21T10:32:28Z</time>
      </trkpt>
      <trkpt lat="47.2243990" lon="6.9241330">
        <ele>557.3</ele>
        <time>2022-07-21T10:32:29Z</time>
      </trkpt>
      <trkpt lat="47.2244040" lon="6.9240930">
        <ele>557.4</ele>
        <time>2022-07-21T10:32:30Z</time>
      </trkpt>
      <trkpt lat="47.2244050" lon="6.9240450">
        <ele>557.7</ele>
        <time>2022-07-21T10:32:31Z</time>
      </trkpt>
      <trkpt lat="47.2244050" lon="6.9240310">
        <ele>557.7</ele>
        <time>2022-07-21T10:32:32Z</time>
      </trkpt>
      <trkpt lat="47.2244040" lon="6.9240090">
        <ele>557.8</ele>
        <time>2022-07-21T10:32:33Z</time>
      </trkpt>
      <trkpt lat="47.2244010" lon="6.9239820">
        <ele>557.9</ele>
        <time>2022-07-21T10:32:34Z</time>
      </trkpt>
      <trkpt lat="47.2243920" lon="6.9239440">
        <ele>558.1</ele>
        <time>2022-07-21T10:32:35Z</time>
      </trkpt>
      <trkpt lat="47.2243880" lon="6.9239310">
        <ele>558.2</ele>
        <time>2022-07-21T10:32:36Z</time>
      </trkpt>
      <trkpt lat="47.2243690" lon="6.9239000">
        <ele>558.4</ele>
        <time>2022-07-21T10:32:37Z</time>
      </trkpt>
      <trkpt lat="47.2243630" lon="6.9238900">
        <ele>558.4</ele>
        <time>2022-07-21T10:32:38Z</time>
      </trkpt>
      <trkpt lat="47.2243510" lon="6.9238700">
        <ele>558.6</ele>
        <time>2022-07-21T10:32:39Z</time>
      </trkpt>
      <trkpt lat="47.2243400" lon="6.9238500">
        <ele>558.7</ele>
        <time>2022-07-21T10:32:40Z</time>
      </trkpt>
      <trkpt lat="47.2243280" lon="6.9238320">
        <ele>558.8</ele>
        <time>2022-07-21T10:32:41Z</time>
      </trkpt>
      <trkpt lat="47.2243160" lon="6.9238150">
        <ele>558.9</ele>
        <time>2022-07-21T10:32:42Z</time>
      </trkpt>
      <trkpt lat="47.2242990" lon="6.9237950">
        <ele>559.1</ele>
        <time>2022-07-21T10:32:43Z</time>
      </trkpt>
      <trkpt lat="47.2242900" lon="6.9237860">
        <ele>559.2</ele>
        <time>2022-07-21T10:32:44Z</time>
      </trkpt>
      <trkpt lat="47.2242810" lon="6.9237770">
        <ele>559.2</ele>
        <time>2022-07-21T10:32:45Z</time>
      </trkpt>
      <trkpt lat="47.2242560" lon="6.9237550">
        <ele>559.4</ele>
        <time>2022-07-21T10:32:46Z</time>
      </trkpt>
      <trkpt lat="47.2242480" lon="6.9237470">
        <ele>559.5</ele>
        <time>2022-07-21T10:32:47Z</time>
      </trkpt>
      <trkpt lat="47.2242390" lon="6.9237350">
        <ele>559.6</ele>
        <time>2022-07-21T10:32:48Z</time>
      </trkpt>
      <trkpt lat="47.2242220" lon="6.9237160">
        <ele>559.8</ele>
        <time>2022-07-21T10:32:49Z</time>
      </trkpt>
      <trkpt lat="47.2241970" lon="6.9236940">
        <ele>560.0</ele>
        <time>2022-07-21T10:32:50Z</time>
      </trkpt>
      <trkpt lat="47.2241900" lon="6.9236880">
        <ele>560.0</ele>
        <time>2022-07-21T10:32:51Z</time>
      </trkpt>
      <trkpt lat="47.2241610" lon="6.9236660">
        <ele>560.3</ele>
        <time>2022-07-21T10:32:52Z</time>
      </trkpt>
      <trkpt lat="47.2241500" lon="6.9236570">
        <ele>560.3</ele>
        <time>2022-07-21T10:32:53Z</time>
      </trkpt>
      <trkpt lat="47.2241280" lon="6.9236310">
        <ele>560.5</ele>
        <time>2022-07-21T10:32:54Z</time>
      </trkpt>
      <trkpt lat="47.2241190" lon="6.9236190">
        <ele>560.6</ele>
        <time>2022-07-21T10:32:55Z</time>
      </trkpt>
      <trkpt lat="47.2240950" lon="6.9235750">
        <ele>560.9</ele>
        <time>2022-07-21T10:32:56Z</time>
      </trkpt>
      <trkpt lat="47.2240870" lon="6.9235630">
        <ele>561.0</ele>
        <time>2022-07-21T10:32:57Z</time>
      </trkpt>
      <trkpt lat="47.2240610" lon="6.9235320">
        <ele>561.2</ele>
        <time>2022-07-21T10:32:58Z</time>
      </trkpt>
      <trkpt lat="47.2240520" lon="6.9235230">
        <ele>561.3</ele>
        <time>2022-07-21T10:32:59Z</time>
      </trkpt>
      <trkpt lat="47.2240250" lon="6.9234970">
        <ele>561.5</ele>
        <time>2022-07-21T10:33:00Z</time>
      </trkpt>
      <trkpt lat="47.2240170" lon="6.9234890">
        <ele>561.5</ele>
        <time>2022-07-21T10:33:01Z</time>
      </trkpt>
      <trkpt lat="47.2240020" lon="6.9234730">
        <ele>561.7</ele>
        <time>2022-07-21T10:33:03Z</time>
      </trkpt>
      <trkpt lat="47.2239920" lon="6.9234640">
        <ele>561.7</ele>
        <time>2022-07-21T10:33:04Z</time>
      </trkpt>
      <trkpt lat="47.2239700" lon="6.9234410">
        <ele>561.9</ele>
        <time>2022-07-21T10:33:05Z</time>
      </trkpt>
      <trkpt lat="47.2239620" lon="6.9234320">
        <ele>562.0</ele>
        <time>2022-07-21T10:33:06Z</time>
      </trkpt>
      <trkpt lat="47.2239420" lon="6.9234040">
        <ele>562.2</ele>
        <time>2022-07-21T10:33:07Z</time>
      </trkpt>
      <trkpt lat="47.2239250" lon="6.9233720">
        <ele>562.3</ele>
        <time>2022-07-21T10:33:09Z</time>
      </trkpt>
      <trkpt lat="47.2239070" lon="6.9233420">
        <ele>562.5</ele>
        <time>2022-07-21T10:33:10Z</time>
      </trkpt>
      <trkpt lat="47.2238840" lon="6.9233150">
        <ele>562.7</ele>
        <time>2022-07-21T10:33:11Z</time>
      </trkpt>
      <trkpt lat="47.2238590" lon="6.9232860">
        <ele>562.9</ele>
        <time>2022-07-21T10:33:12Z</time>
      </trkpt>
      <trkpt lat="47.2238500" lon="6.9232750">
        <ele>563.0</ele>
        <time>2022-07-21T10:33:13Z</time>
      </trkpt>
      <trkpt lat="47.2238200" lon="6.9232480">
        <ele>563.2</ele>
        <time>2022-07-21T10:33:14Z</time>
      </trkpt>
      <trkpt lat="47.2238060" lon="6.9232350">
        <ele>563.3</ele>
        <time>2022-07-21T10:33:15Z</time>
      </trkpt>
      <trkpt lat="47.2237730" lon="6.9231920">
        <ele>563.6</ele>
        <time>2022-07-21T10:33:17Z</time>
      </trkpt>
      <trkpt lat="47.2237620" lon="6.9231760">
        <ele>563.7</ele>
        <time>2022-07-21T10:33:18Z</time>
      </trkpt>
      <trkpt lat="47.2237520" lon="6.9231600">
        <ele>563.8</ele>
        <time>2022-07-21T10:33:19Z</time>
      </trkpt>
      <trkpt lat="47.2237280" lon="6.9231270">
        <ele>564.1</ele>
        <time>2022-07-21T10:33:20Z</time>
      </trkpt>
      <trkpt lat="47.2237190" lon="6.9231150">
        <ele>564.1</ele>
        <time>2022-07-21T10:33:21Z</time>
      </trkpt>
      <trkpt lat="47.2237020" lon="6.9230860">
        <ele>564.3</ele>
        <time>2022-07-21T10:33:22Z</time>
      </trkpt>
      <trkpt lat="47.2236850" lon="6.9230430">
        <ele>564.6</ele>
        <time>2022-07-21T10:33:24Z</time>
      </trkpt>
      <trkpt lat="47.2236640" lon="6.9229960">
        <ele>564.8</ele>
        <time>2022-07-21T10:33:25Z</time>
      </trkpt>
      <trkpt lat="47.2236530" lon="6.9229640">
        <ele>565.0</ele>
        <time>2022-07-21T10:33:27Z</time>
      </trkpt>
      <trkpt lat="47.2236480" lon="6.9229540">
        <ele>565.1</ele>
        <time>2022-07-21T10:33:28Z</time>
      </trkpt>
      <trkpt lat="47.2236240" lon="6.9229160">
        <ele>565.3</ele>
        <time>2022-07-21T10:33:29Z</time>
      </trkpt>
      <trkpt lat="47.2236190" lon="6.9229030">
        <ele>565.4</ele>
        <time>2022-07-21T10:33:30Z</time>
      </trkpt>
      <trkpt lat="47.2236090" lon="6.9228790">
        <ele>565.6</ele>
        <time>2022-07-21T10:33:31Z</time>
      </trkpt>
      <trkpt lat="47.2236010" lon="6.9228590">
        <ele>565.7</ele>
        <time>2022-07-21T10:33:32Z</time>
      </trkpt>
      <trkpt lat="47.2235920" lon="6.9228410">
        <ele>565.8</ele>
        <time>2022-07-21T10:33:33Z</time>
      </trkpt>
      <trkpt lat="47.2235800" lon="6.9228210">
        <ele>566.0</ele>
        <time>2022-07-21T10:33:34Z</time>
      </trkpt>
      <trkpt lat="47.2235580" lon="6.9227870">
        <ele>566.2</ele>
        <time>2022-07-21T10:33:35Z</time>
      </trkpt>
      <trkpt lat="47.2235520" lon="6.9227750">
        <ele>566.3</ele>
        <time>2022-07-21T10:33:36Z</time>
      </trkpt>
      <trkpt lat="47.2235340" lon="6.9227420">
        <ele>566.6</ele>
        <time>2022-07-21T10:33:37Z</time>
      </trkpt>
      <trkpt lat="47.2235070" lon="6.9227060">
        <ele>566.6</ele>
        <time>2022-07-21T10:33:38Z</time>
      </trkpt>
      <trkpt lat="47.2234680" lon="6.9226670">
        <ele>566.3</ele>
        <time>2022-07-21T10:33:39Z</time>
      </trkpt>
      <trkpt lat="47.2234230" lon="6.9226210">
        <ele>566.0</ele>
        <time>2022-07-21T10:33:40Z</time>
      </trkpt>
      <trkpt lat="47.2233710" lon="6.9225650">
        <ele>565.5</ele>
        <time>2022-07-21T10:33:41Z</time>
      </trkpt>
      <trkpt lat="47.2233120" lon="6.9225050">
        <ele>565.0</ele>
        <time>2022-07-21T10:33:42Z</time>
      </trkpt>
      <trkpt lat="47.2232540" lon="6.9224450">
        <ele>564.5</ele>
        <time>2022-07-21T10:33:43Z</time>
      </trkpt>
      <trkpt lat="47.2232020" lon="6.9223990">
        <ele>564.1</ele>
        <time>2022-07-21T10:33:44Z</time>
      </trkpt>
      <trkpt lat="47.2231690" lon="6.9223610">
        <ele>563.9</ele>
        <time>2022-07-21T10:33:45Z</time>
      </trkpt>
      <trkpt lat="47.2231350" lon="6.9223220">
        <ele>563.7</ele>
        <time>2022-07-21T10:33:46Z</time>
      </trkpt>
      <trkpt lat="47.2230970" lon="6.9222820">
        <ele>563.4</ele>
        <time>2022-07-21T10:33:47Z</time>
      </trkpt>
      <trkpt lat="47.2230620" lon="6.9222440">
        <ele>563.2</ele>
        <time>2022-07-21T10:33:48Z</time>
      </trkpt>
      <trkpt lat="47.2230310" lon="6.9221940">
        <ele>563.0</ele>
        <time>2022-07-21T10:33:49Z</time>
      </trkpt>
      <trkpt lat="47.2229920" lon="6.9221330">
        <ele>562.6</ele>
        <time>2022-07-21T10:33:50Z</time>
      </trkpt>
      <trkpt lat="47.2229420" lon="6.9220850">
        <ele>562.3</ele>
        <time>2022-07-21T10:33:51Z</time>
      </trkpt>
      <trkpt lat="47.2228950" lon="6.9220500">
        <ele>561.9</ele>
        <time>2022-07-21T10:33:52Z</time>
      </trkpt>
      <trkpt lat="47.2228530" lon="6.9220010">
        <ele>561.6</ele>
        <time>2022-07-21T10:33:53Z</time>
      </trkpt>
      <trkpt lat="47.2228110" lon="6.9219410">
        <ele>561.1</ele>
        <time>2022-07-21T10:33:54Z</time>
      </trkpt>
      <trkpt lat="47.2227690" lon="6.9218860">
        <ele>560.6</ele>
        <time>2022-07-21T10:33:55Z</time>
      </trkpt>
      <trkpt lat="47.2227150" lon="6.9218370">
        <ele>560.1</ele>
        <time>2022-07-21T10:33:56Z</time>
      </trkpt>
      <trkpt lat="47.2226600" lon="6.9217740">
        <ele>559.5</ele>
        <time>2022-07-21T10:33:57Z</time>
      </trkpt>
      <trkpt lat="47.2226070" lon="6.9217060">
        <ele>558.8</ele>
        <time>2022-07-21T10:33:58Z</time>
      </trkpt>
      <trkpt lat="47.2225560" lon="6.9216390">
        <ele>558.3</ele>
        <time>2022-07-21T10:33:59Z</time>
      </trkpt>
      <trkpt lat="47.2225110" lon="6.9215650">
        <ele>557.7</ele>
        <time>2022-07-21T10:34:00Z</time>
      </trkpt>
      <trkpt lat="47.2224630" lon="6.9214940">
        <ele>557.2</ele>
        <time>2022-07-21T10:34:01Z</time>
      </trkpt>
      <trkpt lat="47.2224120" lon="6.9214150">
        <ele>556.6</ele>
        <time>2022-07-21T10:34:02Z</time>
      </trkpt>
      <trkpt lat="47.2223650" lon="6.9213450">
        <ele>556.0</ele>
        <time>2022-07-21T10:34:03Z</time>
      </trkpt>
      <trkpt lat="47.2223150" lon="6.9212570">
        <ele>555.4</ele>
        <time>2022-07-21T10:34:04Z</time>
      </trkpt>
      <trkpt lat="47.2222610" lon="6.9211670">
        <ele>554.8</ele>
        <time>2022-07-21T10:34:05Z</time>
      </trkpt>
      <trkpt lat="47.2222010" lon="6.9210640">
        <ele>554.1</ele>
        <time>2022-07-21T10:34:06Z</time>
      </trkpt>
      <trkpt lat="47.2221470" lon="6.9209610">
        <ele>553.5</ele>
        <time>2022-07-21T10:34:07Z</time>
      </trkpt>
      <trkpt lat="47.2220960" lon="6.9208620">
        <ele>553.0</ele>
        <time>2022-07-21T10:34:08Z</time>
      </trkpt>
      <trkpt lat="47.2220450" lon="6.9207630">
        <ele>552.6</ele>
        <time>2022-07-21T10:34:09Z</time>
      </trkpt>
      <trkpt lat="47.2220070" lon="6.9206770">
        <ele>552.3</ele>
        <time>2022-07-21T10:34:10Z</time>
      </trkpt>
      <trkpt lat="47.2219650" lon="6.9205810">
        <ele>552.0</ele>
        <time>2022-07-21T10:34:11Z</time>
      </trkpt>
      <trkpt lat="47.2219260" lon="6.9204850">
        <ele>551.9</ele>
        <time>2022-07-21T10:34:12Z</time>
      </trkpt>
      <trkpt lat="47.2218900" lon="6.9203920">
        <ele>551.8</ele>
        <time>2022-07-21T10:34:13Z</time>
      </trkpt>
      <trkpt lat="47.2218530" lon="6.9203070">
        <ele>551.7</ele>
        <time>2022-07-21T10:34:14Z</time>
      </trkpt>
      <trkpt lat="47.2218160" lon="6.9202200">
        <ele>551.8</ele>
        <time>2022-07-21T10:34:15Z</time>
      </trkpt>
      <trkpt lat="47.2217810" lon="6.9201380">
        <ele>551.9</ele>
        <time>2022-07-21T10:34:16Z</time>
      </trkpt>
      <trkpt lat="47.2217540" lon="6.9200700">
        <ele>552.0</ele>
        <time>2022-07-21T10:34:17Z</time>
      </trkpt>
      <trkpt lat="47.2217280" lon="6.9200050">
        <ele>552.2</ele>
        <time>2022-07-21T10:34:18Z</time>
      </trkpt>
      <trkpt lat="47.2217130" lon="6.9199480">
        <ele>552.3</ele>
        <time>2022-07-21T10:34:19Z</time>
      </trkpt>
      <trkpt lat="47.2217110" lon="6.9199080">
        <ele>552.3</ele>
        <time>2022-07-21T10:34:20Z</time>
      </trkpt>
      <trkpt lat="47.2217110" lon="6.9198620">
        <ele>552.4</ele>
        <time>2022-07-21T10:34:21Z</time>
      </trkpt>
      <trkpt lat="47.2217060" lon="6.9198020">
        <ele>552.4</ele>
        <time>2022-07-21T10:34:22Z</time>
      </trkpt>
      <trkpt lat="47.2217030" lon="6.9197470">
        <ele>552.5</ele>
        <time>2022-07-21T10:34:23Z</time>
      </trkpt>
      <trkpt lat="47.2217000" lon="6.9197010">
        <ele>552.5</ele>
        <time>2022-07-21T10:34:24Z</time>
      </trkpt>
      <trkpt lat="47.2216940" lon="6.9196560">
        <ele>552.6</ele>
        <time>2022-07-21T10:34:25Z</time>
      </trkpt>
      <trkpt lat="47.2216830" lon="6.9196150">
        <ele>552.6</ele>
        <time>2022-07-21T10:34:26Z</time>
      </trkpt>
      <trkpt lat="47.2216870" lon="6.9195650">
        <ele>552.7</ele>
        <time>2022-07-21T10:34:28Z</time>
      </trkpt>
      <trkpt lat="47.2216710" lon="6.9195210">
        <ele>552.7</ele>
        <time>2022-07-21T10:34:29Z</time>
      </trkpt>
      <trkpt lat="47.2216210" lon="6.9194370">
        <ele>552.7</ele>
        <time>2022-07-21T10:34:30Z</time>
      </trkpt>
      <trkpt lat="47.2216020" lon="6.9193790">
        <ele>552.7</ele>
        <time>2022-07-21T10:34:31Z</time>
      </trkpt>
      <trkpt lat="47.2215520" lon="6.9193050">
        <ele>552.7</ele>
        <time>2022-07-21T10:34:32Z</time>
      </trkpt>
      <trkpt lat="47.2215220" lon="6.9192500">
        <ele>552.7</ele>
        <time>2022-07-21T10:34:33Z</time>
      </trkpt>
      <trkpt lat="47.2215020" lon="6.9191930">
        <ele>552.7</ele>
        <time>2022-07-21T10:34:34Z</time>
      </trkpt>
      <trkpt lat="47.2214600" lon="6.9191020">
        <ele>552.7</ele>
        <time>2022-07-21T10:34:36Z</time>
      </trkpt>
      <trkpt lat="47.2214490" lon="6.9190310">
        <ele>552.7</ele>
        <time>2022-07-21T10:34:37Z</time>
      </trkpt>
      <trkpt lat="47.2214370" lon="6.9189600">
        <ele>552.7</ele>
        <time>2022-07-21T10:34:38Z</time>
      </trkpt>
      <trkpt lat="47.2214280" lon="6.9189060">
        <ele>552.7</ele>
        <time>2022-07-21T10:34:39Z</time>
      </trkpt>
      <trkpt lat="47.2214130" lon="6.9188400">
        <ele>552.7</ele>
        <time>2022-07-21T10:34:40Z</time>
      </trkpt>
      <trkpt lat="47.2214020" lon="6.9187810">
        <ele>552.6</ele>
        <time>2022-07-21T10:34:42Z</time>
      </trkpt>
      <trkpt lat="47.2213960" lon="6.9187190">
        <ele>552.6</ele>
        <time>2022-07-21T10:34:43Z</time>
      </trkpt>
      <trkpt lat="47.2213860" lon="6.9186810">
        <ele>552.6</ele>
        <time>2022-07-21T10:34:44Z</time>
      </trkpt>
      <trkpt lat="47.2213700" lon="6.9186350">
        <ele>552.6</ele>
        <time>2022-07-21T10:34:45Z</time>
      </trkpt>
      <trkpt lat="47.2213530" lon="6.9185810">
        <ele>552.6</ele>
        <time>2022-07-21T10:34:46Z</time>
      </trkpt>
      <trkpt lat="47.2213400" lon="6.9185410">
        <ele>552.5</ele>
        <time>2022-07-21T10:34:47Z</time>
      </trkpt>
      <trkpt lat="47.2213170" lon="6.9184780">
        <ele>552.5</ele>
        <time>2022-07-21T10:34:49Z</time>
      </trkpt>
      <trkpt lat="47.2212980" lon="6.9184170">
        <ele>552.5</ele>
        <time>2022-07-21T10:34:50Z</time>
      </trkpt>
      <trkpt lat="47.2212250" lon="6.9182690">
        <ele>552.3</ele>
        <time>2022-07-21T10:34:52Z</time>
      </trkpt>
      <trkpt lat="47.2211990" lon="6.9181860">
        <ele>552.2</ele>
        <time>2022-07-21T10:34:53Z</time>
      </trkpt>
      <trkpt lat="47.2211720" lon="6.9181030">
        <ele>552.1</ele>
        <time>2022-07-21T10:34:55Z</time>
      </trkpt>
      <trkpt lat="47.2211600" lon="6.9180440">
        <ele>552.1</ele>
        <time>2022-07-21T10:34:56Z</time>
      </trkpt>
      <trkpt lat="47.2211400" lon="6.9179890">
        <ele>552.0</ele>
        <time>2022-07-21T10:34:57Z</time>
      </trkpt>
      <trkpt lat="47.2211120" lon="6.9179150">
        <ele>551.9</ele>
        <time>2022-07-21T10:34:58Z</time>
      </trkpt>
      <trkpt lat="47.2210830" lon="6.9178250">
        <ele>551.9</ele>
        <time>2022-07-21T10:35:00Z</time>
      </trkpt>
      <trkpt lat="47.2210720" lon="6.9177550">
        <ele>551.9</ele>
        <time>2022-07-21T10:35:01Z</time>
      </trkpt>
      <trkpt lat="47.2210560" lon="6.9177030">
        <ele>551.9</ele>
        <time>2022-07-21T10:35:02Z</time>
      </trkpt>
      <trkpt lat="47.2210470" lon="6.9176320">
        <ele>551.9</ele>
        <time>2022-07-21T10:35:03Z</time>
      </trkpt>
      <trkpt lat="47.2210310" lon="6.9175520">
        <ele>551.9</ele>
        <time>2022-07-21T10:35:05Z</time>
      </trkpt>
      <trkpt lat="47.2210150" lon="6.9174900">
        <ele>551.9</ele>
        <time>2022-07-21T10:35:06Z</time>
      </trkpt>
      <trkpt lat="47.2209980" lon="6.9174290">
        <ele>551.9</ele>
        <time>2022-07-21T10:35:07Z</time>
      </trkpt>
      <trkpt lat="47.2209840" lon="6.9173720">
        <ele>551.9</ele>
        <time>2022-07-21T10:35:08Z</time>
      </trkpt>
      <trkpt lat="47.2209800" lon="6.9172890">
        <ele>552.0</ele>
        <time>2022-07-21T10:35:09Z</time>
      </trkpt>
      <trkpt lat="47.2209770" lon="6.9172350">
        <ele>552.0</ele>
        <time>2022-07-21T10:35:10Z</time>
      </trkpt>
      <trkpt lat="47.2209730" lon="6.9171540">
        <ele>552.1</ele>
        <time>2022-07-21T10:35:12Z</time>
      </trkpt>
      <trkpt lat="47.2209690" lon="6.9170930">
        <ele>552.1</ele>
        <time>2022-07-21T10:35:13Z</time>
      </trkpt>
      <trkpt lat="47.2209630" lon="6.9170230">
        <ele>552.2</ele>
        <time>2022-07-21T10:35:14Z</time>
      </trkpt>
      <trkpt lat="47.2209580" lon="6.9169650">
        <ele>552.3</ele>
        <time>2022-07-21T10:35:15Z</time>
      </trkpt>
      <trkpt lat="47.2209520" lon="6.9169080">
        <ele>552.3</ele>
        <time>2022-07-21T10:35:17Z</time>
      </trkpt>
      <trkpt lat="47.2209420" lon="6.9168660">
        <ele>552.4</ele>
        <time>2022-07-21T10:35:18Z</time>
      </trkpt>
      <trkpt lat="47.2209310" lon="6.9168280">
        <ele>552.4</ele>
        <time>2022-07-21T10:35:19Z</time>
      </trkpt>
      <trkpt lat="47.2209160" lon="6.9167870">
        <ele>552.5</ele>
        <time>2022-07-21T10:35:20Z</time>
      </trkpt>
      <trkpt lat="47.2208880" lon="6.9167460">
        <ele>552.5</ele>
        <time>2022-07-21T10:35:22Z</time>
      </trkpt>
      <trkpt lat="47.2208660" lon="6.9167170">
        <ele>552.6</ele>
        <time>2022-07-21T10:35:23Z</time>
      </trkpt>
      <trkpt lat="47.2208420" lon="6.9166850">
        <ele>552.6</ele>
        <time>2022-07-21T10:35:24Z</time>
      </trkpt>
      <trkpt lat="47.2207500" lon="6.9166010">
        <ele>552.6</ele>
        <time>2022-07-21T10:35:25Z</time>
      </trkpt>
      <trkpt lat="47.2207050" lon="6.9165420">
        <ele>552.5</ele>
        <time>2022-07-21T10:35:26Z</time>
      </trkpt>
      <trkpt lat="47.2206730" lon="6.9164940">
        <ele>552.5</ele>
        <time>2022-07-21T10:35:27Z</time>
      </trkpt>
      <trkpt lat="47.2206510" lon="6.9164610">
        <ele>552.4</ele>
        <time>2022-07-21T10:35:28Z</time>
      </trkpt>
      <trkpt lat="47.2206520" lon="6.9164500">
        <ele>552.4</ele>
        <time>2022-07-21T10:35:29Z</time>
      </trkpt>
      <trkpt lat="47.2206340" lon="6.9164150">
        <ele>552.4</ele>
        <time>2022-07-21T10:35:30Z</time>
      </trkpt>
      <trkpt lat="47.2206110" lon="6.9163810">
        <ele>552.4</ele>
        <time>2022-07-21T10:35:31Z</time>
      </trkpt>
      <trkpt lat="47.2205850" lon="6.9163470">
        <ele>552.4</ele>
        <time>2022-07-21T10:35:32Z</time>
      </trkpt>
      <trkpt lat="47.2205520" lon="6.9162990">
        <ele>552.3</ele>
        <time>2022-07-21T10:35:33Z</time>
      </trkpt>
      <trkpt lat="47.2205070" lon="6.9162470">
        <ele>552.3</ele>
        <time>2022-07-21T10:35:35Z</time>
      </trkpt>
      <trkpt lat="47.2204720" lon="6.9161970">
        <ele>552.3</ele>
        <time>2022-07-21T10:35:36Z</time>
      </trkpt>
      <trkpt lat="47.2204390" lon="6.9161400">
        <ele>552.3</ele>
        <time>2022-07-21T10:35:37Z</time>
      </trkpt>
      <trkpt lat="47.2204120" lon="6.9160860">
        <ele>552.2</ele>
        <time>2022-07-21T10:35:38Z</time>
      </trkpt>
      <trkpt lat="47.2203530" lon="6.9159950">
        <ele>552.2</ele>
        <time>2022-07-21T10:35:39Z</time>
      </trkpt>
      <trkpt lat="47.2203270" lon="6.9159410">
        <ele>552.2</ele>
        <time>2022-07-21T10:35:40Z</time>
      </trkpt>
      <trkpt lat="47.2203130" lon="6.9159020">
        <ele>552.1</ele>
        <time>2022-07-21T10:35:41Z</time>
      </trkpt>
      <trkpt lat="47.2202860" lon="6.9158650">
        <ele>552.1</ele>
        <time>2022-07-21T10:35:42Z</time>
      </trkpt>
      <trkpt lat="47.2202760" lon="6.9158420">
        <ele>552.1</ele>
        <time>2022-07-21T10:35:43Z</time>
      </trkpt>
      <trkpt lat="47.2202510" lon="6.9157840">
        <ele>552.1</ele>
        <time>2022-07-21T10:35:45Z</time>
      </trkpt>
      <trkpt lat="47.2202310" lon="6.9157240">
        <ele>552.1</ele>
        <time>2022-07-21T10:35:46Z</time>
      </trkpt>
      <trkpt lat="47.2202160" lon="6.9156750">
        <ele>552.1</ele>
        <time>2022-07-21T10:35:47Z</time>
      </trkpt>
      <trkpt lat="47.2201960" lon="6.9156210">
        <ele>552.1</ele>
        <time>2022-07-21T10:35:48Z</time>
      </trkpt>
      <trkpt lat="47.2201680" lon="6.9155720">
        <ele>552.1</ele>
        <time>2022-07-21T10:35:50Z</time>
      </trkpt>
      <trkpt lat="47.2201510" lon="6.9155310">
        <ele>552.1</ele>
        <time>2022-07-21T10:35:51Z</time>
      </trkpt>
      <trkpt lat="47.2201260" lon="6.9154780">
        <ele>552.1</ele>
        <time>2022-07-21T10:35:52Z</time>
      </trkpt>
      <trkpt lat="47.2201050" lon="6.9154240">
        <ele>552.1</ele>
        <time>2022-07-21T10:35:53Z</time>
      </trkpt>
      <trkpt lat="47.2200860" lon="6.9153740">
        <ele>552.1</ele>
        <time>2022-07-21T10:35:54Z</time>
      </trkpt>
      <trkpt lat="47.2200710" lon="6.9153300">
        <ele>552.2</ele>
        <time>2022-07-21T10:35:55Z</time>
      </trkpt>
      <trkpt lat="47.2200490" lon="6.9152540">
        <ele>552.3</ele>
        <time>2022-07-21T10:35:56Z</time>
      </trkpt>
      <trkpt lat="47.2200260" lon="6.9151780">
        <ele>552.4</ele>
        <time>2022-07-21T10:35:58Z</time>
      </trkpt>
      <trkpt lat="47.2200140" lon="6.9151190">
        <ele>552.5</ele>
        <time>2022-07-21T10:35:59Z</time>
      </trkpt>
      <trkpt lat="47.2200030" lon="6.9150690">
        <ele>552.6</ele>
        <time>2022-07-21T10:36:00Z</time>
      </trkpt>
      <trkpt lat="47.2199860" lon="6.9150000">
        <ele>552.7</ele>
        <time>2022-07-21T10:36:01Z</time>
      </trkpt>
      <trkpt lat="47.2199660" lon="6.9149220">
        <ele>552.9</ele>
        <time>2022-07-21T10:36:03Z</time>
      </trkpt>
      <trkpt lat="47.2199520" lon="6.9148600">
        <ele>553.1</ele>
        <time>2022-07-21T10:36:04Z</time>
      </trkpt>
      <trkpt lat="47.2199380" lon="6.9147830">
        <ele>553.3</ele>
        <time>2022-07-21T10:36:05Z</time>
      </trkpt>
      <trkpt lat="47.2199260" lon="6.9147310">
        <ele>553.5</ele>
        <time>2022-07-21T10:36:07Z</time>
      </trkpt>
      <trkpt lat="47.2199150" lon="6.9146900">
        <ele>553.6</ele>
        <time>2022-07-21T10:36:08Z</time>
      </trkpt>
      <trkpt lat="47.2199060" lon="6.9146470">
        <ele>553.8</ele>
        <time>2022-07-21T10:36:09Z</time>
      </trkpt>
      <trkpt lat="47.2199040" lon="6.9146360">
        <ele>553.8</ele>
        <time>2022-07-21T10:36:10Z</time>
      </trkpt>
      <trkpt lat="47.2198970" lon="6.9145880">
        <ele>554.0</ele>
        <time>2022-07-21T10:36:11Z</time>
      </trkpt>
      <trkpt lat="47.2198860" lon="6.9145300">
        <ele>554.2</ele>
        <time>2022-07-21T10:36:12Z</time>
      </trkpt>
      <trkpt lat="47.2198730" lon="6.9144680">
        <ele>554.3</ele>
        <time>2022-07-21T10:36:14Z</time>
      </trkpt>
      <trkpt lat="47.2198620" lon="6.9144140">
        <ele>554.4</ele>
        <time>2022-07-21T10:36:15Z</time>
      </trkpt>
      <trkpt lat="47.2198620" lon="6.9143420">
        <ele>554.6</ele>
        <time>2022-07-21T10:36:16Z</time>
      </trkpt>
      <trkpt lat="47.2198630" lon="6.9142790">
        <ele>554.6</ele>
        <time>2022-07-21T10:36:17Z</time>
      </trkpt>
      <trkpt lat="47.2198570" lon="6.9142150">
        <ele>554.7</ele>
        <time>2022-07-21T10:36:19Z</time>
      </trkpt>
      <trkpt lat="47.2198470" lon="6.9141400">
        <ele>554.7</ele>
        <time>2022-07-21T10:36:20Z</time>
      </trkpt>
      <trkpt lat="47.2198370" lon="6.9140600">
        <ele>554.8</ele>
        <time>2022-07-21T10:36:21Z</time>
      </trkpt>
      <trkpt lat="47.2198330" lon="6.9140030">
        <ele>554.8</ele>
        <time>2022-07-21T10:36:23Z</time>
      </trkpt>
      <trkpt lat="47.2198300" lon="6.9139420">
        <ele>554.9</ele>
        <time>2022-07-21T10:36:24Z</time>
      </trkpt>
      <trkpt lat="47.2198290" lon="6.9138940">
        <ele>554.9</ele>
        <time>2022-07-21T10:36:25Z</time>
      </trkpt>
      <trkpt lat="47.2198250" lon="6.9138500">
        <ele>554.9</ele>
        <time>2022-07-21T10:36:26Z</time>
      </trkpt>
      <trkpt lat="47.2198120" lon="6.9137920">
        <ele>554.9</ele>
        <time>2022-07-21T10:36:27Z</time>
      </trkpt>
      <trkpt lat="47.2198020" lon="6.9137350">
        <ele>554.9</ele>
        <time>2022-07-21T10:36:28Z</time>
      </trkpt>
      <trkpt lat="47.2197920" lon="6.9136760">
        <ele>554.9</ele>
        <time>2022-07-21T10:36:30Z</time>
      </trkpt>
      <trkpt lat="47.2197870" lon="6.9136190">
        <ele>555.0</ele>
        <time>2022-07-21T10:36:31Z</time>
      </trkpt>
      <trkpt lat="47.2197820" lon="6.9135610">
        <ele>555.0</ele>
        <time>2022-07-21T10:36:32Z</time>
      </trkpt>
      <trkpt lat="47.2197740" lon="6.9134950">
        <ele>555.0</ele>
        <time>2022-07-21T10:36:33Z</time>
      </trkpt>
      <trkpt lat="47.2197660" lon="6.9134490">
        <ele>555.0</ele>
        <time>2022-07-21T10:36:34Z</time>
      </trkpt>
      <trkpt lat="47.2197560" lon="6.9133990">
        <ele>555.0</ele>
        <time>2022-07-21T10:36:35Z</time>
      </trkpt>
      <trkpt lat="47.2197430" lon="6.9133240">
        <ele>555.0</ele>
        <time>2022-07-21T10:36:36Z</time>
      </trkpt>
      <trkpt lat="47.2197360" lon="6.9132720">
        <ele>555.1</ele>
        <time>2022-07-21T10:36:37Z</time>
      </trkpt>
      <trkpt lat="47.2197260" lon="6.9131870">
        <ele>555.1</ele>
        <time>2022-07-21T10:36:39Z</time>
      </trkpt>
      <trkpt lat="47.2197150" lon="6.9131410">
        <ele>555.1</ele>
        <time>2022-07-21T10:36:40Z</time>
      </trkpt>
      <trkpt lat="47.2197030" lon="6.9130900">
        <ele>555.0</ele>
        <time>2022-07-21T10:36:41Z</time>
      </trkpt>
      <trkpt lat="47.2196940" lon="6.9130420">
        <ele>555.0</ele>
        <time>2022-07-21T10:36:42Z</time>
      </trkpt>
      <trkpt lat="47.2196750" lon="6.9129850">
        <ele>554.9</ele>
        <time>2022-07-21T10:36:43Z</time>
      </trkpt>
      <trkpt lat="47.2196670" lon="6.9129640">
        <ele>554.9</ele>
        <time>2022-07-21T10:36:44Z</time>
      </trkpt>
      <trkpt lat="47.2196450" lon="6.9129150">
        <ele>554.8</ele>
        <time>2022-07-21T10:36:45Z</time>
      </trkpt>
      <trkpt lat="47.2196210" lon="6.9128650">
        <ele>554.7</ele>
        <time>2022-07-21T10:36:46Z</time>
      </trkpt>
      <trkpt lat="47.2195820" lon="6.9127940">
        <ele>554.7</ele>
        <time>2022-07-21T10:36:48Z</time>
      </trkpt>
      <trkpt lat="47.2195440" lon="6.9127280">
        <ele>554.6</ele>
        <time>2022-07-21T10:36:49Z</time>
      </trkpt>
      <trkpt lat="47.2195150" lon="6.9126760">
        <ele>554.6</ele>
        <time>2022-07-21T10:36:50Z</time>
      </trkpt>
      <trkpt lat="47.2194890" lon="6.9126260">
        <ele>554.6</ele>
        <time>2022-07-21T10:36:51Z</time>
      </trkpt>
      <trkpt lat="47.2194610" lon="6.9125760">
        <ele>554.6</ele>
        <time>2022-07-21T10:36:52Z</time>
      </trkpt>
      <trkpt lat="47.2194340" lon="6.9125280">
        <ele>554.7</ele>
        <time>2022-07-21T10:36:53Z</time>
      </trkpt>
      <trkpt lat="47.2194130" lon="6.9124850">
        <ele>554.7</ele>
        <time>2022-07-21T10:36:55Z</time>
      </trkpt>
      <trkpt lat="47.2193950" lon="6.9124340">
        <ele>554.7</ele>
        <time>2022-07-21T10:36:56Z</time>
      </trkpt>
      <trkpt lat="47.2193690" lon="6.9123510">
        <ele>554.6</ele>
        <time>2022-07-21T10:36:57Z</time>
      </trkpt>
      <trkpt lat="47.2193500" lon="6.9122830">
        <ele>554.6</ele>
        <time>2022-07-21T10:36:58Z</time>
      </trkpt>
      <trkpt lat="47.2193270" lon="6.9122140">
        <ele>554.4</ele>
        <time>2022-07-21T10:37:00Z</time>
      </trkpt>
      <trkpt lat="47.2192760" lon="6.9121000">
        <ele>554.1</ele>
        <time>2022-07-21T10:37:01Z</time>
      </trkpt>
      <trkpt lat="47.2192430" lon="6.9120100">
        <ele>553.9</ele>
        <time>2022-07-21T10:37:02Z</time>
      </trkpt>
      <trkpt lat="47.2192260" lon="6.9119430">
        <ele>553.7</ele>
        <time>2022-07-21T10:37:03Z</time>
      </trkpt>
      <trkpt lat="47.2191980" lon="6.9118530">
        <ele>553.5</ele>
        <time>2022-07-21T10:37:04Z</time>
      </trkpt>
      <trkpt lat="47.2191830" lon="6.9117630">
        <ele>553.4</ele>
        <time>2022-07-21T10:37:05Z</time>
      </trkpt>
      <trkpt lat="47.2191650" lon="6.9116990">
        <ele>553.3</ele>
        <time>2022-07-21T10:37:06Z</time>
      </trkpt>
      <trkpt lat="47.2191420" lon="6.9116260">
        <ele>553.3</ele>
        <time>2022-07-21T10:37:07Z</time>
      </trkpt>
      <trkpt lat="47.2191070" lon="6.9115520">
        <ele>553.2</ele>
        <time>2022-07-21T10:37:09Z</time>
      </trkpt>
      <trkpt lat="47.2190840" lon="6.9114930">
        <ele>553.3</ele>
        <time>2022-07-21T10:37:10Z</time>
      </trkpt>
      <trkpt lat="47.2190740" lon="6.9114270">
        <ele>553.4</ele>
        <time>2022-07-21T10:37:11Z</time>
      </trkpt>
      <trkpt lat="47.2190660" lon="6.9113730">
        <ele>553.4</ele>
        <time>2022-07-21T10:37:12Z</time>
      </trkpt>
      <trkpt lat="47.2190510" lon="6.9113280">
        <ele>553.5</ele>
        <time>2022-07-21T10:37:13Z</time>
      </trkpt>
      <trkpt lat="47.2190330" lon="6.9112820">
        <ele>553.5</ele>
        <time>2022-07-21T10:37:14Z</time>
      </trkpt>
      <trkpt lat="47.2190260" lon="6.9112680">
        <ele>553.5</ele>
        <time>2022-07-21T10:37:15Z</time>
      </trkpt>
      <trkpt lat="47.2190150" lon="6.9112210">
        <ele>553.6</ele>
        <time>2022-07-21T10:37:16Z</time>
      </trkpt>
      <trkpt lat="47.2190110" lon="6.9112030">
        <ele>553.6</ele>
        <time>2022-07-21T10:37:17Z</time>
      </trkpt>
      <trkpt lat="47.2189920" lon="6.9111600">
        <ele>553.6</ele>
        <time>2022-07-21T10:37:18Z</time>
      </trkpt>
      <trkpt lat="47.2189760" lon="6.9111200">
        <ele>553.7</ele>
        <time>2022-07-21T10:37:19Z</time>
      </trkpt>
      <trkpt lat="47.2189320" lon="6.9110080">
        <ele>553.7</ele>
        <time>2022-07-21T10:37:21Z</time>
      </trkpt>
      <trkpt lat="47.2189070" lon="6.9109890">
        <ele>553.6</ele>
        <time>2022-07-21T10:37:22Z</time>
      </trkpt>
      <trkpt lat="47.2188970" lon="6.9109790">
        <ele>553.6</ele>
        <time>2022-07-21T10:37:23Z</time>
      </trkpt>
      <trkpt lat="47.2188680" lon="6.9109220">
        <ele>553.6</ele>
        <time>2022-07-21T10:37:24Z</time>
      </trkpt>
      <trkpt lat="47.2188360" lon="6.9108310">
        <ele>553.5</ele>
        <time>2022-07-21T10:37:26Z</time>
      </trkpt>
      <trkpt lat="47.2188290" lon="6.9107860">
        <ele>553.5</ele>
        <time>2022-07-21T10:37:27Z</time>
      </trkpt>
      <trkpt lat="47.2188120" lon="6.9107170">
        <ele>553.5</ele>
        <time>2022-07-21T10:37:28Z</time>
      </trkpt>
      <trkpt lat="47.2188010" lon="6.9106470">
        <ele>553.4</ele>
        <time>2022-07-21T10:37:30Z</time>
      </trkpt>
      <trkpt lat="47.2187860" lon="6.9105920">
        <ele>553.4</ele>
        <time>2022-07-21T10:37:31Z</time>
      </trkpt>
      <trkpt lat="47.2187660" lon="6.9105340">
        <ele>553.4</ele>
        <time>2022-07-21T10:37:32Z</time>
      </trkpt>
      <trkpt lat="47.2187490" lon="6.9104730">
        <ele>553.3</ele>
        <time>2022-07-21T10:37:33Z</time>
      </trkpt>
      <trkpt lat="47.2187320" lon="6.9104120">
        <ele>553.3</ele>
        <time>2022-07-21T10:37:34Z</time>
      </trkpt>
      <trkpt lat="47.2187170" lon="6.9103570">
        <ele>553.3</ele>
        <time>2022-07-21T10:37:35Z</time>
      </trkpt>
      <trkpt lat="47.2187030" lon="6.9103050">
        <ele>553.3</ele>
        <time>2022-07-21T10:37:36Z</time>
      </trkpt>
      <trkpt lat="47.2186860" lon="6.9102560">
        <ele>553.3</ele>
        <time>2022-07-21T10:37:37Z</time>
      </trkpt>
      <trkpt lat="47.2186750" lon="6.9102170">
        <ele>553.4</ele>
        <time>2022-07-21T10:37:38Z</time>
      </trkpt>
      <trkpt lat="47.2186600" lon="6.9101680">
        <ele>553.4</ele>
        <time>2022-07-21T10:37:39Z</time>
      </trkpt>
      <trkpt lat="47.2186540" lon="6.9101490">
        <ele>553.4</ele>
        <time>2022-07-21T10:37:40Z</time>
      </trkpt>
      <trkpt lat="47.2186420" lon="6.9101080">
        <ele>553.4</ele>
        <time>2022-07-21T10:37:42Z</time>
      </trkpt>
      <trkpt lat="47.2186250" lon="6.9100690">
        <ele>553.5</ele>
        <time>2022-07-21T10:37:43Z</time>
      </trkpt>
      <trkpt lat="47.2186090" lon="6.9100160">
        <ele>553.6</ele>
        <time>2022-07-21T10:37:44Z</time>
      </trkpt>
      <trkpt lat="47.2185950" lon="6.9099700">
        <ele>553.6</ele>
        <time>2022-07-21T10:37:45Z</time>
      </trkpt>
      <trkpt lat="47.2185830" lon="6.9099220">
        <ele>553.7</ele>
        <time>2022-07-21T10:37:46Z</time>
      </trkpt>
      <trkpt lat="47.2185730" lon="6.9098650">
        <ele>553.8</ele>
        <time>2022-07-21T10:37:47Z</time>
      </trkpt>
      <trkpt lat="47.2185700" lon="6.9098450">
        <ele>553.9</ele>
        <time>2022-07-21T10:37:48Z</time>
      </trkpt>
      <trkpt lat="47.2185620" lon="6.9097870">
        <ele>554.0</ele>
        <time>2022-07-21T10:37:49Z</time>
      </trkpt>
      <trkpt lat="47.2185440" lon="6.9097190">
        <ele>554.1</ele>
        <time>2022-07-21T10:37:50Z</time>
      </trkpt>
      <trkpt lat="47.2185240" lon="6.9096550">
        <ele>554.2</ele>
        <time>2022-07-21T10:37:51Z</time>
      </trkpt>
      <trkpt lat="47.2185000" lon="6.9095800">
        <ele>554.4</ele>
        <time>2022-07-21T10:37:53Z</time>
      </trkpt>
      <trkpt lat="47.2184870" lon="6.9095310">
        <ele>554.4</ele>
        <time>2022-07-21T10:37:54Z</time>
      </trkpt>
      <trkpt lat="47.2184680" lon="6.9094670">
        <ele>554.6</ele>
        <time>2022-07-21T10:37:55Z</time>
      </trkpt>
      <trkpt lat="47.2184460" lon="6.9093990">
        <ele>554.7</ele>
        <time>2022-07-21T10:37:57Z</time>
      </trkpt>
      <trkpt lat="47.2184350" lon="6.9093520">
        <ele>554.8</ele>
        <time>2022-07-21T10:37:58Z</time>
      </trkpt>
      <trkpt lat="47.2184270" lon="6.9093130">
        <ele>554.9</ele>
        <time>2022-07-21T10:37:59Z</time>
      </trkpt>
      <trkpt lat="47.2184130" lon="6.9092550">
        <ele>555.0</ele>
        <time>2022-07-21T10:38:00Z</time>
      </trkpt>
      <trkpt lat="47.2183960" lon="6.9091950">
        <ele>555.2</ele>
        <time>2022-07-21T10:38:02Z</time>
      </trkpt>
      <trkpt lat="47.2183850" lon="6.9091330">
        <ele>555.3</ele>
        <time>2022-07-21T10:38:03Z</time>
      </trkpt>
      <trkpt lat="47.2183690" lon="6.9090800">
        <ele>555.4</ele>
        <time>2022-07-21T10:38:04Z</time>
      </trkpt>
      <trkpt lat="47.2183510" lon="6.9090250">
        <ele>555.5</ele>
        <time>2022-07-21T10:38:05Z</time>
      </trkpt>
      <trkpt lat="47.2183230" lon="6.9089500">
        <ele>555.6</ele>
        <time>2022-07-21T10:38:06Z</time>
      </trkpt>
      <trkpt lat="47.2182960" lon="6.9088870">
        <ele>555.7</ele>
        <time>2022-07-21T10:38:08Z</time>
      </trkpt>
      <trkpt lat="47.2182780" lon="6.9088380">
        <ele>555.8</ele>
        <time>2022-07-21T10:38:09Z</time>
      </trkpt>
      <trkpt lat="47.2182630" lon="6.9087820">
        <ele>555.8</ele>
        <time>2022-07-21T10:38:10Z</time>
      </trkpt>
      <trkpt lat="47.2182510" lon="6.9087350">
        <ele>555.9</ele>
        <time>2022-07-21T10:38:11Z</time>
      </trkpt>
      <trkpt lat="47.2182350" lon="6.9086890">
        <ele>555.9</ele>
        <time>2022-07-21T10:38:13Z</time>
      </trkpt>
      <trkpt lat="47.2182170" lon="6.9086510">
        <ele>555.9</ele>
        <time>2022-07-21T10:38:14Z</time>
      </trkpt>
      <trkpt lat="47.2181950" lon="6.9085920">
        <ele>556.0</ele>
        <time>2022-07-21T10:38:15Z</time>
      </trkpt>
      <trkpt lat="47.2181680" lon="6.9085250">
        <ele>556.0</ele>
        <time>2022-07-21T10:38:17Z</time>
      </trkpt>
      <trkpt lat="47.2181470" lon="6.9084800">
        <ele>556.0</ele>
        <time>2022-07-21T10:38:18Z</time>
      </trkpt>
      <trkpt lat="47.2181270" lon="6.9084470">
        <ele>556.0</ele>
        <time>2022-07-21T10:38:19Z</time>
      </trkpt>
      <trkpt lat="47.2181000" lon="6.9083930">
        <ele>556.0</ele>
        <time>2022-07-21T10:38:20Z</time>
      </trkpt>
      <trkpt lat="47.2180900" lon="6.9083660">
        <ele>556.0</ele>
        <time>2022-07-21T10:38:21Z</time>
      </trkpt>
      <trkpt lat="47.2180820" lon="6.9083180">
        <ele>556.0</ele>
        <time>2022-07-21T10:38:23Z</time>
      </trkpt>
      <trkpt lat="47.2180700" lon="6.9082670">
        <ele>556.0</ele>
        <time>2022-07-21T10:38:24Z</time>
      </trkpt>
      <trkpt lat="47.2180520" lon="6.9082260">
        <ele>556.0</ele>
        <time>2022-07-21T10:38:25Z</time>
      </trkpt>
      <trkpt lat="47.2180330" lon="6.9081910">
        <ele>556.0</ele>
        <time>2022-07-21T10:38:26Z</time>
      </trkpt>
      <trkpt lat="47.2180110" lon="6.9081590">
        <ele>556.0</ele>
        <time>2022-07-21T10:38:27Z</time>
      </trkpt>
      <trkpt lat="47.2179900" lon="6.9081210">
        <ele>555.9</ele>
        <time>2022-07-21T10:38:28Z</time>
      </trkpt>
      <trkpt lat="47.2179640" lon="6.9080760">
        <ele>555.9</ele>
        <time>2022-07-21T10:38:29Z</time>
      </trkpt>
      <trkpt lat="47.2179250" lon="6.9080140">
        <ele>555.9</ele>
        <time>2022-07-21T10:38:30Z</time>
      </trkpt>
      <trkpt lat="47.2179000" lon="6.9079730">
        <ele>555.8</ele>
        <time>2022-07-21T10:38:31Z</time>
      </trkpt>
      <trkpt lat="47.2178700" lon="6.9079250">
        <ele>555.8</ele>
        <time>2022-07-21T10:38:33Z</time>
      </trkpt>
      <trkpt lat="47.2178470" lon="6.9078900">
        <ele>555.7</ele>
        <time>2022-07-21T10:38:34Z</time>
      </trkpt>
      <trkpt lat="47.2177990" lon="6.9078210">
        <ele>555.6</ele>
        <time>2022-07-21T10:38:36Z</time>
      </trkpt>
      <trkpt lat="47.2177680" lon="6.9077870">
        <ele>555.6</ele>
        <time>2022-07-21T10:38:37Z</time>
      </trkpt>
      <trkpt lat="47.2177070" lon="6.9077210">
        <ele>555.5</ele>
        <time>2022-07-21T10:38:39Z</time>
      </trkpt>
      <trkpt lat="47.2176740" lon="6.9076870">
        <ele>555.4</ele>
        <time>2022-07-21T10:38:40Z</time>
      </trkpt>
      <trkpt lat="47.2176040" lon="6.9076100">
        <ele>555.3</ele>
        <time>2022-07-21T10:38:41Z</time>
      </trkpt>
      <trkpt lat="47.2175670" lon="6.9075730">
        <ele>555.3</ele>
        <time>2022-07-21T10:38:42Z</time>
      </trkpt>
      <trkpt lat="47.2175260" lon="6.9075310">
        <ele>555.3</ele>
        <time>2022-07-21T10:38:43Z</time>
      </trkpt>
      <trkpt lat="47.2174920" lon="6.9075200">
        <ele>555.3</ele>
        <time>2022-07-21T10:38:44Z</time>
      </trkpt>
      <trkpt lat="47.2174730" lon="6.9074790">
        <ele>555.3</ele>
        <time>2022-07-21T10:38:46Z</time>
      </trkpt>
      <trkpt lat="47.2174500" lon="6.9074520">
        <ele>555.4</ele>
        <time>2022-07-21T10:38:47Z</time>
      </trkpt>
      <trkpt lat="47.2174300" lon="6.9074050">
        <ele>555.5</ele>
        <time>2022-07-21T10:38:48Z</time>
      </trkpt>
      <trkpt lat="47.2174240" lon="6.9073830">
        <ele>555.5</ele>
        <time>2022-07-21T10:38:49Z</time>
      </trkpt>
      <trkpt lat="47.2174050" lon="6.9073340">
        <ele>555.6</ele>
        <time>2022-07-21T10:38:50Z</time>
      </trkpt>
      <trkpt lat="47.2173970" lon="6.9073190">
        <ele>555.7</ele>
        <time>2022-07-21T10:38:51Z</time>
      </trkpt>
      <trkpt lat="47.2173770" lon="6.9072660">
        <ele>555.8</ele>
        <time>2022-07-21T10:38:53Z</time>
      </trkpt>
      <trkpt lat="47.2173410" lon="6.9072170">
        <ele>555.9</ele>
        <time>2022-07-21T10:38:54Z</time>
      </trkpt>
      <trkpt lat="47.2173100" lon="6.9071830">
        <ele>556.0</ele>
        <time>2022-07-21T10:38:56Z</time>
      </trkpt>
      <trkpt lat="47.2172820" lon="6.9071560">
        <ele>556.1</ele>
        <time>2022-07-21T10:38:57Z</time>
      </trkpt>
      <trkpt lat="47.2172560" lon="6.9071300">
        <ele>556.1</ele>
        <time>2022-07-21T10:38:58Z</time>
      </trkpt>
      <trkpt lat="47.2172250" lon="6.9070960">
        <ele>556.2</ele>
        <time>2022-07-21T10:38:59Z</time>
      </trkpt>
      <trkpt lat="47.2172130" lon="6.9070850">
        <ele>556.2</ele>
        <time>2022-07-21T10:39:00Z</time>
      </trkpt>
      <trkpt lat="47.2171650" lon="6.9070490">
        <ele>556.2</ele>
        <time>2022-07-21T10:39:01Z</time>
      </trkpt>
      <trkpt lat="47.2171290" lon="6.9070190">
        <ele>556.2</ele>
        <time>2022-07-21T10:39:02Z</time>
      </trkpt>
      <trkpt lat="47.2170910" lon="6.9069880">
        <ele>556.1</ele>
        <time>2022-07-21T10:39:03Z</time>
      </trkpt>
      <trkpt lat="47.2170280" lon="6.9069390">
        <ele>556.0</ele>
        <time>2022-07-21T10:39:05Z</time>
      </trkpt>
      <trkpt lat="47.2169810" lon="6.9069180">
        <ele>556.0</ele>
        <time>2022-07-21T10:39:07Z</time>
      </trkpt>
      <trkpt lat="47.2168610" lon="6.9068800">
        <ele>555.6</ele>
        <time>2022-07-21T10:39:08Z</time>
      </trkpt>
      <trkpt lat="47.2167940" lon="6.9068680">
        <ele>555.3</ele>
        <time>2022-07-21T10:39:09Z</time>
      </trkpt>
      <trkpt lat="47.2167270" lon="6.9068650">
        <ele>555.0</ele>
        <time>2022-07-21T10:39:10Z</time>
      </trkpt>
      <trkpt lat="47.2166600" lon="6.9068560">
        <ele>554.7</ele>
        <time>2022-07-21T10:39:11Z</time>
      </trkpt>
      <trkpt lat="47.2166020" lon="6.9068310">
        <ele>554.5</ele>
        <time>2022-07-21T10:39:12Z</time>
      </trkpt>
      <trkpt lat="47.2165570" lon="6.9067940">
        <ele>554.4</ele>
        <time>2022-07-21T10:39:13Z</time>
      </trkpt>
      <trkpt lat="47.2165250" lon="6.9067780">
        <ele>554.4</ele>
        <time>2022-07-21T10:39:14Z</time>
      </trkpt>
      <trkpt lat="47.2165130" lon="6.9067740">
        <ele>554.4</ele>
        <time>2022-07-21T10:39:15Z</time>
      </trkpt>
      <trkpt lat="47.2164840" lon="6.9067420">
        <ele>554.4</ele>
        <time>2022-07-21T10:39:17Z</time>
      </trkpt>
      <trkpt lat="47.2164550" lon="6.9067120">
        <ele>554.5</ele>
        <time>2022-07-21T10:39:18Z</time>
      </trkpt>
      <trkpt lat="47.2164290" lon="6.9066890">
        <ele>554.5</ele>
        <time>2022-07-21T10:39:19Z</time>
      </trkpt>
      <trkpt lat="47.2163910" lon="6.9066540">
        <ele>554.6</ele>
        <time>2022-07-21T10:39:20Z</time>
      </trkpt>
      <trkpt lat="47.2163540" lon="6.9066180">
        <ele>554.8</ele>
        <time>2022-07-21T10:39:22Z</time>
      </trkpt>
      <trkpt lat="47.2163260" lon="6.9066030">
        <ele>554.9</ele>
        <time>2022-07-21T10:39:23Z</time>
      </trkpt>
      <trkpt lat="47.2162940" lon="6.9065730">
        <ele>555.0</ele>
        <time>2022-07-21T10:39:24Z</time>
      </trkpt>
      <trkpt lat="47.2162860" lon="6.9065620">
        <ele>555.1</ele>
        <time>2022-07-21T10:39:25Z</time>
      </trkpt>
      <trkpt lat="47.2162500" lon="6.9065120">
        <ele>555.3</ele>
        <time>2022-07-21T10:39:27Z</time>
      </trkpt>
      <trkpt lat="47.2162270" lon="6.9064830">
        <ele>555.4</ele>
        <time>2022-07-21T10:39:28Z</time>
      </trkpt>
      <trkpt lat="47.2161950" lon="6.9064460">
        <ele>555.5</ele>
        <time>2022-07-21T10:39:29Z</time>
      </trkpt>
      <trkpt lat="47.2161840" lon="6.9064340">
        <ele>555.5</ele>
        <time>2022-07-21T10:39:30Z</time>
      </trkpt>
      <trkpt lat="47.2161550" lon="6.9063990">
        <ele>555.7</ele>
        <time>2022-07-21T10:39:31Z</time>
      </trkpt>
      <trkpt lat="47.2161170" lon="6.9063650">
        <ele>555.8</ele>
        <time>2022-07-21T10:39:33Z</time>
      </trkpt>
      <trkpt lat="47.2160910" lon="6.9063540">
        <ele>555.8</ele>
        <time>2022-07-21T10:39:34Z</time>
      </trkpt>
      <trkpt lat="47.2160590" lon="6.9063340">
        <ele>555.9</ele>
        <time>2022-07-21T10:39:35Z</time>
      </trkpt>
      <trkpt lat="47.2160300" lon="6.9063130">
        <ele>556.0</ele>
        <time>2022-07-21T10:39:36Z</time>
      </trkpt>
      <trkpt lat="47.2159980" lon="6.9062810">
        <ele>556.1</ele>
        <time>2022-07-21T10:39:38Z</time>
      </trkpt>
      <trkpt lat="47.2159690" lon="6.9062570">
        <ele>556.2</ele>
        <time>2022-07-21T10:39:39Z</time>
      </trkpt>
      <trkpt lat="47.2159400" lon="6.9062390">
        <ele>556.3</ele>
        <time>2022-07-21T10:39:40Z</time>
      </trkpt>
      <trkpt lat="47.2158930" lon="6.9062120">
        <ele>556.4</ele>
        <time>2022-07-21T10:39:42Z</time>
      </trkpt>
      <trkpt lat="47.2158650" lon="6.9061950">
        <ele>556.5</ele>
        <time>2022-07-21T10:39:43Z</time>
      </trkpt>
      <trkpt lat="47.2157760" lon="6.9061620">
        <ele>556.6</ele>
        <time>2022-07-21T10:39:44Z</time>
      </trkpt>
      <trkpt lat="47.2157440" lon="6.9061980">
        <ele>556.6</ele>
        <time>2022-07-21T10:39:45Z</time>
      </trkpt>
      <trkpt lat="47.2157090" lon="6.9062000">
        <ele>556.6</ele>
        <time>2022-07-21T10:39:46Z</time>
      </trkpt>
      <trkpt lat="47.2156590" lon="6.9062000">
        <ele>556.5</ele>
        <time>2022-07-21T10:39:48Z</time>
      </trkpt>
      <trkpt lat="47.2156290" lon="6.9061820">
        <ele>556.5</ele>
        <time>2022-07-21T10:39:49Z</time>
      </trkpt>
      <trkpt lat="47.2156030" lon="6.9061570">
        <ele>556.5</ele>
        <time>2022-07-21T10:39:50Z</time>
      </trkpt>
      <trkpt lat="47.2155670" lon="6.9061330">
        <ele>556.5</ele>
        <time>2022-07-21T10:39:51Z</time>
      </trkpt>
      <trkpt lat="47.2155400" lon="6.9061140">
        <ele>556.5</ele>
        <time>2022-07-21T10:39:53Z</time>
      </trkpt>
      <trkpt lat="47.2155030" lon="6.9060820">
        <ele>556.5</ele>
        <time>2022-07-21T10:39:54Z</time>
      </trkpt>
      <trkpt lat="47.2154740" lon="6.9060660">
        <ele>556.5</ele>
        <time>2022-07-21T10:39:55Z</time>
      </trkpt>
      <trkpt lat="47.2154410" lon="6.9060460">
        <ele>556.6</ele>
        <time>2022-07-21T10:39:57Z</time>
      </trkpt>
      <trkpt lat="47.2153840" lon="6.9060150">
        <ele>556.6</ele>
        <time>2022-07-21T10:39:58Z</time>
      </trkpt>
      <trkpt lat="47.2153370" lon="6.9059770">
        <ele>556.6</ele>
        <time>2022-07-21T10:40:00Z</time>
      </trkpt>
      <trkpt lat="47.2153040" lon="6.9059420">
        <ele>556.7</ele>
        <time>2022-07-21T10:40:01Z</time>
      </trkpt>
      <trkpt lat="47.2152650" lon="6.9059000">
        <ele>556.7</ele>
        <time>2022-07-21T10:40:02Z</time>
      </trkpt>
      <trkpt lat="47.2152320" lon="6.9058700">
        <ele>556.8</ele>
        <time>2022-07-21T10:40:03Z</time>
      </trkpt>
      <trkpt lat="47.2151970" lon="6.9058390">
        <ele>556.9</ele>
        <time>2022-07-21T10:40:04Z</time>
      </trkpt>
      <trkpt lat="47.2151790" lon="6.9058200">
        <ele>557.0</ele>
        <time>2022-07-21T10:40:05Z</time>
      </trkpt>
      <trkpt lat="47.2151650" lon="6.9058030">
        <ele>557.0</ele>
        <time>2022-07-21T10:40:07Z</time>
      </trkpt>
      <trkpt lat="47.2151440" lon="6.9057640">
        <ele>557.2</ele>
        <time>2022-07-21T10:40:08Z</time>
      </trkpt>
      <trkpt lat="47.2151170" lon="6.9057240">
        <ele>557.3</ele>
        <time>2022-07-21T10:40:09Z</time>
      </trkpt>
      <trkpt lat="47.2150900" lon="6.9056800">
        <ele>557.4</ele>
        <time>2022-07-21T10:40:11Z</time>
      </trkpt>
      <trkpt lat="47.2150650" lon="6.9056530">
        <ele>557.5</ele>
        <time>2022-07-21T10:40:12Z</time>
      </trkpt>
      <trkpt lat="47.2150390" lon="6.9056210">
        <ele>557.6</ele>
        <time>2022-07-21T10:40:13Z</time>
      </trkpt>
      <trkpt lat="47.2150300" lon="6.9056070">
        <ele>557.7</ele>
        <time>2022-07-21T10:40:14Z</time>
      </trkpt>
      <trkpt lat="47.2149970" lon="6.9055590">
        <ele>557.9</ele>
        <time>2022-07-21T10:40:16Z</time>
      </trkpt>
      <trkpt lat="47.2149840" lon="6.9055410">
        <ele>557.9</ele>
        <time>2022-07-21T10:40:17Z</time>
      </trkpt>
      <trkpt lat="47.2149720" lon="6.9055240">
        <ele>558.0</ele>
        <time>2022-07-21T10:40:18Z</time>
      </trkpt>
      <trkpt lat="47.2149490" lon="6.9054950">
        <ele>558.1</ele>
        <time>2022-07-21T10:40:19Z</time>
      </trkpt>
      <trkpt lat="47.2149390" lon="6.9054820">
        <ele>558.1</ele>
        <time>2022-07-21T10:40:20Z</time>
      </trkpt>
      <trkpt lat="47.2149110" lon="6.9054500">
        <ele>558.3</ele>
        <time>2022-07-21T10:40:21Z</time>
      </trkpt>
      <trkpt lat="47.2149030" lon="6.9054410">
        <ele>558.3</ele>
        <time>2022-07-21T10:40:22Z</time>
      </trkpt>
      <trkpt lat="47.2148780" lon="6.9054040">
        <ele>558.4</ele>
        <time>2022-07-21T10:40:23Z</time>
      </trkpt>
      <trkpt lat="47.2148660" lon="6.9053870">
        <ele>558.5</ele>
        <time>2022-07-21T10:40:24Z</time>
      </trkpt>
      <trkpt lat="47.2148370" lon="6.9053440">
        <ele>558.7</ele>
        <time>2022-07-21T10:40:25Z</time>
      </trkpt>
      <trkpt lat="47.2148260" lon="6.9053300">
        <ele>558.7</ele>
        <time>2022-07-21T10:40:26Z</time>
      </trkpt>
      <trkpt lat="47.2147920" lon="6.9052900">
        <ele>558.9</ele>
        <time>2022-07-21T10:40:28Z</time>
      </trkpt>
      <trkpt lat="47.2147610" lon="6.9052560">
        <ele>559.0</ele>
        <time>2022-07-21T10:40:30Z</time>
      </trkpt>
      <trkpt lat="47.2147370" lon="6.9052290">
        <ele>559.1</ele>
        <time>2022-07-21T10:40:31Z</time>
      </trkpt>
      <trkpt lat="47.2147140" lon="6.9052010">
        <ele>559.2</ele>
        <time>2022-07-21T10:40:32Z</time>
      </trkpt>
      <trkpt lat="47.2146890" lon="6.9051690">
        <ele>559.3</ele>
        <time>2022-07-21T10:40:33Z</time>
      </trkpt>
      <trkpt lat="47.2146680" lon="6.9051310">
        <ele>559.4</ele>
        <time>2022-07-21T10:40:34Z</time>
      </trkpt>
      <trkpt lat="47.2146500" lon="6.9051040">
        <ele>559.5</ele>
        <time>2022-07-21T10:40:35Z</time>
      </trkpt>
      <trkpt lat="47.2146230" lon="6.9050630">
        <ele>559.5</ele>
        <time>2022-07-21T10:40:37Z</time>
      </trkpt>
      <trkpt lat="47.2146020" lon="6.9050300">
        <ele>559.6</ele>
        <time>2022-07-21T10:40:38Z</time>
      </trkpt>
      <trkpt lat="47.2145600" lon="6.9049800">
        <ele>559.7</ele>
        <time>2022-07-21T10:40:39Z</time>
      </trkpt>
      <trkpt lat="47.2145350" lon="6.9049500">
        <ele>559.7</ele>
        <time>2022-07-21T10:40:41Z</time>
      </trkpt>
      <trkpt lat="47.2145010" lon="6.9049100">
        <ele>559.7</ele>
        <time>2022-07-21T10:40:42Z</time>
      </trkpt>
      <trkpt lat="47.2144740" lon="6.9048810">
        <ele>559.7</ele>
        <time>2022-07-21T10:40:43Z</time>
      </trkpt>
      <trkpt lat="47.2144400" lon="6.9048460">
        <ele>559.8</ele>
        <time>2022-07-21T10:40:44Z</time>
      </trkpt>
      <trkpt lat="47.2144180" lon="6.9048020">
        <ele>559.8</ele>
        <time>2022-07-21T10:40:45Z</time>
      </trkpt>
      <trkpt lat="47.2144110" lon="6.9047860">
        <ele>559.8</ele>
        <time>2022-07-21T10:40:46Z</time>
      </trkpt>
      <trkpt lat="47.2143940" lon="6.9047510">
        <ele>559.8</ele>
        <time>2022-07-21T10:40:48Z</time>
      </trkpt>
      <trkpt lat="47.2143870" lon="6.9047350">
        <ele>559.8</ele>
        <time>2022-07-21T10:40:49Z</time>
      </trkpt>
      <trkpt lat="47.2143700" lon="6.9046930">
        <ele>559.9</ele>
        <time>2022-07-21T10:40:50Z</time>
      </trkpt>
      <trkpt lat="47.2143650" lon="6.9046810">
        <ele>560.0</ele>
        <time>2022-07-21T10:40:51Z</time>
      </trkpt>
      <trkpt lat="47.2143550" lon="6.9046580">
        <ele>560.1</ele>
        <time>2022-07-21T10:40:53Z</time>
      </trkpt>
      <trkpt lat="47.2143470" lon="6.9046400">
        <ele>560.2</ele>
        <time>2022-07-21T10:40:54Z</time>
      </trkpt>
      <trkpt lat="47.2143430" lon="6.9046170">
        <ele>560.3</ele>
        <time>2022-07-21T10:40:56Z</time>
      </trkpt>
      <trkpt lat="47.2143410" lon="6.9045970">
        <ele>560.3</ele>
        <time>2022-07-21T10:40:57Z</time>
      </trkpt>
      <trkpt lat="47.2143380" lon="6.9045730">
        <ele>560.5</ele>
        <time>2022-07-21T10:40:58Z</time>
      </trkpt>
      <trkpt lat="47.2143350" lon="6.9045500">
        <ele>560.6</ele>
        <time>2022-07-21T10:40:59Z</time>
      </trkpt>
      <trkpt lat="47.2143260" lon="6.9045100">
        <ele>560.9</ele>
        <time>2022-07-21T10:41:00Z</time>
      </trkpt>
      <trkpt lat="47.2143180" lon="6.9044710">
        <ele>561.2</ele>
        <time>2022-07-21T10:41:01Z</time>
      </trkpt>
      <trkpt lat="47.2143120" lon="6.9044310">
        <ele>561.6</ele>
        <time>2022-07-21T10:41:03Z</time>
      </trkpt>
      <trkpt lat="47.2143110" lon="6.9044190">
        <ele>561.7</ele>
        <time>2022-07-21T10:41:04Z</time>
      </trkpt>
      <trkpt lat="47.2143080" lon="6.9043950">
        <ele>561.9</ele>
        <time>2022-07-21T10:41:05Z</time>
      </trkpt>
      <trkpt lat="47.2143060" lon="6.9043670">
        <ele>562.3</ele>
        <time>2022-07-21T10:41:06Z</time>
      </trkpt>
      <trkpt lat="47.2143030" lon="6.9043380">
        <ele>562.6</ele>
        <time>2022-07-21T10:41:08Z</time>
      </trkpt>
      <trkpt lat="47.2142980" lon="6.9043190">
        <ele>562.9</ele>
        <time>2022-07-21T10:41:09Z</time>
      </trkpt>
      <trkpt lat="47.2142710" lon="6.9042880">
        <ele>563.5</ele>
        <time>2022-07-21T10:41:10Z</time>
      </trkpt>
      <trkpt lat="47.2142600" lon="6.9042770">
        <ele>563.8</ele>
        <time>2022-07-21T10:41:11Z</time>
      </trkpt>
      <trkpt lat="47.2142500" lon="6.9042550">
        <ele>564.1</ele>
        <time>2022-07-21T10:41:12Z</time>
      </trkpt>
      <trkpt lat="47.2142410" lon="6.9042300">
        <ele>564.5</ele>
        <time>2022-07-21T10:41:14Z</time>
      </trkpt>
      <trkpt lat="47.2142330" lon="6.9041960">
        <ele>565.0</ele>
        <time>2022-07-21T10:41:16Z</time>
      </trkpt>
      <trkpt lat="47.2142270" lon="6.9041670">
        <ele>565.4</ele>
        <time>2022-07-21T10:41:18Z</time>
      </trkpt>
      <trkpt lat="47.2142230" lon="6.9041530">
        <ele>565.6</ele>
        <time>2022-07-21T10:41:19Z</time>
      </trkpt>
      <trkpt lat="47.2142180" lon="6.9041400">
        <ele>565.8</ele>
        <time>2022-07-21T10:41:20Z</time>
      </trkpt>
      <trkpt lat="47.2142150" lon="6.9041350">
        <ele>565.9</ele>
        <time>2022-07-21T10:41:21Z</time>
      </trkpt>
      <trkpt lat="47.2142110" lon="6.9041250">
        <ele>566.0</ele>
        <time>2022-07-21T10:41:22Z</time>
      </trkpt>
      <trkpt lat="47.2142060" lon="6.9041140">
        <ele>566.2</ele>
        <time>2022-07-21T10:41:23Z</time>
      </trkpt>
      <trkpt lat="47.2142020" lon="6.9041060">
        <ele>566.3</ele>
        <time>2022-07-21T10:41:24Z</time>
      </trkpt>
      <trkpt lat="47.2141980" lon="6.9040950">
        <ele>566.5</ele>
        <time>2022-07-21T10:41:25Z</time>
      </trkpt>
      <trkpt lat="47.2141940" lon="6.9040790">
        <ele>566.7</ele>
        <time>2022-07-21T10:41:26Z</time>
      </trkpt>
      <trkpt lat="47.2141890" lon="6.9040620">
        <ele>566.9</ele>
        <time>2022-07-21T10:41:28Z</time>
      </trkpt>
      <trkpt lat="47.2141850" lon="6.9040510">
        <ele>567.0</ele>
        <time>2022-07-21T10:41:29Z</time>
      </trkpt>
      <trkpt lat="47.2141770" lon="6.9040330">
        <ele>567.2</ele>
        <time>2022-07-21T10:41:31Z</time>
      </trkpt>
      <trkpt lat="47.2141720" lon="6.9040200">
        <ele>567.4</ele>
        <time>2022-07-21T10:41:32Z</time>
      </trkpt>
      <trkpt lat="47.2141680" lon="6.9040110">
        <ele>567.5</ele>
        <time>2022-07-21T10:41:33Z</time>
      </trkpt>
      <trkpt lat="47.2141610" lon="6.9039930">
        <ele>567.7</ele>
        <time>2022-07-21T10:41:34Z</time>
      </trkpt>
      <trkpt lat="47.2141510" lon="6.9039650">
        <ele>567.9</ele>
        <time>2022-07-21T10:41:35Z</time>
      </trkpt>
      <trkpt lat="47.2141450" lon="6.9039510">
        <ele>568.0</ele>
        <time>2022-07-21T10:41:36Z</time>
      </trkpt>
      <trkpt lat="47.2141400" lon="6.9039360">
        <ele>568.2</ele>
        <time>2022-07-21T10:41:37Z</time>
      </trkpt>
      <trkpt lat="47.2141310" lon="6.9039070">
        <ele>568.4</ele>
        <time>2022-07-21T10:41:38Z</time>
      </trkpt>
      <trkpt lat="47.2141280" lon="6.9038950">
        <ele>568.5</ele>
        <time>2022-07-21T10:41:40Z</time>
      </trkpt>
      <trkpt lat="47.2141250" lon="6.9038840">
        <ele>568.6</ele>
        <time>2022-07-21T10:41:41Z</time>
      </trkpt>
      <trkpt lat="47.2141170" lon="6.9038540">
        <ele>568.8</ele>
        <time>2022-07-21T10:41:42Z</time>
      </trkpt>
      <trkpt lat="47.2141140" lon="6.9038420">
        <ele>568.9</ele>
        <time>2022-07-21T10:41:43Z</time>
      </trkpt>
      <trkpt lat="47.2141110" lon="6.9038310">
        <ele>569.0</ele>
        <time>2022-07-21T10:41:44Z</time>
      </trkpt>
      <trkpt lat="47.2141050" lon="6.9038110">
        <ele>569.2</ele>
        <time>2022-07-21T10:41:45Z</time>
      </trkpt>
      <trkpt lat="47.2141010" lon="6.9037970">
        <ele>569.3</ele>
        <time>2022-07-21T10:41:46Z</time>
      </trkpt>
      <trkpt lat="47.2140930" lon="6.9037740">
        <ele>569.5</ele>
        <time>2022-07-21T10:41:48Z</time>
      </trkpt>
      <trkpt lat="47.2140880" lon="6.9037550">
        <ele>569.7</ele>
        <time>2022-07-21T10:41:49Z</time>
      </trkpt>
      <trkpt lat="47.2140850" lon="6.9037430">
        <ele>569.8</ele>
        <time>2022-07-21T10:41:50Z</time>
      </trkpt>
      <trkpt lat="47.2140780" lon="6.9037130">
        <ele>570.1</ele>
        <time>2022-07-21T10:41:52Z</time>
      </trkpt>
      <trkpt lat="47.2140720" lon="6.9036890">
        <ele>570.3</ele>
        <time>2022-07-21T10:41:53Z</time>
      </trkpt>
      <trkpt lat="47.2140680" lon="6.9036680">
        <ele>570.5</ele>
        <time>2022-07-21T10:41:54Z</time>
      </trkpt>
      <trkpt lat="47.2140620" lon="6.9036420">
        <ele>570.8</ele>
        <time>2022-07-21T10:41:55Z</time>
      </trkpt>
      <trkpt lat="47.2140570" lon="6.9036180">
        <ele>571.0</ele>
        <time>2022-07-21T10:41:56Z</time>
      </trkpt>
      <trkpt lat="47.2140510" lon="6.9035940">
        <ele>571.3</ele>
        <time>2022-07-21T10:41:58Z</time>
      </trkpt>
      <trkpt lat="47.2140470" lon="6.9035760">
        <ele>571.5</ele>
        <time>2022-07-21T10:41:59Z</time>
      </trkpt>
      <trkpt lat="47.2140410" lon="6.9035440">
        <ele>571.9</ele>
        <time>2022-07-21T10:42:01Z</time>
      </trkpt>
      <trkpt lat="47.2140390" lon="6.9035300">
        <ele>572.1</ele>
        <time>2022-07-21T10:42:02Z</time>
      </trkpt>
      <trkpt lat="47.2140360" lon="6.9035130">
        <ele>572.3</ele>
        <time>2022-07-21T10:42:03Z</time>
      </trkpt>
      <trkpt lat="47.2140310" lon="6.9034960">
        <ele>572.5</ele>
        <time>2022-07-21T10:42:04Z</time>
      </trkpt>
      <trkpt lat="47.2140260" lon="6.9034810">
        <ele>572.7</ele>
        <time>2022-07-21T10:42:05Z</time>
      </trkpt>
      <trkpt lat="47.2140220" lon="6.9034670">
        <ele>572.9</ele>
        <time>2022-07-21T10:42:07Z</time>
      </trkpt>
      <trkpt lat="47.2140200" lon="6.9034560">
        <ele>573.0</ele>
        <time>2022-07-21T10:42:08Z</time>
      </trkpt>
      <trkpt lat="47.2140160" lon="6.9034410">
        <ele>573.2</ele>
        <time>2022-07-21T10:42:09Z</time>
      </trkpt>
      <trkpt lat="47.2140120" lon="6.9034290">
        <ele>573.4</ele>
        <time>2022-07-21T10:42:10Z</time>
      </trkpt>
      <trkpt lat="47.2140070" lon="6.9034140">
        <ele>573.6</ele>
        <time>2022-07-21T10:42:11Z</time>
      </trkpt>
      <trkpt lat="47.2140020" lon="6.9034010">
        <ele>573.7</ele>
        <time>2022-07-21T10:42:13Z</time>
      </trkpt>
      <trkpt lat="47.2139980" lon="6.9033840">
        <ele>574.0</ele>
        <time>2022-07-21T10:42:14Z</time>
      </trkpt>
      <trkpt lat="47.2139930" lon="6.9033670">
        <ele>574.2</ele>
        <time>2022-07-21T10:42:15Z</time>
      </trkpt>
      <trkpt lat="47.2139900" lon="6.9033580">
        <ele>574.3</ele>
        <time>2022-07-21T10:42:16Z</time>
      </trkpt>
      <trkpt lat="47.2139850" lon="6.9033430">
        <ele>574.5</ele>
        <time>2022-07-21T10:42:18Z</time>
      </trkpt>
      <trkpt lat="47.2139800" lon="6.9033290">
        <ele>574.7</ele>
        <time>2022-07-21T10:42:19Z</time>
      </trkpt>
      <trkpt lat="47.2139750" lon="6.9033150">
        <ele>574.8</ele>
        <time>2022-07-21T10:42:20Z</time>
      </trkpt>
      <trkpt lat="47.2139680" lon="6.9032930">
        <ele>575.1</ele>
        <time>2022-07-21T10:42:21Z</time>
      </trkpt>
      <trkpt lat="47.2139640" lon="6.9032830">
        <ele>575.3</ele>
        <time>2022-07-21T10:42:22Z</time>
      </trkpt>
      <trkpt lat="47.2139610" lon="6.9032730">
        <ele>575.4</ele>
        <time>2022-07-21T10:42:24Z</time>
      </trkpt>
      <trkpt lat="47.2139580" lon="6.9032630">
        <ele>575.5</ele>
        <time>2022-07-21T10:42:25Z</time>
      </trkpt>
      <trkpt lat="47.2139510" lon="6.9032410">
        <ele>575.8</ele>
        <time>2022-07-21T10:42:27Z</time>
      </trkpt>
      <trkpt lat="47.2139500" lon="6.9032300">
        <ele>575.9</ele>
        <time>2022-07-21T10:42:28Z</time>
      </trkpt>
      <trkpt lat="47.2139480" lon="6.9032180">
        <ele>576.0</ele>
        <time>2022-07-21T10:42:29Z</time>
      </trkpt>
      <trkpt lat="47.2139470" lon="6.9032040">
        <ele>576.2</ele>
        <time>2022-07-21T10:42:30Z</time>
      </trkpt>
      <trkpt lat="47.2139460" lon="6.9031890">
        <ele>576.4</ele>
        <time>2022-07-21T10:42:31Z</time>
      </trkpt>
      <trkpt lat="47.2139430" lon="6.9031710">
        <ele>576.6</ele>
        <time>2022-07-21T10:42:33Z</time>
      </trkpt>
      <trkpt lat="47.2139420" lon="6.9031580">
        <ele>576.7</ele>
        <time>2022-07-21T10:42:34Z</time>
      </trkpt>
      <trkpt lat="47.2139390" lon="6.9031480">
        <ele>576.9</ele>
        <time>2022-07-21T10:42:35Z</time>
      </trkpt>
      <trkpt lat="47.2139360" lon="6.9031340">
        <ele>577.0</ele>
        <time>2022-07-21T10:42:36Z</time>
      </trkpt>
      <trkpt lat="47.2139330" lon="6.9031220">
        <ele>577.2</ele>
        <time>2022-07-21T10:42:37Z</time>
      </trkpt>
      <trkpt lat="47.2139280" lon="6.9031010">
        <ele>577.4</ele>
        <time>2022-07-21T10:42:38Z</time>
      </trkpt>
      <trkpt lat="47.2139240" lon="6.9030900">
        <ele>577.6</ele>
        <time>2022-07-21T10:42:39Z</time>
      </trkpt>
      <trkpt lat="47.2139200" lon="6.9030790">
        <ele>577.7</ele>
        <time>2022-07-21T10:42:40Z</time>
      </trkpt>
      <trkpt lat="47.2139170" lon="6.9030690">
        <ele>577.8</ele>
        <time>2022-07-21T10:42:41Z</time>
      </trkpt>
      <trkpt lat="47.2139110" lon="6.9030420">
        <ele>578.2</ele>
        <time>2022-07-21T10:42:42Z</time>
      </trkpt>
      <trkpt lat="47.2139080" lon="6.9030280">
        <ele>578.3</ele>
        <time>2022-07-21T10:42:43Z</time>
      </trkpt>
      <trkpt lat="47.2139050" lon="6.9030150">
        <ele>578.5</ele>
        <time>2022-07-21T10:42:44Z</time>
      </trkpt>
      <trkpt lat="47.2138950" lon="6.9029850">
        <ele>578.9</ele>
        <time>2022-07-21T10:42:45Z</time>
      </trkpt>
      <trkpt lat="47.2138920" lon="6.9029740">
        <ele>579.0</ele>
        <time>2022-07-21T10:42:47Z</time>
      </trkpt>
      <trkpt lat="47.2138890" lon="6.9029620">
        <ele>579.2</ele>
        <time>2022-07-21T10:42:48Z</time>
      </trkpt>
      <trkpt lat="47.2138800" lon="6.9029360">
        <ele>579.6</ele>
        <time>2022-07-21T10:42:49Z</time>
      </trkpt>
      <trkpt lat="47.2138760" lon="6.9029240">
        <ele>579.7</ele>
        <time>2022-07-21T10:42:50Z</time>
      </trkpt>
      <trkpt lat="47.2138720" lon="6.9029120">
        <ele>579.9</ele>
        <time>2022-07-21T10:42:51Z</time>
      </trkpt>
      <trkpt lat="47.2138650" lon="6.9028970">
        <ele>580.1</ele>
        <time>2022-07-21T10:42:52Z</time>
      </trkpt>
      <trkpt lat="47.2138610" lon="6.9028880">
        <ele>580.3</ele>
        <time>2022-07-21T10:42:54Z</time>
      </trkpt>
      <trkpt lat="47.2138560" lon="6.9028770">
        <ele>580.5</ele>
        <time>2022-07-21T10:42:55Z</time>
      </trkpt>
      <trkpt lat="47.2138520" lon="6.9028660">
        <ele>580.6</ele>
        <time>2022-07-21T10:42:56Z</time>
      </trkpt>
      <trkpt lat="47.2138460" lon="6.9028530">
        <ele>580.8</ele>
        <time>2022-07-21T10:42:58Z</time>
      </trkpt>
      <trkpt lat="47.2138380" lon="6.9028350">
        <ele>581.1</ele>
        <time>2022-07-21T10:42:59Z</time>
      </trkpt>
      <trkpt lat="47.2138290" lon="6.9028120">
        <ele>581.5</ele>
        <time>2022-07-21T10:43:00Z</time>
      </trkpt>
      <trkpt lat="47.2138250" lon="6.9028040">
        <ele>581.6</ele>
        <time>2022-07-21T10:43:02Z</time>
      </trkpt>
      <trkpt lat="47.2138220" lon="6.9027950">
        <ele>581.7</ele>
        <time>2022-07-21T10:43:03Z</time>
      </trkpt>
      <trkpt lat="47.2138190" lon="6.9027870">
        <ele>581.9</ele>
        <time>2022-07-21T10:43:04Z</time>
      </trkpt>
      <trkpt lat="47.2138160" lon="6.9027730">
        <ele>582.1</ele>
        <time>2022-07-21T10:43:06Z</time>
      </trkpt>
      <trkpt lat="47.2138150" lon="6.9027620">
        <ele>582.2</ele>
        <time>2022-07-21T10:43:07Z</time>
      </trkpt>
      <trkpt lat="47.2138130" lon="6.9027500">
        <ele>582.4</ele>
        <time>2022-07-21T10:43:08Z</time>
      </trkpt>
      <trkpt lat="47.2138110" lon="6.9027390">
        <ele>582.5</ele>
        <time>2022-07-21T10:43:09Z</time>
      </trkpt>
      <trkpt lat="47.2138080" lon="6.9027230">
        <ele>582.8</ele>
        <time>2022-07-21T10:43:10Z</time>
      </trkpt>
      <trkpt lat="47.2138050" lon="6.9027070">
        <ele>583.0</ele>
        <time>2022-07-21T10:43:11Z</time>
      </trkpt>
      <trkpt lat="47.2138040" lon="6.9026940">
        <ele>583.2</ele>
        <time>2022-07-21T10:43:12Z</time>
      </trkpt>
      <trkpt lat="47.2138010" lon="6.9026740">
        <ele>583.5</ele>
        <time>2022-07-21T10:43:13Z</time>
      </trkpt>
      <trkpt lat="47.2137980" lon="6.9026520">
        <ele>583.8</ele>
        <time>2022-07-21T10:43:14Z</time>
      </trkpt>
      <trkpt lat="47.2137930" lon="6.9026320">
        <ele>584.0</ele>
        <time>2022-07-21T10:43:16Z</time>
      </trkpt>
      <trkpt lat="47.2137880" lon="6.9026130">
        <ele>584.3</ele>
        <time>2022-07-21T10:43:17Z</time>
      </trkpt>
      <trkpt lat="47.2137850" lon="6.9025960">
        <ele>584.6</ele>
        <time>2022-07-21T10:43:18Z</time>
      </trkpt>
      <trkpt lat="47.2137790" lon="6.9025680">
        <ele>585.0</ele>
        <time>2022-07-21T10:43:19Z</time>
      </trkpt>
      <trkpt lat="47.2137750" lon="6.9025320">
        <ele>585.5</ele>
        <time>2022-07-21T10:43:20Z</time>
      </trkpt>
      <trkpt lat="47.2137730" lon="6.9025160">
        <ele>585.7</ele>
        <time>2022-07-21T10:43:22Z</time>
      </trkpt>
      <trkpt lat="47.2137710" lon="6.9025000">
        <ele>585.9</ele>
        <time>2022-07-21T10:43:23Z</time>
      </trkpt>
      <trkpt lat="47.2137690" lon="6.9024840">
        <ele>586.1</ele>
        <time>2022-07-21T10:43:24Z</time>
      </trkpt>
      <trkpt lat="47.2137680" lon="6.9024680">
        <ele>586.3</ele>
        <time>2022-07-21T10:43:25Z</time>
      </trkpt>
      <trkpt lat="47.2137660" lon="6.9024510">
        <ele>586.5</ele>
        <time>2022-07-21T10:43:26Z</time>
      </trkpt>
      <trkpt lat="47.2137650" lon="6.9024220">
        <ele>586.9</ele>
        <time>2022-07-21T10:43:28Z</time>
      </trkpt>
      <trkpt lat="47.2137630" lon="6.9023980">
        <ele>587.2</ele>
        <time>2022-07-21T10:43:29Z</time>
      </trkpt>
      <trkpt lat="47.2137620" lon="6.9023810">
        <ele>587.4</ele>
        <time>2022-07-21T10:43:30Z</time>
      </trkpt>
      <trkpt lat="47.2137610" lon="6.9023650">
        <ele>587.6</ele>
        <time>2022-07-21T10:43:31Z</time>
      </trkpt>
      <trkpt lat="47.2137600" lon="6.9023360">
        <ele>587.9</ele>
        <time>2022-07-21T10:43:32Z</time>
      </trkpt>
      <trkpt lat="47.2137620" lon="6.9023170">
        <ele>588.1</ele>
        <time>2022-07-21T10:43:34Z</time>
      </trkpt>
      <trkpt lat="47.2137640" lon="6.9022930">
        <ele>588.4</ele>
        <time>2022-07-21T10:43:35Z</time>
      </trkpt>
      <trkpt lat="47.2137680" lon="6.9022660">
        <ele>588.7</ele>
        <time>2022-07-21T10:43:37Z</time>
      </trkpt>
      <trkpt lat="47.2137690" lon="6.9022430">
        <ele>588.9</ele>
        <time>2022-07-21T10:43:38Z</time>
      </trkpt>
      <trkpt lat="47.2137700" lon="6.9022230">
        <ele>589.2</ele>
        <time>2022-07-21T10:43:39Z</time>
      </trkpt>
      <trkpt lat="47.2137700" lon="6.9022090">
        <ele>589.3</ele>
        <time>2022-07-21T10:43:40Z</time>
      </trkpt>
      <trkpt lat="47.2137710" lon="6.9021950">
        <ele>589.5</ele>
        <time>2022-07-21T10:43:41Z</time>
      </trkpt>
      <trkpt lat="47.2137750" lon="6.9021600">
        <ele>589.8</ele>
        <time>2022-07-21T10:43:42Z</time>
      </trkpt>
      <trkpt lat="47.2137770" lon="6.9021410">
        <ele>590.1</ele>
        <time>2022-07-21T10:43:44Z</time>
      </trkpt>
      <trkpt lat="47.2137820" lon="6.9021150">
        <ele>590.3</ele>
        <time>2022-07-21T10:43:45Z</time>
      </trkpt>
      <trkpt lat="47.2137860" lon="6.9020920">
        <ele>590.6</ele>
        <time>2022-07-21T10:43:46Z</time>
      </trkpt>
      <trkpt lat="47.2137890" lon="6.9020730">
        <ele>590.8</ele>
        <time>2022-07-21T10:43:47Z</time>
      </trkpt>
      <trkpt lat="47.2137910" lon="6.9020510">
        <ele>591.0</ele>
        <time>2022-07-21T10:43:48Z</time>
      </trkpt>
      <trkpt lat="47.2137910" lon="6.9020100">
        <ele>591.5</ele>
        <time>2022-07-21T10:43:49Z</time>
      </trkpt>
      <trkpt lat="47.2137910" lon="6.9019950">
        <ele>591.6</ele>
        <time>2022-07-21T10:43:50Z</time>
      </trkpt>
      <trkpt lat="47.2137770" lon="6.9019420">
        <ele>592.1</ele>
        <time>2022-07-21T10:43:52Z</time>
      </trkpt>
      <trkpt lat="47.2137380" lon="6.9018570">
        <ele>591.9</ele>
        <time>2022-07-21T10:43:53Z</time>
      </trkpt>
      <trkpt lat="47.2137100" lon="6.9018010">
        <ele>591.7</ele>
        <time>2022-07-21T10:43:54Z</time>
      </trkpt>
      <trkpt lat="47.2136760" lon="6.9017320">
        <ele>591.3</ele>
        <time>2022-07-21T10:43:55Z</time>
      </trkpt>
      <trkpt lat="47.2136440" lon="6.9016840">
        <ele>591.0</ele>
        <time>2022-07-21T10:43:56Z</time>
      </trkpt>
      <trkpt lat="47.2136050" lon="6.9016100">
        <ele>590.7</ele>
        <time>2022-07-21T10:43:57Z</time>
      </trkpt>
      <trkpt lat="47.2135640" lon="6.9015430">
        <ele>590.4</ele>
        <time>2022-07-21T10:43:58Z</time>
      </trkpt>
      <trkpt lat="47.2135310" lon="6.9014940">
        <ele>590.2</ele>
        <time>2022-07-21T10:43:59Z</time>
      </trkpt>
      <trkpt lat="47.2135150" lon="6.9015190">
        <ele>590.2</ele>
        <time>2022-07-21T10:44:00Z</time>
      </trkpt>
      <trkpt lat="47.2134850" lon="6.9014680">
        <ele>590.1</ele>
        <time>2022-07-21T10:44:02Z</time>
      </trkpt>
      <trkpt lat="47.2134610" lon="6.9014190">
        <ele>590.0</ele>
        <time>2022-07-21T10:44:03Z</time>
      </trkpt>
      <trkpt lat="47.2134430" lon="6.9013810">
        <ele>590.0</ele>
        <time>2022-07-21T10:44:04Z</time>
      </trkpt>
      <trkpt lat="47.2134190" lon="6.9013270">
        <ele>590.0</ele>
        <time>2022-07-21T10:44:05Z</time>
      </trkpt>
      <trkpt lat="47.2133970" lon="6.9012800">
        <ele>590.0</ele>
        <time>2022-07-21T10:44:06Z</time>
      </trkpt>
      <trkpt lat="47.2133790" lon="6.9012400">
        <ele>590.0</ele>
        <time>2022-07-21T10:44:08Z</time>
      </trkpt>
      <trkpt lat="47.2133580" lon="6.9011900">
        <ele>590.0</ele>
        <time>2022-07-21T10:44:09Z</time>
      </trkpt>
      <trkpt lat="47.2133340" lon="6.9011400">
        <ele>590.0</ele>
        <time>2022-07-21T10:44:10Z</time>
      </trkpt>
      <trkpt lat="47.2133040" lon="6.9010990">
        <ele>589.9</ele>
        <time>2022-07-21T10:44:12Z</time>
      </trkpt>
      <trkpt lat="47.2132850" lon="6.9010710">
        <ele>589.8</ele>
        <time>2022-07-21T10:44:13Z</time>
      </trkpt>
      <trkpt lat="47.2132640" lon="6.9010240">
        <ele>589.7</ele>
        <time>2022-07-21T10:44:14Z</time>
      </trkpt>
      <trkpt lat="47.2132440" lon="6.9009680">
        <ele>589.5</ele>
        <time>2022-07-21T10:44:15Z</time>
      </trkpt>
      <trkpt lat="47.2132200" lon="6.9009200">
        <ele>589.3</ele>
        <time>2022-07-21T10:44:17Z</time>
      </trkpt>
      <trkpt lat="47.2131860" lon="6.9008710">
        <ele>588.9</ele>
        <time>2022-07-21T10:44:18Z</time>
      </trkpt>
      <trkpt lat="47.2131620" lon="6.9008390">
        <ele>588.7</ele>
        <time>2022-07-21T10:44:19Z</time>
      </trkpt>
      <trkpt lat="47.2131010" lon="6.9007500">
        <ele>588.0</ele>
        <time>2022-07-21T10:44:20Z</time>
      </trkpt>
      <trkpt lat="47.2130460" lon="6.9006860">
        <ele>587.2</ele>
        <time>2022-07-21T10:44:21Z</time>
      </trkpt>
      <trkpt lat="47.2130010" lon="6.9006390">
        <ele>586.7</ele>
        <time>2022-07-21T10:44:22Z</time>
      </trkpt>
      <trkpt lat="47.2129560" lon="6.9005780">
        <ele>586.0</ele>
        <time>2022-07-21T10:44:23Z</time>
      </trkpt>
      <trkpt lat="47.2129080" lon="6.9005230">
        <ele>585.3</ele>
        <time>2022-07-21T10:44:24Z</time>
      </trkpt>
      <trkpt lat="47.2128580" lon="6.9004770">
        <ele>584.7</ele>
        <time>2022-07-21T10:44:25Z</time>
      </trkpt>
      <trkpt lat="47.2128180" lon="6.9004340">
        <ele>584.3</ele>
        <time>2022-07-21T10:44:26Z</time>
      </trkpt>
      <trkpt lat="47.2127980" lon="6.9003820">
        <ele>583.9</ele>
        <time>2022-07-21T10:44:27Z</time>
      </trkpt>
      <trkpt lat="47.2127820" lon="6.9003450">
        <ele>583.7</ele>
        <time>2022-07-21T10:44:28Z</time>
      </trkpt>
      <trkpt lat="47.2127500" lon="6.9002840">
        <ele>583.3</ele>
        <time>2022-07-21T10:44:29Z</time>
      </trkpt>
      <trkpt lat="47.2127320" lon="6.9002530">
        <ele>583.1</ele>
        <time>2022-07-21T10:44:30Z</time>
      </trkpt>
      <trkpt lat="47.2126940" lon="6.9001940">
        <ele>582.8</ele>
        <time>2022-07-21T10:44:31Z</time>
      </trkpt>
      <trkpt lat="47.2126710" lon="6.9001370">
        <ele>582.7</ele>
        <time>2022-07-21T10:44:32Z</time>
      </trkpt>
      <trkpt lat="47.2126520" lon="6.9001300">
        <ele>582.8</ele>
        <time>2022-07-21T10:44:33Z</time>
      </trkpt>
      <trkpt lat="47.2126430" lon="6.9001160">
        <ele>582.8</ele>
        <time>2022-07-21T10:44:34Z</time>
      </trkpt>
      <trkpt lat="47.2126380" lon="6.9000900">
        <ele>582.9</ele>
        <time>2022-07-21T10:44:35Z</time>
      </trkpt>
      <trkpt lat="47.2126270" lon="6.9000520">
        <ele>583.1</ele>
        <time>2022-07-21T10:44:37Z</time>
      </trkpt>
      <trkpt lat="47.2126150" lon="6.9000150">
        <ele>583.3</ele>
        <time>2022-07-21T10:44:38Z</time>
      </trkpt>
      <trkpt lat="47.2126000" lon="6.8999750">
        <ele>583.7</ele>
        <time>2022-07-21T10:44:39Z</time>
      </trkpt>
      <trkpt lat="47.2125960" lon="6.8999640">
        <ele>583.8</ele>
        <time>2022-07-21T10:44:40Z</time>
      </trkpt>
      <trkpt lat="47.2125910" lon="6.8999440">
        <ele>584.0</ele>
        <time>2022-07-21T10:44:41Z</time>
      </trkpt>
      <trkpt lat="47.2125850" lon="6.8999160">
        <ele>584.3</ele>
        <time>2022-07-21T10:44:43Z</time>
      </trkpt>
      <trkpt lat="47.2125780" lon="6.8998960">
        <ele>584.5</ele>
        <time>2022-07-21T10:44:44Z</time>
      </trkpt>
      <trkpt lat="47.2125700" lon="6.8998830">
        <ele>584.7</ele>
        <time>2022-07-21T10:44:45Z</time>
      </trkpt>
      <trkpt lat="47.2125660" lon="6.8998740">
        <ele>584.8</ele>
        <time>2022-07-21T10:44:46Z</time>
      </trkpt>
      <trkpt lat="47.2125630" lon="6.8998670">
        <ele>584.9</ele>
        <time>2022-07-21T10:44:47Z</time>
      </trkpt>
      <trkpt lat="47.2125610" lon="6.8998570">
        <ele>585.0</ele>
        <time>2022-07-21T10:44:48Z</time>
      </trkpt>
      <trkpt lat="47.2125590" lon="6.8998430">
        <ele>585.1</ele>
        <time>2022-07-21T10:44:49Z</time>
      </trkpt>
      <trkpt lat="47.2125570" lon="6.8998310">
        <ele>585.3</ele>
        <time>2022-07-21T10:44:51Z</time>
      </trkpt>
      <trkpt lat="47.2125570" lon="6.8998200">
        <ele>585.4</ele>
        <time>2022-07-21T10:44:52Z</time>
      </trkpt>
      <trkpt lat="47.2125570" lon="6.8998060">
        <ele>585.5</ele>
        <time>2022-07-21T10:44:53Z</time>
      </trkpt>
      <trkpt lat="47.2125550" lon="6.8997960">
        <ele>585.6</ele>
        <time>2022-07-21T10:44:54Z</time>
      </trkpt>
      <trkpt lat="47.2125530" lon="6.8997890">
        <ele>585.7</ele>
        <time>2022-07-21T10:44:55Z</time>
      </trkpt>
      <trkpt lat="47.2125510" lon="6.8997800">
        <ele>585.8</ele>
        <time>2022-07-21T10:44:56Z</time>
      </trkpt>
      <trkpt lat="47.2125490" lon="6.8997780">
        <ele>585.9</ele>
        <time>2022-07-21T10:44:57Z</time>
      </trkpt>
      <trkpt lat="47.2125460" lon="6.8997750">
        <ele>585.9</ele>
        <time>2022-07-21T10:44:58Z</time>
      </trkpt>
      <trkpt lat="47.2125390" lon="6.8997570">
        <ele>586.1</ele>
        <time>2022-07-21T10:45:00Z</time>
      </trkpt>
      <trkpt lat="47.2125310" lon="6.8997440">
        <ele>586.3</ele>
        <time>2022-07-21T10:45:01Z</time>
      </trkpt>
      <trkpt lat="47.2125260" lon="6.8997330">
        <ele>586.5</ele>
        <time>2022-07-21T10:45:03Z</time>
      </trkpt>
      <trkpt lat="47.2125220" lon="6.8997230">
        <ele>586.6</ele>
        <time>2022-07-21T10:45:04Z</time>
      </trkpt>
      <trkpt lat="47.2125160" lon="6.8997130">
        <ele>586.7</ele>
        <time>2022-07-21T10:45:05Z</time>
      </trkpt>
      <trkpt lat="47.2125110" lon="6.8997030">
        <ele>586.8</ele>
        <time>2022-07-21T10:45:06Z</time>
      </trkpt>
      <trkpt lat="47.2124960" lon="6.8996870">
        <ele>587.1</ele>
        <time>2022-07-21T10:45:07Z</time>
      </trkpt>
      <trkpt lat="47.2124740" lon="6.8996600">
        <ele>587.4</ele>
        <time>2022-07-21T10:45:08Z</time>
      </trkpt>
      <trkpt lat="47.2124660" lon="6.8996490">
        <ele>587.5</ele>
        <time>2022-07-21T10:45:09Z</time>
      </trkpt>
      <trkpt lat="47.2124530" lon="6.8996260">
        <ele>587.8</ele>
        <time>2022-07-21T10:45:10Z</time>
      </trkpt>
      <trkpt lat="47.2124490" lon="6.8996150">
        <ele>587.8</ele>
        <time>2022-07-21T10:45:11Z</time>
      </trkpt>
      <trkpt lat="47.2124440" lon="6.8996050">
        <ele>587.9</ele>
        <time>2022-07-21T10:45:12Z</time>
      </trkpt>
      <trkpt lat="47.2124360" lon="6.8995890">
        <ele>588.1</ele>
        <time>2022-07-21T10:45:13Z</time>
      </trkpt>
      <trkpt lat="47.2124340" lon="6.8995840">
        <ele>588.1</ele>
        <time>2022-07-21T10:45:14Z</time>
      </trkpt>
      <trkpt lat="47.2124320" lon="6.8995790">
        <ele>588.1</ele>
        <time>2022-07-21T10:45:15Z</time>
      </trkpt>
      <trkpt lat="47.2124300" lon="6.8995750">
        <ele>588.2</ele>
        <time>2022-07-21T10:45:16Z</time>
      </trkpt>
      <trkpt lat="47.2124280" lon="6.8995700">
        <ele>588.2</ele>
        <time>2022-07-21T10:45:17Z</time>
      </trkpt>
      <trkpt lat="47.2124260" lon="6.8995650">
        <ele>588.2</ele>
        <time>2022-07-21T10:45:18Z</time>
      </trkpt>
      <trkpt lat="47.2124240" lon="6.8995610">
        <ele>588.2</ele>
        <time>2022-07-21T10:45:19Z</time>
      </trkpt>
      <trkpt lat="47.2124120" lon="6.8995380">
        <ele>588.4</ele>
        <time>2022-07-21T10:45:20Z</time>
      </trkpt>
      <trkpt lat="47.2124020" lon="6.8995190">
        <ele>588.5</ele>
        <time>2022-07-21T10:45:21Z</time>
      </trkpt>
      <trkpt lat="47.2123850" lon="6.8994860">
        <ele>588.6</ele>
        <time>2022-07-21T10:45:22Z</time>
      </trkpt>
      <trkpt lat="47.2123580" lon="6.8994270">
        <ele>588.8</ele>
        <time>2022-07-21T10:45:24Z</time>
      </trkpt>
      <trkpt lat="47.2123490" lon="6.8994090">
        <ele>588.9</ele>
        <time>2022-07-21T10:45:25Z</time>
      </trkpt>
      <trkpt lat="47.2123400" lon="6.8993900">
        <ele>588.9</ele>
        <time>2022-07-21T10:45:26Z</time>
      </trkpt>
      <trkpt lat="47.2123210" lon="6.8993330">
        <ele>589.0</ele>
        <time>2022-07-21T10:45:28Z</time>
      </trkpt>
      <trkpt lat="47.2123040" lon="6.8992990">
        <ele>589.1</ele>
        <time>2022-07-21T10:45:29Z</time>
      </trkpt>
      <trkpt lat="47.2122840" lon="6.8992540">
        <ele>589.2</ele>
        <time>2022-07-21T10:45:30Z</time>
      </trkpt>
      <trkpt lat="47.2122760" lon="6.8992360">
        <ele>589.2</ele>
        <time>2022-07-21T10:45:31Z</time>
      </trkpt>
      <trkpt lat="47.2122740" lon="6.8992210">
        <ele>589.3</ele>
        <time>2022-07-21T10:45:33Z</time>
      </trkpt>
      <trkpt lat="47.2122720" lon="6.8992090">
        <ele>589.3</ele>
        <time>2022-07-21T10:45:34Z</time>
      </trkpt>
      <trkpt lat="47.2122680" lon="6.8991930">
        <ele>589.3</ele>
        <time>2022-07-21T10:45:35Z</time>
      </trkpt>
      <trkpt lat="47.2122600" lon="6.8991710">
        <ele>589.4</ele>
        <time>2022-07-21T10:45:36Z</time>
      </trkpt>
      <trkpt lat="47.2122540" lon="6.8991530">
        <ele>589.5</ele>
        <time>2022-07-21T10:45:37Z</time>
      </trkpt>
      <trkpt lat="47.2122380" lon="6.8991140">
        <ele>589.6</ele>
        <time>2022-07-21T10:45:38Z</time>
      </trkpt>
      <trkpt lat="47.2122340" lon="6.8991020">
        <ele>589.6</ele>
        <time>2022-07-21T10:45:39Z</time>
      </trkpt>
      <trkpt lat="47.2122250" lon="6.8990570">
        <ele>589.8</ele>
        <time>2022-07-21T10:45:41Z</time>
      </trkpt>
      <trkpt lat="47.2122210" lon="6.8990420">
        <ele>589.9</ele>
        <time>2022-07-21T10:45:42Z</time>
      </trkpt>
      <trkpt lat="47.2122100" lon="6.8990000">
        <ele>590.1</ele>
        <time>2022-07-21T10:45:44Z</time>
      </trkpt>
      <trkpt lat="47.2122060" lon="6.8989860">
        <ele>590.1</ele>
        <time>2022-07-21T10:45:45Z</time>
      </trkpt>
      <trkpt lat="47.2122000" lon="6.8989680">
        <ele>590.2</ele>
        <time>2022-07-21T10:45:46Z</time>
      </trkpt>
      <trkpt lat="47.2121910" lon="6.8989500">
        <ele>590.4</ele>
        <time>2022-07-21T10:45:47Z</time>
      </trkpt>
      <trkpt lat="47.2121770" lon="6.8989160">
        <ele>590.6</ele>
        <time>2022-07-21T10:45:48Z</time>
      </trkpt>
      <trkpt lat="47.2121710" lon="6.8989000">
        <ele>590.7</ele>
        <time>2022-07-21T10:45:49Z</time>
      </trkpt>
      <trkpt lat="47.2121600" lon="6.8988660">
        <ele>590.9</ele>
        <time>2022-07-21T10:45:51Z</time>
      </trkpt>
      <trkpt lat="47.2121540" lon="6.8988590">
        <ele>591.0</ele>
        <time>2022-07-21T10:45:52Z</time>
      </trkpt>
      <trkpt lat="47.2121480" lon="6.8988520">
        <ele>591.1</ele>
        <time>2022-07-21T10:45:53Z</time>
      </trkpt>
      <trkpt lat="47.2121420" lon="6.8988450">
        <ele>591.1</ele>
        <time>2022-07-21T10:45:54Z</time>
      </trkpt>
      <trkpt lat="47.2121360" lon="6.8988390">
        <ele>591.2</ele>
        <time>2022-07-21T10:45:56Z</time>
      </trkpt>
      <trkpt lat="47.2121310" lon="6.8988320">
        <ele>591.3</ele>
        <time>2022-07-21T10:45:57Z</time>
      </trkpt>
      <trkpt lat="47.2121250" lon="6.8988250">
        <ele>591.4</ele>
        <time>2022-07-21T10:45:58Z</time>
      </trkpt>
      <trkpt lat="47.2121190" lon="6.8988190">
        <ele>591.5</ele>
        <time>2022-07-21T10:45:59Z</time>
      </trkpt>
      <trkpt lat="47.2121130" lon="6.8988120">
        <ele>591.5</ele>
        <time>2022-07-21T10:46:02Z</time>
      </trkpt>
      <trkpt lat="47.2121070" lon="6.8988050">
        <ele>591.6</ele>
        <time>2022-07-21T10:46:03Z</time>
      </trkpt>
      <trkpt lat="47.2121010" lon="6.8987990">
        <ele>591.7</ele>
        <time>2022-07-21T10:46:04Z</time>
      </trkpt>
      <trkpt lat="47.2120830" lon="6.8987690">
        <ele>592.0</ele>
        <time>2022-07-21T10:46:06Z</time>
      </trkpt>
      <trkpt lat="47.2120760" lon="6.8987590">
        <ele>592.1</ele>
        <time>2022-07-21T10:46:07Z</time>
      </trkpt>
      <trkpt lat="47.2120550" lon="6.8987300">
        <ele>592.5</ele>
        <time>2022-07-21T10:46:08Z</time>
      </trkpt>
      <trkpt lat="47.2120490" lon="6.8987210">
        <ele>592.6</ele>
        <time>2022-07-21T10:46:09Z</time>
      </trkpt>
      <trkpt lat="47.2120220" lon="6.8986930">
        <ele>593.0</ele>
        <time>2022-07-21T10:46:10Z</time>
      </trkpt>
      <trkpt lat="47.2120100" lon="6.8986820">
        <ele>593.1</ele>
        <time>2022-07-21T10:46:11Z</time>
      </trkpt>
      <trkpt lat="47.2119940" lon="6.8986640">
        <ele>593.4</ele>
        <time>2022-07-21T10:46:13Z</time>
      </trkpt>
      <trkpt lat="47.2119830" lon="6.8986500">
        <ele>593.6</ele>
        <time>2022-07-21T10:46:14Z</time>
      </trkpt>
      <trkpt lat="47.2119780" lon="6.8986420">
        <ele>593.7</ele>
        <time>2022-07-21T10:46:15Z</time>
      </trkpt>
      <trkpt lat="47.2119590" lon="6.8986110">
        <ele>594.0</ele>
        <time>2022-07-21T10:46:17Z</time>
      </trkpt>
      <trkpt lat="47.2119470" lon="6.8986000">
        <ele>594.1</ele>
        <time>2022-07-21T10:46:18Z</time>
      </trkpt>
      <trkpt lat="47.2119360" lon="6.8985860">
        <ele>594.3</ele>
        <time>2022-07-21T10:46:19Z</time>
      </trkpt>
      <trkpt lat="47.2119140" lon="6.8985580">
        <ele>594.6</ele>
        <time>2022-07-21T10:46:20Z</time>
      </trkpt>
      <trkpt lat="47.2119070" lon="6.8985470">
        <ele>594.7</ele>
        <time>2022-07-21T10:46:21Z</time>
      </trkpt>
      <trkpt lat="47.2118840" lon="6.8985200">
        <ele>594.9</ele>
        <time>2022-07-21T10:46:23Z</time>
      </trkpt>
      <trkpt lat="47.2118780" lon="6.8985120">
        <ele>595.0</ele>
        <time>2022-07-21T10:46:24Z</time>
      </trkpt>
      <trkpt lat="47.2118580" lon="6.8984790">
        <ele>595.2</ele>
        <time>2022-07-21T10:46:25Z</time>
      </trkpt>
      <trkpt lat="47.2118540" lon="6.8984710">
        <ele>595.2</ele>
        <time>2022-07-21T10:46:26Z</time>
      </trkpt>
      <trkpt lat="47.2118430" lon="6.8984590">
        <ele>595.3</ele>
        <time>2022-07-21T10:46:27Z</time>
      </trkpt>
      <trkpt lat="47.2118310" lon="6.8984400">
        <ele>595.4</ele>
        <time>2022-07-21T10:46:28Z</time>
      </trkpt>
      <trkpt lat="47.2118150" lon="6.8984180">
        <ele>595.4</ele>
        <time>2022-07-21T10:46:29Z</time>
      </trkpt>
      <trkpt lat="47.2117990" lon="6.8983930">
        <ele>595.5</ele>
        <time>2022-07-21T10:46:31Z</time>
      </trkpt>
      <trkpt lat="47.2117720" lon="6.8983560">
        <ele>595.6</ele>
        <time>2022-07-21T10:46:32Z</time>
      </trkpt>
      <trkpt lat="47.2117590" lon="6.8983380">
        <ele>595.7</ele>
        <time>2022-07-21T10:46:33Z</time>
      </trkpt>
      <trkpt lat="47.2117370" lon="6.8983120">
        <ele>595.8</ele>
        <time>2022-07-21T10:46:34Z</time>
      </trkpt>
      <trkpt lat="47.2117070" lon="6.8982720">
        <ele>595.9</ele>
        <time>2022-07-21T10:46:35Z</time>
      </trkpt>
      <trkpt lat="47.2116970" lon="6.8982590">
        <ele>595.9</ele>
        <time>2022-07-21T10:46:36Z</time>
      </trkpt>
      <trkpt lat="47.2116690" lon="6.8982270">
        <ele>596.0</ele>
        <time>2022-07-21T10:46:38Z</time>
      </trkpt>
      <trkpt lat="47.2116560" lon="6.8982170">
        <ele>596.0</ele>
        <time>2022-07-21T10:46:39Z</time>
      </trkpt>
      <trkpt lat="47.2116290" lon="6.8981920">
        <ele>596.2</ele>
        <time>2022-07-21T10:46:40Z</time>
      </trkpt>
      <trkpt lat="47.2116200" lon="6.8981850">
        <ele>596.2</ele>
        <time>2022-07-21T10:46:41Z</time>
      </trkpt>
      <trkpt lat="47.2116090" lon="6.8981710">
        <ele>596.3</ele>
        <time>2022-07-21T10:46:42Z</time>
      </trkpt>
      <trkpt lat="47.2115960" lon="6.8981510">
        <ele>596.3</ele>
        <time>2022-07-21T10:46:43Z</time>
      </trkpt>
      <trkpt lat="47.2115780" lon="6.8981170">
        <ele>596.5</ele>
        <time>2022-07-21T10:46:44Z</time>
      </trkpt>
      <trkpt lat="47.2115480" lon="6.8980600">
        <ele>596.7</ele>
        <time>2022-07-21T10:46:46Z</time>
      </trkpt>
      <trkpt lat="47.2115380" lon="6.8980440">
        <ele>596.8</ele>
        <time>2022-07-21T10:46:47Z</time>
      </trkpt>
      <trkpt lat="47.2115290" lon="6.8980290">
        <ele>596.8</ele>
        <time>2022-07-21T10:46:48Z</time>
      </trkpt>
      <trkpt lat="47.2115080" lon="6.8979960">
        <ele>597.0</ele>
        <time>2022-07-21T10:46:49Z</time>
      </trkpt>
      <trkpt lat="47.2115000" lon="6.8979840">
        <ele>597.1</ele>
        <time>2022-07-21T10:46:50Z</time>
      </trkpt>
      <trkpt lat="47.2114710" lon="6.8979220">
        <ele>597.4</ele>
        <time>2022-07-21T10:46:52Z</time>
      </trkpt>
      <trkpt lat="47.2114600" lon="6.8979000">
        <ele>597.5</ele>
        <time>2022-07-21T10:46:53Z</time>
      </trkpt>
      <trkpt lat="47.2114490" lon="6.8978790">
        <ele>597.6</ele>
        <time>2022-07-21T10:46:54Z</time>
      </trkpt>
      <trkpt lat="47.2114260" lon="6.8978400">
        <ele>597.8</ele>
        <time>2022-07-21T10:46:56Z</time>
      </trkpt>
      <trkpt lat="47.2114130" lon="6.8978160">
        <ele>597.9</ele>
        <time>2022-07-21T10:46:57Z</time>
      </trkpt>
      <trkpt lat="47.2114040" lon="6.8978020">
        <ele>598.0</ele>
        <time>2022-07-21T10:46:58Z</time>
      </trkpt>
      <trkpt lat="47.2113820" lon="6.8977780">
        <ele>598.1</ele>
        <time>2022-07-21T10:46:59Z</time>
      </trkpt>
      <trkpt lat="47.2113520" lon="6.8977420">
        <ele>598.3</ele>
        <time>2022-07-21T10:47:01Z</time>
      </trkpt>
      <trkpt lat="47.2113410" lon="6.8977270">
        <ele>598.3</ele>
        <time>2022-07-21T10:47:02Z</time>
      </trkpt>
      <trkpt lat="47.2113210" lon="6.8976930">
        <ele>598.4</ele>
        <time>2022-07-21T10:47:03Z</time>
      </trkpt>
      <trkpt lat="47.2113020" lon="6.8976540">
        <ele>598.5</ele>
        <time>2022-07-21T10:47:04Z</time>
      </trkpt>
      <trkpt lat="47.2112960" lon="6.8976420">
        <ele>598.6</ele>
        <time>2022-07-21T10:47:05Z</time>
      </trkpt>
      <trkpt lat="47.2112850" lon="6.8976100">
        <ele>598.6</ele>
        <time>2022-07-21T10:47:06Z</time>
      </trkpt>
      <trkpt lat="47.2112720" lon="6.8975820">
        <ele>598.7</ele>
        <time>2022-07-21T10:47:08Z</time>
      </trkpt>
      <trkpt lat="47.2112490" lon="6.8975510">
        <ele>598.7</ele>
        <time>2022-07-21T10:47:09Z</time>
      </trkpt>
      <trkpt lat="47.2112410" lon="6.8975400">
        <ele>598.8</ele>
        <time>2022-07-21T10:47:10Z</time>
      </trkpt>
      <trkpt lat="47.2112120" lon="6.8975140">
        <ele>598.8</ele>
        <time>2022-07-21T10:47:11Z</time>
      </trkpt>
      <trkpt lat="47.2112040" lon="6.8975070">
        <ele>598.8</ele>
        <time>2022-07-21T10:47:12Z</time>
      </trkpt>
      <trkpt lat="47.2111920" lon="6.8974960">
        <ele>598.9</ele>
        <time>2022-07-21T10:47:13Z</time>
      </trkpt>
      <trkpt lat="47.2111790" lon="6.8974690">
        <ele>598.9</ele>
        <time>2022-07-21T10:47:14Z</time>
      </trkpt>
      <trkpt lat="47.2111610" lon="6.8974310">
        <ele>598.9</ele>
        <time>2022-07-21T10:47:15Z</time>
      </trkpt>
      <trkpt lat="47.2111550" lon="6.8974160">
        <ele>598.9</ele>
        <time>2022-07-21T10:47:16Z</time>
      </trkpt>
      <trkpt lat="47.2111410" lon="6.8973890">
        <ele>598.9</ele>
        <time>2022-07-21T10:47:17Z</time>
      </trkpt>
      <trkpt lat="47.2111150" lon="6.8973570">
        <ele>598.9</ele>
        <time>2022-07-21T10:47:19Z</time>
      </trkpt>
      <trkpt lat="47.2110880" lon="6.8973250">
        <ele>598.9</ele>
        <time>2022-07-21T10:47:20Z</time>
      </trkpt>
      <trkpt lat="47.2110790" lon="6.8973140">
        <ele>598.9</ele>
        <time>2022-07-21T10:47:21Z</time>
      </trkpt>
      <trkpt lat="47.2110490" lon="6.8972700">
        <ele>598.9</ele>
        <time>2022-07-21T10:47:22Z</time>
      </trkpt>
      <trkpt lat="47.2110380" lon="6.8972540">
        <ele>598.9</ele>
        <time>2022-07-21T10:47:23Z</time>
      </trkpt>
      <trkpt lat="47.2110030" lon="6.8972010">
        <ele>598.9</ele>
        <time>2022-07-21T10:47:25Z</time>
      </trkpt>
      <trkpt lat="47.2109720" lon="6.8971710">
        <ele>598.9</ele>
        <time>2022-07-21T10:47:26Z</time>
      </trkpt>
      <trkpt lat="47.2109420" lon="6.8971450">
        <ele>598.9</ele>
        <time>2022-07-21T10:47:27Z</time>
      </trkpt>
      <trkpt lat="47.2109090" lon="6.8971200">
        <ele>598.9</ele>
        <time>2022-07-21T10:47:29Z</time>
      </trkpt>
      <trkpt lat="47.2108780" lon="6.8970960">
        <ele>598.9</ele>
        <time>2022-07-21T10:47:30Z</time>
      </trkpt>
      <trkpt lat="47.2108540" lon="6.8970740">
        <ele>598.9</ele>
        <time>2022-07-21T10:47:31Z</time>
      </trkpt>
      <trkpt lat="47.2108210" lon="6.8970410">
        <ele>598.8</ele>
        <time>2022-07-21T10:47:33Z</time>
      </trkpt>
      <trkpt lat="47.2107830" lon="6.8970090">
        <ele>598.8</ele>
        <time>2022-07-21T10:47:34Z</time>
      </trkpt>
      <trkpt lat="47.2107570" lon="6.8969880">
        <ele>598.8</ele>
        <time>2022-07-21T10:47:35Z</time>
      </trkpt>
      <trkpt lat="47.2107170" lon="6.8969440">
        <ele>598.7</ele>
        <time>2022-07-21T10:47:37Z</time>
      </trkpt>
      <trkpt lat="47.2106990" lon="6.8969230">
        <ele>598.7</ele>
        <time>2022-07-21T10:47:38Z</time>
      </trkpt>
      <trkpt lat="47.2106730" lon="6.8968870">
        <ele>598.6</ele>
        <time>2022-07-21T10:47:39Z</time>
      </trkpt>
      <trkpt lat="47.2106340" lon="6.8968380">
        <ele>598.5</ele>
        <time>2022-07-21T10:47:40Z</time>
      </trkpt>
      <trkpt lat="47.2106030" lon="6.8968040">
        <ele>598.4</ele>
        <time>2022-07-21T10:47:41Z</time>
      </trkpt>
      <trkpt lat="47.2105660" lon="6.8967650">
        <ele>598.3</ele>
        <time>2022-07-21T10:47:43Z</time>
      </trkpt>
      <trkpt lat="47.2105430" lon="6.8967310">
        <ele>598.3</ele>
        <time>2022-07-21T10:47:44Z</time>
      </trkpt>
      <trkpt lat="47.2105160" lon="6.8966790">
        <ele>598.2</ele>
        <time>2022-07-21T10:47:45Z</time>
      </trkpt>
      <trkpt lat="47.2105030" lon="6.8966500">
        <ele>598.2</ele>
        <time>2022-07-21T10:47:46Z</time>
      </trkpt>
      <trkpt lat="47.2104780" lon="6.8966060">
        <ele>598.1</ele>
        <time>2022-07-21T10:47:48Z</time>
      </trkpt>
      <trkpt lat="47.2104430" lon="6.8965550">
        <ele>598.0</ele>
        <time>2022-07-21T10:47:49Z</time>
      </trkpt>
      <trkpt lat="47.2104250" lon="6.8965310">
        <ele>598.0</ele>
        <time>2022-07-21T10:47:50Z</time>
      </trkpt>
      <trkpt lat="47.2103900" lon="6.8964800">
        <ele>597.9</ele>
        <time>2022-07-21T10:47:52Z</time>
      </trkpt>
      <trkpt lat="47.2103770" lon="6.8964590">
        <ele>597.9</ele>
        <time>2022-07-21T10:47:53Z</time>
      </trkpt>
      <trkpt lat="47.2103650" lon="6.8964380">
        <ele>597.9</ele>
        <time>2022-07-21T10:47:54Z</time>
      </trkpt>
      <trkpt lat="47.2103330" lon="6.8963640">
        <ele>597.9</ele>
        <time>2022-07-21T10:47:55Z</time>
      </trkpt>
      <trkpt lat="47.2103000" lon="6.8962860">
        <ele>598.5</ele>
        <time>2022-07-21T10:47:57Z</time>
      </trkpt>
      <trkpt lat="47.2102750" lon="6.8962270">
        <ele>598.9</ele>
        <time>2022-07-21T10:47:58Z</time>
      </trkpt>
      <trkpt lat="47.2102570" lon="6.8961540">
        <ele>599.4</ele>
        <time>2022-07-21T10:47:59Z</time>
      </trkpt>
      <trkpt lat="47.2102430" lon="6.8960860">
        <ele>599.9</ele>
        <time>2022-07-21T10:48:01Z</time>
      </trkpt>
      <trkpt lat="47.2102390" lon="6.8960320">
        <ele>600.2</ele>
        <time>2022-07-21T10:48:02Z</time>
      </trkpt>
      <trkpt lat="47.2102330" lon="6.8959830">
        <ele>600.6</ele>
        <time>2022-07-21T10:48:03Z</time>
      </trkpt>
      <trkpt lat="47.2102310" lon="6.8959640">
        <ele>600.7</ele>
        <time>2022-07-21T10:48:04Z</time>
      </trkpt>
      <trkpt lat="47.2102210" lon="6.8959210">
        <ele>601.0</ele>
        <time>2022-07-21T10:48:06Z</time>
      </trkpt>
      <trkpt lat="47.2102170" lon="6.8959070">
        <ele>601.1</ele>
        <time>2022-07-21T10:48:07Z</time>
      </trkpt>
      <trkpt lat="47.2102130" lon="6.8958890">
        <ele>601.2</ele>
        <time>2022-07-21T10:48:08Z</time>
      </trkpt>
      <trkpt lat="47.2102050" lon="6.8958650">
        <ele>601.4</ele>
        <time>2022-07-21T10:48:09Z</time>
      </trkpt>
      <trkpt lat="47.2101840" lon="6.8958240">
        <ele>601.8</ele>
        <time>2022-07-21T10:48:10Z</time>
      </trkpt>
      <trkpt lat="47.2101720" lon="6.8957990">
        <ele>602.1</ele>
        <time>2022-07-21T10:48:11Z</time>
      </trkpt>
      <trkpt lat="47.2101630" lon="6.8957780">
        <ele>602.3</ele>
        <time>2022-07-21T10:48:13Z</time>
      </trkpt>
      <trkpt lat="47.2101510" lon="6.8957570">
        <ele>602.6</ele>
        <time>2022-07-21T10:48:14Z</time>
      </trkpt>
      <trkpt lat="47.2101400" lon="6.8957410">
        <ele>602.8</ele>
        <time>2022-07-21T10:48:15Z</time>
      </trkpt>
      <trkpt lat="47.2101310" lon="6.8957260">
        <ele>603.0</ele>
        <time>2022-07-21T10:48:16Z</time>
      </trkpt>
      <trkpt lat="47.2101140" lon="6.8957130">
        <ele>603.3</ele>
        <time>2022-07-21T10:48:17Z</time>
      </trkpt>
      <trkpt lat="47.2101040" lon="6.8956990">
        <ele>603.5</ele>
        <time>2022-07-21T10:48:18Z</time>
      </trkpt>
      <trkpt lat="47.2100960" lon="6.8956800">
        <ele>603.7</ele>
        <time>2022-07-21T10:48:19Z</time>
      </trkpt>
      <trkpt lat="47.2100900" lon="6.8956650">
        <ele>603.9</ele>
        <time>2022-07-21T10:48:20Z</time>
      </trkpt>
      <trkpt lat="47.2100810" lon="6.8956520">
        <ele>604.1</ele>
        <time>2022-07-21T10:48:21Z</time>
      </trkpt>
      <trkpt lat="47.2100680" lon="6.8956350">
        <ele>604.4</ele>
        <time>2022-07-21T10:48:23Z</time>
      </trkpt>
      <trkpt lat="47.2100560" lon="6.8955940">
        <ele>604.8</ele>
        <time>2022-07-21T10:48:24Z</time>
      </trkpt>
      <trkpt lat="47.2100540" lon="6.8955820">
        <ele>604.9</ele>
        <time>2022-07-21T10:48:25Z</time>
      </trkpt>
      <trkpt lat="47.2100520" lon="6.8955580">
        <ele>605.2</ele>
        <time>2022-07-21T10:48:27Z</time>
      </trkpt>
      <trkpt lat="47.2100550" lon="6.8955360">
        <ele>605.4</ele>
        <time>2022-07-21T10:48:28Z</time>
      </trkpt>
      <trkpt lat="47.2100560" lon="6.8955040">
        <ele>605.7</ele>
        <time>2022-07-21T10:48:30Z</time>
      </trkpt>
      <trkpt lat="47.2100580" lon="6.8954910">
        <ele>605.8</ele>
        <time>2022-07-21T10:48:31Z</time>
      </trkpt>
      <trkpt lat="47.2100590" lon="6.8954790">
        <ele>605.9</ele>
        <time>2022-07-21T10:48:32Z</time>
      </trkpt>
      <trkpt lat="47.2100610" lon="6.8954610">
        <ele>606.0</ele>
        <time>2022-07-21T10:48:33Z</time>
      </trkpt>
      <trkpt lat="47.2100620" lon="6.8954460">
        <ele>606.2</ele>
        <time>2022-07-21T10:48:34Z</time>
      </trkpt>
      <trkpt lat="47.2100620" lon="6.8954320">
        <ele>606.3</ele>
        <time>2022-07-21T10:48:35Z</time>
      </trkpt>
      <trkpt lat="47.2100620" lon="6.8954110">
        <ele>606.4</ele>
        <time>2022-07-21T10:48:36Z</time>
      </trkpt>
      <trkpt lat="47.2100580" lon="6.8953890">
        <ele>606.6</ele>
        <time>2022-07-21T10:48:37Z</time>
      </trkpt>
      <trkpt lat="47.2100560" lon="6.8953730">
        <ele>606.7</ele>
        <time>2022-07-21T10:48:38Z</time>
      </trkpt>
      <trkpt lat="47.2100520" lon="6.8953400">
        <ele>606.9</ele>
        <time>2022-07-21T10:48:40Z</time>
      </trkpt>
      <trkpt lat="47.2100480" lon="6.8953250">
        <ele>607.0</ele>
        <time>2022-07-21T10:48:41Z</time>
      </trkpt>
      <trkpt lat="47.2100390" lon="6.8953010">
        <ele>607.2</ele>
        <time>2022-07-21T10:48:43Z</time>
      </trkpt>
      <trkpt lat="47.2100390" lon="6.8952970">
        <ele>607.2</ele>
        <time>2022-07-21T10:48:44Z</time>
      </trkpt>
      <trkpt lat="47.2100350" lon="6.8952900">
        <ele>607.3</ele>
        <time>2022-07-21T10:48:45Z</time>
      </trkpt>
      <trkpt lat="47.2100240" lon="6.8952630">
        <ele>607.4</ele>
        <time>2022-07-21T10:48:46Z</time>
      </trkpt>
      <trkpt lat="47.2100160" lon="6.8952140">
        <ele>607.7</ele>
        <time>2022-07-21T10:48:47Z</time>
      </trkpt>
      <trkpt lat="47.2100150" lon="6.8952000">
        <ele>607.7</ele>
        <time>2022-07-21T10:48:48Z</time>
      </trkpt>
      <trkpt lat="47.2100160" lon="6.8951800">
        <ele>607.8</ele>
        <time>2022-07-21T10:48:50Z</time>
      </trkpt>
      <trkpt lat="47.2100110" lon="6.8951610">
        <ele>607.9</ele>
        <time>2022-07-21T10:48:51Z</time>
      </trkpt>
      <trkpt lat="47.2099920" lon="6.8951090">
        <ele>608.1</ele>
        <time>2022-07-21T10:48:53Z</time>
      </trkpt>
      <trkpt lat="47.2099830" lon="6.8950890">
        <ele>608.2</ele>
        <time>2022-07-21T10:48:55Z</time>
      </trkpt>
      <trkpt lat="47.2099710" lon="6.8950510">
        <ele>608.3</ele>
        <time>2022-07-21T10:48:56Z</time>
      </trkpt>
      <trkpt lat="47.2099600" lon="6.8950030">
        <ele>608.5</ele>
        <time>2022-07-21T10:48:57Z</time>
      </trkpt>
      <trkpt lat="47.2099590" lon="6.8949860">
        <ele>608.6</ele>
        <time>2022-07-21T10:48:58Z</time>
      </trkpt>
      <trkpt lat="47.2099550" lon="6.8949600">
        <ele>608.7</ele>
        <time>2022-07-21T10:48:59Z</time>
      </trkpt>
      <trkpt lat="47.2099470" lon="6.8949390">
        <ele>608.8</ele>
        <time>2022-07-21T10:49:00Z</time>
      </trkpt>
      <trkpt lat="47.2099440" lon="6.8949270">
        <ele>608.8</ele>
        <time>2022-07-21T10:49:02Z</time>
      </trkpt>
      <trkpt lat="47.2099470" lon="6.8949270">
        <ele>608.8</ele>
        <time>2022-07-21T10:49:03Z</time>
      </trkpt>
      <trkpt lat="47.2099440" lon="6.8949120">
        <ele>608.9</ele>
        <time>2022-07-21T10:49:04Z</time>
      </trkpt>
      <trkpt lat="47.2099360" lon="6.8948900">
        <ele>609.0</ele>
        <time>2022-07-21T10:49:05Z</time>
      </trkpt>
      <trkpt lat="47.2099250" lon="6.8948690">
        <ele>609.1</ele>
        <time>2022-07-21T10:49:06Z</time>
      </trkpt>
      <trkpt lat="47.2099080" lon="6.8948340">
        <ele>609.2</ele>
        <time>2022-07-21T10:49:07Z</time>
      </trkpt>
      <trkpt lat="47.2099030" lon="6.8948220">
        <ele>609.3</ele>
        <time>2022-07-21T10:49:08Z</time>
      </trkpt>
      <trkpt lat="47.2098800" lon="6.8947820">
        <ele>609.4</ele>
        <time>2022-07-21T10:49:10Z</time>
      </trkpt>
      <trkpt lat="47.2098710" lon="6.8947720">
        <ele>609.5</ele>
        <time>2022-07-21T10:49:11Z</time>
      </trkpt>
      <trkpt lat="47.2098390" lon="6.8947370">
        <ele>609.6</ele>
        <time>2022-07-21T10:49:12Z</time>
      </trkpt>
      <trkpt lat="47.2098250" lon="6.8947220">
        <ele>609.7</ele>
        <time>2022-07-21T10:49:13Z</time>
      </trkpt>
      <trkpt lat="47.2097880" lon="6.8946810">
        <ele>609.8</ele>
        <time>2022-07-21T10:49:15Z</time>
      </trkpt>
      <trkpt lat="47.2097640" lon="6.8946530">
        <ele>609.8</ele>
        <time>2022-07-21T10:49:16Z</time>
      </trkpt>
      <trkpt lat="47.2097560" lon="6.8946470">
        <ele>609.8</ele>
        <time>2022-07-21T10:49:17Z</time>
      </trkpt>
      <trkpt lat="47.2097520" lon="6.8946440">
        <ele>609.9</ele>
        <time>2022-07-21T10:49:18Z</time>
      </trkpt>
      <trkpt lat="47.2097470" lon="6.8946370">
        <ele>609.9</ele>
        <time>2022-07-21T10:49:19Z</time>
      </trkpt>
      <trkpt lat="47.2097440" lon="6.8946330">
        <ele>609.9</ele>
        <time>2022-07-21T10:49:20Z</time>
      </trkpt>
      <trkpt lat="47.2097410" lon="6.8946290">
        <ele>609.9</ele>
        <time>2022-07-21T10:49:21Z</time>
      </trkpt>
      <trkpt lat="47.2097380" lon="6.8946250">
        <ele>609.9</ele>
        <time>2022-07-21T10:49:22Z</time>
      </trkpt>
      <trkpt lat="47.2097340" lon="6.8946200">
        <ele>609.9</ele>
        <time>2022-07-21T10:49:23Z</time>
      </trkpt>
      <trkpt lat="47.2097310" lon="6.8946160">
        <ele>609.9</ele>
        <time>2022-07-21T10:49:24Z</time>
      </trkpt>
      <trkpt lat="47.2097260" lon="6.8946090">
        <ele>609.9</ele>
        <time>2022-07-21T10:49:25Z</time>
      </trkpt>
      <trkpt lat="47.2097230" lon="6.8946050">
        <ele>609.9</ele>
        <time>2022-07-21T10:49:26Z</time>
      </trkpt>
      <trkpt lat="47.2097200" lon="6.8946020">
        <ele>609.9</ele>
        <time>2022-07-21T10:49:27Z</time>
      </trkpt>
      <trkpt lat="47.2097180" lon="6.8945990">
        <ele>609.9</ele>
        <time>2022-07-21T10:49:28Z</time>
      </trkpt>
      <trkpt lat="47.2097160" lon="6.8945960">
        <ele>609.9</ele>
        <time>2022-07-21T10:49:29Z</time>
      </trkpt>
      <trkpt lat="47.2097130" lon="6.8945920">
        <ele>609.9</ele>
        <time>2022-07-21T10:49:30Z</time>
      </trkpt>
      <trkpt lat="47.2097090" lon="6.8945840">
        <ele>609.9</ele>
        <time>2022-07-21T10:49:31Z</time>
      </trkpt>
      <trkpt lat="47.2097040" lon="6.8945760">
        <ele>609.9</ele>
        <time>2022-07-21T10:49:32Z</time>
      </trkpt>
      <trkpt lat="47.2096980" lon="6.8945680">
        <ele>609.9</ele>
        <time>2022-07-21T10:49:33Z</time>
      </trkpt>
      <trkpt lat="47.2096890" lon="6.8945520">
        <ele>609.9</ele>
        <time>2022-07-21T10:49:35Z</time>
      </trkpt>
      <trkpt lat="47.2096820" lon="6.8945440">
        <ele>609.9</ele>
        <time>2022-07-21T10:49:36Z</time>
      </trkpt>
      <trkpt lat="47.2096830" lon="6.8945440">
        <ele>609.9</ele>
        <time>2022-07-21T10:49:37Z</time>
      </trkpt>
      <trkpt lat="47.2096840" lon="6.8945420">
        <ele>609.9</ele>
        <time>2022-07-21T10:49:38Z</time>
      </trkpt>
      <trkpt lat="47.2096830" lon="6.8945400">
        <ele>609.9</ele>
        <time>2022-07-21T10:49:39Z</time>
      </trkpt>
      <trkpt lat="47.2096830" lon="6.8945370">
        <ele>609.9</ele>
        <time>2022-07-21T10:49:40Z</time>
      </trkpt>
      <trkpt lat="47.2096820" lon="6.8945350">
        <ele>609.9</ele>
        <time>2022-07-21T10:49:41Z</time>
      </trkpt>
      <trkpt lat="47.2096810" lon="6.8945330">
        <ele>609.9</ele>
        <time>2022-07-21T10:49:42Z</time>
      </trkpt>
      <trkpt lat="47.2096810" lon="6.8945310">
        <ele>609.9</ele>
        <time>2022-07-21T10:49:43Z</time>
      </trkpt>
      <trkpt lat="47.2096790" lon="6.8945250">
        <ele>609.9</ele>
        <time>2022-07-21T10:49:44Z</time>
      </trkpt>
      <trkpt lat="47.2096760" lon="6.8945180">
        <ele>609.9</ele>
        <time>2022-07-21T10:49:45Z</time>
      </trkpt>
      <trkpt lat="47.2096590" lon="6.8944850">
        <ele>609.9</ele>
        <time>2022-07-21T10:49:46Z</time>
      </trkpt>
      <trkpt lat="47.2096480" lon="6.8944630">
        <ele>609.8</ele>
        <time>2022-07-21T10:49:48Z</time>
      </trkpt>
      <trkpt lat="47.2096370" lon="6.8944420">
        <ele>609.8</ele>
        <time>2022-07-21T10:49:49Z</time>
      </trkpt>
      <trkpt lat="47.2096130" lon="6.8944060">
        <ele>609.8</ele>
        <time>2022-07-21T10:49:51Z</time>
      </trkpt>
      <trkpt lat="47.2095880" lon="6.8943710">
        <ele>609.8</ele>
        <time>2022-07-21T10:49:52Z</time>
      </trkpt>
      <trkpt lat="47.2095640" lon="6.8943450">
        <ele>609.7</ele>
        <time>2022-07-21T10:49:53Z</time>
      </trkpt>
      <trkpt lat="47.2095390" lon="6.8943210">
        <ele>609.7</ele>
        <time>2022-07-21T10:49:54Z</time>
      </trkpt>
      <trkpt lat="47.2095270" lon="6.8943040">
        <ele>609.7</ele>
        <time>2022-07-21T10:49:55Z</time>
      </trkpt>
      <trkpt lat="47.2095080" lon="6.8942770">
        <ele>609.6</ele>
        <time>2022-07-21T10:49:57Z</time>
      </trkpt>
      <trkpt lat="47.2094910" lon="6.8942320">
        <ele>609.6</ele>
        <time>2022-07-21T10:49:58Z</time>
      </trkpt>
      <trkpt lat="47.2094830" lon="6.8942080">
        <ele>609.5</ele>
        <time>2022-07-21T10:49:59Z</time>
      </trkpt>
      <trkpt lat="47.2094690" lon="6.8941400">
        <ele>609.4</ele>
        <time>2022-07-21T10:50:01Z</time>
      </trkpt>
      <trkpt lat="47.2094500" lon="6.8940880">
        <ele>609.3</ele>
        <time>2022-07-21T10:50:02Z</time>
      </trkpt>
      <trkpt lat="47.2094430" lon="6.8940720">
        <ele>609.2</ele>
        <time>2022-07-21T10:50:03Z</time>
      </trkpt>
      <trkpt lat="47.2094240" lon="6.8940280">
        <ele>609.1</ele>
        <time>2022-07-21T10:50:04Z</time>
      </trkpt>
      <trkpt lat="47.2094190" lon="6.8939890">
        <ele>609.1</ele>
        <time>2022-07-21T10:50:05Z</time>
      </trkpt>
      <trkpt lat="47.2094090" lon="6.8939270">
        <ele>609.0</ele>
        <time>2022-07-21T10:50:07Z</time>
      </trkpt>
      <trkpt lat="47.2094000" lon="6.8938660">
        <ele>608.9</ele>
        <time>2022-07-21T10:50:08Z</time>
      </trkpt>
      <trkpt lat="47.2093880" lon="6.8938190">
        <ele>608.9</ele>
        <time>2022-07-21T10:50:09Z</time>
      </trkpt>
      <trkpt lat="47.2093830" lon="6.8938030">
        <ele>608.9</ele>
        <time>2022-07-21T10:50:10Z</time>
      </trkpt>
      <trkpt lat="47.2093670" lon="6.8937500">
        <ele>608.9</ele>
        <time>2022-07-21T10:50:11Z</time>
      </trkpt>
      <trkpt lat="47.2093600" lon="6.8937310">
        <ele>609.0</ele>
        <time>2022-07-21T10:50:12Z</time>
      </trkpt>
      <trkpt lat="47.2093390" lon="6.8936860">
        <ele>609.0</ele>
        <time>2022-07-21T10:50:13Z</time>
      </trkpt>
      <trkpt lat="47.2093330" lon="6.8936740">
        <ele>609.0</ele>
        <time>2022-07-21T10:50:14Z</time>
      </trkpt>
      <trkpt lat="47.2093120" lon="6.8936240">
        <ele>609.1</ele>
        <time>2022-07-21T10:50:15Z</time>
      </trkpt>
      <trkpt lat="47.2092990" lon="6.8935890">
        <ele>609.2</ele>
        <time>2022-07-21T10:50:16Z</time>
      </trkpt>
      <trkpt lat="47.2092880" lon="6.8935500">
        <ele>609.3</ele>
        <time>2022-07-21T10:50:17Z</time>
      </trkpt>
      <trkpt lat="47.2092650" lon="6.8934880">
        <ele>609.5</ele>
        <time>2022-07-21T10:50:19Z</time>
      </trkpt>
      <trkpt lat="47.2092550" lon="6.8934680">
        <ele>609.6</ele>
        <time>2022-07-21T10:50:20Z</time>
      </trkpt>
      <trkpt lat="47.2092450" lon="6.8934470">
        <ele>609.7</ele>
        <time>2022-07-21T10:50:21Z</time>
      </trkpt>
      <trkpt lat="47.2092320" lon="6.8934090">
        <ele>609.9</ele>
        <time>2022-07-21T10:50:22Z</time>
      </trkpt>
      <trkpt lat="47.2092220" lon="6.8933570">
        <ele>610.1</ele>
        <time>2022-07-21T10:50:23Z</time>
      </trkpt>
      <trkpt lat="47.2092190" lon="6.8933400">
        <ele>610.1</ele>
        <time>2022-07-21T10:50:24Z</time>
      </trkpt>
      <trkpt lat="47.2092080" lon="6.8932920">
        <ele>610.3</ele>
        <time>2022-07-21T10:50:25Z</time>
      </trkpt>
      <trkpt lat="47.2092040" lon="6.8932760">
        <ele>610.4</ele>
        <time>2022-07-21T10:50:26Z</time>
      </trkpt>
      <trkpt lat="47.2091910" lon="6.8932250">
        <ele>610.6</ele>
        <time>2022-07-21T10:50:27Z</time>
      </trkpt>
      <trkpt lat="47.2091870" lon="6.8932100">
        <ele>610.7</ele>
        <time>2022-07-21T10:50:28Z</time>
      </trkpt>
      <trkpt lat="47.2091780" lon="6.8931890">
        <ele>610.8</ele>
        <time>2022-07-21T10:50:29Z</time>
      </trkpt>
      <trkpt lat="47.2091720" lon="6.8931760">
        <ele>610.9</ele>
        <time>2022-07-21T10:50:30Z</time>
      </trkpt>
      <trkpt lat="47.2091670" lon="6.8931310">
        <ele>611.1</ele>
        <time>2022-07-21T10:50:31Z</time>
      </trkpt>
      <trkpt lat="47.2091650" lon="6.8931170">
        <ele>611.1</ele>
        <time>2022-07-21T10:50:32Z</time>
      </trkpt>
      <trkpt lat="47.2091590" lon="6.8930970">
        <ele>611.2</ele>
        <time>2022-07-21T10:50:33Z</time>
      </trkpt>
      <trkpt lat="47.2091500" lon="6.8930690">
        <ele>611.4</ele>
        <time>2022-07-21T10:50:34Z</time>
      </trkpt>
      <trkpt lat="47.2091270" lon="6.8930160">
        <ele>611.6</ele>
        <time>2022-07-21T10:50:35Z</time>
      </trkpt>
      <trkpt lat="47.2091150" lon="6.8929960">
        <ele>611.7</ele>
        <time>2022-07-21T10:50:36Z</time>
      </trkpt>
      <trkpt lat="47.2090860" lon="6.8929600">
        <ele>612.0</ele>
        <time>2022-07-21T10:50:38Z</time>
      </trkpt>
      <trkpt lat="47.2090760" lon="6.8929400">
        <ele>612.1</ele>
        <time>2022-07-21T10:50:39Z</time>
      </trkpt>
      <trkpt lat="47.2090700" lon="6.8929260">
        <ele>612.2</ele>
        <time>2022-07-21T10:50:40Z</time>
      </trkpt>
      <trkpt lat="47.2090560" lon="6.8928900">
        <ele>612.4</ele>
        <time>2022-07-21T10:50:41Z</time>
      </trkpt>
      <trkpt lat="47.2090490" lon="6.8928680">
        <ele>612.6</ele>
        <time>2022-07-21T10:50:42Z</time>
      </trkpt>
      <trkpt lat="47.2090460" lon="6.8928360">
        <ele>612.7</ele>
        <time>2022-07-21T10:50:44Z</time>
      </trkpt>
      <trkpt lat="47.2090430" lon="6.8927890">
        <ele>613.0</ele>
        <time>2022-07-21T10:50:45Z</time>
      </trkpt>
      <trkpt lat="47.2090400" lon="6.8927650">
        <ele>613.2</ele>
        <time>2022-07-21T10:50:46Z</time>
      </trkpt>
      <trkpt lat="47.2090360" lon="6.8927390">
        <ele>613.3</ele>
        <time>2022-07-21T10:50:47Z</time>
      </trkpt>
      <trkpt lat="47.2090340" lon="6.8927150">
        <ele>613.5</ele>
        <time>2022-07-21T10:50:49Z</time>
      </trkpt>
      <trkpt lat="47.2090320" lon="6.8926950">
        <ele>613.7</ele>
        <time>2022-07-21T10:50:50Z</time>
      </trkpt>
      <trkpt lat="47.2090330" lon="6.8926800">
        <ele>613.8</ele>
        <time>2022-07-21T10:50:51Z</time>
      </trkpt>
      <trkpt lat="47.2090340" lon="6.8926650">
        <ele>613.9</ele>
        <time>2022-07-21T10:50:52Z</time>
      </trkpt>
      <trkpt lat="47.2090350" lon="6.8926520">
        <ele>614.0</ele>
        <time>2022-07-21T10:50:53Z</time>
      </trkpt>
      <trkpt lat="47.2090380" lon="6.8926390">
        <ele>614.1</ele>
        <time>2022-07-21T10:50:55Z</time>
      </trkpt>
      <trkpt lat="47.2090400" lon="6.8926190">
        <ele>614.3</ele>
        <time>2022-07-21T10:50:56Z</time>
      </trkpt>
      <trkpt lat="47.2090420" lon="6.8925950">
        <ele>614.5</ele>
        <time>2022-07-21T10:50:57Z</time>
      </trkpt>
      <trkpt lat="47.2090440" lon="6.8925710">
        <ele>614.7</ele>
        <time>2022-07-21T10:50:58Z</time>
      </trkpt>
      <trkpt lat="47.2090460" lon="6.8925510">
        <ele>614.9</ele>
        <time>2022-07-21T10:50:59Z</time>
      </trkpt>
      <trkpt lat="47.2090480" lon="6.8925320">
        <ele>615.0</ele>
        <time>2022-07-21T10:51:01Z</time>
      </trkpt>
      <trkpt lat="47.2090500" lon="6.8925050">
        <ele>615.3</ele>
        <time>2022-07-21T10:51:02Z</time>
      </trkpt>
      <trkpt lat="47.2090510" lon="6.8924860">
        <ele>615.5</ele>
        <time>2022-07-21T10:51:04Z</time>
      </trkpt>
      <trkpt lat="47.2090520" lon="6.8924640">
        <ele>615.7</ele>
        <time>2022-07-21T10:51:05Z</time>
      </trkpt>
      <trkpt lat="47.2090540" lon="6.8924430">
        <ele>615.9</ele>
        <time>2022-07-21T10:51:06Z</time>
      </trkpt>
      <trkpt lat="47.2090570" lon="6.8924270">
        <ele>616.1</ele>
        <time>2022-07-21T10:51:07Z</time>
      </trkpt>
      <trkpt lat="47.2090610" lon="6.8923990">
        <ele>616.4</ele>
        <time>2022-07-21T10:51:09Z</time>
      </trkpt>
      <trkpt lat="47.2090660" lon="6.8923770">
        <ele>616.7</ele>
        <time>2022-07-21T10:51:10Z</time>
      </trkpt>
      <trkpt lat="47.2090690" lon="6.8923640">
        <ele>616.8</ele>
        <time>2022-07-21T10:51:11Z</time>
      </trkpt>
      <trkpt lat="47.2090700" lon="6.8923500">
        <ele>617.0</ele>
        <time>2022-07-21T10:51:12Z</time>
      </trkpt>
      <trkpt lat="47.2090710" lon="6.8923360">
        <ele>617.1</ele>
        <time>2022-07-21T10:51:13Z</time>
      </trkpt>
      <trkpt lat="47.2090710" lon="6.8923160">
        <ele>617.4</ele>
        <time>2022-07-21T10:51:15Z</time>
      </trkpt>
      <trkpt lat="47.2090700" lon="6.8923020">
        <ele>617.5</ele>
        <time>2022-07-21T10:51:16Z</time>
      </trkpt>
      <trkpt lat="47.2090690" lon="6.8922920">
        <ele>617.6</ele>
        <time>2022-07-21T10:51:17Z</time>
      </trkpt>
      <trkpt lat="47.2090670" lon="6.8922700">
        <ele>617.9</ele>
        <time>2022-07-21T10:51:18Z</time>
      </trkpt>
      <trkpt lat="47.2090660" lon="6.8922500">
        <ele>618.1</ele>
        <time>2022-07-21T10:51:20Z</time>
      </trkpt>
      <trkpt lat="47.2090650" lon="6.8922350">
        <ele>618.3</ele>
        <time>2022-07-21T10:51:21Z</time>
      </trkpt>
      <trkpt lat="47.2090660" lon="6.8922150">
        <ele>618.5</ele>
        <time>2022-07-21T10:51:23Z</time>
      </trkpt>
      <trkpt lat="47.2090650" lon="6.8922080">
        <ele>618.6</ele>
        <time>2022-07-21T10:51:24Z</time>
      </trkpt>
      <trkpt lat="47.2090650" lon="6.8921910">
        <ele>618.8</ele>
        <time>2022-07-21T10:51:25Z</time>
      </trkpt>
      <trkpt lat="47.2090650" lon="6.8921800">
        <ele>618.9</ele>
        <time>2022-07-21T10:51:26Z</time>
      </trkpt>
      <trkpt lat="47.2090640" lon="6.8921680">
        <ele>619.1</ele>
        <time>2022-07-21T10:51:27Z</time>
      </trkpt>
      <trkpt lat="47.2090650" lon="6.8921560">
        <ele>619.2</ele>
        <time>2022-07-21T10:51:28Z</time>
      </trkpt>
      <trkpt lat="47.2090650" lon="6.8921450">
        <ele>619.3</ele>
        <time>2022-07-21T10:51:29Z</time>
      </trkpt>
      <trkpt lat="47.2090660" lon="6.8921320">
        <ele>619.5</ele>
        <time>2022-07-21T10:51:30Z</time>
      </trkpt>
      <trkpt lat="47.2090670" lon="6.8921180">
        <ele>619.7</ele>
        <time>2022-07-21T10:51:31Z</time>
      </trkpt>
      <trkpt lat="47.2090670" lon="6.8921030">
        <ele>619.8</ele>
        <time>2022-07-21T10:51:32Z</time>
      </trkpt>
      <trkpt lat="47.2090690" lon="6.8920950">
        <ele>619.9</ele>
        <time>2022-07-21T10:51:33Z</time>
      </trkpt>
      <trkpt lat="47.2090690" lon="6.8920760">
        <ele>620.2</ele>
        <time>2022-07-21T10:51:34Z</time>
      </trkpt>
      <trkpt lat="47.2090680" lon="6.8920600">
        <ele>620.4</ele>
        <time>2022-07-21T10:51:36Z</time>
      </trkpt>
      <trkpt lat="47.2090680" lon="6.8920470">
        <ele>620.5</ele>
        <time>2022-07-21T10:51:37Z</time>
      </trkpt>
      <trkpt lat="47.2090680" lon="6.8920340">
        <ele>620.7</ele>
        <time>2022-07-21T10:51:38Z</time>
      </trkpt>
      <trkpt lat="47.2090660" lon="6.8920140">
        <ele>620.9</ele>
        <time>2022-07-21T10:51:39Z</time>
      </trkpt>
      <trkpt lat="47.2090650" lon="6.8919960">
        <ele>621.1</ele>
        <time>2022-07-21T10:51:40Z</time>
      </trkpt>
      <trkpt lat="47.2090620" lon="6.8919760">
        <ele>621.3</ele>
        <time>2022-07-21T10:51:42Z</time>
      </trkpt>
      <trkpt lat="47.2090630" lon="6.8919670">
        <ele>621.5</ele>
        <time>2022-07-21T10:51:43Z</time>
      </trkpt>
      <trkpt lat="47.2090620" lon="6.8919570">
        <ele>621.6</ele>
        <time>2022-07-21T10:51:44Z</time>
      </trkpt>
      <trkpt lat="47.2090610" lon="6.8919470">
        <ele>621.7</ele>
        <time>2022-07-21T10:51:45Z</time>
      </trkpt>
      <trkpt lat="47.2090590" lon="6.8919310">
        <ele>621.9</ele>
        <time>2022-07-21T10:51:46Z</time>
      </trkpt>
      <trkpt lat="47.2090570" lon="6.8919180">
        <ele>622.0</ele>
        <time>2022-07-21T10:51:47Z</time>
      </trkpt>
      <trkpt lat="47.2090570" lon="6.8919120">
        <ele>622.1</ele>
        <time>2022-07-21T10:51:48Z</time>
      </trkpt>
      <trkpt lat="47.2090570" lon="6.8919050">
        <ele>622.2</ele>
        <time>2022-07-21T10:51:50Z</time>
      </trkpt>
      <trkpt lat="47.2090550" lon="6.8918970">
        <ele>622.3</ele>
        <time>2022-07-21T10:51:51Z</time>
      </trkpt>
      <trkpt lat="47.2090530" lon="6.8918910">
        <ele>622.4</ele>
        <time>2022-07-21T10:51:52Z</time>
      </trkpt>
      <trkpt lat="47.2090480" lon="6.8918780">
        <ele>622.5</ele>
        <time>2022-07-21T10:51:53Z</time>
      </trkpt>
      <trkpt lat="47.2090410" lon="6.8918630">
        <ele>622.8</ele>
        <time>2022-07-21T10:51:54Z</time>
      </trkpt>
      <trkpt lat="47.2090330" lon="6.8918460">
        <ele>623.0</ele>
        <time>2022-07-21T10:51:56Z</time>
      </trkpt>
      <trkpt lat="47.2090270" lon="6.8918350">
        <ele>623.2</ele>
        <time>2022-07-21T10:51:57Z</time>
      </trkpt>
      <trkpt lat="47.2090200" lon="6.8918220">
        <ele>623.4</ele>
        <time>2022-07-21T10:51:58Z</time>
      </trkpt>
      <trkpt lat="47.2090120" lon="6.8918100">
        <ele>623.6</ele>
        <time>2022-07-21T10:51:59Z</time>
      </trkpt>
      <trkpt lat="47.2089990" lon="6.8917860">
        <ele>624.1</ele>
        <time>2022-07-21T10:52:01Z</time>
      </trkpt>
      <trkpt lat="47.2089930" lon="6.8917770">
        <ele>624.2</ele>
        <time>2022-07-21T10:52:02Z</time>
      </trkpt>
      <trkpt lat="47.2089870" lon="6.8917680">
        <ele>624.4</ele>
        <time>2022-07-21T10:52:03Z</time>
      </trkpt>
      <trkpt lat="47.2089820" lon="6.8917610">
        <ele>624.5</ele>
        <time>2022-07-21T10:52:04Z</time>
      </trkpt>
      <trkpt lat="47.2089740" lon="6.8917520">
        <ele>624.8</ele>
        <time>2022-07-21T10:52:05Z</time>
      </trkpt>
      <trkpt lat="47.2089650" lon="6.8917440">
        <ele>625.0</ele>
        <time>2022-07-21T10:52:06Z</time>
      </trkpt>
      <trkpt lat="47.2089560" lon="6.8917350">
        <ele>625.2</ele>
        <time>2022-07-21T10:52:08Z</time>
      </trkpt>
      <trkpt lat="47.2089380" lon="6.8917210">
        <ele>625.7</ele>
        <time>2022-07-21T10:52:10Z</time>
      </trkpt>
      <trkpt lat="47.2089270" lon="6.8917120">
        <ele>625.9</ele>
        <time>2022-07-21T10:52:12Z</time>
      </trkpt>
      <trkpt lat="47.2089160" lon="6.8916990">
        <ele>626.2</ele>
        <time>2022-07-21T10:52:13Z</time>
      </trkpt>
      <trkpt lat="47.2089090" lon="6.8916900">
        <ele>626.5</ele>
        <time>2022-07-21T10:52:14Z</time>
      </trkpt>
      <trkpt lat="47.2088870" lon="6.8916740">
        <ele>627.0</ele>
        <time>2022-07-21T10:52:16Z</time>
      </trkpt>
      <trkpt lat="47.2088790" lon="6.8916750">
        <ele>627.2</ele>
        <time>2022-07-21T10:52:17Z</time>
      </trkpt>
      <trkpt lat="47.2088700" lon="6.8916730">
        <ele>627.4</ele>
        <time>2022-07-21T10:52:18Z</time>
      </trkpt>
      <trkpt lat="47.2088640" lon="6.8916690">
        <ele>627.6</ele>
        <time>2022-07-21T10:52:20Z</time>
      </trkpt>
      <trkpt lat="47.2088590" lon="6.8916650">
        <ele>627.7</ele>
        <time>2022-07-21T10:52:21Z</time>
      </trkpt>
      <trkpt lat="47.2088550" lon="6.8916600">
        <ele>627.8</ele>
        <time>2022-07-21T10:52:22Z</time>
      </trkpt>
      <trkpt lat="47.2088500" lon="6.8916500">
        <ele>628.0</ele>
        <time>2022-07-21T10:52:23Z</time>
      </trkpt>
      <trkpt lat="47.2088470" lon="6.8916450">
        <ele>628.1</ele>
        <time>2022-07-21T10:52:24Z</time>
      </trkpt>
      <trkpt lat="47.2088450" lon="6.8916400">
        <ele>628.2</ele>
        <time>2022-07-21T10:52:25Z</time>
      </trkpt>
      <trkpt lat="47.2088430" lon="6.8916380">
        <ele>628.3</ele>
        <time>2022-07-21T10:52:26Z</time>
      </trkpt>
      <trkpt lat="47.2088430" lon="6.8916370">
        <ele>628.3</ele>
        <time>2022-07-21T10:52:27Z</time>
      </trkpt>
      <trkpt lat="47.2088420" lon="6.8916370">
        <ele>628.3</ele>
        <time>2022-07-21T10:52:28Z</time>
      </trkpt>
      <trkpt lat="47.2088410" lon="6.8916340">
        <ele>628.4</ele>
        <time>2022-07-21T10:52:29Z</time>
      </trkpt>
      <trkpt lat="47.2088400" lon="6.8916330">
        <ele>628.4</ele>
        <time>2022-07-21T10:52:30Z</time>
      </trkpt>
      <trkpt lat="47.2088390" lon="6.8916300">
        <ele>628.5</ele>
        <time>2022-07-21T10:52:31Z</time>
      </trkpt>
      <trkpt lat="47.2088370" lon="6.8916280">
        <ele>628.5</ele>
        <time>2022-07-21T10:52:32Z</time>
      </trkpt>
      <trkpt lat="47.2088360" lon="6.8916270">
        <ele>628.5</ele>
        <time>2022-07-21T10:52:33Z</time>
      </trkpt>
      <trkpt lat="47.2088350" lon="6.8916260">
        <ele>628.6</ele>
        <time>2022-07-21T10:52:34Z</time>
      </trkpt>
      <trkpt lat="47.2088170" lon="6.8916130">
        <ele>629.0</ele>
        <time>2022-07-21T10:52:42Z</time>
      </trkpt>
      <trkpt lat="47.2088070" lon="6.8916080">
        <ele>629.3</ele>
        <time>2022-07-21T10:52:43Z</time>
      </trkpt>
      <trkpt lat="47.2088010" lon="6.8916050">
        <ele>629.4</ele>
        <time>2022-07-21T10:52:44Z</time>
      </trkpt>
      <trkpt lat="47.2087990" lon="6.8916040">
        <ele>629.5</ele>
        <time>2022-07-21T10:52:45Z</time>
      </trkpt>
      <trkpt lat="47.2087990" lon="6.8916040">
        <ele>629.5</ele>
        <time>2022-07-21T10:52:46Z</time>
      </trkpt>
      <trkpt lat="47.2088000" lon="6.8916050">
        <ele>629.5</ele>
        <time>2022-07-21T10:52:47Z</time>
      </trkpt>
      <trkpt lat="47.2088000" lon="6.8916050">
        <ele>629.5</ele>
        <time>2022-07-21T10:52:48Z</time>
      </trkpt>
      <trkpt lat="47.2088010" lon="6.8916050">
        <ele>629.5</ele>
        <time>2022-07-21T10:52:49Z</time>
      </trkpt>
      <trkpt lat="47.2088010" lon="6.8916050">
        <ele>629.5</ele>
        <time>2022-07-21T10:52:50Z</time>
      </trkpt>
      <trkpt lat="47.2088020" lon="6.8916050">
        <ele>629.5</ele>
        <time>2022-07-21T10:52:51Z</time>
      </trkpt>
      <trkpt lat="47.2088020" lon="6.8916050">
        <ele>629.5</ele>
        <time>2022-07-21T10:52:52Z</time>
      </trkpt>
      <trkpt lat="47.2088020" lon="6.8916050">
        <ele>629.5</ele>
        <time>2022-07-21T10:52:53Z</time>
      </trkpt>
      <trkpt lat="47.2088020" lon="6.8916050">
        <ele>629.5</ele>
        <time>2022-07-21T10:52:54Z</time>
      </trkpt>
      <trkpt lat="47.2088020" lon="6.8916050">
        <ele>629.5</ele>
        <time>2022-07-21T10:52:55Z</time>
      </trkpt>
      <trkpt lat="47.2087910" lon="6.8915950">
        <ele>629.8</ele>
        <time>2022-07-21T10:53:03Z</time>
      </trkpt>
      <trkpt lat="47.2087790" lon="6.8915870">
        <ele>630.1</ele>
        <time>2022-07-21T10:53:04Z</time>
      </trkpt>
      <trkpt lat="47.2087630" lon="6.8915700">
        <ele>630.5</ele>
        <time>2022-07-21T10:53:05Z</time>
      </trkpt>
      <trkpt lat="47.2087520" lon="6.8915580">
        <ele>630.8</ele>
        <time>2022-07-21T10:53:06Z</time>
      </trkpt>
      <trkpt lat="47.2087420" lon="6.8915440">
        <ele>631.0</ele>
        <time>2022-07-21T10:53:07Z</time>
      </trkpt>
      <trkpt lat="47.2087360" lon="6.8915350">
        <ele>631.2</ele>
        <time>2022-07-21T10:53:08Z</time>
      </trkpt>
      <trkpt lat="47.2087360" lon="6.8915260">
        <ele>631.3</ele>
        <time>2022-07-21T10:53:09Z</time>
      </trkpt>
      <trkpt lat="47.2087300" lon="6.8915190">
        <ele>631.4</ele>
        <time>2022-07-21T10:53:10Z</time>
      </trkpt>
      <trkpt lat="47.2087240" lon="6.8915120">
        <ele>631.5</ele>
        <time>2022-07-21T10:53:11Z</time>
      </trkpt>
      <trkpt lat="47.2087190" lon="6.8915050">
        <ele>631.7</ele>
        <time>2022-07-21T10:53:12Z</time>
      </trkpt>
      <trkpt lat="47.2087130" lon="6.8914980">
        <ele>631.8</ele>
        <time>2022-07-21T10:53:13Z</time>
      </trkpt>
      <trkpt lat="47.2087070" lon="6.8914910">
        <ele>631.9</ele>
        <time>2022-07-21T10:53:14Z</time>
      </trkpt>
      <trkpt lat="47.2086800" lon="6.8914450">
        <ele>632.8</ele>
        <time>2022-07-21T10:53:16Z</time>
      </trkpt>
      <trkpt lat="47.2086730" lon="6.8914240">
        <ele>633.1</ele>
        <time>2022-07-21T10:53:17Z</time>
      </trkpt>
      <trkpt lat="47.2086520" lon="6.8913570">
        <ele>634.0</ele>
        <time>2022-07-21T10:53:19Z</time>
      </trkpt>
      <trkpt lat="47.2086450" lon="6.8913360">
        <ele>634.3</ele>
        <time>2022-07-21T10:53:20Z</time>
      </trkpt>
      <trkpt lat="47.2086380" lon="6.8913150">
        <ele>634.6</ele>
        <time>2022-07-21T10:53:21Z</time>
      </trkpt>
      <trkpt lat="47.2086300" lon="6.8912930">
        <ele>635.0</ele>
        <time>2022-07-21T10:53:22Z</time>
      </trkpt>
      <trkpt lat="47.2086220" lon="6.8912700">
        <ele>635.3</ele>
        <time>2022-07-21T10:53:23Z</time>
      </trkpt>
      <trkpt lat="47.2086140" lon="6.8912570">
        <ele>635.5</ele>
        <time>2022-07-21T10:53:24Z</time>
      </trkpt>
      <trkpt lat="47.2086080" lon="6.8912480">
        <ele>635.7</ele>
        <time>2022-07-21T10:53:25Z</time>
      </trkpt>
      <trkpt lat="47.2086000" lon="6.8912350">
        <ele>635.9</ele>
        <time>2022-07-21T10:53:26Z</time>
      </trkpt>
      <trkpt lat="47.2085880" lon="6.8912060">
        <ele>636.4</ele>
        <time>2022-07-21T10:53:27Z</time>
      </trkpt>
      <trkpt lat="47.2085830" lon="6.8911940">
        <ele>636.5</ele>
        <time>2022-07-21T10:53:28Z</time>
      </trkpt>
      <trkpt lat="47.2085780" lon="6.8911820">
        <ele>636.7</ele>
        <time>2022-07-21T10:53:29Z</time>
      </trkpt>
      <trkpt lat="47.2085670" lon="6.8911650">
        <ele>637.0</ele>
        <time>2022-07-21T10:53:30Z</time>
      </trkpt>
      <trkpt lat="47.2085580" lon="6.8911510">
        <ele>637.3</ele>
        <time>2022-07-21T10:53:31Z</time>
      </trkpt>
      <trkpt lat="47.2085490" lon="6.8911330">
        <ele>637.6</ele>
        <time>2022-07-21T10:53:33Z</time>
      </trkpt>
      <trkpt lat="47.2085370" lon="6.8911160">
        <ele>637.9</ele>
        <time>2022-07-21T10:53:34Z</time>
      </trkpt>
      <trkpt lat="47.2085300" lon="6.8911080">
        <ele>638.1</ele>
        <time>2022-07-21T10:53:35Z</time>
      </trkpt>
      <trkpt lat="47.2085170" lon="6.8910870">
        <ele>638.4</ele>
        <time>2022-07-21T10:53:36Z</time>
      </trkpt>
      <trkpt lat="47.2085080" lon="6.8910700">
        <ele>638.7</ele>
        <time>2022-07-21T10:53:37Z</time>
      </trkpt>
      <trkpt lat="47.2085010" lon="6.8910590">
        <ele>638.9</ele>
        <time>2022-07-21T10:53:38Z</time>
      </trkpt>
      <trkpt lat="47.2084950" lon="6.8910480">
        <ele>639.1</ele>
        <time>2022-07-21T10:53:39Z</time>
      </trkpt>
      <trkpt lat="47.2084860" lon="6.8910320">
        <ele>639.3</ele>
        <time>2022-07-21T10:53:40Z</time>
      </trkpt>
      <trkpt lat="47.2084780" lon="6.8910160">
        <ele>639.6</ele>
        <time>2022-07-21T10:53:41Z</time>
      </trkpt>
      <trkpt lat="47.2084700" lon="6.8909940">
        <ele>639.9</ele>
        <time>2022-07-21T10:53:42Z</time>
      </trkpt>
      <trkpt lat="47.2084650" lon="6.8909790">
        <ele>640.1</ele>
        <time>2022-07-21T10:53:43Z</time>
      </trkpt>
      <trkpt lat="47.2084620" lon="6.8909630">
        <ele>640.3</ele>
        <time>2022-07-21T10:53:44Z</time>
      </trkpt>
      <trkpt lat="47.2084600" lon="6.8909520">
        <ele>640.4</ele>
        <time>2022-07-21T10:53:45Z</time>
      </trkpt>
      <trkpt lat="47.2084530" lon="6.8909350">
        <ele>640.6</ele>
        <time>2022-07-21T10:53:46Z</time>
      </trkpt>
      <trkpt lat="47.2084370" lon="6.8909090">
        <ele>641.1</ele>
        <time>2022-07-21T10:53:47Z</time>
      </trkpt>
      <trkpt lat="47.2084280" lon="6.8908970">
        <ele>641.3</ele>
        <time>2022-07-21T10:53:48Z</time>
      </trkpt>
      <trkpt lat="47.2084180" lon="6.8908850">
        <ele>641.5</ele>
        <time>2022-07-21T10:53:50Z</time>
      </trkpt>
      <trkpt lat="47.2084090" lon="6.8908730">
        <ele>641.7</ele>
        <time>2022-07-21T10:53:51Z</time>
      </trkpt>
      <trkpt lat="47.2084000" lon="6.8908610">
        <ele>641.9</ele>
        <time>2022-07-21T10:53:52Z</time>
      </trkpt>
      <trkpt lat="47.2083880" lon="6.8908480">
        <ele>642.1</ele>
        <time>2022-07-21T10:53:54Z</time>
      </trkpt>
      <trkpt lat="47.2083710" lon="6.8908370">
        <ele>642.4</ele>
        <time>2022-07-21T10:53:55Z</time>
      </trkpt>
      <trkpt lat="47.2083480" lon="6.8908250">
        <ele>642.9</ele>
        <time>2022-07-21T10:53:56Z</time>
      </trkpt>
      <trkpt lat="47.2083300" lon="6.8908120">
        <ele>643.2</ele>
        <time>2022-07-21T10:53:58Z</time>
      </trkpt>
      <trkpt lat="47.2083050" lon="6.8907830">
        <ele>643.7</ele>
        <time>2022-07-21T10:53:59Z</time>
      </trkpt>
      <trkpt lat="47.2082990" lon="6.8907770">
        <ele>643.9</ele>
        <time>2022-07-21T10:54:00Z</time>
      </trkpt>
      <trkpt lat="47.2082770" lon="6.8907450">
        <ele>644.4</ele>
        <time>2022-07-21T10:54:02Z</time>
      </trkpt>
      <trkpt lat="47.2082700" lon="6.8907340">
        <ele>644.6</ele>
        <time>2022-07-21T10:54:03Z</time>
      </trkpt>
      <trkpt lat="47.2082590" lon="6.8907130">
        <ele>644.9</ele>
        <time>2022-07-21T10:54:04Z</time>
      </trkpt>
      <trkpt lat="47.2082510" lon="6.8906910">
        <ele>645.1</ele>
        <time>2022-07-21T10:54:05Z</time>
      </trkpt>
      <trkpt lat="47.2082410" lon="6.8906550">
        <ele>645.6</ele>
        <time>2022-07-21T10:54:06Z</time>
      </trkpt>
      <trkpt lat="47.2082360" lon="6.8906390">
        <ele>645.8</ele>
        <time>2022-07-21T10:54:07Z</time>
      </trkpt>
      <trkpt lat="47.2082260" lon="6.8906000">
        <ele>646.2</ele>
        <time>2022-07-21T10:54:09Z</time>
      </trkpt>
      <trkpt lat="47.2082230" lon="6.8905880">
        <ele>646.4</ele>
        <time>2022-07-21T10:54:10Z</time>
      </trkpt>
      <trkpt lat="47.2082200" lon="6.8905620">
        <ele>646.7</ele>
        <time>2022-07-21T10:54:11Z</time>
      </trkpt>
      <trkpt lat="47.2082170" lon="6.8905480">
        <ele>646.8</ele>
        <time>2022-07-21T10:54:12Z</time>
      </trkpt>
      <trkpt lat="47.2082130" lon="6.8905370">
        <ele>646.9</ele>
        <time>2022-07-21T10:54:13Z</time>
      </trkpt>
      <trkpt lat="47.2082070" lon="6.8905220">
        <ele>647.1</ele>
        <time>2022-07-21T10:54:14Z</time>
      </trkpt>
      <trkpt lat="47.2082010" lon="6.8905100">
        <ele>647.3</ele>
        <time>2022-07-21T10:54:15Z</time>
      </trkpt>
      <trkpt lat="47.2081930" lon="6.8904890">
        <ele>647.5</ele>
        <time>2022-07-21T10:54:17Z</time>
      </trkpt>
      <trkpt lat="47.2081870" lon="6.8904710">
        <ele>647.7</ele>
        <time>2022-07-21T10:54:18Z</time>
      </trkpt>
      <trkpt lat="47.2081790" lon="6.8904490">
        <ele>648.0</ele>
        <time>2022-07-21T10:54:19Z</time>
      </trkpt>
      <trkpt lat="47.2081710" lon="6.8904340">
        <ele>648.2</ele>
        <time>2022-07-21T10:54:20Z</time>
      </trkpt>
      <trkpt lat="47.2081580" lon="6.8904080">
        <ele>648.5</ele>
        <time>2022-07-21T10:54:21Z</time>
      </trkpt>
      <trkpt lat="47.2081500" lon="6.8903940">
        <ele>648.7</ele>
        <time>2022-07-21T10:54:22Z</time>
      </trkpt>
      <trkpt lat="47.2081420" lon="6.8903800">
        <ele>648.8</ele>
        <time>2022-07-21T10:54:23Z</time>
      </trkpt>
      <trkpt lat="47.2081300" lon="6.8903620">
        <ele>649.1</ele>
        <time>2022-07-21T10:54:25Z</time>
      </trkpt>
      <trkpt lat="47.2081180" lon="6.8903450">
        <ele>649.3</ele>
        <time>2022-07-21T10:54:26Z</time>
      </trkpt>
      <trkpt lat="47.2081080" lon="6.8903290">
        <ele>649.5</ele>
        <time>2022-07-21T10:54:27Z</time>
      </trkpt>
      <trkpt lat="47.2081020" lon="6.8903130">
        <ele>649.7</ele>
        <time>2022-07-21T10:54:28Z</time>
      </trkpt>
      <trkpt lat="47.2080930" lon="6.8902880">
        <ele>650.0</ele>
        <time>2022-07-21T10:54:30Z</time>
      </trkpt>
      <trkpt lat="47.2080910" lon="6.8902800">
        <ele>650.1</ele>
        <time>2022-07-21T10:54:31Z</time>
      </trkpt>
      <trkpt lat="47.2080850" lon="6.8902680">
        <ele>650.2</ele>
        <time>2022-07-21T10:54:32Z</time>
      </trkpt>
      <trkpt lat="47.2080720" lon="6.8902410">
        <ele>650.5</ele>
        <time>2022-07-21T10:54:33Z</time>
      </trkpt>
      <trkpt lat="47.2080630" lon="6.8902120">
        <ele>650.8</ele>
        <time>2022-07-21T10:54:35Z</time>
      </trkpt>
      <trkpt lat="47.2080610" lon="6.8901940">
        <ele>651.0</ele>
        <time>2022-07-21T10:54:36Z</time>
      </trkpt>
      <trkpt lat="47.2080670" lon="6.8901630">
        <ele>651.3</ele>
        <time>2022-07-21T10:54:37Z</time>
      </trkpt>
      <trkpt lat="47.2080620" lon="6.8901370">
        <ele>651.5</ele>
        <time>2022-07-21T10:54:38Z</time>
      </trkpt>
      <trkpt lat="47.2080580" lon="6.8901300">
        <ele>651.6</ele>
        <time>2022-07-21T10:54:40Z</time>
      </trkpt>
      <trkpt lat="47.2080540" lon="6.8901220">
        <ele>651.7</ele>
        <time>2022-07-21T10:54:41Z</time>
      </trkpt>
      <trkpt lat="47.2080500" lon="6.8901150">
        <ele>651.8</ele>
        <time>2022-07-21T10:54:42Z</time>
      </trkpt>
      <trkpt lat="47.2080340" lon="6.8900810">
        <ele>652.2</ele>
        <time>2022-07-21T10:54:44Z</time>
      </trkpt>
      <trkpt lat="47.2080280" lon="6.8900680">
        <ele>652.3</ele>
        <time>2022-07-21T10:54:45Z</time>
      </trkpt>
      <trkpt lat="47.2080150" lon="6.8900350">
        <ele>652.7</ele>
        <time>2022-07-21T10:54:46Z</time>
      </trkpt>
      <trkpt lat="47.2080080" lon="6.8900200">
        <ele>652.8</ele>
        <time>2022-07-21T10:54:47Z</time>
      </trkpt>
      <trkpt lat="47.2080010" lon="6.8899940">
        <ele>653.1</ele>
        <time>2022-07-21T10:54:48Z</time>
      </trkpt>
      <trkpt lat="47.2079940" lon="6.8899740">
        <ele>653.3</ele>
        <time>2022-07-21T10:54:49Z</time>
      </trkpt>
      <trkpt lat="47.2079780" lon="6.8899390">
        <ele>653.7</ele>
        <time>2022-07-21T10:54:51Z</time>
      </trkpt>
      <trkpt lat="47.2079750" lon="6.8899180">
        <ele>653.9</ele>
        <time>2022-07-21T10:54:52Z</time>
      </trkpt>
      <trkpt lat="47.2079630" lon="6.8898950">
        <ele>654.2</ele>
        <time>2022-07-21T10:54:53Z</time>
      </trkpt>
      <trkpt lat="47.2079610" lon="6.8898870">
        <ele>654.3</ele>
        <time>2022-07-21T10:54:55Z</time>
      </trkpt>
      <trkpt lat="47.2079610" lon="6.8898800">
        <ele>654.4</ele>
        <time>2022-07-21T10:54:56Z</time>
      </trkpt>
      <trkpt lat="47.2079600" lon="6.8898640">
        <ele>654.5</ele>
        <time>2022-07-21T10:54:57Z</time>
      </trkpt>
      <trkpt lat="47.2079570" lon="6.8898500">
        <ele>654.7</ele>
        <time>2022-07-21T10:54:58Z</time>
      </trkpt>
      <trkpt lat="47.2079510" lon="6.8898290">
        <ele>654.9</ele>
        <time>2022-07-21T10:55:00Z</time>
      </trkpt>
      <trkpt lat="47.2079480" lon="6.8898180">
        <ele>655.0</ele>
        <time>2022-07-21T10:55:01Z</time>
      </trkpt>
      <trkpt lat="47.2079440" lon="6.8898080">
        <ele>655.1</ele>
        <time>2022-07-21T10:55:02Z</time>
      </trkpt>
      <trkpt lat="47.2079400" lon="6.8897980">
        <ele>655.3</ele>
        <time>2022-07-21T10:55:03Z</time>
      </trkpt>
      <trkpt lat="47.2079300" lon="6.8897650">
        <ele>655.6</ele>
        <time>2022-07-21T10:55:05Z</time>
      </trkpt>
      <trkpt lat="47.2079270" lon="6.8897540">
        <ele>655.8</ele>
        <time>2022-07-21T10:55:06Z</time>
      </trkpt>
      <trkpt lat="47.2079230" lon="6.8897430">
        <ele>655.9</ele>
        <time>2022-07-21T10:55:07Z</time>
      </trkpt>
      <trkpt lat="47.2079010" lon="6.8896880">
        <ele>656.6</ele>
        <time>2022-07-21T10:55:09Z</time>
      </trkpt>
      <trkpt lat="47.2078930" lon="6.8896710">
        <ele>656.8</ele>
        <time>2022-07-21T10:55:10Z</time>
      </trkpt>
      <trkpt lat="47.2078850" lon="6.8896540">
        <ele>657.0</ele>
        <time>2022-07-21T10:55:11Z</time>
      </trkpt>
      <trkpt lat="47.2078760" lon="6.8896410">
        <ele>657.2</ele>
        <time>2022-07-21T10:55:12Z</time>
      </trkpt>
      <trkpt lat="47.2078700" lon="6.8896330">
        <ele>657.3</ele>
        <time>2022-07-21T10:55:13Z</time>
      </trkpt>
      <trkpt lat="47.2078630" lon="6.8896230">
        <ele>657.5</ele>
        <time>2022-07-21T10:55:14Z</time>
      </trkpt>
      <trkpt lat="47.2078580" lon="6.8896150">
        <ele>657.6</ele>
        <time>2022-07-21T10:55:15Z</time>
      </trkpt>
      <trkpt lat="47.2078520" lon="6.8896050">
        <ele>657.8</ele>
        <time>2022-07-21T10:55:17Z</time>
      </trkpt>
      <trkpt lat="47.2078480" lon="6.8896000">
        <ele>657.9</ele>
        <time>2022-07-21T10:55:18Z</time>
      </trkpt>
      <trkpt lat="47.2078430" lon="6.8895920">
        <ele>658.0</ele>
        <time>2022-07-21T10:55:19Z</time>
      </trkpt>
      <trkpt lat="47.2078360" lon="6.8895810">
        <ele>658.2</ele>
        <time>2022-07-21T10:55:20Z</time>
      </trkpt>
      <trkpt lat="47.2078320" lon="6.8895750">
        <ele>658.2</ele>
        <time>2022-07-21T10:55:21Z</time>
      </trkpt>
      <trkpt lat="47.2078280" lon="6.8895640">
        <ele>658.4</ele>
        <time>2022-07-21T10:55:22Z</time>
      </trkpt>
      <trkpt lat="47.2078250" lon="6.8895520">
        <ele>658.5</ele>
        <time>2022-07-21T10:55:23Z</time>
      </trkpt>
      <trkpt lat="47.2078260" lon="6.8895420">
        <ele>658.7</ele>
        <time>2022-07-21T10:55:25Z</time>
      </trkpt>
      <trkpt lat="47.2078260" lon="6.8895340">
        <ele>658.7</ele>
        <time>2022-07-21T10:55:26Z</time>
      </trkpt>
      <trkpt lat="47.2078240" lon="6.8895080">
        <ele>659.0</ele>
        <time>2022-07-21T10:55:27Z</time>
      </trkpt>
      <trkpt lat="47.2078240" lon="6.8894820">
        <ele>659.3</ele>
        <time>2022-07-21T10:55:29Z</time>
      </trkpt>
      <trkpt lat="47.2078230" lon="6.8894580">
        <ele>659.6</ele>
        <time>2022-07-21T10:55:30Z</time>
      </trkpt>
      <trkpt lat="47.2078210" lon="6.8894360">
        <ele>659.9</ele>
        <time>2022-07-21T10:55:31Z</time>
      </trkpt>
      <trkpt lat="47.2078180" lon="6.8894120">
        <ele>660.2</ele>
        <time>2022-07-21T10:55:32Z</time>
      </trkpt>
      <trkpt lat="47.2078110" lon="6.8893680">
        <ele>660.7</ele>
        <time>2022-07-21T10:55:33Z</time>
      </trkpt>
      <trkpt lat="47.2078030" lon="6.8893440">
        <ele>661.0</ele>
        <time>2022-07-21T10:55:34Z</time>
      </trkpt>
      <trkpt lat="47.2077880" lon="6.8893090">
        <ele>661.5</ele>
        <time>2022-07-21T10:55:36Z</time>
      </trkpt>
      <trkpt lat="47.2077700" lon="6.8892680">
        <ele>662.1</ele>
        <time>2022-07-21T10:55:37Z</time>
      </trkpt>
      <trkpt lat="47.2077490" lon="6.8892190">
        <ele>662.8</ele>
        <time>2022-07-21T10:55:38Z</time>
      </trkpt>
      <trkpt lat="47.2077430" lon="6.8892030">
        <ele>663.0</ele>
        <time>2022-07-21T10:55:39Z</time>
      </trkpt>
      <trkpt lat="47.2077290" lon="6.8891660">
        <ele>663.6</ele>
        <time>2022-07-21T10:55:40Z</time>
      </trkpt>
      <trkpt lat="47.2077230" lon="6.8891530">
        <ele>663.7</ele>
        <time>2022-07-21T10:55:41Z</time>
      </trkpt>
      <trkpt lat="47.2077040" lon="6.8891070">
        <ele>664.4</ele>
        <time>2022-07-21T10:55:43Z</time>
      </trkpt>
      <trkpt lat="47.2076980" lon="6.8890910">
        <ele>664.6</ele>
        <time>2022-07-21T10:55:44Z</time>
      </trkpt>
      <trkpt lat="47.2076880" lon="6.8890660">
        <ele>665.0</ele>
        <time>2022-07-21T10:55:45Z</time>
      </trkpt>
      <trkpt lat="47.2076780" lon="6.8890350">
        <ele>665.4</ele>
        <time>2022-07-21T10:55:47Z</time>
      </trkpt>
      <trkpt lat="47.2076730" lon="6.8890140">
        <ele>665.6</ele>
        <time>2022-07-21T10:55:48Z</time>
      </trkpt>
      <trkpt lat="47.2076690" lon="6.8889950">
        <ele>665.9</ele>
        <time>2022-07-21T10:55:49Z</time>
      </trkpt>
      <trkpt lat="47.2076600" lon="6.8889700">
        <ele>666.2</ele>
        <time>2022-07-21T10:55:50Z</time>
      </trkpt>
      <trkpt lat="47.2076480" lon="6.8889520">
        <ele>666.5</ele>
        <time>2022-07-21T10:55:51Z</time>
      </trkpt>
      <trkpt lat="47.2076380" lon="6.8889410">
        <ele>666.7</ele>
        <time>2022-07-21T10:55:52Z</time>
      </trkpt>
      <trkpt lat="47.2076050" lon="6.8889140">
        <ele>667.3</ele>
        <time>2022-07-21T10:55:54Z</time>
      </trkpt>
      <trkpt lat="47.2075910" lon="6.8889020">
        <ele>667.5</ele>
        <time>2022-07-21T10:55:55Z</time>
      </trkpt>
      <trkpt lat="47.2075810" lon="6.8888930">
        <ele>667.7</ele>
        <time>2022-07-21T10:55:56Z</time>
      </trkpt>
      <trkpt lat="47.2075710" lon="6.8888840">
        <ele>667.9</ele>
        <time>2022-07-21T10:55:57Z</time>
      </trkpt>
      <trkpt lat="47.2075600" lon="6.8888740">
        <ele>668.0</ele>
        <time>2022-07-21T10:55:58Z</time>
      </trkpt>
      <trkpt lat="47.2075530" lon="6.8888660">
        <ele>668.2</ele>
        <time>2022-07-21T10:55:59Z</time>
      </trkpt>
      <trkpt lat="47.2075480" lon="6.8888630">
        <ele>668.2</ele>
        <time>2022-07-21T10:56:00Z</time>
      </trkpt>
      <trkpt lat="47.2075490" lon="6.8888650">
        <ele>668.3</ele>
        <time>2022-07-21T10:56:01Z</time>
      </trkpt>
      <trkpt lat="47.2075500" lon="6.8888660">
        <ele>668.3</ele>
        <time>2022-07-21T10:56:02Z</time>
      </trkpt>
      <trkpt lat="47.2075500" lon="6.8888670">
        <ele>668.3</ele>
        <time>2022-07-21T10:56:03Z</time>
      </trkpt>
      <trkpt lat="47.2075500" lon="6.8888680">
        <ele>668.3</ele>
        <time>2022-07-21T10:56:04Z</time>
      </trkpt>
      <trkpt lat="47.2075490" lon="6.8888680">
        <ele>668.3</ele>
        <time>2022-07-21T10:56:05Z</time>
      </trkpt>
      <trkpt lat="47.2075470" lon="6.8888670">
        <ele>668.3</ele>
        <time>2022-07-21T10:56:06Z</time>
      </trkpt>
      <trkpt lat="47.2075450" lon="6.8888670">
        <ele>668.4</ele>
        <time>2022-07-21T10:56:07Z</time>
      </trkpt>
      <trkpt lat="47.2075440" lon="6.8888670">
        <ele>668.4</ele>
        <time>2022-07-21T10:56:08Z</time>
      </trkpt>
      <trkpt lat="47.2075420" lon="6.8888670">
        <ele>668.4</ele>
        <time>2022-07-21T10:56:09Z</time>
      </trkpt>
      <trkpt lat="47.2075220" lon="6.8888670">
        <ele>668.7</ele>
        <time>2022-07-21T10:56:32Z</time>
      </trkpt>
      <trkpt lat="47.2075100" lon="6.8888650">
        <ele>668.8</ele>
        <time>2022-07-21T10:56:33Z</time>
      </trkpt>
      <trkpt lat="47.2074940" lon="6.8888680">
        <ele>669.0</ele>
        <time>2022-07-21T10:56:34Z</time>
      </trkpt>
      <trkpt lat="47.2074860" lon="6.8888650">
        <ele>669.1</ele>
        <time>2022-07-21T10:56:35Z</time>
      </trkpt>
      <trkpt lat="47.2074790" lon="6.8888620">
        <ele>669.2</ele>
        <time>2022-07-21T10:56:36Z</time>
      </trkpt>
      <trkpt lat="47.2074700" lon="6.8888620">
        <ele>669.3</ele>
        <time>2022-07-21T10:56:37Z</time>
      </trkpt>
      <trkpt lat="47.2074640" lon="6.8888630">
        <ele>669.4</ele>
        <time>2022-07-21T10:56:38Z</time>
      </trkpt>
      <trkpt lat="47.2074610" lon="6.8888600">
        <ele>669.4</ele>
        <time>2022-07-21T10:56:39Z</time>
      </trkpt>
      <trkpt lat="47.2074610" lon="6.8888540">
        <ele>669.5</ele>
        <time>2022-07-21T10:56:40Z</time>
      </trkpt>
      <trkpt lat="47.2074620" lon="6.8888470">
        <ele>669.5</ele>
        <time>2022-07-21T10:56:41Z</time>
      </trkpt>
      <trkpt lat="47.2074620" lon="6.8888410">
        <ele>669.5</ele>
        <time>2022-07-21T10:56:42Z</time>
      </trkpt>
      <trkpt lat="47.2074620" lon="6.8888350">
        <ele>669.6</ele>
        <time>2022-07-21T10:56:43Z</time>
      </trkpt>
      <trkpt lat="47.2074630" lon="6.8888290">
        <ele>669.6</ele>
        <time>2022-07-21T10:56:44Z</time>
      </trkpt>
      <trkpt lat="47.2074630" lon="6.8888230">
        <ele>669.7</ele>
        <time>2022-07-21T10:56:45Z</time>
      </trkpt>
      <trkpt lat="47.2074630" lon="6.8888170">
        <ele>669.7</ele>
        <time>2022-07-21T10:56:46Z</time>
      </trkpt>
      <trkpt lat="47.2074630" lon="6.8888110">
        <ele>669.7</ele>
        <time>2022-07-21T10:56:47Z</time>
      </trkpt>
      <trkpt lat="47.2074640" lon="6.8888050">
        <ele>669.8</ele>
        <time>2022-07-21T10:56:48Z</time>
      </trkpt>
      <trkpt lat="47.2074640" lon="6.8887990">
        <ele>669.8</ele>
        <time>2022-07-21T10:56:49Z</time>
      </trkpt>
      <trkpt lat="47.2074640" lon="6.8887930">
        <ele>669.9</ele>
        <time>2022-07-21T10:56:50Z</time>
      </trkpt>
      <trkpt lat="47.2074640" lon="6.8887870">
        <ele>669.9</ele>
        <time>2022-07-21T10:57:26Z</time>
      </trkpt>
      <trkpt lat="47.2074650" lon="6.8887800">
        <ele>669.9</ele>
        <time>2022-07-21T10:57:27Z</time>
      </trkpt>
      <trkpt lat="47.2074650" lon="6.8887740">
        <ele>670.0</ele>
        <time>2022-07-21T10:57:28Z</time>
      </trkpt>
      <trkpt lat="47.2074650" lon="6.8887680">
        <ele>670.0</ele>
        <time>2022-07-21T10:57:29Z</time>
      </trkpt>
      <trkpt lat="47.2074660" lon="6.8887620">
        <ele>670.0</ele>
        <time>2022-07-21T10:57:30Z</time>
      </trkpt>
      <trkpt lat="47.2074630" lon="6.8887440">
        <ele>670.1</ele>
        <time>2022-07-21T10:57:31Z</time>
      </trkpt>
      <trkpt lat="47.2074590" lon="6.8887270">
        <ele>670.2</ele>
        <time>2022-07-21T10:57:32Z</time>
      </trkpt>
      <trkpt lat="47.2074530" lon="6.8887150">
        <ele>670.3</ele>
        <time>2022-07-21T10:57:33Z</time>
      </trkpt>
      <trkpt lat="47.2074460" lon="6.8886970">
        <ele>670.4</ele>
        <time>2022-07-21T10:57:34Z</time>
      </trkpt>
      <trkpt lat="47.2074350" lon="6.8886830">
        <ele>670.5</ele>
        <time>2022-07-21T10:57:36Z</time>
      </trkpt>
      <trkpt lat="47.2074230" lon="6.8886680">
        <ele>670.6</ele>
        <time>2022-07-21T10:57:37Z</time>
      </trkpt>
      <trkpt lat="47.2074080" lon="6.8886260">
        <ele>670.7</ele>
        <time>2022-07-21T10:57:38Z</time>
      </trkpt>
      <trkpt lat="47.2074030" lon="6.8886120">
        <ele>670.8</ele>
        <time>2022-07-21T10:57:39Z</time>
      </trkpt>
      <trkpt lat="47.2073910" lon="6.8885810">
        <ele>670.9</ele>
        <time>2022-07-21T10:57:40Z</time>
      </trkpt>
      <trkpt lat="47.2073850" lon="6.8885670">
        <ele>671.0</ele>
        <time>2022-07-21T10:57:41Z</time>
      </trkpt>
      <trkpt lat="47.2073850" lon="6.8885590">
        <ele>671.0</ele>
        <time>2022-07-21T10:57:42Z</time>
      </trkpt>
      <trkpt lat="47.2073780" lon="6.8885270">
        <ele>671.2</ele>
        <time>2022-07-21T10:57:43Z</time>
      </trkpt>
      <trkpt lat="47.2073650" lon="6.8884930">
        <ele>671.3</ele>
        <time>2022-07-21T10:57:44Z</time>
      </trkpt>
      <trkpt lat="47.2073510" lon="6.8884660">
        <ele>671.4</ele>
        <time>2022-07-21T10:57:46Z</time>
      </trkpt>
      <trkpt lat="47.2073420" lon="6.8884370">
        <ele>671.6</ele>
        <time>2022-07-21T10:57:47Z</time>
      </trkpt>
      <trkpt lat="47.2073290" lon="6.8883900">
        <ele>671.8</ele>
        <time>2022-07-21T10:57:49Z</time>
      </trkpt>
      <trkpt lat="47.2073110" lon="6.8883590">
        <ele>672.0</ele>
        <time>2022-07-21T10:57:50Z</time>
      </trkpt>
      <trkpt lat="47.2072880" lon="6.8883200">
        <ele>672.2</ele>
        <time>2022-07-21T10:57:51Z</time>
      </trkpt>
      <trkpt lat="47.2072810" lon="6.8883060">
        <ele>672.3</ele>
        <time>2022-07-21T10:57:52Z</time>
      </trkpt>
      <trkpt lat="47.2072600" lon="6.8882620">
        <ele>672.6</ele>
        <time>2022-07-21T10:57:53Z</time>
      </trkpt>
      <trkpt lat="47.2072500" lon="6.8882430">
        <ele>672.7</ele>
        <time>2022-07-21T10:57:54Z</time>
      </trkpt>
      <trkpt lat="47.2072310" lon="6.8882110">
        <ele>672.9</ele>
        <time>2022-07-21T10:57:55Z</time>
      </trkpt>
      <trkpt lat="47.2072250" lon="6.8882020">
        <ele>672.9</ele>
        <time>2022-07-21T10:57:56Z</time>
      </trkpt>
      <trkpt lat="47.2072040" lon="6.8881720">
        <ele>673.2</ele>
        <time>2022-07-21T10:57:57Z</time>
      </trkpt>
      <trkpt lat="47.2071770" lon="6.8881280">
        <ele>673.5</ele>
        <time>2022-07-21T10:57:58Z</time>
      </trkpt>
      <trkpt lat="47.2071680" lon="6.8881120">
        <ele>673.6</ele>
        <time>2022-07-21T10:57:59Z</time>
      </trkpt>
      <trkpt lat="47.2071490" lon="6.8880800">
        <ele>673.8</ele>
        <time>2022-07-21T10:58:00Z</time>
      </trkpt>
      <trkpt lat="47.2071440" lon="6.8880730">
        <ele>673.8</ele>
        <time>2022-07-21T10:58:01Z</time>
      </trkpt>
      <trkpt lat="47.2071290" lon="6.8880410">
        <ele>674.1</ele>
        <time>2022-07-21T10:58:02Z</time>
      </trkpt>
      <trkpt lat="47.2071230" lon="6.8880260">
        <ele>674.2</ele>
        <time>2022-07-21T10:58:03Z</time>
      </trkpt>
      <trkpt lat="47.2071140" lon="6.8879920">
        <ele>674.4</ele>
        <time>2022-07-21T10:58:05Z</time>
      </trkpt>
      <trkpt lat="47.2071110" lon="6.8879850">
        <ele>674.4</ele>
        <time>2022-07-21T10:58:06Z</time>
      </trkpt>
      <trkpt lat="47.2070980" lon="6.8879610">
        <ele>674.6</ele>
        <time>2022-07-21T10:58:07Z</time>
      </trkpt>
      <trkpt lat="47.2070880" lon="6.8879450">
        <ele>674.7</ele>
        <time>2022-07-21T10:58:08Z</time>
      </trkpt>
      <trkpt lat="47.2070780" lon="6.8879290">
        <ele>674.8</ele>
        <time>2022-07-21T10:58:10Z</time>
      </trkpt>
      <trkpt lat="47.2070680" lon="6.8879130">
        <ele>675.0</ele>
        <time>2022-07-21T10:58:11Z</time>
      </trkpt>
      <trkpt lat="47.2070580" lon="6.8878970">
        <ele>675.1</ele>
        <time>2022-07-21T10:58:12Z</time>
      </trkpt>
      <trkpt lat="47.2070420" lon="6.8878630">
        <ele>675.3</ele>
        <time>2022-07-21T10:58:13Z</time>
      </trkpt>
      <trkpt lat="47.2070320" lon="6.8878440">
        <ele>675.5</ele>
        <time>2022-07-21T10:58:14Z</time>
      </trkpt>
      <trkpt lat="47.2070140" lon="6.8878160">
        <ele>675.7</ele>
        <time>2022-07-21T10:58:16Z</time>
      </trkpt>
      <trkpt lat="47.2069930" lon="6.8877830">
        <ele>676.0</ele>
        <time>2022-07-21T10:58:17Z</time>
      </trkpt>
      <trkpt lat="47.2069730" lon="6.8877330">
        <ele>676.3</ele>
        <time>2022-07-21T10:58:18Z</time>
      </trkpt>
      <trkpt lat="47.2069550" lon="6.8876870">
        <ele>676.6</ele>
        <time>2022-07-21T10:58:19Z</time>
      </trkpt>
      <trkpt lat="47.2069400" lon="6.8876560">
        <ele>676.9</ele>
        <time>2022-07-21T10:58:20Z</time>
      </trkpt>
      <trkpt lat="47.2069210" lon="6.8876160">
        <ele>677.2</ele>
        <time>2022-07-21T10:58:22Z</time>
      </trkpt>
      <trkpt lat="47.2069140" lon="6.8875750">
        <ele>677.4</ele>
        <time>2022-07-21T10:58:23Z</time>
      </trkpt>
      <trkpt lat="47.2069100" lon="6.8875210">
        <ele>677.7</ele>
        <time>2022-07-21T10:58:24Z</time>
      </trkpt>
      <trkpt lat="47.2069080" lon="6.8874830">
        <ele>677.9</ele>
        <time>2022-07-21T10:58:25Z</time>
      </trkpt>
      <trkpt lat="47.2069020" lon="6.8874420">
        <ele>678.2</ele>
        <time>2022-07-21T10:58:27Z</time>
      </trkpt>
      <trkpt lat="47.2068900" lon="6.8873890">
        <ele>678.5</ele>
        <time>2022-07-21T10:58:29Z</time>
      </trkpt>
      <trkpt lat="47.2068850" lon="6.8873630">
        <ele>678.6</ele>
        <time>2022-07-21T10:58:30Z</time>
      </trkpt>
      <trkpt lat="47.2068800" lon="6.8873410">
        <ele>678.7</ele>
        <time>2022-07-21T10:58:31Z</time>
      </trkpt>
      <trkpt lat="47.2068720" lon="6.8873240">
        <ele>678.9</ele>
        <time>2022-07-21T10:58:32Z</time>
      </trkpt>
      <trkpt lat="47.2068530" lon="6.8872680">
        <ele>679.2</ele>
        <time>2022-07-21T10:58:34Z</time>
      </trkpt>
      <trkpt lat="47.2068400" lon="6.8872240">
        <ele>679.5</ele>
        <time>2022-07-21T10:58:35Z</time>
      </trkpt>
      <trkpt lat="47.2068280" lon="6.8871720">
        <ele>679.8</ele>
        <time>2022-07-21T10:58:36Z</time>
      </trkpt>
      <trkpt lat="47.2068230" lon="6.8871540">
        <ele>679.9</ele>
        <time>2022-07-21T10:58:37Z</time>
      </trkpt>
      <trkpt lat="47.2068140" lon="6.8871300">
        <ele>680.0</ele>
        <time>2022-07-21T10:58:38Z</time>
      </trkpt>
      <trkpt lat="47.2068070" lon="6.8871100">
        <ele>680.2</ele>
        <time>2022-07-21T10:58:39Z</time>
      </trkpt>
      <trkpt lat="47.2067880" lon="6.8870630">
        <ele>680.5</ele>
        <time>2022-07-21T10:58:41Z</time>
      </trkpt>
      <trkpt lat="47.2067810" lon="6.8870490">
        <ele>680.6</ele>
        <time>2022-07-21T10:58:42Z</time>
      </trkpt>
      <trkpt lat="47.2067590" lon="6.8870150">
        <ele>680.8</ele>
        <time>2022-07-21T10:58:43Z</time>
      </trkpt>
      <trkpt lat="47.2067310" lon="6.8869650">
        <ele>681.1</ele>
        <time>2022-07-21T10:58:45Z</time>
      </trkpt>
      <trkpt lat="47.2067070" lon="6.8869300">
        <ele>681.4</ele>
        <time>2022-07-21T10:58:46Z</time>
      </trkpt>
      <trkpt lat="47.2066830" lon="6.8868880">
        <ele>681.7</ele>
        <time>2022-07-21T10:58:47Z</time>
      </trkpt>
      <trkpt lat="47.2066740" lon="6.8868680">
        <ele>681.8</ele>
        <time>2022-07-21T10:58:48Z</time>
      </trkpt>
      <trkpt lat="47.2066640" lon="6.8868280">
        <ele>682.0</ele>
        <time>2022-07-21T10:58:49Z</time>
      </trkpt>
      <trkpt lat="47.2066540" lon="6.8867900">
        <ele>682.2</ele>
        <time>2022-07-21T10:58:50Z</time>
      </trkpt>
      <trkpt lat="47.2066430" lon="6.8867470">
        <ele>682.5</ele>
        <time>2022-07-21T10:58:52Z</time>
      </trkpt>
      <trkpt lat="47.2066420" lon="6.8867360">
        <ele>682.5</ele>
        <time>2022-07-21T10:58:53Z</time>
      </trkpt>
      <trkpt lat="47.2066300" lon="6.8866960">
        <ele>682.8</ele>
        <time>2022-07-21T10:58:54Z</time>
      </trkpt>
      <trkpt lat="47.2066210" lon="6.8866690">
        <ele>682.9</ele>
        <time>2022-07-21T10:58:55Z</time>
      </trkpt>
      <trkpt lat="47.2065990" lon="6.8866280">
        <ele>683.2</ele>
        <time>2022-07-21T10:58:57Z</time>
      </trkpt>
      <trkpt lat="47.2065850" lon="6.8865860">
        <ele>683.4</ele>
        <time>2022-07-21T10:58:58Z</time>
      </trkpt>
      <trkpt lat="47.2065800" lon="6.8865700">
        <ele>683.5</ele>
        <time>2022-07-21T10:58:59Z</time>
      </trkpt>
      <trkpt lat="47.2065660" lon="6.8865250">
        <ele>683.8</ele>
        <time>2022-07-21T10:59:00Z</time>
      </trkpt>
      <trkpt lat="47.2065630" lon="6.8865130">
        <ele>683.9</ele>
        <time>2022-07-21T10:59:01Z</time>
      </trkpt>
      <trkpt lat="47.2065580" lon="6.8864730">
        <ele>684.1</ele>
        <time>2022-07-21T10:59:02Z</time>
      </trkpt>
      <trkpt lat="47.2065530" lon="6.8864490">
        <ele>684.3</ele>
        <time>2022-07-21T10:59:04Z</time>
      </trkpt>
      <trkpt lat="47.2065460" lon="6.8864090">
        <ele>684.5</ele>
        <time>2022-07-21T10:59:06Z</time>
      </trkpt>
      <trkpt lat="47.2065410" lon="6.8863680">
        <ele>684.8</ele>
        <time>2022-07-21T10:59:07Z</time>
      </trkpt>
      <trkpt lat="47.2065400" lon="6.8863550">
        <ele>684.9</ele>
        <time>2022-07-21T10:59:08Z</time>
      </trkpt>
      <trkpt lat="47.2065420" lon="6.8863080">
        <ele>685.2</ele>
        <time>2022-07-21T10:59:09Z</time>
      </trkpt>
      <trkpt lat="47.2065450" lon="6.8862870">
        <ele>685.3</ele>
        <time>2022-07-21T10:59:10Z</time>
      </trkpt>
      <trkpt lat="47.2065390" lon="6.8862430">
        <ele>685.7</ele>
        <time>2022-07-21T10:59:12Z</time>
      </trkpt>
      <trkpt lat="47.2065310" lon="6.8862270">
        <ele>685.8</ele>
        <time>2022-07-21T10:59:13Z</time>
      </trkpt>
      <trkpt lat="47.2065150" lon="6.8861930">
        <ele>686.2</ele>
        <time>2022-07-21T10:59:14Z</time>
      </trkpt>
      <trkpt lat="47.2065100" lon="6.8861830">
        <ele>686.3</ele>
        <time>2022-07-21T10:59:15Z</time>
      </trkpt>
      <trkpt lat="47.2065050" lon="6.8861670">
        <ele>686.5</ele>
        <time>2022-07-21T10:59:16Z</time>
      </trkpt>
      <trkpt lat="47.2064980" lon="6.8861350">
        <ele>686.8</ele>
        <time>2022-07-21T10:59:17Z</time>
      </trkpt>
      <trkpt lat="47.2064920" lon="6.8861140">
        <ele>687.0</ele>
        <time>2022-07-21T10:59:18Z</time>
      </trkpt>
      <trkpt lat="47.2064880" lon="6.8860950">
        <ele>687.2</ele>
        <time>2022-07-21T10:59:19Z</time>
      </trkpt>
      <trkpt lat="47.2064770" lon="6.8860540">
        <ele>687.6</ele>
        <time>2022-07-21T10:59:20Z</time>
      </trkpt>
      <trkpt lat="47.2064730" lon="6.8860380">
        <ele>687.8</ele>
        <time>2022-07-21T10:59:21Z</time>
      </trkpt>
      <trkpt lat="47.2064650" lon="6.8860180">
        <ele>688.0</ele>
        <time>2022-07-21T10:59:23Z</time>
      </trkpt>
      <trkpt lat="47.2064600" lon="6.8860080">
        <ele>688.2</ele>
        <time>2022-07-21T10:59:24Z</time>
      </trkpt>
      <trkpt lat="47.2064580" lon="6.8860020">
        <ele>688.2</ele>
        <time>2022-07-21T10:59:25Z</time>
      </trkpt>
      <trkpt lat="47.2064610" lon="6.8860130">
        <ele>688.4</ele>
        <time>2022-07-21T10:59:26Z</time>
      </trkpt>
      <trkpt lat="47.2064640" lon="6.8860260">
        <ele>688.5</ele>
        <time>2022-07-21T10:59:27Z</time>
      </trkpt>
      <trkpt lat="47.2064680" lon="6.8860390">
        <ele>688.7</ele>
        <time>2022-07-21T10:59:28Z</time>
      </trkpt>
      <trkpt lat="47.2064710" lon="6.8860520">
        <ele>688.8</ele>
        <time>2022-07-21T10:59:29Z</time>
      </trkpt>
      <trkpt lat="47.2064750" lon="6.8860640">
        <ele>689.0</ele>
        <time>2022-07-21T10:59:30Z</time>
      </trkpt>
      <trkpt lat="47.2064780" lon="6.8860770">
        <ele>689.1</ele>
        <time>2022-07-21T10:59:31Z</time>
      </trkpt>
      <trkpt lat="47.2064810" lon="6.8860900">
        <ele>689.3</ele>
        <time>2022-07-21T10:59:32Z</time>
      </trkpt>
      <trkpt lat="47.2064850" lon="6.8861030">
        <ele>689.5</ele>
        <time>2022-07-21T10:59:33Z</time>
      </trkpt>
      <trkpt lat="47.2064880" lon="6.8861150">
        <ele>689.6</ele>
        <time>2022-07-21T10:59:47Z</time>
      </trkpt>
      <trkpt lat="47.2064910" lon="6.8861280">
        <ele>689.8</ele>
        <time>2022-07-21T10:59:48Z</time>
      </trkpt>
      <trkpt lat="47.2065040" lon="6.8862180">
        <ele>688.7</ele>
        <time>2022-07-21T10:59:49Z</time>
      </trkpt>
      <trkpt lat="47.2065260" lon="6.8863050">
        <ele>687.6</ele>
        <time>2022-07-21T10:59:50Z</time>
      </trkpt>
      <trkpt lat="47.2065520" lon="6.8863900">
        <ele>686.6</ele>
        <time>2022-07-21T10:59:51Z</time>
      </trkpt>
      <trkpt lat="47.2065730" lon="6.8864690">
        <ele>685.8</ele>
        <time>2022-07-21T10:59:52Z</time>
      </trkpt>
      <trkpt lat="47.2066010" lon="6.8865500">
        <ele>685.1</ele>
        <time>2022-07-21T10:59:53Z</time>
      </trkpt>
      <trkpt lat="47.2066390" lon="6.8866350">
        <ele>684.4</ele>
        <time>2022-07-21T10:59:54Z</time>
      </trkpt>
      <trkpt lat="47.2066720" lon="6.8867170">
        <ele>683.8</ele>
        <time>2022-07-21T10:59:55Z</time>
      </trkpt>
      <trkpt lat="47.2066940" lon="6.8868050">
        <ele>683.2</ele>
        <time>2022-07-21T10:59:56Z</time>
      </trkpt>
      <trkpt lat="47.2067370" lon="6.8868750">
        <ele>682.7</ele>
        <time>2022-07-21T10:59:57Z</time>
      </trkpt>
      <trkpt lat="47.2067790" lon="6.8869140">
        <ele>682.3</ele>
        <time>2022-07-21T10:59:58Z</time>
      </trkpt>
      <trkpt lat="47.2068130" lon="6.8869890">
        <ele>681.7</ele>
        <time>2022-07-21T10:59:59Z</time>
      </trkpt>
      <trkpt lat="47.2068530" lon="6.8870630">
        <ele>681.2</ele>
        <time>2022-07-21T11:00:00Z</time>
      </trkpt>
      <trkpt lat="47.2068910" lon="6.8871450">
        <ele>680.7</ele>
        <time>2022-07-21T11:00:01Z</time>
      </trkpt>
      <trkpt lat="47.2069280" lon="6.8872410">
        <ele>680.0</ele>
        <time>2022-07-21T11:00:02Z</time>
      </trkpt>
      <trkpt lat="47.2069620" lon="6.8873220">
        <ele>679.4</ele>
        <time>2022-07-21T11:00:03Z</time>
      </trkpt>
      <trkpt lat="47.2069860" lon="6.8874260">
        <ele>678.8</ele>
        <time>2022-07-21T11:00:04Z</time>
      </trkpt>
      <trkpt lat="47.2070090" lon="6.8875280">
        <ele>678.1</ele>
        <time>2022-07-21T11:00:05Z</time>
      </trkpt>
      <trkpt lat="47.2070350" lon="6.8876370">
        <ele>677.4</ele>
        <time>2022-07-21T11:00:06Z</time>
      </trkpt>
      <trkpt lat="47.2070680" lon="6.8877370">
        <ele>676.7</ele>
        <time>2022-07-21T11:00:07Z</time>
      </trkpt>
      <trkpt lat="47.2070980" lon="6.8878240">
        <ele>676.1</ele>
        <time>2022-07-21T11:00:08Z</time>
      </trkpt>
      <trkpt lat="47.2071300" lon="6.8879090">
        <ele>675.5</ele>
        <time>2022-07-21T11:00:09Z</time>
      </trkpt>
      <trkpt lat="47.2071690" lon="6.8879990">
        <ele>674.8</ele>
        <time>2022-07-21T11:00:10Z</time>
      </trkpt>
      <trkpt lat="47.2072030" lon="6.8880840">
        <ele>674.1</ele>
        <time>2022-07-21T11:00:11Z</time>
      </trkpt>
      <trkpt lat="47.2072270" lon="6.8881660">
        <ele>673.6</ele>
        <time>2022-07-21T11:00:12Z</time>
      </trkpt>
      <trkpt lat="47.2072490" lon="6.8882500">
        <ele>673.1</ele>
        <time>2022-07-21T11:00:13Z</time>
      </trkpt>
      <trkpt lat="47.2072730" lon="6.8883290">
        <ele>672.7</ele>
        <time>2022-07-21T11:00:14Z</time>
      </trkpt>
      <trkpt lat="47.2073040" lon="6.8884180">
        <ele>672.1</ele>
        <time>2022-07-21T11:00:15Z</time>
      </trkpt>
      <trkpt lat="47.2073480" lon="6.8885030">
        <ele>671.6</ele>
        <time>2022-07-21T11:00:16Z</time>
      </trkpt>
      <trkpt lat="47.2074040" lon="6.8885780">
        <ele>671.1</ele>
        <time>2022-07-21T11:00:17Z</time>
      </trkpt>
      <trkpt lat="47.2074450" lon="6.8886510">
        <ele>670.7</ele>
        <time>2022-07-21T11:00:18Z</time>
      </trkpt>
      <trkpt lat="47.2074760" lon="6.8887330">
        <ele>670.3</ele>
        <time>2022-07-21T11:00:19Z</time>
      </trkpt>
      <trkpt lat="47.2074860" lon="6.8887920">
        <ele>670.0</ele>
        <time>2022-07-21T11:00:20Z</time>
      </trkpt>
      <trkpt lat="47.2074870" lon="6.8887990">
        <ele>670.0</ele>
        <time>2022-07-21T11:00:21Z</time>
      </trkpt>
      <trkpt lat="47.2075120" lon="6.8888230">
        <ele>670.2</ele>
        <time>2022-07-21T11:00:22Z</time>
      </trkpt>
      <trkpt lat="47.2075440" lon="6.8888460">
        <ele>670.3</ele>
        <time>2022-07-21T11:00:23Z</time>
      </trkpt>
      <trkpt lat="47.2075520" lon="6.8888480">
        <ele>670.3</ele>
        <time>2022-07-21T11:00:24Z</time>
      </trkpt>
      <trkpt lat="47.2075530" lon="6.8888430">
        <ele>670.3</ele>
        <time>2022-07-21T11:00:25Z</time>
      </trkpt>
      <trkpt lat="47.2075510" lon="6.8888380">
        <ele>670.3</ele>
        <time>2022-07-21T11:00:26Z</time>
      </trkpt>
      <trkpt lat="47.2075510" lon="6.8888280">
        <ele>670.3</ele>
        <time>2022-07-21T11:00:27Z</time>
      </trkpt>
      <trkpt lat="47.2075510" lon="6.8888260">
        <ele>670.4</ele>
        <time>2022-07-21T11:00:28Z</time>
      </trkpt>
      <trkpt lat="47.2075520" lon="6.8888250">
        <ele>670.4</ele>
        <time>2022-07-21T11:00:29Z</time>
      </trkpt>
      <trkpt lat="47.2075520" lon="6.8888250">
        <ele>670.4</ele>
        <time>2022-07-21T11:00:30Z</time>
      </trkpt>
      <trkpt lat="47.2075520" lon="6.8888210">
        <ele>670.4</ele>
        <time>2022-07-21T11:00:31Z</time>
      </trkpt>
      <trkpt lat="47.2075530" lon="6.8888240">
        <ele>670.4</ele>
        <time>2022-07-21T11:00:32Z</time>
      </trkpt>
      <trkpt lat="47.2075530" lon="6.8888210">
        <ele>670.4</ele>
        <time>2022-07-21T11:00:33Z</time>
      </trkpt>
      <trkpt lat="47.2075550" lon="6.8888190">
        <ele>670.4</ele>
        <time>2022-07-21T11:00:34Z</time>
      </trkpt>
      <trkpt lat="47.2075560" lon="6.8888180">
        <ele>670.4</ele>
        <time>2022-07-21T11:00:35Z</time>
      </trkpt>
      <trkpt lat="47.2075570" lon="6.8888180">
        <ele>670.4</ele>
        <time>2022-07-21T11:00:36Z</time>
      </trkpt>
      <trkpt lat="47.2075600" lon="6.8888180">
        <ele>670.4</ele>
        <time>2022-07-21T11:00:37Z</time>
      </trkpt>
      <trkpt lat="47.2075630" lon="6.8888170">
        <ele>670.4</ele>
        <time>2022-07-21T11:00:39Z</time>
      </trkpt>
      <trkpt lat="47.2075640" lon="6.8888150">
        <ele>670.4</ele>
        <time>2022-07-21T11:00:40Z</time>
      </trkpt>
      <trkpt lat="47.2075660" lon="6.8888130">
        <ele>670.4</ele>
        <time>2022-07-21T11:00:41Z</time>
      </trkpt>
      <trkpt lat="47.2075570" lon="6.8887770">
        <ele>670.5</ele>
        <time>2022-07-21T11:00:47Z</time>
      </trkpt>
      <trkpt lat="47.2075550" lon="6.8887720">
        <ele>670.5</ele>
        <time>2022-07-21T11:00:48Z</time>
      </trkpt>
      <trkpt lat="47.2075550" lon="6.8887710">
        <ele>670.5</ele>
        <time>2022-07-21T11:00:49Z</time>
      </trkpt>
      <trkpt lat="47.2075540" lon="6.8887690">
        <ele>670.5</ele>
        <time>2022-07-21T11:00:50Z</time>
      </trkpt>
      <trkpt lat="47.2075540" lon="6.8887670">
        <ele>670.5</ele>
        <time>2022-07-21T11:00:51Z</time>
      </trkpt>
      <trkpt lat="47.2075520" lon="6.8887660">
        <ele>670.5</ele>
        <time>2022-07-21T11:00:52Z</time>
      </trkpt>
      <trkpt lat="47.2075510" lon="6.8887650">
        <ele>670.5</ele>
        <time>2022-07-21T11:00:53Z</time>
      </trkpt>
      <trkpt lat="47.2075500" lon="6.8887630">
        <ele>670.5</ele>
        <time>2022-07-21T11:00:54Z</time>
      </trkpt>
      <trkpt lat="47.2075490" lon="6.8887630">
        <ele>670.5</ele>
        <time>2022-07-21T11:00:55Z</time>
      </trkpt>
      <trkpt lat="47.2075470" lon="6.8887630">
        <ele>670.6</ele>
        <time>2022-07-21T11:00:56Z</time>
      </trkpt>
      <trkpt lat="47.2075460" lon="6.8887640">
        <ele>670.6</ele>
        <time>2022-07-21T11:00:57Z</time>
      </trkpt>
      <trkpt lat="47.2075450" lon="6.8887640">
        <ele>670.6</ele>
        <time>2022-07-21T11:00:58Z</time>
      </trkpt>
      <trkpt lat="47.2075450" lon="6.8887640">
        <ele>670.6</ele>
        <time>2022-07-21T11:00:59Z</time>
      </trkpt>
      <trkpt lat="47.2075440" lon="6.8887650">
        <ele>670.6</ele>
        <time>2022-07-21T11:01:00Z</time>
      </trkpt>
      <trkpt lat="47.2075460" lon="6.8887660">
        <ele>670.6</ele>
        <time>2022-07-21T11:01:01Z</time>
      </trkpt>
      <trkpt lat="47.2075470" lon="6.8887670">
        <ele>670.6</ele>
        <time>2022-07-21T11:01:02Z</time>
      </trkpt>
      <trkpt lat="47.2075480" lon="6.8887680">
        <ele>670.6</ele>
        <time>2022-07-21T11:01:03Z</time>
      </trkpt>
      <trkpt lat="47.2075490" lon="6.8887680">
        <ele>670.6</ele>
        <time>2022-07-21T11:01:04Z</time>
      </trkpt>
      <trkpt lat="47.2075490" lon="6.8887680">
        <ele>670.6</ele>
        <time>2022-07-21T11:01:05Z</time>
      </trkpt>
      <trkpt lat="47.2075490" lon="6.8887690">
        <ele>670.6</ele>
        <time>2022-07-21T11:01:06Z</time>
      </trkpt>
      <trkpt lat="47.2075490" lon="6.8887690">
        <ele>670.6</ele>
        <time>2022-07-21T11:01:07Z</time>
      </trkpt>
      <trkpt lat="47.2075490" lon="6.8887690">
        <ele>670.6</ele>
        <time>2022-07-21T11:01:08Z</time>
      </trkpt>
      <trkpt lat="47.2075490" lon="6.8887690">
        <ele>670.6</ele>
        <time>2022-07-21T11:01:09Z</time>
      </trkpt>
      <trkpt lat="47.2075480" lon="6.8887590">
        <ele>670.6</ele>
        <time>2022-07-21T11:01:10Z</time>
      </trkpt>
      <trkpt lat="47.2075480" lon="6.8887520">
        <ele>670.6</ele>
        <time>2022-07-21T11:01:11Z</time>
      </trkpt>
      <trkpt lat="47.2075440" lon="6.8887410">
        <ele>670.6</ele>
        <time>2022-07-21T11:01:12Z</time>
      </trkpt>
      <trkpt lat="47.2075230" lon="6.8887140">
        <ele>670.7</ele>
        <time>2022-07-21T11:01:13Z</time>
      </trkpt>
      <trkpt lat="47.2075160" lon="6.8887050">
        <ele>670.7</ele>
        <time>2022-07-21T11:01:14Z</time>
      </trkpt>
      <trkpt lat="47.2075010" lon="6.8886880">
        <ele>670.8</ele>
        <time>2022-07-21T11:01:15Z</time>
      </trkpt>
      <trkpt lat="47.2074930" lon="6.8886780">
        <ele>670.8</ele>
        <time>2022-07-21T11:01:16Z</time>
      </trkpt>
      <trkpt lat="47.2074870" lon="6.8886720">
        <ele>670.8</ele>
        <time>2022-07-21T11:01:17Z</time>
      </trkpt>
      <trkpt lat="47.2074820" lon="6.8886720">
        <ele>670.9</ele>
        <time>2022-07-21T11:01:18Z</time>
      </trkpt>
      <trkpt lat="47.2074810" lon="6.8886740">
        <ele>670.9</ele>
        <time>2022-07-21T11:01:19Z</time>
      </trkpt>
      <trkpt lat="47.2074790" lon="6.8886740">
        <ele>670.9</ele>
        <time>2022-07-21T11:01:20Z</time>
      </trkpt>
      <trkpt lat="47.2074770" lon="6.8886720">
        <ele>670.9</ele>
        <time>2022-07-21T11:01:21Z</time>
      </trkpt>
      <trkpt lat="47.2074750" lon="6.8886720">
        <ele>670.9</ele>
        <time>2022-07-21T11:01:22Z</time>
      </trkpt>
      <trkpt lat="47.2074730" lon="6.8886710">
        <ele>670.9</ele>
        <time>2022-07-21T11:01:23Z</time>
      </trkpt>
      <trkpt lat="47.2074720" lon="6.8886710">
        <ele>670.9</ele>
        <time>2022-07-21T11:01:24Z</time>
      </trkpt>
      <trkpt lat="47.2074670" lon="6.8886650">
        <ele>670.9</ele>
        <time>2022-07-21T11:01:25Z</time>
      </trkpt>
      <trkpt lat="47.2074470" lon="6.8886520">
        <ele>671.0</ele>
        <time>2022-07-21T11:01:27Z</time>
      </trkpt>
      <trkpt lat="47.2074400" lon="6.8886440">
        <ele>671.0</ele>
        <time>2022-07-21T11:01:29Z</time>
      </trkpt>
      <trkpt lat="47.2074320" lon="6.8886350">
        <ele>671.0</ele>
        <time>2022-07-21T11:01:30Z</time>
      </trkpt>
      <trkpt lat="47.2074240" lon="6.8886280">
        <ele>671.0</ele>
        <time>2022-07-21T11:01:32Z</time>
      </trkpt>
      <trkpt lat="47.2074070" lon="6.8886170">
        <ele>671.1</ele>
        <time>2022-07-21T11:01:33Z</time>
      </trkpt>
      <trkpt lat="47.2073870" lon="6.8886060">
        <ele>671.2</ele>
        <time>2022-07-21T11:01:34Z</time>
      </trkpt>
      <trkpt lat="47.2073750" lon="6.8886020">
        <ele>671.2</ele>
        <time>2022-07-21T11:01:35Z</time>
      </trkpt>
      <trkpt lat="47.2073610" lon="6.8885960">
        <ele>671.2</ele>
        <time>2022-07-21T11:01:36Z</time>
      </trkpt>
      <trkpt lat="47.2073480" lon="6.8885860">
        <ele>671.3</ele>
        <time>2022-07-21T11:01:37Z</time>
      </trkpt>
      <trkpt lat="47.2073380" lon="6.8885780">
        <ele>671.3</ele>
        <time>2022-07-21T11:01:39Z</time>
      </trkpt>
      <trkpt lat="47.2073320" lon="6.8885720">
        <ele>671.2</ele>
        <time>2022-07-21T11:01:40Z</time>
      </trkpt>
      <trkpt lat="47.2073270" lon="6.8885670">
        <ele>671.2</ele>
        <time>2022-07-21T11:01:41Z</time>
      </trkpt>
      <trkpt lat="47.2073230" lon="6.8885640">
        <ele>669.9</ele>
        <time>2022-07-21T11:01:42Z</time>
      </trkpt>
      <trkpt lat="47.2073190" lon="6.8885650">
        <ele>669.9</ele>
        <time>2022-07-21T11:01:43Z</time>
      </trkpt>
      <trkpt lat="47.2073190" lon="6.8885680">
        <ele>669.9</ele>
        <time>2022-07-21T11:01:44Z</time>
      </trkpt>
      <trkpt lat="47.2073190" lon="6.8885710">
        <ele>669.9</ele>
        <time>2022-07-21T11:01:45Z</time>
      </trkpt>
      <trkpt lat="47.2073190" lon="6.8885720">
        <ele>669.9</ele>
        <time>2022-07-21T11:01:46Z</time>
      </trkpt>
      <trkpt lat="47.2073190" lon="6.8885730">
        <ele>669.8</ele>
        <time>2022-07-21T11:01:47Z</time>
      </trkpt>
      <trkpt lat="47.2073180" lon="6.8885730">
        <ele>669.8</ele>
        <time>2022-07-21T11:01:48Z</time>
      </trkpt>
      <trkpt lat="47.2073170" lon="6.8885740">
        <ele>669.8</ele>
        <time>2022-07-21T11:01:49Z</time>
      </trkpt>
      <trkpt lat="47.2073160" lon="6.8885750">
        <ele>669.8</ele>
        <time>2022-07-21T11:01:50Z</time>
      </trkpt>
      <trkpt lat="47.2073150" lon="6.8885750">
        <ele>669.8</ele>
        <time>2022-07-21T11:01:51Z</time>
      </trkpt>
      <trkpt lat="47.2073140" lon="6.8885750">
        <ele>669.8</ele>
        <time>2022-07-21T11:01:52Z</time>
      </trkpt>
      <trkpt lat="47.2073180" lon="6.8886050">
        <ele>668.5</ele>
        <time>2022-07-21T11:02:03Z</time>
      </trkpt>
      <trkpt lat="47.2073190" lon="6.8886050">
        <ele>668.5</ele>
        <time>2022-07-21T11:02:04Z</time>
      </trkpt>
      <trkpt lat="47.2073200" lon="6.8886050">
        <ele>668.5</ele>
        <time>2022-07-21T11:02:05Z</time>
      </trkpt>
      <trkpt lat="47.2073200" lon="6.8886050">
        <ele>668.5</ele>
        <time>2022-07-21T11:02:06Z</time>
      </trkpt>
      <trkpt lat="47.2073210" lon="6.8886050">
        <ele>668.5</ele>
        <time>2022-07-21T11:02:07Z</time>
      </trkpt>
      <trkpt lat="47.2073210" lon="6.8886050">
        <ele>668.5</ele>
        <time>2022-07-21T11:02:08Z</time>
      </trkpt>
      <trkpt lat="47.2073220" lon="6.8886050">
        <ele>668.5</ele>
        <time>2022-07-21T11:02:09Z</time>
      </trkpt>
      <trkpt lat="47.2073220" lon="6.8886040">
        <ele>668.4</ele>
        <time>2022-07-21T11:02:10Z</time>
      </trkpt>
      <trkpt lat="47.2073220" lon="6.8886020">
        <ele>668.4</ele>
        <time>2022-07-21T11:02:11Z</time>
      </trkpt>
      <trkpt lat="47.2073230" lon="6.8886010">
        <ele>668.4</ele>
        <time>2022-07-21T11:02:12Z</time>
      </trkpt>
      <trkpt lat="47.2073240" lon="6.8886000">
        <ele>668.4</ele>
        <time>2022-07-21T11:02:13Z</time>
      </trkpt>
      <trkpt lat="47.2073240" lon="6.8886000">
        <ele>668.4</ele>
        <time>2022-07-21T11:02:14Z</time>
      </trkpt>
      <trkpt lat="47.2073240" lon="6.8886000">
        <ele>668.4</ele>
        <time>2022-07-21T11:02:15Z</time>
      </trkpt>
      <trkpt lat="47.2073240" lon="6.8886000">
        <ele>668.4</ele>
        <time>2022-07-21T11:02:16Z</time>
      </trkpt>
      <trkpt lat="47.2073240" lon="6.8886000">
        <ele>668.3</ele>
        <time>2022-07-21T11:02:17Z</time>
      </trkpt>
      <trkpt lat="47.2073240" lon="6.8886000">
        <ele>668.3</ele>
        <time>2022-07-21T11:02:18Z</time>
      </trkpt>
      <trkpt lat="47.2073240" lon="6.8886000">
        <ele>668.3</ele>
        <time>2022-07-21T11:02:19Z</time>
      </trkpt>
      <trkpt lat="47.2073240" lon="6.8886000">
        <ele>668.3</ele>
        <time>2022-07-21T11:02:20Z</time>
      </trkpt>
      <trkpt lat="47.2073240" lon="6.8886000">
        <ele>668.3</ele>
        <time>2022-07-21T11:02:21Z</time>
      </trkpt>
      <trkpt lat="47.2073240" lon="6.8886000">
        <ele>668.3</ele>
        <time>2022-07-21T11:02:22Z</time>
      </trkpt>
      <trkpt lat="47.2073240" lon="6.8886000">
        <ele>668.2</ele>
        <time>2022-07-21T11:02:23Z</time>
      </trkpt>
      <trkpt lat="47.2073240" lon="6.8886000">
        <ele>668.2</ele>
        <time>2022-07-21T11:02:24Z</time>
      </trkpt>
      <trkpt lat="47.2073240" lon="6.8886000">
        <ele>668.2</ele>
        <time>2022-07-21T11:02:25Z</time>
      </trkpt>
      <trkpt lat="47.2073240" lon="6.8886000">
        <ele>668.2</ele>
        <time>2022-07-21T11:02:26Z</time>
      </trkpt>
      <trkpt lat="47.2073240" lon="6.8886000">
        <ele>668.2</ele>
        <time>2022-07-21T11:02:27Z</time>
      </trkpt>
      <trkpt lat="47.2073240" lon="6.8886000">
        <ele>668.2</ele>
        <time>2022-07-21T11:02:28Z</time>
      </trkpt>
      <trkpt lat="47.2073230" lon="6.8886000">
        <ele>668.2</ele>
        <time>2022-07-21T11:02:29Z</time>
      </trkpt>
      <trkpt lat="47.2073230" lon="6.8886000">
        <ele>668.1</ele>
        <time>2022-07-21T11:02:30Z</time>
      </trkpt>
      <trkpt lat="47.2073180" lon="6.8885960">
        <ele>669.3</ele>
        <time>2022-07-21T11:02:31Z</time>
      </trkpt>
      <trkpt lat="47.2073090" lon="6.8885940">
        <ele>669.3</ele>
        <time>2022-07-21T11:02:32Z</time>
      </trkpt>
      <trkpt lat="47.2073010" lon="6.8885990">
        <ele>669.3</ele>
        <time>2022-07-21T11:02:33Z</time>
      </trkpt>
      <trkpt lat="47.2072950" lon="6.8886140">
        <ele>666.8</ele>
        <time>2022-07-21T11:02:34Z</time>
      </trkpt>
      <trkpt lat="47.2072950" lon="6.8886230">
        <ele>666.8</ele>
        <time>2022-07-21T11:02:35Z</time>
      </trkpt>
      <trkpt lat="47.2072950" lon="6.8886230">
        <ele>666.7</ele>
        <time>2022-07-21T11:02:36Z</time>
      </trkpt>
      <trkpt lat="47.2072950" lon="6.8886220">
        <ele>666.7</ele>
        <time>2022-07-21T11:02:37Z</time>
      </trkpt>
      <trkpt lat="47.2072980" lon="6.8886220">
        <ele>668.0</ele>
        <time>2022-07-21T11:02:38Z</time>
      </trkpt>
      <trkpt lat="47.2073010" lon="6.8886230">
        <ele>668.0</ele>
        <time>2022-07-21T11:02:39Z</time>
      </trkpt>
      <trkpt lat="47.2073010" lon="6.8886230">
        <ele>668.0</ele>
        <time>2022-07-21T11:02:40Z</time>
      </trkpt>
      <trkpt lat="47.2073010" lon="6.8886190">
        <ele>668.0</ele>
        <time>2022-07-21T11:02:41Z</time>
      </trkpt>
      <trkpt lat="47.2072980" lon="6.8886100">
        <ele>668.0</ele>
        <time>2022-07-21T11:02:43Z</time>
      </trkpt>
      <trkpt lat="47.2072920" lon="6.8886110">
        <ele>666.6</ele>
        <time>2022-07-21T11:02:44Z</time>
      </trkpt>
      <trkpt lat="47.2072880" lon="6.8886120">
        <ele>666.6</ele>
        <time>2022-07-21T11:02:45Z</time>
      </trkpt>
      <trkpt lat="47.2072800" lon="6.8886100">
        <ele>666.6</ele>
        <time>2022-07-21T11:02:46Z</time>
      </trkpt>
      <trkpt lat="47.2072740" lon="6.8886080">
        <ele>666.6</ele>
        <time>2022-07-21T11:02:47Z</time>
      </trkpt>
      <trkpt lat="47.2072700" lon="6.8886060">
        <ele>666.6</ele>
        <time>2022-07-21T11:02:48Z</time>
      </trkpt>
      <trkpt lat="47.2072650" lon="6.8886030">
        <ele>665.2</ele>
        <time>2022-07-21T11:02:50Z</time>
      </trkpt>
      <trkpt lat="47.2072570" lon="6.8886040">
        <ele>665.2</ele>
        <time>2022-07-21T11:02:51Z</time>
      </trkpt>
      <trkpt lat="47.2072520" lon="6.8886040">
        <ele>665.2</ele>
        <time>2022-07-21T11:02:52Z</time>
      </trkpt>
      <trkpt lat="47.2072380" lon="6.8886070">
        <ele>665.1</ele>
        <time>2022-07-21T11:02:53Z</time>
      </trkpt>
      <trkpt lat="47.2072300" lon="6.8886090">
        <ele>663.6</ele>
        <time>2022-07-21T11:02:55Z</time>
      </trkpt>
      <trkpt lat="47.2072250" lon="6.8886100">
        <ele>663.6</ele>
        <time>2022-07-21T11:02:56Z</time>
      </trkpt>
      <trkpt lat="47.2072190" lon="6.8886100">
        <ele>663.6</ele>
        <time>2022-07-21T11:02:57Z</time>
      </trkpt>
      <trkpt lat="47.2072140" lon="6.8886070">
        <ele>663.6</ele>
        <time>2022-07-21T11:02:58Z</time>
      </trkpt>
      <trkpt lat="47.2072090" lon="6.8886000">
        <ele>663.6</ele>
        <time>2022-07-21T11:02:59Z</time>
      </trkpt>
      <trkpt lat="47.2072050" lon="6.8885930">
        <ele>663.3</ele>
        <time>2022-07-21T11:03:00Z</time>
      </trkpt>
      <trkpt lat="47.2072020" lon="6.8885880">
        <ele>663.2</ele>
        <time>2022-07-21T11:03:01Z</time>
      </trkpt>
      <trkpt lat="47.2071980" lon="6.8885830">
        <ele>663.2</ele>
        <time>2022-07-21T11:03:02Z</time>
      </trkpt>
      <trkpt lat="47.2071960" lon="6.8885830">
        <ele>663.2</ele>
        <time>2022-07-21T11:03:03Z</time>
      </trkpt>
      <trkpt lat="47.2071920" lon="6.8885870">
        <ele>663.2</ele>
        <time>2022-07-21T11:03:04Z</time>
      </trkpt>
      <trkpt lat="47.2071890" lon="6.8885910">
        <ele>663.2</ele>
        <time>2022-07-21T11:03:05Z</time>
      </trkpt>
      <trkpt lat="47.2071870" lon="6.8885950">
        <ele>663.2</ele>
        <time>2022-07-21T11:03:06Z</time>
      </trkpt>
      <trkpt lat="47.2071860" lon="6.8885980">
        <ele>663.2</ele>
        <time>2022-07-21T11:03:07Z</time>
      </trkpt>
      <trkpt lat="47.2071850" lon="6.8886090">
        <ele>662.0</ele>
        <time>2022-07-21T11:03:08Z</time>
      </trkpt>
      <trkpt lat="47.2071830" lon="6.8886230">
        <ele>661.9</ele>
        <time>2022-07-21T11:03:09Z</time>
      </trkpt>
      <trkpt lat="47.2071810" lon="6.8886330">
        <ele>661.9</ele>
        <time>2022-07-21T11:03:10Z</time>
      </trkpt>
      <trkpt lat="47.2071810" lon="6.8886430">
        <ele>660.8</ele>
        <time>2022-07-21T11:03:11Z</time>
      </trkpt>
      <trkpt lat="47.2071830" lon="6.8886630">
        <ele>660.7</ele>
        <time>2022-07-21T11:03:13Z</time>
      </trkpt>
      <trkpt lat="47.2071820" lon="6.8886650">
        <ele>660.7</ele>
        <time>2022-07-21T11:03:14Z</time>
      </trkpt>
      <trkpt lat="47.2071810" lon="6.8886660">
        <ele>660.7</ele>
        <time>2022-07-21T11:03:15Z</time>
      </trkpt>
      <trkpt lat="47.2071790" lon="6.8886680">
        <ele>660.7</ele>
        <time>2022-07-21T11:03:16Z</time>
      </trkpt>
      <trkpt lat="47.2071780" lon="6.8886680">
        <ele>659.2</ele>
        <time>2022-07-21T11:03:17Z</time>
      </trkpt>
      <trkpt lat="47.2071760" lon="6.8886720">
        <ele>659.2</ele>
        <time>2022-07-21T11:03:18Z</time>
      </trkpt>
      <trkpt lat="47.2071740" lon="6.8886770">
        <ele>659.2</ele>
        <time>2022-07-21T11:03:19Z</time>
      </trkpt>
      <trkpt lat="47.2071720" lon="6.8886780">
        <ele>659.2</ele>
        <time>2022-07-21T11:03:20Z</time>
      </trkpt>
      <trkpt lat="47.2071700" lon="6.8886800">
        <ele>659.2</ele>
        <time>2022-07-21T11:03:21Z</time>
      </trkpt>
      <trkpt lat="47.2071680" lon="6.8886810">
        <ele>659.2</ele>
        <time>2022-07-21T11:03:22Z</time>
      </trkpt>
      <trkpt lat="47.2071670" lon="6.8886820">
        <ele>659.1</ele>
        <time>2022-07-21T11:03:23Z</time>
      </trkpt>
      <trkpt lat="47.2071650" lon="6.8886830">
        <ele>659.1</ele>
        <time>2022-07-21T11:03:24Z</time>
      </trkpt>
      <trkpt lat="47.2071580" lon="6.8886760">
        <ele>659.1</ele>
        <time>2022-07-21T11:03:25Z</time>
      </trkpt>
      <trkpt lat="47.2071490" lon="6.8886570">
        <ele>657.8</ele>
        <time>2022-07-21T11:03:26Z</time>
      </trkpt>
      <trkpt lat="47.2071400" lon="6.8886320">
        <ele>658.9</ele>
        <time>2022-07-21T11:03:27Z</time>
      </trkpt>
      <trkpt lat="47.2071250" lon="6.8886210">
        <ele>658.9</ele>
        <time>2022-07-21T11:03:28Z</time>
      </trkpt>
      <trkpt lat="47.2071060" lon="6.8886070">
        <ele>657.7</ele>
        <time>2022-07-21T11:03:30Z</time>
      </trkpt>
      <trkpt lat="47.2070980" lon="6.8886000">
        <ele>657.7</ele>
        <time>2022-07-21T11:03:31Z</time>
      </trkpt>
      <trkpt lat="47.2070890" lon="6.8885930">
        <ele>657.8</ele>
        <time>2022-07-21T11:03:32Z</time>
      </trkpt>
      <trkpt lat="47.2070790" lon="6.8885820">
        <ele>657.7</ele>
        <time>2022-07-21T11:03:34Z</time>
      </trkpt>
      <trkpt lat="47.2070670" lon="6.8885650">
        <ele>657.7</ele>
        <time>2022-07-21T11:03:35Z</time>
      </trkpt>
      <trkpt lat="47.2070520" lon="6.8885450">
        <ele>657.7</ele>
        <time>2022-07-21T11:03:36Z</time>
      </trkpt>
      <trkpt lat="47.2070440" lon="6.8885360">
        <ele>657.7</ele>
        <time>2022-07-21T11:03:37Z</time>
      </trkpt>
      <trkpt lat="47.2070360" lon="6.8885270">
        <ele>657.7</ele>
        <time>2022-07-21T11:03:38Z</time>
      </trkpt>
      <trkpt lat="47.2070240" lon="6.8885200">
        <ele>656.5</ele>
        <time>2022-07-21T11:03:40Z</time>
      </trkpt>
      <trkpt lat="47.2070170" lon="6.8885170">
        <ele>656.4</ele>
        <time>2022-07-21T11:03:41Z</time>
      </trkpt>
      <trkpt lat="47.2070060" lon="6.8885150">
        <ele>656.4</ele>
        <time>2022-07-21T11:03:42Z</time>
      </trkpt>
      <trkpt lat="47.2069920" lon="6.8885160">
        <ele>655.1</ele>
        <time>2022-07-21T11:03:43Z</time>
      </trkpt>
      <trkpt lat="47.2069780" lon="6.8885170">
        <ele>655.1</ele>
        <time>2022-07-21T11:03:45Z</time>
      </trkpt>
      <trkpt lat="47.2069690" lon="6.8885210">
        <ele>653.6</ele>
        <time>2022-07-21T11:03:46Z</time>
      </trkpt>
      <trkpt lat="47.2069630" lon="6.8885240">
        <ele>653.6</ele>
        <time>2022-07-21T11:03:47Z</time>
      </trkpt>
      <trkpt lat="47.2069510" lon="6.8885290">
        <ele>653.6</ele>
        <time>2022-07-21T11:03:48Z</time>
      </trkpt>
      <trkpt lat="47.2069370" lon="6.8885310">
        <ele>652.2</ele>
        <time>2022-07-21T11:03:50Z</time>
      </trkpt>
      <trkpt lat="47.2069340" lon="6.8885330">
        <ele>652.2</ele>
        <time>2022-07-21T11:03:51Z</time>
      </trkpt>
      <trkpt lat="47.2069330" lon="6.8885360">
        <ele>652.2</ele>
        <time>2022-07-21T11:03:52Z</time>
      </trkpt>
      <trkpt lat="47.2069300" lon="6.8885390">
        <ele>652.2</ele>
        <time>2022-07-21T11:03:53Z</time>
      </trkpt>
      <trkpt lat="47.2069300" lon="6.8885420">
        <ele>652.1</ele>
        <time>2022-07-21T11:03:54Z</time>
      </trkpt>
      <trkpt lat="47.2069290" lon="6.8885440">
        <ele>652.1</ele>
        <time>2022-07-21T11:03:55Z</time>
      </trkpt>
      <trkpt lat="47.2069280" lon="6.8885470">
        <ele>652.1</ele>
        <time>2022-07-21T11:03:56Z</time>
      </trkpt>
      <trkpt lat="47.2069270" lon="6.8885490">
        <ele>652.1</ele>
        <time>2022-07-21T11:03:57Z</time>
      </trkpt>
      <trkpt lat="47.2069250" lon="6.8885510">
        <ele>652.1</ele>
        <time>2022-07-21T11:03:58Z</time>
      </trkpt>
      <trkpt lat="47.2069240" lon="6.8885530">
        <ele>652.1</ele>
        <time>2022-07-21T11:03:59Z</time>
      </trkpt>
      <trkpt lat="47.2069230" lon="6.8885550">
        <ele>652.1</ele>
        <time>2022-07-21T11:04:00Z</time>
      </trkpt>
      <trkpt lat="47.2069190" lon="6.8885560">
        <ele>652.0</ele>
        <time>2022-07-21T11:04:01Z</time>
      </trkpt>
      <trkpt lat="47.2069140" lon="6.8885580">
        <ele>649.5</ele>
        <time>2022-07-21T11:04:02Z</time>
      </trkpt>
      <trkpt lat="47.2069110" lon="6.8885590">
        <ele>649.5</ele>
        <time>2022-07-21T11:04:03Z</time>
      </trkpt>
      <trkpt lat="47.2069080" lon="6.8885600">
        <ele>649.4</ele>
        <time>2022-07-21T11:04:04Z</time>
      </trkpt>
      <trkpt lat="47.2068990" lon="6.8885600">
        <ele>649.4</ele>
        <time>2022-07-21T11:04:05Z</time>
      </trkpt>
      <trkpt lat="47.2068950" lon="6.8885590">
        <ele>649.4</ele>
        <time>2022-07-21T11:04:07Z</time>
      </trkpt>
      <trkpt lat="47.2068880" lon="6.8885570">
        <ele>649.4</ele>
        <time>2022-07-21T11:04:08Z</time>
      </trkpt>
      <trkpt lat="47.2068830" lon="6.8885570">
        <ele>648.2</ele>
        <time>2022-07-21T11:04:09Z</time>
      </trkpt>
      <trkpt lat="47.2068760" lon="6.8885580">
        <ele>648.1</ele>
        <time>2022-07-21T11:04:10Z</time>
      </trkpt>
      <trkpt lat="47.2068690" lon="6.8885590">
        <ele>648.1</ele>
        <time>2022-07-21T11:04:11Z</time>
      </trkpt>
      <trkpt lat="47.2068640" lon="6.8885600">
        <ele>648.1</ele>
        <time>2022-07-21T11:04:12Z</time>
      </trkpt>
      <trkpt lat="47.2068580" lon="6.8885630">
        <ele>646.9</ele>
        <time>2022-07-21T11:04:13Z</time>
      </trkpt>
      <trkpt lat="47.2068530" lon="6.8885660">
        <ele>646.9</ele>
        <time>2022-07-21T11:04:14Z</time>
      </trkpt>
      <trkpt lat="47.2068510" lon="6.8885680">
        <ele>646.9</ele>
        <time>2022-07-21T11:04:15Z</time>
      </trkpt>
      <trkpt lat="47.2068480" lon="6.8885710">
        <ele>646.9</ele>
        <time>2022-07-21T11:04:16Z</time>
      </trkpt>
      <trkpt lat="47.2068440" lon="6.8885730">
        <ele>646.9</ele>
        <time>2022-07-21T11:04:17Z</time>
      </trkpt>
      <trkpt lat="47.2068370" lon="6.8885750">
        <ele>646.9</ele>
        <time>2022-07-21T11:04:18Z</time>
      </trkpt>
      <trkpt lat="47.2068260" lon="6.8885740">
        <ele>645.7</ele>
        <time>2022-07-21T11:04:19Z</time>
      </trkpt>
      <trkpt lat="47.2068210" lon="6.8885740">
        <ele>645.7</ele>
        <time>2022-07-21T11:04:20Z</time>
      </trkpt>
      <trkpt lat="47.2068160" lon="6.8885720">
        <ele>645.7</ele>
        <time>2022-07-21T11:04:22Z</time>
      </trkpt>
      <trkpt lat="47.2068080" lon="6.8885670">
        <ele>645.7</ele>
        <time>2022-07-21T11:04:23Z</time>
      </trkpt>
      <trkpt lat="47.2067990" lon="6.8885610">
        <ele>644.6</ele>
        <time>2022-07-21T11:04:24Z</time>
      </trkpt>
      <trkpt lat="47.2067890" lon="6.8885530">
        <ele>645.8</ele>
        <time>2022-07-21T11:04:25Z</time>
      </trkpt>
      <trkpt lat="47.2067670" lon="6.8885390">
        <ele>644.7</ele>
        <time>2022-07-21T11:04:26Z</time>
      </trkpt>
      <trkpt lat="47.2067560" lon="6.8885340">
        <ele>644.7</ele>
        <time>2022-07-21T11:04:28Z</time>
      </trkpt>
      <trkpt lat="47.2067460" lon="6.8885280">
        <ele>644.7</ele>
        <time>2022-07-21T11:04:29Z</time>
      </trkpt>
      <trkpt lat="47.2067350" lon="6.8885230">
        <ele>644.7</ele>
        <time>2022-07-21T11:04:30Z</time>
      </trkpt>
      <trkpt lat="47.2067240" lon="6.8885170">
        <ele>644.8</ele>
        <time>2022-07-21T11:04:31Z</time>
      </trkpt>
      <trkpt lat="47.2067150" lon="6.8885090">
        <ele>644.8</ele>
        <time>2022-07-21T11:04:32Z</time>
      </trkpt>
      <trkpt lat="47.2067070" lon="6.8885010">
        <ele>644.8</ele>
        <time>2022-07-21T11:04:33Z</time>
      </trkpt>
      <trkpt lat="47.2066970" lon="6.8884920">
        <ele>644.9</ele>
        <time>2022-07-21T11:04:34Z</time>
      </trkpt>
      <trkpt lat="47.2066900" lon="6.8884860">
        <ele>644.9</ele>
        <time>2022-07-21T11:04:36Z</time>
      </trkpt>
      <trkpt lat="47.2066800" lon="6.8884790">
        <ele>644.9</ele>
        <time>2022-07-21T11:04:37Z</time>
      </trkpt>
      <trkpt lat="47.2066690" lon="6.8884720">
        <ele>645.0</ele>
        <time>2022-07-21T11:04:38Z</time>
      </trkpt>
      <trkpt lat="47.2066630" lon="6.8884660">
        <ele>645.0</ele>
        <time>2022-07-21T11:04:39Z</time>
      </trkpt>
      <trkpt lat="47.2066590" lon="6.8884610">
        <ele>645.0</ele>
        <time>2022-07-21T11:04:40Z</time>
      </trkpt>
      <trkpt lat="47.2066540" lon="6.8884550">
        <ele>645.0</ele>
        <time>2022-07-21T11:04:41Z</time>
      </trkpt>
      <trkpt lat="47.2066450" lon="6.8884440">
        <ele>645.1</ele>
        <time>2022-07-21T11:04:43Z</time>
      </trkpt>
      <trkpt lat="47.2066400" lon="6.8884360">
        <ele>645.1</ele>
        <time>2022-07-21T11:04:44Z</time>
      </trkpt>
      <trkpt lat="47.2066360" lon="6.8884290">
        <ele>645.1</ele>
        <time>2022-07-21T11:04:45Z</time>
      </trkpt>
      <trkpt lat="47.2066320" lon="6.8884220">
        <ele>645.1</ele>
        <time>2022-07-21T11:04:46Z</time>
      </trkpt>
      <trkpt lat="47.2066260" lon="6.8884130">
        <ele>645.2</ele>
        <time>2022-07-21T11:04:48Z</time>
      </trkpt>
      <trkpt lat="47.2066220" lon="6.8884060">
        <ele>645.2</ele>
        <time>2022-07-21T11:04:49Z</time>
      </trkpt>
      <trkpt lat="47.2066160" lon="6.8883960">
        <ele>645.2</ele>
        <time>2022-07-21T11:04:50Z</time>
      </trkpt>
      <trkpt lat="47.2066100" lon="6.8883890">
        <ele>645.2</ele>
        <time>2022-07-21T11:04:51Z</time>
      </trkpt>
      <trkpt lat="47.2066050" lon="6.8883830">
        <ele>645.3</ele>
        <time>2022-07-21T11:04:52Z</time>
      </trkpt>
      <trkpt lat="47.2065990" lon="6.8883780">
        <ele>645.3</ele>
        <time>2022-07-21T11:04:54Z</time>
      </trkpt>
      <trkpt lat="47.2065960" lon="6.8883750">
        <ele>645.3</ele>
        <time>2022-07-21T11:04:55Z</time>
      </trkpt>
      <trkpt lat="47.2065930" lon="6.8883720">
        <ele>645.3</ele>
        <time>2022-07-21T11:04:56Z</time>
      </trkpt>
      <trkpt lat="47.2065910" lon="6.8883690">
        <ele>645.3</ele>
        <time>2022-07-21T11:04:57Z</time>
      </trkpt>
      <trkpt lat="47.2065880" lon="6.8883650">
        <ele>645.3</ele>
        <time>2022-07-21T11:04:58Z</time>
      </trkpt>
      <trkpt lat="47.2065840" lon="6.8883620">
        <ele>645.3</ele>
        <time>2022-07-21T11:04:59Z</time>
      </trkpt>
      <trkpt lat="47.2065790" lon="6.8883580">
        <ele>645.4</ele>
        <time>2022-07-21T11:05:00Z</time>
      </trkpt>
      <trkpt lat="47.2065650" lon="6.8883460">
        <ele>645.4</ele>
        <time>2022-07-21T11:05:02Z</time>
      </trkpt>
      <trkpt lat="47.2065590" lon="6.8883410">
        <ele>645.4</ele>
        <time>2022-07-21T11:05:03Z</time>
      </trkpt>
      <trkpt lat="47.2065510" lon="6.8883340">
        <ele>645.5</ele>
        <time>2022-07-21T11:05:04Z</time>
      </trkpt>
      <trkpt lat="47.2065450" lon="6.8883280">
        <ele>645.5</ele>
        <time>2022-07-21T11:05:05Z</time>
      </trkpt>
      <trkpt lat="47.2065400" lon="6.8883240">
        <ele>645.5</ele>
        <time>2022-07-21T11:05:06Z</time>
      </trkpt>
      <trkpt lat="47.2065360" lon="6.8883170">
        <ele>645.5</ele>
        <time>2022-07-21T11:05:07Z</time>
      </trkpt>
      <trkpt lat="47.2065060" lon="6.8882850">
        <ele>645.7</ele>
        <time>2022-07-21T11:05:17Z</time>
      </trkpt>
      <trkpt lat="47.2064970" lon="6.8882840">
        <ele>645.7</ele>
        <time>2022-07-21T11:05:18Z</time>
      </trkpt>
      <trkpt lat="47.2064910" lon="6.8882800">
        <ele>645.7</ele>
        <time>2022-07-21T11:05:20Z</time>
      </trkpt>
      <trkpt lat="47.2064890" lon="6.8882770">
        <ele>645.7</ele>
        <time>2022-07-21T11:05:21Z</time>
      </trkpt>
      <trkpt lat="47.2064870" lon="6.8882740">
        <ele>645.7</ele>
        <time>2022-07-21T11:05:22Z</time>
      </trkpt>
      <trkpt lat="47.2064840" lon="6.8882710">
        <ele>645.7</ele>
        <time>2022-07-21T11:05:23Z</time>
      </trkpt>
      <trkpt lat="47.2064810" lon="6.8882690">
        <ele>645.7</ele>
        <time>2022-07-21T11:05:24Z</time>
      </trkpt>
      <trkpt lat="47.2064780" lon="6.8882660">
        <ele>645.8</ele>
        <time>2022-07-21T11:05:25Z</time>
      </trkpt>
      <trkpt lat="47.2064750" lon="6.8882620">
        <ele>645.8</ele>
        <time>2022-07-21T11:05:26Z</time>
      </trkpt>
      <trkpt lat="47.2064720" lon="6.8882580">
        <ele>645.8</ele>
        <time>2022-07-21T11:05:27Z</time>
      </trkpt>
      <trkpt lat="47.2064680" lon="6.8882540">
        <ele>645.8</ele>
        <time>2022-07-21T11:05:28Z</time>
      </trkpt>
      <trkpt lat="47.2064440" lon="6.8882060">
        <ele>645.9</ele>
        <time>2022-07-21T11:05:48Z</time>
      </trkpt>
      <trkpt lat="47.2064370" lon="6.8881970">
        <ele>646.0</ele>
        <time>2022-07-21T11:05:49Z</time>
      </trkpt>
      <trkpt lat="47.2064270" lon="6.8881880">
        <ele>646.0</ele>
        <time>2022-07-21T11:05:50Z</time>
      </trkpt>
      <trkpt lat="47.2064210" lon="6.8881820">
        <ele>646.0</ele>
        <time>2022-07-21T11:05:51Z</time>
      </trkpt>
      <trkpt lat="47.2064020" lon="6.8881650">
        <ele>646.1</ele>
        <time>2022-07-21T11:05:52Z</time>
      </trkpt>
      <trkpt lat="47.2063890" lon="6.8881540">
        <ele>646.1</ele>
        <time>2022-07-21T11:05:54Z</time>
      </trkpt>
      <trkpt lat="47.2063760" lon="6.8881430">
        <ele>646.2</ele>
        <time>2022-07-21T11:05:55Z</time>
      </trkpt>
      <trkpt lat="47.2063640" lon="6.8881290">
        <ele>646.2</ele>
        <time>2022-07-21T11:05:56Z</time>
      </trkpt>
      <trkpt lat="47.2063430" lon="6.8880940">
        <ele>646.2</ele>
        <time>2022-07-21T11:05:57Z</time>
      </trkpt>
      <trkpt lat="47.2063370" lon="6.8880830">
        <ele>646.2</ele>
        <time>2022-07-21T11:05:58Z</time>
      </trkpt>
      <trkpt lat="47.2063330" lon="6.8880650">
        <ele>646.2</ele>
        <time>2022-07-21T11:06:00Z</time>
      </trkpt>
      <trkpt lat="47.2063200" lon="6.8880390">
        <ele>646.3</ele>
        <time>2022-07-21T11:06:01Z</time>
      </trkpt>
      <trkpt lat="47.2062830" lon="6.8879980">
        <ele>646.2</ele>
        <time>2022-07-21T11:06:02Z</time>
      </trkpt>
      <trkpt lat="47.2062450" lon="6.8879640">
        <ele>646.2</ele>
        <time>2022-07-21T11:06:03Z</time>
      </trkpt>
      <trkpt lat="47.2062100" lon="6.8879320">
        <ele>646.1</ele>
        <time>2022-07-21T11:06:04Z</time>
      </trkpt>
      <trkpt lat="47.2061790" lon="6.8879010">
        <ele>646.0</ele>
        <time>2022-07-21T11:06:06Z</time>
      </trkpt>
      <trkpt lat="47.2061450" lon="6.8878580">
        <ele>645.9</ele>
        <time>2022-07-21T11:06:07Z</time>
      </trkpt>
      <trkpt lat="47.2061260" lon="6.8878200">
        <ele>645.8</ele>
        <time>2022-07-21T11:06:09Z</time>
      </trkpt>
      <trkpt lat="47.2060990" lon="6.8877700">
        <ele>645.6</ele>
        <time>2022-07-21T11:06:10Z</time>
      </trkpt>
      <trkpt lat="47.2060800" lon="6.8877320">
        <ele>645.5</ele>
        <time>2022-07-21T11:06:11Z</time>
      </trkpt>
      <trkpt lat="47.2060600" lon="6.8876840">
        <ele>645.3</ele>
        <time>2022-07-21T11:06:12Z</time>
      </trkpt>
      <trkpt lat="47.2060530" lon="6.8876690">
        <ele>645.3</ele>
        <time>2022-07-21T11:06:13Z</time>
      </trkpt>
      <trkpt lat="47.2060310" lon="6.8876190">
        <ele>645.1</ele>
        <time>2022-07-21T11:06:14Z</time>
      </trkpt>
      <trkpt lat="47.2060140" lon="6.8875850">
        <ele>645.0</ele>
        <time>2022-07-21T11:06:15Z</time>
      </trkpt>
      <trkpt lat="47.2059920" lon="6.8875480">
        <ele>644.9</ele>
        <time>2022-07-21T11:06:16Z</time>
      </trkpt>
      <trkpt lat="47.2059630" lon="6.8874950">
        <ele>644.8</ele>
        <time>2022-07-21T11:06:17Z</time>
      </trkpt>
      <trkpt lat="47.2059510" lon="6.8874730">
        <ele>644.7</ele>
        <time>2022-07-21T11:06:18Z</time>
      </trkpt>
      <trkpt lat="47.2059280" lon="6.8874280">
        <ele>644.6</ele>
        <time>2022-07-21T11:06:19Z</time>
      </trkpt>
      <trkpt lat="47.2059050" lon="6.8873820">
        <ele>644.6</ele>
        <time>2022-07-21T11:06:20Z</time>
      </trkpt>
      <trkpt lat="47.2058890" lon="6.8873460">
        <ele>644.5</ele>
        <time>2022-07-21T11:06:21Z</time>
      </trkpt>
      <trkpt lat="47.2058710" lon="6.8873100">
        <ele>644.5</ele>
        <time>2022-07-21T11:06:22Z</time>
      </trkpt>
      <trkpt lat="47.2058660" lon="6.8873000">
        <ele>644.5</ele>
        <time>2022-07-21T11:06:23Z</time>
      </trkpt>
      <trkpt lat="47.2058340" lon="6.8872470">
        <ele>644.6</ele>
        <time>2022-07-21T11:06:25Z</time>
      </trkpt>
      <trkpt lat="47.2058210" lon="6.8872270">
        <ele>644.6</ele>
        <time>2022-07-21T11:06:26Z</time>
      </trkpt>
      <trkpt lat="47.2058090" lon="6.8872080">
        <ele>644.6</ele>
        <time>2022-07-21T11:06:27Z</time>
      </trkpt>
      <trkpt lat="47.2057830" lon="6.8871690">
        <ele>644.7</ele>
        <time>2022-07-21T11:06:28Z</time>
      </trkpt>
      <trkpt lat="47.2057760" lon="6.8871590">
        <ele>644.7</ele>
        <time>2022-07-21T11:06:29Z</time>
      </trkpt>
      <trkpt lat="47.2057450" lon="6.8871180">
        <ele>644.5</ele>
        <time>2022-07-21T11:06:30Z</time>
      </trkpt>
      <trkpt lat="47.2057350" lon="6.8871040">
        <ele>644.5</ele>
        <time>2022-07-21T11:06:31Z</time>
      </trkpt>
      <trkpt lat="47.2057140" lon="6.8870680">
        <ele>644.4</ele>
        <time>2022-07-21T11:06:32Z</time>
      </trkpt>
      <trkpt lat="47.2057080" lon="6.8870560">
        <ele>644.4</ele>
        <time>2022-07-21T11:06:33Z</time>
      </trkpt>
      <trkpt lat="47.2056920" lon="6.8870080">
        <ele>644.3</ele>
        <time>2022-07-21T11:06:34Z</time>
      </trkpt>
      <trkpt lat="47.2056870" lon="6.8869940">
        <ele>644.3</ele>
        <time>2022-07-21T11:06:35Z</time>
      </trkpt>
      <trkpt lat="47.2056760" lon="6.8869520">
        <ele>644.3</ele>
        <time>2022-07-21T11:06:36Z</time>
      </trkpt>
      <trkpt lat="47.2056560" lon="6.8869060">
        <ele>644.3</ele>
        <time>2022-07-21T11:06:37Z</time>
      </trkpt>
      <trkpt lat="47.2056350" lon="6.8868580">
        <ele>644.2</ele>
        <time>2022-07-21T11:06:39Z</time>
      </trkpt>
      <trkpt lat="47.2056290" lon="6.8868420">
        <ele>644.2</ele>
        <time>2022-07-21T11:06:40Z</time>
      </trkpt>
      <trkpt lat="47.2056200" lon="6.8868250">
        <ele>644.2</ele>
        <time>2022-07-21T11:06:41Z</time>
      </trkpt>
      <trkpt lat="47.2056110" lon="6.8868040">
        <ele>644.2</ele>
        <time>2022-07-21T11:06:42Z</time>
      </trkpt>
      <trkpt lat="47.2056000" lon="6.8867670">
        <ele>644.2</ele>
        <time>2022-07-21T11:06:43Z</time>
      </trkpt>
      <trkpt lat="47.2055960" lon="6.8867490">
        <ele>644.2</ele>
        <time>2022-07-21T11:06:44Z</time>
      </trkpt>
      <trkpt lat="47.2055740" lon="6.8866850">
        <ele>644.3</ele>
        <time>2022-07-21T11:06:46Z</time>
      </trkpt>
      <trkpt lat="47.2055620" lon="6.8866300">
        <ele>644.3</ele>
        <time>2022-07-21T11:06:47Z</time>
      </trkpt>
      <trkpt lat="47.2055570" lon="6.8865660">
        <ele>644.3</ele>
        <time>2022-07-21T11:06:49Z</time>
      </trkpt>
      <trkpt lat="47.2055560" lon="6.8865440">
        <ele>644.3</ele>
        <time>2022-07-21T11:06:50Z</time>
      </trkpt>
      <trkpt lat="47.2055550" lon="6.8865210">
        <ele>644.3</ele>
        <time>2022-07-21T11:06:51Z</time>
      </trkpt>
      <trkpt lat="47.2055520" lon="6.8864880">
        <ele>644.3</ele>
        <time>2022-07-21T11:06:52Z</time>
      </trkpt>
      <trkpt lat="47.2055500" lon="6.8864690">
        <ele>644.3</ele>
        <time>2022-07-21T11:06:53Z</time>
      </trkpt>
      <trkpt lat="47.2055440" lon="6.8864410">
        <ele>644.3</ele>
        <time>2022-07-21T11:06:54Z</time>
      </trkpt>
      <trkpt lat="47.2055400" lon="6.8864260">
        <ele>644.3</ele>
        <time>2022-07-21T11:06:55Z</time>
      </trkpt>
      <trkpt lat="47.2055330" lon="6.8864080">
        <ele>644.3</ele>
        <time>2022-07-21T11:06:57Z</time>
      </trkpt>
      <trkpt lat="47.2055230" lon="6.8863810">
        <ele>644.4</ele>
        <time>2022-07-21T11:06:58Z</time>
      </trkpt>
      <trkpt lat="47.2055030" lon="6.8863410">
        <ele>644.4</ele>
        <time>2022-07-21T11:06:59Z</time>
      </trkpt>
      <trkpt lat="47.2054950" lon="6.8863260">
        <ele>644.4</ele>
        <time>2022-07-21T11:07:00Z</time>
      </trkpt>
      <trkpt lat="47.2054730" lon="6.8862820">
        <ele>644.4</ele>
        <time>2022-07-21T11:07:01Z</time>
      </trkpt>
      <trkpt lat="47.2054480" lon="6.8862350">
        <ele>644.5</ele>
        <time>2022-07-21T11:07:03Z</time>
      </trkpt>
      <trkpt lat="47.2054250" lon="6.8861950">
        <ele>644.5</ele>
        <time>2022-07-21T11:07:04Z</time>
      </trkpt>
      <trkpt lat="47.2054080" lon="6.8861590">
        <ele>644.5</ele>
        <time>2022-07-21T11:07:05Z</time>
      </trkpt>
      <trkpt lat="47.2053900" lon="6.8861230">
        <ele>644.5</ele>
        <time>2022-07-21T11:07:06Z</time>
      </trkpt>
      <trkpt lat="47.2053700" lon="6.8860780">
        <ele>644.6</ele>
        <time>2022-07-21T11:07:08Z</time>
      </trkpt>
      <trkpt lat="47.2053430" lon="6.8860340">
        <ele>644.6</ele>
        <time>2022-07-21T11:07:09Z</time>
      </trkpt>
      <trkpt lat="47.2053340" lon="6.8860210">
        <ele>644.6</ele>
        <time>2022-07-21T11:07:10Z</time>
      </trkpt>
      <trkpt lat="47.2053130" lon="6.8859750">
        <ele>644.6</ele>
        <time>2022-07-21T11:07:11Z</time>
      </trkpt>
      <trkpt lat="47.2053070" lon="6.8859570">
        <ele>644.6</ele>
        <time>2022-07-21T11:07:12Z</time>
      </trkpt>
      <trkpt lat="47.2052870" lon="6.8859150">
        <ele>644.6</ele>
        <time>2022-07-21T11:07:13Z</time>
      </trkpt>
      <trkpt lat="47.2052790" lon="6.8858960">
        <ele>644.6</ele>
        <time>2022-07-21T11:07:14Z</time>
      </trkpt>
      <trkpt lat="47.2052670" lon="6.8858440">
        <ele>644.6</ele>
        <time>2022-07-21T11:07:16Z</time>
      </trkpt>
      <trkpt lat="47.2052640" lon="6.8858230">
        <ele>644.6</ele>
        <time>2022-07-21T11:07:17Z</time>
      </trkpt>
      <trkpt lat="47.2052580" lon="6.8857810">
        <ele>644.6</ele>
        <time>2022-07-21T11:07:18Z</time>
      </trkpt>
      <trkpt lat="47.2052490" lon="6.8857160">
        <ele>644.6</ele>
        <time>2022-07-21T11:07:20Z</time>
      </trkpt>
      <trkpt lat="47.2052480" lon="6.8856970">
        <ele>644.6</ele>
        <time>2022-07-21T11:07:21Z</time>
      </trkpt>
      <trkpt lat="47.2052480" lon="6.8856790">
        <ele>644.6</ele>
        <time>2022-07-21T11:07:22Z</time>
      </trkpt>
      <trkpt lat="47.2052460" lon="6.8856330">
        <ele>644.5</ele>
        <time>2022-07-21T11:07:23Z</time>
      </trkpt>
      <trkpt lat="47.2052510" lon="6.8855670">
        <ele>644.5</ele>
        <time>2022-07-21T11:07:25Z</time>
      </trkpt>
      <trkpt lat="47.2052530" lon="6.8855450">
        <ele>644.5</ele>
        <time>2022-07-21T11:07:26Z</time>
      </trkpt>
      <trkpt lat="47.2052550" lon="6.8855230">
        <ele>644.5</ele>
        <time>2022-07-21T11:07:27Z</time>
      </trkpt>
      <trkpt lat="47.2052590" lon="6.8854950">
        <ele>644.5</ele>
        <time>2022-07-21T11:07:28Z</time>
      </trkpt>
      <trkpt lat="47.2052630" lon="6.8854760">
        <ele>644.5</ele>
        <time>2022-07-21T11:07:29Z</time>
      </trkpt>
      <trkpt lat="47.2052650" lon="6.8854290">
        <ele>644.5</ele>
        <time>2022-07-21T11:07:30Z</time>
      </trkpt>
      <trkpt lat="47.2052640" lon="6.8854100">
        <ele>644.5</ele>
        <time>2022-07-21T11:07:31Z</time>
      </trkpt>
      <trkpt lat="47.2052580" lon="6.8853470">
        <ele>644.4</ele>
        <time>2022-07-21T11:07:32Z</time>
      </trkpt>
      <trkpt lat="47.2052560" lon="6.8853210">
        <ele>644.4</ele>
        <time>2022-07-21T11:07:33Z</time>
      </trkpt>
      <trkpt lat="47.2052640" lon="6.8852500">
        <ele>644.4</ele>
        <time>2022-07-21T11:07:35Z</time>
      </trkpt>
      <trkpt lat="47.2052710" lon="6.8852270">
        <ele>644.4</ele>
        <time>2022-07-21T11:07:36Z</time>
      </trkpt>
      <trkpt lat="47.2052770" lon="6.8852030">
        <ele>644.4</ele>
        <time>2022-07-21T11:07:37Z</time>
      </trkpt>
      <trkpt lat="47.2052990" lon="6.8851600">
        <ele>644.4</ele>
        <time>2022-07-21T11:07:39Z</time>
      </trkpt>
      <trkpt lat="47.2053140" lon="6.8851160">
        <ele>644.4</ele>
        <time>2022-07-21T11:07:40Z</time>
      </trkpt>
      <trkpt lat="47.2053220" lon="6.8850920">
        <ele>644.4</ele>
        <time>2022-07-21T11:07:41Z</time>
      </trkpt>
      <trkpt lat="47.2053390" lon="6.8850570">
        <ele>644.5</ele>
        <time>2022-07-21T11:07:43Z</time>
      </trkpt>
      <trkpt lat="47.2053510" lon="6.8850110">
        <ele>644.5</ele>
        <time>2022-07-21T11:07:44Z</time>
      </trkpt>
      <trkpt lat="47.2053540" lon="6.8849930">
        <ele>644.5</ele>
        <time>2022-07-21T11:07:45Z</time>
      </trkpt>
      <trkpt lat="47.2053570" lon="6.8849510">
        <ele>644.6</ele>
        <time>2022-07-21T11:07:47Z</time>
      </trkpt>
      <trkpt lat="47.2053580" lon="6.8849040">
        <ele>644.7</ele>
        <time>2022-07-21T11:07:48Z</time>
      </trkpt>
      <trkpt lat="47.2053660" lon="6.8848580">
        <ele>644.7</ele>
        <time>2022-07-21T11:07:49Z</time>
      </trkpt>
      <trkpt lat="47.2053700" lon="6.8848460">
        <ele>644.7</ele>
        <time>2022-07-21T11:07:50Z</time>
      </trkpt>
      <trkpt lat="47.2053850" lon="6.8847950">
        <ele>644.8</ele>
        <time>2022-07-21T11:07:52Z</time>
      </trkpt>
      <trkpt lat="47.2053880" lon="6.8847770">
        <ele>644.8</ele>
        <time>2022-07-21T11:07:53Z</time>
      </trkpt>
      <trkpt lat="47.2053900" lon="6.8847150">
        <ele>644.8</ele>
        <time>2022-07-21T11:07:54Z</time>
      </trkpt>
      <trkpt lat="47.2053920" lon="6.8846860">
        <ele>644.8</ele>
        <time>2022-07-21T11:07:55Z</time>
      </trkpt>
      <trkpt lat="47.2053930" lon="6.8846220">
        <ele>644.8</ele>
        <time>2022-07-21T11:07:57Z</time>
      </trkpt>
      <trkpt lat="47.2053900" lon="6.8846020">
        <ele>644.7</ele>
        <time>2022-07-21T11:07:58Z</time>
      </trkpt>
      <trkpt lat="47.2053880" lon="6.8845820">
        <ele>644.7</ele>
        <time>2022-07-21T11:07:59Z</time>
      </trkpt>
      <trkpt lat="47.2053810" lon="6.8845440">
        <ele>644.6</ele>
        <time>2022-07-21T11:08:00Z</time>
      </trkpt>
      <trkpt lat="47.2053770" lon="6.8844950">
        <ele>644.5</ele>
        <time>2022-07-21T11:08:01Z</time>
      </trkpt>
      <trkpt lat="47.2053750" lon="6.8844750">
        <ele>644.5</ele>
        <time>2022-07-21T11:08:02Z</time>
      </trkpt>
      <trkpt lat="47.2053700" lon="6.8844230">
        <ele>644.3</ele>
        <time>2022-07-21T11:08:03Z</time>
      </trkpt>
      <trkpt lat="47.2053570" lon="6.8843470">
        <ele>644.1</ele>
        <time>2022-07-21T11:08:04Z</time>
      </trkpt>
      <trkpt lat="47.2053430" lon="6.8842940">
        <ele>644.0</ele>
        <time>2022-07-21T11:08:05Z</time>
      </trkpt>
      <trkpt lat="47.2053310" lon="6.8842440">
        <ele>643.9</ele>
        <time>2022-07-21T11:08:07Z</time>
      </trkpt>
      <trkpt lat="47.2053210" lon="6.8842210">
        <ele>643.9</ele>
        <time>2022-07-21T11:08:08Z</time>
      </trkpt>
      <trkpt lat="47.2053110" lon="6.8842060">
        <ele>643.8</ele>
        <time>2022-07-21T11:08:09Z</time>
      </trkpt>
      <trkpt lat="47.2052840" lon="6.8841940">
        <ele>643.8</ele>
        <time>2022-07-21T11:08:11Z</time>
      </trkpt>
      <trkpt lat="47.2052750" lon="6.8841930">
        <ele>643.8</ele>
        <time>2022-07-21T11:08:12Z</time>
      </trkpt>
      <trkpt lat="47.2052450" lon="6.8841940">
        <ele>643.7</ele>
        <time>2022-07-21T11:08:13Z</time>
      </trkpt>
      <trkpt lat="47.2052350" lon="6.8841950">
        <ele>643.7</ele>
        <time>2022-07-21T11:08:14Z</time>
      </trkpt>
      <trkpt lat="47.2052050" lon="6.8842020">
        <ele>643.7</ele>
        <time>2022-07-21T11:08:15Z</time>
      </trkpt>
      <trkpt lat="47.2051960" lon="6.8842030">
        <ele>643.7</ele>
        <time>2022-07-21T11:08:16Z</time>
      </trkpt>
      <trkpt lat="47.2051630" lon="6.8841990">
        <ele>643.6</ele>
        <time>2022-07-21T11:08:17Z</time>
      </trkpt>
      <trkpt lat="47.2051510" lon="6.8841980">
        <ele>643.6</ele>
        <time>2022-07-21T11:08:18Z</time>
      </trkpt>
      <trkpt lat="47.2051250" lon="6.8842010">
        <ele>643.6</ele>
        <time>2022-07-21T11:08:19Z</time>
      </trkpt>
      <trkpt lat="47.2050980" lon="6.8842010">
        <ele>643.6</ele>
        <time>2022-07-21T11:08:21Z</time>
      </trkpt>
      <trkpt lat="47.2050640" lon="6.8841850">
        <ele>643.6</ele>
        <time>2022-07-21T11:08:22Z</time>
      </trkpt>
      <trkpt lat="47.2050520" lon="6.8841770">
        <ele>643.6</ele>
        <time>2022-07-21T11:08:23Z</time>
      </trkpt>
      <trkpt lat="47.2050230" lon="6.8841570">
        <ele>643.7</ele>
        <time>2022-07-21T11:08:24Z</time>
      </trkpt>
      <trkpt lat="47.2049990" lon="6.8841380">
        <ele>643.7</ele>
        <time>2022-07-21T11:08:25Z</time>
      </trkpt>
      <trkpt lat="47.2049720" lon="6.8841150">
        <ele>643.8</ele>
        <time>2022-07-21T11:08:26Z</time>
      </trkpt>
      <trkpt lat="47.2049360" lon="6.8840760">
        <ele>643.9</ele>
        <time>2022-07-21T11:08:28Z</time>
      </trkpt>
      <trkpt lat="47.2049260" lon="6.8840630">
        <ele>643.9</ele>
        <time>2022-07-21T11:08:29Z</time>
      </trkpt>
      <trkpt lat="47.2049160" lon="6.8840500">
        <ele>643.9</ele>
        <time>2022-07-21T11:08:30Z</time>
      </trkpt>
      <trkpt lat="47.2048920" lon="6.8840360">
        <ele>644.1</ele>
        <time>2022-07-21T11:08:31Z</time>
      </trkpt>
      <trkpt lat="47.2048690" lon="6.8840180">
        <ele>644.2</ele>
        <time>2022-07-21T11:08:33Z</time>
      </trkpt>
      <trkpt lat="47.2048530" lon="6.8840080">
        <ele>644.2</ele>
        <time>2022-07-21T11:08:34Z</time>
      </trkpt>
      <trkpt lat="47.2048440" lon="6.8839910">
        <ele>644.3</ele>
        <time>2022-07-21T11:08:35Z</time>
      </trkpt>
      <trkpt lat="47.2048120" lon="6.8839570">
        <ele>644.5</ele>
        <time>2022-07-21T11:08:36Z</time>
      </trkpt>
      <trkpt lat="47.2047990" lon="6.8839470">
        <ele>644.6</ele>
        <time>2022-07-21T11:08:37Z</time>
      </trkpt>
      <trkpt lat="47.2047690" lon="6.8839240">
        <ele>644.7</ele>
        <time>2022-07-21T11:08:38Z</time>
      </trkpt>
      <trkpt lat="47.2047620" lon="6.8839180">
        <ele>644.8</ele>
        <time>2022-07-21T11:08:39Z</time>
      </trkpt>
      <trkpt lat="47.2047330" lon="6.8838960">
        <ele>644.9</ele>
        <time>2022-07-21T11:08:40Z</time>
      </trkpt>
      <trkpt lat="47.2047220" lon="6.8838890">
        <ele>645.0</ele>
        <time>2022-07-21T11:08:41Z</time>
      </trkpt>
      <trkpt lat="47.2047070" lon="6.8838800">
        <ele>645.0</ele>
        <time>2022-07-21T11:08:42Z</time>
      </trkpt>
      <trkpt lat="47.2046940" lon="6.8838730">
        <ele>645.1</ele>
        <time>2022-07-21T11:08:43Z</time>
      </trkpt>
      <trkpt lat="47.2046730" lon="6.8838620">
        <ele>645.2</ele>
        <time>2022-07-21T11:08:44Z</time>
      </trkpt>
      <trkpt lat="47.2046670" lon="6.8838550">
        <ele>645.2</ele>
        <time>2022-07-21T11:08:45Z</time>
      </trkpt>
      <trkpt lat="47.2046600" lon="6.8838480">
        <ele>645.2</ele>
        <time>2022-07-21T11:08:46Z</time>
      </trkpt>
      <trkpt lat="47.2046480" lon="6.8838360">
        <ele>645.3</ele>
        <time>2022-07-21T11:08:47Z</time>
      </trkpt>
      <trkpt lat="47.2046350" lon="6.8838160">
        <ele>645.3</ele>
        <time>2022-07-21T11:08:48Z</time>
      </trkpt>
      <trkpt lat="47.2046240" lon="6.8837990">
        <ele>645.4</ele>
        <time>2022-07-21T11:08:49Z</time>
      </trkpt>
      <trkpt lat="47.2046140" lon="6.8837820">
        <ele>645.4</ele>
        <time>2022-07-21T11:08:50Z</time>
      </trkpt>
      <trkpt lat="47.2045930" lon="6.8837470">
        <ele>645.5</ele>
        <time>2022-07-21T11:08:51Z</time>
      </trkpt>
      <trkpt lat="47.2045860" lon="6.8837350">
        <ele>645.6</ele>
        <time>2022-07-21T11:08:52Z</time>
      </trkpt>
      <trkpt lat="47.2045660" lon="6.8837050">
        <ele>645.7</ele>
        <time>2022-07-21T11:08:53Z</time>
      </trkpt>
      <trkpt lat="47.2045590" lon="6.8836950">
        <ele>645.7</ele>
        <time>2022-07-21T11:08:54Z</time>
      </trkpt>
      <trkpt lat="47.2045340" lon="6.8836620">
        <ele>645.8</ele>
        <time>2022-07-21T11:08:55Z</time>
      </trkpt>
      <trkpt lat="47.2045250" lon="6.8836510">
        <ele>645.8</ele>
        <time>2022-07-21T11:08:56Z</time>
      </trkpt>
      <trkpt lat="47.2044950" lon="6.8836160">
        <ele>645.9</ele>
        <time>2022-07-21T11:08:57Z</time>
      </trkpt>
      <trkpt lat="47.2044850" lon="6.8836050">
        <ele>646.0</ele>
        <time>2022-07-21T11:08:58Z</time>
      </trkpt>
      <trkpt lat="47.2044640" lon="6.8835740">
        <ele>646.1</ele>
        <time>2022-07-21T11:08:59Z</time>
      </trkpt>
      <trkpt lat="47.2044480" lon="6.8835400">
        <ele>646.1</ele>
        <time>2022-07-21T11:09:00Z</time>
      </trkpt>
      <trkpt lat="47.2044440" lon="6.8835270">
        <ele>646.2</ele>
        <time>2022-07-21T11:09:01Z</time>
      </trkpt>
      <trkpt lat="47.2044360" lon="6.8834860">
        <ele>646.2</ele>
        <time>2022-07-21T11:09:02Z</time>
      </trkpt>
      <trkpt lat="47.2044310" lon="6.8834730">
        <ele>646.2</ele>
        <time>2022-07-21T11:09:03Z</time>
      </trkpt>
      <trkpt lat="47.2044140" lon="6.8834420">
        <ele>646.3</ele>
        <time>2022-07-21T11:09:04Z</time>
      </trkpt>
      <trkpt lat="47.2043930" lon="6.8833990">
        <ele>646.3</ele>
        <time>2022-07-21T11:09:05Z</time>
      </trkpt>
      <trkpt lat="47.2043840" lon="6.8833750">
        <ele>646.3</ele>
        <time>2022-07-21T11:09:06Z</time>
      </trkpt>
      <trkpt lat="47.2043730" lon="6.8833340">
        <ele>646.1</ele>
        <time>2022-07-21T11:09:08Z</time>
      </trkpt>
      <trkpt lat="47.2043630" lon="6.8832880">
        <ele>645.6</ele>
        <time>2022-07-21T11:09:09Z</time>
      </trkpt>
      <trkpt lat="47.2043600" lon="6.8832760">
        <ele>645.5</ele>
        <time>2022-07-21T11:09:10Z</time>
      </trkpt>
      <trkpt lat="47.2043590" lon="6.8832400">
        <ele>645.1</ele>
        <time>2022-07-21T11:09:11Z</time>
      </trkpt>
      <trkpt lat="47.2043640" lon="6.8832280">
        <ele>645.0</ele>
        <time>2022-07-21T11:09:13Z</time>
      </trkpt>
      <trkpt lat="47.2043690" lon="6.8832160">
        <ele>644.8</ele>
        <time>2022-07-21T11:09:14Z</time>
      </trkpt>
      <trkpt lat="47.2043740" lon="6.8832040">
        <ele>644.7</ele>
        <time>2022-07-21T11:09:15Z</time>
      </trkpt>
      <trkpt lat="47.2043790" lon="6.8831930">
        <ele>644.5</ele>
        <time>2022-07-21T11:09:16Z</time>
      </trkpt>
      <trkpt lat="47.2043810" lon="6.8831750">
        <ele>644.3</ele>
        <time>2022-07-21T11:09:17Z</time>
      </trkpt>
      <trkpt lat="47.2043760" lon="6.8831590">
        <ele>644.2</ele>
        <time>2022-07-21T11:09:18Z</time>
      </trkpt>
      <trkpt lat="47.2043740" lon="6.8831510">
        <ele>644.1</ele>
        <time>2022-07-21T11:09:19Z</time>
      </trkpt>
      <trkpt lat="47.2043710" lon="6.8831460">
        <ele>644.0</ele>
        <time>2022-07-21T11:09:20Z</time>
      </trkpt>
      <trkpt lat="47.2043650" lon="6.8831390">
        <ele>643.9</ele>
        <time>2022-07-21T11:09:21Z</time>
      </trkpt>
      <trkpt lat="47.2043620" lon="6.8831350">
        <ele>643.8</ele>
        <time>2022-07-21T11:09:22Z</time>
      </trkpt>
      <trkpt lat="47.2043570" lon="6.8831330">
        <ele>643.8</ele>
        <time>2022-07-21T11:09:23Z</time>
      </trkpt>
      <trkpt lat="47.2043540" lon="6.8831310">
        <ele>643.7</ele>
        <time>2022-07-21T11:09:24Z</time>
      </trkpt>
      <trkpt lat="47.2043510" lon="6.8831280">
        <ele>643.7</ele>
        <time>2022-07-21T11:09:25Z</time>
      </trkpt>
      <trkpt lat="47.2043450" lon="6.8831160">
        <ele>643.5</ele>
        <time>2022-07-21T11:09:26Z</time>
      </trkpt>
      <trkpt lat="47.2043410" lon="6.8831090">
        <ele>643.4</ele>
        <time>2022-07-21T11:09:27Z</time>
      </trkpt>
      <trkpt lat="47.2043380" lon="6.8831010">
        <ele>643.3</ele>
        <time>2022-07-21T11:09:28Z</time>
      </trkpt>
      <trkpt lat="47.2043350" lon="6.8830940">
        <ele>643.3</ele>
        <time>2022-07-21T11:09:29Z</time>
      </trkpt>
      <trkpt lat="47.2043320" lon="6.8830870">
        <ele>643.2</ele>
        <time>2022-07-21T11:09:30Z</time>
      </trkpt>
      <trkpt lat="47.2043290" lon="6.8830800">
        <ele>643.1</ele>
        <time>2022-07-21T11:09:31Z</time>
      </trkpt>
      <trkpt lat="47.2043260" lon="6.8830720">
        <ele>643.0</ele>
        <time>2022-07-21T11:09:40Z</time>
      </trkpt>
      <trkpt lat="47.2043220" lon="6.8830650">
        <ele>642.9</ele>
        <time>2022-07-21T11:09:41Z</time>
      </trkpt>
      <trkpt lat="47.2043190" lon="6.8830580">
        <ele>642.8</ele>
        <time>2022-07-21T11:09:42Z</time>
      </trkpt>
      <trkpt lat="47.2043160" lon="6.8830500">
        <ele>642.8</ele>
        <time>2022-07-21T11:09:43Z</time>
      </trkpt>
      <trkpt lat="47.2043130" lon="6.8830430">
        <ele>642.7</ele>
        <time>2022-07-21T11:09:44Z</time>
      </trkpt>
      <trkpt lat="47.2043100" lon="6.8830360">
        <ele>642.6</ele>
        <time>2022-07-21T11:09:45Z</time>
      </trkpt>
      <trkpt lat="47.2043070" lon="6.8830290">
        <ele>642.5</ele>
        <time>2022-07-21T11:09:46Z</time>
      </trkpt>
      <trkpt lat="47.2043030" lon="6.8830210">
        <ele>642.4</ele>
        <time>2022-07-21T11:09:47Z</time>
      </trkpt>
      <trkpt lat="47.2043000" lon="6.8830140">
        <ele>642.4</ele>
        <time>2022-07-21T11:09:48Z</time>
      </trkpt>
      <trkpt lat="47.2042910" lon="6.8829610">
        <ele>641.9</ele>
        <time>2022-07-21T11:09:49Z</time>
      </trkpt>
      <trkpt lat="47.2042880" lon="6.8829460">
        <ele>641.8</ele>
        <time>2022-07-21T11:09:50Z</time>
      </trkpt>
      <trkpt lat="47.2042720" lon="6.8829020">
        <ele>641.4</ele>
        <time>2022-07-21T11:09:51Z</time>
      </trkpt>
      <trkpt lat="47.2042660" lon="6.8828880">
        <ele>641.3</ele>
        <time>2022-07-21T11:09:52Z</time>
      </trkpt>
      <trkpt lat="47.2042350" lon="6.8828430">
        <ele>640.9</ele>
        <time>2022-07-21T11:09:53Z</time>
      </trkpt>
      <trkpt lat="47.2042230" lon="6.8828260">
        <ele>640.8</ele>
        <time>2022-07-21T11:09:54Z</time>
      </trkpt>
      <trkpt lat="47.2041950" lon="6.8827880">
        <ele>640.5</ele>
        <time>2022-07-21T11:09:55Z</time>
      </trkpt>
      <trkpt lat="47.2041850" lon="6.8827750">
        <ele>640.5</ele>
        <time>2022-07-21T11:09:56Z</time>
      </trkpt>
      <trkpt lat="47.2041660" lon="6.8827420">
        <ele>640.3</ele>
        <time>2022-07-21T11:09:57Z</time>
      </trkpt>
      <trkpt lat="47.2041350" lon="6.8826950">
        <ele>640.1</ele>
        <time>2022-07-21T11:09:58Z</time>
      </trkpt>
      <trkpt lat="47.2041230" lon="6.8826760">
        <ele>640.1</ele>
        <time>2022-07-21T11:09:59Z</time>
      </trkpt>
      <trkpt lat="47.2041110" lon="6.8826490">
        <ele>640.0</ele>
        <time>2022-07-21T11:10:00Z</time>
      </trkpt>
      <trkpt lat="47.2040910" lon="6.8826000">
        <ele>639.9</ele>
        <time>2022-07-21T11:10:02Z</time>
      </trkpt>
      <trkpt lat="47.2040660" lon="6.8825550">
        <ele>639.8</ele>
        <time>2022-07-21T11:10:03Z</time>
      </trkpt>
      <trkpt lat="47.2040570" lon="6.8825400">
        <ele>639.8</ele>
        <time>2022-07-21T11:10:04Z</time>
      </trkpt>
      <trkpt lat="47.2040350" lon="6.8825060">
        <ele>639.8</ele>
        <time>2022-07-21T11:10:05Z</time>
      </trkpt>
      <trkpt lat="47.2040270" lon="6.8824970">
        <ele>639.8</ele>
        <time>2022-07-21T11:10:06Z</time>
      </trkpt>
      <trkpt lat="47.2040030" lon="6.8824560">
        <ele>640.1</ele>
        <time>2022-07-21T11:10:07Z</time>
      </trkpt>
      <trkpt lat="47.2039960" lon="6.8824400">
        <ele>640.2</ele>
        <time>2022-07-21T11:10:08Z</time>
      </trkpt>
      <trkpt lat="47.2039760" lon="6.8824030">
        <ele>640.5</ele>
        <time>2022-07-21T11:10:09Z</time>
      </trkpt>
      <trkpt lat="47.2039690" lon="6.8823910">
        <ele>640.6</ele>
        <time>2022-07-21T11:10:10Z</time>
      </trkpt>
      <trkpt lat="47.2039400" lon="6.8823400">
        <ele>641.0</ele>
        <time>2022-07-21T11:10:12Z</time>
      </trkpt>
      <trkpt lat="47.2039260" lon="6.8823020">
        <ele>641.2</ele>
        <time>2022-07-21T11:10:13Z</time>
      </trkpt>
      <trkpt lat="47.2039150" lon="6.8822590">
        <ele>641.4</ele>
        <time>2022-07-21T11:10:14Z</time>
      </trkpt>
      <trkpt lat="47.2039100" lon="6.8822340">
        <ele>641.5</ele>
        <time>2022-07-21T11:10:15Z</time>
      </trkpt>
      <trkpt lat="47.2038900" lon="6.8821760">
        <ele>641.8</ele>
        <time>2022-07-21T11:10:17Z</time>
      </trkpt>
      <trkpt lat="47.2038770" lon="6.8821390">
        <ele>641.9</ele>
        <time>2022-07-21T11:10:18Z</time>
      </trkpt>
      <trkpt lat="47.2038640" lon="6.8820860">
        <ele>642.1</ele>
        <time>2022-07-21T11:10:19Z</time>
      </trkpt>
      <trkpt lat="47.2038590" lon="6.8820650">
        <ele>642.2</ele>
        <time>2022-07-21T11:10:20Z</time>
      </trkpt>
      <trkpt lat="47.2038460" lon="6.8820200">
        <ele>642.3</ele>
        <time>2022-07-21T11:10:21Z</time>
      </trkpt>
      <trkpt lat="47.2038310" lon="6.8819780">
        <ele>642.4</ele>
        <time>2022-07-21T11:10:22Z</time>
      </trkpt>
      <trkpt lat="47.2038150" lon="6.8819440">
        <ele>642.4</ele>
        <time>2022-07-21T11:10:23Z</time>
      </trkpt>
      <trkpt lat="47.2038000" lon="6.8819090">
        <ele>642.4</ele>
        <time>2022-07-21T11:10:24Z</time>
      </trkpt>
      <trkpt lat="47.2037830" lon="6.8818770">
        <ele>642.4</ele>
        <time>2022-07-21T11:10:25Z</time>
      </trkpt>
      <trkpt lat="47.2037610" lon="6.8818460">
        <ele>642.4</ele>
        <time>2022-07-21T11:10:26Z</time>
      </trkpt>
      <trkpt lat="47.2037330" lon="6.8817920">
        <ele>642.4</ele>
        <time>2022-07-21T11:10:27Z</time>
      </trkpt>
      <trkpt lat="47.2037020" lon="6.8817430">
        <ele>642.3</ele>
        <time>2022-07-21T11:10:29Z</time>
      </trkpt>
      <trkpt lat="47.2036800" lon="6.8817130">
        <ele>642.3</ele>
        <time>2022-07-21T11:10:30Z</time>
      </trkpt>
      <trkpt lat="47.2036450" lon="6.8816680">
        <ele>642.3</ele>
        <time>2022-07-21T11:10:31Z</time>
      </trkpt>
      <trkpt lat="47.2036270" lon="6.8816480">
        <ele>642.3</ele>
        <time>2022-07-21T11:10:32Z</time>
      </trkpt>
      <trkpt lat="47.2035870" lon="6.8816090">
        <ele>642.2</ele>
        <time>2022-07-21T11:10:34Z</time>
      </trkpt>
      <trkpt lat="47.2035760" lon="6.8815980">
        <ele>642.2</ele>
        <time>2022-07-21T11:10:35Z</time>
      </trkpt>
      <trkpt lat="47.2035650" lon="6.8815870">
        <ele>642.2</ele>
        <time>2022-07-21T11:10:36Z</time>
      </trkpt>
      <trkpt lat="47.2035440" lon="6.8815600">
        <ele>642.2</ele>
        <time>2022-07-21T11:10:37Z</time>
      </trkpt>
      <trkpt lat="47.2035370" lon="6.8815510">
        <ele>642.2</ele>
        <time>2022-07-21T11:10:38Z</time>
      </trkpt>
      <trkpt lat="47.2035090" lon="6.8815210">
        <ele>642.2</ele>
        <time>2022-07-21T11:10:39Z</time>
      </trkpt>
      <trkpt lat="47.2034980" lon="6.8815100">
        <ele>642.2</ele>
        <time>2022-07-21T11:10:40Z</time>
      </trkpt>
      <trkpt lat="47.2034660" lon="6.8814800">
        <ele>642.1</ele>
        <time>2022-07-21T11:10:41Z</time>
      </trkpt>
      <trkpt lat="47.2034510" lon="6.8814670">
        <ele>642.1</ele>
        <time>2022-07-21T11:10:42Z</time>
      </trkpt>
      <trkpt lat="47.2034210" lon="6.8814320">
        <ele>642.0</ele>
        <time>2022-07-21T11:10:43Z</time>
      </trkpt>
      <trkpt lat="47.2033810" lon="6.8813790">
        <ele>642.0</ele>
        <time>2022-07-21T11:10:45Z</time>
      </trkpt>
      <trkpt lat="47.2033530" lon="6.8813470">
        <ele>641.9</ele>
        <time>2022-07-21T11:10:46Z</time>
      </trkpt>
      <trkpt lat="47.2033250" lon="6.8813250">
        <ele>642.0</ele>
        <time>2022-07-21T11:10:47Z</time>
      </trkpt>
      <trkpt lat="47.2033160" lon="6.8813210">
        <ele>642.1</ele>
        <time>2022-07-21T11:10:48Z</time>
      </trkpt>
      <trkpt lat="47.2032880" lon="6.8813070">
        <ele>642.3</ele>
        <time>2022-07-21T11:10:49Z</time>
      </trkpt>
      <trkpt lat="47.2032800" lon="6.8813030">
        <ele>642.4</ele>
        <time>2022-07-21T11:10:50Z</time>
      </trkpt>
      <trkpt lat="47.2032660" lon="6.8812990">
        <ele>642.5</ele>
        <time>2022-07-21T11:10:51Z</time>
      </trkpt>
      <trkpt lat="47.2032460" lon="6.8812970">
        <ele>642.7</ele>
        <time>2022-07-21T11:10:52Z</time>
      </trkpt>
      <trkpt lat="47.2032190" lon="6.8812830">
        <ele>643.0</ele>
        <time>2022-07-21T11:10:53Z</time>
      </trkpt>
      <trkpt lat="47.2032090" lon="6.8812750">
        <ele>643.1</ele>
        <time>2022-07-21T11:10:54Z</time>
      </trkpt>
      <trkpt lat="47.2031860" lon="6.8812540">
        <ele>643.4</ele>
        <time>2022-07-21T11:10:55Z</time>
      </trkpt>
      <trkpt lat="47.2031670" lon="6.8812360">
        <ele>643.7</ele>
        <time>2022-07-21T11:10:56Z</time>
      </trkpt>
      <trkpt lat="47.2031600" lon="6.8812310">
        <ele>643.8</ele>
        <time>2022-07-21T11:10:58Z</time>
      </trkpt>
      <trkpt lat="47.2031530" lon="6.8812260">
        <ele>643.9</ele>
        <time>2022-07-21T11:10:59Z</time>
      </trkpt>
      <trkpt lat="47.2031410" lon="6.8812210">
        <ele>644.0</ele>
        <time>2022-07-21T11:11:00Z</time>
      </trkpt>
      <trkpt lat="47.2031260" lon="6.8812140">
        <ele>644.2</ele>
        <time>2022-07-21T11:11:01Z</time>
      </trkpt>
      <trkpt lat="47.2031060" lon="6.8812050">
        <ele>644.5</ele>
        <time>2022-07-21T11:11:02Z</time>
      </trkpt>
      <trkpt lat="47.2030980" lon="6.8812020">
        <ele>644.6</ele>
        <time>2022-07-21T11:11:03Z</time>
      </trkpt>
      <trkpt lat="47.2030900" lon="6.8811980">
        <ele>644.7</ele>
        <time>2022-07-21T11:11:04Z</time>
      </trkpt>
      <trkpt lat="47.2030690" lon="6.8811910">
        <ele>645.0</ele>
        <time>2022-07-21T11:11:06Z</time>
      </trkpt>
      <trkpt lat="47.2030620" lon="6.8811880">
        <ele>645.1</ele>
        <time>2022-07-21T11:11:07Z</time>
      </trkpt>
      <trkpt lat="47.2030550" lon="6.8811850">
        <ele>645.2</ele>
        <time>2022-07-21T11:11:08Z</time>
      </trkpt>
      <trkpt lat="47.2030350" lon="6.8811700">
        <ele>645.6</ele>
        <time>2022-07-21T11:11:09Z</time>
      </trkpt>
      <trkpt lat="47.2030260" lon="6.8811620">
        <ele>645.7</ele>
        <time>2022-07-21T11:11:11Z</time>
      </trkpt>
      <trkpt lat="47.2030170" lon="6.8811540">
        <ele>645.8</ele>
        <time>2022-07-21T11:11:12Z</time>
      </trkpt>
      <trkpt lat="47.2030080" lon="6.8811460">
        <ele>646.0</ele>
        <time>2022-07-21T11:11:13Z</time>
      </trkpt>
      <trkpt lat="47.2029990" lon="6.8811380">
        <ele>646.1</ele>
        <time>2022-07-21T11:11:14Z</time>
      </trkpt>
      <trkpt lat="47.2029920" lon="6.8811300">
        <ele>646.3</ele>
        <time>2022-07-21T11:11:15Z</time>
      </trkpt>
      <trkpt lat="47.2029820" lon="6.8811170">
        <ele>646.4</ele>
        <time>2022-07-21T11:11:16Z</time>
      </trkpt>
      <trkpt lat="47.2029740" lon="6.8811010">
        <ele>646.6</ele>
        <time>2022-07-21T11:11:17Z</time>
      </trkpt>
      <trkpt lat="47.2029670" lon="6.8810860">
        <ele>646.8</ele>
        <time>2022-07-21T11:11:18Z</time>
      </trkpt>
      <trkpt lat="47.2029600" lon="6.8810720">
        <ele>646.9</ele>
        <time>2022-07-21T11:11:19Z</time>
      </trkpt>
      <trkpt lat="47.2029530" lon="6.8810600">
        <ele>647.1</ele>
        <time>2022-07-21T11:11:20Z</time>
      </trkpt>
      <trkpt lat="47.2029470" lon="6.8810510">
        <ele>647.2</ele>
        <time>2022-07-21T11:11:21Z</time>
      </trkpt>
      <trkpt lat="47.2029400" lon="6.8810420">
        <ele>647.3</ele>
        <time>2022-07-21T11:11:22Z</time>
      </trkpt>
      <trkpt lat="47.2029290" lon="6.8810270">
        <ele>647.5</ele>
        <time>2022-07-21T11:11:24Z</time>
      </trkpt>
      <trkpt lat="47.2029200" lon="6.8810190">
        <ele>647.6</ele>
        <time>2022-07-21T11:11:25Z</time>
      </trkpt>
      <trkpt lat="47.2029120" lon="6.8810130">
        <ele>647.8</ele>
        <time>2022-07-21T11:11:26Z</time>
      </trkpt>
      <trkpt lat="47.2029030" lon="6.8810060">
        <ele>647.9</ele>
        <time>2022-07-21T11:11:27Z</time>
      </trkpt>
      <trkpt lat="47.2028850" lon="6.8809910">
        <ele>648.1</ele>
        <time>2022-07-21T11:11:29Z</time>
      </trkpt>
      <trkpt lat="47.2028760" lon="6.8809850">
        <ele>648.2</ele>
        <time>2022-07-21T11:11:30Z</time>
      </trkpt>
      <trkpt lat="47.2028680" lon="6.8809780">
        <ele>648.3</ele>
        <time>2022-07-21T11:11:31Z</time>
      </trkpt>
      <trkpt lat="47.2028420" lon="6.8809580">
        <ele>648.7</ele>
        <time>2022-07-21T11:11:32Z</time>
      </trkpt>
      <trkpt lat="47.2028300" lon="6.8809510">
        <ele>648.8</ele>
        <time>2022-07-21T11:11:34Z</time>
      </trkpt>
      <trkpt lat="47.2028180" lon="6.8809430">
        <ele>648.9</ele>
        <time>2022-07-21T11:11:35Z</time>
      </trkpt>
      <trkpt lat="47.2028070" lon="6.8809360">
        <ele>649.1</ele>
        <time>2022-07-21T11:11:36Z</time>
      </trkpt>
      <trkpt lat="47.2027900" lon="6.8809170">
        <ele>649.3</ele>
        <time>2022-07-21T11:11:37Z</time>
      </trkpt>
      <trkpt lat="47.2027740" lon="6.8808950">
        <ele>649.5</ele>
        <time>2022-07-21T11:11:39Z</time>
      </trkpt>
      <trkpt lat="47.2027540" lon="6.8808630">
        <ele>649.8</ele>
        <time>2022-07-21T11:11:41Z</time>
      </trkpt>
      <trkpt lat="47.2027400" lon="6.8808280">
        <ele>650.0</ele>
        <time>2022-07-21T11:11:42Z</time>
      </trkpt>
      <trkpt lat="47.2027320" lon="6.8808060">
        <ele>650.2</ele>
        <time>2022-07-21T11:11:43Z</time>
      </trkpt>
      <trkpt lat="47.2027250" lon="6.8807880">
        <ele>650.3</ele>
        <time>2022-07-21T11:11:44Z</time>
      </trkpt>
      <trkpt lat="47.2027100" lon="6.8807650">
        <ele>650.5</ele>
        <time>2022-07-21T11:11:45Z</time>
      </trkpt>
      <trkpt lat="47.2026880" lon="6.8807350">
        <ele>650.8</ele>
        <time>2022-07-21T11:11:47Z</time>
      </trkpt>
      <trkpt lat="47.2026730" lon="6.8807170">
        <ele>651.0</ele>
        <time>2022-07-21T11:11:48Z</time>
      </trkpt>
      <trkpt lat="47.2026650" lon="6.8807040">
        <ele>651.1</ele>
        <time>2022-07-21T11:11:49Z</time>
      </trkpt>
      <trkpt lat="47.2026480" lon="6.8806680">
        <ele>651.3</ele>
        <time>2022-07-21T11:11:50Z</time>
      </trkpt>
      <trkpt lat="47.2026430" lon="6.8806500">
        <ele>651.4</ele>
        <time>2022-07-21T11:11:51Z</time>
      </trkpt>
      <trkpt lat="47.2026370" lon="6.8806060">
        <ele>651.7</ele>
        <time>2022-07-21T11:11:53Z</time>
      </trkpt>
      <trkpt lat="47.2026350" lon="6.8805900">
        <ele>651.8</ele>
        <time>2022-07-21T11:11:54Z</time>
      </trkpt>
      <trkpt lat="47.2026330" lon="6.8805760">
        <ele>651.9</ele>
        <time>2022-07-21T11:11:55Z</time>
      </trkpt>
      <trkpt lat="47.2026320" lon="6.8805600">
        <ele>652.0</ele>
        <time>2022-07-21T11:11:56Z</time>
      </trkpt>
      <trkpt lat="47.2026340" lon="6.8805440">
        <ele>652.1</ele>
        <time>2022-07-21T11:11:57Z</time>
      </trkpt>
      <trkpt lat="47.2026360" lon="6.8805220">
        <ele>652.2</ele>
        <time>2022-07-21T11:11:58Z</time>
      </trkpt>
      <trkpt lat="47.2026390" lon="6.8804960">
        <ele>652.4</ele>
        <time>2022-07-21T11:12:00Z</time>
      </trkpt>
      <trkpt lat="47.2026440" lon="6.8804790">
        <ele>652.5</ele>
        <time>2022-07-21T11:12:01Z</time>
      </trkpt>
      <trkpt lat="47.2026500" lon="6.8804570">
        <ele>652.7</ele>
        <time>2022-07-21T11:12:02Z</time>
      </trkpt>
      <trkpt lat="47.2026550" lon="6.8804350">
        <ele>652.8</ele>
        <time>2022-07-21T11:12:03Z</time>
      </trkpt>
      <trkpt lat="47.2026590" lon="6.8804130">
        <ele>652.9</ele>
        <time>2022-07-21T11:12:04Z</time>
      </trkpt>
      <trkpt lat="47.2026680" lon="6.8803830">
        <ele>653.1</ele>
        <time>2022-07-21T11:12:05Z</time>
      </trkpt>
      <trkpt lat="47.2026760" lon="6.8803580">
        <ele>653.3</ele>
        <time>2022-07-21T11:12:07Z</time>
      </trkpt>
      <trkpt lat="47.2026830" lon="6.8803390">
        <ele>653.4</ele>
        <time>2022-07-21T11:12:08Z</time>
      </trkpt>
      <trkpt lat="47.2026880" lon="6.8803180">
        <ele>653.6</ele>
        <time>2022-07-21T11:12:09Z</time>
      </trkpt>
      <trkpt lat="47.2026910" lon="6.8803000">
        <ele>653.7</ele>
        <time>2022-07-21T11:12:10Z</time>
      </trkpt>
      <trkpt lat="47.2026950" lon="6.8802880">
        <ele>653.7</ele>
        <time>2022-07-21T11:12:11Z</time>
      </trkpt>
      <trkpt lat="47.2027050" lon="6.8802720">
        <ele>653.8</ele>
        <time>2022-07-21T11:12:12Z</time>
      </trkpt>
      <trkpt lat="47.2027200" lon="6.8802470">
        <ele>654.0</ele>
        <time>2022-07-21T11:12:13Z</time>
      </trkpt>
      <trkpt lat="47.2027440" lon="6.8802110">
        <ele>654.1</ele>
        <time>2022-07-21T11:12:15Z</time>
      </trkpt>
      <trkpt lat="47.2027620" lon="6.8801800">
        <ele>654.2</ele>
        <time>2022-07-21T11:12:16Z</time>
      </trkpt>
      <trkpt lat="47.2027830" lon="6.8801480">
        <ele>654.3</ele>
        <time>2022-07-21T11:12:17Z</time>
      </trkpt>
      <trkpt lat="47.2028110" lon="6.8801150">
        <ele>654.3</ele>
        <time>2022-07-21T11:12:18Z</time>
      </trkpt>
      <trkpt lat="47.2028460" lon="6.8800930">
        <ele>654.3</ele>
        <time>2022-07-21T11:12:19Z</time>
      </trkpt>
      <trkpt lat="47.2028790" lon="6.8800800">
        <ele>654.3</ele>
        <time>2022-07-21T11:12:20Z</time>
      </trkpt>
      <trkpt lat="47.2029340" lon="6.8800630">
        <ele>654.1</ele>
        <time>2022-07-21T11:12:22Z</time>
      </trkpt>
      <trkpt lat="47.2029630" lon="6.8800470">
        <ele>654.0</ele>
        <time>2022-07-21T11:12:23Z</time>
      </trkpt>
      <trkpt lat="47.2029960" lon="6.8800170">
        <ele>653.8</ele>
        <time>2022-07-21T11:12:24Z</time>
      </trkpt>
      <trkpt lat="47.2030390" lon="6.8799760">
        <ele>653.6</ele>
        <time>2022-07-21T11:12:25Z</time>
      </trkpt>
      <trkpt lat="47.2031000" lon="6.8797780">
        <ele>652.9</ele>
        <time>2022-07-21T11:12:27Z</time>
      </trkpt>
      <trkpt lat="47.2031210" lon="6.8797010">
        <ele>652.7</ele>
        <time>2022-07-21T11:12:28Z</time>
      </trkpt>
      <trkpt lat="47.2031410" lon="6.8796910">
        <ele>652.7</ele>
        <time>2022-07-21T11:12:29Z</time>
      </trkpt>
      <trkpt lat="47.2031570" lon="6.8796260">
        <ele>652.6</ele>
        <time>2022-07-21T11:12:31Z</time>
      </trkpt>
      <trkpt lat="47.2031580" lon="6.8795530">
        <ele>652.7</ele>
        <time>2022-07-21T11:12:32Z</time>
      </trkpt>
      <trkpt lat="47.2031560" lon="6.8794760">
        <ele>652.8</ele>
        <time>2022-07-21T11:12:33Z</time>
      </trkpt>
      <trkpt lat="47.2031510" lon="6.8794190">
        <ele>653.0</ele>
        <time>2022-07-21T11:12:34Z</time>
      </trkpt>
      <trkpt lat="47.2031410" lon="6.8793750">
        <ele>653.2</ele>
        <time>2022-07-21T11:12:35Z</time>
      </trkpt>
      <trkpt lat="47.2031310" lon="6.8793200">
        <ele>653.4</ele>
        <time>2022-07-21T11:12:36Z</time>
      </trkpt>
      <trkpt lat="47.2031220" lon="6.8792680">
        <ele>653.7</ele>
        <time>2022-07-21T11:12:38Z</time>
      </trkpt>
      <trkpt lat="47.2031140" lon="6.8792290">
        <ele>654.0</ele>
        <time>2022-07-21T11:12:39Z</time>
      </trkpt>
      <trkpt lat="47.2031020" lon="6.8791740">
        <ele>654.3</ele>
        <time>2022-07-21T11:12:41Z</time>
      </trkpt>
      <trkpt lat="47.2030910" lon="6.8791250">
        <ele>654.6</ele>
        <time>2022-07-21T11:12:42Z</time>
      </trkpt>
      <trkpt lat="47.2030870" lon="6.8791000">
        <ele>654.8</ele>
        <time>2022-07-21T11:12:43Z</time>
      </trkpt>
      <trkpt lat="47.2030820" lon="6.8790760">
        <ele>655.0</ele>
        <time>2022-07-21T11:12:45Z</time>
      </trkpt>
      <trkpt lat="47.2030690" lon="6.8790610">
        <ele>655.2</ele>
        <time>2022-07-21T11:12:46Z</time>
      </trkpt>
      <trkpt lat="47.2030660" lon="6.8790370">
        <ele>655.4</ele>
        <time>2022-07-21T11:12:47Z</time>
      </trkpt>
      <trkpt lat="47.2030570" lon="6.8790010">
        <ele>655.7</ele>
        <time>2022-07-21T11:12:48Z</time>
      </trkpt>
      <trkpt lat="47.2030520" lon="6.8789840">
        <ele>655.9</ele>
        <time>2022-07-21T11:12:50Z</time>
      </trkpt>
      <trkpt lat="47.2030470" lon="6.8789680">
        <ele>656.0</ele>
        <time>2022-07-21T11:12:51Z</time>
      </trkpt>
      <trkpt lat="47.2030420" lon="6.8789510">
        <ele>656.2</ele>
        <time>2022-07-21T11:12:52Z</time>
      </trkpt>
      <trkpt lat="47.2030360" lon="6.8789340">
        <ele>656.4</ele>
        <time>2022-07-21T11:12:53Z</time>
      </trkpt>
      <trkpt lat="47.2030280" lon="6.8789180">
        <ele>656.6</ele>
        <time>2022-07-21T11:12:54Z</time>
      </trkpt>
      <trkpt lat="47.2030190" lon="6.8789040">
        <ele>656.8</ele>
        <time>2022-07-21T11:12:56Z</time>
      </trkpt>
      <trkpt lat="47.2030090" lon="6.8788900">
        <ele>657.0</ele>
        <time>2022-07-21T11:12:57Z</time>
      </trkpt>
      <trkpt lat="47.2029950" lon="6.8788690">
        <ele>657.3</ele>
        <time>2022-07-21T11:12:58Z</time>
      </trkpt>
      <trkpt lat="47.2029870" lon="6.8788560">
        <ele>657.5</ele>
        <time>2022-07-21T11:13:00Z</time>
      </trkpt>
      <trkpt lat="47.2029750" lon="6.8788390">
        <ele>657.8</ele>
        <time>2022-07-21T11:13:01Z</time>
      </trkpt>
      <trkpt lat="47.2029720" lon="6.8788370">
        <ele>657.8</ele>
        <time>2022-07-21T11:13:02Z</time>
      </trkpt>
      <trkpt lat="47.2029650" lon="6.8788330">
        <ele>657.9</ele>
        <time>2022-07-21T11:13:03Z</time>
      </trkpt>
      <trkpt lat="47.2029580" lon="6.8788280">
        <ele>658.1</ele>
        <time>2022-07-21T11:13:04Z</time>
      </trkpt>
      <trkpt lat="47.2029510" lon="6.8788230">
        <ele>658.2</ele>
        <time>2022-07-21T11:13:05Z</time>
      </trkpt>
      <trkpt lat="47.2029450" lon="6.8788190">
        <ele>658.3</ele>
        <time>2022-07-21T11:13:06Z</time>
      </trkpt>
      <trkpt lat="47.2029390" lon="6.8788140">
        <ele>658.4</ele>
        <time>2022-07-21T11:13:07Z</time>
      </trkpt>
      <trkpt lat="47.2029330" lon="6.8788090">
        <ele>658.5</ele>
        <time>2022-07-21T11:13:08Z</time>
      </trkpt>
      <trkpt lat="47.2029190" lon="6.8787990">
        <ele>658.8</ele>
        <time>2022-07-21T11:13:09Z</time>
      </trkpt>
      <trkpt lat="47.2028970" lon="6.8787850">
        <ele>659.2</ele>
        <time>2022-07-21T11:13:10Z</time>
      </trkpt>
      <trkpt lat="47.2028760" lon="6.8787580">
        <ele>659.7</ele>
        <time>2022-07-21T11:13:12Z</time>
      </trkpt>
      <trkpt lat="47.2028600" lon="6.8787360">
        <ele>660.0</ele>
        <time>2022-07-21T11:13:13Z</time>
      </trkpt>
      <trkpt lat="47.2028550" lon="6.8787300">
        <ele>660.1</ele>
        <time>2022-07-21T11:13:14Z</time>
      </trkpt>
      <trkpt lat="47.2028500" lon="6.8787240">
        <ele>660.2</ele>
        <time>2022-07-21T11:13:15Z</time>
      </trkpt>
      <trkpt lat="47.2028450" lon="6.8787180">
        <ele>660.4</ele>
        <time>2022-07-21T11:13:16Z</time>
      </trkpt>
      <trkpt lat="47.2028350" lon="6.8787070">
        <ele>660.6</ele>
        <time>2022-07-21T11:13:18Z</time>
      </trkpt>
      <trkpt lat="47.2028310" lon="6.8787050">
        <ele>660.6</ele>
        <time>2022-07-21T11:13:19Z</time>
      </trkpt>
      <trkpt lat="47.2028190" lon="6.8787020">
        <ele>660.8</ele>
        <time>2022-07-21T11:13:20Z</time>
      </trkpt>
      <trkpt lat="47.2027990" lon="6.8786970">
        <ele>661.1</ele>
        <time>2022-07-21T11:13:21Z</time>
      </trkpt>
      <trkpt lat="47.2027730" lon="6.8787000">
        <ele>661.6</ele>
        <time>2022-07-21T11:13:23Z</time>
      </trkpt>
      <trkpt lat="47.2027490" lon="6.8787050">
        <ele>662.0</ele>
        <time>2022-07-21T11:13:24Z</time>
      </trkpt>
      <trkpt lat="47.2027380" lon="6.8787090">
        <ele>662.1</ele>
        <time>2022-07-21T11:13:25Z</time>
      </trkpt>
      <trkpt lat="47.2027130" lon="6.8787120">
        <ele>662.6</ele>
        <time>2022-07-21T11:13:26Z</time>
      </trkpt>
      <trkpt lat="47.2026960" lon="6.8787060">
        <ele>662.9</ele>
        <time>2022-07-21T11:13:28Z</time>
      </trkpt>
      <trkpt lat="47.2026810" lon="6.8786990">
        <ele>663.1</ele>
        <time>2022-07-21T11:13:29Z</time>
      </trkpt>
      <trkpt lat="47.2026750" lon="6.8786950">
        <ele>663.2</ele>
        <time>2022-07-21T11:13:30Z</time>
      </trkpt>
      <trkpt lat="47.2026690" lon="6.8786900">
        <ele>663.3</ele>
        <time>2022-07-21T11:13:31Z</time>
      </trkpt>
      <trkpt lat="47.2026620" lon="6.8786860">
        <ele>663.5</ele>
        <time>2022-07-21T11:13:32Z</time>
      </trkpt>
      <trkpt lat="47.2026440" lon="6.8786730">
        <ele>663.8</ele>
        <time>2022-07-21T11:13:34Z</time>
      </trkpt>
      <trkpt lat="47.2026360" lon="6.8786720">
        <ele>663.9</ele>
        <time>2022-07-21T11:13:35Z</time>
      </trkpt>
      <trkpt lat="47.2026280" lon="6.8786710">
        <ele>664.1</ele>
        <time>2022-07-21T11:13:36Z</time>
      </trkpt>
      <trkpt lat="47.2026180" lon="6.8786690">
        <ele>664.2</ele>
        <time>2022-07-21T11:13:37Z</time>
      </trkpt>
      <trkpt lat="47.2026060" lon="6.8786640">
        <ele>664.4</ele>
        <time>2022-07-21T11:13:38Z</time>
      </trkpt>
      <trkpt lat="47.2025930" lon="6.8786580">
        <ele>664.7</ele>
        <time>2022-07-21T11:13:39Z</time>
      </trkpt>
      <trkpt lat="47.2025780" lon="6.8786490">
        <ele>664.9</ele>
        <time>2022-07-21T11:13:41Z</time>
      </trkpt>
      <trkpt lat="47.2025620" lon="6.8786400">
        <ele>665.2</ele>
        <time>2022-07-21T11:13:42Z</time>
      </trkpt>
      <trkpt lat="47.2025460" lon="6.8786320">
        <ele>665.5</ele>
        <time>2022-07-21T11:13:44Z</time>
      </trkpt>
      <trkpt lat="47.2025390" lon="6.8786240">
        <ele>665.6</ele>
        <time>2022-07-21T11:13:45Z</time>
      </trkpt>
      <trkpt lat="47.2025290" lon="6.8786120">
        <ele>665.8</ele>
        <time>2022-07-21T11:13:46Z</time>
      </trkpt>
      <trkpt lat="47.2025210" lon="6.8786050">
        <ele>666.0</ele>
        <time>2022-07-21T11:13:47Z</time>
      </trkpt>
      <trkpt lat="47.2025090" lon="6.8785950">
        <ele>666.2</ele>
        <time>2022-07-21T11:13:48Z</time>
      </trkpt>
      <trkpt lat="47.2025020" lon="6.8785880">
        <ele>666.3</ele>
        <time>2022-07-21T11:13:49Z</time>
      </trkpt>
      <trkpt lat="47.2024950" lon="6.8785820">
        <ele>666.4</ele>
        <time>2022-07-21T11:13:51Z</time>
      </trkpt>
      <trkpt lat="47.2024870" lon="6.8785760">
        <ele>666.6</ele>
        <time>2022-07-21T11:13:52Z</time>
      </trkpt>
      <trkpt lat="47.2024800" lon="6.8785690">
        <ele>666.7</ele>
        <time>2022-07-21T11:13:53Z</time>
      </trkpt>
      <trkpt lat="47.2024730" lon="6.8785630">
        <ele>666.8</ele>
        <time>2022-07-21T11:13:54Z</time>
      </trkpt>
      <trkpt lat="47.2024660" lon="6.8785570">
        <ele>666.9</ele>
        <time>2022-07-21T11:13:55Z</time>
      </trkpt>
      <trkpt lat="47.2024570" lon="6.8785500">
        <ele>667.0</ele>
        <time>2022-07-21T11:13:56Z</time>
      </trkpt>
      <trkpt lat="47.2024500" lon="6.8785430">
        <ele>667.1</ele>
        <time>2022-07-21T11:13:57Z</time>
      </trkpt>
      <trkpt lat="47.2024430" lon="6.8785340">
        <ele>667.2</ele>
        <time>2022-07-21T11:13:58Z</time>
      </trkpt>
      <trkpt lat="47.2024320" lon="6.8785130">
        <ele>667.4</ele>
        <time>2022-07-21T11:13:59Z</time>
      </trkpt>
      <trkpt lat="47.2024250" lon="6.8784930">
        <ele>667.6</ele>
        <time>2022-07-21T11:14:01Z</time>
      </trkpt>
      <trkpt lat="47.2024190" lon="6.8784780">
        <ele>667.7</ele>
        <time>2022-07-21T11:14:02Z</time>
      </trkpt>
      <trkpt lat="47.2024130" lon="6.8784670">
        <ele>667.8</ele>
        <time>2022-07-21T11:14:03Z</time>
      </trkpt>
      <trkpt lat="47.2024050" lon="6.8784540">
        <ele>667.9</ele>
        <time>2022-07-21T11:14:04Z</time>
      </trkpt>
      <trkpt lat="47.2023930" lon="6.8784400">
        <ele>668.1</ele>
        <time>2022-07-21T11:14:06Z</time>
      </trkpt>
      <trkpt lat="47.2023860" lon="6.8784360">
        <ele>668.1</ele>
        <time>2022-07-21T11:14:07Z</time>
      </trkpt>
      <trkpt lat="47.2023800" lon="6.8784350">
        <ele>668.2</ele>
        <time>2022-07-21T11:14:08Z</time>
      </trkpt>
      <trkpt lat="47.2023700" lon="6.8784310">
        <ele>668.3</ele>
        <time>2022-07-21T11:14:09Z</time>
      </trkpt>
      <trkpt lat="47.2023620" lon="6.8784250">
        <ele>668.3</ele>
        <time>2022-07-21T11:14:10Z</time>
      </trkpt>
      <trkpt lat="47.2023540" lon="6.8784200">
        <ele>668.4</ele>
        <time>2022-07-21T11:14:11Z</time>
      </trkpt>
      <trkpt lat="47.2023460" lon="6.8784140">
        <ele>668.5</ele>
        <time>2022-07-21T11:14:12Z</time>
      </trkpt>
      <trkpt lat="47.2023390" lon="6.8784080">
        <ele>668.5</ele>
        <time>2022-07-21T11:14:13Z</time>
      </trkpt>
      <trkpt lat="47.2023310" lon="6.8784020">
        <ele>668.6</ele>
        <time>2022-07-21T11:14:14Z</time>
      </trkpt>
      <trkpt lat="47.2023230" lon="6.8783960">
        <ele>668.6</ele>
        <time>2022-07-21T11:14:15Z</time>
      </trkpt>
      <trkpt lat="47.2023150" lon="6.8783910">
        <ele>668.7</ele>
        <time>2022-07-21T11:14:16Z</time>
      </trkpt>
      <trkpt lat="47.2023080" lon="6.8783850">
        <ele>668.7</ele>
        <time>2022-07-21T11:14:17Z</time>
      </trkpt>
      <trkpt lat="47.2023000" lon="6.8783790">
        <ele>668.8</ele>
        <time>2022-07-21T11:14:52Z</time>
      </trkpt>
      <trkpt lat="47.2022920" lon="6.8783730">
        <ele>668.9</ele>
        <time>2022-07-21T11:14:53Z</time>
      </trkpt>
      <trkpt lat="47.2022840" lon="6.8783670">
        <ele>668.9</ele>
        <time>2022-07-21T11:14:54Z</time>
      </trkpt>
      <trkpt lat="47.2022560" lon="6.8783410">
        <ele>669.1</ele>
        <time>2022-07-21T11:14:55Z</time>
      </trkpt>
      <trkpt lat="47.2022410" lon="6.8783300">
        <ele>669.2</ele>
        <time>2022-07-21T11:14:56Z</time>
      </trkpt>
      <trkpt lat="47.2022220" lon="6.8783300">
        <ele>669.3</ele>
        <time>2022-07-21T11:14:57Z</time>
      </trkpt>
      <trkpt lat="47.2021900" lon="6.8783140">
        <ele>669.5</ele>
        <time>2022-07-21T11:14:58Z</time>
      </trkpt>
      <trkpt lat="47.2021790" lon="6.8783040">
        <ele>669.5</ele>
        <time>2022-07-21T11:15:00Z</time>
      </trkpt>
      <trkpt lat="47.2021680" lon="6.8782940">
        <ele>669.6</ele>
        <time>2022-07-21T11:15:01Z</time>
      </trkpt>
      <trkpt lat="47.2021570" lon="6.8782840">
        <ele>669.7</ele>
        <time>2022-07-21T11:15:02Z</time>
      </trkpt>
      <trkpt lat="47.2021160" lon="6.8782540">
        <ele>670.0</ele>
        <time>2022-07-21T11:15:04Z</time>
      </trkpt>
      <trkpt lat="47.2021060" lon="6.8782430">
        <ele>670.1</ele>
        <time>2022-07-21T11:15:05Z</time>
      </trkpt>
      <trkpt lat="47.2020970" lon="6.8782320">
        <ele>670.1</ele>
        <time>2022-07-21T11:15:06Z</time>
      </trkpt>
      <trkpt lat="47.2020770" lon="6.8782070">
        <ele>670.3</ele>
        <time>2022-07-21T11:15:07Z</time>
      </trkpt>
      <trkpt lat="47.2020600" lon="6.8781850">
        <ele>670.4</ele>
        <time>2022-07-21T11:15:09Z</time>
      </trkpt>
      <trkpt lat="47.2020470" lon="6.8781680">
        <ele>670.6</ele>
        <time>2022-07-21T11:15:10Z</time>
      </trkpt>
      <trkpt lat="47.2020350" lon="6.8781570">
        <ele>670.6</ele>
        <time>2022-07-21T11:15:11Z</time>
      </trkpt>
      <trkpt lat="47.2020180" lon="6.8781510">
        <ele>670.8</ele>
        <time>2022-07-21T11:15:12Z</time>
      </trkpt>
      <trkpt lat="47.2020060" lon="6.8781410">
        <ele>670.8</ele>
        <time>2022-07-21T11:15:14Z</time>
      </trkpt>
      <trkpt lat="47.2019970" lon="6.8781310">
        <ele>670.9</ele>
        <time>2022-07-21T11:15:15Z</time>
      </trkpt>
      <trkpt lat="47.2019910" lon="6.8781220">
        <ele>671.0</ele>
        <time>2022-07-21T11:15:16Z</time>
      </trkpt>
      <trkpt lat="47.2019870" lon="6.8781180">
        <ele>671.0</ele>
        <time>2022-07-21T11:15:17Z</time>
      </trkpt>
      <trkpt lat="47.2019800" lon="6.8781120">
        <ele>671.1</ele>
        <time>2022-07-21T11:15:18Z</time>
      </trkpt>
      <trkpt lat="47.2019570" lon="6.8781010">
        <ele>671.2</ele>
        <time>2022-07-21T11:15:19Z</time>
      </trkpt>
      <trkpt lat="47.2019450" lon="6.8780990">
        <ele>671.3</ele>
        <time>2022-07-21T11:15:21Z</time>
      </trkpt>
      <trkpt lat="47.2019280" lon="6.8780970">
        <ele>671.4</ele>
        <time>2022-07-21T11:15:22Z</time>
      </trkpt>
      <trkpt lat="47.2019110" lon="6.8780900">
        <ele>671.5</ele>
        <time>2022-07-21T11:15:23Z</time>
      </trkpt>
      <trkpt lat="47.2018880" lon="6.8780630">
        <ele>671.7</ele>
        <time>2022-07-21T11:15:25Z</time>
      </trkpt>
      <trkpt lat="47.2018650" lon="6.8780380">
        <ele>671.9</ele>
        <time>2022-07-21T11:15:26Z</time>
      </trkpt>
      <trkpt lat="47.2018410" lon="6.8780140">
        <ele>672.1</ele>
        <time>2022-07-21T11:15:27Z</time>
      </trkpt>
      <trkpt lat="47.2018330" lon="6.8780080">
        <ele>672.2</ele>
        <time>2022-07-21T11:15:28Z</time>
      </trkpt>
      <trkpt lat="47.2018200" lon="6.8779970">
        <ele>672.3</ele>
        <time>2022-07-21T11:15:29Z</time>
      </trkpt>
      <trkpt lat="47.2018070" lon="6.8779770">
        <ele>672.4</ele>
        <time>2022-07-21T11:15:30Z</time>
      </trkpt>
      <trkpt lat="47.2017970" lon="6.8779600">
        <ele>672.6</ele>
        <time>2022-07-21T11:15:31Z</time>
      </trkpt>
      <trkpt lat="47.2017850" lon="6.8779360">
        <ele>672.7</ele>
        <time>2022-07-21T11:15:32Z</time>
      </trkpt>
      <trkpt lat="47.2017620" lon="6.8779150">
        <ele>673.0</ele>
        <time>2022-07-21T11:15:33Z</time>
      </trkpt>
      <trkpt lat="47.2017510" lon="6.8779060">
        <ele>673.1</ele>
        <time>2022-07-21T11:15:35Z</time>
      </trkpt>
      <trkpt lat="47.2017400" lon="6.8778970">
        <ele>673.2</ele>
        <time>2022-07-21T11:15:36Z</time>
      </trkpt>
      <trkpt lat="47.2017290" lon="6.8778880">
        <ele>673.4</ele>
        <time>2022-07-21T11:15:37Z</time>
      </trkpt>
      <trkpt lat="47.2017110" lon="6.8778760">
        <ele>673.6</ele>
        <time>2022-07-21T11:15:39Z</time>
      </trkpt>
      <trkpt lat="47.2017000" lon="6.8778640">
        <ele>673.7</ele>
        <time>2022-07-21T11:15:40Z</time>
      </trkpt>
      <trkpt lat="47.2016880" lon="6.8778470">
        <ele>673.9</ele>
        <time>2022-07-21T11:15:41Z</time>
      </trkpt>
      <trkpt lat="47.2016790" lon="6.8778310">
        <ele>674.1</ele>
        <time>2022-07-21T11:15:42Z</time>
      </trkpt>
      <trkpt lat="47.2016630" lon="6.8777940">
        <ele>674.5</ele>
        <time>2022-07-21T11:15:44Z</time>
      </trkpt>
      <trkpt lat="47.2016580" lon="6.8777870">
        <ele>674.6</ele>
        <time>2022-07-21T11:15:45Z</time>
      </trkpt>
      <trkpt lat="47.2016360" lon="6.8777600">
        <ele>675.0</ele>
        <time>2022-07-21T11:15:46Z</time>
      </trkpt>
      <trkpt lat="47.2016290" lon="6.8777510">
        <ele>675.1</ele>
        <time>2022-07-21T11:15:47Z</time>
      </trkpt>
      <trkpt lat="47.2016140" lon="6.8777340">
        <ele>675.4</ele>
        <time>2022-07-21T11:15:48Z</time>
      </trkpt>
      <trkpt lat="47.2016100" lon="6.8777280">
        <ele>675.5</ele>
        <time>2022-07-21T11:15:49Z</time>
      </trkpt>
      <trkpt lat="47.2016050" lon="6.8777220">
        <ele>675.6</ele>
        <time>2022-07-21T11:15:51Z</time>
      </trkpt>
      <trkpt lat="47.2016000" lon="6.8777160">
        <ele>675.7</ele>
        <time>2022-07-21T11:15:52Z</time>
      </trkpt>
      <trkpt lat="47.2015940" lon="6.8777040">
        <ele>675.9</ele>
        <time>2022-07-21T11:15:53Z</time>
      </trkpt>
      <trkpt lat="47.2015880" lon="6.8776940">
        <ele>676.0</ele>
        <time>2022-07-21T11:15:54Z</time>
      </trkpt>
      <trkpt lat="47.2015830" lon="6.8776860">
        <ele>676.1</ele>
        <time>2022-07-21T11:15:56Z</time>
      </trkpt>
      <trkpt lat="47.2015740" lon="6.8776730">
        <ele>676.3</ele>
        <time>2022-07-21T11:15:57Z</time>
      </trkpt>
      <trkpt lat="47.2015620" lon="6.8776500">
        <ele>676.7</ele>
        <time>2022-07-21T11:15:58Z</time>
      </trkpt>
      <trkpt lat="47.2015520" lon="6.8776240">
        <ele>677.0</ele>
        <time>2022-07-21T11:15:59Z</time>
      </trkpt>
      <trkpt lat="47.2015440" lon="6.8776050">
        <ele>677.3</ele>
        <time>2022-07-21T11:16:01Z</time>
      </trkpt>
      <trkpt lat="47.2015330" lon="6.8775840">
        <ele>677.6</ele>
        <time>2022-07-21T11:16:02Z</time>
      </trkpt>
      <trkpt lat="47.2015240" lon="6.8775700">
        <ele>677.8</ele>
        <time>2022-07-21T11:16:03Z</time>
      </trkpt>
      <trkpt lat="47.2015170" lon="6.8775420">
        <ele>678.2</ele>
        <time>2022-07-21T11:16:04Z</time>
      </trkpt>
      <trkpt lat="47.2015120" lon="6.8775270">
        <ele>678.4</ele>
        <time>2022-07-21T11:16:05Z</time>
      </trkpt>
      <trkpt lat="47.2015080" lon="6.8775110">
        <ele>678.6</ele>
        <time>2022-07-21T11:16:06Z</time>
      </trkpt>
      <trkpt lat="47.2015030" lon="6.8774870">
        <ele>678.9</ele>
        <time>2022-07-21T11:16:08Z</time>
      </trkpt>
      <trkpt lat="47.2014970" lon="6.8774620">
        <ele>679.2</ele>
        <time>2022-07-21T11:16:09Z</time>
      </trkpt>
      <trkpt lat="47.2014910" lon="6.8774440">
        <ele>679.4</ele>
        <time>2022-07-21T11:16:11Z</time>
      </trkpt>
      <trkpt lat="47.2014850" lon="6.8774180">
        <ele>679.7</ele>
        <time>2022-07-21T11:16:12Z</time>
      </trkpt>
      <trkpt lat="47.2014760" lon="6.8773840">
        <ele>680.2</ele>
        <time>2022-07-21T11:16:13Z</time>
      </trkpt>
      <trkpt lat="47.2014740" lon="6.8773670">
        <ele>680.4</ele>
        <time>2022-07-21T11:16:15Z</time>
      </trkpt>
      <trkpt lat="47.2014720" lon="6.8773500">
        <ele>680.6</ele>
        <time>2022-07-21T11:16:17Z</time>
      </trkpt>
      <trkpt lat="47.2014700" lon="6.8773330">
        <ele>680.8</ele>
        <time>2022-07-21T11:16:18Z</time>
      </trkpt>
      <trkpt lat="47.2014680" lon="6.8773170">
        <ele>681.0</ele>
        <time>2022-07-21T11:16:19Z</time>
      </trkpt>
      <trkpt lat="47.2014700" lon="6.8772950">
        <ele>681.3</ele>
        <time>2022-07-21T11:16:20Z</time>
      </trkpt>
      <trkpt lat="47.2014730" lon="6.8772670">
        <ele>681.3</ele>
        <time>2022-07-21T11:16:22Z</time>
      </trkpt>
      <trkpt lat="47.2014730" lon="6.8772550">
        <ele>681.4</ele>
        <time>2022-07-21T11:16:23Z</time>
      </trkpt>
      <trkpt lat="47.2014730" lon="6.8772440">
        <ele>681.4</ele>
        <time>2022-07-21T11:16:24Z</time>
      </trkpt>
      <trkpt lat="47.2014720" lon="6.8772340">
        <ele>681.5</ele>
        <time>2022-07-21T11:16:25Z</time>
      </trkpt>
      <trkpt lat="47.2014720" lon="6.8772240">
        <ele>681.5</ele>
        <time>2022-07-21T11:16:26Z</time>
      </trkpt>
      <trkpt lat="47.2014720" lon="6.8771940">
        <ele>681.6</ele>
        <time>2022-07-21T11:16:27Z</time>
      </trkpt>
      <trkpt lat="47.2014700" lon="6.8771820">
        <ele>681.7</ele>
        <time>2022-07-21T11:16:29Z</time>
      </trkpt>
      <trkpt lat="47.2014710" lon="6.8771640">
        <ele>681.7</ele>
        <time>2022-07-21T11:16:30Z</time>
      </trkpt>
      <trkpt lat="47.2014700" lon="6.8771540">
        <ele>681.7</ele>
        <time>2022-07-21T11:16:31Z</time>
      </trkpt>
      <trkpt lat="47.2014700" lon="6.8771490">
        <ele>681.8</ele>
        <time>2022-07-21T11:16:32Z</time>
      </trkpt>
      <trkpt lat="47.2014690" lon="6.8771380">
        <ele>681.8</ele>
        <time>2022-07-21T11:16:33Z</time>
      </trkpt>
      <trkpt lat="47.2014690" lon="6.8771060">
        <ele>681.8</ele>
        <time>2022-07-21T11:16:34Z</time>
      </trkpt>
      <trkpt lat="47.2014660" lon="6.8770670">
        <ele>681.9</ele>
        <time>2022-07-21T11:16:36Z</time>
      </trkpt>
      <trkpt lat="47.2014650" lon="6.8770220">
        <ele>681.9</ele>
        <time>2022-07-21T11:16:37Z</time>
      </trkpt>
      <trkpt lat="47.2014650" lon="6.8770060">
        <ele>681.9</ele>
        <time>2022-07-21T11:16:38Z</time>
      </trkpt>
      <trkpt lat="47.2014530" lon="6.8769600">
        <ele>681.9</ele>
        <time>2022-07-21T11:16:40Z</time>
      </trkpt>
      <trkpt lat="47.2014450" lon="6.8769340">
        <ele>681.9</ele>
        <time>2022-07-21T11:16:41Z</time>
      </trkpt>
      <trkpt lat="47.2014400" lon="6.8769140">
        <ele>681.9</ele>
        <time>2022-07-21T11:16:42Z</time>
      </trkpt>
      <trkpt lat="47.2014290" lon="6.8768760">
        <ele>681.9</ele>
        <time>2022-07-21T11:16:43Z</time>
      </trkpt>
      <trkpt lat="47.2014220" lon="6.8768620">
        <ele>681.8</ele>
        <time>2022-07-21T11:16:44Z</time>
      </trkpt>
      <trkpt lat="47.2013980" lon="6.8768290">
        <ele>681.8</ele>
        <time>2022-07-21T11:16:46Z</time>
      </trkpt>
      <trkpt lat="47.2013860" lon="6.8768120">
        <ele>681.8</ele>
        <time>2022-07-21T11:16:47Z</time>
      </trkpt>
      <trkpt lat="47.2013800" lon="6.8767900">
        <ele>681.7</ele>
        <time>2022-07-21T11:16:48Z</time>
      </trkpt>
      <trkpt lat="47.2013770" lon="6.8767750">
        <ele>681.7</ele>
        <time>2022-07-21T11:16:49Z</time>
      </trkpt>
      <trkpt lat="47.2013640" lon="6.8767500">
        <ele>681.7</ele>
        <time>2022-07-21T11:16:50Z</time>
      </trkpt>
      <trkpt lat="47.2013470" lon="6.8767330">
        <ele>681.7</ele>
        <time>2022-07-21T11:16:52Z</time>
      </trkpt>
      <trkpt lat="47.2013380" lon="6.8767250">
        <ele>681.7</ele>
        <time>2022-07-21T11:16:53Z</time>
      </trkpt>
      <trkpt lat="47.2013180" lon="6.8766870">
        <ele>681.7</ele>
        <time>2022-07-21T11:16:54Z</time>
      </trkpt>
      <trkpt lat="47.2013070" lon="6.8766750">
        <ele>681.7</ele>
        <time>2022-07-21T11:16:55Z</time>
      </trkpt>
      <trkpt lat="47.2012770" lon="6.8766630">
        <ele>681.7</ele>
        <time>2022-07-21T11:16:57Z</time>
      </trkpt>
      <trkpt lat="47.2012690" lon="6.8766590">
        <ele>681.7</ele>
        <time>2022-07-21T11:16:58Z</time>
      </trkpt>
      <trkpt lat="47.2012640" lon="6.8766550">
        <ele>681.7</ele>
        <time>2022-07-21T11:16:59Z</time>
      </trkpt>
      <trkpt lat="47.2012460" lon="6.8766490">
        <ele>681.8</ele>
        <time>2022-07-21T11:17:00Z</time>
      </trkpt>
      <trkpt lat="47.2012320" lon="6.8766420">
        <ele>681.8</ele>
        <time>2022-07-21T11:17:01Z</time>
      </trkpt>
      <trkpt lat="47.2012200" lon="6.8766330">
        <ele>681.9</ele>
        <time>2022-07-21T11:17:02Z</time>
      </trkpt>
      <trkpt lat="47.2012080" lon="6.8766200">
        <ele>682.0</ele>
        <time>2022-07-21T11:17:03Z</time>
      </trkpt>
      <trkpt lat="47.2011970" lon="6.8766050">
        <ele>682.0</ele>
        <time>2022-07-21T11:17:05Z</time>
      </trkpt>
      <trkpt lat="47.2011930" lon="6.8765870">
        <ele>682.1</ele>
        <time>2022-07-21T11:17:06Z</time>
      </trkpt>
      <trkpt lat="47.2011920" lon="6.8765800">
        <ele>682.1</ele>
        <time>2022-07-21T11:17:07Z</time>
      </trkpt>
      <trkpt lat="47.2011900" lon="6.8765730">
        <ele>682.2</ele>
        <time>2022-07-21T11:17:08Z</time>
      </trkpt>
      <trkpt lat="47.2011840" lon="6.8765620">
        <ele>682.2</ele>
        <time>2022-07-21T11:17:09Z</time>
      </trkpt>
      <trkpt lat="47.2011770" lon="6.8765500">
        <ele>682.3</ele>
        <time>2022-07-21T11:17:10Z</time>
      </trkpt>
      <trkpt lat="47.2011700" lon="6.8765410">
        <ele>682.4</ele>
        <time>2022-07-21T11:17:11Z</time>
      </trkpt>
      <trkpt lat="47.2011580" lon="6.8765260">
        <ele>682.5</ele>
        <time>2022-07-21T11:17:13Z</time>
      </trkpt>
      <trkpt lat="47.2011500" lon="6.8765180">
        <ele>682.6</ele>
        <time>2022-07-21T11:17:14Z</time>
      </trkpt>
      <trkpt lat="47.2011440" lon="6.8765140">
        <ele>682.7</ele>
        <time>2022-07-21T11:17:15Z</time>
      </trkpt>
      <trkpt lat="47.2011360" lon="6.8765100">
        <ele>682.7</ele>
        <time>2022-07-21T11:17:16Z</time>
      </trkpt>
      <trkpt lat="47.2011290" lon="6.8765060">
        <ele>682.8</ele>
        <time>2022-07-21T11:17:17Z</time>
      </trkpt>
      <trkpt lat="47.2011110" lon="6.8764950">
        <ele>683.0</ele>
        <time>2022-07-21T11:17:18Z</time>
      </trkpt>
      <trkpt lat="47.2010910" lon="6.8764830">
        <ele>683.3</ele>
        <time>2022-07-21T11:17:20Z</time>
      </trkpt>
      <trkpt lat="47.2010800" lon="6.8764770">
        <ele>683.4</ele>
        <time>2022-07-21T11:17:21Z</time>
      </trkpt>
      <trkpt lat="47.2010630" lon="6.8764670">
        <ele>683.6</ele>
        <time>2022-07-21T11:17:22Z</time>
      </trkpt>
      <trkpt lat="47.2010440" lon="6.8764610">
        <ele>683.9</ele>
        <time>2022-07-21T11:17:23Z</time>
      </trkpt>
      <trkpt lat="47.2010330" lon="6.8764570">
        <ele>684.0</ele>
        <time>2022-07-21T11:17:24Z</time>
      </trkpt>
      <trkpt lat="47.2010230" lon="6.8764550">
        <ele>684.2</ele>
        <time>2022-07-21T11:17:25Z</time>
      </trkpt>
      <trkpt lat="47.2010100" lon="6.8764530">
        <ele>684.4</ele>
        <time>2022-07-21T11:17:26Z</time>
      </trkpt>
      <trkpt lat="47.2009970" lon="6.8764510">
        <ele>684.6</ele>
        <time>2022-07-21T11:17:27Z</time>
      </trkpt>
      <trkpt lat="47.2009750" lon="6.8764400">
        <ele>684.9</ele>
        <time>2022-07-21T11:17:28Z</time>
      </trkpt>
      <trkpt lat="47.2009650" lon="6.8764330">
        <ele>685.1</ele>
        <time>2022-07-21T11:17:30Z</time>
      </trkpt>
      <trkpt lat="47.2009550" lon="6.8764260">
        <ele>685.3</ele>
        <time>2022-07-21T11:17:31Z</time>
      </trkpt>
      <trkpt lat="47.2009450" lon="6.8764190">
        <ele>685.5</ele>
        <time>2022-07-21T11:17:33Z</time>
      </trkpt>
      <trkpt lat="47.2009350" lon="6.8764120">
        <ele>685.6</ele>
        <time>2022-07-21T11:17:34Z</time>
      </trkpt>
      <trkpt lat="47.2009130" lon="6.8764060">
        <ele>686.0</ele>
        <time>2022-07-21T11:17:35Z</time>
      </trkpt>
      <trkpt lat="47.2009060" lon="6.8764050">
        <ele>686.1</ele>
        <time>2022-07-21T11:17:37Z</time>
      </trkpt>
      <trkpt lat="47.2008990" lon="6.8764040">
        <ele>686.3</ele>
        <time>2022-07-21T11:17:38Z</time>
      </trkpt>
      <trkpt lat="47.2008870" lon="6.8764070">
        <ele>686.5</ele>
        <time>2022-07-21T11:17:39Z</time>
      </trkpt>
      <trkpt lat="47.2008690" lon="6.8764110">
        <ele>686.8</ele>
        <time>2022-07-21T11:17:40Z</time>
      </trkpt>
      <trkpt lat="47.2008530" lon="6.8764150">
        <ele>687.1</ele>
        <time>2022-07-21T11:17:41Z</time>
      </trkpt>
      <trkpt lat="47.2008460" lon="6.8764180">
        <ele>687.3</ele>
        <time>2022-07-21T11:17:42Z</time>
      </trkpt>
      <trkpt lat="47.2008330" lon="6.8764190">
        <ele>687.5</ele>
        <time>2022-07-21T11:17:44Z</time>
      </trkpt>
      <trkpt lat="47.2008160" lon="6.8764160">
        <ele>687.9</ele>
        <time>2022-07-21T11:17:45Z</time>
      </trkpt>
      <trkpt lat="47.2008030" lon="6.8764140">
        <ele>688.1</ele>
        <time>2022-07-21T11:17:47Z</time>
      </trkpt>
      <trkpt lat="47.2007870" lon="6.8764110">
        <ele>688.4</ele>
        <time>2022-07-21T11:17:48Z</time>
      </trkpt>
      <trkpt lat="47.2007680" lon="6.8764040">
        <ele>688.8</ele>
        <time>2022-07-21T11:17:50Z</time>
      </trkpt>
      <trkpt lat="47.2007570" lon="6.8763990">
        <ele>689.1</ele>
        <time>2022-07-21T11:17:51Z</time>
      </trkpt>
      <trkpt lat="47.2007420" lon="6.8763930">
        <ele>689.4</ele>
        <time>2022-07-21T11:17:52Z</time>
      </trkpt>
      <trkpt lat="47.2007350" lon="6.8763930">
        <ele>689.5</ele>
        <time>2022-07-21T11:17:54Z</time>
      </trkpt>
      <trkpt lat="47.2007220" lon="6.8763950">
        <ele>689.8</ele>
        <time>2022-07-21T11:17:55Z</time>
      </trkpt>
      <trkpt lat="47.2007200" lon="6.8763960">
        <ele>689.9</ele>
        <time>2022-07-21T11:17:56Z</time>
      </trkpt>
      <trkpt lat="47.2007180" lon="6.8763950">
        <ele>689.9</ele>
        <time>2022-07-21T11:17:57Z</time>
      </trkpt>
      <trkpt lat="47.2007180" lon="6.8763940">
        <ele>689.9</ele>
        <time>2022-07-21T11:17:58Z</time>
      </trkpt>
      <trkpt lat="47.2007190" lon="6.8763910">
        <ele>690.0</ele>
        <time>2022-07-21T11:17:59Z</time>
      </trkpt>
      <trkpt lat="47.2007190" lon="6.8763870">
        <ele>690.0</ele>
        <time>2022-07-21T11:18:00Z</time>
      </trkpt>
      <trkpt lat="47.2007190" lon="6.8763850">
        <ele>690.1</ele>
        <time>2022-07-21T11:18:01Z</time>
      </trkpt>
      <trkpt lat="47.2007190" lon="6.8763810">
        <ele>690.1</ele>
        <time>2022-07-21T11:18:03Z</time>
      </trkpt>
      <trkpt lat="47.2007180" lon="6.8763790">
        <ele>690.2</ele>
        <time>2022-07-21T11:18:04Z</time>
      </trkpt>
      <trkpt lat="47.2006920" lon="6.8763560">
        <ele>690.8</ele>
        <time>2022-07-21T11:18:13Z</time>
      </trkpt>
      <trkpt lat="47.2006850" lon="6.8763490">
        <ele>691.0</ele>
        <time>2022-07-21T11:18:14Z</time>
      </trkpt>
      <trkpt lat="47.2006810" lon="6.8763480">
        <ele>691.1</ele>
        <time>2022-07-21T11:18:15Z</time>
      </trkpt>
      <trkpt lat="47.2006680" lon="6.8763430">
        <ele>691.4</ele>
        <time>2022-07-21T11:18:16Z</time>
      </trkpt>
      <trkpt lat="47.2006570" lon="6.8763420">
        <ele>691.6</ele>
        <time>2022-07-21T11:18:18Z</time>
      </trkpt>
      <trkpt lat="47.2006480" lon="6.8763390">
        <ele>691.9</ele>
        <time>2022-07-21T11:18:19Z</time>
      </trkpt>
      <trkpt lat="47.2006250" lon="6.8763340">
        <ele>692.4</ele>
        <time>2022-07-21T11:18:20Z</time>
      </trkpt>
      <trkpt lat="47.2006120" lon="6.8763370">
        <ele>692.7</ele>
        <time>2022-07-21T11:18:22Z</time>
      </trkpt>
      <trkpt lat="47.2005930" lon="6.8763410">
        <ele>693.1</ele>
        <time>2022-07-21T11:18:23Z</time>
      </trkpt>
      <trkpt lat="47.2005750" lon="6.8763390">
        <ele>693.5</ele>
        <time>2022-07-21T11:18:25Z</time>
      </trkpt>
      <trkpt lat="47.2005600" lon="6.8763400">
        <ele>693.8</ele>
        <time>2022-07-21T11:18:27Z</time>
      </trkpt>
      <trkpt lat="47.2005470" lon="6.8763360">
        <ele>694.1</ele>
        <time>2022-07-21T11:18:28Z</time>
      </trkpt>
      <trkpt lat="47.2005380" lon="6.8763310">
        <ele>694.3</ele>
        <time>2022-07-21T11:18:29Z</time>
      </trkpt>
      <trkpt lat="47.2005310" lon="6.8763250">
        <ele>694.4</ele>
        <time>2022-07-21T11:18:30Z</time>
      </trkpt>
      <trkpt lat="47.2005220" lon="6.8763150">
        <ele>694.7</ele>
        <time>2022-07-21T11:18:31Z</time>
      </trkpt>
      <trkpt lat="47.2005070" lon="6.8763060">
        <ele>695.0</ele>
        <time>2022-07-21T11:18:33Z</time>
      </trkpt>
      <trkpt lat="47.2005010" lon="6.8763030">
        <ele>695.1</ele>
        <time>2022-07-21T11:18:34Z</time>
      </trkpt>
      <trkpt lat="47.2004930" lon="6.8763000">
        <ele>695.3</ele>
        <time>2022-07-21T11:18:35Z</time>
      </trkpt>
      <trkpt lat="47.2004830" lon="6.8762960">
        <ele>695.5</ele>
        <time>2022-07-21T11:18:36Z</time>
      </trkpt>
      <trkpt lat="47.2004740" lon="6.8762920">
        <ele>695.7</ele>
        <time>2022-07-21T11:18:37Z</time>
      </trkpt>
      <trkpt lat="47.2004550" lon="6.8762810">
        <ele>696.1</ele>
        <time>2022-07-21T11:18:39Z</time>
      </trkpt>
      <trkpt lat="47.2004480" lon="6.8762740">
        <ele>696.3</ele>
        <time>2022-07-21T11:18:40Z</time>
      </trkpt>
      <trkpt lat="47.2004420" lon="6.8762670">
        <ele>696.4</ele>
        <time>2022-07-21T11:18:41Z</time>
      </trkpt>
      <trkpt lat="47.2004350" lon="6.8762590">
        <ele>696.6</ele>
        <time>2022-07-21T11:18:43Z</time>
      </trkpt>
      <trkpt lat="47.2004320" lon="6.8762510">
        <ele>696.7</ele>
        <time>2022-07-21T11:18:44Z</time>
      </trkpt>
      <trkpt lat="47.2004270" lon="6.8762410">
        <ele>696.9</ele>
        <time>2022-07-21T11:18:45Z</time>
      </trkpt>
      <trkpt lat="47.2004170" lon="6.8762230">
        <ele>697.1</ele>
        <time>2022-07-21T11:18:46Z</time>
      </trkpt>
      <trkpt lat="47.2004100" lon="6.8762120">
        <ele>697.3</ele>
        <time>2022-07-21T11:18:47Z</time>
      </trkpt>
      <trkpt lat="47.2004000" lon="6.8762010">
        <ele>697.5</ele>
        <time>2022-07-21T11:18:49Z</time>
      </trkpt>
      <trkpt lat="47.2003910" lon="6.8761910">
        <ele>697.7</ele>
        <time>2022-07-21T11:18:50Z</time>
      </trkpt>
      <trkpt lat="47.2003850" lon="6.8761870">
        <ele>697.8</ele>
        <time>2022-07-21T11:18:51Z</time>
      </trkpt>
      <trkpt lat="47.2003790" lon="6.8761820">
        <ele>698.0</ele>
        <time>2022-07-21T11:18:52Z</time>
      </trkpt>
      <trkpt lat="47.2003740" lon="6.8761770">
        <ele>698.1</ele>
        <time>2022-07-21T11:18:53Z</time>
      </trkpt>
      <trkpt lat="47.2003670" lon="6.8761720">
        <ele>698.2</ele>
        <time>2022-07-21T11:18:54Z</time>
      </trkpt>
      <trkpt lat="47.2003610" lon="6.8761700">
        <ele>698.3</ele>
        <time>2022-07-21T11:18:55Z</time>
      </trkpt>
      <trkpt lat="47.2003550" lon="6.8761700">
        <ele>698.4</ele>
        <time>2022-07-21T11:18:56Z</time>
      </trkpt>
      <trkpt lat="47.2003500" lon="6.8761720">
        <ele>698.5</ele>
        <time>2022-07-21T11:18:57Z</time>
      </trkpt>
      <trkpt lat="47.2003470" lon="6.8761720">
        <ele>698.5</ele>
        <time>2022-07-21T11:18:58Z</time>
      </trkpt>
      <trkpt lat="47.2003420" lon="6.8761690">
        <ele>698.6</ele>
        <time>2022-07-21T11:18:59Z</time>
      </trkpt>
      <trkpt lat="47.2003370" lon="6.8761660">
        <ele>698.7</ele>
        <time>2022-07-21T11:19:00Z</time>
      </trkpt>
      <trkpt lat="47.2003330" lon="6.8761630">
        <ele>698.8</ele>
        <time>2022-07-21T11:19:01Z</time>
      </trkpt>
      <trkpt lat="47.2003310" lon="6.8761630">
        <ele>698.8</ele>
        <time>2022-07-21T11:19:02Z</time>
      </trkpt>
      <trkpt lat="47.2003280" lon="6.8761640">
        <ele>698.8</ele>
        <time>2022-07-21T11:19:03Z</time>
      </trkpt>
      <trkpt lat="47.2003250" lon="6.8761630">
        <ele>698.9</ele>
        <time>2022-07-21T11:19:04Z</time>
      </trkpt>
      <trkpt lat="47.2003230" lon="6.8761620">
        <ele>698.9</ele>
        <time>2022-07-21T11:19:05Z</time>
      </trkpt>
      <trkpt lat="47.2003200" lon="6.8761600">
        <ele>699.0</ele>
        <time>2022-07-21T11:19:06Z</time>
      </trkpt>
      <trkpt lat="47.2003170" lon="6.8761580">
        <ele>699.0</ele>
        <time>2022-07-21T11:19:07Z</time>
      </trkpt>
      <trkpt lat="47.2003150" lon="6.8761570">
        <ele>699.0</ele>
        <time>2022-07-21T11:19:08Z</time>
      </trkpt>
      <trkpt lat="47.2003140" lon="6.8761550">
        <ele>699.1</ele>
        <time>2022-07-21T11:19:09Z</time>
      </trkpt>
      <trkpt lat="47.2003120" lon="6.8761540">
        <ele>699.1</ele>
        <time>2022-07-21T11:19:10Z</time>
      </trkpt>
      <trkpt lat="47.2002850" lon="6.8760840">
        <ele>699.9</ele>
        <time>2022-07-21T11:19:16Z</time>
      </trkpt>
      <trkpt lat="47.2002750" lon="6.8760550">
        <ele>700.4</ele>
        <time>2022-07-21T11:19:18Z</time>
      </trkpt>
      <trkpt lat="47.2002570" lon="6.8760160">
        <ele>700.6</ele>
        <time>2022-07-21T11:19:20Z</time>
      </trkpt>
      <trkpt lat="47.2002420" lon="6.8759880">
        <ele>700.7</ele>
        <time>2022-07-21T11:19:21Z</time>
      </trkpt>
      <trkpt lat="47.2002360" lon="6.8759770">
        <ele>700.8</ele>
        <time>2022-07-21T11:19:22Z</time>
      </trkpt>
      <trkpt lat="47.2002300" lon="6.8759660">
        <ele>700.8</ele>
        <time>2022-07-21T11:19:23Z</time>
      </trkpt>
      <trkpt lat="47.2002060" lon="6.8759270">
        <ele>701.0</ele>
        <time>2022-07-21T11:19:25Z</time>
      </trkpt>
      <trkpt lat="47.2001980" lon="6.8759150">
        <ele>701.0</ele>
        <time>2022-07-21T11:19:26Z</time>
      </trkpt>
      <trkpt lat="47.2001790" lon="6.8758780">
        <ele>701.2</ele>
        <time>2022-07-21T11:19:27Z</time>
      </trkpt>
      <trkpt lat="47.2001730" lon="6.8758640">
        <ele>701.2</ele>
        <time>2022-07-21T11:19:28Z</time>
      </trkpt>
      <trkpt lat="47.2001590" lon="6.8758260">
        <ele>701.3</ele>
        <time>2022-07-21T11:19:29Z</time>
      </trkpt>
      <trkpt lat="47.2001540" lon="6.8758130">
        <ele>701.3</ele>
        <time>2022-07-21T11:19:30Z</time>
      </trkpt>
      <trkpt lat="47.2001310" lon="6.8757670">
        <ele>701.4</ele>
        <time>2022-07-21T11:19:32Z</time>
      </trkpt>
      <trkpt lat="47.2001230" lon="6.8757540">
        <ele>701.5</ele>
        <time>2022-07-21T11:19:33Z</time>
      </trkpt>
      <trkpt lat="47.2001030" lon="6.8757250">
        <ele>701.5</ele>
        <time>2022-07-21T11:19:34Z</time>
      </trkpt>
      <trkpt lat="47.2000880" lon="6.8757080">
        <ele>701.6</ele>
        <time>2022-07-21T11:19:36Z</time>
      </trkpt>
      <trkpt lat="47.2000770" lon="6.8756930">
        <ele>701.6</ele>
        <time>2022-07-21T11:19:37Z</time>
      </trkpt>
      <trkpt lat="47.2000500" lon="6.8756650">
        <ele>701.7</ele>
        <time>2022-07-21T11:19:38Z</time>
      </trkpt>
      <trkpt lat="47.2000400" lon="6.8756570">
        <ele>701.8</ele>
        <time>2022-07-21T11:19:39Z</time>
      </trkpt>
      <trkpt lat="47.2000070" lon="6.8756280">
        <ele>701.9</ele>
        <time>2022-07-21T11:19:40Z</time>
      </trkpt>
      <trkpt lat="47.1999950" lon="6.8756180">
        <ele>701.9</ele>
        <time>2022-07-21T11:19:41Z</time>
      </trkpt>
      <trkpt lat="47.1999580" lon="6.8755980">
        <ele>702.1</ele>
        <time>2022-07-21T11:19:43Z</time>
      </trkpt>
      <trkpt lat="47.1999240" lon="6.8755810">
        <ele>702.2</ele>
        <time>2022-07-21T11:19:44Z</time>
      </trkpt>
      <trkpt lat="47.1999000" lon="6.8755560">
        <ele>702.3</ele>
        <time>2022-07-21T11:19:45Z</time>
      </trkpt>
      <trkpt lat="47.1998780" lon="6.8755320">
        <ele>702.5</ele>
        <time>2022-07-21T11:19:47Z</time>
      </trkpt>
      <trkpt lat="47.1998620" lon="6.8755230">
        <ele>702.6</ele>
        <time>2022-07-21T11:19:48Z</time>
      </trkpt>
      <trkpt lat="47.1998480" lon="6.8755160">
        <ele>702.7</ele>
        <time>2022-07-21T11:19:49Z</time>
      </trkpt>
      <trkpt lat="47.1998320" lon="6.8755140">
        <ele>702.8</ele>
        <time>2022-07-21T11:19:50Z</time>
      </trkpt>
      <trkpt lat="47.1998180" lon="6.8755070">
        <ele>702.9</ele>
        <time>2022-07-21T11:19:51Z</time>
      </trkpt>
      <trkpt lat="47.1997940" lon="6.8754840">
        <ele>703.0</ele>
        <time>2022-07-21T11:19:52Z</time>
      </trkpt>
      <trkpt lat="47.1997870" lon="6.8754760">
        <ele>703.1</ele>
        <time>2022-07-21T11:19:53Z</time>
      </trkpt>
      <trkpt lat="47.1997630" lon="6.8754470">
        <ele>703.3</ele>
        <time>2022-07-21T11:19:55Z</time>
      </trkpt>
      <trkpt lat="47.1997590" lon="6.8754420">
        <ele>703.3</ele>
        <time>2022-07-21T11:19:56Z</time>
      </trkpt>
      <trkpt lat="47.1997510" lon="6.8754310">
        <ele>703.4</ele>
        <time>2022-07-21T11:19:57Z</time>
      </trkpt>
      <trkpt lat="47.1997440" lon="6.8754210">
        <ele>703.5</ele>
        <time>2022-07-21T11:19:58Z</time>
      </trkpt>
      <trkpt lat="47.1997340" lon="6.8754100">
        <ele>703.6</ele>
        <time>2022-07-21T11:19:59Z</time>
      </trkpt>
      <trkpt lat="47.1997280" lon="6.8753990">
        <ele>703.6</ele>
        <time>2022-07-21T11:20:00Z</time>
      </trkpt>
      <trkpt lat="47.1997240" lon="6.8753910">
        <ele>703.7</ele>
        <time>2022-07-21T11:20:01Z</time>
      </trkpt>
      <trkpt lat="47.1997130" lon="6.8753730">
        <ele>703.8</ele>
        <time>2022-07-21T11:20:02Z</time>
      </trkpt>
      <trkpt lat="47.1996910" lon="6.8753540">
        <ele>703.9</ele>
        <time>2022-07-21T11:20:04Z</time>
      </trkpt>
      <trkpt lat="47.1996840" lon="6.8753430">
        <ele>704.0</ele>
        <time>2022-07-21T11:20:05Z</time>
      </trkpt>
      <trkpt lat="47.1996610" lon="6.8753180">
        <ele>704.1</ele>
        <time>2022-07-21T11:20:06Z</time>
      </trkpt>
      <trkpt lat="47.1996410" lon="6.8752930">
        <ele>704.2</ele>
        <time>2022-07-21T11:20:07Z</time>
      </trkpt>
      <trkpt lat="47.1996190" lon="6.8752880">
        <ele>704.3</ele>
        <time>2022-07-21T11:20:09Z</time>
      </trkpt>
      <trkpt lat="47.1995970" lon="6.8752850">
        <ele>704.4</ele>
        <time>2022-07-21T11:20:10Z</time>
      </trkpt>
      <trkpt lat="47.1995830" lon="6.8752830">
        <ele>704.4</ele>
        <time>2022-07-21T11:20:11Z</time>
      </trkpt>
      <trkpt lat="47.1995510" lon="6.8752730">
        <ele>704.5</ele>
        <time>2022-07-21T11:20:12Z</time>
      </trkpt>
      <trkpt lat="47.1995420" lon="6.8752690">
        <ele>704.5</ele>
        <time>2022-07-21T11:20:13Z</time>
      </trkpt>
      <trkpt lat="47.1995300" lon="6.8752640">
        <ele>704.6</ele>
        <time>2022-07-21T11:20:14Z</time>
      </trkpt>
      <trkpt lat="47.1995200" lon="6.8752580">
        <ele>704.6</ele>
        <time>2022-07-21T11:20:15Z</time>
      </trkpt>
      <trkpt lat="47.1995090" lon="6.8752540">
        <ele>704.6</ele>
        <time>2022-07-21T11:20:16Z</time>
      </trkpt>
      <trkpt lat="47.1994850" lon="6.8752340">
        <ele>704.6</ele>
        <time>2022-07-21T11:20:17Z</time>
      </trkpt>
      <trkpt lat="47.1994690" lon="6.8752280">
        <ele>704.7</ele>
        <time>2022-07-21T11:20:18Z</time>
      </trkpt>
      <trkpt lat="47.1994530" lon="6.8752260">
        <ele>704.7</ele>
        <time>2022-07-21T11:20:19Z</time>
      </trkpt>
      <trkpt lat="47.1994180" lon="6.8752250">
        <ele>704.7</ele>
        <time>2022-07-21T11:20:20Z</time>
      </trkpt>
      <trkpt lat="47.1994050" lon="6.8752250">
        <ele>704.7</ele>
        <time>2022-07-21T11:20:21Z</time>
      </trkpt>
      <trkpt lat="47.1993670" lon="6.8752270">
        <ele>704.7</ele>
        <time>2022-07-21T11:20:23Z</time>
      </trkpt>
      <trkpt lat="47.1993520" lon="6.8752290">
        <ele>704.7</ele>
        <time>2022-07-21T11:20:24Z</time>
      </trkpt>
      <trkpt lat="47.1993070" lon="6.8752410">
        <ele>704.6</ele>
        <time>2022-07-21T11:20:25Z</time>
      </trkpt>
      <trkpt lat="47.1992700" lon="6.8752500">
        <ele>704.6</ele>
        <time>2022-07-21T11:20:26Z</time>
      </trkpt>
      <trkpt lat="47.1992290" lon="6.8752640">
        <ele>704.5</ele>
        <time>2022-07-21T11:20:28Z</time>
      </trkpt>
      <trkpt lat="47.1991870" lon="6.8752790">
        <ele>704.4</ele>
        <time>2022-07-21T11:20:29Z</time>
      </trkpt>
      <trkpt lat="47.1991540" lon="6.8752950">
        <ele>704.3</ele>
        <time>2022-07-21T11:20:30Z</time>
      </trkpt>
      <trkpt lat="47.1991270" lon="6.8753040">
        <ele>704.2</ele>
        <time>2022-07-21T11:20:31Z</time>
      </trkpt>
      <trkpt lat="47.1990950" lon="6.8753090">
        <ele>704.1</ele>
        <time>2022-07-21T11:20:32Z</time>
      </trkpt>
      <trkpt lat="47.1990460" lon="6.8753290">
        <ele>703.9</ele>
        <time>2022-07-21T11:20:33Z</time>
      </trkpt>
      <trkpt lat="47.1990090" lon="6.8753440">
        <ele>703.7</ele>
        <time>2022-07-21T11:20:34Z</time>
      </trkpt>
      <trkpt lat="47.1989740" lon="6.8753550">
        <ele>703.5</ele>
        <time>2022-07-21T11:20:36Z</time>
      </trkpt>
      <trkpt lat="47.1989240" lon="6.8753570">
        <ele>703.2</ele>
        <time>2022-07-21T11:20:37Z</time>
      </trkpt>
      <trkpt lat="47.1988910" lon="6.8753650">
        <ele>703.0</ele>
        <time>2022-07-21T11:20:38Z</time>
      </trkpt>
      <trkpt lat="47.1988570" lon="6.8753700">
        <ele>702.8</ele>
        <time>2022-07-21T11:20:39Z</time>
      </trkpt>
      <trkpt lat="47.1988290" lon="6.8753740">
        <ele>702.6</ele>
        <time>2022-07-21T11:20:40Z</time>
      </trkpt>
      <trkpt lat="47.1987850" lon="6.8753700">
        <ele>702.3</ele>
        <time>2022-07-21T11:20:42Z</time>
      </trkpt>
      <trkpt lat="47.1987500" lon="6.8753610">
        <ele>702.0</ele>
        <time>2022-07-21T11:20:43Z</time>
      </trkpt>
      <trkpt lat="47.1986320" lon="6.8754140">
        <ele>701.1</ele>
        <time>2022-07-21T11:20:44Z</time>
      </trkpt>
      <trkpt lat="47.1985650" lon="6.8754020">
        <ele>700.5</ele>
        <time>2022-07-21T11:20:45Z</time>
      </trkpt>
      <trkpt lat="47.1985240" lon="6.8754140">
        <ele>700.2</ele>
        <time>2022-07-21T11:20:46Z</time>
      </trkpt>
      <trkpt lat="47.1984750" lon="6.8754200">
        <ele>699.8</ele>
        <time>2022-07-21T11:20:47Z</time>
      </trkpt>
      <trkpt lat="47.1984180" lon="6.8754370">
        <ele>699.3</ele>
        <time>2022-07-21T11:20:48Z</time>
      </trkpt>
      <trkpt lat="47.1983700" lon="6.8754540">
        <ele>699.0</ele>
        <time>2022-07-21T11:20:49Z</time>
      </trkpt>
      <trkpt lat="47.1983370" lon="6.8754420">
        <ele>698.8</ele>
        <time>2022-07-21T11:20:50Z</time>
      </trkpt>
      <trkpt lat="47.1982290" lon="6.8754320">
        <ele>698.1</ele>
        <time>2022-07-21T11:20:52Z</time>
      </trkpt>
      <trkpt lat="47.1981590" lon="6.8754420">
        <ele>697.6</ele>
        <time>2022-07-21T11:20:53Z</time>
      </trkpt>
      <trkpt lat="47.1980950" lon="6.8754320">
        <ele>697.2</ele>
        <time>2022-07-21T11:20:54Z</time>
      </trkpt>
      <trkpt lat="47.1980210" lon="6.8754220">
        <ele>696.7</ele>
        <time>2022-07-21T11:20:55Z</time>
      </trkpt>
      <trkpt lat="47.1979410" lon="6.8754120">
        <ele>696.2</ele>
        <time>2022-07-21T11:20:56Z</time>
      </trkpt>
      <trkpt lat="47.1978870" lon="6.8754100">
        <ele>695.8</ele>
        <time>2022-07-21T11:20:57Z</time>
      </trkpt>
      <trkpt lat="47.1978530" lon="6.8754140">
        <ele>695.6</ele>
        <time>2022-07-21T11:20:58Z</time>
      </trkpt>
      <trkpt lat="47.1978160" lon="6.8754250">
        <ele>695.3</ele>
        <time>2022-07-21T11:20:59Z</time>
      </trkpt>
      <trkpt lat="47.1977750" lon="6.8754120">
        <ele>695.1</ele>
        <time>2022-07-21T11:21:01Z</time>
      </trkpt>
      <trkpt lat="47.1977120" lon="6.8753600">
        <ele>694.8</ele>
        <time>2022-07-21T11:21:02Z</time>
      </trkpt>
      <trkpt lat="47.1976580" lon="6.8753300">
        <ele>694.6</ele>
        <time>2022-07-21T11:21:03Z</time>
      </trkpt>
      <trkpt lat="47.1976230" lon="6.8753460">
        <ele>694.6</ele>
        <time>2022-07-21T11:21:04Z</time>
      </trkpt>
      <trkpt lat="47.1975850" lon="6.8753510">
        <ele>694.6</ele>
        <time>2022-07-21T11:21:05Z</time>
      </trkpt>
      <trkpt lat="47.1975340" lon="6.8753120">
        <ele>694.6</ele>
        <time>2022-07-21T11:21:07Z</time>
      </trkpt>
      <trkpt lat="47.1974950" lon="6.8752820">
        <ele>694.7</ele>
        <time>2022-07-21T11:21:08Z</time>
      </trkpt>
      <trkpt lat="47.1974590" lon="6.8752600">
        <ele>694.8</ele>
        <time>2022-07-21T11:21:09Z</time>
      </trkpt>
      <trkpt lat="47.1974140" lon="6.8752350">
        <ele>694.9</ele>
        <time>2022-07-21T11:21:11Z</time>
      </trkpt>
      <trkpt lat="47.1973860" lon="6.8752030">
        <ele>695.0</ele>
        <time>2022-07-21T11:21:12Z</time>
      </trkpt>
      <trkpt lat="47.1973760" lon="6.8751960">
        <ele>695.1</ele>
        <time>2022-07-21T11:21:13Z</time>
      </trkpt>
      <trkpt lat="47.1973610" lon="6.8751920">
        <ele>695.1</ele>
        <time>2022-07-21T11:21:14Z</time>
      </trkpt>
      <trkpt lat="47.1973420" lon="6.8751920">
        <ele>695.2</ele>
        <time>2022-07-21T11:21:15Z</time>
      </trkpt>
      <trkpt lat="47.1973150" lon="6.8751850">
        <ele>695.3</ele>
        <time>2022-07-21T11:21:16Z</time>
      </trkpt>
      <trkpt lat="47.1973070" lon="6.8751800">
        <ele>695.4</ele>
        <time>2022-07-21T11:21:17Z</time>
      </trkpt>
      <trkpt lat="47.1972890" lon="6.8751660">
        <ele>695.5</ele>
        <time>2022-07-21T11:21:18Z</time>
      </trkpt>
      <trkpt lat="47.1972770" lon="6.8751600">
        <ele>695.6</ele>
        <time>2022-07-21T11:21:19Z</time>
      </trkpt>
      <trkpt lat="47.1972620" lon="6.8751570">
        <ele>695.7</ele>
        <time>2022-07-21T11:21:20Z</time>
      </trkpt>
      <trkpt lat="47.1972370" lon="6.8751350">
        <ele>695.9</ele>
        <time>2022-07-21T11:21:22Z</time>
      </trkpt>
      <trkpt lat="47.1972140" lon="6.8751010">
        <ele>696.1</ele>
        <time>2022-07-21T11:21:23Z</time>
      </trkpt>
      <trkpt lat="47.1972070" lon="6.8750890">
        <ele>696.2</ele>
        <time>2022-07-21T11:21:24Z</time>
      </trkpt>
      <trkpt lat="47.1971880" lon="6.8750520">
        <ele>696.5</ele>
        <time>2022-07-21T11:21:25Z</time>
      </trkpt>
      <trkpt lat="47.1971810" lon="6.8750410">
        <ele>696.6</ele>
        <time>2022-07-21T11:21:26Z</time>
      </trkpt>
      <trkpt lat="47.1971680" lon="6.8750160">
        <ele>696.8</ele>
        <time>2022-07-21T11:21:28Z</time>
      </trkpt>
      <trkpt lat="47.1971580" lon="6.8750050">
        <ele>696.9</ele>
        <time>2022-07-21T11:21:29Z</time>
      </trkpt>
      <trkpt lat="47.1971390" lon="6.8750060">
        <ele>697.1</ele>
        <time>2022-07-21T11:21:30Z</time>
      </trkpt>
      <trkpt lat="47.1971250" lon="6.8750050">
        <ele>697.3</ele>
        <time>2022-07-21T11:21:31Z</time>
      </trkpt>
      <trkpt lat="47.1970890" lon="6.8749990">
        <ele>697.7</ele>
        <time>2022-07-21T11:21:32Z</time>
      </trkpt>
      <trkpt lat="47.1970790" lon="6.8749970">
        <ele>697.8</ele>
        <time>2022-07-21T11:21:33Z</time>
      </trkpt>
      <trkpt lat="47.1970580" lon="6.8749700">
        <ele>698.1</ele>
        <time>2022-07-21T11:21:34Z</time>
      </trkpt>
      <trkpt lat="47.1970530" lon="6.8749570">
        <ele>698.2</ele>
        <time>2022-07-21T11:21:35Z</time>
      </trkpt>
      <trkpt lat="47.1970440" lon="6.8749520">
        <ele>698.3</ele>
        <time>2022-07-21T11:21:36Z</time>
      </trkpt>
      <trkpt lat="47.1970290" lon="6.8749300">
        <ele>698.5</ele>
        <time>2022-07-21T11:21:38Z</time>
      </trkpt>
      <trkpt lat="47.1970190" lon="6.8749080">
        <ele>698.7</ele>
        <time>2022-07-21T11:21:39Z</time>
      </trkpt>
      <trkpt lat="47.1970010" lon="6.8748900">
        <ele>698.9</ele>
        <time>2022-07-21T11:21:41Z</time>
      </trkpt>
      <trkpt lat="47.1969880" lon="6.8748870">
        <ele>699.0</ele>
        <time>2022-07-21T11:21:42Z</time>
      </trkpt>
      <trkpt lat="47.1969780" lon="6.8748850">
        <ele>699.1</ele>
        <time>2022-07-21T11:21:43Z</time>
      </trkpt>
      <trkpt lat="47.1969660" lon="6.8748810">
        <ele>699.2</ele>
        <time>2022-07-21T11:21:44Z</time>
      </trkpt>
      <trkpt lat="47.1969480" lon="6.8748720">
        <ele>699.4</ele>
        <time>2022-07-21T11:21:45Z</time>
      </trkpt>
      <trkpt lat="47.1969230" lon="6.8748620">
        <ele>699.6</ele>
        <time>2022-07-21T11:21:47Z</time>
      </trkpt>
      <trkpt lat="47.1969070" lon="6.8748530">
        <ele>699.8</ele>
        <time>2022-07-21T11:21:48Z</time>
      </trkpt>
      <trkpt lat="47.1968960" lon="6.8748430">
        <ele>699.9</ele>
        <time>2022-07-21T11:21:49Z</time>
      </trkpt>
      <trkpt lat="47.1968630" lon="6.8748120">
        <ele>700.1</ele>
        <time>2022-07-21T11:21:50Z</time>
      </trkpt>
      <trkpt lat="47.1968380" lon="6.8747900">
        <ele>700.3</ele>
        <time>2022-07-21T11:21:51Z</time>
      </trkpt>
      <trkpt lat="47.1968050" lon="6.8747810">
        <ele>700.5</ele>
        <time>2022-07-21T11:21:52Z</time>
      </trkpt>
      <trkpt lat="47.1967960" lon="6.8747810">
        <ele>700.6</ele>
        <time>2022-07-21T11:21:53Z</time>
      </trkpt>
      <trkpt lat="47.1967650" lon="6.8747750">
        <ele>700.7</ele>
        <time>2022-07-21T11:21:55Z</time>
      </trkpt>
      <trkpt lat="47.1967560" lon="6.8747730">
        <ele>700.8</ele>
        <time>2022-07-21T11:21:56Z</time>
      </trkpt>
      <trkpt lat="47.1967420" lon="6.8747700">
        <ele>700.8</ele>
        <time>2022-07-21T11:21:57Z</time>
      </trkpt>
      <trkpt lat="47.1967260" lon="6.8747650">
        <ele>700.9</ele>
        <time>2022-07-21T11:21:58Z</time>
      </trkpt>
      <trkpt lat="47.1967030" lon="6.8747500">
        <ele>701.0</ele>
        <time>2022-07-21T11:21:59Z</time>
      </trkpt>
      <trkpt lat="47.1966930" lon="6.8747410">
        <ele>701.0</ele>
        <time>2022-07-21T11:22:00Z</time>
      </trkpt>
      <trkpt lat="47.1966730" lon="6.8747130">
        <ele>701.1</ele>
        <time>2022-07-21T11:22:01Z</time>
      </trkpt>
      <trkpt lat="47.1966570" lon="6.8746880">
        <ele>701.1</ele>
        <time>2022-07-21T11:22:02Z</time>
      </trkpt>
      <trkpt lat="47.1966360" lon="6.8746590">
        <ele>701.1</ele>
        <time>2022-07-21T11:22:04Z</time>
      </trkpt>
      <trkpt lat="47.1966110" lon="6.8746270">
        <ele>701.2</ele>
        <time>2022-07-21T11:22:05Z</time>
      </trkpt>
      <trkpt lat="47.1965880" lon="6.8746040">
        <ele>701.2</ele>
        <time>2022-07-21T11:22:06Z</time>
      </trkpt>
      <trkpt lat="47.1965620" lon="6.8745750">
        <ele>701.1</ele>
        <time>2022-07-21T11:22:07Z</time>
      </trkpt>
      <trkpt lat="47.1965510" lon="6.8745630">
        <ele>701.1</ele>
        <time>2022-07-21T11:22:08Z</time>
      </trkpt>
      <trkpt lat="47.1965270" lon="6.8745410">
        <ele>701.1</ele>
        <time>2022-07-21T11:22:09Z</time>
      </trkpt>
      <trkpt lat="47.1964920" lon="6.8745200">
        <ele>701.0</ele>
        <time>2022-07-21T11:22:10Z</time>
      </trkpt>
      <trkpt lat="47.1964690" lon="6.8745090">
        <ele>701.0</ele>
        <time>2022-07-21T11:22:11Z</time>
      </trkpt>
      <trkpt lat="47.1964400" lon="6.8744850">
        <ele>700.9</ele>
        <time>2022-07-21T11:22:13Z</time>
      </trkpt>
      <trkpt lat="47.1964120" lon="6.8744490">
        <ele>700.9</ele>
        <time>2022-07-21T11:22:14Z</time>
      </trkpt>
      <trkpt lat="47.1964000" lon="6.8744310">
        <ele>700.8</ele>
        <time>2022-07-21T11:22:15Z</time>
      </trkpt>
      <trkpt lat="47.1963760" lon="6.8743970">
        <ele>700.8</ele>
        <time>2022-07-21T11:22:16Z</time>
      </trkpt>
      <trkpt lat="47.1963460" lon="6.8743640">
        <ele>700.7</ele>
        <time>2022-07-21T11:22:18Z</time>
      </trkpt>
      <trkpt lat="47.1963250" lon="6.8743290">
        <ele>700.6</ele>
        <time>2022-07-21T11:22:19Z</time>
      </trkpt>
      <trkpt lat="47.1963170" lon="6.8743130">
        <ele>700.6</ele>
        <time>2022-07-21T11:22:20Z</time>
      </trkpt>
      <trkpt lat="47.1962840" lon="6.8742630">
        <ele>700.5</ele>
        <time>2022-07-21T11:22:22Z</time>
      </trkpt>
      <trkpt lat="47.1962720" lon="6.8742500">
        <ele>700.5</ele>
        <time>2022-07-21T11:22:23Z</time>
      </trkpt>
      <trkpt lat="47.1962610" lon="6.8742380">
        <ele>700.4</ele>
        <time>2022-07-21T11:22:24Z</time>
      </trkpt>
      <trkpt lat="47.1962390" lon="6.8742100">
        <ele>700.4</ele>
        <time>2022-07-21T11:22:25Z</time>
      </trkpt>
      <trkpt lat="47.1962180" lon="6.8741910">
        <ele>700.3</ele>
        <time>2022-07-21T11:22:26Z</time>
      </trkpt>
      <trkpt lat="47.1961790" lon="6.8741560">
        <ele>700.3</ele>
        <time>2022-07-21T11:22:28Z</time>
      </trkpt>
      <trkpt lat="47.1961540" lon="6.8741380">
        <ele>700.2</ele>
        <time>2022-07-21T11:22:29Z</time>
      </trkpt>
      <trkpt lat="47.1961290" lon="6.8741200">
        <ele>700.2</ele>
        <time>2022-07-21T11:22:30Z</time>
      </trkpt>
      <trkpt lat="47.1961010" lon="6.8740950">
        <ele>700.1</ele>
        <time>2022-07-21T11:22:31Z</time>
      </trkpt>
      <trkpt lat="47.1960790" lon="6.8740700">
        <ele>700.1</ele>
        <time>2022-07-21T11:22:32Z</time>
      </trkpt>
      <trkpt lat="47.1960550" lon="6.8740440">
        <ele>700.1</ele>
        <time>2022-07-21T11:22:33Z</time>
      </trkpt>
      <trkpt lat="47.1960210" lon="6.8739950">
        <ele>700.0</ele>
        <time>2022-07-21T11:22:34Z</time>
      </trkpt>
      <trkpt lat="47.1960040" lon="6.8739740">
        <ele>700.0</ele>
        <time>2022-07-21T11:22:35Z</time>
      </trkpt>
      <trkpt lat="47.1959740" lon="6.8739350">
        <ele>700.0</ele>
        <time>2022-07-21T11:22:37Z</time>
      </trkpt>
      <trkpt lat="47.1959510" lon="6.8739100">
        <ele>700.0</ele>
        <time>2022-07-21T11:22:38Z</time>
      </trkpt>
      <trkpt lat="47.1959200" lon="6.8738780">
        <ele>700.0</ele>
        <time>2022-07-21T11:22:39Z</time>
      </trkpt>
      <trkpt lat="47.1959060" lon="6.8738630">
        <ele>700.0</ele>
        <time>2022-07-21T11:22:40Z</time>
      </trkpt>
      <trkpt lat="47.1958760" lon="6.8738310">
        <ele>700.0</ele>
        <time>2022-07-21T11:22:41Z</time>
      </trkpt>
      <trkpt lat="47.1958410" lon="6.8737970">
        <ele>700.0</ele>
        <time>2022-07-21T11:22:42Z</time>
      </trkpt>
      <trkpt lat="47.1958170" lon="6.8737740">
        <ele>700.0</ele>
        <time>2022-07-21T11:22:43Z</time>
      </trkpt>
      <trkpt lat="47.1957720" lon="6.8737280">
        <ele>700.1</ele>
        <time>2022-07-21T11:22:45Z</time>
      </trkpt>
      <trkpt lat="47.1957510" lon="6.8737060">
        <ele>700.2</ele>
        <time>2022-07-21T11:22:46Z</time>
      </trkpt>
      <trkpt lat="47.1957230" lon="6.8736760">
        <ele>700.3</ele>
        <time>2022-07-21T11:22:48Z</time>
      </trkpt>
      <trkpt lat="47.1957010" lon="6.8736500">
        <ele>700.4</ele>
        <time>2022-07-21T11:22:49Z</time>
      </trkpt>
      <trkpt lat="47.1956720" lon="6.8736060">
        <ele>700.5</ele>
        <time>2022-07-21T11:22:50Z</time>
      </trkpt>
      <trkpt lat="47.1956610" lon="6.8735880">
        <ele>700.6</ele>
        <time>2022-07-21T11:22:51Z</time>
      </trkpt>
      <trkpt lat="47.1956410" lon="6.8735640">
        <ele>700.7</ele>
        <time>2022-07-21T11:22:52Z</time>
      </trkpt>
      <trkpt lat="47.1956230" lon="6.8735380">
        <ele>700.8</ele>
        <time>2022-07-21T11:22:54Z</time>
      </trkpt>
      <trkpt lat="47.1955990" lon="6.8734910">
        <ele>701.0</ele>
        <time>2022-07-21T11:22:55Z</time>
      </trkpt>
      <trkpt lat="47.1955890" lon="6.8734690">
        <ele>701.1</ele>
        <time>2022-07-21T11:22:56Z</time>
      </trkpt>
      <trkpt lat="47.1955780" lon="6.8734470">
        <ele>701.2</ele>
        <time>2022-07-21T11:22:57Z</time>
      </trkpt>
      <trkpt lat="47.1955630" lon="6.8734200">
        <ele>701.3</ele>
        <time>2022-07-21T11:22:59Z</time>
      </trkpt>
      <trkpt lat="47.1955320" lon="6.8733490">
        <ele>701.7</ele>
        <time>2022-07-21T11:23:00Z</time>
      </trkpt>
      <trkpt lat="47.1955000" lon="6.8732800">
        <ele>701.9</ele>
        <time>2022-07-21T11:23:02Z</time>
      </trkpt>
      <trkpt lat="47.1954750" lon="6.8732450">
        <ele>702.0</ele>
        <time>2022-07-21T11:23:03Z</time>
      </trkpt>
      <trkpt lat="47.1954670" lon="6.8732360">
        <ele>702.0</ele>
        <time>2022-07-21T11:23:04Z</time>
      </trkpt>
      <trkpt lat="47.1954420" lon="6.8732160">
        <ele>702.1</ele>
        <time>2022-07-21T11:23:05Z</time>
      </trkpt>
      <trkpt lat="47.1954330" lon="6.8732080">
        <ele>702.1</ele>
        <time>2022-07-21T11:23:06Z</time>
      </trkpt>
      <trkpt lat="47.1954070" lon="6.8731780">
        <ele>702.2</ele>
        <time>2022-07-21T11:23:07Z</time>
      </trkpt>
      <trkpt lat="47.1953980" lon="6.8731650">
        <ele>702.2</ele>
        <time>2022-07-21T11:23:08Z</time>
      </trkpt>
      <trkpt lat="47.1953790" lon="6.8731320">
        <ele>702.3</ele>
        <time>2022-07-21T11:23:09Z</time>
      </trkpt>
      <trkpt lat="47.1953560" lon="6.8730900">
        <ele>702.4</ele>
        <time>2022-07-21T11:23:10Z</time>
      </trkpt>
      <trkpt lat="47.1953500" lon="6.8730780">
        <ele>702.4</ele>
        <time>2022-07-21T11:23:11Z</time>
      </trkpt>
      <trkpt lat="47.1953440" lon="6.8730550">
        <ele>702.4</ele>
        <time>2022-07-21T11:23:12Z</time>
      </trkpt>
      <trkpt lat="47.1953390" lon="6.8730370">
        <ele>702.4</ele>
        <time>2022-07-21T11:23:13Z</time>
      </trkpt>
      <trkpt lat="47.1953240" lon="6.8730040">
        <ele>702.5</ele>
        <time>2022-07-21T11:23:14Z</time>
      </trkpt>
      <trkpt lat="47.1953160" lon="6.8729930">
        <ele>702.5</ele>
        <time>2022-07-21T11:23:15Z</time>
      </trkpt>
      <trkpt lat="47.1953040" lon="6.8729690">
        <ele>702.5</ele>
        <time>2022-07-21T11:23:16Z</time>
      </trkpt>
      <trkpt lat="47.1952970" lon="6.8729590">
        <ele>702.5</ele>
        <time>2022-07-21T11:23:17Z</time>
      </trkpt>
      <trkpt lat="47.1952900" lon="6.8729490">
        <ele>702.5</ele>
        <time>2022-07-21T11:23:18Z</time>
      </trkpt>
      <trkpt lat="47.1952800" lon="6.8729360">
        <ele>702.5</ele>
        <time>2022-07-21T11:23:19Z</time>
      </trkpt>
      <trkpt lat="47.1952640" lon="6.8729250">
        <ele>702.5</ele>
        <time>2022-07-21T11:23:20Z</time>
      </trkpt>
      <trkpt lat="47.1952300" lon="6.8728970">
        <ele>702.4</ele>
        <time>2022-07-21T11:23:21Z</time>
      </trkpt>
      <trkpt lat="47.1952180" lon="6.8728860">
        <ele>702.4</ele>
        <time>2022-07-21T11:23:22Z</time>
      </trkpt>
      <trkpt lat="47.1951940" lon="6.8728650">
        <ele>702.3</ele>
        <time>2022-07-21T11:23:23Z</time>
      </trkpt>
      <trkpt lat="47.1951610" lon="6.8728330">
        <ele>702.1</ele>
        <time>2022-07-21T11:23:24Z</time>
      </trkpt>
      <trkpt lat="47.1951310" lon="6.8727920">
        <ele>701.8</ele>
        <time>2022-07-21T11:23:25Z</time>
      </trkpt>
      <trkpt lat="47.1951060" lon="6.8727580">
        <ele>701.6</ele>
        <time>2022-07-21T11:23:26Z</time>
      </trkpt>
      <trkpt lat="47.1950840" lon="6.8727280">
        <ele>701.3</ele>
        <time>2022-07-21T11:23:27Z</time>
      </trkpt>
      <trkpt lat="47.1950610" lon="6.8727020">
        <ele>701.1</ele>
        <time>2022-07-21T11:23:28Z</time>
      </trkpt>
      <trkpt lat="47.1950360" lon="6.8726770">
        <ele>700.8</ele>
        <time>2022-07-21T11:23:29Z</time>
      </trkpt>
      <trkpt lat="47.1950080" lon="6.8726460">
        <ele>700.4</ele>
        <time>2022-07-21T11:23:30Z</time>
      </trkpt>
      <trkpt lat="47.1949970" lon="6.8726320">
        <ele>700.3</ele>
        <time>2022-07-21T11:23:31Z</time>
      </trkpt>
      <trkpt lat="47.1949760" lon="6.8726060">
        <ele>700.0</ele>
        <time>2022-07-21T11:23:32Z</time>
      </trkpt>
      <trkpt lat="47.1949370" lon="6.8725790">
        <ele>699.5</ele>
        <time>2022-07-21T11:23:34Z</time>
      </trkpt>
      <trkpt lat="47.1949060" lon="6.8725650">
        <ele>699.1</ele>
        <time>2022-07-21T11:23:35Z</time>
      </trkpt>
      <trkpt lat="47.1948630" lon="6.8725390">
        <ele>698.5</ele>
        <time>2022-07-21T11:23:36Z</time>
      </trkpt>
      <trkpt lat="47.1948210" lon="6.8725080">
        <ele>698.0</ele>
        <time>2022-07-21T11:23:37Z</time>
      </trkpt>
      <trkpt lat="47.1947790" lon="6.8724790">
        <ele>697.4</ele>
        <time>2022-07-21T11:23:39Z</time>
      </trkpt>
      <trkpt lat="47.1947330" lon="6.8724490">
        <ele>696.9</ele>
        <time>2022-07-21T11:23:40Z</time>
      </trkpt>
      <trkpt lat="47.1946670" lon="6.8724360">
        <ele>696.3</ele>
        <time>2022-07-21T11:23:41Z</time>
      </trkpt>
      <trkpt lat="47.1946400" lon="6.8724320">
        <ele>696.1</ele>
        <time>2022-07-21T11:23:42Z</time>
      </trkpt>
      <trkpt lat="47.1946080" lon="6.8724180">
        <ele>695.8</ele>
        <time>2022-07-21T11:23:44Z</time>
      </trkpt>
      <trkpt lat="47.1945770" lon="6.8723980">
        <ele>695.7</ele>
        <time>2022-07-21T11:23:45Z</time>
      </trkpt>
      <trkpt lat="47.1945670" lon="6.8723920">
        <ele>695.6</ele>
        <time>2022-07-21T11:23:46Z</time>
      </trkpt>
      <trkpt lat="47.1945530" lon="6.8723790">
        <ele>695.6</ele>
        <time>2022-07-21T11:23:47Z</time>
      </trkpt>
      <trkpt lat="47.1945410" lon="6.8723650">
        <ele>695.5</ele>
        <time>2022-07-21T11:23:48Z</time>
      </trkpt>
      <trkpt lat="47.1945280" lon="6.8723440">
        <ele>695.4</ele>
        <time>2022-07-21T11:23:49Z</time>
      </trkpt>
      <trkpt lat="47.1945180" lon="6.8723270">
        <ele>695.4</ele>
        <time>2022-07-21T11:23:50Z</time>
      </trkpt>
      <trkpt lat="47.1945040" lon="6.8723150">
        <ele>695.4</ele>
        <time>2022-07-21T11:23:51Z</time>
      </trkpt>
      <trkpt lat="47.1944900" lon="6.8722980">
        <ele>695.4</ele>
        <time>2022-07-21T11:23:52Z</time>
      </trkpt>
      <trkpt lat="47.1944770" lon="6.8722820">
        <ele>695.4</ele>
        <time>2022-07-21T11:23:53Z</time>
      </trkpt>
      <trkpt lat="47.1944680" lon="6.8722680">
        <ele>695.4</ele>
        <time>2022-07-21T11:23:54Z</time>
      </trkpt>
      <trkpt lat="47.1944430" lon="6.8722510">
        <ele>695.4</ele>
        <time>2022-07-21T11:23:55Z</time>
      </trkpt>
      <trkpt lat="47.1944330" lon="6.8722500">
        <ele>695.4</ele>
        <time>2022-07-21T11:23:56Z</time>
      </trkpt>
      <trkpt lat="47.1944060" lon="6.8722530">
        <ele>695.5</ele>
        <time>2022-07-21T11:23:57Z</time>
      </trkpt>
      <trkpt lat="47.1943960" lon="6.8722510">
        <ele>695.5</ele>
        <time>2022-07-21T11:23:58Z</time>
      </trkpt>
      <trkpt lat="47.1943830" lon="6.8722440">
        <ele>695.6</ele>
        <time>2022-07-21T11:23:59Z</time>
      </trkpt>
      <trkpt lat="47.1943700" lon="6.8722410">
        <ele>695.6</ele>
        <time>2022-07-21T11:24:00Z</time>
      </trkpt>
      <trkpt lat="47.1943550" lon="6.8722400">
        <ele>695.7</ele>
        <time>2022-07-21T11:24:02Z</time>
      </trkpt>
      <trkpt lat="47.1943460" lon="6.8722330">
        <ele>695.7</ele>
        <time>2022-07-21T11:24:03Z</time>
      </trkpt>
      <trkpt lat="47.1943270" lon="6.8722180">
        <ele>695.8</ele>
        <time>2022-07-21T11:24:04Z</time>
      </trkpt>
      <trkpt lat="47.1943200" lon="6.8722150">
        <ele>695.9</ele>
        <time>2022-07-21T11:24:05Z</time>
      </trkpt>
      <trkpt lat="47.1943140" lon="6.8722100">
        <ele>695.9</ele>
        <time>2022-07-21T11:24:06Z</time>
      </trkpt>
      <trkpt lat="47.1943040" lon="6.8721860">
        <ele>696.0</ele>
        <time>2022-07-21T11:24:07Z</time>
      </trkpt>
      <trkpt lat="47.1943030" lon="6.8721590">
        <ele>696.1</ele>
        <time>2022-07-21T11:24:08Z</time>
      </trkpt>
      <trkpt lat="47.1943030" lon="6.8721210">
        <ele>696.3</ele>
        <time>2022-07-21T11:24:10Z</time>
      </trkpt>
      <trkpt lat="47.1942860" lon="6.8720720">
        <ele>696.7</ele>
        <time>2022-07-21T11:24:12Z</time>
      </trkpt>
      <trkpt lat="47.1942750" lon="6.8720610">
        <ele>696.8</ele>
        <time>2022-07-21T11:24:13Z</time>
      </trkpt>
      <trkpt lat="47.1942650" lon="6.8720510">
        <ele>696.9</ele>
        <time>2022-07-21T11:24:14Z</time>
      </trkpt>
      <trkpt lat="47.1942380" lon="6.8720450">
        <ele>697.2</ele>
        <time>2022-07-21T11:24:15Z</time>
      </trkpt>
      <trkpt lat="47.1942290" lon="6.8720450">
        <ele>697.3</ele>
        <time>2022-07-21T11:24:16Z</time>
      </trkpt>
      <trkpt lat="47.1942170" lon="6.8720460">
        <ele>697.4</ele>
        <time>2022-07-21T11:24:18Z</time>
      </trkpt>
      <trkpt lat="47.1942100" lon="6.8720470">
        <ele>697.5</ele>
        <time>2022-07-21T11:24:19Z</time>
      </trkpt>
      <trkpt lat="47.1941970" lon="6.8720440">
        <ele>697.6</ele>
        <time>2022-07-21T11:24:20Z</time>
      </trkpt>
      <trkpt lat="47.1941720" lon="6.8720400">
        <ele>697.9</ele>
        <time>2022-07-21T11:24:21Z</time>
      </trkpt>
      <trkpt lat="47.1941620" lon="6.8720350">
        <ele>698.0</ele>
        <time>2022-07-21T11:24:23Z</time>
      </trkpt>
      <trkpt lat="47.1941470" lon="6.8720310">
        <ele>698.2</ele>
        <time>2022-07-21T11:24:24Z</time>
      </trkpt>
      <trkpt lat="47.1941340" lon="6.8720230">
        <ele>698.3</ele>
        <time>2022-07-21T11:24:25Z</time>
      </trkpt>
      <trkpt lat="47.1941220" lon="6.8720170">
        <ele>698.4</ele>
        <time>2022-07-21T11:24:26Z</time>
      </trkpt>
      <trkpt lat="47.1941050" lon="6.8720130">
        <ele>698.6</ele>
        <time>2022-07-21T11:24:27Z</time>
      </trkpt>
      <trkpt lat="47.1940840" lon="6.8720170">
        <ele>698.8</ele>
        <time>2022-07-21T11:24:29Z</time>
      </trkpt>
      <trkpt lat="47.1940760" lon="6.8720190">
        <ele>698.8</ele>
        <time>2022-07-21T11:24:30Z</time>
      </trkpt>
      <trkpt lat="47.1940680" lon="6.8720210">
        <ele>698.9</ele>
        <time>2022-07-21T11:24:31Z</time>
      </trkpt>
      <trkpt lat="47.1940420" lon="6.8720370">
        <ele>699.1</ele>
        <time>2022-07-21T11:24:32Z</time>
      </trkpt>
      <trkpt lat="47.1940290" lon="6.8720430">
        <ele>699.2</ele>
        <time>2022-07-21T11:24:33Z</time>
      </trkpt>
      <trkpt lat="47.1940170" lon="6.8720480">
        <ele>699.2</ele>
        <time>2022-07-21T11:24:35Z</time>
      </trkpt>
      <trkpt lat="47.1940040" lon="6.8720540">
        <ele>699.3</ele>
        <time>2022-07-21T11:24:36Z</time>
      </trkpt>
      <trkpt lat="47.1939910" lon="6.8720600">
        <ele>699.3</ele>
        <time>2022-07-21T11:24:37Z</time>
      </trkpt>
      <trkpt lat="47.1939610" lon="6.8720690">
        <ele>699.3</ele>
        <time>2022-07-21T11:24:38Z</time>
      </trkpt>
      <trkpt lat="47.1939520" lon="6.8720710">
        <ele>699.3</ele>
        <time>2022-07-21T11:24:39Z</time>
      </trkpt>
      <trkpt lat="47.1939200" lon="6.8720770">
        <ele>699.3</ele>
        <time>2022-07-21T11:24:40Z</time>
      </trkpt>
      <trkpt lat="47.1939080" lon="6.8720800">
        <ele>699.2</ele>
        <time>2022-07-21T11:24:41Z</time>
      </trkpt>
      <trkpt lat="47.1938720" lon="6.8720900">
        <ele>699.1</ele>
        <time>2022-07-21T11:24:42Z</time>
      </trkpt>
      <trkpt lat="47.1938370" lon="6.8720910">
        <ele>698.9</ele>
        <time>2022-07-21T11:24:43Z</time>
      </trkpt>
      <trkpt lat="47.1938000" lon="6.8720820">
        <ele>698.6</ele>
        <time>2022-07-21T11:24:44Z</time>
      </trkpt>
      <trkpt lat="47.1937890" lon="6.8720810">
        <ele>698.5</ele>
        <time>2022-07-21T11:24:45Z</time>
      </trkpt>
      <trkpt lat="47.1937430" lon="6.8720730">
        <ele>698.2</ele>
        <time>2022-07-21T11:24:46Z</time>
      </trkpt>
      <trkpt lat="47.1936810" lon="6.8720680">
        <ele>697.7</ele>
        <time>2022-07-21T11:24:48Z</time>
      </trkpt>
      <trkpt lat="47.1936370" lon="6.8720640">
        <ele>697.4</ele>
        <time>2022-07-21T11:24:49Z</time>
      </trkpt>
      <trkpt lat="47.1935800" lon="6.8720600">
        <ele>697.0</ele>
        <time>2022-07-21T11:24:50Z</time>
      </trkpt>
      <trkpt lat="47.1935400" lon="6.8720620">
        <ele>696.7</ele>
        <time>2022-07-21T11:24:51Z</time>
      </trkpt>
      <trkpt lat="47.1934960" lon="6.8720580">
        <ele>696.4</ele>
        <time>2022-07-21T11:24:52Z</time>
      </trkpt>
      <trkpt lat="47.1934130" lon="6.8720470">
        <ele>695.8</ele>
        <time>2022-07-21T11:24:53Z</time>
      </trkpt>
      <trkpt lat="47.1933480" lon="6.8720350">
        <ele>695.4</ele>
        <time>2022-07-21T11:24:54Z</time>
      </trkpt>
      <trkpt lat="47.1932220" lon="6.8719880">
        <ele>694.8</ele>
        <time>2022-07-21T11:24:56Z</time>
      </trkpt>
      <trkpt lat="47.1931760" lon="6.8719640">
        <ele>694.7</ele>
        <time>2022-07-21T11:24:57Z</time>
      </trkpt>
      <trkpt lat="47.1931420" lon="6.8719390">
        <ele>694.6</ele>
        <time>2022-07-21T11:24:58Z</time>
      </trkpt>
      <trkpt lat="47.1931150" lon="6.8719240">
        <ele>694.5</ele>
        <time>2022-07-21T11:24:59Z</time>
      </trkpt>
      <trkpt lat="47.1930790" lon="6.8719080">
        <ele>694.5</ele>
        <time>2022-07-21T11:25:00Z</time>
      </trkpt>
      <trkpt lat="47.1930480" lon="6.8718890">
        <ele>694.4</ele>
        <time>2022-07-21T11:25:01Z</time>
      </trkpt>
      <trkpt lat="47.1930190" lon="6.8718710">
        <ele>694.4</ele>
        <time>2022-07-21T11:25:02Z</time>
      </trkpt>
      <trkpt lat="47.1929630" lon="6.8718450">
        <ele>694.4</ele>
        <time>2022-07-21T11:25:04Z</time>
      </trkpt>
      <trkpt lat="47.1929270" lon="6.8718310">
        <ele>694.3</ele>
        <time>2022-07-21T11:25:05Z</time>
      </trkpt>
      <trkpt lat="47.1928930" lon="6.8718220">
        <ele>694.3</ele>
        <time>2022-07-21T11:25:06Z</time>
      </trkpt>
      <trkpt lat="47.1928380" lon="6.8718000">
        <ele>694.2</ele>
        <time>2022-07-21T11:25:08Z</time>
      </trkpt>
      <trkpt lat="47.1928080" lon="6.8717990">
        <ele>694.2</ele>
        <time>2022-07-21T11:25:09Z</time>
      </trkpt>
      <trkpt lat="47.1927740" lon="6.8717900">
        <ele>694.2</ele>
        <time>2022-07-21T11:25:10Z</time>
      </trkpt>
      <trkpt lat="47.1927410" lon="6.8717780">
        <ele>694.1</ele>
        <time>2022-07-21T11:25:11Z</time>
      </trkpt>
      <trkpt lat="47.1927010" lon="6.8717570">
        <ele>694.0</ele>
        <time>2022-07-21T11:25:12Z</time>
      </trkpt>
      <trkpt lat="47.1926640" lon="6.8717350">
        <ele>693.9</ele>
        <time>2022-07-21T11:25:14Z</time>
      </trkpt>
      <trkpt lat="47.1926390" lon="6.8717140">
        <ele>693.9</ele>
        <time>2022-07-21T11:25:15Z</time>
      </trkpt>
      <trkpt lat="47.1926150" lon="6.8716910">
        <ele>693.8</ele>
        <time>2022-07-21T11:25:16Z</time>
      </trkpt>
      <trkpt lat="47.1925900" lon="6.8716720">
        <ele>693.7</ele>
        <time>2022-07-21T11:25:17Z</time>
      </trkpt>
      <trkpt lat="47.1925640" lon="6.8716560">
        <ele>693.6</ele>
        <time>2022-07-21T11:25:18Z</time>
      </trkpt>
      <trkpt lat="47.1925370" lon="6.8716470">
        <ele>693.5</ele>
        <time>2022-07-21T11:25:19Z</time>
      </trkpt>
      <trkpt lat="47.1925110" lon="6.8716330">
        <ele>693.4</ele>
        <time>2022-07-21T11:25:20Z</time>
      </trkpt>
      <trkpt lat="47.1924750" lon="6.8716110">
        <ele>693.3</ele>
        <time>2022-07-21T11:25:21Z</time>
      </trkpt>
      <trkpt lat="47.1924630" lon="6.8716050">
        <ele>693.2</ele>
        <time>2022-07-21T11:25:22Z</time>
      </trkpt>
      <trkpt lat="47.1924250" lon="6.8715880">
        <ele>693.0</ele>
        <time>2022-07-21T11:25:23Z</time>
      </trkpt>
      <trkpt lat="47.1923940" lon="6.8715810">
        <ele>692.9</ele>
        <time>2022-07-21T11:25:24Z</time>
      </trkpt>
      <trkpt lat="47.1923600" lon="6.8715880">
        <ele>692.7</ele>
        <time>2022-07-21T11:25:26Z</time>
      </trkpt>
      <trkpt lat="47.1923310" lon="6.8715900">
        <ele>692.6</ele>
        <time>2022-07-21T11:25:27Z</time>
      </trkpt>
      <trkpt lat="47.1922950" lon="6.8715920">
        <ele>692.4</ele>
        <time>2022-07-21T11:25:28Z</time>
      </trkpt>
      <trkpt lat="47.1922830" lon="6.8715930">
        <ele>692.3</ele>
        <time>2022-07-21T11:25:29Z</time>
      </trkpt>
      <trkpt lat="47.1922460" lon="6.8715810">
        <ele>692.1</ele>
        <time>2022-07-21T11:25:30Z</time>
      </trkpt>
      <trkpt lat="47.1921820" lon="6.8715590">
        <ele>691.7</ele>
        <time>2022-07-21T11:25:31Z</time>
      </trkpt>
      <trkpt lat="47.1921230" lon="6.8715410">
        <ele>691.4</ele>
        <time>2022-07-21T11:25:33Z</time>
      </trkpt>
      <trkpt lat="47.1920680" lon="6.8715130">
        <ele>691.1</ele>
        <time>2022-07-21T11:25:34Z</time>
      </trkpt>
      <trkpt lat="47.1920310" lon="6.8714880">
        <ele>690.8</ele>
        <time>2022-07-21T11:25:35Z</time>
      </trkpt>
      <trkpt lat="47.1920040" lon="6.8714680">
        <ele>690.7</ele>
        <time>2022-07-21T11:25:36Z</time>
      </trkpt>
      <trkpt lat="47.1919680" lon="6.8714370">
        <ele>690.4</ele>
        <time>2022-07-21T11:25:37Z</time>
      </trkpt>
      <trkpt lat="47.1919180" lon="6.8714370">
        <ele>690.1</ele>
        <time>2022-07-21T11:25:38Z</time>
      </trkpt>
      <trkpt lat="47.1918970" lon="6.8714320">
        <ele>690.0</ele>
        <time>2022-07-21T11:25:39Z</time>
      </trkpt>
      <trkpt lat="47.1918700" lon="6.8714040">
        <ele>689.8</ele>
        <time>2022-07-21T11:25:41Z</time>
      </trkpt>
      <trkpt lat="47.1918360" lon="6.8713740">
        <ele>689.6</ele>
        <time>2022-07-21T11:25:42Z</time>
      </trkpt>
      <trkpt lat="47.1917980" lon="6.8713440">
        <ele>689.4</ele>
        <time>2022-07-21T11:25:43Z</time>
      </trkpt>
      <trkpt lat="47.1917530" lon="6.8713260">
        <ele>689.1</ele>
        <time>2022-07-21T11:25:44Z</time>
      </trkpt>
      <trkpt lat="47.1916490" lon="6.8713320">
        <ele>688.6</ele>
        <time>2022-07-21T11:25:46Z</time>
      </trkpt>
      <trkpt lat="47.1916120" lon="6.8713530">
        <ele>688.3</ele>
        <time>2022-07-21T11:25:48Z</time>
      </trkpt>
      <trkpt lat="47.1915880" lon="6.8713490">
        <ele>688.2</ele>
        <time>2022-07-21T11:25:49Z</time>
      </trkpt>
      <trkpt lat="47.1915430" lon="6.8713410">
        <ele>688.0</ele>
        <time>2022-07-21T11:25:50Z</time>
      </trkpt>
      <trkpt lat="47.1915040" lon="6.8713340">
        <ele>687.8</ele>
        <time>2022-07-21T11:25:51Z</time>
      </trkpt>
      <trkpt lat="47.1914620" lon="6.8713110">
        <ele>687.5</ele>
        <time>2022-07-21T11:25:52Z</time>
      </trkpt>
      <trkpt lat="47.1914250" lon="6.8712950">
        <ele>687.4</ele>
        <time>2022-07-21T11:25:54Z</time>
      </trkpt>
      <trkpt lat="47.1913930" lon="6.8712970">
        <ele>687.2</ele>
        <time>2022-07-21T11:25:55Z</time>
      </trkpt>
      <trkpt lat="47.1913650" lon="6.8712960">
        <ele>687.1</ele>
        <time>2022-07-21T11:25:56Z</time>
      </trkpt>
      <trkpt lat="47.1913310" lon="6.8712830">
        <ele>686.9</ele>
        <time>2022-07-21T11:25:57Z</time>
      </trkpt>
      <trkpt lat="47.1913010" lon="6.8712700">
        <ele>686.8</ele>
        <time>2022-07-21T11:25:58Z</time>
      </trkpt>
      <trkpt lat="47.1912700" lon="6.8712540">
        <ele>686.7</ele>
        <time>2022-07-21T11:25:59Z</time>
      </trkpt>
      <trkpt lat="47.1912430" lon="6.8712380">
        <ele>686.6</ele>
        <time>2022-07-21T11:26:00Z</time>
      </trkpt>
      <trkpt lat="47.1912120" lon="6.8712290">
        <ele>686.5</ele>
        <time>2022-07-21T11:26:01Z</time>
      </trkpt>
      <trkpt lat="47.1911860" lon="6.8712270">
        <ele>686.5</ele>
        <time>2022-07-21T11:26:02Z</time>
      </trkpt>
      <trkpt lat="47.1911460" lon="6.8712310">
        <ele>686.4</ele>
        <time>2022-07-21T11:26:04Z</time>
      </trkpt>
      <trkpt lat="47.1911160" lon="6.8712280">
        <ele>686.3</ele>
        <time>2022-07-21T11:26:05Z</time>
      </trkpt>
      <trkpt lat="47.1910780" lon="6.8712190">
        <ele>686.2</ele>
        <time>2022-07-21T11:26:06Z</time>
      </trkpt>
      <trkpt lat="47.1910450" lon="6.8712130">
        <ele>686.2</ele>
        <time>2022-07-21T11:26:07Z</time>
      </trkpt>
      <trkpt lat="47.1910050" lon="6.8712080">
        <ele>686.1</ele>
        <time>2022-07-21T11:26:08Z</time>
      </trkpt>
      <trkpt lat="47.1909840" lon="6.8712050">
        <ele>686.1</ele>
        <time>2022-07-21T11:26:09Z</time>
      </trkpt>
      <trkpt lat="47.1909330" lon="6.8712020">
        <ele>686.0</ele>
        <time>2022-07-21T11:26:11Z</time>
      </trkpt>
      <trkpt lat="47.1909010" lon="6.8711960">
        <ele>685.9</ele>
        <time>2022-07-21T11:26:12Z</time>
      </trkpt>
      <trkpt lat="47.1908620" lon="6.8711840">
        <ele>685.8</ele>
        <time>2022-07-21T11:26:13Z</time>
      </trkpt>
      <trkpt lat="47.1908340" lon="6.8711750">
        <ele>685.7</ele>
        <time>2022-07-21T11:26:14Z</time>
      </trkpt>
      <trkpt lat="47.1907850" lon="6.8711710">
        <ele>685.5</ele>
        <time>2022-07-21T11:26:16Z</time>
      </trkpt>
      <trkpt lat="47.1907530" lon="6.8711660">
        <ele>685.4</ele>
        <time>2022-07-21T11:26:17Z</time>
      </trkpt>
      <trkpt lat="47.1907160" lon="6.8711530">
        <ele>685.2</ele>
        <time>2022-07-21T11:26:18Z</time>
      </trkpt>
      <trkpt lat="47.1906770" lon="6.8711390">
        <ele>685.0</ele>
        <time>2022-07-21T11:26:20Z</time>
      </trkpt>
      <trkpt lat="47.1906630" lon="6.8711320">
        <ele>685.0</ele>
        <time>2022-07-21T11:26:21Z</time>
      </trkpt>
      <trkpt lat="47.1906250" lon="6.8711260">
        <ele>684.8</ele>
        <time>2022-07-21T11:26:22Z</time>
      </trkpt>
      <trkpt lat="47.1905680" lon="6.8711100">
        <ele>684.4</ele>
        <time>2022-07-21T11:26:23Z</time>
      </trkpt>
      <trkpt lat="47.1905370" lon="6.8711020">
        <ele>684.2</ele>
        <time>2022-07-21T11:26:24Z</time>
      </trkpt>
      <trkpt lat="47.1905010" lon="6.8710940">
        <ele>684.0</ele>
        <time>2022-07-21T11:26:26Z</time>
      </trkpt>
      <trkpt lat="47.1904560" lon="6.8710920">
        <ele>683.6</ele>
        <time>2022-07-21T11:26:27Z</time>
      </trkpt>
      <trkpt lat="47.1904250" lon="6.8710900">
        <ele>683.4</ele>
        <time>2022-07-21T11:26:28Z</time>
      </trkpt>
      <trkpt lat="47.1903920" lon="6.8710740">
        <ele>683.1</ele>
        <time>2022-07-21T11:26:29Z</time>
      </trkpt>
      <trkpt lat="47.1903650" lon="6.8710600">
        <ele>682.9</ele>
        <time>2022-07-21T11:26:30Z</time>
      </trkpt>
      <trkpt lat="47.1903380" lon="6.8710510">
        <ele>682.7</ele>
        <time>2022-07-21T11:26:31Z</time>
      </trkpt>
      <trkpt lat="47.1902960" lon="6.8710330">
        <ele>682.3</ele>
        <time>2022-07-21T11:26:32Z</time>
      </trkpt>
      <trkpt lat="47.1902300" lon="6.8710200">
        <ele>681.8</ele>
        <time>2022-07-21T11:26:34Z</time>
      </trkpt>
      <trkpt lat="47.1901860" lon="6.8710100">
        <ele>681.5</ele>
        <time>2022-07-21T11:26:35Z</time>
      </trkpt>
      <trkpt lat="47.1901520" lon="6.8710050">
        <ele>681.2</ele>
        <time>2022-07-21T11:26:36Z</time>
      </trkpt>
      <trkpt lat="47.1901160" lon="6.8709920">
        <ele>680.9</ele>
        <time>2022-07-21T11:26:37Z</time>
      </trkpt>
      <trkpt lat="47.1900940" lon="6.8709860">
        <ele>680.7</ele>
        <time>2022-07-21T11:26:38Z</time>
      </trkpt>
      <trkpt lat="47.1900330" lon="6.8709680">
        <ele>680.2</ele>
        <time>2022-07-21T11:26:39Z</time>
      </trkpt>
      <trkpt lat="47.1899850" lon="6.8709720">
        <ele>679.8</ele>
        <time>2022-07-21T11:26:41Z</time>
      </trkpt>
      <trkpt lat="47.1899430" lon="6.8709680">
        <ele>679.5</ele>
        <time>2022-07-21T11:26:42Z</time>
      </trkpt>
      <trkpt lat="47.1898970" lon="6.8709550">
        <ele>679.2</ele>
        <time>2022-07-21T11:26:43Z</time>
      </trkpt>
      <trkpt lat="47.1898520" lon="6.8709430">
        <ele>678.9</ele>
        <time>2022-07-21T11:26:44Z</time>
      </trkpt>
      <trkpt lat="47.1898120" lon="6.8709380">
        <ele>678.6</ele>
        <time>2022-07-21T11:26:45Z</time>
      </trkpt>
      <trkpt lat="47.1897580" lon="6.8709330">
        <ele>678.3</ele>
        <time>2022-07-21T11:26:47Z</time>
      </trkpt>
      <trkpt lat="47.1897030" lon="6.8709290">
        <ele>677.9</ele>
        <time>2022-07-21T11:26:48Z</time>
      </trkpt>
      <trkpt lat="47.1896610" lon="6.8709390">
        <ele>677.6</ele>
        <time>2022-07-21T11:26:49Z</time>
      </trkpt>
      <trkpt lat="47.1896010" lon="6.8709780">
        <ele>677.2</ele>
        <time>2022-07-21T11:26:51Z</time>
      </trkpt>
      <trkpt lat="47.1895680" lon="6.8710240">
        <ele>677.0</ele>
        <time>2022-07-21T11:26:52Z</time>
      </trkpt>
      <trkpt lat="47.1895420" lon="6.8710580">
        <ele>676.8</ele>
        <time>2022-07-21T11:26:53Z</time>
      </trkpt>
      <trkpt lat="47.1895030" lon="6.8710860">
        <ele>676.6</ele>
        <time>2022-07-21T11:26:54Z</time>
      </trkpt>
      <trkpt lat="47.1894650" lon="6.8711000">
        <ele>676.4</ele>
        <time>2022-07-21T11:26:55Z</time>
      </trkpt>
      <trkpt lat="47.1894220" lon="6.8711200">
        <ele>676.2</ele>
        <time>2022-07-21T11:26:57Z</time>
      </trkpt>
      <trkpt lat="47.1893810" lon="6.8711340">
        <ele>676.1</ele>
        <time>2022-07-21T11:26:58Z</time>
      </trkpt>
      <trkpt lat="47.1893180" lon="6.8711480">
        <ele>675.9</ele>
        <time>2022-07-21T11:26:59Z</time>
      </trkpt>
      <trkpt lat="47.1892730" lon="6.8711560">
        <ele>675.8</ele>
        <time>2022-07-21T11:27:00Z</time>
      </trkpt>
      <trkpt lat="47.1892190" lon="6.8711630">
        <ele>675.6</ele>
        <time>2022-07-21T11:27:02Z</time>
      </trkpt>
      <trkpt lat="47.1891850" lon="6.8711710">
        <ele>675.6</ele>
        <time>2022-07-21T11:27:03Z</time>
      </trkpt>
      <trkpt lat="47.1891440" lon="6.8711770">
        <ele>675.5</ele>
        <time>2022-07-21T11:27:04Z</time>
      </trkpt>
      <trkpt lat="47.1891300" lon="6.8711760">
        <ele>675.5</ele>
        <time>2022-07-21T11:27:05Z</time>
      </trkpt>
      <trkpt lat="47.1890900" lon="6.8711830">
        <ele>675.4</ele>
        <time>2022-07-21T11:27:06Z</time>
      </trkpt>
      <trkpt lat="47.1890750" lon="6.8711860">
        <ele>675.4</ele>
        <time>2022-07-21T11:27:07Z</time>
      </trkpt>
      <trkpt lat="47.1890230" lon="6.8711860">
        <ele>675.2</ele>
        <time>2022-07-21T11:27:09Z</time>
      </trkpt>
      <trkpt lat="47.1889780" lon="6.8711820">
        <ele>675.1</ele>
        <time>2022-07-21T11:27:10Z</time>
      </trkpt>
      <trkpt lat="47.1889360" lon="6.8711770">
        <ele>675.0</ele>
        <time>2022-07-21T11:27:11Z</time>
      </trkpt>
      <trkpt lat="47.1889030" lon="6.8711710">
        <ele>674.9</ele>
        <time>2022-07-21T11:27:12Z</time>
      </trkpt>
      <trkpt lat="47.1888600" lon="6.8711700">
        <ele>674.8</ele>
        <time>2022-07-21T11:27:13Z</time>
      </trkpt>
      <trkpt lat="47.1888020" lon="6.8711670">
        <ele>674.6</ele>
        <time>2022-07-21T11:27:14Z</time>
      </trkpt>
      <trkpt lat="47.1887390" lon="6.8711500">
        <ele>674.3</ele>
        <time>2022-07-21T11:27:16Z</time>
      </trkpt>
      <trkpt lat="47.1887010" lon="6.8711170">
        <ele>674.1</ele>
        <time>2022-07-21T11:27:17Z</time>
      </trkpt>
      <trkpt lat="47.1886710" lon="6.8710750">
        <ele>673.9</ele>
        <time>2022-07-21T11:27:18Z</time>
      </trkpt>
      <trkpt lat="47.1886470" lon="6.8710370">
        <ele>673.6</ele>
        <time>2022-07-21T11:27:19Z</time>
      </trkpt>
      <trkpt lat="47.1886240" lon="6.8710140">
        <ele>673.5</ele>
        <time>2022-07-21T11:27:20Z</time>
      </trkpt>
      <trkpt lat="47.1886000" lon="6.8709900">
        <ele>673.3</ele>
        <time>2022-07-21T11:27:21Z</time>
      </trkpt>
      <trkpt lat="47.1885930" lon="6.8709840">
        <ele>673.3</ele>
        <time>2022-07-21T11:27:22Z</time>
      </trkpt>
      <trkpt lat="47.1885660" lon="6.8709630">
        <ele>673.1</ele>
        <time>2022-07-21T11:27:23Z</time>
      </trkpt>
      <trkpt lat="47.1885570" lon="6.8709560">
        <ele>673.0</ele>
        <time>2022-07-21T11:27:24Z</time>
      </trkpt>
      <trkpt lat="47.1885260" lon="6.8709350">
        <ele>672.8</ele>
        <time>2022-07-21T11:27:25Z</time>
      </trkpt>
      <trkpt lat="47.1885140" lon="6.8709290">
        <ele>672.7</ele>
        <time>2022-07-21T11:27:26Z</time>
      </trkpt>
      <trkpt lat="47.1884790" lon="6.8709220">
        <ele>672.5</ele>
        <time>2022-07-21T11:27:28Z</time>
      </trkpt>
      <trkpt lat="47.1884670" lon="6.8709190">
        <ele>672.4</ele>
        <time>2022-07-21T11:27:29Z</time>
      </trkpt>
      <trkpt lat="47.1884610" lon="6.8709170">
        <ele>672.4</ele>
        <time>2022-07-21T11:27:30Z</time>
      </trkpt>
      <trkpt lat="47.1884520" lon="6.8709160">
        <ele>672.3</ele>
        <time>2022-07-21T11:27:31Z</time>
      </trkpt>
      <trkpt lat="47.1884460" lon="6.8709180">
        <ele>672.3</ele>
        <time>2022-07-21T11:27:32Z</time>
      </trkpt>
      <trkpt lat="47.1884420" lon="6.8709190">
        <ele>672.3</ele>
        <time>2022-07-21T11:27:33Z</time>
      </trkpt>
      <trkpt lat="47.1884400" lon="6.8709210">
        <ele>672.2</ele>
        <time>2022-07-21T11:27:34Z</time>
      </trkpt>
      <trkpt lat="47.1884390" lon="6.8709260">
        <ele>672.2</ele>
        <time>2022-07-21T11:27:35Z</time>
      </trkpt>
      <trkpt lat="47.1884390" lon="6.8709310">
        <ele>672.2</ele>
        <time>2022-07-21T11:27:36Z</time>
      </trkpt>
      <trkpt lat="47.1884370" lon="6.8709350">
        <ele>672.2</ele>
        <time>2022-07-21T11:27:37Z</time>
      </trkpt>
      <trkpt lat="47.1884340" lon="6.8709370">
        <ele>672.1</ele>
        <time>2022-07-21T11:27:38Z</time>
      </trkpt>
      <trkpt lat="47.1884290" lon="6.8709390">
        <ele>672.1</ele>
        <time>2022-07-21T11:27:39Z</time>
      </trkpt>
      <trkpt lat="47.1884230" lon="6.8709410">
        <ele>672.1</ele>
        <time>2022-07-21T11:27:40Z</time>
      </trkpt>
      <trkpt lat="47.1884190" lon="6.8709430">
        <ele>672.0</ele>
        <time>2022-07-21T11:27:41Z</time>
      </trkpt>
      <trkpt lat="47.1884150" lon="6.8709460">
        <ele>672.0</ele>
        <time>2022-07-21T11:27:42Z</time>
      </trkpt>
      <trkpt lat="47.1884090" lon="6.8709510">
        <ele>671.9</ele>
        <time>2022-07-21T11:27:44Z</time>
      </trkpt>
      <trkpt lat="47.1883550" lon="6.8709550">
        <ele>671.5</ele>
        <time>2022-07-21T11:27:57Z</time>
      </trkpt>
      <trkpt lat="47.1883440" lon="6.8709450">
        <ele>671.4</ele>
        <time>2022-07-21T11:27:58Z</time>
      </trkpt>
      <trkpt lat="47.1883260" lon="6.8709300">
        <ele>671.2</ele>
        <time>2022-07-21T11:27:59Z</time>
      </trkpt>
      <trkpt lat="47.1883060" lon="6.8709200">
        <ele>670.9</ele>
        <time>2022-07-21T11:28:00Z</time>
      </trkpt>
      <trkpt lat="47.1882920" lon="6.8709150">
        <ele>670.8</ele>
        <time>2022-07-21T11:28:01Z</time>
      </trkpt>
      <trkpt lat="47.1882780" lon="6.8709100">
        <ele>670.6</ele>
        <time>2022-07-21T11:28:02Z</time>
      </trkpt>
      <trkpt lat="47.1882630" lon="6.8709080">
        <ele>670.5</ele>
        <time>2022-07-21T11:28:03Z</time>
      </trkpt>
      <trkpt lat="47.1882470" lon="6.8709100">
        <ele>670.3</ele>
        <time>2022-07-21T11:28:04Z</time>
      </trkpt>
      <trkpt lat="47.1882220" lon="6.8709160">
        <ele>670.1</ele>
        <time>2022-07-21T11:28:06Z</time>
      </trkpt>
      <trkpt lat="47.1882100" lon="6.8709190">
        <ele>669.9</ele>
        <time>2022-07-21T11:28:07Z</time>
      </trkpt>
      <trkpt lat="47.1881990" lon="6.8709230">
        <ele>669.8</ele>
        <time>2022-07-21T11:28:08Z</time>
      </trkpt>
      <trkpt lat="47.1881940" lon="6.8709230">
        <ele>669.8</ele>
        <time>2022-07-21T11:28:09Z</time>
      </trkpt>
      <trkpt lat="47.1881910" lon="6.8709230">
        <ele>669.7</ele>
        <time>2022-07-21T11:28:11Z</time>
      </trkpt>
      <trkpt lat="47.1881770" lon="6.8709250">
        <ele>669.6</ele>
        <time>2022-07-21T11:28:12Z</time>
      </trkpt>
      <trkpt lat="47.1881640" lon="6.8709270">
        <ele>669.5</ele>
        <time>2022-07-21T11:28:13Z</time>
      </trkpt>
      <trkpt lat="47.1881570" lon="6.8709290">
        <ele>669.4</ele>
        <time>2022-07-21T11:28:14Z</time>
      </trkpt>
      <trkpt lat="47.1881520" lon="6.8709290">
        <ele>669.4</ele>
        <time>2022-07-21T11:28:15Z</time>
      </trkpt>
      <trkpt lat="47.1881510" lon="6.8709270">
        <ele>669.4</ele>
        <time>2022-07-21T11:28:16Z</time>
      </trkpt>
      <trkpt lat="47.1881500" lon="6.8709270">
        <ele>669.3</ele>
        <time>2022-07-21T11:28:17Z</time>
      </trkpt>
      <trkpt lat="47.1881460" lon="6.8709260">
        <ele>669.3</ele>
        <time>2022-07-21T11:28:18Z</time>
      </trkpt>
      <trkpt lat="47.1881300" lon="6.8709300">
        <ele>669.2</ele>
        <time>2022-07-21T11:28:19Z</time>
      </trkpt>
      <trkpt lat="47.1881010" lon="6.8709260">
        <ele>668.9</ele>
        <time>2022-07-21T11:28:21Z</time>
      </trkpt>
      <trkpt lat="47.1880540" lon="6.8709410">
        <ele>668.6</ele>
        <time>2022-07-21T11:28:23Z</time>
      </trkpt>
      <trkpt lat="47.1880230" lon="6.8709620">
        <ele>668.4</ele>
        <time>2022-07-21T11:28:24Z</time>
      </trkpt>
      <trkpt lat="47.1880110" lon="6.8709710">
        <ele>668.4</ele>
        <time>2022-07-21T11:28:25Z</time>
      </trkpt>
      <trkpt lat="47.1879850" lon="6.8709920">
        <ele>668.2</ele>
        <time>2022-07-21T11:28:26Z</time>
      </trkpt>
      <trkpt lat="47.1879600" lon="6.8710180">
        <ele>668.0</ele>
        <time>2022-07-21T11:28:28Z</time>
      </trkpt>
      <trkpt lat="47.1879300" lon="6.8710530">
        <ele>667.8</ele>
        <time>2022-07-21T11:28:29Z</time>
      </trkpt>
      <trkpt lat="47.1879000" lon="6.8710840">
        <ele>667.7</ele>
        <time>2022-07-21T11:28:30Z</time>
      </trkpt>
      <trkpt lat="47.1878650" lon="6.8711210">
        <ele>667.4</ele>
        <time>2022-07-21T11:28:31Z</time>
      </trkpt>
      <trkpt lat="47.1878200" lon="6.8711520">
        <ele>667.2</ele>
        <time>2022-07-21T11:28:33Z</time>
      </trkpt>
      <trkpt lat="47.1878020" lon="6.8711580">
        <ele>667.1</ele>
        <time>2022-07-21T11:28:34Z</time>
      </trkpt>
      <trkpt lat="47.1877830" lon="6.8711640">
        <ele>667.0</ele>
        <time>2022-07-21T11:28:35Z</time>
      </trkpt>
      <trkpt lat="47.1877690" lon="6.8711700">
        <ele>666.9</ele>
        <time>2022-07-21T11:28:37Z</time>
      </trkpt>
      <trkpt lat="47.1877540" lon="6.8711810">
        <ele>666.9</ele>
        <time>2022-07-21T11:28:38Z</time>
      </trkpt>
      <trkpt lat="47.1877280" lon="6.8711980">
        <ele>666.7</ele>
        <time>2022-07-21T11:28:39Z</time>
      </trkpt>
      <trkpt lat="47.1877120" lon="6.8712070">
        <ele>666.6</ele>
        <time>2022-07-21T11:28:40Z</time>
      </trkpt>
      <trkpt lat="47.1876960" lon="6.8712160">
        <ele>666.5</ele>
        <time>2022-07-21T11:28:41Z</time>
      </trkpt>
      <trkpt lat="47.1876690" lon="6.8712260">
        <ele>666.4</ele>
        <time>2022-07-21T11:28:42Z</time>
      </trkpt>
      <trkpt lat="47.1876400" lon="6.8712420">
        <ele>666.2</ele>
        <time>2022-07-21T11:28:44Z</time>
      </trkpt>
      <trkpt lat="47.1876310" lon="6.8712460">
        <ele>666.2</ele>
        <time>2022-07-21T11:28:45Z</time>
      </trkpt>
      <trkpt lat="47.1876110" lon="6.8712410">
        <ele>666.1</ele>
        <time>2022-07-21T11:28:46Z</time>
      </trkpt>
      <trkpt lat="47.1875680" lon="6.8712320">
        <ele>665.8</ele>
        <time>2022-07-21T11:28:48Z</time>
      </trkpt>
      <trkpt lat="47.1875540" lon="6.8712350">
        <ele>665.7</ele>
        <time>2022-07-21T11:28:49Z</time>
      </trkpt>
      <trkpt lat="47.1875410" lon="6.8712370">
        <ele>665.6</ele>
        <time>2022-07-21T11:28:50Z</time>
      </trkpt>
      <trkpt lat="47.1875090" lon="6.8712380">
        <ele>665.4</ele>
        <time>2022-07-21T11:28:51Z</time>
      </trkpt>
      <trkpt lat="47.1874730" lon="6.8712430">
        <ele>665.1</ele>
        <time>2022-07-21T11:28:52Z</time>
      </trkpt>
      <trkpt lat="47.1874260" lon="6.8712430">
        <ele>664.8</ele>
        <time>2022-07-21T11:28:53Z</time>
      </trkpt>
      <trkpt lat="47.1873870" lon="6.8712410">
        <ele>664.5</ele>
        <time>2022-07-21T11:28:55Z</time>
      </trkpt>
      <trkpt lat="47.1873460" lon="6.8712360">
        <ele>664.3</ele>
        <time>2022-07-21T11:28:56Z</time>
      </trkpt>
      <trkpt lat="47.1873000" lon="6.8712240">
        <ele>664.0</ele>
        <time>2022-07-21T11:28:57Z</time>
      </trkpt>
      <trkpt lat="47.1872800" lon="6.8712190">
        <ele>663.8</ele>
        <time>2022-07-21T11:28:58Z</time>
      </trkpt>
      <trkpt lat="47.1872450" lon="6.8712090">
        <ele>663.6</ele>
        <time>2022-07-21T11:28:59Z</time>
      </trkpt>
      <trkpt lat="47.1872020" lon="6.8711980">
        <ele>663.4</ele>
        <time>2022-07-21T11:29:01Z</time>
      </trkpt>
      <trkpt lat="47.1871600" lon="6.8711830">
        <ele>663.2</ele>
        <time>2022-07-21T11:29:02Z</time>
      </trkpt>
      <trkpt lat="47.1871240" lon="6.8711620">
        <ele>663.1</ele>
        <time>2022-07-21T11:29:03Z</time>
      </trkpt>
      <trkpt lat="47.1871130" lon="6.8711560">
        <ele>663.0</ele>
        <time>2022-07-21T11:29:04Z</time>
      </trkpt>
      <trkpt lat="47.1870750" lon="6.8711420">
        <ele>662.8</ele>
        <time>2022-07-21T11:29:06Z</time>
      </trkpt>
      <trkpt lat="47.1870660" lon="6.8711370">
        <ele>662.8</ele>
        <time>2022-07-21T11:29:07Z</time>
      </trkpt>
      <trkpt lat="47.1870580" lon="6.8711330">
        <ele>662.8</ele>
        <time>2022-07-21T11:29:08Z</time>
      </trkpt>
      <trkpt lat="47.1870490" lon="6.8711290">
        <ele>662.7</ele>
        <time>2022-07-21T11:29:09Z</time>
      </trkpt>
      <trkpt lat="47.1870400" lon="6.8711250">
        <ele>662.7</ele>
        <time>2022-07-21T11:29:10Z</time>
      </trkpt>
      <trkpt lat="47.1870260" lon="6.8711110">
        <ele>662.1</ele>
        <time>2022-07-21T11:29:11Z</time>
      </trkpt>
      <trkpt lat="47.1870140" lon="6.8710990">
        <ele>662.3</ele>
        <time>2022-07-21T11:29:12Z</time>
      </trkpt>
      <trkpt lat="47.1870070" lon="6.8710910">
        <ele>662.4</ele>
        <time>2022-07-21T11:29:13Z</time>
      </trkpt>
      <trkpt lat="47.1870040" lon="6.8710770">
        <ele>662.6</ele>
        <time>2022-07-21T11:29:14Z</time>
      </trkpt>
      <trkpt lat="47.1870060" lon="6.8710620">
        <ele>662.7</ele>
        <time>2022-07-21T11:29:15Z</time>
      </trkpt>
      <trkpt lat="47.1870090" lon="6.8710590">
        <ele>662.7</ele>
        <time>2022-07-21T11:29:16Z</time>
      </trkpt>
      <trkpt lat="47.1870080" lon="6.8710610">
        <ele>662.8</ele>
        <time>2022-07-21T11:29:17Z</time>
      </trkpt>
      <trkpt lat="47.1870070" lon="6.8710660">
        <ele>662.8</ele>
        <time>2022-07-21T11:29:18Z</time>
      </trkpt>
      <trkpt lat="47.1870030" lon="6.8710710">
        <ele>662.9</ele>
        <time>2022-07-21T11:29:19Z</time>
      </trkpt>
      <trkpt lat="47.1870000" lon="6.8710770">
        <ele>662.9</ele>
        <time>2022-07-21T11:29:20Z</time>
      </trkpt>
      <trkpt lat="47.1869980" lon="6.8710850">
        <ele>663.0</ele>
        <time>2022-07-21T11:29:21Z</time>
      </trkpt>
      <trkpt lat="47.1869970" lon="6.8710940">
        <ele>663.1</ele>
        <time>2022-07-21T11:29:22Z</time>
      </trkpt>
      <trkpt lat="47.1869910" lon="6.8710870">
        <ele>663.2</ele>
        <time>2022-07-21T11:29:23Z</time>
      </trkpt>
      <trkpt lat="47.1869840" lon="6.8710790">
        <ele>663.3</ele>
        <time>2022-07-21T11:29:24Z</time>
      </trkpt>
      <trkpt lat="47.1869720" lon="6.8710540">
        <ele>663.6</ele>
        <time>2022-07-21T11:29:25Z</time>
      </trkpt>
      <trkpt lat="47.1869670" lon="6.8710420">
        <ele>663.7</ele>
        <time>2022-07-21T11:29:26Z</time>
      </trkpt>
      <trkpt lat="47.1869630" lon="6.8710300">
        <ele>663.8</ele>
        <time>2022-07-21T11:29:27Z</time>
      </trkpt>
      <trkpt lat="47.1869630" lon="6.8710200">
        <ele>663.9</ele>
        <time>2022-07-21T11:29:28Z</time>
      </trkpt>
      <trkpt lat="47.1869630" lon="6.8710120">
        <ele>664.0</ele>
        <time>2022-07-21T11:29:29Z</time>
      </trkpt>
      <trkpt lat="47.1869650" lon="6.8710060">
        <ele>664.0</ele>
        <time>2022-07-21T11:29:30Z</time>
      </trkpt>
      <trkpt lat="47.1869670" lon="6.8710010">
        <ele>664.1</ele>
        <time>2022-07-21T11:29:31Z</time>
      </trkpt>
      <trkpt lat="47.1869670" lon="6.8709930">
        <ele>664.2</ele>
        <time>2022-07-21T11:29:32Z</time>
      </trkpt>
      <trkpt lat="47.1869660" lon="6.8709820">
        <ele>664.3</ele>
        <time>2022-07-21T11:29:33Z</time>
      </trkpt>
      <trkpt lat="47.1869580" lon="6.8709600">
        <ele>664.5</ele>
        <time>2022-07-21T11:29:34Z</time>
      </trkpt>
      <trkpt lat="47.1869530" lon="6.8709480">
        <ele>664.6</ele>
        <time>2022-07-21T11:29:35Z</time>
      </trkpt>
      <trkpt lat="47.1869480" lon="6.8709360">
        <ele>664.8</ele>
        <time>2022-07-21T11:29:36Z</time>
      </trkpt>
      <trkpt lat="47.1869370" lon="6.8709170">
        <ele>665.0</ele>
        <time>2022-07-21T11:29:37Z</time>
      </trkpt>
      <trkpt lat="47.1869330" lon="6.8709090">
        <ele>665.1</ele>
        <time>2022-07-21T11:29:38Z</time>
      </trkpt>
      <trkpt lat="47.1869300" lon="6.8709010">
        <ele>665.2</ele>
        <time>2022-07-21T11:29:39Z</time>
      </trkpt>
      <trkpt lat="47.1869260" lon="6.8708930">
        <ele>665.3</ele>
        <time>2022-07-21T11:29:40Z</time>
      </trkpt>
      <trkpt lat="47.1869130" lon="6.8708700">
        <ele>665.5</ele>
        <time>2022-07-21T11:29:41Z</time>
      </trkpt>
      <trkpt lat="47.1869080" lon="6.8708610">
        <ele>665.6</ele>
        <time>2022-07-21T11:29:42Z</time>
      </trkpt>
      <trkpt lat="47.1869030" lon="6.8708520">
        <ele>665.7</ele>
        <time>2022-07-21T11:29:43Z</time>
      </trkpt>
      <trkpt lat="47.1868920" lon="6.8708400">
        <ele>665.9</ele>
        <time>2022-07-21T11:29:44Z</time>
      </trkpt>
      <trkpt lat="47.1868830" lon="6.8708230">
        <ele>666.1</ele>
        <time>2022-07-21T11:29:45Z</time>
      </trkpt>
      <trkpt lat="47.1868730" lon="6.8708070">
        <ele>666.3</ele>
        <time>2022-07-21T11:29:46Z</time>
      </trkpt>
      <trkpt lat="47.1868650" lon="6.8707920">
        <ele>666.5</ele>
        <time>2022-07-21T11:29:47Z</time>
      </trkpt>
      <trkpt lat="47.1868500" lon="6.8707700">
        <ele>666.8</ele>
        <time>2022-07-21T11:29:48Z</time>
      </trkpt>
      <trkpt lat="47.1868450" lon="6.8707610">
        <ele>666.9</ele>
        <time>2022-07-21T11:29:49Z</time>
      </trkpt>
      <trkpt lat="47.1868400" lon="6.8707510">
        <ele>667.0</ele>
        <time>2022-07-21T11:29:50Z</time>
      </trkpt>
      <trkpt lat="47.1868290" lon="6.8707240">
        <ele>667.3</ele>
        <time>2022-07-21T11:29:51Z</time>
      </trkpt>
      <trkpt lat="47.1868240" lon="6.8707130">
        <ele>667.4</ele>
        <time>2022-07-21T11:29:52Z</time>
      </trkpt>
      <trkpt lat="47.1868190" lon="6.8707010">
        <ele>667.5</ele>
        <time>2022-07-21T11:29:53Z</time>
      </trkpt>
      <trkpt lat="47.1868110" lon="6.8706850">
        <ele>667.7</ele>
        <time>2022-07-21T11:29:54Z</time>
      </trkpt>
      <trkpt lat="47.1868040" lon="6.8706730">
        <ele>667.8</ele>
        <time>2022-07-21T11:29:55Z</time>
      </trkpt>
      <trkpt lat="47.1868000" lon="6.8706620">
        <ele>668.0</ele>
        <time>2022-07-21T11:29:56Z</time>
      </trkpt>
      <trkpt lat="47.1867970" lon="6.8706440">
        <ele>668.1</ele>
        <time>2022-07-21T11:29:57Z</time>
      </trkpt>
      <trkpt lat="47.1867950" lon="6.8706320">
        <ele>668.2</ele>
        <time>2022-07-21T11:29:58Z</time>
      </trkpt>
      <trkpt lat="47.1867920" lon="6.8706190">
        <ele>668.4</ele>
        <time>2022-07-21T11:29:59Z</time>
      </trkpt>
      <trkpt lat="47.1867850" lon="6.8705920">
        <ele>668.6</ele>
        <time>2022-07-21T11:30:00Z</time>
      </trkpt>
      <trkpt lat="47.1867810" lon="6.8705800">
        <ele>668.7</ele>
        <time>2022-07-21T11:30:01Z</time>
      </trkpt>
      <trkpt lat="47.1867770" lon="6.8705690">
        <ele>668.9</ele>
        <time>2022-07-21T11:30:02Z</time>
      </trkpt>
      <trkpt lat="47.1867690" lon="6.8705490">
        <ele>669.1</ele>
        <time>2022-07-21T11:30:03Z</time>
      </trkpt>
      <trkpt lat="47.1867650" lon="6.8705290">
        <ele>669.3</ele>
        <time>2022-07-21T11:30:04Z</time>
      </trkpt>
      <trkpt lat="47.1867660" lon="6.8705180">
        <ele>669.4</ele>
        <time>2022-07-21T11:30:05Z</time>
      </trkpt>
      <trkpt lat="47.1867650" lon="6.8705080">
        <ele>669.4</ele>
        <time>2022-07-21T11:30:06Z</time>
      </trkpt>
      <trkpt lat="47.1867650" lon="6.8704950">
        <ele>669.6</ele>
        <time>2022-07-21T11:30:07Z</time>
      </trkpt>
      <trkpt lat="47.1867620" lon="6.8704800">
        <ele>669.7</ele>
        <time>2022-07-21T11:30:08Z</time>
      </trkpt>
      <trkpt lat="47.1867580" lon="6.8704660">
        <ele>669.8</ele>
        <time>2022-07-21T11:30:09Z</time>
      </trkpt>
      <trkpt lat="47.1867550" lon="6.8704570">
        <ele>669.9</ele>
        <time>2022-07-21T11:30:10Z</time>
      </trkpt>
      <trkpt lat="47.1867500" lon="6.8704440">
        <ele>670.1</ele>
        <time>2022-07-21T11:30:11Z</time>
      </trkpt>
      <trkpt lat="47.1867420" lon="6.8704150">
        <ele>670.4</ele>
        <time>2022-07-21T11:30:12Z</time>
      </trkpt>
      <trkpt lat="47.1867400" lon="6.8704030">
        <ele>670.5</ele>
        <time>2022-07-21T11:30:13Z</time>
      </trkpt>
      <trkpt lat="47.1867370" lon="6.8703900">
        <ele>670.6</ele>
        <time>2022-07-21T11:30:14Z</time>
      </trkpt>
      <trkpt lat="47.1867360" lon="6.8703740">
        <ele>670.7</ele>
        <time>2022-07-21T11:30:15Z</time>
      </trkpt>
      <trkpt lat="47.1867370" lon="6.8703540">
        <ele>670.9</ele>
        <time>2022-07-21T11:30:16Z</time>
      </trkpt>
      <trkpt lat="47.1867370" lon="6.8703470">
        <ele>671.0</ele>
        <time>2022-07-21T11:30:17Z</time>
      </trkpt>
      <trkpt lat="47.1867360" lon="6.8703440">
        <ele>671.0</ele>
        <time>2022-07-21T11:30:18Z</time>
      </trkpt>
      <trkpt lat="47.1867360" lon="6.8703380">
        <ele>671.1</ele>
        <time>2022-07-21T11:30:19Z</time>
      </trkpt>
      <trkpt lat="47.1867360" lon="6.8703350">
        <ele>671.1</ele>
        <time>2022-07-21T11:30:20Z</time>
      </trkpt>
      <trkpt lat="47.1867360" lon="6.8703330">
        <ele>671.1</ele>
        <time>2022-07-21T11:30:21Z</time>
      </trkpt>
      <trkpt lat="47.1867360" lon="6.8703310">
        <ele>671.1</ele>
        <time>2022-07-21T11:30:22Z</time>
      </trkpt>
      <trkpt lat="47.1867370" lon="6.8703280">
        <ele>671.2</ele>
        <time>2022-07-21T11:30:23Z</time>
      </trkpt>
      <trkpt lat="47.1867370" lon="6.8703250">
        <ele>671.2</ele>
        <time>2022-07-21T11:30:24Z</time>
      </trkpt>
      <trkpt lat="47.1867370" lon="6.8703220">
        <ele>671.2</ele>
        <time>2022-07-21T11:30:25Z</time>
      </trkpt>
      <trkpt lat="47.1867370" lon="6.8703210">
        <ele>671.2</ele>
        <time>2022-07-21T11:30:26Z</time>
      </trkpt>
      <trkpt lat="47.1867360" lon="6.8703200">
        <ele>671.2</ele>
        <time>2022-07-21T11:30:27Z</time>
      </trkpt>
      <trkpt lat="47.1867360" lon="6.8703220">
        <ele>671.3</ele>
        <time>2022-07-21T11:30:28Z</time>
      </trkpt>
      <trkpt lat="47.1867340" lon="6.8703220">
        <ele>671.3</ele>
        <time>2022-07-21T11:30:29Z</time>
      </trkpt>
      <trkpt lat="47.1867330" lon="6.8703220">
        <ele>671.3</ele>
        <time>2022-07-21T11:30:30Z</time>
      </trkpt>
      <trkpt lat="47.1867310" lon="6.8702930">
        <ele>671.6</ele>
        <time>2022-07-21T11:31:01Z</time>
      </trkpt>
      <trkpt lat="47.1867280" lon="6.8702730">
        <ele>671.7</ele>
        <time>2022-07-21T11:31:02Z</time>
      </trkpt>
      <trkpt lat="47.1867240" lon="6.8702520">
        <ele>671.9</ele>
        <time>2022-07-21T11:31:03Z</time>
      </trkpt>
      <trkpt lat="47.1867160" lon="6.8702280">
        <ele>672.2</ele>
        <time>2022-07-21T11:31:04Z</time>
      </trkpt>
      <trkpt lat="47.1867120" lon="6.8702200">
        <ele>672.3</ele>
        <time>2022-07-21T11:31:05Z</time>
      </trkpt>
      <trkpt lat="47.1867090" lon="6.8702060">
        <ele>672.4</ele>
        <time>2022-07-21T11:31:06Z</time>
      </trkpt>
      <trkpt lat="47.1866970" lon="6.8701670">
        <ele>672.8</ele>
        <time>2022-07-21T11:31:08Z</time>
      </trkpt>
      <trkpt lat="47.1866930" lon="6.8701540">
        <ele>672.9</ele>
        <time>2022-07-21T11:31:09Z</time>
      </trkpt>
      <trkpt lat="47.1866850" lon="6.8701300">
        <ele>673.2</ele>
        <time>2022-07-21T11:31:10Z</time>
      </trkpt>
      <trkpt lat="47.1866770" lon="6.8700870">
        <ele>673.6</ele>
        <time>2022-07-21T11:31:12Z</time>
      </trkpt>
      <trkpt lat="47.1866650" lon="6.8700410">
        <ele>674.0</ele>
        <time>2022-07-21T11:31:13Z</time>
      </trkpt>
      <trkpt lat="47.1866590" lon="6.8700260">
        <ele>674.2</ele>
        <time>2022-07-21T11:31:14Z</time>
      </trkpt>
      <trkpt lat="47.1866450" lon="6.8699990">
        <ele>674.5</ele>
        <time>2022-07-21T11:31:15Z</time>
      </trkpt>
      <trkpt lat="47.1866340" lon="6.8699770">
        <ele>674.8</ele>
        <time>2022-07-21T11:31:17Z</time>
      </trkpt>
      <trkpt lat="47.1866290" lon="6.8699470">
        <ele>675.1</ele>
        <time>2022-07-21T11:31:18Z</time>
      </trkpt>
      <trkpt lat="47.1866220" lon="6.8699160">
        <ele>675.4</ele>
        <time>2022-07-21T11:31:20Z</time>
      </trkpt>
      <trkpt lat="47.1866170" lon="6.8698910">
        <ele>675.6</ele>
        <time>2022-07-21T11:31:21Z</time>
      </trkpt>
      <trkpt lat="47.1866150" lon="6.8698780">
        <ele>675.7</ele>
        <time>2022-07-21T11:31:22Z</time>
      </trkpt>
      <trkpt lat="47.1866130" lon="6.8698520">
        <ele>676.0</ele>
        <time>2022-07-21T11:31:24Z</time>
      </trkpt>
      <trkpt lat="47.1866100" lon="6.8698280">
        <ele>676.2</ele>
        <time>2022-07-21T11:31:25Z</time>
      </trkpt>
      <trkpt lat="47.1866090" lon="6.8698060">
        <ele>676.4</ele>
        <time>2022-07-21T11:31:26Z</time>
      </trkpt>
      <trkpt lat="47.1866070" lon="6.8697880">
        <ele>676.6</ele>
        <time>2022-07-21T11:31:27Z</time>
      </trkpt>
      <trkpt lat="47.1866020" lon="6.8697640">
        <ele>676.9</ele>
        <time>2022-07-21T11:31:28Z</time>
      </trkpt>
      <trkpt lat="47.1866010" lon="6.8697490">
        <ele>677.0</ele>
        <time>2022-07-21T11:31:29Z</time>
      </trkpt>
      <trkpt lat="47.1866020" lon="6.8697330">
        <ele>677.1</ele>
        <time>2022-07-21T11:31:30Z</time>
      </trkpt>
      <trkpt lat="47.1866050" lon="6.8697150">
        <ele>677.3</ele>
        <time>2022-07-21T11:31:31Z</time>
      </trkpt>
      <trkpt lat="47.1866130" lon="6.8696840">
        <ele>677.6</ele>
        <time>2022-07-21T11:31:32Z</time>
      </trkpt>
      <trkpt lat="47.1866190" lon="6.8696720">
        <ele>677.8</ele>
        <time>2022-07-21T11:31:34Z</time>
      </trkpt>
      <trkpt lat="47.1866240" lon="6.8696610">
        <ele>677.9</ele>
        <time>2022-07-21T11:31:35Z</time>
      </trkpt>
      <trkpt lat="47.1866330" lon="6.8696340">
        <ele>678.1</ele>
        <time>2022-07-21T11:31:36Z</time>
      </trkpt>
      <trkpt lat="47.1866360" lon="6.8696140">
        <ele>678.3</ele>
        <time>2022-07-21T11:31:37Z</time>
      </trkpt>
      <trkpt lat="47.1866410" lon="6.8695950">
        <ele>678.5</ele>
        <time>2022-07-21T11:31:38Z</time>
      </trkpt>
      <trkpt lat="47.1866480" lon="6.8695710">
        <ele>678.7</ele>
        <time>2022-07-21T11:31:39Z</time>
      </trkpt>
      <trkpt lat="47.1866520" lon="6.8695520">
        <ele>678.9</ele>
        <time>2022-07-21T11:31:40Z</time>
      </trkpt>
      <trkpt lat="47.1866670" lon="6.8695340">
        <ele>679.1</ele>
        <time>2022-07-21T11:31:42Z</time>
      </trkpt>
      <trkpt lat="47.1866780" lon="6.8695220">
        <ele>679.3</ele>
        <time>2022-07-21T11:31:43Z</time>
      </trkpt>
      <trkpt lat="47.1866930" lon="6.8695100">
        <ele>679.5</ele>
        <time>2022-07-21T11:31:44Z</time>
      </trkpt>
      <trkpt lat="47.1867090" lon="6.8694900">
        <ele>679.7</ele>
        <time>2022-07-21T11:31:46Z</time>
      </trkpt>
      <trkpt lat="47.1867160" lon="6.8694820">
        <ele>679.8</ele>
        <time>2022-07-21T11:31:47Z</time>
      </trkpt>
      <trkpt lat="47.1867220" lon="6.8694740">
        <ele>679.9</ele>
        <time>2022-07-21T11:31:48Z</time>
      </trkpt>
      <trkpt lat="47.1867330" lon="6.8694680">
        <ele>680.0</ele>
        <time>2022-07-21T11:31:49Z</time>
      </trkpt>
      <trkpt lat="47.1867400" lon="6.8694600">
        <ele>680.1</ele>
        <time>2022-07-21T11:31:50Z</time>
      </trkpt>
      <trkpt lat="47.1867500" lon="6.8694560">
        <ele>680.2</ele>
        <time>2022-07-21T11:31:51Z</time>
      </trkpt>
      <trkpt lat="47.1867580" lon="6.8694480">
        <ele>680.3</ele>
        <time>2022-07-21T11:31:52Z</time>
      </trkpt>
      <trkpt lat="47.1867750" lon="6.8694270">
        <ele>680.5</ele>
        <time>2022-07-21T11:31:54Z</time>
      </trkpt>
      <trkpt lat="47.1867810" lon="6.8694190">
        <ele>680.6</ele>
        <time>2022-07-21T11:31:56Z</time>
      </trkpt>
      <trkpt lat="47.1867870" lon="6.8694100">
        <ele>680.7</ele>
        <time>2022-07-21T11:31:57Z</time>
      </trkpt>
      <trkpt lat="47.1867940" lon="6.8693960">
        <ele>680.8</ele>
        <time>2022-07-21T11:31:58Z</time>
      </trkpt>
      <trkpt lat="47.1867990" lon="6.8693850">
        <ele>680.8</ele>
        <time>2022-07-21T11:31:59Z</time>
      </trkpt>
      <trkpt lat="47.1868010" lon="6.8693780">
        <ele>680.9</ele>
        <time>2022-07-21T11:32:00Z</time>
      </trkpt>
      <trkpt lat="47.1868080" lon="6.8693560">
        <ele>681.0</ele>
        <time>2022-07-21T11:32:01Z</time>
      </trkpt>
      <trkpt lat="47.1868140" lon="6.8693370">
        <ele>681.1</ele>
        <time>2022-07-21T11:32:02Z</time>
      </trkpt>
      <trkpt lat="47.1868200" lon="6.8693160">
        <ele>681.3</ele>
        <time>2022-07-21T11:32:03Z</time>
      </trkpt>
      <trkpt lat="47.1868300" lon="6.8692950">
        <ele>681.4</ele>
        <time>2022-07-21T11:32:04Z</time>
      </trkpt>
      <trkpt lat="47.1868440" lon="6.8692700">
        <ele>681.6</ele>
        <time>2022-07-21T11:32:06Z</time>
      </trkpt>
      <trkpt lat="47.1868550" lon="6.8692300">
        <ele>681.8</ele>
        <time>2022-07-21T11:32:07Z</time>
      </trkpt>
      <trkpt lat="47.1868570" lon="6.8692200">
        <ele>681.8</ele>
        <time>2022-07-21T11:32:08Z</time>
      </trkpt>
      <trkpt lat="47.1868570" lon="6.8692120">
        <ele>681.8</ele>
        <time>2022-07-21T11:32:10Z</time>
      </trkpt>
      <trkpt lat="47.1868580" lon="6.8692030">
        <ele>681.9</ele>
        <time>2022-07-21T11:32:11Z</time>
      </trkpt>
      <trkpt lat="47.1868590" lon="6.8691960">
        <ele>681.9</ele>
        <time>2022-07-21T11:32:12Z</time>
      </trkpt>
      <trkpt lat="47.1868590" lon="6.8691880">
        <ele>682.0</ele>
        <time>2022-07-21T11:32:13Z</time>
      </trkpt>
      <trkpt lat="47.1868590" lon="6.8691810">
        <ele>682.0</ele>
        <time>2022-07-21T11:32:14Z</time>
      </trkpt>
      <trkpt lat="47.1868590" lon="6.8691750">
        <ele>682.0</ele>
        <time>2022-07-21T11:32:15Z</time>
      </trkpt>
      <trkpt lat="47.1868590" lon="6.8691660">
        <ele>682.1</ele>
        <time>2022-07-21T11:32:16Z</time>
      </trkpt>
      <trkpt lat="47.1868590" lon="6.8691600">
        <ele>682.1</ele>
        <time>2022-07-21T11:32:17Z</time>
      </trkpt>
      <trkpt lat="47.1868590" lon="6.8691550">
        <ele>682.1</ele>
        <time>2022-07-21T11:32:18Z</time>
      </trkpt>
      <trkpt lat="47.1868600" lon="6.8691510">
        <ele>682.1</ele>
        <time>2022-07-21T11:32:19Z</time>
      </trkpt>
      <trkpt lat="47.1868610" lon="6.8691450">
        <ele>682.1</ele>
        <time>2022-07-21T11:32:20Z</time>
      </trkpt>
      <trkpt lat="47.1868620" lon="6.8691380">
        <ele>682.2</ele>
        <time>2022-07-21T11:32:21Z</time>
      </trkpt>
      <trkpt lat="47.1868650" lon="6.8691280">
        <ele>682.2</ele>
        <time>2022-07-21T11:32:22Z</time>
      </trkpt>
      <trkpt lat="47.1868730" lon="6.8690970">
        <ele>682.4</ele>
        <time>2022-07-21T11:32:23Z</time>
      </trkpt>
      <trkpt lat="47.1868750" lon="6.8690870">
        <ele>682.4</ele>
        <time>2022-07-21T11:32:24Z</time>
      </trkpt>
      <trkpt lat="47.1868780" lon="6.8690760">
        <ele>682.5</ele>
        <time>2022-07-21T11:32:25Z</time>
      </trkpt>
      <trkpt lat="47.1868820" lon="6.8690280">
        <ele>682.7</ele>
        <time>2022-07-21T11:32:26Z</time>
      </trkpt>
      <trkpt lat="47.1868820" lon="6.8690140">
        <ele>682.7</ele>
        <time>2022-07-21T11:32:27Z</time>
      </trkpt>
      <trkpt lat="47.1868810" lon="6.8689640">
        <ele>682.9</ele>
        <time>2022-07-21T11:32:28Z</time>
      </trkpt>
      <trkpt lat="47.1868800" lon="6.8689540">
        <ele>683.0</ele>
        <time>2022-07-21T11:32:29Z</time>
      </trkpt>
      <trkpt lat="47.1868760" lon="6.8689170">
        <ele>683.1</ele>
        <time>2022-07-21T11:32:30Z</time>
      </trkpt>
      <trkpt lat="47.1868730" lon="6.8688980">
        <ele>683.2</ele>
        <time>2022-07-21T11:32:31Z</time>
      </trkpt>
      <trkpt lat="47.1868650" lon="6.8688430">
        <ele>683.4</ele>
        <time>2022-07-21T11:32:32Z</time>
      </trkpt>
      <trkpt lat="47.1868610" lon="6.8688240">
        <ele>683.5</ele>
        <time>2022-07-21T11:32:33Z</time>
      </trkpt>
      <trkpt lat="47.1868490" lon="6.8687810">
        <ele>683.7</ele>
        <time>2022-07-21T11:32:34Z</time>
      </trkpt>
      <trkpt lat="47.1868420" lon="6.8687460">
        <ele>683.8</ele>
        <time>2022-07-21T11:32:35Z</time>
      </trkpt>
      <trkpt lat="47.1868350" lon="6.8687170">
        <ele>684.0</ele>
        <time>2022-07-21T11:32:37Z</time>
      </trkpt>
      <trkpt lat="47.1868290" lon="6.8686860">
        <ele>684.1</ele>
        <time>2022-07-21T11:32:38Z</time>
      </trkpt>
      <trkpt lat="47.1868260" lon="6.8686660">
        <ele>684.2</ele>
        <time>2022-07-21T11:32:39Z</time>
      </trkpt>
      <trkpt lat="47.1868210" lon="6.8686470">
        <ele>684.3</ele>
        <time>2022-07-21T11:32:40Z</time>
      </trkpt>
      <trkpt lat="47.1868140" lon="6.8686400">
        <ele>684.3</ele>
        <time>2022-07-21T11:32:41Z</time>
      </trkpt>
      <trkpt lat="47.1868090" lon="6.8686300">
        <ele>684.4</ele>
        <time>2022-07-21T11:32:42Z</time>
      </trkpt>
      <trkpt lat="47.1868240" lon="6.8686040">
        <ele>684.5</ele>
        <time>2022-07-21T11:32:43Z</time>
      </trkpt>
      <trkpt lat="47.1868280" lon="6.8685910">
        <ele>684.6</ele>
        <time>2022-07-21T11:32:44Z</time>
      </trkpt>
      <trkpt lat="47.1868360" lon="6.8685700">
        <ele>684.7</ele>
        <time>2022-07-21T11:32:45Z</time>
      </trkpt>
      <trkpt lat="47.1868390" lon="6.8685640">
        <ele>684.7</ele>
        <time>2022-07-21T11:32:46Z</time>
      </trkpt>
      <trkpt lat="47.1868420" lon="6.8685570">
        <ele>684.8</ele>
        <time>2022-07-21T11:32:47Z</time>
      </trkpt>
      <trkpt lat="47.1868440" lon="6.8685480">
        <ele>684.8</ele>
        <time>2022-07-21T11:32:48Z</time>
      </trkpt>
      <trkpt lat="47.1868460" lon="6.8685400">
        <ele>684.8</ele>
        <time>2022-07-21T11:32:49Z</time>
      </trkpt>
      <trkpt lat="47.1868470" lon="6.8685290">
        <ele>684.9</ele>
        <time>2022-07-21T11:32:50Z</time>
      </trkpt>
      <trkpt lat="47.1868470" lon="6.8685240">
        <ele>684.9</ele>
        <time>2022-07-21T11:32:51Z</time>
      </trkpt>
      <trkpt lat="47.1868470" lon="6.8685190">
        <ele>684.9</ele>
        <time>2022-07-21T11:32:52Z</time>
      </trkpt>
      <trkpt lat="47.1868480" lon="6.8685150">
        <ele>685.0</ele>
        <time>2022-07-21T11:32:53Z</time>
      </trkpt>
      <trkpt lat="47.1868530" lon="6.8684650">
        <ele>685.2</ele>
        <time>2022-07-21T11:33:06Z</time>
      </trkpt>
      <trkpt lat="47.1868530" lon="6.8684610">
        <ele>685.2</ele>
        <time>2022-07-21T11:33:07Z</time>
      </trkpt>
      <trkpt lat="47.1868540" lon="6.8684610">
        <ele>685.2</ele>
        <time>2022-07-21T11:33:08Z</time>
      </trkpt>
      <trkpt lat="47.1868540" lon="6.8684560">
        <ele>685.2</ele>
        <time>2022-07-21T11:33:09Z</time>
      </trkpt>
      <trkpt lat="47.1868550" lon="6.8684490">
        <ele>685.3</ele>
        <time>2022-07-21T11:33:10Z</time>
      </trkpt>
      <trkpt lat="47.1868550" lon="6.8684440">
        <ele>685.3</ele>
        <time>2022-07-21T11:33:11Z</time>
      </trkpt>
      <trkpt lat="47.1868550" lon="6.8684370">
        <ele>685.3</ele>
        <time>2022-07-21T11:33:12Z</time>
      </trkpt>
      <trkpt lat="47.1868540" lon="6.8684310">
        <ele>685.3</ele>
        <time>2022-07-21T11:33:13Z</time>
      </trkpt>
      <trkpt lat="47.1868540" lon="6.8684290">
        <ele>685.3</ele>
        <time>2022-07-21T11:33:14Z</time>
      </trkpt>
      <trkpt lat="47.1868550" lon="6.8684270">
        <ele>685.4</ele>
        <time>2022-07-21T11:33:15Z</time>
      </trkpt>
      <trkpt lat="47.1868560" lon="6.8684200">
        <ele>685.4</ele>
        <time>2022-07-21T11:33:16Z</time>
      </trkpt>
      <trkpt lat="47.1868570" lon="6.8684130">
        <ele>685.4</ele>
        <time>2022-07-21T11:33:17Z</time>
      </trkpt>
      <trkpt lat="47.1868580" lon="6.8684090">
        <ele>685.4</ele>
        <time>2022-07-21T11:33:18Z</time>
      </trkpt>
      <trkpt lat="47.1868580" lon="6.8684070">
        <ele>685.4</ele>
        <time>2022-07-21T11:33:19Z</time>
      </trkpt>
      <trkpt lat="47.1868570" lon="6.8684070">
        <ele>685.4</ele>
        <time>2022-07-21T11:33:20Z</time>
      </trkpt>
      <trkpt lat="47.1868570" lon="6.8684070">
        <ele>685.4</ele>
        <time>2022-07-21T11:33:21Z</time>
      </trkpt>
      <trkpt lat="47.1868570" lon="6.8684080">
        <ele>685.5</ele>
        <time>2022-07-21T11:33:22Z</time>
      </trkpt>
      <trkpt lat="47.1868570" lon="6.8684080">
        <ele>685.5</ele>
        <time>2022-07-21T11:33:23Z</time>
      </trkpt>
      <trkpt lat="47.1868560" lon="6.8684080">
        <ele>685.5</ele>
        <time>2022-07-21T11:33:24Z</time>
      </trkpt>
      <trkpt lat="47.1868560" lon="6.8684080">
        <ele>685.5</ele>
        <time>2022-07-21T11:33:25Z</time>
      </trkpt>
      <trkpt lat="47.1868510" lon="6.8684160">
        <ele>685.5</ele>
        <time>2022-07-21T11:33:26Z</time>
      </trkpt>
      <trkpt lat="47.1868470" lon="6.8684190">
        <ele>685.5</ele>
        <time>2022-07-21T11:33:27Z</time>
      </trkpt>
      <trkpt lat="47.1868460" lon="6.8684150">
        <ele>685.6</ele>
        <time>2022-07-21T11:33:29Z</time>
      </trkpt>
      <trkpt lat="47.1868380" lon="6.8683780">
        <ele>685.7</ele>
        <time>2022-07-21T11:33:37Z</time>
      </trkpt>
      <trkpt lat="47.1868320" lon="6.8683580">
        <ele>685.8</ele>
        <time>2022-07-21T11:33:39Z</time>
      </trkpt>
      <trkpt lat="47.1868240" lon="6.8683300">
        <ele>685.9</ele>
        <time>2022-07-21T11:33:40Z</time>
      </trkpt>
      <trkpt lat="47.1868100" lon="6.8682900">
        <ele>686.1</ele>
        <time>2022-07-21T11:33:41Z</time>
      </trkpt>
      <trkpt lat="47.1868070" lon="6.8682770">
        <ele>686.2</ele>
        <time>2022-07-21T11:33:43Z</time>
      </trkpt>
      <trkpt lat="47.1868040" lon="6.8682630">
        <ele>686.3</ele>
        <time>2022-07-21T11:33:44Z</time>
      </trkpt>
      <trkpt lat="47.1868010" lon="6.8682490">
        <ele>686.3</ele>
        <time>2022-07-21T11:33:45Z</time>
      </trkpt>
      <trkpt lat="47.1867970" lon="6.8682360">
        <ele>686.4</ele>
        <time>2022-07-21T11:33:46Z</time>
      </trkpt>
      <trkpt lat="47.1868000" lon="6.8681950">
        <ele>686.5</ele>
        <time>2022-07-21T11:33:47Z</time>
      </trkpt>
      <trkpt lat="47.1867990" lon="6.8681810">
        <ele>686.6</ele>
        <time>2022-07-21T11:33:48Z</time>
      </trkpt>
      <trkpt lat="47.1867980" lon="6.8681660">
        <ele>686.6</ele>
        <time>2022-07-21T11:33:49Z</time>
      </trkpt>
      <trkpt lat="47.1868210" lon="6.8681230">
        <ele>686.8</ele>
        <time>2022-07-21T11:33:51Z</time>
      </trkpt>
      <trkpt lat="47.1868320" lon="6.8681080">
        <ele>686.9</ele>
        <time>2022-07-21T11:33:52Z</time>
      </trkpt>
      <trkpt lat="47.1868560" lon="6.8680770">
        <ele>687.1</ele>
        <time>2022-07-21T11:33:53Z</time>
      </trkpt>
      <trkpt lat="47.1868620" lon="6.8680690">
        <ele>687.1</ele>
        <time>2022-07-21T11:33:54Z</time>
      </trkpt>
      <trkpt lat="47.1868790" lon="6.8680220">
        <ele>687.3</ele>
        <time>2022-07-21T11:33:56Z</time>
      </trkpt>
      <trkpt lat="47.1868830" lon="6.8680050">
        <ele>687.4</ele>
        <time>2022-07-21T11:33:57Z</time>
      </trkpt>
      <trkpt lat="47.1868890" lon="6.8679780">
        <ele>687.5</ele>
        <time>2022-07-21T11:33:58Z</time>
      </trkpt>
      <trkpt lat="47.1868950" lon="6.8679610">
        <ele>687.5</ele>
        <time>2022-07-21T11:33:59Z</time>
      </trkpt>
      <trkpt lat="47.1869250" lon="6.8679170">
        <ele>687.8</ele>
        <time>2022-07-21T11:34:00Z</time>
      </trkpt>
      <trkpt lat="47.1869320" lon="6.8678930">
        <ele>687.9</ele>
        <time>2022-07-21T11:34:02Z</time>
      </trkpt>
      <trkpt lat="47.1869350" lon="6.8678740">
        <ele>687.9</ele>
        <time>2022-07-21T11:34:03Z</time>
      </trkpt>
      <trkpt lat="47.1869420" lon="6.8678430">
        <ele>688.1</ele>
        <time>2022-07-21T11:34:04Z</time>
      </trkpt>
      <trkpt lat="47.1869440" lon="6.8678300">
        <ele>688.1</ele>
        <time>2022-07-21T11:34:05Z</time>
      </trkpt>
      <trkpt lat="47.1869470" lon="6.8678170">
        <ele>688.2</ele>
        <time>2022-07-21T11:34:06Z</time>
      </trkpt>
      <trkpt lat="47.1869530" lon="6.8677980">
        <ele>688.2</ele>
        <time>2022-07-21T11:34:07Z</time>
      </trkpt>
      <trkpt lat="47.1869580" lon="6.8677790">
        <ele>688.3</ele>
        <time>2022-07-21T11:34:08Z</time>
      </trkpt>
      <trkpt lat="47.1869710" lon="6.8677390">
        <ele>688.5</ele>
        <time>2022-07-21T11:34:09Z</time>
      </trkpt>
      <trkpt lat="47.1869760" lon="6.8677240">
        <ele>688.6</ele>
        <time>2022-07-21T11:34:10Z</time>
      </trkpt>
      <trkpt lat="47.1869880" lon="6.8677020">
        <ele>688.7</ele>
        <time>2022-07-21T11:34:11Z</time>
      </trkpt>
      <trkpt lat="47.1870010" lon="6.8676760">
        <ele>688.8</ele>
        <time>2022-07-21T11:34:13Z</time>
      </trkpt>
      <trkpt lat="47.1870130" lon="6.8676290">
        <ele>689.0</ele>
        <time>2022-07-21T11:34:14Z</time>
      </trkpt>
      <trkpt lat="47.1870180" lon="6.8676040">
        <ele>689.1</ele>
        <time>2022-07-21T11:34:15Z</time>
      </trkpt>
      <trkpt lat="47.1870290" lon="6.8675560">
        <ele>689.3</ele>
        <time>2022-07-21T11:34:16Z</time>
      </trkpt>
      <trkpt lat="47.1870320" lon="6.8675440">
        <ele>689.4</ele>
        <time>2022-07-21T11:34:17Z</time>
      </trkpt>
      <trkpt lat="47.1870370" lon="6.8675210">
        <ele>689.5</ele>
        <time>2022-07-21T11:34:18Z</time>
      </trkpt>
      <trkpt lat="47.1870410" lon="6.8674990">
        <ele>689.6</ele>
        <time>2022-07-21T11:34:19Z</time>
      </trkpt>
      <trkpt lat="47.1870430" lon="6.8674860">
        <ele>689.6</ele>
        <time>2022-07-21T11:34:20Z</time>
      </trkpt>
      <trkpt lat="47.1870550" lon="6.8674540">
        <ele>689.8</ele>
        <time>2022-07-21T11:34:21Z</time>
      </trkpt>
      <trkpt lat="47.1870610" lon="6.8674290">
        <ele>689.9</ele>
        <time>2022-07-21T11:34:22Z</time>
      </trkpt>
      <trkpt lat="47.1870660" lon="6.8673950">
        <ele>690.1</ele>
        <time>2022-07-21T11:34:24Z</time>
      </trkpt>
      <trkpt lat="47.1870710" lon="6.8673750">
        <ele>690.2</ele>
        <time>2022-07-21T11:34:25Z</time>
      </trkpt>
      <trkpt lat="47.1870760" lon="6.8673540">
        <ele>690.2</ele>
        <time>2022-07-21T11:34:26Z</time>
      </trkpt>
      <trkpt lat="47.1870770" lon="6.8673070">
        <ele>690.4</ele>
        <time>2022-07-21T11:34:27Z</time>
      </trkpt>
      <trkpt lat="47.1870770" lon="6.8672930">
        <ele>690.5</ele>
        <time>2022-07-21T11:34:28Z</time>
      </trkpt>
      <trkpt lat="47.1870780" lon="6.8672700">
        <ele>690.6</ele>
        <time>2022-07-21T11:34:29Z</time>
      </trkpt>
      <trkpt lat="47.1870790" lon="6.8672440">
        <ele>690.7</ele>
        <time>2022-07-21T11:34:31Z</time>
      </trkpt>
      <trkpt lat="47.1870810" lon="6.8672270">
        <ele>690.8</ele>
        <time>2022-07-21T11:34:32Z</time>
      </trkpt>
      <trkpt lat="47.1870820" lon="6.8672080">
        <ele>690.9</ele>
        <time>2022-07-21T11:34:33Z</time>
      </trkpt>
      <trkpt lat="47.1870800" lon="6.8671910">
        <ele>690.9</ele>
        <time>2022-07-21T11:34:34Z</time>
      </trkpt>
      <trkpt lat="47.1870760" lon="6.8671760">
        <ele>691.0</ele>
        <time>2022-07-21T11:34:35Z</time>
      </trkpt>
      <trkpt lat="47.1870640" lon="6.8671530">
        <ele>691.1</ele>
        <time>2022-07-21T11:34:36Z</time>
      </trkpt>
      <trkpt lat="47.1870420" lon="6.8671290">
        <ele>691.3</ele>
        <time>2022-07-21T11:34:37Z</time>
      </trkpt>
      <trkpt lat="47.1870350" lon="6.8671230">
        <ele>691.3</ele>
        <time>2022-07-21T11:34:38Z</time>
      </trkpt>
      <trkpt lat="47.1870200" lon="6.8671070">
        <ele>691.4</ele>
        <time>2022-07-21T11:34:39Z</time>
      </trkpt>
      <trkpt lat="47.1870090" lon="6.8670960">
        <ele>691.5</ele>
        <time>2022-07-21T11:34:40Z</time>
      </trkpt>
      <trkpt lat="47.1870010" lon="6.8670760">
        <ele>691.6</ele>
        <time>2022-07-21T11:34:41Z</time>
      </trkpt>
      <trkpt lat="47.1869930" lon="6.8670710">
        <ele>691.6</ele>
        <time>2022-07-21T11:34:42Z</time>
      </trkpt>
      <trkpt lat="47.1869800" lon="6.8670710">
        <ele>691.7</ele>
        <time>2022-07-21T11:34:43Z</time>
      </trkpt>
      <trkpt lat="47.1869520" lon="6.8670520">
        <ele>691.9</ele>
        <time>2022-07-21T11:34:44Z</time>
      </trkpt>
      <trkpt lat="47.1869120" lon="6.8670170">
        <ele>692.1</ele>
        <time>2022-07-21T11:34:45Z</time>
      </trkpt>
      <trkpt lat="47.1869070" lon="6.8669960">
        <ele>692.2</ele>
        <time>2022-07-21T11:34:46Z</time>
      </trkpt>
      <trkpt lat="47.1869010" lon="6.8669710">
        <ele>692.3</ele>
        <time>2022-07-21T11:34:47Z</time>
      </trkpt>
      <trkpt lat="47.1868900" lon="6.8669320">
        <ele>692.5</ele>
        <time>2022-07-21T11:34:49Z</time>
      </trkpt>
      <trkpt lat="47.1868780" lon="6.8668880">
        <ele>692.7</ele>
        <time>2022-07-21T11:34:50Z</time>
      </trkpt>
      <trkpt lat="47.1868660" lon="6.8668300">
        <ele>692.9</ele>
        <time>2022-07-21T11:34:51Z</time>
      </trkpt>
      <trkpt lat="47.1868660" lon="6.8667900">
        <ele>693.1</ele>
        <time>2022-07-21T11:34:52Z</time>
      </trkpt>
      <trkpt lat="47.1868650" lon="6.8667720">
        <ele>693.2</ele>
        <time>2022-07-21T11:34:54Z</time>
      </trkpt>
      <trkpt lat="47.1868530" lon="6.8667030">
        <ele>693.5</ele>
        <time>2022-07-21T11:34:55Z</time>
      </trkpt>
      <trkpt lat="47.1868480" lon="6.8666570">
        <ele>693.7</ele>
        <time>2022-07-21T11:34:57Z</time>
      </trkpt>
      <trkpt lat="47.1868470" lon="6.8666440">
        <ele>693.7</ele>
        <time>2022-07-21T11:34:58Z</time>
      </trkpt>
      <trkpt lat="47.1868410" lon="6.8666040">
        <ele>693.9</ele>
        <time>2022-07-21T11:34:59Z</time>
      </trkpt>
      <trkpt lat="47.1868380" lon="6.8665920">
        <ele>693.9</ele>
        <time>2022-07-21T11:35:00Z</time>
      </trkpt>
      <trkpt lat="47.1868350" lon="6.8665740">
        <ele>694.0</ele>
        <time>2022-07-21T11:35:01Z</time>
      </trkpt>
      <trkpt lat="47.1868340" lon="6.8665500">
        <ele>694.1</ele>
        <time>2022-07-21T11:35:02Z</time>
      </trkpt>
      <trkpt lat="47.1868320" lon="6.8665330">
        <ele>694.2</ele>
        <time>2022-07-21T11:35:03Z</time>
      </trkpt>
      <trkpt lat="47.1868310" lon="6.8665130">
        <ele>694.3</ele>
        <time>2022-07-21T11:35:04Z</time>
      </trkpt>
      <trkpt lat="47.1868270" lon="6.8664860">
        <ele>694.4</ele>
        <time>2022-07-21T11:35:06Z</time>
      </trkpt>
      <trkpt lat="47.1868210" lon="6.8664660">
        <ele>694.5</ele>
        <time>2022-07-21T11:35:07Z</time>
      </trkpt>
      <trkpt lat="47.1868150" lon="6.8664500">
        <ele>694.5</ele>
        <time>2022-07-21T11:35:08Z</time>
      </trkpt>
      <trkpt lat="47.1868080" lon="6.8664320">
        <ele>694.6</ele>
        <time>2022-07-21T11:35:09Z</time>
      </trkpt>
      <trkpt lat="47.1867920" lon="6.8663960">
        <ele>694.8</ele>
        <time>2022-07-21T11:35:11Z</time>
      </trkpt>
      <trkpt lat="47.1867800" lon="6.8663800">
        <ele>694.9</ele>
        <time>2022-07-21T11:35:12Z</time>
      </trkpt>
      <trkpt lat="47.1867630" lon="6.8663680">
        <ele>695.0</ele>
        <time>2022-07-21T11:35:13Z</time>
      </trkpt>
      <trkpt lat="47.1867440" lon="6.8663610">
        <ele>695.1</ele>
        <time>2022-07-21T11:35:14Z</time>
      </trkpt>
      <trkpt lat="47.1867340" lon="6.8663290">
        <ele>695.3</ele>
        <time>2022-07-21T11:35:16Z</time>
      </trkpt>
      <trkpt lat="47.1867140" lon="6.8662940">
        <ele>695.4</ele>
        <time>2022-07-21T11:35:17Z</time>
      </trkpt>
      <trkpt lat="47.1867050" lon="6.8662780">
        <ele>695.5</ele>
        <time>2022-07-21T11:35:18Z</time>
      </trkpt>
      <trkpt lat="47.1866920" lon="6.8662390">
        <ele>695.7</ele>
        <time>2022-07-21T11:35:19Z</time>
      </trkpt>
      <trkpt lat="47.1866830" lon="6.8662030">
        <ele>695.8</ele>
        <time>2022-07-21T11:35:20Z</time>
      </trkpt>
      <trkpt lat="47.1866750" lon="6.8661640">
        <ele>695.9</ele>
        <time>2022-07-21T11:35:22Z</time>
      </trkpt>
      <trkpt lat="47.1866660" lon="6.8661220">
        <ele>696.1</ele>
        <time>2022-07-21T11:35:23Z</time>
      </trkpt>
      <trkpt lat="47.1866640" lon="6.8661090">
        <ele>696.2</ele>
        <time>2022-07-21T11:35:24Z</time>
      </trkpt>
      <trkpt lat="47.1866490" lon="6.8660600">
        <ele>696.4</ele>
        <time>2022-07-21T11:35:25Z</time>
      </trkpt>
      <trkpt lat="47.1866410" lon="6.8660390">
        <ele>696.4</ele>
        <time>2022-07-21T11:35:26Z</time>
      </trkpt>
      <trkpt lat="47.1866160" lon="6.8659900">
        <ele>696.7</ele>
        <time>2022-07-21T11:35:28Z</time>
      </trkpt>
      <trkpt lat="47.1865990" lon="6.8659690">
        <ele>696.8</ele>
        <time>2022-07-21T11:35:29Z</time>
      </trkpt>
      <trkpt lat="47.1865900" lon="6.8659530">
        <ele>696.9</ele>
        <time>2022-07-21T11:35:30Z</time>
      </trkpt>
      <trkpt lat="47.1865770" lon="6.8659300">
        <ele>697.0</ele>
        <time>2022-07-21T11:35:31Z</time>
      </trkpt>
      <trkpt lat="47.1865720" lon="6.8659200">
        <ele>697.0</ele>
        <time>2022-07-21T11:35:32Z</time>
      </trkpt>
      <trkpt lat="47.1865670" lon="6.8659100">
        <ele>697.1</ele>
        <time>2022-07-21T11:35:33Z</time>
      </trkpt>
      <trkpt lat="47.1865600" lon="6.8658980">
        <ele>697.1</ele>
        <time>2022-07-21T11:35:35Z</time>
      </trkpt>
      <trkpt lat="47.1865510" lon="6.8658820">
        <ele>697.2</ele>
        <time>2022-07-21T11:35:36Z</time>
      </trkpt>
      <trkpt lat="47.1865470" lon="6.8658780">
        <ele>697.2</ele>
        <time>2022-07-21T11:35:37Z</time>
      </trkpt>
      <trkpt lat="47.1865460" lon="6.8658710">
        <ele>697.3</ele>
        <time>2022-07-21T11:35:38Z</time>
      </trkpt>
      <trkpt lat="47.1865470" lon="6.8658650">
        <ele>697.3</ele>
        <time>2022-07-21T11:35:39Z</time>
      </trkpt>
      <trkpt lat="47.1865470" lon="6.8658590">
        <ele>697.3</ele>
        <time>2022-07-21T11:35:40Z</time>
      </trkpt>
      <trkpt lat="47.1865470" lon="6.8658510">
        <ele>697.3</ele>
        <time>2022-07-21T11:35:41Z</time>
      </trkpt>
      <trkpt lat="47.1865460" lon="6.8658400">
        <ele>697.4</ele>
        <time>2022-07-21T11:35:42Z</time>
      </trkpt>
      <trkpt lat="47.1865450" lon="6.8658300">
        <ele>697.4</ele>
        <time>2022-07-21T11:35:43Z</time>
      </trkpt>
      <trkpt lat="47.1865420" lon="6.8658110">
        <ele>697.5</ele>
        <time>2022-07-21T11:35:44Z</time>
      </trkpt>
      <trkpt lat="47.1865360" lon="6.8657900">
        <ele>697.6</ele>
        <time>2022-07-21T11:35:45Z</time>
      </trkpt>
      <trkpt lat="47.1865290" lon="6.8657550">
        <ele>697.7</ele>
        <time>2022-07-21T11:35:46Z</time>
      </trkpt>
      <trkpt lat="47.1865260" lon="6.8657380">
        <ele>697.7</ele>
        <time>2022-07-21T11:35:47Z</time>
      </trkpt>
      <trkpt lat="47.1865220" lon="6.8657210">
        <ele>697.8</ele>
        <time>2022-07-21T11:35:48Z</time>
      </trkpt>
      <trkpt lat="47.1865110" lon="6.8656640">
        <ele>698.0</ele>
        <time>2022-07-21T11:35:50Z</time>
      </trkpt>
      <trkpt lat="47.1865060" lon="6.8656440">
        <ele>698.0</ele>
        <time>2022-07-21T11:35:51Z</time>
      </trkpt>
      <trkpt lat="47.1865020" lon="6.8656250">
        <ele>698.1</ele>
        <time>2022-07-21T11:35:52Z</time>
      </trkpt>
      <trkpt lat="47.1864930" lon="6.8656040">
        <ele>698.2</ele>
        <time>2022-07-21T11:35:54Z</time>
      </trkpt>
      <trkpt lat="47.1864870" lon="6.8655930">
        <ele>698.2</ele>
        <time>2022-07-21T11:35:55Z</time>
      </trkpt>
      <trkpt lat="47.1864850" lon="6.8655860">
        <ele>698.2</ele>
        <time>2022-07-21T11:35:56Z</time>
      </trkpt>
      <trkpt lat="47.1864810" lon="6.8655710">
        <ele>698.3</ele>
        <time>2022-07-21T11:35:57Z</time>
      </trkpt>
      <trkpt lat="47.1864780" lon="6.8655640">
        <ele>698.3</ele>
        <time>2022-07-21T11:35:58Z</time>
      </trkpt>
      <trkpt lat="47.1864750" lon="6.8655580">
        <ele>698.3</ele>
        <time>2022-07-21T11:35:59Z</time>
      </trkpt>
      <trkpt lat="47.1864720" lon="6.8655510">
        <ele>698.3</ele>
        <time>2022-07-21T11:36:00Z</time>
      </trkpt>
      <trkpt lat="47.1864690" lon="6.8655440">
        <ele>698.4</ele>
        <time>2022-07-21T11:36:01Z</time>
      </trkpt>
      <trkpt lat="47.1864660" lon="6.8655370">
        <ele>698.4</ele>
        <time>2022-07-21T11:36:02Z</time>
      </trkpt>
      <trkpt lat="47.1864630" lon="6.8655300">
        <ele>698.4</ele>
        <time>2022-07-21T11:36:03Z</time>
      </trkpt>
      <trkpt lat="47.1864600" lon="6.8655230">
        <ele>698.4</ele>
        <time>2022-07-21T11:36:04Z</time>
      </trkpt>
      <trkpt lat="47.1864570" lon="6.8655160">
        <ele>698.4</ele>
        <time>2022-07-21T11:36:10Z</time>
      </trkpt>
      <trkpt lat="47.1864540" lon="6.8655100">
        <ele>698.5</ele>
        <time>2022-07-21T11:36:11Z</time>
      </trkpt>
      <trkpt lat="47.1864510" lon="6.8655030">
        <ele>698.6</ele>
        <time>2022-07-21T11:36:12Z</time>
      </trkpt>
      <trkpt lat="47.1864480" lon="6.8654960">
        <ele>698.6</ele>
        <time>2022-07-21T11:36:13Z</time>
      </trkpt>
      <trkpt lat="47.1864450" lon="6.8654890">
        <ele>698.6</ele>
        <time>2022-07-21T11:36:14Z</time>
      </trkpt>
      <trkpt lat="47.1864420" lon="6.8654820">
        <ele>698.7</ele>
        <time>2022-07-21T11:36:15Z</time>
      </trkpt>
      <trkpt lat="47.1864390" lon="6.8654750">
        <ele>698.7</ele>
        <time>2022-07-21T11:36:16Z</time>
      </trkpt>
      <trkpt lat="47.1864360" lon="6.8654680">
        <ele>698.7</ele>
        <time>2022-07-21T11:36:17Z</time>
      </trkpt>
      <trkpt lat="47.1864330" lon="6.8654620">
        <ele>698.7</ele>
        <time>2022-07-21T11:36:19Z</time>
      </trkpt>
      <trkpt lat="47.1864300" lon="6.8654550">
        <ele>698.7</ele>
        <time>2022-07-21T11:36:20Z</time>
      </trkpt>
      <trkpt lat="47.1864270" lon="6.8654480">
        <ele>698.8</ele>
        <time>2022-07-21T11:36:21Z</time>
      </trkpt>
      <trkpt lat="47.1864230" lon="6.8654410">
        <ele>698.8</ele>
        <time>2022-07-21T11:36:44Z</time>
      </trkpt>
      <trkpt lat="47.1864200" lon="6.8654340">
        <ele>698.8</ele>
        <time>2022-07-21T11:36:45Z</time>
      </trkpt>
      <trkpt lat="47.1864170" lon="6.8654270">
        <ele>698.8</ele>
        <time>2022-07-21T11:36:46Z</time>
      </trkpt>
      <trkpt lat="47.1863960" lon="6.8653980">
        <ele>698.9</ele>
        <time>2022-07-21T11:36:47Z</time>
      </trkpt>
      <trkpt lat="47.1863880" lon="6.8653920">
        <ele>699.0</ele>
        <time>2022-07-21T11:36:48Z</time>
      </trkpt>
      <trkpt lat="47.1863590" lon="6.8653780">
        <ele>699.1</ele>
        <time>2022-07-21T11:36:49Z</time>
      </trkpt>
      <trkpt lat="47.1863460" lon="6.8653710">
        <ele>699.2</ele>
        <time>2022-07-21T11:36:50Z</time>
      </trkpt>
      <trkpt lat="47.1863320" lon="6.8653640">
        <ele>699.2</ele>
        <time>2022-07-21T11:36:51Z</time>
      </trkpt>
      <trkpt lat="47.1863150" lon="6.8653530">
        <ele>699.3</ele>
        <time>2022-07-21T11:36:52Z</time>
      </trkpt>
      <trkpt lat="47.1863060" lon="6.8653470">
        <ele>699.4</ele>
        <time>2022-07-21T11:36:53Z</time>
      </trkpt>
      <trkpt lat="47.1862990" lon="6.8653410">
        <ele>699.4</ele>
        <time>2022-07-21T11:36:54Z</time>
      </trkpt>
      <trkpt lat="47.1862950" lon="6.8653380">
        <ele>699.4</ele>
        <time>2022-07-21T11:36:55Z</time>
      </trkpt>
      <trkpt lat="47.1862920" lon="6.8653370">
        <ele>699.4</ele>
        <time>2022-07-21T11:36:56Z</time>
      </trkpt>
      <trkpt lat="47.1862900" lon="6.8653350">
        <ele>699.4</ele>
        <time>2022-07-21T11:36:57Z</time>
      </trkpt>
      <trkpt lat="47.1862880" lon="6.8653340">
        <ele>699.5</ele>
        <time>2022-07-21T11:36:58Z</time>
      </trkpt>
      <trkpt lat="47.1862860" lon="6.8653330">
        <ele>699.5</ele>
        <time>2022-07-21T11:36:59Z</time>
      </trkpt>
      <trkpt lat="47.1862850" lon="6.8653320">
        <ele>699.5</ele>
        <time>2022-07-21T11:37:00Z</time>
      </trkpt>
      <trkpt lat="47.1862810" lon="6.8653290">
        <ele>699.6</ele>
        <time>2022-07-21T11:37:03Z</time>
      </trkpt>
      <trkpt lat="47.1862780" lon="6.8653240">
        <ele>699.6</ele>
        <time>2022-07-21T11:37:04Z</time>
      </trkpt>
      <trkpt lat="47.1862770" lon="6.8653230">
        <ele>699.6</ele>
        <time>2022-07-21T11:37:05Z</time>
      </trkpt>
      <trkpt lat="47.1862770" lon="6.8653210">
        <ele>699.6</ele>
        <time>2022-07-21T11:37:06Z</time>
      </trkpt>
      <trkpt lat="47.1862760" lon="6.8653180">
        <ele>699.6</ele>
        <time>2022-07-21T11:37:07Z</time>
      </trkpt>
      <trkpt lat="47.1862750" lon="6.8653130">
        <ele>699.6</ele>
        <time>2022-07-21T11:37:08Z</time>
      </trkpt>
      <trkpt lat="47.1862720" lon="6.8653070">
        <ele>699.6</ele>
        <time>2022-07-21T11:37:09Z</time>
      </trkpt>
      <trkpt lat="47.1862630" lon="6.8652940">
        <ele>699.7</ele>
        <time>2022-07-21T11:37:10Z</time>
      </trkpt>
      <trkpt lat="47.1862380" lon="6.8652650">
        <ele>699.9</ele>
        <time>2022-07-21T11:37:11Z</time>
      </trkpt>
      <trkpt lat="47.1862300" lon="6.8652530">
        <ele>700.0</ele>
        <time>2022-07-21T11:37:13Z</time>
      </trkpt>
      <trkpt lat="47.1862210" lon="6.8652400">
        <ele>700.0</ele>
        <time>2022-07-21T11:37:14Z</time>
      </trkpt>
      <trkpt lat="47.1862130" lon="6.8652280">
        <ele>700.1</ele>
        <time>2022-07-21T11:37:15Z</time>
      </trkpt>
      <trkpt lat="47.1862010" lon="6.8652130">
        <ele>700.2</ele>
        <time>2022-07-21T11:37:16Z</time>
      </trkpt>
      <trkpt lat="47.1861900" lon="6.8652000">
        <ele>700.3</ele>
        <time>2022-07-21T11:37:17Z</time>
      </trkpt>
      <trkpt lat="47.1861700" lon="6.8651690">
        <ele>700.4</ele>
        <time>2022-07-21T11:37:18Z</time>
      </trkpt>
      <trkpt lat="47.1861520" lon="6.8651390">
        <ele>700.6</ele>
        <time>2022-07-21T11:37:19Z</time>
      </trkpt>
      <trkpt lat="47.1861320" lon="6.8651020">
        <ele>700.8</ele>
        <time>2022-07-21T11:37:20Z</time>
      </trkpt>
      <trkpt lat="47.1861100" lon="6.8650560">
        <ele>701.0</ele>
        <time>2022-07-21T11:37:21Z</time>
      </trkpt>
      <trkpt lat="47.1861010" lon="6.8650380">
        <ele>701.1</ele>
        <time>2022-07-21T11:37:22Z</time>
      </trkpt>
      <trkpt lat="47.1860690" lon="6.8650020">
        <ele>701.4</ele>
        <time>2022-07-21T11:37:24Z</time>
      </trkpt>
      <trkpt lat="47.1860580" lon="6.8649920">
        <ele>701.4</ele>
        <time>2022-07-21T11:37:25Z</time>
      </trkpt>
      <trkpt lat="47.1860470" lon="6.8649830">
        <ele>701.5</ele>
        <time>2022-07-21T11:37:26Z</time>
      </trkpt>
      <trkpt lat="47.1860300" lon="6.8649690">
        <ele>701.6</ele>
        <time>2022-07-21T11:37:27Z</time>
      </trkpt>
      <trkpt lat="47.1859920" lon="6.8649440">
        <ele>701.9</ele>
        <time>2022-07-21T11:37:29Z</time>
      </trkpt>
      <trkpt lat="47.1859760" lon="6.8649300">
        <ele>702.1</ele>
        <time>2022-07-21T11:37:30Z</time>
      </trkpt>
      <trkpt lat="47.1859500" lon="6.8649080">
        <ele>702.3</ele>
        <time>2022-07-21T11:37:32Z</time>
      </trkpt>
      <trkpt lat="47.1859240" lon="6.8648810">
        <ele>702.5</ele>
        <time>2022-07-21T11:37:33Z</time>
      </trkpt>
      <trkpt lat="47.1859140" lon="6.8648690">
        <ele>702.6</ele>
        <time>2022-07-21T11:37:34Z</time>
      </trkpt>
      <trkpt lat="47.1858970" lon="6.8648330">
        <ele>702.8</ele>
        <time>2022-07-21T11:37:36Z</time>
      </trkpt>
      <trkpt lat="47.1858910" lon="6.8648190">
        <ele>702.8</ele>
        <time>2022-07-21T11:37:37Z</time>
      </trkpt>
      <trkpt lat="47.1858760" lon="6.8647720">
        <ele>703.1</ele>
        <time>2022-07-21T11:37:38Z</time>
      </trkpt>
      <trkpt lat="47.1858720" lon="6.8647560">
        <ele>703.2</ele>
        <time>2022-07-21T11:37:39Z</time>
      </trkpt>
      <trkpt lat="47.1858630" lon="6.8647260">
        <ele>703.3</ele>
        <time>2022-07-21T11:37:41Z</time>
      </trkpt>
      <trkpt lat="47.1858470" lon="6.8646800">
        <ele>703.5</ele>
        <time>2022-07-21T11:37:43Z</time>
      </trkpt>
      <trkpt lat="47.1858250" lon="6.8646450">
        <ele>703.7</ele>
        <time>2022-07-21T11:37:44Z</time>
      </trkpt>
      <trkpt lat="47.1857980" lon="6.8646030">
        <ele>703.9</ele>
        <time>2022-07-21T11:37:45Z</time>
      </trkpt>
      <trkpt lat="47.1857860" lon="6.8645860">
        <ele>704.0</ele>
        <time>2022-07-21T11:37:46Z</time>
      </trkpt>
      <trkpt lat="47.1857640" lon="6.8645530">
        <ele>704.2</ele>
        <time>2022-07-21T11:37:47Z</time>
      </trkpt>
      <trkpt lat="47.1857360" lon="6.8645150">
        <ele>704.5</ele>
        <time>2022-07-21T11:37:48Z</time>
      </trkpt>
      <trkpt lat="47.1857180" lon="6.8644750">
        <ele>704.7</ele>
        <time>2022-07-21T11:37:49Z</time>
      </trkpt>
      <trkpt lat="47.1857130" lon="6.8644590">
        <ele>704.7</ele>
        <time>2022-07-21T11:37:50Z</time>
      </trkpt>
      <trkpt lat="47.1857030" lon="6.8644270">
        <ele>704.9</ele>
        <time>2022-07-21T11:37:51Z</time>
      </trkpt>
      <trkpt lat="47.1857000" lon="6.8644100">
        <ele>705.0</ele>
        <time>2022-07-21T11:37:52Z</time>
      </trkpt>
      <trkpt lat="47.1856870" lon="6.8643650">
        <ele>705.2</ele>
        <time>2022-07-21T11:37:53Z</time>
      </trkpt>
      <trkpt lat="47.1856830" lon="6.8643530">
        <ele>705.2</ele>
        <time>2022-07-21T11:37:54Z</time>
      </trkpt>
      <trkpt lat="47.1856590" lon="6.8643040">
        <ele>705.5</ele>
        <time>2022-07-21T11:37:55Z</time>
      </trkpt>
      <trkpt lat="47.1856360" lon="6.8642490">
        <ele>705.8</ele>
        <time>2022-07-21T11:37:57Z</time>
      </trkpt>
      <trkpt lat="47.1856210" lon="6.8642080">
        <ele>706.0</ele>
        <time>2022-07-21T11:37:58Z</time>
      </trkpt>
      <trkpt lat="47.1856160" lon="6.8641960">
        <ele>706.0</ele>
        <time>2022-07-21T11:37:59Z</time>
      </trkpt>
      <trkpt lat="47.1856080" lon="6.8641740">
        <ele>706.2</ele>
        <time>2022-07-21T11:38:00Z</time>
      </trkpt>
      <trkpt lat="47.1856010" lon="6.8641570">
        <ele>706.2</ele>
        <time>2022-07-21T11:38:01Z</time>
      </trkpt>
      <trkpt lat="47.1855940" lon="6.8641390">
        <ele>706.3</ele>
        <time>2022-07-21T11:38:02Z</time>
      </trkpt>
      <trkpt lat="47.1855910" lon="6.8641190">
        <ele>706.4</ele>
        <time>2022-07-21T11:38:03Z</time>
      </trkpt>
      <trkpt lat="47.1855680" lon="6.8640920">
        <ele>706.6</ele>
        <time>2022-07-21T11:38:04Z</time>
      </trkpt>
      <trkpt lat="47.1855380" lon="6.8640830">
        <ele>706.8</ele>
        <time>2022-07-21T11:38:06Z</time>
      </trkpt>
      <trkpt lat="47.1855120" lon="6.8640760">
        <ele>707.0</ele>
        <time>2022-07-21T11:38:07Z</time>
      </trkpt>
      <trkpt lat="47.1854900" lon="6.8640670">
        <ele>707.1</ele>
        <time>2022-07-21T11:38:09Z</time>
      </trkpt>
      <trkpt lat="47.1854770" lon="6.8640570">
        <ele>707.2</ele>
        <time>2022-07-21T11:38:10Z</time>
      </trkpt>
      <trkpt lat="47.1854650" lon="6.8640460">
        <ele>707.3</ele>
        <time>2022-07-21T11:38:11Z</time>
      </trkpt>
      <trkpt lat="47.1854520" lon="6.8640030">
        <ele>707.5</ele>
        <time>2022-07-21T11:38:13Z</time>
      </trkpt>
      <trkpt lat="47.1854500" lon="6.8639890">
        <ele>707.6</ele>
        <time>2022-07-21T11:38:14Z</time>
      </trkpt>
      <trkpt lat="47.1854530" lon="6.8639670">
        <ele>707.7</ele>
        <time>2022-07-21T11:38:16Z</time>
      </trkpt>
      <trkpt lat="47.1854450" lon="6.8639120">
        <ele>707.9</ele>
        <time>2022-07-21T11:38:18Z</time>
      </trkpt>
      <trkpt lat="47.1854340" lon="6.8638670">
        <ele>708.1</ele>
        <time>2022-07-21T11:38:19Z</time>
      </trkpt>
      <trkpt lat="47.1854310" lon="6.8638540">
        <ele>708.2</ele>
        <time>2022-07-21T11:38:20Z</time>
      </trkpt>
      <trkpt lat="47.1854140" lon="6.8638110">
        <ele>708.4</ele>
        <time>2022-07-21T11:38:21Z</time>
      </trkpt>
      <trkpt lat="47.1854080" lon="6.8637970">
        <ele>708.5</ele>
        <time>2022-07-21T11:38:22Z</time>
      </trkpt>
      <trkpt lat="47.1853960" lon="6.8637690">
        <ele>708.6</ele>
        <time>2022-07-21T11:38:23Z</time>
      </trkpt>
      <trkpt lat="47.1853770" lon="6.8637350">
        <ele>708.8</ele>
        <time>2022-07-21T11:38:25Z</time>
      </trkpt>
      <trkpt lat="47.1853610" lon="6.8637110">
        <ele>708.9</ele>
        <time>2022-07-21T11:38:26Z</time>
      </trkpt>
      <trkpt lat="47.1853400" lon="6.8636790">
        <ele>709.1</ele>
        <time>2022-07-21T11:38:28Z</time>
      </trkpt>
      <trkpt lat="47.1853100" lon="6.8636390">
        <ele>709.3</ele>
        <time>2022-07-21T11:38:29Z</time>
      </trkpt>
      <trkpt lat="47.1852990" lon="6.8636270">
        <ele>709.4</ele>
        <time>2022-07-21T11:38:30Z</time>
      </trkpt>
      <trkpt lat="47.1852670" lon="6.8636010">
        <ele>709.6</ele>
        <time>2022-07-21T11:38:31Z</time>
      </trkpt>
      <trkpt lat="47.1852560" lon="6.8635930">
        <ele>709.6</ele>
        <time>2022-07-21T11:38:32Z</time>
      </trkpt>
      <trkpt lat="47.1852310" lon="6.8635590">
        <ele>709.8</ele>
        <time>2022-07-21T11:38:33Z</time>
      </trkpt>
      <trkpt lat="47.1852180" lon="6.8635440">
        <ele>709.9</ele>
        <time>2022-07-21T11:38:34Z</time>
      </trkpt>
      <trkpt lat="47.1851940" lon="6.8635120">
        <ele>710.0</ele>
        <time>2022-07-21T11:38:35Z</time>
      </trkpt>
      <trkpt lat="47.1851870" lon="6.8635040">
        <ele>710.1</ele>
        <time>2022-07-21T11:38:36Z</time>
      </trkpt>
      <trkpt lat="47.1851770" lon="6.8634910">
        <ele>710.1</ele>
        <time>2022-07-21T11:38:37Z</time>
      </trkpt>
      <trkpt lat="47.1851650" lon="6.8634720">
        <ele>710.2</ele>
        <time>2022-07-21T11:38:39Z</time>
      </trkpt>
      <trkpt lat="47.1851590" lon="6.8634570">
        <ele>710.3</ele>
        <time>2022-07-21T11:38:40Z</time>
      </trkpt>
      <trkpt lat="47.1851450" lon="6.8634380">
        <ele>710.4</ele>
        <time>2022-07-21T11:38:41Z</time>
      </trkpt>
      <trkpt lat="47.1851200" lon="6.8634140">
        <ele>710.5</ele>
        <time>2022-07-21T11:38:42Z</time>
      </trkpt>
      <trkpt lat="47.1851120" lon="6.8634010">
        <ele>710.6</ele>
        <time>2022-07-21T11:38:43Z</time>
      </trkpt>
      <trkpt lat="47.1851040" lon="6.8633890">
        <ele>710.7</ele>
        <time>2022-07-21T11:38:44Z</time>
      </trkpt>
      <trkpt lat="47.1850750" lon="6.8633540">
        <ele>710.8</ele>
        <time>2022-07-21T11:38:46Z</time>
      </trkpt>
      <trkpt lat="47.1850670" lon="6.8633470">
        <ele>710.9</ele>
        <time>2022-07-21T11:38:47Z</time>
      </trkpt>
      <trkpt lat="47.1850360" lon="6.8633120">
        <ele>711.1</ele>
        <time>2022-07-21T11:38:48Z</time>
      </trkpt>
      <trkpt lat="47.1850150" lon="6.8632810">
        <ele>711.2</ele>
        <time>2022-07-21T11:38:50Z</time>
      </trkpt>
      <trkpt lat="47.1850070" lon="6.8632660">
        <ele>711.3</ele>
        <time>2022-07-21T11:38:51Z</time>
      </trkpt>
      <trkpt lat="47.1849870" lon="6.8632320">
        <ele>711.4</ele>
        <time>2022-07-21T11:38:52Z</time>
      </trkpt>
      <trkpt lat="47.1849800" lon="6.8632210">
        <ele>711.5</ele>
        <time>2022-07-21T11:38:53Z</time>
      </trkpt>
      <trkpt lat="47.1849660" lon="6.8631740">
        <ele>711.7</ele>
        <time>2022-07-21T11:38:55Z</time>
      </trkpt>
      <trkpt lat="47.1849600" lon="6.8631550">
        <ele>711.7</ele>
        <time>2022-07-21T11:38:56Z</time>
      </trkpt>
      <trkpt lat="47.1849470" lon="6.8631290">
        <ele>711.8</ele>
        <time>2022-07-21T11:38:57Z</time>
      </trkpt>
      <trkpt lat="47.1849390" lon="6.8631010">
        <ele>711.9</ele>
        <time>2022-07-21T11:38:59Z</time>
      </trkpt>
      <trkpt lat="47.1849210" lon="6.8630580">
        <ele>712.1</ele>
        <time>2022-07-21T11:39:00Z</time>
      </trkpt>
      <trkpt lat="47.1849120" lon="6.8630420">
        <ele>712.2</ele>
        <time>2022-07-21T11:39:01Z</time>
      </trkpt>
      <trkpt lat="47.1848960" lon="6.8630050">
        <ele>712.3</ele>
        <time>2022-07-21T11:39:03Z</time>
      </trkpt>
      <trkpt lat="47.1848790" lon="6.8629710">
        <ele>712.5</ele>
        <time>2022-07-21T11:39:04Z</time>
      </trkpt>
      <trkpt lat="47.1848600" lon="6.8629410">
        <ele>712.6</ele>
        <time>2022-07-21T11:39:05Z</time>
      </trkpt>
      <trkpt lat="47.1848450" lon="6.8629000">
        <ele>712.8</ele>
        <time>2022-07-21T11:39:06Z</time>
      </trkpt>
      <trkpt lat="47.1848400" lon="6.8628790">
        <ele>712.9</ele>
        <time>2022-07-21T11:39:07Z</time>
      </trkpt>
      <trkpt lat="47.1848340" lon="6.8628390">
        <ele>713.0</ele>
        <time>2022-07-21T11:39:08Z</time>
      </trkpt>
      <trkpt lat="47.1848200" lon="6.8628030">
        <ele>713.2</ele>
        <time>2022-07-21T11:39:10Z</time>
      </trkpt>
      <trkpt lat="47.1848130" lon="6.8627950">
        <ele>713.2</ele>
        <time>2022-07-21T11:39:11Z</time>
      </trkpt>
      <trkpt lat="47.1847850" lon="6.8627710">
        <ele>713.4</ele>
        <time>2022-07-21T11:39:12Z</time>
      </trkpt>
      <trkpt lat="47.1847740" lon="6.8627610">
        <ele>713.5</ele>
        <time>2022-07-21T11:39:13Z</time>
      </trkpt>
      <trkpt lat="47.1847600" lon="6.8627450">
        <ele>713.6</ele>
        <time>2022-07-21T11:39:14Z</time>
      </trkpt>
      <trkpt lat="47.1847470" lon="6.8627300">
        <ele>713.6</ele>
        <time>2022-07-21T11:39:15Z</time>
      </trkpt>
      <trkpt lat="47.1847250" lon="6.8627020">
        <ele>713.8</ele>
        <time>2022-07-21T11:39:16Z</time>
      </trkpt>
      <trkpt lat="47.1847170" lon="6.8626900">
        <ele>713.9</ele>
        <time>2022-07-21T11:39:17Z</time>
      </trkpt>
      <trkpt lat="47.1846910" lon="6.8626480">
        <ele>714.1</ele>
        <time>2022-07-21T11:39:18Z</time>
      </trkpt>
      <trkpt lat="47.1846810" lon="6.8626350">
        <ele>714.1</ele>
        <time>2022-07-21T11:39:19Z</time>
      </trkpt>
      <trkpt lat="47.1846540" lon="6.8626140">
        <ele>714.3</ele>
        <time>2022-07-21T11:39:20Z</time>
      </trkpt>
      <trkpt lat="47.1846220" lon="6.8625860">
        <ele>714.5</ele>
        <time>2022-07-21T11:39:21Z</time>
      </trkpt>
      <trkpt lat="47.1846140" lon="6.8625750">
        <ele>714.6</ele>
        <time>2022-07-21T11:39:22Z</time>
      </trkpt>
      <trkpt lat="47.1845900" lon="6.8625220">
        <ele>714.8</ele>
        <time>2022-07-21T11:39:24Z</time>
      </trkpt>
      <trkpt lat="47.1845830" lon="6.8625060">
        <ele>714.9</ele>
        <time>2022-07-21T11:39:25Z</time>
      </trkpt>
      <trkpt lat="47.1845760" lon="6.8624890">
        <ele>715.0</ele>
        <time>2022-07-21T11:39:26Z</time>
      </trkpt>
      <trkpt lat="47.1845650" lon="6.8624650">
        <ele>715.1</ele>
        <time>2022-07-21T11:39:27Z</time>
      </trkpt>
      <trkpt lat="47.1845580" lon="6.8624480">
        <ele>715.1</ele>
        <time>2022-07-21T11:39:28Z</time>
      </trkpt>
      <trkpt lat="47.1845450" lon="6.8624190">
        <ele>715.3</ele>
        <time>2022-07-21T11:39:29Z</time>
      </trkpt>
      <trkpt lat="47.1845380" lon="6.8624020">
        <ele>715.3</ele>
        <time>2022-07-21T11:39:30Z</time>
      </trkpt>
      <trkpt lat="47.1845280" lon="6.8623790">
        <ele>715.4</ele>
        <time>2022-07-21T11:39:31Z</time>
      </trkpt>
      <trkpt lat="47.1845180" lon="6.8623620">
        <ele>715.5</ele>
        <time>2022-07-21T11:39:32Z</time>
      </trkpt>
      <trkpt lat="47.1845010" lon="6.8623360">
        <ele>715.7</ele>
        <time>2022-07-21T11:39:33Z</time>
      </trkpt>
      <trkpt lat="47.1844860" lon="6.8623130">
        <ele>715.8</ele>
        <time>2022-07-21T11:39:35Z</time>
      </trkpt>
      <trkpt lat="47.1844630" lon="6.8622880">
        <ele>715.9</ele>
        <time>2022-07-21T11:39:36Z</time>
      </trkpt>
      <trkpt lat="47.1844550" lon="6.8622800">
        <ele>716.0</ele>
        <time>2022-07-21T11:39:37Z</time>
      </trkpt>
      <trkpt lat="47.1844340" lon="6.8622530">
        <ele>716.1</ele>
        <time>2022-07-21T11:39:38Z</time>
      </trkpt>
      <trkpt lat="47.1843960" lon="6.8622260">
        <ele>716.4</ele>
        <time>2022-07-21T11:39:40Z</time>
      </trkpt>
      <trkpt lat="47.1843810" lon="6.8622210">
        <ele>716.4</ele>
        <time>2022-07-21T11:39:41Z</time>
      </trkpt>
      <trkpt lat="47.1843520" lon="6.8622170">
        <ele>716.6</ele>
        <time>2022-07-21T11:39:42Z</time>
      </trkpt>
      <trkpt lat="47.1843420" lon="6.8622150">
        <ele>716.6</ele>
        <time>2022-07-21T11:39:43Z</time>
      </trkpt>
      <trkpt lat="47.1843240" lon="6.8622120">
        <ele>716.7</ele>
        <time>2022-07-21T11:39:44Z</time>
      </trkpt>
      <trkpt lat="47.1842940" lon="6.8622000">
        <ele>716.9</ele>
        <time>2022-07-21T11:39:46Z</time>
      </trkpt>
      <trkpt lat="47.1842650" lon="6.8621880">
        <ele>717.1</ele>
        <time>2022-07-21T11:39:47Z</time>
      </trkpt>
      <trkpt lat="47.1842550" lon="6.8621840">
        <ele>717.2</ele>
        <time>2022-07-21T11:39:48Z</time>
      </trkpt>
      <trkpt lat="47.1841990" lon="6.8621740">
        <ele>717.5</ele>
        <time>2022-07-21T11:39:49Z</time>
      </trkpt>
      <trkpt lat="47.1841610" lon="6.8621700">
        <ele>717.7</ele>
        <time>2022-07-21T11:39:50Z</time>
      </trkpt>
      <trkpt lat="47.1841500" lon="6.8621600">
        <ele>717.8</ele>
        <time>2022-07-21T11:39:51Z</time>
      </trkpt>
      <trkpt lat="47.1841090" lon="6.8621560">
        <ele>718.0</ele>
        <time>2022-07-21T11:39:53Z</time>
      </trkpt>
      <trkpt lat="47.1840790" lon="6.8621400">
        <ele>718.2</ele>
        <time>2022-07-21T11:39:55Z</time>
      </trkpt>
      <trkpt lat="47.1840560" lon="6.8621100">
        <ele>718.4</ele>
        <time>2022-07-21T11:39:56Z</time>
      </trkpt>
      <trkpt lat="47.1840240" lon="6.8620780">
        <ele>718.6</ele>
        <time>2022-07-21T11:39:57Z</time>
      </trkpt>
      <trkpt lat="47.1839970" lon="6.8620530">
        <ele>718.7</ele>
        <time>2022-07-21T11:39:58Z</time>
      </trkpt>
      <trkpt lat="47.1839890" lon="6.8620450">
        <ele>718.8</ele>
        <time>2022-07-21T11:39:59Z</time>
      </trkpt>
      <trkpt lat="47.1839610" lon="6.8620190">
        <ele>719.0</ele>
        <time>2022-07-21T11:40:00Z</time>
      </trkpt>
      <trkpt lat="47.1839480" lon="6.8620110">
        <ele>719.0</ele>
        <time>2022-07-21T11:40:01Z</time>
      </trkpt>
      <trkpt lat="47.1839170" lon="6.8619820">
        <ele>719.2</ele>
        <time>2022-07-21T11:40:03Z</time>
      </trkpt>
      <trkpt lat="47.1839080" lon="6.8619720">
        <ele>719.3</ele>
        <time>2022-07-21T11:40:04Z</time>
      </trkpt>
      <trkpt lat="47.1838820" lon="6.8619410">
        <ele>719.5</ele>
        <time>2022-07-21T11:40:05Z</time>
      </trkpt>
      <trkpt lat="47.1838740" lon="6.8619320">
        <ele>719.5</ele>
        <time>2022-07-21T11:40:06Z</time>
      </trkpt>
      <trkpt lat="47.1838500" lon="6.8619350">
        <ele>719.7</ele>
        <time>2022-07-21T11:40:07Z</time>
      </trkpt>
      <trkpt lat="47.1838200" lon="6.8619370">
        <ele>719.8</ele>
        <time>2022-07-21T11:40:09Z</time>
      </trkpt>
      <trkpt lat="47.1838020" lon="6.8619270">
        <ele>719.9</ele>
        <time>2022-07-21T11:40:10Z</time>
      </trkpt>
      <trkpt lat="47.1837890" lon="6.8619150">
        <ele>720.0</ele>
        <time>2022-07-21T11:40:11Z</time>
      </trkpt>
      <trkpt lat="47.1837760" lon="6.8619060">
        <ele>720.1</ele>
        <time>2022-07-21T11:40:12Z</time>
      </trkpt>
      <trkpt lat="47.1837540" lon="6.8619060">
        <ele>720.2</ele>
        <time>2022-07-21T11:40:13Z</time>
      </trkpt>
      <trkpt lat="47.1837270" lon="6.8619090">
        <ele>720.4</ele>
        <time>2022-07-21T11:40:14Z</time>
      </trkpt>
      <trkpt lat="47.1836930" lon="6.8619130">
        <ele>720.6</ele>
        <time>2022-07-21T11:40:15Z</time>
      </trkpt>
      <trkpt lat="47.1836780" lon="6.8619160">
        <ele>720.7</ele>
        <time>2022-07-21T11:40:16Z</time>
      </trkpt>
      <trkpt lat="47.1836350" lon="6.8618850">
        <ele>721.0</ele>
        <time>2022-07-21T11:40:18Z</time>
      </trkpt>
      <trkpt lat="47.1836220" lon="6.8618660">
        <ele>721.1</ele>
        <time>2022-07-21T11:40:19Z</time>
      </trkpt>
      <trkpt lat="47.1836090" lon="6.8618470">
        <ele>721.2</ele>
        <time>2022-07-21T11:40:20Z</time>
      </trkpt>
      <trkpt lat="47.1835900" lon="6.8618150">
        <ele>721.3</ele>
        <time>2022-07-21T11:40:21Z</time>
      </trkpt>
      <trkpt lat="47.1835570" lon="6.8617880">
        <ele>721.6</ele>
        <time>2022-07-21T11:40:22Z</time>
      </trkpt>
      <trkpt lat="47.1835160" lon="6.8617560">
        <ele>721.8</ele>
        <time>2022-07-21T11:40:24Z</time>
      </trkpt>
      <trkpt lat="47.1835060" lon="6.8617430">
        <ele>721.9</ele>
        <time>2022-07-21T11:40:25Z</time>
      </trkpt>
      <trkpt lat="47.1834960" lon="6.8617290">
        <ele>722.0</ele>
        <time>2022-07-21T11:40:26Z</time>
      </trkpt>
      <trkpt lat="47.1834820" lon="6.8617070">
        <ele>722.1</ele>
        <time>2022-07-21T11:40:27Z</time>
      </trkpt>
      <trkpt lat="47.1834690" lon="6.8616950">
        <ele>722.2</ele>
        <time>2022-07-21T11:40:28Z</time>
      </trkpt>
      <trkpt lat="47.1834470" lon="6.8616920">
        <ele>722.3</ele>
        <time>2022-07-21T11:40:29Z</time>
      </trkpt>
      <trkpt lat="47.1834130" lon="6.8616840">
        <ele>722.5</ele>
        <time>2022-07-21T11:40:31Z</time>
      </trkpt>
      <trkpt lat="47.1833690" lon="6.8616570">
        <ele>722.8</ele>
        <time>2022-07-21T11:40:33Z</time>
      </trkpt>
      <trkpt lat="47.1833470" lon="6.8616260">
        <ele>723.0</ele>
        <time>2022-07-21T11:40:34Z</time>
      </trkpt>
      <trkpt lat="47.1833390" lon="6.8616160">
        <ele>723.1</ele>
        <time>2022-07-21T11:40:35Z</time>
      </trkpt>
      <trkpt lat="47.1833170" lon="6.8615990">
        <ele>723.2</ele>
        <time>2022-07-21T11:40:36Z</time>
      </trkpt>
      <trkpt lat="47.1832910" lon="6.8615870">
        <ele>723.4</ele>
        <time>2022-07-21T11:40:38Z</time>
      </trkpt>
      <trkpt lat="47.1832650" lon="6.8615730">
        <ele>723.5</ele>
        <time>2022-07-21T11:40:39Z</time>
      </trkpt>
      <trkpt lat="47.1832560" lon="6.8615660">
        <ele>723.6</ele>
        <time>2022-07-21T11:40:40Z</time>
      </trkpt>
      <trkpt lat="47.1832350" lon="6.8615500">
        <ele>723.7</ele>
        <time>2022-07-21T11:40:41Z</time>
      </trkpt>
      <trkpt lat="47.1832230" lon="6.8615430">
        <ele>723.8</ele>
        <time>2022-07-21T11:40:42Z</time>
      </trkpt>
      <trkpt lat="47.1831980" lon="6.8615270">
        <ele>723.9</ele>
        <time>2022-07-21T11:40:43Z</time>
      </trkpt>
      <trkpt lat="47.1831590" lon="6.8615070">
        <ele>724.2</ele>
        <time>2022-07-21T11:40:44Z</time>
      </trkpt>
      <trkpt lat="47.1831380" lon="6.8615000">
        <ele>724.3</ele>
        <time>2022-07-21T11:40:45Z</time>
      </trkpt>
      <trkpt lat="47.1831080" lon="6.8614890">
        <ele>724.4</ele>
        <time>2022-07-21T11:40:46Z</time>
      </trkpt>
      <trkpt lat="47.1830670" lon="6.8614820">
        <ele>724.7</ele>
        <time>2022-07-21T11:40:47Z</time>
      </trkpt>
      <trkpt lat="47.1830500" lon="6.8614750">
        <ele>724.8</ele>
        <time>2022-07-21T11:40:48Z</time>
      </trkpt>
      <trkpt lat="47.1830220" lon="6.8614550">
        <ele>724.9</ele>
        <time>2022-07-21T11:40:49Z</time>
      </trkpt>
      <trkpt lat="47.1830030" lon="6.8614380">
        <ele>725.1</ele>
        <time>2022-07-21T11:40:50Z</time>
      </trkpt>
      <trkpt lat="47.1829850" lon="6.8614210">
        <ele>725.2</ele>
        <time>2022-07-21T11:40:52Z</time>
      </trkpt>
      <trkpt lat="47.1829590" lon="6.8613890">
        <ele>725.4</ele>
        <time>2022-07-21T11:40:53Z</time>
      </trkpt>
      <trkpt lat="47.1829500" lon="6.8613780">
        <ele>725.4</ele>
        <time>2022-07-21T11:40:54Z</time>
      </trkpt>
      <trkpt lat="47.1829370" lon="6.8613730">
        <ele>725.5</ele>
        <time>2022-07-21T11:40:55Z</time>
      </trkpt>
      <trkpt lat="47.1829210" lon="6.8613580">
        <ele>725.6</ele>
        <time>2022-07-21T11:40:56Z</time>
      </trkpt>
      <trkpt lat="47.1829120" lon="6.8613380">
        <ele>725.7</ele>
        <time>2022-07-21T11:40:57Z</time>
      </trkpt>
      <trkpt lat="47.1829060" lon="6.8613170">
        <ele>725.8</ele>
        <time>2022-07-21T11:40:59Z</time>
      </trkpt>
      <trkpt lat="47.1828960" lon="6.8612900">
        <ele>725.9</ele>
        <time>2022-07-21T11:41:00Z</time>
      </trkpt>
      <trkpt lat="47.1828790" lon="6.8612460">
        <ele>726.1</ele>
        <time>2022-07-21T11:41:02Z</time>
      </trkpt>
      <trkpt lat="47.1828460" lon="6.8612340">
        <ele>726.3</ele>
        <time>2022-07-21T11:41:03Z</time>
      </trkpt>
      <trkpt lat="47.1828380" lon="6.8612300">
        <ele>726.3</ele>
        <time>2022-07-21T11:41:04Z</time>
      </trkpt>
      <trkpt lat="47.1828130" lon="6.8612220">
        <ele>726.5</ele>
        <time>2022-07-21T11:41:05Z</time>
      </trkpt>
      <trkpt lat="47.1828020" lon="6.8612170">
        <ele>726.5</ele>
        <time>2022-07-21T11:41:06Z</time>
      </trkpt>
      <trkpt lat="47.1827860" lon="6.8612040">
        <ele>726.6</ele>
        <time>2022-07-21T11:41:07Z</time>
      </trkpt>
      <trkpt lat="47.1827820" lon="6.8612010">
        <ele>726.7</ele>
        <time>2022-07-21T11:41:08Z</time>
      </trkpt>
      <trkpt lat="47.1827790" lon="6.8611980">
        <ele>726.7</ele>
        <time>2022-07-21T11:41:09Z</time>
      </trkpt>
      <trkpt lat="47.1827770" lon="6.8611950">
        <ele>726.7</ele>
        <time>2022-07-21T11:41:10Z</time>
      </trkpt>
      <trkpt lat="47.1827770" lon="6.8611920">
        <ele>726.7</ele>
        <time>2022-07-21T11:41:11Z</time>
      </trkpt>
      <trkpt lat="47.1827760" lon="6.8611900">
        <ele>726.7</ele>
        <time>2022-07-21T11:41:12Z</time>
      </trkpt>
      <trkpt lat="47.1827760" lon="6.8611880">
        <ele>726.8</ele>
        <time>2022-07-21T11:41:13Z</time>
      </trkpt>
      <trkpt lat="47.1827750" lon="6.8611870">
        <ele>726.8</ele>
        <time>2022-07-21T11:41:14Z</time>
      </trkpt>
      <trkpt lat="47.1827750" lon="6.8611850">
        <ele>726.8</ele>
        <time>2022-07-21T11:41:15Z</time>
      </trkpt>
      <trkpt lat="47.1827750" lon="6.8611840">
        <ele>726.8</ele>
        <time>2022-07-21T11:41:16Z</time>
      </trkpt>
      <trkpt lat="47.1827660" lon="6.8611430">
        <ele>727.0</ele>
        <time>2022-07-21T11:41:23Z</time>
      </trkpt>
      <trkpt lat="47.1827640" lon="6.8611310">
        <ele>727.0</ele>
        <time>2022-07-21T11:41:24Z</time>
      </trkpt>
      <trkpt lat="47.1827620" lon="6.8611190">
        <ele>727.1</ele>
        <time>2022-07-21T11:41:25Z</time>
      </trkpt>
      <trkpt lat="47.1827520" lon="6.8611030">
        <ele>727.2</ele>
        <time>2022-07-21T11:41:27Z</time>
      </trkpt>
      <trkpt lat="47.1827480" lon="6.8610960">
        <ele>727.2</ele>
        <time>2022-07-21T11:41:28Z</time>
      </trkpt>
      <trkpt lat="47.1827430" lon="6.8610830">
        <ele>727.4</ele>
        <time>2022-07-21T11:41:29Z</time>
      </trkpt>
      <trkpt lat="47.1827350" lon="6.8610670">
        <ele>727.5</ele>
        <time>2022-07-21T11:41:30Z</time>
      </trkpt>
      <trkpt lat="47.1827300" lon="6.8610530">
        <ele>727.6</ele>
        <time>2022-07-21T11:41:31Z</time>
      </trkpt>
      <trkpt lat="47.1827290" lon="6.8610440">
        <ele>727.6</ele>
        <time>2022-07-21T11:41:32Z</time>
      </trkpt>
      <trkpt lat="47.1827280" lon="6.8610340">
        <ele>727.7</ele>
        <time>2022-07-21T11:41:33Z</time>
      </trkpt>
      <trkpt lat="47.1827280" lon="6.8610290">
        <ele>727.7</ele>
        <time>2022-07-21T11:41:34Z</time>
      </trkpt>
      <trkpt lat="47.1827270" lon="6.8610250">
        <ele>727.8</ele>
        <time>2022-07-21T11:41:35Z</time>
      </trkpt>
      <trkpt lat="47.1827260" lon="6.8610200">
        <ele>727.8</ele>
        <time>2022-07-21T11:41:36Z</time>
      </trkpt>
      <trkpt lat="47.1827240" lon="6.8610150">
        <ele>727.8</ele>
        <time>2022-07-21T11:41:37Z</time>
      </trkpt>
      <trkpt lat="47.1827200" lon="6.8610030">
        <ele>727.9</ele>
        <time>2022-07-21T11:41:38Z</time>
      </trkpt>
      <trkpt lat="47.1827170" lon="6.8609900">
        <ele>728.0</ele>
        <time>2022-07-21T11:41:39Z</time>
      </trkpt>
      <trkpt lat="47.1827140" lon="6.8609800">
        <ele>728.0</ele>
        <time>2022-07-21T11:41:40Z</time>
      </trkpt>
      <trkpt lat="47.1827110" lon="6.8609680">
        <ele>728.1</ele>
        <time>2022-07-21T11:41:41Z</time>
      </trkpt>
      <trkpt lat="47.1827080" lon="6.8609540">
        <ele>728.2</ele>
        <time>2022-07-21T11:41:42Z</time>
      </trkpt>
      <trkpt lat="47.1827030" lon="6.8609400">
        <ele>728.2</ele>
        <time>2022-07-21T11:41:43Z</time>
      </trkpt>
      <trkpt lat="47.1826990" lon="6.8609270">
        <ele>728.3</ele>
        <time>2022-07-21T11:41:44Z</time>
      </trkpt>
      <trkpt lat="47.1826910" lon="6.8609000">
        <ele>728.4</ele>
        <time>2022-07-21T11:41:45Z</time>
      </trkpt>
      <trkpt lat="47.1826800" lon="6.8608730">
        <ele>728.6</ele>
        <time>2022-07-21T11:41:46Z</time>
      </trkpt>
      <trkpt lat="47.1826740" lon="6.8608620">
        <ele>728.6</ele>
        <time>2022-07-21T11:41:47Z</time>
      </trkpt>
      <trkpt lat="47.1826690" lon="6.8608520">
        <ele>728.7</ele>
        <time>2022-07-21T11:41:48Z</time>
      </trkpt>
      <trkpt lat="47.1826590" lon="6.8608420">
        <ele>728.8</ele>
        <time>2022-07-21T11:41:49Z</time>
      </trkpt>
      <trkpt lat="47.1826520" lon="6.8608350">
        <ele>728.8</ele>
        <time>2022-07-21T11:41:50Z</time>
      </trkpt>
      <trkpt lat="47.1826480" lon="6.8608310">
        <ele>728.8</ele>
        <time>2022-07-21T11:41:51Z</time>
      </trkpt>
      <trkpt lat="47.1826460" lon="6.8608250">
        <ele>728.9</ele>
        <time>2022-07-21T11:41:53Z</time>
      </trkpt>
      <trkpt lat="47.1826460" lon="6.8608240">
        <ele>728.9</ele>
        <time>2022-07-21T11:41:54Z</time>
      </trkpt>
      <trkpt lat="47.1826470" lon="6.8608230">
        <ele>728.9</ele>
        <time>2022-07-21T11:41:55Z</time>
      </trkpt>
      <trkpt lat="47.1826480" lon="6.8608220">
        <ele>728.9</ele>
        <time>2022-07-21T11:41:56Z</time>
      </trkpt>
      <trkpt lat="47.1826480" lon="6.8608210">
        <ele>728.9</ele>
        <time>2022-07-21T11:41:57Z</time>
      </trkpt>
      <trkpt lat="47.1826480" lon="6.8608200">
        <ele>728.9</ele>
        <time>2022-07-21T11:41:58Z</time>
      </trkpt>
      <trkpt lat="47.1826440" lon="6.8607810">
        <ele>729.0</ele>
        <time>2022-07-21T11:41:59Z</time>
      </trkpt>
      <trkpt lat="47.1826370" lon="6.8607260">
        <ele>729.2</ele>
        <time>2022-07-21T11:42:01Z</time>
      </trkpt>
      <trkpt lat="47.1826300" lon="6.8606790">
        <ele>729.4</ele>
        <time>2022-07-21T11:42:03Z</time>
      </trkpt>
      <trkpt lat="47.1826290" lon="6.8606650">
        <ele>729.5</ele>
        <time>2022-07-21T11:42:04Z</time>
      </trkpt>
      <trkpt lat="47.1826250" lon="6.8606240">
        <ele>729.7</ele>
        <time>2022-07-21T11:42:06Z</time>
      </trkpt>
      <trkpt lat="47.1826120" lon="6.8605840">
        <ele>729.8</ele>
        <time>2022-07-21T11:42:07Z</time>
      </trkpt>
      <trkpt lat="47.1826060" lon="6.8605670">
        <ele>729.9</ele>
        <time>2022-07-21T11:42:08Z</time>
      </trkpt>
      <trkpt lat="47.1825960" lon="6.8605350">
        <ele>730.1</ele>
        <time>2022-07-21T11:42:09Z</time>
      </trkpt>
      <trkpt lat="47.1825830" lon="6.8604990">
        <ele>730.3</ele>
        <time>2022-07-21T11:42:11Z</time>
      </trkpt>
      <trkpt lat="47.1825640" lon="6.8604620">
        <ele>730.5</ele>
        <time>2022-07-21T11:42:12Z</time>
      </trkpt>
      <trkpt lat="47.1825590" lon="6.8604520">
        <ele>730.5</ele>
        <time>2022-07-21T11:42:13Z</time>
      </trkpt>
      <trkpt lat="47.1825410" lon="6.8604150">
        <ele>730.8</ele>
        <time>2022-07-21T11:42:14Z</time>
      </trkpt>
      <trkpt lat="47.1825260" lon="6.8603780">
        <ele>731.0</ele>
        <time>2022-07-21T11:42:16Z</time>
      </trkpt>
      <trkpt lat="47.1825210" lon="6.8603670">
        <ele>731.0</ele>
        <time>2022-07-21T11:42:17Z</time>
      </trkpt>
      <trkpt lat="47.1825050" lon="6.8603360">
        <ele>731.2</ele>
        <time>2022-07-21T11:42:18Z</time>
      </trkpt>
      <trkpt lat="47.1824990" lon="6.8603250">
        <ele>731.3</ele>
        <time>2022-07-21T11:42:19Z</time>
      </trkpt>
      <trkpt lat="47.1824860" lon="6.8603050">
        <ele>731.4</ele>
        <time>2022-07-21T11:42:20Z</time>
      </trkpt>
      <trkpt lat="47.1824790" lon="6.8602860">
        <ele>731.5</ele>
        <time>2022-07-21T11:42:21Z</time>
      </trkpt>
      <trkpt lat="47.1824600" lon="6.8602450">
        <ele>731.8</ele>
        <time>2022-07-21T11:42:22Z</time>
      </trkpt>
      <trkpt lat="47.1824540" lon="6.8602300">
        <ele>731.9</ele>
        <time>2022-07-21T11:42:23Z</time>
      </trkpt>
      <trkpt lat="47.1824330" lon="6.8601870">
        <ele>732.1</ele>
        <time>2022-07-21T11:42:24Z</time>
      </trkpt>
      <trkpt lat="47.1824160" lon="6.8601230">
        <ele>732.4</ele>
        <time>2022-07-21T11:42:26Z</time>
      </trkpt>
      <trkpt lat="47.1824100" lon="6.8600980">
        <ele>732.5</ele>
        <time>2022-07-21T11:42:27Z</time>
      </trkpt>
      <trkpt lat="47.1824030" lon="6.8600730">
        <ele>732.7</ele>
        <time>2022-07-21T11:42:28Z</time>
      </trkpt>
      <trkpt lat="47.1823810" lon="6.8600140">
        <ele>733.0</ele>
        <time>2022-07-21T11:42:30Z</time>
      </trkpt>
      <trkpt lat="47.1823710" lon="6.8599730">
        <ele>733.2</ele>
        <time>2022-07-21T11:42:31Z</time>
      </trkpt>
      <trkpt lat="47.1823690" lon="6.8599610">
        <ele>733.2</ele>
        <time>2022-07-21T11:42:32Z</time>
      </trkpt>
      <trkpt lat="47.1823630" lon="6.8599280">
        <ele>733.4</ele>
        <time>2022-07-21T11:42:33Z</time>
      </trkpt>
      <trkpt lat="47.1823540" lon="6.8598900">
        <ele>733.5</ele>
        <time>2022-07-21T11:42:35Z</time>
      </trkpt>
      <trkpt lat="47.1823440" lon="6.8598490">
        <ele>733.7</ele>
        <time>2022-07-21T11:42:36Z</time>
      </trkpt>
      <trkpt lat="47.1823320" lon="6.8598080">
        <ele>734.0</ele>
        <time>2022-07-21T11:42:38Z</time>
      </trkpt>
      <trkpt lat="47.1823150" lon="6.8597570">
        <ele>734.2</ele>
        <time>2022-07-21T11:42:39Z</time>
      </trkpt>
      <trkpt lat="47.1823000" lon="6.8597090">
        <ele>734.5</ele>
        <time>2022-07-21T11:42:40Z</time>
      </trkpt>
      <trkpt lat="47.1822950" lon="6.8596940">
        <ele>734.6</ele>
        <time>2022-07-21T11:42:41Z</time>
      </trkpt>
      <trkpt lat="47.1822820" lon="6.8596540">
        <ele>734.9</ele>
        <time>2022-07-21T11:42:43Z</time>
      </trkpt>
      <trkpt lat="47.1822790" lon="6.8596450">
        <ele>734.9</ele>
        <time>2022-07-21T11:42:44Z</time>
      </trkpt>
      <trkpt lat="47.1822760" lon="6.8596160">
        <ele>735.1</ele>
        <time>2022-07-21T11:42:45Z</time>
      </trkpt>
      <trkpt lat="47.1822730" lon="6.8596030">
        <ele>735.1</ele>
        <time>2022-07-21T11:42:46Z</time>
      </trkpt>
      <trkpt lat="47.1822700" lon="6.8595900">
        <ele>735.2</ele>
        <time>2022-07-21T11:42:47Z</time>
      </trkpt>
      <trkpt lat="47.1822600" lon="6.8595700">
        <ele>735.3</ele>
        <time>2022-07-21T11:42:48Z</time>
      </trkpt>
      <trkpt lat="47.1822500" lon="6.8595510">
        <ele>735.5</ele>
        <time>2022-07-21T11:42:49Z</time>
      </trkpt>
      <trkpt lat="47.1822390" lon="6.8595230">
        <ele>735.7</ele>
        <time>2022-07-21T11:42:50Z</time>
      </trkpt>
      <trkpt lat="47.1822350" lon="6.8595110">
        <ele>735.7</ele>
        <time>2022-07-21T11:42:51Z</time>
      </trkpt>
      <trkpt lat="47.1822300" lon="6.8595000">
        <ele>735.8</ele>
        <time>2022-07-21T11:42:52Z</time>
      </trkpt>
      <trkpt lat="47.1822250" lon="6.8594790">
        <ele>736.0</ele>
        <time>2022-07-21T11:42:53Z</time>
      </trkpt>
      <trkpt lat="47.1822220" lon="6.8594550">
        <ele>736.1</ele>
        <time>2022-07-21T11:42:54Z</time>
      </trkpt>
      <trkpt lat="47.1822160" lon="6.8594170">
        <ele>736.3</ele>
        <time>2022-07-21T11:42:55Z</time>
      </trkpt>
      <trkpt lat="47.1822130" lon="6.8594040">
        <ele>736.4</ele>
        <time>2022-07-21T11:42:56Z</time>
      </trkpt>
      <trkpt lat="47.1822130" lon="6.8593820">
        <ele>736.5</ele>
        <time>2022-07-21T11:42:57Z</time>
      </trkpt>
      <trkpt lat="47.1822090" lon="6.8593430">
        <ele>736.8</ele>
        <time>2022-07-21T11:42:59Z</time>
      </trkpt>
      <trkpt lat="47.1822040" lon="6.8592890">
        <ele>737.1</ele>
        <time>2022-07-21T11:43:00Z</time>
      </trkpt>
      <trkpt lat="47.1822030" lon="6.8592710">
        <ele>737.2</ele>
        <time>2022-07-21T11:43:01Z</time>
      </trkpt>
      <trkpt lat="47.1822020" lon="6.8592270">
        <ele>737.4</ele>
        <time>2022-07-21T11:43:03Z</time>
      </trkpt>
      <trkpt lat="47.1822020" lon="6.8592110">
        <ele>737.5</ele>
        <time>2022-07-21T11:43:04Z</time>
      </trkpt>
      <trkpt lat="47.1822120" lon="6.8591580">
        <ele>737.8</ele>
        <time>2022-07-21T11:43:05Z</time>
      </trkpt>
      <trkpt lat="47.1822170" lon="6.8591350">
        <ele>738.0</ele>
        <time>2022-07-21T11:43:06Z</time>
      </trkpt>
      <trkpt lat="47.1822250" lon="6.8590920">
        <ele>738.2</ele>
        <time>2022-07-21T11:43:07Z</time>
      </trkpt>
      <trkpt lat="47.1822270" lon="6.8590490">
        <ele>738.5</ele>
        <time>2022-07-21T11:43:08Z</time>
      </trkpt>
      <trkpt lat="47.1822280" lon="6.8590350">
        <ele>738.5</ele>
        <time>2022-07-21T11:43:09Z</time>
      </trkpt>
      <trkpt lat="47.1822300" lon="6.8590060">
        <ele>738.7</ele>
        <time>2022-07-21T11:43:10Z</time>
      </trkpt>
      <trkpt lat="47.1822240" lon="6.8589870">
        <ele>738.8</ele>
        <time>2022-07-21T11:43:11Z</time>
      </trkpt>
      <trkpt lat="47.1822090" lon="6.8589540">
        <ele>739.0</ele>
        <time>2022-07-21T11:43:12Z</time>
      </trkpt>
      <trkpt lat="47.1822050" lon="6.8589060">
        <ele>739.3</ele>
        <time>2022-07-21T11:43:14Z</time>
      </trkpt>
      <trkpt lat="47.1821980" lon="6.8588870">
        <ele>739.4</ele>
        <time>2022-07-21T11:43:15Z</time>
      </trkpt>
      <trkpt lat="47.1821940" lon="6.8588560">
        <ele>739.5</ele>
        <time>2022-07-21T11:43:17Z</time>
      </trkpt>
      <trkpt lat="47.1821900" lon="6.8588310">
        <ele>739.7</ele>
        <time>2022-07-21T11:43:18Z</time>
      </trkpt>
      <trkpt lat="47.1821810" lon="6.8588140">
        <ele>739.8</ele>
        <time>2022-07-21T11:43:19Z</time>
      </trkpt>
      <trkpt lat="47.1821720" lon="6.8587980">
        <ele>739.9</ele>
        <time>2022-07-21T11:43:20Z</time>
      </trkpt>
      <trkpt lat="47.1821680" lon="6.8587780">
        <ele>740.0</ele>
        <time>2022-07-21T11:43:21Z</time>
      </trkpt>
      <trkpt lat="47.1821730" lon="6.8587190">
        <ele>740.3</ele>
        <time>2022-07-21T11:43:22Z</time>
      </trkpt>
      <trkpt lat="47.1821760" lon="6.8586980">
        <ele>740.4</ele>
        <time>2022-07-21T11:43:23Z</time>
      </trkpt>
      <trkpt lat="47.1822020" lon="6.8586450">
        <ele>740.7</ele>
        <time>2022-07-21T11:43:25Z</time>
      </trkpt>
      <trkpt lat="47.1822090" lon="6.8586000">
        <ele>741.0</ele>
        <time>2022-07-21T11:43:26Z</time>
      </trkpt>
      <trkpt lat="47.1822140" lon="6.8585540">
        <ele>741.2</ele>
        <time>2022-07-21T11:43:27Z</time>
      </trkpt>
      <trkpt lat="47.1822170" lon="6.8585080">
        <ele>741.5</ele>
        <time>2022-07-21T11:43:29Z</time>
      </trkpt>
      <trkpt lat="47.1822190" lon="6.8584920">
        <ele>741.6</ele>
        <time>2022-07-21T11:43:30Z</time>
      </trkpt>
      <trkpt lat="47.1822220" lon="6.8584700">
        <ele>741.8</ele>
        <time>2022-07-21T11:43:31Z</time>
      </trkpt>
      <trkpt lat="47.1822230" lon="6.8584520">
        <ele>741.9</ele>
        <time>2022-07-21T11:43:32Z</time>
      </trkpt>
      <trkpt lat="47.1822230" lon="6.8584420">
        <ele>741.9</ele>
        <time>2022-07-21T11:43:33Z</time>
      </trkpt>
      <trkpt lat="47.1822240" lon="6.8584380">
        <ele>742.0</ele>
        <time>2022-07-21T11:43:34Z</time>
      </trkpt>
      <trkpt lat="47.1822250" lon="6.8584330">
        <ele>742.0</ele>
        <time>2022-07-21T11:43:35Z</time>
      </trkpt>
      <trkpt lat="47.1822270" lon="6.8584240">
        <ele>742.0</ele>
        <time>2022-07-21T11:43:36Z</time>
      </trkpt>
      <trkpt lat="47.1822310" lon="6.8584110">
        <ele>742.1</ele>
        <time>2022-07-21T11:43:37Z</time>
      </trkpt>
      <trkpt lat="47.1822330" lon="6.8584030">
        <ele>742.2</ele>
        <time>2022-07-21T11:43:38Z</time>
      </trkpt>
      <trkpt lat="47.1822340" lon="6.8584000">
        <ele>742.2</ele>
        <time>2022-07-21T11:43:39Z</time>
      </trkpt>
      <trkpt lat="47.1822360" lon="6.8583940">
        <ele>742.2</ele>
        <time>2022-07-21T11:43:40Z</time>
      </trkpt>
      <trkpt lat="47.1822400" lon="6.8583850">
        <ele>742.3</ele>
        <time>2022-07-21T11:43:41Z</time>
      </trkpt>
      <trkpt lat="47.1822430" lon="6.8583730">
        <ele>742.4</ele>
        <time>2022-07-21T11:43:42Z</time>
      </trkpt>
      <trkpt lat="47.1822440" lon="6.8583660">
        <ele>742.4</ele>
        <time>2022-07-21T11:43:43Z</time>
      </trkpt>
      <trkpt lat="47.1822450" lon="6.8583580">
        <ele>742.5</ele>
        <time>2022-07-21T11:43:44Z</time>
      </trkpt>
      <trkpt lat="47.1822430" lon="6.8583530">
        <ele>742.5</ele>
        <time>2022-07-21T11:43:45Z</time>
      </trkpt>
      <trkpt lat="47.1822420" lon="6.8583470">
        <ele>742.6</ele>
        <time>2022-07-21T11:43:46Z</time>
      </trkpt>
      <trkpt lat="47.1822410" lon="6.8583380">
        <ele>742.6</ele>
        <time>2022-07-21T11:43:47Z</time>
      </trkpt>
      <trkpt lat="47.1822390" lon="6.8583300">
        <ele>742.7</ele>
        <time>2022-07-21T11:43:48Z</time>
      </trkpt>
      <trkpt lat="47.1822370" lon="6.8583250">
        <ele>742.7</ele>
        <time>2022-07-21T11:43:49Z</time>
      </trkpt>
      <trkpt lat="47.1822340" lon="6.8583180">
        <ele>742.8</ele>
        <time>2022-07-21T11:43:50Z</time>
      </trkpt>
      <trkpt lat="47.1822320" lon="6.8583120">
        <ele>742.8</ele>
        <time>2022-07-21T11:43:51Z</time>
      </trkpt>
      <trkpt lat="47.1822220" lon="6.8582950">
        <ele>742.9</ele>
        <time>2022-07-21T11:43:52Z</time>
      </trkpt>
      <trkpt lat="47.1822160" lon="6.8582860">
        <ele>743.0</ele>
        <time>2022-07-21T11:43:53Z</time>
      </trkpt>
      <trkpt lat="47.1822130" lon="6.8582780">
        <ele>743.1</ele>
        <time>2022-07-21T11:43:54Z</time>
      </trkpt>
      <trkpt lat="47.1822130" lon="6.8582740">
        <ele>743.1</ele>
        <time>2022-07-21T11:43:55Z</time>
      </trkpt>
      <trkpt lat="47.1822120" lon="6.8582670">
        <ele>743.1</ele>
        <time>2022-07-21T11:43:56Z</time>
      </trkpt>
      <trkpt lat="47.1822100" lon="6.8582610">
        <ele>743.2</ele>
        <time>2022-07-21T11:43:57Z</time>
      </trkpt>
      <trkpt lat="47.1822090" lon="6.8582510">
        <ele>743.2</ele>
        <time>2022-07-21T11:43:58Z</time>
      </trkpt>
      <trkpt lat="47.1822080" lon="6.8582230">
        <ele>743.4</ele>
        <time>2022-07-21T11:43:59Z</time>
      </trkpt>
      <trkpt lat="47.1822060" lon="6.8582030">
        <ele>743.5</ele>
        <time>2022-07-21T11:44:01Z</time>
      </trkpt>
      <trkpt lat="47.1822040" lon="6.8581820">
        <ele>743.6</ele>
        <time>2022-07-21T11:44:02Z</time>
      </trkpt>
      <trkpt lat="47.1822010" lon="6.8581620">
        <ele>743.7</ele>
        <time>2022-07-21T11:44:03Z</time>
      </trkpt>
      <trkpt lat="47.1821990" lon="6.8581410">
        <ele>743.8</ele>
        <time>2022-07-21T11:44:29Z</time>
      </trkpt>
      <trkpt lat="47.1821970" lon="6.8581210">
        <ele>743.9</ele>
        <time>2022-07-21T11:44:30Z</time>
      </trkpt>
      <trkpt lat="47.1821950" lon="6.8581000">
        <ele>744.0</ele>
        <time>2022-07-21T11:44:31Z</time>
      </trkpt>
      <trkpt lat="47.1821910" lon="6.8580540">
        <ele>744.1</ele>
        <time>2022-07-21T11:44:32Z</time>
      </trkpt>
      <trkpt lat="47.1821890" lon="6.8580400">
        <ele>744.2</ele>
        <time>2022-07-21T11:44:33Z</time>
      </trkpt>
      <trkpt lat="47.1821790" lon="6.8579910">
        <ele>744.4</ele>
        <time>2022-07-21T11:44:34Z</time>
      </trkpt>
      <trkpt lat="47.1821760" lon="6.8579770">
        <ele>744.5</ele>
        <time>2022-07-21T11:44:35Z</time>
      </trkpt>
      <trkpt lat="47.1821630" lon="6.8579530">
        <ele>744.6</ele>
        <time>2022-07-21T11:44:36Z</time>
      </trkpt>
      <trkpt lat="47.1821500" lon="6.8579230">
        <ele>744.7</ele>
        <time>2022-07-21T11:44:38Z</time>
      </trkpt>
      <trkpt lat="47.1821340" lon="6.8578830">
        <ele>744.9</ele>
        <time>2022-07-21T11:44:39Z</time>
      </trkpt>
      <trkpt lat="47.1821270" lon="6.8578420">
        <ele>745.1</ele>
        <time>2022-07-21T11:44:40Z</time>
      </trkpt>
      <trkpt lat="47.1821190" lon="6.8577900">
        <ele>745.3</ele>
        <time>2022-07-21T11:44:41Z</time>
      </trkpt>
      <trkpt lat="47.1821170" lon="6.8577720">
        <ele>745.4</ele>
        <time>2022-07-21T11:44:42Z</time>
      </trkpt>
      <trkpt lat="47.1821160" lon="6.8577300">
        <ele>745.5</ele>
        <time>2022-07-21T11:44:44Z</time>
      </trkpt>
      <trkpt lat="47.1821130" lon="6.8576750">
        <ele>745.8</ele>
        <time>2022-07-21T11:44:45Z</time>
      </trkpt>
      <trkpt lat="47.1821080" lon="6.8576120">
        <ele>746.1</ele>
        <time>2022-07-21T11:44:46Z</time>
      </trkpt>
      <trkpt lat="47.1821080" lon="6.8575650">
        <ele>746.3</ele>
        <time>2022-07-21T11:44:47Z</time>
      </trkpt>
      <trkpt lat="47.1821090" lon="6.8575550">
        <ele>746.3</ele>
        <time>2022-07-21T11:44:48Z</time>
      </trkpt>
      <trkpt lat="47.1821110" lon="6.8575110">
        <ele>746.5</ele>
        <time>2022-07-21T11:44:50Z</time>
      </trkpt>
      <trkpt lat="47.1821080" lon="6.8574700">
        <ele>746.7</ele>
        <time>2022-07-21T11:44:51Z</time>
      </trkpt>
      <trkpt lat="47.1821050" lon="6.8574210">
        <ele>747.0</ele>
        <time>2022-07-21T11:44:53Z</time>
      </trkpt>
      <trkpt lat="47.1821110" lon="6.8573790">
        <ele>747.2</ele>
        <time>2022-07-21T11:44:54Z</time>
      </trkpt>
      <trkpt lat="47.1821180" lon="6.8573310">
        <ele>747.4</ele>
        <time>2022-07-21T11:44:55Z</time>
      </trkpt>
      <trkpt lat="47.1821200" lon="6.8573140">
        <ele>747.5</ele>
        <time>2022-07-21T11:44:56Z</time>
      </trkpt>
      <trkpt lat="47.1821290" lon="6.8572630">
        <ele>747.8</ele>
        <time>2022-07-21T11:44:57Z</time>
      </trkpt>
      <trkpt lat="47.1821350" lon="6.8572100">
        <ele>748.0</ele>
        <time>2022-07-21T11:44:58Z</time>
      </trkpt>
      <trkpt lat="47.1821430" lon="6.8571370">
        <ele>748.4</ele>
        <time>2022-07-21T11:45:00Z</time>
      </trkpt>
      <trkpt lat="47.1821460" lon="6.8571120">
        <ele>748.6</ele>
        <time>2022-07-21T11:45:01Z</time>
      </trkpt>
      <trkpt lat="47.1821480" lon="6.8570880">
        <ele>748.7</ele>
        <time>2022-07-21T11:45:02Z</time>
      </trkpt>
      <trkpt lat="47.1821720" lon="6.8570240">
        <ele>749.1</ele>
        <time>2022-07-21T11:45:04Z</time>
      </trkpt>
      <trkpt lat="47.1821780" lon="6.8570030">
        <ele>749.2</ele>
        <time>2022-07-21T11:45:05Z</time>
      </trkpt>
      <trkpt lat="47.1821850" lon="6.8569820">
        <ele>749.4</ele>
        <time>2022-07-21T11:45:06Z</time>
      </trkpt>
      <trkpt lat="47.1821890" lon="6.8569430">
        <ele>749.6</ele>
        <time>2022-07-21T11:45:07Z</time>
      </trkpt>
      <trkpt lat="47.1821910" lon="6.8568950">
        <ele>749.8</ele>
        <time>2022-07-21T11:45:09Z</time>
      </trkpt>
      <trkpt lat="47.1821890" lon="6.8568750">
        <ele>749.9</ele>
        <time>2022-07-21T11:45:10Z</time>
      </trkpt>
      <trkpt lat="47.1821890" lon="6.8568280">
        <ele>750.2</ele>
        <time>2022-07-21T11:45:11Z</time>
      </trkpt>
      <trkpt lat="47.1821910" lon="6.8567750">
        <ele>750.4</ele>
        <time>2022-07-21T11:45:13Z</time>
      </trkpt>
      <trkpt lat="47.1821910" lon="6.8567560">
        <ele>750.5</ele>
        <time>2022-07-21T11:45:14Z</time>
      </trkpt>
      <trkpt lat="47.1821930" lon="6.8567030">
        <ele>750.8</ele>
        <time>2022-07-21T11:45:15Z</time>
      </trkpt>
      <trkpt lat="47.1821950" lon="6.8566780">
        <ele>750.9</ele>
        <time>2022-07-21T11:45:16Z</time>
      </trkpt>
      <trkpt lat="47.1821940" lon="6.8566400">
        <ele>751.1</ele>
        <time>2022-07-21T11:45:18Z</time>
      </trkpt>
      <trkpt lat="47.1821950" lon="6.8566210">
        <ele>751.2</ele>
        <time>2022-07-21T11:45:19Z</time>
      </trkpt>
      <trkpt lat="47.1821880" lon="6.8565740">
        <ele>751.4</ele>
        <time>2022-07-21T11:45:20Z</time>
      </trkpt>
      <trkpt lat="47.1821850" lon="6.8565590">
        <ele>751.5</ele>
        <time>2022-07-21T11:45:21Z</time>
      </trkpt>
      <trkpt lat="47.1821770" lon="6.8565170">
        <ele>751.7</ele>
        <time>2022-07-21T11:45:22Z</time>
      </trkpt>
      <trkpt lat="47.1821680" lon="6.8564700">
        <ele>751.9</ele>
        <time>2022-07-21T11:45:24Z</time>
      </trkpt>
      <trkpt lat="47.1821670" lon="6.8564610">
        <ele>751.9</ele>
        <time>2022-07-21T11:45:25Z</time>
      </trkpt>
      <trkpt lat="47.1821650" lon="6.8564180">
        <ele>752.2</ele>
        <time>2022-07-21T11:45:26Z</time>
      </trkpt>
      <trkpt lat="47.1821710" lon="6.8564050">
        <ele>752.2</ele>
        <time>2022-07-21T11:45:27Z</time>
      </trkpt>
      <trkpt lat="47.1821810" lon="6.8563640">
        <ele>752.5</ele>
        <time>2022-07-21T11:45:29Z</time>
      </trkpt>
      <trkpt lat="47.1821860" lon="6.8563100">
        <ele>752.8</ele>
        <time>2022-07-21T11:45:30Z</time>
      </trkpt>
      <trkpt lat="47.1821950" lon="6.8562380">
        <ele>753.2</ele>
        <time>2022-07-21T11:45:32Z</time>
      </trkpt>
      <trkpt lat="47.1821970" lon="6.8562170">
        <ele>753.3</ele>
        <time>2022-07-21T11:45:33Z</time>
      </trkpt>
      <trkpt lat="47.1821980" lon="6.8561960">
        <ele>753.5</ele>
        <time>2022-07-21T11:45:34Z</time>
      </trkpt>
      <trkpt lat="47.1821890" lon="6.8561500">
        <ele>753.7</ele>
        <time>2022-07-21T11:45:35Z</time>
      </trkpt>
      <trkpt lat="47.1821840" lon="6.8561330">
        <ele>753.8</ele>
        <time>2022-07-21T11:45:36Z</time>
      </trkpt>
      <trkpt lat="47.1821790" lon="6.8560770">
        <ele>754.2</ele>
        <time>2022-07-21T11:45:37Z</time>
      </trkpt>
      <trkpt lat="47.1821780" lon="6.8560520">
        <ele>754.3</ele>
        <time>2022-07-21T11:45:38Z</time>
      </trkpt>
      <trkpt lat="47.1821710" lon="6.8559910">
        <ele>754.6</ele>
        <time>2022-07-21T11:45:39Z</time>
      </trkpt>
      <trkpt lat="47.1821510" lon="6.8559260">
        <ele>755.0</ele>
        <time>2022-07-21T11:45:41Z</time>
      </trkpt>
      <trkpt lat="47.1821420" lon="6.8559080">
        <ele>755.1</ele>
        <time>2022-07-21T11:45:42Z</time>
      </trkpt>
      <trkpt lat="47.1821330" lon="6.8558890">
        <ele>755.2</ele>
        <time>2022-07-21T11:45:43Z</time>
      </trkpt>
      <trkpt lat="47.1821060" lon="6.8558430">
        <ele>755.5</ele>
        <time>2022-07-21T11:45:44Z</time>
      </trkpt>
      <trkpt lat="47.1820950" lon="6.8558260">
        <ele>755.7</ele>
        <time>2022-07-21T11:45:45Z</time>
      </trkpt>
      <trkpt lat="47.1820780" lon="6.8557930">
        <ele>755.9</ele>
        <time>2022-07-21T11:45:46Z</time>
      </trkpt>
      <trkpt lat="47.1820630" lon="6.8557560">
        <ele>756.1</ele>
        <time>2022-07-21T11:45:47Z</time>
      </trkpt>
      <trkpt lat="47.1820520" lon="6.8557230">
        <ele>756.4</ele>
        <time>2022-07-21T11:45:48Z</time>
      </trkpt>
      <trkpt lat="47.1820480" lon="6.8556960">
        <ele>756.5</ele>
        <time>2022-07-21T11:45:50Z</time>
      </trkpt>
      <trkpt lat="47.1820370" lon="6.8556560">
        <ele>756.7</ele>
        <time>2022-07-21T11:45:51Z</time>
      </trkpt>
      <trkpt lat="47.1820330" lon="6.8556120">
        <ele>757.0</ele>
        <time>2022-07-21T11:45:52Z</time>
      </trkpt>
      <trkpt lat="47.1820330" lon="6.8556000">
        <ele>757.1</ele>
        <time>2022-07-21T11:45:53Z</time>
      </trkpt>
      <trkpt lat="47.1820350" lon="6.8555860">
        <ele>757.1</ele>
        <time>2022-07-21T11:45:54Z</time>
      </trkpt>
      <trkpt lat="47.1820440" lon="6.8555620">
        <ele>757.3</ele>
        <time>2022-07-21T11:45:55Z</time>
      </trkpt>
      <trkpt lat="47.1820520" lon="6.8555630">
        <ele>757.4</ele>
        <time>2022-07-21T11:45:56Z</time>
      </trkpt>
      <trkpt lat="47.1820540" lon="6.8555700">
        <ele>757.4</ele>
        <time>2022-07-21T11:45:57Z</time>
      </trkpt>
      <trkpt lat="47.1820550" lon="6.8555760">
        <ele>757.4</ele>
        <time>2022-07-21T11:45:59Z</time>
      </trkpt>
      <trkpt lat="47.1820570" lon="6.8555830">
        <ele>757.5</ele>
        <time>2022-07-21T11:46:00Z</time>
      </trkpt>
      <trkpt lat="47.1820590" lon="6.8555890">
        <ele>757.5</ele>
        <time>2022-07-21T11:46:02Z</time>
      </trkpt>
      <trkpt lat="47.1820600" lon="6.8555950">
        <ele>757.6</ele>
        <time>2022-07-21T11:46:03Z</time>
      </trkpt>
      <trkpt lat="47.1820620" lon="6.8556020">
        <ele>757.6</ele>
        <time>2022-07-21T11:46:05Z</time>
      </trkpt>
      <trkpt lat="47.1820640" lon="6.8556080">
        <ele>757.7</ele>
        <time>2022-07-21T11:46:06Z</time>
      </trkpt>
      <trkpt lat="47.1820850" lon="6.8556350">
        <ele>757.9</ele>
        <time>2022-07-21T11:46:07Z</time>
      </trkpt>
      <trkpt lat="47.1820940" lon="6.8556440">
        <ele>758.0</ele>
        <time>2022-07-21T11:46:08Z</time>
      </trkpt>
      <trkpt lat="47.1821010" lon="6.8556700">
        <ele>758.2</ele>
        <time>2022-07-21T11:46:09Z</time>
      </trkpt>
      <trkpt lat="47.1821120" lon="6.8557010">
        <ele>758.4</ele>
        <time>2022-07-21T11:46:11Z</time>
      </trkpt>
      <trkpt lat="47.1821480" lon="6.8557160">
        <ele>758.9</ele>
        <time>2022-07-21T11:46:12Z</time>
      </trkpt>
      <trkpt lat="47.1821590" lon="6.8557190">
        <ele>759.0</ele>
        <time>2022-07-21T11:46:13Z</time>
      </trkpt>
      <trkpt lat="47.1821890" lon="6.8557120">
        <ele>759.3</ele>
        <time>2022-07-21T11:46:14Z</time>
      </trkpt>
      <trkpt lat="47.1822100" lon="6.8557060">
        <ele>759.6</ele>
        <time>2022-07-21T11:46:15Z</time>
      </trkpt>
      <trkpt lat="47.1822370" lon="6.8557160">
        <ele>759.9</ele>
        <time>2022-07-21T11:46:17Z</time>
      </trkpt>
      <trkpt lat="47.1822690" lon="6.8557310">
        <ele>760.3</ele>
        <time>2022-07-21T11:46:18Z</time>
      </trkpt>
      <trkpt lat="47.1822800" lon="6.8557360">
        <ele>760.5</ele>
        <time>2022-07-21T11:46:19Z</time>
      </trkpt>
      <trkpt lat="47.1823120" lon="6.8557560">
        <ele>760.9</ele>
        <time>2022-07-21T11:46:21Z</time>
      </trkpt>
      <trkpt lat="47.1823200" lon="6.8557620">
        <ele>761.0</ele>
        <time>2022-07-21T11:46:22Z</time>
      </trkpt>
      <trkpt lat="47.1823350" lon="6.8557810">
        <ele>761.2</ele>
        <time>2022-07-21T11:46:23Z</time>
      </trkpt>
      <trkpt lat="47.1823460" lon="6.8558050">
        <ele>761.4</ele>
        <time>2022-07-21T11:46:25Z</time>
      </trkpt>
      <trkpt lat="47.1823610" lon="6.8558370">
        <ele>761.7</ele>
        <time>2022-07-21T11:46:26Z</time>
      </trkpt>
      <trkpt lat="47.1823670" lon="6.8558500">
        <ele>761.8</ele>
        <time>2022-07-21T11:46:27Z</time>
      </trkpt>
      <trkpt lat="47.1823800" lon="6.8558610">
        <ele>761.9</ele>
        <time>2022-07-21T11:46:28Z</time>
      </trkpt>
      <trkpt lat="47.1824040" lon="6.8558770">
        <ele>762.2</ele>
        <time>2022-07-21T11:46:30Z</time>
      </trkpt>
      <trkpt lat="47.1824300" lon="6.8558940">
        <ele>762.4</ele>
        <time>2022-07-21T11:46:31Z</time>
      </trkpt>
      <trkpt lat="47.1824370" lon="6.8559000">
        <ele>762.5</ele>
        <time>2022-07-21T11:46:32Z</time>
      </trkpt>
      <trkpt lat="47.1824530" lon="6.8559330">
        <ele>762.8</ele>
        <time>2022-07-21T11:46:33Z</time>
      </trkpt>
      <trkpt lat="47.1824580" lon="6.8559490">
        <ele>762.9</ele>
        <time>2022-07-21T11:46:34Z</time>
      </trkpt>
      <trkpt lat="47.1824790" lon="6.8559810">
        <ele>763.2</ele>
        <time>2022-07-21T11:46:35Z</time>
      </trkpt>
      <trkpt lat="47.1824860" lon="6.8559900">
        <ele>763.2</ele>
        <time>2022-07-21T11:46:36Z</time>
      </trkpt>
      <trkpt lat="47.1825000" lon="6.8560220">
        <ele>763.5</ele>
        <time>2022-07-21T11:46:37Z</time>
      </trkpt>
      <trkpt lat="47.1825070" lon="6.8560420">
        <ele>763.7</ele>
        <time>2022-07-21T11:46:38Z</time>
      </trkpt>
      <trkpt lat="47.1825170" lon="6.8560620">
        <ele>763.9</ele>
        <time>2022-07-21T11:46:40Z</time>
      </trkpt>
      <trkpt lat="47.1825260" lon="6.8560830">
        <ele>764.1</ele>
        <time>2022-07-21T11:46:41Z</time>
      </trkpt>
      <trkpt lat="47.1825260" lon="6.8561420">
        <ele>764.5</ele>
        <time>2022-07-21T11:46:42Z</time>
      </trkpt>
      <trkpt lat="47.1825260" lon="6.8561620">
        <ele>764.7</ele>
        <time>2022-07-21T11:46:43Z</time>
      </trkpt>
      <trkpt lat="47.1825130" lon="6.8562270">
        <ele>765.3</ele>
        <time>2022-07-21T11:46:44Z</time>
      </trkpt>
      <trkpt lat="47.1825020" lon="6.8563020">
        <ele>766.0</ele>
        <time>2022-07-21T11:46:46Z</time>
      </trkpt>
      <trkpt lat="47.1825070" lon="6.8563470">
        <ele>766.4</ele>
        <time>2022-07-21T11:46:47Z</time>
      </trkpt>
      <trkpt lat="47.1825100" lon="6.8563680">
        <ele>766.5</ele>
        <time>2022-07-21T11:46:48Z</time>
      </trkpt>
      <trkpt lat="47.1825150" lon="6.8564110">
        <ele>766.9</ele>
        <time>2022-07-21T11:46:50Z</time>
      </trkpt>
      <trkpt lat="47.1825240" lon="6.8564370">
        <ele>767.1</ele>
        <time>2022-07-21T11:46:51Z</time>
      </trkpt>
      <trkpt lat="47.1825280" lon="6.8564580">
        <ele>767.3</ele>
        <time>2022-07-21T11:46:52Z</time>
      </trkpt>
      <trkpt lat="47.1825280" lon="6.8564970">
        <ele>767.6</ele>
        <time>2022-07-21T11:46:53Z</time>
      </trkpt>
      <trkpt lat="47.1825230" lon="6.8565490">
        <ele>768.0</ele>
        <time>2022-07-21T11:46:55Z</time>
      </trkpt>
      <trkpt lat="47.1825150" lon="6.8565980">
        <ele>768.3</ele>
        <time>2022-07-21T11:46:56Z</time>
      </trkpt>
      <trkpt lat="47.1825130" lon="6.8566210">
        <ele>768.5</ele>
        <time>2022-07-21T11:46:57Z</time>
      </trkpt>
      <trkpt lat="47.1825170" lon="6.8566480">
        <ele>768.7</ele>
        <time>2022-07-21T11:46:58Z</time>
      </trkpt>
      <trkpt lat="47.1825270" lon="6.8566990">
        <ele>769.1</ele>
        <time>2022-07-21T11:47:00Z</time>
      </trkpt>
      <trkpt lat="47.1825290" lon="6.8567150">
        <ele>769.2</ele>
        <time>2022-07-21T11:47:01Z</time>
      </trkpt>
      <trkpt lat="47.1825300" lon="6.8567710">
        <ele>769.5</ele>
        <time>2022-07-21T11:47:02Z</time>
      </trkpt>
      <trkpt lat="47.1825290" lon="6.8567960">
        <ele>769.7</ele>
        <time>2022-07-21T11:47:03Z</time>
      </trkpt>
      <trkpt lat="47.1825190" lon="6.8568680">
        <ele>770.1</ele>
        <time>2022-07-21T11:47:05Z</time>
      </trkpt>
      <trkpt lat="47.1825090" lon="6.8569160">
        <ele>770.4</ele>
        <time>2022-07-21T11:47:06Z</time>
      </trkpt>
      <trkpt lat="47.1825060" lon="6.8569290">
        <ele>770.4</ele>
        <time>2022-07-21T11:47:07Z</time>
      </trkpt>
      <trkpt lat="47.1825010" lon="6.8569700">
        <ele>770.7</ele>
        <time>2022-07-21T11:47:08Z</time>
      </trkpt>
      <trkpt lat="47.1824990" lon="6.8569840">
        <ele>770.7</ele>
        <time>2022-07-21T11:47:09Z</time>
      </trkpt>
      <trkpt lat="47.1824980" lon="6.8570320">
        <ele>771.0</ele>
        <time>2022-07-21T11:47:10Z</time>
      </trkpt>
      <trkpt lat="47.1824980" lon="6.8570450">
        <ele>771.1</ele>
        <time>2022-07-21T11:47:11Z</time>
      </trkpt>
      <trkpt lat="47.1825040" lon="6.8570850">
        <ele>771.3</ele>
        <time>2022-07-21T11:47:13Z</time>
      </trkpt>
      <trkpt lat="47.1825070" lon="6.8571140">
        <ele>771.4</ele>
        <time>2022-07-21T11:47:14Z</time>
      </trkpt>
      <trkpt lat="47.1825090" lon="6.8571330">
        <ele>771.6</ele>
        <time>2022-07-21T11:47:15Z</time>
      </trkpt>
      <trkpt lat="47.1825140" lon="6.8571720">
        <ele>771.8</ele>
        <time>2022-07-21T11:47:16Z</time>
      </trkpt>
      <trkpt lat="47.1825180" lon="6.8571940">
        <ele>771.9</ele>
        <time>2022-07-21T11:47:17Z</time>
      </trkpt>
      <trkpt lat="47.1825270" lon="6.8572500">
        <ele>772.2</ele>
        <time>2022-07-21T11:47:19Z</time>
      </trkpt>
      <trkpt lat="47.1825290" lon="6.8572690">
        <ele>772.3</ele>
        <time>2022-07-21T11:47:20Z</time>
      </trkpt>
      <trkpt lat="47.1825370" lon="6.8572900">
        <ele>772.5</ele>
        <time>2022-07-21T11:47:21Z</time>
      </trkpt>
      <trkpt lat="47.1825530" lon="6.8573320">
        <ele>772.8</ele>
        <time>2022-07-21T11:47:23Z</time>
      </trkpt>
      <trkpt lat="47.1825570" lon="6.8573410">
        <ele>772.9</ele>
        <time>2022-07-21T11:47:24Z</time>
      </trkpt>
      <trkpt lat="47.1825640" lon="6.8573580">
        <ele>773.0</ele>
        <time>2022-07-21T11:47:25Z</time>
      </trkpt>
      <trkpt lat="47.1825690" lon="6.8573780">
        <ele>773.1</ele>
        <time>2022-07-21T11:47:26Z</time>
      </trkpt>
      <trkpt lat="47.1825750" lon="6.8574180">
        <ele>773.4</ele>
        <time>2022-07-21T11:47:27Z</time>
      </trkpt>
      <trkpt lat="47.1825820" lon="6.8574390">
        <ele>773.5</ele>
        <time>2022-07-21T11:47:28Z</time>
      </trkpt>
      <trkpt lat="47.1825880" lon="6.8574640">
        <ele>773.7</ele>
        <time>2022-07-21T11:47:29Z</time>
      </trkpt>
      <trkpt lat="47.1825950" lon="6.8574980">
        <ele>773.9</ele>
        <time>2022-07-21T11:47:31Z</time>
      </trkpt>
      <trkpt lat="47.1825960" lon="6.8575110">
        <ele>774.0</ele>
        <time>2022-07-21T11:47:32Z</time>
      </trkpt>
      <trkpt lat="47.1825930" lon="6.8575400">
        <ele>774.1</ele>
        <time>2022-07-21T11:47:33Z</time>
      </trkpt>
      <trkpt lat="47.1825900" lon="6.8575610">
        <ele>774.3</ele>
        <time>2022-07-21T11:47:34Z</time>
      </trkpt>
      <trkpt lat="47.1825860" lon="6.8575820">
        <ele>774.4</ele>
        <time>2022-07-21T11:47:35Z</time>
      </trkpt>
      <trkpt lat="47.1825830" lon="6.8576030">
        <ele>774.5</ele>
        <time>2022-07-21T11:47:36Z</time>
      </trkpt>
      <trkpt lat="47.1825790" lon="6.8576250">
        <ele>774.7</ele>
        <time>2022-07-21T11:47:37Z</time>
      </trkpt>
      <trkpt lat="47.1825760" lon="6.8576460">
        <ele>774.8</ele>
        <time>2022-07-21T11:47:39Z</time>
      </trkpt>
      <trkpt lat="47.1825720" lon="6.8576670">
        <ele>775.0</ele>
        <time>2022-07-21T11:48:13Z</time>
      </trkpt>
      <trkpt lat="47.1825690" lon="6.8576880">
        <ele>775.1</ele>
        <time>2022-07-21T11:48:14Z</time>
      </trkpt>
      <trkpt lat="47.1825650" lon="6.8577100">
        <ele>775.2</ele>
        <time>2022-07-21T11:48:16Z</time>
      </trkpt>
      <trkpt lat="47.1825620" lon="6.8577310">
        <ele>775.4</ele>
        <time>2022-07-21T11:48:17Z</time>
      </trkpt>
      <trkpt lat="47.1825730" lon="6.8577740">
        <ele>775.7</ele>
        <time>2022-07-21T11:48:18Z</time>
      </trkpt>
      <trkpt lat="47.1825780" lon="6.8577950">
        <ele>775.8</ele>
        <time>2022-07-21T11:48:20Z</time>
      </trkpt>
      <trkpt lat="47.1825830" lon="6.8578160">
        <ele>775.9</ele>
        <time>2022-07-21T11:48:21Z</time>
      </trkpt>
      <trkpt lat="47.1825880" lon="6.8578370">
        <ele>776.0</ele>
        <time>2022-07-21T11:48:22Z</time>
      </trkpt>
      <trkpt lat="47.1826030" lon="6.8579040">
        <ele>776.4</ele>
        <time>2022-07-21T11:48:23Z</time>
      </trkpt>
      <trkpt lat="47.1826170" lon="6.8579600">
        <ele>776.7</ele>
        <time>2022-07-21T11:48:24Z</time>
      </trkpt>
      <trkpt lat="47.1826230" lon="6.8579810">
        <ele>776.8</ele>
        <time>2022-07-21T11:48:25Z</time>
      </trkpt>
      <trkpt lat="47.1826280" lon="6.8580010">
        <ele>776.9</ele>
        <time>2022-07-21T11:48:27Z</time>
      </trkpt>
      <trkpt lat="47.1826350" lon="6.8580270">
        <ele>777.1</ele>
        <time>2022-07-21T11:48:28Z</time>
      </trkpt>
      <trkpt lat="47.1826440" lon="6.8580690">
        <ele>777.3</ele>
        <time>2022-07-21T11:48:29Z</time>
      </trkpt>
      <trkpt lat="47.1826480" lon="6.8580860">
        <ele>777.4</ele>
        <time>2022-07-21T11:48:30Z</time>
      </trkpt>
      <trkpt lat="47.1826560" lon="6.8581060">
        <ele>777.5</ele>
        <time>2022-07-21T11:48:31Z</time>
      </trkpt>
      <trkpt lat="47.1826650" lon="6.8581300">
        <ele>777.7</ele>
        <time>2022-07-21T11:48:32Z</time>
      </trkpt>
      <trkpt lat="47.1826730" lon="6.8581500">
        <ele>777.8</ele>
        <time>2022-07-21T11:48:33Z</time>
      </trkpt>
      <trkpt lat="47.1826790" lon="6.8581700">
        <ele>777.9</ele>
        <time>2022-07-21T11:48:34Z</time>
      </trkpt>
      <trkpt lat="47.1826920" lon="6.8582120">
        <ele>778.2</ele>
        <time>2022-07-21T11:48:35Z</time>
      </trkpt>
      <trkpt lat="47.1826970" lon="6.8582290">
        <ele>778.3</ele>
        <time>2022-07-21T11:48:37Z</time>
      </trkpt>
      <trkpt lat="47.1827030" lon="6.8582590">
        <ele>778.4</ele>
        <time>2022-07-21T11:48:38Z</time>
      </trkpt>
      <trkpt lat="47.1827210" lon="6.8582980">
        <ele>778.7</ele>
        <time>2022-07-21T11:48:39Z</time>
      </trkpt>
      <trkpt lat="47.1827260" lon="6.8583100">
        <ele>778.8</ele>
        <time>2022-07-21T11:48:40Z</time>
      </trkpt>
      <trkpt lat="47.1827480" lon="6.8583490">
        <ele>779.1</ele>
        <time>2022-07-21T11:48:41Z</time>
      </trkpt>
      <trkpt lat="47.1827540" lon="6.8583610">
        <ele>777.9</ele>
        <time>2022-07-21T11:48:42Z</time>
      </trkpt>
      <trkpt lat="47.1827760" lon="6.8584210">
        <ele>777.4</ele>
        <time>2022-07-21T11:48:43Z</time>
      </trkpt>
      <trkpt lat="47.1827930" lon="6.8584590">
        <ele>775.8</ele>
        <time>2022-07-21T11:48:45Z</time>
      </trkpt>
      <trkpt lat="47.1827980" lon="6.8584680">
        <ele>774.5</ele>
        <time>2022-07-21T11:48:46Z</time>
      </trkpt>
      <trkpt lat="47.1828130" lon="6.8584980">
        <ele>774.0</ele>
        <time>2022-07-21T11:48:47Z</time>
      </trkpt>
      <trkpt lat="47.1828190" lon="6.8585110">
        <ele>772.8</ele>
        <time>2022-07-21T11:48:48Z</time>
      </trkpt>
      <trkpt lat="47.1828250" lon="6.8585250">
        <ele>771.1</ele>
        <time>2022-07-21T11:48:49Z</time>
      </trkpt>
      <trkpt lat="47.1828380" lon="6.8585600">
        <ele>770.5</ele>
        <time>2022-07-21T11:48:50Z</time>
      </trkpt>
      <trkpt lat="47.1828510" lon="6.8585960">
        <ele>769.3</ele>
        <time>2022-07-21T11:48:51Z</time>
      </trkpt>
      <trkpt lat="47.1828610" lon="6.8586180">
        <ele>768.9</ele>
        <time>2022-07-21T11:48:52Z</time>
      </trkpt>
      <trkpt lat="47.1828650" lon="6.8586300">
        <ele>768.8</ele>
        <time>2022-07-21T11:48:53Z</time>
      </trkpt>
      <trkpt lat="47.1828770" lon="6.8586610">
        <ele>768.4</ele>
        <time>2022-07-21T11:48:55Z</time>
      </trkpt>
      <trkpt lat="47.1828820" lon="6.8586760">
        <ele>768.2</ele>
        <time>2022-07-21T11:48:56Z</time>
      </trkpt>
      <trkpt lat="47.1828870" lon="6.8586900">
        <ele>768.0</ele>
        <time>2022-07-21T11:48:57Z</time>
      </trkpt>
      <trkpt lat="47.1828940" lon="6.8587050">
        <ele>767.8</ele>
        <time>2022-07-21T11:48:58Z</time>
      </trkpt>
      <trkpt lat="47.1829070" lon="6.8587260">
        <ele>767.5</ele>
        <time>2022-07-21T11:48:59Z</time>
      </trkpt>
      <trkpt lat="47.1829170" lon="6.8587440">
        <ele>767.2</ele>
        <time>2022-07-21T11:49:00Z</time>
      </trkpt>
      <trkpt lat="47.1829330" lon="6.8587830">
        <ele>766.7</ele>
        <time>2022-07-21T11:49:01Z</time>
      </trkpt>
      <trkpt lat="47.1829510" lon="6.8588320">
        <ele>766.1</ele>
        <time>2022-07-21T11:49:02Z</time>
      </trkpt>
      <trkpt lat="47.1829680" lon="6.8588790">
        <ele>765.4</ele>
        <time>2022-07-21T11:49:04Z</time>
      </trkpt>
      <trkpt lat="47.1829760" lon="6.8588990">
        <ele>765.2</ele>
        <time>2022-07-21T11:49:05Z</time>
      </trkpt>
      <trkpt lat="47.1829990" lon="6.8589430">
        <ele>764.5</ele>
        <time>2022-07-21T11:49:07Z</time>
      </trkpt>
      <trkpt lat="47.1830060" lon="6.8589610">
        <ele>764.3</ele>
        <time>2022-07-21T11:49:08Z</time>
      </trkpt>
      <trkpt lat="47.1830350" lon="6.8590030">
        <ele>763.6</ele>
        <time>2022-07-21T11:49:09Z</time>
      </trkpt>
      <trkpt lat="47.1830480" lon="6.8590180">
        <ele>763.3</ele>
        <time>2022-07-21T11:49:10Z</time>
      </trkpt>
      <trkpt lat="47.1830680" lon="6.8590510">
        <ele>762.7</ele>
        <time>2022-07-21T11:49:11Z</time>
      </trkpt>
      <trkpt lat="47.1830930" lon="6.8591140">
        <ele>761.7</ele>
        <time>2022-07-21T11:49:13Z</time>
      </trkpt>
      <trkpt lat="47.1831090" lon="6.8591550">
        <ele>761.1</ele>
        <time>2022-07-21T11:49:14Z</time>
      </trkpt>
      <trkpt lat="47.1831300" lon="6.8592050">
        <ele>760.2</ele>
        <time>2022-07-21T11:49:15Z</time>
      </trkpt>
      <trkpt lat="47.1831360" lon="6.8592220">
        <ele>760.0</ele>
        <time>2022-07-21T11:49:16Z</time>
      </trkpt>
      <trkpt lat="47.1831430" lon="6.8592490">
        <ele>759.6</ele>
        <time>2022-07-21T11:49:17Z</time>
      </trkpt>
      <trkpt lat="47.1831590" lon="6.8592930">
        <ele>758.9</ele>
        <time>2022-07-21T11:49:19Z</time>
      </trkpt>
      <trkpt lat="47.1831720" lon="6.8593100">
        <ele>758.5</ele>
        <time>2022-07-21T11:49:20Z</time>
      </trkpt>
      <trkpt lat="47.1831810" lon="6.8593220">
        <ele>758.3</ele>
        <time>2022-07-21T11:49:21Z</time>
      </trkpt>
      <trkpt lat="47.1832040" lon="6.8593480">
        <ele>757.9</ele>
        <time>2022-07-21T11:49:23Z</time>
      </trkpt>
      <trkpt lat="47.1832150" lon="6.8593570">
        <ele>758.2</ele>
        <time>2022-07-21T11:49:24Z</time>
      </trkpt>
      <trkpt lat="47.1832250" lon="6.8593600">
        <ele>758.4</ele>
        <time>2022-07-21T11:49:25Z</time>
      </trkpt>
      <trkpt lat="47.1832360" lon="6.8593600">
        <ele>758.6</ele>
        <time>2022-07-21T11:49:26Z</time>
      </trkpt>
      <trkpt lat="47.1832550" lon="6.8593560">
        <ele>759.1</ele>
        <time>2022-07-21T11:49:28Z</time>
      </trkpt>
      <trkpt lat="47.1832650" lon="6.8593450">
        <ele>759.3</ele>
        <time>2022-07-21T11:49:29Z</time>
      </trkpt>
      <trkpt lat="47.1832710" lon="6.8593290">
        <ele>759.6</ele>
        <time>2022-07-21T11:49:30Z</time>
      </trkpt>
      <trkpt lat="47.1832720" lon="6.8593090">
        <ele>759.9</ele>
        <time>2022-07-21T11:49:31Z</time>
      </trkpt>
      <trkpt lat="47.1832590" lon="6.8592720">
        <ele>760.5</ele>
        <time>2022-07-21T11:49:33Z</time>
      </trkpt>
      <trkpt lat="47.1832490" lon="6.8592440">
        <ele>760.9</ele>
        <time>2022-07-21T11:49:34Z</time>
      </trkpt>
      <trkpt lat="47.1832430" lon="6.8592280">
        <ele>761.2</ele>
        <time>2022-07-21T11:49:35Z</time>
      </trkpt>
      <trkpt lat="47.1832380" lon="6.8592060">
        <ele>761.5</ele>
        <time>2022-07-21T11:49:36Z</time>
      </trkpt>
      <trkpt lat="47.1832340" lon="6.8591860">
        <ele>761.8</ele>
        <time>2022-07-21T11:49:37Z</time>
      </trkpt>
      <trkpt lat="47.1832260" lon="6.8591390">
        <ele>762.5</ele>
        <time>2022-07-21T11:49:38Z</time>
      </trkpt>
      <trkpt lat="47.1832200" lon="6.8591200">
        <ele>762.8</ele>
        <time>2022-07-21T11:49:39Z</time>
      </trkpt>
      <trkpt lat="47.1832140" lon="6.8590960">
        <ele>763.1</ele>
        <time>2022-07-21T11:49:40Z</time>
      </trkpt>
      <trkpt lat="47.1831990" lon="6.8590570">
        <ele>763.7</ele>
        <time>2022-07-21T11:49:42Z</time>
      </trkpt>
      <trkpt lat="47.1831840" lon="6.8590160">
        <ele>764.3</ele>
        <time>2022-07-21T11:49:43Z</time>
      </trkpt>
      <trkpt lat="47.1831810" lon="6.8590070">
        <ele>764.4</ele>
        <time>2022-07-21T11:49:44Z</time>
      </trkpt>
      <trkpt lat="47.1831710" lon="6.8589620">
        <ele>765.0</ele>
        <time>2022-07-21T11:49:46Z</time>
      </trkpt>
      <trkpt lat="47.1831690" lon="6.8589480">
        <ele>765.1</ele>
        <time>2022-07-21T11:49:47Z</time>
      </trkpt>
      <trkpt lat="47.1831580" lon="6.8589030">
        <ele>765.7</ele>
        <time>2022-07-21T11:49:48Z</time>
      </trkpt>
      <trkpt lat="47.1831550" lon="6.8588920">
        <ele>765.8</ele>
        <time>2022-07-21T11:49:49Z</time>
      </trkpt>
      <trkpt lat="47.1831490" lon="6.8588500">
        <ele>766.3</ele>
        <time>2022-07-21T11:49:51Z</time>
      </trkpt>
      <trkpt lat="47.1831440" lon="6.8588260">
        <ele>766.6</ele>
        <time>2022-07-21T11:49:52Z</time>
      </trkpt>
      <trkpt lat="47.1831400" lon="6.8588060">
        <ele>766.9</ele>
        <time>2022-07-21T11:49:53Z</time>
      </trkpt>
      <trkpt lat="47.1831370" lon="6.8587820">
        <ele>767.2</ele>
        <time>2022-07-21T11:49:54Z</time>
      </trkpt>
      <trkpt lat="47.1831330" lon="6.8587490">
        <ele>767.6</ele>
        <time>2022-07-21T11:49:56Z</time>
      </trkpt>
      <trkpt lat="47.1831310" lon="6.8586960">
        <ele>768.2</ele>
        <time>2022-07-21T11:49:57Z</time>
      </trkpt>
      <trkpt lat="47.1831300" lon="6.8586800">
        <ele>768.4</ele>
        <time>2022-07-21T11:49:58Z</time>
      </trkpt>
      <trkpt lat="47.1831190" lon="6.8586290">
        <ele>769.0</ele>
        <time>2022-07-21T11:49:59Z</time>
      </trkpt>
      <trkpt lat="47.1831150" lon="6.8586150">
        <ele>769.2</ele>
        <time>2022-07-21T11:50:00Z</time>
      </trkpt>
      <trkpt lat="47.1831070" lon="6.8585660">
        <ele>769.8</ele>
        <time>2022-07-21T11:50:02Z</time>
      </trkpt>
      <trkpt lat="47.1831050" lon="6.8585520">
        <ele>770.0</ele>
        <time>2022-07-21T11:50:03Z</time>
      </trkpt>
      <trkpt lat="47.1831010" lon="6.8585080">
        <ele>770.5</ele>
        <time>2022-07-21T11:50:04Z</time>
      </trkpt>
      <trkpt lat="47.1830980" lon="6.8584940">
        <ele>770.7</ele>
        <time>2022-07-21T11:50:05Z</time>
      </trkpt>
      <trkpt lat="47.1830950" lon="6.8584650">
        <ele>771.1</ele>
        <time>2022-07-21T11:50:06Z</time>
      </trkpt>
      <trkpt lat="47.1830930" lon="6.8584370">
        <ele>771.5</ele>
        <time>2022-07-21T11:50:08Z</time>
      </trkpt>
      <trkpt lat="47.1830900" lon="6.8584090">
        <ele>771.8</ele>
        <time>2022-07-21T11:50:09Z</time>
      </trkpt>
      <trkpt lat="47.1830880" lon="6.8583850">
        <ele>772.1</ele>
        <time>2022-07-21T11:50:10Z</time>
      </trkpt>
      <trkpt lat="47.1830870" lon="6.8583400">
        <ele>772.7</ele>
        <time>2022-07-21T11:50:11Z</time>
      </trkpt>
      <trkpt lat="47.1830880" lon="6.8583250">
        <ele>772.9</ele>
        <time>2022-07-21T11:50:12Z</time>
      </trkpt>
      <trkpt lat="47.1830810" lon="6.8582720">
        <ele>773.6</ele>
        <time>2022-07-21T11:50:14Z</time>
      </trkpt>
      <trkpt lat="47.1830760" lon="6.8582560">
        <ele>773.8</ele>
        <time>2022-07-21T11:50:15Z</time>
      </trkpt>
      <trkpt lat="47.1830680" lon="6.8582150">
        <ele>774.4</ele>
        <time>2022-07-21T11:50:16Z</time>
      </trkpt>
      <trkpt lat="47.1830650" lon="6.8582030">
        <ele>774.5</ele>
        <time>2022-07-21T11:50:17Z</time>
      </trkpt>
      <trkpt lat="47.1830580" lon="6.8581780">
        <ele>774.9</ele>
        <time>2022-07-21T11:50:18Z</time>
      </trkpt>
      <trkpt lat="47.1830500" lon="6.8581430">
        <ele>775.3</ele>
        <time>2022-07-21T11:50:20Z</time>
      </trkpt>
      <trkpt lat="47.1830440" lon="6.8581190">
        <ele>775.6</ele>
        <time>2022-07-21T11:50:21Z</time>
      </trkpt>
      <trkpt lat="47.1830400" lon="6.8580680">
        <ele>776.3</ele>
        <time>2022-07-21T11:50:23Z</time>
      </trkpt>
      <trkpt lat="47.1830310" lon="6.8580270">
        <ele>776.8</ele>
        <time>2022-07-21T11:50:24Z</time>
      </trkpt>
      <trkpt lat="47.1830290" lon="6.8580150">
        <ele>777.0</ele>
        <time>2022-07-21T11:50:25Z</time>
      </trkpt>
      <trkpt lat="47.1830200" lon="6.8579680">
        <ele>777.6</ele>
        <time>2022-07-21T11:50:27Z</time>
      </trkpt>
      <trkpt lat="47.1830180" lon="6.8579560">
        <ele>777.8</ele>
        <time>2022-07-21T11:50:28Z</time>
      </trkpt>
      <trkpt lat="47.1830150" lon="6.8579110">
        <ele>778.3</ele>
        <time>2022-07-21T11:50:30Z</time>
      </trkpt>
      <trkpt lat="47.1830090" lon="6.8578610">
        <ele>778.9</ele>
        <time>2022-07-21T11:50:31Z</time>
      </trkpt>
      <trkpt lat="47.1830040" lon="6.8578150">
        <ele>779.5</ele>
        <time>2022-07-21T11:50:33Z</time>
      </trkpt>
      <trkpt lat="47.1830030" lon="6.8578060">
        <ele>779.6</ele>
        <time>2022-07-21T11:50:34Z</time>
      </trkpt>
      <trkpt lat="47.1829960" lon="6.8577670">
        <ele>780.1</ele>
        <time>2022-07-21T11:50:35Z</time>
      </trkpt>
      <trkpt lat="47.1829940" lon="6.8577530">
        <ele>780.3</ele>
        <time>2022-07-21T11:50:36Z</time>
      </trkpt>
      <trkpt lat="47.1829890" lon="6.8577270">
        <ele>780.6</ele>
        <time>2022-07-21T11:50:37Z</time>
      </trkpt>
      <trkpt lat="47.1829850" lon="6.8577050">
        <ele>780.9</ele>
        <time>2022-07-21T11:50:38Z</time>
      </trkpt>
      <trkpt lat="47.1829740" lon="6.8576520">
        <ele>781.6</ele>
        <time>2022-07-21T11:50:40Z</time>
      </trkpt>
      <trkpt lat="47.1829690" lon="6.8576340">
        <ele>781.8</ele>
        <time>2022-07-21T11:50:41Z</time>
      </trkpt>
      <trkpt lat="47.1829610" lon="6.8576040">
        <ele>782.2</ele>
        <time>2022-07-21T11:50:43Z</time>
      </trkpt>
      <trkpt lat="47.1829550" lon="6.8575730">
        <ele>782.7</ele>
        <time>2022-07-21T11:50:45Z</time>
      </trkpt>
      <trkpt lat="47.1829560" lon="6.8575690">
        <ele>782.7</ele>
        <time>2022-07-21T11:50:46Z</time>
      </trkpt>
      <trkpt lat="47.1829560" lon="6.8575660">
        <ele>782.8</ele>
        <time>2022-07-21T11:50:47Z</time>
      </trkpt>
      <trkpt lat="47.1829560" lon="6.8575680">
        <ele>782.8</ele>
        <time>2022-07-21T11:50:48Z</time>
      </trkpt>
      <trkpt lat="47.1829570" lon="6.8575700">
        <ele>782.8</ele>
        <time>2022-07-21T11:50:49Z</time>
      </trkpt>
      <trkpt lat="47.1829560" lon="6.8575710">
        <ele>782.8</ele>
        <time>2022-07-21T11:50:50Z</time>
      </trkpt>
      <trkpt lat="47.1829560" lon="6.8575710">
        <ele>782.8</ele>
        <time>2022-07-21T11:50:51Z</time>
      </trkpt>
      <trkpt lat="47.1829550" lon="6.8575700">
        <ele>782.9</ele>
        <time>2022-07-21T11:50:52Z</time>
      </trkpt>
      <trkpt lat="47.1829550" lon="6.8575710">
        <ele>782.9</ele>
        <time>2022-07-21T11:50:53Z</time>
      </trkpt>
      <trkpt lat="47.1829540" lon="6.8575710">
        <ele>782.9</ele>
        <time>2022-07-21T11:50:54Z</time>
      </trkpt>
      <trkpt lat="47.1829540" lon="6.8575700">
        <ele>782.9</ele>
        <time>2022-07-21T11:50:55Z</time>
      </trkpt>
      <trkpt lat="47.1829520" lon="6.8575650">
        <ele>783.0</ele>
        <time>2022-07-21T11:50:56Z</time>
      </trkpt>
      <trkpt lat="47.1829500" lon="6.8575580">
        <ele>783.1</ele>
        <time>2022-07-21T11:50:57Z</time>
      </trkpt>
      <trkpt lat="47.1829490" lon="6.8575520">
        <ele>783.2</ele>
        <time>2022-07-21T11:50:58Z</time>
      </trkpt>
      <trkpt lat="47.1829480" lon="6.8575470">
        <ele>783.2</ele>
        <time>2022-07-21T11:50:59Z</time>
      </trkpt>
      <trkpt lat="47.1829500" lon="6.8575370">
        <ele>783.4</ele>
        <time>2022-07-21T11:51:00Z</time>
      </trkpt>
      <trkpt lat="47.1829530" lon="6.8575250">
        <ele>783.5</ele>
        <time>2022-07-21T11:51:02Z</time>
      </trkpt>
      <trkpt lat="47.1829580" lon="6.8575150">
        <ele>783.7</ele>
        <time>2022-07-21T11:51:03Z</time>
      </trkpt>
      <trkpt lat="47.1829610" lon="6.8575100">
        <ele>784.1</ele>
        <time>2022-07-21T11:51:04Z</time>
      </trkpt>
      <trkpt lat="47.1829660" lon="6.8575030">
        <ele>784.3</ele>
        <time>2022-07-21T11:51:06Z</time>
      </trkpt>
      <trkpt lat="47.1829690" lon="6.8575020">
        <ele>784.3</ele>
        <time>2022-07-21T11:51:07Z</time>
      </trkpt>
      <trkpt lat="47.1829780" lon="6.8574970">
        <ele>784.5</ele>
        <time>2022-07-21T11:51:08Z</time>
      </trkpt>
      <trkpt lat="47.1829820" lon="6.8574940">
        <ele>784.6</ele>
        <time>2022-07-21T11:51:09Z</time>
      </trkpt>
      <trkpt lat="47.1829910" lon="6.8574920">
        <ele>784.8</ele>
        <time>2022-07-21T11:51:10Z</time>
      </trkpt>
      <trkpt lat="47.1830040" lon="6.8574860">
        <ele>785.0</ele>
        <time>2022-07-21T11:51:11Z</time>
      </trkpt>
      <trkpt lat="47.1830150" lon="6.8574790">
        <ele>785.2</ele>
        <time>2022-07-21T11:51:13Z</time>
      </trkpt>
      <trkpt lat="47.1830200" lon="6.8574760">
        <ele>785.3</ele>
        <time>2022-07-21T11:51:14Z</time>
      </trkpt>
      <trkpt lat="47.1830250" lon="6.8574720">
        <ele>785.4</ele>
        <time>2022-07-21T11:51:15Z</time>
      </trkpt>
      <trkpt lat="47.1830280" lon="6.8574680">
        <ele>785.5</ele>
        <time>2022-07-21T11:51:16Z</time>
      </trkpt>
      <trkpt lat="47.1830320" lon="6.8574640">
        <ele>785.6</ele>
        <time>2022-07-21T11:51:17Z</time>
      </trkpt>
      <trkpt lat="47.1830390" lon="6.8574560">
        <ele>785.8</ele>
        <time>2022-07-21T11:51:19Z</time>
      </trkpt>
      <trkpt lat="47.1830450" lon="6.8574500">
        <ele>785.9</ele>
        <time>2022-07-21T11:51:20Z</time>
      </trkpt>
      <trkpt lat="47.1830510" lon="6.8574430">
        <ele>786.0</ele>
        <time>2022-07-21T11:51:21Z</time>
      </trkpt>
      <trkpt lat="47.1830580" lon="6.8574370">
        <ele>786.2</ele>
        <time>2022-07-21T11:51:22Z</time>
      </trkpt>
      <trkpt lat="47.1830710" lon="6.8574250">
        <ele>786.4</ele>
        <time>2022-07-21T11:51:24Z</time>
      </trkpt>
      <trkpt lat="47.1830780" lon="6.8574190">
        <ele>786.5</ele>
        <time>2022-07-21T11:51:25Z</time>
      </trkpt>
      <trkpt lat="47.1830840" lon="6.8574150">
        <ele>786.7</ele>
        <time>2022-07-21T11:51:26Z</time>
      </trkpt>
      <trkpt lat="47.1830870" lon="6.8574130">
        <ele>786.7</ele>
        <time>2022-07-21T11:51:27Z</time>
      </trkpt>
      <trkpt lat="47.1830900" lon="6.8574100">
        <ele>786.8</ele>
        <time>2022-07-21T11:51:28Z</time>
      </trkpt>
      <trkpt lat="47.1830920" lon="6.8574070">
        <ele>786.8</ele>
        <time>2022-07-21T11:51:29Z</time>
      </trkpt>
      <trkpt lat="47.1830970" lon="6.8574030">
        <ele>786.9</ele>
        <time>2022-07-21T11:51:30Z</time>
      </trkpt>
      <trkpt lat="47.1831040" lon="6.8574000">
        <ele>787.0</ele>
        <time>2022-07-21T11:51:31Z</time>
      </trkpt>
      <trkpt lat="47.1831160" lon="6.8573950">
        <ele>787.2</ele>
        <time>2022-07-21T11:51:33Z</time>
      </trkpt>
      <trkpt lat="47.1831210" lon="6.8573930">
        <ele>788.3</ele>
        <time>2022-07-21T11:51:34Z</time>
      </trkpt>
      <trkpt lat="47.1831260" lon="6.8573900">
        <ele>788.3</ele>
        <time>2022-07-21T11:51:35Z</time>
      </trkpt>
      <trkpt lat="47.1831320" lon="6.8573870">
        <ele>788.4</ele>
        <time>2022-07-21T11:51:36Z</time>
      </trkpt>
      <trkpt lat="47.1831410" lon="6.8573820">
        <ele>788.5</ele>
        <time>2022-07-21T11:51:38Z</time>
      </trkpt>
      <trkpt lat="47.1831430" lon="6.8573830">
        <ele>788.5</ele>
        <time>2022-07-21T11:51:39Z</time>
      </trkpt>
      <trkpt lat="47.1831480" lon="6.8573820">
        <ele>788.6</ele>
        <time>2022-07-21T11:51:40Z</time>
      </trkpt>
      <trkpt lat="47.1831520" lon="6.8573820">
        <ele>788.7</ele>
        <time>2022-07-21T11:51:41Z</time>
      </trkpt>
      <trkpt lat="47.1831560" lon="6.8573820">
        <ele>788.7</ele>
        <time>2022-07-21T11:51:42Z</time>
      </trkpt>
      <trkpt lat="47.1831630" lon="6.8573820">
        <ele>788.8</ele>
        <time>2022-07-21T11:51:43Z</time>
      </trkpt>
      <trkpt lat="47.1831680" lon="6.8573840">
        <ele>788.9</ele>
        <time>2022-07-21T11:51:44Z</time>
      </trkpt>
      <trkpt lat="47.1831730" lon="6.8573870">
        <ele>788.9</ele>
        <time>2022-07-21T11:51:45Z</time>
      </trkpt>
      <trkpt lat="47.1831760" lon="6.8573920">
        <ele>789.0</ele>
        <time>2022-07-21T11:51:46Z</time>
      </trkpt>
      <trkpt lat="47.1831740" lon="6.8573930">
        <ele>789.0</ele>
        <time>2022-07-21T11:51:47Z</time>
      </trkpt>
      <trkpt lat="47.1831740" lon="6.8573940">
        <ele>789.0</ele>
        <time>2022-07-21T11:51:48Z</time>
      </trkpt>
      <trkpt lat="47.1831750" lon="6.8573960">
        <ele>789.0</ele>
        <time>2022-07-21T11:51:49Z</time>
      </trkpt>
      <trkpt lat="47.1831750" lon="6.8573960">
        <ele>789.0</ele>
        <time>2022-07-21T11:51:50Z</time>
      </trkpt>
      <trkpt lat="47.1831740" lon="6.8573960">
        <ele>789.0</ele>
        <time>2022-07-21T11:51:51Z</time>
      </trkpt>
      <trkpt lat="47.1831720" lon="6.8573970">
        <ele>789.0</ele>
        <time>2022-07-21T11:51:52Z</time>
      </trkpt>
      <trkpt lat="47.1831680" lon="6.8573950">
        <ele>789.1</ele>
        <time>2022-07-21T11:51:53Z</time>
      </trkpt>
      <trkpt lat="47.1831650" lon="6.8573910">
        <ele>789.1</ele>
        <time>2022-07-21T11:51:54Z</time>
      </trkpt>
      <trkpt lat="47.1831630" lon="6.8573880">
        <ele>789.2</ele>
        <time>2022-07-21T11:51:55Z</time>
      </trkpt>
      <trkpt lat="47.1831630" lon="6.8574080">
        <ele>789.3</ele>
        <time>2022-07-21T11:51:56Z</time>
      </trkpt>
      <trkpt lat="47.1831640" lon="6.8574280">
        <ele>789.4</ele>
        <time>2022-07-21T11:51:57Z</time>
      </trkpt>
      <trkpt lat="47.1831750" lon="6.8574550">
        <ele>789.6</ele>
        <time>2022-07-21T11:51:58Z</time>
      </trkpt>
      <trkpt lat="47.1831820" lon="6.8574660">
        <ele>789.7</ele>
        <time>2022-07-21T11:51:59Z</time>
      </trkpt>
      <trkpt lat="47.1831880" lon="6.8574760">
        <ele>789.7</ele>
        <time>2022-07-21T11:52:00Z</time>
      </trkpt>
      <trkpt lat="47.1831960" lon="6.8574960">
        <ele>789.9</ele>
        <time>2022-07-21T11:52:01Z</time>
      </trkpt>
      <trkpt lat="47.1832010" lon="6.8575110">
        <ele>789.9</ele>
        <time>2022-07-21T11:52:02Z</time>
      </trkpt>
      <trkpt lat="47.1832100" lon="6.8575310">
        <ele>790.0</ele>
        <time>2022-07-21T11:52:03Z</time>
      </trkpt>
      <trkpt lat="47.1832200" lon="6.8575540">
        <ele>790.1</ele>
        <time>2022-07-21T11:52:04Z</time>
      </trkpt>
      <trkpt lat="47.1832340" lon="6.8575820">
        <ele>790.3</ele>
        <time>2022-07-21T11:52:05Z</time>
      </trkpt>
      <trkpt lat="47.1832520" lon="6.8576130">
        <ele>790.4</ele>
        <time>2022-07-21T11:52:07Z</time>
      </trkpt>
      <trkpt lat="47.1832640" lon="6.8576360">
        <ele>790.5</ele>
        <time>2022-07-21T11:52:08Z</time>
      </trkpt>
      <trkpt lat="47.1832720" lon="6.8576550">
        <ele>790.5</ele>
        <time>2022-07-21T11:52:09Z</time>
      </trkpt>
      <trkpt lat="47.1832860" lon="6.8576900">
        <ele>790.6</ele>
        <time>2022-07-21T11:52:10Z</time>
      </trkpt>
      <trkpt lat="47.1832910" lon="6.8577020">
        <ele>790.7</ele>
        <time>2022-07-21T11:52:11Z</time>
      </trkpt>
      <trkpt lat="47.1833060" lon="6.8577310">
        <ele>790.8</ele>
        <time>2022-07-21T11:52:12Z</time>
      </trkpt>
      <trkpt lat="47.1833120" lon="6.8577430">
        <ele>790.8</ele>
        <time>2022-07-21T11:52:13Z</time>
      </trkpt>
      <trkpt lat="47.1833190" lon="6.8577550">
        <ele>790.9</ele>
        <time>2022-07-21T11:52:14Z</time>
      </trkpt>
      <trkpt lat="47.1833330" lon="6.8577850">
        <ele>790.9</ele>
        <time>2022-07-21T11:52:15Z</time>
      </trkpt>
      <trkpt lat="47.1833390" lon="6.8577960">
        <ele>791.0</ele>
        <time>2022-07-21T11:52:16Z</time>
      </trkpt>
      <trkpt lat="47.1833440" lon="6.8578070">
        <ele>791.0</ele>
        <time>2022-07-21T11:52:17Z</time>
      </trkpt>
      <trkpt lat="47.1833610" lon="6.8578400">
        <ele>791.1</ele>
        <time>2022-07-21T11:52:18Z</time>
      </trkpt>
      <trkpt lat="47.1833670" lon="6.8578520">
        <ele>791.1</ele>
        <time>2022-07-21T11:52:19Z</time>
      </trkpt>
      <trkpt lat="47.1833830" lon="6.8578860">
        <ele>791.2</ele>
        <time>2022-07-21T11:52:20Z</time>
      </trkpt>
      <trkpt lat="47.1833890" lon="6.8578970">
        <ele>791.2</ele>
        <time>2022-07-21T11:52:21Z</time>
      </trkpt>
      <trkpt lat="47.1833990" lon="6.8579130">
        <ele>791.3</ele>
        <time>2022-07-21T11:52:22Z</time>
      </trkpt>
      <trkpt lat="47.1834110" lon="6.8579280">
        <ele>791.3</ele>
        <time>2022-07-21T11:52:23Z</time>
      </trkpt>
      <trkpt lat="47.1834230" lon="6.8579450">
        <ele>791.4</ele>
        <time>2022-07-21T11:52:24Z</time>
      </trkpt>
      <trkpt lat="47.1834320" lon="6.8579670">
        <ele>791.4</ele>
        <time>2022-07-21T11:52:25Z</time>
      </trkpt>
      <trkpt lat="47.1834360" lon="6.8579890">
        <ele>791.4</ele>
        <time>2022-07-21T11:52:26Z</time>
      </trkpt>
      <trkpt lat="47.1834450" lon="6.8580130">
        <ele>791.5</ele>
        <time>2022-07-21T11:52:27Z</time>
      </trkpt>
      <trkpt lat="47.1834700" lon="6.8580440">
        <ele>791.6</ele>
        <time>2022-07-21T11:52:28Z</time>
      </trkpt>
      <trkpt lat="47.1834800" lon="6.8580550">
        <ele>791.6</ele>
        <time>2022-07-21T11:52:29Z</time>
      </trkpt>
      <trkpt lat="47.1835050" lon="6.8580940">
        <ele>791.7</ele>
        <time>2022-07-21T11:52:31Z</time>
      </trkpt>
      <trkpt lat="47.1835250" lon="6.8581270">
        <ele>791.7</ele>
        <time>2022-07-21T11:52:32Z</time>
      </trkpt>
      <trkpt lat="47.1835300" lon="6.8581380">
        <ele>791.7</ele>
        <time>2022-07-21T11:52:33Z</time>
      </trkpt>
      <trkpt lat="47.1835340" lon="6.8581500">
        <ele>791.7</ele>
        <time>2022-07-21T11:52:34Z</time>
      </trkpt>
      <trkpt lat="47.1835410" lon="6.8581630">
        <ele>791.8</ele>
        <time>2022-07-21T11:52:35Z</time>
      </trkpt>
      <trkpt lat="47.1835500" lon="6.8581760">
        <ele>791.8</ele>
        <time>2022-07-21T11:52:36Z</time>
      </trkpt>
      <trkpt lat="47.1835630" lon="6.8582120">
        <ele>791.8</ele>
        <time>2022-07-21T11:52:38Z</time>
      </trkpt>
      <trkpt lat="47.1835680" lon="6.8582230">
        <ele>791.9</ele>
        <time>2022-07-21T11:52:39Z</time>
      </trkpt>
      <trkpt lat="47.1835790" lon="6.8582420">
        <ele>791.9</ele>
        <time>2022-07-21T11:52:41Z</time>
      </trkpt>
      <trkpt lat="47.1835890" lon="6.8582640">
        <ele>791.9</ele>
        <time>2022-07-21T11:52:42Z</time>
      </trkpt>
      <trkpt lat="47.1835970" lon="6.8583020">
        <ele>792.0</ele>
        <time>2022-07-21T11:52:43Z</time>
      </trkpt>
      <trkpt lat="47.1835980" lon="6.8583410">
        <ele>792.0</ele>
        <time>2022-07-21T11:52:45Z</time>
      </trkpt>
      <trkpt lat="47.1835980" lon="6.8583820">
        <ele>792.1</ele>
        <time>2022-07-21T11:52:46Z</time>
      </trkpt>
      <trkpt lat="47.1835950" lon="6.8584270">
        <ele>792.2</ele>
        <time>2022-07-21T11:52:47Z</time>
      </trkpt>
      <trkpt lat="47.1835940" lon="6.8584450">
        <ele>792.2</ele>
        <time>2022-07-21T11:52:48Z</time>
      </trkpt>
      <trkpt lat="47.1836010" lon="6.8584780">
        <ele>792.3</ele>
        <time>2022-07-21T11:52:49Z</time>
      </trkpt>
      <trkpt lat="47.1836170" lon="6.8585210">
        <ele>792.4</ele>
        <time>2022-07-21T11:52:51Z</time>
      </trkpt>
      <trkpt lat="47.1836410" lon="6.8585500">
        <ele>792.5</ele>
        <time>2022-07-21T11:52:52Z</time>
      </trkpt>
      <trkpt lat="47.1836650" lon="6.8585880">
        <ele>792.6</ele>
        <time>2022-07-21T11:52:53Z</time>
      </trkpt>
      <trkpt lat="47.1836950" lon="6.8586440">
        <ele>792.8</ele>
        <time>2022-07-21T11:52:54Z</time>
      </trkpt>
      <trkpt lat="47.1837150" lon="6.8586930">
        <ele>793.0</ele>
        <time>2022-07-21T11:52:56Z</time>
      </trkpt>
      <trkpt lat="47.1837420" lon="6.8587560">
        <ele>793.3</ele>
        <time>2022-07-21T11:52:57Z</time>
      </trkpt>
      <trkpt lat="47.1837590" lon="6.8588000">
        <ele>793.5</ele>
        <time>2022-07-21T11:52:58Z</time>
      </trkpt>
      <trkpt lat="47.1837800" lon="6.8588490">
        <ele>793.8</ele>
        <time>2022-07-21T11:52:59Z</time>
      </trkpt>
      <trkpt lat="47.1837870" lon="6.8588650">
        <ele>793.9</ele>
        <time>2022-07-21T11:53:00Z</time>
      </trkpt>
      <trkpt lat="47.1838030" lon="6.8589000">
        <ele>794.1</ele>
        <time>2022-07-21T11:53:01Z</time>
      </trkpt>
      <trkpt lat="47.1838080" lon="6.8589090">
        <ele>794.1</ele>
        <time>2022-07-21T11:53:02Z</time>
      </trkpt>
      <trkpt lat="47.1838210" lon="6.8589240">
        <ele>794.3</ele>
        <time>2022-07-21T11:53:03Z</time>
      </trkpt>
      <trkpt lat="47.1838310" lon="6.8589450">
        <ele>794.4</ele>
        <time>2022-07-21T11:53:04Z</time>
      </trkpt>
      <trkpt lat="47.1838430" lon="6.8589910">
        <ele>794.7</ele>
        <time>2022-07-21T11:53:05Z</time>
      </trkpt>
      <trkpt lat="47.1838460" lon="6.8590010">
        <ele>794.8</ele>
        <time>2022-07-21T11:53:06Z</time>
      </trkpt>
      <trkpt lat="47.1838670" lon="6.8590360">
        <ele>795.1</ele>
        <time>2022-07-21T11:53:08Z</time>
      </trkpt>
      <trkpt lat="47.1838730" lon="6.8590470">
        <ele>795.2</ele>
        <time>2022-07-21T11:53:09Z</time>
      </trkpt>
      <trkpt lat="47.1838840" lon="6.8590670">
        <ele>795.3</ele>
        <time>2022-07-21T11:53:10Z</time>
      </trkpt>
      <trkpt lat="47.1838960" lon="6.8590840">
        <ele>795.5</ele>
        <time>2022-07-21T11:53:11Z</time>
      </trkpt>
      <trkpt lat="47.1839100" lon="6.8590990">
        <ele>795.7</ele>
        <time>2022-07-21T11:53:12Z</time>
      </trkpt>
      <trkpt lat="47.1839200" lon="6.8591090">
        <ele>795.8</ele>
        <time>2022-07-21T11:53:13Z</time>
      </trkpt>
      <trkpt lat="47.1839280" lon="6.8591160">
        <ele>795.9</ele>
        <time>2022-07-21T11:53:14Z</time>
      </trkpt>
      <trkpt lat="47.1839370" lon="6.8591210">
        <ele>796.0</ele>
        <time>2022-07-21T11:53:15Z</time>
      </trkpt>
      <trkpt lat="47.1839640" lon="6.8591480">
        <ele>796.3</ele>
        <time>2022-07-21T11:53:17Z</time>
      </trkpt>
      <trkpt lat="47.1839730" lon="6.8591670">
        <ele>796.5</ele>
        <time>2022-07-21T11:53:18Z</time>
      </trkpt>
      <trkpt lat="47.1839800" lon="6.8591850">
        <ele>796.6</ele>
        <time>2022-07-21T11:53:19Z</time>
      </trkpt>
      <trkpt lat="47.1839890" lon="6.8592060">
        <ele>796.8</ele>
        <time>2022-07-21T11:53:20Z</time>
      </trkpt>
      <trkpt lat="47.1839970" lon="6.8592220">
        <ele>796.9</ele>
        <time>2022-07-21T11:53:21Z</time>
      </trkpt>
      <trkpt lat="47.1840120" lon="6.8592430">
        <ele>797.1</ele>
        <time>2022-07-21T11:53:22Z</time>
      </trkpt>
      <trkpt lat="47.1840180" lon="6.8592520">
        <ele>797.2</ele>
        <time>2022-07-21T11:53:23Z</time>
      </trkpt>
      <trkpt lat="47.1840240" lon="6.8592610">
        <ele>797.3</ele>
        <time>2022-07-21T11:53:24Z</time>
      </trkpt>
      <trkpt lat="47.1840390" lon="6.8592800">
        <ele>797.5</ele>
        <time>2022-07-21T11:53:25Z</time>
      </trkpt>
      <trkpt lat="47.1840480" lon="6.8592970">
        <ele>797.6</ele>
        <time>2022-07-21T11:53:26Z</time>
      </trkpt>
      <trkpt lat="47.1840590" lon="6.8593150">
        <ele>797.8</ele>
        <time>2022-07-21T11:53:27Z</time>
      </trkpt>
      <trkpt lat="47.1840690" lon="6.8593330">
        <ele>797.9</ele>
        <time>2022-07-21T11:53:28Z</time>
      </trkpt>
      <trkpt lat="47.1840790" lon="6.8593440">
        <ele>798.0</ele>
        <time>2022-07-21T11:53:29Z</time>
      </trkpt>
      <trkpt lat="47.1840870" lon="6.8593530">
        <ele>798.1</ele>
        <time>2022-07-21T11:53:30Z</time>
      </trkpt>
      <trkpt lat="47.1840960" lon="6.8593650">
        <ele>798.3</ele>
        <time>2022-07-21T11:53:31Z</time>
      </trkpt>
      <trkpt lat="47.1841210" lon="6.8593930">
        <ele>798.6</ele>
        <time>2022-07-21T11:53:33Z</time>
      </trkpt>
      <trkpt lat="47.1841270" lon="6.8594020">
        <ele>798.6</ele>
        <time>2022-07-21T11:53:34Z</time>
      </trkpt>
      <trkpt lat="47.1841420" lon="6.8594380">
        <ele>798.9</ele>
        <time>2022-07-21T11:53:36Z</time>
      </trkpt>
      <trkpt lat="47.1841460" lon="6.8594480">
        <ele>799.0</ele>
        <time>2022-07-21T11:53:37Z</time>
      </trkpt>
      <trkpt lat="47.1841560" lon="6.8594700">
        <ele>799.2</ele>
        <time>2022-07-21T11:53:38Z</time>
      </trkpt>
      <trkpt lat="47.1841670" lon="6.8594890">
        <ele>799.3</ele>
        <time>2022-07-21T11:53:39Z</time>
      </trkpt>
      <trkpt lat="47.1841770" lon="6.8595060">
        <ele>799.5</ele>
        <time>2022-07-21T11:53:40Z</time>
      </trkpt>
      <trkpt lat="47.1841960" lon="6.8595150">
        <ele>799.7</ele>
        <time>2022-07-21T11:53:41Z</time>
      </trkpt>
      <trkpt lat="47.1842080" lon="6.8595240">
        <ele>799.8</ele>
        <time>2022-07-21T11:53:42Z</time>
      </trkpt>
      <trkpt lat="47.1842280" lon="6.8595380">
        <ele>800.0</ele>
        <time>2022-07-21T11:53:44Z</time>
      </trkpt>
      <trkpt lat="47.1842500" lon="6.8595540">
        <ele>800.2</ele>
        <time>2022-07-21T11:53:45Z</time>
      </trkpt>
      <trkpt lat="47.1842580" lon="6.8595580">
        <ele>800.3</ele>
        <time>2022-07-21T11:53:46Z</time>
      </trkpt>
      <trkpt lat="47.1842680" lon="6.8595610">
        <ele>800.4</ele>
        <time>2022-07-21T11:53:48Z</time>
      </trkpt>
      <trkpt lat="47.1842920" lon="6.8595640">
        <ele>800.6</ele>
        <time>2022-07-21T11:53:49Z</time>
      </trkpt>
      <trkpt lat="47.1843200" lon="6.8595680">
        <ele>800.9</ele>
        <time>2022-07-21T11:53:50Z</time>
      </trkpt>
      <trkpt lat="47.1843300" lon="6.8595700">
        <ele>801.0</ele>
        <time>2022-07-21T11:53:51Z</time>
      </trkpt>
      <trkpt lat="47.1843590" lon="6.8595940">
        <ele>801.3</ele>
        <time>2022-07-21T11:53:53Z</time>
      </trkpt>
      <trkpt lat="47.1843640" lon="6.8596010">
        <ele>801.3</ele>
        <time>2022-07-21T11:53:54Z</time>
      </trkpt>
      <trkpt lat="47.1843820" lon="6.8596320">
        <ele>801.6</ele>
        <time>2022-07-21T11:53:55Z</time>
      </trkpt>
      <trkpt lat="47.1843890" lon="6.8596420">
        <ele>801.7</ele>
        <time>2022-07-21T11:53:56Z</time>
      </trkpt>
      <trkpt lat="47.1844120" lon="6.8596740">
        <ele>802.0</ele>
        <time>2022-07-21T11:53:57Z</time>
      </trkpt>
      <trkpt lat="47.1844230" lon="6.8596890">
        <ele>802.1</ele>
        <time>2022-07-21T11:53:59Z</time>
      </trkpt>
      <trkpt lat="47.1844350" lon="6.8597040">
        <ele>802.3</ele>
        <time>2022-07-21T11:54:01Z</time>
      </trkpt>
      <trkpt lat="47.1844460" lon="6.8597200">
        <ele>802.4</ele>
        <time>2022-07-21T11:54:02Z</time>
      </trkpt>
      <trkpt lat="47.1844650" lon="6.8597460">
        <ele>802.7</ele>
        <time>2022-07-21T11:54:03Z</time>
      </trkpt>
      <trkpt lat="47.1844730" lon="6.8597570">
        <ele>802.8</ele>
        <time>2022-07-21T11:54:04Z</time>
      </trkpt>
      <trkpt lat="47.1845010" lon="6.8597780">
        <ele>803.2</ele>
        <time>2022-07-21T11:54:06Z</time>
      </trkpt>
      <trkpt lat="47.1845110" lon="6.8597830">
        <ele>803.3</ele>
        <time>2022-07-21T11:54:07Z</time>
      </trkpt>
      <trkpt lat="47.1845470" lon="6.8597740">
        <ele>803.7</ele>
        <time>2022-07-21T11:54:09Z</time>
      </trkpt>
      <trkpt lat="47.1845570" lon="6.8597680">
        <ele>803.8</ele>
        <time>2022-07-21T11:54:10Z</time>
      </trkpt>
      <trkpt lat="47.1845640" lon="6.8597410">
        <ele>804.0</ele>
        <time>2022-07-21T11:54:11Z</time>
      </trkpt>
      <trkpt lat="47.1845640" lon="6.8597250">
        <ele>804.2</ele>
        <time>2022-07-21T11:54:12Z</time>
      </trkpt>
      <trkpt lat="47.1845650" lon="6.8597090">
        <ele>804.3</ele>
        <time>2022-07-21T11:54:13Z</time>
      </trkpt>
      <trkpt lat="47.1845430" lon="6.8596860">
        <ele>804.6</ele>
        <time>2022-07-21T11:54:14Z</time>
      </trkpt>
      <trkpt lat="47.1845350" lon="6.8596770">
        <ele>804.7</ele>
        <time>2022-07-21T11:54:15Z</time>
      </trkpt>
      <trkpt lat="47.1845240" lon="6.8596610">
        <ele>804.9</ele>
        <time>2022-07-21T11:54:16Z</time>
      </trkpt>
      <trkpt lat="47.1845130" lon="6.8596410">
        <ele>805.1</ele>
        <time>2022-07-21T11:54:17Z</time>
      </trkpt>
      <trkpt lat="47.1845040" lon="6.8596250">
        <ele>805.2</ele>
        <time>2022-07-21T11:54:19Z</time>
      </trkpt>
      <trkpt lat="47.1844940" lon="6.8596210">
        <ele>805.3</ele>
        <time>2022-07-21T11:54:20Z</time>
      </trkpt>
      <trkpt lat="47.1844890" lon="6.8596180">
        <ele>805.4</ele>
        <time>2022-07-21T11:54:21Z</time>
      </trkpt>
      <trkpt lat="47.1844860" lon="6.8596160">
        <ele>805.4</ele>
        <time>2022-07-21T11:54:22Z</time>
      </trkpt>
      <trkpt lat="47.1844790" lon="6.8596000">
        <ele>805.5</ele>
        <time>2022-07-21T11:54:23Z</time>
      </trkpt>
      <trkpt lat="47.1844710" lon="6.8595730">
        <ele>805.7</ele>
        <time>2022-07-21T11:54:24Z</time>
      </trkpt>
      <trkpt lat="47.1844500" lon="6.8595470">
        <ele>806.0</ele>
        <time>2022-07-21T11:54:26Z</time>
      </trkpt>
      <trkpt lat="47.1844430" lon="6.8595350">
        <ele>806.1</ele>
        <time>2022-07-21T11:54:27Z</time>
      </trkpt>
      <trkpt lat="47.1844350" lon="6.8595220">
        <ele>806.2</ele>
        <time>2022-07-21T11:54:28Z</time>
      </trkpt>
      <trkpt lat="47.1844310" lon="6.8595050">
        <ele>806.3</ele>
        <time>2022-07-21T11:54:29Z</time>
      </trkpt>
      <trkpt lat="47.1844220" lon="6.8594740">
        <ele>806.5</ele>
        <time>2022-07-21T11:54:30Z</time>
      </trkpt>
      <trkpt lat="47.1844190" lon="6.8594640">
        <ele>806.5</ele>
        <time>2022-07-21T11:54:31Z</time>
      </trkpt>
      <trkpt lat="47.1844160" lon="6.8594530">
        <ele>806.6</ele>
        <time>2022-07-21T11:54:32Z</time>
      </trkpt>
      <trkpt lat="47.1844120" lon="6.8594220">
        <ele>806.8</ele>
        <time>2022-07-21T11:54:33Z</time>
      </trkpt>
      <trkpt lat="47.1844100" lon="6.8594060">
        <ele>806.9</ele>
        <time>2022-07-21T11:54:34Z</time>
      </trkpt>
      <trkpt lat="47.1844090" lon="6.8593890">
        <ele>807.0</ele>
        <time>2022-07-21T11:54:35Z</time>
      </trkpt>
      <trkpt lat="47.1844050" lon="6.8593720">
        <ele>807.1</ele>
        <time>2022-07-21T11:54:36Z</time>
      </trkpt>
      <trkpt lat="47.1843990" lon="6.8593530">
        <ele>807.2</ele>
        <time>2022-07-21T11:54:37Z</time>
      </trkpt>
      <trkpt lat="47.1843900" lon="6.8593210">
        <ele>807.4</ele>
        <time>2022-07-21T11:54:38Z</time>
      </trkpt>
      <trkpt lat="47.1843870" lon="6.8593070">
        <ele>807.5</ele>
        <time>2022-07-21T11:54:39Z</time>
      </trkpt>
      <trkpt lat="47.1843830" lon="6.8592920">
        <ele>807.6</ele>
        <time>2022-07-21T11:54:40Z</time>
      </trkpt>
      <trkpt lat="47.1843710" lon="6.8592450">
        <ele>807.9</ele>
        <time>2022-07-21T11:54:42Z</time>
      </trkpt>
      <trkpt lat="47.1843690" lon="6.8592440">
        <ele>807.9</ele>
        <time>2022-07-21T11:54:43Z</time>
      </trkpt>
      <trkpt lat="47.1843650" lon="6.8592350">
        <ele>808.0</ele>
        <time>2022-07-21T11:54:44Z</time>
      </trkpt>
      <trkpt lat="47.1843610" lon="6.8592210">
        <ele>808.1</ele>
        <time>2022-07-21T11:54:45Z</time>
      </trkpt>
      <trkpt lat="47.1843520" lon="6.8592040">
        <ele>808.2</ele>
        <time>2022-07-21T11:54:46Z</time>
      </trkpt>
      <trkpt lat="47.1843390" lon="6.8591870">
        <ele>808.4</ele>
        <time>2022-07-21T11:54:48Z</time>
      </trkpt>
      <trkpt lat="47.1843320" lon="6.8591780">
        <ele>808.4</ele>
        <time>2022-07-21T11:54:49Z</time>
      </trkpt>
      <trkpt lat="47.1843330" lon="6.8591830">
        <ele>808.5</ele>
        <time>2022-07-21T11:54:50Z</time>
      </trkpt>
      <trkpt lat="47.1843330" lon="6.8591870">
        <ele>808.5</ele>
        <time>2022-07-21T11:54:51Z</time>
      </trkpt>
      <trkpt lat="47.1843310" lon="6.8591820">
        <ele>808.5</ele>
        <time>2022-07-21T11:54:52Z</time>
      </trkpt>
      <trkpt lat="47.1843270" lon="6.8591770">
        <ele>808.6</ele>
        <time>2022-07-21T11:54:53Z</time>
      </trkpt>
      <trkpt lat="47.1843280" lon="6.8591830">
        <ele>808.6</ele>
        <time>2022-07-21T11:54:54Z</time>
      </trkpt>
      <trkpt lat="47.1843280" lon="6.8591860">
        <ele>808.6</ele>
        <time>2022-07-21T11:54:55Z</time>
      </trkpt>
      <trkpt lat="47.1843280" lon="6.8591880">
        <ele>808.6</ele>
        <time>2022-07-21T11:54:56Z</time>
      </trkpt>
      <trkpt lat="47.1843270" lon="6.8591900">
        <ele>808.7</ele>
        <time>2022-07-21T11:54:57Z</time>
      </trkpt>
      <trkpt lat="47.1843270" lon="6.8591910">
        <ele>808.7</ele>
        <time>2022-07-21T11:54:58Z</time>
      </trkpt>
      <trkpt lat="47.1843260" lon="6.8591920">
        <ele>808.7</ele>
        <time>2022-07-21T11:54:59Z</time>
      </trkpt>
      <trkpt lat="47.1843250" lon="6.8591930">
        <ele>808.7</ele>
        <time>2022-07-21T11:55:00Z</time>
      </trkpt>
      <trkpt lat="47.1843250" lon="6.8591940">
        <ele>808.7</ele>
        <time>2022-07-21T11:55:01Z</time>
      </trkpt>
      <trkpt lat="47.1843240" lon="6.8591940">
        <ele>808.7</ele>
        <time>2022-07-21T11:55:02Z</time>
      </trkpt>
      <trkpt lat="47.1843290" lon="6.8591360">
        <ele>809.1</ele>
        <time>2022-07-21T11:55:15Z</time>
      </trkpt>
      <trkpt lat="47.1843310" lon="6.8591270">
        <ele>809.1</ele>
        <time>2022-07-21T11:55:16Z</time>
      </trkpt>
      <trkpt lat="47.1843320" lon="6.8591230">
        <ele>809.1</ele>
        <time>2022-07-21T11:55:17Z</time>
      </trkpt>
      <trkpt lat="47.1843310" lon="6.8591240">
        <ele>809.1</ele>
        <time>2022-07-21T11:55:18Z</time>
      </trkpt>
      <trkpt lat="47.1843300" lon="6.8591250">
        <ele>809.2</ele>
        <time>2022-07-21T11:55:19Z</time>
      </trkpt>
      <trkpt lat="47.1843290" lon="6.8591260">
        <ele>809.2</ele>
        <time>2022-07-21T11:55:20Z</time>
      </trkpt>
      <trkpt lat="47.1843270" lon="6.8591260">
        <ele>809.2</ele>
        <time>2022-07-21T11:55:21Z</time>
      </trkpt>
      <trkpt lat="47.1843260" lon="6.8591250">
        <ele>809.2</ele>
        <time>2022-07-21T11:55:22Z</time>
      </trkpt>
      <trkpt lat="47.1843250" lon="6.8591250">
        <ele>809.2</ele>
        <time>2022-07-21T11:55:23Z</time>
      </trkpt>
      <trkpt lat="47.1843250" lon="6.8591250">
        <ele>809.2</ele>
        <time>2022-07-21T11:55:24Z</time>
      </trkpt>
      <trkpt lat="47.1843250" lon="6.8591260">
        <ele>809.2</ele>
        <time>2022-07-21T11:55:25Z</time>
      </trkpt>
      <trkpt lat="47.1843250" lon="6.8591260">
        <ele>809.2</ele>
        <time>2022-07-21T11:55:26Z</time>
      </trkpt>
      <trkpt lat="47.1843690" lon="6.8590690">
        <ele>809.7</ele>
        <time>2022-07-21T11:57:05Z</time>
      </trkpt>
      <trkpt lat="47.1843640" lon="6.8590710">
        <ele>809.7</ele>
        <time>2022-07-21T11:57:06Z</time>
      </trkpt>
      <trkpt lat="47.1843570" lon="6.8590750">
        <ele>809.8</ele>
        <time>2022-07-21T11:57:08Z</time>
      </trkpt>
      <trkpt lat="47.1843440" lon="6.8590460">
        <ele>810.0</ele>
        <time>2022-07-21T11:57:09Z</time>
      </trkpt>
      <trkpt lat="47.1843280" lon="6.8590050">
        <ele>810.2</ele>
        <time>2022-07-21T11:57:10Z</time>
      </trkpt>
      <trkpt lat="47.1843230" lon="6.8589870">
        <ele>810.3</ele>
        <time>2022-07-21T11:57:11Z</time>
      </trkpt>
      <trkpt lat="47.1843120" lon="6.8589490">
        <ele>810.5</ele>
        <time>2022-07-21T11:57:12Z</time>
      </trkpt>
      <trkpt lat="47.1842950" lon="6.8589000">
        <ele>810.8</ele>
        <time>2022-07-21T11:57:14Z</time>
      </trkpt>
      <trkpt lat="47.1842870" lon="6.8588840">
        <ele>810.9</ele>
        <time>2022-07-21T11:57:15Z</time>
      </trkpt>
      <trkpt lat="47.1842780" lon="6.8588620">
        <ele>811.1</ele>
        <time>2022-07-21T11:57:16Z</time>
      </trkpt>
      <trkpt lat="47.1842670" lon="6.8588470">
        <ele>811.2</ele>
        <time>2022-07-21T11:57:17Z</time>
      </trkpt>
      <trkpt lat="47.1842540" lon="6.8588100">
        <ele>811.4</ele>
        <time>2022-07-21T11:57:18Z</time>
      </trkpt>
      <trkpt lat="47.1842460" lon="6.8587870">
        <ele>811.6</ele>
        <time>2022-07-21T11:57:20Z</time>
      </trkpt>
      <trkpt lat="47.1842400" lon="6.8587670">
        <ele>811.7</ele>
        <time>2022-07-21T11:57:21Z</time>
      </trkpt>
      <trkpt lat="47.1842330" lon="6.8587250">
        <ele>812.0</ele>
        <time>2022-07-21T11:57:22Z</time>
      </trkpt>
      <trkpt lat="47.1842320" lon="6.8587110">
        <ele>812.1</ele>
        <time>2022-07-21T11:57:23Z</time>
      </trkpt>
      <trkpt lat="47.1842330" lon="6.8586830">
        <ele>812.2</ele>
        <time>2022-07-21T11:57:24Z</time>
      </trkpt>
      <trkpt lat="47.1842350" lon="6.8586600">
        <ele>812.4</ele>
        <time>2022-07-21T11:57:25Z</time>
      </trkpt>
      <trkpt lat="47.1842310" lon="6.8586400">
        <ele>812.5</ele>
        <time>2022-07-21T11:57:26Z</time>
      </trkpt>
      <trkpt lat="47.1842250" lon="6.8586190">
        <ele>812.6</ele>
        <time>2022-07-21T11:57:27Z</time>
      </trkpt>
      <trkpt lat="47.1842200" lon="6.8586000">
        <ele>812.8</ele>
        <time>2022-07-21T11:57:28Z</time>
      </trkpt>
      <trkpt lat="47.1842150" lon="6.8585780">
        <ele>812.9</ele>
        <time>2022-07-21T11:57:29Z</time>
      </trkpt>
      <trkpt lat="47.1842120" lon="6.8585610">
        <ele>813.0</ele>
        <time>2022-07-21T11:57:30Z</time>
      </trkpt>
      <trkpt lat="47.1842140" lon="6.8585300">
        <ele>813.2</ele>
        <time>2022-07-21T11:57:31Z</time>
      </trkpt>
      <trkpt lat="47.1842100" lon="6.8585030">
        <ele>813.4</ele>
        <time>2022-07-21T11:57:32Z</time>
      </trkpt>
      <trkpt lat="47.1842090" lon="6.8584860">
        <ele>813.5</ele>
        <time>2022-07-21T11:57:33Z</time>
      </trkpt>
      <trkpt lat="47.1842120" lon="6.8584450">
        <ele>813.8</ele>
        <time>2022-07-21T11:57:34Z</time>
      </trkpt>
      <trkpt lat="47.1842140" lon="6.8584330">
        <ele>813.8</ele>
        <time>2022-07-21T11:57:35Z</time>
      </trkpt>
      <trkpt lat="47.1842190" lon="6.8583890">
        <ele>814.1</ele>
        <time>2022-07-21T11:57:36Z</time>
      </trkpt>
      <trkpt lat="47.1842200" lon="6.8583730">
        <ele>814.2</ele>
        <time>2022-07-21T11:57:37Z</time>
      </trkpt>
      <trkpt lat="47.1842220" lon="6.8583530">
        <ele>814.4</ele>
        <time>2022-07-21T11:57:38Z</time>
      </trkpt>
      <trkpt lat="47.1842230" lon="6.8583330">
        <ele>814.5</ele>
        <time>2022-07-21T11:57:39Z</time>
      </trkpt>
      <trkpt lat="47.1842140" lon="6.8582990">
        <ele>814.7</ele>
        <time>2022-07-21T11:57:41Z</time>
      </trkpt>
      <trkpt lat="47.1842100" lon="6.8582860">
        <ele>814.8</ele>
        <time>2022-07-21T11:57:42Z</time>
      </trkpt>
      <trkpt lat="47.1842020" lon="6.8582590">
        <ele>815.0</ele>
        <time>2022-07-21T11:57:43Z</time>
      </trkpt>
      <trkpt lat="47.1841960" lon="6.8582410">
        <ele>815.2</ele>
        <time>2022-07-21T11:57:45Z</time>
      </trkpt>
      <trkpt lat="47.1841920" lon="6.8582290">
        <ele>815.3</ele>
        <time>2022-07-21T11:57:46Z</time>
      </trkpt>
      <trkpt lat="47.1841890" lon="6.8582200">
        <ele>815.3</ele>
        <time>2022-07-21T11:57:47Z</time>
      </trkpt>
      <trkpt lat="47.1841860" lon="6.8582010">
        <ele>815.5</ele>
        <time>2022-07-21T11:57:48Z</time>
      </trkpt>
      <trkpt lat="47.1841780" lon="6.8581650">
        <ele>815.7</ele>
        <time>2022-07-21T11:57:49Z</time>
      </trkpt>
      <trkpt lat="47.1841730" lon="6.8581420">
        <ele>815.9</ele>
        <time>2022-07-21T11:57:51Z</time>
      </trkpt>
      <trkpt lat="47.1841680" lon="6.8581190">
        <ele>816.1</ele>
        <time>2022-07-21T11:57:52Z</time>
      </trkpt>
      <trkpt lat="47.1841630" lon="6.8580960">
        <ele>816.2</ele>
        <time>2022-07-21T11:57:53Z</time>
      </trkpt>
      <trkpt lat="47.1841560" lon="6.8580720">
        <ele>816.4</ele>
        <time>2022-07-21T11:57:55Z</time>
      </trkpt>
      <trkpt lat="47.1841470" lon="6.8580520">
        <ele>816.6</ele>
        <time>2022-07-21T11:57:56Z</time>
      </trkpt>
      <trkpt lat="47.1841420" lon="6.8580300">
        <ele>816.7</ele>
        <time>2022-07-21T11:57:57Z</time>
      </trkpt>
      <trkpt lat="47.1841350" lon="6.8580130">
        <ele>816.9</ele>
        <time>2022-07-21T11:57:58Z</time>
      </trkpt>
      <trkpt lat="47.1841250" lon="6.8579920">
        <ele>817.0</ele>
        <time>2022-07-21T11:57:59Z</time>
      </trkpt>
      <trkpt lat="47.1841180" lon="6.8579780">
        <ele>817.1</ele>
        <time>2022-07-21T11:58:00Z</time>
      </trkpt>
      <trkpt lat="47.1841110" lon="6.8579610">
        <ele>817.3</ele>
        <time>2022-07-21T11:58:01Z</time>
      </trkpt>
      <trkpt lat="47.1841050" lon="6.8579500">
        <ele>817.4</ele>
        <time>2022-07-21T11:58:02Z</time>
      </trkpt>
      <trkpt lat="47.1840980" lon="6.8579390">
        <ele>817.5</ele>
        <time>2022-07-21T11:58:03Z</time>
      </trkpt>
      <trkpt lat="47.1840950" lon="6.8579280">
        <ele>817.6</ele>
        <time>2022-07-21T11:58:05Z</time>
      </trkpt>
      <trkpt lat="47.1840930" lon="6.8579150">
        <ele>817.6</ele>
        <time>2022-07-21T11:58:06Z</time>
      </trkpt>
      <trkpt lat="47.1840920" lon="6.8578960">
        <ele>817.8</ele>
        <time>2022-07-21T11:58:07Z</time>
      </trkpt>
      <trkpt lat="47.1840900" lon="6.8578730">
        <ele>817.9</ele>
        <time>2022-07-21T11:58:08Z</time>
      </trkpt>
      <trkpt lat="47.1840850" lon="6.8578490">
        <ele>818.1</ele>
        <time>2022-07-21T11:58:09Z</time>
      </trkpt>
      <trkpt lat="47.1840730" lon="6.8578090">
        <ele>818.4</ele>
        <time>2022-07-21T11:58:10Z</time>
      </trkpt>
      <trkpt lat="47.1840690" lon="6.8577890">
        <ele>818.5</ele>
        <time>2022-07-21T11:58:11Z</time>
      </trkpt>
      <trkpt lat="47.1840630" lon="6.8577310">
        <ele>818.9</ele>
        <time>2022-07-21T11:58:13Z</time>
      </trkpt>
      <trkpt lat="47.1840610" lon="6.8577170">
        <ele>819.0</ele>
        <time>2022-07-21T11:58:14Z</time>
      </trkpt>
      <trkpt lat="47.1840590" lon="6.8577040">
        <ele>819.1</ele>
        <time>2022-07-21T11:58:15Z</time>
      </trkpt>
      <trkpt lat="47.1840570" lon="6.8576900">
        <ele>819.2</ele>
        <time>2022-07-21T11:58:16Z</time>
      </trkpt>
      <trkpt lat="47.1840530" lon="6.8576710">
        <ele>819.4</ele>
        <time>2022-07-21T11:58:17Z</time>
      </trkpt>
      <trkpt lat="47.1840460" lon="6.8576420">
        <ele>819.6</ele>
        <time>2022-07-21T11:58:19Z</time>
      </trkpt>
      <trkpt lat="47.1840390" lon="6.8576170">
        <ele>819.8</ele>
        <time>2022-07-21T11:58:20Z</time>
      </trkpt>
      <trkpt lat="47.1840390" lon="6.8575900">
        <ele>820.0</ele>
        <time>2022-07-21T11:58:21Z</time>
      </trkpt>
      <trkpt lat="47.1840440" lon="6.8575670">
        <ele>820.2</ele>
        <time>2022-07-21T11:58:22Z</time>
      </trkpt>
      <trkpt lat="47.1840470" lon="6.8575390">
        <ele>820.4</ele>
        <time>2022-07-21T11:58:24Z</time>
      </trkpt>
      <trkpt lat="47.1840480" lon="6.8575200">
        <ele>820.5</ele>
        <time>2022-07-21T11:58:25Z</time>
      </trkpt>
      <trkpt lat="47.1840490" lon="6.8575030">
        <ele>820.6</ele>
        <time>2022-07-21T11:58:26Z</time>
      </trkpt>
      <trkpt lat="47.1840500" lon="6.8574930">
        <ele>820.7</ele>
        <time>2022-07-21T11:58:27Z</time>
      </trkpt>
      <trkpt lat="47.1840500" lon="6.8574780">
        <ele>820.8</ele>
        <time>2022-07-21T11:58:28Z</time>
      </trkpt>
      <trkpt lat="47.1840500" lon="6.8574510">
        <ele>821.0</ele>
        <time>2022-07-21T11:58:30Z</time>
      </trkpt>
      <trkpt lat="47.1840490" lon="6.8574300">
        <ele>821.1</ele>
        <time>2022-07-21T11:58:31Z</time>
      </trkpt>
      <trkpt lat="47.1840490" lon="6.8574050">
        <ele>821.3</ele>
        <time>2022-07-21T11:58:33Z</time>
      </trkpt>
      <trkpt lat="47.1840480" lon="6.8573880">
        <ele>821.4</ele>
        <time>2022-07-21T11:58:34Z</time>
      </trkpt>
      <trkpt lat="47.1840470" lon="6.8573570">
        <ele>821.6</ele>
        <time>2022-07-21T11:58:35Z</time>
      </trkpt>
      <trkpt lat="47.1840480" lon="6.8573300">
        <ele>821.8</ele>
        <time>2022-07-21T11:58:36Z</time>
      </trkpt>
      <trkpt lat="47.1840510" lon="6.8573010">
        <ele>822.0</ele>
        <time>2022-07-21T11:58:38Z</time>
      </trkpt>
      <trkpt lat="47.1840540" lon="6.8572800">
        <ele>822.2</ele>
        <time>2022-07-21T11:58:39Z</time>
      </trkpt>
      <trkpt lat="47.1840560" lon="6.8572570">
        <ele>822.3</ele>
        <time>2022-07-21T11:58:40Z</time>
      </trkpt>
      <trkpt lat="47.1840600" lon="6.8572290">
        <ele>822.5</ele>
        <time>2022-07-21T11:58:41Z</time>
      </trkpt>
      <trkpt lat="47.1840630" lon="6.8572160">
        <ele>822.6</ele>
        <time>2022-07-21T11:58:42Z</time>
      </trkpt>
      <trkpt lat="47.1840660" lon="6.8572030">
        <ele>822.7</ele>
        <time>2022-07-21T11:58:43Z</time>
      </trkpt>
      <trkpt lat="47.1840700" lon="6.8571780">
        <ele>822.9</ele>
        <time>2022-07-21T11:58:44Z</time>
      </trkpt>
      <trkpt lat="47.1840730" lon="6.8571580">
        <ele>823.0</ele>
        <time>2022-07-21T11:58:45Z</time>
      </trkpt>
      <trkpt lat="47.1840780" lon="6.8571240">
        <ele>823.2</ele>
        <time>2022-07-21T11:58:47Z</time>
      </trkpt>
      <trkpt lat="47.1840800" lon="6.8571140">
        <ele>823.3</ele>
        <time>2022-07-21T11:58:48Z</time>
      </trkpt>
      <trkpt lat="47.1840820" lon="6.8571040">
        <ele>823.4</ele>
        <time>2022-07-21T11:58:49Z</time>
      </trkpt>
      <trkpt lat="47.1840890" lon="6.8570500">
        <ele>823.8</ele>
        <time>2022-07-21T11:58:51Z</time>
      </trkpt>
      <trkpt lat="47.1840900" lon="6.8570320">
        <ele>823.9</ele>
        <time>2022-07-21T11:58:52Z</time>
      </trkpt>
      <trkpt lat="47.1840900" lon="6.8570080">
        <ele>824.1</ele>
        <time>2022-07-21T11:58:53Z</time>
      </trkpt>
      <trkpt lat="47.1840880" lon="6.8569840">
        <ele>824.3</ele>
        <time>2022-07-21T11:58:54Z</time>
      </trkpt>
      <trkpt lat="47.1840770" lon="6.8569340">
        <ele>824.6</ele>
        <time>2022-07-21T11:58:56Z</time>
      </trkpt>
      <trkpt lat="47.1840730" lon="6.8569200">
        <ele>824.8</ele>
        <time>2022-07-21T11:58:57Z</time>
      </trkpt>
      <trkpt lat="47.1840690" lon="6.8568640">
        <ele>825.2</ele>
        <time>2022-07-21T11:58:58Z</time>
      </trkpt>
      <trkpt lat="47.1840650" lon="6.8568080">
        <ele>825.6</ele>
        <time>2022-07-21T11:59:00Z</time>
      </trkpt>
      <trkpt lat="47.1840650" lon="6.8567900">
        <ele>825.7</ele>
        <time>2022-07-21T11:59:01Z</time>
      </trkpt>
      <trkpt lat="47.1840620" lon="6.8567490">
        <ele>826.0</ele>
        <time>2022-07-21T11:59:02Z</time>
      </trkpt>
      <trkpt lat="47.1840600" lon="6.8567320">
        <ele>826.1</ele>
        <time>2022-07-21T11:59:03Z</time>
      </trkpt>
      <trkpt lat="47.1840590" lon="6.8567090">
        <ele>826.3</ele>
        <time>2022-07-21T11:59:04Z</time>
      </trkpt>
      <trkpt lat="47.1840560" lon="6.8566860">
        <ele>826.5</ele>
        <time>2022-07-21T11:59:05Z</time>
      </trkpt>
      <trkpt lat="47.1840520" lon="6.8566430">
        <ele>826.8</ele>
        <time>2022-07-21T11:59:07Z</time>
      </trkpt>
      <trkpt lat="47.1840510" lon="6.8566320">
        <ele>826.8</ele>
        <time>2022-07-21T11:59:08Z</time>
      </trkpt>
      <trkpt lat="47.1840510" lon="6.8566170">
        <ele>826.9</ele>
        <time>2022-07-21T11:59:09Z</time>
      </trkpt>
      <trkpt lat="47.1840500" lon="6.8565890">
        <ele>827.1</ele>
        <time>2022-07-21T11:59:10Z</time>
      </trkpt>
      <trkpt lat="47.1840520" lon="6.8565310">
        <ele>827.6</ele>
        <time>2022-07-21T11:59:12Z</time>
      </trkpt>
      <trkpt lat="47.1840530" lon="6.8565110">
        <ele>827.7</ele>
        <time>2022-07-21T11:59:13Z</time>
      </trkpt>
      <trkpt lat="47.1840550" lon="6.8564940">
        <ele>827.8</ele>
        <time>2022-07-21T11:59:14Z</time>
      </trkpt>
      <trkpt lat="47.1840560" lon="6.8564810">
        <ele>827.9</ele>
        <time>2022-07-21T11:59:15Z</time>
      </trkpt>
      <trkpt lat="47.1840570" lon="6.8564630">
        <ele>828.0</ele>
        <time>2022-07-21T11:59:17Z</time>
      </trkpt>
      <trkpt lat="47.1840570" lon="6.8564450">
        <ele>828.2</ele>
        <time>2022-07-21T11:59:18Z</time>
      </trkpt>
      <trkpt lat="47.1840540" lon="6.8564320">
        <ele>828.2</ele>
        <time>2022-07-21T11:59:19Z</time>
      </trkpt>
      <trkpt lat="47.1840500" lon="6.8564040">
        <ele>828.4</ele>
        <time>2022-07-21T11:59:20Z</time>
      </trkpt>
      <trkpt lat="47.1840490" lon="6.8563890">
        <ele>828.5</ele>
        <time>2022-07-21T11:59:22Z</time>
      </trkpt>
      <trkpt lat="47.1840470" lon="6.8563750">
        <ele>828.6</ele>
        <time>2022-07-21T11:59:23Z</time>
      </trkpt>
      <trkpt lat="47.1840470" lon="6.8563500">
        <ele>828.8</ele>
        <time>2022-07-21T11:59:24Z</time>
      </trkpt>
      <trkpt lat="47.1840420" lon="6.8563300">
        <ele>828.9</ele>
        <time>2022-07-21T11:59:25Z</time>
      </trkpt>
      <trkpt lat="47.1840150" lon="6.8562870">
        <ele>829.3</ele>
        <time>2022-07-21T11:59:26Z</time>
      </trkpt>
      <trkpt lat="47.1840020" lon="6.8562610">
        <ele>829.5</ele>
        <time>2022-07-21T11:59:27Z</time>
      </trkpt>
      <trkpt lat="47.1839930" lon="6.8562400">
        <ele>829.7</ele>
        <time>2022-07-21T11:59:29Z</time>
      </trkpt>
      <trkpt lat="47.1839850" lon="6.8562200">
        <ele>829.8</ele>
        <time>2022-07-21T11:59:30Z</time>
      </trkpt>
      <trkpt lat="47.1839760" lon="6.8561980">
        <ele>830.0</ele>
        <time>2022-07-21T11:59:31Z</time>
      </trkpt>
      <trkpt lat="47.1839680" lon="6.8561800">
        <ele>830.1</ele>
        <time>2022-07-21T11:59:32Z</time>
      </trkpt>
      <trkpt lat="47.1839590" lon="6.8561610">
        <ele>830.3</ele>
        <time>2022-07-21T11:59:33Z</time>
      </trkpt>
      <trkpt lat="47.1839520" lon="6.8561450">
        <ele>830.4</ele>
        <time>2022-07-21T11:59:34Z</time>
      </trkpt>
      <trkpt lat="47.1839430" lon="6.8561190">
        <ele>830.6</ele>
        <time>2022-07-21T11:59:35Z</time>
      </trkpt>
      <trkpt lat="47.1839270" lon="6.8560710">
        <ele>830.9</ele>
        <time>2022-07-21T11:59:37Z</time>
      </trkpt>
      <trkpt lat="47.1839210" lon="6.8560480">
        <ele>831.1</ele>
        <time>2022-07-21T11:59:39Z</time>
      </trkpt>
      <trkpt lat="47.1839170" lon="6.8560210">
        <ele>831.3</ele>
        <time>2022-07-21T11:59:40Z</time>
      </trkpt>
      <trkpt lat="47.1839150" lon="6.8559990">
        <ele>831.4</ele>
        <time>2022-07-21T11:59:41Z</time>
      </trkpt>
      <trkpt lat="47.1839130" lon="6.8559710">
        <ele>831.6</ele>
        <time>2022-07-21T11:59:42Z</time>
      </trkpt>
      <trkpt lat="47.1839140" lon="6.8559460">
        <ele>831.7</ele>
        <time>2022-07-21T11:59:43Z</time>
      </trkpt>
      <trkpt lat="47.1839160" lon="6.8559220">
        <ele>831.9</ele>
        <time>2022-07-21T11:59:44Z</time>
      </trkpt>
      <trkpt lat="47.1839190" lon="6.8558960">
        <ele>832.1</ele>
        <time>2022-07-21T11:59:46Z</time>
      </trkpt>
      <trkpt lat="47.1839210" lon="6.8558770">
        <ele>832.2</ele>
        <time>2022-07-21T11:59:47Z</time>
      </trkpt>
      <trkpt lat="47.1839260" lon="6.8558510">
        <ele>832.4</ele>
        <time>2022-07-21T11:59:48Z</time>
      </trkpt>
      <trkpt lat="47.1839330" lon="6.8558270">
        <ele>832.5</ele>
        <time>2022-07-21T11:59:49Z</time>
      </trkpt>
      <trkpt lat="47.1839380" lon="6.8558030">
        <ele>832.7</ele>
        <time>2022-07-21T11:59:50Z</time>
      </trkpt>
      <trkpt lat="47.1839430" lon="6.8557840">
        <ele>832.8</ele>
        <time>2022-07-21T11:59:51Z</time>
      </trkpt>
      <trkpt lat="47.1839480" lon="6.8557400">
        <ele>833.1</ele>
        <time>2022-07-21T11:59:52Z</time>
      </trkpt>
      <trkpt lat="47.1839520" lon="6.8557110">
        <ele>833.3</ele>
        <time>2022-07-21T11:59:53Z</time>
      </trkpt>
      <trkpt lat="47.1839540" lon="6.8556830">
        <ele>833.5</ele>
        <time>2022-07-21T11:59:55Z</time>
      </trkpt>
      <trkpt lat="47.1839550" lon="6.8556570">
        <ele>833.7</ele>
        <time>2022-07-21T11:59:56Z</time>
      </trkpt>
      <trkpt lat="47.1839540" lon="6.8556350">
        <ele>833.8</ele>
        <time>2022-07-21T11:59:57Z</time>
      </trkpt>
      <trkpt lat="47.1839550" lon="6.8556030">
        <ele>834.1</ele>
        <time>2022-07-21T11:59:58Z</time>
      </trkpt>
      <trkpt lat="47.1839530" lon="6.8555810">
        <ele>834.2</ele>
        <time>2022-07-21T12:00:00Z</time>
      </trkpt>
      <trkpt lat="47.1839510" lon="6.8555560">
        <ele>834.4</ele>
        <time>2022-07-21T12:00:01Z</time>
      </trkpt>
      <trkpt lat="47.1839500" lon="6.8555460">
        <ele>834.5</ele>
        <time>2022-07-21T12:00:02Z</time>
      </trkpt>
      <trkpt lat="47.1839490" lon="6.8555360">
        <ele>834.5</ele>
        <time>2022-07-21T12:00:03Z</time>
      </trkpt>
      <trkpt lat="47.1839480" lon="6.8555250">
        <ele>834.6</ele>
        <time>2022-07-21T12:00:04Z</time>
      </trkpt>
      <trkpt lat="47.1839470" lon="6.8555050">
        <ele>834.8</ele>
        <time>2022-07-21T12:00:05Z</time>
      </trkpt>
      <trkpt lat="47.1839450" lon="6.8554820">
        <ele>834.9</ele>
        <time>2022-07-21T12:00:06Z</time>
      </trkpt>
      <trkpt lat="47.1839420" lon="6.8554500">
        <ele>835.1</ele>
        <time>2022-07-21T12:00:07Z</time>
      </trkpt>
      <trkpt lat="47.1839410" lon="6.8554360">
        <ele>835.2</ele>
        <time>2022-07-21T12:00:08Z</time>
      </trkpt>
      <trkpt lat="47.1839410" lon="6.8554220">
        <ele>835.3</ele>
        <time>2022-07-21T12:00:09Z</time>
      </trkpt>
      <trkpt lat="47.1839410" lon="6.8553830">
        <ele>835.6</ele>
        <time>2022-07-21T12:00:10Z</time>
      </trkpt>
      <trkpt lat="47.1839390" lon="6.8553660">
        <ele>835.7</ele>
        <time>2022-07-21T12:00:11Z</time>
      </trkpt>
      <trkpt lat="47.1839370" lon="6.8553480">
        <ele>835.9</ele>
        <time>2022-07-21T12:00:12Z</time>
      </trkpt>
      <trkpt lat="47.1839410" lon="6.8553200">
        <ele>836.1</ele>
        <time>2022-07-21T12:00:13Z</time>
      </trkpt>
      <trkpt lat="47.1839440" lon="6.8553050">
        <ele>836.2</ele>
        <time>2022-07-21T12:00:15Z</time>
      </trkpt>
      <trkpt lat="47.1839460" lon="6.8552900">
        <ele>836.3</ele>
        <time>2022-07-21T12:00:16Z</time>
      </trkpt>
      <trkpt lat="47.1839530" lon="6.8552650">
        <ele>836.5</ele>
        <time>2022-07-21T12:00:17Z</time>
      </trkpt>
      <trkpt lat="47.1839590" lon="6.8552420">
        <ele>836.6</ele>
        <time>2022-07-21T12:00:18Z</time>
      </trkpt>
      <trkpt lat="47.1839660" lon="6.8551980">
        <ele>836.9</ele>
        <time>2022-07-21T12:00:20Z</time>
      </trkpt>
      <trkpt lat="47.1839660" lon="6.8551860">
        <ele>837.0</ele>
        <time>2022-07-21T12:00:21Z</time>
      </trkpt>
      <trkpt lat="47.1839800" lon="6.8551280">
        <ele>837.5</ele>
        <time>2022-07-21T12:00:23Z</time>
      </trkpt>
      <trkpt lat="47.1839840" lon="6.8551110">
        <ele>837.6</ele>
        <time>2022-07-21T12:00:24Z</time>
      </trkpt>
      <trkpt lat="47.1839890" lon="6.8550930">
        <ele>837.7</ele>
        <time>2022-07-21T12:00:25Z</time>
      </trkpt>
      <trkpt lat="47.1839970" lon="6.8550450">
        <ele>838.1</ele>
        <time>2022-07-21T12:00:26Z</time>
      </trkpt>
      <trkpt lat="47.1840000" lon="6.8550230">
        <ele>838.2</ele>
        <time>2022-07-21T12:00:27Z</time>
      </trkpt>
      <trkpt lat="47.1839960" lon="6.8549580">
        <ele>838.7</ele>
        <time>2022-07-21T12:00:29Z</time>
      </trkpt>
      <trkpt lat="47.1839940" lon="6.8549360">
        <ele>838.9</ele>
        <time>2022-07-21T12:00:30Z</time>
      </trkpt>
      <trkpt lat="47.1839910" lon="6.8549150">
        <ele>839.0</ele>
        <time>2022-07-21T12:00:31Z</time>
      </trkpt>
      <trkpt lat="47.1839870" lon="6.8548670">
        <ele>839.4</ele>
        <time>2022-07-21T12:00:32Z</time>
      </trkpt>
      <trkpt lat="47.1839830" lon="6.8548500">
        <ele>839.5</ele>
        <time>2022-07-21T12:00:33Z</time>
      </trkpt>
      <trkpt lat="47.1839790" lon="6.8548270">
        <ele>839.6</ele>
        <time>2022-07-21T12:00:34Z</time>
      </trkpt>
      <trkpt lat="47.1839690" lon="6.8547960">
        <ele>839.9</ele>
        <time>2022-07-21T12:00:36Z</time>
      </trkpt>
      <trkpt lat="47.1839560" lon="6.8547560">
        <ele>840.2</ele>
        <time>2022-07-21T12:00:37Z</time>
      </trkpt>
      <trkpt lat="47.1839460" lon="6.8547120">
        <ele>840.5</ele>
        <time>2022-07-21T12:00:39Z</time>
      </trkpt>
      <trkpt lat="47.1839430" lon="6.8547020">
        <ele>840.6</ele>
        <time>2022-07-21T12:00:40Z</time>
      </trkpt>
      <trkpt lat="47.1839390" lon="6.8546880">
        <ele>840.7</ele>
        <time>2022-07-21T12:00:41Z</time>
      </trkpt>
      <trkpt lat="47.1839340" lon="6.8546740">
        <ele>840.8</ele>
        <time>2022-07-21T12:00:42Z</time>
      </trkpt>
      <trkpt lat="47.1839330" lon="6.8546640">
        <ele>840.9</ele>
        <time>2022-07-21T12:00:43Z</time>
      </trkpt>
      <trkpt lat="47.1839280" lon="6.8546380">
        <ele>841.1</ele>
        <time>2022-07-21T12:00:44Z</time>
      </trkpt>
      <trkpt lat="47.1839250" lon="6.8546140">
        <ele>841.2</ele>
        <time>2022-07-21T12:00:45Z</time>
      </trkpt>
      <trkpt lat="47.1839220" lon="6.8545940">
        <ele>841.4</ele>
        <time>2022-07-21T12:00:46Z</time>
      </trkpt>
      <trkpt lat="47.1839180" lon="6.8545640">
        <ele>841.6</ele>
        <time>2022-07-21T12:00:48Z</time>
      </trkpt>
      <trkpt lat="47.1839130" lon="6.8545230">
        <ele>841.9</ele>
        <time>2022-07-21T12:00:49Z</time>
      </trkpt>
      <trkpt lat="47.1839070" lon="6.8544890">
        <ele>842.1</ele>
        <time>2022-07-21T12:00:50Z</time>
      </trkpt>
      <trkpt lat="47.1839040" lon="6.8544730">
        <ele>842.2</ele>
        <time>2022-07-21T12:00:52Z</time>
      </trkpt>
      <trkpt lat="47.1838990" lon="6.8544490">
        <ele>842.4</ele>
        <time>2022-07-21T12:00:53Z</time>
      </trkpt>
      <trkpt lat="47.1838950" lon="6.8544330">
        <ele>842.5</ele>
        <time>2022-07-21T12:00:54Z</time>
      </trkpt>
      <trkpt lat="47.1838780" lon="6.8544130">
        <ele>842.8</ele>
        <time>2022-07-21T12:00:55Z</time>
      </trkpt>
      <trkpt lat="47.1838700" lon="6.8543990">
        <ele>842.9</ele>
        <time>2022-07-21T12:00:56Z</time>
      </trkpt>
      <trkpt lat="47.1838580" lon="6.8543690">
        <ele>843.1</ele>
        <time>2022-07-21T12:00:57Z</time>
      </trkpt>
      <trkpt lat="47.1838520" lon="6.8543530">
        <ele>843.3</ele>
        <time>2022-07-21T12:00:58Z</time>
      </trkpt>
      <trkpt lat="47.1838470" lon="6.8543380">
        <ele>843.4</ele>
        <time>2022-07-21T12:00:59Z</time>
      </trkpt>
      <trkpt lat="47.1838480" lon="6.8543090">
        <ele>843.6</ele>
        <time>2022-07-21T12:01:01Z</time>
      </trkpt>
      <trkpt lat="47.1838510" lon="6.8542860">
        <ele>843.8</ele>
        <time>2022-07-21T12:01:02Z</time>
      </trkpt>
      <trkpt lat="47.1838530" lon="6.8542540">
        <ele>844.0</ele>
        <time>2022-07-21T12:01:03Z</time>
      </trkpt>
      <trkpt lat="47.1838510" lon="6.8542400">
        <ele>844.1</ele>
        <time>2022-07-21T12:01:04Z</time>
      </trkpt>
      <trkpt lat="47.1838490" lon="6.8542270">
        <ele>844.2</ele>
        <time>2022-07-21T12:01:05Z</time>
      </trkpt>
      <trkpt lat="47.1838420" lon="6.8542040">
        <ele>844.4</ele>
        <time>2022-07-21T12:01:06Z</time>
      </trkpt>
      <trkpt lat="47.1838390" lon="6.8541820">
        <ele>844.5</ele>
        <time>2022-07-21T12:01:07Z</time>
      </trkpt>
      <trkpt lat="47.1838350" lon="6.8541410">
        <ele>844.8</ele>
        <time>2022-07-21T12:01:08Z</time>
      </trkpt>
      <trkpt lat="47.1838330" lon="6.8541190">
        <ele>844.9</ele>
        <time>2022-07-21T12:01:09Z</time>
      </trkpt>
      <trkpt lat="47.1838340" lon="6.8541000">
        <ele>845.1</ele>
        <time>2022-07-21T12:01:10Z</time>
      </trkpt>
      <trkpt lat="47.1838350" lon="6.8540850">
        <ele>845.1</ele>
        <time>2022-07-21T12:01:11Z</time>
      </trkpt>
      <trkpt lat="47.1838370" lon="6.8540650">
        <ele>845.3</ele>
        <time>2022-07-21T12:01:13Z</time>
      </trkpt>
      <trkpt lat="47.1838400" lon="6.8540430">
        <ele>845.4</ele>
        <time>2022-07-21T12:01:14Z</time>
      </trkpt>
      <trkpt lat="47.1838410" lon="6.8540210">
        <ele>845.5</ele>
        <time>2022-07-21T12:01:15Z</time>
      </trkpt>
      <trkpt lat="47.1838410" lon="6.8539960">
        <ele>845.8</ele>
        <time>2022-07-21T12:01:16Z</time>
      </trkpt>
      <trkpt lat="47.1838380" lon="6.8539610">
        <ele>846.1</ele>
        <time>2022-07-21T12:01:18Z</time>
      </trkpt>
      <trkpt lat="47.1838310" lon="6.8539090">
        <ele>846.5</ele>
        <time>2022-07-21T12:01:19Z</time>
      </trkpt>
      <trkpt lat="47.1838290" lon="6.8538920">
        <ele>846.6</ele>
        <time>2022-07-21T12:01:20Z</time>
      </trkpt>
      <trkpt lat="47.1838260" lon="6.8538410">
        <ele>846.9</ele>
        <time>2022-07-21T12:01:22Z</time>
      </trkpt>
      <trkpt lat="47.1838280" lon="6.8538210">
        <ele>847.1</ele>
        <time>2022-07-21T12:01:23Z</time>
      </trkpt>
      <trkpt lat="47.1838300" lon="6.8537790">
        <ele>847.4</ele>
        <time>2022-07-21T12:01:24Z</time>
      </trkpt>
      <trkpt lat="47.1838300" lon="6.8537650">
        <ele>847.5</ele>
        <time>2022-07-21T12:01:25Z</time>
      </trkpt>
      <trkpt lat="47.1838280" lon="6.8537430">
        <ele>847.6</ele>
        <time>2022-07-21T12:01:26Z</time>
      </trkpt>
      <trkpt lat="47.1838240" lon="6.8537300">
        <ele>847.7</ele>
        <time>2022-07-21T12:01:27Z</time>
      </trkpt>
      <trkpt lat="47.1838100" lon="6.8536950">
        <ele>848.0</ele>
        <time>2022-07-21T12:01:29Z</time>
      </trkpt>
      <trkpt lat="47.1837980" lon="6.8536800">
        <ele>848.2</ele>
        <time>2022-07-21T12:01:30Z</time>
      </trkpt>
      <trkpt lat="47.1837880" lon="6.8536650">
        <ele>848.4</ele>
        <time>2022-07-21T12:01:31Z</time>
      </trkpt>
      <trkpt lat="47.1837780" lon="6.8536260">
        <ele>848.7</ele>
        <time>2022-07-21T12:01:33Z</time>
      </trkpt>
      <trkpt lat="47.1837740" lon="6.8536100">
        <ele>848.8</ele>
        <time>2022-07-21T12:01:34Z</time>
      </trkpt>
      <trkpt lat="47.1837670" lon="6.8535890">
        <ele>849.0</ele>
        <time>2022-07-21T12:01:35Z</time>
      </trkpt>
      <trkpt lat="47.1837560" lon="6.8535620">
        <ele>849.2</ele>
        <time>2022-07-21T12:01:37Z</time>
      </trkpt>
      <trkpt lat="47.1837470" lon="6.8535460">
        <ele>849.4</ele>
        <time>2022-07-21T12:01:38Z</time>
      </trkpt>
      <trkpt lat="47.1837380" lon="6.8535310">
        <ele>849.5</ele>
        <time>2022-07-21T12:01:39Z</time>
      </trkpt>
      <trkpt lat="47.1837230" lon="6.8535120">
        <ele>849.7</ele>
        <time>2022-07-21T12:01:40Z</time>
      </trkpt>
      <trkpt lat="47.1837110" lon="6.8534960">
        <ele>849.9</ele>
        <time>2022-07-21T12:01:41Z</time>
      </trkpt>
      <trkpt lat="47.1837020" lon="6.8534810">
        <ele>850.0</ele>
        <time>2022-07-21T12:01:42Z</time>
      </trkpt>
      <trkpt lat="47.1836930" lon="6.8534590">
        <ele>850.2</ele>
        <time>2022-07-21T12:01:43Z</time>
      </trkpt>
      <trkpt lat="47.1836860" lon="6.8534270">
        <ele>850.5</ele>
        <time>2022-07-21T12:01:45Z</time>
      </trkpt>
      <trkpt lat="47.1836810" lon="6.8534070">
        <ele>850.6</ele>
        <time>2022-07-21T12:01:46Z</time>
      </trkpt>
      <trkpt lat="47.1836740" lon="6.8533800">
        <ele>850.8</ele>
        <time>2022-07-21T12:01:47Z</time>
      </trkpt>
      <trkpt lat="47.1836700" lon="6.8533580">
        <ele>851.0</ele>
        <time>2022-07-21T12:01:48Z</time>
      </trkpt>
      <trkpt lat="47.1836700" lon="6.8533380">
        <ele>851.2</ele>
        <time>2022-07-21T12:01:49Z</time>
      </trkpt>
      <trkpt lat="47.1836720" lon="6.8533000">
        <ele>851.4</ele>
        <time>2022-07-21T12:01:51Z</time>
      </trkpt>
      <trkpt lat="47.1836720" lon="6.8532820">
        <ele>851.6</ele>
        <time>2022-07-21T12:01:52Z</time>
      </trkpt>
      <trkpt lat="47.1836720" lon="6.8532580">
        <ele>851.8</ele>
        <time>2022-07-21T12:01:53Z</time>
      </trkpt>
      <trkpt lat="47.1836710" lon="6.8532330">
        <ele>851.9</ele>
        <time>2022-07-21T12:01:55Z</time>
      </trkpt>
      <trkpt lat="47.1836690" lon="6.8532100">
        <ele>852.1</ele>
        <time>2022-07-21T12:01:56Z</time>
      </trkpt>
      <trkpt lat="47.1836660" lon="6.8531930">
        <ele>852.2</ele>
        <time>2022-07-21T12:01:57Z</time>
      </trkpt>
      <trkpt lat="47.1836620" lon="6.8531820">
        <ele>852.3</ele>
        <time>2022-07-21T12:01:58Z</time>
      </trkpt>
      <trkpt lat="47.1836580" lon="6.8531690">
        <ele>852.4</ele>
        <time>2022-07-21T12:01:59Z</time>
      </trkpt>
      <trkpt lat="47.1836530" lon="6.8531530">
        <ele>852.5</ele>
        <time>2022-07-21T12:02:00Z</time>
      </trkpt>
      <trkpt lat="47.1836470" lon="6.8531310">
        <ele>852.7</ele>
        <time>2022-07-21T12:02:01Z</time>
      </trkpt>
      <trkpt lat="47.1836410" lon="6.8531070">
        <ele>852.9</ele>
        <time>2022-07-21T12:02:02Z</time>
      </trkpt>
      <trkpt lat="47.1836370" lon="6.8530850">
        <ele>853.1</ele>
        <time>2022-07-21T12:02:03Z</time>
      </trkpt>
      <trkpt lat="47.1836320" lon="6.8530600">
        <ele>853.3</ele>
        <time>2022-07-21T12:02:04Z</time>
      </trkpt>
      <trkpt lat="47.1836230" lon="6.8530200">
        <ele>853.6</ele>
        <time>2022-07-21T12:02:06Z</time>
      </trkpt>
      <trkpt lat="47.1836190" lon="6.8530020">
        <ele>853.7</ele>
        <time>2022-07-21T12:02:07Z</time>
      </trkpt>
      <trkpt lat="47.1836020" lon="6.8529660">
        <ele>854.0</ele>
        <time>2022-07-21T12:02:08Z</time>
      </trkpt>
      <trkpt lat="47.1835970" lon="6.8529510">
        <ele>854.1</ele>
        <time>2022-07-21T12:02:09Z</time>
      </trkpt>
      <trkpt lat="47.1835900" lon="6.8529330">
        <ele>854.2</ele>
        <time>2022-07-21T12:02:10Z</time>
      </trkpt>
      <trkpt lat="47.1835750" lon="6.8528990">
        <ele>854.5</ele>
        <time>2022-07-21T12:02:12Z</time>
      </trkpt>
      <trkpt lat="47.1835660" lon="6.8528820">
        <ele>854.7</ele>
        <time>2022-07-21T12:02:13Z</time>
      </trkpt>
      <trkpt lat="47.1835590" lon="6.8528680">
        <ele>854.8</ele>
        <time>2022-07-21T12:02:14Z</time>
      </trkpt>
      <trkpt lat="47.1835520" lon="6.8528490">
        <ele>854.9</ele>
        <time>2022-07-21T12:02:16Z</time>
      </trkpt>
      <trkpt lat="47.1835440" lon="6.8528310">
        <ele>855.1</ele>
        <time>2022-07-21T12:02:17Z</time>
      </trkpt>
      <trkpt lat="47.1835360" lon="6.8528130">
        <ele>855.2</ele>
        <time>2022-07-21T12:02:18Z</time>
      </trkpt>
      <trkpt lat="47.1835290" lon="6.8527940">
        <ele>855.4</ele>
        <time>2022-07-21T12:02:19Z</time>
      </trkpt>
      <trkpt lat="47.1835220" lon="6.8527740">
        <ele>855.5</ele>
        <time>2022-07-21T12:02:20Z</time>
      </trkpt>
      <trkpt lat="47.1835150" lon="6.8527560">
        <ele>855.7</ele>
        <time>2022-07-21T12:02:21Z</time>
      </trkpt>
      <trkpt lat="47.1835040" lon="6.8527260">
        <ele>855.9</ele>
        <time>2022-07-21T12:02:23Z</time>
      </trkpt>
      <trkpt lat="47.1834980" lon="6.8527020">
        <ele>856.1</ele>
        <time>2022-07-21T12:02:24Z</time>
      </trkpt>
      <trkpt lat="47.1834960" lon="6.8526830">
        <ele>856.2</ele>
        <time>2022-07-21T12:02:25Z</time>
      </trkpt>
      <trkpt lat="47.1834940" lon="6.8526600">
        <ele>856.4</ele>
        <time>2022-07-21T12:02:26Z</time>
      </trkpt>
      <trkpt lat="47.1834910" lon="6.8526330">
        <ele>856.5</ele>
        <time>2022-07-21T12:02:27Z</time>
      </trkpt>
      <trkpt lat="47.1834810" lon="6.8525850">
        <ele>856.9</ele>
        <time>2022-07-21T12:02:28Z</time>
      </trkpt>
      <trkpt lat="47.1834780" lon="6.8525700">
        <ele>857.0</ele>
        <time>2022-07-21T12:02:29Z</time>
      </trkpt>
      <trkpt lat="47.1834750" lon="6.8525480">
        <ele>857.1</ele>
        <time>2022-07-21T12:02:30Z</time>
      </trkpt>
      <trkpt lat="47.1834740" lon="6.8525300">
        <ele>857.3</ele>
        <time>2022-07-21T12:02:31Z</time>
      </trkpt>
      <trkpt lat="47.1834720" lon="6.8525080">
        <ele>857.4</ele>
        <time>2022-07-21T12:02:33Z</time>
      </trkpt>
      <trkpt lat="47.1834700" lon="6.8524850">
        <ele>857.6</ele>
        <time>2022-07-21T12:02:34Z</time>
      </trkpt>
      <trkpt lat="47.1834700" lon="6.8524430">
        <ele>857.8</ele>
        <time>2022-07-21T12:02:35Z</time>
      </trkpt>
      <trkpt lat="47.1834700" lon="6.8524280">
        <ele>857.9</ele>
        <time>2022-07-21T12:02:36Z</time>
      </trkpt>
      <trkpt lat="47.1834700" lon="6.8524050">
        <ele>858.1</ele>
        <time>2022-07-21T12:02:37Z</time>
      </trkpt>
      <trkpt lat="47.1834700" lon="6.8523870">
        <ele>858.2</ele>
        <time>2022-07-21T12:02:38Z</time>
      </trkpt>
      <trkpt lat="47.1834700" lon="6.8523540">
        <ele>858.4</ele>
        <time>2022-07-21T12:02:40Z</time>
      </trkpt>
      <trkpt lat="47.1834700" lon="6.8523410">
        <ele>858.5</ele>
        <time>2022-07-21T12:02:41Z</time>
      </trkpt>
      <trkpt lat="47.1834700" lon="6.8523270">
        <ele>858.6</ele>
        <time>2022-07-21T12:02:42Z</time>
      </trkpt>
      <trkpt lat="47.1834710" lon="6.8523060">
        <ele>858.8</ele>
        <time>2022-07-21T12:02:43Z</time>
      </trkpt>
      <trkpt lat="47.1834670" lon="6.8522840">
        <ele>858.9</ele>
        <time>2022-07-21T12:02:44Z</time>
      </trkpt>
      <trkpt lat="47.1834620" lon="6.8522680">
        <ele>859.0</ele>
        <time>2022-07-21T12:02:45Z</time>
      </trkpt>
      <trkpt lat="47.1834550" lon="6.8522440">
        <ele>859.2</ele>
        <time>2022-07-21T12:02:46Z</time>
      </trkpt>
      <trkpt lat="47.1834500" lon="6.8522270">
        <ele>859.3</ele>
        <time>2022-07-21T12:02:48Z</time>
      </trkpt>
      <trkpt lat="47.1834440" lon="6.8522060">
        <ele>859.5</ele>
        <time>2022-07-21T12:02:49Z</time>
      </trkpt>
      <trkpt lat="47.1834400" lon="6.8521840">
        <ele>859.6</ele>
        <time>2022-07-21T12:02:50Z</time>
      </trkpt>
      <trkpt lat="47.1834400" lon="6.8521620">
        <ele>859.8</ele>
        <time>2022-07-21T12:02:51Z</time>
      </trkpt>
      <trkpt lat="47.1834420" lon="6.8521400">
        <ele>860.0</ele>
        <time>2022-07-21T12:02:52Z</time>
      </trkpt>
      <trkpt lat="47.1834460" lon="6.8521190">
        <ele>860.1</ele>
        <time>2022-07-21T12:02:53Z</time>
      </trkpt>
      <trkpt lat="47.1834530" lon="6.8520910">
        <ele>860.4</ele>
        <time>2022-07-21T12:02:54Z</time>
      </trkpt>
      <trkpt lat="47.1834580" lon="6.8520750">
        <ele>860.5</ele>
        <time>2022-07-21T12:02:55Z</time>
      </trkpt>
      <trkpt lat="47.1834620" lon="6.8520600">
        <ele>860.6</ele>
        <time>2022-07-21T12:02:56Z</time>
      </trkpt>
      <trkpt lat="47.1834850" lon="6.8520420">
        <ele>861.0</ele>
        <time>2022-07-21T12:02:57Z</time>
      </trkpt>
      <trkpt lat="47.1834990" lon="6.8520410">
        <ele>862.6</ele>
        <time>2022-07-21T12:02:59Z</time>
      </trkpt>
      <trkpt lat="47.1835130" lon="6.8520410">
        <ele>862.7</ele>
        <time>2022-07-21T12:03:00Z</time>
      </trkpt>
      <trkpt lat="47.1835260" lon="6.8520400">
        <ele>862.8</ele>
        <time>2022-07-21T12:03:01Z</time>
      </trkpt>
      <trkpt lat="47.1835440" lon="6.8520760">
        <ele>863.2</ele>
        <time>2022-07-21T12:03:03Z</time>
      </trkpt>
      <trkpt lat="47.1835460" lon="6.8520870">
        <ele>863.2</ele>
        <time>2022-07-21T12:03:04Z</time>
      </trkpt>
      <trkpt lat="47.1835490" lon="6.8521040">
        <ele>863.4</ele>
        <time>2022-07-21T12:03:05Z</time>
      </trkpt>
      <trkpt lat="47.1835520" lon="6.8521210">
        <ele>863.5</ele>
        <time>2022-07-21T12:03:06Z</time>
      </trkpt>
      <trkpt lat="47.1835560" lon="6.8521450">
        <ele>863.7</ele>
        <time>2022-07-21T12:03:08Z</time>
      </trkpt>
      <trkpt lat="47.1835600" lon="6.8521870">
        <ele>864.0</ele>
        <time>2022-07-21T12:03:09Z</time>
      </trkpt>
      <trkpt lat="47.1835630" lon="6.8522060">
        <ele>864.1</ele>
        <time>2022-07-21T12:03:11Z</time>
      </trkpt>
      <trkpt lat="47.1835670" lon="6.8522250">
        <ele>864.2</ele>
        <time>2022-07-21T12:03:12Z</time>
      </trkpt>
      <trkpt lat="47.1835700" lon="6.8522440">
        <ele>864.4</ele>
        <time>2022-07-21T12:03:13Z</time>
      </trkpt>
      <trkpt lat="47.1835750" lon="6.8522600">
        <ele>864.5</ele>
        <time>2022-07-21T12:03:15Z</time>
      </trkpt>
      <trkpt lat="47.1835890" lon="6.8522750">
        <ele>864.7</ele>
        <time>2022-07-21T12:03:16Z</time>
      </trkpt>
      <trkpt lat="47.1836030" lon="6.8522820">
        <ele>864.8</ele>
        <time>2022-07-21T12:03:17Z</time>
      </trkpt>
      <trkpt lat="47.1836180" lon="6.8522880">
        <ele>865.0</ele>
        <time>2022-07-21T12:03:18Z</time>
      </trkpt>
      <trkpt lat="47.1836310" lon="6.8522920">
        <ele>865.1</ele>
        <time>2022-07-21T12:03:19Z</time>
      </trkpt>
      <trkpt lat="47.1836440" lon="6.8522980">
        <ele>865.3</ele>
        <time>2022-07-21T12:03:20Z</time>
      </trkpt>
      <trkpt lat="47.1836550" lon="6.8523060">
        <ele>865.4</ele>
        <time>2022-07-21T12:03:21Z</time>
      </trkpt>
      <trkpt lat="47.1836710" lon="6.8523180">
        <ele>865.6</ele>
        <time>2022-07-21T12:03:22Z</time>
      </trkpt>
      <trkpt lat="47.1836840" lon="6.8523270">
        <ele>865.8</ele>
        <time>2022-07-21T12:03:23Z</time>
      </trkpt>
      <trkpt lat="47.1836920" lon="6.8523330">
        <ele>865.9</ele>
        <time>2022-07-21T12:03:24Z</time>
      </trkpt>
      <trkpt lat="47.1837050" lon="6.8523430">
        <ele>866.1</ele>
        <time>2022-07-21T12:03:26Z</time>
      </trkpt>
      <trkpt lat="47.1837110" lon="6.8523510">
        <ele>866.1</ele>
        <time>2022-07-21T12:03:27Z</time>
      </trkpt>
      <trkpt lat="47.1837150" lon="6.8523560">
        <ele>866.2</ele>
        <time>2022-07-21T12:03:28Z</time>
      </trkpt>
      <trkpt lat="47.1837230" lon="6.8523620">
        <ele>866.3</ele>
        <time>2022-07-21T12:03:29Z</time>
      </trkpt>
      <trkpt lat="47.1837330" lon="6.8523700">
        <ele>866.4</ele>
        <time>2022-07-21T12:03:30Z</time>
      </trkpt>
      <trkpt lat="47.1837470" lon="6.8523810">
        <ele>866.6</ele>
        <time>2022-07-21T12:03:31Z</time>
      </trkpt>
      <trkpt lat="47.1837590" lon="6.8523900">
        <ele>866.8</ele>
        <time>2022-07-21T12:03:32Z</time>
      </trkpt>
      <trkpt lat="47.1837730" lon="6.8524010">
        <ele>866.9</ele>
        <time>2022-07-21T12:03:33Z</time>
      </trkpt>
      <trkpt lat="47.1837850" lon="6.8524110">
        <ele>867.1</ele>
        <time>2022-07-21T12:03:34Z</time>
      </trkpt>
      <trkpt lat="47.1837940" lon="6.8524230">
        <ele>867.2</ele>
        <time>2022-07-21T12:03:36Z</time>
      </trkpt>
      <trkpt lat="47.1838080" lon="6.8524470">
        <ele>867.5</ele>
        <time>2022-07-21T12:03:37Z</time>
      </trkpt>
      <trkpt lat="47.1838200" lon="6.8524750">
        <ele>867.7</ele>
        <time>2022-07-21T12:03:38Z</time>
      </trkpt>
      <trkpt lat="47.1838250" lon="6.8524860">
        <ele>867.8</ele>
        <time>2022-07-21T12:03:39Z</time>
      </trkpt>
      <trkpt lat="47.1838300" lon="6.8524980">
        <ele>867.9</ele>
        <time>2022-07-21T12:03:40Z</time>
      </trkpt>
      <trkpt lat="47.1838430" lon="6.8525130">
        <ele>868.1</ele>
        <time>2022-07-21T12:03:42Z</time>
      </trkpt>
      <trkpt lat="47.1838530" lon="6.8525240">
        <ele>868.2</ele>
        <time>2022-07-21T12:03:43Z</time>
      </trkpt>
      <trkpt lat="47.1838610" lon="6.8525360">
        <ele>868.3</ele>
        <time>2022-07-21T12:03:44Z</time>
      </trkpt>
      <trkpt lat="47.1838670" lon="6.8525480">
        <ele>868.5</ele>
        <time>2022-07-21T12:03:45Z</time>
      </trkpt>
      <trkpt lat="47.1838730" lon="6.8525650">
        <ele>868.6</ele>
        <time>2022-07-21T12:03:47Z</time>
      </trkpt>
      <trkpt lat="47.1838820" lon="6.8525910">
        <ele>868.8</ele>
        <time>2022-07-21T12:03:48Z</time>
      </trkpt>
      <trkpt lat="47.1838850" lon="6.8526140">
        <ele>869.0</ele>
        <time>2022-07-21T12:03:49Z</time>
      </trkpt>
      <trkpt lat="47.1838890" lon="6.8526310">
        <ele>869.1</ele>
        <time>2022-07-21T12:03:50Z</time>
      </trkpt>
      <trkpt lat="47.1838940" lon="6.8526490">
        <ele>869.3</ele>
        <time>2022-07-21T12:03:51Z</time>
      </trkpt>
      <trkpt lat="47.1838990" lon="6.8526670">
        <ele>869.4</ele>
        <time>2022-07-21T12:03:53Z</time>
      </trkpt>
      <trkpt lat="47.1839120" lon="6.8526950">
        <ele>869.6</ele>
        <time>2022-07-21T12:03:54Z</time>
      </trkpt>
      <trkpt lat="47.1839170" lon="6.8527050">
        <ele>869.7</ele>
        <time>2022-07-21T12:03:55Z</time>
      </trkpt>
      <trkpt lat="47.1839220" lon="6.8527140">
        <ele>869.8</ele>
        <time>2022-07-21T12:03:56Z</time>
      </trkpt>
      <trkpt lat="47.1839300" lon="6.8527280">
        <ele>870.0</ele>
        <time>2022-07-21T12:03:57Z</time>
      </trkpt>
      <trkpt lat="47.1839360" lon="6.8527400">
        <ele>870.1</ele>
        <time>2022-07-21T12:03:58Z</time>
      </trkpt>
      <trkpt lat="47.1839420" lon="6.8527490">
        <ele>870.2</ele>
        <time>2022-07-21T12:03:59Z</time>
      </trkpt>
      <trkpt lat="47.1839600" lon="6.8527840">
        <ele>870.5</ele>
        <time>2022-07-21T12:04:00Z</time>
      </trkpt>
      <trkpt lat="47.1839650" lon="6.8527950">
        <ele>870.6</ele>
        <time>2022-07-21T12:04:01Z</time>
      </trkpt>
      <trkpt lat="47.1839720" lon="6.8528080">
        <ele>870.7</ele>
        <time>2022-07-21T12:04:02Z</time>
      </trkpt>
      <trkpt lat="47.1839770" lon="6.8528180">
        <ele>870.8</ele>
        <time>2022-07-21T12:04:04Z</time>
      </trkpt>
      <trkpt lat="47.1839830" lon="6.8528300">
        <ele>870.9</ele>
        <time>2022-07-21T12:04:05Z</time>
      </trkpt>
      <trkpt lat="47.1839900" lon="6.8528500">
        <ele>871.0</ele>
        <time>2022-07-21T12:04:06Z</time>
      </trkpt>
      <trkpt lat="47.1839930" lon="6.8528670">
        <ele>871.2</ele>
        <time>2022-07-21T12:04:07Z</time>
      </trkpt>
      <trkpt lat="47.1839960" lon="6.8528780">
        <ele>871.3</ele>
        <time>2022-07-21T12:04:08Z</time>
      </trkpt>
      <trkpt lat="47.1839970" lon="6.8528890">
        <ele>871.3</ele>
        <time>2022-07-21T12:04:09Z</time>
      </trkpt>
      <trkpt lat="47.1839980" lon="6.8528990">
        <ele>871.4</ele>
        <time>2022-07-21T12:04:10Z</time>
      </trkpt>
      <trkpt lat="47.1840010" lon="6.8529120">
        <ele>871.5</ele>
        <time>2022-07-21T12:04:11Z</time>
      </trkpt>
      <trkpt lat="47.1840050" lon="6.8529230">
        <ele>871.6</ele>
        <time>2022-07-21T12:04:12Z</time>
      </trkpt>
      <trkpt lat="47.1840100" lon="6.8529380">
        <ele>871.7</ele>
        <time>2022-07-21T12:04:13Z</time>
      </trkpt>
      <trkpt lat="47.1840160" lon="6.8529550">
        <ele>871.9</ele>
        <time>2022-07-21T12:04:14Z</time>
      </trkpt>
      <trkpt lat="47.1840330" lon="6.8529860">
        <ele>872.1</ele>
        <time>2022-07-21T12:04:15Z</time>
      </trkpt>
      <trkpt lat="47.1840440" lon="6.8530000">
        <ele>872.3</ele>
        <time>2022-07-21T12:04:17Z</time>
      </trkpt>
      <trkpt lat="47.1840550" lon="6.8530140">
        <ele>872.4</ele>
        <time>2022-07-21T12:04:18Z</time>
      </trkpt>
      <trkpt lat="47.1840660" lon="6.8530290">
        <ele>872.6</ele>
        <time>2022-07-21T12:04:19Z</time>
      </trkpt>
      <trkpt lat="47.1840920" lon="6.8530620">
        <ele>873.0</ele>
        <time>2022-07-21T12:04:20Z</time>
      </trkpt>
      <trkpt lat="47.1841000" lon="6.8530730">
        <ele>873.1</ele>
        <time>2022-07-21T12:04:21Z</time>
      </trkpt>
      <trkpt lat="47.1841210" lon="6.8531000">
        <ele>873.4</ele>
        <time>2022-07-21T12:04:22Z</time>
      </trkpt>
      <trkpt lat="47.1841300" lon="6.8531110">
        <ele>873.5</ele>
        <time>2022-07-21T12:04:23Z</time>
      </trkpt>
      <trkpt lat="47.1841540" lon="6.8531430">
        <ele>873.9</ele>
        <time>2022-07-21T12:04:25Z</time>
      </trkpt>
      <trkpt lat="47.1841600" lon="6.8531530">
        <ele>874.0</ele>
        <time>2022-07-21T12:04:26Z</time>
      </trkpt>
      <trkpt lat="47.1841700" lon="6.8531730">
        <ele>874.2</ele>
        <time>2022-07-21T12:04:27Z</time>
      </trkpt>
      <trkpt lat="47.1841790" lon="6.8531910">
        <ele>874.3</ele>
        <time>2022-07-21T12:04:28Z</time>
      </trkpt>
      <trkpt lat="47.1841880" lon="6.8532100">
        <ele>874.5</ele>
        <time>2022-07-21T12:04:29Z</time>
      </trkpt>
      <trkpt lat="47.1842000" lon="6.8532320">
        <ele>874.7</ele>
        <time>2022-07-21T12:04:30Z</time>
      </trkpt>
      <trkpt lat="47.1842090" lon="6.8532490">
        <ele>874.9</ele>
        <time>2022-07-21T12:04:31Z</time>
      </trkpt>
      <trkpt lat="47.1842220" lon="6.8532720">
        <ele>875.1</ele>
        <time>2022-07-21T12:04:32Z</time>
      </trkpt>
      <trkpt lat="47.1842290" lon="6.8532820">
        <ele>875.2</ele>
        <time>2022-07-21T12:04:33Z</time>
      </trkpt>
      <trkpt lat="47.1842370" lon="6.8532950">
        <ele>875.3</ele>
        <time>2022-07-21T12:04:34Z</time>
      </trkpt>
      <trkpt lat="47.1842470" lon="6.8533100">
        <ele>875.5</ele>
        <time>2022-07-21T12:04:35Z</time>
      </trkpt>
      <trkpt lat="47.1842700" lon="6.8533390">
        <ele>875.8</ele>
        <time>2022-07-21T12:04:37Z</time>
      </trkpt>
      <trkpt lat="47.1842770" lon="6.8533480">
        <ele>875.9</ele>
        <time>2022-07-21T12:04:38Z</time>
      </trkpt>
      <trkpt lat="47.1842970" lon="6.8533790">
        <ele>876.2</ele>
        <time>2022-07-21T12:04:40Z</time>
      </trkpt>
      <trkpt lat="47.1843030" lon="6.8533890">
        <ele>876.3</ele>
        <time>2022-07-21T12:04:41Z</time>
      </trkpt>
      <trkpt lat="47.1843100" lon="6.8534010">
        <ele>876.4</ele>
        <time>2022-07-21T12:04:43Z</time>
      </trkpt>
      <trkpt lat="47.1843200" lon="6.8534180">
        <ele>876.5</ele>
        <time>2022-07-21T12:04:44Z</time>
      </trkpt>
      <trkpt lat="47.1843230" lon="6.8534170">
        <ele>876.6</ele>
        <time>2022-07-21T12:04:45Z</time>
      </trkpt>
      <trkpt lat="47.1843270" lon="6.8534200">
        <ele>876.6</ele>
        <time>2022-07-21T12:04:46Z</time>
      </trkpt>
      <trkpt lat="47.1843290" lon="6.8534210">
        <ele>876.6</ele>
        <time>2022-07-21T12:04:48Z</time>
      </trkpt>
      <trkpt lat="47.1843320" lon="6.8534220">
        <ele>876.7</ele>
        <time>2022-07-21T12:04:49Z</time>
      </trkpt>
      <trkpt lat="47.1843340" lon="6.8534240">
        <ele>876.7</ele>
        <time>2022-07-21T12:04:50Z</time>
      </trkpt>
      <trkpt lat="47.1843420" lon="6.8534370">
        <ele>876.8</ele>
        <time>2022-07-21T12:04:51Z</time>
      </trkpt>
      <trkpt lat="47.1843500" lon="6.8534500">
        <ele>876.9</ele>
        <time>2022-07-21T12:04:52Z</time>
      </trkpt>
      <trkpt lat="47.1843550" lon="6.8534570">
        <ele>877.0</ele>
        <time>2022-07-21T12:04:53Z</time>
      </trkpt>
      <trkpt lat="47.1843630" lon="6.8534690">
        <ele>877.1</ele>
        <time>2022-07-21T12:04:54Z</time>
      </trkpt>
      <trkpt lat="47.1843750" lon="6.8534840">
        <ele>877.3</ele>
        <time>2022-07-21T12:04:55Z</time>
      </trkpt>
      <trkpt lat="47.1843830" lon="6.8534950">
        <ele>877.4</ele>
        <time>2022-07-21T12:04:56Z</time>
      </trkpt>
      <trkpt lat="47.1843900" lon="6.8535040">
        <ele>877.5</ele>
        <time>2022-07-21T12:04:58Z</time>
      </trkpt>
      <trkpt lat="47.1843960" lon="6.8535120">
        <ele>877.6</ele>
        <time>2022-07-21T12:04:59Z</time>
      </trkpt>
      <trkpt lat="47.1844030" lon="6.8535230">
        <ele>877.7</ele>
        <time>2022-07-21T12:05:00Z</time>
      </trkpt>
      <trkpt lat="47.1844120" lon="6.8535340">
        <ele>877.8</ele>
        <time>2022-07-21T12:05:02Z</time>
      </trkpt>
      <trkpt lat="47.1844220" lon="6.8535460">
        <ele>878.0</ele>
        <time>2022-07-21T12:05:03Z</time>
      </trkpt>
      <trkpt lat="47.1844300" lon="6.8535570">
        <ele>878.1</ele>
        <time>2022-07-21T12:05:04Z</time>
      </trkpt>
      <trkpt lat="47.1844340" lon="6.8535630">
        <ele>878.1</ele>
        <time>2022-07-21T12:05:05Z</time>
      </trkpt>
      <trkpt lat="47.1844440" lon="6.8535760">
        <ele>878.3</ele>
        <time>2022-07-21T12:05:06Z</time>
      </trkpt>
      <trkpt lat="47.1844590" lon="6.8535920">
        <ele>878.5</ele>
        <time>2022-07-21T12:05:07Z</time>
      </trkpt>
      <trkpt lat="47.1844670" lon="6.8536000">
        <ele>878.6</ele>
        <time>2022-07-21T12:05:08Z</time>
      </trkpt>
      <trkpt lat="47.1844740" lon="6.8536080">
        <ele>878.7</ele>
        <time>2022-07-21T12:05:09Z</time>
      </trkpt>
      <trkpt lat="47.1844970" lon="6.8536360">
        <ele>879.0</ele>
        <time>2022-07-21T12:05:10Z</time>
      </trkpt>
      <trkpt lat="47.1845030" lon="6.8536430">
        <ele>879.1</ele>
        <time>2022-07-21T12:05:11Z</time>
      </trkpt>
      <trkpt lat="47.1845140" lon="6.8536560">
        <ele>879.3</ele>
        <time>2022-07-21T12:05:12Z</time>
      </trkpt>
      <trkpt lat="47.1845430" lon="6.8536990">
        <ele>879.8</ele>
        <time>2022-07-21T12:05:14Z</time>
      </trkpt>
      <trkpt lat="47.1845590" lon="6.8537330">
        <ele>880.1</ele>
        <time>2022-07-21T12:05:15Z</time>
      </trkpt>
      <trkpt lat="47.1845650" lon="6.8537440">
        <ele>880.2</ele>
        <time>2022-07-21T12:05:16Z</time>
      </trkpt>
      <trkpt lat="47.1845760" lon="6.8537630">
        <ele>880.4</ele>
        <time>2022-07-21T12:05:17Z</time>
      </trkpt>
      <trkpt lat="47.1845900" lon="6.8537790">
        <ele>880.6</ele>
        <time>2022-07-21T12:05:18Z</time>
      </trkpt>
      <trkpt lat="47.1846000" lon="6.8537940">
        <ele>880.7</ele>
        <time>2022-07-21T12:05:19Z</time>
      </trkpt>
      <trkpt lat="47.1846060" lon="6.8538100">
        <ele>880.9</ele>
        <time>2022-07-21T12:05:20Z</time>
      </trkpt>
      <trkpt lat="47.1846090" lon="6.8538230">
        <ele>881.0</ele>
        <time>2022-07-21T12:05:21Z</time>
      </trkpt>
      <trkpt lat="47.1846110" lon="6.8538370">
        <ele>881.1</ele>
        <time>2022-07-21T12:05:22Z</time>
      </trkpt>
      <trkpt lat="47.1846130" lon="6.8538530">
        <ele>881.2</ele>
        <time>2022-07-21T12:05:23Z</time>
      </trkpt>
      <trkpt lat="47.1846160" lon="6.8538650">
        <ele>881.3</ele>
        <time>2022-07-21T12:05:24Z</time>
      </trkpt>
      <trkpt lat="47.1846310" lon="6.8538810">
        <ele>881.5</ele>
        <time>2022-07-21T12:05:25Z</time>
      </trkpt>
      <trkpt lat="47.1846410" lon="6.8538870">
        <ele>881.6</ele>
        <time>2022-07-21T12:05:26Z</time>
      </trkpt>
      <trkpt lat="47.1846510" lon="6.8538920">
        <ele>881.7</ele>
        <time>2022-07-21T12:05:27Z</time>
      </trkpt>
      <trkpt lat="47.1846650" lon="6.8539090">
        <ele>881.9</ele>
        <time>2022-07-21T12:05:28Z</time>
      </trkpt>
      <trkpt lat="47.1846690" lon="6.8539260">
        <ele>882.1</ele>
        <time>2022-07-21T12:05:29Z</time>
      </trkpt>
      <trkpt lat="47.1846750" lon="6.8539460">
        <ele>882.2</ele>
        <time>2022-07-21T12:05:30Z</time>
      </trkpt>
      <trkpt lat="47.1846850" lon="6.8539670">
        <ele>882.4</ele>
        <time>2022-07-21T12:05:31Z</time>
      </trkpt>
      <trkpt lat="47.1847110" lon="6.8540050">
        <ele>882.9</ele>
        <time>2022-07-21T12:05:32Z</time>
      </trkpt>
      <trkpt lat="47.1847200" lon="6.8540160">
        <ele>883.0</ele>
        <time>2022-07-21T12:05:33Z</time>
      </trkpt>
      <trkpt lat="47.1847330" lon="6.8540320">
        <ele>883.2</ele>
        <time>2022-07-21T12:05:34Z</time>
      </trkpt>
      <trkpt lat="47.1847420" lon="6.8540460">
        <ele>883.4</ele>
        <time>2022-07-21T12:05:35Z</time>
      </trkpt>
      <trkpt lat="47.1847520" lon="6.8540730">
        <ele>883.6</ele>
        <time>2022-07-21T12:05:36Z</time>
      </trkpt>
      <trkpt lat="47.1847550" lon="6.8540840">
        <ele>883.7</ele>
        <time>2022-07-21T12:05:37Z</time>
      </trkpt>
      <trkpt lat="47.1847580" lon="6.8540960">
        <ele>883.8</ele>
        <time>2022-07-21T12:05:38Z</time>
      </trkpt>
      <trkpt lat="47.1847630" lon="6.8541150">
        <ele>884.0</ele>
        <time>2022-07-21T12:05:39Z</time>
      </trkpt>
      <trkpt lat="47.1847660" lon="6.8541270">
        <ele>884.2</ele>
        <time>2022-07-21T12:05:40Z</time>
      </trkpt>
      <trkpt lat="47.1847680" lon="6.8541350">
        <ele>884.2</ele>
        <time>2022-07-21T12:05:41Z</time>
      </trkpt>
      <trkpt lat="47.1847740" lon="6.8541460">
        <ele>884.4</ele>
        <time>2022-07-21T12:05:42Z</time>
      </trkpt>
      <trkpt lat="47.1847780" lon="6.8541570">
        <ele>884.5</ele>
        <time>2022-07-21T12:05:43Z</time>
      </trkpt>
      <trkpt lat="47.1847800" lon="6.8541650">
        <ele>884.6</ele>
        <time>2022-07-21T12:05:44Z</time>
      </trkpt>
      <trkpt lat="47.1847790" lon="6.8541690">
        <ele>884.7</ele>
        <time>2022-07-21T12:05:45Z</time>
      </trkpt>
      <trkpt lat="47.1847760" lon="6.8541730">
        <ele>884.7</ele>
        <time>2022-07-21T12:05:46Z</time>
      </trkpt>
      <trkpt lat="47.1847740" lon="6.8541780">
        <ele>884.8</ele>
        <time>2022-07-21T12:05:47Z</time>
      </trkpt>
      <trkpt lat="47.1847740" lon="6.8541860">
        <ele>884.9</ele>
        <time>2022-07-21T12:05:48Z</time>
      </trkpt>
      <trkpt lat="47.1847760" lon="6.8541910">
        <ele>884.9</ele>
        <time>2022-07-21T12:05:49Z</time>
      </trkpt>
      <trkpt lat="47.1847780" lon="6.8541930">
        <ele>885.0</ele>
        <time>2022-07-21T12:05:50Z</time>
      </trkpt>
      <trkpt lat="47.1847810" lon="6.8541940">
        <ele>885.0</ele>
        <time>2022-07-21T12:05:51Z</time>
      </trkpt>
      <trkpt lat="47.1847840" lon="6.8541940">
        <ele>885.1</ele>
        <time>2022-07-21T12:05:52Z</time>
      </trkpt>
      <trkpt lat="47.1847880" lon="6.8541940">
        <ele>885.1</ele>
        <time>2022-07-21T12:05:53Z</time>
      </trkpt>
      <trkpt lat="47.1847900" lon="6.8541940">
        <ele>885.2</ele>
        <time>2022-07-21T12:05:54Z</time>
      </trkpt>
      <trkpt lat="47.1847910" lon="6.8541940">
        <ele>885.2</ele>
        <time>2022-07-21T12:05:55Z</time>
      </trkpt>
      <trkpt lat="47.1847930" lon="6.8541940">
        <ele>885.2</ele>
        <time>2022-07-21T12:05:56Z</time>
      </trkpt>
      <trkpt lat="47.1847940" lon="6.8541950">
        <ele>885.2</ele>
        <time>2022-07-21T12:05:57Z</time>
      </trkpt>
      <trkpt lat="47.1848070" lon="6.8541970">
        <ele>885.5</ele>
        <time>2022-07-21T12:05:58Z</time>
      </trkpt>
      <trkpt lat="47.1848220" lon="6.8541990">
        <ele>885.7</ele>
        <time>2022-07-21T12:05:59Z</time>
      </trkpt>
      <trkpt lat="47.1848270" lon="6.8542030">
        <ele>885.8</ele>
        <time>2022-07-21T12:06:00Z</time>
      </trkpt>
      <trkpt lat="47.1848410" lon="6.8542040">
        <ele>886.1</ele>
        <time>2022-07-21T12:06:01Z</time>
      </trkpt>
      <trkpt lat="47.1848570" lon="6.8542070">
        <ele>886.4</ele>
        <time>2022-07-21T12:06:02Z</time>
      </trkpt>
      <trkpt lat="47.1848720" lon="6.8542100">
        <ele>886.7</ele>
        <time>2022-07-21T12:06:03Z</time>
      </trkpt>
      <trkpt lat="47.1848850" lon="6.8542140">
        <ele>887.0</ele>
        <time>2022-07-21T12:06:04Z</time>
      </trkpt>
      <trkpt lat="47.1848960" lon="6.8542170">
        <ele>887.2</ele>
        <time>2022-07-21T12:06:05Z</time>
      </trkpt>
      <trkpt lat="47.1849060" lon="6.8542170">
        <ele>887.4</ele>
        <time>2022-07-21T12:06:06Z</time>
      </trkpt>
      <trkpt lat="47.1849150" lon="6.8542160">
        <ele>887.6</ele>
        <time>2022-07-21T12:06:07Z</time>
      </trkpt>
      <trkpt lat="47.1849240" lon="6.8542140">
        <ele>887.8</ele>
        <time>2022-07-21T12:06:08Z</time>
      </trkpt>
      <trkpt lat="47.1849340" lon="6.8542110">
        <ele>888.0</ele>
        <time>2022-07-21T12:06:09Z</time>
      </trkpt>
      <trkpt lat="47.1849470" lon="6.8542090">
        <ele>888.3</ele>
        <time>2022-07-21T12:06:10Z</time>
      </trkpt>
      <trkpt lat="47.1849580" lon="6.8542090">
        <ele>888.5</ele>
        <time>2022-07-21T12:06:11Z</time>
      </trkpt>
      <trkpt lat="47.1849690" lon="6.8542120">
        <ele>888.7</ele>
        <time>2022-07-21T12:06:12Z</time>
      </trkpt>
      <trkpt lat="47.1849810" lon="6.8542180">
        <ele>889.0</ele>
        <time>2022-07-21T12:06:13Z</time>
      </trkpt>
      <trkpt lat="47.1849980" lon="6.8542240">
        <ele>889.4</ele>
        <time>2022-07-21T12:06:14Z</time>
      </trkpt>
      <trkpt lat="47.1850300" lon="6.8542330">
        <ele>890.1</ele>
        <time>2022-07-21T12:06:15Z</time>
      </trkpt>
      <trkpt lat="47.1850410" lon="6.8542350">
        <ele>890.3</ele>
        <time>2022-07-21T12:06:16Z</time>
      </trkpt>
      <trkpt lat="47.1850570" lon="6.8542340">
        <ele>890.6</ele>
        <time>2022-07-21T12:06:17Z</time>
      </trkpt>
      <trkpt lat="47.1850730" lon="6.8542330">
        <ele>890.9</ele>
        <time>2022-07-21T12:06:18Z</time>
      </trkpt>
      <trkpt lat="47.1851010" lon="6.8542520">
        <ele>891.5</ele>
        <time>2022-07-21T12:06:19Z</time>
      </trkpt>
      <trkpt lat="47.1851080" lon="6.8542570">
        <ele>891.7</ele>
        <time>2022-07-21T12:06:20Z</time>
      </trkpt>
      <trkpt lat="47.1851170" lon="6.8542640">
        <ele>891.9</ele>
        <time>2022-07-21T12:06:21Z</time>
      </trkpt>
      <trkpt lat="47.1851210" lon="6.8542650">
        <ele>892.0</ele>
        <time>2022-07-21T12:06:22Z</time>
      </trkpt>
      <trkpt lat="47.1851230" lon="6.8542580">
        <ele>892.1</ele>
        <time>2022-07-21T12:06:23Z</time>
      </trkpt>
      <trkpt lat="47.1851280" lon="6.8542520">
        <ele>892.2</ele>
        <time>2022-07-21T12:06:24Z</time>
      </trkpt>
      <trkpt lat="47.1851340" lon="6.8542440">
        <ele>892.4</ele>
        <time>2022-07-21T12:06:25Z</time>
      </trkpt>
      <trkpt lat="47.1851400" lon="6.8542360">
        <ele>892.5</ele>
        <time>2022-07-21T12:06:26Z</time>
      </trkpt>
      <trkpt lat="47.1851470" lon="6.8542230">
        <ele>892.7</ele>
        <time>2022-07-21T12:06:27Z</time>
      </trkpt>
      <trkpt lat="47.1851520" lon="6.8542190">
        <ele>892.8</ele>
        <time>2022-07-21T12:06:28Z</time>
      </trkpt>
      <trkpt lat="47.1851610" lon="6.8542150">
        <ele>893.0</ele>
        <time>2022-07-21T12:06:29Z</time>
      </trkpt>
      <trkpt lat="47.1851760" lon="6.8542130">
        <ele>893.3</ele>
        <time>2022-07-21T12:06:30Z</time>
      </trkpt>
      <trkpt lat="47.1851900" lon="6.8542140">
        <ele>893.5</ele>
        <time>2022-07-21T12:06:31Z</time>
      </trkpt>
      <trkpt lat="47.1852000" lon="6.8542170">
        <ele>893.7</ele>
        <time>2022-07-21T12:06:32Z</time>
      </trkpt>
      <trkpt lat="47.1852120" lon="6.8542160">
        <ele>893.9</ele>
        <time>2022-07-21T12:06:33Z</time>
      </trkpt>
      <trkpt lat="47.1852250" lon="6.8542170">
        <ele>894.1</ele>
        <time>2022-07-21T12:06:34Z</time>
      </trkpt>
      <trkpt lat="47.1852490" lon="6.8542220">
        <ele>894.5</ele>
        <time>2022-07-21T12:06:35Z</time>
      </trkpt>
      <trkpt lat="47.1852550" lon="6.8542220">
        <ele>894.6</ele>
        <time>2022-07-21T12:06:36Z</time>
      </trkpt>
      <trkpt lat="47.1852620" lon="6.8542230">
        <ele>894.8</ele>
        <time>2022-07-21T12:06:37Z</time>
      </trkpt>
      <trkpt lat="47.1852770" lon="6.8542270">
        <ele>895.0</ele>
        <time>2022-07-21T12:06:38Z</time>
      </trkpt>
      <trkpt lat="47.1852910" lon="6.8542290">
        <ele>895.2</ele>
        <time>2022-07-21T12:06:39Z</time>
      </trkpt>
      <trkpt lat="47.1853120" lon="6.8542240">
        <ele>895.6</ele>
        <time>2022-07-21T12:06:40Z</time>
      </trkpt>
      <trkpt lat="47.1853210" lon="6.8542200">
        <ele>895.7</ele>
        <time>2022-07-21T12:06:41Z</time>
      </trkpt>
      <trkpt lat="47.1853300" lon="6.8542160">
        <ele>895.9</ele>
        <time>2022-07-21T12:06:42Z</time>
      </trkpt>
      <trkpt lat="47.1853490" lon="6.8542040">
        <ele>896.2</ele>
        <time>2022-07-21T12:06:43Z</time>
      </trkpt>
      <trkpt lat="47.1853590" lon="6.8542010">
        <ele>896.4</ele>
        <time>2022-07-21T12:06:44Z</time>
      </trkpt>
      <trkpt lat="47.1853700" lon="6.8541980">
        <ele>896.6</ele>
        <time>2022-07-21T12:06:45Z</time>
      </trkpt>
      <trkpt lat="47.1853890" lon="6.8541860">
        <ele>896.9</ele>
        <time>2022-07-21T12:06:46Z</time>
      </trkpt>
      <trkpt lat="47.1853990" lon="6.8541810">
        <ele>897.0</ele>
        <time>2022-07-21T12:06:48Z</time>
      </trkpt>
      <trkpt lat="47.1854090" lon="6.8541750">
        <ele>897.2</ele>
        <time>2022-07-21T12:06:49Z</time>
      </trkpt>
      <trkpt lat="47.1854220" lon="6.8541670">
        <ele>897.4</ele>
        <time>2022-07-21T12:06:50Z</time>
      </trkpt>
      <trkpt lat="47.1854560" lon="6.8541410">
        <ele>898.0</ele>
        <time>2022-07-21T12:06:52Z</time>
      </trkpt>
      <trkpt lat="47.1854690" lon="6.8541260">
        <ele>898.2</ele>
        <time>2022-07-21T12:06:53Z</time>
      </trkpt>
      <trkpt lat="47.1854770" lon="6.8541170">
        <ele>898.4</ele>
        <time>2022-07-21T12:06:54Z</time>
      </trkpt>
      <trkpt lat="47.1854980" lon="6.8541020">
        <ele>898.7</ele>
        <time>2022-07-21T12:06:55Z</time>
      </trkpt>
      <trkpt lat="47.1855080" lon="6.8540970">
        <ele>898.9</ele>
        <time>2022-07-21T12:06:56Z</time>
      </trkpt>
      <trkpt lat="47.1855180" lon="6.8540920">
        <ele>899.0</ele>
        <time>2022-07-21T12:06:57Z</time>
      </trkpt>
      <trkpt lat="47.1855430" lon="6.8540800">
        <ele>899.4</ele>
        <time>2022-07-21T12:06:58Z</time>
      </trkpt>
      <trkpt lat="47.1855540" lon="6.8540750">
        <ele>899.6</ele>
        <time>2022-07-21T12:06:59Z</time>
      </trkpt>
      <trkpt lat="47.1855720" lon="6.8540740">
        <ele>899.8</ele>
        <time>2022-07-21T12:07:00Z</time>
      </trkpt>
      <trkpt lat="47.1855890" lon="6.8540700">
        <ele>900.1</ele>
        <time>2022-07-21T12:07:01Z</time>
      </trkpt>
      <trkpt lat="47.1856060" lon="6.8540640">
        <ele>900.3</ele>
        <time>2022-07-21T12:07:03Z</time>
      </trkpt>
      <trkpt lat="47.1856190" lon="6.8540590">
        <ele>900.5</ele>
        <time>2022-07-21T12:07:04Z</time>
      </trkpt>
      <trkpt lat="47.1856240" lon="6.8540560">
        <ele>900.5</ele>
        <time>2022-07-21T12:07:05Z</time>
      </trkpt>
      <trkpt lat="47.1856380" lon="6.8540520">
        <ele>900.7</ele>
        <time>2022-07-21T12:07:06Z</time>
      </trkpt>
      <trkpt lat="47.1856510" lon="6.8540470">
        <ele>900.9</ele>
        <time>2022-07-21T12:07:07Z</time>
      </trkpt>
      <trkpt lat="47.1856630" lon="6.8540390">
        <ele>901.0</ele>
        <time>2022-07-21T12:07:08Z</time>
      </trkpt>
      <trkpt lat="47.1856720" lon="6.8540330">
        <ele>901.2</ele>
        <time>2022-07-21T12:07:09Z</time>
      </trkpt>
      <trkpt lat="47.1856820" lon="6.8540250">
        <ele>901.3</ele>
        <time>2022-07-21T12:07:10Z</time>
      </trkpt>
      <trkpt lat="47.1856870" lon="6.8540190">
        <ele>901.4</ele>
        <time>2022-07-21T12:07:11Z</time>
      </trkpt>
      <trkpt lat="47.1857010" lon="6.8540060">
        <ele>901.6</ele>
        <time>2022-07-21T12:07:12Z</time>
      </trkpt>
      <trkpt lat="47.1857170" lon="6.8539960">
        <ele>901.7</ele>
        <time>2022-07-21T12:07:14Z</time>
      </trkpt>
      <trkpt lat="47.1857260" lon="6.8539890">
        <ele>901.9</ele>
        <time>2022-07-21T12:07:15Z</time>
      </trkpt>
      <trkpt lat="47.1857420" lon="6.8539810">
        <ele>902.0</ele>
        <time>2022-07-21T12:07:16Z</time>
      </trkpt>
      <trkpt lat="47.1857520" lon="6.8539770">
        <ele>902.1</ele>
        <time>2022-07-21T12:07:18Z</time>
      </trkpt>
      <trkpt lat="47.1857650" lon="6.8539710">
        <ele>902.3</ele>
        <time>2022-07-21T12:07:19Z</time>
      </trkpt>
      <trkpt lat="47.1857810" lon="6.8539620">
        <ele>902.5</ele>
        <time>2022-07-21T12:07:20Z</time>
      </trkpt>
      <trkpt lat="47.1857940" lon="6.8539540">
        <ele>902.6</ele>
        <time>2022-07-21T12:07:21Z</time>
      </trkpt>
      <trkpt lat="47.1858060" lon="6.8539490">
        <ele>902.7</ele>
        <time>2022-07-21T12:07:22Z</time>
      </trkpt>
      <trkpt lat="47.1858140" lon="6.8539410">
        <ele>902.8</ele>
        <time>2022-07-21T12:07:23Z</time>
      </trkpt>
      <trkpt lat="47.1858300" lon="6.8539260">
        <ele>903.0</ele>
        <time>2022-07-21T12:07:25Z</time>
      </trkpt>
      <trkpt lat="47.1858400" lon="6.8539160">
        <ele>903.2</ele>
        <time>2022-07-21T12:07:26Z</time>
      </trkpt>
      <trkpt lat="47.1858510" lon="6.8539010">
        <ele>903.3</ele>
        <time>2022-07-21T12:07:27Z</time>
      </trkpt>
      <trkpt lat="47.1858620" lon="6.8538870">
        <ele>903.5</ele>
        <time>2022-07-21T12:07:28Z</time>
      </trkpt>
      <trkpt lat="47.1858810" lon="6.8538610">
        <ele>903.7</ele>
        <time>2022-07-21T12:07:30Z</time>
      </trkpt>
      <trkpt lat="47.1858880" lon="6.8538560">
        <ele>903.7</ele>
        <time>2022-07-21T12:07:31Z</time>
      </trkpt>
      <trkpt lat="47.1858960" lon="6.8538460">
        <ele>903.8</ele>
        <time>2022-07-21T12:07:32Z</time>
      </trkpt>
      <trkpt lat="47.1859000" lon="6.8538310">
        <ele>903.9</ele>
        <time>2022-07-21T12:07:33Z</time>
      </trkpt>
      <trkpt lat="47.1859020" lon="6.8538180">
        <ele>904.0</ele>
        <time>2022-07-21T12:07:34Z</time>
      </trkpt>
      <trkpt lat="47.1859000" lon="6.8537850">
        <ele>904.1</ele>
        <time>2022-07-21T12:07:35Z</time>
      </trkpt>
      <trkpt lat="47.1858970" lon="6.8537710">
        <ele>904.2</ele>
        <time>2022-07-21T12:07:36Z</time>
      </trkpt>
      <trkpt lat="47.1858950" lon="6.8537560">
        <ele>904.3</ele>
        <time>2022-07-21T12:07:37Z</time>
      </trkpt>
      <trkpt lat="47.1858940" lon="6.8537130">
        <ele>904.5</ele>
        <time>2022-07-21T12:07:39Z</time>
      </trkpt>
      <trkpt lat="47.1858940" lon="6.8536950">
        <ele>904.6</ele>
        <time>2022-07-21T12:07:40Z</time>
      </trkpt>
      <trkpt lat="47.1858950" lon="6.8536730">
        <ele>904.7</ele>
        <time>2022-07-21T12:07:41Z</time>
      </trkpt>
      <trkpt lat="47.1858980" lon="6.8536520">
        <ele>904.8</ele>
        <time>2022-07-21T12:07:42Z</time>
      </trkpt>
      <trkpt lat="47.1858970" lon="6.8536330">
        <ele>904.9</ele>
        <time>2022-07-21T12:07:43Z</time>
      </trkpt>
      <trkpt lat="47.1858970" lon="6.8536130">
        <ele>905.0</ele>
        <time>2022-07-21T12:07:44Z</time>
      </trkpt>
      <trkpt lat="47.1858960" lon="6.8535990">
        <ele>905.1</ele>
        <time>2022-07-21T12:07:45Z</time>
      </trkpt>
      <trkpt lat="47.1858970" lon="6.8535830">
        <ele>905.1</ele>
        <time>2022-07-21T12:07:46Z</time>
      </trkpt>
      <trkpt lat="47.1858980" lon="6.8535520">
        <ele>905.3</ele>
        <time>2022-07-21T12:07:47Z</time>
      </trkpt>
      <trkpt lat="47.1858990" lon="6.8535390">
        <ele>905.4</ele>
        <time>2022-07-21T12:07:48Z</time>
      </trkpt>
      <trkpt lat="47.1859000" lon="6.8535260">
        <ele>905.4</ele>
        <time>2022-07-21T12:07:49Z</time>
      </trkpt>
      <trkpt lat="47.1859040" lon="6.8535030">
        <ele>905.5</ele>
        <time>2022-07-21T12:07:50Z</time>
      </trkpt>
      <trkpt lat="47.1859060" lon="6.8534800">
        <ele>905.6</ele>
        <time>2022-07-21T12:07:52Z</time>
      </trkpt>
      <trkpt lat="47.1859060" lon="6.8534750">
        <ele>905.7</ele>
        <time>2022-07-21T12:07:53Z</time>
      </trkpt>
      <trkpt lat="47.1859060" lon="6.8534560">
        <ele>905.8</ele>
        <time>2022-07-21T12:07:54Z</time>
      </trkpt>
      <trkpt lat="47.1859070" lon="6.8534330">
        <ele>905.9</ele>
        <time>2022-07-21T12:07:55Z</time>
      </trkpt>
      <trkpt lat="47.1859120" lon="6.8534130">
        <ele>906.0</ele>
        <time>2022-07-21T12:07:56Z</time>
      </trkpt>
      <trkpt lat="47.1859160" lon="6.8534000">
        <ele>906.1</ele>
        <time>2022-07-21T12:07:57Z</time>
      </trkpt>
      <trkpt lat="47.1859180" lon="6.8533840">
        <ele>906.1</ele>
        <time>2022-07-21T12:07:58Z</time>
      </trkpt>
      <trkpt lat="47.1859210" lon="6.8533540">
        <ele>906.3</ele>
        <time>2022-07-21T12:07:59Z</time>
      </trkpt>
      <trkpt lat="47.1859230" lon="6.8533420">
        <ele>906.4</ele>
        <time>2022-07-21T12:08:00Z</time>
      </trkpt>
      <trkpt lat="47.1859240" lon="6.8533310">
        <ele>906.4</ele>
        <time>2022-07-21T12:08:01Z</time>
      </trkpt>
      <trkpt lat="47.1859250" lon="6.8533210">
        <ele>906.5</ele>
        <time>2022-07-21T12:08:02Z</time>
      </trkpt>
      <trkpt lat="47.1859270" lon="6.8533020">
        <ele>906.6</ele>
        <time>2022-07-21T12:08:03Z</time>
      </trkpt>
      <trkpt lat="47.1859310" lon="6.8532850">
        <ele>906.7</ele>
        <time>2022-07-21T12:08:04Z</time>
      </trkpt>
      <trkpt lat="47.1859360" lon="6.8532650">
        <ele>906.8</ele>
        <time>2022-07-21T12:08:05Z</time>
      </trkpt>
      <trkpt lat="47.1859380" lon="6.8532500">
        <ele>906.9</ele>
        <time>2022-07-21T12:08:06Z</time>
      </trkpt>
      <trkpt lat="47.1859390" lon="6.8532340">
        <ele>907.0</ele>
        <time>2022-07-21T12:08:07Z</time>
      </trkpt>
      <trkpt lat="47.1859380" lon="6.8532170">
        <ele>907.1</ele>
        <time>2022-07-21T12:08:08Z</time>
      </trkpt>
      <trkpt lat="47.1859380" lon="6.8531950">
        <ele>907.3</ele>
        <time>2022-07-21T12:08:09Z</time>
      </trkpt>
      <trkpt lat="47.1859370" lon="6.8531820">
        <ele>907.4</ele>
        <time>2022-07-21T12:08:10Z</time>
      </trkpt>
      <trkpt lat="47.1859400" lon="6.8531520">
        <ele>907.6</ele>
        <time>2022-07-21T12:08:11Z</time>
      </trkpt>
      <trkpt lat="47.1859420" lon="6.8531400">
        <ele>907.7</ele>
        <time>2022-07-21T12:08:12Z</time>
      </trkpt>
      <trkpt lat="47.1859430" lon="6.8531270">
        <ele>907.8</ele>
        <time>2022-07-21T12:08:13Z</time>
      </trkpt>
      <trkpt lat="47.1859460" lon="6.8531110">
        <ele>907.9</ele>
        <time>2022-07-21T12:08:14Z</time>
      </trkpt>
      <trkpt lat="47.1859460" lon="6.8530910">
        <ele>908.1</ele>
        <time>2022-07-21T12:08:15Z</time>
      </trkpt>
      <trkpt lat="47.1859460" lon="6.8530760">
        <ele>908.2</ele>
        <time>2022-07-21T12:08:16Z</time>
      </trkpt>
      <trkpt lat="47.1859470" lon="6.8530580">
        <ele>908.3</ele>
        <time>2022-07-21T12:08:17Z</time>
      </trkpt>
      <trkpt lat="47.1859480" lon="6.8530440">
        <ele>908.5</ele>
        <time>2022-07-21T12:08:18Z</time>
      </trkpt>
      <trkpt lat="47.1859480" lon="6.8530310">
        <ele>908.6</ele>
        <time>2022-07-21T12:08:19Z</time>
      </trkpt>
      <trkpt lat="47.1859460" lon="6.8530170">
        <ele>908.7</ele>
        <time>2022-07-21T12:08:20Z</time>
      </trkpt>
      <trkpt lat="47.1859430" lon="6.8529990">
        <ele>908.9</ele>
        <time>2022-07-21T12:08:21Z</time>
      </trkpt>
      <trkpt lat="47.1859400" lon="6.8529820">
        <ele>909.0</ele>
        <time>2022-07-21T12:08:22Z</time>
      </trkpt>
      <trkpt lat="47.1859380" lon="6.8529640">
        <ele>909.2</ele>
        <time>2022-07-21T12:08:23Z</time>
      </trkpt>
      <trkpt lat="47.1859370" lon="6.8529450">
        <ele>909.4</ele>
        <time>2022-07-21T12:08:24Z</time>
      </trkpt>
      <trkpt lat="47.1859380" lon="6.8529320">
        <ele>909.5</ele>
        <time>2022-07-21T12:08:25Z</time>
      </trkpt>
      <trkpt lat="47.1859360" lon="6.8529170">
        <ele>909.6</ele>
        <time>2022-07-21T12:08:26Z</time>
      </trkpt>
      <trkpt lat="47.1859350" lon="6.8528990">
        <ele>909.8</ele>
        <time>2022-07-21T12:08:27Z</time>
      </trkpt>
      <trkpt lat="47.1859310" lon="6.8528830">
        <ele>910.0</ele>
        <time>2022-07-21T12:08:28Z</time>
      </trkpt>
      <trkpt lat="47.1859280" lon="6.8528610">
        <ele>910.2</ele>
        <time>2022-07-21T12:08:29Z</time>
      </trkpt>
      <trkpt lat="47.1859290" lon="6.8528450">
        <ele>910.3</ele>
        <time>2022-07-21T12:08:30Z</time>
      </trkpt>
      <trkpt lat="47.1859290" lon="6.8528320">
        <ele>910.5</ele>
        <time>2022-07-21T12:08:31Z</time>
      </trkpt>
      <trkpt lat="47.1859290" lon="6.8528160">
        <ele>910.6</ele>
        <time>2022-07-21T12:08:32Z</time>
      </trkpt>
      <trkpt lat="47.1859260" lon="6.8527990">
        <ele>910.8</ele>
        <time>2022-07-21T12:08:33Z</time>
      </trkpt>
      <trkpt lat="47.1859240" lon="6.8527880">
        <ele>910.9</ele>
        <time>2022-07-21T12:08:34Z</time>
      </trkpt>
      <trkpt lat="47.1859200" lon="6.8527770">
        <ele>911.1</ele>
        <time>2022-07-21T12:08:35Z</time>
      </trkpt>
      <trkpt lat="47.1859150" lon="6.8527600">
        <ele>911.3</ele>
        <time>2022-07-21T12:08:36Z</time>
      </trkpt>
      <trkpt lat="47.1859110" lon="6.8527420">
        <ele>911.5</ele>
        <time>2022-07-21T12:08:37Z</time>
      </trkpt>
      <trkpt lat="47.1859090" lon="6.8527260">
        <ele>911.6</ele>
        <time>2022-07-21T12:08:38Z</time>
      </trkpt>
      <trkpt lat="47.1859090" lon="6.8527120">
        <ele>911.8</ele>
        <time>2022-07-21T12:08:39Z</time>
      </trkpt>
      <trkpt lat="47.1859080" lon="6.8526960">
        <ele>911.9</ele>
        <time>2022-07-21T12:08:40Z</time>
      </trkpt>
      <trkpt lat="47.1859070" lon="6.8526820">
        <ele>912.1</ele>
        <time>2022-07-21T12:08:41Z</time>
      </trkpt>
      <trkpt lat="47.1859050" lon="6.8526640">
        <ele>912.3</ele>
        <time>2022-07-21T12:08:42Z</time>
      </trkpt>
      <trkpt lat="47.1859070" lon="6.8526510">
        <ele>912.4</ele>
        <time>2022-07-21T12:08:43Z</time>
      </trkpt>
      <trkpt lat="47.1859090" lon="6.8526400">
        <ele>912.5</ele>
        <time>2022-07-21T12:08:44Z</time>
      </trkpt>
      <trkpt lat="47.1859120" lon="6.8526320">
        <ele>912.6</ele>
        <time>2022-07-21T12:08:45Z</time>
      </trkpt>
      <trkpt lat="47.1859140" lon="6.8526180">
        <ele>912.8</ele>
        <time>2022-07-21T12:08:46Z</time>
      </trkpt>
      <trkpt lat="47.1859160" lon="6.8526010">
        <ele>912.9</ele>
        <time>2022-07-21T12:08:47Z</time>
      </trkpt>
      <trkpt lat="47.1859190" lon="6.8525900">
        <ele>913.0</ele>
        <time>2022-07-21T12:08:48Z</time>
      </trkpt>
      <trkpt lat="47.1859230" lon="6.8525810">
        <ele>913.1</ele>
        <time>2022-07-21T12:08:49Z</time>
      </trkpt>
      <trkpt lat="47.1859270" lon="6.8525710">
        <ele>913.2</ele>
        <time>2022-07-21T12:08:50Z</time>
      </trkpt>
      <trkpt lat="47.1859300" lon="6.8525580">
        <ele>913.4</ele>
        <time>2022-07-21T12:08:51Z</time>
      </trkpt>
      <trkpt lat="47.1859310" lon="6.8525360">
        <ele>913.6</ele>
        <time>2022-07-21T12:08:52Z</time>
      </trkpt>
      <trkpt lat="47.1859320" lon="6.8525250">
        <ele>913.7</ele>
        <time>2022-07-21T12:08:53Z</time>
      </trkpt>
      <trkpt lat="47.1859320" lon="6.8525130">
        <ele>913.8</ele>
        <time>2022-07-21T12:08:54Z</time>
      </trkpt>
      <trkpt lat="47.1859320" lon="6.8525020">
        <ele>913.9</ele>
        <time>2022-07-21T12:08:55Z</time>
      </trkpt>
      <trkpt lat="47.1859320" lon="6.8524900">
        <ele>914.0</ele>
        <time>2022-07-21T12:08:56Z</time>
      </trkpt>
      <trkpt lat="47.1859320" lon="6.8524730">
        <ele>914.2</ele>
        <time>2022-07-21T12:08:57Z</time>
      </trkpt>
      <trkpt lat="47.1859310" lon="6.8524570">
        <ele>914.3</ele>
        <time>2022-07-21T12:08:58Z</time>
      </trkpt>
      <trkpt lat="47.1859320" lon="6.8524380">
        <ele>914.5</ele>
        <time>2022-07-21T12:08:59Z</time>
      </trkpt>
      <trkpt lat="47.1859340" lon="6.8524240">
        <ele>914.6</ele>
        <time>2022-07-21T12:09:00Z</time>
      </trkpt>
      <trkpt lat="47.1859380" lon="6.8524110">
        <ele>914.7</ele>
        <time>2022-07-21T12:09:01Z</time>
      </trkpt>
      <trkpt lat="47.1859430" lon="6.8523910">
        <ele>914.9</ele>
        <time>2022-07-21T12:09:02Z</time>
      </trkpt>
      <trkpt lat="47.1859490" lon="6.8523720">
        <ele>915.1</ele>
        <time>2022-07-21T12:09:03Z</time>
      </trkpt>
      <trkpt lat="47.1859540" lon="6.8523540">
        <ele>915.3</ele>
        <time>2022-07-21T12:09:04Z</time>
      </trkpt>
      <trkpt lat="47.1859560" lon="6.8523440">
        <ele>915.3</ele>
        <time>2022-07-21T12:09:05Z</time>
      </trkpt>
      <trkpt lat="47.1859580" lon="6.8523290">
        <ele>915.5</ele>
        <time>2022-07-21T12:09:06Z</time>
      </trkpt>
      <trkpt lat="47.1859580" lon="6.8523170">
        <ele>915.6</ele>
        <time>2022-07-21T12:09:07Z</time>
      </trkpt>
      <trkpt lat="47.1859600" lon="6.8523030">
        <ele>915.7</ele>
        <time>2022-07-21T12:09:08Z</time>
      </trkpt>
      <trkpt lat="47.1859610" lon="6.8522890">
        <ele>915.8</ele>
        <time>2022-07-21T12:09:09Z</time>
      </trkpt>
      <trkpt lat="47.1859630" lon="6.8522740">
        <ele>915.9</ele>
        <time>2022-07-21T12:09:10Z</time>
      </trkpt>
      <trkpt lat="47.1859640" lon="6.8522580">
        <ele>916.1</ele>
        <time>2022-07-21T12:09:11Z</time>
      </trkpt>
      <trkpt lat="47.1859640" lon="6.8522380">
        <ele>916.2</ele>
        <time>2022-07-21T12:09:12Z</time>
      </trkpt>
      <trkpt lat="47.1859650" lon="6.8522270">
        <ele>916.3</ele>
        <time>2022-07-21T12:09:13Z</time>
      </trkpt>
      <trkpt lat="47.1859650" lon="6.8522090">
        <ele>916.5</ele>
        <time>2022-07-21T12:09:14Z</time>
      </trkpt>
      <trkpt lat="47.1859660" lon="6.8521930">
        <ele>916.6</ele>
        <time>2022-07-21T12:09:15Z</time>
      </trkpt>
      <trkpt lat="47.1859670" lon="6.8521780">
        <ele>916.7</ele>
        <time>2022-07-21T12:09:16Z</time>
      </trkpt>
      <trkpt lat="47.1859680" lon="6.8521660">
        <ele>916.8</ele>
        <time>2022-07-21T12:09:17Z</time>
      </trkpt>
      <trkpt lat="47.1859700" lon="6.8521440">
        <ele>917.0</ele>
        <time>2022-07-21T12:09:18Z</time>
      </trkpt>
      <trkpt lat="47.1859720" lon="6.8521310">
        <ele>917.1</ele>
        <time>2022-07-21T12:09:19Z</time>
      </trkpt>
      <trkpt lat="47.1859720" lon="6.8521170">
        <ele>917.3</ele>
        <time>2022-07-21T12:09:20Z</time>
      </trkpt>
      <trkpt lat="47.1859700" lon="6.8521060">
        <ele>917.4</ele>
        <time>2022-07-21T12:09:21Z</time>
      </trkpt>
      <trkpt lat="47.1859670" lon="6.8521000">
        <ele>917.4</ele>
        <time>2022-07-21T12:09:22Z</time>
      </trkpt>
      <trkpt lat="47.1859640" lon="6.8520990">
        <ele>917.5</ele>
        <time>2022-07-21T12:09:23Z</time>
      </trkpt>
      <trkpt lat="47.1859590" lon="6.8521030">
        <ele>917.5</ele>
        <time>2022-07-21T12:09:24Z</time>
      </trkpt>
      <trkpt lat="47.1859550" lon="6.8521020">
        <ele>917.6</ele>
        <time>2022-07-21T12:09:25Z</time>
      </trkpt>
      <trkpt lat="47.1859520" lon="6.8520960">
        <ele>917.7</ele>
        <time>2022-07-21T12:09:26Z</time>
      </trkpt>
      <trkpt lat="47.1859490" lon="6.8520900">
        <ele>917.7</ele>
        <time>2022-07-21T12:09:27Z</time>
      </trkpt>
      <trkpt lat="47.1859460" lon="6.8520830">
        <ele>917.8</ele>
        <time>2022-07-21T12:09:28Z</time>
      </trkpt>
      <trkpt lat="47.1859430" lon="6.8520750">
        <ele>917.9</ele>
        <time>2022-07-21T12:09:29Z</time>
      </trkpt>
      <trkpt lat="47.1859390" lon="6.8520660">
        <ele>918.0</ele>
        <time>2022-07-21T12:09:30Z</time>
      </trkpt>
      <trkpt lat="47.1859350" lon="6.8520560">
        <ele>918.1</ele>
        <time>2022-07-21T12:09:31Z</time>
      </trkpt>
      <trkpt lat="47.1859300" lon="6.8520460">
        <ele>918.2</ele>
        <time>2022-07-21T12:09:32Z</time>
      </trkpt>
      <trkpt lat="47.1859260" lon="6.8520380">
        <ele>918.3</ele>
        <time>2022-07-21T12:09:33Z</time>
      </trkpt>
      <trkpt lat="47.1859230" lon="6.8520320">
        <ele>918.3</ele>
        <time>2022-07-21T12:09:34Z</time>
      </trkpt>
      <trkpt lat="47.1859210" lon="6.8520270">
        <ele>918.4</ele>
        <time>2022-07-21T12:09:35Z</time>
      </trkpt>
      <trkpt lat="47.1859210" lon="6.8520250">
        <ele>918.4</ele>
        <time>2022-07-21T12:09:36Z</time>
      </trkpt>
      <trkpt lat="47.1859210" lon="6.8520250">
        <ele>918.4</ele>
        <time>2022-07-21T12:09:37Z</time>
      </trkpt>
      <trkpt lat="47.1859200" lon="6.8520210">
        <ele>918.4</ele>
        <time>2022-07-21T12:09:38Z</time>
      </trkpt>
      <trkpt lat="47.1859170" lon="6.8520160">
        <ele>918.5</ele>
        <time>2022-07-21T12:09:39Z</time>
      </trkpt>
      <trkpt lat="47.1859150" lon="6.8520100">
        <ele>918.5</ele>
        <time>2022-07-21T12:09:40Z</time>
      </trkpt>
      <trkpt lat="47.1859160" lon="6.8520060">
        <ele>918.6</ele>
        <time>2022-07-21T12:09:41Z</time>
      </trkpt>
      <trkpt lat="47.1859190" lon="6.8520070">
        <ele>918.6</ele>
        <time>2022-07-21T12:09:42Z</time>
      </trkpt>
      <trkpt lat="47.1859230" lon="6.8520100">
        <ele>918.7</ele>
        <time>2022-07-21T12:09:43Z</time>
      </trkpt>
      <trkpt lat="47.1859260" lon="6.8520120">
        <ele>918.7</ele>
        <time>2022-07-21T12:09:44Z</time>
      </trkpt>
      <trkpt lat="47.1859280" lon="6.8520120">
        <ele>918.7</ele>
        <time>2022-07-21T12:09:45Z</time>
      </trkpt>
      <trkpt lat="47.1859280" lon="6.8520060">
        <ele>918.8</ele>
        <time>2022-07-21T12:09:46Z</time>
      </trkpt>
      <trkpt lat="47.1859270" lon="6.8520010">
        <ele>918.8</ele>
        <time>2022-07-21T12:09:47Z</time>
      </trkpt>
      <trkpt lat="47.1859260" lon="6.8519980">
        <ele>918.8</ele>
        <time>2022-07-21T12:09:48Z</time>
      </trkpt>
      <trkpt lat="47.1859220" lon="6.8519950">
        <ele>918.9</ele>
        <time>2022-07-21T12:09:49Z</time>
      </trkpt>
      <trkpt lat="47.1859130" lon="6.8519920">
        <ele>919.0</ele>
        <time>2022-07-21T12:09:50Z</time>
      </trkpt>
      <trkpt lat="47.1859060" lon="6.8519930">
        <ele>919.1</ele>
        <time>2022-07-21T12:09:51Z</time>
      </trkpt>
      <trkpt lat="47.1859020" lon="6.8519970">
        <ele>919.1</ele>
        <time>2022-07-21T12:09:52Z</time>
      </trkpt>
      <trkpt lat="47.1859010" lon="6.8520010">
        <ele>919.1</ele>
        <time>2022-07-21T12:09:53Z</time>
      </trkpt>
      <trkpt lat="47.1859010" lon="6.8520020">
        <ele>919.1</ele>
        <time>2022-07-21T12:09:54Z</time>
      </trkpt>
      <trkpt lat="47.1859000" lon="6.8520010">
        <ele>919.2</ele>
        <time>2022-07-21T12:09:55Z</time>
      </trkpt>
      <trkpt lat="47.1858980" lon="6.8520000">
        <ele>919.2</ele>
        <time>2022-07-21T12:09:56Z</time>
      </trkpt>
      <trkpt lat="47.1858940" lon="6.8519960">
        <ele>919.2</ele>
        <time>2022-07-21T12:09:57Z</time>
      </trkpt>
      <trkpt lat="47.1858910" lon="6.8519950">
        <ele>919.3</ele>
        <time>2022-07-21T12:09:58Z</time>
      </trkpt>
      <trkpt lat="47.1858890" lon="6.8519950">
        <ele>919.3</ele>
        <time>2022-07-21T12:09:59Z</time>
      </trkpt>
      <trkpt lat="47.1858860" lon="6.8519940">
        <ele>919.3</ele>
        <time>2022-07-21T12:10:00Z</time>
      </trkpt>
      <trkpt lat="47.1858840" lon="6.8519930">
        <ele>919.3</ele>
        <time>2022-07-21T12:10:01Z</time>
      </trkpt>
      <trkpt lat="47.1858820" lon="6.8519920">
        <ele>919.4</ele>
        <time>2022-07-21T12:10:02Z</time>
      </trkpt>
      <trkpt lat="47.1858790" lon="6.8519910">
        <ele>919.4</ele>
        <time>2022-07-21T12:10:03Z</time>
      </trkpt>
      <trkpt lat="47.1858770" lon="6.8519910">
        <ele>919.4</ele>
        <time>2022-07-21T12:10:08Z</time>
      </trkpt>
      <trkpt lat="47.1858750" lon="6.8519900">
        <ele>919.4</ele>
        <time>2022-07-21T12:10:09Z</time>
      </trkpt>
      <trkpt lat="47.1858720" lon="6.8519890">
        <ele>919.5</ele>
        <time>2022-07-21T12:10:10Z</time>
      </trkpt>
      <trkpt lat="47.1858700" lon="6.8519880">
        <ele>919.5</ele>
        <time>2022-07-21T12:10:11Z</time>
      </trkpt>
      <trkpt lat="47.1858670" lon="6.8519880">
        <ele>919.5</ele>
        <time>2022-07-21T12:10:12Z</time>
      </trkpt>
      <trkpt lat="47.1858650" lon="6.8519870">
        <ele>919.5</ele>
        <time>2022-07-21T12:10:13Z</time>
      </trkpt>
      <trkpt lat="47.1858630" lon="6.8519860">
        <ele>919.5</ele>
        <time>2022-07-21T12:10:14Z</time>
      </trkpt>
      <trkpt lat="47.1858600" lon="6.8519850">
        <ele>919.6</ele>
        <time>2022-07-21T12:10:15Z</time>
      </trkpt>
      <trkpt lat="47.1858580" lon="6.8519850">
        <ele>919.6</ele>
        <time>2022-07-21T12:10:16Z</time>
      </trkpt>
      <trkpt lat="47.1858560" lon="6.8519840">
        <ele>919.6</ele>
        <time>2022-07-21T12:10:17Z</time>
      </trkpt>
      <trkpt lat="47.1858530" lon="6.8519830">
        <ele>919.6</ele>
        <time>2022-07-21T12:10:18Z</time>
      </trkpt>
      <trkpt lat="47.1858510" lon="6.8519820">
        <ele>919.7</ele>
        <time>2022-07-21T12:10:19Z</time>
      </trkpt>
      <trkpt lat="47.1858480" lon="6.8519820">
        <ele>919.7</ele>
        <time>2022-07-21T12:10:20Z</time>
      </trkpt>
      <trkpt lat="47.1858460" lon="6.8519810">
        <ele>919.7</ele>
        <time>2022-07-21T12:10:21Z</time>
      </trkpt>
      <trkpt lat="47.1858440" lon="6.8519800">
        <ele>919.7</ele>
        <time>2022-07-21T12:10:22Z</time>
      </trkpt>
      <trkpt lat="47.1858410" lon="6.8519790">
        <ele>919.8</ele>
        <time>2022-07-21T12:10:23Z</time>
      </trkpt>
      <trkpt lat="47.1858390" lon="6.8519780">
        <ele>919.8</ele>
        <time>2022-07-21T12:10:24Z</time>
      </trkpt>
      <trkpt lat="47.1858360" lon="6.8519780">
        <ele>919.8</ele>
        <time>2022-07-21T12:10:25Z</time>
      </trkpt>
      <trkpt lat="47.1858340" lon="6.8519770">
        <ele>919.8</ele>
        <time>2022-07-21T12:10:26Z</time>
      </trkpt>
      <trkpt lat="47.1858320" lon="6.8519760">
        <ele>919.8</ele>
        <time>2022-07-21T12:10:27Z</time>
      </trkpt>
      <trkpt lat="47.1858290" lon="6.8519750">
        <ele>919.9</ele>
        <time>2022-07-21T12:10:28Z</time>
      </trkpt>
      <trkpt lat="47.1858270" lon="6.8519750">
        <ele>919.9</ele>
        <time>2022-07-21T12:10:29Z</time>
      </trkpt>
      <trkpt lat="47.1858250" lon="6.8519740">
        <ele>919.9</ele>
        <time>2022-07-21T12:10:30Z</time>
      </trkpt>
      <trkpt lat="47.1858220" lon="6.8519730">
        <ele>919.9</ele>
        <time>2022-07-21T12:10:31Z</time>
      </trkpt>
      <trkpt lat="47.1858200" lon="6.8519720">
        <ele>919.9</ele>
        <time>2022-07-21T12:10:32Z</time>
      </trkpt>
      <trkpt lat="47.1858170" lon="6.8519720">
        <ele>920.0</ele>
        <time>2022-07-21T12:10:37Z</time>
      </trkpt>
      <trkpt lat="47.1858150" lon="6.8519710">
        <ele>920.0</ele>
        <time>2022-07-21T12:10:38Z</time>
      </trkpt>
      <trkpt lat="47.1858130" lon="6.8519700">
        <ele>920.0</ele>
        <time>2022-07-21T12:10:39Z</time>
      </trkpt>
      <trkpt lat="47.1858100" lon="6.8519690">
        <ele>920.0</ele>
        <time>2022-07-21T12:10:40Z</time>
      </trkpt>
      <trkpt lat="47.1858080" lon="6.8519690">
        <ele>920.0</ele>
        <time>2022-07-21T12:10:41Z</time>
      </trkpt>
      <trkpt lat="47.1857990" lon="6.8519600">
        <ele>920.1</ele>
        <time>2022-07-21T12:10:42Z</time>
      </trkpt>
      <trkpt lat="47.1857920" lon="6.8519530">
        <ele>920.2</ele>
        <time>2022-07-21T12:10:43Z</time>
      </trkpt>
      <trkpt lat="47.1857850" lon="6.8519460">
        <ele>920.2</ele>
        <time>2022-07-21T12:10:44Z</time>
      </trkpt>
      <trkpt lat="47.1857770" lon="6.8519390">
        <ele>920.3</ele>
        <time>2022-07-21T12:10:45Z</time>
      </trkpt>
      <trkpt lat="47.1857730" lon="6.8519340">
        <ele>920.3</ele>
        <time>2022-07-21T12:10:46Z</time>
      </trkpt>
      <trkpt lat="47.1857680" lon="6.8519290">
        <ele>920.4</ele>
        <time>2022-07-21T12:10:47Z</time>
      </trkpt>
      <trkpt lat="47.1857610" lon="6.8519240">
        <ele>920.4</ele>
        <time>2022-07-21T12:10:48Z</time>
      </trkpt>
      <trkpt lat="47.1857570" lon="6.8519200">
        <ele>920.5</ele>
        <time>2022-07-21T12:10:49Z</time>
      </trkpt>
      <trkpt lat="47.1857510" lon="6.8519130">
        <ele>920.5</ele>
        <time>2022-07-21T12:10:50Z</time>
      </trkpt>
      <trkpt lat="47.1857470" lon="6.8519070">
        <ele>920.6</ele>
        <time>2022-07-21T12:10:51Z</time>
      </trkpt>
      <trkpt lat="47.1857460" lon="6.8519030">
        <ele>920.6</ele>
        <time>2022-07-21T12:10:52Z</time>
      </trkpt>
      <trkpt lat="47.1857430" lon="6.8518980">
        <ele>920.6</ele>
        <time>2022-07-21T12:10:53Z</time>
      </trkpt>
      <trkpt lat="47.1857400" lon="6.8518920">
        <ele>920.6</ele>
        <time>2022-07-21T12:10:54Z</time>
      </trkpt>
      <trkpt lat="47.1857380" lon="6.8518880">
        <ele>920.7</ele>
        <time>2022-07-21T12:10:55Z</time>
      </trkpt>
      <trkpt lat="47.1857380" lon="6.8518870">
        <ele>920.7</ele>
        <time>2022-07-21T12:10:56Z</time>
      </trkpt>
      <trkpt lat="47.1857360" lon="6.8518830">
        <ele>920.7</ele>
        <time>2022-07-21T12:10:57Z</time>
      </trkpt>
      <trkpt lat="47.1857340" lon="6.8518780">
        <ele>920.7</ele>
        <time>2022-07-21T12:10:58Z</time>
      </trkpt>
      <trkpt lat="47.1857330" lon="6.8518750">
        <ele>920.7</ele>
        <time>2022-07-21T12:10:59Z</time>
      </trkpt>
      <trkpt lat="47.1857280" lon="6.8518720">
        <ele>920.8</ele>
        <time>2022-07-21T12:11:00Z</time>
      </trkpt>
      <trkpt lat="47.1857230" lon="6.8518680">
        <ele>920.8</ele>
        <time>2022-07-21T12:11:01Z</time>
      </trkpt>
      <trkpt lat="47.1857210" lon="6.8518540">
        <ele>920.9</ele>
        <time>2022-07-21T12:11:02Z</time>
      </trkpt>
      <trkpt lat="47.1857200" lon="6.8518430">
        <ele>920.9</ele>
        <time>2022-07-21T12:11:03Z</time>
      </trkpt>
      <trkpt lat="47.1857210" lon="6.8518220">
        <ele>921.5</ele>
        <time>2022-07-21T12:11:04Z</time>
      </trkpt>
      <trkpt lat="47.1857160" lon="6.8518070">
        <ele>921.7</ele>
        <time>2022-07-21T12:11:05Z</time>
      </trkpt>
      <trkpt lat="47.1857090" lon="6.8517770">
        <ele>921.9</ele>
        <time>2022-07-21T12:11:06Z</time>
      </trkpt>
      <trkpt lat="47.1857070" lon="6.8517660">
        <ele>922.0</ele>
        <time>2022-07-21T12:11:07Z</time>
      </trkpt>
      <trkpt lat="47.1857050" lon="6.8517550">
        <ele>922.1</ele>
        <time>2022-07-21T12:11:08Z</time>
      </trkpt>
      <trkpt lat="47.1857050" lon="6.8517380">
        <ele>922.3</ele>
        <time>2022-07-21T12:11:09Z</time>
      </trkpt>
      <trkpt lat="47.1857070" lon="6.8517220">
        <ele>922.4</ele>
        <time>2022-07-21T12:11:10Z</time>
      </trkpt>
      <trkpt lat="47.1857070" lon="6.8517030">
        <ele>922.6</ele>
        <time>2022-07-21T12:11:11Z</time>
      </trkpt>
      <trkpt lat="47.1857030" lon="6.8516810">
        <ele>922.8</ele>
        <time>2022-07-21T12:11:12Z</time>
      </trkpt>
      <trkpt lat="47.1857020" lon="6.8516630">
        <ele>922.9</ele>
        <time>2022-07-21T12:11:13Z</time>
      </trkpt>
      <trkpt lat="47.1857000" lon="6.8516490">
        <ele>923.0</ele>
        <time>2022-07-21T12:11:14Z</time>
      </trkpt>
      <trkpt lat="47.1857010" lon="6.8516330">
        <ele>923.2</ele>
        <time>2022-07-21T12:11:15Z</time>
      </trkpt>
      <trkpt lat="47.1856990" lon="6.8516180">
        <ele>923.3</ele>
        <time>2022-07-21T12:11:16Z</time>
      </trkpt>
      <trkpt lat="47.1856950" lon="6.8516000">
        <ele>923.5</ele>
        <time>2022-07-21T12:11:17Z</time>
      </trkpt>
      <trkpt lat="47.1856930" lon="6.8515840">
        <ele>923.6</ele>
        <time>2022-07-21T12:11:18Z</time>
      </trkpt>
      <trkpt lat="47.1856880" lon="6.8515690">
        <ele>923.8</ele>
        <time>2022-07-21T12:11:19Z</time>
      </trkpt>
      <trkpt lat="47.1856780" lon="6.8515540">
        <ele>924.0</ele>
        <time>2022-07-21T12:11:20Z</time>
      </trkpt>
      <trkpt lat="47.1856690" lon="6.8515380">
        <ele>924.2</ele>
        <time>2022-07-21T12:11:21Z</time>
      </trkpt>
      <trkpt lat="47.1856650" lon="6.8515260">
        <ele>924.3</ele>
        <time>2022-07-21T12:11:22Z</time>
      </trkpt>
      <trkpt lat="47.1856620" lon="6.8515090">
        <ele>924.4</ele>
        <time>2022-07-21T12:11:23Z</time>
      </trkpt>
      <trkpt lat="47.1856600" lon="6.8514900">
        <ele>924.6</ele>
        <time>2022-07-21T12:11:24Z</time>
      </trkpt>
      <trkpt lat="47.1856580" lon="6.8514750">
        <ele>924.7</ele>
        <time>2022-07-21T12:11:25Z</time>
      </trkpt>
      <trkpt lat="47.1856550" lon="6.8514570">
        <ele>924.7</ele>
        <time>2022-07-21T12:11:26Z</time>
      </trkpt>
      <trkpt lat="47.1856530" lon="6.8514440">
        <ele>924.7</ele>
        <time>2022-07-21T12:11:27Z</time>
      </trkpt>
      <trkpt lat="47.1856480" lon="6.8514350">
        <ele>924.7</ele>
        <time>2022-07-21T12:11:28Z</time>
      </trkpt>
      <trkpt lat="47.1856420" lon="6.8514270">
        <ele>924.7</ele>
        <time>2022-07-21T12:11:29Z</time>
      </trkpt>
      <trkpt lat="47.1856340" lon="6.8514180">
        <ele>924.8</ele>
        <time>2022-07-21T12:11:30Z</time>
      </trkpt>
      <trkpt lat="47.1856260" lon="6.8514090">
        <ele>924.9</ele>
        <time>2022-07-21T12:11:31Z</time>
      </trkpt>
      <trkpt lat="47.1856170" lon="6.8513990">
        <ele>925.0</ele>
        <time>2022-07-21T12:11:32Z</time>
      </trkpt>
      <trkpt lat="47.1856110" lon="6.8513920">
        <ele>925.1</ele>
        <time>2022-07-21T12:11:33Z</time>
      </trkpt>
      <trkpt lat="47.1856070" lon="6.8513850">
        <ele>925.2</ele>
        <time>2022-07-21T12:11:34Z</time>
      </trkpt>
      <trkpt lat="47.1856030" lon="6.8513800">
        <ele>925.3</ele>
        <time>2022-07-21T12:11:35Z</time>
      </trkpt>
      <trkpt lat="47.1855980" lon="6.8513710">
        <ele>925.4</ele>
        <time>2022-07-21T12:11:36Z</time>
      </trkpt>
      <trkpt lat="47.1855930" lon="6.8513560">
        <ele>925.5</ele>
        <time>2022-07-21T12:11:37Z</time>
      </trkpt>
      <trkpt lat="47.1855870" lon="6.8513380">
        <ele>925.7</ele>
        <time>2022-07-21T12:11:38Z</time>
      </trkpt>
      <trkpt lat="47.1855840" lon="6.8513230">
        <ele>925.8</ele>
        <time>2022-07-21T12:11:39Z</time>
      </trkpt>
      <trkpt lat="47.1855830" lon="6.8513040">
        <ele>926.0</ele>
        <time>2022-07-21T12:11:40Z</time>
      </trkpt>
      <trkpt lat="47.1855830" lon="6.8512900">
        <ele>926.1</ele>
        <time>2022-07-21T12:11:41Z</time>
      </trkpt>
      <trkpt lat="47.1855800" lon="6.8512750">
        <ele>926.3</ele>
        <time>2022-07-21T12:11:42Z</time>
      </trkpt>
      <trkpt lat="47.1855770" lon="6.8512610">
        <ele>926.4</ele>
        <time>2022-07-21T12:11:43Z</time>
      </trkpt>
      <trkpt lat="47.1855700" lon="6.8512480">
        <ele>926.5</ele>
        <time>2022-07-21T12:11:44Z</time>
      </trkpt>
      <trkpt lat="47.1855530" lon="6.8512270">
        <ele>926.8</ele>
        <time>2022-07-21T12:11:45Z</time>
      </trkpt>
      <trkpt lat="47.1855460" lon="6.8512200">
        <ele>926.9</ele>
        <time>2022-07-21T12:11:46Z</time>
      </trkpt>
      <trkpt lat="47.1855390" lon="6.8512130">
        <ele>927.0</ele>
        <time>2022-07-21T12:11:47Z</time>
      </trkpt>
      <trkpt lat="47.1855280" lon="6.8511970">
        <ele>927.2</ele>
        <time>2022-07-21T12:11:48Z</time>
      </trkpt>
      <trkpt lat="47.1855200" lon="6.8511820">
        <ele>927.4</ele>
        <time>2022-07-21T12:11:49Z</time>
      </trkpt>
      <trkpt lat="47.1855080" lon="6.8511570">
        <ele>927.6</ele>
        <time>2022-07-21T12:11:50Z</time>
      </trkpt>
      <trkpt lat="47.1855030" lon="6.8511450">
        <ele>927.7</ele>
        <time>2022-07-21T12:11:51Z</time>
      </trkpt>
      <trkpt lat="47.1854970" lon="6.8511330">
        <ele>927.8</ele>
        <time>2022-07-21T12:11:52Z</time>
      </trkpt>
      <trkpt lat="47.1854900" lon="6.8511190">
        <ele>927.9</ele>
        <time>2022-07-21T12:11:53Z</time>
      </trkpt>
      <trkpt lat="47.1854820" lon="6.8511080">
        <ele>928.0</ele>
        <time>2022-07-21T12:11:54Z</time>
      </trkpt>
      <trkpt lat="47.1854750" lon="6.8510990">
        <ele>928.1</ele>
        <time>2022-07-21T12:11:55Z</time>
      </trkpt>
      <trkpt lat="47.1854670" lon="6.8510910">
        <ele>928.2</ele>
        <time>2022-07-21T12:11:56Z</time>
      </trkpt>
      <trkpt lat="47.1854560" lon="6.8510820">
        <ele>928.3</ele>
        <time>2022-07-21T12:11:57Z</time>
      </trkpt>
      <trkpt lat="47.1854470" lon="6.8510730">
        <ele>928.4</ele>
        <time>2022-07-21T12:11:58Z</time>
      </trkpt>
      <trkpt lat="47.1854390" lon="6.8510630">
        <ele>928.5</ele>
        <time>2022-07-21T12:11:59Z</time>
      </trkpt>
      <trkpt lat="47.1854300" lon="6.8510560">
        <ele>928.6</ele>
        <time>2022-07-21T12:12:00Z</time>
      </trkpt>
      <trkpt lat="47.1854190" lon="6.8510500">
        <ele>928.8</ele>
        <time>2022-07-21T12:12:01Z</time>
      </trkpt>
      <trkpt lat="47.1854060" lon="6.8510450">
        <ele>928.9</ele>
        <time>2022-07-21T12:12:02Z</time>
      </trkpt>
      <trkpt lat="47.1853960" lon="6.8510440">
        <ele>929.0</ele>
        <time>2022-07-21T12:12:03Z</time>
      </trkpt>
      <trkpt lat="47.1853880" lon="6.8510410">
        <ele>929.1</ele>
        <time>2022-07-21T12:12:04Z</time>
      </trkpt>
      <trkpt lat="47.1853710" lon="6.8510340">
        <ele>929.2</ele>
        <time>2022-07-21T12:12:05Z</time>
      </trkpt>
      <trkpt lat="47.1853600" lon="6.8510270">
        <ele>929.3</ele>
        <time>2022-07-21T12:12:06Z</time>
      </trkpt>
      <trkpt lat="47.1853480" lon="6.8510200">
        <ele>929.4</ele>
        <time>2022-07-21T12:12:07Z</time>
      </trkpt>
      <trkpt lat="47.1853400" lon="6.8510160">
        <ele>929.5</ele>
        <time>2022-07-21T12:12:08Z</time>
      </trkpt>
      <trkpt lat="47.1853270" lon="6.8510110">
        <ele>929.6</ele>
        <time>2022-07-21T12:12:09Z</time>
      </trkpt>
      <trkpt lat="47.1853120" lon="6.8510040">
        <ele>929.8</ele>
        <time>2022-07-21T12:12:10Z</time>
      </trkpt>
      <trkpt lat="47.1852960" lon="6.8509980">
        <ele>929.9</ele>
        <time>2022-07-21T12:12:11Z</time>
      </trkpt>
      <trkpt lat="47.1852840" lon="6.8509930">
        <ele>930.0</ele>
        <time>2022-07-21T12:12:12Z</time>
      </trkpt>
      <trkpt lat="47.1852640" lon="6.8509860">
        <ele>930.2</ele>
        <time>2022-07-21T12:12:13Z</time>
      </trkpt>
      <trkpt lat="47.1852470" lon="6.8509770">
        <ele>930.4</ele>
        <time>2022-07-21T12:12:14Z</time>
      </trkpt>
      <trkpt lat="47.1852360" lon="6.8509680">
        <ele>930.5</ele>
        <time>2022-07-21T12:12:15Z</time>
      </trkpt>
      <trkpt lat="47.1852150" lon="6.8509530">
        <ele>930.7</ele>
        <time>2022-07-21T12:12:16Z</time>
      </trkpt>
      <trkpt lat="47.1852060" lon="6.8509480">
        <ele>930.8</ele>
        <time>2022-07-21T12:12:17Z</time>
      </trkpt>
      <trkpt lat="47.1851970" lon="6.8509420">
        <ele>930.8</ele>
        <time>2022-07-21T12:12:18Z</time>
      </trkpt>
      <trkpt lat="47.1851810" lon="6.8509370">
        <ele>931.0</ele>
        <time>2022-07-21T12:12:19Z</time>
      </trkpt>
      <trkpt lat="47.1851670" lon="6.8509290">
        <ele>931.1</ele>
        <time>2022-07-21T12:12:20Z</time>
      </trkpt>
      <trkpt lat="47.1851410" lon="6.8509130">
        <ele>931.4</ele>
        <time>2022-07-21T12:12:21Z</time>
      </trkpt>
      <trkpt lat="47.1851330" lon="6.8509080">
        <ele>931.4</ele>
        <time>2022-07-21T12:12:22Z</time>
      </trkpt>
      <trkpt lat="47.1851220" lon="6.8508970">
        <ele>931.5</ele>
        <time>2022-07-21T12:12:23Z</time>
      </trkpt>
      <trkpt lat="47.1851110" lon="6.8508840">
        <ele>931.7</ele>
        <time>2022-07-21T12:12:24Z</time>
      </trkpt>
      <trkpt lat="47.1850990" lon="6.8508700">
        <ele>931.8</ele>
        <time>2022-07-21T12:12:25Z</time>
      </trkpt>
      <trkpt lat="47.1850870" lon="6.8508560">
        <ele>931.9</ele>
        <time>2022-07-21T12:12:26Z</time>
      </trkpt>
      <trkpt lat="47.1850710" lon="6.8508450">
        <ele>932.1</ele>
        <time>2022-07-21T12:12:27Z</time>
      </trkpt>
      <trkpt lat="47.1850560" lon="6.8508370">
        <ele>932.2</ele>
        <time>2022-07-21T12:12:28Z</time>
      </trkpt>
      <trkpt lat="47.1850410" lon="6.8508290">
        <ele>932.3</ele>
        <time>2022-07-21T12:12:29Z</time>
      </trkpt>
      <trkpt lat="47.1850290" lon="6.8508200">
        <ele>932.4</ele>
        <time>2022-07-21T12:12:30Z</time>
      </trkpt>
      <trkpt lat="47.1850160" lon="6.8508100">
        <ele>932.6</ele>
        <time>2022-07-21T12:12:31Z</time>
      </trkpt>
      <trkpt lat="47.1850050" lon="6.8507980">
        <ele>932.7</ele>
        <time>2022-07-21T12:12:32Z</time>
      </trkpt>
      <trkpt lat="47.1849930" lon="6.8507840">
        <ele>932.8</ele>
        <time>2022-07-21T12:12:33Z</time>
      </trkpt>
      <trkpt lat="47.1849810" lon="6.8507710">
        <ele>932.9</ele>
        <time>2022-07-21T12:12:34Z</time>
      </trkpt>
      <trkpt lat="47.1849670" lon="6.8507530">
        <ele>933.1</ele>
        <time>2022-07-21T12:12:35Z</time>
      </trkpt>
      <trkpt lat="47.1849540" lon="6.8507370">
        <ele>933.2</ele>
        <time>2022-07-21T12:12:36Z</time>
      </trkpt>
      <trkpt lat="47.1849280" lon="6.8507110">
        <ele>933.4</ele>
        <time>2022-07-21T12:12:37Z</time>
      </trkpt>
      <trkpt lat="47.1849200" lon="6.8507010">
        <ele>933.5</ele>
        <time>2022-07-21T12:12:38Z</time>
      </trkpt>
      <trkpt lat="47.1849080" lon="6.8506820">
        <ele>933.6</ele>
        <time>2022-07-21T12:12:39Z</time>
      </trkpt>
      <trkpt lat="47.1848980" lon="6.8506620">
        <ele>933.7</ele>
        <time>2022-07-21T12:12:40Z</time>
      </trkpt>
      <trkpt lat="47.1848870" lon="6.8506420">
        <ele>933.9</ele>
        <time>2022-07-21T12:12:41Z</time>
      </trkpt>
      <trkpt lat="47.1848820" lon="6.8506290">
        <ele>933.9</ele>
        <time>2022-07-21T12:12:42Z</time>
      </trkpt>
      <trkpt lat="47.1848740" lon="6.8506090">
        <ele>934.0</ele>
        <time>2022-07-21T12:12:43Z</time>
      </trkpt>
      <trkpt lat="47.1848640" lon="6.8505850">
        <ele>934.2</ele>
        <time>2022-07-21T12:12:44Z</time>
      </trkpt>
      <trkpt lat="47.1848470" lon="6.8505500">
        <ele>934.4</ele>
        <time>2022-07-21T12:12:45Z</time>
      </trkpt>
      <trkpt lat="47.1848430" lon="6.8505390">
        <ele>934.4</ele>
        <time>2022-07-21T12:12:46Z</time>
      </trkpt>
      <trkpt lat="47.1848280" lon="6.8505000">
        <ele>934.6</ele>
        <time>2022-07-21T12:12:47Z</time>
      </trkpt>
      <trkpt lat="47.1848230" lon="6.8504870">
        <ele>934.7</ele>
        <time>2022-07-21T12:12:48Z</time>
      </trkpt>
      <trkpt lat="47.1848050" lon="6.8504550">
        <ele>934.8</ele>
        <time>2022-07-21T12:12:49Z</time>
      </trkpt>
      <trkpt lat="47.1848000" lon="6.8504440">
        <ele>934.9</ele>
        <time>2022-07-21T12:12:50Z</time>
      </trkpt>
      <trkpt lat="47.1847900" lon="6.8504210">
        <ele>935.0</ele>
        <time>2022-07-21T12:12:51Z</time>
      </trkpt>
      <trkpt lat="47.1847850" lon="6.8503980">
        <ele>935.1</ele>
        <time>2022-07-21T12:12:52Z</time>
      </trkpt>
      <trkpt lat="47.1847800" lon="6.8503740">
        <ele>935.2</ele>
        <time>2022-07-21T12:12:53Z</time>
      </trkpt>
      <trkpt lat="47.1847760" lon="6.8503560">
        <ele>935.3</ele>
        <time>2022-07-21T12:12:54Z</time>
      </trkpt>
      <trkpt lat="47.1847690" lon="6.8503300">
        <ele>935.5</ele>
        <time>2022-07-21T12:12:55Z</time>
      </trkpt>
      <trkpt lat="47.1847630" lon="6.8503130">
        <ele>935.6</ele>
        <time>2022-07-21T12:12:56Z</time>
      </trkpt>
      <trkpt lat="47.1847560" lon="6.8502910">
        <ele>935.7</ele>
        <time>2022-07-21T12:12:57Z</time>
      </trkpt>
      <trkpt lat="47.1847480" lon="6.8502680">
        <ele>935.8</ele>
        <time>2022-07-21T12:12:58Z</time>
      </trkpt>
      <trkpt lat="47.1847380" lon="6.8502480">
        <ele>935.9</ele>
        <time>2022-07-21T12:12:59Z</time>
      </trkpt>
      <trkpt lat="47.1847270" lon="6.8502280">
        <ele>936.0</ele>
        <time>2022-07-21T12:13:00Z</time>
      </trkpt>
      <trkpt lat="47.1847070" lon="6.8501960">
        <ele>936.2</ele>
        <time>2022-07-21T12:13:01Z</time>
      </trkpt>
      <trkpt lat="47.1847000" lon="6.8501850">
        <ele>936.3</ele>
        <time>2022-07-21T12:13:02Z</time>
      </trkpt>
      <trkpt lat="47.1846850" lon="6.8501530">
        <ele>936.5</ele>
        <time>2022-07-21T12:13:03Z</time>
      </trkpt>
      <trkpt lat="47.1846800" lon="6.8501400">
        <ele>936.5</ele>
        <time>2022-07-21T12:13:04Z</time>
      </trkpt>
      <trkpt lat="47.1846730" lon="6.8501240">
        <ele>936.6</ele>
        <time>2022-07-21T12:13:05Z</time>
      </trkpt>
      <trkpt lat="47.1846630" lon="6.8501020">
        <ele>936.7</ele>
        <time>2022-07-21T12:13:06Z</time>
      </trkpt>
      <trkpt lat="47.1846450" lon="6.8500690">
        <ele>936.9</ele>
        <time>2022-07-21T12:13:07Z</time>
      </trkpt>
      <trkpt lat="47.1846380" lon="6.8500570">
        <ele>936.9</ele>
        <time>2022-07-21T12:13:08Z</time>
      </trkpt>
      <trkpt lat="47.1846300" lon="6.8500410">
        <ele>937.0</ele>
        <time>2022-07-21T12:13:09Z</time>
      </trkpt>
      <trkpt lat="47.1846180" lon="6.8500150">
        <ele>937.2</ele>
        <time>2022-07-21T12:13:10Z</time>
      </trkpt>
      <trkpt lat="47.1846040" lon="6.8499740">
        <ele>937.3</ele>
        <time>2022-07-21T12:13:11Z</time>
      </trkpt>
      <trkpt lat="47.1846000" lon="6.8499620">
        <ele>937.4</ele>
        <time>2022-07-21T12:13:12Z</time>
      </trkpt>
      <trkpt lat="47.1845920" lon="6.8499240">
        <ele>937.6</ele>
        <time>2022-07-21T12:13:13Z</time>
      </trkpt>
      <trkpt lat="47.1845900" lon="6.8499090">
        <ele>937.6</ele>
        <time>2022-07-21T12:13:14Z</time>
      </trkpt>
      <trkpt lat="47.1845860" lon="6.8498860">
        <ele>937.7</ele>
        <time>2022-07-21T12:13:15Z</time>
      </trkpt>
      <trkpt lat="47.1845810" lon="6.8498640">
        <ele>937.8</ele>
        <time>2022-07-21T12:13:16Z</time>
      </trkpt>
      <trkpt lat="47.1845710" lon="6.8498260">
        <ele>938.0</ele>
        <time>2022-07-21T12:13:17Z</time>
      </trkpt>
      <trkpt lat="47.1845590" lon="6.8497870">
        <ele>938.2</ele>
        <time>2022-07-21T12:13:18Z</time>
      </trkpt>
      <trkpt lat="47.1845540" lon="6.8497720">
        <ele>938.3</ele>
        <time>2022-07-21T12:13:19Z</time>
      </trkpt>
      <trkpt lat="47.1845480" lon="6.8497460">
        <ele>938.5</ele>
        <time>2022-07-21T12:13:20Z</time>
      </trkpt>
      <trkpt lat="47.1845410" lon="6.8496910">
        <ele>938.8</ele>
        <time>2022-07-21T12:13:22Z</time>
      </trkpt>
      <trkpt lat="47.1845400" lon="6.8496500">
        <ele>939.0</ele>
        <time>2022-07-21T12:13:23Z</time>
      </trkpt>
      <trkpt lat="47.1845400" lon="6.8496350">
        <ele>939.1</ele>
        <time>2022-07-21T12:13:24Z</time>
      </trkpt>
      <trkpt lat="47.1845400" lon="6.8496060">
        <ele>939.3</ele>
        <time>2022-07-21T12:13:25Z</time>
      </trkpt>
      <trkpt lat="47.1845390" lon="6.8495840">
        <ele>939.4</ele>
        <time>2022-07-21T12:13:26Z</time>
      </trkpt>
      <trkpt lat="47.1845390" lon="6.8495530">
        <ele>939.6</ele>
        <time>2022-07-21T12:13:27Z</time>
      </trkpt>
      <trkpt lat="47.1845390" lon="6.8495390">
        <ele>939.7</ele>
        <time>2022-07-21T12:13:28Z</time>
      </trkpt>
      <trkpt lat="47.1845390" lon="6.8495250">
        <ele>939.8</ele>
        <time>2022-07-21T12:13:29Z</time>
      </trkpt>
      <trkpt lat="47.1845310" lon="6.8494850">
        <ele>940.1</ele>
        <time>2022-07-21T12:13:30Z</time>
      </trkpt>
      <trkpt lat="47.1845280" lon="6.8494720">
        <ele>940.2</ele>
        <time>2022-07-21T12:13:31Z</time>
      </trkpt>
      <trkpt lat="47.1845220" lon="6.8494520">
        <ele>940.3</ele>
        <time>2022-07-21T12:13:32Z</time>
      </trkpt>
      <trkpt lat="47.1845180" lon="6.8494320">
        <ele>940.4</ele>
        <time>2022-07-21T12:13:33Z</time>
      </trkpt>
      <trkpt lat="47.1845150" lon="6.8494160">
        <ele>940.6</ele>
        <time>2022-07-21T12:13:34Z</time>
      </trkpt>
      <trkpt lat="47.1845160" lon="6.8493920">
        <ele>940.7</ele>
        <time>2022-07-21T12:13:35Z</time>
      </trkpt>
      <trkpt lat="47.1845160" lon="6.8493710">
        <ele>940.9</ele>
        <time>2022-07-21T12:13:36Z</time>
      </trkpt>
      <trkpt lat="47.1845170" lon="6.8493500">
        <ele>941.0</ele>
        <time>2022-07-21T12:13:37Z</time>
      </trkpt>
      <trkpt lat="47.1845220" lon="6.8493290">
        <ele>941.1</ele>
        <time>2022-07-21T12:13:38Z</time>
      </trkpt>
      <trkpt lat="47.1845250" lon="6.8493080">
        <ele>941.3</ele>
        <time>2022-07-21T12:13:39Z</time>
      </trkpt>
      <trkpt lat="47.1845280" lon="6.8492940">
        <ele>941.4</ele>
        <time>2022-07-21T12:13:40Z</time>
      </trkpt>
      <trkpt lat="47.1845300" lon="6.8492770">
        <ele>941.5</ele>
        <time>2022-07-21T12:13:41Z</time>
      </trkpt>
      <trkpt lat="47.1845310" lon="6.8492570">
        <ele>941.6</ele>
        <time>2022-07-21T12:13:42Z</time>
      </trkpt>
      <trkpt lat="47.1845310" lon="6.8492350">
        <ele>941.8</ele>
        <time>2022-07-21T12:13:43Z</time>
      </trkpt>
      <trkpt lat="47.1845310" lon="6.8492240">
        <ele>941.8</ele>
        <time>2022-07-21T12:13:44Z</time>
      </trkpt>
      <trkpt lat="47.1845310" lon="6.8492060">
        <ele>941.9</ele>
        <time>2022-07-21T12:13:45Z</time>
      </trkpt>
      <trkpt lat="47.1845320" lon="6.8491940">
        <ele>942.0</ele>
        <time>2022-07-21T12:13:46Z</time>
      </trkpt>
      <trkpt lat="47.1845330" lon="6.8491780">
        <ele>942.1</ele>
        <time>2022-07-21T12:13:47Z</time>
      </trkpt>
      <trkpt lat="47.1845360" lon="6.8491600">
        <ele>942.3</ele>
        <time>2022-07-21T12:13:48Z</time>
      </trkpt>
      <trkpt lat="47.1845400" lon="6.8491340">
        <ele>942.4</ele>
        <time>2022-07-21T12:13:49Z</time>
      </trkpt>
      <trkpt lat="47.1845420" lon="6.8491170">
        <ele>942.5</ele>
        <time>2022-07-21T12:13:50Z</time>
      </trkpt>
      <trkpt lat="47.1845420" lon="6.8490950">
        <ele>942.7</ele>
        <time>2022-07-21T12:13:51Z</time>
      </trkpt>
      <trkpt lat="47.1845430" lon="6.8490730">
        <ele>942.9</ele>
        <time>2022-07-21T12:13:52Z</time>
      </trkpt>
      <trkpt lat="47.1845450" lon="6.8490560">
        <ele>943.0</ele>
        <time>2022-07-21T12:13:53Z</time>
      </trkpt>
      <trkpt lat="47.1845470" lon="6.8490340">
        <ele>943.1</ele>
        <time>2022-07-21T12:13:54Z</time>
      </trkpt>
      <trkpt lat="47.1845480" lon="6.8490120">
        <ele>943.3</ele>
        <time>2022-07-21T12:13:55Z</time>
      </trkpt>
      <trkpt lat="47.1845480" lon="6.8489900">
        <ele>943.4</ele>
        <time>2022-07-21T12:13:56Z</time>
      </trkpt>
      <trkpt lat="47.1845460" lon="6.8489400">
        <ele>943.8</ele>
        <time>2022-07-21T12:13:57Z</time>
      </trkpt>
      <trkpt lat="47.1845460" lon="6.8489230">
        <ele>943.9</ele>
        <time>2022-07-21T12:13:58Z</time>
      </trkpt>
      <trkpt lat="47.1845450" lon="6.8488790">
        <ele>944.2</ele>
        <time>2022-07-21T12:13:59Z</time>
      </trkpt>
      <trkpt lat="47.1845440" lon="6.8488660">
        <ele>944.3</ele>
        <time>2022-07-21T12:14:00Z</time>
      </trkpt>
      <trkpt lat="47.1845440" lon="6.8488240">
        <ele>944.6</ele>
        <time>2022-07-21T12:14:01Z</time>
      </trkpt>
      <trkpt lat="47.1845420" lon="6.8488110">
        <ele>944.7</ele>
        <time>2022-07-21T12:14:02Z</time>
      </trkpt>
      <trkpt lat="47.1845410" lon="6.8487870">
        <ele>944.9</ele>
        <time>2022-07-21T12:14:03Z</time>
      </trkpt>
      <trkpt lat="47.1845420" lon="6.8487640">
        <ele>945.1</ele>
        <time>2022-07-21T12:14:04Z</time>
      </trkpt>
      <trkpt lat="47.1845420" lon="6.8487200">
        <ele>945.4</ele>
        <time>2022-07-21T12:14:05Z</time>
      </trkpt>
      <trkpt lat="47.1845420" lon="6.8487070">
        <ele>945.5</ele>
        <time>2022-07-21T12:14:06Z</time>
      </trkpt>
      <trkpt lat="47.1845420" lon="6.8486810">
        <ele>945.7</ele>
        <time>2022-07-21T12:14:07Z</time>
      </trkpt>
      <trkpt lat="47.1845420" lon="6.8486580">
        <ele>945.8</ele>
        <time>2022-07-21T12:14:08Z</time>
      </trkpt>
      <trkpt lat="47.1845400" lon="6.8486340">
        <ele>946.0</ele>
        <time>2022-07-21T12:14:09Z</time>
      </trkpt>
      <trkpt lat="47.1845410" lon="6.8486080">
        <ele>946.2</ele>
        <time>2022-07-21T12:14:10Z</time>
      </trkpt>
      <trkpt lat="47.1845370" lon="6.8485850">
        <ele>946.4</ele>
        <time>2022-07-21T12:14:11Z</time>
      </trkpt>
      <trkpt lat="47.1845340" lon="6.8485610">
        <ele>946.5</ele>
        <time>2022-07-21T12:14:12Z</time>
      </trkpt>
      <trkpt lat="47.1845330" lon="6.8485280">
        <ele>946.7</ele>
        <time>2022-07-21T12:14:13Z</time>
      </trkpt>
      <trkpt lat="47.1845330" lon="6.8485160">
        <ele>946.8</ele>
        <time>2022-07-21T12:14:14Z</time>
      </trkpt>
      <trkpt lat="47.1845340" lon="6.8485030">
        <ele>946.9</ele>
        <time>2022-07-21T12:14:15Z</time>
      </trkpt>
      <trkpt lat="47.1845330" lon="6.8484920">
        <ele>947.0</ele>
        <time>2022-07-21T12:14:16Z</time>
      </trkpt>
      <trkpt lat="47.1845320" lon="6.8484740">
        <ele>947.1</ele>
        <time>2022-07-21T12:14:17Z</time>
      </trkpt>
      <trkpt lat="47.1845280" lon="6.8484500">
        <ele>947.2</ele>
        <time>2022-07-21T12:14:18Z</time>
      </trkpt>
      <trkpt lat="47.1845240" lon="6.8484270">
        <ele>947.4</ele>
        <time>2022-07-21T12:14:19Z</time>
      </trkpt>
      <trkpt lat="47.1845200" lon="6.8484100">
        <ele>947.5</ele>
        <time>2022-07-21T12:14:20Z</time>
      </trkpt>
      <trkpt lat="47.1845170" lon="6.8483890">
        <ele>947.6</ele>
        <time>2022-07-21T12:14:21Z</time>
      </trkpt>
      <trkpt lat="47.1845160" lon="6.8483640">
        <ele>947.7</ele>
        <time>2022-07-21T12:14:22Z</time>
      </trkpt>
      <trkpt lat="47.1845160" lon="6.8483300">
        <ele>947.9</ele>
        <time>2022-07-21T12:14:23Z</time>
      </trkpt>
      <trkpt lat="47.1845150" lon="6.8483160">
        <ele>947.9</ele>
        <time>2022-07-21T12:14:24Z</time>
      </trkpt>
      <trkpt lat="47.1845130" lon="6.8483010">
        <ele>948.0</ele>
        <time>2022-07-21T12:14:25Z</time>
      </trkpt>
      <trkpt lat="47.1845170" lon="6.8482410">
        <ele>948.2</ele>
        <time>2022-07-21T12:14:27Z</time>
      </trkpt>
      <trkpt lat="47.1845180" lon="6.8481940">
        <ele>948.2</ele>
        <time>2022-07-21T12:14:28Z</time>
      </trkpt>
      <trkpt lat="47.1845180" lon="6.8481810">
        <ele>948.3</ele>
        <time>2022-07-21T12:14:29Z</time>
      </trkpt>
      <trkpt lat="47.1845200" lon="6.8481380">
        <ele>948.3</ele>
        <time>2022-07-21T12:14:30Z</time>
      </trkpt>
      <trkpt lat="47.1845200" lon="6.8481260">
        <ele>948.3</ele>
        <time>2022-07-21T12:14:31Z</time>
      </trkpt>
      <trkpt lat="47.1845240" lon="6.8480680">
        <ele>948.3</ele>
        <time>2022-07-21T12:14:33Z</time>
      </trkpt>
      <trkpt lat="47.1845230" lon="6.8480160">
        <ele>948.3</ele>
        <time>2022-07-21T12:14:34Z</time>
      </trkpt>
      <trkpt lat="47.1845220" lon="6.8479970">
        <ele>948.2</ele>
        <time>2022-07-21T12:14:35Z</time>
      </trkpt>
      <trkpt lat="47.1845220" lon="6.8479270">
        <ele>948.2</ele>
        <time>2022-07-21T12:14:36Z</time>
      </trkpt>
      <trkpt lat="47.1845240" lon="6.8478960">
        <ele>948.2</ele>
        <time>2022-07-21T12:14:37Z</time>
      </trkpt>
      <trkpt lat="47.1845330" lon="6.8478500">
        <ele>948.1</ele>
        <time>2022-07-21T12:14:38Z</time>
      </trkpt>
      <trkpt lat="47.1845490" lon="6.8477770">
        <ele>948.0</ele>
        <time>2022-07-21T12:14:40Z</time>
      </trkpt>
      <trkpt lat="47.1845540" lon="6.8477010">
        <ele>948.0</ele>
        <time>2022-07-21T12:14:41Z</time>
      </trkpt>
      <trkpt lat="47.1845540" lon="6.8476640">
        <ele>948.0</ele>
        <time>2022-07-21T12:14:42Z</time>
      </trkpt>
      <trkpt lat="47.1845550" lon="6.8476220">
        <ele>947.9</ele>
        <time>2022-07-21T12:14:43Z</time>
      </trkpt>
      <trkpt lat="47.1845570" lon="6.8475770">
        <ele>947.9</ele>
        <time>2022-07-21T12:14:45Z</time>
      </trkpt>
      <trkpt lat="47.1845600" lon="6.8475210">
        <ele>947.9</ele>
        <time>2022-07-21T12:14:46Z</time>
      </trkpt>
      <trkpt lat="47.1845610" lon="6.8474740">
        <ele>947.9</ele>
        <time>2022-07-21T12:14:47Z</time>
      </trkpt>
      <trkpt lat="47.1845590" lon="6.8474070">
        <ele>947.9</ele>
        <time>2022-07-21T12:14:49Z</time>
      </trkpt>
      <trkpt lat="47.1845580" lon="6.8473630">
        <ele>947.9</ele>
        <time>2022-07-21T12:14:50Z</time>
      </trkpt>
      <trkpt lat="47.1845540" lon="6.8472710">
        <ele>947.8</ele>
        <time>2022-07-21T12:14:52Z</time>
      </trkpt>
      <trkpt lat="47.1845500" lon="6.8472290">
        <ele>947.8</ele>
        <time>2022-07-21T12:14:53Z</time>
      </trkpt>
      <trkpt lat="47.1845440" lon="6.8471880">
        <ele>947.7</ele>
        <time>2022-07-21T12:14:54Z</time>
      </trkpt>
      <trkpt lat="47.1845270" lon="6.8471370">
        <ele>947.6</ele>
        <time>2022-07-21T12:14:55Z</time>
      </trkpt>
      <trkpt lat="47.1845200" lon="6.8471210">
        <ele>947.5</ele>
        <time>2022-07-21T12:14:56Z</time>
      </trkpt>
      <trkpt lat="47.1845050" lon="6.8470890">
        <ele>947.4</ele>
        <time>2022-07-21T12:14:57Z</time>
      </trkpt>
      <trkpt lat="47.1844760" lon="6.8470080">
        <ele>947.1</ele>
        <time>2022-07-21T12:14:59Z</time>
      </trkpt>
      <trkpt lat="47.1844410" lon="6.8469220">
        <ele>946.7</ele>
        <time>2022-07-21T12:15:00Z</time>
      </trkpt>
      <trkpt lat="47.1844110" lon="6.8468420">
        <ele>946.2</ele>
        <time>2022-07-21T12:15:01Z</time>
      </trkpt>
      <trkpt lat="47.1844020" lon="6.8467560">
        <ele>945.8</ele>
        <time>2022-07-21T12:15:02Z</time>
      </trkpt>
      <trkpt lat="47.1843990" lon="6.8466630">
        <ele>945.5</ele>
        <time>2022-07-21T12:15:03Z</time>
      </trkpt>
      <trkpt lat="47.1844030" lon="6.8465730">
        <ele>945.2</ele>
        <time>2022-07-21T12:15:04Z</time>
      </trkpt>
      <trkpt lat="47.1844190" lon="6.8464860">
        <ele>945.1</ele>
        <time>2022-07-21T12:15:05Z</time>
      </trkpt>
      <trkpt lat="47.1844480" lon="6.8464080">
        <ele>945.0</ele>
        <time>2022-07-21T12:15:06Z</time>
      </trkpt>
      <trkpt lat="47.1844820" lon="6.8463400">
        <ele>945.1</ele>
        <time>2022-07-21T12:15:07Z</time>
      </trkpt>
      <trkpt lat="47.1845130" lon="6.8462730">
        <ele>945.2</ele>
        <time>2022-07-21T12:15:08Z</time>
      </trkpt>
      <trkpt lat="47.1845410" lon="6.8462310">
        <ele>945.2</ele>
        <time>2022-07-21T12:15:09Z</time>
      </trkpt>
      <trkpt lat="47.1845610" lon="6.8461800">
        <ele>945.4</ele>
        <time>2022-07-21T12:15:10Z</time>
      </trkpt>
      <trkpt lat="47.1845970" lon="6.8461410">
        <ele>945.5</ele>
        <time>2022-07-21T12:15:11Z</time>
      </trkpt>
      <trkpt lat="47.1846260" lon="6.8460850">
        <ele>945.7</ele>
        <time>2022-07-21T12:15:12Z</time>
      </trkpt>
      <trkpt lat="47.1846610" lon="6.8460810">
        <ele>945.9</ele>
        <time>2022-07-21T12:15:13Z</time>
      </trkpt>
      <trkpt lat="47.1846720" lon="6.8460730">
        <ele>946.0</ele>
        <time>2022-07-21T12:15:14Z</time>
      </trkpt>
      <trkpt lat="47.1847180" lon="6.8459920">
        <ele>946.5</ele>
        <time>2022-07-21T12:15:16Z</time>
      </trkpt>
      <trkpt lat="47.1847430" lon="6.8459470">
        <ele>946.9</ele>
        <time>2022-07-21T12:15:17Z</time>
      </trkpt>
      <trkpt lat="47.1847600" lon="6.8458910">
        <ele>947.3</ele>
        <time>2022-07-21T12:15:18Z</time>
      </trkpt>
      <trkpt lat="47.1847780" lon="6.8458520">
        <ele>947.6</ele>
        <time>2022-07-21T12:15:20Z</time>
      </trkpt>
      <trkpt lat="47.1847880" lon="6.8458310">
        <ele>947.8</ele>
        <time>2022-07-21T12:15:21Z</time>
      </trkpt>
      <trkpt lat="47.1847950" lon="6.8458190">
        <ele>948.0</ele>
        <time>2022-07-21T12:15:22Z</time>
      </trkpt>
      <trkpt lat="47.1848080" lon="6.8457920">
        <ele>948.2</ele>
        <time>2022-07-21T12:15:23Z</time>
      </trkpt>
      <trkpt lat="47.1848130" lon="6.8457810">
        <ele>948.3</ele>
        <time>2022-07-21T12:15:24Z</time>
      </trkpt>
      <trkpt lat="47.1848170" lon="6.8457700">
        <ele>948.4</ele>
        <time>2022-07-21T12:15:25Z</time>
      </trkpt>
      <trkpt lat="47.1848250" lon="6.8457530">
        <ele>948.6</ele>
        <time>2022-07-21T12:15:26Z</time>
      </trkpt>
      <trkpt lat="47.1848340" lon="6.8457380">
        <ele>948.8</ele>
        <time>2022-07-21T12:15:27Z</time>
      </trkpt>
      <trkpt lat="47.1848500" lon="6.8457240">
        <ele>949.1</ele>
        <time>2022-07-21T12:15:28Z</time>
      </trkpt>
      <trkpt lat="47.1848640" lon="6.8457130">
        <ele>949.3</ele>
        <time>2022-07-21T12:15:29Z</time>
      </trkpt>
      <trkpt lat="47.1848810" lon="6.8456970">
        <ele>949.6</ele>
        <time>2022-07-21T12:15:30Z</time>
      </trkpt>
      <trkpt lat="47.1848890" lon="6.8456880">
        <ele>949.7</ele>
        <time>2022-07-21T12:15:31Z</time>
      </trkpt>
      <trkpt lat="47.1848970" lon="6.8456780">
        <ele>949.9</ele>
        <time>2022-07-21T12:15:32Z</time>
      </trkpt>
      <trkpt lat="47.1849110" lon="6.8456480">
        <ele>950.3</ele>
        <time>2022-07-21T12:15:33Z</time>
      </trkpt>
      <trkpt lat="47.1849150" lon="6.8456370">
        <ele>950.4</ele>
        <time>2022-07-21T12:15:34Z</time>
      </trkpt>
      <trkpt lat="47.1849200" lon="6.8456250">
        <ele>950.5</ele>
        <time>2022-07-21T12:15:35Z</time>
      </trkpt>
      <trkpt lat="47.1849290" lon="6.8456080">
        <ele>950.8</ele>
        <time>2022-07-21T12:15:36Z</time>
      </trkpt>
      <trkpt lat="47.1849420" lon="6.8455930">
        <ele>951.0</ele>
        <time>2022-07-21T12:15:37Z</time>
      </trkpt>
      <trkpt lat="47.1849680" lon="6.8455710">
        <ele>951.5</ele>
        <time>2022-07-21T12:15:38Z</time>
      </trkpt>
      <trkpt lat="47.1849780" lon="6.8455640">
        <ele>951.7</ele>
        <time>2022-07-21T12:15:39Z</time>
      </trkpt>
      <trkpt lat="47.1849970" lon="6.8455480">
        <ele>952.0</ele>
        <time>2022-07-21T12:15:40Z</time>
      </trkpt>
      <trkpt lat="47.1850050" lon="6.8455400">
        <ele>952.1</ele>
        <time>2022-07-21T12:15:41Z</time>
      </trkpt>
      <trkpt lat="47.1850140" lon="6.8455330">
        <ele>952.3</ele>
        <time>2022-07-21T12:15:42Z</time>
      </trkpt>
      <trkpt lat="47.1850200" lon="6.8455150">
        <ele>952.5</ele>
        <time>2022-07-21T12:15:43Z</time>
      </trkpt>
      <trkpt lat="47.1850310" lon="6.8454890">
        <ele>952.8</ele>
        <time>2022-07-21T12:15:44Z</time>
      </trkpt>
      <trkpt lat="47.1850400" lon="6.8454690">
        <ele>953.1</ele>
        <time>2022-07-21T12:15:45Z</time>
      </trkpt>
      <trkpt lat="47.1850500" lon="6.8454560">
        <ele>953.3</ele>
        <time>2022-07-21T12:15:46Z</time>
      </trkpt>
      <trkpt lat="47.1850600" lon="6.8454470">
        <ele>953.4</ele>
        <time>2022-07-21T12:15:47Z</time>
      </trkpt>
      <trkpt lat="47.1850700" lon="6.8454340">
        <ele>953.6</ele>
        <time>2022-07-21T12:15:48Z</time>
      </trkpt>
      <trkpt lat="47.1850780" lon="6.8454270">
        <ele>953.8</ele>
        <time>2022-07-21T12:15:49Z</time>
      </trkpt>
      <trkpt lat="47.1850980" lon="6.8454160">
        <ele>954.1</ele>
        <time>2022-07-21T12:15:50Z</time>
      </trkpt>
      <trkpt lat="47.1851070" lon="6.8454110">
        <ele>954.2</ele>
        <time>2022-07-21T12:15:51Z</time>
      </trkpt>
      <trkpt lat="47.1851150" lon="6.8454060">
        <ele>954.4</ele>
        <time>2022-07-21T12:15:52Z</time>
      </trkpt>
      <trkpt lat="47.1851340" lon="6.8453960">
        <ele>954.6</ele>
        <time>2022-07-21T12:15:53Z</time>
      </trkpt>
      <trkpt lat="47.1851450" lon="6.8453880">
        <ele>954.8</ele>
        <time>2022-07-21T12:15:54Z</time>
      </trkpt>
      <trkpt lat="47.1851630" lon="6.8453670">
        <ele>955.1</ele>
        <time>2022-07-21T12:15:55Z</time>
      </trkpt>
      <trkpt lat="47.1851690" lon="6.8453570">
        <ele>955.2</ele>
        <time>2022-07-21T12:15:56Z</time>
      </trkpt>
      <trkpt lat="47.1851750" lon="6.8453460">
        <ele>955.3</ele>
        <time>2022-07-21T12:15:57Z</time>
      </trkpt>
      <trkpt lat="47.1851880" lon="6.8453220">
        <ele>955.6</ele>
        <time>2022-07-21T12:15:58Z</time>
      </trkpt>
      <trkpt lat="47.1851950" lon="6.8453110">
        <ele>955.7</ele>
        <time>2022-07-21T12:15:59Z</time>
      </trkpt>
      <trkpt lat="47.1852010" lon="6.8452990">
        <ele>955.8</ele>
        <time>2022-07-21T12:16:00Z</time>
      </trkpt>
      <trkpt lat="47.1852070" lon="6.8452880">
        <ele>955.9</ele>
        <time>2022-07-21T12:16:01Z</time>
      </trkpt>
      <trkpt lat="47.1852150" lon="6.8452750">
        <ele>956.1</ele>
        <time>2022-07-21T12:16:02Z</time>
      </trkpt>
      <trkpt lat="47.1852260" lon="6.8452660">
        <ele>956.2</ele>
        <time>2022-07-21T12:16:03Z</time>
      </trkpt>
      <trkpt lat="47.1852370" lon="6.8452550">
        <ele>956.3</ele>
        <time>2022-07-21T12:16:04Z</time>
      </trkpt>
      <trkpt lat="47.1852520" lon="6.8452390">
        <ele>956.6</ele>
        <time>2022-07-21T12:16:05Z</time>
      </trkpt>
      <trkpt lat="47.1852680" lon="6.8452220">
        <ele>956.6</ele>
        <time>2022-07-21T12:16:06Z</time>
      </trkpt>
      <trkpt lat="47.1852780" lon="6.8452060">
        <ele>956.6</ele>
        <time>2022-07-21T12:16:07Z</time>
      </trkpt>
      <trkpt lat="47.1852850" lon="6.8451770">
        <ele>956.7</ele>
        <time>2022-07-21T12:16:08Z</time>
      </trkpt>
      <trkpt lat="47.1852890" lon="6.8451620">
        <ele>956.7</ele>
        <time>2022-07-21T12:16:09Z</time>
      </trkpt>
      <trkpt lat="47.1852930" lon="6.8451470">
        <ele>956.7</ele>
        <time>2022-07-21T12:16:10Z</time>
      </trkpt>
      <trkpt lat="47.1853100" lon="6.8451110">
        <ele>956.8</ele>
        <time>2022-07-21T12:16:11Z</time>
      </trkpt>
      <trkpt lat="47.1853150" lon="6.8451010">
        <ele>956.8</ele>
        <time>2022-07-21T12:16:12Z</time>
      </trkpt>
      <trkpt lat="47.1853340" lon="6.8450580">
        <ele>956.8</ele>
        <time>2022-07-21T12:16:13Z</time>
      </trkpt>
      <trkpt lat="47.1853410" lon="6.8450420">
        <ele>956.8</ele>
        <time>2022-07-21T12:16:14Z</time>
      </trkpt>
      <trkpt lat="47.1853580" lon="6.8450060">
        <ele>956.9</ele>
        <time>2022-07-21T12:16:15Z</time>
      </trkpt>
      <trkpt lat="47.1853650" lon="6.8449940">
        <ele>956.9</ele>
        <time>2022-07-21T12:16:16Z</time>
      </trkpt>
      <trkpt lat="47.1853910" lon="6.8449570">
        <ele>956.9</ele>
        <time>2022-07-21T12:16:17Z</time>
      </trkpt>
      <trkpt lat="47.1853990" lon="6.8449460">
        <ele>956.9</ele>
        <time>2022-07-21T12:16:18Z</time>
      </trkpt>
      <trkpt lat="47.1854240" lon="6.8449090">
        <ele>957.0</ele>
        <time>2022-07-21T12:16:19Z</time>
      </trkpt>
      <trkpt lat="47.1854330" lon="6.8448960">
        <ele>957.0</ele>
        <time>2022-07-21T12:16:20Z</time>
      </trkpt>
      <trkpt lat="47.1854600" lon="6.8448600">
        <ele>957.0</ele>
        <time>2022-07-21T12:16:21Z</time>
      </trkpt>
      <trkpt lat="47.1854690" lon="6.8448490">
        <ele>957.0</ele>
        <time>2022-07-21T12:16:22Z</time>
      </trkpt>
      <trkpt lat="47.1854930" lon="6.8448120">
        <ele>957.0</ele>
        <time>2022-07-21T12:16:23Z</time>
      </trkpt>
      <trkpt lat="47.1855020" lon="6.8447980">
        <ele>957.0</ele>
        <time>2022-07-21T12:16:24Z</time>
      </trkpt>
      <trkpt lat="47.1855280" lon="6.8447590">
        <ele>957.1</ele>
        <time>2022-07-21T12:16:25Z</time>
      </trkpt>
      <trkpt lat="47.1855360" lon="6.8447460">
        <ele>957.1</ele>
        <time>2022-07-21T12:16:26Z</time>
      </trkpt>
      <trkpt lat="47.1855520" lon="6.8447230">
        <ele>957.1</ele>
        <time>2022-07-21T12:16:27Z</time>
      </trkpt>
      <trkpt lat="47.1855590" lon="6.8447080">
        <ele>957.1</ele>
        <time>2022-07-21T12:16:28Z</time>
      </trkpt>
      <trkpt lat="47.1855800" lon="6.8446720">
        <ele>957.1</ele>
        <time>2022-07-21T12:16:29Z</time>
      </trkpt>
      <trkpt lat="47.1855880" lon="6.8446590">
        <ele>957.1</ele>
        <time>2022-07-21T12:16:30Z</time>
      </trkpt>
      <trkpt lat="47.1856130" lon="6.8446150">
        <ele>957.1</ele>
        <time>2022-07-21T12:16:31Z</time>
      </trkpt>
      <trkpt lat="47.1856210" lon="6.8446000">
        <ele>957.1</ele>
        <time>2022-07-21T12:16:32Z</time>
      </trkpt>
      <trkpt lat="47.1856400" lon="6.8445640">
        <ele>957.0</ele>
        <time>2022-07-21T12:16:33Z</time>
      </trkpt>
      <trkpt lat="47.1856450" lon="6.8445560">
        <ele>957.0</ele>
        <time>2022-07-21T12:16:34Z</time>
      </trkpt>
      <trkpt lat="47.1856690" lon="6.8445130">
        <ele>956.9</ele>
        <time>2022-07-21T12:16:35Z</time>
      </trkpt>
      <trkpt lat="47.1856760" lon="6.8444960">
        <ele>956.8</ele>
        <time>2022-07-21T12:16:36Z</time>
      </trkpt>
      <trkpt lat="47.1856870" lon="6.8444570">
        <ele>956.7</ele>
        <time>2022-07-21T12:16:37Z</time>
      </trkpt>
      <trkpt lat="47.1856900" lon="6.8444130">
        <ele>956.5</ele>
        <time>2022-07-21T12:16:38Z</time>
      </trkpt>
      <trkpt lat="47.1856910" lon="6.8443700">
        <ele>956.4</ele>
        <time>2022-07-21T12:16:39Z</time>
      </trkpt>
      <trkpt lat="47.1856840" lon="6.8443110">
        <ele>956.0</ele>
        <time>2022-07-21T12:16:40Z</time>
      </trkpt>
      <trkpt lat="47.1856400" lon="6.8442360">
        <ele>955.4</ele>
        <time>2022-07-21T12:16:41Z</time>
      </trkpt>
      <trkpt lat="47.1856130" lon="6.8441690">
        <ele>954.8</ele>
        <time>2022-07-21T12:16:42Z</time>
      </trkpt>
      <trkpt lat="47.1855730" lon="6.8440890">
        <ele>954.0</ele>
        <time>2022-07-21T12:16:43Z</time>
      </trkpt>
      <trkpt lat="47.1855250" lon="6.8439930">
        <ele>953.1</ele>
        <time>2022-07-21T12:16:44Z</time>
      </trkpt>
      <trkpt lat="47.1854850" lon="6.8438970">
        <ele>952.3</ele>
        <time>2022-07-21T12:16:45Z</time>
      </trkpt>
      <trkpt lat="47.1854560" lon="6.8437970">
        <ele>951.6</ele>
        <time>2022-07-21T12:16:46Z</time>
      </trkpt>
      <trkpt lat="47.1854320" lon="6.8436980">
        <ele>951.0</ele>
        <time>2022-07-21T12:16:47Z</time>
      </trkpt>
      <trkpt lat="47.1854340" lon="6.8436040">
        <ele>950.5</ele>
        <time>2022-07-21T12:16:48Z</time>
      </trkpt>
      <trkpt lat="47.1854560" lon="6.8435040">
        <ele>950.0</ele>
        <time>2022-07-21T12:16:49Z</time>
      </trkpt>
      <trkpt lat="47.1854880" lon="6.8434210">
        <ele>949.6</ele>
        <time>2022-07-21T12:16:50Z</time>
      </trkpt>
      <trkpt lat="47.1855300" lon="6.8433560">
        <ele>949.2</ele>
        <time>2022-07-21T12:16:51Z</time>
      </trkpt>
      <trkpt lat="47.1855720" lon="6.8432960">
        <ele>948.8</ele>
        <time>2022-07-21T12:16:52Z</time>
      </trkpt>
      <trkpt lat="47.1856060" lon="6.8432560">
        <ele>948.4</ele>
        <time>2022-07-21T12:16:53Z</time>
      </trkpt>
      <trkpt lat="47.1856440" lon="6.8432080">
        <ele>948.0</ele>
        <time>2022-07-21T12:16:54Z</time>
      </trkpt>
      <trkpt lat="47.1856610" lon="6.8431810">
        <ele>947.7</ele>
        <time>2022-07-21T12:16:55Z</time>
      </trkpt>
      <trkpt lat="47.1856950" lon="6.8431360">
        <ele>947.3</ele>
        <time>2022-07-21T12:16:56Z</time>
      </trkpt>
      <trkpt lat="47.1857220" lon="6.8431070">
        <ele>947.0</ele>
        <time>2022-07-21T12:16:57Z</time>
      </trkpt>
      <trkpt lat="47.1857420" lon="6.8430730">
        <ele>946.7</ele>
        <time>2022-07-21T12:16:58Z</time>
      </trkpt>
      <trkpt lat="47.1857440" lon="6.8430540">
        <ele>946.6</ele>
        <time>2022-07-21T12:16:59Z</time>
      </trkpt>
      <trkpt lat="47.1857540" lon="6.8430310">
        <ele>946.4</ele>
        <time>2022-07-21T12:17:00Z</time>
      </trkpt>
      <trkpt lat="47.1857380" lon="6.8430190">
        <ele>946.3</ele>
        <time>2022-07-21T12:17:01Z</time>
      </trkpt>
      <trkpt lat="47.1857320" lon="6.8429940">
        <ele>946.1</ele>
        <time>2022-07-21T12:17:02Z</time>
      </trkpt>
      <trkpt lat="47.1857250" lon="6.8429690">
        <ele>945.8</ele>
        <time>2022-07-21T12:17:03Z</time>
      </trkpt>
      <trkpt lat="47.1856990" lon="6.8429520">
        <ele>945.8</ele>
        <time>2022-07-21T12:17:04Z</time>
      </trkpt>
      <trkpt lat="47.1856610" lon="6.8429550">
        <ele>945.9</ele>
        <time>2022-07-21T12:17:06Z</time>
      </trkpt>
      <trkpt lat="47.1856290" lon="6.8429460">
        <ele>946.1</ele>
        <time>2022-07-21T12:17:07Z</time>
      </trkpt>
      <trkpt lat="47.1856200" lon="6.8429450">
        <ele>946.1</ele>
        <time>2022-07-21T12:17:08Z</time>
      </trkpt>
      <trkpt lat="47.1856030" lon="6.8429420">
        <ele>946.2</ele>
        <time>2022-07-21T12:17:09Z</time>
      </trkpt>
      <trkpt lat="47.1855850" lon="6.8429340">
        <ele>946.3</ele>
        <time>2022-07-21T12:17:10Z</time>
      </trkpt>
      <trkpt lat="47.1855740" lon="6.8429310">
        <ele>946.4</ele>
        <time>2022-07-21T12:17:11Z</time>
      </trkpt>
      <trkpt lat="47.1855630" lon="6.8429300">
        <ele>946.4</ele>
        <time>2022-07-21T12:17:12Z</time>
      </trkpt>
      <trkpt lat="47.1855500" lon="6.8429280">
        <ele>946.5</ele>
        <time>2022-07-21T12:17:13Z</time>
      </trkpt>
      <trkpt lat="47.1855370" lon="6.8429250">
        <ele>946.6</ele>
        <time>2022-07-21T12:17:14Z</time>
      </trkpt>
      <trkpt lat="47.1855080" lon="6.8429100">
        <ele>946.8</ele>
        <time>2022-07-21T12:17:16Z</time>
      </trkpt>
      <trkpt lat="47.1854860" lon="6.8429070">
        <ele>946.9</ele>
        <time>2022-07-21T12:17:17Z</time>
      </trkpt>
      <trkpt lat="47.1854740" lon="6.8429050">
        <ele>947.0</ele>
        <time>2022-07-21T12:17:18Z</time>
      </trkpt>
      <trkpt lat="47.1854630" lon="6.8429030">
        <ele>947.0</ele>
        <time>2022-07-21T12:17:19Z</time>
      </trkpt>
      <trkpt lat="47.1854300" lon="6.8428950">
        <ele>947.2</ele>
        <time>2022-07-21T12:17:20Z</time>
      </trkpt>
      <trkpt lat="47.1854190" lon="6.8428930">
        <ele>947.3</ele>
        <time>2022-07-21T12:17:21Z</time>
      </trkpt>
      <trkpt lat="47.1853900" lon="6.8428920">
        <ele>947.4</ele>
        <time>2022-07-21T12:17:22Z</time>
      </trkpt>
      <trkpt lat="47.1853800" lon="6.8428890">
        <ele>947.5</ele>
        <time>2022-07-21T12:17:23Z</time>
      </trkpt>
      <trkpt lat="47.1853440" lon="6.8428830">
        <ele>947.7</ele>
        <time>2022-07-21T12:17:25Z</time>
      </trkpt>
      <trkpt lat="47.1853290" lon="6.8428800">
        <ele>947.8</ele>
        <time>2022-07-21T12:17:26Z</time>
      </trkpt>
      <trkpt lat="47.1852970" lon="6.8428820">
        <ele>948.0</ele>
        <time>2022-07-21T12:17:27Z</time>
      </trkpt>
      <trkpt lat="47.1852680" lon="6.8428750">
        <ele>948.1</ele>
        <time>2022-07-21T12:17:29Z</time>
      </trkpt>
      <trkpt lat="47.1852290" lon="6.8428690">
        <ele>948.3</ele>
        <time>2022-07-21T12:17:30Z</time>
      </trkpt>
      <trkpt lat="47.1851890" lon="6.8428640">
        <ele>948.6</ele>
        <time>2022-07-21T12:17:32Z</time>
      </trkpt>
      <trkpt lat="47.1851570" lon="6.8428600">
        <ele>948.7</ele>
        <time>2022-07-21T12:17:33Z</time>
      </trkpt>
      <trkpt lat="47.1851280" lon="6.8428530">
        <ele>948.9</ele>
        <time>2022-07-21T12:17:34Z</time>
      </trkpt>
      <trkpt lat="47.1850990" lon="6.8428510">
        <ele>949.1</ele>
        <time>2022-07-21T12:17:35Z</time>
      </trkpt>
      <trkpt lat="47.1850690" lon="6.8428430">
        <ele>949.2</ele>
        <time>2022-07-21T12:17:36Z</time>
      </trkpt>
      <trkpt lat="47.1850620" lon="6.8428370">
        <ele>949.3</ele>
        <time>2022-07-21T12:17:37Z</time>
      </trkpt>
      <trkpt lat="47.1850350" lon="6.8428240">
        <ele>949.4</ele>
        <time>2022-07-21T12:17:38Z</time>
      </trkpt>
      <trkpt lat="47.1850260" lon="6.8428200">
        <ele>949.5</ele>
        <time>2022-07-21T12:17:39Z</time>
      </trkpt>
      <trkpt lat="47.1849900" lon="6.8428180">
        <ele>949.7</ele>
        <time>2022-07-21T12:17:40Z</time>
      </trkpt>
      <trkpt lat="47.1849760" lon="6.8428160">
        <ele>949.8</ele>
        <time>2022-07-21T12:17:41Z</time>
      </trkpt>
      <trkpt lat="47.1849410" lon="6.8428230">
        <ele>950.0</ele>
        <time>2022-07-21T12:17:42Z</time>
      </trkpt>
      <trkpt lat="47.1849300" lon="6.8428260">
        <ele>950.0</ele>
        <time>2022-07-21T12:17:43Z</time>
      </trkpt>
      <trkpt lat="47.1849030" lon="6.8428270">
        <ele>950.2</ele>
        <time>2022-07-21T12:17:44Z</time>
      </trkpt>
      <trkpt lat="47.1848940" lon="6.8428240">
        <ele>950.2</ele>
        <time>2022-07-21T12:17:45Z</time>
      </trkpt>
      <trkpt lat="47.1848660" lon="6.8428030">
        <ele>950.4</ele>
        <time>2022-07-21T12:17:46Z</time>
      </trkpt>
      <trkpt lat="47.1848570" lon="6.8427970">
        <ele>950.5</ele>
        <time>2022-07-21T12:17:47Z</time>
      </trkpt>
      <trkpt lat="47.1848200" lon="6.8427800">
        <ele>950.7</ele>
        <time>2022-07-21T12:17:48Z</time>
      </trkpt>
      <trkpt lat="47.1848050" lon="6.8427750">
        <ele>950.8</ele>
        <time>2022-07-21T12:17:49Z</time>
      </trkpt>
      <trkpt lat="47.1847690" lon="6.8427660">
        <ele>951.0</ele>
        <time>2022-07-21T12:17:50Z</time>
      </trkpt>
      <trkpt lat="47.1847570" lon="6.8427640">
        <ele>951.0</ele>
        <time>2022-07-21T12:17:51Z</time>
      </trkpt>
      <trkpt lat="47.1847200" lon="6.8427520">
        <ele>951.2</ele>
        <time>2022-07-21T12:17:52Z</time>
      </trkpt>
      <trkpt lat="47.1847070" lon="6.8427480">
        <ele>951.3</ele>
        <time>2022-07-21T12:17:53Z</time>
      </trkpt>
      <trkpt lat="47.1846760" lon="6.8427350">
        <ele>951.4</ele>
        <time>2022-07-21T12:17:54Z</time>
      </trkpt>
      <trkpt lat="47.1846650" lon="6.8427310">
        <ele>951.5</ele>
        <time>2022-07-21T12:17:55Z</time>
      </trkpt>
      <trkpt lat="47.1846360" lon="6.8427210">
        <ele>951.6</ele>
        <time>2022-07-21T12:17:56Z</time>
      </trkpt>
      <trkpt lat="47.1846280" lon="6.8427180">
        <ele>951.7</ele>
        <time>2022-07-21T12:17:57Z</time>
      </trkpt>
      <trkpt lat="47.1846020" lon="6.8427020">
        <ele>951.8</ele>
        <time>2022-07-21T12:17:58Z</time>
      </trkpt>
      <trkpt lat="47.1845910" lon="6.8426970">
        <ele>951.9</ele>
        <time>2022-07-21T12:17:59Z</time>
      </trkpt>
      <trkpt lat="47.1845600" lon="6.8426950">
        <ele>952.0</ele>
        <time>2022-07-21T12:18:00Z</time>
      </trkpt>
      <trkpt lat="47.1845490" lon="6.8426940">
        <ele>952.0</ele>
        <time>2022-07-21T12:18:01Z</time>
      </trkpt>
      <trkpt lat="47.1845180" lon="6.8426830">
        <ele>952.2</ele>
        <time>2022-07-21T12:18:02Z</time>
      </trkpt>
      <trkpt lat="47.1845090" lon="6.8426760">
        <ele>952.2</ele>
        <time>2022-07-21T12:18:03Z</time>
      </trkpt>
      <trkpt lat="47.1844820" lon="6.8426500">
        <ele>952.3</ele>
        <time>2022-07-21T12:18:04Z</time>
      </trkpt>
      <trkpt lat="47.1844760" lon="6.8426410">
        <ele>952.4</ele>
        <time>2022-07-21T12:18:05Z</time>
      </trkpt>
      <trkpt lat="47.1844540" lon="6.8425960">
        <ele>952.5</ele>
        <time>2022-07-21T12:18:06Z</time>
      </trkpt>
      <trkpt lat="47.1844480" lon="6.8425780">
        <ele>952.6</ele>
        <time>2022-07-21T12:18:07Z</time>
      </trkpt>
      <trkpt lat="47.1844230" lon="6.8425410">
        <ele>952.7</ele>
        <time>2022-07-21T12:18:08Z</time>
      </trkpt>
      <trkpt lat="47.1843970" lon="6.8425130">
        <ele>952.7</ele>
        <time>2022-07-21T12:18:10Z</time>
      </trkpt>
      <trkpt lat="47.1843730" lon="6.8424900">
        <ele>952.8</ele>
        <time>2022-07-21T12:18:11Z</time>
      </trkpt>
      <trkpt lat="47.1843480" lon="6.8424700">
        <ele>952.8</ele>
        <time>2022-07-21T12:18:12Z</time>
      </trkpt>
      <trkpt lat="47.1843240" lon="6.8424600">
        <ele>952.9</ele>
        <time>2022-07-21T12:18:13Z</time>
      </trkpt>
      <trkpt lat="47.1842750" lon="6.8424350">
        <ele>952.9</ele>
        <time>2022-07-21T12:18:15Z</time>
      </trkpt>
      <trkpt lat="47.1842540" lon="6.8424100">
        <ele>952.8</ele>
        <time>2022-07-21T12:18:16Z</time>
      </trkpt>
      <trkpt lat="47.1842290" lon="6.8423850">
        <ele>952.8</ele>
        <time>2022-07-21T12:18:17Z</time>
      </trkpt>
      <trkpt lat="47.1841990" lon="6.8423630">
        <ele>952.7</ele>
        <time>2022-07-21T12:18:18Z</time>
      </trkpt>
      <trkpt lat="47.1841670" lon="6.8423440">
        <ele>952.6</ele>
        <time>2022-07-21T12:18:19Z</time>
      </trkpt>
      <trkpt lat="47.1841370" lon="6.8423250">
        <ele>952.5</ele>
        <time>2022-07-21T12:18:20Z</time>
      </trkpt>
      <trkpt lat="47.1841040" lon="6.8423090">
        <ele>952.3</ele>
        <time>2022-07-21T12:18:21Z</time>
      </trkpt>
      <trkpt lat="47.1840710" lon="6.8422870">
        <ele>952.2</ele>
        <time>2022-07-21T12:18:22Z</time>
      </trkpt>
      <trkpt lat="47.1840330" lon="6.8422630">
        <ele>952.0</ele>
        <time>2022-07-21T12:18:23Z</time>
      </trkpt>
      <trkpt lat="47.1840010" lon="6.8422430">
        <ele>951.8</ele>
        <time>2022-07-21T12:18:24Z</time>
      </trkpt>
      <trkpt lat="47.1839540" lon="6.8422160">
        <ele>951.6</ele>
        <time>2022-07-21T12:18:25Z</time>
      </trkpt>
      <trkpt lat="47.1839070" lon="6.8421940">
        <ele>951.3</ele>
        <time>2022-07-21T12:18:27Z</time>
      </trkpt>
      <trkpt lat="47.1838640" lon="6.8421770">
        <ele>951.1</ele>
        <time>2022-07-21T12:18:28Z</time>
      </trkpt>
      <trkpt lat="47.1838350" lon="6.8421680">
        <ele>951.0</ele>
        <time>2022-07-21T12:18:29Z</time>
      </trkpt>
      <trkpt lat="47.1838000" lon="6.8421430">
        <ele>950.9</ele>
        <time>2022-07-21T12:18:30Z</time>
      </trkpt>
      <trkpt lat="47.1837630" lon="6.8421210">
        <ele>950.8</ele>
        <time>2022-07-21T12:18:31Z</time>
      </trkpt>
      <trkpt lat="47.1837270" lon="6.8421040">
        <ele>950.7</ele>
        <time>2022-07-21T12:18:32Z</time>
      </trkpt>
      <trkpt lat="47.1836720" lon="6.8420790">
        <ele>950.7</ele>
        <time>2022-07-21T12:18:33Z</time>
      </trkpt>
      <trkpt lat="47.1835890" lon="6.8420440">
        <ele>950.1</ele>
        <time>2022-07-21T12:18:35Z</time>
      </trkpt>
      <trkpt lat="47.1835540" lon="6.8420360">
        <ele>949.8</ele>
        <time>2022-07-21T12:18:36Z</time>
      </trkpt>
      <trkpt lat="47.1835110" lon="6.8420180">
        <ele>949.5</ele>
        <time>2022-07-21T12:18:38Z</time>
      </trkpt>
      <trkpt lat="47.1834410" lon="6.8419630">
        <ele>948.8</ele>
        <time>2022-07-21T12:18:39Z</time>
      </trkpt>
      <trkpt lat="47.1834060" lon="6.8419530">
        <ele>948.5</ele>
        <time>2022-07-21T12:18:40Z</time>
      </trkpt>
      <trkpt lat="47.1833700" lon="6.8419250">
        <ele>948.1</ele>
        <time>2022-07-21T12:18:41Z</time>
      </trkpt>
      <trkpt lat="47.1833260" lon="6.8418560">
        <ele>947.5</ele>
        <time>2022-07-21T12:18:43Z</time>
      </trkpt>
      <trkpt lat="47.1833160" lon="6.8418040">
        <ele>947.1</ele>
        <time>2022-07-21T12:18:44Z</time>
      </trkpt>
      <trkpt lat="47.1833090" lon="6.8417410">
        <ele>946.8</ele>
        <time>2022-07-21T12:18:45Z</time>
      </trkpt>
      <trkpt lat="47.1833160" lon="6.8416410">
        <ele>946.1</ele>
        <time>2022-07-21T12:18:46Z</time>
      </trkpt>
      <trkpt lat="47.1833250" lon="6.8415570">
        <ele>945.6</ele>
        <time>2022-07-21T12:18:48Z</time>
      </trkpt>
      <trkpt lat="47.1833250" lon="6.8414990">
        <ele>945.3</ele>
        <time>2022-07-21T12:18:49Z</time>
      </trkpt>
      <trkpt lat="47.1833210" lon="6.8414460">
        <ele>944.9</ele>
        <time>2022-07-21T12:18:50Z</time>
      </trkpt>
      <trkpt lat="47.1833180" lon="6.8413650">
        <ele>944.4</ele>
        <time>2022-07-21T12:18:52Z</time>
      </trkpt>
      <trkpt lat="47.1833220" lon="6.8413220">
        <ele>944.2</ele>
        <time>2022-07-21T12:18:53Z</time>
      </trkpt>
      <trkpt lat="47.1833420" lon="6.8412880">
        <ele>943.9</ele>
        <time>2022-07-21T12:18:54Z</time>
      </trkpt>
      <trkpt lat="47.1833480" lon="6.8412790">
        <ele>943.8</ele>
        <time>2022-07-21T12:18:55Z</time>
      </trkpt>
      <trkpt lat="47.1833560" lon="6.8412570">
        <ele>943.7</ele>
        <time>2022-07-21T12:18:56Z</time>
      </trkpt>
      <trkpt lat="47.1833620" lon="6.8412420">
        <ele>943.5</ele>
        <time>2022-07-21T12:18:57Z</time>
      </trkpt>
      <trkpt lat="47.1833600" lon="6.8412150">
        <ele>943.4</ele>
        <time>2022-07-21T12:18:58Z</time>
      </trkpt>
      <trkpt lat="47.1833510" lon="6.8411960">
        <ele>943.2</ele>
        <time>2022-07-21T12:19:00Z</time>
      </trkpt>
      <trkpt lat="47.1833440" lon="6.8411730">
        <ele>943.1</ele>
        <time>2022-07-21T12:19:01Z</time>
      </trkpt>
      <trkpt lat="47.1833370" lon="6.8411540">
        <ele>942.9</ele>
        <time>2022-07-21T12:19:02Z</time>
      </trkpt>
      <trkpt lat="47.1833330" lon="6.8411400">
        <ele>942.8</ele>
        <time>2022-07-21T12:19:03Z</time>
      </trkpt>
      <trkpt lat="47.1833320" lon="6.8411300">
        <ele>942.8</ele>
        <time>2022-07-21T12:19:04Z</time>
      </trkpt>
      <trkpt lat="47.1833250" lon="6.8411190">
        <ele>942.7</ele>
        <time>2022-07-21T12:19:05Z</time>
      </trkpt>
      <trkpt lat="47.1833170" lon="6.8411130">
        <ele>942.6</ele>
        <time>2022-07-21T12:19:07Z</time>
      </trkpt>
      <trkpt lat="47.1833140" lon="6.8411100">
        <ele>942.6</ele>
        <time>2022-07-21T12:19:08Z</time>
      </trkpt>
      <trkpt lat="47.1833120" lon="6.8411070">
        <ele>942.6</ele>
        <time>2022-07-21T12:19:09Z</time>
      </trkpt>
      <trkpt lat="47.1833130" lon="6.8411070">
        <ele>942.6</ele>
        <time>2022-07-21T12:19:10Z</time>
      </trkpt>
      <trkpt lat="47.1833130" lon="6.8411060">
        <ele>942.6</ele>
        <time>2022-07-21T12:19:11Z</time>
      </trkpt>
      <trkpt lat="47.1833130" lon="6.8411030">
        <ele>942.6</ele>
        <time>2022-07-21T12:19:12Z</time>
      </trkpt>
      <trkpt lat="47.1833110" lon="6.8411010">
        <ele>942.5</ele>
        <time>2022-07-21T12:19:13Z</time>
      </trkpt>
      <trkpt lat="47.1833110" lon="6.8410880">
        <ele>942.5</ele>
        <time>2022-07-21T12:19:14Z</time>
      </trkpt>
      <trkpt lat="47.1833100" lon="6.8410710">
        <ele>942.4</ele>
        <time>2022-07-21T12:19:15Z</time>
      </trkpt>
      <trkpt lat="47.1833100" lon="6.8410710">
        <ele>942.4</ele>
        <time>2022-07-21T12:19:15Z</time>
      </trkpt>
      <trkpt lat="47.1833110" lon="6.8410560">
        <ele>942.3</ele>
        <time>2022-07-21T12:19:16Z</time>
      </trkpt>
      <trkpt lat="47.1833120" lon="6.8410480">
        <ele>942.3</ele>
        <time>2022-07-21T12:19:17Z</time>
      </trkpt>
      <trkpt lat="47.1833120" lon="6.8410440">
        <ele>942.2</ele>
        <time>2022-07-21T12:19:18Z</time>
      </trkpt>
      <trkpt lat="47.1833120" lon="6.8410420">
        <ele>942.2</ele>
        <time>2022-07-21T12:19:19Z</time>
      </trkpt>
      <trkpt lat="47.1833120" lon="6.8410420">
        <ele>942.2</ele>
        <time>2022-07-21T12:19:20Z</time>
      </trkpt>
      <trkpt lat="47.1833120" lon="6.8410420">
        <ele>942.2</ele>
        <time>2022-07-21T12:19:21Z</time>
      </trkpt>
      <trkpt lat="47.1833120" lon="6.8410410">
        <ele>942.2</ele>
        <time>2022-07-21T12:19:22Z</time>
      </trkpt>
      <trkpt lat="47.1833120" lon="6.8410410">
        <ele>942.2</ele>
        <time>2022-07-21T12:19:23Z</time>
      </trkpt>
      <trkpt lat="47.1833130" lon="6.8410410">
        <ele>942.2</ele>
        <time>2022-07-21T12:19:24Z</time>
      </trkpt>
      <trkpt lat="47.1833130" lon="6.8410410">
        <ele>942.2</ele>
        <time>2022-07-21T12:19:25Z</time>
      </trkpt>
      <trkpt lat="47.1833150" lon="6.8410340">
        <ele>942.2</ele>
        <time>2022-07-21T12:19:26Z</time>
      </trkpt>
      <trkpt lat="47.1833170" lon="6.8410260">
        <ele>942.1</ele>
        <time>2022-07-21T12:19:27Z</time>
      </trkpt>
      <trkpt lat="47.1833170" lon="6.8410060">
        <ele>942.0</ele>
        <time>2022-07-21T12:19:28Z</time>
      </trkpt>
      <trkpt lat="47.1833120" lon="6.8409780">
        <ele>941.9</ele>
        <time>2022-07-21T12:19:29Z</time>
      </trkpt>
      <trkpt lat="47.1833000" lon="6.8409380">
        <ele>941.7</ele>
        <time>2022-07-21T12:19:30Z</time>
      </trkpt>
      <trkpt lat="47.1832940" lon="6.8409240">
        <ele>941.6</ele>
        <time>2022-07-21T12:19:31Z</time>
      </trkpt>
      <trkpt lat="47.1832720" lon="6.8408750">
        <ele>941.3</ele>
        <time>2022-07-21T12:19:32Z</time>
      </trkpt>
      <trkpt lat="47.1832630" lon="6.8408520">
        <ele>941.2</ele>
        <time>2022-07-21T12:19:33Z</time>
      </trkpt>
      <trkpt lat="47.1832460" lon="6.8408020">
        <ele>940.9</ele>
        <time>2022-07-21T12:19:34Z</time>
      </trkpt>
      <trkpt lat="47.1832300" lon="6.8407440">
        <ele>940.7</ele>
        <time>2022-07-21T12:19:35Z</time>
      </trkpt>
      <trkpt lat="47.1832200" lon="6.8406970">
        <ele>940.4</ele>
        <time>2022-07-21T12:19:36Z</time>
      </trkpt>
      <trkpt lat="47.1832130" lon="6.8406690">
        <ele>940.3</ele>
        <time>2022-07-21T12:19:37Z</time>
      </trkpt>
      <trkpt lat="47.1832070" lon="6.8406470">
        <ele>940.2</ele>
        <time>2022-07-21T12:19:38Z</time>
      </trkpt>
      <trkpt lat="47.1831860" lon="6.8406090">
        <ele>940.0</ele>
        <time>2022-07-21T12:19:39Z</time>
      </trkpt>
      <trkpt lat="47.1831800" lon="6.8405970">
        <ele>939.9</ele>
        <time>2022-07-21T12:19:40Z</time>
      </trkpt>
      <trkpt lat="47.1831580" lon="6.8405550">
        <ele>939.7</ele>
        <time>2022-07-21T12:19:41Z</time>
      </trkpt>
      <trkpt lat="47.1831510" lon="6.8405400">
        <ele>939.6</ele>
        <time>2022-07-21T12:19:42Z</time>
      </trkpt>
      <trkpt lat="47.1831420" lon="6.8405210">
        <ele>939.5</ele>
        <time>2022-07-21T12:19:43Z</time>
      </trkpt>
      <trkpt lat="47.1831280" lon="6.8405050">
        <ele>939.4</ele>
        <time>2022-07-21T12:19:44Z</time>
      </trkpt>
      <trkpt lat="47.1831010" lon="6.8404740">
        <ele>939.2</ele>
        <time>2022-07-21T12:19:45Z</time>
      </trkpt>
      <trkpt lat="47.1830920" lon="6.8404590">
        <ele>939.1</ele>
        <time>2022-07-21T12:19:46Z</time>
      </trkpt>
      <trkpt lat="47.1830780" lon="6.8404230">
        <ele>938.9</ele>
        <time>2022-07-21T12:19:47Z</time>
      </trkpt>
      <trkpt lat="47.1830590" lon="6.8403710">
        <ele>938.6</ele>
        <time>2022-07-21T12:19:48Z</time>
      </trkpt>
      <trkpt lat="47.1830520" lon="6.8403520">
        <ele>938.5</ele>
        <time>2022-07-21T12:19:49Z</time>
      </trkpt>
      <trkpt lat="47.1830340" lon="6.8403140">
        <ele>938.3</ele>
        <time>2022-07-21T12:19:50Z</time>
      </trkpt>
      <trkpt lat="47.1830140" lon="6.8402660">
        <ele>938.0</ele>
        <time>2022-07-21T12:19:51Z</time>
      </trkpt>
      <trkpt lat="47.1830010" lon="6.8402140">
        <ele>937.7</ele>
        <time>2022-07-21T12:19:52Z</time>
      </trkpt>
      <trkpt lat="47.1829920" lon="6.8401650">
        <ele>937.5</ele>
        <time>2022-07-21T12:19:53Z</time>
      </trkpt>
      <trkpt lat="47.1829780" lon="6.8401160">
        <ele>937.3</ele>
        <time>2022-07-21T12:19:54Z</time>
      </trkpt>
      <trkpt lat="47.1829550" lon="6.8400570">
        <ele>936.9</ele>
        <time>2022-07-21T12:19:55Z</time>
      </trkpt>
      <trkpt lat="47.1829290" lon="6.8399800">
        <ele>936.6</ele>
        <time>2022-07-21T12:19:56Z</time>
      </trkpt>
      <trkpt lat="47.1828980" lon="6.8399100">
        <ele>936.2</ele>
        <time>2022-07-21T12:19:57Z</time>
      </trkpt>
      <trkpt lat="47.1828740" lon="6.8398660">
        <ele>936.0</ele>
        <time>2022-07-21T12:19:58Z</time>
      </trkpt>
      <trkpt lat="47.1828430" lon="6.8398110">
        <ele>935.7</ele>
        <time>2022-07-21T12:19:59Z</time>
      </trkpt>
      <trkpt lat="47.1828220" lon="6.8397850">
        <ele>935.6</ele>
        <time>2022-07-21T12:20:00Z</time>
      </trkpt>
      <trkpt lat="47.1828050" lon="6.8397460">
        <ele>935.4</ele>
        <time>2022-07-21T12:20:01Z</time>
      </trkpt>
      <trkpt lat="47.1827670" lon="6.8397140">
        <ele>935.2</ele>
        <time>2022-07-21T12:20:02Z</time>
      </trkpt>
      <trkpt lat="47.1827500" lon="6.8397010">
        <ele>935.1</ele>
        <time>2022-07-21T12:20:03Z</time>
      </trkpt>
      <trkpt lat="47.1827160" lon="6.8396750">
        <ele>934.9</ele>
        <time>2022-07-21T12:20:04Z</time>
      </trkpt>
      <trkpt lat="47.1826860" lon="6.8396550">
        <ele>934.7</ele>
        <time>2022-07-21T12:20:05Z</time>
      </trkpt>
      <trkpt lat="47.1826580" lon="6.8396290">
        <ele>934.5</ele>
        <time>2022-07-21T12:20:06Z</time>
      </trkpt>
      <trkpt lat="47.1826410" lon="6.8395900">
        <ele>934.3</ele>
        <time>2022-07-21T12:20:07Z</time>
      </trkpt>
      <trkpt lat="47.1826360" lon="6.8395720">
        <ele>934.2</ele>
        <time>2022-07-21T12:20:08Z</time>
      </trkpt>
      <trkpt lat="47.1826210" lon="6.8395240">
        <ele>934.0</ele>
        <time>2022-07-21T12:20:09Z</time>
      </trkpt>
      <trkpt lat="47.1825890" lon="6.8395040">
        <ele>933.8</ele>
        <time>2022-07-21T12:20:10Z</time>
      </trkpt>
      <trkpt lat="47.1825790" lon="6.8394980">
        <ele>933.7</ele>
        <time>2022-07-21T12:20:11Z</time>
      </trkpt>
      <trkpt lat="47.1825530" lon="6.8394760">
        <ele>933.6</ele>
        <time>2022-07-21T12:20:12Z</time>
      </trkpt>
      <trkpt lat="47.1825290" lon="6.8394590">
        <ele>933.4</ele>
        <time>2022-07-21T12:20:13Z</time>
      </trkpt>
      <trkpt lat="47.1824950" lon="6.8394450">
        <ele>933.1</ele>
        <time>2022-07-21T12:20:14Z</time>
      </trkpt>
      <trkpt lat="47.1824560" lon="6.8394230">
        <ele>932.9</ele>
        <time>2022-07-21T12:20:15Z</time>
      </trkpt>
      <trkpt lat="47.1824130" lon="6.8393830">
        <ele>932.5</ele>
        <time>2022-07-21T12:20:17Z</time>
      </trkpt>
      <trkpt lat="47.1823690" lon="6.8393370">
        <ele>932.1</ele>
        <time>2022-07-21T12:20:18Z</time>
      </trkpt>
      <trkpt lat="47.1823370" lon="6.8393080">
        <ele>931.8</ele>
        <time>2022-07-21T12:20:20Z</time>
      </trkpt>
      <trkpt lat="47.1823170" lon="6.8392770">
        <ele>931.6</ele>
        <time>2022-07-21T12:20:21Z</time>
      </trkpt>
      <trkpt lat="47.1822830" lon="6.8392490">
        <ele>931.3</ele>
        <time>2022-07-21T12:20:22Z</time>
      </trkpt>
      <trkpt lat="47.1822700" lon="6.8392410">
        <ele>931.2</ele>
        <time>2022-07-21T12:20:23Z</time>
      </trkpt>
      <trkpt lat="47.1822490" lon="6.8392250">
        <ele>931.0</ele>
        <time>2022-07-21T12:20:24Z</time>
      </trkpt>
      <trkpt lat="47.1822300" lon="6.8392030">
        <ele>930.8</ele>
        <time>2022-07-21T12:20:26Z</time>
      </trkpt>
      <trkpt lat="47.1821950" lon="6.8391570">
        <ele>930.4</ele>
        <time>2022-07-21T12:20:27Z</time>
      </trkpt>
      <trkpt lat="47.1821700" lon="6.8391180">
        <ele>930.1</ele>
        <time>2022-07-21T12:20:28Z</time>
      </trkpt>
      <trkpt lat="47.1821300" lon="6.8390440">
        <ele>929.6</ele>
        <time>2022-07-21T12:20:30Z</time>
      </trkpt>
      <trkpt lat="47.1821090" lon="6.8390010">
        <ele>929.3</ele>
        <time>2022-07-21T12:20:31Z</time>
      </trkpt>
      <trkpt lat="47.1820820" lon="6.8389510">
        <ele>929.0</ele>
        <time>2022-07-21T12:20:32Z</time>
      </trkpt>
      <trkpt lat="47.1820510" lon="6.8389090">
        <ele>928.7</ele>
        <time>2022-07-21T12:20:33Z</time>
      </trkpt>
      <trkpt lat="47.1819580" lon="6.8388320">
        <ele>927.9</ele>
        <time>2022-07-21T12:20:34Z</time>
      </trkpt>
      <trkpt lat="47.1819180" lon="6.8387890">
        <ele>927.6</ele>
        <time>2022-07-21T12:20:35Z</time>
      </trkpt>
      <trkpt lat="47.1818690" lon="6.8387680">
        <ele>927.2</ele>
        <time>2022-07-21T12:20:36Z</time>
      </trkpt>
      <trkpt lat="47.1818180" lon="6.8387230">
        <ele>926.8</ele>
        <time>2022-07-21T12:20:37Z</time>
      </trkpt>
      <trkpt lat="47.1817640" lon="6.8386720">
        <ele>926.4</ele>
        <time>2022-07-21T12:20:38Z</time>
      </trkpt>
      <trkpt lat="47.1817110" lon="6.8386300">
        <ele>926.0</ele>
        <time>2022-07-21T12:20:39Z</time>
      </trkpt>
      <trkpt lat="47.1816600" lon="6.8385800">
        <ele>925.7</ele>
        <time>2022-07-21T12:20:40Z</time>
      </trkpt>
      <trkpt lat="47.1816030" lon="6.8385350">
        <ele>925.3</ele>
        <time>2022-07-21T12:20:41Z</time>
      </trkpt>
      <trkpt lat="47.1815500" lon="6.8384990">
        <ele>925.0</ele>
        <time>2022-07-21T12:20:42Z</time>
      </trkpt>
      <trkpt lat="47.1815200" lon="6.8384810">
        <ele>924.8</ele>
        <time>2022-07-21T12:20:43Z</time>
      </trkpt>
      <trkpt lat="47.1814640" lon="6.8384210">
        <ele>924.4</ele>
        <time>2022-07-21T12:20:44Z</time>
      </trkpt>
      <trkpt lat="47.1814160" lon="6.8383800">
        <ele>924.1</ele>
        <time>2022-07-21T12:20:45Z</time>
      </trkpt>
      <trkpt lat="47.1813700" lon="6.8383350">
        <ele>923.7</ele>
        <time>2022-07-21T12:20:46Z</time>
      </trkpt>
      <trkpt lat="47.1813270" lon="6.8382950">
        <ele>923.4</ele>
        <time>2022-07-21T12:20:47Z</time>
      </trkpt>
      <trkpt lat="47.1812850" lon="6.8382590">
        <ele>923.1</ele>
        <time>2022-07-21T12:20:48Z</time>
      </trkpt>
      <trkpt lat="47.1812490" lon="6.8382120">
        <ele>922.8</ele>
        <time>2022-07-21T12:20:49Z</time>
      </trkpt>
      <trkpt lat="47.1812090" lon="6.8381520">
        <ele>922.4</ele>
        <time>2022-07-21T12:20:50Z</time>
      </trkpt>
      <trkpt lat="47.1811710" lon="6.8381060">
        <ele>922.1</ele>
        <time>2022-07-21T12:20:51Z</time>
      </trkpt>
      <trkpt lat="47.1811530" lon="6.8380540">
        <ele>921.8</ele>
        <time>2022-07-21T12:20:52Z</time>
      </trkpt>
      <trkpt lat="47.1811320" lon="6.8380050">
        <ele>921.5</ele>
        <time>2022-07-21T12:20:53Z</time>
      </trkpt>
      <trkpt lat="47.1810980" lon="6.8379290">
        <ele>921.1</ele>
        <time>2022-07-21T12:20:54Z</time>
      </trkpt>
      <trkpt lat="47.1810640" lon="6.8378530">
        <ele>920.7</ele>
        <time>2022-07-21T12:20:55Z</time>
      </trkpt>
      <trkpt lat="47.1810320" lon="6.8377590">
        <ele>920.2</ele>
        <time>2022-07-21T12:20:56Z</time>
      </trkpt>
      <trkpt lat="47.1810150" lon="6.8376840">
        <ele>919.9</ele>
        <time>2022-07-21T12:20:57Z</time>
      </trkpt>
      <trkpt lat="47.1810030" lon="6.8376100">
        <ele>919.5</ele>
        <time>2022-07-21T12:20:58Z</time>
      </trkpt>
      <trkpt lat="47.1809770" lon="6.8375390">
        <ele>919.2</ele>
        <time>2022-07-21T12:20:59Z</time>
      </trkpt>
      <trkpt lat="47.1809420" lon="6.8374570">
        <ele>918.7</ele>
        <time>2022-07-21T12:21:00Z</time>
      </trkpt>
      <trkpt lat="47.1809100" lon="6.8373710">
        <ele>918.3</ele>
        <time>2022-07-21T12:21:01Z</time>
      </trkpt>
      <trkpt lat="47.1808860" lon="6.8373000">
        <ele>917.9</ele>
        <time>2022-07-21T12:21:02Z</time>
      </trkpt>
      <trkpt lat="47.1808670" lon="6.8372320">
        <ele>917.6</ele>
        <time>2022-07-21T12:21:03Z</time>
      </trkpt>
      <trkpt lat="47.1808410" lon="6.8371720">
        <ele>917.3</ele>
        <time>2022-07-21T12:21:04Z</time>
      </trkpt>
      <trkpt lat="47.1808120" lon="6.8370890">
        <ele>916.9</ele>
        <time>2022-07-21T12:21:05Z</time>
      </trkpt>
      <trkpt lat="47.1807830" lon="6.8370080">
        <ele>916.4</ele>
        <time>2022-07-21T12:21:06Z</time>
      </trkpt>
      <trkpt lat="47.1807550" lon="6.8369390">
        <ele>916.1</ele>
        <time>2022-07-21T12:21:07Z</time>
      </trkpt>
      <trkpt lat="47.1807240" lon="6.8368540">
        <ele>915.7</ele>
        <time>2022-07-21T12:21:08Z</time>
      </trkpt>
      <trkpt lat="47.1806890" lon="6.8367690">
        <ele>915.3</ele>
        <time>2022-07-21T12:21:09Z</time>
      </trkpt>
      <trkpt lat="47.1806570" lon="6.8367060">
        <ele>915.0</ele>
        <time>2022-07-21T12:21:10Z</time>
      </trkpt>
      <trkpt lat="47.1806200" lon="6.8366480">
        <ele>914.6</ele>
        <time>2022-07-21T12:21:11Z</time>
      </trkpt>
      <trkpt lat="47.1805970" lon="6.8365910">
        <ele>914.3</ele>
        <time>2022-07-21T12:21:12Z</time>
      </trkpt>
      <trkpt lat="47.1805550" lon="6.8365460">
        <ele>913.9</ele>
        <time>2022-07-21T12:21:13Z</time>
      </trkpt>
      <trkpt lat="47.1805220" lon="6.8364880">
        <ele>913.6</ele>
        <time>2022-07-21T12:21:14Z</time>
      </trkpt>
      <trkpt lat="47.1804870" lon="6.8364300">
        <ele>913.2</ele>
        <time>2022-07-21T12:21:15Z</time>
      </trkpt>
      <trkpt lat="47.1804460" lon="6.8363670">
        <ele>912.7</ele>
        <time>2022-07-21T12:21:16Z</time>
      </trkpt>
      <trkpt lat="47.1804030" lon="6.8363050">
        <ele>912.3</ele>
        <time>2022-07-21T12:21:17Z</time>
      </trkpt>
      <trkpt lat="47.1803650" lon="6.8362370">
        <ele>911.8</ele>
        <time>2022-07-21T12:21:18Z</time>
      </trkpt>
      <trkpt lat="47.1803270" lon="6.8361590">
        <ele>911.4</ele>
        <time>2022-07-21T12:21:19Z</time>
      </trkpt>
      <trkpt lat="47.1802920" lon="6.8360570">
        <ele>910.8</ele>
        <time>2022-07-21T12:21:20Z</time>
      </trkpt>
      <trkpt lat="47.1802570" lon="6.8359600">
        <ele>910.3</ele>
        <time>2022-07-21T12:21:21Z</time>
      </trkpt>
      <trkpt lat="47.1802130" lon="6.8358760">
        <ele>909.8</ele>
        <time>2022-07-21T12:21:22Z</time>
      </trkpt>
      <trkpt lat="47.1801740" lon="6.8358120">
        <ele>909.4</ele>
        <time>2022-07-21T12:21:23Z</time>
      </trkpt>
      <trkpt lat="47.1801340" lon="6.8357780">
        <ele>909.1</ele>
        <time>2022-07-21T12:21:24Z</time>
      </trkpt>
      <trkpt lat="47.1801000" lon="6.8357910">
        <ele>908.9</ele>
        <time>2022-07-21T12:21:25Z</time>
      </trkpt>
      <trkpt lat="47.1800720" lon="6.8357860">
        <ele>908.7</ele>
        <time>2022-07-21T12:21:26Z</time>
      </trkpt>
      <trkpt lat="47.1800470" lon="6.8357680">
        <ele>908.5</ele>
        <time>2022-07-21T12:21:27Z</time>
      </trkpt>
      <trkpt lat="47.1800300" lon="6.8357360">
        <ele>908.4</ele>
        <time>2022-07-21T12:21:28Z</time>
      </trkpt>
      <trkpt lat="47.1800240" lon="6.8357240">
        <ele>908.3</ele>
        <time>2022-07-21T12:21:29Z</time>
      </trkpt>
      <trkpt lat="47.1799970" lon="6.8356970">
        <ele>908.1</ele>
        <time>2022-07-21T12:21:30Z</time>
      </trkpt>
      <trkpt lat="47.1799850" lon="6.8356930">
        <ele>908.0</ele>
        <time>2022-07-21T12:21:31Z</time>
      </trkpt>
      <trkpt lat="47.1799450" lon="6.8356820">
        <ele>907.8</ele>
        <time>2022-07-21T12:21:32Z</time>
      </trkpt>
      <trkpt lat="47.1799030" lon="6.8356580">
        <ele>907.5</ele>
        <time>2022-07-21T12:21:33Z</time>
      </trkpt>
      <trkpt lat="47.1798670" lon="6.8356230">
        <ele>907.3</ele>
        <time>2022-07-21T12:21:35Z</time>
      </trkpt>
      <trkpt lat="47.1798450" lon="6.8355770">
        <ele>907.1</ele>
        <time>2022-07-21T12:21:36Z</time>
      </trkpt>
      <trkpt lat="47.1798200" lon="6.8355350">
        <ele>906.9</ele>
        <time>2022-07-21T12:21:37Z</time>
      </trkpt>
      <trkpt lat="47.1797910" lon="6.8354890">
        <ele>906.6</ele>
        <time>2022-07-21T12:21:38Z</time>
      </trkpt>
      <trkpt lat="47.1796930" lon="6.8353330">
        <ele>905.8</ele>
        <time>2022-07-21T12:21:39Z</time>
      </trkpt>
      <trkpt lat="47.1796450" lon="6.8352630">
        <ele>905.4</ele>
        <time>2022-07-21T12:21:40Z</time>
      </trkpt>
      <trkpt lat="47.1795930" lon="6.8352080">
        <ele>905.0</ele>
        <time>2022-07-21T12:21:41Z</time>
      </trkpt>
      <trkpt lat="47.1795490" lon="6.8351430">
        <ele>904.6</ele>
        <time>2022-07-21T12:21:42Z</time>
      </trkpt>
      <trkpt lat="47.1795160" lon="6.8350870">
        <ele>904.3</ele>
        <time>2022-07-21T12:21:43Z</time>
      </trkpt>
      <trkpt lat="47.1794750" lon="6.8350030">
        <ele>903.9</ele>
        <time>2022-07-21T12:21:44Z</time>
      </trkpt>
      <trkpt lat="47.1794330" lon="6.8348870">
        <ele>903.3</ele>
        <time>2022-07-21T12:21:45Z</time>
      </trkpt>
      <trkpt lat="47.1793900" lon="6.8347810">
        <ele>902.7</ele>
        <time>2022-07-21T12:21:46Z</time>
      </trkpt>
      <trkpt lat="47.1793400" lon="6.8346900">
        <ele>902.2</ele>
        <time>2022-07-21T12:21:47Z</time>
      </trkpt>
      <trkpt lat="47.1792920" lon="6.8345980">
        <ele>901.7</ele>
        <time>2022-07-21T12:21:48Z</time>
      </trkpt>
      <trkpt lat="47.1792510" lon="6.8344980">
        <ele>901.1</ele>
        <time>2022-07-21T12:21:49Z</time>
      </trkpt>
      <trkpt lat="47.1792030" lon="6.8343970">
        <ele>900.6</ele>
        <time>2022-07-21T12:21:50Z</time>
      </trkpt>
      <trkpt lat="47.1791600" lon="6.8343090">
        <ele>900.1</ele>
        <time>2022-07-21T12:21:51Z</time>
      </trkpt>
      <trkpt lat="47.1791210" lon="6.8342310">
        <ele>899.6</ele>
        <time>2022-07-21T12:21:52Z</time>
      </trkpt>
      <trkpt lat="47.1790800" lon="6.8341540">
        <ele>899.2</ele>
        <time>2022-07-21T12:21:53Z</time>
      </trkpt>
      <trkpt lat="47.1790420" lon="6.8340940">
        <ele>898.8</ele>
        <time>2022-07-21T12:21:54Z</time>
      </trkpt>
      <trkpt lat="47.1789950" lon="6.8340630">
        <ele>898.5</ele>
        <time>2022-07-21T12:21:55Z</time>
      </trkpt>
      <trkpt lat="47.1789480" lon="6.8340330">
        <ele>898.2</ele>
        <time>2022-07-21T12:21:56Z</time>
      </trkpt>
      <trkpt lat="47.1789010" lon="6.8339970">
        <ele>897.8</ele>
        <time>2022-07-21T12:21:57Z</time>
      </trkpt>
      <trkpt lat="47.1788550" lon="6.8339750">
        <ele>897.6</ele>
        <time>2022-07-21T12:21:58Z</time>
      </trkpt>
      <trkpt lat="47.1788000" lon="6.8339360">
        <ele>897.2</ele>
        <time>2022-07-21T12:21:59Z</time>
      </trkpt>
      <trkpt lat="47.1787480" lon="6.8338760">
        <ele>896.8</ele>
        <time>2022-07-21T12:22:00Z</time>
      </trkpt>
      <trkpt lat="47.1786790" lon="6.8338390">
        <ele>896.3</ele>
        <time>2022-07-21T12:22:01Z</time>
      </trkpt>
      <trkpt lat="47.1786100" lon="6.8338000">
        <ele>895.9</ele>
        <time>2022-07-21T12:22:02Z</time>
      </trkpt>
      <trkpt lat="47.1785430" lon="6.8337500">
        <ele>895.4</ele>
        <time>2022-07-21T12:22:03Z</time>
      </trkpt>
      <trkpt lat="47.1784790" lon="6.8336990">
        <ele>895.0</ele>
        <time>2022-07-21T12:22:04Z</time>
      </trkpt>
      <trkpt lat="47.1784110" lon="6.8336270">
        <ele>894.4</ele>
        <time>2022-07-21T12:22:05Z</time>
      </trkpt>
      <trkpt lat="47.1783500" lon="6.8335730">
        <ele>893.9</ele>
        <time>2022-07-21T12:22:06Z</time>
      </trkpt>
      <trkpt lat="47.1782880" lon="6.8335220">
        <ele>893.5</ele>
        <time>2022-07-21T12:22:07Z</time>
      </trkpt>
      <trkpt lat="47.1782130" lon="6.8334810">
        <ele>892.9</ele>
        <time>2022-07-21T12:22:08Z</time>
      </trkpt>
      <trkpt lat="47.1781420" lon="6.8334390">
        <ele>892.5</ele>
        <time>2022-07-21T12:22:09Z</time>
      </trkpt>
      <trkpt lat="47.1780740" lon="6.8333840">
        <ele>892.0</ele>
        <time>2022-07-21T12:22:10Z</time>
      </trkpt>
      <trkpt lat="47.1779980" lon="6.8333230">
        <ele>891.4</ele>
        <time>2022-07-21T12:22:11Z</time>
      </trkpt>
      <trkpt lat="47.1779260" lon="6.8332700">
        <ele>890.9</ele>
        <time>2022-07-21T12:22:12Z</time>
      </trkpt>
      <trkpt lat="47.1778630" lon="6.8332110">
        <ele>890.3</ele>
        <time>2022-07-21T12:22:13Z</time>
      </trkpt>
      <trkpt lat="47.1778110" lon="6.8331390">
        <ele>889.8</ele>
        <time>2022-07-21T12:22:14Z</time>
      </trkpt>
      <trkpt lat="47.1777720" lon="6.8330710">
        <ele>889.4</ele>
        <time>2022-07-21T12:22:15Z</time>
      </trkpt>
      <trkpt lat="47.1777350" lon="6.8330080">
        <ele>888.9</ele>
        <time>2022-07-21T12:22:16Z</time>
      </trkpt>
      <trkpt lat="47.1776910" lon="6.8329330">
        <ele>888.5</ele>
        <time>2022-07-21T12:22:17Z</time>
      </trkpt>
      <trkpt lat="47.1776470" lon="6.8328670">
        <ele>888.0</ele>
        <time>2022-07-21T12:22:18Z</time>
      </trkpt>
      <trkpt lat="47.1776060" lon="6.8328140">
        <ele>887.6</ele>
        <time>2022-07-21T12:22:19Z</time>
      </trkpt>
      <trkpt lat="47.1775580" lon="6.8327730">
        <ele>887.3</ele>
        <time>2022-07-21T12:22:20Z</time>
      </trkpt>
      <trkpt lat="47.1775120" lon="6.8327290">
        <ele>886.9</ele>
        <time>2022-07-21T12:22:21Z</time>
      </trkpt>
      <trkpt lat="47.1774620" lon="6.8326780">
        <ele>886.4</ele>
        <time>2022-07-21T12:22:22Z</time>
      </trkpt>
      <trkpt lat="47.1774010" lon="6.8326130">
        <ele>885.9</ele>
        <time>2022-07-21T12:22:23Z</time>
      </trkpt>
      <trkpt lat="47.1773430" lon="6.8325470">
        <ele>885.4</ele>
        <time>2022-07-21T12:22:24Z</time>
      </trkpt>
      <trkpt lat="47.1772990" lon="6.8324850">
        <ele>884.9</ele>
        <time>2022-07-21T12:22:25Z</time>
      </trkpt>
      <trkpt lat="47.1772550" lon="6.8324370">
        <ele>884.6</ele>
        <time>2022-07-21T12:22:26Z</time>
      </trkpt>
      <trkpt lat="47.1772080" lon="6.8323950">
        <ele>884.2</ele>
        <time>2022-07-21T12:22:27Z</time>
      </trkpt>
      <trkpt lat="47.1771620" lon="6.8323500">
        <ele>883.8</ele>
        <time>2022-07-21T12:22:28Z</time>
      </trkpt>
      <trkpt lat="47.1771160" lon="6.8322980">
        <ele>883.4</ele>
        <time>2022-07-21T12:22:29Z</time>
      </trkpt>
      <trkpt lat="47.1771030" lon="6.8322590">
        <ele>883.2</ele>
        <time>2022-07-21T12:22:30Z</time>
      </trkpt>
      <trkpt lat="47.1770680" lon="6.8322210">
        <ele>882.9</ele>
        <time>2022-07-21T12:22:31Z</time>
      </trkpt>
      <trkpt lat="47.1770190" lon="6.8321820">
        <ele>882.6</ele>
        <time>2022-07-21T12:22:32Z</time>
      </trkpt>
      <trkpt lat="47.1769740" lon="6.8321520">
        <ele>882.3</ele>
        <time>2022-07-21T12:22:33Z</time>
      </trkpt>
      <trkpt lat="47.1769100" lon="6.8321070">
        <ele>881.8</ele>
        <time>2022-07-21T12:22:34Z</time>
      </trkpt>
      <trkpt lat="47.1768440" lon="6.8320530">
        <ele>881.4</ele>
        <time>2022-07-21T12:22:35Z</time>
      </trkpt>
      <trkpt lat="47.1767830" lon="6.8320040">
        <ele>880.9</ele>
        <time>2022-07-21T12:22:36Z</time>
      </trkpt>
      <trkpt lat="47.1767180" lon="6.8319380">
        <ele>880.3</ele>
        <time>2022-07-21T12:22:37Z</time>
      </trkpt>
      <trkpt lat="47.1766630" lon="6.8318690">
        <ele>879.8</ele>
        <time>2022-07-21T12:22:38Z</time>
      </trkpt>
      <trkpt lat="47.1766100" lon="6.8318170">
        <ele>879.4</ele>
        <time>2022-07-21T12:22:39Z</time>
      </trkpt>
      <trkpt lat="47.1765610" lon="6.8317770">
        <ele>879.0</ele>
        <time>2022-07-21T12:22:40Z</time>
      </trkpt>
      <trkpt lat="47.1765110" lon="6.8317370">
        <ele>878.6</ele>
        <time>2022-07-21T12:22:41Z</time>
      </trkpt>
      <trkpt lat="47.1764640" lon="6.8316920">
        <ele>878.2</ele>
        <time>2022-07-21T12:22:42Z</time>
      </trkpt>
      <trkpt lat="47.1764130" lon="6.8316420">
        <ele>877.8</ele>
        <time>2022-07-21T12:22:43Z</time>
      </trkpt>
      <trkpt lat="47.1763270" lon="6.8315850">
        <ele>877.2</ele>
        <time>2022-07-21T12:22:44Z</time>
      </trkpt>
      <trkpt lat="47.1762400" lon="6.8315450">
        <ele>876.6</ele>
        <time>2022-07-21T12:22:45Z</time>
      </trkpt>
      <trkpt lat="47.1761760" lon="6.8315090">
        <ele>876.2</ele>
        <time>2022-07-21T12:22:46Z</time>
      </trkpt>
      <trkpt lat="47.1761080" lon="6.8314670">
        <ele>875.8</ele>
        <time>2022-07-21T12:22:47Z</time>
      </trkpt>
      <trkpt lat="47.1760240" lon="6.8314200">
        <ele>875.2</ele>
        <time>2022-07-21T12:22:48Z</time>
      </trkpt>
      <trkpt lat="47.1759510" lon="6.8313750">
        <ele>874.8</ele>
        <time>2022-07-21T12:22:49Z</time>
      </trkpt>
      <trkpt lat="47.1758720" lon="6.8313340">
        <ele>874.2</ele>
        <time>2022-07-21T12:22:50Z</time>
      </trkpt>
      <trkpt lat="47.1757770" lon="6.8313010">
        <ele>873.6</ele>
        <time>2022-07-21T12:22:51Z</time>
      </trkpt>
      <trkpt lat="47.1756910" lon="6.8312700">
        <ele>873.0</ele>
        <time>2022-07-21T12:22:52Z</time>
      </trkpt>
      <trkpt lat="47.1756150" lon="6.8312410">
        <ele>872.5</ele>
        <time>2022-07-21T12:22:53Z</time>
      </trkpt>
      <trkpt lat="47.1755500" lon="6.8312100">
        <ele>872.1</ele>
        <time>2022-07-21T12:22:54Z</time>
      </trkpt>
      <trkpt lat="47.1754880" lon="6.8311770">
        <ele>871.7</ele>
        <time>2022-07-21T12:22:55Z</time>
      </trkpt>
      <trkpt lat="47.1754190" lon="6.8311470">
        <ele>871.2</ele>
        <time>2022-07-21T12:22:56Z</time>
      </trkpt>
      <trkpt lat="47.1753480" lon="6.8311270">
        <ele>870.8</ele>
        <time>2022-07-21T12:22:57Z</time>
      </trkpt>
      <trkpt lat="47.1752880" lon="6.8310840">
        <ele>870.4</ele>
        <time>2022-07-21T12:22:58Z</time>
      </trkpt>
      <trkpt lat="47.1752220" lon="6.8310320">
        <ele>870.0</ele>
        <time>2022-07-21T12:22:59Z</time>
      </trkpt>
      <trkpt lat="47.1751500" lon="6.8309880">
        <ele>869.6</ele>
        <time>2022-07-21T12:23:00Z</time>
      </trkpt>
      <trkpt lat="47.1750900" lon="6.8309540">
        <ele>869.3</ele>
        <time>2022-07-21T12:23:01Z</time>
      </trkpt>
      <trkpt lat="47.1750190" lon="6.8309080">
        <ele>869.1</ele>
        <time>2022-07-21T12:23:02Z</time>
      </trkpt>
      <trkpt lat="47.1749510" lon="6.8308650">
        <ele>868.9</ele>
        <time>2022-07-21T12:23:03Z</time>
      </trkpt>
      <trkpt lat="47.1748900" lon="6.8308380">
        <ele>868.7</ele>
        <time>2022-07-21T12:23:04Z</time>
      </trkpt>
      <trkpt lat="47.1748370" lon="6.8308270">
        <ele>868.5</ele>
        <time>2022-07-21T12:23:05Z</time>
      </trkpt>
      <trkpt lat="47.1747930" lon="6.8308160">
        <ele>868.4</ele>
        <time>2022-07-21T12:23:06Z</time>
      </trkpt>
      <trkpt lat="47.1747510" lon="6.8308010">
        <ele>868.2</ele>
        <time>2022-07-21T12:23:07Z</time>
      </trkpt>
      <trkpt lat="47.1747300" lon="6.8307960">
        <ele>868.1</ele>
        <time>2022-07-21T12:23:08Z</time>
      </trkpt>
      <trkpt lat="47.1746910" lon="6.8307980">
        <ele>867.8</ele>
        <time>2022-07-21T12:23:09Z</time>
      </trkpt>
      <trkpt lat="47.1746720" lon="6.8307920">
        <ele>867.7</ele>
        <time>2022-07-21T12:23:10Z</time>
      </trkpt>
      <trkpt lat="47.1746600" lon="6.8307820">
        <ele>867.7</ele>
        <time>2022-07-21T12:23:11Z</time>
      </trkpt>
      <trkpt lat="47.1746520" lon="6.8307650">
        <ele>867.6</ele>
        <time>2022-07-21T12:23:12Z</time>
      </trkpt>
      <trkpt lat="47.1746360" lon="6.8307580">
        <ele>867.5</ele>
        <time>2022-07-21T12:23:13Z</time>
      </trkpt>
      <trkpt lat="47.1746120" lon="6.8307480">
        <ele>867.3</ele>
        <time>2022-07-21T12:23:14Z</time>
      </trkpt>
      <trkpt lat="47.1746000" lon="6.8307450">
        <ele>867.2</ele>
        <time>2022-07-21T12:23:15Z</time>
      </trkpt>
      <trkpt lat="47.1745700" lon="6.8307390">
        <ele>867.1</ele>
        <time>2022-07-21T12:23:17Z</time>
      </trkpt>
      <trkpt lat="47.1745390" lon="6.8307320">
        <ele>866.9</ele>
        <time>2022-07-21T12:23:18Z</time>
      </trkpt>
      <trkpt lat="47.1744910" lon="6.8307440">
        <ele>866.6</ele>
        <time>2022-07-21T12:23:19Z</time>
      </trkpt>
      <trkpt lat="47.1744580" lon="6.8307430">
        <ele>866.4</ele>
        <time>2022-07-21T12:23:20Z</time>
      </trkpt>
      <trkpt lat="47.1744210" lon="6.8307380">
        <ele>866.1</ele>
        <time>2022-07-21T12:23:21Z</time>
      </trkpt>
      <trkpt lat="47.1743630" lon="6.8306810">
        <ele>865.7</ele>
        <time>2022-07-21T12:23:23Z</time>
      </trkpt>
      <trkpt lat="47.1743190" lon="6.8306630">
        <ele>865.4</ele>
        <time>2022-07-21T12:23:24Z</time>
      </trkpt>
      <trkpt lat="47.1742810" lon="6.8306490">
        <ele>865.1</ele>
        <time>2022-07-21T12:23:25Z</time>
      </trkpt>
      <trkpt lat="47.1742520" lon="6.8306300">
        <ele>864.8</ele>
        <time>2022-07-21T12:23:26Z</time>
      </trkpt>
      <trkpt lat="47.1742210" lon="6.8305930">
        <ele>864.4</ele>
        <time>2022-07-21T12:23:27Z</time>
      </trkpt>
      <trkpt lat="47.1741880" lon="6.8305640">
        <ele>864.1</ele>
        <time>2022-07-21T12:23:28Z</time>
      </trkpt>
      <trkpt lat="47.1741810" lon="6.8305520">
        <ele>863.9</ele>
        <time>2022-07-21T12:23:29Z</time>
      </trkpt>
      <trkpt lat="47.1741610" lon="6.8305240">
        <ele>863.6</ele>
        <time>2022-07-21T12:23:31Z</time>
      </trkpt>
      <trkpt lat="47.1741320" lon="6.8305230">
        <ele>863.3</ele>
        <time>2022-07-21T12:23:32Z</time>
      </trkpt>
      <trkpt lat="47.1741050" lon="6.8305220">
        <ele>863.0</ele>
        <time>2022-07-21T12:23:33Z</time>
      </trkpt>
      <trkpt lat="47.1740780" lon="6.8304990">
        <ele>862.7</ele>
        <time>2022-07-21T12:23:34Z</time>
      </trkpt>
      <trkpt lat="47.1740430" lon="6.8304860">
        <ele>862.3</ele>
        <time>2022-07-21T12:23:35Z</time>
      </trkpt>
      <trkpt lat="47.1740150" lon="6.8304790">
        <ele>862.0</ele>
        <time>2022-07-21T12:23:36Z</time>
      </trkpt>
      <trkpt lat="47.1739870" lon="6.8304730">
        <ele>861.7</ele>
        <time>2022-07-21T12:23:37Z</time>
      </trkpt>
      <trkpt lat="47.1739580" lon="6.8304670">
        <ele>861.5</ele>
        <time>2022-07-21T12:23:38Z</time>
      </trkpt>
      <trkpt lat="47.1739170" lon="6.8304450">
        <ele>861.1</ele>
        <time>2022-07-21T12:23:39Z</time>
      </trkpt>
      <trkpt lat="47.1738590" lon="6.8304100">
        <ele>860.7</ele>
        <time>2022-07-21T12:23:40Z</time>
      </trkpt>
      <trkpt lat="47.1738110" lon="6.8303690">
        <ele>860.5</ele>
        <time>2022-07-21T12:23:41Z</time>
      </trkpt>
      <trkpt lat="47.1737750" lon="6.8303280">
        <ele>860.3</ele>
        <time>2022-07-21T12:23:42Z</time>
      </trkpt>
      <trkpt lat="47.1737440" lon="6.8302960">
        <ele>860.5</ele>
        <time>2022-07-21T12:23:43Z</time>
      </trkpt>
      <trkpt lat="47.1737160" lon="6.8302790">
        <ele>860.7</ele>
        <time>2022-07-21T12:23:44Z</time>
      </trkpt>
      <trkpt lat="47.1736870" lon="6.8302630">
        <ele>860.9</ele>
        <time>2022-07-21T12:23:45Z</time>
      </trkpt>
      <trkpt lat="47.1736790" lon="6.8302620">
        <ele>860.9</ele>
        <time>2022-07-21T12:23:46Z</time>
      </trkpt>
      <trkpt lat="47.1736660" lon="6.8302710">
        <ele>861.0</ele>
        <time>2022-07-21T12:23:47Z</time>
      </trkpt>
      <trkpt lat="47.1736470" lon="6.8302570">
        <ele>861.1</ele>
        <time>2022-07-21T12:23:48Z</time>
      </trkpt>
      <trkpt lat="47.1736270" lon="6.8302250">
        <ele>861.3</ele>
        <time>2022-07-21T12:23:49Z</time>
      </trkpt>
      <trkpt lat="47.1736210" lon="6.8302160">
        <ele>861.3</ele>
        <time>2022-07-21T12:23:50Z</time>
      </trkpt>
      <trkpt lat="47.1736040" lon="6.8301750">
        <ele>861.5</ele>
        <time>2022-07-21T12:23:51Z</time>
      </trkpt>
      <trkpt lat="47.1735980" lon="6.8301640">
        <ele>861.6</ele>
        <time>2022-07-21T12:23:52Z</time>
      </trkpt>
      <trkpt lat="47.1735730" lon="6.8301310">
        <ele>861.8</ele>
        <time>2022-07-21T12:23:53Z</time>
      </trkpt>
      <trkpt lat="47.1735670" lon="6.8301220">
        <ele>861.8</ele>
        <time>2022-07-21T12:23:54Z</time>
      </trkpt>
      <trkpt lat="47.1735440" lon="6.8300920">
        <ele>862.0</ele>
        <time>2022-07-21T12:23:55Z</time>
      </trkpt>
      <trkpt lat="47.1735380" lon="6.8300830">
        <ele>862.1</ele>
        <time>2022-07-21T12:23:56Z</time>
      </trkpt>
      <trkpt lat="47.1735160" lon="6.8300440">
        <ele>862.3</ele>
        <time>2022-07-21T12:23:57Z</time>
      </trkpt>
      <trkpt lat="47.1735070" lon="6.8300290">
        <ele>862.4</ele>
        <time>2022-07-21T12:23:58Z</time>
      </trkpt>
      <trkpt lat="47.1734820" lon="6.8300050">
        <ele>862.6</ele>
        <time>2022-07-21T12:23:59Z</time>
      </trkpt>
      <trkpt lat="47.1734740" lon="6.8299970">
        <ele>862.6</ele>
        <time>2022-07-21T12:24:00Z</time>
      </trkpt>
      <trkpt lat="47.1734480" lon="6.8299760">
        <ele>862.8</ele>
        <time>2022-07-21T12:24:01Z</time>
      </trkpt>
      <trkpt lat="47.1734400" lon="6.8299690">
        <ele>862.9</ele>
        <time>2022-07-21T12:24:02Z</time>
      </trkpt>
      <trkpt lat="47.1734160" lon="6.8299460">
        <ele>863.0</ele>
        <time>2022-07-21T12:24:03Z</time>
      </trkpt>
      <trkpt lat="47.1734090" lon="6.8299380">
        <ele>863.1</ele>
        <time>2022-07-21T12:24:04Z</time>
      </trkpt>
      <trkpt lat="47.1733830" lon="6.8299080">
        <ele>863.3</ele>
        <time>2022-07-21T12:24:05Z</time>
      </trkpt>
      <trkpt lat="47.1733740" lon="6.8298970">
        <ele>863.4</ele>
        <time>2022-07-21T12:24:06Z</time>
      </trkpt>
      <trkpt lat="47.1733470" lon="6.8298580">
        <ele>863.6</ele>
        <time>2022-07-21T12:24:07Z</time>
      </trkpt>
      <trkpt lat="47.1733400" lon="6.8298470">
        <ele>863.7</ele>
        <time>2022-07-21T12:24:08Z</time>
      </trkpt>
      <trkpt lat="47.1733210" lon="6.8298150">
        <ele>863.8</ele>
        <time>2022-07-21T12:24:09Z</time>
      </trkpt>
      <trkpt lat="47.1733130" lon="6.8298030">
        <ele>863.9</ele>
        <time>2022-07-21T12:24:10Z</time>
      </trkpt>
      <trkpt lat="47.1732870" lon="6.8297660">
        <ele>864.1</ele>
        <time>2022-07-21T12:24:11Z</time>
      </trkpt>
      <trkpt lat="47.1732800" lon="6.8297580">
        <ele>864.2</ele>
        <time>2022-07-21T12:24:12Z</time>
      </trkpt>
      <trkpt lat="47.1732550" lon="6.8297330">
        <ele>864.4</ele>
        <time>2022-07-21T12:24:13Z</time>
      </trkpt>
      <trkpt lat="47.1732460" lon="6.8297270">
        <ele>864.5</ele>
        <time>2022-07-21T12:24:14Z</time>
      </trkpt>
      <trkpt lat="47.1732290" lon="6.8297220">
        <ele>864.6</ele>
        <time>2022-07-21T12:24:15Z</time>
      </trkpt>
      <trkpt lat="47.1732130" lon="6.8297160">
        <ele>864.7</ele>
        <time>2022-07-21T12:24:16Z</time>
      </trkpt>
      <trkpt lat="47.1731830" lon="6.8296980">
        <ele>864.9</ele>
        <time>2022-07-21T12:24:17Z</time>
      </trkpt>
      <trkpt lat="47.1731730" lon="6.8296940">
        <ele>865.0</ele>
        <time>2022-07-21T12:24:18Z</time>
      </trkpt>
      <trkpt lat="47.1731460" lon="6.8296840">
        <ele>865.1</ele>
        <time>2022-07-21T12:24:19Z</time>
      </trkpt>
      <trkpt lat="47.1731370" lon="6.8296790">
        <ele>865.2</ele>
        <time>2022-07-21T12:24:20Z</time>
      </trkpt>
      <trkpt lat="47.1731150" lon="6.8296430">
        <ele>865.4</ele>
        <time>2022-07-21T12:24:21Z</time>
      </trkpt>
      <trkpt lat="47.1731070" lon="6.8296320">
        <ele>865.5</ele>
        <time>2022-07-21T12:24:22Z</time>
      </trkpt>
      <trkpt lat="47.1730840" lon="6.8296050">
        <ele>865.7</ele>
        <time>2022-07-21T12:24:23Z</time>
      </trkpt>
      <trkpt lat="47.1730770" lon="6.8295980">
        <ele>865.7</ele>
        <time>2022-07-21T12:24:24Z</time>
      </trkpt>
      <trkpt lat="47.1730530" lon="6.8295670">
        <ele>866.0</ele>
        <time>2022-07-21T12:24:25Z</time>
      </trkpt>
      <trkpt lat="47.1730460" lon="6.8295570">
        <ele>866.0</ele>
        <time>2022-07-21T12:24:26Z</time>
      </trkpt>
      <trkpt lat="47.1730420" lon="6.8295120">
        <ele>866.2</ele>
        <time>2022-07-21T12:24:27Z</time>
      </trkpt>
      <trkpt lat="47.1730330" lon="6.8294720">
        <ele>866.4</ele>
        <time>2022-07-21T12:24:28Z</time>
      </trkpt>
      <trkpt lat="47.1730250" lon="6.8294500">
        <ele>866.5</ele>
        <time>2022-07-21T12:24:29Z</time>
      </trkpt>
      <trkpt lat="47.1730180" lon="6.8294280">
        <ele>866.6</ele>
        <time>2022-07-21T12:24:30Z</time>
      </trkpt>
      <trkpt lat="47.1729940" lon="6.8293910">
        <ele>866.9</ele>
        <time>2022-07-21T12:24:31Z</time>
      </trkpt>
      <trkpt lat="47.1729850" lon="6.8293810">
        <ele>867.0</ele>
        <time>2022-07-21T12:24:32Z</time>
      </trkpt>
      <trkpt lat="47.1729580" lon="6.8293460">
        <ele>867.2</ele>
        <time>2022-07-21T12:24:33Z</time>
      </trkpt>
      <trkpt lat="47.1729510" lon="6.8293350">
        <ele>867.3</ele>
        <time>2022-07-21T12:24:34Z</time>
      </trkpt>
      <trkpt lat="47.1729280" lon="6.8293090">
        <ele>867.4</ele>
        <time>2022-07-21T12:24:35Z</time>
      </trkpt>
      <trkpt lat="47.1729210" lon="6.8293040">
        <ele>867.5</ele>
        <time>2022-07-21T12:24:36Z</time>
      </trkpt>
      <trkpt lat="47.1728930" lon="6.8292850">
        <ele>867.7</ele>
        <time>2022-07-21T12:24:37Z</time>
      </trkpt>
      <trkpt lat="47.1728840" lon="6.8292790">
        <ele>867.7</ele>
        <time>2022-07-21T12:24:38Z</time>
      </trkpt>
      <trkpt lat="47.1728510" lon="6.8292680">
        <ele>868.0</ele>
        <time>2022-07-21T12:24:39Z</time>
      </trkpt>
      <trkpt lat="47.1728400" lon="6.8292650">
        <ele>868.0</ele>
        <time>2022-07-21T12:24:40Z</time>
      </trkpt>
      <trkpt lat="47.1728120" lon="6.8292600">
        <ele>868.2</ele>
        <time>2022-07-21T12:24:41Z</time>
      </trkpt>
      <trkpt lat="47.1728020" lon="6.8292570">
        <ele>868.3</ele>
        <time>2022-07-21T12:24:42Z</time>
      </trkpt>
      <trkpt lat="47.1727730" lon="6.8292470">
        <ele>868.5</ele>
        <time>2022-07-21T12:24:43Z</time>
      </trkpt>
      <trkpt lat="47.1727650" lon="6.8292430">
        <ele>868.5</ele>
        <time>2022-07-21T12:24:44Z</time>
      </trkpt>
      <trkpt lat="47.1727380" lon="6.8292270">
        <ele>868.7</ele>
        <time>2022-07-21T12:24:45Z</time>
      </trkpt>
      <trkpt lat="47.1727290" lon="6.8292220">
        <ele>868.7</ele>
        <time>2022-07-21T12:24:46Z</time>
      </trkpt>
      <trkpt lat="47.1727140" lon="6.8292150">
        <ele>868.8</ele>
        <time>2022-07-21T12:24:47Z</time>
      </trkpt>
      <trkpt lat="47.1726990" lon="6.8292000">
        <ele>868.9</ele>
        <time>2022-07-21T12:24:48Z</time>
      </trkpt>
      <trkpt lat="47.1726830" lon="6.8291850">
        <ele>869.1</ele>
        <time>2022-07-21T12:24:49Z</time>
      </trkpt>
      <trkpt lat="47.1726550" lon="6.8291520">
        <ele>869.3</ele>
        <time>2022-07-21T12:24:51Z</time>
      </trkpt>
      <trkpt lat="47.1726200" lon="6.8291240">
        <ele>869.5</ele>
        <time>2022-07-21T12:24:53Z</time>
      </trkpt>
      <trkpt lat="47.1725910" lon="6.8291040">
        <ele>869.7</ele>
        <time>2022-07-21T12:24:54Z</time>
      </trkpt>
      <trkpt lat="47.1725830" lon="6.8290970">
        <ele>869.8</ele>
        <time>2022-07-21T12:24:55Z</time>
      </trkpt>
      <trkpt lat="47.1725390" lon="6.8290830">
        <ele>870.0</ele>
        <time>2022-07-21T12:24:57Z</time>
      </trkpt>
      <trkpt lat="47.1725270" lon="6.8290770">
        <ele>870.1</ele>
        <time>2022-07-21T12:24:58Z</time>
      </trkpt>
      <trkpt lat="47.1725140" lon="6.8290710">
        <ele>870.2</ele>
        <time>2022-07-21T12:24:59Z</time>
      </trkpt>
      <trkpt lat="47.1724860" lon="6.8290610">
        <ele>870.4</ele>
        <time>2022-07-21T12:25:00Z</time>
      </trkpt>
      <trkpt lat="47.1724760" lon="6.8290580">
        <ele>870.4</ele>
        <time>2022-07-21T12:25:01Z</time>
      </trkpt>
      <trkpt lat="47.1724390" lon="6.8290470">
        <ele>870.6</ele>
        <time>2022-07-21T12:25:02Z</time>
      </trkpt>
      <trkpt lat="47.1724280" lon="6.8290420">
        <ele>870.7</ele>
        <time>2022-07-21T12:25:03Z</time>
      </trkpt>
      <trkpt lat="47.1723940" lon="6.8290300">
        <ele>870.9</ele>
        <time>2022-07-21T12:25:04Z</time>
      </trkpt>
      <trkpt lat="47.1723800" lon="6.8290270">
        <ele>871.0</ele>
        <time>2022-07-21T12:25:05Z</time>
      </trkpt>
      <trkpt lat="47.1723530" lon="6.8290050">
        <ele>871.2</ele>
        <time>2022-07-21T12:25:07Z</time>
      </trkpt>
      <trkpt lat="47.1723370" lon="6.8289950">
        <ele>871.3</ele>
        <time>2022-07-21T12:25:08Z</time>
      </trkpt>
      <trkpt lat="47.1723240" lon="6.8289960">
        <ele>871.4</ele>
        <time>2022-07-21T12:25:09Z</time>
      </trkpt>
      <trkpt lat="47.1722940" lon="6.8289960">
        <ele>871.6</ele>
        <time>2022-07-21T12:25:10Z</time>
      </trkpt>
      <trkpt lat="47.1722830" lon="6.8289940">
        <ele>871.6</ele>
        <time>2022-07-21T12:25:11Z</time>
      </trkpt>
      <trkpt lat="47.1722660" lon="6.8289890">
        <ele>871.7</ele>
        <time>2022-07-21T12:25:12Z</time>
      </trkpt>
      <trkpt lat="47.1722520" lon="6.8289820">
        <ele>871.8</ele>
        <time>2022-07-21T12:25:13Z</time>
      </trkpt>
      <trkpt lat="47.1722180" lon="6.8289850">
        <ele>872.0</ele>
        <time>2022-07-21T12:25:14Z</time>
      </trkpt>
      <trkpt lat="47.1722070" lon="6.8289840">
        <ele>872.1</ele>
        <time>2022-07-21T12:25:15Z</time>
      </trkpt>
      <trkpt lat="47.1721770" lon="6.8289740">
        <ele>872.3</ele>
        <time>2022-07-21T12:25:16Z</time>
      </trkpt>
      <trkpt lat="47.1721650" lon="6.8289700">
        <ele>872.4</ele>
        <time>2022-07-21T12:25:17Z</time>
      </trkpt>
      <trkpt lat="47.1721300" lon="6.8289630">
        <ele>872.6</ele>
        <time>2022-07-21T12:25:18Z</time>
      </trkpt>
      <trkpt lat="47.1721200" lon="6.8289620">
        <ele>872.7</ele>
        <time>2022-07-21T12:25:19Z</time>
      </trkpt>
      <trkpt lat="47.1720870" lon="6.8289610">
        <ele>872.9</ele>
        <time>2022-07-21T12:25:20Z</time>
      </trkpt>
      <trkpt lat="47.1720760" lon="6.8289600">
        <ele>872.9</ele>
        <time>2022-07-21T12:25:21Z</time>
      </trkpt>
      <trkpt lat="47.1720430" lon="6.8289530">
        <ele>873.1</ele>
        <time>2022-07-21T12:25:22Z</time>
      </trkpt>
      <trkpt lat="47.1720310" lon="6.8289490">
        <ele>873.2</ele>
        <time>2022-07-21T12:25:23Z</time>
      </trkpt>
      <trkpt lat="47.1720170" lon="6.8289370">
        <ele>873.3</ele>
        <time>2022-07-21T12:25:24Z</time>
      </trkpt>
      <trkpt lat="47.1720000" lon="6.8289260">
        <ele>873.5</ele>
        <time>2022-07-21T12:25:25Z</time>
      </trkpt>
      <trkpt lat="47.1719850" lon="6.8289160">
        <ele>873.6</ele>
        <time>2022-07-21T12:25:26Z</time>
      </trkpt>
      <trkpt lat="47.1719690" lon="6.8289060">
        <ele>873.7</ele>
        <time>2022-07-21T12:25:27Z</time>
      </trkpt>
      <trkpt lat="47.1719550" lon="6.8288960">
        <ele>873.8</ele>
        <time>2022-07-21T12:25:28Z</time>
      </trkpt>
      <trkpt lat="47.1719380" lon="6.8288860">
        <ele>873.9</ele>
        <time>2022-07-21T12:25:29Z</time>
      </trkpt>
      <trkpt lat="47.1719100" lon="6.8288740">
        <ele>874.1</ele>
        <time>2022-07-21T12:25:30Z</time>
      </trkpt>
      <trkpt lat="47.1719000" lon="6.8288700">
        <ele>874.2</ele>
        <time>2022-07-21T12:25:31Z</time>
      </trkpt>
      <trkpt lat="47.1718820" lon="6.8288640">
        <ele>874.3</ele>
        <time>2022-07-21T12:25:32Z</time>
      </trkpt>
      <trkpt lat="47.1718660" lon="6.8288570">
        <ele>874.4</ele>
        <time>2022-07-21T12:25:33Z</time>
      </trkpt>
      <trkpt lat="47.1718530" lon="6.8288500">
        <ele>874.5</ele>
        <time>2022-07-21T12:25:34Z</time>
      </trkpt>
      <trkpt lat="47.1718350" lon="6.8288320">
        <ele>874.7</ele>
        <time>2022-07-21T12:25:35Z</time>
      </trkpt>
      <trkpt lat="47.1718110" lon="6.8288070">
        <ele>874.9</ele>
        <time>2022-07-21T12:25:36Z</time>
      </trkpt>
      <trkpt lat="47.1718040" lon="6.8288010">
        <ele>875.0</ele>
        <time>2022-07-21T12:25:37Z</time>
      </trkpt>
      <trkpt lat="47.1717770" lon="6.8287830">
        <ele>875.2</ele>
        <time>2022-07-21T12:25:38Z</time>
      </trkpt>
      <trkpt lat="47.1717680" lon="6.8287780">
        <ele>875.2</ele>
        <time>2022-07-21T12:25:39Z</time>
      </trkpt>
      <trkpt lat="47.1717530" lon="6.8287670">
        <ele>875.4</ele>
        <time>2022-07-21T12:25:40Z</time>
      </trkpt>
      <trkpt lat="47.1717370" lon="6.8287550">
        <ele>875.5</ele>
        <time>2022-07-21T12:25:41Z</time>
      </trkpt>
      <trkpt lat="47.1717110" lon="6.8287380">
        <ele>875.7</ele>
        <time>2022-07-21T12:25:42Z</time>
      </trkpt>
      <trkpt lat="47.1717020" lon="6.8287330">
        <ele>875.8</ele>
        <time>2022-07-21T12:25:43Z</time>
      </trkpt>
      <trkpt lat="47.1716730" lon="6.8287220">
        <ele>876.0</ele>
        <time>2022-07-21T12:25:44Z</time>
      </trkpt>
      <trkpt lat="47.1716640" lon="6.8287150">
        <ele>876.0</ele>
        <time>2022-07-21T12:25:45Z</time>
      </trkpt>
      <trkpt lat="47.1716370" lon="6.8286980">
        <ele>876.3</ele>
        <time>2022-07-21T12:25:46Z</time>
      </trkpt>
      <trkpt lat="47.1716280" lon="6.8286930">
        <ele>876.3</ele>
        <time>2022-07-21T12:25:47Z</time>
      </trkpt>
      <trkpt lat="47.1716020" lon="6.8286800">
        <ele>876.5</ele>
        <time>2022-07-21T12:25:48Z</time>
      </trkpt>
      <trkpt lat="47.1715940" lon="6.8286740">
        <ele>876.6</ele>
        <time>2022-07-21T12:25:49Z</time>
      </trkpt>
      <trkpt lat="47.1715790" lon="6.8286610">
        <ele>876.7</ele>
        <time>2022-07-21T12:25:50Z</time>
      </trkpt>
      <trkpt lat="47.1715640" lon="6.8286450">
        <ele>876.8</ele>
        <time>2022-07-21T12:25:51Z</time>
      </trkpt>
      <trkpt lat="47.1715370" lon="6.8286250">
        <ele>877.0</ele>
        <time>2022-07-21T12:25:52Z</time>
      </trkpt>
      <trkpt lat="47.1715290" lon="6.8286200">
        <ele>877.1</ele>
        <time>2022-07-21T12:25:53Z</time>
      </trkpt>
      <trkpt lat="47.1715050" lon="6.8285970">
        <ele>877.3</ele>
        <time>2022-07-21T12:25:54Z</time>
      </trkpt>
      <trkpt lat="47.1714970" lon="6.8285880">
        <ele>877.4</ele>
        <time>2022-07-21T12:25:55Z</time>
      </trkpt>
      <trkpt lat="47.1714830" lon="6.8285690">
        <ele>877.5</ele>
        <time>2022-07-21T12:25:56Z</time>
      </trkpt>
      <trkpt lat="47.1714690" lon="6.8285570">
        <ele>877.6</ele>
        <time>2022-07-21T12:25:57Z</time>
      </trkpt>
      <trkpt lat="47.1714530" lon="6.8285480">
        <ele>877.7</ele>
        <time>2022-07-21T12:25:58Z</time>
      </trkpt>
      <trkpt lat="47.1714370" lon="6.8285380">
        <ele>877.8</ele>
        <time>2022-07-21T12:25:59Z</time>
      </trkpt>
      <trkpt lat="47.1714090" lon="6.8285240">
        <ele>878.0</ele>
        <time>2022-07-21T12:26:00Z</time>
      </trkpt>
      <trkpt lat="47.1713990" lon="6.8285210">
        <ele>878.1</ele>
        <time>2022-07-21T12:26:01Z</time>
      </trkpt>
      <trkpt lat="47.1713670" lon="6.8285170">
        <ele>878.3</ele>
        <time>2022-07-21T12:26:02Z</time>
      </trkpt>
      <trkpt lat="47.1713570" lon="6.8285150">
        <ele>878.3</ele>
        <time>2022-07-21T12:26:03Z</time>
      </trkpt>
      <trkpt lat="47.1713300" lon="6.8285060">
        <ele>878.5</ele>
        <time>2022-07-21T12:26:04Z</time>
      </trkpt>
      <trkpt lat="47.1713200" lon="6.8285000">
        <ele>878.6</ele>
        <time>2022-07-21T12:26:05Z</time>
      </trkpt>
      <trkpt lat="47.1712950" lon="6.8284790">
        <ele>878.7</ele>
        <time>2022-07-21T12:26:06Z</time>
      </trkpt>
      <trkpt lat="47.1712880" lon="6.8284720">
        <ele>878.8</ele>
        <time>2022-07-21T12:26:07Z</time>
      </trkpt>
      <trkpt lat="47.1712550" lon="6.8284570">
        <ele>879.0</ele>
        <time>2022-07-21T12:26:08Z</time>
      </trkpt>
      <trkpt lat="47.1712440" lon="6.8284550">
        <ele>879.1</ele>
        <time>2022-07-21T12:26:09Z</time>
      </trkpt>
      <trkpt lat="47.1712260" lon="6.8284540">
        <ele>879.2</ele>
        <time>2022-07-21T12:26:10Z</time>
      </trkpt>
      <trkpt lat="47.1712120" lon="6.8284490">
        <ele>879.3</ele>
        <time>2022-07-21T12:26:11Z</time>
      </trkpt>
      <trkpt lat="47.1711860" lon="6.8284360">
        <ele>879.4</ele>
        <time>2022-07-21T12:26:12Z</time>
      </trkpt>
      <trkpt lat="47.1711770" lon="6.8284310">
        <ele>879.5</ele>
        <time>2022-07-21T12:26:13Z</time>
      </trkpt>
      <trkpt lat="47.1711620" lon="6.8284100">
        <ele>879.6</ele>
        <time>2022-07-21T12:26:14Z</time>
      </trkpt>
      <trkpt lat="47.1711520" lon="6.8283940">
        <ele>879.7</ele>
        <time>2022-07-21T12:26:15Z</time>
      </trkpt>
      <trkpt lat="47.1711290" lon="6.8283670">
        <ele>879.9</ele>
        <time>2022-07-21T12:26:16Z</time>
      </trkpt>
      <trkpt lat="47.1711200" lon="6.8283600">
        <ele>879.9</ele>
        <time>2022-07-21T12:26:17Z</time>
      </trkpt>
      <trkpt lat="47.1710890" lon="6.8283480">
        <ele>880.1</ele>
        <time>2022-07-21T12:26:18Z</time>
      </trkpt>
      <trkpt lat="47.1710790" lon="6.8283440">
        <ele>880.2</ele>
        <time>2022-07-21T12:26:19Z</time>
      </trkpt>
      <trkpt lat="47.1710480" lon="6.8283260">
        <ele>880.4</ele>
        <time>2022-07-21T12:26:20Z</time>
      </trkpt>
      <trkpt lat="47.1710390" lon="6.8283180">
        <ele>880.4</ele>
        <time>2022-07-21T12:26:21Z</time>
      </trkpt>
      <trkpt lat="47.1710150" lon="6.8282960">
        <ele>880.6</ele>
        <time>2022-07-21T12:26:22Z</time>
      </trkpt>
      <trkpt lat="47.1710070" lon="6.8282900">
        <ele>880.7</ele>
        <time>2022-07-21T12:26:23Z</time>
      </trkpt>
      <trkpt lat="47.1709800" lon="6.8282790">
        <ele>880.9</ele>
        <time>2022-07-21T12:26:24Z</time>
      </trkpt>
      <trkpt lat="47.1709710" lon="6.8282760">
        <ele>880.9</ele>
        <time>2022-07-21T12:26:25Z</time>
      </trkpt>
      <trkpt lat="47.1709510" lon="6.8282700">
        <ele>881.0</ele>
        <time>2022-07-21T12:26:26Z</time>
      </trkpt>
      <trkpt lat="47.1709090" lon="6.8282530">
        <ele>881.3</ele>
        <time>2022-07-21T12:26:28Z</time>
      </trkpt>
      <trkpt lat="47.1708790" lon="6.8282340">
        <ele>881.5</ele>
        <time>2022-07-21T12:26:29Z</time>
      </trkpt>
      <trkpt lat="47.1708690" lon="6.8282290">
        <ele>881.6</ele>
        <time>2022-07-21T12:26:30Z</time>
      </trkpt>
      <trkpt lat="47.1708380" lon="6.8282110">
        <ele>881.8</ele>
        <time>2022-07-21T12:26:31Z</time>
      </trkpt>
      <trkpt lat="47.1708290" lon="6.8282050">
        <ele>881.9</ele>
        <time>2022-07-21T12:26:32Z</time>
      </trkpt>
      <trkpt lat="47.1708000" lon="6.8281940">
        <ele>882.1</ele>
        <time>2022-07-21T12:26:33Z</time>
      </trkpt>
      <trkpt lat="47.1707910" lon="6.8281920">
        <ele>882.2</ele>
        <time>2022-07-21T12:26:34Z</time>
      </trkpt>
      <trkpt lat="47.1707630" lon="6.8281820">
        <ele>882.3</ele>
        <time>2022-07-21T12:26:35Z</time>
      </trkpt>
      <trkpt lat="47.1707530" lon="6.8281790">
        <ele>882.4</ele>
        <time>2022-07-21T12:26:36Z</time>
      </trkpt>
      <trkpt lat="47.1707210" lon="6.8281600">
        <ele>882.6</ele>
        <time>2022-07-21T12:26:37Z</time>
      </trkpt>
      <trkpt lat="47.1707110" lon="6.8281550">
        <ele>882.7</ele>
        <time>2022-07-21T12:26:38Z</time>
      </trkpt>
      <trkpt lat="47.1706930" lon="6.8281460">
        <ele>882.8</ele>
        <time>2022-07-21T12:26:39Z</time>
      </trkpt>
      <trkpt lat="47.1706790" lon="6.8281510">
        <ele>882.9</ele>
        <time>2022-07-21T12:26:40Z</time>
      </trkpt>
      <trkpt lat="47.1706490" lon="6.8281590">
        <ele>883.1</ele>
        <time>2022-07-21T12:26:41Z</time>
      </trkpt>
      <trkpt lat="47.1706380" lon="6.8281630">
        <ele>883.2</ele>
        <time>2022-07-21T12:26:42Z</time>
      </trkpt>
      <trkpt lat="47.1706110" lon="6.8281740">
        <ele>883.4</ele>
        <time>2022-07-21T12:26:43Z</time>
      </trkpt>
      <trkpt lat="47.1705790" lon="6.8281880">
        <ele>883.6</ele>
        <time>2022-07-21T12:26:44Z</time>
      </trkpt>
      <trkpt lat="47.1705690" lon="6.8281910">
        <ele>883.7</ele>
        <time>2022-07-21T12:26:45Z</time>
      </trkpt>
      <trkpt lat="47.1705510" lon="6.8281900">
        <ele>883.8</ele>
        <time>2022-07-21T12:26:46Z</time>
      </trkpt>
      <trkpt lat="47.1705340" lon="6.8281880">
        <ele>883.9</ele>
        <time>2022-07-21T12:26:47Z</time>
      </trkpt>
      <trkpt lat="47.1704970" lon="6.8281950">
        <ele>884.2</ele>
        <time>2022-07-21T12:26:49Z</time>
      </trkpt>
      <trkpt lat="47.1704610" lon="6.8281860">
        <ele>884.4</ele>
        <time>2022-07-21T12:26:50Z</time>
      </trkpt>
      <trkpt lat="47.1704490" lon="6.8281810">
        <ele>884.5</ele>
        <time>2022-07-21T12:26:51Z</time>
      </trkpt>
      <trkpt lat="47.1704200" lon="6.8281780">
        <ele>884.7</ele>
        <time>2022-07-21T12:26:52Z</time>
      </trkpt>
      <trkpt lat="47.1704110" lon="6.8281780">
        <ele>884.8</ele>
        <time>2022-07-21T12:26:53Z</time>
      </trkpt>
      <trkpt lat="47.1703780" lon="6.8281800">
        <ele>885.0</ele>
        <time>2022-07-21T12:26:54Z</time>
      </trkpt>
      <trkpt lat="47.1703690" lon="6.8281830">
        <ele>885.1</ele>
        <time>2022-07-21T12:26:55Z</time>
      </trkpt>
      <trkpt lat="47.1703410" lon="6.8281890">
        <ele>885.3</ele>
        <time>2022-07-21T12:26:56Z</time>
      </trkpt>
      <trkpt lat="47.1703310" lon="6.8281900">
        <ele>885.4</ele>
        <time>2022-07-21T12:26:57Z</time>
      </trkpt>
      <trkpt lat="47.1702960" lon="6.8282030">
        <ele>885.6</ele>
        <time>2022-07-21T12:26:58Z</time>
      </trkpt>
      <trkpt lat="47.1702850" lon="6.8282100">
        <ele>885.7</ele>
        <time>2022-07-21T12:26:59Z</time>
      </trkpt>
      <trkpt lat="47.1702560" lon="6.8282200">
        <ele>885.9</ele>
        <time>2022-07-21T12:27:00Z</time>
      </trkpt>
      <trkpt lat="47.1702470" lon="6.8282230">
        <ele>886.0</ele>
        <time>2022-07-21T12:27:01Z</time>
      </trkpt>
      <trkpt lat="47.1702000" lon="6.8282340">
        <ele>886.3</ele>
        <time>2022-07-21T12:27:03Z</time>
      </trkpt>
      <trkpt lat="47.1701880" lon="6.8282380">
        <ele>886.4</ele>
        <time>2022-07-21T12:27:04Z</time>
      </trkpt>
      <trkpt lat="47.1701760" lon="6.8282410">
        <ele>886.5</ele>
        <time>2022-07-21T12:27:05Z</time>
      </trkpt>
      <trkpt lat="47.1701570" lon="6.8282450">
        <ele>886.7</ele>
        <time>2022-07-21T12:27:06Z</time>
      </trkpt>
      <trkpt lat="47.1701430" lon="6.8282470">
        <ele>886.8</ele>
        <time>2022-07-21T12:27:07Z</time>
      </trkpt>
      <trkpt lat="47.1701300" lon="6.8282480">
        <ele>886.9</ele>
        <time>2022-07-21T12:27:08Z</time>
      </trkpt>
      <trkpt lat="47.1701140" lon="6.8282500">
        <ele>887.0</ele>
        <time>2022-07-21T12:27:09Z</time>
      </trkpt>
      <trkpt lat="47.1700860" lon="6.8282500">
        <ele>887.2</ele>
        <time>2022-07-21T12:27:10Z</time>
      </trkpt>
      <trkpt lat="47.1700760" lon="6.8282510">
        <ele>887.3</ele>
        <time>2022-07-21T12:27:11Z</time>
      </trkpt>
      <trkpt lat="47.1700500" lon="6.8282520">
        <ele>887.5</ele>
        <time>2022-07-21T12:27:12Z</time>
      </trkpt>
      <trkpt lat="47.1700400" lon="6.8282530">
        <ele>887.5</ele>
        <time>2022-07-21T12:27:13Z</time>
      </trkpt>
      <trkpt lat="47.1700090" lon="6.8282560">
        <ele>887.8</ele>
        <time>2022-07-21T12:27:14Z</time>
      </trkpt>
      <trkpt lat="47.1699990" lon="6.8282590">
        <ele>887.9</ele>
        <time>2022-07-21T12:27:15Z</time>
      </trkpt>
      <trkpt lat="47.1699820" lon="6.8282700">
        <ele>888.0</ele>
        <time>2022-07-21T12:27:16Z</time>
      </trkpt>
      <trkpt lat="47.1699660" lon="6.8282790">
        <ele>888.1</ele>
        <time>2022-07-21T12:27:17Z</time>
      </trkpt>
      <trkpt lat="47.1699500" lon="6.8282850">
        <ele>888.3</ele>
        <time>2022-07-21T12:27:18Z</time>
      </trkpt>
      <trkpt lat="47.1699330" lon="6.8282910">
        <ele>888.4</ele>
        <time>2022-07-21T12:27:19Z</time>
      </trkpt>
      <trkpt lat="47.1699150" lon="6.8282970">
        <ele>888.5</ele>
        <time>2022-07-21T12:27:20Z</time>
      </trkpt>
      <trkpt lat="47.1698980" lon="6.8283020">
        <ele>888.7</ele>
        <time>2022-07-21T12:27:21Z</time>
      </trkpt>
      <trkpt lat="47.1698740" lon="6.8283080">
        <ele>888.9</ele>
        <time>2022-07-21T12:27:22Z</time>
      </trkpt>
      <trkpt lat="47.1698540" lon="6.8283130">
        <ele>889.1</ele>
        <time>2022-07-21T12:27:24Z</time>
      </trkpt>
      <trkpt lat="47.1698300" lon="6.8283330">
        <ele>889.3</ele>
        <time>2022-07-21T12:27:25Z</time>
      </trkpt>
      <trkpt lat="47.1698230" lon="6.8283410">
        <ele>889.4</ele>
        <time>2022-07-21T12:27:26Z</time>
      </trkpt>
      <trkpt lat="47.1697990" lon="6.8283690">
        <ele>889.6</ele>
        <time>2022-07-21T12:27:27Z</time>
      </trkpt>
      <trkpt lat="47.1697660" lon="6.8283910">
        <ele>889.9</ele>
        <time>2022-07-21T12:27:29Z</time>
      </trkpt>
      <trkpt lat="47.1697450" lon="6.8284040">
        <ele>890.1</ele>
        <time>2022-07-21T12:27:30Z</time>
      </trkpt>
      <trkpt lat="47.1697140" lon="6.8284300">
        <ele>890.4</ele>
        <time>2022-07-21T12:27:32Z</time>
      </trkpt>
      <trkpt lat="47.1697010" lon="6.8284440">
        <ele>890.5</ele>
        <time>2022-07-21T12:27:33Z</time>
      </trkpt>
      <trkpt lat="47.1696690" lon="6.8284750">
        <ele>890.8</ele>
        <time>2022-07-21T12:27:35Z</time>
      </trkpt>
      <trkpt lat="47.1696580" lon="6.8284890">
        <ele>890.9</ele>
        <time>2022-07-21T12:27:36Z</time>
      </trkpt>
      <trkpt lat="47.1696420" lon="6.8285060">
        <ele>891.1</ele>
        <time>2022-07-21T12:27:37Z</time>
      </trkpt>
      <trkpt lat="47.1696270" lon="6.8285230">
        <ele>891.2</ele>
        <time>2022-07-21T12:27:38Z</time>
      </trkpt>
      <trkpt lat="47.1696170" lon="6.8285380">
        <ele>891.3</ele>
        <time>2022-07-21T12:27:39Z</time>
      </trkpt>
      <trkpt lat="47.1695960" lon="6.8285650">
        <ele>891.5</ele>
        <time>2022-07-21T12:27:40Z</time>
      </trkpt>
      <trkpt lat="47.1695880" lon="6.8285750">
        <ele>891.6</ele>
        <time>2022-07-21T12:27:41Z</time>
      </trkpt>
      <trkpt lat="47.1695730" lon="6.8285880">
        <ele>891.7</ele>
        <time>2022-07-21T12:27:42Z</time>
      </trkpt>
      <trkpt lat="47.1695560" lon="6.8285970">
        <ele>891.9</ele>
        <time>2022-07-21T12:27:43Z</time>
      </trkpt>
      <trkpt lat="47.1695310" lon="6.8286120">
        <ele>892.1</ele>
        <time>2022-07-21T12:27:44Z</time>
      </trkpt>
      <trkpt lat="47.1695220" lon="6.8286190">
        <ele>892.2</ele>
        <time>2022-07-21T12:27:45Z</time>
      </trkpt>
      <trkpt lat="47.1695010" lon="6.8286460">
        <ele>892.4</ele>
        <time>2022-07-21T12:27:46Z</time>
      </trkpt>
      <trkpt lat="47.1694800" lon="6.8286830">
        <ele>892.6</ele>
        <time>2022-07-21T12:27:47Z</time>
      </trkpt>
      <trkpt lat="47.1694740" lon="6.8286960">
        <ele>892.7</ele>
        <time>2022-07-21T12:27:48Z</time>
      </trkpt>
      <trkpt lat="47.1694570" lon="6.8287200">
        <ele>892.9</ele>
        <time>2022-07-21T12:27:49Z</time>
      </trkpt>
      <trkpt lat="47.1694470" lon="6.8287280">
        <ele>893.0</ele>
        <time>2022-07-21T12:27:50Z</time>
      </trkpt>
      <trkpt lat="47.1694210" lon="6.8287390">
        <ele>893.1</ele>
        <time>2022-07-21T12:27:51Z</time>
      </trkpt>
      <trkpt lat="47.1694100" lon="6.8287440">
        <ele>893.2</ele>
        <time>2022-07-21T12:27:52Z</time>
      </trkpt>
      <trkpt lat="47.1693830" lon="6.8287680">
        <ele>893.4</ele>
        <time>2022-07-21T12:27:54Z</time>
      </trkpt>
      <trkpt lat="47.1693740" lon="6.8287800">
        <ele>893.5</ele>
        <time>2022-07-21T12:27:55Z</time>
      </trkpt>
      <trkpt lat="47.1693570" lon="6.8288020">
        <ele>893.7</ele>
        <time>2022-07-21T12:27:56Z</time>
      </trkpt>
      <trkpt lat="47.1693340" lon="6.8288340">
        <ele>893.9</ele>
        <time>2022-07-21T12:27:57Z</time>
      </trkpt>
      <trkpt lat="47.1693270" lon="6.8288430">
        <ele>894.0</ele>
        <time>2022-07-21T12:27:58Z</time>
      </trkpt>
      <trkpt lat="47.1693020" lon="6.8288810">
        <ele>894.2</ele>
        <time>2022-07-21T12:27:59Z</time>
      </trkpt>
      <trkpt lat="47.1692920" lon="6.8288940">
        <ele>894.3</ele>
        <time>2022-07-21T12:28:00Z</time>
      </trkpt>
      <trkpt lat="47.1692730" lon="6.8289280">
        <ele>894.5</ele>
        <time>2022-07-21T12:28:01Z</time>
      </trkpt>
      <trkpt lat="47.1692500" lon="6.8289790">
        <ele>894.8</ele>
        <time>2022-07-21T12:28:03Z</time>
      </trkpt>
      <trkpt lat="47.1692440" lon="6.8290000">
        <ele>894.9</ele>
        <time>2022-07-21T12:28:04Z</time>
      </trkpt>
      <trkpt lat="47.1692350" lon="6.8290260">
        <ele>895.0</ele>
        <time>2022-07-21T12:28:05Z</time>
      </trkpt>
      <trkpt lat="47.1692140" lon="6.8290630">
        <ele>895.2</ele>
        <time>2022-07-21T12:28:06Z</time>
      </trkpt>
      <trkpt lat="47.1692080" lon="6.8290730">
        <ele>895.3</ele>
        <time>2022-07-21T12:28:07Z</time>
      </trkpt>
      <trkpt lat="47.1692000" lon="6.8290890">
        <ele>895.3</ele>
        <time>2022-07-21T12:28:08Z</time>
      </trkpt>
      <trkpt lat="47.1692020" lon="6.8291030">
        <ele>895.4</ele>
        <time>2022-07-21T12:28:09Z</time>
      </trkpt>
      <trkpt lat="47.1691980" lon="6.8291140">
        <ele>895.4</ele>
        <time>2022-07-21T12:28:10Z</time>
      </trkpt>
      <trkpt lat="47.1691860" lon="6.8291330">
        <ele>895.5</ele>
        <time>2022-07-21T12:28:11Z</time>
      </trkpt>
      <trkpt lat="47.1691660" lon="6.8291700">
        <ele>895.7</ele>
        <time>2022-07-21T12:28:13Z</time>
      </trkpt>
      <trkpt lat="47.1691490" lon="6.8292010">
        <ele>895.9</ele>
        <time>2022-07-21T12:28:14Z</time>
      </trkpt>
      <trkpt lat="47.1691160" lon="6.8292240">
        <ele>896.1</ele>
        <time>2022-07-21T12:28:15Z</time>
      </trkpt>
      <trkpt lat="47.1691040" lon="6.8292310">
        <ele>896.2</ele>
        <time>2022-07-21T12:28:16Z</time>
      </trkpt>
      <trkpt lat="47.1690770" lon="6.8292830">
        <ele>896.5</ele>
        <time>2022-07-21T12:28:18Z</time>
      </trkpt>
      <trkpt lat="47.1690700" lon="6.8293010">
        <ele>896.6</ele>
        <time>2022-07-21T12:28:19Z</time>
      </trkpt>
      <trkpt lat="47.1690630" lon="6.8293190">
        <ele>896.7</ele>
        <time>2022-07-21T12:28:20Z</time>
      </trkpt>
      <trkpt lat="47.1690550" lon="6.8293410">
        <ele>896.8</ele>
        <time>2022-07-21T12:28:21Z</time>
      </trkpt>
      <trkpt lat="47.1690380" lon="6.8293860">
        <ele>897.0</ele>
        <time>2022-07-21T12:28:23Z</time>
      </trkpt>
      <trkpt lat="47.1690320" lon="6.8294080">
        <ele>897.1</ele>
        <time>2022-07-21T12:28:24Z</time>
      </trkpt>
      <trkpt lat="47.1690270" lon="6.8294290">
        <ele>897.2</ele>
        <time>2022-07-21T12:28:25Z</time>
      </trkpt>
      <trkpt lat="47.1690230" lon="6.8294520">
        <ele>897.3</ele>
        <time>2022-07-21T12:28:26Z</time>
      </trkpt>
      <trkpt lat="47.1690150" lon="6.8294790">
        <ele>897.5</ele>
        <time>2022-07-21T12:28:27Z</time>
      </trkpt>
      <trkpt lat="47.1689940" lon="6.8295200">
        <ele>897.7</ele>
        <time>2022-07-21T12:28:29Z</time>
      </trkpt>
      <trkpt lat="47.1689840" lon="6.8295370">
        <ele>897.8</ele>
        <time>2022-07-21T12:28:30Z</time>
      </trkpt>
      <trkpt lat="47.1689750" lon="6.8295610">
        <ele>898.0</ele>
        <time>2022-07-21T12:28:31Z</time>
      </trkpt>
      <trkpt lat="47.1689710" lon="6.8296030">
        <ele>898.2</ele>
        <time>2022-07-21T12:28:32Z</time>
      </trkpt>
      <trkpt lat="47.1689700" lon="6.8296200">
        <ele>898.2</ele>
        <time>2022-07-21T12:28:33Z</time>
      </trkpt>
      <trkpt lat="47.1689700" lon="6.8296550">
        <ele>898.4</ele>
        <time>2022-07-21T12:28:34Z</time>
      </trkpt>
      <trkpt lat="47.1689630" lon="6.8297210">
        <ele>898.7</ele>
        <time>2022-07-21T12:28:36Z</time>
      </trkpt>
      <trkpt lat="47.1689440" lon="6.8297530">
        <ele>898.9</ele>
        <time>2022-07-21T12:28:37Z</time>
      </trkpt>
      <trkpt lat="47.1689380" lon="6.8297630">
        <ele>899.0</ele>
        <time>2022-07-21T12:28:38Z</time>
      </trkpt>
      <trkpt lat="47.1689210" lon="6.8297980">
        <ele>899.2</ele>
        <time>2022-07-21T12:28:39Z</time>
      </trkpt>
      <trkpt lat="47.1689170" lon="6.8298110">
        <ele>899.2</ele>
        <time>2022-07-21T12:28:40Z</time>
      </trkpt>
      <trkpt lat="47.1689090" lon="6.8298610">
        <ele>899.4</ele>
        <time>2022-07-21T12:28:41Z</time>
      </trkpt>
      <trkpt lat="47.1689080" lon="6.8298760">
        <ele>899.5</ele>
        <time>2022-07-21T12:28:42Z</time>
      </trkpt>
      <trkpt lat="47.1689070" lon="6.8299220">
        <ele>899.7</ele>
        <time>2022-07-21T12:28:43Z</time>
      </trkpt>
      <trkpt lat="47.1689090" lon="6.8299360">
        <ele>899.7</ele>
        <time>2022-07-21T12:28:44Z</time>
      </trkpt>
      <trkpt lat="47.1689110" lon="6.8299800">
        <ele>899.9</ele>
        <time>2022-07-21T12:28:45Z</time>
      </trkpt>
      <trkpt lat="47.1689090" lon="6.8299980">
        <ele>900.0</ele>
        <time>2022-07-21T12:28:46Z</time>
      </trkpt>
      <trkpt lat="47.1689050" lon="6.8300380">
        <ele>900.2</ele>
        <time>2022-07-21T12:28:47Z</time>
      </trkpt>
      <trkpt lat="47.1688960" lon="6.8300970">
        <ele>900.4</ele>
        <time>2022-07-21T12:28:49Z</time>
      </trkpt>
      <trkpt lat="47.1688850" lon="6.8301430">
        <ele>900.6</ele>
        <time>2022-07-21T12:28:50Z</time>
      </trkpt>
      <trkpt lat="47.1688660" lon="6.8301960">
        <ele>900.9</ele>
        <time>2022-07-21T12:28:51Z</time>
      </trkpt>
      <trkpt lat="47.1688390" lon="6.8302540">
        <ele>901.1</ele>
        <time>2022-07-21T12:28:53Z</time>
      </trkpt>
      <trkpt lat="47.1688290" lon="6.8302690">
        <ele>901.2</ele>
        <time>2022-07-21T12:28:54Z</time>
      </trkpt>
      <trkpt lat="47.1688180" lon="6.8302840">
        <ele>901.3</ele>
        <time>2022-07-21T12:28:55Z</time>
      </trkpt>
      <trkpt lat="47.1687960" lon="6.8303070">
        <ele>901.4</ele>
        <time>2022-07-21T12:28:56Z</time>
      </trkpt>
      <trkpt lat="47.1687870" lon="6.8303120">
        <ele>901.5</ele>
        <time>2022-07-21T12:28:57Z</time>
      </trkpt>
      <trkpt lat="47.1687470" lon="6.8303340">
        <ele>901.7</ele>
        <time>2022-07-21T12:28:59Z</time>
      </trkpt>
      <trkpt lat="47.1687170" lon="6.8303380">
        <ele>901.9</ele>
        <time>2022-07-21T12:29:00Z</time>
      </trkpt>
      <trkpt lat="47.1687100" lon="6.8303400">
        <ele>902.0</ele>
        <time>2022-07-21T12:29:01Z</time>
      </trkpt>
      <trkpt lat="47.1686830" lon="6.8303420">
        <ele>902.1</ele>
        <time>2022-07-21T12:29:02Z</time>
      </trkpt>
      <trkpt lat="47.1686720" lon="6.8303420">
        <ele>902.2</ele>
        <time>2022-07-21T12:29:03Z</time>
      </trkpt>
      <trkpt lat="47.1686560" lon="6.8303340">
        <ele>902.3</ele>
        <time>2022-07-21T12:29:04Z</time>
      </trkpt>
      <trkpt lat="47.1686410" lon="6.8303270">
        <ele>902.4</ele>
        <time>2022-07-21T12:29:05Z</time>
      </trkpt>
      <trkpt lat="47.1686060" lon="6.8303170">
        <ele>902.6</ele>
        <time>2022-07-21T12:29:07Z</time>
      </trkpt>
      <trkpt lat="47.1685740" lon="6.8303100">
        <ele>902.8</ele>
        <time>2022-07-21T12:29:08Z</time>
      </trkpt>
      <trkpt lat="47.1685250" lon="6.8302920">
        <ele>903.1</ele>
        <time>2022-07-21T12:29:10Z</time>
      </trkpt>
      <trkpt lat="47.1685080" lon="6.8302830">
        <ele>903.2</ele>
        <time>2022-07-21T12:29:11Z</time>
      </trkpt>
      <trkpt lat="47.1684920" lon="6.8302740">
        <ele>903.3</ele>
        <time>2022-07-21T12:29:12Z</time>
      </trkpt>
      <trkpt lat="47.1684640" lon="6.8302520">
        <ele>903.4</ele>
        <time>2022-07-21T12:29:14Z</time>
      </trkpt>
      <trkpt lat="47.1684560" lon="6.8302470">
        <ele>903.5</ele>
        <time>2022-07-21T12:29:15Z</time>
      </trkpt>
      <trkpt lat="47.1684400" lon="6.8302390">
        <ele>903.6</ele>
        <time>2022-07-21T12:29:16Z</time>
      </trkpt>
      <trkpt lat="47.1684240" lon="6.8302310">
        <ele>903.7</ele>
        <time>2022-07-21T12:29:17Z</time>
      </trkpt>
      <trkpt lat="47.1684090" lon="6.8302270">
        <ele>903.7</ele>
        <time>2022-07-21T12:29:18Z</time>
      </trkpt>
      <trkpt lat="47.1683900" lon="6.8302220">
        <ele>903.8</ele>
        <time>2022-07-21T12:29:19Z</time>
      </trkpt>
      <trkpt lat="47.1683670" lon="6.8302070">
        <ele>904.1</ele>
        <time>2022-07-21T12:29:21Z</time>
      </trkpt>
      <trkpt lat="47.1683550" lon="6.8302000">
        <ele>904.2</ele>
        <time>2022-07-21T12:29:22Z</time>
      </trkpt>
      <trkpt lat="47.1683140" lon="6.8301700">
        <ele>904.5</ele>
        <time>2022-07-21T12:29:24Z</time>
      </trkpt>
      <trkpt lat="47.1682970" lon="6.8301600">
        <ele>904.6</ele>
        <time>2022-07-21T12:29:25Z</time>
      </trkpt>
      <trkpt lat="47.1682790" lon="6.8301500">
        <ele>904.7</ele>
        <time>2022-07-21T12:29:26Z</time>
      </trkpt>
      <trkpt lat="47.1682490" lon="6.8301210">
        <ele>904.9</ele>
        <time>2022-07-21T12:29:28Z</time>
      </trkpt>
      <trkpt lat="47.1682340" lon="6.8300880">
        <ele>905.1</ele>
        <time>2022-07-21T12:29:29Z</time>
      </trkpt>
      <trkpt lat="47.1682180" lon="6.8300540">
        <ele>905.3</ele>
        <time>2022-07-21T12:29:30Z</time>
      </trkpt>
      <trkpt lat="47.1681920" lon="6.8300170">
        <ele>905.5</ele>
        <time>2022-07-21T12:29:31Z</time>
      </trkpt>
      <trkpt lat="47.1681820" lon="6.8300060">
        <ele>905.6</ele>
        <time>2022-07-21T12:29:32Z</time>
      </trkpt>
      <trkpt lat="47.1681490" lon="6.8299840">
        <ele>905.9</ele>
        <time>2022-07-21T12:29:33Z</time>
      </trkpt>
      <trkpt lat="47.1681380" lon="6.8299770">
        <ele>905.9</ele>
        <time>2022-07-21T12:29:34Z</time>
      </trkpt>
      <trkpt lat="47.1681040" lon="6.8299550">
        <ele>906.2</ele>
        <time>2022-07-21T12:29:35Z</time>
      </trkpt>
      <trkpt lat="47.1680930" lon="6.8299490">
        <ele>906.3</ele>
        <time>2022-07-21T12:29:36Z</time>
      </trkpt>
      <trkpt lat="47.1680510" lon="6.8299180">
        <ele>906.6</ele>
        <time>2022-07-21T12:29:38Z</time>
      </trkpt>
      <trkpt lat="47.1680390" lon="6.8299090">
        <ele>906.7</ele>
        <time>2022-07-21T12:29:39Z</time>
      </trkpt>
      <trkpt lat="47.1680280" lon="6.8299000">
        <ele>906.8</ele>
        <time>2022-07-21T12:29:40Z</time>
      </trkpt>
      <trkpt lat="47.1680080" lon="6.8298850">
        <ele>906.9</ele>
        <time>2022-07-21T12:29:41Z</time>
      </trkpt>
      <trkpt lat="47.1679720" lon="6.8298570">
        <ele>907.2</ele>
        <time>2022-07-21T12:29:43Z</time>
      </trkpt>
      <trkpt lat="47.1679450" lon="6.8298340">
        <ele>907.4</ele>
        <time>2022-07-21T12:29:44Z</time>
      </trkpt>
      <trkpt lat="47.1679360" lon="6.8298260">
        <ele>907.5</ele>
        <time>2022-07-21T12:29:45Z</time>
      </trkpt>
      <trkpt lat="47.1679050" lon="6.8298060">
        <ele>907.7</ele>
        <time>2022-07-21T12:29:46Z</time>
      </trkpt>
      <trkpt lat="47.1678960" lon="6.8298010">
        <ele>907.8</ele>
        <time>2022-07-21T12:29:47Z</time>
      </trkpt>
      <trkpt lat="47.1678660" lon="6.8297840">
        <ele>908.0</ele>
        <time>2022-07-21T12:29:48Z</time>
      </trkpt>
      <trkpt lat="47.1678540" lon="6.8297790">
        <ele>908.1</ele>
        <time>2022-07-21T12:29:49Z</time>
      </trkpt>
      <trkpt lat="47.1678190" lon="6.8297650">
        <ele>908.3</ele>
        <time>2022-07-21T12:29:50Z</time>
      </trkpt>
      <trkpt lat="47.1678090" lon="6.8297610">
        <ele>908.4</ele>
        <time>2022-07-21T12:29:51Z</time>
      </trkpt>
      <trkpt lat="47.1677800" lon="6.8297450">
        <ele>908.6</ele>
        <time>2022-07-21T12:29:52Z</time>
      </trkpt>
      <trkpt lat="47.1677720" lon="6.8297400">
        <ele>908.7</ele>
        <time>2022-07-21T12:29:53Z</time>
      </trkpt>
      <trkpt lat="47.1677450" lon="6.8297210">
        <ele>908.9</ele>
        <time>2022-07-21T12:29:54Z</time>
      </trkpt>
      <trkpt lat="47.1677340" lon="6.8297140">
        <ele>909.0</ele>
        <time>2022-07-21T12:29:55Z</time>
      </trkpt>
      <trkpt lat="47.1677020" lon="6.8296910">
        <ele>909.2</ele>
        <time>2022-07-21T12:29:56Z</time>
      </trkpt>
      <trkpt lat="47.1676920" lon="6.8296840">
        <ele>909.3</ele>
        <time>2022-07-21T12:29:57Z</time>
      </trkpt>
      <trkpt lat="47.1676650" lon="6.8296620">
        <ele>909.5</ele>
        <time>2022-07-21T12:29:58Z</time>
      </trkpt>
      <trkpt lat="47.1676560" lon="6.8296550">
        <ele>909.5</ele>
        <time>2022-07-21T12:29:59Z</time>
      </trkpt>
      <trkpt lat="47.1676260" lon="6.8296300">
        <ele>909.8</ele>
        <time>2022-07-21T12:30:00Z</time>
      </trkpt>
      <trkpt lat="47.1676160" lon="6.8296200">
        <ele>909.9</ele>
        <time>2022-07-21T12:30:01Z</time>
      </trkpt>
      <trkpt lat="47.1675860" lon="6.8295970">
        <ele>910.1</ele>
        <time>2022-07-21T12:30:02Z</time>
      </trkpt>
      <trkpt lat="47.1675760" lon="6.8295910">
        <ele>910.1</ele>
        <time>2022-07-21T12:30:03Z</time>
      </trkpt>
      <trkpt lat="47.1675450" lon="6.8295700">
        <ele>910.3</ele>
        <time>2022-07-21T12:30:04Z</time>
      </trkpt>
      <trkpt lat="47.1675350" lon="6.8295630">
        <ele>910.4</ele>
        <time>2022-07-21T12:30:05Z</time>
      </trkpt>
      <trkpt lat="47.1674990" lon="6.8295450">
        <ele>910.7</ele>
        <time>2022-07-21T12:30:06Z</time>
      </trkpt>
      <trkpt lat="47.1674870" lon="6.8295390">
        <ele>910.7</ele>
        <time>2022-07-21T12:30:07Z</time>
      </trkpt>
      <trkpt lat="47.1674570" lon="6.8295180">
        <ele>910.9</ele>
        <time>2022-07-21T12:30:08Z</time>
      </trkpt>
      <trkpt lat="47.1674480" lon="6.8295110">
        <ele>911.0</ele>
        <time>2022-07-21T12:30:09Z</time>
      </trkpt>
      <trkpt lat="47.1674190" lon="6.8294830">
        <ele>911.2</ele>
        <time>2022-07-21T12:30:10Z</time>
      </trkpt>
      <trkpt lat="47.1674090" lon="6.8294740">
        <ele>911.3</ele>
        <time>2022-07-21T12:30:11Z</time>
      </trkpt>
      <trkpt lat="47.1673770" lon="6.8294480">
        <ele>911.5</ele>
        <time>2022-07-21T12:30:12Z</time>
      </trkpt>
      <trkpt lat="47.1673640" lon="6.8294390">
        <ele>911.6</ele>
        <time>2022-07-21T12:30:13Z</time>
      </trkpt>
      <trkpt lat="47.1673230" lon="6.8294060">
        <ele>911.9</ele>
        <time>2022-07-21T12:30:15Z</time>
      </trkpt>
      <trkpt lat="47.1672980" lon="6.8293760">
        <ele>912.1</ele>
        <time>2022-07-21T12:30:16Z</time>
      </trkpt>
      <trkpt lat="47.1672920" lon="6.8293650">
        <ele>912.2</ele>
        <time>2022-07-21T12:30:17Z</time>
      </trkpt>
      <trkpt lat="47.1672790" lon="6.8293450">
        <ele>912.3</ele>
        <time>2022-07-21T12:30:18Z</time>
      </trkpt>
      <trkpt lat="47.1672470" lon="6.8293040">
        <ele>912.6</ele>
        <time>2022-07-21T12:30:20Z</time>
      </trkpt>
      <trkpt lat="47.1672200" lon="6.8292850">
        <ele>912.8</ele>
        <time>2022-07-21T12:30:21Z</time>
      </trkpt>
      <trkpt lat="47.1671890" lon="6.8292600">
        <ele>913.0</ele>
        <time>2022-07-21T12:30:22Z</time>
      </trkpt>
      <trkpt lat="47.1671790" lon="6.8292510">
        <ele>913.0</ele>
        <time>2022-07-21T12:30:23Z</time>
      </trkpt>
      <trkpt lat="47.1671570" lon="6.8292270">
        <ele>913.2</ele>
        <time>2022-07-21T12:30:24Z</time>
      </trkpt>
      <trkpt lat="47.1671500" lon="6.8292170">
        <ele>913.3</ele>
        <time>2022-07-21T12:30:25Z</time>
      </trkpt>
      <trkpt lat="47.1671250" lon="6.8291910">
        <ele>913.5</ele>
        <time>2022-07-21T12:30:26Z</time>
      </trkpt>
      <trkpt lat="47.1671170" lon="6.8291820">
        <ele>913.5</ele>
        <time>2022-07-21T12:30:27Z</time>
      </trkpt>
      <trkpt lat="47.1670940" lon="6.8291550">
        <ele>913.7</ele>
        <time>2022-07-21T12:30:28Z</time>
      </trkpt>
      <trkpt lat="47.1670870" lon="6.8291460">
        <ele>913.8</ele>
        <time>2022-07-21T12:30:29Z</time>
      </trkpt>
      <trkpt lat="47.1670620" lon="6.8291170">
        <ele>914.0</ele>
        <time>2022-07-21T12:30:30Z</time>
      </trkpt>
      <trkpt lat="47.1670530" lon="6.8291080">
        <ele>914.0</ele>
        <time>2022-07-21T12:30:31Z</time>
      </trkpt>
      <trkpt lat="47.1670380" lon="6.8290880">
        <ele>914.2</ele>
        <time>2022-07-21T12:30:32Z</time>
      </trkpt>
      <trkpt lat="47.1670250" lon="6.8290750">
        <ele>914.3</ele>
        <time>2022-07-21T12:30:33Z</time>
      </trkpt>
      <trkpt lat="47.1670020" lon="6.8290520">
        <ele>914.4</ele>
        <time>2022-07-21T12:30:34Z</time>
      </trkpt>
      <trkpt lat="47.1669950" lon="6.8290440">
        <ele>914.5</ele>
        <time>2022-07-21T12:30:35Z</time>
      </trkpt>
      <trkpt lat="47.1669710" lon="6.8290170">
        <ele>914.7</ele>
        <time>2022-07-21T12:30:36Z</time>
      </trkpt>
      <trkpt lat="47.1669630" lon="6.8290080">
        <ele>914.7</ele>
        <time>2022-07-21T12:30:37Z</time>
      </trkpt>
      <trkpt lat="47.1669400" lon="6.8289820">
        <ele>914.9</ele>
        <time>2022-07-21T12:30:38Z</time>
      </trkpt>
      <trkpt lat="47.1669340" lon="6.8289730">
        <ele>915.0</ele>
        <time>2022-07-21T12:30:39Z</time>
      </trkpt>
      <trkpt lat="47.1669100" lon="6.8289410">
        <ele>915.2</ele>
        <time>2022-07-21T12:30:40Z</time>
      </trkpt>
      <trkpt lat="47.1669020" lon="6.8289320">
        <ele>915.2</ele>
        <time>2022-07-21T12:30:41Z</time>
      </trkpt>
      <trkpt lat="47.1668770" lon="6.8289020">
        <ele>915.4</ele>
        <time>2022-07-21T12:30:42Z</time>
      </trkpt>
      <trkpt lat="47.1668680" lon="6.8288910">
        <ele>915.4</ele>
        <time>2022-07-21T12:30:43Z</time>
      </trkpt>
      <trkpt lat="47.1668450" lon="6.8288600">
        <ele>915.6</ele>
        <time>2022-07-21T12:30:44Z</time>
      </trkpt>
      <trkpt lat="47.1668380" lon="6.8288500">
        <ele>915.7</ele>
        <time>2022-07-21T12:30:45Z</time>
      </trkpt>
      <trkpt lat="47.1668180" lon="6.8288180">
        <ele>915.8</ele>
        <time>2022-07-21T12:30:46Z</time>
      </trkpt>
      <trkpt lat="47.1668100" lon="6.8288070">
        <ele>915.8</ele>
        <time>2022-07-21T12:30:47Z</time>
      </trkpt>
      <trkpt lat="47.1667910" lon="6.8287780">
        <ele>916.0</ele>
        <time>2022-07-21T12:30:48Z</time>
      </trkpt>
      <trkpt lat="47.1667850" lon="6.8287680">
        <ele>916.0</ele>
        <time>2022-07-21T12:30:49Z</time>
      </trkpt>
      <trkpt lat="47.1667650" lon="6.8287340">
        <ele>916.1</ele>
        <time>2022-07-21T12:30:50Z</time>
      </trkpt>
      <trkpt lat="47.1667580" lon="6.8287230">
        <ele>916.2</ele>
        <time>2022-07-21T12:30:51Z</time>
      </trkpt>
      <trkpt lat="47.1667390" lon="6.8286950">
        <ele>916.3</ele>
        <time>2022-07-21T12:30:52Z</time>
      </trkpt>
      <trkpt lat="47.1667310" lon="6.8286830">
        <ele>916.3</ele>
        <time>2022-07-21T12:30:53Z</time>
      </trkpt>
      <trkpt lat="47.1667110" lon="6.8286500">
        <ele>916.4</ele>
        <time>2022-07-21T12:30:54Z</time>
      </trkpt>
      <trkpt lat="47.1667040" lon="6.8286400">
        <ele>916.5</ele>
        <time>2022-07-21T12:30:55Z</time>
      </trkpt>
      <trkpt lat="47.1666930" lon="6.8286230">
        <ele>916.5</ele>
        <time>2022-07-21T12:30:56Z</time>
      </trkpt>
      <trkpt lat="47.1666810" lon="6.8286030">
        <ele>916.5</ele>
        <time>2022-07-21T12:30:57Z</time>
      </trkpt>
      <trkpt lat="47.1666600" lon="6.8285700">
        <ele>916.6</ele>
        <time>2022-07-21T12:30:58Z</time>
      </trkpt>
      <trkpt lat="47.1666510" lon="6.8285600">
        <ele>916.6</ele>
        <time>2022-07-21T12:30:59Z</time>
      </trkpt>
      <trkpt lat="47.1666230" lon="6.8285300">
        <ele>916.7</ele>
        <time>2022-07-21T12:31:00Z</time>
      </trkpt>
      <trkpt lat="47.1666130" lon="6.8285190">
        <ele>916.7</ele>
        <time>2022-07-21T12:31:01Z</time>
      </trkpt>
      <trkpt lat="47.1665910" lon="6.8284880">
        <ele>916.8</ele>
        <time>2022-07-21T12:31:02Z</time>
      </trkpt>
      <trkpt lat="47.1665850" lon="6.8284800">
        <ele>916.8</ele>
        <time>2022-07-21T12:31:03Z</time>
      </trkpt>
      <trkpt lat="47.1665600" lon="6.8284350">
        <ele>916.8</ele>
        <time>2022-07-21T12:31:04Z</time>
      </trkpt>
      <trkpt lat="47.1665520" lon="6.8284190">
        <ele>916.8</ele>
        <time>2022-07-21T12:31:05Z</time>
      </trkpt>
      <trkpt lat="47.1665330" lon="6.8283880">
        <ele>916.9</ele>
        <time>2022-07-21T12:31:06Z</time>
      </trkpt>
      <trkpt lat="47.1665040" lon="6.8283520">
        <ele>916.9</ele>
        <time>2022-07-21T12:31:07Z</time>
      </trkpt>
      <trkpt lat="47.1664950" lon="6.8283420">
        <ele>916.9</ele>
        <time>2022-07-21T12:31:08Z</time>
      </trkpt>
      <trkpt lat="47.1664710" lon="6.8283080">
        <ele>916.9</ele>
        <time>2022-07-21T12:31:09Z</time>
      </trkpt>
      <trkpt lat="47.1664640" lon="6.8282970">
        <ele>916.9</ele>
        <time>2022-07-21T12:31:10Z</time>
      </trkpt>
      <trkpt lat="47.1664450" lon="6.8282600">
        <ele>916.9</ele>
        <time>2022-07-21T12:31:11Z</time>
      </trkpt>
      <trkpt lat="47.1664380" lon="6.8282470">
        <ele>916.9</ele>
        <time>2022-07-21T12:31:12Z</time>
      </trkpt>
      <trkpt lat="47.1664200" lon="6.8282170">
        <ele>916.8</ele>
        <time>2022-07-21T12:31:13Z</time>
      </trkpt>
      <trkpt lat="47.1664000" lon="6.8281890">
        <ele>916.8</ele>
        <time>2022-07-21T12:31:14Z</time>
      </trkpt>
      <trkpt lat="47.1663790" lon="6.8281590">
        <ele>916.8</ele>
        <time>2022-07-21T12:31:15Z</time>
      </trkpt>
      <trkpt lat="47.1663560" lon="6.8281220">
        <ele>916.8</ele>
        <time>2022-07-21T12:31:16Z</time>
      </trkpt>
      <trkpt lat="47.1663450" lon="6.8281040">
        <ele>916.7</ele>
        <time>2022-07-21T12:31:17Z</time>
      </trkpt>
      <trkpt lat="47.1663260" lon="6.8280620">
        <ele>916.7</ele>
        <time>2022-07-21T12:31:18Z</time>
      </trkpt>
      <trkpt lat="47.1663110" lon="6.8280220">
        <ele>916.7</ele>
        <time>2022-07-21T12:31:19Z</time>
      </trkpt>
      <trkpt lat="47.1663000" lon="6.8279800">
        <ele>916.6</ele>
        <time>2022-07-21T12:31:20Z</time>
      </trkpt>
      <trkpt lat="47.1662910" lon="6.8279380">
        <ele>916.6</ele>
        <time>2022-07-21T12:31:21Z</time>
      </trkpt>
      <trkpt lat="47.1662850" lon="6.8278970">
        <ele>916.6</ele>
        <time>2022-07-21T12:31:22Z</time>
      </trkpt>
      <trkpt lat="47.1662860" lon="6.8278410">
        <ele>916.6</ele>
        <time>2022-07-21T12:31:23Z</time>
      </trkpt>
      <trkpt lat="47.1662860" lon="6.8278210">
        <ele>916.6</ele>
        <time>2022-07-21T12:31:24Z</time>
      </trkpt>
      <trkpt lat="47.1662990" lon="6.8277670">
        <ele>916.6</ele>
        <time>2022-07-21T12:31:25Z</time>
      </trkpt>
      <trkpt lat="47.1663040" lon="6.8277480">
        <ele>916.6</ele>
        <time>2022-07-21T12:31:26Z</time>
      </trkpt>
      <trkpt lat="47.1663190" lon="6.8277120">
        <ele>916.6</ele>
        <time>2022-07-21T12:31:27Z</time>
      </trkpt>
      <trkpt lat="47.1663430" lon="6.8276730">
        <ele>916.7</ele>
        <time>2022-07-21T12:31:28Z</time>
      </trkpt>
      <trkpt lat="47.1663510" lon="6.8276620">
        <ele>916.7</ele>
        <time>2022-07-21T12:31:29Z</time>
      </trkpt>
      <trkpt lat="47.1663690" lon="6.8276440">
        <ele>916.7</ele>
        <time>2022-07-21T12:31:30Z</time>
      </trkpt>
      <trkpt lat="47.1663800" lon="6.8276390">
        <ele>916.7</ele>
        <time>2022-07-21T12:31:31Z</time>
      </trkpt>
      <trkpt lat="47.1663950" lon="6.8276390">
        <ele>916.7</ele>
        <time>2022-07-21T12:31:32Z</time>
      </trkpt>
      <trkpt lat="47.1664120" lon="6.8276370">
        <ele>916.7</ele>
        <time>2022-07-21T12:31:33Z</time>
      </trkpt>
      <trkpt lat="47.1664200" lon="6.8276400">
        <ele>916.6</ele>
        <time>2022-07-21T12:31:35Z</time>
      </trkpt>
      <trkpt lat="47.1664190" lon="6.8276410">
        <ele>916.6</ele>
        <time>2022-07-21T12:31:36Z</time>
      </trkpt>
      <trkpt lat="47.1664180" lon="6.8276430">
        <ele>916.6</ele>
        <time>2022-07-21T12:31:37Z</time>
      </trkpt>
      <trkpt lat="47.1664160" lon="6.8276440">
        <ele>916.6</ele>
        <time>2022-07-21T12:31:38Z</time>
      </trkpt>
      <trkpt lat="47.1664140" lon="6.8276470">
        <ele>916.6</ele>
        <time>2022-07-21T12:31:39Z</time>
      </trkpt>
      <trkpt lat="47.1664120" lon="6.8276480">
        <ele>916.6</ele>
        <time>2022-07-21T12:31:40Z</time>
      </trkpt>
      <trkpt lat="47.1664110" lon="6.8276490">
        <ele>916.6</ele>
        <time>2022-07-21T12:31:41Z</time>
      </trkpt>
      <trkpt lat="47.1664100" lon="6.8276480">
        <ele>916.6</ele>
        <time>2022-07-21T12:31:42Z</time>
      </trkpt>
      <trkpt lat="47.1664110" lon="6.8276480">
        <ele>916.6</ele>
        <time>2022-07-21T12:31:43Z</time>
      </trkpt>
      <trkpt lat="47.1664390" lon="6.8276490">
        <ele>916.5</ele>
        <time>2022-07-21T12:32:03Z</time>
      </trkpt>
      <trkpt lat="47.1664410" lon="6.8276480">
        <ele>916.5</ele>
        <time>2022-07-21T12:32:04Z</time>
      </trkpt>
      <trkpt lat="47.1664420" lon="6.8276450">
        <ele>916.5</ele>
        <time>2022-07-21T12:32:05Z</time>
      </trkpt>
      <trkpt lat="47.1664440" lon="6.8276420">
        <ele>916.4</ele>
        <time>2022-07-21T12:32:06Z</time>
      </trkpt>
      <trkpt lat="47.1664450" lon="6.8276400">
        <ele>916.4</ele>
        <time>2022-07-21T12:32:07Z</time>
      </trkpt>
      <trkpt lat="47.1664450" lon="6.8276380">
        <ele>916.4</ele>
        <time>2022-07-21T12:32:08Z</time>
      </trkpt>
      <trkpt lat="47.1664450" lon="6.8276360">
        <ele>916.4</ele>
        <time>2022-07-21T12:32:09Z</time>
      </trkpt>
      <trkpt lat="47.1664450" lon="6.8276370">
        <ele>916.4</ele>
        <time>2022-07-21T12:32:10Z</time>
      </trkpt>
      <trkpt lat="47.1664460" lon="6.8276370">
        <ele>916.4</ele>
        <time>2022-07-21T12:32:11Z</time>
      </trkpt>
      <trkpt lat="47.1664460" lon="6.8276370">
        <ele>916.4</ele>
        <time>2022-07-21T12:32:12Z</time>
      </trkpt>
      <trkpt lat="47.1664460" lon="6.8276370">
        <ele>916.4</ele>
        <time>2022-07-21T12:32:13Z</time>
      </trkpt>
      <trkpt lat="47.1664460" lon="6.8276380">
        <ele>916.4</ele>
        <time>2022-07-21T12:32:14Z</time>
      </trkpt>
      <trkpt lat="47.1664460" lon="6.8276380">
        <ele>916.4</ele>
        <time>2022-07-21T12:32:15Z</time>
      </trkpt>
      <trkpt lat="47.1664460" lon="6.8276380">
        <ele>916.4</ele>
        <time>2022-07-21T12:32:16Z</time>
      </trkpt>
      <trkpt lat="47.1664460" lon="6.8276380">
        <ele>916.4</ele>
        <time>2022-07-21T12:32:17Z</time>
      </trkpt>
      <trkpt lat="47.1664460" lon="6.8276380">
        <ele>916.4</ele>
        <time>2022-07-21T12:32:18Z</time>
      </trkpt>
      <trkpt lat="47.1664460" lon="6.8276380">
        <ele>916.4</ele>
        <time>2022-07-21T12:32:19Z</time>
      </trkpt>
      <trkpt lat="47.1664460" lon="6.8276380">
        <ele>916.4</ele>
        <time>2022-07-21T12:32:20Z</time>
      </trkpt>
      <trkpt lat="47.1664460" lon="6.8276380">
        <ele>916.4</ele>
        <time>2022-07-21T12:32:21Z</time>
      </trkpt>
      <trkpt lat="47.1664460" lon="6.8276380">
        <ele>916.4</ele>
        <time>2022-07-21T12:32:22Z</time>
      </trkpt>
      <trkpt lat="47.1664460" lon="6.8276380">
        <ele>916.4</ele>
        <time>2022-07-21T12:32:23Z</time>
      </trkpt>
      <trkpt lat="47.1664460" lon="6.8276380">
        <ele>916.4</ele>
        <time>2022-07-21T12:32:24Z</time>
      </trkpt>
      <trkpt lat="47.1664460" lon="6.8276380">
        <ele>916.4</ele>
        <time>2022-07-21T12:32:25Z</time>
      </trkpt>
      <trkpt lat="47.1664460" lon="6.8276380">
        <ele>916.4</ele>
        <time>2022-07-21T12:32:26Z</time>
      </trkpt>
      <trkpt lat="47.1664460" lon="6.8276380">
        <ele>916.4</ele>
        <time>2022-07-21T12:32:27Z</time>
      </trkpt>
      <trkpt lat="47.1664460" lon="6.8276380">
        <ele>916.4</ele>
        <time>2022-07-21T12:32:28Z</time>
      </trkpt>
      <trkpt lat="47.1664460" lon="6.8276380">
        <ele>916.4</ele>
        <time>2022-07-21T12:32:29Z</time>
      </trkpt>
      <trkpt lat="47.1664460" lon="6.8276380">
        <ele>916.4</ele>
        <time>2022-07-21T12:32:30Z</time>
      </trkpt>
      <trkpt lat="47.1664460" lon="6.8276380">
        <ele>916.4</ele>
        <time>2022-07-21T12:32:31Z</time>
      </trkpt>
      <trkpt lat="47.1664460" lon="6.8276380">
        <ele>916.4</ele>
        <time>2022-07-21T12:32:32Z</time>
      </trkpt>
      <trkpt lat="47.1664460" lon="6.8276380">
        <ele>916.4</ele>
        <time>2022-07-21T12:32:33Z</time>
      </trkpt>
      <trkpt lat="47.1664460" lon="6.8276380">
        <ele>916.4</ele>
        <time>2022-07-21T12:32:34Z</time>
      </trkpt>
      <trkpt lat="47.1664460" lon="6.8276380">
        <ele>916.4</ele>
        <time>2022-07-21T12:32:35Z</time>
      </trkpt>
      <trkpt lat="47.1664460" lon="6.8276380">
        <ele>916.4</ele>
        <time>2022-07-21T12:32:36Z</time>
      </trkpt>
      <trkpt lat="47.1664460" lon="6.8276380">
        <ele>916.4</ele>
        <time>2022-07-21T12:32:37Z</time>
      </trkpt>
      <trkpt lat="47.1664470" lon="6.8276380">
        <ele>916.4</ele>
        <time>2022-07-21T12:32:38Z</time>
      </trkpt>
      <trkpt lat="47.1664480" lon="6.8276410">
        <ele>916.4</ele>
        <time>2022-07-21T12:32:39Z</time>
      </trkpt>
      <trkpt lat="47.1664470" lon="6.8276450">
        <ele>916.4</ele>
        <time>2022-07-21T12:32:40Z</time>
      </trkpt>
      <trkpt lat="47.1664480" lon="6.8276500">
        <ele>916.4</ele>
        <time>2022-07-21T12:32:41Z</time>
      </trkpt>
      <trkpt lat="47.1664490" lon="6.8276510">
        <ele>916.4</ele>
        <time>2022-07-21T12:32:42Z</time>
      </trkpt>
      <trkpt lat="47.1664500" lon="6.8276510">
        <ele>916.4</ele>
        <time>2022-07-21T12:32:43Z</time>
      </trkpt>
      <trkpt lat="47.1664510" lon="6.8276520">
        <ele>916.4</ele>
        <time>2022-07-21T12:32:44Z</time>
      </trkpt>
      <trkpt lat="47.1664530" lon="6.8276530">
        <ele>916.3</ele>
        <time>2022-07-21T12:32:45Z</time>
      </trkpt>
      <trkpt lat="47.1664540" lon="6.8276520">
        <ele>916.3</ele>
        <time>2022-07-21T12:32:46Z</time>
      </trkpt>
      <trkpt lat="47.1664540" lon="6.8276520">
        <ele>916.3</ele>
        <time>2022-07-21T12:32:47Z</time>
      </trkpt>
      <trkpt lat="47.1664530" lon="6.8276530">
        <ele>916.3</ele>
        <time>2022-07-21T12:32:48Z</time>
      </trkpt>
      <trkpt lat="47.1664520" lon="6.8276530">
        <ele>916.3</ele>
        <time>2022-07-21T12:32:49Z</time>
      </trkpt>
      <trkpt lat="47.1664520" lon="6.8276520">
        <ele>916.3</ele>
        <time>2022-07-21T12:32:50Z</time>
      </trkpt>
      <trkpt lat="47.1664530" lon="6.8276520">
        <ele>916.3</ele>
        <time>2022-07-21T12:32:51Z</time>
      </trkpt>
      <trkpt lat="47.1664530" lon="6.8276520">
        <ele>916.3</ele>
        <time>2022-07-21T12:32:52Z</time>
      </trkpt>
      <trkpt lat="47.1664550" lon="6.8276510">
        <ele>916.3</ele>
        <time>2022-07-21T12:32:53Z</time>
      </trkpt>
      <trkpt lat="47.1664570" lon="6.8276510">
        <ele>916.3</ele>
        <time>2022-07-21T12:32:54Z</time>
      </trkpt>
      <trkpt lat="47.1664590" lon="6.8276490">
        <ele>916.3</ele>
        <time>2022-07-21T12:32:55Z</time>
      </trkpt>
      <trkpt lat="47.1664600" lon="6.8276480">
        <ele>916.3</ele>
        <time>2022-07-21T12:32:56Z</time>
      </trkpt>
      <trkpt lat="47.1664600" lon="6.8276460">
        <ele>916.3</ele>
        <time>2022-07-21T12:32:57Z</time>
      </trkpt>
      <trkpt lat="47.1664590" lon="6.8276450">
        <ele>916.3</ele>
        <time>2022-07-21T12:32:58Z</time>
      </trkpt>
      <trkpt lat="47.1664590" lon="6.8276450">
        <ele>916.3</ele>
        <time>2022-07-21T12:32:59Z</time>
      </trkpt>
      <trkpt lat="47.1664580" lon="6.8276440">
        <ele>916.3</ele>
        <time>2022-07-21T12:33:00Z</time>
      </trkpt>
      <trkpt lat="47.1664280" lon="6.8276190">
        <ele>916.1</ele>
        <time>2022-07-21T12:35:11Z</time>
      </trkpt>
      <trkpt lat="47.1663960" lon="6.8275980">
        <ele>916.0</ele>
        <time>2022-07-21T12:35:12Z</time>
      </trkpt>
      <trkpt lat="47.1663670" lon="6.8275930">
        <ele>915.8</ele>
        <time>2022-07-21T12:35:13Z</time>
      </trkpt>
      <trkpt lat="47.1663580" lon="6.8275940">
        <ele>915.8</ele>
        <time>2022-07-21T12:35:14Z</time>
      </trkpt>
      <trkpt lat="47.1663410" lon="6.8276050">
        <ele>915.7</ele>
        <time>2022-07-21T12:35:15Z</time>
      </trkpt>
      <trkpt lat="47.1663280" lon="6.8276130">
        <ele>915.6</ele>
        <time>2022-07-21T12:35:16Z</time>
      </trkpt>
      <trkpt lat="47.1663160" lon="6.8276180">
        <ele>915.6</ele>
        <time>2022-07-21T12:35:17Z</time>
      </trkpt>
      <trkpt lat="47.1663030" lon="6.8276240">
        <ele>915.5</ele>
        <time>2022-07-21T12:35:18Z</time>
      </trkpt>
      <trkpt lat="47.1662970" lon="6.8276320">
        <ele>915.5</ele>
        <time>2022-07-21T12:35:19Z</time>
      </trkpt>
      <trkpt lat="47.1662910" lon="6.8276340">
        <ele>915.4</ele>
        <time>2022-07-21T12:35:20Z</time>
      </trkpt>
      <trkpt lat="47.1662850" lon="6.8276350">
        <ele>915.4</ele>
        <time>2022-07-21T12:35:21Z</time>
      </trkpt>
      <trkpt lat="47.1662780" lon="6.8276370">
        <ele>915.4</ele>
        <time>2022-07-21T12:35:22Z</time>
      </trkpt>
      <trkpt lat="47.1662720" lon="6.8276380">
        <ele>915.4</ele>
        <time>2022-07-21T12:35:23Z</time>
      </trkpt>
      <trkpt lat="47.1662660" lon="6.8276390">
        <ele>915.3</ele>
        <time>2022-07-21T12:35:24Z</time>
      </trkpt>
      <trkpt lat="47.1662590" lon="6.8276410">
        <ele>915.3</ele>
        <time>2022-07-21T12:35:25Z</time>
      </trkpt>
      <trkpt lat="47.1662530" lon="6.8276420">
        <ele>915.3</ele>
        <time>2022-07-21T12:35:26Z</time>
      </trkpt>
      <trkpt lat="47.1662470" lon="6.8276430">
        <ele>915.2</ele>
        <time>2022-07-21T12:35:27Z</time>
      </trkpt>
      <trkpt lat="47.1662400" lon="6.8276450">
        <ele>915.2</ele>
        <time>2022-07-21T12:35:28Z</time>
      </trkpt>
      <trkpt lat="47.1662340" lon="6.8276460">
        <ele>915.2</ele>
        <time>2022-07-21T12:37:35Z</time>
      </trkpt>
      <trkpt lat="47.1662280" lon="6.8276470">
        <ele>915.1</ele>
        <time>2022-07-21T12:37:36Z</time>
      </trkpt>
      <trkpt lat="47.1662210" lon="6.8276490">
        <ele>915.1</ele>
        <time>2022-07-21T12:37:37Z</time>
      </trkpt>
      <trkpt lat="47.1661960" lon="6.8276640">
        <ele>915.0</ele>
        <time>2022-07-21T12:37:38Z</time>
      </trkpt>
      <trkpt lat="47.1661690" lon="6.8276820">
        <ele>914.8</ele>
        <time>2022-07-21T12:37:39Z</time>
      </trkpt>
      <trkpt lat="47.1661370" lon="6.8277040">
        <ele>914.7</ele>
        <time>2022-07-21T12:37:40Z</time>
      </trkpt>
      <trkpt lat="47.1661020" lon="6.8277260">
        <ele>914.5</ele>
        <time>2022-07-21T12:37:41Z</time>
      </trkpt>
      <trkpt lat="47.1660570" lon="6.8277520">
        <ele>914.1</ele>
        <time>2022-07-21T12:37:42Z</time>
      </trkpt>
      <trkpt lat="47.1660180" lon="6.8277700">
        <ele>913.8</ele>
        <time>2022-07-21T12:37:43Z</time>
      </trkpt>
      <trkpt lat="47.1659720" lon="6.8277960">
        <ele>913.4</ele>
        <time>2022-07-21T12:37:44Z</time>
      </trkpt>
      <trkpt lat="47.1659180" lon="6.8278280">
        <ele>912.9</ele>
        <time>2022-07-21T12:37:45Z</time>
      </trkpt>
      <trkpt lat="47.1658610" lon="6.8278680">
        <ele>912.4</ele>
        <time>2022-07-21T12:37:46Z</time>
      </trkpt>
      <trkpt lat="47.1658080" lon="6.8279050">
        <ele>911.9</ele>
        <time>2022-07-21T12:37:47Z</time>
      </trkpt>
      <trkpt lat="47.1657530" lon="6.8279430">
        <ele>911.4</ele>
        <time>2022-07-21T12:37:48Z</time>
      </trkpt>
      <trkpt lat="47.1656910" lon="6.8279830">
        <ele>910.9</ele>
        <time>2022-07-21T12:37:49Z</time>
      </trkpt>
      <trkpt lat="47.1656260" lon="6.8280250">
        <ele>910.3</ele>
        <time>2022-07-21T12:37:50Z</time>
      </trkpt>
      <trkpt lat="47.1655570" lon="6.8280800">
        <ele>909.6</ele>
        <time>2022-07-21T12:37:51Z</time>
      </trkpt>
      <trkpt lat="47.1654930" lon="6.8281280">
        <ele>908.9</ele>
        <time>2022-07-21T12:37:52Z</time>
      </trkpt>
      <trkpt lat="47.1654240" lon="6.8281790">
        <ele>908.3</ele>
        <time>2022-07-21T12:37:53Z</time>
      </trkpt>
      <trkpt lat="47.1653530" lon="6.8282320">
        <ele>907.7</ele>
        <time>2022-07-21T12:37:54Z</time>
      </trkpt>
      <trkpt lat="47.1652770" lon="6.8282850">
        <ele>907.2</ele>
        <time>2022-07-21T12:37:55Z</time>
      </trkpt>
      <trkpt lat="47.1652010" lon="6.8283390">
        <ele>906.7</ele>
        <time>2022-07-21T12:37:56Z</time>
      </trkpt>
      <trkpt lat="47.1651250" lon="6.8283950">
        <ele>906.2</ele>
        <time>2022-07-21T12:37:57Z</time>
      </trkpt>
      <trkpt lat="47.1650480" lon="6.8284570">
        <ele>905.8</ele>
        <time>2022-07-21T12:37:58Z</time>
      </trkpt>
      <trkpt lat="47.1649650" lon="6.8285160">
        <ele>905.3</ele>
        <time>2022-07-21T12:37:59Z</time>
      </trkpt>
      <trkpt lat="47.1648820" lon="6.8285820">
        <ele>904.9</ele>
        <time>2022-07-21T12:38:00Z</time>
      </trkpt>
      <trkpt lat="47.1648000" lon="6.8286410">
        <ele>904.5</ele>
        <time>2022-07-21T12:38:01Z</time>
      </trkpt>
      <trkpt lat="47.1647120" lon="6.8286920">
        <ele>904.2</ele>
        <time>2022-07-21T12:38:02Z</time>
      </trkpt>
      <trkpt lat="47.1646170" lon="6.8287310">
        <ele>903.9</ele>
        <time>2022-07-21T12:38:03Z</time>
      </trkpt>
      <trkpt lat="47.1645270" lon="6.8287560">
        <ele>903.7</ele>
        <time>2022-07-21T12:38:04Z</time>
      </trkpt>
      <trkpt lat="47.1644360" lon="6.8287620">
        <ele>903.5</ele>
        <time>2022-07-21T12:38:05Z</time>
      </trkpt>
      <trkpt lat="47.1643370" lon="6.8287530">
        <ele>903.3</ele>
        <time>2022-07-21T12:38:06Z</time>
      </trkpt>
      <trkpt lat="47.1642530" lon="6.8287130">
        <ele>903.2</ele>
        <time>2022-07-21T12:38:07Z</time>
      </trkpt>
      <trkpt lat="47.1641730" lon="6.8286550">
        <ele>903.1</ele>
        <time>2022-07-21T12:38:08Z</time>
      </trkpt>
      <trkpt lat="47.1640990" lon="6.8286020">
        <ele>903.0</ele>
        <time>2022-07-21T12:38:09Z</time>
      </trkpt>
      <trkpt lat="47.1640230" lon="6.8285490">
        <ele>902.9</ele>
        <time>2022-07-21T12:38:10Z</time>
      </trkpt>
      <trkpt lat="47.1639450" lon="6.8284980">
        <ele>902.8</ele>
        <time>2022-07-21T12:38:11Z</time>
      </trkpt>
      <trkpt lat="47.1638700" lon="6.8284560">
        <ele>902.7</ele>
        <time>2022-07-21T12:38:12Z</time>
      </trkpt>
      <trkpt lat="47.1637950" lon="6.8284130">
        <ele>902.6</ele>
        <time>2022-07-21T12:38:13Z</time>
      </trkpt>
      <trkpt lat="47.1637260" lon="6.8283770">
        <ele>902.6</ele>
        <time>2022-07-21T12:38:14Z</time>
      </trkpt>
      <trkpt lat="47.1636560" lon="6.8283550">
        <ele>902.5</ele>
        <time>2022-07-21T12:38:15Z</time>
      </trkpt>
      <trkpt lat="47.1635780" lon="6.8283450">
        <ele>902.5</ele>
        <time>2022-07-21T12:38:16Z</time>
      </trkpt>
      <trkpt lat="47.1635100" lon="6.8283560">
        <ele>902.5</ele>
        <time>2022-07-21T12:38:17Z</time>
      </trkpt>
      <trkpt lat="47.1634400" lon="6.8283880">
        <ele>902.5</ele>
        <time>2022-07-21T12:38:18Z</time>
      </trkpt>
      <trkpt lat="47.1633790" lon="6.8284260">
        <ele>902.5</ele>
        <time>2022-07-21T12:38:19Z</time>
      </trkpt>
      <trkpt lat="47.1633190" lon="6.8284630">
        <ele>902.6</ele>
        <time>2022-07-21T12:38:20Z</time>
      </trkpt>
      <trkpt lat="47.1632610" lon="6.8285010">
        <ele>902.7</ele>
        <time>2022-07-21T12:38:21Z</time>
      </trkpt>
      <trkpt lat="47.1632100" lon="6.8285420">
        <ele>902.7</ele>
        <time>2022-07-21T12:38:22Z</time>
      </trkpt>
      <trkpt lat="47.1631630" lon="6.8285880">
        <ele>902.9</ele>
        <time>2022-07-21T12:38:23Z</time>
      </trkpt>
      <trkpt lat="47.1631200" lon="6.8286310">
        <ele>903.0</ele>
        <time>2022-07-21T12:38:24Z</time>
      </trkpt>
      <trkpt lat="47.1630810" lon="6.8286770">
        <ele>903.2</ele>
        <time>2022-07-21T12:38:25Z</time>
      </trkpt>
      <trkpt lat="47.1630440" lon="6.8287250">
        <ele>903.3</ele>
        <time>2022-07-21T12:38:26Z</time>
      </trkpt>
      <trkpt lat="47.1630080" lon="6.8287660">
        <ele>903.5</ele>
        <time>2022-07-21T12:38:27Z</time>
      </trkpt>
      <trkpt lat="47.1629720" lon="6.8288060">
        <ele>903.6</ele>
        <time>2022-07-21T12:38:28Z</time>
      </trkpt>
      <trkpt lat="47.1629410" lon="6.8288420">
        <ele>903.8</ele>
        <time>2022-07-21T12:38:29Z</time>
      </trkpt>
      <trkpt lat="47.1629100" lon="6.8288760">
        <ele>904.0</ele>
        <time>2022-07-21T12:38:30Z</time>
      </trkpt>
      <trkpt lat="47.1628800" lon="6.8289080">
        <ele>904.2</ele>
        <time>2022-07-21T12:38:31Z</time>
      </trkpt>
      <trkpt lat="47.1628560" lon="6.8289380">
        <ele>904.3</ele>
        <time>2022-07-21T12:38:32Z</time>
      </trkpt>
      <trkpt lat="47.1628330" lon="6.8289630">
        <ele>904.5</ele>
        <time>2022-07-21T12:38:33Z</time>
      </trkpt>
      <trkpt lat="47.1628030" lon="6.8290020">
        <ele>904.7</ele>
        <time>2022-07-21T12:38:34Z</time>
      </trkpt>
      <trkpt lat="47.1627930" lon="6.8290160">
        <ele>904.8</ele>
        <time>2022-07-21T12:38:35Z</time>
      </trkpt>
      <trkpt lat="47.1627680" lon="6.8290530">
        <ele>905.0</ele>
        <time>2022-07-21T12:38:36Z</time>
      </trkpt>
      <trkpt lat="47.1627600" lon="6.8290660">
        <ele>905.1</ele>
        <time>2022-07-21T12:38:37Z</time>
      </trkpt>
      <trkpt lat="47.1627320" lon="6.8291010">
        <ele>905.3</ele>
        <time>2022-07-21T12:38:38Z</time>
      </trkpt>
      <trkpt lat="47.1627210" lon="6.8291110">
        <ele>905.4</ele>
        <time>2022-07-21T12:38:39Z</time>
      </trkpt>
      <trkpt lat="47.1627070" lon="6.8291310">
        <ele>905.5</ele>
        <time>2022-07-21T12:38:40Z</time>
      </trkpt>
      <trkpt lat="47.1626950" lon="6.8291450">
        <ele>905.7</ele>
        <time>2022-07-21T12:38:41Z</time>
      </trkpt>
      <trkpt lat="47.1626740" lon="6.8291730">
        <ele>905.9</ele>
        <time>2022-07-21T12:38:42Z</time>
      </trkpt>
      <trkpt lat="47.1626660" lon="6.8291820">
        <ele>906.0</ele>
        <time>2022-07-21T12:38:43Z</time>
      </trkpt>
      <trkpt lat="47.1626400" lon="6.8292140">
        <ele>906.2</ele>
        <time>2022-07-21T12:38:44Z</time>
      </trkpt>
      <trkpt lat="47.1626320" lon="6.8292220">
        <ele>906.3</ele>
        <time>2022-07-21T12:38:45Z</time>
      </trkpt>
      <trkpt lat="47.1626070" lon="6.8292480">
        <ele>906.5</ele>
        <time>2022-07-21T12:38:46Z</time>
      </trkpt>
      <trkpt lat="47.1625990" lon="6.8292580">
        <ele>906.6</ele>
        <time>2022-07-21T12:38:47Z</time>
      </trkpt>
      <trkpt lat="47.1625870" lon="6.8292760">
        <ele>906.8</ele>
        <time>2022-07-21T12:38:48Z</time>
      </trkpt>
      <trkpt lat="47.1625730" lon="6.8292930">
        <ele>906.9</ele>
        <time>2022-07-21T12:38:49Z</time>
      </trkpt>
      <trkpt lat="47.1625620" lon="6.8293090">
        <ele>907.1</ele>
        <time>2022-07-21T12:38:50Z</time>
      </trkpt>
      <trkpt lat="47.1625530" lon="6.8293230">
        <ele>907.2</ele>
        <time>2022-07-21T12:38:51Z</time>
      </trkpt>
      <trkpt lat="47.1625450" lon="6.8293360">
        <ele>907.3</ele>
        <time>2022-07-21T12:38:52Z</time>
      </trkpt>
      <trkpt lat="47.1625320" lon="6.8293550">
        <ele>907.5</ele>
        <time>2022-07-21T12:38:53Z</time>
      </trkpt>
      <trkpt lat="47.1625240" lon="6.8293700">
        <ele>907.6</ele>
        <time>2022-07-21T12:38:54Z</time>
      </trkpt>
      <trkpt lat="47.1625140" lon="6.8293890">
        <ele>907.8</ele>
        <time>2022-07-21T12:38:55Z</time>
      </trkpt>
      <trkpt lat="47.1625010" lon="6.8294160">
        <ele>908.0</ele>
        <time>2022-07-21T12:38:56Z</time>
      </trkpt>
      <trkpt lat="47.1624950" lon="6.8294270">
        <ele>908.1</ele>
        <time>2022-07-21T12:38:57Z</time>
      </trkpt>
      <trkpt lat="47.1624900" lon="6.8294380">
        <ele>908.2</ele>
        <time>2022-07-21T12:38:58Z</time>
      </trkpt>
      <trkpt lat="47.1624790" lon="6.8294540">
        <ele>908.4</ele>
        <time>2022-07-21T12:38:59Z</time>
      </trkpt>
      <trkpt lat="47.1624700" lon="6.8294680">
        <ele>908.5</ele>
        <time>2022-07-21T12:39:00Z</time>
      </trkpt>
      <trkpt lat="47.1624610" lon="6.8294810">
        <ele>908.7</ele>
        <time>2022-07-21T12:39:01Z</time>
      </trkpt>
      <trkpt lat="47.1624500" lon="6.8294950">
        <ele>908.8</ele>
        <time>2022-07-21T12:39:02Z</time>
      </trkpt>
      <trkpt lat="47.1624310" lon="6.8295240">
        <ele>909.1</ele>
        <time>2022-07-21T12:39:03Z</time>
      </trkpt>
      <trkpt lat="47.1624250" lon="6.8295350">
        <ele>909.2</ele>
        <time>2022-07-21T12:39:04Z</time>
      </trkpt>
      <trkpt lat="47.1624150" lon="6.8295600">
        <ele>909.4</ele>
        <time>2022-07-21T12:39:05Z</time>
      </trkpt>
      <trkpt lat="47.1624080" lon="6.8295780">
        <ele>909.6</ele>
        <time>2022-07-21T12:39:06Z</time>
      </trkpt>
      <trkpt lat="47.1623970" lon="6.8296070">
        <ele>909.8</ele>
        <time>2022-07-21T12:39:07Z</time>
      </trkpt>
      <trkpt lat="47.1623930" lon="6.8296170">
        <ele>909.9</ele>
        <time>2022-07-21T12:39:08Z</time>
      </trkpt>
      <trkpt lat="47.1623890" lon="6.8296280">
        <ele>910.0</ele>
        <time>2022-07-21T12:39:09Z</time>
      </trkpt>
      <trkpt lat="47.1623800" lon="6.8296470">
        <ele>910.1</ele>
        <time>2022-07-21T12:39:10Z</time>
      </trkpt>
      <trkpt lat="47.1623710" lon="6.8296620">
        <ele>910.3</ele>
        <time>2022-07-21T12:39:11Z</time>
      </trkpt>
      <trkpt lat="47.1623620" lon="6.8296800">
        <ele>910.4</ele>
        <time>2022-07-21T12:39:12Z</time>
      </trkpt>
      <trkpt lat="47.1623530" lon="6.8297000">
        <ele>910.6</ele>
        <time>2022-07-21T12:39:13Z</time>
      </trkpt>
      <trkpt lat="47.1623420" lon="6.8297300">
        <ele>910.8</ele>
        <time>2022-07-21T12:39:14Z</time>
      </trkpt>
      <trkpt lat="47.1623370" lon="6.8297420">
        <ele>910.9</ele>
        <time>2022-07-21T12:39:15Z</time>
      </trkpt>
      <trkpt lat="47.1623320" lon="6.8297550">
        <ele>911.0</ele>
        <time>2022-07-21T12:39:16Z</time>
      </trkpt>
      <trkpt lat="47.1623250" lon="6.8297740">
        <ele>911.2</ele>
        <time>2022-07-21T12:39:17Z</time>
      </trkpt>
      <trkpt lat="47.1623180" lon="6.8297940">
        <ele>911.3</ele>
        <time>2022-07-21T12:39:18Z</time>
      </trkpt>
      <trkpt lat="47.1623110" lon="6.8298150">
        <ele>911.5</ele>
        <time>2022-07-21T12:39:19Z</time>
      </trkpt>
      <trkpt lat="47.1623030" lon="6.8298350">
        <ele>911.6</ele>
        <time>2022-07-21T12:39:20Z</time>
      </trkpt>
      <trkpt lat="47.1622940" lon="6.8298530">
        <ele>911.8</ele>
        <time>2022-07-21T12:39:21Z</time>
      </trkpt>
      <trkpt lat="47.1622850" lon="6.8298710">
        <ele>911.9</ele>
        <time>2022-07-21T12:39:22Z</time>
      </trkpt>
      <trkpt lat="47.1622710" lon="6.8298970">
        <ele>912.2</ele>
        <time>2022-07-21T12:39:23Z</time>
      </trkpt>
      <trkpt lat="47.1622660" lon="6.8299070">
        <ele>912.2</ele>
        <time>2022-07-21T12:39:24Z</time>
      </trkpt>
      <trkpt lat="47.1622600" lon="6.8299170">
        <ele>912.3</ele>
        <time>2022-07-21T12:39:25Z</time>
      </trkpt>
      <trkpt lat="47.1622510" lon="6.8299330">
        <ele>912.5</ele>
        <time>2022-07-21T12:39:26Z</time>
      </trkpt>
      <trkpt lat="47.1622390" lon="6.8299520">
        <ele>912.6</ele>
        <time>2022-07-21T12:39:27Z</time>
      </trkpt>
      <trkpt lat="47.1622250" lon="6.8299710">
        <ele>912.8</ele>
        <time>2022-07-21T12:39:28Z</time>
      </trkpt>
      <trkpt lat="47.1622120" lon="6.8299870">
        <ele>913.0</ele>
        <time>2022-07-21T12:39:29Z</time>
      </trkpt>
      <trkpt lat="47.1622010" lon="6.8300000">
        <ele>913.1</ele>
        <time>2022-07-21T12:39:30Z</time>
      </trkpt>
      <trkpt lat="47.1621880" lon="6.8300150">
        <ele>913.3</ele>
        <time>2022-07-21T12:39:31Z</time>
      </trkpt>
      <trkpt lat="47.1621720" lon="6.8300300">
        <ele>913.5</ele>
        <time>2022-07-21T12:39:32Z</time>
      </trkpt>
      <trkpt lat="47.1621600" lon="6.8300430">
        <ele>913.6</ele>
        <time>2022-07-21T12:39:33Z</time>
      </trkpt>
      <trkpt lat="47.1621480" lon="6.8300560">
        <ele>913.7</ele>
        <time>2022-07-21T12:39:34Z</time>
      </trkpt>
      <trkpt lat="47.1621370" lon="6.8300710">
        <ele>913.9</ele>
        <time>2022-07-21T12:39:35Z</time>
      </trkpt>
      <trkpt lat="47.1621260" lon="6.8300850">
        <ele>914.0</ele>
        <time>2022-07-21T12:39:36Z</time>
      </trkpt>
      <trkpt lat="47.1621130" lon="6.8300980">
        <ele>914.2</ele>
        <time>2022-07-21T12:39:37Z</time>
      </trkpt>
      <trkpt lat="47.1621010" lon="6.8301090">
        <ele>914.3</ele>
        <time>2022-07-21T12:39:38Z</time>
      </trkpt>
      <trkpt lat="47.1620870" lon="6.8301240">
        <ele>914.4</ele>
        <time>2022-07-21T12:39:39Z</time>
      </trkpt>
      <trkpt lat="47.1620740" lon="6.8301370">
        <ele>914.6</ele>
        <time>2022-07-21T12:39:40Z</time>
      </trkpt>
      <trkpt lat="47.1620630" lon="6.8301460">
        <ele>914.7</ele>
        <time>2022-07-21T12:39:41Z</time>
      </trkpt>
      <trkpt lat="47.1620510" lon="6.8301570">
        <ele>914.8</ele>
        <time>2022-07-21T12:39:42Z</time>
      </trkpt>
      <trkpt lat="47.1620380" lon="6.8301680">
        <ele>915.0</ele>
        <time>2022-07-21T12:39:43Z</time>
      </trkpt>
      <trkpt lat="47.1620150" lon="6.8301930">
        <ele>915.2</ele>
        <time>2022-07-21T12:39:44Z</time>
      </trkpt>
      <trkpt lat="47.1620060" lon="6.8302030">
        <ele>915.3</ele>
        <time>2022-07-21T12:39:45Z</time>
      </trkpt>
      <trkpt lat="47.1619890" lon="6.8302160">
        <ele>915.4</ele>
        <time>2022-07-21T12:39:46Z</time>
      </trkpt>
      <trkpt lat="47.1619760" lon="6.8302270">
        <ele>915.6</ele>
        <time>2022-07-21T12:39:47Z</time>
      </trkpt>
      <trkpt lat="47.1619500" lon="6.8302470">
        <ele>915.8</ele>
        <time>2022-07-21T12:39:48Z</time>
      </trkpt>
      <trkpt lat="47.1619420" lon="6.8302530">
        <ele>915.9</ele>
        <time>2022-07-21T12:39:49Z</time>
      </trkpt>
      <trkpt lat="47.1619250" lon="6.8302620">
        <ele>916.0</ele>
        <time>2022-07-21T12:39:50Z</time>
      </trkpt>
      <trkpt lat="47.1619110" lon="6.8302730">
        <ele>916.1</ele>
        <time>2022-07-21T12:39:51Z</time>
      </trkpt>
      <trkpt lat="47.1618910" lon="6.8302890">
        <ele>916.3</ele>
        <time>2022-07-21T12:39:52Z</time>
      </trkpt>
      <trkpt lat="47.1618860" lon="6.8302950">
        <ele>916.3</ele>
        <time>2022-07-21T12:39:53Z</time>
      </trkpt>
      <trkpt lat="47.1618800" lon="6.8303000">
        <ele>916.4</ele>
        <time>2022-07-21T12:39:54Z</time>
      </trkpt>
      <trkpt lat="47.1618690" lon="6.8303130">
        <ele>916.5</ele>
        <time>2022-07-21T12:39:55Z</time>
      </trkpt>
      <trkpt lat="47.1618570" lon="6.8303260">
        <ele>916.6</ele>
        <time>2022-07-21T12:39:56Z</time>
      </trkpt>
      <trkpt lat="47.1618420" lon="6.8303390">
        <ele>916.8</ele>
        <time>2022-07-21T12:39:57Z</time>
      </trkpt>
      <trkpt lat="47.1618270" lon="6.8303520">
        <ele>916.9</ele>
        <time>2022-07-21T12:39:58Z</time>
      </trkpt>
      <trkpt lat="47.1618140" lon="6.8303610">
        <ele>917.0</ele>
        <time>2022-07-21T12:39:59Z</time>
      </trkpt>
      <trkpt lat="47.1618000" lon="6.8303700">
        <ele>917.1</ele>
        <time>2022-07-21T12:40:00Z</time>
      </trkpt>
      <trkpt lat="47.1617850" lon="6.8303780">
        <ele>917.2</ele>
        <time>2022-07-21T12:40:01Z</time>
      </trkpt>
      <trkpt lat="47.1617690" lon="6.8303900">
        <ele>917.3</ele>
        <time>2022-07-21T12:40:02Z</time>
      </trkpt>
      <trkpt lat="47.1617440" lon="6.8304090">
        <ele>917.5</ele>
        <time>2022-07-21T12:40:03Z</time>
      </trkpt>
      <trkpt lat="47.1617370" lon="6.8304150">
        <ele>917.6</ele>
        <time>2022-07-21T12:40:04Z</time>
      </trkpt>
      <trkpt lat="47.1617150" lon="6.8304360">
        <ele>917.7</ele>
        <time>2022-07-21T12:40:05Z</time>
      </trkpt>
      <trkpt lat="47.1617070" lon="6.8304440">
        <ele>917.8</ele>
        <time>2022-07-21T12:40:06Z</time>
      </trkpt>
      <trkpt lat="47.1616800" lon="6.8304700">
        <ele>917.9</ele>
        <time>2022-07-21T12:40:07Z</time>
      </trkpt>
      <trkpt lat="47.1616740" lon="6.8304770">
        <ele>918.0</ele>
        <time>2022-07-21T12:40:08Z</time>
      </trkpt>
      <trkpt lat="47.1616530" lon="6.8305020">
        <ele>918.1</ele>
        <time>2022-07-21T12:40:09Z</time>
      </trkpt>
      <trkpt lat="47.1616450" lon="6.8305100">
        <ele>918.1</ele>
        <time>2022-07-21T12:40:10Z</time>
      </trkpt>
      <trkpt lat="47.1616290" lon="6.8305280">
        <ele>918.2</ele>
        <time>2022-07-21T12:40:11Z</time>
      </trkpt>
      <trkpt lat="47.1616180" lon="6.8305390">
        <ele>918.3</ele>
        <time>2022-07-21T12:40:12Z</time>
      </trkpt>
      <trkpt lat="47.1616050" lon="6.8305530">
        <ele>918.3</ele>
        <time>2022-07-21T12:40:13Z</time>
      </trkpt>
      <trkpt lat="47.1615940" lon="6.8305660">
        <ele>918.4</ele>
        <time>2022-07-21T12:40:14Z</time>
      </trkpt>
      <trkpt lat="47.1615810" lon="6.8305840">
        <ele>918.5</ele>
        <time>2022-07-21T12:40:15Z</time>
      </trkpt>
      <trkpt lat="47.1615690" lon="6.8306020">
        <ele>918.5</ele>
        <time>2022-07-21T12:40:16Z</time>
      </trkpt>
      <trkpt lat="47.1615480" lon="6.8306330">
        <ele>918.4</ele>
        <time>2022-07-21T12:40:17Z</time>
      </trkpt>
      <trkpt lat="47.1615410" lon="6.8306430">
        <ele>918.4</ele>
        <time>2022-07-21T12:40:18Z</time>
      </trkpt>
      <trkpt lat="47.1615160" lon="6.8306710">
        <ele>918.4</ele>
        <time>2022-07-21T12:40:19Z</time>
      </trkpt>
      <trkpt lat="47.1615060" lon="6.8306830">
        <ele>918.4</ele>
        <time>2022-07-21T12:40:20Z</time>
      </trkpt>
      <trkpt lat="47.1614840" lon="6.8307080">
        <ele>918.4</ele>
        <time>2022-07-21T12:40:21Z</time>
      </trkpt>
      <trkpt lat="47.1614600" lon="6.8307370">
        <ele>918.3</ele>
        <time>2022-07-21T12:40:22Z</time>
      </trkpt>
      <trkpt lat="47.1614320" lon="6.8307670">
        <ele>918.2</ele>
        <time>2022-07-21T12:40:23Z</time>
      </trkpt>
      <trkpt lat="47.1614030" lon="6.8307960">
        <ele>918.1</ele>
        <time>2022-07-21T12:40:24Z</time>
      </trkpt>
      <trkpt lat="47.1613690" lon="6.8308260">
        <ele>917.9</ele>
        <time>2022-07-21T12:40:25Z</time>
      </trkpt>
      <trkpt lat="47.1613360" lon="6.8308580">
        <ele>917.7</ele>
        <time>2022-07-21T12:40:26Z</time>
      </trkpt>
      <trkpt lat="47.1613050" lon="6.8308860">
        <ele>917.5</ele>
        <time>2022-07-21T12:40:27Z</time>
      </trkpt>
      <trkpt lat="47.1612690" lon="6.8309180">
        <ele>917.3</ele>
        <time>2022-07-21T12:40:28Z</time>
      </trkpt>
      <trkpt lat="47.1612300" lon="6.8309450">
        <ele>917.0</ele>
        <time>2022-07-21T12:40:29Z</time>
      </trkpt>
      <trkpt lat="47.1611830" lon="6.8309640">
        <ele>916.6</ele>
        <time>2022-07-21T12:40:30Z</time>
      </trkpt>
      <trkpt lat="47.1611350" lon="6.8309960">
        <ele>916.2</ele>
        <time>2022-07-21T12:40:31Z</time>
      </trkpt>
      <trkpt lat="47.1610780" lon="6.8310270">
        <ele>915.6</ele>
        <time>2022-07-21T12:40:32Z</time>
      </trkpt>
      <trkpt lat="47.1610110" lon="6.8310520">
        <ele>914.9</ele>
        <time>2022-07-21T12:40:33Z</time>
      </trkpt>
      <trkpt lat="47.1609380" lon="6.8310700">
        <ele>914.2</ele>
        <time>2022-07-21T12:40:34Z</time>
      </trkpt>
      <trkpt lat="47.1608550" lon="6.8310820">
        <ele>913.4</ele>
        <time>2022-07-21T12:40:35Z</time>
      </trkpt>
      <trkpt lat="47.1607650" lon="6.8310820">
        <ele>912.7</ele>
        <time>2022-07-21T12:40:36Z</time>
      </trkpt>
      <trkpt lat="47.1606710" lon="6.8310640">
        <ele>912.0</ele>
        <time>2022-07-21T12:40:37Z</time>
      </trkpt>
      <trkpt lat="47.1605770" lon="6.8310450">
        <ele>911.5</ele>
        <time>2022-07-21T12:40:38Z</time>
      </trkpt>
      <trkpt lat="47.1604840" lon="6.8310260">
        <ele>911.1</ele>
        <time>2022-07-21T12:40:39Z</time>
      </trkpt>
      <trkpt lat="47.1603950" lon="6.8310170">
        <ele>911.0</ele>
        <time>2022-07-21T12:40:40Z</time>
      </trkpt>
      <trkpt lat="47.1603090" lon="6.8310120">
        <ele>911.0</ele>
        <time>2022-07-21T12:40:41Z</time>
      </trkpt>
      <trkpt lat="47.1602270" lon="6.8310110">
        <ele>911.1</ele>
        <time>2022-07-21T12:40:42Z</time>
      </trkpt>
      <trkpt lat="47.1601470" lon="6.8310100">
        <ele>911.4</ele>
        <time>2022-07-21T12:40:43Z</time>
      </trkpt>
      <trkpt lat="47.1600770" lon="6.8310130">
        <ele>911.8</ele>
        <time>2022-07-21T12:40:44Z</time>
      </trkpt>
      <trkpt lat="47.1600110" lon="6.8310170">
        <ele>912.1</ele>
        <time>2022-07-21T12:40:45Z</time>
      </trkpt>
      <trkpt lat="47.1599510" lon="6.8310230">
        <ele>912.4</ele>
        <time>2022-07-21T12:40:46Z</time>
      </trkpt>
      <trkpt lat="47.1599030" lon="6.8310270">
        <ele>912.6</ele>
        <time>2022-07-21T12:40:47Z</time>
      </trkpt>
      <trkpt lat="47.1598560" lon="6.8310330">
        <ele>912.8</ele>
        <time>2022-07-21T12:40:48Z</time>
      </trkpt>
      <trkpt lat="47.1598360" lon="6.8310360">
        <ele>912.8</ele>
        <time>2022-07-21T12:40:49Z</time>
      </trkpt>
      <trkpt lat="47.1597970" lon="6.8310470">
        <ele>912.9</ele>
        <time>2022-07-21T12:40:50Z</time>
      </trkpt>
      <trkpt lat="47.1597630" lon="6.8310640">
        <ele>913.0</ele>
        <time>2022-07-21T12:40:51Z</time>
      </trkpt>
      <trkpt lat="47.1597250" lon="6.8310850">
        <ele>913.0</ele>
        <time>2022-07-21T12:40:52Z</time>
      </trkpt>
      <trkpt lat="47.1596930" lon="6.8311060">
        <ele>913.0</ele>
        <time>2022-07-21T12:40:53Z</time>
      </trkpt>
      <trkpt lat="47.1596590" lon="6.8311220">
        <ele>913.0</ele>
        <time>2022-07-21T12:40:54Z</time>
      </trkpt>
      <trkpt lat="47.1596270" lon="6.8311360">
        <ele>912.9</ele>
        <time>2022-07-21T12:40:55Z</time>
      </trkpt>
      <trkpt lat="47.1595920" lon="6.8311480">
        <ele>912.8</ele>
        <time>2022-07-21T12:40:56Z</time>
      </trkpt>
      <trkpt lat="47.1595490" lon="6.8311540">
        <ele>912.6</ele>
        <time>2022-07-21T12:40:57Z</time>
      </trkpt>
      <trkpt lat="47.1595090" lon="6.8311560">
        <ele>912.4</ele>
        <time>2022-07-21T12:40:58Z</time>
      </trkpt>
      <trkpt lat="47.1594690" lon="6.8311590">
        <ele>912.2</ele>
        <time>2022-07-21T12:40:59Z</time>
      </trkpt>
      <trkpt lat="47.1594200" lon="6.8311660">
        <ele>911.9</ele>
        <time>2022-07-21T12:41:00Z</time>
      </trkpt>
      <trkpt lat="47.1593670" lon="6.8311670">
        <ele>911.6</ele>
        <time>2022-07-21T12:41:01Z</time>
      </trkpt>
      <trkpt lat="47.1593110" lon="6.8311670">
        <ele>911.2</ele>
        <time>2022-07-21T12:41:02Z</time>
      </trkpt>
      <trkpt lat="47.1592540" lon="6.8311660">
        <ele>910.9</ele>
        <time>2022-07-21T12:41:03Z</time>
      </trkpt>
      <trkpt lat="47.1591990" lon="6.8311580">
        <ele>910.6</ele>
        <time>2022-07-21T12:41:04Z</time>
      </trkpt>
      <trkpt lat="47.1591430" lon="6.8311440">
        <ele>910.3</ele>
        <time>2022-07-21T12:41:05Z</time>
      </trkpt>
      <trkpt lat="47.1590890" lon="6.8311360">
        <ele>910.0</ele>
        <time>2022-07-21T12:41:06Z</time>
      </trkpt>
      <trkpt lat="47.1590380" lon="6.8311280">
        <ele>909.8</ele>
        <time>2022-07-21T12:41:07Z</time>
      </trkpt>
      <trkpt lat="47.1589920" lon="6.8311130">
        <ele>909.6</ele>
        <time>2022-07-21T12:41:08Z</time>
      </trkpt>
      <trkpt lat="47.1589520" lon="6.8310980">
        <ele>909.4</ele>
        <time>2022-07-21T12:41:09Z</time>
      </trkpt>
      <trkpt lat="47.1589170" lon="6.8310780">
        <ele>909.3</ele>
        <time>2022-07-21T12:41:10Z</time>
      </trkpt>
      <trkpt lat="47.1589060" lon="6.8310700">
        <ele>909.2</ele>
        <time>2022-07-21T12:41:11Z</time>
      </trkpt>
      <trkpt lat="47.1588800" lon="6.8310470">
        <ele>909.1</ele>
        <time>2022-07-21T12:41:12Z</time>
      </trkpt>
      <trkpt lat="47.1588740" lon="6.8310410">
        <ele>909.1</ele>
        <time>2022-07-21T12:41:13Z</time>
      </trkpt>
      <trkpt lat="47.1588750" lon="6.8310350">
        <ele>909.1</ele>
        <time>2022-07-21T12:41:14Z</time>
      </trkpt>
      <trkpt lat="47.1588730" lon="6.8310310">
        <ele>909.1</ele>
        <time>2022-07-21T12:41:15Z</time>
      </trkpt>
      <trkpt lat="47.1588720" lon="6.8310300">
        <ele>909.1</ele>
        <time>2022-07-21T12:41:16Z</time>
      </trkpt>
      <trkpt lat="47.1588740" lon="6.8310310">
        <ele>909.1</ele>
        <time>2022-07-21T12:41:17Z</time>
      </trkpt>
      <trkpt lat="47.1588760" lon="6.8310330">
        <ele>909.0</ele>
        <time>2022-07-21T12:41:18Z</time>
      </trkpt>
      <trkpt lat="47.1588770" lon="6.8310350">
        <ele>909.0</ele>
        <time>2022-07-21T12:41:19Z</time>
      </trkpt>
      <trkpt lat="47.1588740" lon="6.8310360">
        <ele>909.0</ele>
        <time>2022-07-21T12:41:20Z</time>
      </trkpt>
      <trkpt lat="47.1588750" lon="6.8310340">
        <ele>909.0</ele>
        <time>2022-07-21T12:41:21Z</time>
      </trkpt>
      <trkpt lat="47.1588770" lon="6.8310320">
        <ele>909.0</ele>
        <time>2022-07-21T12:41:22Z</time>
      </trkpt>
      <trkpt lat="47.1588740" lon="6.8310260">
        <ele>909.0</ele>
        <time>2022-07-21T12:41:23Z</time>
      </trkpt>
      <trkpt lat="47.1588660" lon="6.8310250">
        <ele>909.0</ele>
        <time>2022-07-21T12:41:24Z</time>
      </trkpt>
      <trkpt lat="47.1588540" lon="6.8310290">
        <ele>908.9</ele>
        <time>2022-07-21T12:41:25Z</time>
      </trkpt>
      <trkpt lat="47.1588430" lon="6.8310250">
        <ele>908.9</ele>
        <time>2022-07-21T12:41:26Z</time>
      </trkpt>
      <trkpt lat="47.1588120" lon="6.8310140">
        <ele>908.9</ele>
        <time>2022-07-21T12:41:27Z</time>
      </trkpt>
      <trkpt lat="47.1588000" lon="6.8310100">
        <ele>908.8</ele>
        <time>2022-07-21T12:41:28Z</time>
      </trkpt>
      <trkpt lat="47.1587700" lon="6.8309960">
        <ele>908.8</ele>
        <time>2022-07-21T12:41:29Z</time>
      </trkpt>
      <trkpt lat="47.1587370" lon="6.8309780">
        <ele>908.7</ele>
        <time>2022-07-21T12:41:30Z</time>
      </trkpt>
      <trkpt lat="47.1587060" lon="6.8309660">
        <ele>908.7</ele>
        <time>2022-07-21T12:41:31Z</time>
      </trkpt>
      <trkpt lat="47.1586700" lon="6.8309530">
        <ele>908.7</ele>
        <time>2022-07-21T12:41:32Z</time>
      </trkpt>
      <trkpt lat="47.1586330" lon="6.8309430">
        <ele>908.7</ele>
        <time>2022-07-21T12:41:33Z</time>
      </trkpt>
      <trkpt lat="47.1585970" lon="6.8309320">
        <ele>908.7</ele>
        <time>2022-07-21T12:41:34Z</time>
      </trkpt>
      <trkpt lat="47.1585630" lon="6.8309200">
        <ele>908.7</ele>
        <time>2022-07-21T12:41:35Z</time>
      </trkpt>
      <trkpt lat="47.1585240" lon="6.8309040">
        <ele>908.7</ele>
        <time>2022-07-21T12:41:36Z</time>
      </trkpt>
      <trkpt lat="47.1584810" lon="6.8308880">
        <ele>908.8</ele>
        <time>2022-07-21T12:41:37Z</time>
      </trkpt>
      <trkpt lat="47.1584440" lon="6.8308760">
        <ele>908.8</ele>
        <time>2022-07-21T12:41:38Z</time>
      </trkpt>
      <trkpt lat="47.1584030" lon="6.8308640">
        <ele>908.9</ele>
        <time>2022-07-21T12:41:39Z</time>
      </trkpt>
      <trkpt lat="47.1583620" lon="6.8308500">
        <ele>909.0</ele>
        <time>2022-07-21T12:41:40Z</time>
      </trkpt>
      <trkpt lat="47.1583270" lon="6.8308390">
        <ele>909.1</ele>
        <time>2022-07-21T12:41:41Z</time>
      </trkpt>
      <trkpt lat="47.1582900" lon="6.8308260">
        <ele>909.2</ele>
        <time>2022-07-21T12:41:42Z</time>
      </trkpt>
      <trkpt lat="47.1582530" lon="6.8308130">
        <ele>909.3</ele>
        <time>2022-07-21T12:41:43Z</time>
      </trkpt>
      <trkpt lat="47.1582240" lon="6.8308010">
        <ele>909.4</ele>
        <time>2022-07-21T12:41:44Z</time>
      </trkpt>
      <trkpt lat="47.1581960" lon="6.8307870">
        <ele>909.6</ele>
        <time>2022-07-21T12:41:45Z</time>
      </trkpt>
      <trkpt lat="47.1581610" lon="6.8307690">
        <ele>909.7</ele>
        <time>2022-07-21T12:41:46Z</time>
      </trkpt>
      <trkpt lat="47.1581300" lon="6.8307540">
        <ele>909.9</ele>
        <time>2022-07-21T12:41:47Z</time>
      </trkpt>
      <trkpt lat="47.1580960" lon="6.8307360">
        <ele>910.1</ele>
        <time>2022-07-21T12:41:48Z</time>
      </trkpt>
      <trkpt lat="47.1580850" lon="6.8307300">
        <ele>910.1</ele>
        <time>2022-07-21T12:41:49Z</time>
      </trkpt>
      <trkpt lat="47.1580540" lon="6.8307130">
        <ele>910.3</ele>
        <time>2022-07-21T12:41:50Z</time>
      </trkpt>
      <trkpt lat="47.1580440" lon="6.8307060">
        <ele>910.3</ele>
        <time>2022-07-21T12:41:51Z</time>
      </trkpt>
      <trkpt lat="47.1580100" lon="6.8306830">
        <ele>910.5</ele>
        <time>2022-07-21T12:41:52Z</time>
      </trkpt>
      <trkpt lat="47.1579990" lon="6.8306760">
        <ele>910.6</ele>
        <time>2022-07-21T12:41:53Z</time>
      </trkpt>
      <trkpt lat="47.1579730" lon="6.8306520">
        <ele>910.7</ele>
        <time>2022-07-21T12:41:54Z</time>
      </trkpt>
      <trkpt lat="47.1579650" lon="6.8306430">
        <ele>910.8</ele>
        <time>2022-07-21T12:41:55Z</time>
      </trkpt>
      <trkpt lat="47.1579360" lon="6.8306070">
        <ele>910.9</ele>
        <time>2022-07-21T12:41:56Z</time>
      </trkpt>
      <trkpt lat="47.1579260" lon="6.8305940">
        <ele>911.0</ele>
        <time>2022-07-21T12:41:57Z</time>
      </trkpt>
      <trkpt lat="47.1578990" lon="6.8305580">
        <ele>911.1</ele>
        <time>2022-07-21T12:41:58Z</time>
      </trkpt>
      <trkpt lat="47.1578900" lon="6.8305480">
        <ele>911.1</ele>
        <time>2022-07-21T12:41:59Z</time>
      </trkpt>
      <trkpt lat="47.1578680" lon="6.8305230">
        <ele>911.2</ele>
        <time>2022-07-21T12:42:00Z</time>
      </trkpt>
      <trkpt lat="47.1578610" lon="6.8305150">
        <ele>911.2</ele>
        <time>2022-07-21T12:42:01Z</time>
      </trkpt>
      <trkpt lat="47.1578390" lon="6.8304880">
        <ele>911.4</ele>
        <time>2022-07-21T12:42:02Z</time>
      </trkpt>
      <trkpt lat="47.1578300" lon="6.8304760">
        <ele>911.4</ele>
        <time>2022-07-21T12:42:03Z</time>
      </trkpt>
      <trkpt lat="47.1578160" lon="6.8304570">
        <ele>911.5</ele>
        <time>2022-07-21T12:42:04Z</time>
      </trkpt>
      <trkpt lat="47.1578050" lon="6.8304430">
        <ele>911.5</ele>
        <time>2022-07-21T12:42:05Z</time>
      </trkpt>
      <trkpt lat="47.1577820" lon="6.8304130">
        <ele>911.6</ele>
        <time>2022-07-21T12:42:06Z</time>
      </trkpt>
      <trkpt lat="47.1577750" lon="6.8304020">
        <ele>911.7</ele>
        <time>2022-07-21T12:42:07Z</time>
      </trkpt>
      <trkpt lat="47.1577640" lon="6.8303850">
        <ele>911.9</ele>
        <time>2022-07-21T12:42:08Z</time>
      </trkpt>
      <trkpt lat="47.1577510" lon="6.8303650">
        <ele>912.0</ele>
        <time>2022-07-21T12:42:09Z</time>
      </trkpt>
      <trkpt lat="47.1577390" lon="6.8303490">
        <ele>912.2</ele>
        <time>2022-07-21T12:42:10Z</time>
      </trkpt>
      <trkpt lat="47.1577260" lon="6.8303340">
        <ele>912.3</ele>
        <time>2022-07-21T12:42:11Z</time>
      </trkpt>
      <trkpt lat="47.1577140" lon="6.8303180">
        <ele>912.5</ele>
        <time>2022-07-21T12:42:12Z</time>
      </trkpt>
      <trkpt lat="47.1576990" lon="6.8303020">
        <ele>912.6</ele>
        <time>2022-07-21T12:42:13Z</time>
      </trkpt>
      <trkpt lat="47.1576740" lon="6.8302790">
        <ele>912.9</ele>
        <time>2022-07-21T12:42:14Z</time>
      </trkpt>
      <trkpt lat="47.1576640" lon="6.8302710">
        <ele>913.0</ele>
        <time>2022-07-21T12:42:15Z</time>
      </trkpt>
      <trkpt lat="47.1576350" lon="6.8302400">
        <ele>913.3</ele>
        <time>2022-07-21T12:42:16Z</time>
      </trkpt>
      <trkpt lat="47.1576260" lon="6.8302280">
        <ele>913.3</ele>
        <time>2022-07-21T12:42:17Z</time>
      </trkpt>
      <trkpt lat="47.1576030" lon="6.8301930">
        <ele>913.6</ele>
        <time>2022-07-21T12:42:18Z</time>
      </trkpt>
      <trkpt lat="47.1575960" lon="6.8301810">
        <ele>913.7</ele>
        <time>2022-07-21T12:42:19Z</time>
      </trkpt>
      <trkpt lat="47.1575750" lon="6.8301460">
        <ele>913.9</ele>
        <time>2022-07-21T12:42:20Z</time>
      </trkpt>
      <trkpt lat="47.1575680" lon="6.8301360">
        <ele>913.9</ele>
        <time>2022-07-21T12:42:21Z</time>
      </trkpt>
      <trkpt lat="47.1575440" lon="6.8300980">
        <ele>914.2</ele>
        <time>2022-07-21T12:42:22Z</time>
      </trkpt>
      <trkpt lat="47.1575360" lon="6.8300850">
        <ele>914.2</ele>
        <time>2022-07-21T12:42:23Z</time>
      </trkpt>
      <trkpt lat="47.1575130" lon="6.8300480">
        <ele>914.4</ele>
        <time>2022-07-21T12:42:24Z</time>
      </trkpt>
      <trkpt lat="47.1575070" lon="6.8300360">
        <ele>914.5</ele>
        <time>2022-07-21T12:42:25Z</time>
      </trkpt>
      <trkpt lat="47.1574920" lon="6.8299960">
        <ele>914.7</ele>
        <time>2022-07-21T12:42:26Z</time>
      </trkpt>
      <trkpt lat="47.1574880" lon="6.8299810">
        <ele>914.8</ele>
        <time>2022-07-21T12:42:27Z</time>
      </trkpt>
      <trkpt lat="47.1574750" lon="6.8299390">
        <ele>915.0</ele>
        <time>2022-07-21T12:42:28Z</time>
      </trkpt>
      <trkpt lat="47.1574710" lon="6.8299240">
        <ele>915.0</ele>
        <time>2022-07-21T12:42:29Z</time>
      </trkpt>
      <trkpt lat="47.1574600" lon="6.8298840">
        <ele>915.2</ele>
        <time>2022-07-21T12:42:30Z</time>
      </trkpt>
      <trkpt lat="47.1574560" lon="6.8298700">
        <ele>915.3</ele>
        <time>2022-07-21T12:42:31Z</time>
      </trkpt>
      <trkpt lat="47.1574450" lon="6.8298270">
        <ele>915.5</ele>
        <time>2022-07-21T12:42:32Z</time>
      </trkpt>
      <trkpt lat="47.1574410" lon="6.8298130">
        <ele>915.6</ele>
        <time>2022-07-21T12:42:33Z</time>
      </trkpt>
      <trkpt lat="47.1574260" lon="6.8297730">
        <ele>915.8</ele>
        <time>2022-07-21T12:42:34Z</time>
      </trkpt>
      <trkpt lat="47.1574210" lon="6.8297590">
        <ele>915.9</ele>
        <time>2022-07-21T12:42:35Z</time>
      </trkpt>
      <trkpt lat="47.1574070" lon="6.8297210">
        <ele>916.1</ele>
        <time>2022-07-21T12:42:36Z</time>
      </trkpt>
      <trkpt lat="47.1574040" lon="6.8297080">
        <ele>916.1</ele>
        <time>2022-07-21T12:42:37Z</time>
      </trkpt>
      <trkpt lat="47.1573910" lon="6.8296640">
        <ele>916.4</ele>
        <time>2022-07-21T12:42:38Z</time>
      </trkpt>
      <trkpt lat="47.1573870" lon="6.8296520">
        <ele>916.4</ele>
        <time>2022-07-21T12:42:39Z</time>
      </trkpt>
      <trkpt lat="47.1573780" lon="6.8296250">
        <ele>916.6</ele>
        <time>2022-07-21T12:42:40Z</time>
      </trkpt>
      <trkpt lat="47.1573710" lon="6.8296090">
        <ele>916.7</ele>
        <time>2022-07-21T12:42:41Z</time>
      </trkpt>
      <trkpt lat="47.1573640" lon="6.8295880">
        <ele>916.8</ele>
        <time>2022-07-21T12:42:42Z</time>
      </trkpt>
      <trkpt lat="47.1573570" lon="6.8295690">
        <ele>916.9</ele>
        <time>2022-07-21T12:42:43Z</time>
      </trkpt>
      <trkpt lat="47.1573400" lon="6.8295360">
        <ele>917.1</ele>
        <time>2022-07-21T12:42:44Z</time>
      </trkpt>
      <trkpt lat="47.1573350" lon="6.8295280">
        <ele>917.1</ele>
        <time>2022-07-21T12:42:45Z</time>
      </trkpt>
      <trkpt lat="47.1573120" lon="6.8295020">
        <ele>917.3</ele>
        <time>2022-07-21T12:42:46Z</time>
      </trkpt>
      <trkpt lat="47.1573030" lon="6.8294930">
        <ele>917.4</ele>
        <time>2022-07-21T12:42:47Z</time>
      </trkpt>
      <trkpt lat="47.1572770" lon="6.8294650">
        <ele>917.6</ele>
        <time>2022-07-21T12:42:48Z</time>
      </trkpt>
      <trkpt lat="47.1572690" lon="6.8294570">
        <ele>917.6</ele>
        <time>2022-07-21T12:42:49Z</time>
      </trkpt>
      <trkpt lat="47.1572580" lon="6.8294440">
        <ele>917.7</ele>
        <time>2022-07-21T12:42:50Z</time>
      </trkpt>
      <trkpt lat="47.1572430" lon="6.8294310">
        <ele>917.8</ele>
        <time>2022-07-21T12:42:51Z</time>
      </trkpt>
      <trkpt lat="47.1572250" lon="6.8294220">
        <ele>917.9</ele>
        <time>2022-07-21T12:42:52Z</time>
      </trkpt>
      <trkpt lat="47.1572090" lon="6.8294140">
        <ele>918.0</ele>
        <time>2022-07-21T12:42:53Z</time>
      </trkpt>
      <trkpt lat="47.1571840" lon="6.8293910">
        <ele>918.2</ele>
        <time>2022-07-21T12:42:54Z</time>
      </trkpt>
      <trkpt lat="47.1571760" lon="6.8293830">
        <ele>918.3</ele>
        <time>2022-07-21T12:42:55Z</time>
      </trkpt>
      <trkpt lat="47.1571530" lon="6.8293530">
        <ele>918.4</ele>
        <time>2022-07-21T12:42:56Z</time>
      </trkpt>
      <trkpt lat="47.1571470" lon="6.8293410">
        <ele>918.5</ele>
        <time>2022-07-21T12:42:57Z</time>
      </trkpt>
      <trkpt lat="47.1571310" lon="6.8292990">
        <ele>918.7</ele>
        <time>2022-07-21T12:42:58Z</time>
      </trkpt>
      <trkpt lat="47.1571250" lon="6.8292810">
        <ele>918.7</ele>
        <time>2022-07-21T12:42:59Z</time>
      </trkpt>
      <trkpt lat="47.1570980" lon="6.8292450">
        <ele>918.9</ele>
        <time>2022-07-21T12:43:00Z</time>
      </trkpt>
      <trkpt lat="47.1570880" lon="6.8292380">
        <ele>919.0</ele>
        <time>2022-07-21T12:43:01Z</time>
      </trkpt>
      <trkpt lat="47.1570630" lon="6.8292200">
        <ele>919.2</ele>
        <time>2022-07-21T12:43:02Z</time>
      </trkpt>
      <trkpt lat="47.1570540" lon="6.8292170">
        <ele>919.2</ele>
        <time>2022-07-21T12:43:03Z</time>
      </trkpt>
      <trkpt lat="47.1570230" lon="6.8292070">
        <ele>919.4</ele>
        <time>2022-07-21T12:43:04Z</time>
      </trkpt>
      <trkpt lat="47.1570120" lon="6.8292050">
        <ele>919.5</ele>
        <time>2022-07-21T12:43:05Z</time>
      </trkpt>
      <trkpt lat="47.1569780" lon="6.8291940">
        <ele>919.7</ele>
        <time>2022-07-21T12:43:06Z</time>
      </trkpt>
      <trkpt lat="47.1569670" lon="6.8291880">
        <ele>919.7</ele>
        <time>2022-07-21T12:43:07Z</time>
      </trkpt>
      <trkpt lat="47.1569420" lon="6.8291710">
        <ele>919.9</ele>
        <time>2022-07-21T12:43:08Z</time>
      </trkpt>
      <trkpt lat="47.1569330" lon="6.8291640">
        <ele>919.9</ele>
        <time>2022-07-21T12:43:09Z</time>
      </trkpt>
      <trkpt lat="47.1569160" lon="6.8291530">
        <ele>920.0</ele>
        <time>2022-07-21T12:43:10Z</time>
      </trkpt>
      <trkpt lat="47.1569020" lon="6.8291440">
        <ele>920.1</ele>
        <time>2022-07-21T12:43:11Z</time>
      </trkpt>
      <trkpt lat="47.1568690" lon="6.8291240">
        <ele>920.3</ele>
        <time>2022-07-21T12:43:12Z</time>
      </trkpt>
      <trkpt lat="47.1568580" lon="6.8291170">
        <ele>920.4</ele>
        <time>2022-07-21T12:43:13Z</time>
      </trkpt>
      <trkpt lat="47.1568230" lon="6.8290960">
        <ele>920.6</ele>
        <time>2022-07-21T12:43:14Z</time>
      </trkpt>
      <trkpt lat="47.1568110" lon="6.8290890">
        <ele>920.6</ele>
        <time>2022-07-21T12:43:15Z</time>
      </trkpt>
      <trkpt lat="47.1567850" lon="6.8290740">
        <ele>920.8</ele>
        <time>2022-07-21T12:43:16Z</time>
      </trkpt>
      <trkpt lat="47.1567500" lon="6.8290560">
        <ele>921.0</ele>
        <time>2022-07-21T12:43:17Z</time>
      </trkpt>
      <trkpt lat="47.1567390" lon="6.8290490">
        <ele>921.0</ele>
        <time>2022-07-21T12:43:18Z</time>
      </trkpt>
      <trkpt lat="47.1567080" lon="6.8290340">
        <ele>921.2</ele>
        <time>2022-07-21T12:43:19Z</time>
      </trkpt>
      <trkpt lat="47.1566980" lon="6.8290290">
        <ele>921.3</ele>
        <time>2022-07-21T12:43:20Z</time>
      </trkpt>
      <trkpt lat="47.1566640" lon="6.8290150">
        <ele>921.5</ele>
        <time>2022-07-21T12:43:21Z</time>
      </trkpt>
      <trkpt lat="47.1566530" lon="6.8290110">
        <ele>921.5</ele>
        <time>2022-07-21T12:43:22Z</time>
      </trkpt>
      <trkpt lat="47.1566250" lon="6.8289980">
        <ele>921.7</ele>
        <time>2022-07-21T12:43:23Z</time>
      </trkpt>
      <trkpt lat="47.1566180" lon="6.8289950">
        <ele>921.8</ele>
        <time>2022-07-21T12:43:24Z</time>
      </trkpt>
      <trkpt lat="47.1565880" lon="6.8289820">
        <ele>922.0</ele>
        <time>2022-07-21T12:43:25Z</time>
      </trkpt>
      <trkpt lat="47.1565770" lon="6.8289780">
        <ele>922.0</ele>
        <time>2022-07-21T12:43:26Z</time>
      </trkpt>
      <trkpt lat="47.1565470" lon="6.8289690">
        <ele>922.2</ele>
        <time>2022-07-21T12:43:27Z</time>
      </trkpt>
      <trkpt lat="47.1565350" lon="6.8289660">
        <ele>922.3</ele>
        <time>2022-07-21T12:43:28Z</time>
      </trkpt>
      <trkpt lat="47.1565030" lon="6.8289530">
        <ele>922.5</ele>
        <time>2022-07-21T12:43:29Z</time>
      </trkpt>
      <trkpt lat="47.1564940" lon="6.8289480">
        <ele>922.6</ele>
        <time>2022-07-21T12:43:30Z</time>
      </trkpt>
      <trkpt lat="47.1564730" lon="6.8289400">
        <ele>922.8</ele>
        <time>2022-07-21T12:43:31Z</time>
      </trkpt>
      <trkpt lat="47.1564600" lon="6.8289310">
        <ele>922.9</ele>
        <time>2022-07-21T12:43:32Z</time>
      </trkpt>
      <trkpt lat="47.1564330" lon="6.8289110">
        <ele>923.1</ele>
        <time>2022-07-21T12:43:33Z</time>
      </trkpt>
      <trkpt lat="47.1564240" lon="6.8289030">
        <ele>923.2</ele>
        <time>2022-07-21T12:43:34Z</time>
      </trkpt>
      <trkpt lat="47.1564060" lon="6.8288930">
        <ele>923.4</ele>
        <time>2022-07-21T12:43:35Z</time>
      </trkpt>
      <trkpt lat="47.1563700" lon="6.8288740">
        <ele>923.7</ele>
        <time>2022-07-21T12:43:37Z</time>
      </trkpt>
      <trkpt lat="47.1563420" lon="6.8288690">
        <ele>923.9</ele>
        <time>2022-07-21T12:43:38Z</time>
      </trkpt>
      <trkpt lat="47.1563330" lon="6.8288670">
        <ele>924.0</ele>
        <time>2022-07-21T12:43:39Z</time>
      </trkpt>
      <trkpt lat="47.1563170" lon="6.8288630">
        <ele>924.2</ele>
        <time>2022-07-21T12:43:40Z</time>
      </trkpt>
      <trkpt lat="47.1563010" lon="6.8288540">
        <ele>924.3</ele>
        <time>2022-07-21T12:43:41Z</time>
      </trkpt>
      <trkpt lat="47.1562850" lon="6.8288440">
        <ele>924.5</ele>
        <time>2022-07-21T12:43:42Z</time>
      </trkpt>
      <trkpt lat="47.1562690" lon="6.8288340">
        <ele>924.6</ele>
        <time>2022-07-21T12:43:43Z</time>
      </trkpt>
      <trkpt lat="47.1562540" lon="6.8288240">
        <ele>924.8</ele>
        <time>2022-07-21T12:43:44Z</time>
      </trkpt>
      <trkpt lat="47.1562380" lon="6.8288150">
        <ele>924.9</ele>
        <time>2022-07-21T12:43:45Z</time>
      </trkpt>
      <trkpt lat="47.1561980" lon="6.8288030">
        <ele>925.3</ele>
        <time>2022-07-21T12:43:47Z</time>
      </trkpt>
      <trkpt lat="47.1561700" lon="6.8287940">
        <ele>925.5</ele>
        <time>2022-07-21T12:43:48Z</time>
      </trkpt>
      <trkpt lat="47.1561610" lon="6.8287910">
        <ele>925.6</ele>
        <time>2022-07-21T12:43:49Z</time>
      </trkpt>
      <trkpt lat="47.1561350" lon="6.8287780">
        <ele>925.8</ele>
        <time>2022-07-21T12:43:50Z</time>
      </trkpt>
      <trkpt lat="47.1561260" lon="6.8287740">
        <ele>925.9</ele>
        <time>2022-07-21T12:43:51Z</time>
      </trkpt>
      <trkpt lat="47.1561010" lon="6.8287580">
        <ele>926.1</ele>
        <time>2022-07-21T12:43:52Z</time>
      </trkpt>
      <trkpt lat="47.1560920" lon="6.8287530">
        <ele>926.2</ele>
        <time>2022-07-21T12:43:53Z</time>
      </trkpt>
      <trkpt lat="47.1560650" lon="6.8287430">
        <ele>926.4</ele>
        <time>2022-07-21T12:43:54Z</time>
      </trkpt>
      <trkpt lat="47.1560550" lon="6.8287390">
        <ele>926.5</ele>
        <time>2022-07-21T12:43:55Z</time>
      </trkpt>
      <trkpt lat="47.1560350" lon="6.8287320">
        <ele>926.6</ele>
        <time>2022-07-21T12:43:56Z</time>
      </trkpt>
      <trkpt lat="47.1560240" lon="6.8287250">
        <ele>926.7</ele>
        <time>2022-07-21T12:43:57Z</time>
      </trkpt>
      <trkpt lat="47.1559950" lon="6.8287080">
        <ele>926.9</ele>
        <time>2022-07-21T12:43:58Z</time>
      </trkpt>
      <trkpt lat="47.1559850" lon="6.8287030">
        <ele>926.9</ele>
        <time>2022-07-21T12:43:59Z</time>
      </trkpt>
      <trkpt lat="47.1559550" lon="6.8286870">
        <ele>927.1</ele>
        <time>2022-07-21T12:44:00Z</time>
      </trkpt>
      <trkpt lat="47.1559450" lon="6.8286830">
        <ele>927.1</ele>
        <time>2022-07-21T12:44:01Z</time>
      </trkpt>
      <trkpt lat="47.1559140" lon="6.8286670">
        <ele>927.3</ele>
        <time>2022-07-21T12:44:02Z</time>
      </trkpt>
      <trkpt lat="47.1559040" lon="6.8286630">
        <ele>927.3</ele>
        <time>2022-07-21T12:44:03Z</time>
      </trkpt>
      <trkpt lat="47.1558810" lon="6.8286520">
        <ele>927.4</ele>
        <time>2022-07-21T12:44:04Z</time>
      </trkpt>
      <trkpt lat="47.1558330" lon="6.8286300">
        <ele>927.6</ele>
        <time>2022-07-21T12:44:06Z</time>
      </trkpt>
      <trkpt lat="47.1558070" lon="6.8286160">
        <ele>927.7</ele>
        <time>2022-07-21T12:44:07Z</time>
      </trkpt>
      <trkpt lat="47.1557720" lon="6.8285960">
        <ele>927.8</ele>
        <time>2022-07-21T12:44:08Z</time>
      </trkpt>
      <trkpt lat="47.1557590" lon="6.8285900">
        <ele>927.8</ele>
        <time>2022-07-21T12:44:09Z</time>
      </trkpt>
      <trkpt lat="47.1557250" lon="6.8285720">
        <ele>927.9</ele>
        <time>2022-07-21T12:44:10Z</time>
      </trkpt>
      <trkpt lat="47.1557140" lon="6.8285650">
        <ele>928.0</ele>
        <time>2022-07-21T12:44:11Z</time>
      </trkpt>
      <trkpt lat="47.1556830" lon="6.8285530">
        <ele>928.0</ele>
        <time>2022-07-21T12:44:12Z</time>
      </trkpt>
      <trkpt lat="47.1556730" lon="6.8285480">
        <ele>928.1</ele>
        <time>2022-07-21T12:44:13Z</time>
      </trkpt>
      <trkpt lat="47.1556400" lon="6.8285310">
        <ele>928.1</ele>
        <time>2022-07-21T12:44:14Z</time>
      </trkpt>
      <trkpt lat="47.1556290" lon="6.8285270">
        <ele>928.2</ele>
        <time>2022-07-21T12:44:15Z</time>
      </trkpt>
      <trkpt lat="47.1555950" lon="6.8285040">
        <ele>928.2</ele>
        <time>2022-07-21T12:44:16Z</time>
      </trkpt>
      <trkpt lat="47.1555820" lon="6.8284940">
        <ele>928.3</ele>
        <time>2022-07-21T12:44:17Z</time>
      </trkpt>
      <trkpt lat="47.1555480" lon="6.8284690">
        <ele>928.3</ele>
        <time>2022-07-21T12:44:18Z</time>
      </trkpt>
      <trkpt lat="47.1555380" lon="6.8284610">
        <ele>928.3</ele>
        <time>2022-07-21T12:44:19Z</time>
      </trkpt>
      <trkpt lat="47.1555110" lon="6.8284400">
        <ele>928.4</ele>
        <time>2022-07-21T12:44:20Z</time>
      </trkpt>
      <trkpt lat="47.1555010" lon="6.8284330">
        <ele>928.4</ele>
        <time>2022-07-21T12:44:21Z</time>
      </trkpt>
      <trkpt lat="47.1554760" lon="6.8284140">
        <ele>928.4</ele>
        <time>2022-07-21T12:44:22Z</time>
      </trkpt>
      <trkpt lat="47.1554490" lon="6.8283950">
        <ele>928.5</ele>
        <time>2022-07-21T12:44:23Z</time>
      </trkpt>
      <trkpt lat="47.1554210" lon="6.8283780">
        <ele>928.5</ele>
        <time>2022-07-21T12:44:24Z</time>
      </trkpt>
      <trkpt lat="47.1553980" lon="6.8283640">
        <ele>928.5</ele>
        <time>2022-07-21T12:44:25Z</time>
      </trkpt>
      <trkpt lat="47.1553360" lon="6.8283200">
        <ele>928.5</ele>
        <time>2022-07-21T12:44:27Z</time>
      </trkpt>
      <trkpt lat="47.1552980" lon="6.8282930">
        <ele>928.5</ele>
        <time>2022-07-21T12:44:29Z</time>
      </trkpt>
      <trkpt lat="47.1552710" lon="6.8282690">
        <ele>928.5</ele>
        <time>2022-07-21T12:44:30Z</time>
      </trkpt>
      <trkpt lat="47.1552460" lon="6.8282480">
        <ele>928.4</ele>
        <time>2022-07-21T12:44:31Z</time>
      </trkpt>
      <trkpt lat="47.1552180" lon="6.8282250">
        <ele>928.4</ele>
        <time>2022-07-21T12:44:32Z</time>
      </trkpt>
      <trkpt lat="47.1551870" lon="6.8282010">
        <ele>928.4</ele>
        <time>2022-07-21T12:44:33Z</time>
      </trkpt>
      <trkpt lat="47.1551540" lon="6.8281760">
        <ele>928.3</ele>
        <time>2022-07-21T12:44:34Z</time>
      </trkpt>
      <trkpt lat="47.1551250" lon="6.8281520">
        <ele>928.3</ele>
        <time>2022-07-21T12:44:35Z</time>
      </trkpt>
      <trkpt lat="47.1550660" lon="6.8281060">
        <ele>928.2</ele>
        <time>2022-07-21T12:44:37Z</time>
      </trkpt>
      <trkpt lat="47.1550150" lon="6.8280610">
        <ele>928.1</ele>
        <time>2022-07-21T12:44:38Z</time>
      </trkpt>
      <trkpt lat="47.1549660" lon="6.8280180">
        <ele>928.0</ele>
        <time>2022-07-21T12:44:40Z</time>
      </trkpt>
      <trkpt lat="47.1549280" lon="6.8279830">
        <ele>927.9</ele>
        <time>2022-07-21T12:44:41Z</time>
      </trkpt>
      <trkpt lat="47.1548620" lon="6.8279300">
        <ele>927.8</ele>
        <time>2022-07-21T12:44:43Z</time>
      </trkpt>
      <trkpt lat="47.1547970" lon="6.8278740">
        <ele>927.7</ele>
        <time>2022-07-21T12:44:44Z</time>
      </trkpt>
      <trkpt lat="47.1547540" lon="6.8278320">
        <ele>927.7</ele>
        <time>2022-07-21T12:44:45Z</time>
      </trkpt>
      <trkpt lat="47.1547180" lon="6.8278000">
        <ele>927.6</ele>
        <time>2022-07-21T12:44:46Z</time>
      </trkpt>
      <trkpt lat="47.1546800" lon="6.8277580">
        <ele>927.6</ele>
        <time>2022-07-21T12:44:47Z</time>
      </trkpt>
      <trkpt lat="47.1546460" lon="6.8277160">
        <ele>927.6</ele>
        <time>2022-07-21T12:44:48Z</time>
      </trkpt>
      <trkpt lat="47.1546110" lon="6.8276730">
        <ele>927.6</ele>
        <time>2022-07-21T12:44:49Z</time>
      </trkpt>
      <trkpt lat="47.1545820" lon="6.8276280">
        <ele>927.6</ele>
        <time>2022-07-21T12:44:50Z</time>
      </trkpt>
      <trkpt lat="47.1545480" lon="6.8275880">
        <ele>927.6</ele>
        <time>2022-07-21T12:44:51Z</time>
      </trkpt>
      <trkpt lat="47.1545150" lon="6.8275440">
        <ele>927.6</ele>
        <time>2022-07-21T12:44:52Z</time>
      </trkpt>
      <trkpt lat="47.1544820" lon="6.8274990">
        <ele>927.7</ele>
        <time>2022-07-21T12:44:53Z</time>
      </trkpt>
      <trkpt lat="47.1544550" lon="6.8274680">
        <ele>927.7</ele>
        <time>2022-07-21T12:44:54Z</time>
      </trkpt>
      <trkpt lat="47.1544010" lon="6.8273960">
        <ele>927.8</ele>
        <time>2022-07-21T12:44:56Z</time>
      </trkpt>
      <trkpt lat="47.1543700" lon="6.8273520">
        <ele>927.9</ele>
        <time>2022-07-21T12:44:57Z</time>
      </trkpt>
      <trkpt lat="47.1543340" lon="6.8273070">
        <ele>928.0</ele>
        <time>2022-07-21T12:44:58Z</time>
      </trkpt>
      <trkpt lat="47.1543040" lon="6.8272710">
        <ele>928.1</ele>
        <time>2022-07-21T12:44:59Z</time>
      </trkpt>
      <trkpt lat="47.1542760" lon="6.8272340">
        <ele>928.2</ele>
        <time>2022-07-21T12:45:00Z</time>
      </trkpt>
      <trkpt lat="47.1542510" lon="6.8271980">
        <ele>928.3</ele>
        <time>2022-07-21T12:45:01Z</time>
      </trkpt>
      <trkpt lat="47.1542250" lon="6.8271580">
        <ele>928.3</ele>
        <time>2022-07-21T12:45:02Z</time>
      </trkpt>
      <trkpt lat="47.1541730" lon="6.8270860">
        <ele>928.5</ele>
        <time>2022-07-21T12:45:04Z</time>
      </trkpt>
      <trkpt lat="47.1541180" lon="6.8270060">
        <ele>928.6</ele>
        <time>2022-07-21T12:45:06Z</time>
      </trkpt>
      <trkpt lat="47.1540960" lon="6.8269640">
        <ele>928.7</ele>
        <time>2022-07-21T12:45:07Z</time>
      </trkpt>
      <trkpt lat="47.1540750" lon="6.8269210">
        <ele>928.7</ele>
        <time>2022-07-21T12:45:08Z</time>
      </trkpt>
      <trkpt lat="47.1540550" lon="6.8268780">
        <ele>928.8</ele>
        <time>2022-07-21T12:45:09Z</time>
      </trkpt>
      <trkpt lat="47.1540140" lon="6.8267890">
        <ele>929.0</ele>
        <time>2022-07-21T12:45:11Z</time>
      </trkpt>
      <trkpt lat="47.1539970" lon="6.8267460">
        <ele>929.1</ele>
        <time>2022-07-21T12:45:12Z</time>
      </trkpt>
      <trkpt lat="47.1539830" lon="6.8266980">
        <ele>929.2</ele>
        <time>2022-07-21T12:45:13Z</time>
      </trkpt>
      <trkpt lat="47.1539720" lon="6.8266480">
        <ele>929.3</ele>
        <time>2022-07-21T12:45:14Z</time>
      </trkpt>
      <trkpt lat="47.1539610" lon="6.8265990">
        <ele>929.4</ele>
        <time>2022-07-21T12:45:15Z</time>
      </trkpt>
      <trkpt lat="47.1539540" lon="6.8265550">
        <ele>929.5</ele>
        <time>2022-07-21T12:45:16Z</time>
      </trkpt>
      <trkpt lat="47.1539490" lon="6.8265070">
        <ele>929.6</ele>
        <time>2022-07-21T12:45:17Z</time>
      </trkpt>
      <trkpt lat="47.1539430" lon="6.8264620">
        <ele>929.7</ele>
        <time>2022-07-21T12:45:18Z</time>
      </trkpt>
      <trkpt lat="47.1539320" lon="6.8264110">
        <ele>929.8</ele>
        <time>2022-07-21T12:45:19Z</time>
      </trkpt>
      <trkpt lat="47.1539230" lon="6.8263560">
        <ele>929.9</ele>
        <time>2022-07-21T12:45:20Z</time>
      </trkpt>
      <trkpt lat="47.1539140" lon="6.8263080">
        <ele>930.0</ele>
        <time>2022-07-21T12:45:21Z</time>
      </trkpt>
      <trkpt lat="47.1539030" lon="6.8262550">
        <ele>930.1</ele>
        <time>2022-07-21T12:45:22Z</time>
      </trkpt>
      <trkpt lat="47.1538910" lon="6.8261960">
        <ele>930.2</ele>
        <time>2022-07-21T12:45:23Z</time>
      </trkpt>
      <trkpt lat="47.1538720" lon="6.8261050">
        <ele>930.4</ele>
        <time>2022-07-21T12:45:25Z</time>
      </trkpt>
      <trkpt lat="47.1538660" lon="6.8260510">
        <ele>930.5</ele>
        <time>2022-07-21T12:45:26Z</time>
      </trkpt>
      <trkpt lat="47.1538590" lon="6.8259920">
        <ele>930.6</ele>
        <time>2022-07-21T12:45:27Z</time>
      </trkpt>
      <trkpt lat="47.1538510" lon="6.8259340">
        <ele>930.7</ele>
        <time>2022-07-21T12:45:28Z</time>
      </trkpt>
      <trkpt lat="47.1538420" lon="6.8258870">
        <ele>930.8</ele>
        <time>2022-07-21T12:45:29Z</time>
      </trkpt>
      <trkpt lat="47.1538340" lon="6.8258370">
        <ele>930.9</ele>
        <time>2022-07-21T12:45:30Z</time>
      </trkpt>
      <trkpt lat="47.1538210" lon="6.8257340">
        <ele>931.0</ele>
        <time>2022-07-21T12:45:32Z</time>
      </trkpt>
      <trkpt lat="47.1538110" lon="6.8256750">
        <ele>931.2</ele>
        <time>2022-07-21T12:45:33Z</time>
      </trkpt>
      <trkpt lat="47.1537990" lon="6.8256240">
        <ele>931.2</ele>
        <time>2022-07-21T12:45:34Z</time>
      </trkpt>
      <trkpt lat="47.1537880" lon="6.8255740">
        <ele>931.3</ele>
        <time>2022-07-21T12:45:35Z</time>
      </trkpt>
      <trkpt lat="47.1537800" lon="6.8255220">
        <ele>931.4</ele>
        <time>2022-07-21T12:45:36Z</time>
      </trkpt>
      <trkpt lat="47.1537700" lon="6.8254690">
        <ele>931.5</ele>
        <time>2022-07-21T12:45:37Z</time>
      </trkpt>
      <trkpt lat="47.1537640" lon="6.8254150">
        <ele>931.7</ele>
        <time>2022-07-21T12:45:38Z</time>
      </trkpt>
      <trkpt lat="47.1537590" lon="6.8253610">
        <ele>931.8</ele>
        <time>2022-07-21T12:45:39Z</time>
      </trkpt>
      <trkpt lat="47.1537550" lon="6.8253150">
        <ele>932.0</ele>
        <time>2022-07-21T12:45:40Z</time>
      </trkpt>
      <trkpt lat="47.1537490" lon="6.8252640">
        <ele>932.1</ele>
        <time>2022-07-21T12:45:41Z</time>
      </trkpt>
      <trkpt lat="47.1537450" lon="6.8252260">
        <ele>932.3</ele>
        <time>2022-07-21T12:45:42Z</time>
      </trkpt>
      <trkpt lat="47.1537390" lon="6.8251770">
        <ele>932.4</ele>
        <time>2022-07-21T12:45:44Z</time>
      </trkpt>
      <trkpt lat="47.1537380" lon="6.8251480">
        <ele>932.5</ele>
        <time>2022-07-21T12:45:45Z</time>
      </trkpt>
      <trkpt lat="47.1537420" lon="6.8250840">
        <ele>932.8</ele>
        <time>2022-07-21T12:45:47Z</time>
      </trkpt>
      <trkpt lat="47.1537470" lon="6.8250410">
        <ele>932.9</ele>
        <time>2022-07-21T12:45:48Z</time>
      </trkpt>
      <trkpt lat="47.1537450" lon="6.8249930">
        <ele>933.1</ele>
        <time>2022-07-21T12:45:49Z</time>
      </trkpt>
      <trkpt lat="47.1537440" lon="6.8249790">
        <ele>933.2</ele>
        <time>2022-07-21T12:45:50Z</time>
      </trkpt>
      <trkpt lat="47.1537320" lon="6.8249320">
        <ele>933.4</ele>
        <time>2022-07-21T12:45:51Z</time>
      </trkpt>
      <trkpt lat="47.1537280" lon="6.8249160">
        <ele>933.4</ele>
        <time>2022-07-21T12:45:52Z</time>
      </trkpt>
      <trkpt lat="47.1537240" lon="6.8248640">
        <ele>933.6</ele>
        <time>2022-07-21T12:45:53Z</time>
      </trkpt>
      <trkpt lat="47.1537230" lon="6.8248470">
        <ele>933.7</ele>
        <time>2022-07-21T12:45:54Z</time>
      </trkpt>
      <trkpt lat="47.1537230" lon="6.8248180">
        <ele>933.8</ele>
        <time>2022-07-21T12:45:55Z</time>
      </trkpt>
      <trkpt lat="47.1537180" lon="6.8247550">
        <ele>934.0</ele>
        <time>2022-07-21T12:45:57Z</time>
      </trkpt>
      <trkpt lat="47.1537170" lon="6.8247180">
        <ele>934.2</ele>
        <time>2022-07-21T12:45:58Z</time>
      </trkpt>
      <trkpt lat="47.1537180" lon="6.8246490">
        <ele>934.4</ele>
        <time>2022-07-21T12:46:00Z</time>
      </trkpt>
      <trkpt lat="47.1537180" lon="6.8246080">
        <ele>934.5</ele>
        <time>2022-07-21T12:46:01Z</time>
      </trkpt>
      <trkpt lat="47.1537210" lon="6.8245560">
        <ele>934.7</ele>
        <time>2022-07-21T12:46:02Z</time>
      </trkpt>
      <trkpt lat="47.1537220" lon="6.8245390">
        <ele>934.8</ele>
        <time>2022-07-21T12:46:03Z</time>
      </trkpt>
      <trkpt lat="47.1537200" lon="6.8244820">
        <ele>934.9</ele>
        <time>2022-07-21T12:46:04Z</time>
      </trkpt>
      <trkpt lat="47.1537200" lon="6.8244620">
        <ele>935.0</ele>
        <time>2022-07-21T12:46:05Z</time>
      </trkpt>
      <trkpt lat="47.1537180" lon="6.8244180">
        <ele>935.1</ele>
        <time>2022-07-21T12:46:06Z</time>
      </trkpt>
      <trkpt lat="47.1537170" lon="6.8243780">
        <ele>935.2</ele>
        <time>2022-07-21T12:46:07Z</time>
      </trkpt>
      <trkpt lat="47.1537140" lon="6.8243180">
        <ele>935.4</ele>
        <time>2022-07-21T12:46:08Z</time>
      </trkpt>
      <trkpt lat="47.1537120" lon="6.8242970">
        <ele>935.4</ele>
        <time>2022-07-21T12:46:09Z</time>
      </trkpt>
      <trkpt lat="47.1537050" lon="6.8242440">
        <ele>935.5</ele>
        <time>2022-07-21T12:46:10Z</time>
      </trkpt>
      <trkpt lat="47.1537020" lon="6.8242270">
        <ele>935.6</ele>
        <time>2022-07-21T12:46:11Z</time>
      </trkpt>
      <trkpt lat="47.1536980" lon="6.8241840">
        <ele>935.7</ele>
        <time>2022-07-21T12:46:12Z</time>
      </trkpt>
      <trkpt lat="47.1536920" lon="6.8241410">
        <ele>935.8</ele>
        <time>2022-07-21T12:46:13Z</time>
      </trkpt>
      <trkpt lat="47.1536850" lon="6.8240990">
        <ele>935.8</ele>
        <time>2022-07-21T12:46:14Z</time>
      </trkpt>
      <trkpt lat="47.1536790" lon="6.8240570">
        <ele>935.9</ele>
        <time>2022-07-21T12:46:15Z</time>
      </trkpt>
      <trkpt lat="47.1536730" lon="6.8240150">
        <ele>935.9</ele>
        <time>2022-07-21T12:46:16Z</time>
      </trkpt>
      <trkpt lat="47.1536650" lon="6.8239750">
        <ele>936.0</ele>
        <time>2022-07-21T12:46:17Z</time>
      </trkpt>
      <trkpt lat="47.1536550" lon="6.8239270">
        <ele>936.0</ele>
        <time>2022-07-21T12:46:18Z</time>
      </trkpt>
      <trkpt lat="47.1536470" lon="6.8238870">
        <ele>936.1</ele>
        <time>2022-07-21T12:46:19Z</time>
      </trkpt>
      <trkpt lat="47.1536390" lon="6.8238410">
        <ele>936.1</ele>
        <time>2022-07-21T12:46:20Z</time>
      </trkpt>
      <trkpt lat="47.1536270" lon="6.8237680">
        <ele>936.2</ele>
        <time>2022-07-21T12:46:21Z</time>
      </trkpt>
      <trkpt lat="47.1536190" lon="6.8236890">
        <ele>936.2</ele>
        <time>2022-07-21T12:46:23Z</time>
      </trkpt>
      <trkpt lat="47.1536220" lon="6.8236190">
        <ele>936.2</ele>
        <time>2022-07-21T12:46:24Z</time>
      </trkpt>
      <trkpt lat="47.1536290" lon="6.8235580">
        <ele>936.2</ele>
        <time>2022-07-21T12:46:25Z</time>
      </trkpt>
      <trkpt lat="47.1536420" lon="6.8234910">
        <ele>936.2</ele>
        <time>2022-07-21T12:46:26Z</time>
      </trkpt>
      <trkpt lat="47.1536530" lon="6.8234130">
        <ele>936.2</ele>
        <time>2022-07-21T12:46:27Z</time>
      </trkpt>
      <trkpt lat="47.1536610" lon="6.8233560">
        <ele>936.2</ele>
        <time>2022-07-21T12:46:29Z</time>
      </trkpt>
      <trkpt lat="47.1536760" lon="6.8232860">
        <ele>936.2</ele>
        <time>2022-07-21T12:46:30Z</time>
      </trkpt>
      <trkpt lat="47.1536910" lon="6.8232360">
        <ele>936.2</ele>
        <time>2022-07-21T12:46:31Z</time>
      </trkpt>
      <trkpt lat="47.1537040" lon="6.8231990">
        <ele>936.2</ele>
        <time>2022-07-21T12:46:32Z</time>
      </trkpt>
      <trkpt lat="47.1537260" lon="6.8231280">
        <ele>936.3</ele>
        <time>2022-07-21T12:46:33Z</time>
      </trkpt>
      <trkpt lat="47.1537460" lon="6.8230630">
        <ele>936.3</ele>
        <time>2022-07-21T12:46:34Z</time>
      </trkpt>
      <trkpt lat="47.1537650" lon="6.8230020">
        <ele>936.4</ele>
        <time>2022-07-21T12:46:36Z</time>
      </trkpt>
      <trkpt lat="47.1537840" lon="6.8229330">
        <ele>936.5</ele>
        <time>2022-07-21T12:46:37Z</time>
      </trkpt>
      <trkpt lat="47.1537990" lon="6.8228720">
        <ele>936.6</ele>
        <time>2022-07-21T12:46:38Z</time>
      </trkpt>
      <trkpt lat="47.1538080" lon="6.8228210">
        <ele>936.7</ele>
        <time>2022-07-21T12:46:40Z</time>
      </trkpt>
      <trkpt lat="47.1538220" lon="6.8227590">
        <ele>936.8</ele>
        <time>2022-07-21T12:46:41Z</time>
      </trkpt>
      <trkpt lat="47.1538300" lon="6.8227160">
        <ele>936.9</ele>
        <time>2022-07-21T12:46:42Z</time>
      </trkpt>
      <trkpt lat="47.1538400" lon="6.8226730">
        <ele>937.1</ele>
        <time>2022-07-21T12:46:43Z</time>
      </trkpt>
      <trkpt lat="47.1538470" lon="6.8226310">
        <ele>937.2</ele>
        <time>2022-07-21T12:46:44Z</time>
      </trkpt>
      <trkpt lat="47.1538560" lon="6.8225880">
        <ele>937.3</ele>
        <time>2022-07-21T12:46:45Z</time>
      </trkpt>
      <trkpt lat="47.1538640" lon="6.8225470">
        <ele>937.4</ele>
        <time>2022-07-21T12:46:46Z</time>
      </trkpt>
      <trkpt lat="47.1538760" lon="6.8224980">
        <ele>937.6</ele>
        <time>2022-07-21T12:46:47Z</time>
      </trkpt>
      <trkpt lat="47.1538810" lon="6.8224520">
        <ele>937.7</ele>
        <time>2022-07-21T12:46:49Z</time>
      </trkpt>
      <trkpt lat="47.1538860" lon="6.8224060">
        <ele>937.8</ele>
        <time>2022-07-21T12:46:50Z</time>
      </trkpt>
      <trkpt lat="47.1538960" lon="6.8223420">
        <ele>938.0</ele>
        <time>2022-07-21T12:46:51Z</time>
      </trkpt>
      <trkpt lat="47.1539000" lon="6.8223150">
        <ele>938.1</ele>
        <time>2022-07-21T12:46:52Z</time>
      </trkpt>
      <trkpt lat="47.1539080" lon="6.8222550">
        <ele>938.3</ele>
        <time>2022-07-21T12:46:54Z</time>
      </trkpt>
      <trkpt lat="47.1539180" lon="6.8222070">
        <ele>938.4</ele>
        <time>2022-07-21T12:46:55Z</time>
      </trkpt>
      <trkpt lat="47.1539300" lon="6.8221570">
        <ele>938.6</ele>
        <time>2022-07-21T12:46:56Z</time>
      </trkpt>
      <trkpt lat="47.1539330" lon="6.8221430">
        <ele>938.6</ele>
        <time>2022-07-21T12:46:57Z</time>
      </trkpt>
      <trkpt lat="47.1539360" lon="6.8221000">
        <ele>938.7</ele>
        <time>2022-07-21T12:46:58Z</time>
      </trkpt>
      <trkpt lat="47.1539380" lon="6.8220800">
        <ele>938.8</ele>
        <time>2022-07-21T12:46:59Z</time>
      </trkpt>
      <trkpt lat="47.1539460" lon="6.8220290">
        <ele>938.9</ele>
        <time>2022-07-21T12:47:00Z</time>
      </trkpt>
      <trkpt lat="47.1539600" lon="6.8219650">
        <ele>939.0</ele>
        <time>2022-07-21T12:47:02Z</time>
      </trkpt>
      <trkpt lat="47.1539660" lon="6.8219380">
        <ele>939.1</ele>
        <time>2022-07-21T12:47:03Z</time>
      </trkpt>
      <trkpt lat="47.1539780" lon="6.8218930">
        <ele>939.2</ele>
        <time>2022-07-21T12:47:04Z</time>
      </trkpt>
      <trkpt lat="47.1539870" lon="6.8218520">
        <ele>939.3</ele>
        <time>2022-07-21T12:47:05Z</time>
      </trkpt>
      <trkpt lat="47.1539950" lon="6.8217940">
        <ele>939.4</ele>
        <time>2022-07-21T12:47:06Z</time>
      </trkpt>
      <trkpt lat="47.1540050" lon="6.8217340">
        <ele>939.5</ele>
        <time>2022-07-21T12:47:08Z</time>
      </trkpt>
      <trkpt lat="47.1540120" lon="6.8216950">
        <ele>939.6</ele>
        <time>2022-07-21T12:47:09Z</time>
      </trkpt>
      <trkpt lat="47.1540250" lon="6.8216440">
        <ele>939.6</ele>
        <time>2022-07-21T12:47:10Z</time>
      </trkpt>
      <trkpt lat="47.1540380" lon="6.8215780">
        <ele>939.7</ele>
        <time>2022-07-21T12:47:11Z</time>
      </trkpt>
      <trkpt lat="47.1540470" lon="6.8215280">
        <ele>939.7</ele>
        <time>2022-07-21T12:47:13Z</time>
      </trkpt>
      <trkpt lat="47.1540580" lon="6.8214640">
        <ele>939.8</ele>
        <time>2022-07-21T12:47:14Z</time>
      </trkpt>
      <trkpt lat="47.1540690" lon="6.8213980">
        <ele>939.8</ele>
        <time>2022-07-21T12:47:15Z</time>
      </trkpt>
      <trkpt lat="47.1540750" lon="6.8213460">
        <ele>939.8</ele>
        <time>2022-07-21T12:47:16Z</time>
      </trkpt>
      <trkpt lat="47.1540810" lon="6.8213040">
        <ele>939.8</ele>
        <time>2022-07-21T12:47:17Z</time>
      </trkpt>
      <trkpt lat="47.1540880" lon="6.8212420">
        <ele>939.7</ele>
        <time>2022-07-21T12:47:18Z</time>
      </trkpt>
      <trkpt lat="47.1540990" lon="6.8211750">
        <ele>939.7</ele>
        <time>2022-07-21T12:47:20Z</time>
      </trkpt>
      <trkpt lat="47.1541070" lon="6.8211070">
        <ele>939.6</ele>
        <time>2022-07-21T12:47:21Z</time>
      </trkpt>
      <trkpt lat="47.1541120" lon="6.8210490">
        <ele>939.6</ele>
        <time>2022-07-21T12:47:22Z</time>
      </trkpt>
      <trkpt lat="47.1541250" lon="6.8209650">
        <ele>939.4</ele>
        <time>2022-07-21T12:47:24Z</time>
      </trkpt>
      <trkpt lat="47.1541260" lon="6.8209010">
        <ele>939.3</ele>
        <time>2022-07-21T12:47:25Z</time>
      </trkpt>
      <trkpt lat="47.1541280" lon="6.8208100">
        <ele>939.1</ele>
        <time>2022-07-21T12:47:26Z</time>
      </trkpt>
      <trkpt lat="47.1541260" lon="6.8207360">
        <ele>939.0</ele>
        <time>2022-07-21T12:47:27Z</time>
      </trkpt>
      <trkpt lat="47.1541090" lon="6.8206620">
        <ele>938.8</ele>
        <time>2022-07-21T12:47:28Z</time>
      </trkpt>
      <trkpt lat="47.1540910" lon="6.8205900">
        <ele>938.6</ele>
        <time>2022-07-21T12:47:29Z</time>
      </trkpt>
      <trkpt lat="47.1540730" lon="6.8205390">
        <ele>938.4</ele>
        <time>2022-07-21T12:47:30Z</time>
      </trkpt>
      <trkpt lat="47.1540530" lon="6.8204760">
        <ele>938.2</ele>
        <time>2022-07-21T12:47:31Z</time>
      </trkpt>
      <trkpt lat="47.1540360" lon="6.8204070">
        <ele>937.9</ele>
        <time>2022-07-21T12:47:32Z</time>
      </trkpt>
      <trkpt lat="47.1540200" lon="6.8203370">
        <ele>937.7</ele>
        <time>2022-07-21T12:47:33Z</time>
      </trkpt>
      <trkpt lat="47.1539960" lon="6.8202740">
        <ele>937.3</ele>
        <time>2022-07-21T12:47:34Z</time>
      </trkpt>
      <trkpt lat="47.1539660" lon="6.8202100">
        <ele>937.0</ele>
        <time>2022-07-21T12:47:35Z</time>
      </trkpt>
      <trkpt lat="47.1539360" lon="6.8201520">
        <ele>936.6</ele>
        <time>2022-07-21T12:47:36Z</time>
      </trkpt>
      <trkpt lat="47.1539150" lon="6.8200890">
        <ele>936.1</ele>
        <time>2022-07-21T12:47:37Z</time>
      </trkpt>
      <trkpt lat="47.1538960" lon="6.8200270">
        <ele>935.7</ele>
        <time>2022-07-21T12:47:38Z</time>
      </trkpt>
      <trkpt lat="47.1538430" lon="6.8199780">
        <ele>935.1</ele>
        <time>2022-07-21T12:47:40Z</time>
      </trkpt>
      <trkpt lat="47.1538540" lon="6.8200050">
        <ele>934.9</ele>
        <time>2022-07-21T12:47:41Z</time>
      </trkpt>
      <trkpt lat="47.1538620" lon="6.8200260">
        <ele>934.8</ele>
        <time>2022-07-21T12:47:42Z</time>
      </trkpt>
      <trkpt lat="47.1538710" lon="6.8200490">
        <ele>934.6</ele>
        <time>2022-07-21T12:47:43Z</time>
      </trkpt>
      <trkpt lat="47.1538810" lon="6.8200560">
        <ele>934.5</ele>
        <time>2022-07-21T12:47:44Z</time>
      </trkpt>
      <trkpt lat="47.1538880" lon="6.8200530">
        <ele>934.4</ele>
        <time>2022-07-21T12:47:45Z</time>
      </trkpt>
      <trkpt lat="47.1538900" lon="6.8200460">
        <ele>934.4</ele>
        <time>2022-07-21T12:47:46Z</time>
      </trkpt>
      <trkpt lat="47.1538930" lon="6.8200390">
        <ele>934.3</ele>
        <time>2022-07-21T12:47:47Z</time>
      </trkpt>
      <trkpt lat="47.1538940" lon="6.8200340">
        <ele>934.3</ele>
        <time>2022-07-21T12:47:48Z</time>
      </trkpt>
      <trkpt lat="47.1538950" lon="6.8200300">
        <ele>934.3</ele>
        <time>2022-07-21T12:47:49Z</time>
      </trkpt>
      <trkpt lat="47.1538950" lon="6.8200260">
        <ele>934.2</ele>
        <time>2022-07-21T12:47:50Z</time>
      </trkpt>
      <trkpt lat="47.1538950" lon="6.8200230">
        <ele>934.2</ele>
        <time>2022-07-21T12:47:51Z</time>
      </trkpt>
      <trkpt lat="47.1538950" lon="6.8200210">
        <ele>934.2</ele>
        <time>2022-07-21T12:47:52Z</time>
      </trkpt>
      <trkpt lat="47.1538960" lon="6.8200190">
        <ele>934.2</ele>
        <time>2022-07-21T12:47:53Z</time>
      </trkpt>
      <trkpt lat="47.1538970" lon="6.8200170">
        <ele>934.2</ele>
        <time>2022-07-21T12:47:54Z</time>
      </trkpt>
      <trkpt lat="47.1538970" lon="6.8200170">
        <ele>934.2</ele>
        <time>2022-07-21T12:47:55Z</time>
      </trkpt>
      <trkpt lat="47.1538710" lon="6.8199780">
        <ele>933.8</ele>
        <time>2022-07-21T12:48:03Z</time>
      </trkpt>
      <trkpt lat="47.1538680" lon="6.8199780">
        <ele>933.8</ele>
        <time>2022-07-21T12:48:04Z</time>
      </trkpt>
      <trkpt lat="47.1538590" lon="6.8199750">
        <ele>933.7</ele>
        <time>2022-07-21T12:48:05Z</time>
      </trkpt>
      <trkpt lat="47.1538450" lon="6.8199660">
        <ele>933.5</ele>
        <time>2022-07-21T12:48:06Z</time>
      </trkpt>
      <trkpt lat="47.1538320" lon="6.8199550">
        <ele>933.4</ele>
        <time>2022-07-21T12:48:07Z</time>
      </trkpt>
      <trkpt lat="47.1538190" lon="6.8199410">
        <ele>933.2</ele>
        <time>2022-07-21T12:48:09Z</time>
      </trkpt>
      <trkpt lat="47.1538160" lon="6.8199290">
        <ele>931.9</ele>
        <time>2022-07-21T12:48:10Z</time>
      </trkpt>
      <trkpt lat="47.1538180" lon="6.8199050">
        <ele>931.9</ele>
        <time>2022-07-21T12:48:11Z</time>
      </trkpt>
      <trkpt lat="47.1538150" lon="6.8198950">
        <ele>931.9</ele>
        <time>2022-07-21T12:48:12Z</time>
      </trkpt>
      <trkpt lat="47.1538130" lon="6.8198760">
        <ele>931.9</ele>
        <time>2022-07-21T12:48:13Z</time>
      </trkpt>
      <trkpt lat="47.1538100" lon="6.8198620">
        <ele>931.9</ele>
        <time>2022-07-21T12:48:14Z</time>
      </trkpt>
      <trkpt lat="47.1538120" lon="6.8198470">
        <ele>931.9</ele>
        <time>2022-07-21T12:48:15Z</time>
      </trkpt>
      <trkpt lat="47.1538140" lon="6.8198420">
        <ele>931.9</ele>
        <time>2022-07-21T12:48:16Z</time>
      </trkpt>
      <trkpt lat="47.1538190" lon="6.8198410">
        <ele>931.9</ele>
        <time>2022-07-21T12:48:17Z</time>
      </trkpt>
      <trkpt lat="47.1538230" lon="6.8198380">
        <ele>931.9</ele>
        <time>2022-07-21T12:48:18Z</time>
      </trkpt>
      <trkpt lat="47.1538250" lon="6.8198340">
        <ele>931.9</ele>
        <time>2022-07-21T12:48:19Z</time>
      </trkpt>
      <trkpt lat="47.1538290" lon="6.8198330">
        <ele>931.9</ele>
        <time>2022-07-21T12:48:20Z</time>
      </trkpt>
      <trkpt lat="47.1538330" lon="6.8198310">
        <ele>931.9</ele>
        <time>2022-07-21T12:48:21Z</time>
      </trkpt>
      <trkpt lat="47.1538360" lon="6.8198290">
        <ele>931.9</ele>
        <time>2022-07-21T12:48:22Z</time>
      </trkpt>
      <trkpt lat="47.1538390" lon="6.8198260">
        <ele>931.9</ele>
        <time>2022-07-21T12:48:23Z</time>
      </trkpt>
      <trkpt lat="47.1538420" lon="6.8198230">
        <ele>931.9</ele>
        <time>2022-07-21T12:48:24Z</time>
      </trkpt>
      <trkpt lat="47.1538460" lon="6.8198210">
        <ele>931.9</ele>
        <time>2022-07-21T12:48:25Z</time>
      </trkpt>
      <trkpt lat="47.1538930" lon="6.8198090">
        <ele>931.9</ele>
        <time>2022-07-21T12:49:34Z</time>
      </trkpt>
      <trkpt lat="47.1538980" lon="6.8198060">
        <ele>931.9</ele>
        <time>2022-07-21T12:49:35Z</time>
      </trkpt>
      <trkpt lat="47.1538980" lon="6.8198030">
        <ele>931.9</ele>
        <time>2022-07-21T12:49:36Z</time>
      </trkpt>
      <trkpt lat="47.1538970" lon="6.8197990">
        <ele>931.9</ele>
        <time>2022-07-21T12:49:37Z</time>
      </trkpt>
      <trkpt lat="47.1538970" lon="6.8197930">
        <ele>931.9</ele>
        <time>2022-07-21T12:49:38Z</time>
      </trkpt>
      <trkpt lat="47.1538960" lon="6.8197880">
        <ele>931.9</ele>
        <time>2022-07-21T12:49:39Z</time>
      </trkpt>
      <trkpt lat="47.1538950" lon="6.8197840">
        <ele>931.9</ele>
        <time>2022-07-21T12:49:40Z</time>
      </trkpt>
      <trkpt lat="47.1538900" lon="6.8197820">
        <ele>931.9</ele>
        <time>2022-07-21T12:49:41Z</time>
      </trkpt>
      <trkpt lat="47.1538850" lon="6.8197810">
        <ele>931.9</ele>
        <time>2022-07-21T12:49:42Z</time>
      </trkpt>
      <trkpt lat="47.1538800" lon="6.8197840">
        <ele>931.9</ele>
        <time>2022-07-21T12:49:43Z</time>
      </trkpt>
      <trkpt lat="47.1538750" lon="6.8197880">
        <ele>931.9</ele>
        <time>2022-07-21T12:49:44Z</time>
      </trkpt>
      <trkpt lat="47.1538700" lon="6.8197900">
        <ele>931.9</ele>
        <time>2022-07-21T12:49:45Z</time>
      </trkpt>
      <trkpt lat="47.1538680" lon="6.8197920">
        <ele>931.9</ele>
        <time>2022-07-21T12:49:46Z</time>
      </trkpt>
      <trkpt lat="47.1538660" lon="6.8197900">
        <ele>931.9</ele>
        <time>2022-07-21T12:49:47Z</time>
      </trkpt>
      <trkpt lat="47.1538680" lon="6.8197860">
        <ele>931.9</ele>
        <time>2022-07-21T12:49:48Z</time>
      </trkpt>
      <trkpt lat="47.1538740" lon="6.8197810">
        <ele>931.9</ele>
        <time>2022-07-21T12:49:49Z</time>
      </trkpt>
      <trkpt lat="47.1538800" lon="6.8197790">
        <ele>931.9</ele>
        <time>2022-07-21T12:49:50Z</time>
      </trkpt>
      <trkpt lat="47.1538840" lon="6.8197770">
        <ele>931.9</ele>
        <time>2022-07-21T12:49:51Z</time>
      </trkpt>
      <trkpt lat="47.1538870" lon="6.8197770">
        <ele>931.9</ele>
        <time>2022-07-21T12:49:52Z</time>
      </trkpt>
      <trkpt lat="47.1538880" lon="6.8197760">
        <ele>931.9</ele>
        <time>2022-07-21T12:49:53Z</time>
      </trkpt>
      <trkpt lat="47.1538890" lon="6.8197760">
        <ele>931.9</ele>
        <time>2022-07-21T12:49:54Z</time>
      </trkpt>
      <trkpt lat="47.1538890" lon="6.8197760">
        <ele>931.9</ele>
        <time>2022-07-21T12:49:55Z</time>
      </trkpt>
      <trkpt lat="47.1538890" lon="6.8197760">
        <ele>931.9</ele>
        <time>2022-07-21T12:49:56Z</time>
      </trkpt>
      <trkpt lat="47.1538860" lon="6.8197760">
        <ele>931.9</ele>
        <time>2022-07-21T12:49:57Z</time>
      </trkpt>
      <trkpt lat="47.1538830" lon="6.8197750">
        <ele>931.9</ele>
        <time>2022-07-21T12:49:58Z</time>
      </trkpt>
      <trkpt lat="47.1538790" lon="6.8197740">
        <ele>931.9</ele>
        <time>2022-07-21T12:49:59Z</time>
      </trkpt>
      <trkpt lat="47.1538800" lon="6.8197700">
        <ele>931.9</ele>
        <time>2022-07-21T12:50:00Z</time>
      </trkpt>
      <trkpt lat="47.1538830" lon="6.8197580">
        <ele>930.7</ele>
        <time>2022-07-21T12:50:01Z</time>
      </trkpt>
      <trkpt lat="47.1538950" lon="6.8197410">
        <ele>931.0</ele>
        <time>2022-07-21T12:50:02Z</time>
      </trkpt>
      <trkpt lat="47.1539050" lon="6.8197240">
        <ele>931.0</ele>
        <time>2022-07-21T12:50:03Z</time>
      </trkpt>
      <trkpt lat="47.1539360" lon="6.8196950">
        <ele>931.0</ele>
        <time>2022-07-21T12:50:04Z</time>
      </trkpt>
      <trkpt lat="47.1539520" lon="6.8196830">
        <ele>931.0</ele>
        <time>2022-07-21T12:50:05Z</time>
      </trkpt>
      <trkpt lat="47.1539800" lon="6.8196710">
        <ele>931.0</ele>
        <time>2022-07-21T12:50:06Z</time>
      </trkpt>
      <trkpt lat="47.1540140" lon="6.8196620">
        <ele>931.2</ele>
        <time>2022-07-21T12:50:07Z</time>
      </trkpt>
      <trkpt lat="47.1540240" lon="6.8196590">
        <ele>931.2</ele>
        <time>2022-07-21T12:50:08Z</time>
      </trkpt>
      <trkpt lat="47.1540420" lon="6.8196550">
        <ele>931.2</ele>
        <time>2022-07-21T12:50:09Z</time>
      </trkpt>
      <trkpt lat="47.1540520" lon="6.8196480">
        <ele>931.2</ele>
        <time>2022-07-21T12:50:10Z</time>
      </trkpt>
      <trkpt lat="47.1540700" lon="6.8196380">
        <ele>931.2</ele>
        <time>2022-07-21T12:50:12Z</time>
      </trkpt>
      <trkpt lat="47.1540860" lon="6.8196400">
        <ele>931.2</ele>
        <time>2022-07-21T12:50:13Z</time>
      </trkpt>
      <trkpt lat="47.1541060" lon="6.8196400">
        <ele>931.2</ele>
        <time>2022-07-21T12:50:14Z</time>
      </trkpt>
      <trkpt lat="47.1541210" lon="6.8196450">
        <ele>931.5</ele>
        <time>2022-07-21T12:50:15Z</time>
      </trkpt>
      <trkpt lat="47.1541500" lon="6.8196500">
        <ele>931.5</ele>
        <time>2022-07-21T12:50:16Z</time>
      </trkpt>
      <trkpt lat="47.1541600" lon="6.8196510">
        <ele>931.5</ele>
        <time>2022-07-21T12:50:17Z</time>
      </trkpt>
      <trkpt lat="47.1541910" lon="6.8196540">
        <ele>931.5</ele>
        <time>2022-07-21T12:50:18Z</time>
      </trkpt>
      <trkpt lat="47.1542000" lon="6.8196560">
        <ele>931.5</ele>
        <time>2022-07-21T12:50:19Z</time>
      </trkpt>
      <trkpt lat="47.1542140" lon="6.8196550">
        <ele>931.5</ele>
        <time>2022-07-21T12:50:20Z</time>
      </trkpt>
      <trkpt lat="47.1542310" lon="6.8196530">
        <ele>931.5</ele>
        <time>2022-07-21T12:50:21Z</time>
      </trkpt>
      <trkpt lat="47.1542610" lon="6.8196440">
        <ele>931.6</ele>
        <time>2022-07-21T12:50:22Z</time>
      </trkpt>
      <trkpt lat="47.1542710" lon="6.8196420">
        <ele>931.6</ele>
        <time>2022-07-21T12:50:23Z</time>
      </trkpt>
      <trkpt lat="47.1542900" lon="6.8196480">
        <ele>931.6</ele>
        <time>2022-07-21T12:50:24Z</time>
      </trkpt>
      <trkpt lat="47.1543160" lon="6.8196590">
        <ele>931.6</ele>
        <time>2022-07-21T12:50:26Z</time>
      </trkpt>
      <trkpt lat="47.1543310" lon="6.8196660">
        <ele>931.6</ele>
        <time>2022-07-21T12:50:27Z</time>
      </trkpt>
      <trkpt lat="47.1543410" lon="6.8196680">
        <ele>931.6</ele>
        <time>2022-07-21T12:50:28Z</time>
      </trkpt>
      <trkpt lat="47.1543430" lon="6.8196700">
        <ele>931.6</ele>
        <time>2022-07-21T12:50:29Z</time>
      </trkpt>
      <trkpt lat="47.1543490" lon="6.8196720">
        <ele>931.6</ele>
        <time>2022-07-21T12:50:30Z</time>
      </trkpt>
      <trkpt lat="47.1543720" lon="6.8196720">
        <ele>931.8</ele>
        <time>2022-07-21T12:50:32Z</time>
      </trkpt>
      <trkpt lat="47.1543830" lon="6.8196690">
        <ele>931.8</ele>
        <time>2022-07-21T12:50:33Z</time>
      </trkpt>
      <trkpt lat="47.1543930" lon="6.8196680">
        <ele>931.8</ele>
        <time>2022-07-21T12:50:34Z</time>
      </trkpt>
      <trkpt lat="47.1543940" lon="6.8196670">
        <ele>931.8</ele>
        <time>2022-07-21T12:50:35Z</time>
      </trkpt>
      <trkpt lat="47.1543870" lon="6.8196660">
        <ele>931.8</ele>
        <time>2022-07-21T12:50:36Z</time>
      </trkpt>
      <trkpt lat="47.1543800" lon="6.8196650">
        <ele>931.8</ele>
        <time>2022-07-21T12:50:37Z</time>
      </trkpt>
      <trkpt lat="47.1543760" lon="6.8196640">
        <ele>931.8</ele>
        <time>2022-07-21T12:50:38Z</time>
      </trkpt>
      <trkpt lat="47.1543740" lon="6.8196630">
        <ele>931.8</ele>
        <time>2022-07-21T12:50:39Z</time>
      </trkpt>
      <trkpt lat="47.1543730" lon="6.8196630">
        <ele>931.8</ele>
        <time>2022-07-21T12:50:40Z</time>
      </trkpt>
      <trkpt lat="47.1543730" lon="6.8196640">
        <ele>931.8</ele>
        <time>2022-07-21T12:50:41Z</time>
      </trkpt>
      <trkpt lat="47.1543740" lon="6.8196650">
        <ele>931.8</ele>
        <time>2022-07-21T12:50:42Z</time>
      </trkpt>
      <trkpt lat="47.1543750" lon="6.8196660">
        <ele>931.8</ele>
        <time>2022-07-21T12:50:43Z</time>
      </trkpt>
      <trkpt lat="47.1543760" lon="6.8196680">
        <ele>931.8</ele>
        <time>2022-07-21T12:50:44Z</time>
      </trkpt>
      <trkpt lat="47.1543910" lon="6.8197000">
        <ele>931.8</ele>
        <time>2022-07-21T13:01:35Z</time>
      </trkpt>
      <trkpt lat="47.1543910" lon="6.8196960">
        <ele>931.8</ele>
        <time>2022-07-21T13:01:36Z</time>
      </trkpt>
      <trkpt lat="47.1543900" lon="6.8196930">
        <ele>931.8</ele>
        <time>2022-07-21T13:01:37Z</time>
      </trkpt>
      <trkpt lat="47.1543900" lon="6.8196890">
        <ele>931.8</ele>
        <time>2022-07-21T13:01:38Z</time>
      </trkpt>
      <trkpt lat="47.1543900" lon="6.8196860">
        <ele>931.8</ele>
        <time>2022-07-21T13:01:39Z</time>
      </trkpt>
      <trkpt lat="47.1543910" lon="6.8196840">
        <ele>931.8</ele>
        <time>2022-07-21T13:01:40Z</time>
      </trkpt>
      <trkpt lat="47.1543920" lon="6.8196820">
        <ele>931.8</ele>
        <time>2022-07-21T13:01:41Z</time>
      </trkpt>
      <trkpt lat="47.1543920" lon="6.8196810">
        <ele>931.8</ele>
        <time>2022-07-21T13:01:42Z</time>
      </trkpt>
      <trkpt lat="47.1543920" lon="6.8196800">
        <ele>931.8</ele>
        <time>2022-07-21T13:01:43Z</time>
      </trkpt>
      <trkpt lat="47.1543920" lon="6.8196800">
        <ele>931.8</ele>
        <time>2022-07-21T13:01:44Z</time>
      </trkpt>
      <trkpt lat="47.1543920" lon="6.8196800">
        <ele>931.8</ele>
        <time>2022-07-21T13:01:45Z</time>
      </trkpt>
      <trkpt lat="47.1543920" lon="6.8196800">
        <ele>931.8</ele>
        <time>2022-07-21T13:01:46Z</time>
      </trkpt>
      <trkpt lat="47.1543950" lon="6.8197110">
        <ele>931.8</ele>
        <time>2022-07-21T13:10:10Z</time>
      </trkpt>
      <trkpt lat="47.1543980" lon="6.8197130">
        <ele>931.8</ele>
        <time>2022-07-21T13:10:11Z</time>
      </trkpt>
      <trkpt lat="47.1544000" lon="6.8197160">
        <ele>931.8</ele>
        <time>2022-07-21T13:10:12Z</time>
      </trkpt>
      <trkpt lat="47.1544010" lon="6.8197170">
        <ele>931.8</ele>
        <time>2022-07-21T13:10:13Z</time>
      </trkpt>
      <trkpt lat="47.1544010" lon="6.8197180">
        <ele>931.8</ele>
        <time>2022-07-21T13:10:14Z</time>
      </trkpt>
      <trkpt lat="47.1544020" lon="6.8197180">
        <ele>931.8</ele>
        <time>2022-07-21T13:10:15Z</time>
      </trkpt>
      <trkpt lat="47.1544020" lon="6.8197180">
        <ele>931.8</ele>
        <time>2022-07-21T13:10:16Z</time>
      </trkpt>
      <trkpt lat="47.1544020" lon="6.8197190">
        <ele>931.8</ele>
        <time>2022-07-21T13:10:17Z</time>
      </trkpt>
      <trkpt lat="47.1544020" lon="6.8197190">
        <ele>931.8</ele>
        <time>2022-07-21T13:10:18Z</time>
      </trkpt>
      <trkpt lat="47.1544020" lon="6.8197190">
        <ele>931.8</ele>
        <time>2022-07-21T13:10:19Z</time>
      </trkpt>
      <trkpt lat="47.1544020" lon="6.8197190">
        <ele>931.8</ele>
        <time>2022-07-21T13:10:20Z</time>
      </trkpt>
      <trkpt lat="47.1544020" lon="6.8197190">
        <ele>931.8</ele>
        <time>2022-07-21T13:10:21Z</time>
      </trkpt>
      <trkpt lat="47.1543950" lon="6.8196710">
        <ele>931.8</ele>
        <time>2022-07-21T13:12:05Z</time>
      </trkpt>
      <trkpt lat="47.1543920" lon="6.8196680">
        <ele>931.8</ele>
        <time>2022-07-21T13:12:06Z</time>
      </trkpt>
      <trkpt lat="47.1543910" lon="6.8196650">
        <ele>931.8</ele>
        <time>2022-07-21T13:12:07Z</time>
      </trkpt>
      <trkpt lat="47.1543920" lon="6.8196600">
        <ele>931.8</ele>
        <time>2022-07-21T13:12:08Z</time>
      </trkpt>
      <trkpt lat="47.1543920" lon="6.8196540">
        <ele>931.8</ele>
        <time>2022-07-21T13:12:09Z</time>
      </trkpt>
      <trkpt lat="47.1543930" lon="6.8196500">
        <ele>931.8</ele>
        <time>2022-07-21T13:12:10Z</time>
      </trkpt>
      <trkpt lat="47.1543930" lon="6.8196480">
        <ele>931.8</ele>
        <time>2022-07-21T13:12:11Z</time>
      </trkpt>
      <trkpt lat="47.1543920" lon="6.8196470">
        <ele>931.8</ele>
        <time>2022-07-21T13:12:12Z</time>
      </trkpt>
      <trkpt lat="47.1543920" lon="6.8196470">
        <ele>931.8</ele>
        <time>2022-07-21T13:12:13Z</time>
      </trkpt>
      <trkpt lat="47.1543920" lon="6.8196470">
        <ele>931.8</ele>
        <time>2022-07-21T13:12:14Z</time>
      </trkpt>
      <trkpt lat="47.1543920" lon="6.8196470">
        <ele>931.8</ele>
        <time>2022-07-21T13:12:15Z</time>
      </trkpt>
      <trkpt lat="47.1543920" lon="6.8196470">
        <ele>931.8</ele>
        <time>2022-07-21T13:12:16Z</time>
      </trkpt>
      <trkpt lat="47.1543920" lon="6.8196470">
        <ele>931.8</ele>
        <time>2022-07-21T13:12:17Z</time>
      </trkpt>
      <trkpt lat="47.1543920" lon="6.8196480">
        <ele>931.8</ele>
        <time>2022-07-21T13:12:18Z</time>
      </trkpt>
      <trkpt lat="47.1543920" lon="6.8196480">
        <ele>931.8</ele>
        <time>2022-07-21T13:12:19Z</time>
      </trkpt>
      <trkpt lat="47.1543910" lon="6.8196480">
        <ele>931.8</ele>
        <time>2022-07-21T13:12:20Z</time>
      </trkpt>
      <trkpt lat="47.1544000" lon="6.8197140">
        <ele>931.8</ele>
        <time>2022-07-21T13:13:08Z</time>
      </trkpt>
      <trkpt lat="47.1543960" lon="6.8197260">
        <ele>931.8</ele>
        <time>2022-07-21T13:13:09Z</time>
      </trkpt>
      <trkpt lat="47.1543930" lon="6.8197320">
        <ele>931.8</ele>
        <time>2022-07-21T13:13:10Z</time>
      </trkpt>
      <trkpt lat="47.1543920" lon="6.8197350">
        <ele>931.8</ele>
        <time>2022-07-21T13:13:11Z</time>
      </trkpt>
      <trkpt lat="47.1543910" lon="6.8197360">
        <ele>931.8</ele>
        <time>2022-07-21T13:13:12Z</time>
      </trkpt>
      <trkpt lat="47.1543910" lon="6.8197370">
        <ele>931.8</ele>
        <time>2022-07-21T13:13:13Z</time>
      </trkpt>
      <trkpt lat="47.1543920" lon="6.8197340">
        <ele>931.8</ele>
        <time>2022-07-21T13:13:14Z</time>
      </trkpt>
      <trkpt lat="47.1543920" lon="6.8197310">
        <ele>931.8</ele>
        <time>2022-07-21T13:13:15Z</time>
      </trkpt>
      <trkpt lat="47.1543920" lon="6.8197300">
        <ele>931.8</ele>
        <time>2022-07-21T13:13:16Z</time>
      </trkpt>
      <trkpt lat="47.1543900" lon="6.8197310">
        <ele>931.8</ele>
        <time>2022-07-21T13:13:17Z</time>
      </trkpt>
      <trkpt lat="47.1543880" lon="6.8197330">
        <ele>931.8</ele>
        <time>2022-07-21T13:13:18Z</time>
      </trkpt>
      <trkpt lat="47.1543880" lon="6.8197340">
        <ele>931.8</ele>
        <time>2022-07-21T13:13:19Z</time>
      </trkpt>
      <trkpt lat="47.1543870" lon="6.8197370">
        <ele>931.8</ele>
        <time>2022-07-21T13:13:20Z</time>
      </trkpt>
      <trkpt lat="47.1543870" lon="6.8197370">
        <ele>931.8</ele>
        <time>2022-07-21T13:13:21Z</time>
      </trkpt>
      <trkpt lat="47.1543860" lon="6.8197410">
        <ele>931.8</ele>
        <time>2022-07-21T13:13:22Z</time>
      </trkpt>
      <trkpt lat="47.1543860" lon="6.8197440">
        <ele>931.8</ele>
        <time>2022-07-21T13:13:23Z</time>
      </trkpt>
      <trkpt lat="47.1543860" lon="6.8197460">
        <ele>931.8</ele>
        <time>2022-07-21T13:13:24Z</time>
      </trkpt>
      <trkpt lat="47.1543870" lon="6.8197470">
        <ele>931.8</ele>
        <time>2022-07-21T13:13:25Z</time>
      </trkpt>
      <trkpt lat="47.1543830" lon="6.8197490">
        <ele>931.8</ele>
        <time>2022-07-21T13:13:28Z</time>
      </trkpt>
      <trkpt lat="47.1543800" lon="6.8197490">
        <ele>931.8</ele>
        <time>2022-07-21T13:13:29Z</time>
      </trkpt>
      <trkpt lat="47.1543810" lon="6.8197470">
        <ele>931.8</ele>
        <time>2022-07-21T13:13:30Z</time>
      </trkpt>
      <trkpt lat="47.1543840" lon="6.8197440">
        <ele>931.8</ele>
        <time>2022-07-21T13:13:31Z</time>
      </trkpt>
      <trkpt lat="47.1543860" lon="6.8197400">
        <ele>931.8</ele>
        <time>2022-07-21T13:13:32Z</time>
      </trkpt>
      <trkpt lat="47.1543880" lon="6.8197360">
        <ele>931.8</ele>
        <time>2022-07-21T13:13:33Z</time>
      </trkpt>
      <trkpt lat="47.1543880" lon="6.8197320">
        <ele>931.8</ele>
        <time>2022-07-21T13:13:34Z</time>
      </trkpt>
      <trkpt lat="47.1543900" lon="6.8197280">
        <ele>931.8</ele>
        <time>2022-07-21T13:13:35Z</time>
      </trkpt>
      <trkpt lat="47.1543950" lon="6.8197250">
        <ele>931.8</ele>
        <time>2022-07-21T13:13:36Z</time>
      </trkpt>
      <trkpt lat="47.1544020" lon="6.8197230">
        <ele>931.8</ele>
        <time>2022-07-21T13:13:37Z</time>
      </trkpt>
      <trkpt lat="47.1544060" lon="6.8197230">
        <ele>931.8</ele>
        <time>2022-07-21T13:13:38Z</time>
      </trkpt>
      <trkpt lat="47.1544060" lon="6.8197240">
        <ele>931.8</ele>
        <time>2022-07-21T13:13:39Z</time>
      </trkpt>
      <trkpt lat="47.1544070" lon="6.8197230">
        <ele>931.8</ele>
        <time>2022-07-21T13:13:40Z</time>
      </trkpt>
      <trkpt lat="47.1544080" lon="6.8197220">
        <ele>931.8</ele>
        <time>2022-07-21T13:13:41Z</time>
      </trkpt>
      <trkpt lat="47.1544090" lon="6.8197210">
        <ele>931.8</ele>
        <time>2022-07-21T13:13:42Z</time>
      </trkpt>
      <trkpt lat="47.1544060" lon="6.8197240">
        <ele>931.8</ele>
        <time>2022-07-21T13:13:43Z</time>
      </trkpt>
      <trkpt lat="47.1544030" lon="6.8197270">
        <ele>931.8</ele>
        <time>2022-07-21T13:13:44Z</time>
      </trkpt>
      <trkpt lat="47.1544010" lon="6.8197310">
        <ele>931.8</ele>
        <time>2022-07-21T13:13:45Z</time>
      </trkpt>
      <trkpt lat="47.1543980" lon="6.8197390">
        <ele>931.8</ele>
        <time>2022-07-21T13:13:46Z</time>
      </trkpt>
      <trkpt lat="47.1543970" lon="6.8197450">
        <ele>931.8</ele>
        <time>2022-07-21T13:13:47Z</time>
      </trkpt>
      <trkpt lat="47.1543970" lon="6.8197490">
        <ele>931.8</ele>
        <time>2022-07-21T13:13:48Z</time>
      </trkpt>
      <trkpt lat="47.1543970" lon="6.8197520">
        <ele>931.8</ele>
        <time>2022-07-21T13:13:49Z</time>
      </trkpt>
      <trkpt lat="47.1543960" lon="6.8197560">
        <ele>931.8</ele>
        <time>2022-07-21T13:13:50Z</time>
      </trkpt>
      <trkpt lat="47.1543950" lon="6.8197590">
        <ele>931.8</ele>
        <time>2022-07-21T13:13:51Z</time>
      </trkpt>
      <trkpt lat="47.1543950" lon="6.8197610">
        <ele>931.8</ele>
        <time>2022-07-21T13:13:52Z</time>
      </trkpt>
      <trkpt lat="47.1543930" lon="6.8197650">
        <ele>933.0</ele>
        <time>2022-07-21T13:13:53Z</time>
      </trkpt>
      <trkpt lat="47.1543910" lon="6.8197680">
        <ele>933.0</ele>
        <time>2022-07-21T13:13:54Z</time>
      </trkpt>
      <trkpt lat="47.1543890" lon="6.8197700">
        <ele>933.0</ele>
        <time>2022-07-21T13:13:55Z</time>
      </trkpt>
      <trkpt lat="47.1543880" lon="6.8197700">
        <ele>933.0</ele>
        <time>2022-07-21T13:13:56Z</time>
      </trkpt>
      <trkpt lat="47.1543880" lon="6.8197710">
        <ele>933.0</ele>
        <time>2022-07-21T13:13:57Z</time>
      </trkpt>
      <trkpt lat="47.1543880" lon="6.8197710">
        <ele>933.0</ele>
        <time>2022-07-21T13:13:58Z</time>
      </trkpt>
      <trkpt lat="47.1543670" lon="6.8197710">
        <ele>933.0</ele>
        <time>2022-07-21T13:14:22Z</time>
      </trkpt>
      <trkpt lat="47.1543610" lon="6.8197730">
        <ele>933.0</ele>
        <time>2022-07-21T13:14:23Z</time>
      </trkpt>
      <trkpt lat="47.1543560" lon="6.8197750">
        <ele>933.0</ele>
        <time>2022-07-21T13:14:24Z</time>
      </trkpt>
      <trkpt lat="47.1543520" lon="6.8197770">
        <ele>932.9</ele>
        <time>2022-07-21T13:14:25Z</time>
      </trkpt>
      <trkpt lat="47.1543490" lon="6.8197800">
        <ele>932.9</ele>
        <time>2022-07-21T13:14:26Z</time>
      </trkpt>
      <trkpt lat="47.1543460" lon="6.8197810">
        <ele>932.9</ele>
        <time>2022-07-21T13:14:27Z</time>
      </trkpt>
      <trkpt lat="47.1543430" lon="6.8197820">
        <ele>932.9</ele>
        <time>2022-07-21T13:14:28Z</time>
      </trkpt>
      <trkpt lat="47.1543400" lon="6.8197840">
        <ele>932.9</ele>
        <time>2022-07-21T13:14:29Z</time>
      </trkpt>
      <trkpt lat="47.1543380" lon="6.8197870">
        <ele>932.9</ele>
        <time>2022-07-21T13:14:30Z</time>
      </trkpt>
      <trkpt lat="47.1543370" lon="6.8197890">
        <ele>932.9</ele>
        <time>2022-07-21T13:14:31Z</time>
      </trkpt>
      <trkpt lat="47.1543360" lon="6.8197900">
        <ele>932.9</ele>
        <time>2022-07-21T13:14:32Z</time>
      </trkpt>
      <trkpt lat="47.1543360" lon="6.8197910">
        <ele>932.9</ele>
        <time>2022-07-21T13:14:33Z</time>
      </trkpt>
      <trkpt lat="47.1543350" lon="6.8197910">
        <ele>932.9</ele>
        <time>2022-07-21T13:14:34Z</time>
      </trkpt>
      <trkpt lat="47.1543350" lon="6.8197910">
        <ele>932.9</ele>
        <time>2022-07-21T13:14:35Z</time>
      </trkpt>
      <trkpt lat="47.1543350" lon="6.8197910">
        <ele>932.9</ele>
        <time>2022-07-21T13:14:36Z</time>
      </trkpt>
      <trkpt lat="47.1543350" lon="6.8197910">
        <ele>932.9</ele>
        <time>2022-07-21T13:14:37Z</time>
      </trkpt>
      <trkpt lat="47.1543350" lon="6.8197910">
        <ele>932.9</ele>
        <time>2022-07-21T13:14:38Z</time>
      </trkpt>
      <trkpt lat="47.1543350" lon="6.8197910">
        <ele>932.9</ele>
        <time>2022-07-21T13:14:39Z</time>
      </trkpt>
      <trkpt lat="47.1543350" lon="6.8197910">
        <ele>932.9</ele>
        <time>2022-07-21T13:14:40Z</time>
      </trkpt>
      <trkpt lat="47.1543840" lon="6.8197240">
        <ele>931.9</ele>
        <time>2022-07-21T13:15:13Z</time>
      </trkpt>
      <trkpt lat="47.1543900" lon="6.8197180">
        <ele>931.9</ele>
        <time>2022-07-21T13:15:14Z</time>
      </trkpt>
      <trkpt lat="47.1543990" lon="6.8197220">
        <ele>931.9</ele>
        <time>2022-07-21T13:15:15Z</time>
      </trkpt>
      <trkpt lat="47.1544030" lon="6.8197260">
        <ele>931.9</ele>
        <time>2022-07-21T13:15:16Z</time>
      </trkpt>
      <trkpt lat="47.1544020" lon="6.8197240">
        <ele>931.9</ele>
        <time>2022-07-21T13:15:17Z</time>
      </trkpt>
      <trkpt lat="47.1544020" lon="6.8197190">
        <ele>931.9</ele>
        <time>2022-07-21T13:15:18Z</time>
      </trkpt>
      <trkpt lat="47.1544040" lon="6.8197180">
        <ele>931.9</ele>
        <time>2022-07-21T13:15:19Z</time>
      </trkpt>
      <trkpt lat="47.1544070" lon="6.8197200">
        <ele>931.9</ele>
        <time>2022-07-21T13:15:20Z</time>
      </trkpt>
      <trkpt lat="47.1544100" lon="6.8197200">
        <ele>931.9</ele>
        <time>2022-07-21T13:15:21Z</time>
      </trkpt>
      <trkpt lat="47.1544130" lon="6.8197200">
        <ele>931.9</ele>
        <time>2022-07-21T13:15:22Z</time>
      </trkpt>
      <trkpt lat="47.1544160" lon="6.8197200">
        <ele>931.9</ele>
        <time>2022-07-21T13:15:23Z</time>
      </trkpt>
      <trkpt lat="47.1544190" lon="6.8197190">
        <ele>931.9</ele>
        <time>2022-07-21T13:15:24Z</time>
      </trkpt>
      <trkpt lat="47.1544200" lon="6.8197210">
        <ele>931.9</ele>
        <time>2022-07-21T13:15:25Z</time>
      </trkpt>
      <trkpt lat="47.1544210" lon="6.8197220">
        <ele>931.9</ele>
        <time>2022-07-21T13:15:26Z</time>
      </trkpt>
      <trkpt lat="47.1544220" lon="6.8197230">
        <ele>931.9</ele>
        <time>2022-07-21T13:15:27Z</time>
      </trkpt>
      <trkpt lat="47.1544230" lon="6.8197240">
        <ele>931.9</ele>
        <time>2022-07-21T13:15:28Z</time>
      </trkpt>
      <trkpt lat="47.1544230" lon="6.8197250">
        <ele>931.9</ele>
        <time>2022-07-21T13:15:29Z</time>
      </trkpt>
      <trkpt lat="47.1544390" lon="6.8197430">
        <ele>931.9</ele>
        <time>2022-07-21T13:15:45Z</time>
      </trkpt>
      <trkpt lat="47.1544410" lon="6.8197450">
        <ele>931.9</ele>
        <time>2022-07-21T13:15:46Z</time>
      </trkpt>
      <trkpt lat="47.1544420" lon="6.8197460">
        <ele>931.9</ele>
        <time>2022-07-21T13:15:47Z</time>
      </trkpt>
      <trkpt lat="47.1544420" lon="6.8197470">
        <ele>931.9</ele>
        <time>2022-07-21T13:15:48Z</time>
      </trkpt>
      <trkpt lat="47.1544410" lon="6.8197480">
        <ele>931.9</ele>
        <time>2022-07-21T13:15:49Z</time>
      </trkpt>
      <trkpt lat="47.1544390" lon="6.8197470">
        <ele>931.9</ele>
        <time>2022-07-21T13:15:50Z</time>
      </trkpt>
      <trkpt lat="47.1544390" lon="6.8197470">
        <ele>931.9</ele>
        <time>2022-07-21T13:15:51Z</time>
      </trkpt>
      <trkpt lat="47.1544390" lon="6.8197460">
        <ele>931.9</ele>
        <time>2022-07-21T13:15:52Z</time>
      </trkpt>
      <trkpt lat="47.1544380" lon="6.8197470">
        <ele>931.9</ele>
        <time>2022-07-21T13:15:53Z</time>
      </trkpt>
      <trkpt lat="47.1544380" lon="6.8197480">
        <ele>931.9</ele>
        <time>2022-07-21T13:15:54Z</time>
      </trkpt>
      <trkpt lat="47.1544380" lon="6.8197480">
        <ele>931.9</ele>
        <time>2022-07-21T13:15:55Z</time>
      </trkpt>
      <trkpt lat="47.1544380" lon="6.8197480">
        <ele>931.9</ele>
        <time>2022-07-21T13:15:56Z</time>
      </trkpt>
      <trkpt lat="47.1544300" lon="6.8197000">
        <ele>931.9</ele>
        <time>2022-07-21T13:16:33Z</time>
      </trkpt>
      <trkpt lat="47.1544290" lon="6.8196970">
        <ele>931.9</ele>
        <time>2022-07-21T13:16:34Z</time>
      </trkpt>
      <trkpt lat="47.1544290" lon="6.8196950">
        <ele>931.9</ele>
        <time>2022-07-21T13:16:35Z</time>
      </trkpt>
      <trkpt lat="47.1544300" lon="6.8196930">
        <ele>931.9</ele>
        <time>2022-07-21T13:16:36Z</time>
      </trkpt>
      <trkpt lat="47.1544310" lon="6.8196910">
        <ele>931.9</ele>
        <time>2022-07-21T13:16:37Z</time>
      </trkpt>
      <trkpt lat="47.1544320" lon="6.8196890">
        <ele>931.9</ele>
        <time>2022-07-21T13:16:38Z</time>
      </trkpt>
      <trkpt lat="47.1544330" lon="6.8196880">
        <ele>931.9</ele>
        <time>2022-07-21T13:16:39Z</time>
      </trkpt>
      <trkpt lat="47.1544330" lon="6.8196880">
        <ele>931.9</ele>
        <time>2022-07-21T13:16:40Z</time>
      </trkpt>
      <trkpt lat="47.1544330" lon="6.8196880">
        <ele>931.9</ele>
        <time>2022-07-21T13:16:41Z</time>
      </trkpt>
      <trkpt lat="47.1544330" lon="6.8196880">
        <ele>931.9</ele>
        <time>2022-07-21T13:16:42Z</time>
      </trkpt>
      <trkpt lat="47.1544330" lon="6.8196880">
        <ele>931.9</ele>
        <time>2022-07-21T13:16:43Z</time>
      </trkpt>
      <trkpt lat="47.1544330" lon="6.8196890">
        <ele>931.9</ele>
        <time>2022-07-21T13:16:44Z</time>
      </trkpt>
      <trkpt lat="47.1544330" lon="6.8196890">
        <ele>931.9</ele>
        <time>2022-07-21T13:16:45Z</time>
      </trkpt>
      <trkpt lat="47.1544320" lon="6.8196900">
        <ele>931.9</ele>
        <time>2022-07-21T13:16:46Z</time>
      </trkpt>
      <trkpt lat="47.1544320" lon="6.8196910">
        <ele>931.9</ele>
        <time>2022-07-21T13:16:47Z</time>
      </trkpt>
      <trkpt lat="47.1544320" lon="6.8196910">
        <ele>931.9</ele>
        <time>2022-07-21T13:16:48Z</time>
      </trkpt>
      <trkpt lat="47.1544320" lon="6.8196910">
        <ele>931.9</ele>
        <time>2022-07-21T13:16:49Z</time>
      </trkpt>
      <trkpt lat="47.1544310" lon="6.8196860">
        <ele>931.9</ele>
        <time>2022-07-21T13:16:50Z</time>
      </trkpt>
      <trkpt lat="47.1544300" lon="6.8196810">
        <ele>931.9</ele>
        <time>2022-07-21T13:16:51Z</time>
      </trkpt>
      <trkpt lat="47.1544310" lon="6.8196780">
        <ele>931.9</ele>
        <time>2022-07-21T13:16:52Z</time>
      </trkpt>
      <trkpt lat="47.1544310" lon="6.8196770">
        <ele>931.9</ele>
        <time>2022-07-21T13:16:53Z</time>
      </trkpt>
      <trkpt lat="47.1544310" lon="6.8196760">
        <ele>931.9</ele>
        <time>2022-07-21T13:16:54Z</time>
      </trkpt>
      <trkpt lat="47.1544300" lon="6.8196760">
        <ele>931.9</ele>
        <time>2022-07-21T13:16:55Z</time>
      </trkpt>
      <trkpt lat="47.1544310" lon="6.8196740">
        <ele>931.9</ele>
        <time>2022-07-21T13:16:56Z</time>
      </trkpt>
      <trkpt lat="47.1544310" lon="6.8196730">
        <ele>931.9</ele>
        <time>2022-07-21T13:16:57Z</time>
      </trkpt>
      <trkpt lat="47.1544320" lon="6.8196710">
        <ele>931.9</ele>
        <time>2022-07-21T13:16:58Z</time>
      </trkpt>
      <trkpt lat="47.1544330" lon="6.8196700">
        <ele>931.9</ele>
        <time>2022-07-21T13:16:59Z</time>
      </trkpt>
      <trkpt lat="47.1544340" lon="6.8196680">
        <ele>931.9</ele>
        <time>2022-07-21T13:17:00Z</time>
      </trkpt>
      <trkpt lat="47.1544340" lon="6.8196670">
        <ele>931.9</ele>
        <time>2022-07-21T13:17:01Z</time>
      </trkpt>
      <trkpt lat="47.1544350" lon="6.8196670">
        <ele>931.9</ele>
        <time>2022-07-21T13:17:02Z</time>
      </trkpt>
      <trkpt lat="47.1544440" lon="6.8196610">
        <ele>931.9</ele>
        <time>2022-07-21T13:17:14Z</time>
      </trkpt>
      <trkpt lat="47.1544490" lon="6.8196600">
        <ele>931.9</ele>
        <time>2022-07-21T13:17:15Z</time>
      </trkpt>
      <trkpt lat="47.1544540" lon="6.8196590">
        <ele>931.9</ele>
        <time>2022-07-21T13:17:16Z</time>
      </trkpt>
      <trkpt lat="47.1544590" lon="6.8196520">
        <ele>931.9</ele>
        <time>2022-07-21T13:17:17Z</time>
      </trkpt>
      <trkpt lat="47.1544640" lon="6.8196450">
        <ele>931.9</ele>
        <time>2022-07-21T13:17:18Z</time>
      </trkpt>
      <trkpt lat="47.1544660" lon="6.8196420">
        <ele>931.9</ele>
        <time>2022-07-21T13:17:19Z</time>
      </trkpt>
      <trkpt lat="47.1544670" lon="6.8196420">
        <ele>931.9</ele>
        <time>2022-07-21T13:17:20Z</time>
      </trkpt>
      <trkpt lat="47.1544680" lon="6.8196430">
        <ele>932.0</ele>
        <time>2022-07-21T13:17:21Z</time>
      </trkpt>
      <trkpt lat="47.1544700" lon="6.8196420">
        <ele>932.0</ele>
        <time>2022-07-21T13:17:22Z</time>
      </trkpt>
      <trkpt lat="47.1544710" lon="6.8196350">
        <ele>932.2</ele>
        <time>2022-07-21T13:17:23Z</time>
      </trkpt>
      <trkpt lat="47.1544710" lon="6.8196290">
        <ele>932.2</ele>
        <time>2022-07-21T13:17:24Z</time>
      </trkpt>
      <trkpt lat="47.1544690" lon="6.8196260">
        <ele>932.0</ele>
        <time>2022-07-21T13:17:25Z</time>
      </trkpt>
      <trkpt lat="47.1544670" lon="6.8196220">
        <ele>932.0</ele>
        <time>2022-07-21T13:17:26Z</time>
      </trkpt>
      <trkpt lat="47.1544680" lon="6.8196220">
        <ele>932.0</ele>
        <time>2022-07-21T13:17:27Z</time>
      </trkpt>
      <trkpt lat="47.1544700" lon="6.8196210">
        <ele>932.0</ele>
        <time>2022-07-21T13:17:28Z</time>
      </trkpt>
      <trkpt lat="47.1544710" lon="6.8196210">
        <ele>932.2</ele>
        <time>2022-07-21T13:17:29Z</time>
      </trkpt>
      <trkpt lat="47.1544710" lon="6.8196200">
        <ele>932.2</ele>
        <time>2022-07-21T13:17:30Z</time>
      </trkpt>
      <trkpt lat="47.1544710" lon="6.8196200">
        <ele>932.2</ele>
        <time>2022-07-21T13:17:31Z</time>
      </trkpt>
      <trkpt lat="47.1544700" lon="6.8196200">
        <ele>932.0</ele>
        <time>2022-07-21T13:17:32Z</time>
      </trkpt>
      <trkpt lat="47.1544720" lon="6.8196190">
        <ele>932.2</ele>
        <time>2022-07-21T13:17:33Z</time>
      </trkpt>
      <trkpt lat="47.1544750" lon="6.8196190">
        <ele>932.2</ele>
        <time>2022-07-21T13:17:34Z</time>
      </trkpt>
      <trkpt lat="47.1544770" lon="6.8196200">
        <ele>932.2</ele>
        <time>2022-07-21T13:17:35Z</time>
      </trkpt>
      <trkpt lat="47.1544790" lon="6.8196200">
        <ele>932.2</ele>
        <time>2022-07-21T13:17:36Z</time>
      </trkpt>
      <trkpt lat="47.1544390" lon="6.8196230">
        <ele>932.0</ele>
        <time>2022-07-21T13:17:48Z</time>
      </trkpt>
      <trkpt lat="47.1544340" lon="6.8196230">
        <ele>932.0</ele>
        <time>2022-07-21T13:17:49Z</time>
      </trkpt>
      <trkpt lat="47.1544310" lon="6.8196230">
        <ele>932.0</ele>
        <time>2022-07-21T13:17:50Z</time>
      </trkpt>
      <trkpt lat="47.1544280" lon="6.8196240">
        <ele>932.0</ele>
        <time>2022-07-21T13:17:51Z</time>
      </trkpt>
      <trkpt lat="47.1544250" lon="6.8196250">
        <ele>932.0</ele>
        <time>2022-07-21T13:17:52Z</time>
      </trkpt>
      <trkpt lat="47.1544220" lon="6.8196280">
        <ele>932.0</ele>
        <time>2022-07-21T13:17:53Z</time>
      </trkpt>
      <trkpt lat="47.1544200" lon="6.8196300">
        <ele>932.0</ele>
        <time>2022-07-21T13:17:54Z</time>
      </trkpt>
      <trkpt lat="47.1544180" lon="6.8196320">
        <ele>932.0</ele>
        <time>2022-07-21T13:17:55Z</time>
      </trkpt>
      <trkpt lat="47.1544150" lon="6.8196350">
        <ele>932.0</ele>
        <time>2022-07-21T13:17:56Z</time>
      </trkpt>
      <trkpt lat="47.1544130" lon="6.8196350">
        <ele>932.0</ele>
        <time>2022-07-21T13:17:57Z</time>
      </trkpt>
      <trkpt lat="47.1544110" lon="6.8196340">
        <ele>932.0</ele>
        <time>2022-07-21T13:17:58Z</time>
      </trkpt>
      <trkpt lat="47.1544080" lon="6.8196370">
        <ele>932.0</ele>
        <time>2022-07-21T13:17:59Z</time>
      </trkpt>
      <trkpt lat="47.1544050" lon="6.8196430">
        <ele>932.0</ele>
        <time>2022-07-21T13:18:00Z</time>
      </trkpt>
      <trkpt lat="47.1544030" lon="6.8196490">
        <ele>932.0</ele>
        <time>2022-07-21T13:18:01Z</time>
      </trkpt>
      <trkpt lat="47.1544010" lon="6.8196530">
        <ele>932.0</ele>
        <time>2022-07-21T13:18:02Z</time>
      </trkpt>
      <trkpt lat="47.1544000" lon="6.8196550">
        <ele>932.0</ele>
        <time>2022-07-21T13:18:03Z</time>
      </trkpt>
      <trkpt lat="47.1544000" lon="6.8196570">
        <ele>932.0</ele>
        <time>2022-07-21T13:18:04Z</time>
      </trkpt>
      <trkpt lat="47.1544000" lon="6.8196580">
        <ele>932.0</ele>
        <time>2022-07-21T13:18:05Z</time>
      </trkpt>
      <trkpt lat="47.1543990" lon="6.8196580">
        <ele>932.0</ele>
        <time>2022-07-21T13:18:06Z</time>
      </trkpt>
      <trkpt lat="47.1543990" lon="6.8196580">
        <ele>932.0</ele>
        <time>2022-07-21T13:18:07Z</time>
      </trkpt>
      <trkpt lat="47.1543990" lon="6.8196580">
        <ele>932.0</ele>
        <time>2022-07-21T13:18:08Z</time>
      </trkpt>
      <trkpt lat="47.1543990" lon="6.8196590">
        <ele>932.0</ele>
        <time>2022-07-21T13:18:09Z</time>
      </trkpt>
      <trkpt lat="47.1543980" lon="6.8196590">
        <ele>932.0</ele>
        <time>2022-07-21T13:18:10Z</time>
      </trkpt>
      <trkpt lat="47.1543960" lon="6.8196570">
        <ele>932.0</ele>
        <time>2022-07-21T13:18:11Z</time>
      </trkpt>
      <trkpt lat="47.1543930" lon="6.8196570">
        <ele>932.0</ele>
        <time>2022-07-21T13:18:12Z</time>
      </trkpt>
      <trkpt lat="47.1543930" lon="6.8196610">
        <ele>932.0</ele>
        <time>2022-07-21T13:18:13Z</time>
      </trkpt>
      <trkpt lat="47.1543950" lon="6.8196680">
        <ele>932.0</ele>
        <time>2022-07-21T13:18:14Z</time>
      </trkpt>
      <trkpt lat="47.1543970" lon="6.8196730">
        <ele>932.0</ele>
        <time>2022-07-21T13:18:15Z</time>
      </trkpt>
      <trkpt lat="47.1543980" lon="6.8196790">
        <ele>932.0</ele>
        <time>2022-07-21T13:18:16Z</time>
      </trkpt>
      <trkpt lat="47.1543990" lon="6.8196830">
        <ele>932.0</ele>
        <time>2022-07-21T13:18:17Z</time>
      </trkpt>
      <trkpt lat="47.1543990" lon="6.8196860">
        <ele>932.0</ele>
        <time>2022-07-21T13:18:18Z</time>
      </trkpt>
      <trkpt lat="47.1543990" lon="6.8196890">
        <ele>932.0</ele>
        <time>2022-07-21T13:18:19Z</time>
      </trkpt>
      <trkpt lat="47.1543980" lon="6.8196910">
        <ele>932.0</ele>
        <time>2022-07-21T13:18:20Z</time>
      </trkpt>
      <trkpt lat="47.1543970" lon="6.8196910">
        <ele>932.0</ele>
        <time>2022-07-21T13:18:21Z</time>
      </trkpt>
      <trkpt lat="47.1543960" lon="6.8196920">
        <ele>932.0</ele>
        <time>2022-07-21T13:18:22Z</time>
      </trkpt>
      <trkpt lat="47.1543960" lon="6.8196920">
        <ele>932.0</ele>
        <time>2022-07-21T13:18:23Z</time>
      </trkpt>
      <trkpt lat="47.1543950" lon="6.8196920">
        <ele>932.0</ele>
        <time>2022-07-21T13:18:24Z</time>
      </trkpt>
      <trkpt lat="47.1543950" lon="6.8196920">
        <ele>932.0</ele>
        <time>2022-07-21T13:18:25Z</time>
      </trkpt>
      <trkpt lat="47.1543950" lon="6.8196920">
        <ele>932.0</ele>
        <time>2022-07-21T13:18:26Z</time>
      </trkpt>
      <trkpt lat="47.1543950" lon="6.8196920">
        <ele>932.0</ele>
        <time>2022-07-21T13:18:27Z</time>
      </trkpt>
      <trkpt lat="47.1544030" lon="6.8197160">
        <ele>932.0</ele>
        <time>2022-07-21T13:18:35Z</time>
      </trkpt>
      <trkpt lat="47.1544070" lon="6.8197210">
        <ele>932.0</ele>
        <time>2022-07-21T13:18:36Z</time>
      </trkpt>
      <trkpt lat="47.1544100" lon="6.8197230">
        <ele>932.0</ele>
        <time>2022-07-21T13:18:37Z</time>
      </trkpt>
      <trkpt lat="47.1544140" lon="6.8197210">
        <ele>932.0</ele>
        <time>2022-07-21T13:18:38Z</time>
      </trkpt>
      <trkpt lat="47.1544170" lon="6.8197230">
        <ele>932.0</ele>
        <time>2022-07-21T13:18:39Z</time>
      </trkpt>
      <trkpt lat="47.1544190" lon="6.8197240">
        <ele>932.0</ele>
        <time>2022-07-21T13:18:40Z</time>
      </trkpt>
      <trkpt lat="47.1544210" lon="6.8197250">
        <ele>932.0</ele>
        <time>2022-07-21T13:18:41Z</time>
      </trkpt>
      <trkpt lat="47.1544220" lon="6.8197270">
        <ele>932.0</ele>
        <time>2022-07-21T13:18:42Z</time>
      </trkpt>
      <trkpt lat="47.1544230" lon="6.8197280">
        <ele>932.0</ele>
        <time>2022-07-21T13:18:43Z</time>
      </trkpt>
      <trkpt lat="47.1544250" lon="6.8197290">
        <ele>932.0</ele>
        <time>2022-07-21T13:18:44Z</time>
      </trkpt>
      <trkpt lat="47.1544260" lon="6.8197330">
        <ele>932.0</ele>
        <time>2022-07-21T13:18:45Z</time>
      </trkpt>
      <trkpt lat="47.1544260" lon="6.8197390">
        <ele>932.0</ele>
        <time>2022-07-21T13:18:46Z</time>
      </trkpt>
      <trkpt lat="47.1544260" lon="6.8197430">
        <ele>932.0</ele>
        <time>2022-07-21T13:18:47Z</time>
      </trkpt>
      <trkpt lat="47.1544250" lon="6.8197460">
        <ele>932.0</ele>
        <time>2022-07-21T13:18:48Z</time>
      </trkpt>
      <trkpt lat="47.1544240" lon="6.8197480">
        <ele>932.0</ele>
        <time>2022-07-21T13:18:49Z</time>
      </trkpt>
      <trkpt lat="47.1543710" lon="6.8197830">
        <ele>933.2</ele>
        <time>2022-07-21T13:22:45Z</time>
      </trkpt>
      <trkpt lat="47.1543700" lon="6.8197890">
        <ele>933.2</ele>
        <time>2022-07-21T13:22:46Z</time>
      </trkpt>
      <trkpt lat="47.1543680" lon="6.8197920">
        <ele>933.2</ele>
        <time>2022-07-21T13:22:47Z</time>
      </trkpt>
      <trkpt lat="47.1543670" lon="6.8197940">
        <ele>933.2</ele>
        <time>2022-07-21T13:22:48Z</time>
      </trkpt>
      <trkpt lat="47.1543670" lon="6.8197940">
        <ele>933.2</ele>
        <time>2022-07-21T13:22:49Z</time>
      </trkpt>
      <trkpt lat="47.1543660" lon="6.8197940">
        <ele>933.2</ele>
        <time>2022-07-21T13:22:50Z</time>
      </trkpt>
      <trkpt lat="47.1543670" lon="6.8197900">
        <ele>933.2</ele>
        <time>2022-07-21T13:22:51Z</time>
      </trkpt>
      <trkpt lat="47.1543730" lon="6.8197890">
        <ele>933.2</ele>
        <time>2022-07-21T13:22:52Z</time>
      </trkpt>
      <trkpt lat="47.1543770" lon="6.8197880">
        <ele>933.2</ele>
        <time>2022-07-21T13:22:53Z</time>
      </trkpt>
      <trkpt lat="47.1543780" lon="6.8197880">
        <ele>933.2</ele>
        <time>2022-07-21T13:22:54Z</time>
      </trkpt>
      <trkpt lat="47.1543800" lon="6.8197870">
        <ele>933.2</ele>
        <time>2022-07-21T13:22:55Z</time>
      </trkpt>
      <trkpt lat="47.1543800" lon="6.8197860">
        <ele>933.2</ele>
        <time>2022-07-21T13:22:56Z</time>
      </trkpt>
      <trkpt lat="47.1543800" lon="6.8197870">
        <ele>933.2</ele>
        <time>2022-07-21T13:22:57Z</time>
      </trkpt>
      <trkpt lat="47.1543790" lon="6.8197900">
        <ele>933.2</ele>
        <time>2022-07-21T13:22:58Z</time>
      </trkpt>
      <trkpt lat="47.1543770" lon="6.8197940">
        <ele>933.2</ele>
        <time>2022-07-21T13:22:59Z</time>
      </trkpt>
      <trkpt lat="47.1543760" lon="6.8197930">
        <ele>933.2</ele>
        <time>2022-07-21T13:23:00Z</time>
      </trkpt>
      <trkpt lat="47.1543740" lon="6.8197910">
        <ele>933.2</ele>
        <time>2022-07-21T13:23:01Z</time>
      </trkpt>
      <trkpt lat="47.1543750" lon="6.8197900">
        <ele>933.2</ele>
        <time>2022-07-21T13:23:02Z</time>
      </trkpt>
      <trkpt lat="47.1543750" lon="6.8197880">
        <ele>933.2</ele>
        <time>2022-07-21T13:23:03Z</time>
      </trkpt>
      <trkpt lat="47.1543770" lon="6.8197860">
        <ele>933.2</ele>
        <time>2022-07-21T13:23:04Z</time>
      </trkpt>
      <trkpt lat="47.1543770" lon="6.8197820">
        <ele>933.2</ele>
        <time>2022-07-21T13:23:05Z</time>
      </trkpt>
      <trkpt lat="47.1543770" lon="6.8197780">
        <ele>933.2</ele>
        <time>2022-07-21T13:23:06Z</time>
      </trkpt>
      <trkpt lat="47.1543810" lon="6.8197760">
        <ele>933.2</ele>
        <time>2022-07-21T13:23:07Z</time>
      </trkpt>
      <trkpt lat="47.1543870" lon="6.8197760">
        <ele>933.2</ele>
        <time>2022-07-21T13:23:08Z</time>
      </trkpt>
      <trkpt lat="47.1543900" lon="6.8197740">
        <ele>933.3</ele>
        <time>2022-07-21T13:23:09Z</time>
      </trkpt>
      <trkpt lat="47.1543930" lon="6.8197710">
        <ele>933.3</ele>
        <time>2022-07-21T13:23:10Z</time>
      </trkpt>
      <trkpt lat="47.1543930" lon="6.8197680">
        <ele>933.3</ele>
        <time>2022-07-21T13:23:11Z</time>
      </trkpt>
      <trkpt lat="47.1543930" lon="6.8197650">
        <ele>933.3</ele>
        <time>2022-07-21T13:23:12Z</time>
      </trkpt>
      <trkpt lat="47.1543930" lon="6.8197630">
        <ele>932.0</ele>
        <time>2022-07-21T13:23:13Z</time>
      </trkpt>
      <trkpt lat="47.1543940" lon="6.8197610">
        <ele>932.0</ele>
        <time>2022-07-21T13:23:14Z</time>
      </trkpt>
      <trkpt lat="47.1543940" lon="6.8197600">
        <ele>932.0</ele>
        <time>2022-07-21T13:23:15Z</time>
      </trkpt>
      <trkpt lat="47.1543940" lon="6.8197580">
        <ele>932.0</ele>
        <time>2022-07-21T13:23:16Z</time>
      </trkpt>
      <trkpt lat="47.1543940" lon="6.8197580">
        <ele>932.0</ele>
        <time>2022-07-21T13:23:17Z</time>
      </trkpt>
      <trkpt lat="47.1543940" lon="6.8197570">
        <ele>932.0</ele>
        <time>2022-07-21T13:23:18Z</time>
      </trkpt>
      <trkpt lat="47.1543940" lon="6.8197570">
        <ele>932.0</ele>
        <time>2022-07-21T13:23:19Z</time>
      </trkpt>
      <trkpt lat="47.1543940" lon="6.8197560">
        <ele>932.0</ele>
        <time>2022-07-21T13:23:20Z</time>
      </trkpt>
      <trkpt lat="47.1544060" lon="6.8196850">
        <ele>932.0</ele>
        <time>2022-07-21T13:24:59Z</time>
      </trkpt>
      <trkpt lat="47.1544070" lon="6.8196760">
        <ele>932.0</ele>
        <time>2022-07-21T13:25:00Z</time>
      </trkpt>
      <trkpt lat="47.1544060" lon="6.8196720">
        <ele>932.0</ele>
        <time>2022-07-21T13:25:01Z</time>
      </trkpt>
      <trkpt lat="47.1544060" lon="6.8196690">
        <ele>932.0</ele>
        <time>2022-07-21T13:25:02Z</time>
      </trkpt>
      <trkpt lat="47.1544070" lon="6.8196640">
        <ele>932.0</ele>
        <time>2022-07-21T13:25:03Z</time>
      </trkpt>
      <trkpt lat="47.1544080" lon="6.8196610">
        <ele>932.0</ele>
        <time>2022-07-21T13:25:04Z</time>
      </trkpt>
      <trkpt lat="47.1544090" lon="6.8196570">
        <ele>932.0</ele>
        <time>2022-07-21T13:25:05Z</time>
      </trkpt>
      <trkpt lat="47.1544110" lon="6.8196540">
        <ele>932.0</ele>
        <time>2022-07-21T13:25:06Z</time>
      </trkpt>
      <trkpt lat="47.1544120" lon="6.8196500">
        <ele>932.0</ele>
        <time>2022-07-21T13:25:07Z</time>
      </trkpt>
      <trkpt lat="47.1544120" lon="6.8196450">
        <ele>932.0</ele>
        <time>2022-07-21T13:25:08Z</time>
      </trkpt>
      <trkpt lat="47.1544130" lon="6.8196400">
        <ele>932.0</ele>
        <time>2022-07-21T13:25:09Z</time>
      </trkpt>
      <trkpt lat="47.1544150" lon="6.8196390">
        <ele>932.0</ele>
        <time>2022-07-21T13:25:10Z</time>
      </trkpt>
      <trkpt lat="47.1544180" lon="6.8196370">
        <ele>932.0</ele>
        <time>2022-07-21T13:25:11Z</time>
      </trkpt>
      <trkpt lat="47.1544180" lon="6.8196350">
        <ele>932.0</ele>
        <time>2022-07-21T13:25:12Z</time>
      </trkpt>
      <trkpt lat="47.1544180" lon="6.8196320">
        <ele>932.0</ele>
        <time>2022-07-21T13:25:13Z</time>
      </trkpt>
      <trkpt lat="47.1544170" lon="6.8196300">
        <ele>932.0</ele>
        <time>2022-07-21T13:25:14Z</time>
      </trkpt>
      <trkpt lat="47.1544160" lon="6.8196310">
        <ele>932.0</ele>
        <time>2022-07-21T13:25:15Z</time>
      </trkpt>
      <trkpt lat="47.1543790" lon="6.8196480">
        <ele>932.0</ele>
        <time>2022-07-21T13:29:02Z</time>
      </trkpt>
      <trkpt lat="47.1543580" lon="6.8196380">
        <ele>932.0</ele>
        <time>2022-07-21T13:29:03Z</time>
      </trkpt>
      <trkpt lat="47.1543490" lon="6.8196310">
        <ele>931.9</ele>
        <time>2022-07-21T13:29:04Z</time>
      </trkpt>
      <trkpt lat="47.1543290" lon="6.8196190">
        <ele>931.9</ele>
        <time>2022-07-21T13:29:05Z</time>
      </trkpt>
      <trkpt lat="47.1543210" lon="6.8196140">
        <ele>931.9</ele>
        <time>2022-07-21T13:29:06Z</time>
      </trkpt>
      <trkpt lat="47.1543120" lon="6.8196090">
        <ele>931.9</ele>
        <time>2022-07-21T13:29:07Z</time>
      </trkpt>
      <trkpt lat="47.1542880" lon="6.8195870">
        <ele>931.2</ele>
        <time>2022-07-21T13:29:08Z</time>
      </trkpt>
      <trkpt lat="47.1542790" lon="6.8195780">
        <ele>931.2</ele>
        <time>2022-07-21T13:29:09Z</time>
      </trkpt>
      <trkpt lat="47.1542690" lon="6.8195670">
        <ele>931.2</ele>
        <time>2022-07-21T13:29:10Z</time>
      </trkpt>
      <trkpt lat="47.1542560" lon="6.8195560">
        <ele>931.2</ele>
        <time>2022-07-21T13:29:11Z</time>
      </trkpt>
      <trkpt lat="47.1542400" lon="6.8195390">
        <ele>931.2</ele>
        <time>2022-07-21T13:29:12Z</time>
      </trkpt>
      <trkpt lat="47.1542330" lon="6.8195310">
        <ele>931.1</ele>
        <time>2022-07-21T13:29:13Z</time>
      </trkpt>
      <trkpt lat="47.1542260" lon="6.8195230">
        <ele>931.1</ele>
        <time>2022-07-21T13:29:14Z</time>
      </trkpt>
      <trkpt lat="47.1542140" lon="6.8195070">
        <ele>931.1</ele>
        <time>2022-07-21T13:29:15Z</time>
      </trkpt>
      <trkpt lat="47.1542040" lon="6.8194880">
        <ele>931.1</ele>
        <time>2022-07-21T13:29:16Z</time>
      </trkpt>
      <trkpt lat="47.1541950" lon="6.8194700">
        <ele>931.1</ele>
        <time>2022-07-21T13:29:17Z</time>
      </trkpt>
      <trkpt lat="47.1541850" lon="6.8194430">
        <ele>931.1</ele>
        <time>2022-07-21T13:29:18Z</time>
      </trkpt>
      <trkpt lat="47.1541790" lon="6.8194170">
        <ele>930.2</ele>
        <time>2022-07-21T13:29:19Z</time>
      </trkpt>
      <trkpt lat="47.1541740" lon="6.8193980">
        <ele>930.2</ele>
        <time>2022-07-21T13:29:20Z</time>
      </trkpt>
      <trkpt lat="47.1541690" lon="6.8193740">
        <ele>930.2</ele>
        <time>2022-07-21T13:29:21Z</time>
      </trkpt>
      <trkpt lat="47.1541600" lon="6.8193500">
        <ele>930.2</ele>
        <time>2022-07-21T13:29:22Z</time>
      </trkpt>
      <trkpt lat="47.1541480" lon="6.8193090">
        <ele>930.2</ele>
        <time>2022-07-21T13:29:23Z</time>
      </trkpt>
      <trkpt lat="47.1541450" lon="6.8192950">
        <ele>930.2</ele>
        <time>2022-07-21T13:29:24Z</time>
      </trkpt>
      <trkpt lat="47.1541420" lon="6.8192510">
        <ele>930.2</ele>
        <time>2022-07-21T13:29:25Z</time>
      </trkpt>
      <trkpt lat="47.1541410" lon="6.8192330">
        <ele>929.3</ele>
        <time>2022-07-21T13:29:26Z</time>
      </trkpt>
      <trkpt lat="47.1541390" lon="6.8191780">
        <ele>929.3</ele>
        <time>2022-07-21T13:29:27Z</time>
      </trkpt>
      <trkpt lat="47.1541370" lon="6.8191590">
        <ele>929.3</ele>
        <time>2022-07-21T13:29:28Z</time>
      </trkpt>
      <trkpt lat="47.1541330" lon="6.8191190">
        <ele>929.3</ele>
        <time>2022-07-21T13:29:29Z</time>
      </trkpt>
      <trkpt lat="47.1541300" lon="6.8191000">
        <ele>929.3</ele>
        <time>2022-07-21T13:29:30Z</time>
      </trkpt>
      <trkpt lat="47.1541280" lon="6.8190990">
        <ele>929.3</ele>
        <time>2022-07-21T13:29:31Z</time>
      </trkpt>
      <trkpt lat="47.1541260" lon="6.8191120">
        <ele>929.3</ele>
        <time>2022-07-21T13:29:32Z</time>
      </trkpt>
      <trkpt lat="47.1541250" lon="6.8191240">
        <ele>929.3</ele>
        <time>2022-07-21T13:29:33Z</time>
      </trkpt>
      <trkpt lat="47.1541230" lon="6.8191300">
        <ele>929.3</ele>
        <time>2022-07-21T13:29:34Z</time>
      </trkpt>
      <trkpt lat="47.1541220" lon="6.8191310">
        <ele>929.3</ele>
        <time>2022-07-21T13:29:35Z</time>
      </trkpt>
      <trkpt lat="47.1541210" lon="6.8191310">
        <ele>929.3</ele>
        <time>2022-07-21T13:29:36Z</time>
      </trkpt>
      <trkpt lat="47.1541180" lon="6.8191320">
        <ele>929.2</ele>
        <time>2022-07-21T13:29:37Z</time>
      </trkpt>
      <trkpt lat="47.1541150" lon="6.8191330">
        <ele>929.2</ele>
        <time>2022-07-21T13:29:38Z</time>
      </trkpt>
      <trkpt lat="47.1541130" lon="6.8191340">
        <ele>929.2</ele>
        <time>2022-07-21T13:29:39Z</time>
      </trkpt>
      <trkpt lat="47.1541100" lon="6.8191350">
        <ele>929.2</ele>
        <time>2022-07-21T13:29:40Z</time>
      </trkpt>
      <trkpt lat="47.1541090" lon="6.8191340">
        <ele>929.2</ele>
        <time>2022-07-21T13:29:41Z</time>
      </trkpt>
      <trkpt lat="47.1541080" lon="6.8191330">
        <ele>929.2</ele>
        <time>2022-07-21T13:29:42Z</time>
      </trkpt>
      <trkpt lat="47.1541020" lon="6.8191130">
        <ele>929.2</ele>
        <time>2022-07-21T13:29:43Z</time>
      </trkpt>
      <trkpt lat="47.1540970" lon="6.8190920">
        <ele>929.2</ele>
        <time>2022-07-21T13:29:44Z</time>
      </trkpt>
      <trkpt lat="47.1540920" lon="6.8190720">
        <ele>928.6</ele>
        <time>2022-07-21T13:30:01Z</time>
      </trkpt>
      <trkpt lat="47.1540870" lon="6.8190520">
        <ele>928.6</ele>
        <time>2022-07-21T13:30:02Z</time>
      </trkpt>
      <trkpt lat="47.1540820" lon="6.8190320">
        <ele>928.6</ele>
        <time>2022-07-21T13:30:03Z</time>
      </trkpt>
      <trkpt lat="47.1540870" lon="6.8189800">
        <ele>928.6</ele>
        <time>2022-07-21T13:30:04Z</time>
      </trkpt>
      <trkpt lat="47.1540910" lon="6.8189610">
        <ele>928.6</ele>
        <time>2022-07-21T13:30:05Z</time>
      </trkpt>
      <trkpt lat="47.1541070" lon="6.8189170">
        <ele>928.5</ele>
        <time>2022-07-21T13:30:06Z</time>
      </trkpt>
      <trkpt lat="47.1541250" lon="6.8188850">
        <ele>928.4</ele>
        <time>2022-07-21T13:30:07Z</time>
      </trkpt>
      <trkpt lat="47.1541470" lon="6.8188490">
        <ele>928.4</ele>
        <time>2022-07-21T13:30:08Z</time>
      </trkpt>
      <trkpt lat="47.1541540" lon="6.8188380">
        <ele>928.3</ele>
        <time>2022-07-21T13:30:09Z</time>
      </trkpt>
      <trkpt lat="47.1541740" lon="6.8188090">
        <ele>928.3</ele>
        <time>2022-07-21T13:30:10Z</time>
      </trkpt>
      <trkpt lat="47.1541830" lon="6.8187970">
        <ele>928.3</ele>
        <time>2022-07-21T13:30:11Z</time>
      </trkpt>
      <trkpt lat="47.1542040" lon="6.8187660">
        <ele>928.3</ele>
        <time>2022-07-21T13:30:12Z</time>
      </trkpt>
      <trkpt lat="47.1542100" lon="6.8187560">
        <ele>928.3</ele>
        <time>2022-07-21T13:30:13Z</time>
      </trkpt>
      <trkpt lat="47.1542320" lon="6.8187210">
        <ele>928.2</ele>
        <time>2022-07-21T13:30:14Z</time>
      </trkpt>
      <trkpt lat="47.1542410" lon="6.8187090">
        <ele>928.2</ele>
        <time>2022-07-21T13:30:15Z</time>
      </trkpt>
      <trkpt lat="47.1542680" lon="6.8186780">
        <ele>928.2</ele>
        <time>2022-07-21T13:30:16Z</time>
      </trkpt>
      <trkpt lat="47.1542760" lon="6.8186700">
        <ele>928.2</ele>
        <time>2022-07-21T13:30:17Z</time>
      </trkpt>
      <trkpt lat="47.1543070" lon="6.8186360">
        <ele>928.3</ele>
        <time>2022-07-21T13:30:18Z</time>
      </trkpt>
      <trkpt lat="47.1543160" lon="6.8186260">
        <ele>928.3</ele>
        <time>2022-07-21T13:30:19Z</time>
      </trkpt>
      <trkpt lat="47.1543450" lon="6.8185990">
        <ele>928.3</ele>
        <time>2022-07-21T13:30:20Z</time>
      </trkpt>
      <trkpt lat="47.1543560" lon="6.8185890">
        <ele>928.3</ele>
        <time>2022-07-21T13:30:21Z</time>
      </trkpt>
      <trkpt lat="47.1543800" lon="6.8185680">
        <ele>928.3</ele>
        <time>2022-07-21T13:30:22Z</time>
      </trkpt>
      <trkpt lat="47.1543900" lon="6.8185590">
        <ele>928.3</ele>
        <time>2022-07-21T13:30:23Z</time>
      </trkpt>
      <trkpt lat="47.1544120" lon="6.8185330">
        <ele>928.3</ele>
        <time>2022-07-21T13:30:24Z</time>
      </trkpt>
      <trkpt lat="47.1544210" lon="6.8185230">
        <ele>928.3</ele>
        <time>2022-07-21T13:30:25Z</time>
      </trkpt>
      <trkpt lat="47.1544430" lon="6.8184950">
        <ele>928.3</ele>
        <time>2022-07-21T13:30:26Z</time>
      </trkpt>
      <trkpt lat="47.1544490" lon="6.8184890">
        <ele>928.3</ele>
        <time>2022-07-21T13:30:27Z</time>
      </trkpt>
      <trkpt lat="47.1544690" lon="6.8184650">
        <ele>928.3</ele>
        <time>2022-07-21T13:30:28Z</time>
      </trkpt>
      <trkpt lat="47.1544760" lon="6.8184540">
        <ele>928.3</ele>
        <time>2022-07-21T13:30:29Z</time>
      </trkpt>
      <trkpt lat="47.1544840" lon="6.8184360">
        <ele>928.3</ele>
        <time>2022-07-21T13:30:30Z</time>
      </trkpt>
      <trkpt lat="47.1544900" lon="6.8184140">
        <ele>928.3</ele>
        <time>2022-07-21T13:30:31Z</time>
      </trkpt>
      <trkpt lat="47.1544870" lon="6.8183750">
        <ele>928.2</ele>
        <time>2022-07-21T13:30:32Z</time>
      </trkpt>
      <trkpt lat="47.1544830" lon="6.8183570">
        <ele>928.2</ele>
        <time>2022-07-21T13:30:33Z</time>
      </trkpt>
      <trkpt lat="47.1544680" lon="6.8183090">
        <ele>928.2</ele>
        <time>2022-07-21T13:30:34Z</time>
      </trkpt>
      <trkpt lat="47.1544630" lon="6.8182950">
        <ele>928.2</ele>
        <time>2022-07-21T13:30:35Z</time>
      </trkpt>
      <trkpt lat="47.1544470" lon="6.8182630">
        <ele>928.1</ele>
        <time>2022-07-21T13:30:36Z</time>
      </trkpt>
      <trkpt lat="47.1544410" lon="6.8182510">
        <ele>928.1</ele>
        <time>2022-07-21T13:30:37Z</time>
      </trkpt>
      <trkpt lat="47.1544170" lon="6.8182120">
        <ele>928.0</ele>
        <time>2022-07-21T13:30:38Z</time>
      </trkpt>
      <trkpt lat="47.1544090" lon="6.8182010">
        <ele>928.0</ele>
        <time>2022-07-21T13:30:39Z</time>
      </trkpt>
      <trkpt lat="47.1543930" lon="6.8181680">
        <ele>927.9</ele>
        <time>2022-07-21T13:30:40Z</time>
      </trkpt>
      <trkpt lat="47.1543790" lon="6.8181320">
        <ele>927.8</ele>
        <time>2022-07-21T13:30:41Z</time>
      </trkpt>
      <trkpt lat="47.1543650" lon="6.8180790">
        <ele>927.7</ele>
        <time>2022-07-21T13:30:42Z</time>
      </trkpt>
      <trkpt lat="47.1543600" lon="6.8180600">
        <ele>927.6</ele>
        <time>2022-07-21T13:30:43Z</time>
      </trkpt>
      <trkpt lat="47.1543520" lon="6.8180210">
        <ele>927.5</ele>
        <time>2022-07-21T13:30:44Z</time>
      </trkpt>
      <trkpt lat="47.1543420" lon="6.8179570">
        <ele>927.3</ele>
        <time>2022-07-21T13:30:45Z</time>
      </trkpt>
      <trkpt lat="47.1543390" lon="6.8179290">
        <ele>927.2</ele>
        <time>2022-07-21T13:30:46Z</time>
      </trkpt>
      <trkpt lat="47.1543270" lon="6.8178460">
        <ele>926.9</ele>
        <time>2022-07-21T13:30:47Z</time>
      </trkpt>
      <trkpt lat="47.1543220" lon="6.8177590">
        <ele>926.6</ele>
        <time>2022-07-21T13:30:48Z</time>
      </trkpt>
      <trkpt lat="47.1543300" lon="6.8176960">
        <ele>926.4</ele>
        <time>2022-07-21T13:30:49Z</time>
      </trkpt>
      <trkpt lat="47.1543380" lon="6.8176430">
        <ele>926.2</ele>
        <time>2022-07-21T13:30:50Z</time>
      </trkpt>
      <trkpt lat="47.1543380" lon="6.8175950">
        <ele>926.0</ele>
        <time>2022-07-21T13:30:51Z</time>
      </trkpt>
      <trkpt lat="47.1543350" lon="6.8175320">
        <ele>925.8</ele>
        <time>2022-07-21T13:30:52Z</time>
      </trkpt>
      <trkpt lat="47.1543250" lon="6.8174640">
        <ele>925.5</ele>
        <time>2022-07-21T13:30:53Z</time>
      </trkpt>
      <trkpt lat="47.1543130" lon="6.8173780">
        <ele>925.2</ele>
        <time>2022-07-21T13:30:54Z</time>
      </trkpt>
      <trkpt lat="47.1542980" lon="6.8173010">
        <ele>925.0</ele>
        <time>2022-07-21T13:30:55Z</time>
      </trkpt>
      <trkpt lat="47.1542860" lon="6.8172270">
        <ele>924.8</ele>
        <time>2022-07-21T13:30:56Z</time>
      </trkpt>
      <trkpt lat="47.1542730" lon="6.8171570">
        <ele>924.6</ele>
        <time>2022-07-21T13:30:57Z</time>
      </trkpt>
      <trkpt lat="47.1542640" lon="6.8170890">
        <ele>924.4</ele>
        <time>2022-07-21T13:30:58Z</time>
      </trkpt>
      <trkpt lat="47.1542610" lon="6.8170340">
        <ele>924.3</ele>
        <time>2022-07-21T13:30:59Z</time>
      </trkpt>
      <trkpt lat="47.1542490" lon="6.8169770">
        <ele>924.2</ele>
        <time>2022-07-21T13:31:00Z</time>
      </trkpt>
      <trkpt lat="47.1542400" lon="6.8169220">
        <ele>924.1</ele>
        <time>2022-07-21T13:31:01Z</time>
      </trkpt>
      <trkpt lat="47.1542310" lon="6.8168620">
        <ele>924.0</ele>
        <time>2022-07-21T13:31:02Z</time>
      </trkpt>
      <trkpt lat="47.1542230" lon="6.8168030">
        <ele>923.9</ele>
        <time>2022-07-21T13:31:03Z</time>
      </trkpt>
      <trkpt lat="47.1542180" lon="6.8167550">
        <ele>923.8</ele>
        <time>2022-07-21T13:31:04Z</time>
      </trkpt>
      <trkpt lat="47.1542170" lon="6.8167050">
        <ele>923.7</ele>
        <time>2022-07-21T13:31:05Z</time>
      </trkpt>
      <trkpt lat="47.1542170" lon="6.8166470">
        <ele>923.6</ele>
        <time>2022-07-21T13:31:06Z</time>
      </trkpt>
      <trkpt lat="47.1542200" lon="6.8166040">
        <ele>923.5</ele>
        <time>2022-07-21T13:31:07Z</time>
      </trkpt>
      <trkpt lat="47.1542160" lon="6.8165470">
        <ele>923.4</ele>
        <time>2022-07-21T13:31:08Z</time>
      </trkpt>
      <trkpt lat="47.1542120" lon="6.8165050">
        <ele>923.3</ele>
        <time>2022-07-21T13:31:09Z</time>
      </trkpt>
      <trkpt lat="47.1542060" lon="6.8164540">
        <ele>923.2</ele>
        <time>2022-07-21T13:31:10Z</time>
      </trkpt>
      <trkpt lat="47.1541990" lon="6.8163980">
        <ele>923.1</ele>
        <time>2022-07-21T13:31:11Z</time>
      </trkpt>
      <trkpt lat="47.1541900" lon="6.8163480">
        <ele>923.0</ele>
        <time>2022-07-21T13:31:12Z</time>
      </trkpt>
      <trkpt lat="47.1541780" lon="6.8162970">
        <ele>922.8</ele>
        <time>2022-07-21T13:31:13Z</time>
      </trkpt>
      <trkpt lat="47.1541650" lon="6.8162520">
        <ele>922.7</ele>
        <time>2022-07-21T13:31:14Z</time>
      </trkpt>
      <trkpt lat="47.1541570" lon="6.8162040">
        <ele>922.6</ele>
        <time>2022-07-21T13:31:15Z</time>
      </trkpt>
      <trkpt lat="47.1541560" lon="6.8161510">
        <ele>922.5</ele>
        <time>2022-07-21T13:31:16Z</time>
      </trkpt>
      <trkpt lat="47.1541590" lon="6.8160940">
        <ele>922.3</ele>
        <time>2022-07-21T13:31:17Z</time>
      </trkpt>
      <trkpt lat="47.1541610" lon="6.8160320">
        <ele>922.2</ele>
        <time>2022-07-21T13:31:18Z</time>
      </trkpt>
      <trkpt lat="47.1541600" lon="6.8159750">
        <ele>922.0</ele>
        <time>2022-07-21T13:31:19Z</time>
      </trkpt>
      <trkpt lat="47.1541490" lon="6.8159030">
        <ele>921.8</ele>
        <time>2022-07-21T13:31:20Z</time>
      </trkpt>
      <trkpt lat="47.1541470" lon="6.8158410">
        <ele>921.7</ele>
        <time>2022-07-21T13:31:21Z</time>
      </trkpt>
      <trkpt lat="47.1541410" lon="6.8157680">
        <ele>921.5</ele>
        <time>2022-07-21T13:31:22Z</time>
      </trkpt>
      <trkpt lat="47.1541330" lon="6.8157160">
        <ele>921.4</ele>
        <time>2022-07-21T13:31:23Z</time>
      </trkpt>
      <trkpt lat="47.1541260" lon="6.8156520">
        <ele>921.3</ele>
        <time>2022-07-21T13:31:24Z</time>
      </trkpt>
      <trkpt lat="47.1541170" lon="6.8155810">
        <ele>921.2</ele>
        <time>2022-07-21T13:31:25Z</time>
      </trkpt>
      <trkpt lat="47.1541100" lon="6.8155160">
        <ele>921.1</ele>
        <time>2022-07-21T13:31:26Z</time>
      </trkpt>
      <trkpt lat="47.1541050" lon="6.8154660">
        <ele>921.0</ele>
        <time>2022-07-21T13:31:27Z</time>
      </trkpt>
      <trkpt lat="47.1541020" lon="6.8154120">
        <ele>920.9</ele>
        <time>2022-07-21T13:31:28Z</time>
      </trkpt>
      <trkpt lat="47.1541020" lon="6.8153590">
        <ele>920.8</ele>
        <time>2022-07-21T13:31:29Z</time>
      </trkpt>
      <trkpt lat="47.1541000" lon="6.8153030">
        <ele>920.7</ele>
        <time>2022-07-21T13:31:30Z</time>
      </trkpt>
      <trkpt lat="47.1540870" lon="6.8152530">
        <ele>920.6</ele>
        <time>2022-07-21T13:31:31Z</time>
      </trkpt>
      <trkpt lat="47.1540750" lon="6.8151980">
        <ele>920.5</ele>
        <time>2022-07-21T13:31:32Z</time>
      </trkpt>
      <trkpt lat="47.1540650" lon="6.8151490">
        <ele>920.3</ele>
        <time>2022-07-21T13:31:33Z</time>
      </trkpt>
      <trkpt lat="47.1540500" lon="6.8150860">
        <ele>920.2</ele>
        <time>2022-07-21T13:31:34Z</time>
      </trkpt>
      <trkpt lat="47.1540320" lon="6.8150270">
        <ele>920.0</ele>
        <time>2022-07-21T13:31:35Z</time>
      </trkpt>
      <trkpt lat="47.1540200" lon="6.8149710">
        <ele>919.8</ele>
        <time>2022-07-21T13:31:36Z</time>
      </trkpt>
      <trkpt lat="47.1540100" lon="6.8149000">
        <ele>919.6</ele>
        <time>2022-07-21T13:31:37Z</time>
      </trkpt>
      <trkpt lat="47.1540000" lon="6.8148410">
        <ele>919.4</ele>
        <time>2022-07-21T13:31:38Z</time>
      </trkpt>
      <trkpt lat="47.1539870" lon="6.8147830">
        <ele>919.2</ele>
        <time>2022-07-21T13:31:39Z</time>
      </trkpt>
      <trkpt lat="47.1539710" lon="6.8147180">
        <ele>919.0</ele>
        <time>2022-07-21T13:31:40Z</time>
      </trkpt>
      <trkpt lat="47.1539570" lon="6.8146670">
        <ele>918.9</ele>
        <time>2022-07-21T13:31:41Z</time>
      </trkpt>
      <trkpt lat="47.1539480" lon="6.8146220">
        <ele>918.8</ele>
        <time>2022-07-21T13:31:42Z</time>
      </trkpt>
      <trkpt lat="47.1539370" lon="6.8145540">
        <ele>918.6</ele>
        <time>2022-07-21T13:31:43Z</time>
      </trkpt>
      <trkpt lat="47.1539190" lon="6.8144860">
        <ele>918.4</ele>
        <time>2022-07-21T13:31:44Z</time>
      </trkpt>
      <trkpt lat="47.1539100" lon="6.8144370">
        <ele>918.3</ele>
        <time>2022-07-21T13:31:45Z</time>
      </trkpt>
      <trkpt lat="47.1538990" lon="6.8143820">
        <ele>918.2</ele>
        <time>2022-07-21T13:31:46Z</time>
      </trkpt>
      <trkpt lat="47.1538830" lon="6.8143180">
        <ele>918.0</ele>
        <time>2022-07-21T13:31:47Z</time>
      </trkpt>
      <trkpt lat="47.1538660" lon="6.8142530">
        <ele>917.9</ele>
        <time>2022-07-21T13:31:48Z</time>
      </trkpt>
      <trkpt lat="47.1538530" lon="6.8141900">
        <ele>917.8</ele>
        <time>2022-07-21T13:31:49Z</time>
      </trkpt>
      <trkpt lat="47.1538430" lon="6.8141450">
        <ele>917.7</ele>
        <time>2022-07-21T13:31:50Z</time>
      </trkpt>
      <trkpt lat="47.1538280" lon="6.8140900">
        <ele>917.6</ele>
        <time>2022-07-21T13:31:51Z</time>
      </trkpt>
      <trkpt lat="47.1538180" lon="6.8140350">
        <ele>917.5</ele>
        <time>2022-07-21T13:31:52Z</time>
      </trkpt>
      <trkpt lat="47.1538090" lon="6.8139840">
        <ele>917.5</ele>
        <time>2022-07-21T13:31:53Z</time>
      </trkpt>
      <trkpt lat="47.1537950" lon="6.8139340">
        <ele>917.4</ele>
        <time>2022-07-21T13:31:54Z</time>
      </trkpt>
      <trkpt lat="47.1537920" lon="6.8138890">
        <ele>917.3</ele>
        <time>2022-07-21T13:31:55Z</time>
      </trkpt>
      <trkpt lat="47.1537820" lon="6.8138360">
        <ele>917.3</ele>
        <time>2022-07-21T13:31:56Z</time>
      </trkpt>
      <trkpt lat="47.1537720" lon="6.8137810">
        <ele>917.2</ele>
        <time>2022-07-21T13:31:57Z</time>
      </trkpt>
      <trkpt lat="47.1537600" lon="6.8137320">
        <ele>917.2</ele>
        <time>2022-07-21T13:31:58Z</time>
      </trkpt>
      <trkpt lat="47.1537510" lon="6.8136930">
        <ele>917.2</ele>
        <time>2022-07-21T13:31:59Z</time>
      </trkpt>
      <trkpt lat="47.1537380" lon="6.8136390">
        <ele>917.1</ele>
        <time>2022-07-21T13:32:00Z</time>
      </trkpt>
      <trkpt lat="47.1537330" lon="6.8136210">
        <ele>917.1</ele>
        <time>2022-07-21T13:32:01Z</time>
      </trkpt>
      <trkpt lat="47.1537210" lon="6.8135820">
        <ele>917.1</ele>
        <time>2022-07-21T13:32:02Z</time>
      </trkpt>
      <trkpt lat="47.1537070" lon="6.8135380">
        <ele>917.1</ele>
        <time>2022-07-21T13:32:03Z</time>
      </trkpt>
      <trkpt lat="47.1536900" lon="6.8134920">
        <ele>917.1</ele>
        <time>2022-07-21T13:32:04Z</time>
      </trkpt>
      <trkpt lat="47.1536750" lon="6.8134520">
        <ele>917.0</ele>
        <time>2022-07-21T13:32:05Z</time>
      </trkpt>
      <trkpt lat="47.1536600" lon="6.8134140">
        <ele>917.0</ele>
        <time>2022-07-21T13:32:06Z</time>
      </trkpt>
      <trkpt lat="47.1536450" lon="6.8133790">
        <ele>917.0</ele>
        <time>2022-07-21T13:32:07Z</time>
      </trkpt>
      <trkpt lat="47.1536220" lon="6.8133330">
        <ele>917.0</ele>
        <time>2022-07-21T13:32:08Z</time>
      </trkpt>
      <trkpt lat="47.1536130" lon="6.8133180">
        <ele>917.0</ele>
        <time>2022-07-21T13:32:09Z</time>
      </trkpt>
      <trkpt lat="47.1535900" lon="6.8132810">
        <ele>917.0</ele>
        <time>2022-07-21T13:32:10Z</time>
      </trkpt>
      <trkpt lat="47.1535840" lon="6.8132720">
        <ele>917.0</ele>
        <time>2022-07-21T13:32:11Z</time>
      </trkpt>
      <trkpt lat="47.1535790" lon="6.8132650">
        <ele>917.0</ele>
        <time>2022-07-21T13:32:12Z</time>
      </trkpt>
      <trkpt lat="47.1535760" lon="6.8132690">
        <ele>917.0</ele>
        <time>2022-07-21T13:32:13Z</time>
      </trkpt>
      <trkpt lat="47.1535750" lon="6.8132730">
        <ele>917.0</ele>
        <time>2022-07-21T13:32:14Z</time>
      </trkpt>
      <trkpt lat="47.1535760" lon="6.8132750">
        <ele>917.0</ele>
        <time>2022-07-21T13:32:15Z</time>
      </trkpt>
      <trkpt lat="47.1535740" lon="6.8132730">
        <ele>917.0</ele>
        <time>2022-07-21T13:32:16Z</time>
      </trkpt>
      <trkpt lat="47.1535700" lon="6.8132680">
        <ele>917.0</ele>
        <time>2022-07-21T13:32:17Z</time>
      </trkpt>
      <trkpt lat="47.1535670" lon="6.8132610">
        <ele>917.0</ele>
        <time>2022-07-21T13:32:18Z</time>
      </trkpt>
      <trkpt lat="47.1535660" lon="6.8132560">
        <ele>917.0</ele>
        <time>2022-07-21T13:32:19Z</time>
      </trkpt>
      <trkpt lat="47.1535670" lon="6.8132490">
        <ele>917.0</ele>
        <time>2022-07-21T13:32:20Z</time>
      </trkpt>
      <trkpt lat="47.1535680" lon="6.8132450">
        <ele>917.0</ele>
        <time>2022-07-21T13:32:21Z</time>
      </trkpt>
      <trkpt lat="47.1535690" lon="6.8132430">
        <ele>917.0</ele>
        <time>2022-07-21T13:32:22Z</time>
      </trkpt>
      <trkpt lat="47.1535710" lon="6.8132430">
        <ele>917.0</ele>
        <time>2022-07-21T13:32:23Z</time>
      </trkpt>
      <trkpt lat="47.1535710" lon="6.8132430">
        <ele>917.0</ele>
        <time>2022-07-21T13:32:24Z</time>
      </trkpt>
      <trkpt lat="47.1535710" lon="6.8132430">
        <ele>917.0</ele>
        <time>2022-07-21T13:32:25Z</time>
      </trkpt>
      <trkpt lat="47.1535640" lon="6.8132320">
        <ele>917.0</ele>
        <time>2022-07-21T13:32:26Z</time>
      </trkpt>
      <trkpt lat="47.1535590" lon="6.8132250">
        <ele>917.0</ele>
        <time>2022-07-21T13:32:27Z</time>
      </trkpt>
      <trkpt lat="47.1535510" lon="6.8132120">
        <ele>917.0</ele>
        <time>2022-07-21T13:32:28Z</time>
      </trkpt>
      <trkpt lat="47.1535480" lon="6.8132080">
        <ele>917.0</ele>
        <time>2022-07-21T13:32:29Z</time>
      </trkpt>
      <trkpt lat="47.1535440" lon="6.8132010">
        <ele>917.0</ele>
        <time>2022-07-21T13:32:30Z</time>
      </trkpt>
      <trkpt lat="47.1535410" lon="6.8131950">
        <ele>917.0</ele>
        <time>2022-07-21T13:32:31Z</time>
      </trkpt>
      <trkpt lat="47.1535370" lon="6.8131870">
        <ele>917.0</ele>
        <time>2022-07-21T13:32:32Z</time>
      </trkpt>
      <trkpt lat="47.1535330" lon="6.8131760">
        <ele>917.0</ele>
        <time>2022-07-21T13:32:33Z</time>
      </trkpt>
      <trkpt lat="47.1535300" lon="6.8131630">
        <ele>917.0</ele>
        <time>2022-07-21T13:32:34Z</time>
      </trkpt>
      <trkpt lat="47.1535260" lon="6.8131440">
        <ele>917.0</ele>
        <time>2022-07-21T13:32:35Z</time>
      </trkpt>
      <trkpt lat="47.1535230" lon="6.8131290">
        <ele>916.9</ele>
        <time>2022-07-21T13:32:36Z</time>
      </trkpt>
      <trkpt lat="47.1535200" lon="6.8131150">
        <ele>916.9</ele>
        <time>2022-07-21T13:32:37Z</time>
      </trkpt>
      <trkpt lat="47.1535180" lon="6.8131070">
        <ele>916.8</ele>
        <time>2022-07-21T13:32:38Z</time>
      </trkpt>
      <trkpt lat="47.1535190" lon="6.8131050">
        <ele>916.8</ele>
        <time>2022-07-21T13:32:39Z</time>
      </trkpt>
      <trkpt lat="47.1535190" lon="6.8131050">
        <ele>916.8</ele>
        <time>2022-07-21T13:32:40Z</time>
      </trkpt>
      <trkpt lat="47.1535160" lon="6.8130990">
        <ele>916.8</ele>
        <time>2022-07-21T13:32:41Z</time>
      </trkpt>
      <trkpt lat="47.1535090" lon="6.8130850">
        <ele>916.8</ele>
        <time>2022-07-21T13:32:42Z</time>
      </trkpt>
      <trkpt lat="47.1535020" lon="6.8130760">
        <ele>916.7</ele>
        <time>2022-07-21T13:32:43Z</time>
      </trkpt>
      <trkpt lat="47.1534980" lon="6.8130730">
        <ele>916.7</ele>
        <time>2022-07-21T13:32:44Z</time>
      </trkpt>
      <trkpt lat="47.1534940" lon="6.8130760">
        <ele>916.7</ele>
        <time>2022-07-21T13:32:45Z</time>
      </trkpt>
      <trkpt lat="47.1534900" lon="6.8130790">
        <ele>916.7</ele>
        <time>2022-07-21T13:32:46Z</time>
      </trkpt>
      <trkpt lat="47.1534840" lon="6.8130800">
        <ele>916.7</ele>
        <time>2022-07-21T13:32:47Z</time>
      </trkpt>
      <trkpt lat="47.1534740" lon="6.8130780">
        <ele>916.6</ele>
        <time>2022-07-21T13:32:48Z</time>
      </trkpt>
      <trkpt lat="47.1534550" lon="6.8130710">
        <ele>916.6</ele>
        <time>2022-07-21T13:32:49Z</time>
      </trkpt>
      <trkpt lat="47.1534430" lon="6.8130670">
        <ele>916.5</ele>
        <time>2022-07-21T13:32:50Z</time>
      </trkpt>
      <trkpt lat="47.1534090" lon="6.8130550">
        <ele>916.4</ele>
        <time>2022-07-21T13:32:51Z</time>
      </trkpt>
      <trkpt lat="47.1533970" lon="6.8130510">
        <ele>916.4</ele>
        <time>2022-07-21T13:32:52Z</time>
      </trkpt>
      <trkpt lat="47.1533610" lon="6.8130460">
        <ele>916.3</ele>
        <time>2022-07-21T13:32:53Z</time>
      </trkpt>
      <trkpt lat="47.1533450" lon="6.8130450">
        <ele>916.2</ele>
        <time>2022-07-21T13:32:54Z</time>
      </trkpt>
      <trkpt lat="47.1533080" lon="6.8130450">
        <ele>916.1</ele>
        <time>2022-07-21T13:32:55Z</time>
      </trkpt>
      <trkpt lat="47.1532960" lon="6.8130450">
        <ele>916.1</ele>
        <time>2022-07-21T13:32:56Z</time>
      </trkpt>
      <trkpt lat="47.1532620" lon="6.8130460">
        <ele>916.0</ele>
        <time>2022-07-21T13:32:57Z</time>
      </trkpt>
      <trkpt lat="47.1532510" lon="6.8130460">
        <ele>915.9</ele>
        <time>2022-07-21T13:32:58Z</time>
      </trkpt>
      <trkpt lat="47.1532130" lon="6.8130500">
        <ele>915.8</ele>
        <time>2022-07-21T13:32:59Z</time>
      </trkpt>
      <trkpt lat="47.1532010" lon="6.8130520">
        <ele>915.8</ele>
        <time>2022-07-21T13:33:00Z</time>
      </trkpt>
      <trkpt lat="47.1531650" lon="6.8130620">
        <ele>915.7</ele>
        <time>2022-07-21T13:33:01Z</time>
      </trkpt>
      <trkpt lat="47.1531540" lon="6.8130660">
        <ele>915.7</ele>
        <time>2022-07-21T13:33:02Z</time>
      </trkpt>
      <trkpt lat="47.1531170" lon="6.8130830">
        <ele>915.6</ele>
        <time>2022-07-21T13:33:03Z</time>
      </trkpt>
      <trkpt lat="47.1531060" lon="6.8130890">
        <ele>915.6</ele>
        <time>2022-07-21T13:33:04Z</time>
      </trkpt>
      <trkpt lat="47.1530730" lon="6.8131100">
        <ele>915.5</ele>
        <time>2022-07-21T13:33:05Z</time>
      </trkpt>
      <trkpt lat="47.1530610" lon="6.8131180">
        <ele>915.5</ele>
        <time>2022-07-21T13:33:06Z</time>
      </trkpt>
      <trkpt lat="47.1530300" lon="6.8131350">
        <ele>915.4</ele>
        <time>2022-07-21T13:33:07Z</time>
      </trkpt>
      <trkpt lat="47.1530200" lon="6.8131400">
        <ele>915.4</ele>
        <time>2022-07-21T13:33:08Z</time>
      </trkpt>
      <trkpt lat="47.1529900" lon="6.8131540">
        <ele>915.3</ele>
        <time>2022-07-21T13:33:09Z</time>
      </trkpt>
      <trkpt lat="47.1529800" lon="6.8131590">
        <ele>915.3</ele>
        <time>2022-07-21T13:33:10Z</time>
      </trkpt>
      <trkpt lat="47.1529540" lon="6.8131730">
        <ele>915.2</ele>
        <time>2022-07-21T13:33:11Z</time>
      </trkpt>
      <trkpt lat="47.1529270" lon="6.8131850">
        <ele>915.2</ele>
        <time>2022-07-21T13:33:12Z</time>
      </trkpt>
      <trkpt lat="47.1528900" lon="6.8132000">
        <ele>915.1</ele>
        <time>2022-07-21T13:33:13Z</time>
      </trkpt>
      <trkpt lat="47.1528750" lon="6.8132050">
        <ele>915.0</ele>
        <time>2022-07-21T13:33:14Z</time>
      </trkpt>
      <trkpt lat="47.1528480" lon="6.8132120">
        <ele>914.9</ele>
        <time>2022-07-21T13:33:15Z</time>
      </trkpt>
      <trkpt lat="47.1528120" lon="6.8132160">
        <ele>914.8</ele>
        <time>2022-07-21T13:33:16Z</time>
      </trkpt>
      <trkpt lat="47.1527770" lon="6.8132100">
        <ele>914.8</ele>
        <time>2022-07-21T13:33:17Z</time>
      </trkpt>
      <trkpt lat="47.1527430" lon="6.8131900">
        <ele>914.7</ele>
        <time>2022-07-21T13:33:18Z</time>
      </trkpt>
      <trkpt lat="47.1527030" lon="6.8131500">
        <ele>914.5</ele>
        <time>2022-07-21T13:33:19Z</time>
      </trkpt>
      <trkpt lat="47.1526740" lon="6.8130980">
        <ele>914.4</ele>
        <time>2022-07-21T13:33:20Z</time>
      </trkpt>
      <trkpt lat="47.1526540" lon="6.8130450">
        <ele>914.3</ele>
        <time>2022-07-21T13:33:21Z</time>
      </trkpt>
      <trkpt lat="47.1526400" lon="6.8129960">
        <ele>914.3</ele>
        <time>2022-07-21T13:33:22Z</time>
      </trkpt>
      <trkpt lat="47.1526210" lon="6.8129360">
        <ele>914.3</ele>
        <time>2022-07-21T13:33:23Z</time>
      </trkpt>
      <trkpt lat="47.1526070" lon="6.8128920">
        <ele>914.3</ele>
        <time>2022-07-21T13:33:24Z</time>
      </trkpt>
      <trkpt lat="47.1525900" lon="6.8128400">
        <ele>914.3</ele>
        <time>2022-07-21T13:33:25Z</time>
      </trkpt>
      <trkpt lat="47.1525840" lon="6.8128230">
        <ele>914.3</ele>
        <time>2022-07-21T13:33:26Z</time>
      </trkpt>
      <trkpt lat="47.1525690" lon="6.8127850">
        <ele>914.3</ele>
        <time>2022-07-21T13:33:27Z</time>
      </trkpt>
      <trkpt lat="47.1525570" lon="6.8127460">
        <ele>914.4</ele>
        <time>2022-07-21T13:33:28Z</time>
      </trkpt>
      <trkpt lat="47.1525530" lon="6.8127350">
        <ele>914.4</ele>
        <time>2022-07-21T13:33:29Z</time>
      </trkpt>
      <trkpt lat="47.1525390" lon="6.8126980">
        <ele>914.4</ele>
        <time>2022-07-21T13:33:30Z</time>
      </trkpt>
      <trkpt lat="47.1525230" lon="6.8126590">
        <ele>914.5</ele>
        <time>2022-07-21T13:33:31Z</time>
      </trkpt>
      <trkpt lat="47.1525090" lon="6.8126220">
        <ele>914.6</ele>
        <time>2022-07-21T13:33:32Z</time>
      </trkpt>
      <trkpt lat="47.1524910" lon="6.8125720">
        <ele>914.7</ele>
        <time>2022-07-21T13:33:33Z</time>
      </trkpt>
      <trkpt lat="47.1524850" lon="6.8125560">
        <ele>914.7</ele>
        <time>2022-07-21T13:33:34Z</time>
      </trkpt>
      <trkpt lat="47.1524650" lon="6.8125140">
        <ele>914.8</ele>
        <time>2022-07-21T13:33:35Z</time>
      </trkpt>
      <trkpt lat="47.1524600" lon="6.8125030">
        <ele>914.9</ele>
        <time>2022-07-21T13:33:36Z</time>
      </trkpt>
      <trkpt lat="47.1524410" lon="6.8124610">
        <ele>915.0</ele>
        <time>2022-07-21T13:33:37Z</time>
      </trkpt>
      <trkpt lat="47.1524360" lon="6.8124480">
        <ele>915.0</ele>
        <time>2022-07-21T13:33:38Z</time>
      </trkpt>
      <trkpt lat="47.1524180" lon="6.8124110">
        <ele>915.1</ele>
        <time>2022-07-21T13:33:39Z</time>
      </trkpt>
      <trkpt lat="47.1524100" lon="6.8123970">
        <ele>915.2</ele>
        <time>2022-07-21T13:33:40Z</time>
      </trkpt>
      <trkpt lat="47.1523890" lon="6.8123620">
        <ele>915.3</ele>
        <time>2022-07-21T13:33:41Z</time>
      </trkpt>
      <trkpt lat="47.1523840" lon="6.8123530">
        <ele>915.3</ele>
        <time>2022-07-21T13:33:42Z</time>
      </trkpt>
      <trkpt lat="47.1523680" lon="6.8123150">
        <ele>915.5</ele>
        <time>2022-07-21T13:33:43Z</time>
      </trkpt>
      <trkpt lat="47.1523620" lon="6.8123000">
        <ele>915.5</ele>
        <time>2022-07-21T13:33:44Z</time>
      </trkpt>
      <trkpt lat="47.1523460" lon="6.8122560">
        <ele>915.6</ele>
        <time>2022-07-21T13:33:45Z</time>
      </trkpt>
      <trkpt lat="47.1523420" lon="6.8122460">
        <ele>915.7</ele>
        <time>2022-07-21T13:33:46Z</time>
      </trkpt>
      <trkpt lat="47.1523290" lon="6.8121980">
        <ele>915.8</ele>
        <time>2022-07-21T13:33:47Z</time>
      </trkpt>
      <trkpt lat="47.1523240" lon="6.8121800">
        <ele>915.9</ele>
        <time>2022-07-21T13:33:48Z</time>
      </trkpt>
      <trkpt lat="47.1523120" lon="6.8121290">
        <ele>916.0</ele>
        <time>2022-07-21T13:33:49Z</time>
      </trkpt>
      <trkpt lat="47.1523070" lon="6.8121100">
        <ele>916.1</ele>
        <time>2022-07-21T13:33:50Z</time>
      </trkpt>
      <trkpt lat="47.1523000" lon="6.8120670">
        <ele>916.2</ele>
        <time>2022-07-21T13:33:51Z</time>
      </trkpt>
      <trkpt lat="47.1522980" lon="6.8120540">
        <ele>916.2</ele>
        <time>2022-07-21T13:33:52Z</time>
      </trkpt>
      <trkpt lat="47.1522870" lon="6.8120150">
        <ele>916.3</ele>
        <time>2022-07-21T13:33:53Z</time>
      </trkpt>
      <trkpt lat="47.1522710" lon="6.8119810">
        <ele>916.4</ele>
        <time>2022-07-21T13:33:54Z</time>
      </trkpt>
      <trkpt lat="47.1522560" lon="6.8119490">
        <ele>916.5</ele>
        <time>2022-07-21T13:33:55Z</time>
      </trkpt>
      <trkpt lat="47.1522500" lon="6.8119360">
        <ele>916.5</ele>
        <time>2022-07-21T13:33:56Z</time>
      </trkpt>
      <trkpt lat="47.1522340" lon="6.8119020">
        <ele>916.6</ele>
        <time>2022-07-21T13:33:57Z</time>
      </trkpt>
      <trkpt lat="47.1522280" lon="6.8118890">
        <ele>916.7</ele>
        <time>2022-07-21T13:33:58Z</time>
      </trkpt>
      <trkpt lat="47.1522140" lon="6.8118530">
        <ele>916.8</ele>
        <time>2022-07-21T13:33:59Z</time>
      </trkpt>
      <trkpt lat="47.1522100" lon="6.8118390">
        <ele>916.8</ele>
        <time>2022-07-21T13:34:00Z</time>
      </trkpt>
      <trkpt lat="47.1522010" lon="6.8118000">
        <ele>916.9</ele>
        <time>2022-07-21T13:34:01Z</time>
      </trkpt>
      <trkpt lat="47.1521980" lon="6.8117880">
        <ele>917.0</ele>
        <time>2022-07-21T13:34:02Z</time>
      </trkpt>
      <trkpt lat="47.1521900" lon="6.8117460">
        <ele>917.1</ele>
        <time>2022-07-21T13:34:03Z</time>
      </trkpt>
      <trkpt lat="47.1521880" lon="6.8117340">
        <ele>917.1</ele>
        <time>2022-07-21T13:34:04Z</time>
      </trkpt>
      <trkpt lat="47.1521800" lon="6.8116940">
        <ele>917.2</ele>
        <time>2022-07-21T13:34:05Z</time>
      </trkpt>
      <trkpt lat="47.1521780" lon="6.8116820">
        <ele>917.2</ele>
        <time>2022-07-21T13:34:06Z</time>
      </trkpt>
      <trkpt lat="47.1521710" lon="6.8116430">
        <ele>917.3</ele>
        <time>2022-07-21T13:34:07Z</time>
      </trkpt>
      <trkpt lat="47.1521680" lon="6.8116280">
        <ele>917.3</ele>
        <time>2022-07-21T13:34:08Z</time>
      </trkpt>
      <trkpt lat="47.1521560" lon="6.8115840">
        <ele>917.4</ele>
        <time>2022-07-21T13:34:09Z</time>
      </trkpt>
      <trkpt lat="47.1521510" lon="6.8115690">
        <ele>917.5</ele>
        <time>2022-07-21T13:34:10Z</time>
      </trkpt>
      <trkpt lat="47.1521420" lon="6.8115410">
        <ele>917.5</ele>
        <time>2022-07-21T13:34:11Z</time>
      </trkpt>
      <trkpt lat="47.1521390" lon="6.8115360">
        <ele>917.5</ele>
        <time>2022-07-21T13:34:12Z</time>
      </trkpt>
      <trkpt lat="47.1521390" lon="6.8115360">
        <ele>917.5</ele>
        <time>2022-07-21T13:34:13Z</time>
      </trkpt>
      <trkpt lat="47.1521430" lon="6.8115390">
        <ele>917.6</ele>
        <time>2022-07-21T13:34:14Z</time>
      </trkpt>
      <trkpt lat="47.1521480" lon="6.8115440">
        <ele>917.6</ele>
        <time>2022-07-21T13:34:15Z</time>
      </trkpt>
      <trkpt lat="47.1521530" lon="6.8115480">
        <ele>917.6</ele>
        <time>2022-07-21T13:34:16Z</time>
      </trkpt>
      <trkpt lat="47.1521550" lon="6.8115490">
        <ele>917.6</ele>
        <time>2022-07-21T13:34:17Z</time>
      </trkpt>
      <trkpt lat="47.1521550" lon="6.8115500">
        <ele>917.6</ele>
        <time>2022-07-21T13:34:18Z</time>
      </trkpt>
      <trkpt lat="47.1521530" lon="6.8115510">
        <ele>917.6</ele>
        <time>2022-07-21T13:34:19Z</time>
      </trkpt>
      <trkpt lat="47.1521570" lon="6.8115600">
        <ele>917.6</ele>
        <time>2022-07-21T13:34:20Z</time>
      </trkpt>
      <trkpt lat="47.1521600" lon="6.8115630">
        <ele>917.6</ele>
        <time>2022-07-21T13:34:21Z</time>
      </trkpt>
      <trkpt lat="47.1521610" lon="6.8115560">
        <ele>917.6</ele>
        <time>2022-07-21T13:34:22Z</time>
      </trkpt>
      <trkpt lat="47.1521610" lon="6.8115480">
        <ele>917.7</ele>
        <time>2022-07-21T13:34:23Z</time>
      </trkpt>
      <trkpt lat="47.1521580" lon="6.8115420">
        <ele>917.7</ele>
        <time>2022-07-21T13:34:24Z</time>
      </trkpt>
      <trkpt lat="47.1521560" lon="6.8115370">
        <ele>917.7</ele>
        <time>2022-07-21T13:34:25Z</time>
      </trkpt>
      <trkpt lat="47.1521560" lon="6.8115340">
        <ele>917.7</ele>
        <time>2022-07-21T13:34:26Z</time>
      </trkpt>
      <trkpt lat="47.1521570" lon="6.8115330">
        <ele>917.7</ele>
        <time>2022-07-21T13:34:27Z</time>
      </trkpt>
      <trkpt lat="47.1521610" lon="6.8115340">
        <ele>917.7</ele>
        <time>2022-07-21T13:34:28Z</time>
      </trkpt>
      <trkpt lat="47.1521670" lon="6.8115340">
        <ele>917.7</ele>
        <time>2022-07-21T13:34:29Z</time>
      </trkpt>
      <trkpt lat="47.1521710" lon="6.8115350">
        <ele>917.7</ele>
        <time>2022-07-21T13:34:30Z</time>
      </trkpt>
      <trkpt lat="47.1521700" lon="6.8115280">
        <ele>917.7</ele>
        <time>2022-07-21T13:34:31Z</time>
      </trkpt>
      <trkpt lat="47.1521670" lon="6.8115170">
        <ele>917.7</ele>
        <time>2022-07-21T13:34:32Z</time>
      </trkpt>
      <trkpt lat="47.1521580" lon="6.8114960">
        <ele>917.8</ele>
        <time>2022-07-21T13:34:33Z</time>
      </trkpt>
      <trkpt lat="47.1521490" lon="6.8114870">
        <ele>917.8</ele>
        <time>2022-07-21T13:34:34Z</time>
      </trkpt>
      <trkpt lat="47.1521400" lon="6.8114770">
        <ele>917.8</ele>
        <time>2022-07-21T13:34:35Z</time>
      </trkpt>
      <trkpt lat="47.1521310" lon="6.8114700">
        <ele>917.8</ele>
        <time>2022-07-21T13:34:36Z</time>
      </trkpt>
      <trkpt lat="47.1521250" lon="6.8114540">
        <ele>917.8</ele>
        <time>2022-07-21T13:34:37Z</time>
      </trkpt>
      <trkpt lat="47.1521230" lon="6.8114440">
        <ele>917.8</ele>
        <time>2022-07-21T13:34:38Z</time>
      </trkpt>
      <trkpt lat="47.1521220" lon="6.8114350">
        <ele>917.8</ele>
        <time>2022-07-21T13:34:39Z</time>
      </trkpt>
      <trkpt lat="47.1521210" lon="6.8114250">
        <ele>917.8</ele>
        <time>2022-07-21T13:34:40Z</time>
      </trkpt>
      <trkpt lat="47.1521200" lon="6.8114160">
        <ele>917.8</ele>
        <time>2022-07-21T13:34:41Z</time>
      </trkpt>
      <trkpt lat="47.1521190" lon="6.8114070">
        <ele>917.8</ele>
        <time>2022-07-21T13:34:42Z</time>
      </trkpt>
      <trkpt lat="47.1521180" lon="6.8113970">
        <ele>917.8</ele>
        <time>2022-07-21T13:34:43Z</time>
      </trkpt>
      <trkpt lat="47.1521170" lon="6.8113880">
        <ele>917.8</ele>
        <time>2022-07-21T13:34:44Z</time>
      </trkpt>
      <trkpt lat="47.1521150" lon="6.8113790">
        <ele>917.8</ele>
        <time>2022-07-21T13:34:45Z</time>
      </trkpt>
      <trkpt lat="47.1521140" lon="6.8113690">
        <ele>917.8</ele>
        <time>2022-07-21T13:34:46Z</time>
      </trkpt>
      <trkpt lat="47.1521130" lon="6.8113600">
        <ele>917.8</ele>
        <time>2022-07-21T13:34:47Z</time>
      </trkpt>
      <trkpt lat="47.1521120" lon="6.8113500">
        <ele>917.8</ele>
        <time>2022-07-21T13:34:48Z</time>
      </trkpt>
      <trkpt lat="47.1521110" lon="6.8113410">
        <ele>917.8</ele>
        <time>2022-07-21T13:34:49Z</time>
      </trkpt>
      <trkpt lat="47.1521100" lon="6.8113320">
        <ele>917.8</ele>
        <time>2022-07-21T13:34:50Z</time>
      </trkpt>
      <trkpt lat="47.1521090" lon="6.8113220">
        <ele>917.8</ele>
        <time>2022-07-21T13:35:37Z</time>
      </trkpt>
      <trkpt lat="47.1521070" lon="6.8113130">
        <ele>917.8</ele>
        <time>2022-07-21T13:35:38Z</time>
      </trkpt>
      <trkpt lat="47.1521060" lon="6.8113040">
        <ele>917.8</ele>
        <time>2022-07-21T13:35:39Z</time>
      </trkpt>
      <trkpt lat="47.1520940" lon="6.8112480">
        <ele>917.7</ele>
        <time>2022-07-21T13:35:40Z</time>
      </trkpt>
      <trkpt lat="47.1520860" lon="6.8112030">
        <ele>917.7</ele>
        <time>2022-07-21T13:35:41Z</time>
      </trkpt>
      <trkpt lat="47.1520750" lon="6.8111550">
        <ele>917.6</ele>
        <time>2022-07-21T13:35:42Z</time>
      </trkpt>
      <trkpt lat="47.1520610" lon="6.8111050">
        <ele>917.6</ele>
        <time>2022-07-21T13:35:44Z</time>
      </trkpt>
      <trkpt lat="47.1520510" lon="6.8110670">
        <ele>917.5</ele>
        <time>2022-07-21T13:35:45Z</time>
      </trkpt>
      <trkpt lat="47.1520390" lon="6.8110130">
        <ele>917.5</ele>
        <time>2022-07-21T13:35:46Z</time>
      </trkpt>
      <trkpt lat="47.1520290" lon="6.8109600">
        <ele>917.4</ele>
        <time>2022-07-21T13:35:47Z</time>
      </trkpt>
      <trkpt lat="47.1520200" lon="6.8109070">
        <ele>917.4</ele>
        <time>2022-07-21T13:35:48Z</time>
      </trkpt>
      <trkpt lat="47.1520160" lon="6.8108480">
        <ele>917.4</ele>
        <time>2022-07-21T13:35:49Z</time>
      </trkpt>
      <trkpt lat="47.1520160" lon="6.8107900">
        <ele>917.3</ele>
        <time>2022-07-21T13:35:50Z</time>
      </trkpt>
      <trkpt lat="47.1520190" lon="6.8107240">
        <ele>917.3</ele>
        <time>2022-07-21T13:35:51Z</time>
      </trkpt>
      <trkpt lat="47.1520220" lon="6.8106670">
        <ele>917.3</ele>
        <time>2022-07-21T13:35:52Z</time>
      </trkpt>
      <trkpt lat="47.1520230" lon="6.8106180">
        <ele>917.3</ele>
        <time>2022-07-21T13:35:53Z</time>
      </trkpt>
      <trkpt lat="47.1520190" lon="6.8105730">
        <ele>917.3</ele>
        <time>2022-07-21T13:35:54Z</time>
      </trkpt>
      <trkpt lat="47.1520160" lon="6.8105260">
        <ele>917.3</ele>
        <time>2022-07-21T13:35:55Z</time>
      </trkpt>
      <trkpt lat="47.1520160" lon="6.8104740">
        <ele>917.4</ele>
        <time>2022-07-21T13:35:56Z</time>
      </trkpt>
      <trkpt lat="47.1520180" lon="6.8104190">
        <ele>917.4</ele>
        <time>2022-07-21T13:35:57Z</time>
      </trkpt>
      <trkpt lat="47.1520200" lon="6.8103780">
        <ele>917.4</ele>
        <time>2022-07-21T13:35:58Z</time>
      </trkpt>
      <trkpt lat="47.1520270" lon="6.8103310">
        <ele>917.5</ele>
        <time>2022-07-21T13:36:00Z</time>
      </trkpt>
      <trkpt lat="47.1520310" lon="6.8102640">
        <ele>917.5</ele>
        <time>2022-07-21T13:36:01Z</time>
      </trkpt>
      <trkpt lat="47.1520380" lon="6.8102090">
        <ele>917.6</ele>
        <time>2022-07-21T13:36:02Z</time>
      </trkpt>
      <trkpt lat="47.1520420" lon="6.8101930">
        <ele>917.6</ele>
        <time>2022-07-21T13:36:03Z</time>
      </trkpt>
      <trkpt lat="47.1520540" lon="6.8101560">
        <ele>917.7</ele>
        <time>2022-07-21T13:36:04Z</time>
      </trkpt>
      <trkpt lat="47.1520650" lon="6.8101180">
        <ele>917.7</ele>
        <time>2022-07-21T13:36:05Z</time>
      </trkpt>
      <trkpt lat="47.1520780" lon="6.8100790">
        <ele>917.8</ele>
        <time>2022-07-21T13:36:06Z</time>
      </trkpt>
      <trkpt lat="47.1520900" lon="6.8100420">
        <ele>917.8</ele>
        <time>2022-07-21T13:36:07Z</time>
      </trkpt>
      <trkpt lat="47.1521100" lon="6.8099870">
        <ele>917.9</ele>
        <time>2022-07-21T13:36:09Z</time>
      </trkpt>
      <trkpt lat="47.1521170" lon="6.8099710">
        <ele>917.9</ele>
        <time>2022-07-21T13:36:10Z</time>
      </trkpt>
      <trkpt lat="47.1521230" lon="6.8099550">
        <ele>917.9</ele>
        <time>2022-07-21T13:36:11Z</time>
      </trkpt>
      <trkpt lat="47.1521370" lon="6.8099210">
        <ele>918.0</ele>
        <time>2022-07-21T13:36:12Z</time>
      </trkpt>
      <trkpt lat="47.1521480" lon="6.8098830">
        <ele>918.0</ele>
        <time>2022-07-21T13:36:13Z</time>
      </trkpt>
      <trkpt lat="47.1521590" lon="6.8098270">
        <ele>918.0</ele>
        <time>2022-07-21T13:36:15Z</time>
      </trkpt>
      <trkpt lat="47.1521620" lon="6.8098090">
        <ele>918.0</ele>
        <time>2022-07-21T13:36:16Z</time>
      </trkpt>
      <trkpt lat="47.1521630" lon="6.8097650">
        <ele>918.1</ele>
        <time>2022-07-21T13:36:17Z</time>
      </trkpt>
      <trkpt lat="47.1521680" lon="6.8097030">
        <ele>918.1</ele>
        <time>2022-07-21T13:36:19Z</time>
      </trkpt>
      <trkpt lat="47.1521670" lon="6.8096580">
        <ele>918.1</ele>
        <time>2022-07-21T13:36:20Z</time>
      </trkpt>
      <trkpt lat="47.1521690" lon="6.8096160">
        <ele>918.1</ele>
        <time>2022-07-21T13:36:21Z</time>
      </trkpt>
      <trkpt lat="47.1521720" lon="6.8095700">
        <ele>918.1</ele>
        <time>2022-07-21T13:36:22Z</time>
      </trkpt>
      <trkpt lat="47.1521740" lon="6.8095290">
        <ele>918.0</ele>
        <time>2022-07-21T13:36:23Z</time>
      </trkpt>
      <trkpt lat="47.1521760" lon="6.8094870">
        <ele>918.0</ele>
        <time>2022-07-21T13:36:24Z</time>
      </trkpt>
      <trkpt lat="47.1521760" lon="6.8094460">
        <ele>918.0</ele>
        <time>2022-07-21T13:36:25Z</time>
      </trkpt>
      <trkpt lat="47.1521780" lon="6.8094030">
        <ele>918.0</ele>
        <time>2022-07-21T13:36:26Z</time>
      </trkpt>
      <trkpt lat="47.1521770" lon="6.8093540">
        <ele>917.9</ele>
        <time>2022-07-21T13:36:27Z</time>
      </trkpt>
      <trkpt lat="47.1521770" lon="6.8092920">
        <ele>917.9</ele>
        <time>2022-07-21T13:36:28Z</time>
      </trkpt>
      <trkpt lat="47.1521770" lon="6.8092260">
        <ele>917.8</ele>
        <time>2022-07-21T13:36:29Z</time>
      </trkpt>
      <trkpt lat="47.1521750" lon="6.8091580">
        <ele>917.7</ele>
        <time>2022-07-21T13:36:31Z</time>
      </trkpt>
      <trkpt lat="47.1521710" lon="6.8090990">
        <ele>917.7</ele>
        <time>2022-07-21T13:36:32Z</time>
      </trkpt>
      <trkpt lat="47.1521680" lon="6.8090500">
        <ele>917.6</ele>
        <time>2022-07-21T13:36:33Z</time>
      </trkpt>
      <trkpt lat="47.1521660" lon="6.8090000">
        <ele>917.6</ele>
        <time>2022-07-21T13:36:34Z</time>
      </trkpt>
      <trkpt lat="47.1521630" lon="6.8089460">
        <ele>917.5</ele>
        <time>2022-07-21T13:36:35Z</time>
      </trkpt>
      <trkpt lat="47.1521610" lon="6.8089060">
        <ele>917.5</ele>
        <time>2022-07-21T13:36:36Z</time>
      </trkpt>
      <trkpt lat="47.1521620" lon="6.8088440">
        <ele>917.4</ele>
        <time>2022-07-21T13:36:37Z</time>
      </trkpt>
      <trkpt lat="47.1521630" lon="6.8087480">
        <ele>917.4</ele>
        <time>2022-07-21T13:36:39Z</time>
      </trkpt>
      <trkpt lat="47.1521640" lon="6.8086800">
        <ele>917.3</ele>
        <time>2022-07-21T13:36:41Z</time>
      </trkpt>
      <trkpt lat="47.1521680" lon="6.8086000">
        <ele>917.3</ele>
        <time>2022-07-21T13:36:42Z</time>
      </trkpt>
      <trkpt lat="47.1521750" lon="6.8085540">
        <ele>917.3</ele>
        <time>2022-07-21T13:36:43Z</time>
      </trkpt>
      <trkpt lat="47.1521750" lon="6.8084880">
        <ele>917.3</ele>
        <time>2022-07-21T13:36:45Z</time>
      </trkpt>
      <trkpt lat="47.1521730" lon="6.8084240">
        <ele>917.4</ele>
        <time>2022-07-21T13:36:46Z</time>
      </trkpt>
      <trkpt lat="47.1521770" lon="6.8083640">
        <ele>917.4</ele>
        <time>2022-07-21T13:36:48Z</time>
      </trkpt>
      <trkpt lat="47.1521800" lon="6.8083210">
        <ele>917.4</ele>
        <time>2022-07-21T13:36:49Z</time>
      </trkpt>
      <trkpt lat="47.1521830" lon="6.8082780">
        <ele>917.5</ele>
        <time>2022-07-21T13:36:50Z</time>
      </trkpt>
      <trkpt lat="47.1521890" lon="6.8082420">
        <ele>917.5</ele>
        <time>2022-07-21T13:36:51Z</time>
      </trkpt>
      <trkpt lat="47.1521950" lon="6.8081890">
        <ele>917.6</ele>
        <time>2022-07-21T13:36:53Z</time>
      </trkpt>
      <trkpt lat="47.1521980" lon="6.8081450">
        <ele>917.6</ele>
        <time>2022-07-21T13:36:54Z</time>
      </trkpt>
      <trkpt lat="47.1522030" lon="6.8080920">
        <ele>917.7</ele>
        <time>2022-07-21T13:36:55Z</time>
      </trkpt>
      <trkpt lat="47.1522040" lon="6.8080740">
        <ele>917.7</ele>
        <time>2022-07-21T13:36:56Z</time>
      </trkpt>
      <trkpt lat="47.1521990" lon="6.8080340">
        <ele>917.7</ele>
        <time>2022-07-21T13:36:57Z</time>
      </trkpt>
      <trkpt lat="47.1521970" lon="6.8079940">
        <ele>917.8</ele>
        <time>2022-07-21T13:36:58Z</time>
      </trkpt>
      <trkpt lat="47.1521930" lon="6.8079590">
        <ele>917.8</ele>
        <time>2022-07-21T13:36:59Z</time>
      </trkpt>
      <trkpt lat="47.1521850" lon="6.8079080">
        <ele>917.9</ele>
        <time>2022-07-21T13:37:01Z</time>
      </trkpt>
      <trkpt lat="47.1521780" lon="6.8078540">
        <ele>917.9</ele>
        <time>2022-07-21T13:37:02Z</time>
      </trkpt>
      <trkpt lat="47.1521750" lon="6.8078360">
        <ele>918.0</ele>
        <time>2022-07-21T13:37:03Z</time>
      </trkpt>
      <trkpt lat="47.1521650" lon="6.8077840">
        <ele>918.0</ele>
        <time>2022-07-21T13:37:04Z</time>
      </trkpt>
      <trkpt lat="47.1521540" lon="6.8077260">
        <ele>918.1</ele>
        <time>2022-07-21T13:37:06Z</time>
      </trkpt>
      <trkpt lat="47.1521470" lon="6.8076840">
        <ele>918.2</ele>
        <time>2022-07-21T13:37:07Z</time>
      </trkpt>
      <trkpt lat="47.1521460" lon="6.8076600">
        <ele>918.3</ele>
        <time>2022-07-21T13:37:08Z</time>
      </trkpt>
      <trkpt lat="47.1521470" lon="6.8076310">
        <ele>918.3</ele>
        <time>2022-07-21T13:37:09Z</time>
      </trkpt>
      <trkpt lat="47.1521460" lon="6.8075850">
        <ele>918.4</ele>
        <time>2022-07-21T13:37:10Z</time>
      </trkpt>
      <trkpt lat="47.1521460" lon="6.8075700">
        <ele>918.4</ele>
        <time>2022-07-21T13:37:11Z</time>
      </trkpt>
      <trkpt lat="47.1521460" lon="6.8075090">
        <ele>918.6</ele>
        <time>2022-07-21T13:37:13Z</time>
      </trkpt>
      <trkpt lat="47.1521510" lon="6.8074650">
        <ele>918.7</ele>
        <time>2022-07-21T13:37:14Z</time>
      </trkpt>
      <trkpt lat="47.1521530" lon="6.8074490">
        <ele>918.7</ele>
        <time>2022-07-21T13:37:15Z</time>
      </trkpt>
      <trkpt lat="47.1521550" lon="6.8073940">
        <ele>918.8</ele>
        <time>2022-07-21T13:37:16Z</time>
      </trkpt>
      <trkpt lat="47.1521550" lon="6.8073710">
        <ele>918.8</ele>
        <time>2022-07-21T13:37:17Z</time>
      </trkpt>
      <trkpt lat="47.1521520" lon="6.8073160">
        <ele>919.0</ele>
        <time>2022-07-21T13:37:18Z</time>
      </trkpt>
      <trkpt lat="47.1521480" lon="6.8072590">
        <ele>919.1</ele>
        <time>2022-07-21T13:37:19Z</time>
      </trkpt>
      <trkpt lat="47.1521490" lon="6.8072050">
        <ele>919.2</ele>
        <time>2022-07-21T13:37:21Z</time>
      </trkpt>
      <trkpt lat="47.1521510" lon="6.8071680">
        <ele>919.4</ele>
        <time>2022-07-21T13:37:22Z</time>
      </trkpt>
      <trkpt lat="47.1521600" lon="6.8071030">
        <ele>919.6</ele>
        <time>2022-07-21T13:37:24Z</time>
      </trkpt>
      <trkpt lat="47.1521690" lon="6.8070630">
        <ele>919.8</ele>
        <time>2022-07-21T13:37:25Z</time>
      </trkpt>
      <trkpt lat="47.1521740" lon="6.8070490">
        <ele>919.8</ele>
        <time>2022-07-21T13:37:26Z</time>
      </trkpt>
      <trkpt lat="47.1521790" lon="6.8070320">
        <ele>919.9</ele>
        <time>2022-07-21T13:37:27Z</time>
      </trkpt>
      <trkpt lat="47.1521850" lon="6.8070020">
        <ele>920.1</ele>
        <time>2022-07-21T13:37:28Z</time>
      </trkpt>
      <trkpt lat="47.1521920" lon="6.8069730">
        <ele>920.2</ele>
        <time>2022-07-21T13:37:30Z</time>
      </trkpt>
      <trkpt lat="47.1521990" lon="6.8069540">
        <ele>920.3</ele>
        <time>2022-07-21T13:37:31Z</time>
      </trkpt>
      <trkpt lat="47.1522080" lon="6.8069330">
        <ele>920.5</ele>
        <time>2022-07-21T13:37:32Z</time>
      </trkpt>
      <trkpt lat="47.1522150" lon="6.8069120">
        <ele>920.6</ele>
        <time>2022-07-21T13:37:33Z</time>
      </trkpt>
      <trkpt lat="47.1522240" lon="6.8068660">
        <ele>920.9</ele>
        <time>2022-07-21T13:37:35Z</time>
      </trkpt>
      <trkpt lat="47.1522260" lon="6.8068570">
        <ele>920.9</ele>
        <time>2022-07-21T13:37:36Z</time>
      </trkpt>
      <trkpt lat="47.1522300" lon="6.8068410">
        <ele>921.0</ele>
        <time>2022-07-21T13:37:37Z</time>
      </trkpt>
      <trkpt lat="47.1522330" lon="6.8068240">
        <ele>921.1</ele>
        <time>2022-07-21T13:37:38Z</time>
      </trkpt>
      <trkpt lat="47.1522300" lon="6.8068110">
        <ele>921.2</ele>
        <time>2022-07-21T13:37:39Z</time>
      </trkpt>
      <trkpt lat="47.1522290" lon="6.8068000">
        <ele>921.3</ele>
        <time>2022-07-21T13:37:40Z</time>
      </trkpt>
      <trkpt lat="47.1522280" lon="6.8067890">
        <ele>921.4</ele>
        <time>2022-07-21T13:37:41Z</time>
      </trkpt>
      <trkpt lat="47.1522360" lon="6.8067600">
        <ele>921.6</ele>
        <time>2022-07-21T13:37:42Z</time>
      </trkpt>
      <trkpt lat="47.1522400" lon="6.8067330">
        <ele>921.8</ele>
        <time>2022-07-21T13:37:44Z</time>
      </trkpt>
      <trkpt lat="47.1522440" lon="6.8067130">
        <ele>921.9</ele>
        <time>2022-07-21T13:37:45Z</time>
      </trkpt>
      <trkpt lat="47.1522470" lon="6.8066800">
        <ele>922.1</ele>
        <time>2022-07-21T13:37:46Z</time>
      </trkpt>
      <trkpt lat="47.1522460" lon="6.8066640">
        <ele>922.2</ele>
        <time>2022-07-21T13:37:47Z</time>
      </trkpt>
      <trkpt lat="47.1522440" lon="6.8066480">
        <ele>922.3</ele>
        <time>2022-07-21T13:37:48Z</time>
      </trkpt>
      <trkpt lat="47.1522470" lon="6.8066010">
        <ele>922.7</ele>
        <time>2022-07-21T13:37:50Z</time>
      </trkpt>
      <trkpt lat="47.1522490" lon="6.8065890">
        <ele>922.7</ele>
        <time>2022-07-21T13:37:51Z</time>
      </trkpt>
      <trkpt lat="47.1522510" lon="6.8065660">
        <ele>922.9</ele>
        <time>2022-07-21T13:37:52Z</time>
      </trkpt>
      <trkpt lat="47.1522490" lon="6.8065470">
        <ele>923.0</ele>
        <time>2022-07-21T13:37:53Z</time>
      </trkpt>
      <trkpt lat="47.1522430" lon="6.8065080">
        <ele>923.3</ele>
        <time>2022-07-21T13:37:54Z</time>
      </trkpt>
      <trkpt lat="47.1522340" lon="6.8064810">
        <ele>923.4</ele>
        <time>2022-07-21T13:37:56Z</time>
      </trkpt>
      <trkpt lat="47.1522260" lon="6.8064600">
        <ele>923.6</ele>
        <time>2022-07-21T13:37:57Z</time>
      </trkpt>
      <trkpt lat="47.1522200" lon="6.8064430">
        <ele>923.7</ele>
        <time>2022-07-21T13:37:58Z</time>
      </trkpt>
      <trkpt lat="47.1522060" lon="6.8064070">
        <ele>923.9</ele>
        <time>2022-07-21T13:37:59Z</time>
      </trkpt>
      <trkpt lat="47.1521980" lon="6.8063920">
        <ele>924.0</ele>
        <time>2022-07-21T13:38:00Z</time>
      </trkpt>
      <trkpt lat="47.1521900" lon="6.8063620">
        <ele>924.2</ele>
        <time>2022-07-21T13:38:01Z</time>
      </trkpt>
      <trkpt lat="47.1521850" lon="6.8063430">
        <ele>924.2</ele>
        <time>2022-07-21T13:38:02Z</time>
      </trkpt>
      <trkpt lat="47.1521740" lon="6.8063170">
        <ele>924.4</ele>
        <time>2022-07-21T13:38:03Z</time>
      </trkpt>
      <trkpt lat="47.1521680" lon="6.8063010">
        <ele>924.5</ele>
        <time>2022-07-21T13:38:04Z</time>
      </trkpt>
      <trkpt lat="47.1521620" lon="6.8062840">
        <ele>924.5</ele>
        <time>2022-07-21T13:38:05Z</time>
      </trkpt>
      <trkpt lat="47.1521530" lon="6.8062620">
        <ele>924.6</ele>
        <time>2022-07-21T13:38:06Z</time>
      </trkpt>
      <trkpt lat="47.1521500" lon="6.8062360">
        <ele>924.7</ele>
        <time>2022-07-21T13:38:07Z</time>
      </trkpt>
      <trkpt lat="47.1521360" lon="6.8061930">
        <ele>924.9</ele>
        <time>2022-07-21T13:38:08Z</time>
      </trkpt>
      <trkpt lat="47.1521320" lon="6.8061830">
        <ele>924.9</ele>
        <time>2022-07-21T13:38:09Z</time>
      </trkpt>
      <trkpt lat="47.1521210" lon="6.8061560">
        <ele>925.0</ele>
        <time>2022-07-21T13:38:10Z</time>
      </trkpt>
      <trkpt lat="47.1521100" lon="6.8061240">
        <ele>925.1</ele>
        <time>2022-07-21T13:38:12Z</time>
      </trkpt>
      <trkpt lat="47.1520970" lon="6.8060760">
        <ele>925.2</ele>
        <time>2022-07-21T13:38:13Z</time>
      </trkpt>
      <trkpt lat="47.1520910" lon="6.8060610">
        <ele>925.2</ele>
        <time>2022-07-21T13:38:14Z</time>
      </trkpt>
      <trkpt lat="47.1520790" lon="6.8060330">
        <ele>925.2</ele>
        <time>2022-07-21T13:38:16Z</time>
      </trkpt>
      <trkpt lat="47.1520770" lon="6.8060240">
        <ele>925.3</ele>
        <time>2022-07-21T13:38:17Z</time>
      </trkpt>
      <trkpt lat="47.1520710" lon="6.8060180">
        <ele>925.3</ele>
        <time>2022-07-21T13:38:18Z</time>
      </trkpt>
      <trkpt lat="47.1520630" lon="6.8060080">
        <ele>925.3</ele>
        <time>2022-07-21T13:38:19Z</time>
      </trkpt>
      <trkpt lat="47.1520540" lon="6.8059980">
        <ele>925.3</ele>
        <time>2022-07-21T13:38:20Z</time>
      </trkpt>
      <trkpt lat="47.1520450" lon="6.8059890">
        <ele>925.3</ele>
        <time>2022-07-21T13:38:21Z</time>
      </trkpt>
      <trkpt lat="47.1520370" lon="6.8059790">
        <ele>925.3</ele>
        <time>2022-07-21T13:38:22Z</time>
      </trkpt>
      <trkpt lat="47.1520280" lon="6.8059690">
        <ele>925.3</ele>
        <time>2022-07-21T13:38:24Z</time>
      </trkpt>
      <trkpt lat="47.1520190" lon="6.8059590">
        <ele>925.4</ele>
        <time>2022-07-21T13:38:25Z</time>
      </trkpt>
      <trkpt lat="47.1520110" lon="6.8059500">
        <ele>925.4</ele>
        <time>2022-07-21T13:38:26Z</time>
      </trkpt>
      <trkpt lat="47.1520020" lon="6.8059400">
        <ele>925.4</ele>
        <time>2022-07-21T13:38:49Z</time>
      </trkpt>
      <trkpt lat="47.1519930" lon="6.8059300">
        <ele>925.4</ele>
        <time>2022-07-21T13:38:50Z</time>
      </trkpt>
      <trkpt lat="47.1519850" lon="6.8059210">
        <ele>925.4</ele>
        <time>2022-07-21T13:38:51Z</time>
      </trkpt>
      <trkpt lat="47.1519570" lon="6.8058810">
        <ele>925.4</ele>
        <time>2022-07-21T13:38:53Z</time>
      </trkpt>
      <trkpt lat="47.1519310" lon="6.8058440">
        <ele>925.4</ele>
        <time>2022-07-21T13:38:54Z</time>
      </trkpt>
      <trkpt lat="47.1519050" lon="6.8058050">
        <ele>925.4</ele>
        <time>2022-07-21T13:38:55Z</time>
      </trkpt>
      <trkpt lat="47.1518870" lon="6.8057740">
        <ele>925.3</ele>
        <time>2022-07-21T13:38:56Z</time>
      </trkpt>
      <trkpt lat="47.1518610" lon="6.8057340">
        <ele>925.3</ele>
        <time>2022-07-21T13:38:57Z</time>
      </trkpt>
      <trkpt lat="47.1518350" lon="6.8056860">
        <ele>925.2</ele>
        <time>2022-07-21T13:38:58Z</time>
      </trkpt>
      <trkpt lat="47.1518020" lon="6.8056330">
        <ele>925.2</ele>
        <time>2022-07-21T13:39:00Z</time>
      </trkpt>
      <trkpt lat="47.1517740" lon="6.8055910">
        <ele>925.1</ele>
        <time>2022-07-21T13:39:01Z</time>
      </trkpt>
      <trkpt lat="47.1517410" lon="6.8055340">
        <ele>925.0</ele>
        <time>2022-07-21T13:39:03Z</time>
      </trkpt>
      <trkpt lat="47.1517330" lon="6.8055140">
        <ele>925.0</ele>
        <time>2022-07-21T13:39:04Z</time>
      </trkpt>
      <trkpt lat="47.1517260" lon="6.8054930">
        <ele>924.9</ele>
        <time>2022-07-21T13:39:05Z</time>
      </trkpt>
      <trkpt lat="47.1517050" lon="6.8054330">
        <ele>924.8</ele>
        <time>2022-07-21T13:39:06Z</time>
      </trkpt>
      <trkpt lat="47.1516850" lon="6.8053820">
        <ele>924.7</ele>
        <time>2022-07-21T13:39:08Z</time>
      </trkpt>
      <trkpt lat="47.1516640" lon="6.8053400">
        <ele>924.6</ele>
        <time>2022-07-21T13:39:09Z</time>
      </trkpt>
      <trkpt lat="47.1516230" lon="6.8052720">
        <ele>924.5</ele>
        <time>2022-07-21T13:39:11Z</time>
      </trkpt>
      <trkpt lat="47.1516020" lon="6.8052320">
        <ele>924.4</ele>
        <time>2022-07-21T13:39:12Z</time>
      </trkpt>
      <trkpt lat="47.1515690" lon="6.8051730">
        <ele>924.3</ele>
        <time>2022-07-21T13:39:13Z</time>
      </trkpt>
      <trkpt lat="47.1515430" lon="6.8051390">
        <ele>924.2</ele>
        <time>2022-07-21T13:39:14Z</time>
      </trkpt>
      <trkpt lat="47.1515210" lon="6.8051140">
        <ele>924.1</ele>
        <time>2022-07-21T13:39:15Z</time>
      </trkpt>
      <trkpt lat="47.1515190" lon="6.8051140">
        <ele>924.1</ele>
        <time>2022-07-21T13:39:17Z</time>
      </trkpt>
      <trkpt lat="47.1515270" lon="6.8051220">
        <ele>924.1</ele>
        <time>2022-07-21T13:39:18Z</time>
      </trkpt>
      <trkpt lat="47.1515300" lon="6.8051350">
        <ele>924.1</ele>
        <time>2022-07-21T13:39:19Z</time>
      </trkpt>
      <trkpt lat="47.1515250" lon="6.8051370">
        <ele>924.1</ele>
        <time>2022-07-21T13:39:20Z</time>
      </trkpt>
      <trkpt lat="47.1515180" lon="6.8051330">
        <ele>924.0</ele>
        <time>2022-07-21T13:39:22Z</time>
      </trkpt>
      <trkpt lat="47.1515140" lon="6.8051200">
        <ele>924.0</ele>
        <time>2022-07-21T13:39:23Z</time>
      </trkpt>
      <trkpt lat="47.1515120" lon="6.8051110">
        <ele>924.0</ele>
        <time>2022-07-21T13:39:24Z</time>
      </trkpt>
      <trkpt lat="47.1515130" lon="6.8051070">
        <ele>924.0</ele>
        <time>2022-07-21T13:39:25Z</time>
      </trkpt>
      <trkpt lat="47.1515080" lon="6.8050880">
        <ele>923.9</ele>
        <time>2022-07-21T13:39:26Z</time>
      </trkpt>
      <trkpt lat="47.1515010" lon="6.8050750">
        <ele>923.9</ele>
        <time>2022-07-21T13:39:27Z</time>
      </trkpt>
      <trkpt lat="47.1514930" lon="6.8050650">
        <ele>923.8</ele>
        <time>2022-07-21T13:39:28Z</time>
      </trkpt>
      <trkpt lat="47.1514910" lon="6.8050600">
        <ele>923.8</ele>
        <time>2022-07-21T13:39:29Z</time>
      </trkpt>
      <trkpt lat="47.1514890" lon="6.8050540">
        <ele>923.8</ele>
        <time>2022-07-21T13:39:30Z</time>
      </trkpt>
      <trkpt lat="47.1514870" lon="6.8050490">
        <ele>923.8</ele>
        <time>2022-07-21T13:39:31Z</time>
      </trkpt>
      <trkpt lat="47.1514850" lon="6.8050430">
        <ele>923.8</ele>
        <time>2022-07-21T13:39:32Z</time>
      </trkpt>
      <trkpt lat="47.1514830" lon="6.8050380">
        <ele>923.8</ele>
        <time>2022-07-21T13:39:33Z</time>
      </trkpt>
      <trkpt lat="47.1514810" lon="6.8050330">
        <ele>923.8</ele>
        <time>2022-07-21T13:39:34Z</time>
      </trkpt>
      <trkpt lat="47.1514790" lon="6.8050270">
        <ele>923.7</ele>
        <time>2022-07-21T13:39:35Z</time>
      </trkpt>
      <trkpt lat="47.1514650" lon="6.8049910">
        <ele>923.6</ele>
        <time>2022-07-21T13:39:36Z</time>
      </trkpt>
      <trkpt lat="47.1514590" lon="6.8049770">
        <ele>923.6</ele>
        <time>2022-07-21T13:39:37Z</time>
      </trkpt>
      <trkpt lat="47.1514430" lon="6.8049440">
        <ele>923.5</ele>
        <time>2022-07-21T13:39:38Z</time>
      </trkpt>
      <trkpt lat="47.1514220" lon="6.8049080">
        <ele>923.4</ele>
        <time>2022-07-21T13:39:39Z</time>
      </trkpt>
      <trkpt lat="47.1513970" lon="6.8048640">
        <ele>923.2</ele>
        <time>2022-07-21T13:39:40Z</time>
      </trkpt>
      <trkpt lat="47.1513870" lon="6.8048460">
        <ele>923.2</ele>
        <time>2022-07-21T13:39:41Z</time>
      </trkpt>
      <trkpt lat="47.1513710" lon="6.8048120">
        <ele>923.1</ele>
        <time>2022-07-21T13:39:42Z</time>
      </trkpt>
      <trkpt lat="47.1513520" lon="6.8047700">
        <ele>923.0</ele>
        <time>2022-07-21T13:39:43Z</time>
      </trkpt>
      <trkpt lat="47.1513350" lon="6.8047310">
        <ele>922.9</ele>
        <time>2022-07-21T13:39:44Z</time>
      </trkpt>
      <trkpt lat="47.1513200" lon="6.8046930">
        <ele>922.8</ele>
        <time>2022-07-21T13:39:45Z</time>
      </trkpt>
      <trkpt lat="47.1513040" lon="6.8046570">
        <ele>922.7</ele>
        <time>2022-07-21T13:39:46Z</time>
      </trkpt>
      <trkpt lat="47.1512830" lon="6.8046090">
        <ele>922.6</ele>
        <time>2022-07-21T13:39:47Z</time>
      </trkpt>
      <trkpt lat="47.1512640" lon="6.8045670">
        <ele>922.5</ele>
        <time>2022-07-21T13:39:48Z</time>
      </trkpt>
      <trkpt lat="47.1512450" lon="6.8045220">
        <ele>922.5</ele>
        <time>2022-07-21T13:39:49Z</time>
      </trkpt>
      <trkpt lat="47.1512250" lon="6.8044700">
        <ele>922.4</ele>
        <time>2022-07-21T13:39:50Z</time>
      </trkpt>
      <trkpt lat="47.1512070" lon="6.8044290">
        <ele>922.3</ele>
        <time>2022-07-21T13:39:51Z</time>
      </trkpt>
      <trkpt lat="47.1511880" lon="6.8043920">
        <ele>922.2</ele>
        <time>2022-07-21T13:39:52Z</time>
      </trkpt>
      <trkpt lat="47.1511640" lon="6.8043490">
        <ele>922.2</ele>
        <time>2022-07-21T13:39:53Z</time>
      </trkpt>
      <trkpt lat="47.1511410" lon="6.8043110">
        <ele>922.1</ele>
        <time>2022-07-21T13:39:54Z</time>
      </trkpt>
      <trkpt lat="47.1511220" lon="6.8042800">
        <ele>922.1</ele>
        <time>2022-07-21T13:39:55Z</time>
      </trkpt>
      <trkpt lat="47.1510950" lon="6.8042330">
        <ele>922.0</ele>
        <time>2022-07-21T13:39:56Z</time>
      </trkpt>
      <trkpt lat="47.1510700" lon="6.8041890">
        <ele>921.9</ele>
        <time>2022-07-21T13:39:57Z</time>
      </trkpt>
      <trkpt lat="47.1510480" lon="6.8041470">
        <ele>921.9</ele>
        <time>2022-07-21T13:39:58Z</time>
      </trkpt>
      <trkpt lat="47.1510290" lon="6.8041130">
        <ele>921.8</ele>
        <time>2022-07-21T13:39:59Z</time>
      </trkpt>
      <trkpt lat="47.1510100" lon="6.8040740">
        <ele>921.8</ele>
        <time>2022-07-21T13:40:00Z</time>
      </trkpt>
      <trkpt lat="47.1509910" lon="6.8040370">
        <ele>921.7</ele>
        <time>2022-07-21T13:40:01Z</time>
      </trkpt>
      <trkpt lat="47.1509720" lon="6.8039990">
        <ele>921.7</ele>
        <time>2022-07-21T13:40:02Z</time>
      </trkpt>
      <trkpt lat="47.1509500" lon="6.8039540">
        <ele>921.6</ele>
        <time>2022-07-21T13:40:03Z</time>
      </trkpt>
      <trkpt lat="47.1509300" lon="6.8039140">
        <ele>921.5</ele>
        <time>2022-07-21T13:40:04Z</time>
      </trkpt>
      <trkpt lat="47.1509060" lon="6.8038690">
        <ele>921.4</ele>
        <time>2022-07-21T13:40:05Z</time>
      </trkpt>
      <trkpt lat="47.1508800" lon="6.8038190">
        <ele>921.4</ele>
        <time>2022-07-21T13:40:06Z</time>
      </trkpt>
      <trkpt lat="47.1508560" lon="6.8037780">
        <ele>921.3</ele>
        <time>2022-07-21T13:40:07Z</time>
      </trkpt>
      <trkpt lat="47.1508320" lon="6.8037380">
        <ele>921.2</ele>
        <time>2022-07-21T13:40:08Z</time>
      </trkpt>
      <trkpt lat="47.1508110" lon="6.8037020">
        <ele>921.2</ele>
        <time>2022-07-21T13:40:09Z</time>
      </trkpt>
      <trkpt lat="47.1507900" lon="6.8036610">
        <ele>921.2</ele>
        <time>2022-07-21T13:40:10Z</time>
      </trkpt>
      <trkpt lat="47.1507700" lon="6.8036210">
        <ele>921.2</ele>
        <time>2022-07-21T13:40:11Z</time>
      </trkpt>
      <trkpt lat="47.1507530" lon="6.8035830">
        <ele>921.2</ele>
        <time>2022-07-21T13:40:12Z</time>
      </trkpt>
      <trkpt lat="47.1507330" lon="6.8035410">
        <ele>921.2</ele>
        <time>2022-07-21T13:40:13Z</time>
      </trkpt>
      <trkpt lat="47.1507130" lon="6.8035030">
        <ele>921.3</ele>
        <time>2022-07-21T13:40:14Z</time>
      </trkpt>
      <trkpt lat="47.1506890" lon="6.8034640">
        <ele>921.3</ele>
        <time>2022-07-21T13:40:15Z</time>
      </trkpt>
      <trkpt lat="47.1506800" lon="6.8034500">
        <ele>921.3</ele>
        <time>2022-07-21T13:40:16Z</time>
      </trkpt>
      <trkpt lat="47.1506610" lon="6.8034180">
        <ele>921.4</ele>
        <time>2022-07-21T13:40:17Z</time>
      </trkpt>
      <trkpt lat="47.1506370" lon="6.8033770">
        <ele>921.5</ele>
        <time>2022-07-21T13:40:18Z</time>
      </trkpt>
      <trkpt lat="47.1506310" lon="6.8033660">
        <ele>921.5</ele>
        <time>2022-07-21T13:40:19Z</time>
      </trkpt>
      <trkpt lat="47.1506110" lon="6.8033270">
        <ele>921.5</ele>
        <time>2022-07-21T13:40:20Z</time>
      </trkpt>
      <trkpt lat="47.1506040" lon="6.8033150">
        <ele>921.6</ele>
        <time>2022-07-21T13:40:21Z</time>
      </trkpt>
      <trkpt lat="47.1505830" lon="6.8032700">
        <ele>921.6</ele>
        <time>2022-07-21T13:40:22Z</time>
      </trkpt>
      <trkpt lat="47.1505740" lon="6.8032530">
        <ele>921.7</ele>
        <time>2022-07-21T13:40:23Z</time>
      </trkpt>
      <trkpt lat="47.1505500" lon="6.8032030">
        <ele>921.7</ele>
        <time>2022-07-21T13:40:24Z</time>
      </trkpt>
      <trkpt lat="47.1505420" lon="6.8031850">
        <ele>921.8</ele>
        <time>2022-07-21T13:40:25Z</time>
      </trkpt>
      <trkpt lat="47.1505220" lon="6.8031400">
        <ele>921.8</ele>
        <time>2022-07-21T13:40:26Z</time>
      </trkpt>
      <trkpt lat="47.1505160" lon="6.8031250">
        <ele>921.9</ele>
        <time>2022-07-21T13:40:27Z</time>
      </trkpt>
      <trkpt lat="47.1504960" lon="6.8030860">
        <ele>921.9</ele>
        <time>2022-07-21T13:40:28Z</time>
      </trkpt>
      <trkpt lat="47.1504780" lon="6.8030520">
        <ele>922.0</ele>
        <time>2022-07-21T13:40:29Z</time>
      </trkpt>
      <trkpt lat="47.1504610" lon="6.8030180">
        <ele>922.0</ele>
        <time>2022-07-21T13:40:30Z</time>
      </trkpt>
      <trkpt lat="47.1504410" lon="6.8029750">
        <ele>922.1</ele>
        <time>2022-07-21T13:40:31Z</time>
      </trkpt>
      <trkpt lat="47.1504340" lon="6.8029610">
        <ele>922.1</ele>
        <time>2022-07-21T13:40:32Z</time>
      </trkpt>
      <trkpt lat="47.1504110" lon="6.8029120">
        <ele>922.2</ele>
        <time>2022-07-21T13:40:33Z</time>
      </trkpt>
      <trkpt lat="47.1504030" lon="6.8028970">
        <ele>922.2</ele>
        <time>2022-07-21T13:40:34Z</time>
      </trkpt>
      <trkpt lat="47.1503870" lon="6.8028640">
        <ele>922.2</ele>
        <time>2022-07-21T13:40:35Z</time>
      </trkpt>
      <trkpt lat="47.1503700" lon="6.8028320">
        <ele>922.3</ele>
        <time>2022-07-21T13:40:36Z</time>
      </trkpt>
      <trkpt lat="47.1503480" lon="6.8027880">
        <ele>922.3</ele>
        <time>2022-07-21T13:40:37Z</time>
      </trkpt>
      <trkpt lat="47.1503410" lon="6.8027740">
        <ele>922.4</ele>
        <time>2022-07-21T13:40:38Z</time>
      </trkpt>
      <trkpt lat="47.1503200" lon="6.8027300">
        <ele>922.5</ele>
        <time>2022-07-21T13:40:39Z</time>
      </trkpt>
      <trkpt lat="47.1503110" lon="6.8027120">
        <ele>922.5</ele>
        <time>2022-07-21T13:40:40Z</time>
      </trkpt>
      <trkpt lat="47.1502920" lon="6.8026750">
        <ele>922.6</ele>
        <time>2022-07-21T13:40:41Z</time>
      </trkpt>
      <trkpt lat="47.1502680" lon="6.8026290">
        <ele>922.7</ele>
        <time>2022-07-21T13:40:42Z</time>
      </trkpt>
      <trkpt lat="47.1502590" lon="6.8026140">
        <ele>922.7</ele>
        <time>2022-07-21T13:40:43Z</time>
      </trkpt>
      <trkpt lat="47.1502420" lon="6.8025810">
        <ele>922.8</ele>
        <time>2022-07-21T13:40:44Z</time>
      </trkpt>
      <trkpt lat="47.1502230" lon="6.8025480">
        <ele>922.9</ele>
        <time>2022-07-21T13:40:45Z</time>
      </trkpt>
      <trkpt lat="47.1502040" lon="6.8025140">
        <ele>923.0</ele>
        <time>2022-07-21T13:40:46Z</time>
      </trkpt>
      <trkpt lat="47.1501810" lon="6.8024710">
        <ele>923.1</ele>
        <time>2022-07-21T13:40:47Z</time>
      </trkpt>
      <trkpt lat="47.1501720" lon="6.8024550">
        <ele>923.2</ele>
        <time>2022-07-21T13:40:48Z</time>
      </trkpt>
      <trkpt lat="47.1501520" lon="6.8024180">
        <ele>923.3</ele>
        <time>2022-07-21T13:40:49Z</time>
      </trkpt>
      <trkpt lat="47.1501450" lon="6.8024050">
        <ele>923.3</ele>
        <time>2022-07-21T13:40:50Z</time>
      </trkpt>
      <trkpt lat="47.1501280" lon="6.8023740">
        <ele>923.5</ele>
        <time>2022-07-21T13:40:51Z</time>
      </trkpt>
      <trkpt lat="47.1501070" lon="6.8023360">
        <ele>923.6</ele>
        <time>2022-07-21T13:40:52Z</time>
      </trkpt>
      <trkpt lat="47.1501000" lon="6.8023220">
        <ele>923.7</ele>
        <time>2022-07-21T13:40:53Z</time>
      </trkpt>
      <trkpt lat="47.1500800" lon="6.8022810">
        <ele>923.8</ele>
        <time>2022-07-21T13:40:54Z</time>
      </trkpt>
      <trkpt lat="47.1500720" lon="6.8022680">
        <ele>923.9</ele>
        <time>2022-07-21T13:40:55Z</time>
      </trkpt>
      <trkpt lat="47.1500610" lon="6.8022470">
        <ele>924.0</ele>
        <time>2022-07-21T13:40:56Z</time>
      </trkpt>
      <trkpt lat="47.1500490" lon="6.8022280">
        <ele>924.1</ele>
        <time>2022-07-21T13:40:57Z</time>
      </trkpt>
      <trkpt lat="47.1500400" lon="6.8022100">
        <ele>924.1</ele>
        <time>2022-07-21T13:40:58Z</time>
      </trkpt>
      <trkpt lat="47.1500310" lon="6.8021900">
        <ele>924.2</ele>
        <time>2022-07-21T13:40:59Z</time>
      </trkpt>
      <trkpt lat="47.1500230" lon="6.8021710">
        <ele>924.3</ele>
        <time>2022-07-21T13:41:00Z</time>
      </trkpt>
      <trkpt lat="47.1500130" lon="6.8021490">
        <ele>924.4</ele>
        <time>2022-07-21T13:41:01Z</time>
      </trkpt>
      <trkpt lat="47.1500030" lon="6.8021280">
        <ele>924.5</ele>
        <time>2022-07-21T13:41:02Z</time>
      </trkpt>
      <trkpt lat="47.1499930" lon="6.8021090">
        <ele>924.6</ele>
        <time>2022-07-21T13:41:03Z</time>
      </trkpt>
      <trkpt lat="47.1499740" lon="6.8020720">
        <ele>924.7</ele>
        <time>2022-07-21T13:41:04Z</time>
      </trkpt>
      <trkpt lat="47.1499660" lon="6.8020580">
        <ele>924.8</ele>
        <time>2022-07-21T13:41:05Z</time>
      </trkpt>
      <trkpt lat="47.1499490" lon="6.8020130">
        <ele>925.0</ele>
        <time>2022-07-21T13:41:06Z</time>
      </trkpt>
      <trkpt lat="47.1499430" lon="6.8019980">
        <ele>925.0</ele>
        <time>2022-07-21T13:41:07Z</time>
      </trkpt>
      <trkpt lat="47.1499300" lon="6.8019630">
        <ele>925.1</ele>
        <time>2022-07-21T13:41:08Z</time>
      </trkpt>
      <trkpt lat="47.1499110" lon="6.8019220">
        <ele>925.3</ele>
        <time>2022-07-21T13:41:09Z</time>
      </trkpt>
      <trkpt lat="47.1499040" lon="6.8019070">
        <ele>925.3</ele>
        <time>2022-07-21T13:41:10Z</time>
      </trkpt>
      <trkpt lat="47.1498830" lon="6.8018650">
        <ele>925.4</ele>
        <time>2022-07-21T13:41:11Z</time>
      </trkpt>
      <trkpt lat="47.1498760" lon="6.8018500">
        <ele>925.5</ele>
        <time>2022-07-21T13:41:12Z</time>
      </trkpt>
      <trkpt lat="47.1498600" lon="6.8018030">
        <ele>925.6</ele>
        <time>2022-07-21T13:41:13Z</time>
      </trkpt>
      <trkpt lat="47.1498550" lon="6.8017870">
        <ele>925.7</ele>
        <time>2022-07-21T13:41:14Z</time>
      </trkpt>
      <trkpt lat="47.1498450" lon="6.8017410">
        <ele>925.7</ele>
        <time>2022-07-21T13:41:15Z</time>
      </trkpt>
      <trkpt lat="47.1498400" lon="6.8017220">
        <ele>925.7</ele>
        <time>2022-07-21T13:41:16Z</time>
      </trkpt>
      <trkpt lat="47.1498270" lon="6.8016840">
        <ele>925.8</ele>
        <time>2022-07-21T13:41:17Z</time>
      </trkpt>
      <trkpt lat="47.1498170" lon="6.8016460">
        <ele>925.8</ele>
        <time>2022-07-21T13:41:18Z</time>
      </trkpt>
      <trkpt lat="47.1498070" lon="6.8016070">
        <ele>925.8</ele>
        <time>2022-07-21T13:41:19Z</time>
      </trkpt>
      <trkpt lat="47.1497930" lon="6.8015540">
        <ele>925.9</ele>
        <time>2022-07-21T13:41:20Z</time>
      </trkpt>
      <trkpt lat="47.1497720" lon="6.8014710">
        <ele>925.9</ele>
        <time>2022-07-21T13:41:22Z</time>
      </trkpt>
      <trkpt lat="47.1497600" lon="6.8014200">
        <ele>926.0</ele>
        <time>2022-07-21T13:41:23Z</time>
      </trkpt>
      <trkpt lat="47.1497510" lon="6.8013670">
        <ele>926.0</ele>
        <time>2022-07-21T13:41:24Z</time>
      </trkpt>
      <trkpt lat="47.1497450" lon="6.8012940">
        <ele>926.0</ele>
        <time>2022-07-21T13:41:25Z</time>
      </trkpt>
      <trkpt lat="47.1497450" lon="6.8012440">
        <ele>926.0</ele>
        <time>2022-07-21T13:41:27Z</time>
      </trkpt>
      <trkpt lat="47.1497370" lon="6.8011830">
        <ele>926.1</ele>
        <time>2022-07-21T13:41:28Z</time>
      </trkpt>
      <trkpt lat="47.1497350" lon="6.8011420">
        <ele>926.1</ele>
        <time>2022-07-21T13:41:29Z</time>
      </trkpt>
      <trkpt lat="47.1497350" lon="6.8010830">
        <ele>926.1</ele>
        <time>2022-07-21T13:41:30Z</time>
      </trkpt>
      <trkpt lat="47.1497340" lon="6.8010590">
        <ele>926.1</ele>
        <time>2022-07-21T13:41:31Z</time>
      </trkpt>
      <trkpt lat="47.1497370" lon="6.8010070">
        <ele>926.1</ele>
        <time>2022-07-21T13:41:32Z</time>
      </trkpt>
      <trkpt lat="47.1497420" lon="6.8009560">
        <ele>926.1</ele>
        <time>2022-07-21T13:41:33Z</time>
      </trkpt>
      <trkpt lat="47.1497530" lon="6.8009060">
        <ele>926.0</ele>
        <time>2022-07-21T13:41:34Z</time>
      </trkpt>
      <trkpt lat="47.1497670" lon="6.8008650">
        <ele>926.0</ele>
        <time>2022-07-21T13:41:35Z</time>
      </trkpt>
      <trkpt lat="47.1497940" lon="6.8008110">
        <ele>926.0</ele>
        <time>2022-07-21T13:41:36Z</time>
      </trkpt>
      <trkpt lat="47.1498410" lon="6.8007070">
        <ele>925.9</ele>
        <time>2022-07-21T13:41:38Z</time>
      </trkpt>
      <trkpt lat="47.1498760" lon="6.8006570">
        <ele>925.9</ele>
        <time>2022-07-21T13:41:39Z</time>
      </trkpt>
      <trkpt lat="47.1499120" lon="6.8006190">
        <ele>925.9</ele>
        <time>2022-07-21T13:41:40Z</time>
      </trkpt>
      <trkpt lat="47.1499500" lon="6.8005860">
        <ele>925.9</ele>
        <time>2022-07-21T13:41:41Z</time>
      </trkpt>
      <trkpt lat="47.1499870" lon="6.8005520">
        <ele>925.9</ele>
        <time>2022-07-21T13:41:42Z</time>
      </trkpt>
      <trkpt lat="47.1500240" lon="6.8005180">
        <ele>926.0</ele>
        <time>2022-07-21T13:41:43Z</time>
      </trkpt>
      <trkpt lat="47.1500560" lon="6.8004860">
        <ele>926.1</ele>
        <time>2022-07-21T13:41:44Z</time>
      </trkpt>
      <trkpt lat="47.1500850" lon="6.8004600">
        <ele>926.2</ele>
        <time>2022-07-21T13:41:45Z</time>
      </trkpt>
      <trkpt lat="47.1501330" lon="6.8004140">
        <ele>926.3</ele>
        <time>2022-07-21T13:41:47Z</time>
      </trkpt>
      <trkpt lat="47.1501600" lon="6.8003920">
        <ele>926.3</ele>
        <time>2022-07-21T13:41:48Z</time>
      </trkpt>
      <trkpt lat="47.1501890" lon="6.8003630">
        <ele>926.4</ele>
        <time>2022-07-21T13:41:49Z</time>
      </trkpt>
      <trkpt lat="47.1502110" lon="6.8003390">
        <ele>926.4</ele>
        <time>2022-07-21T13:41:50Z</time>
      </trkpt>
      <trkpt lat="47.1502330" lon="6.8003120">
        <ele>926.5</ele>
        <time>2022-07-21T13:41:51Z</time>
      </trkpt>
      <trkpt lat="47.1502570" lon="6.8002830">
        <ele>926.5</ele>
        <time>2022-07-21T13:41:52Z</time>
      </trkpt>
      <trkpt lat="47.1502840" lon="6.8002550">
        <ele>926.5</ele>
        <time>2022-07-21T13:41:53Z</time>
      </trkpt>
      <trkpt lat="47.1503120" lon="6.8002240">
        <ele>926.6</ele>
        <time>2022-07-21T13:41:54Z</time>
      </trkpt>
      <trkpt lat="47.1503370" lon="6.8001920">
        <ele>926.6</ele>
        <time>2022-07-21T13:41:55Z</time>
      </trkpt>
      <trkpt lat="47.1503610" lon="6.8001610">
        <ele>926.6</ele>
        <time>2022-07-21T13:41:56Z</time>
      </trkpt>
      <trkpt lat="47.1503850" lon="6.8001270">
        <ele>926.6</ele>
        <time>2022-07-21T13:41:57Z</time>
      </trkpt>
      <trkpt lat="47.1504100" lon="6.8000940">
        <ele>926.7</ele>
        <time>2022-07-21T13:41:58Z</time>
      </trkpt>
      <trkpt lat="47.1504550" lon="6.8000370">
        <ele>926.7</ele>
        <time>2022-07-21T13:42:00Z</time>
      </trkpt>
      <trkpt lat="47.1504790" lon="6.8000090">
        <ele>926.7</ele>
        <time>2022-07-21T13:42:01Z</time>
      </trkpt>
      <trkpt lat="47.1505060" lon="6.7999800">
        <ele>926.7</ele>
        <time>2022-07-21T13:42:02Z</time>
      </trkpt>
      <trkpt lat="47.1505340" lon="6.7999500">
        <ele>926.7</ele>
        <time>2022-07-21T13:42:03Z</time>
      </trkpt>
      <trkpt lat="47.1505850" lon="6.7998880">
        <ele>926.8</ele>
        <time>2022-07-21T13:42:05Z</time>
      </trkpt>
      <trkpt lat="47.1506070" lon="6.7998600">
        <ele>926.8</ele>
        <time>2022-07-21T13:42:06Z</time>
      </trkpt>
      <trkpt lat="47.1506300" lon="6.7998280">
        <ele>926.8</ele>
        <time>2022-07-21T13:42:07Z</time>
      </trkpt>
      <trkpt lat="47.1506560" lon="6.7997800">
        <ele>926.9</ele>
        <time>2022-07-21T13:42:08Z</time>
      </trkpt>
      <trkpt lat="47.1506710" lon="6.7997400">
        <ele>926.9</ele>
        <time>2022-07-21T13:42:09Z</time>
      </trkpt>
      <trkpt lat="47.1506800" lon="6.7996550">
        <ele>926.9</ele>
        <time>2022-07-21T13:42:10Z</time>
      </trkpt>
      <trkpt lat="47.1506630" lon="6.7995690">
        <ele>927.0</ele>
        <time>2022-07-21T13:42:12Z</time>
      </trkpt>
      <trkpt lat="47.1506400" lon="6.7995100">
        <ele>927.1</ele>
        <time>2022-07-21T13:42:13Z</time>
      </trkpt>
      <trkpt lat="47.1506230" lon="6.7994620">
        <ele>927.1</ele>
        <time>2022-07-21T13:42:14Z</time>
      </trkpt>
      <trkpt lat="47.1505960" lon="6.7994070">
        <ele>927.2</ele>
        <time>2022-07-21T13:42:15Z</time>
      </trkpt>
      <trkpt lat="47.1505670" lon="6.7993360">
        <ele>927.2</ele>
        <time>2022-07-21T13:42:17Z</time>
      </trkpt>
      <trkpt lat="47.1505510" lon="6.7992920">
        <ele>927.2</ele>
        <time>2022-07-21T13:42:18Z</time>
      </trkpt>
      <trkpt lat="47.1505270" lon="6.7992340">
        <ele>927.2</ele>
        <time>2022-07-21T13:42:19Z</time>
      </trkpt>
      <trkpt lat="47.1505000" lon="6.7991610">
        <ele>927.2</ele>
        <time>2022-07-21T13:42:21Z</time>
      </trkpt>
      <trkpt lat="47.1504740" lon="6.7991040">
        <ele>927.1</ele>
        <time>2022-07-21T13:42:22Z</time>
      </trkpt>
      <trkpt lat="47.1504530" lon="6.7990550">
        <ele>927.1</ele>
        <time>2022-07-21T13:42:23Z</time>
      </trkpt>
      <trkpt lat="47.1504330" lon="6.7990110">
        <ele>927.1</ele>
        <time>2022-07-21T13:42:24Z</time>
      </trkpt>
      <trkpt lat="47.1503960" lon="6.7989290">
        <ele>926.9</ele>
        <time>2022-07-21T13:42:25Z</time>
      </trkpt>
      <trkpt lat="47.1503680" lon="6.7988680">
        <ele>926.9</ele>
        <time>2022-07-21T13:42:27Z</time>
      </trkpt>
      <trkpt lat="47.1503280" lon="6.7987840">
        <ele>926.7</ele>
        <time>2022-07-21T13:42:28Z</time>
      </trkpt>
      <trkpt lat="47.1502990" lon="6.7987280">
        <ele>926.6</ele>
        <time>2022-07-21T13:42:29Z</time>
      </trkpt>
      <trkpt lat="47.1502690" lon="6.7986750">
        <ele>926.5</ele>
        <time>2022-07-21T13:42:30Z</time>
      </trkpt>
      <trkpt lat="47.1502380" lon="6.7986210">
        <ele>926.4</ele>
        <time>2022-07-21T13:42:31Z</time>
      </trkpt>
      <trkpt lat="47.1502070" lon="6.7985670">
        <ele>926.3</ele>
        <time>2022-07-21T13:42:32Z</time>
      </trkpt>
      <trkpt lat="47.1501770" lon="6.7985100">
        <ele>926.2</ele>
        <time>2022-07-21T13:42:33Z</time>
      </trkpt>
      <trkpt lat="47.1501470" lon="6.7984440">
        <ele>926.0</ele>
        <time>2022-07-21T13:42:34Z</time>
      </trkpt>
      <trkpt lat="47.1501180" lon="6.7983800">
        <ele>925.9</ele>
        <time>2022-07-21T13:42:35Z</time>
      </trkpt>
      <trkpt lat="47.1500850" lon="6.7983210">
        <ele>925.8</ele>
        <time>2022-07-21T13:42:36Z</time>
      </trkpt>
      <trkpt lat="47.1500490" lon="6.7982580">
        <ele>925.7</ele>
        <time>2022-07-21T13:42:37Z</time>
      </trkpt>
      <trkpt lat="47.1500130" lon="6.7981960">
        <ele>925.5</ele>
        <time>2022-07-21T13:42:38Z</time>
      </trkpt>
      <trkpt lat="47.1499780" lon="6.7981350">
        <ele>925.3</ele>
        <time>2022-07-21T13:42:39Z</time>
      </trkpt>
      <trkpt lat="47.1499410" lon="6.7980700">
        <ele>925.2</ele>
        <time>2022-07-21T13:42:40Z</time>
      </trkpt>
      <trkpt lat="47.1499050" lon="6.7980090">
        <ele>925.0</ele>
        <time>2022-07-21T13:42:41Z</time>
      </trkpt>
      <trkpt lat="47.1498710" lon="6.7979420">
        <ele>924.8</ele>
        <time>2022-07-21T13:42:42Z</time>
      </trkpt>
      <trkpt lat="47.1498370" lon="6.7978790">
        <ele>924.7</ele>
        <time>2022-07-21T13:42:43Z</time>
      </trkpt>
      <trkpt lat="47.1497980" lon="6.7978100">
        <ele>924.7</ele>
        <time>2022-07-21T13:42:44Z</time>
      </trkpt>
      <trkpt lat="47.1497620" lon="6.7977380">
        <ele>924.7</ele>
        <time>2022-07-21T13:42:45Z</time>
      </trkpt>
      <trkpt lat="47.1497310" lon="6.7976650">
        <ele>924.7</ele>
        <time>2022-07-21T13:42:46Z</time>
      </trkpt>
      <trkpt lat="47.1496990" lon="6.7976020">
        <ele>924.8</ele>
        <time>2022-07-21T13:42:47Z</time>
      </trkpt>
      <trkpt lat="47.1496680" lon="6.7975390">
        <ele>924.9</ele>
        <time>2022-07-21T13:42:48Z</time>
      </trkpt>
      <trkpt lat="47.1496360" lon="6.7974840">
        <ele>925.0</ele>
        <time>2022-07-21T13:42:49Z</time>
      </trkpt>
      <trkpt lat="47.1496130" lon="6.7974260">
        <ele>925.0</ele>
        <time>2022-07-21T13:42:50Z</time>
      </trkpt>
      <trkpt lat="47.1495950" lon="6.7973690">
        <ele>925.1</ele>
        <time>2022-07-21T13:42:51Z</time>
      </trkpt>
      <trkpt lat="47.1495840" lon="6.7973310">
        <ele>925.2</ele>
        <time>2022-07-21T13:42:52Z</time>
      </trkpt>
      <trkpt lat="47.1495700" lon="6.7972890">
        <ele>925.3</ele>
        <time>2022-07-21T13:42:53Z</time>
      </trkpt>
      <trkpt lat="47.1495550" lon="6.7972390">
        <ele>925.3</ele>
        <time>2022-07-21T13:42:54Z</time>
      </trkpt>
      <trkpt lat="47.1495390" lon="6.7971790">
        <ele>925.5</ele>
        <time>2022-07-21T13:42:55Z</time>
      </trkpt>
      <trkpt lat="47.1495310" lon="6.7971210">
        <ele>925.6</ele>
        <time>2022-07-21T13:42:56Z</time>
      </trkpt>
      <trkpt lat="47.1495310" lon="6.7970780">
        <ele>925.6</ele>
        <time>2022-07-21T13:42:57Z</time>
      </trkpt>
      <trkpt lat="47.1495330" lon="6.7970350">
        <ele>925.7</ele>
        <time>2022-07-21T13:42:58Z</time>
      </trkpt>
      <trkpt lat="47.1495320" lon="6.7969870">
        <ele>925.8</ele>
        <time>2022-07-21T13:42:59Z</time>
      </trkpt>
      <trkpt lat="47.1495280" lon="6.7968830">
        <ele>926.0</ele>
        <time>2022-07-21T13:43:01Z</time>
      </trkpt>
      <trkpt lat="47.1495300" lon="6.7968260">
        <ele>926.1</ele>
        <time>2022-07-21T13:43:02Z</time>
      </trkpt>
      <trkpt lat="47.1495350" lon="6.7967650">
        <ele>926.1</ele>
        <time>2022-07-21T13:43:03Z</time>
      </trkpt>
      <trkpt lat="47.1495410" lon="6.7967120">
        <ele>926.2</ele>
        <time>2022-07-21T13:43:04Z</time>
      </trkpt>
      <trkpt lat="47.1495550" lon="6.7966020">
        <ele>926.4</ele>
        <time>2022-07-21T13:43:06Z</time>
      </trkpt>
      <trkpt lat="47.1495600" lon="6.7965510">
        <ele>926.4</ele>
        <time>2022-07-21T13:43:07Z</time>
      </trkpt>
      <trkpt lat="47.1495710" lon="6.7964500">
        <ele>926.5</ele>
        <time>2022-07-21T13:43:09Z</time>
      </trkpt>
      <trkpt lat="47.1495770" lon="6.7963990">
        <ele>926.6</ele>
        <time>2022-07-21T13:43:10Z</time>
      </trkpt>
      <trkpt lat="47.1495840" lon="6.7963480">
        <ele>926.6</ele>
        <time>2022-07-21T13:43:11Z</time>
      </trkpt>
      <trkpt lat="47.1495910" lon="6.7962820">
        <ele>926.7</ele>
        <time>2022-07-21T13:43:12Z</time>
      </trkpt>
      <trkpt lat="47.1495980" lon="6.7962320">
        <ele>926.7</ele>
        <time>2022-07-21T13:43:13Z</time>
      </trkpt>
      <trkpt lat="47.1496070" lon="6.7961820">
        <ele>926.8</ele>
        <time>2022-07-21T13:43:14Z</time>
      </trkpt>
      <trkpt lat="47.1496180" lon="6.7961360">
        <ele>926.8</ele>
        <time>2022-07-21T13:43:15Z</time>
      </trkpt>
      <trkpt lat="47.1496300" lon="6.7960850">
        <ele>926.9</ele>
        <time>2022-07-21T13:43:16Z</time>
      </trkpt>
      <trkpt lat="47.1496450" lon="6.7960260">
        <ele>926.9</ele>
        <time>2022-07-21T13:43:17Z</time>
      </trkpt>
      <trkpt lat="47.1496580" lon="6.7959750">
        <ele>926.9</ele>
        <time>2022-07-21T13:43:18Z</time>
      </trkpt>
      <trkpt lat="47.1496700" lon="6.7958940">
        <ele>926.9</ele>
        <time>2022-07-21T13:43:20Z</time>
      </trkpt>
      <trkpt lat="47.1496790" lon="6.7958350">
        <ele>927.0</ele>
        <time>2022-07-21T13:43:21Z</time>
      </trkpt>
      <trkpt lat="47.1496880" lon="6.7957840">
        <ele>927.0</ele>
        <time>2022-07-21T13:43:22Z</time>
      </trkpt>
      <trkpt lat="47.1496990" lon="6.7957350">
        <ele>927.0</ele>
        <time>2022-07-21T13:43:23Z</time>
      </trkpt>
      <trkpt lat="47.1497120" lon="6.7956880">
        <ele>927.0</ele>
        <time>2022-07-21T13:43:24Z</time>
      </trkpt>
      <trkpt lat="47.1497250" lon="6.7956410">
        <ele>927.1</ele>
        <time>2022-07-21T13:43:25Z</time>
      </trkpt>
      <trkpt lat="47.1497370" lon="6.7955940">
        <ele>927.1</ele>
        <time>2022-07-21T13:43:26Z</time>
      </trkpt>
      <trkpt lat="47.1497470" lon="6.7955390">
        <ele>927.2</ele>
        <time>2022-07-21T13:43:27Z</time>
      </trkpt>
      <trkpt lat="47.1497560" lon="6.7954890">
        <ele>927.2</ele>
        <time>2022-07-21T13:43:28Z</time>
      </trkpt>
      <trkpt lat="47.1497650" lon="6.7954430">
        <ele>927.3</ele>
        <time>2022-07-21T13:43:29Z</time>
      </trkpt>
      <trkpt lat="47.1497730" lon="6.7953980">
        <ele>927.3</ele>
        <time>2022-07-21T13:43:30Z</time>
      </trkpt>
      <trkpt lat="47.1497870" lon="6.7953360">
        <ele>927.4</ele>
        <time>2022-07-21T13:43:31Z</time>
      </trkpt>
      <trkpt lat="47.1497930" lon="6.7953110">
        <ele>927.4</ele>
        <time>2022-07-21T13:43:32Z</time>
      </trkpt>
      <trkpt lat="47.1498060" lon="6.7952630">
        <ele>927.4</ele>
        <time>2022-07-21T13:43:33Z</time>
      </trkpt>
      <trkpt lat="47.1498190" lon="6.7952160">
        <ele>927.5</ele>
        <time>2022-07-21T13:43:34Z</time>
      </trkpt>
      <trkpt lat="47.1498330" lon="6.7951730">
        <ele>927.5</ele>
        <time>2022-07-21T13:43:35Z</time>
      </trkpt>
      <trkpt lat="47.1498470" lon="6.7951350">
        <ele>927.6</ele>
        <time>2022-07-21T13:43:36Z</time>
      </trkpt>
      <trkpt lat="47.1498650" lon="6.7950920">
        <ele>927.7</ele>
        <time>2022-07-21T13:43:37Z</time>
      </trkpt>
      <trkpt lat="47.1498850" lon="6.7950460">
        <ele>927.8</ele>
        <time>2022-07-21T13:43:38Z</time>
      </trkpt>
      <trkpt lat="47.1499020" lon="6.7950030">
        <ele>927.8</ele>
        <time>2022-07-21T13:43:39Z</time>
      </trkpt>
      <trkpt lat="47.1499220" lon="6.7949520">
        <ele>927.9</ele>
        <time>2022-07-21T13:43:40Z</time>
      </trkpt>
      <trkpt lat="47.1499310" lon="6.7949280">
        <ele>927.9</ele>
        <time>2022-07-21T13:43:41Z</time>
      </trkpt>
      <trkpt lat="47.1499470" lon="6.7948800">
        <ele>927.9</ele>
        <time>2022-07-21T13:43:42Z</time>
      </trkpt>
      <trkpt lat="47.1499630" lon="6.7948330">
        <ele>928.0</ele>
        <time>2022-07-21T13:43:43Z</time>
      </trkpt>
      <trkpt lat="47.1499800" lon="6.7947860">
        <ele>928.0</ele>
        <time>2022-07-21T13:43:44Z</time>
      </trkpt>
      <trkpt lat="47.1499970" lon="6.7947370">
        <ele>928.1</ele>
        <time>2022-07-21T13:43:45Z</time>
      </trkpt>
      <trkpt lat="47.1500110" lon="6.7946970">
        <ele>928.1</ele>
        <time>2022-07-21T13:43:46Z</time>
      </trkpt>
      <trkpt lat="47.1500270" lon="6.7946520">
        <ele>928.2</ele>
        <time>2022-07-21T13:43:47Z</time>
      </trkpt>
      <trkpt lat="47.1500400" lon="6.7946110">
        <ele>928.2</ele>
        <time>2022-07-21T13:43:48Z</time>
      </trkpt>
      <trkpt lat="47.1500540" lon="6.7945710">
        <ele>928.3</ele>
        <time>2022-07-21T13:43:49Z</time>
      </trkpt>
      <trkpt lat="47.1500680" lon="6.7945290">
        <ele>928.3</ele>
        <time>2022-07-21T13:43:50Z</time>
      </trkpt>
      <trkpt lat="47.1500860" lon="6.7944770">
        <ele>928.3</ele>
        <time>2022-07-21T13:43:51Z</time>
      </trkpt>
      <trkpt lat="47.1501000" lon="6.7944390">
        <ele>928.3</ele>
        <time>2022-07-21T13:43:52Z</time>
      </trkpt>
      <trkpt lat="47.1501170" lon="6.7943910">
        <ele>928.4</ele>
        <time>2022-07-21T13:43:53Z</time>
      </trkpt>
      <trkpt lat="47.1501380" lon="6.7943320">
        <ele>928.4</ele>
        <time>2022-07-21T13:43:54Z</time>
      </trkpt>
      <trkpt lat="47.1501550" lon="6.7942770">
        <ele>928.4</ele>
        <time>2022-07-21T13:43:55Z</time>
      </trkpt>
      <trkpt lat="47.1501710" lon="6.7942170">
        <ele>928.4</ele>
        <time>2022-07-21T13:43:56Z</time>
      </trkpt>
      <trkpt lat="47.1501840" lon="6.7941650">
        <ele>928.4</ele>
        <time>2022-07-21T13:43:57Z</time>
      </trkpt>
      <trkpt lat="47.1501990" lon="6.7941020">
        <ele>928.4</ele>
        <time>2022-07-21T13:43:58Z</time>
      </trkpt>
      <trkpt lat="47.1502050" lon="6.7940750">
        <ele>928.5</ele>
        <time>2022-07-21T13:43:59Z</time>
      </trkpt>
      <trkpt lat="47.1502160" lon="6.7940150">
        <ele>928.5</ele>
        <time>2022-07-21T13:44:00Z</time>
      </trkpt>
      <trkpt lat="47.1502240" lon="6.7939520">
        <ele>928.6</ele>
        <time>2022-07-21T13:44:01Z</time>
      </trkpt>
      <trkpt lat="47.1502280" lon="6.7939270">
        <ele>928.6</ele>
        <time>2022-07-21T13:44:02Z</time>
      </trkpt>
      <trkpt lat="47.1502330" lon="6.7938770">
        <ele>928.7</ele>
        <time>2022-07-21T13:44:03Z</time>
      </trkpt>
      <trkpt lat="47.1502350" lon="6.7938330">
        <ele>928.8</ele>
        <time>2022-07-21T13:44:04Z</time>
      </trkpt>
      <trkpt lat="47.1502370" lon="6.7937790">
        <ele>928.9</ele>
        <time>2022-07-21T13:44:05Z</time>
      </trkpt>
      <trkpt lat="47.1502400" lon="6.7937210">
        <ele>929.0</ele>
        <time>2022-07-21T13:44:06Z</time>
      </trkpt>
      <trkpt lat="47.1502460" lon="6.7936630">
        <ele>929.1</ele>
        <time>2022-07-21T13:44:07Z</time>
      </trkpt>
      <trkpt lat="47.1502530" lon="6.7936150">
        <ele>929.2</ele>
        <time>2022-07-21T13:44:08Z</time>
      </trkpt>
      <trkpt lat="47.1502630" lon="6.7935660">
        <ele>929.4</ele>
        <time>2022-07-21T13:44:09Z</time>
      </trkpt>
      <trkpt lat="47.1502680" lon="6.7935290">
        <ele>929.5</ele>
        <time>2022-07-21T13:44:10Z</time>
      </trkpt>
      <trkpt lat="47.1502720" lon="6.7934520">
        <ele>929.7</ele>
        <time>2022-07-21T13:44:12Z</time>
      </trkpt>
      <trkpt lat="47.1502760" lon="6.7934180">
        <ele>929.8</ele>
        <time>2022-07-21T13:44:13Z</time>
      </trkpt>
      <trkpt lat="47.1502790" lon="6.7934020">
        <ele>929.9</ele>
        <time>2022-07-21T13:44:14Z</time>
      </trkpt>
      <trkpt lat="47.1502830" lon="6.7933810">
        <ele>930.0</ele>
        <time>2022-07-21T13:44:15Z</time>
      </trkpt>
      <trkpt lat="47.1502860" lon="6.7933570">
        <ele>930.1</ele>
        <time>2022-07-21T13:44:16Z</time>
      </trkpt>
      <trkpt lat="47.1502910" lon="6.7933020">
        <ele>930.3</ele>
        <time>2022-07-21T13:44:17Z</time>
      </trkpt>
      <trkpt lat="47.1502950" lon="6.7932850">
        <ele>930.4</ele>
        <time>2022-07-21T13:44:18Z</time>
      </trkpt>
      <trkpt lat="47.1503080" lon="6.7932380">
        <ele>930.6</ele>
        <time>2022-07-21T13:44:19Z</time>
      </trkpt>
      <trkpt lat="47.1503120" lon="6.7932240">
        <ele>930.6</ele>
        <time>2022-07-21T13:44:20Z</time>
      </trkpt>
      <trkpt lat="47.1503220" lon="6.7931800">
        <ele>930.9</ele>
        <time>2022-07-21T13:44:21Z</time>
      </trkpt>
      <trkpt lat="47.1503250" lon="6.7931650">
        <ele>930.9</ele>
        <time>2022-07-21T13:44:22Z</time>
      </trkpt>
      <trkpt lat="47.1503380" lon="6.7931180">
        <ele>931.2</ele>
        <time>2022-07-21T13:44:23Z</time>
      </trkpt>
      <trkpt lat="47.1503420" lon="6.7931040">
        <ele>931.3</ele>
        <time>2022-07-21T13:44:24Z</time>
      </trkpt>
      <trkpt lat="47.1503520" lon="6.7930680">
        <ele>931.5</ele>
        <time>2022-07-21T13:44:25Z</time>
      </trkpt>
      <trkpt lat="47.1503580" lon="6.7930540">
        <ele>931.5</ele>
        <time>2022-07-21T13:44:26Z</time>
      </trkpt>
      <trkpt lat="47.1503630" lon="6.7930400">
        <ele>931.6</ele>
        <time>2022-07-21T13:44:27Z</time>
      </trkpt>
      <trkpt lat="47.1503750" lon="6.7930000">
        <ele>931.8</ele>
        <time>2022-07-21T13:44:28Z</time>
      </trkpt>
      <trkpt lat="47.1503820" lon="6.7929450">
        <ele>932.2</ele>
        <time>2022-07-21T13:44:30Z</time>
      </trkpt>
      <trkpt lat="47.1503860" lon="6.7929230">
        <ele>932.3</ele>
        <time>2022-07-21T13:44:31Z</time>
      </trkpt>
      <trkpt lat="47.1503920" lon="6.7928940">
        <ele>932.4</ele>
        <time>2022-07-21T13:44:32Z</time>
      </trkpt>
      <trkpt lat="47.1504010" lon="6.7928520">
        <ele>932.7</ele>
        <time>2022-07-21T13:44:33Z</time>
      </trkpt>
      <trkpt lat="47.1504050" lon="6.7928350">
        <ele>932.8</ele>
        <time>2022-07-21T13:44:34Z</time>
      </trkpt>
      <trkpt lat="47.1504150" lon="6.7927950">
        <ele>933.0</ele>
        <time>2022-07-21T13:44:35Z</time>
      </trkpt>
      <trkpt lat="47.1504200" lon="6.7927800">
        <ele>933.1</ele>
        <time>2022-07-21T13:44:36Z</time>
      </trkpt>
      <trkpt lat="47.1504310" lon="6.7927340">
        <ele>933.4</ele>
        <time>2022-07-21T13:44:37Z</time>
      </trkpt>
      <trkpt lat="47.1504350" lon="6.7927200">
        <ele>933.5</ele>
        <time>2022-07-21T13:44:38Z</time>
      </trkpt>
      <trkpt lat="47.1504380" lon="6.7926980">
        <ele>933.6</ele>
        <time>2022-07-21T13:44:39Z</time>
      </trkpt>
      <trkpt lat="47.1504410" lon="6.7926770">
        <ele>933.7</ele>
        <time>2022-07-21T13:44:40Z</time>
      </trkpt>
      <trkpt lat="47.1504470" lon="6.7926370">
        <ele>933.9</ele>
        <time>2022-07-21T13:44:41Z</time>
      </trkpt>
      <trkpt lat="47.1504500" lon="6.7926220">
        <ele>934.0</ele>
        <time>2022-07-21T13:44:42Z</time>
      </trkpt>
      <trkpt lat="47.1504530" lon="6.7925780">
        <ele>934.3</ele>
        <time>2022-07-21T13:44:43Z</time>
      </trkpt>
      <trkpt lat="47.1504550" lon="6.7925610">
        <ele>934.4</ele>
        <time>2022-07-21T13:44:44Z</time>
      </trkpt>
      <trkpt lat="47.1504600" lon="6.7925200">
        <ele>934.6</ele>
        <time>2022-07-21T13:44:45Z</time>
      </trkpt>
      <trkpt lat="47.1504710" lon="6.7924670">
        <ele>935.0</ele>
        <time>2022-07-21T13:44:46Z</time>
      </trkpt>
      <trkpt lat="47.1504740" lon="6.7924510">
        <ele>935.1</ele>
        <time>2022-07-21T13:44:47Z</time>
      </trkpt>
      <trkpt lat="47.1504820" lon="6.7924110">
        <ele>935.3</ele>
        <time>2022-07-21T13:44:48Z</time>
      </trkpt>
      <trkpt lat="47.1504930" lon="6.7923630">
        <ele>935.6</ele>
        <time>2022-07-21T13:44:49Z</time>
      </trkpt>
      <trkpt lat="47.1504960" lon="6.7923470">
        <ele>935.8</ele>
        <time>2022-07-21T13:44:50Z</time>
      </trkpt>
      <trkpt lat="47.1505010" lon="6.7923240">
        <ele>935.9</ele>
        <time>2022-07-21T13:44:51Z</time>
      </trkpt>
      <trkpt lat="47.1505020" lon="6.7923000">
        <ele>936.1</ele>
        <time>2022-07-21T13:44:52Z</time>
      </trkpt>
      <trkpt lat="47.1505030" lon="6.7922790">
        <ele>936.2</ele>
        <time>2022-07-21T13:44:53Z</time>
      </trkpt>
      <trkpt lat="47.1505010" lon="6.7922590">
        <ele>936.4</ele>
        <time>2022-07-21T13:44:54Z</time>
      </trkpt>
      <trkpt lat="47.1504900" lon="6.7922150">
        <ele>936.7</ele>
        <time>2022-07-21T13:44:55Z</time>
      </trkpt>
      <trkpt lat="47.1504880" lon="6.7922050">
        <ele>936.7</ele>
        <time>2022-07-21T13:44:56Z</time>
      </trkpt>
      <trkpt lat="47.1504860" lon="6.7921860">
        <ele>936.9</ele>
        <time>2022-07-21T13:44:57Z</time>
      </trkpt>
      <trkpt lat="47.1504880" lon="6.7921660">
        <ele>937.0</ele>
        <time>2022-07-21T13:44:58Z</time>
      </trkpt>
      <trkpt lat="47.1504880" lon="6.7921530">
        <ele>937.1</ele>
        <time>2022-07-21T13:44:59Z</time>
      </trkpt>
      <trkpt lat="47.1504860" lon="6.7921220">
        <ele>937.3</ele>
        <time>2022-07-21T13:45:00Z</time>
      </trkpt>
      <trkpt lat="47.1504880" lon="6.7921150">
        <ele>937.3</ele>
        <time>2022-07-21T13:45:01Z</time>
      </trkpt>
      <trkpt lat="47.1504910" lon="6.7921080">
        <ele>937.4</ele>
        <time>2022-07-21T13:45:02Z</time>
      </trkpt>
      <trkpt lat="47.1504940" lon="6.7921010">
        <ele>937.4</ele>
        <time>2022-07-21T13:45:03Z</time>
      </trkpt>
      <trkpt lat="47.1504970" lon="6.7920940">
        <ele>937.5</ele>
        <time>2022-07-21T13:45:04Z</time>
      </trkpt>
      <trkpt lat="47.1505110" lon="6.7920650">
        <ele>937.7</ele>
        <time>2022-07-21T13:45:05Z</time>
      </trkpt>
      <trkpt lat="47.1505170" lon="6.7920500">
        <ele>937.8</ele>
        <time>2022-07-21T13:45:06Z</time>
      </trkpt>
      <trkpt lat="47.1505220" lon="6.7920360">
        <ele>937.9</ele>
        <time>2022-07-21T13:45:07Z</time>
      </trkpt>
      <trkpt lat="47.1505370" lon="6.7919870">
        <ele>938.2</ele>
        <time>2022-07-21T13:45:08Z</time>
      </trkpt>
      <trkpt lat="47.1505410" lon="6.7919710">
        <ele>938.3</ele>
        <time>2022-07-21T13:45:09Z</time>
      </trkpt>
      <trkpt lat="47.1505450" lon="6.7919470">
        <ele>938.4</ele>
        <time>2022-07-21T13:45:10Z</time>
      </trkpt>
      <trkpt lat="47.1505500" lon="6.7919220">
        <ele>938.5</ele>
        <time>2022-07-21T13:45:11Z</time>
      </trkpt>
      <trkpt lat="47.1505580" lon="6.7918820">
        <ele>938.7</ele>
        <time>2022-07-21T13:45:12Z</time>
      </trkpt>
      <trkpt lat="47.1505610" lon="6.7918690">
        <ele>938.7</ele>
        <time>2022-07-21T13:45:13Z</time>
      </trkpt>
      <trkpt lat="47.1505650" lon="6.7918510">
        <ele>938.8</ele>
        <time>2022-07-21T13:45:14Z</time>
      </trkpt>
      <trkpt lat="47.1505680" lon="6.7918300">
        <ele>938.9</ele>
        <time>2022-07-21T13:45:15Z</time>
      </trkpt>
      <trkpt lat="47.1505700" lon="6.7918030">
        <ele>939.0</ele>
        <time>2022-07-21T13:45:16Z</time>
      </trkpt>
      <trkpt lat="47.1505730" lon="6.7917780">
        <ele>939.1</ele>
        <time>2022-07-21T13:45:17Z</time>
      </trkpt>
      <trkpt lat="47.1505820" lon="6.7917380">
        <ele>939.3</ele>
        <time>2022-07-21T13:45:18Z</time>
      </trkpt>
      <trkpt lat="47.1505850" lon="6.7917270">
        <ele>939.3</ele>
        <time>2022-07-21T13:45:19Z</time>
      </trkpt>
      <trkpt lat="47.1505960" lon="6.7916840">
        <ele>939.5</ele>
        <time>2022-07-21T13:45:20Z</time>
      </trkpt>
      <trkpt lat="47.1505990" lon="6.7916730">
        <ele>939.5</ele>
        <time>2022-07-21T13:45:21Z</time>
      </trkpt>
      <trkpt lat="47.1506060" lon="6.7916240">
        <ele>939.7</ele>
        <time>2022-07-21T13:45:22Z</time>
      </trkpt>
      <trkpt lat="47.1506080" lon="6.7916030">
        <ele>939.8</ele>
        <time>2022-07-21T13:45:23Z</time>
      </trkpt>
      <trkpt lat="47.1506100" lon="6.7915620">
        <ele>940.0</ele>
        <time>2022-07-21T13:45:24Z</time>
      </trkpt>
      <trkpt lat="47.1506100" lon="6.7915110">
        <ele>940.1</ele>
        <time>2022-07-21T13:45:25Z</time>
      </trkpt>
      <trkpt lat="47.1506090" lon="6.7914960">
        <ele>940.2</ele>
        <time>2022-07-21T13:45:26Z</time>
      </trkpt>
      <trkpt lat="47.1506070" lon="6.7914400">
        <ele>940.4</ele>
        <time>2022-07-21T13:45:27Z</time>
      </trkpt>
      <trkpt lat="47.1506060" lon="6.7914180">
        <ele>940.4</ele>
        <time>2022-07-21T13:45:28Z</time>
      </trkpt>
      <trkpt lat="47.1506000" lon="6.7913650">
        <ele>940.6</ele>
        <time>2022-07-21T13:45:29Z</time>
      </trkpt>
      <trkpt lat="47.1505970" lon="6.7913450">
        <ele>940.7</ele>
        <time>2022-07-21T13:45:30Z</time>
      </trkpt>
      <trkpt lat="47.1505920" lon="6.7913050">
        <ele>940.8</ele>
        <time>2022-07-21T13:45:31Z</time>
      </trkpt>
      <trkpt lat="47.1505830" lon="6.7912470">
        <ele>941.0</ele>
        <time>2022-07-21T13:45:32Z</time>
      </trkpt>
      <trkpt lat="47.1505800" lon="6.7912270">
        <ele>941.0</ele>
        <time>2022-07-21T13:45:33Z</time>
      </trkpt>
      <trkpt lat="47.1505740" lon="6.7911770">
        <ele>941.2</ele>
        <time>2022-07-21T13:45:34Z</time>
      </trkpt>
      <trkpt lat="47.1505720" lon="6.7911570">
        <ele>941.2</ele>
        <time>2022-07-21T13:45:35Z</time>
      </trkpt>
      <trkpt lat="47.1505710" lon="6.7911140">
        <ele>941.3</ele>
        <time>2022-07-21T13:45:36Z</time>
      </trkpt>
      <trkpt lat="47.1505670" lon="6.7910580">
        <ele>941.5</ele>
        <time>2022-07-21T13:45:37Z</time>
      </trkpt>
      <trkpt lat="47.1505650" lon="6.7910370">
        <ele>941.5</ele>
        <time>2022-07-21T13:45:38Z</time>
      </trkpt>
      <trkpt lat="47.1505540" lon="6.7909820">
        <ele>941.7</ele>
        <time>2022-07-21T13:45:39Z</time>
      </trkpt>
      <trkpt lat="47.1505490" lon="6.7909610">
        <ele>941.7</ele>
        <time>2022-07-21T13:45:40Z</time>
      </trkpt>
      <trkpt lat="47.1505400" lon="6.7909230">
        <ele>941.8</ele>
        <time>2022-07-21T13:45:41Z</time>
      </trkpt>
      <trkpt lat="47.1505270" lon="6.7908780">
        <ele>942.0</ele>
        <time>2022-07-21T13:45:42Z</time>
      </trkpt>
      <trkpt lat="47.1505220" lon="6.7908640">
        <ele>942.0</ele>
        <time>2022-07-21T13:45:43Z</time>
      </trkpt>
      <trkpt lat="47.1505120" lon="6.7908240">
        <ele>942.1</ele>
        <time>2022-07-21T13:45:44Z</time>
      </trkpt>
      <trkpt lat="47.1505110" lon="6.7908130">
        <ele>942.1</ele>
        <time>2022-07-21T13:45:45Z</time>
      </trkpt>
      <trkpt lat="47.1505060" lon="6.7907690">
        <ele>942.3</ele>
        <time>2022-07-21T13:45:46Z</time>
      </trkpt>
      <trkpt lat="47.1505050" lon="6.7907560">
        <ele>942.3</ele>
        <time>2022-07-21T13:45:47Z</time>
      </trkpt>
      <trkpt lat="47.1504940" lon="6.7907180">
        <ele>942.5</ele>
        <time>2022-07-21T13:45:48Z</time>
      </trkpt>
      <trkpt lat="47.1504880" lon="6.7907030">
        <ele>942.5</ele>
        <time>2022-07-21T13:45:49Z</time>
      </trkpt>
      <trkpt lat="47.1504730" lon="6.7906650">
        <ele>942.7</ele>
        <time>2022-07-21T13:45:50Z</time>
      </trkpt>
      <trkpt lat="47.1504690" lon="6.7906500">
        <ele>942.8</ele>
        <time>2022-07-21T13:45:51Z</time>
      </trkpt>
      <trkpt lat="47.1504750" lon="6.7906040">
        <ele>942.9</ele>
        <time>2022-07-21T13:45:52Z</time>
      </trkpt>
      <trkpt lat="47.1504780" lon="6.7905930">
        <ele>943.0</ele>
        <time>2022-07-21T13:45:53Z</time>
      </trkpt>
      <trkpt lat="47.1504860" lon="6.7905750">
        <ele>943.1</ele>
        <time>2022-07-21T13:45:54Z</time>
      </trkpt>
      <trkpt lat="47.1504890" lon="6.7905470">
        <ele>943.2</ele>
        <time>2022-07-21T13:45:55Z</time>
      </trkpt>
      <trkpt lat="47.1504920" lon="6.7905260">
        <ele>943.3</ele>
        <time>2022-07-21T13:45:56Z</time>
      </trkpt>
      <trkpt lat="47.1504940" lon="6.7905000">
        <ele>943.4</ele>
        <time>2022-07-21T13:45:57Z</time>
      </trkpt>
      <trkpt lat="47.1505010" lon="6.7904530">
        <ele>943.6</ele>
        <time>2022-07-21T13:45:58Z</time>
      </trkpt>
      <trkpt lat="47.1505020" lon="6.7904370">
        <ele>943.7</ele>
        <time>2022-07-21T13:45:59Z</time>
      </trkpt>
      <trkpt lat="47.1505040" lon="6.7903900">
        <ele>943.9</ele>
        <time>2022-07-21T13:46:00Z</time>
      </trkpt>
      <trkpt lat="47.1505050" lon="6.7903780">
        <ele>944.0</ele>
        <time>2022-07-21T13:46:01Z</time>
      </trkpt>
      <trkpt lat="47.1504960" lon="6.7903350">
        <ele>944.2</ele>
        <time>2022-07-21T13:46:02Z</time>
      </trkpt>
      <trkpt lat="47.1504910" lon="6.7903220">
        <ele>944.3</ele>
        <time>2022-07-21T13:46:03Z</time>
      </trkpt>
      <trkpt lat="47.1504870" lon="6.7902950">
        <ele>944.4</ele>
        <time>2022-07-21T13:46:04Z</time>
      </trkpt>
      <trkpt lat="47.1504870" lon="6.7902780">
        <ele>944.5</ele>
        <time>2022-07-21T13:46:05Z</time>
      </trkpt>
      <trkpt lat="47.1504870" lon="6.7902270">
        <ele>944.7</ele>
        <time>2022-07-21T13:46:06Z</time>
      </trkpt>
      <trkpt lat="47.1504880" lon="6.7902040">
        <ele>944.8</ele>
        <time>2022-07-21T13:46:07Z</time>
      </trkpt>
      <trkpt lat="47.1504880" lon="6.7901630">
        <ele>944.9</ele>
        <time>2022-07-21T13:46:08Z</time>
      </trkpt>
      <trkpt lat="47.1504930" lon="6.7901040">
        <ele>945.1</ele>
        <time>2022-07-21T13:46:09Z</time>
      </trkpt>
      <trkpt lat="47.1504950" lon="6.7900830">
        <ele>945.2</ele>
        <time>2022-07-21T13:46:10Z</time>
      </trkpt>
      <trkpt lat="47.1504960" lon="6.7900320">
        <ele>945.4</ele>
        <time>2022-07-21T13:46:11Z</time>
      </trkpt>
      <trkpt lat="47.1504960" lon="6.7899710">
        <ele>945.6</ele>
        <time>2022-07-21T13:46:12Z</time>
      </trkpt>
      <trkpt lat="47.1504940" lon="6.7899150">
        <ele>945.7</ele>
        <time>2022-07-21T13:46:13Z</time>
      </trkpt>
      <trkpt lat="47.1504890" lon="6.7898600">
        <ele>945.9</ele>
        <time>2022-07-21T13:46:14Z</time>
      </trkpt>
      <trkpt lat="47.1504840" lon="6.7898090">
        <ele>946.0</ele>
        <time>2022-07-21T13:46:15Z</time>
      </trkpt>
      <trkpt lat="47.1504760" lon="6.7897640">
        <ele>946.1</ele>
        <time>2022-07-21T13:46:16Z</time>
      </trkpt>
      <trkpt lat="47.1504680" lon="6.7897160">
        <ele>946.2</ele>
        <time>2022-07-21T13:46:17Z</time>
      </trkpt>
      <trkpt lat="47.1504600" lon="6.7896680">
        <ele>946.4</ele>
        <time>2022-07-21T13:46:18Z</time>
      </trkpt>
      <trkpt lat="47.1504540" lon="6.7896280">
        <ele>946.5</ele>
        <time>2022-07-21T13:46:19Z</time>
      </trkpt>
      <trkpt lat="47.1504500" lon="6.7895840">
        <ele>946.6</ele>
        <time>2022-07-21T13:46:20Z</time>
      </trkpt>
      <trkpt lat="47.1504390" lon="6.7895410">
        <ele>946.7</ele>
        <time>2022-07-21T13:46:21Z</time>
      </trkpt>
      <trkpt lat="47.1504350" lon="6.7895240">
        <ele>946.7</ele>
        <time>2022-07-21T13:46:22Z</time>
      </trkpt>
      <trkpt lat="47.1504170" lon="6.7894770">
        <ele>946.9</ele>
        <time>2022-07-21T13:46:23Z</time>
      </trkpt>
      <trkpt lat="47.1504110" lon="6.7894610">
        <ele>946.9</ele>
        <time>2022-07-21T13:46:24Z</time>
      </trkpt>
      <trkpt lat="47.1503980" lon="6.7894120">
        <ele>947.1</ele>
        <time>2022-07-21T13:46:25Z</time>
      </trkpt>
      <trkpt lat="47.1503950" lon="6.7893970">
        <ele>947.1</ele>
        <time>2022-07-21T13:46:26Z</time>
      </trkpt>
      <trkpt lat="47.1503920" lon="6.7893420">
        <ele>947.3</ele>
        <time>2022-07-21T13:46:27Z</time>
      </trkpt>
      <trkpt lat="47.1503920" lon="6.7893190">
        <ele>947.4</ele>
        <time>2022-07-21T13:46:28Z</time>
      </trkpt>
      <trkpt lat="47.1503970" lon="6.7892660">
        <ele>947.6</ele>
        <time>2022-07-21T13:46:29Z</time>
      </trkpt>
      <trkpt lat="47.1504000" lon="6.7892220">
        <ele>947.7</ele>
        <time>2022-07-21T13:46:30Z</time>
      </trkpt>
      <trkpt lat="47.1504000" lon="6.7892070">
        <ele>947.8</ele>
        <time>2022-07-21T13:46:31Z</time>
      </trkpt>
      <trkpt lat="47.1503990" lon="6.7891590">
        <ele>947.9</ele>
        <time>2022-07-21T13:46:32Z</time>
      </trkpt>
      <trkpt lat="47.1503980" lon="6.7891440">
        <ele>948.0</ele>
        <time>2022-07-21T13:46:33Z</time>
      </trkpt>
      <trkpt lat="47.1503940" lon="6.7891000">
        <ele>948.2</ele>
        <time>2022-07-21T13:46:34Z</time>
      </trkpt>
      <trkpt lat="47.1503920" lon="6.7890860">
        <ele>948.2</ele>
        <time>2022-07-21T13:46:35Z</time>
      </trkpt>
      <trkpt lat="47.1503840" lon="6.7890640">
        <ele>948.3</ele>
        <time>2022-07-21T13:46:36Z</time>
      </trkpt>
      <trkpt lat="47.1503740" lon="6.7890400">
        <ele>948.4</ele>
        <time>2022-07-21T13:46:37Z</time>
      </trkpt>
      <trkpt lat="47.1503610" lon="6.7890030">
        <ele>948.6</ele>
        <time>2022-07-21T13:46:38Z</time>
      </trkpt>
      <trkpt lat="47.1503580" lon="6.7889900">
        <ele>948.6</ele>
        <time>2022-07-21T13:46:39Z</time>
      </trkpt>
      <trkpt lat="47.1503530" lon="6.7889640">
        <ele>948.7</ele>
        <time>2022-07-21T13:46:40Z</time>
      </trkpt>
      <trkpt lat="47.1503490" lon="6.7889460">
        <ele>948.7</ele>
        <time>2022-07-21T13:46:41Z</time>
      </trkpt>
      <trkpt lat="47.1503440" lon="6.7889280">
        <ele>948.8</ele>
        <time>2022-07-21T13:46:42Z</time>
      </trkpt>
      <trkpt lat="47.1503330" lon="6.7889100">
        <ele>948.9</ele>
        <time>2022-07-21T13:46:43Z</time>
      </trkpt>
      <trkpt lat="47.1503130" lon="6.7888690">
        <ele>949.0</ele>
        <time>2022-07-21T13:46:44Z</time>
      </trkpt>
      <trkpt lat="47.1503060" lon="6.7888540">
        <ele>949.1</ele>
        <time>2022-07-21T13:46:45Z</time>
      </trkpt>
      <trkpt lat="47.1502910" lon="6.7888190">
        <ele>949.2</ele>
        <time>2022-07-21T13:46:46Z</time>
      </trkpt>
      <trkpt lat="47.1502820" lon="6.7887750">
        <ele>949.2</ele>
        <time>2022-07-21T13:46:47Z</time>
      </trkpt>
      <trkpt lat="47.1502820" lon="6.7887220">
        <ele>949.3</ele>
        <time>2022-07-21T13:46:48Z</time>
      </trkpt>
      <trkpt lat="47.1502840" lon="6.7887010">
        <ele>949.4</ele>
        <time>2022-07-21T13:46:49Z</time>
      </trkpt>
      <trkpt lat="47.1502850" lon="6.7886440">
        <ele>949.4</ele>
        <time>2022-07-21T13:46:50Z</time>
      </trkpt>
      <trkpt lat="47.1502840" lon="6.7886200">
        <ele>949.4</ele>
        <time>2022-07-21T13:46:51Z</time>
      </trkpt>
      <trkpt lat="47.1502780" lon="6.7885700">
        <ele>949.5</ele>
        <time>2022-07-21T13:46:52Z</time>
      </trkpt>
      <trkpt lat="47.1502700" lon="6.7885230">
        <ele>949.5</ele>
        <time>2022-07-21T13:46:53Z</time>
      </trkpt>
      <trkpt lat="47.1502600" lon="6.7884840">
        <ele>949.5</ele>
        <time>2022-07-21T13:46:54Z</time>
      </trkpt>
      <trkpt lat="47.1502430" lon="6.7884410">
        <ele>949.5</ele>
        <time>2022-07-21T13:46:55Z</time>
      </trkpt>
      <trkpt lat="47.1502190" lon="6.7883930">
        <ele>949.6</ele>
        <time>2022-07-21T13:46:56Z</time>
      </trkpt>
      <trkpt lat="47.1501980" lon="6.7883450">
        <ele>949.6</ele>
        <time>2022-07-21T13:46:57Z</time>
      </trkpt>
      <trkpt lat="47.1501830" lon="6.7883070">
        <ele>949.6</ele>
        <time>2022-07-21T13:46:58Z</time>
      </trkpt>
      <trkpt lat="47.1501680" lon="6.7882670">
        <ele>949.6</ele>
        <time>2022-07-21T13:46:59Z</time>
      </trkpt>
      <trkpt lat="47.1501520" lon="6.7882070">
        <ele>949.6</ele>
        <time>2022-07-21T13:47:00Z</time>
      </trkpt>
      <trkpt lat="47.1501450" lon="6.7881570">
        <ele>949.7</ele>
        <time>2022-07-21T13:47:01Z</time>
      </trkpt>
      <trkpt lat="47.1501440" lon="6.7881080">
        <ele>949.7</ele>
        <time>2022-07-21T13:47:02Z</time>
      </trkpt>
      <trkpt lat="47.1501420" lon="6.7880610">
        <ele>949.8</ele>
        <time>2022-07-21T13:47:03Z</time>
      </trkpt>
      <trkpt lat="47.1501390" lon="6.7880170">
        <ele>949.8</ele>
        <time>2022-07-21T13:47:04Z</time>
      </trkpt>
      <trkpt lat="47.1501330" lon="6.7879610">
        <ele>949.8</ele>
        <time>2022-07-21T13:47:05Z</time>
      </trkpt>
      <trkpt lat="47.1501270" lon="6.7879080">
        <ele>949.9</ele>
        <time>2022-07-21T13:47:06Z</time>
      </trkpt>
      <trkpt lat="47.1501230" lon="6.7878480">
        <ele>949.9</ele>
        <time>2022-07-21T13:47:07Z</time>
      </trkpt>
      <trkpt lat="47.1501180" lon="6.7877880">
        <ele>950.0</ele>
        <time>2022-07-21T13:47:08Z</time>
      </trkpt>
      <trkpt lat="47.1501120" lon="6.7877300">
        <ele>950.0</ele>
        <time>2022-07-21T13:47:09Z</time>
      </trkpt>
      <trkpt lat="47.1501080" lon="6.7876780">
        <ele>950.0</ele>
        <time>2022-07-21T13:47:10Z</time>
      </trkpt>
      <trkpt lat="47.1501080" lon="6.7876300">
        <ele>950.0</ele>
        <time>2022-07-21T13:47:11Z</time>
      </trkpt>
      <trkpt lat="47.1501040" lon="6.7875720">
        <ele>950.0</ele>
        <time>2022-07-21T13:47:12Z</time>
      </trkpt>
      <trkpt lat="47.1500980" lon="6.7875030">
        <ele>950.0</ele>
        <time>2022-07-21T13:47:13Z</time>
      </trkpt>
      <trkpt lat="47.1500970" lon="6.7874100">
        <ele>949.9</ele>
        <time>2022-07-21T13:47:14Z</time>
      </trkpt>
      <trkpt lat="47.1500880" lon="6.7873230">
        <ele>949.8</ele>
        <time>2022-07-21T13:47:15Z</time>
      </trkpt>
      <trkpt lat="47.1500760" lon="6.7872440">
        <ele>949.7</ele>
        <time>2022-07-21T13:47:16Z</time>
      </trkpt>
      <trkpt lat="47.1500650" lon="6.7871640">
        <ele>949.5</ele>
        <time>2022-07-21T13:47:17Z</time>
      </trkpt>
      <trkpt lat="47.1500540" lon="6.7871040">
        <ele>949.4</ele>
        <time>2022-07-21T13:47:18Z</time>
      </trkpt>
      <trkpt lat="47.1500450" lon="6.7870250">
        <ele>949.2</ele>
        <time>2022-07-21T13:47:19Z</time>
      </trkpt>
      <trkpt lat="47.1500380" lon="6.7869420">
        <ele>949.0</ele>
        <time>2022-07-21T13:47:20Z</time>
      </trkpt>
      <trkpt lat="47.1500250" lon="6.7868620">
        <ele>948.8</ele>
        <time>2022-07-21T13:47:21Z</time>
      </trkpt>
      <trkpt lat="47.1500120" lon="6.7867860">
        <ele>948.6</ele>
        <time>2022-07-21T13:47:22Z</time>
      </trkpt>
      <trkpt lat="47.1499980" lon="6.7867030">
        <ele>948.5</ele>
        <time>2022-07-21T13:47:23Z</time>
      </trkpt>
      <trkpt lat="47.1499840" lon="6.7866240">
        <ele>948.3</ele>
        <time>2022-07-21T13:47:24Z</time>
      </trkpt>
      <trkpt lat="47.1499620" lon="6.7865430">
        <ele>948.2</ele>
        <time>2022-07-21T13:47:25Z</time>
      </trkpt>
      <trkpt lat="47.1499510" lon="6.7864680">
        <ele>948.1</ele>
        <time>2022-07-21T13:47:26Z</time>
      </trkpt>
      <trkpt lat="47.1499430" lon="6.7863920">
        <ele>948.0</ele>
        <time>2022-07-21T13:47:27Z</time>
      </trkpt>
      <trkpt lat="47.1499350" lon="6.7863220">
        <ele>948.0</ele>
        <time>2022-07-21T13:47:28Z</time>
      </trkpt>
      <trkpt lat="47.1499240" lon="6.7862540">
        <ele>947.9</ele>
        <time>2022-07-21T13:47:29Z</time>
      </trkpt>
      <trkpt lat="47.1499090" lon="6.7861860">
        <ele>947.9</ele>
        <time>2022-07-21T13:47:30Z</time>
      </trkpt>
      <trkpt lat="47.1499030" lon="6.7861150">
        <ele>947.8</ele>
        <time>2022-07-21T13:47:31Z</time>
      </trkpt>
      <trkpt lat="47.1498920" lon="6.7860490">
        <ele>947.8</ele>
        <time>2022-07-21T13:47:32Z</time>
      </trkpt>
      <trkpt lat="47.1498760" lon="6.7859850">
        <ele>947.8</ele>
        <time>2022-07-21T13:47:33Z</time>
      </trkpt>
      <trkpt lat="47.1498630" lon="6.7859200">
        <ele>947.8</ele>
        <time>2022-07-21T13:47:34Z</time>
      </trkpt>
      <trkpt lat="47.1498560" lon="6.7858660">
        <ele>947.7</ele>
        <time>2022-07-21T13:47:35Z</time>
      </trkpt>
      <trkpt lat="47.1498340" lon="6.7857850">
        <ele>947.7</ele>
        <time>2022-07-21T13:47:36Z</time>
      </trkpt>
      <trkpt lat="47.1498170" lon="6.7857080">
        <ele>947.6</ele>
        <time>2022-07-21T13:47:37Z</time>
      </trkpt>
      <trkpt lat="47.1497920" lon="6.7856310">
        <ele>947.6</ele>
        <time>2022-07-21T13:47:38Z</time>
      </trkpt>
      <trkpt lat="47.1497750" lon="6.7855530">
        <ele>947.5</ele>
        <time>2022-07-21T13:47:39Z</time>
      </trkpt>
      <trkpt lat="47.1497660" lon="6.7854830">
        <ele>947.5</ele>
        <time>2022-07-21T13:47:40Z</time>
      </trkpt>
      <trkpt lat="47.1497580" lon="6.7854220">
        <ele>947.4</ele>
        <time>2022-07-21T13:47:41Z</time>
      </trkpt>
      <trkpt lat="47.1497510" lon="6.7853500">
        <ele>947.4</ele>
        <time>2022-07-21T13:47:42Z</time>
      </trkpt>
      <trkpt lat="47.1497470" lon="6.7852650">
        <ele>947.3</ele>
        <time>2022-07-21T13:47:43Z</time>
      </trkpt>
      <trkpt lat="47.1497360" lon="6.7851880">
        <ele>947.3</ele>
        <time>2022-07-21T13:47:44Z</time>
      </trkpt>
      <trkpt lat="47.1497230" lon="6.7851130">
        <ele>947.2</ele>
        <time>2022-07-21T13:47:45Z</time>
      </trkpt>
      <trkpt lat="47.1497160" lon="6.7850380">
        <ele>947.1</ele>
        <time>2022-07-21T13:47:46Z</time>
      </trkpt>
      <trkpt lat="47.1497070" lon="6.7849540">
        <ele>946.9</ele>
        <time>2022-07-21T13:47:47Z</time>
      </trkpt>
      <trkpt lat="47.1496960" lon="6.7848840">
        <ele>946.8</ele>
        <time>2022-07-21T13:47:48Z</time>
      </trkpt>
      <trkpt lat="47.1496870" lon="6.7848090">
        <ele>946.6</ele>
        <time>2022-07-21T13:47:49Z</time>
      </trkpt>
      <trkpt lat="47.1496780" lon="6.7847270">
        <ele>946.4</ele>
        <time>2022-07-21T13:47:50Z</time>
      </trkpt>
      <trkpt lat="47.1496720" lon="6.7846460">
        <ele>946.2</ele>
        <time>2022-07-21T13:47:51Z</time>
      </trkpt>
      <trkpt lat="47.1496630" lon="6.7845630">
        <ele>946.0</ele>
        <time>2022-07-21T13:47:52Z</time>
      </trkpt>
      <trkpt lat="47.1496560" lon="6.7844810">
        <ele>945.8</ele>
        <time>2022-07-21T13:47:53Z</time>
      </trkpt>
      <trkpt lat="47.1496490" lon="6.7844040">
        <ele>945.7</ele>
        <time>2022-07-21T13:47:54Z</time>
      </trkpt>
      <trkpt lat="47.1496450" lon="6.7843240">
        <ele>945.5</ele>
        <time>2022-07-21T13:47:55Z</time>
      </trkpt>
      <trkpt lat="47.1496350" lon="6.7842310">
        <ele>945.3</ele>
        <time>2022-07-21T13:47:56Z</time>
      </trkpt>
      <trkpt lat="47.1496210" lon="6.7841400">
        <ele>945.1</ele>
        <time>2022-07-21T13:47:57Z</time>
      </trkpt>
      <trkpt lat="47.1496030" lon="6.7840520">
        <ele>944.9</ele>
        <time>2022-07-21T13:47:58Z</time>
      </trkpt>
      <trkpt lat="47.1495830" lon="6.7839750">
        <ele>944.8</ele>
        <time>2022-07-21T13:47:59Z</time>
      </trkpt>
      <trkpt lat="47.1495620" lon="6.7839030">
        <ele>944.8</ele>
        <time>2022-07-21T13:48:00Z</time>
      </trkpt>
      <trkpt lat="47.1495330" lon="6.7838380">
        <ele>944.8</ele>
        <time>2022-07-21T13:48:01Z</time>
      </trkpt>
      <trkpt lat="47.1495000" lon="6.7837800">
        <ele>944.8</ele>
        <time>2022-07-21T13:48:02Z</time>
      </trkpt>
      <trkpt lat="47.1494720" lon="6.7837200">
        <ele>944.8</ele>
        <time>2022-07-21T13:48:03Z</time>
      </trkpt>
      <trkpt lat="47.1494380" lon="6.7836700">
        <ele>944.9</ele>
        <time>2022-07-21T13:48:04Z</time>
      </trkpt>
      <trkpt lat="47.1494120" lon="6.7836350">
        <ele>944.9</ele>
        <time>2022-07-21T13:48:05Z</time>
      </trkpt>
      <trkpt lat="47.1493790" lon="6.7835810">
        <ele>945.0</ele>
        <time>2022-07-21T13:48:06Z</time>
      </trkpt>
      <trkpt lat="47.1493540" lon="6.7835310">
        <ele>945.1</ele>
        <time>2022-07-21T13:48:07Z</time>
      </trkpt>
      <trkpt lat="47.1493220" lon="6.7834680">
        <ele>945.1</ele>
        <time>2022-07-21T13:48:08Z</time>
      </trkpt>
      <trkpt lat="47.1492960" lon="6.7834120">
        <ele>945.1</ele>
        <time>2022-07-21T13:48:09Z</time>
      </trkpt>
      <trkpt lat="47.1492720" lon="6.7833630">
        <ele>945.1</ele>
        <time>2022-07-21T13:48:10Z</time>
      </trkpt>
      <trkpt lat="47.1492520" lon="6.7833160">
        <ele>945.1</ele>
        <time>2022-07-21T13:48:11Z</time>
      </trkpt>
      <trkpt lat="47.1492210" lon="6.7832490">
        <ele>945.0</ele>
        <time>2022-07-21T13:48:12Z</time>
      </trkpt>
      <trkpt lat="47.1492000" lon="6.7832020">
        <ele>945.0</ele>
        <time>2022-07-21T13:48:13Z</time>
      </trkpt>
      <trkpt lat="47.1491740" lon="6.7831350">
        <ele>945.0</ele>
        <time>2022-07-21T13:48:14Z</time>
      </trkpt>
      <trkpt lat="47.1491520" lon="6.7830700">
        <ele>945.0</ele>
        <time>2022-07-21T13:48:15Z</time>
      </trkpt>
      <trkpt lat="47.1491290" lon="6.7830050">
        <ele>944.9</ele>
        <time>2022-07-21T13:48:16Z</time>
      </trkpt>
      <trkpt lat="47.1491050" lon="6.7829460">
        <ele>944.9</ele>
        <time>2022-07-21T13:48:17Z</time>
      </trkpt>
      <trkpt lat="47.1490820" lon="6.7828940">
        <ele>944.8</ele>
        <time>2022-07-21T13:48:18Z</time>
      </trkpt>
      <trkpt lat="47.1490500" lon="6.7828430">
        <ele>944.8</ele>
        <time>2022-07-21T13:48:19Z</time>
      </trkpt>
      <trkpt lat="47.1490350" lon="6.7828200">
        <ele>944.7</ele>
        <time>2022-07-21T13:48:20Z</time>
      </trkpt>
      <trkpt lat="47.1490030" lon="6.7827770">
        <ele>944.7</ele>
        <time>2022-07-21T13:48:21Z</time>
      </trkpt>
      <trkpt lat="47.1489710" lon="6.7827380">
        <ele>944.6</ele>
        <time>2022-07-21T13:48:22Z</time>
      </trkpt>
      <trkpt lat="47.1489440" lon="6.7827030">
        <ele>944.5</ele>
        <time>2022-07-21T13:48:23Z</time>
      </trkpt>
      <trkpt lat="47.1489090" lon="6.7826540">
        <ele>944.4</ele>
        <time>2022-07-21T13:48:24Z</time>
      </trkpt>
      <trkpt lat="47.1488710" lon="6.7826010">
        <ele>944.2</ele>
        <time>2022-07-21T13:48:25Z</time>
      </trkpt>
      <trkpt lat="47.1488360" lon="6.7825450">
        <ele>944.1</ele>
        <time>2022-07-21T13:48:26Z</time>
      </trkpt>
      <trkpt lat="47.1488030" lon="6.7824820">
        <ele>943.8</ele>
        <time>2022-07-21T13:48:27Z</time>
      </trkpt>
      <trkpt lat="47.1487810" lon="6.7824170">
        <ele>943.7</ele>
        <time>2022-07-21T13:48:28Z</time>
      </trkpt>
      <trkpt lat="47.1487570" lon="6.7823560">
        <ele>943.6</ele>
        <time>2022-07-21T13:48:29Z</time>
      </trkpt>
      <trkpt lat="47.1487320" lon="6.7822940">
        <ele>943.5</ele>
        <time>2022-07-21T13:48:30Z</time>
      </trkpt>
      <trkpt lat="47.1487130" lon="6.7822300">
        <ele>943.4</ele>
        <time>2022-07-21T13:48:31Z</time>
      </trkpt>
      <trkpt lat="47.1486980" lon="6.7821650">
        <ele>943.3</ele>
        <time>2022-07-21T13:48:32Z</time>
      </trkpt>
      <trkpt lat="47.1486740" lon="6.7820900">
        <ele>943.1</ele>
        <time>2022-07-21T13:48:33Z</time>
      </trkpt>
      <trkpt lat="47.1486500" lon="6.7820170">
        <ele>943.0</ele>
        <time>2022-07-21T13:48:34Z</time>
      </trkpt>
      <trkpt lat="47.1486330" lon="6.7819580">
        <ele>942.9</ele>
        <time>2022-07-21T13:48:35Z</time>
      </trkpt>
      <trkpt lat="47.1486170" lon="6.7818940">
        <ele>942.9</ele>
        <time>2022-07-21T13:48:36Z</time>
      </trkpt>
      <trkpt lat="47.1485940" lon="6.7818240">
        <ele>942.8</ele>
        <time>2022-07-21T13:48:37Z</time>
      </trkpt>
      <trkpt lat="47.1485730" lon="6.7817600">
        <ele>942.7</ele>
        <time>2022-07-21T13:48:38Z</time>
      </trkpt>
      <trkpt lat="47.1485540" lon="6.7817040">
        <ele>942.7</ele>
        <time>2022-07-21T13:48:39Z</time>
      </trkpt>
      <trkpt lat="47.1485410" lon="6.7816670">
        <ele>942.7</ele>
        <time>2022-07-21T13:48:40Z</time>
      </trkpt>
      <trkpt lat="47.1485100" lon="6.7815910">
        <ele>942.7</ele>
        <time>2022-07-21T13:48:41Z</time>
      </trkpt>
      <trkpt lat="47.1484870" lon="6.7815410">
        <ele>942.7</ele>
        <time>2022-07-21T13:48:42Z</time>
      </trkpt>
      <trkpt lat="47.1484580" lon="6.7814670">
        <ele>942.7</ele>
        <time>2022-07-21T13:48:43Z</time>
      </trkpt>
      <trkpt lat="47.1484340" lon="6.7813910">
        <ele>942.7</ele>
        <time>2022-07-21T13:48:44Z</time>
      </trkpt>
      <trkpt lat="47.1484020" lon="6.7813250">
        <ele>942.8</ele>
        <time>2022-07-21T13:48:45Z</time>
      </trkpt>
      <trkpt lat="47.1483680" lon="6.7812840">
        <ele>942.8</ele>
        <time>2022-07-21T13:48:46Z</time>
      </trkpt>
      <trkpt lat="47.1483370" lon="6.7812360">
        <ele>942.8</ele>
        <time>2022-07-21T13:48:47Z</time>
      </trkpt>
      <trkpt lat="47.1483100" lon="6.7811790">
        <ele>942.9</ele>
        <time>2022-07-21T13:48:48Z</time>
      </trkpt>
      <trkpt lat="47.1482860" lon="6.7811280">
        <ele>942.9</ele>
        <time>2022-07-21T13:48:49Z</time>
      </trkpt>
      <trkpt lat="47.1482570" lon="6.7810680">
        <ele>943.0</ele>
        <time>2022-07-21T13:48:50Z</time>
      </trkpt>
      <trkpt lat="47.1482230" lon="6.7810200">
        <ele>943.0</ele>
        <time>2022-07-21T13:48:51Z</time>
      </trkpt>
      <trkpt lat="47.1481990" lon="6.7809760">
        <ele>943.0</ele>
        <time>2022-07-21T13:48:52Z</time>
      </trkpt>
      <trkpt lat="47.1481830" lon="6.7809280">
        <ele>943.1</ele>
        <time>2022-07-21T13:48:53Z</time>
      </trkpt>
      <trkpt lat="47.1481630" lon="6.7808950">
        <ele>943.1</ele>
        <time>2022-07-21T13:48:54Z</time>
      </trkpt>
      <trkpt lat="47.1481350" lon="6.7808460">
        <ele>943.1</ele>
        <time>2022-07-21T13:48:55Z</time>
      </trkpt>
      <trkpt lat="47.1481120" lon="6.7807930">
        <ele>943.2</ele>
        <time>2022-07-21T13:48:56Z</time>
      </trkpt>
      <trkpt lat="47.1480880" lon="6.7807400">
        <ele>943.2</ele>
        <time>2022-07-21T13:48:57Z</time>
      </trkpt>
      <trkpt lat="47.1480540" lon="6.7806870">
        <ele>943.3</ele>
        <time>2022-07-21T13:48:58Z</time>
      </trkpt>
      <trkpt lat="47.1480260" lon="6.7806470">
        <ele>943.3</ele>
        <time>2022-07-21T13:48:59Z</time>
      </trkpt>
      <trkpt lat="47.1479930" lon="6.7806000">
        <ele>943.4</ele>
        <time>2022-07-21T13:49:00Z</time>
      </trkpt>
      <trkpt lat="47.1479680" lon="6.7805640">
        <ele>943.4</ele>
        <time>2022-07-21T13:49:01Z</time>
      </trkpt>
      <trkpt lat="47.1479370" lon="6.7805080">
        <ele>943.5</ele>
        <time>2022-07-21T13:49:02Z</time>
      </trkpt>
      <trkpt lat="47.1479070" lon="6.7804560">
        <ele>943.5</ele>
        <time>2022-07-21T13:49:03Z</time>
      </trkpt>
      <trkpt lat="47.1478890" lon="6.7804160">
        <ele>943.5</ele>
        <time>2022-07-21T13:49:04Z</time>
      </trkpt>
      <trkpt lat="47.1478580" lon="6.7803640">
        <ele>943.6</ele>
        <time>2022-07-21T13:49:05Z</time>
      </trkpt>
      <trkpt lat="47.1478350" lon="6.7803220">
        <ele>943.7</ele>
        <time>2022-07-21T13:49:06Z</time>
      </trkpt>
      <trkpt lat="47.1478110" lon="6.7802810">
        <ele>943.7</ele>
        <time>2022-07-21T13:49:07Z</time>
      </trkpt>
      <trkpt lat="47.1477840" lon="6.7802360">
        <ele>943.7</ele>
        <time>2022-07-21T13:49:08Z</time>
      </trkpt>
      <trkpt lat="47.1477590" lon="6.7801910">
        <ele>943.8</ele>
        <time>2022-07-21T13:49:09Z</time>
      </trkpt>
      <trkpt lat="47.1477340" lon="6.7801450">
        <ele>943.8</ele>
        <time>2022-07-21T13:49:10Z</time>
      </trkpt>
      <trkpt lat="47.1477090" lon="6.7801010">
        <ele>943.8</ele>
        <time>2022-07-21T13:49:11Z</time>
      </trkpt>
      <trkpt lat="47.1476840" lon="6.7800590">
        <ele>943.8</ele>
        <time>2022-07-21T13:49:12Z</time>
      </trkpt>
      <trkpt lat="47.1476560" lon="6.7800140">
        <ele>943.8</ele>
        <time>2022-07-21T13:49:13Z</time>
      </trkpt>
      <trkpt lat="47.1476250" lon="6.7799680">
        <ele>943.8</ele>
        <time>2022-07-21T13:49:14Z</time>
      </trkpt>
      <trkpt lat="47.1475940" lon="6.7799190">
        <ele>943.8</ele>
        <time>2022-07-21T13:49:15Z</time>
      </trkpt>
      <trkpt lat="47.1475620" lon="6.7798670">
        <ele>943.8</ele>
        <time>2022-07-21T13:49:16Z</time>
      </trkpt>
      <trkpt lat="47.1475280" lon="6.7798170">
        <ele>943.8</ele>
        <time>2022-07-21T13:49:17Z</time>
      </trkpt>
      <trkpt lat="47.1474950" lon="6.7797670">
        <ele>943.8</ele>
        <time>2022-07-21T13:49:18Z</time>
      </trkpt>
      <trkpt lat="47.1474640" lon="6.7797120">
        <ele>943.8</ele>
        <time>2022-07-21T13:49:19Z</time>
      </trkpt>
      <trkpt lat="47.1474340" lon="6.7796580">
        <ele>943.8</ele>
        <time>2022-07-21T13:49:20Z</time>
      </trkpt>
      <trkpt lat="47.1474010" lon="6.7796030">
        <ele>943.8</ele>
        <time>2022-07-21T13:49:21Z</time>
      </trkpt>
      <trkpt lat="47.1473670" lon="6.7795540">
        <ele>943.8</ele>
        <time>2022-07-21T13:49:22Z</time>
      </trkpt>
      <trkpt lat="47.1473390" lon="6.7795030">
        <ele>943.8</ele>
        <time>2022-07-21T13:49:23Z</time>
      </trkpt>
      <trkpt lat="47.1473260" lon="6.7794640">
        <ele>943.9</ele>
        <time>2022-07-21T13:49:24Z</time>
      </trkpt>
      <trkpt lat="47.1473030" lon="6.7794100">
        <ele>943.9</ele>
        <time>2022-07-21T13:49:25Z</time>
      </trkpt>
      <trkpt lat="47.1472830" lon="6.7793710">
        <ele>943.9</ele>
        <time>2022-07-21T13:49:26Z</time>
      </trkpt>
      <trkpt lat="47.1472660" lon="6.7793320">
        <ele>944.0</ele>
        <time>2022-07-21T13:49:27Z</time>
      </trkpt>
      <trkpt lat="47.1472460" lon="6.7792830">
        <ele>944.0</ele>
        <time>2022-07-21T13:49:28Z</time>
      </trkpt>
      <trkpt lat="47.1472380" lon="6.7792700">
        <ele>944.0</ele>
        <time>2022-07-21T13:49:29Z</time>
      </trkpt>
      <trkpt lat="47.1472260" lon="6.7792490">
        <ele>944.1</ele>
        <time>2022-07-21T13:49:30Z</time>
      </trkpt>
      <trkpt lat="47.1472180" lon="6.7792330">
        <ele>944.1</ele>
        <time>2022-07-21T13:49:31Z</time>
      </trkpt>
      <trkpt lat="47.1472040" lon="6.7792170">
        <ele>944.1</ele>
        <time>2022-07-21T13:49:32Z</time>
      </trkpt>
      <trkpt lat="47.1471980" lon="6.7792110">
        <ele>944.1</ele>
        <time>2022-07-21T13:49:33Z</time>
      </trkpt>
      <trkpt lat="47.1471940" lon="6.7792080">
        <ele>944.1</ele>
        <time>2022-07-21T13:49:34Z</time>
      </trkpt>
      <trkpt lat="47.1471910" lon="6.7792060">
        <ele>944.1</ele>
        <time>2022-07-21T13:49:35Z</time>
      </trkpt>
      <trkpt lat="47.1471910" lon="6.7792090">
        <ele>944.1</ele>
        <time>2022-07-21T13:49:36Z</time>
      </trkpt>
      <trkpt lat="47.1471890" lon="6.7792060">
        <ele>944.1</ele>
        <time>2022-07-21T13:49:37Z</time>
      </trkpt>
      <trkpt lat="47.1471870" lon="6.7792020">
        <ele>944.1</ele>
        <time>2022-07-21T13:49:38Z</time>
      </trkpt>
      <trkpt lat="47.1471840" lon="6.7792000">
        <ele>944.1</ele>
        <time>2022-07-21T13:49:39Z</time>
      </trkpt>
      <trkpt lat="47.1471810" lon="6.7791970">
        <ele>944.1</ele>
        <time>2022-07-21T13:49:40Z</time>
      </trkpt>
      <trkpt lat="47.1471760" lon="6.7791950">
        <ele>944.1</ele>
        <time>2022-07-21T13:49:41Z</time>
      </trkpt>
      <trkpt lat="47.1471730" lon="6.7791940">
        <ele>944.1</ele>
        <time>2022-07-21T13:49:42Z</time>
      </trkpt>
      <trkpt lat="47.1471720" lon="6.7791940">
        <ele>944.1</ele>
        <time>2022-07-21T13:49:43Z</time>
      </trkpt>
      <trkpt lat="47.1471690" lon="6.7791830">
        <ele>944.1</ele>
        <time>2022-07-21T13:49:44Z</time>
      </trkpt>
      <trkpt lat="47.1471670" lon="6.7791720">
        <ele>944.1</ele>
        <time>2022-07-21T13:49:45Z</time>
      </trkpt>
      <trkpt lat="47.1471660" lon="6.7791510">
        <ele>944.1</ele>
        <time>2022-07-21T13:49:46Z</time>
      </trkpt>
      <trkpt lat="47.1471670" lon="6.7791390">
        <ele>944.1</ele>
        <time>2022-07-21T13:49:47Z</time>
      </trkpt>
      <trkpt lat="47.1471680" lon="6.7791330">
        <ele>944.1</ele>
        <time>2022-07-21T13:49:48Z</time>
      </trkpt>
      <trkpt lat="47.1471680" lon="6.7791310">
        <ele>944.1</ele>
        <time>2022-07-21T13:49:49Z</time>
      </trkpt>
      <trkpt lat="47.1471670" lon="6.7791290">
        <ele>944.1</ele>
        <time>2022-07-21T13:49:50Z</time>
      </trkpt>
      <trkpt lat="47.1471670" lon="6.7791270">
        <ele>944.1</ele>
        <time>2022-07-21T13:49:51Z</time>
      </trkpt>
      <trkpt lat="47.1471680" lon="6.7791280">
        <ele>944.0</ele>
        <time>2022-07-21T13:49:52Z</time>
      </trkpt>
      <trkpt lat="47.1471700" lon="6.7791310">
        <ele>944.0</ele>
        <time>2022-07-21T13:49:53Z</time>
      </trkpt>
      <trkpt lat="47.1471720" lon="6.7791340">
        <ele>944.0</ele>
        <time>2022-07-21T13:49:54Z</time>
      </trkpt>
      <trkpt lat="47.1471740" lon="6.7791350">
        <ele>944.0</ele>
        <time>2022-07-21T13:49:55Z</time>
      </trkpt>
      <trkpt lat="47.1471690" lon="6.7791170">
        <ele>944.0</ele>
        <time>2022-07-21T13:49:56Z</time>
      </trkpt>
      <trkpt lat="47.1471650" lon="6.7791020">
        <ele>944.0</ele>
        <time>2022-07-21T13:49:57Z</time>
      </trkpt>
      <trkpt lat="47.1471620" lon="6.7790900">
        <ele>944.0</ele>
        <time>2022-07-21T13:49:58Z</time>
      </trkpt>
      <trkpt lat="47.1471550" lon="6.7790720">
        <ele>943.9</ele>
        <time>2022-07-21T13:49:59Z</time>
      </trkpt>
      <trkpt lat="47.1471450" lon="6.7790540">
        <ele>943.9</ele>
        <time>2022-07-21T13:50:00Z</time>
      </trkpt>
      <trkpt lat="47.1471260" lon="6.7790180">
        <ele>943.8</ele>
        <time>2022-07-21T13:50:01Z</time>
      </trkpt>
      <trkpt lat="47.1471210" lon="6.7790060">
        <ele>943.8</ele>
        <time>2022-07-21T13:50:02Z</time>
      </trkpt>
      <trkpt lat="47.1471010" lon="6.7789630">
        <ele>943.6</ele>
        <time>2022-07-21T13:50:03Z</time>
      </trkpt>
      <trkpt lat="47.1470930" lon="6.7789480">
        <ele>943.6</ele>
        <time>2022-07-21T13:50:04Z</time>
      </trkpt>
      <trkpt lat="47.1470750" lon="6.7789120">
        <ele>943.5</ele>
        <time>2022-07-21T13:50:05Z</time>
      </trkpt>
      <trkpt lat="47.1470670" lon="6.7788980">
        <ele>943.4</ele>
        <time>2022-07-21T13:50:06Z</time>
      </trkpt>
      <trkpt lat="47.1470390" lon="6.7788530">
        <ele>943.3</ele>
        <time>2022-07-21T13:50:07Z</time>
      </trkpt>
      <trkpt lat="47.1470280" lon="6.7788360">
        <ele>943.2</ele>
        <time>2022-07-21T13:50:08Z</time>
      </trkpt>
      <trkpt lat="47.1470100" lon="6.7788060">
        <ele>943.1</ele>
        <time>2022-07-21T13:50:09Z</time>
      </trkpt>
      <trkpt lat="47.1469840" lon="6.7787640">
        <ele>942.9</ele>
        <time>2022-07-21T13:50:10Z</time>
      </trkpt>
      <trkpt lat="47.1469580" lon="6.7787210">
        <ele>942.8</ele>
        <time>2022-07-21T13:50:11Z</time>
      </trkpt>
      <trkpt lat="47.1469300" lon="6.7786770">
        <ele>942.6</ele>
        <time>2022-07-21T13:50:12Z</time>
      </trkpt>
      <trkpt lat="47.1469040" lon="6.7786370">
        <ele>942.5</ele>
        <time>2022-07-21T13:50:13Z</time>
      </trkpt>
      <trkpt lat="47.1468790" lon="6.7785940">
        <ele>942.3</ele>
        <time>2022-07-21T13:50:14Z</time>
      </trkpt>
      <trkpt lat="47.1468560" lon="6.7785490">
        <ele>942.2</ele>
        <time>2022-07-21T13:50:15Z</time>
      </trkpt>
      <trkpt lat="47.1468310" lon="6.7784930">
        <ele>942.1</ele>
        <time>2022-07-21T13:50:16Z</time>
      </trkpt>
      <trkpt lat="47.1468090" lon="6.7784450">
        <ele>942.1</ele>
        <time>2022-07-21T13:50:17Z</time>
      </trkpt>
      <trkpt lat="47.1467830" lon="6.7783940">
        <ele>942.1</ele>
        <time>2022-07-21T13:50:18Z</time>
      </trkpt>
      <trkpt lat="47.1467610" lon="6.7783500">
        <ele>942.1</ele>
        <time>2022-07-21T13:50:19Z</time>
      </trkpt>
      <trkpt lat="47.1467400" lon="6.7783100">
        <ele>942.1</ele>
        <time>2022-07-21T13:50:20Z</time>
      </trkpt>
      <trkpt lat="47.1467170" lon="6.7782670">
        <ele>942.2</ele>
        <time>2022-07-21T13:50:21Z</time>
      </trkpt>
      <trkpt lat="47.1466980" lon="6.7782330">
        <ele>942.3</ele>
        <time>2022-07-21T13:50:22Z</time>
      </trkpt>
      <trkpt lat="47.1466740" lon="6.7781940">
        <ele>942.4</ele>
        <time>2022-07-21T13:50:23Z</time>
      </trkpt>
      <trkpt lat="47.1466500" lon="6.7781450">
        <ele>942.5</ele>
        <time>2022-07-21T13:50:24Z</time>
      </trkpt>
      <trkpt lat="47.1466410" lon="6.7781260">
        <ele>942.6</ele>
        <time>2022-07-21T13:50:25Z</time>
      </trkpt>
      <trkpt lat="47.1466240" lon="6.7780860">
        <ele>942.7</ele>
        <time>2022-07-21T13:50:26Z</time>
      </trkpt>
      <trkpt lat="47.1466180" lon="6.7780730">
        <ele>942.8</ele>
        <time>2022-07-21T13:50:27Z</time>
      </trkpt>
      <trkpt lat="47.1465940" lon="6.7780320">
        <ele>942.9</ele>
        <time>2022-07-21T13:50:28Z</time>
      </trkpt>
      <trkpt lat="47.1465870" lon="6.7780210">
        <ele>943.0</ele>
        <time>2022-07-21T13:50:29Z</time>
      </trkpt>
      <trkpt lat="47.1465620" lon="6.7779840">
        <ele>943.1</ele>
        <time>2022-07-21T13:50:30Z</time>
      </trkpt>
      <trkpt lat="47.1465530" lon="6.7779720">
        <ele>943.1</ele>
        <time>2022-07-21T13:50:31Z</time>
      </trkpt>
      <trkpt lat="47.1465270" lon="6.7779350">
        <ele>943.3</ele>
        <time>2022-07-21T13:50:32Z</time>
      </trkpt>
      <trkpt lat="47.1465200" lon="6.7779250">
        <ele>943.3</ele>
        <time>2022-07-21T13:50:33Z</time>
      </trkpt>
      <trkpt lat="47.1464970" lon="6.7778890">
        <ele>943.4</ele>
        <time>2022-07-21T13:50:34Z</time>
      </trkpt>
      <trkpt lat="47.1464890" lon="6.7778760">
        <ele>943.4</ele>
        <time>2022-07-21T13:50:35Z</time>
      </trkpt>
      <trkpt lat="47.1464650" lon="6.7778360">
        <ele>943.5</ele>
        <time>2022-07-21T13:50:36Z</time>
      </trkpt>
      <trkpt lat="47.1464570" lon="6.7778240">
        <ele>943.5</ele>
        <time>2022-07-21T13:50:37Z</time>
      </trkpt>
      <trkpt lat="47.1464320" lon="6.7777900">
        <ele>943.6</ele>
        <time>2022-07-21T13:50:38Z</time>
      </trkpt>
      <trkpt lat="47.1464220" lon="6.7777770">
        <ele>943.6</ele>
        <time>2022-07-21T13:50:39Z</time>
      </trkpt>
      <trkpt lat="47.1464010" lon="6.7777460">
        <ele>943.6</ele>
        <time>2022-07-21T13:50:40Z</time>
      </trkpt>
      <trkpt lat="47.1463780" lon="6.7777090">
        <ele>943.6</ele>
        <time>2022-07-21T13:50:41Z</time>
      </trkpt>
      <trkpt lat="47.1463720" lon="6.7776980">
        <ele>943.6</ele>
        <time>2022-07-21T13:50:42Z</time>
      </trkpt>
      <trkpt lat="47.1463540" lon="6.7776670">
        <ele>943.6</ele>
        <time>2022-07-21T13:50:43Z</time>
      </trkpt>
      <trkpt lat="47.1463310" lon="6.7776310">
        <ele>943.6</ele>
        <time>2022-07-21T13:50:44Z</time>
      </trkpt>
      <trkpt lat="47.1463220" lon="6.7776190">
        <ele>943.6</ele>
        <time>2022-07-21T13:50:45Z</time>
      </trkpt>
      <trkpt lat="47.1462990" lon="6.7775890">
        <ele>943.6</ele>
        <time>2022-07-21T13:50:46Z</time>
      </trkpt>
      <trkpt lat="47.1462770" lon="6.7775640">
        <ele>943.5</ele>
        <time>2022-07-21T13:50:47Z</time>
      </trkpt>
      <trkpt lat="47.1462470" lon="6.7775250">
        <ele>943.5</ele>
        <time>2022-07-21T13:50:48Z</time>
      </trkpt>
      <trkpt lat="47.1462350" lon="6.7775080">
        <ele>943.5</ele>
        <time>2022-07-21T13:50:49Z</time>
      </trkpt>
      <trkpt lat="47.1462160" lon="6.7774770">
        <ele>943.4</ele>
        <time>2022-07-21T13:50:50Z</time>
      </trkpt>
      <trkpt lat="47.1461920" lon="6.7774340">
        <ele>943.4</ele>
        <time>2022-07-21T13:50:51Z</time>
      </trkpt>
      <trkpt lat="47.1461830" lon="6.7774190">
        <ele>943.4</ele>
        <time>2022-07-21T13:50:52Z</time>
      </trkpt>
      <trkpt lat="47.1461630" lon="6.7773850">
        <ele>943.3</ele>
        <time>2022-07-21T13:50:53Z</time>
      </trkpt>
      <trkpt lat="47.1461360" lon="6.7773460">
        <ele>943.3</ele>
        <time>2022-07-21T13:50:54Z</time>
      </trkpt>
      <trkpt lat="47.1461240" lon="6.7773320">
        <ele>943.2</ele>
        <time>2022-07-21T13:50:55Z</time>
      </trkpt>
      <trkpt lat="47.1461020" lon="6.7773030">
        <ele>943.2</ele>
        <time>2022-07-21T13:50:56Z</time>
      </trkpt>
      <trkpt lat="47.1460820" lon="6.7772730">
        <ele>943.1</ele>
        <time>2022-07-21T13:50:57Z</time>
      </trkpt>
      <trkpt lat="47.1460590" lon="6.7772330">
        <ele>943.1</ele>
        <time>2022-07-21T13:50:58Z</time>
      </trkpt>
      <trkpt lat="47.1460370" lon="6.7771920">
        <ele>943.0</ele>
        <time>2022-07-21T13:50:59Z</time>
      </trkpt>
      <trkpt lat="47.1460130" lon="6.7771560">
        <ele>943.0</ele>
        <time>2022-07-21T13:51:00Z</time>
      </trkpt>
      <trkpt lat="47.1459890" lon="6.7771180">
        <ele>942.9</ele>
        <time>2022-07-21T13:51:01Z</time>
      </trkpt>
      <trkpt lat="47.1459610" lon="6.7770770">
        <ele>942.8</ele>
        <time>2022-07-21T13:51:02Z</time>
      </trkpt>
      <trkpt lat="47.1459340" lon="6.7770360">
        <ele>942.8</ele>
        <time>2022-07-21T13:51:03Z</time>
      </trkpt>
      <trkpt lat="47.1459100" lon="6.7769990">
        <ele>942.7</ele>
        <time>2022-07-21T13:51:04Z</time>
      </trkpt>
      <trkpt lat="47.1458870" lon="6.7769650">
        <ele>942.6</ele>
        <time>2022-07-21T13:51:05Z</time>
      </trkpt>
      <trkpt lat="47.1458590" lon="6.7769280">
        <ele>942.5</ele>
        <time>2022-07-21T13:51:06Z</time>
      </trkpt>
      <trkpt lat="47.1458290" lon="6.7768950">
        <ele>942.4</ele>
        <time>2022-07-21T13:51:07Z</time>
      </trkpt>
      <trkpt lat="47.1458020" lon="6.7768650">
        <ele>942.4</ele>
        <time>2022-07-21T13:51:08Z</time>
      </trkpt>
      <trkpt lat="47.1457800" lon="6.7768380">
        <ele>942.3</ele>
        <time>2022-07-21T13:51:09Z</time>
      </trkpt>
      <trkpt lat="47.1457560" lon="6.7768060">
        <ele>942.3</ele>
        <time>2022-07-21T13:51:10Z</time>
      </trkpt>
      <trkpt lat="47.1457290" lon="6.7767680">
        <ele>942.3</ele>
        <time>2022-07-21T13:51:11Z</time>
      </trkpt>
      <trkpt lat="47.1457020" lon="6.7767360">
        <ele>942.2</ele>
        <time>2022-07-21T13:51:12Z</time>
      </trkpt>
      <trkpt lat="47.1456730" lon="6.7767070">
        <ele>942.2</ele>
        <time>2022-07-21T13:51:13Z</time>
      </trkpt>
      <trkpt lat="47.1456460" lon="6.7766840">
        <ele>942.1</ele>
        <time>2022-07-21T13:51:14Z</time>
      </trkpt>
      <trkpt lat="47.1456190" lon="6.7766610">
        <ele>942.1</ele>
        <time>2022-07-21T13:51:15Z</time>
      </trkpt>
      <trkpt lat="47.1455930" lon="6.7766340">
        <ele>942.1</ele>
        <time>2022-07-21T13:51:16Z</time>
      </trkpt>
      <trkpt lat="47.1455860" lon="6.7766250">
        <ele>942.1</ele>
        <time>2022-07-21T13:51:17Z</time>
      </trkpt>
      <trkpt lat="47.1455760" lon="6.7766090">
        <ele>942.1</ele>
        <time>2022-07-21T13:51:18Z</time>
      </trkpt>
      <trkpt lat="47.1455730" lon="6.7766000">
        <ele>942.1</ele>
        <time>2022-07-21T13:51:19Z</time>
      </trkpt>
      <trkpt lat="47.1455720" lon="6.7765950">
        <ele>942.1</ele>
        <time>2022-07-21T13:51:20Z</time>
      </trkpt>
      <trkpt lat="47.1455700" lon="6.7765900">
        <ele>942.1</ele>
        <time>2022-07-21T13:51:21Z</time>
      </trkpt>
      <trkpt lat="47.1455680" lon="6.7765850">
        <ele>942.1</ele>
        <time>2022-07-21T13:51:22Z</time>
      </trkpt>
      <trkpt lat="47.1455680" lon="6.7765840">
        <ele>942.1</ele>
        <time>2022-07-21T13:51:23Z</time>
      </trkpt>
      <trkpt lat="47.1455690" lon="6.7765840">
        <ele>942.1</ele>
        <time>2022-07-21T13:51:24Z</time>
      </trkpt>
      <trkpt lat="47.1455700" lon="6.7765860">
        <ele>942.1</ele>
        <time>2022-07-21T13:51:25Z</time>
      </trkpt>
      <trkpt lat="47.1455680" lon="6.7765840">
        <ele>942.1</ele>
        <time>2022-07-21T13:51:26Z</time>
      </trkpt>
      <trkpt lat="47.1455650" lon="6.7765750">
        <ele>942.1</ele>
        <time>2022-07-21T13:51:27Z</time>
      </trkpt>
      <trkpt lat="47.1455640" lon="6.7765560">
        <ele>942.0</ele>
        <time>2022-07-21T13:51:28Z</time>
      </trkpt>
      <trkpt lat="47.1455620" lon="6.7765430">
        <ele>942.0</ele>
        <time>2022-07-21T13:51:29Z</time>
      </trkpt>
      <trkpt lat="47.1455590" lon="6.7765280">
        <ele>942.0</ele>
        <time>2022-07-21T13:51:30Z</time>
      </trkpt>
      <trkpt lat="47.1455570" lon="6.7765230">
        <ele>942.0</ele>
        <time>2022-07-21T13:51:31Z</time>
      </trkpt>
      <trkpt lat="47.1455560" lon="6.7765190">
        <ele>942.0</ele>
        <time>2022-07-21T13:51:32Z</time>
      </trkpt>
      <trkpt lat="47.1455540" lon="6.7765150">
        <ele>942.0</ele>
        <time>2022-07-21T13:51:33Z</time>
      </trkpt>
      <trkpt lat="47.1455530" lon="6.7765100">
        <ele>942.0</ele>
        <time>2022-07-21T13:51:34Z</time>
      </trkpt>
      <trkpt lat="47.1455510" lon="6.7765060">
        <ele>942.0</ele>
        <time>2022-07-21T13:51:35Z</time>
      </trkpt>
      <trkpt lat="47.1455490" lon="6.7765020">
        <ele>942.0</ele>
        <time>2022-07-21T13:51:36Z</time>
      </trkpt>
      <trkpt lat="47.1455480" lon="6.7764970">
        <ele>942.0</ele>
        <time>2022-07-21T13:51:37Z</time>
      </trkpt>
      <trkpt lat="47.1455460" lon="6.7764930">
        <ele>942.0</ele>
        <time>2022-07-21T13:51:38Z</time>
      </trkpt>
      <trkpt lat="47.1455380" lon="6.7764740">
        <ele>941.9</ele>
        <time>2022-07-21T13:51:39Z</time>
      </trkpt>
      <trkpt lat="47.1455260" lon="6.7764570">
        <ele>941.9</ele>
        <time>2022-07-21T13:51:40Z</time>
      </trkpt>
      <trkpt lat="47.1455070" lon="6.7764180">
        <ele>941.8</ele>
        <time>2022-07-21T13:51:41Z</time>
      </trkpt>
      <trkpt lat="47.1454990" lon="6.7764000">
        <ele>941.8</ele>
        <time>2022-07-21T13:51:42Z</time>
      </trkpt>
      <trkpt lat="47.1454830" lon="6.7763600">
        <ele>941.7</ele>
        <time>2022-07-21T13:51:43Z</time>
      </trkpt>
      <trkpt lat="47.1454690" lon="6.7763200">
        <ele>941.7</ele>
        <time>2022-07-21T13:51:44Z</time>
      </trkpt>
      <trkpt lat="47.1454570" lon="6.7762810">
        <ele>941.6</ele>
        <time>2022-07-21T13:51:45Z</time>
      </trkpt>
      <trkpt lat="47.1454420" lon="6.7762300">
        <ele>941.5</ele>
        <time>2022-07-21T13:51:47Z</time>
      </trkpt>
      <trkpt lat="47.1454240" lon="6.7761770">
        <ele>941.5</ele>
        <time>2022-07-21T13:51:48Z</time>
      </trkpt>
      <trkpt lat="47.1454160" lon="6.7761590">
        <ele>941.4</ele>
        <time>2022-07-21T13:51:49Z</time>
      </trkpt>
      <trkpt lat="47.1454010" lon="6.7761140">
        <ele>941.4</ele>
        <time>2022-07-21T13:51:50Z</time>
      </trkpt>
      <trkpt lat="47.1453900" lon="6.7760720">
        <ele>941.3</ele>
        <time>2022-07-21T13:51:51Z</time>
      </trkpt>
      <trkpt lat="47.1453790" lon="6.7760270">
        <ele>941.2</ele>
        <time>2022-07-21T13:51:52Z</time>
      </trkpt>
      <trkpt lat="47.1453690" lon="6.7759580">
        <ele>941.1</ele>
        <time>2022-07-21T13:51:53Z</time>
      </trkpt>
      <trkpt lat="47.1453560" lon="6.7758840">
        <ele>940.9</ele>
        <time>2022-07-21T13:51:55Z</time>
      </trkpt>
      <trkpt lat="47.1453480" lon="6.7758400">
        <ele>940.9</ele>
        <time>2022-07-21T13:51:56Z</time>
      </trkpt>
      <trkpt lat="47.1453390" lon="6.7757900">
        <ele>940.8</ele>
        <time>2022-07-21T13:51:57Z</time>
      </trkpt>
      <trkpt lat="47.1453280" lon="6.7757360">
        <ele>940.7</ele>
        <time>2022-07-21T13:51:58Z</time>
      </trkpt>
      <trkpt lat="47.1453160" lon="6.7756720">
        <ele>940.6</ele>
        <time>2022-07-21T13:51:59Z</time>
      </trkpt>
      <trkpt lat="47.1453010" lon="6.7756130">
        <ele>940.5</ele>
        <time>2022-07-21T13:52:00Z</time>
      </trkpt>
      <trkpt lat="47.1452850" lon="6.7755500">
        <ele>940.4</ele>
        <time>2022-07-21T13:52:02Z</time>
      </trkpt>
      <trkpt lat="47.1452720" lon="6.7754790">
        <ele>940.3</ele>
        <time>2022-07-21T13:52:03Z</time>
      </trkpt>
      <trkpt lat="47.1452620" lon="6.7754160">
        <ele>940.2</ele>
        <time>2022-07-21T13:52:04Z</time>
      </trkpt>
      <trkpt lat="47.1452500" lon="6.7753590">
        <ele>940.2</ele>
        <time>2022-07-21T13:52:05Z</time>
      </trkpt>
      <trkpt lat="47.1452360" lon="6.7752900">
        <ele>940.1</ele>
        <time>2022-07-21T13:52:06Z</time>
      </trkpt>
      <trkpt lat="47.1452230" lon="6.7752210">
        <ele>940.1</ele>
        <time>2022-07-21T13:52:08Z</time>
      </trkpt>
      <trkpt lat="47.1452100" lon="6.7751540">
        <ele>940.0</ele>
        <time>2022-07-21T13:52:09Z</time>
      </trkpt>
      <trkpt lat="47.1451970" lon="6.7751030">
        <ele>940.0</ele>
        <time>2022-07-21T13:52:10Z</time>
      </trkpt>
      <trkpt lat="47.1451820" lon="6.7750500">
        <ele>939.9</ele>
        <time>2022-07-21T13:52:11Z</time>
      </trkpt>
      <trkpt lat="47.1451630" lon="6.7749810">
        <ele>939.9</ele>
        <time>2022-07-21T13:52:13Z</time>
      </trkpt>
      <trkpt lat="47.1451470" lon="6.7749150">
        <ele>939.9</ele>
        <time>2022-07-21T13:52:14Z</time>
      </trkpt>
      <trkpt lat="47.1451370" lon="6.7748690">
        <ele>939.8</ele>
        <time>2022-07-21T13:52:15Z</time>
      </trkpt>
      <trkpt lat="47.1451250" lon="6.7748190">
        <ele>939.8</ele>
        <time>2022-07-21T13:52:17Z</time>
      </trkpt>
      <trkpt lat="47.1451110" lon="6.7747640">
        <ele>939.8</ele>
        <time>2022-07-21T13:52:18Z</time>
      </trkpt>
      <trkpt lat="47.1450960" lon="6.7747080">
        <ele>939.8</ele>
        <time>2022-07-21T13:52:19Z</time>
      </trkpt>
      <trkpt lat="47.1450820" lon="6.7746570">
        <ele>939.8</ele>
        <time>2022-07-21T13:52:20Z</time>
      </trkpt>
      <trkpt lat="47.1450670" lon="6.7746010">
        <ele>939.8</ele>
        <time>2022-07-21T13:52:21Z</time>
      </trkpt>
      <trkpt lat="47.1450470" lon="6.7745290">
        <ele>939.8</ele>
        <time>2022-07-21T13:52:23Z</time>
      </trkpt>
      <trkpt lat="47.1450350" lon="6.7744710">
        <ele>939.8</ele>
        <time>2022-07-21T13:52:24Z</time>
      </trkpt>
      <trkpt lat="47.1450240" lon="6.7744150">
        <ele>939.8</ele>
        <time>2022-07-21T13:52:25Z</time>
      </trkpt>
      <trkpt lat="47.1450060" lon="6.7743510">
        <ele>939.8</ele>
        <time>2022-07-21T13:52:27Z</time>
      </trkpt>
      <trkpt lat="47.1449920" lon="6.7742920">
        <ele>939.8</ele>
        <time>2022-07-21T13:52:28Z</time>
      </trkpt>
      <trkpt lat="47.1449790" lon="6.7742470">
        <ele>939.9</ele>
        <time>2022-07-21T13:52:29Z</time>
      </trkpt>
      <trkpt lat="47.1449670" lon="6.7742060">
        <ele>939.9</ele>
        <time>2022-07-21T13:52:30Z</time>
      </trkpt>
      <trkpt lat="47.1449550" lon="6.7741550">
        <ele>940.0</ele>
        <time>2022-07-21T13:52:31Z</time>
      </trkpt>
      <trkpt lat="47.1449390" lon="6.7741020">
        <ele>940.0</ele>
        <time>2022-07-21T13:52:32Z</time>
      </trkpt>
      <trkpt lat="47.1449140" lon="6.7740440">
        <ele>940.1</ele>
        <time>2022-07-21T13:52:34Z</time>
      </trkpt>
      <trkpt lat="47.1449010" lon="6.7740030">
        <ele>940.2</ele>
        <time>2022-07-21T13:52:35Z</time>
      </trkpt>
      <trkpt lat="47.1448980" lon="6.7739910">
        <ele>940.2</ele>
        <time>2022-07-21T13:52:36Z</time>
      </trkpt>
      <trkpt lat="47.1448810" lon="6.7739330">
        <ele>940.2</ele>
        <time>2022-07-21T13:52:37Z</time>
      </trkpt>
      <trkpt lat="47.1448730" lon="6.7739090">
        <ele>940.3</ele>
        <time>2022-07-21T13:52:38Z</time>
      </trkpt>
      <trkpt lat="47.1448640" lon="6.7738700">
        <ele>940.3</ele>
        <time>2022-07-21T13:52:39Z</time>
      </trkpt>
      <trkpt lat="47.1448520" lon="6.7738280">
        <ele>940.4</ele>
        <time>2022-07-21T13:52:41Z</time>
      </trkpt>
      <trkpt lat="47.1448390" lon="6.7737840">
        <ele>940.4</ele>
        <time>2022-07-21T13:52:42Z</time>
      </trkpt>
      <trkpt lat="47.1448260" lon="6.7737470">
        <ele>940.5</ele>
        <time>2022-07-21T13:52:44Z</time>
      </trkpt>
      <trkpt lat="47.1448130" lon="6.7737080">
        <ele>940.5</ele>
        <time>2022-07-21T13:52:45Z</time>
      </trkpt>
      <trkpt lat="47.1447970" lon="6.7736690">
        <ele>940.6</ele>
        <time>2022-07-21T13:52:46Z</time>
      </trkpt>
      <trkpt lat="47.1447830" lon="6.7736310">
        <ele>940.6</ele>
        <time>2022-07-21T13:52:47Z</time>
      </trkpt>
      <trkpt lat="47.1447670" lon="6.7735870">
        <ele>940.6</ele>
        <time>2022-07-21T13:52:49Z</time>
      </trkpt>
      <trkpt lat="47.1447510" lon="6.7735400">
        <ele>940.7</ele>
        <time>2022-07-21T13:52:50Z</time>
      </trkpt>
      <trkpt lat="47.1447360" lon="6.7734880">
        <ele>940.7</ele>
        <time>2022-07-21T13:52:51Z</time>
      </trkpt>
      <trkpt lat="47.1447300" lon="6.7734660">
        <ele>940.8</ele>
        <time>2022-07-21T13:52:52Z</time>
      </trkpt>
      <trkpt lat="47.1447190" lon="6.7734310">
        <ele>940.8</ele>
        <time>2022-07-21T13:52:53Z</time>
      </trkpt>
      <trkpt lat="47.1447080" lon="6.7733920">
        <ele>940.8</ele>
        <time>2022-07-21T13:52:55Z</time>
      </trkpt>
      <trkpt lat="47.1446930" lon="6.7733220">
        <ele>940.9</ele>
        <time>2022-07-21T13:52:56Z</time>
      </trkpt>
      <trkpt lat="47.1446820" lon="6.7732800">
        <ele>940.9</ele>
        <time>2022-07-21T13:52:57Z</time>
      </trkpt>
      <trkpt lat="47.1446660" lon="6.7732250">
        <ele>940.9</ele>
        <time>2022-07-21T13:52:59Z</time>
      </trkpt>
      <trkpt lat="47.1446500" lon="6.7731740">
        <ele>940.9</ele>
        <time>2022-07-21T13:53:00Z</time>
      </trkpt>
      <trkpt lat="47.1446310" lon="6.7731150">
        <ele>940.8</ele>
        <time>2022-07-21T13:53:01Z</time>
      </trkpt>
      <trkpt lat="47.1446130" lon="6.7730620">
        <ele>940.8</ele>
        <time>2022-07-21T13:53:03Z</time>
      </trkpt>
      <trkpt lat="47.1446000" lon="6.7730220">
        <ele>940.8</ele>
        <time>2022-07-21T13:53:04Z</time>
      </trkpt>
      <trkpt lat="47.1445900" lon="6.7729840">
        <ele>940.8</ele>
        <time>2022-07-21T13:53:05Z</time>
      </trkpt>
      <trkpt lat="47.1445750" lon="6.7729310">
        <ele>940.9</ele>
        <time>2022-07-21T13:53:06Z</time>
      </trkpt>
      <trkpt lat="47.1445700" lon="6.7729120">
        <ele>940.9</ele>
        <time>2022-07-21T13:53:07Z</time>
      </trkpt>
      <trkpt lat="47.1445470" lon="6.7728580">
        <ele>940.9</ele>
        <time>2022-07-21T13:53:08Z</time>
      </trkpt>
      <trkpt lat="47.1445380" lon="6.7728350">
        <ele>940.9</ele>
        <time>2022-07-21T13:53:09Z</time>
      </trkpt>
      <trkpt lat="47.1445150" lon="6.7727840">
        <ele>940.9</ele>
        <time>2022-07-21T13:53:11Z</time>
      </trkpt>
      <trkpt lat="47.1444980" lon="6.7727410">
        <ele>941.0</ele>
        <time>2022-07-21T13:53:12Z</time>
      </trkpt>
      <trkpt lat="47.1444850" lon="6.7727030">
        <ele>941.0</ele>
        <time>2022-07-21T13:53:13Z</time>
      </trkpt>
      <trkpt lat="47.1444730" lon="6.7726610">
        <ele>941.0</ele>
        <time>2022-07-21T13:53:15Z</time>
      </trkpt>
      <trkpt lat="47.1444610" lon="6.7726160">
        <ele>941.1</ele>
        <time>2022-07-21T13:53:16Z</time>
      </trkpt>
      <trkpt lat="47.1444510" lon="6.7725780">
        <ele>941.1</ele>
        <time>2022-07-21T13:53:17Z</time>
      </trkpt>
      <trkpt lat="47.1444400" lon="6.7725270">
        <ele>941.2</ele>
        <time>2022-07-21T13:53:18Z</time>
      </trkpt>
      <trkpt lat="47.1444360" lon="6.7725130">
        <ele>941.2</ele>
        <time>2022-07-21T13:53:19Z</time>
      </trkpt>
      <trkpt lat="47.1444250" lon="6.7724690">
        <ele>941.3</ele>
        <time>2022-07-21T13:53:20Z</time>
      </trkpt>
      <trkpt lat="47.1444210" lon="6.7724550">
        <ele>941.3</ele>
        <time>2022-07-21T13:53:21Z</time>
      </trkpt>
      <trkpt lat="47.1444170" lon="6.7724480">
        <ele>941.3</ele>
        <time>2022-07-21T13:53:22Z</time>
      </trkpt>
      <trkpt lat="47.1444250" lon="6.7724600">
        <ele>941.3</ele>
        <time>2022-07-21T13:53:23Z</time>
      </trkpt>
      <trkpt lat="47.1444280" lon="6.7724610">
        <ele>941.4</ele>
        <time>2022-07-21T13:53:24Z</time>
      </trkpt>
      <trkpt lat="47.1444290" lon="6.7724550">
        <ele>941.4</ele>
        <time>2022-07-21T13:53:26Z</time>
      </trkpt>
      <trkpt lat="47.1444280" lon="6.7724580">
        <ele>941.4</ele>
        <time>2022-07-21T13:53:27Z</time>
      </trkpt>
      <trkpt lat="47.1444270" lon="6.7724590">
        <ele>941.4</ele>
        <time>2022-07-21T13:53:28Z</time>
      </trkpt>
      <trkpt lat="47.1444260" lon="6.7724570">
        <ele>941.4</ele>
        <time>2022-07-21T13:53:29Z</time>
      </trkpt>
      <trkpt lat="47.1444230" lon="6.7724510">
        <ele>941.4</ele>
        <time>2022-07-21T13:53:30Z</time>
      </trkpt>
      <trkpt lat="47.1444160" lon="6.7724400">
        <ele>941.4</ele>
        <time>2022-07-21T13:53:31Z</time>
      </trkpt>
      <trkpt lat="47.1444130" lon="6.7724360">
        <ele>941.4</ele>
        <time>2022-07-21T13:53:32Z</time>
      </trkpt>
      <trkpt lat="47.1444120" lon="6.7724360">
        <ele>941.4</ele>
        <time>2022-07-21T13:53:33Z</time>
      </trkpt>
      <trkpt lat="47.1444120" lon="6.7724360">
        <ele>941.4</ele>
        <time>2022-07-21T13:53:34Z</time>
      </trkpt>
      <trkpt lat="47.1444100" lon="6.7724320">
        <ele>941.4</ele>
        <time>2022-07-21T13:53:35Z</time>
      </trkpt>
      <trkpt lat="47.1444040" lon="6.7724170">
        <ele>941.4</ele>
        <time>2022-07-21T13:53:36Z</time>
      </trkpt>
      <trkpt lat="47.1443890" lon="6.7723790">
        <ele>941.5</ele>
        <time>2022-07-21T13:53:37Z</time>
      </trkpt>
      <trkpt lat="47.1443820" lon="6.7723610">
        <ele>941.5</ele>
        <time>2022-07-21T13:53:38Z</time>
      </trkpt>
      <trkpt lat="47.1443660" lon="6.7723170">
        <ele>941.5</ele>
        <time>2022-07-21T13:53:39Z</time>
      </trkpt>
      <trkpt lat="47.1443610" lon="6.7723040">
        <ele>941.6</ele>
        <time>2022-07-21T13:53:40Z</time>
      </trkpt>
      <trkpt lat="47.1443430" lon="6.7722550">
        <ele>941.6</ele>
        <time>2022-07-21T13:53:41Z</time>
      </trkpt>
      <trkpt lat="47.1443360" lon="6.7722370">
        <ele>941.6</ele>
        <time>2022-07-21T13:53:42Z</time>
      </trkpt>
      <trkpt lat="47.1443220" lon="6.7721950">
        <ele>941.6</ele>
        <time>2022-07-21T13:53:43Z</time>
      </trkpt>
      <trkpt lat="47.1443170" lon="6.7721810">
        <ele>941.6</ele>
        <time>2022-07-21T13:53:44Z</time>
      </trkpt>
      <trkpt lat="47.1443020" lon="6.7721370">
        <ele>941.7</ele>
        <time>2022-07-21T13:53:45Z</time>
      </trkpt>
      <trkpt lat="47.1442970" lon="6.7721240">
        <ele>941.7</ele>
        <time>2022-07-21T13:53:46Z</time>
      </trkpt>
      <trkpt lat="47.1442800" lon="6.7720710">
        <ele>941.7</ele>
        <time>2022-07-21T13:53:47Z</time>
      </trkpt>
      <trkpt lat="47.1442740" lon="6.7720530">
        <ele>941.7</ele>
        <time>2022-07-21T13:53:48Z</time>
      </trkpt>
      <trkpt lat="47.1442630" lon="6.7720170">
        <ele>941.8</ele>
        <time>2022-07-21T13:53:49Z</time>
      </trkpt>
      <trkpt lat="47.1442470" lon="6.7719660">
        <ele>941.8</ele>
        <time>2022-07-21T13:53:50Z</time>
      </trkpt>
      <trkpt lat="47.1442400" lon="6.7719470">
        <ele>941.8</ele>
        <time>2022-07-21T13:53:51Z</time>
      </trkpt>
      <trkpt lat="47.1442250" lon="6.7718980">
        <ele>941.8</ele>
        <time>2022-07-21T13:53:52Z</time>
      </trkpt>
      <trkpt lat="47.1442200" lon="6.7718820">
        <ele>941.8</ele>
        <time>2022-07-21T13:53:53Z</time>
      </trkpt>
      <trkpt lat="47.1442080" lon="6.7718400">
        <ele>941.8</ele>
        <time>2022-07-21T13:53:54Z</time>
      </trkpt>
      <trkpt lat="47.1441970" lon="6.7718030">
        <ele>941.8</ele>
        <time>2022-07-21T13:53:55Z</time>
      </trkpt>
      <trkpt lat="47.1441820" lon="6.7717580">
        <ele>941.8</ele>
        <time>2022-07-21T13:53:56Z</time>
      </trkpt>
      <trkpt lat="47.1441670" lon="6.7717060">
        <ele>941.8</ele>
        <time>2022-07-21T13:53:57Z</time>
      </trkpt>
      <trkpt lat="47.1441620" lon="6.7716880">
        <ele>941.8</ele>
        <time>2022-07-21T13:53:58Z</time>
      </trkpt>
      <trkpt lat="47.1441490" lon="6.7716460">
        <ele>941.8</ele>
        <time>2022-07-21T13:53:59Z</time>
      </trkpt>
      <trkpt lat="47.1441370" lon="6.7716090">
        <ele>941.8</ele>
        <time>2022-07-21T13:54:00Z</time>
      </trkpt>
      <trkpt lat="47.1441230" lon="6.7715630">
        <ele>941.8</ele>
        <time>2022-07-21T13:54:01Z</time>
      </trkpt>
      <trkpt lat="47.1441180" lon="6.7715480">
        <ele>941.8</ele>
        <time>2022-07-21T13:54:02Z</time>
      </trkpt>
      <trkpt lat="47.1441050" lon="6.7715010">
        <ele>941.8</ele>
        <time>2022-07-21T13:54:03Z</time>
      </trkpt>
      <trkpt lat="47.1441000" lon="6.7714850">
        <ele>941.8</ele>
        <time>2022-07-21T13:54:04Z</time>
      </trkpt>
      <trkpt lat="47.1440860" lon="6.7714410">
        <ele>941.8</ele>
        <time>2022-07-21T13:54:05Z</time>
      </trkpt>
      <trkpt lat="47.1440810" lon="6.7714270">
        <ele>941.8</ele>
        <time>2022-07-21T13:54:06Z</time>
      </trkpt>
      <trkpt lat="47.1440610" lon="6.7713960">
        <ele>941.8</ele>
        <time>2022-07-21T13:54:07Z</time>
      </trkpt>
      <trkpt lat="47.1440510" lon="6.7713870">
        <ele>941.9</ele>
        <time>2022-07-21T13:54:08Z</time>
      </trkpt>
      <trkpt lat="47.1440200" lon="6.7713550">
        <ele>941.9</ele>
        <time>2022-07-21T13:54:09Z</time>
      </trkpt>
      <trkpt lat="47.1440090" lon="6.7713450">
        <ele>941.9</ele>
        <time>2022-07-21T13:54:10Z</time>
      </trkpt>
      <trkpt lat="47.1439840" lon="6.7713140">
        <ele>941.9</ele>
        <time>2022-07-21T13:54:11Z</time>
      </trkpt>
      <trkpt lat="47.1439740" lon="6.7713010">
        <ele>941.9</ele>
        <time>2022-07-21T13:54:12Z</time>
      </trkpt>
      <trkpt lat="47.1439540" lon="6.7712560">
        <ele>941.9</ele>
        <time>2022-07-21T13:54:13Z</time>
      </trkpt>
      <trkpt lat="47.1439490" lon="6.7712400">
        <ele>941.9</ele>
        <time>2022-07-21T13:54:14Z</time>
      </trkpt>
      <trkpt lat="47.1439330" lon="6.7711930">
        <ele>941.9</ele>
        <time>2022-07-21T13:54:15Z</time>
      </trkpt>
      <trkpt lat="47.1439280" lon="6.7711760">
        <ele>941.9</ele>
        <time>2022-07-21T13:54:16Z</time>
      </trkpt>
      <trkpt lat="47.1439130" lon="6.7711270">
        <ele>941.9</ele>
        <time>2022-07-21T13:54:17Z</time>
      </trkpt>
      <trkpt lat="47.1439090" lon="6.7711130">
        <ele>941.9</ele>
        <time>2022-07-21T13:54:18Z</time>
      </trkpt>
      <trkpt lat="47.1438990" lon="6.7710760">
        <ele>941.9</ele>
        <time>2022-07-21T13:54:19Z</time>
      </trkpt>
      <trkpt lat="47.1438870" lon="6.7710380">
        <ele>941.8</ele>
        <time>2022-07-21T13:54:20Z</time>
      </trkpt>
      <trkpt lat="47.1438730" lon="6.7709960">
        <ele>941.8</ele>
        <time>2022-07-21T13:54:21Z</time>
      </trkpt>
      <trkpt lat="47.1438580" lon="6.7709570">
        <ele>941.8</ele>
        <time>2022-07-21T13:54:22Z</time>
      </trkpt>
      <trkpt lat="47.1438420" lon="6.7709150">
        <ele>941.8</ele>
        <time>2022-07-21T13:54:23Z</time>
      </trkpt>
      <trkpt lat="47.1438360" lon="6.7708990">
        <ele>941.8</ele>
        <time>2022-07-21T13:54:24Z</time>
      </trkpt>
      <trkpt lat="47.1438220" lon="6.7708650">
        <ele>941.8</ele>
        <time>2022-07-21T13:54:25Z</time>
      </trkpt>
      <trkpt lat="47.1438020" lon="6.7708160">
        <ele>941.8</ele>
        <time>2022-07-21T13:54:26Z</time>
      </trkpt>
      <trkpt lat="47.1437960" lon="6.7707990">
        <ele>941.8</ele>
        <time>2022-07-21T13:54:27Z</time>
      </trkpt>
      <trkpt lat="47.1437800" lon="6.7707580">
        <ele>941.9</ele>
        <time>2022-07-21T13:54:28Z</time>
      </trkpt>
      <trkpt lat="47.1437750" lon="6.7707470">
        <ele>941.9</ele>
        <time>2022-07-21T13:54:29Z</time>
      </trkpt>
      <trkpt lat="47.1437580" lon="6.7707140">
        <ele>941.9</ele>
        <time>2022-07-21T13:54:30Z</time>
      </trkpt>
      <trkpt lat="47.1437400" lon="6.7706780">
        <ele>941.9</ele>
        <time>2022-07-21T13:54:31Z</time>
      </trkpt>
      <trkpt lat="47.1437230" lon="6.7706410">
        <ele>941.9</ele>
        <time>2022-07-21T13:54:32Z</time>
      </trkpt>
      <trkpt lat="47.1437060" lon="6.7706030">
        <ele>942.0</ele>
        <time>2022-07-21T13:54:33Z</time>
      </trkpt>
      <trkpt lat="47.1436860" lon="6.7705500">
        <ele>942.0</ele>
        <time>2022-07-21T13:54:34Z</time>
      </trkpt>
      <trkpt lat="47.1436790" lon="6.7705310">
        <ele>942.0</ele>
        <time>2022-07-21T13:54:35Z</time>
      </trkpt>
      <trkpt lat="47.1436620" lon="6.7704800">
        <ele>942.1</ele>
        <time>2022-07-21T13:54:36Z</time>
      </trkpt>
      <trkpt lat="47.1436570" lon="6.7704630">
        <ele>942.2</ele>
        <time>2022-07-21T13:54:37Z</time>
      </trkpt>
      <trkpt lat="47.1436490" lon="6.7704200">
        <ele>942.3</ele>
        <time>2022-07-21T13:54:38Z</time>
      </trkpt>
      <trkpt lat="47.1436470" lon="6.7704080">
        <ele>942.3</ele>
        <time>2022-07-21T13:54:39Z</time>
      </trkpt>
      <trkpt lat="47.1436390" lon="6.7703700">
        <ele>942.4</ele>
        <time>2022-07-21T13:54:40Z</time>
      </trkpt>
      <trkpt lat="47.1436360" lon="6.7703560">
        <ele>942.5</ele>
        <time>2022-07-21T13:54:41Z</time>
      </trkpt>
      <trkpt lat="47.1436300" lon="6.7703330">
        <ele>942.5</ele>
        <time>2022-07-21T13:54:42Z</time>
      </trkpt>
      <trkpt lat="47.1436270" lon="6.7703130">
        <ele>942.6</ele>
        <time>2022-07-21T13:54:43Z</time>
      </trkpt>
      <trkpt lat="47.1436240" lon="6.7702850">
        <ele>942.7</ele>
        <time>2022-07-21T13:54:44Z</time>
      </trkpt>
      <trkpt lat="47.1436230" lon="6.7702690">
        <ele>942.7</ele>
        <time>2022-07-21T13:54:45Z</time>
      </trkpt>
      <trkpt lat="47.1436200" lon="6.7702540">
        <ele>942.8</ele>
        <time>2022-07-21T13:54:46Z</time>
      </trkpt>
      <trkpt lat="47.1436180" lon="6.7702420">
        <ele>942.8</ele>
        <time>2022-07-21T13:54:47Z</time>
      </trkpt>
      <trkpt lat="47.1436180" lon="6.7702380">
        <ele>942.9</ele>
        <time>2022-07-21T13:54:48Z</time>
      </trkpt>
      <trkpt lat="47.1436200" lon="6.7702350">
        <ele>942.9</ele>
        <time>2022-07-21T13:54:49Z</time>
      </trkpt>
      <trkpt lat="47.1436210" lon="6.7702310">
        <ele>942.9</ele>
        <time>2022-07-21T13:54:50Z</time>
      </trkpt>
      <trkpt lat="47.1436210" lon="6.7702270">
        <ele>942.9</ele>
        <time>2022-07-21T13:54:51Z</time>
      </trkpt>
      <trkpt lat="47.1436180" lon="6.7702240">
        <ele>942.9</ele>
        <time>2022-07-21T13:54:52Z</time>
      </trkpt>
      <trkpt lat="47.1436160" lon="6.7702240">
        <ele>942.9</ele>
        <time>2022-07-21T13:54:53Z</time>
      </trkpt>
      <trkpt lat="47.1436160" lon="6.7702220">
        <ele>942.9</ele>
        <time>2022-07-21T13:54:54Z</time>
      </trkpt>
      <trkpt lat="47.1436150" lon="6.7702200">
        <ele>942.9</ele>
        <time>2022-07-21T13:54:55Z</time>
      </trkpt>
      <trkpt lat="47.1436110" lon="6.7702110">
        <ele>943.0</ele>
        <time>2022-07-21T13:54:56Z</time>
      </trkpt>
      <trkpt lat="47.1436050" lon="6.7702050">
        <ele>943.0</ele>
        <time>2022-07-21T13:54:57Z</time>
      </trkpt>
      <trkpt lat="47.1436000" lon="6.7702010">
        <ele>943.0</ele>
        <time>2022-07-21T13:54:58Z</time>
      </trkpt>
      <trkpt lat="47.1435960" lon="6.7701960">
        <ele>943.1</ele>
        <time>2022-07-21T13:54:59Z</time>
      </trkpt>
      <trkpt lat="47.1435950" lon="6.7701940">
        <ele>943.1</ele>
        <time>2022-07-21T13:55:00Z</time>
      </trkpt>
      <trkpt lat="47.1435960" lon="6.7701930">
        <ele>943.1</ele>
        <time>2022-07-21T13:55:01Z</time>
      </trkpt>
      <trkpt lat="47.1435950" lon="6.7701920">
        <ele>943.1</ele>
        <time>2022-07-21T13:55:02Z</time>
      </trkpt>
      <trkpt lat="47.1435950" lon="6.7701900">
        <ele>943.1</ele>
        <time>2022-07-21T13:55:03Z</time>
      </trkpt>
      <trkpt lat="47.1435940" lon="6.7701890">
        <ele>943.1</ele>
        <time>2022-07-21T13:55:04Z</time>
      </trkpt>
      <trkpt lat="47.1435890" lon="6.7701760">
        <ele>943.2</ele>
        <time>2022-07-21T13:55:05Z</time>
      </trkpt>
      <trkpt lat="47.1435740" lon="6.7701360">
        <ele>943.3</ele>
        <time>2022-07-21T13:55:07Z</time>
      </trkpt>
      <trkpt lat="47.1435620" lon="6.7700960">
        <ele>943.5</ele>
        <time>2022-07-21T13:55:08Z</time>
      </trkpt>
      <trkpt lat="47.1435590" lon="6.7700830">
        <ele>943.5</ele>
        <time>2022-07-21T13:55:09Z</time>
      </trkpt>
      <trkpt lat="47.1435470" lon="6.7700330">
        <ele>943.7</ele>
        <time>2022-07-21T13:55:10Z</time>
      </trkpt>
      <trkpt lat="47.1435350" lon="6.7699830">
        <ele>943.9</ele>
        <time>2022-07-21T13:55:12Z</time>
      </trkpt>
      <trkpt lat="47.1435300" lon="6.7699650">
        <ele>943.9</ele>
        <time>2022-07-21T13:55:13Z</time>
      </trkpt>
      <trkpt lat="47.1435210" lon="6.7699180">
        <ele>944.1</ele>
        <time>2022-07-21T13:55:14Z</time>
      </trkpt>
      <trkpt lat="47.1435180" lon="6.7699060">
        <ele>944.1</ele>
        <time>2022-07-21T13:55:15Z</time>
      </trkpt>
      <trkpt lat="47.1435090" lon="6.7698690">
        <ele>944.2</ele>
        <time>2022-07-21T13:55:16Z</time>
      </trkpt>
      <trkpt lat="47.1435050" lon="6.7698560">
        <ele>944.2</ele>
        <time>2022-07-21T13:55:17Z</time>
      </trkpt>
      <trkpt lat="47.1434910" lon="6.7698190">
        <ele>944.3</ele>
        <time>2022-07-21T13:55:18Z</time>
      </trkpt>
      <trkpt lat="47.1434840" lon="6.7698040">
        <ele>944.4</ele>
        <time>2022-07-21T13:55:19Z</time>
      </trkpt>
      <trkpt lat="47.1434610" lon="6.7697690">
        <ele>944.5</ele>
        <time>2022-07-21T13:55:20Z</time>
      </trkpt>
      <trkpt lat="47.1434360" lon="6.7697120">
        <ele>944.6</ele>
        <time>2022-07-21T13:55:22Z</time>
      </trkpt>
      <trkpt lat="47.1434290" lon="6.7696900">
        <ele>944.7</ele>
        <time>2022-07-21T13:55:23Z</time>
      </trkpt>
      <trkpt lat="47.1434220" lon="6.7696690">
        <ele>944.7</ele>
        <time>2022-07-21T13:55:24Z</time>
      </trkpt>
      <trkpt lat="47.1434100" lon="6.7696270">
        <ele>944.8</ele>
        <time>2022-07-21T13:55:25Z</time>
      </trkpt>
      <trkpt lat="47.1434060" lon="6.7696110">
        <ele>944.8</ele>
        <time>2022-07-21T13:55:26Z</time>
      </trkpt>
      <trkpt lat="47.1433910" lon="6.7695650">
        <ele>944.8</ele>
        <time>2022-07-21T13:55:27Z</time>
      </trkpt>
      <trkpt lat="47.1433860" lon="6.7695500">
        <ele>944.9</ele>
        <time>2022-07-21T13:55:28Z</time>
      </trkpt>
      <trkpt lat="47.1433700" lon="6.7695090">
        <ele>944.9</ele>
        <time>2022-07-21T13:55:29Z</time>
      </trkpt>
      <trkpt lat="47.1433640" lon="6.7694930">
        <ele>945.0</ele>
        <time>2022-07-21T13:55:30Z</time>
      </trkpt>
      <trkpt lat="47.1433460" lon="6.7694550">
        <ele>945.0</ele>
        <time>2022-07-21T13:55:31Z</time>
      </trkpt>
      <trkpt lat="47.1433400" lon="6.7694440">
        <ele>945.0</ele>
        <time>2022-07-21T13:55:32Z</time>
      </trkpt>
      <trkpt lat="47.1433200" lon="6.7694120">
        <ele>945.1</ele>
        <time>2022-07-21T13:55:33Z</time>
      </trkpt>
      <trkpt lat="47.1432970" lon="6.7693710">
        <ele>945.2</ele>
        <time>2022-07-21T13:55:35Z</time>
      </trkpt>
      <trkpt lat="47.1432770" lon="6.7693350">
        <ele>945.2</ele>
        <time>2022-07-21T13:55:36Z</time>
      </trkpt>
      <trkpt lat="47.1432710" lon="6.7693220">
        <ele>945.2</ele>
        <time>2022-07-21T13:55:37Z</time>
      </trkpt>
      <trkpt lat="47.1432520" lon="6.7692890">
        <ele>945.3</ele>
        <time>2022-07-21T13:55:38Z</time>
      </trkpt>
      <trkpt lat="47.1432450" lon="6.7692790">
        <ele>945.3</ele>
        <time>2022-07-21T13:55:39Z</time>
      </trkpt>
      <trkpt lat="47.1432220" lon="6.7692410">
        <ele>945.4</ele>
        <time>2022-07-21T13:55:40Z</time>
      </trkpt>
      <trkpt lat="47.1432060" lon="6.7692170">
        <ele>945.4</ele>
        <time>2022-07-21T13:55:41Z</time>
      </trkpt>
      <trkpt lat="47.1431840" lon="6.7691870">
        <ele>945.5</ele>
        <time>2022-07-21T13:55:43Z</time>
      </trkpt>
      <trkpt lat="47.1431580" lon="6.7691430">
        <ele>945.6</ele>
        <time>2022-07-21T13:55:44Z</time>
      </trkpt>
      <trkpt lat="47.1431480" lon="6.7691260">
        <ele>945.6</ele>
        <time>2022-07-21T13:55:45Z</time>
      </trkpt>
      <trkpt lat="47.1431320" lon="6.7691020">
        <ele>945.7</ele>
        <time>2022-07-21T13:55:47Z</time>
      </trkpt>
      <trkpt lat="47.1431350" lon="6.7691040">
        <ele>945.7</ele>
        <time>2022-07-21T13:55:48Z</time>
      </trkpt>
      <trkpt lat="47.1431510" lon="6.7691250">
        <ele>945.8</ele>
        <time>2022-07-21T13:55:49Z</time>
      </trkpt>
      <trkpt lat="47.1431520" lon="6.7691280">
        <ele>945.8</ele>
        <time>2022-07-21T13:55:50Z</time>
      </trkpt>
      <trkpt lat="47.1431550" lon="6.7691310">
        <ele>945.8</ele>
        <time>2022-07-21T13:55:51Z</time>
      </trkpt>
      <trkpt lat="47.1431570" lon="6.7691310">
        <ele>945.8</ele>
        <time>2022-07-21T13:55:52Z</time>
      </trkpt>
      <trkpt lat="47.1431580" lon="6.7691310">
        <ele>945.8</ele>
        <time>2022-07-21T13:55:53Z</time>
      </trkpt>
      <trkpt lat="47.1431580" lon="6.7691300">
        <ele>945.8</ele>
        <time>2022-07-21T13:55:54Z</time>
      </trkpt>
      <trkpt lat="47.1431600" lon="6.7691300">
        <ele>945.8</ele>
        <time>2022-07-21T13:55:55Z</time>
      </trkpt>
      <trkpt lat="47.1431600" lon="6.7691280">
        <ele>945.8</ele>
        <time>2022-07-21T13:55:56Z</time>
      </trkpt>
      <trkpt lat="47.1431600" lon="6.7691270">
        <ele>945.8</ele>
        <time>2022-07-21T13:55:57Z</time>
      </trkpt>
      <trkpt lat="47.1431590" lon="6.7691250">
        <ele>945.8</ele>
        <time>2022-07-21T13:55:58Z</time>
      </trkpt>
      <trkpt lat="47.1431590" lon="6.7691240">
        <ele>945.8</ele>
        <time>2022-07-21T13:55:59Z</time>
      </trkpt>
      <trkpt lat="47.1431360" lon="6.7690820">
        <ele>945.9</ele>
        <time>2022-07-21T13:56:11Z</time>
      </trkpt>
      <trkpt lat="47.1431270" lon="6.7690730">
        <ele>945.9</ele>
        <time>2022-07-21T13:56:12Z</time>
      </trkpt>
      <trkpt lat="47.1431210" lon="6.7690680">
        <ele>945.9</ele>
        <time>2022-07-21T13:56:13Z</time>
      </trkpt>
      <trkpt lat="47.1431150" lon="6.7690640">
        <ele>945.9</ele>
        <time>2022-07-21T13:56:14Z</time>
      </trkpt>
      <trkpt lat="47.1431090" lon="6.7690610">
        <ele>946.0</ele>
        <time>2022-07-21T13:56:15Z</time>
      </trkpt>
      <trkpt lat="47.1431060" lon="6.7690580">
        <ele>946.0</ele>
        <time>2022-07-21T13:56:16Z</time>
      </trkpt>
      <trkpt lat="47.1431060" lon="6.7690570">
        <ele>946.0</ele>
        <time>2022-07-21T13:56:17Z</time>
      </trkpt>
      <trkpt lat="47.1431050" lon="6.7690560">
        <ele>946.0</ele>
        <time>2022-07-21T13:56:18Z</time>
      </trkpt>
      <trkpt lat="47.1431010" lon="6.7690460">
        <ele>946.0</ele>
        <time>2022-07-21T13:56:19Z</time>
      </trkpt>
      <trkpt lat="47.1430950" lon="6.7690300">
        <ele>946.0</ele>
        <time>2022-07-21T13:56:20Z</time>
      </trkpt>
      <trkpt lat="47.1430910" lon="6.7690220">
        <ele>946.0</ele>
        <time>2022-07-21T13:56:21Z</time>
      </trkpt>
      <trkpt lat="47.1430910" lon="6.7690210">
        <ele>946.0</ele>
        <time>2022-07-21T13:56:22Z</time>
      </trkpt>
      <trkpt lat="47.1430900" lon="6.7690190">
        <ele>946.0</ele>
        <time>2022-07-21T13:56:23Z</time>
      </trkpt>
      <trkpt lat="47.1430860" lon="6.7690040">
        <ele>946.0</ele>
        <time>2022-07-21T13:56:25Z</time>
      </trkpt>
      <trkpt lat="47.1430770" lon="6.7689870">
        <ele>946.0</ele>
        <time>2022-07-21T13:56:26Z</time>
      </trkpt>
      <trkpt lat="47.1430510" lon="6.7689550">
        <ele>945.9</ele>
        <time>2022-07-21T13:56:27Z</time>
      </trkpt>
      <trkpt lat="47.1430410" lon="6.7689430">
        <ele>945.9</ele>
        <time>2022-07-21T13:56:28Z</time>
      </trkpt>
      <trkpt lat="47.1430160" lon="6.7689090">
        <ele>945.9</ele>
        <time>2022-07-21T13:56:29Z</time>
      </trkpt>
      <trkpt lat="47.1429890" lon="6.7688810">
        <ele>945.8</ele>
        <time>2022-07-21T13:56:30Z</time>
      </trkpt>
      <trkpt lat="47.1429590" lon="6.7688550">
        <ele>945.6</ele>
        <time>2022-07-21T13:56:32Z</time>
      </trkpt>
      <trkpt lat="47.1429260" lon="6.7688170">
        <ele>945.5</ele>
        <time>2022-07-21T13:56:33Z</time>
      </trkpt>
      <trkpt lat="47.1429020" lon="6.7687880">
        <ele>945.4</ele>
        <time>2022-07-21T13:56:34Z</time>
      </trkpt>
      <trkpt lat="47.1428770" lon="6.7687520">
        <ele>945.3</ele>
        <time>2022-07-21T13:56:35Z</time>
      </trkpt>
      <trkpt lat="47.1428300" lon="6.7686850">
        <ele>945.1</ele>
        <time>2022-07-21T13:56:37Z</time>
      </trkpt>
      <trkpt lat="47.1428100" lon="6.7686540">
        <ele>945.1</ele>
        <time>2022-07-21T13:56:38Z</time>
      </trkpt>
      <trkpt lat="47.1427880" lon="6.7686170">
        <ele>945.1</ele>
        <time>2022-07-21T13:56:39Z</time>
      </trkpt>
      <trkpt lat="47.1427600" lon="6.7685720">
        <ele>945.1</ele>
        <time>2022-07-21T13:56:40Z</time>
      </trkpt>
      <trkpt lat="47.1427400" lon="6.7685360">
        <ele>945.1</ele>
        <time>2022-07-21T13:56:41Z</time>
      </trkpt>
      <trkpt lat="47.1427210" lon="6.7685060">
        <ele>945.1</ele>
        <time>2022-07-21T13:56:42Z</time>
      </trkpt>
      <trkpt lat="47.1426910" lon="6.7684650">
        <ele>945.2</ele>
        <time>2022-07-21T13:56:44Z</time>
      </trkpt>
      <trkpt lat="47.1426680" lon="6.7684300">
        <ele>945.2</ele>
        <time>2022-07-21T13:56:45Z</time>
      </trkpt>
      <trkpt lat="47.1426600" lon="6.7684170">
        <ele>945.2</ele>
        <time>2022-07-21T13:56:46Z</time>
      </trkpt>
      <trkpt lat="47.1426340" lon="6.7683710">
        <ele>945.3</ele>
        <time>2022-07-21T13:56:47Z</time>
      </trkpt>
      <trkpt lat="47.1426230" lon="6.7683520">
        <ele>945.3</ele>
        <time>2022-07-21T13:56:48Z</time>
      </trkpt>
      <trkpt lat="47.1425940" lon="6.7683040">
        <ele>945.4</ele>
        <time>2022-07-21T13:56:50Z</time>
      </trkpt>
      <trkpt lat="47.1425840" lon="6.7682890">
        <ele>945.4</ele>
        <time>2022-07-21T13:56:51Z</time>
      </trkpt>
      <trkpt lat="47.1425740" lon="6.7682740">
        <ele>945.4</ele>
        <time>2022-07-21T13:56:52Z</time>
      </trkpt>
      <trkpt lat="47.1425440" lon="6.7682330">
        <ele>945.5</ele>
        <time>2022-07-21T13:56:53Z</time>
      </trkpt>
      <trkpt lat="47.1425340" lon="6.7682190">
        <ele>945.5</ele>
        <time>2022-07-21T13:56:54Z</time>
      </trkpt>
      <trkpt lat="47.1425110" lon="6.7681850">
        <ele>945.5</ele>
        <time>2022-07-21T13:56:55Z</time>
      </trkpt>
      <trkpt lat="47.1424800" lon="6.7681270">
        <ele>945.5</ele>
        <time>2022-07-21T13:56:57Z</time>
      </trkpt>
      <trkpt lat="47.1424700" lon="6.7681110">
        <ele>945.5</ele>
        <time>2022-07-21T13:56:58Z</time>
      </trkpt>
      <trkpt lat="47.1424600" lon="6.7680950">
        <ele>945.5</ele>
        <time>2022-07-21T13:56:59Z</time>
      </trkpt>
      <trkpt lat="47.1424410" lon="6.7680640">
        <ele>945.5</ele>
        <time>2022-07-21T13:57:00Z</time>
      </trkpt>
      <trkpt lat="47.1424220" lon="6.7680210">
        <ele>945.6</ele>
        <time>2022-07-21T13:57:01Z</time>
      </trkpt>
      <trkpt lat="47.1424020" lon="6.7679760">
        <ele>945.6</ele>
        <time>2022-07-21T13:57:02Z</time>
      </trkpt>
      <trkpt lat="47.1423820" lon="6.7679350">
        <ele>945.6</ele>
        <time>2022-07-21T13:57:04Z</time>
      </trkpt>
      <trkpt lat="47.1423610" lon="6.7679050">
        <ele>945.6</ele>
        <time>2022-07-21T13:57:05Z</time>
      </trkpt>
      <trkpt lat="47.1423380" lon="6.7678640">
        <ele>945.6</ele>
        <time>2022-07-21T13:57:06Z</time>
      </trkpt>
      <trkpt lat="47.1423310" lon="6.7678510">
        <ele>945.6</ele>
        <time>2022-07-21T13:57:07Z</time>
      </trkpt>
      <trkpt lat="47.1423050" lon="6.7677990">
        <ele>945.6</ele>
        <time>2022-07-21T13:57:08Z</time>
      </trkpt>
      <trkpt lat="47.1422940" lon="6.7677760">
        <ele>945.6</ele>
        <time>2022-07-21T13:57:09Z</time>
      </trkpt>
      <trkpt lat="47.1422670" lon="6.7677300">
        <ele>945.6</ele>
        <time>2022-07-21T13:57:11Z</time>
      </trkpt>
      <trkpt lat="47.1422560" lon="6.7677100">
        <ele>945.6</ele>
        <time>2022-07-21T13:57:12Z</time>
      </trkpt>
      <trkpt lat="47.1422240" lon="6.7676660">
        <ele>945.7</ele>
        <time>2022-07-21T13:57:13Z</time>
      </trkpt>
      <trkpt lat="47.1422100" lon="6.7676460">
        <ele>945.7</ele>
        <time>2022-07-21T13:57:14Z</time>
      </trkpt>
      <trkpt lat="47.1421800" lon="6.7675880">
        <ele>945.7</ele>
        <time>2022-07-21T13:57:16Z</time>
      </trkpt>
      <trkpt lat="47.1421570" lon="6.7675550">
        <ele>945.7</ele>
        <time>2022-07-21T13:57:17Z</time>
      </trkpt>
      <trkpt lat="47.1421260" lon="6.7675080">
        <ele>945.7</ele>
        <time>2022-07-21T13:57:19Z</time>
      </trkpt>
      <trkpt lat="47.1421090" lon="6.7674720">
        <ele>945.7</ele>
        <time>2022-07-21T13:57:20Z</time>
      </trkpt>
      <trkpt lat="47.1420830" lon="6.7674180">
        <ele>945.8</ele>
        <time>2022-07-21T13:57:21Z</time>
      </trkpt>
      <trkpt lat="47.1420730" lon="6.7673930">
        <ele>945.8</ele>
        <time>2022-07-21T13:57:22Z</time>
      </trkpt>
      <trkpt lat="47.1420530" lon="6.7673490">
        <ele>945.8</ele>
        <time>2022-07-21T13:57:24Z</time>
      </trkpt>
      <trkpt lat="47.1420370" lon="6.7673150">
        <ele>945.8</ele>
        <time>2022-07-21T13:57:25Z</time>
      </trkpt>
      <trkpt lat="47.1420100" lon="6.7672640">
        <ele>945.9</ele>
        <time>2022-07-21T13:57:27Z</time>
      </trkpt>
      <trkpt lat="47.1419930" lon="6.7672260">
        <ele>945.9</ele>
        <time>2022-07-21T13:57:28Z</time>
      </trkpt>
      <trkpt lat="47.1419760" lon="6.7671830">
        <ele>945.9</ele>
        <time>2022-07-21T13:57:29Z</time>
      </trkpt>
      <trkpt lat="47.1419580" lon="6.7671470">
        <ele>945.9</ele>
        <time>2022-07-21T13:57:30Z</time>
      </trkpt>
      <trkpt lat="47.1419380" lon="6.7671010">
        <ele>946.0</ele>
        <time>2022-07-21T13:57:32Z</time>
      </trkpt>
      <trkpt lat="47.1419180" lon="6.7670550">
        <ele>946.0</ele>
        <time>2022-07-21T13:57:33Z</time>
      </trkpt>
      <trkpt lat="47.1418990" lon="6.7670110">
        <ele>946.0</ele>
        <time>2022-07-21T13:57:35Z</time>
      </trkpt>
      <trkpt lat="47.1418810" lon="6.7669730">
        <ele>946.1</ele>
        <time>2022-07-21T13:57:36Z</time>
      </trkpt>
      <trkpt lat="47.1418640" lon="6.7669400">
        <ele>946.1</ele>
        <time>2022-07-21T13:57:37Z</time>
      </trkpt>
      <trkpt lat="47.1418470" lon="6.7669060">
        <ele>946.1</ele>
        <time>2022-07-21T13:57:38Z</time>
      </trkpt>
      <trkpt lat="47.1418290" lon="6.7668660">
        <ele>946.2</ele>
        <time>2022-07-21T13:57:39Z</time>
      </trkpt>
      <trkpt lat="47.1418170" lon="6.7668290">
        <ele>946.2</ele>
        <time>2022-07-21T13:57:40Z</time>
      </trkpt>
      <trkpt lat="47.1417910" lon="6.7667890">
        <ele>946.2</ele>
        <time>2022-07-21T13:57:41Z</time>
      </trkpt>
      <trkpt lat="47.1417830" lon="6.7667760">
        <ele>946.3</ele>
        <time>2022-07-21T13:57:42Z</time>
      </trkpt>
      <trkpt lat="47.1417620" lon="6.7667410">
        <ele>946.3</ele>
        <time>2022-07-21T13:57:43Z</time>
      </trkpt>
      <trkpt lat="47.1417430" lon="6.7667110">
        <ele>946.3</ele>
        <time>2022-07-21T13:57:44Z</time>
      </trkpt>
      <trkpt lat="47.1417130" lon="6.7666760">
        <ele>946.4</ele>
        <time>2022-07-21T13:57:46Z</time>
      </trkpt>
      <trkpt lat="47.1416780" lon="6.7666430">
        <ele>946.4</ele>
        <time>2022-07-21T13:57:47Z</time>
      </trkpt>
      <trkpt lat="47.1416590" lon="6.7666220">
        <ele>946.5</ele>
        <time>2022-07-21T13:57:48Z</time>
      </trkpt>
      <trkpt lat="47.1416300" lon="6.7665830">
        <ele>946.5</ele>
        <time>2022-07-21T13:57:50Z</time>
      </trkpt>
      <trkpt lat="47.1416030" lon="6.7665550">
        <ele>946.6</ele>
        <time>2022-07-21T13:57:51Z</time>
      </trkpt>
      <trkpt lat="47.1415740" lon="6.7665260">
        <ele>946.6</ele>
        <time>2022-07-21T13:57:53Z</time>
      </trkpt>
      <trkpt lat="47.1415480" lon="6.7665000">
        <ele>946.7</ele>
        <time>2022-07-21T13:57:54Z</time>
      </trkpt>
      <trkpt lat="47.1415250" lon="6.7664680">
        <ele>946.7</ele>
        <time>2022-07-21T13:57:55Z</time>
      </trkpt>
      <trkpt lat="47.1415010" lon="6.7664390">
        <ele>946.7</ele>
        <time>2022-07-21T13:57:56Z</time>
      </trkpt>
      <trkpt lat="47.1414640" lon="6.7663890">
        <ele>946.8</ele>
        <time>2022-07-21T13:57:58Z</time>
      </trkpt>
      <trkpt lat="47.1414490" lon="6.7663700">
        <ele>946.9</ele>
        <time>2022-07-21T13:57:59Z</time>
      </trkpt>
      <trkpt lat="47.1414350" lon="6.7663500">
        <ele>946.9</ele>
        <time>2022-07-21T13:58:00Z</time>
      </trkpt>
      <trkpt lat="47.1414000" lon="6.7663030">
        <ele>947.0</ele>
        <time>2022-07-21T13:58:02Z</time>
      </trkpt>
      <trkpt lat="47.1413900" lon="6.7662880">
        <ele>947.0</ele>
        <time>2022-07-21T13:58:03Z</time>
      </trkpt>
      <trkpt lat="47.1413790" lon="6.7662730">
        <ele>947.0</ele>
        <time>2022-07-21T13:58:04Z</time>
      </trkpt>
      <trkpt lat="47.1413530" lon="6.7662410">
        <ele>947.1</ele>
        <time>2022-07-21T13:58:05Z</time>
      </trkpt>
      <trkpt lat="47.1413450" lon="6.7662320">
        <ele>947.1</ele>
        <time>2022-07-21T13:58:06Z</time>
      </trkpt>
      <trkpt lat="47.1413210" lon="6.7662000">
        <ele>947.2</ele>
        <time>2022-07-21T13:58:07Z</time>
      </trkpt>
      <trkpt lat="47.1413130" lon="6.7661880">
        <ele>947.2</ele>
        <time>2022-07-21T13:58:08Z</time>
      </trkpt>
      <trkpt lat="47.1412820" lon="6.7661530">
        <ele>947.3</ele>
        <time>2022-07-21T13:58:09Z</time>
      </trkpt>
      <trkpt lat="47.1412720" lon="6.7661430">
        <ele>947.3</ele>
        <time>2022-07-21T13:58:10Z</time>
      </trkpt>
      <trkpt lat="47.1412400" lon="6.7661080">
        <ele>947.4</ele>
        <time>2022-07-21T13:58:11Z</time>
      </trkpt>
      <trkpt lat="47.1412250" lon="6.7660920">
        <ele>947.4</ele>
        <time>2022-07-21T13:58:12Z</time>
      </trkpt>
      <trkpt lat="47.1411870" lon="6.7660580">
        <ele>947.5</ele>
        <time>2022-07-21T13:58:14Z</time>
      </trkpt>
      <trkpt lat="47.1411740" lon="6.7660470">
        <ele>947.5</ele>
        <time>2022-07-21T13:58:15Z</time>
      </trkpt>
      <trkpt lat="47.1411610" lon="6.7660350">
        <ele>947.6</ele>
        <time>2022-07-21T13:58:16Z</time>
      </trkpt>
      <trkpt lat="47.1411330" lon="6.7660060">
        <ele>947.6</ele>
        <time>2022-07-21T13:58:17Z</time>
      </trkpt>
      <trkpt lat="47.1411230" lon="6.7659960">
        <ele>947.7</ele>
        <time>2022-07-21T13:58:18Z</time>
      </trkpt>
      <trkpt lat="47.1410920" lon="6.7659650">
        <ele>947.8</ele>
        <time>2022-07-21T13:58:19Z</time>
      </trkpt>
      <trkpt lat="47.1410820" lon="6.7659540">
        <ele>947.8</ele>
        <time>2022-07-21T13:58:20Z</time>
      </trkpt>
      <trkpt lat="47.1410600" lon="6.7659250">
        <ele>947.9</ele>
        <time>2022-07-21T13:58:21Z</time>
      </trkpt>
      <trkpt lat="47.1410380" lon="6.7658960">
        <ele>947.9</ele>
        <time>2022-07-21T13:58:22Z</time>
      </trkpt>
      <trkpt lat="47.1410100" lon="6.7658540">
        <ele>948.0</ele>
        <time>2022-07-21T13:58:24Z</time>
      </trkpt>
      <trkpt lat="47.1410010" lon="6.7658400">
        <ele>948.1</ele>
        <time>2022-07-21T13:58:25Z</time>
      </trkpt>
      <trkpt lat="47.1409800" lon="6.7658010">
        <ele>948.1</ele>
        <time>2022-07-21T13:58:26Z</time>
      </trkpt>
      <trkpt lat="47.1409730" lon="6.7657880">
        <ele>948.2</ele>
        <time>2022-07-21T13:58:27Z</time>
      </trkpt>
      <trkpt lat="47.1409590" lon="6.7657580">
        <ele>948.2</ele>
        <time>2022-07-21T13:58:28Z</time>
      </trkpt>
      <trkpt lat="47.1409450" lon="6.7657250">
        <ele>948.3</ele>
        <time>2022-07-21T13:58:30Z</time>
      </trkpt>
      <trkpt lat="47.1409400" lon="6.7657090">
        <ele>948.4</ele>
        <time>2022-07-21T13:58:31Z</time>
      </trkpt>
      <trkpt lat="47.1409330" lon="6.7656880">
        <ele>948.4</ele>
        <time>2022-07-21T13:58:32Z</time>
      </trkpt>
      <trkpt lat="47.1409240" lon="6.7656700">
        <ele>948.4</ele>
        <time>2022-07-21T13:58:33Z</time>
      </trkpt>
      <trkpt lat="47.1409090" lon="6.7656570">
        <ele>948.5</ele>
        <time>2022-07-21T13:58:34Z</time>
      </trkpt>
      <trkpt lat="47.1409000" lon="6.7656490">
        <ele>948.5</ele>
        <time>2022-07-21T13:58:35Z</time>
      </trkpt>
      <trkpt lat="47.1409000" lon="6.7656490">
        <ele>948.5</ele>
        <time>2022-07-21T13:58:36Z</time>
      </trkpt>
      <trkpt lat="47.1409010" lon="6.7656500">
        <ele>948.5</ele>
        <time>2022-07-21T13:58:37Z</time>
      </trkpt>
      <trkpt lat="47.1409020" lon="6.7656580">
        <ele>948.6</ele>
        <time>2022-07-21T13:58:38Z</time>
      </trkpt>
      <trkpt lat="47.1409030" lon="6.7656610">
        <ele>948.6</ele>
        <time>2022-07-21T13:58:40Z</time>
      </trkpt>
      <trkpt lat="47.1409040" lon="6.7656630">
        <ele>948.6</ele>
        <time>2022-07-21T13:58:41Z</time>
      </trkpt>
      <trkpt lat="47.1409040" lon="6.7656630">
        <ele>948.6</ele>
        <time>2022-07-21T13:58:42Z</time>
      </trkpt>
      <trkpt lat="47.1409040" lon="6.7656630">
        <ele>948.6</ele>
        <time>2022-07-21T13:58:43Z</time>
      </trkpt>
      <trkpt lat="47.1409040" lon="6.7656620">
        <ele>948.6</ele>
        <time>2022-07-21T13:58:44Z</time>
      </trkpt>
      <trkpt lat="47.1409040" lon="6.7656610">
        <ele>948.6</ele>
        <time>2022-07-21T13:58:45Z</time>
      </trkpt>
      <trkpt lat="47.1408990" lon="6.7656540">
        <ele>948.6</ele>
        <time>2022-07-21T13:58:46Z</time>
      </trkpt>
      <trkpt lat="47.1408830" lon="6.7656410">
        <ele>948.7</ele>
        <time>2022-07-21T13:58:47Z</time>
      </trkpt>
      <trkpt lat="47.1408640" lon="6.7656460">
        <ele>948.7</ele>
        <time>2022-07-21T13:58:48Z</time>
      </trkpt>
      <trkpt lat="47.1408530" lon="6.7656510">
        <ele>948.8</ele>
        <time>2022-07-21T13:58:50Z</time>
      </trkpt>
      <trkpt lat="47.1408420" lon="6.7656540">
        <ele>948.8</ele>
        <time>2022-07-21T13:58:51Z</time>
      </trkpt>
      <trkpt lat="47.1408380" lon="6.7656530">
        <ele>948.9</ele>
        <time>2022-07-21T13:58:52Z</time>
      </trkpt>
      <trkpt lat="47.1408400" lon="6.7656500">
        <ele>948.9</ele>
        <time>2022-07-21T13:58:53Z</time>
      </trkpt>
      <trkpt lat="47.1408410" lon="6.7656460">
        <ele>948.9</ele>
        <time>2022-07-21T13:58:54Z</time>
      </trkpt>
      <trkpt lat="47.1408410" lon="6.7656420">
        <ele>948.9</ele>
        <time>2022-07-21T13:58:55Z</time>
      </trkpt>
      <trkpt lat="47.1408420" lon="6.7656390">
        <ele>948.9</ele>
        <time>2022-07-21T13:58:56Z</time>
      </trkpt>
      <trkpt lat="47.1408420" lon="6.7656360">
        <ele>948.9</ele>
        <time>2022-07-21T13:58:57Z</time>
      </trkpt>
      <trkpt lat="47.1408420" lon="6.7656340">
        <ele>948.9</ele>
        <time>2022-07-21T13:58:58Z</time>
      </trkpt>
      <trkpt lat="47.1408410" lon="6.7656320">
        <ele>948.9</ele>
        <time>2022-07-21T13:58:59Z</time>
      </trkpt>
      <trkpt lat="47.1408380" lon="6.7656290">
        <ele>948.9</ele>
        <time>2022-07-21T13:59:00Z</time>
      </trkpt>
      <trkpt lat="47.1408380" lon="6.7656270">
        <ele>948.9</ele>
        <time>2022-07-21T13:59:01Z</time>
      </trkpt>
      <trkpt lat="47.1408400" lon="6.7656270">
        <ele>948.9</ele>
        <time>2022-07-21T13:59:02Z</time>
      </trkpt>
      <trkpt lat="47.1408410" lon="6.7656270">
        <ele>948.9</ele>
        <time>2022-07-21T13:59:03Z</time>
      </trkpt>
      <trkpt lat="47.1408420" lon="6.7656260">
        <ele>949.0</ele>
        <time>2022-07-21T13:59:04Z</time>
      </trkpt>
      <trkpt lat="47.1408450" lon="6.7656260">
        <ele>949.0</ele>
        <time>2022-07-21T13:59:05Z</time>
      </trkpt>
      <trkpt lat="47.1408460" lon="6.7656260">
        <ele>949.0</ele>
        <time>2022-07-21T13:59:06Z</time>
      </trkpt>
      <trkpt lat="47.1408470" lon="6.7656260">
        <ele>949.0</ele>
        <time>2022-07-21T13:59:07Z</time>
      </trkpt>
      <trkpt lat="47.1408480" lon="6.7656240">
        <ele>949.0</ele>
        <time>2022-07-21T13:59:08Z</time>
      </trkpt>
      <trkpt lat="47.1408670" lon="6.7656230">
        <ele>949.1</ele>
        <time>2022-07-21T13:59:09Z</time>
      </trkpt>
      <trkpt lat="47.1408790" lon="6.7656200">
        <ele>949.1</ele>
        <time>2022-07-21T13:59:10Z</time>
      </trkpt>
      <trkpt lat="47.1408830" lon="6.7656140">
        <ele>949.2</ele>
        <time>2022-07-21T13:59:11Z</time>
      </trkpt>
      <trkpt lat="47.1408840" lon="6.7656090">
        <ele>949.2</ele>
        <time>2022-07-21T13:59:12Z</time>
      </trkpt>
      <trkpt lat="47.1408820" lon="6.7656080">
        <ele>949.2</ele>
        <time>2022-07-21T13:59:13Z</time>
      </trkpt>
      <trkpt lat="47.1408750" lon="6.7656130">
        <ele>949.2</ele>
        <time>2022-07-21T13:59:14Z</time>
      </trkpt>
      <trkpt lat="47.1408690" lon="6.7656200">
        <ele>949.3</ele>
        <time>2022-07-21T13:59:15Z</time>
      </trkpt>
      <trkpt lat="47.1408650" lon="6.7656220">
        <ele>949.3</ele>
        <time>2022-07-21T13:59:16Z</time>
      </trkpt>
      <trkpt lat="47.1408610" lon="6.7656240">
        <ele>949.3</ele>
        <time>2022-07-21T13:59:17Z</time>
      </trkpt>
      <trkpt lat="47.1408570" lon="6.7656260">
        <ele>949.3</ele>
        <time>2022-07-21T13:59:18Z</time>
      </trkpt>
      <trkpt lat="47.1408540" lon="6.7656260">
        <ele>949.3</ele>
        <time>2022-07-21T13:59:19Z</time>
      </trkpt>
      <trkpt lat="47.1408520" lon="6.7656250">
        <ele>949.3</ele>
        <time>2022-07-21T13:59:20Z</time>
      </trkpt>
      <trkpt lat="47.1408540" lon="6.7656190">
        <ele>949.4</ele>
        <time>2022-07-21T13:59:21Z</time>
      </trkpt>
      <trkpt lat="47.1408570" lon="6.7656120">
        <ele>949.4</ele>
        <time>2022-07-21T13:59:22Z</time>
      </trkpt>
      <trkpt lat="47.1408590" lon="6.7656070">
        <ele>949.4</ele>
        <time>2022-07-21T13:59:23Z</time>
      </trkpt>
      <trkpt lat="47.1408580" lon="6.7656040">
        <ele>949.4</ele>
        <time>2022-07-21T13:59:24Z</time>
      </trkpt>
      <trkpt lat="47.1408600" lon="6.7656040">
        <ele>949.4</ele>
        <time>2022-07-21T13:59:25Z</time>
      </trkpt>
      <trkpt lat="47.1408650" lon="6.7656070">
        <ele>949.5</ele>
        <time>2022-07-21T13:59:26Z</time>
      </trkpt>
      <trkpt lat="47.1408700" lon="6.7656100">
        <ele>949.5</ele>
        <time>2022-07-21T13:59:27Z</time>
      </trkpt>
      <trkpt lat="47.1408730" lon="6.7656120">
        <ele>949.5</ele>
        <time>2022-07-21T13:59:28Z</time>
      </trkpt>
      <trkpt lat="47.1408740" lon="6.7656130">
        <ele>949.5</ele>
        <time>2022-07-21T13:59:29Z</time>
      </trkpt>
      <trkpt lat="47.1408680" lon="6.7655980">
        <ele>949.6</ele>
        <time>2022-07-21T13:59:30Z</time>
      </trkpt>
      <trkpt lat="47.1408640" lon="6.7655830">
        <ele>949.6</ele>
        <time>2022-07-21T13:59:31Z</time>
      </trkpt>
      <trkpt lat="47.1408600" lon="6.7655650">
        <ele>949.7</ele>
        <time>2022-07-21T13:59:32Z</time>
      </trkpt>
      <trkpt lat="47.1408590" lon="6.7655470">
        <ele>949.7</ele>
        <time>2022-07-21T13:59:33Z</time>
      </trkpt>
      <trkpt lat="47.1408580" lon="6.7655290">
        <ele>949.8</ele>
        <time>2022-07-21T13:59:34Z</time>
      </trkpt>
      <trkpt lat="47.1408560" lon="6.7655120">
        <ele>949.8</ele>
        <time>2022-07-21T13:59:36Z</time>
      </trkpt>
      <trkpt lat="47.1408550" lon="6.7654940">
        <ele>949.9</ele>
        <time>2022-07-21T13:59:37Z</time>
      </trkpt>
      <trkpt lat="47.1408540" lon="6.7654760">
        <ele>949.9</ele>
        <time>2022-07-21T13:59:38Z</time>
      </trkpt>
      <trkpt lat="47.1408480" lon="6.7654230">
        <ele>950.1</ele>
        <time>2022-07-21T13:59:39Z</time>
      </trkpt>
      <trkpt lat="47.1408450" lon="6.7654060">
        <ele>950.1</ele>
        <time>2022-07-21T13:59:40Z</time>
      </trkpt>
      <trkpt lat="47.1408410" lon="6.7653660">
        <ele>950.2</ele>
        <time>2022-07-21T13:59:41Z</time>
      </trkpt>
      <trkpt lat="47.1408330" lon="6.7653110">
        <ele>950.3</ele>
        <time>2022-07-21T13:59:42Z</time>
      </trkpt>
      <trkpt lat="47.1408260" lon="6.7652650">
        <ele>950.4</ele>
        <time>2022-07-21T13:59:44Z</time>
      </trkpt>
      <trkpt lat="47.1408250" lon="6.7652530">
        <ele>950.5</ele>
        <time>2022-07-21T13:59:45Z</time>
      </trkpt>
      <trkpt lat="47.1408230" lon="6.7652360">
        <ele>950.5</ele>
        <time>2022-07-21T13:59:46Z</time>
      </trkpt>
      <trkpt lat="47.1408190" lon="6.7652230">
        <ele>950.5</ele>
        <time>2022-07-21T13:59:47Z</time>
      </trkpt>
      <trkpt lat="47.1408110" lon="6.7652100">
        <ele>950.6</ele>
        <time>2022-07-21T13:59:48Z</time>
      </trkpt>
      <trkpt lat="47.1407960" lon="6.7651800">
        <ele>950.7</ele>
        <time>2022-07-21T13:59:49Z</time>
      </trkpt>
      <trkpt lat="47.1407870" lon="6.7651660">
        <ele>950.7</ele>
        <time>2022-07-21T13:59:51Z</time>
      </trkpt>
      <trkpt lat="47.1407790" lon="6.7651510">
        <ele>950.8</ele>
        <time>2022-07-21T13:59:52Z</time>
      </trkpt>
      <trkpt lat="47.1407700" lon="6.7651360">
        <ele>950.8</ele>
        <time>2022-07-21T13:59:53Z</time>
      </trkpt>
      <trkpt lat="47.1407530" lon="6.7651210">
        <ele>950.9</ele>
        <time>2022-07-21T13:59:54Z</time>
      </trkpt>
      <trkpt lat="47.1407460" lon="6.7651010">
        <ele>951.0</ele>
        <time>2022-07-21T13:59:55Z</time>
      </trkpt>
      <trkpt lat="47.1407390" lon="6.7650770">
        <ele>951.0</ele>
        <time>2022-07-21T13:59:56Z</time>
      </trkpt>
      <trkpt lat="47.1407340" lon="6.7650540">
        <ele>951.1</ele>
        <time>2022-07-21T13:59:57Z</time>
      </trkpt>
      <trkpt lat="47.1407280" lon="6.7650340">
        <ele>951.2</ele>
        <time>2022-07-21T13:59:58Z</time>
      </trkpt>
      <trkpt lat="47.1407180" lon="6.7650000">
        <ele>951.3</ele>
        <time>2022-07-21T14:00:00Z</time>
      </trkpt>
      <trkpt lat="47.1406970" lon="6.7649410">
        <ele>951.5</ele>
        <time>2022-07-21T14:00:02Z</time>
      </trkpt>
      <trkpt lat="47.1406780" lon="6.7648960">
        <ele>951.7</ele>
        <time>2022-07-21T14:00:03Z</time>
      </trkpt>
      <trkpt lat="47.1406720" lon="6.7648820">
        <ele>951.7</ele>
        <time>2022-07-21T14:00:04Z</time>
      </trkpt>
      <trkpt lat="47.1406560" lon="6.7648260">
        <ele>951.9</ele>
        <time>2022-07-21T14:00:06Z</time>
      </trkpt>
      <trkpt lat="47.1406520" lon="6.7648090">
        <ele>952.0</ele>
        <time>2022-07-21T14:00:07Z</time>
      </trkpt>
      <trkpt lat="47.1406470" lon="6.7647920">
        <ele>952.1</ele>
        <time>2022-07-21T14:00:08Z</time>
      </trkpt>
      <trkpt lat="47.1406290" lon="6.7647500">
        <ele>952.2</ele>
        <time>2022-07-21T14:00:09Z</time>
      </trkpt>
      <trkpt lat="47.1406220" lon="6.7647350">
        <ele>952.3</ele>
        <time>2022-07-21T14:00:10Z</time>
      </trkpt>
      <trkpt lat="47.1406180" lon="6.7647290">
        <ele>952.3</ele>
        <time>2022-07-21T14:00:11Z</time>
      </trkpt>
      <trkpt lat="47.1406250" lon="6.7647150">
        <ele>952.4</ele>
        <time>2022-07-21T14:00:12Z</time>
      </trkpt>
      <trkpt lat="47.1406250" lon="6.7646920">
        <ele>952.4</ele>
        <time>2022-07-21T14:00:13Z</time>
      </trkpt>
      <trkpt lat="47.1406210" lon="6.7646610">
        <ele>952.5</ele>
        <time>2022-07-21T14:00:15Z</time>
      </trkpt>
      <trkpt lat="47.1406220" lon="6.7646450">
        <ele>952.6</ele>
        <time>2022-07-21T14:00:16Z</time>
      </trkpt>
      <trkpt lat="47.1406210" lon="6.7646310">
        <ele>952.6</ele>
        <time>2022-07-21T14:00:17Z</time>
      </trkpt>
      <trkpt lat="47.1406180" lon="6.7645960">
        <ele>952.7</ele>
        <time>2022-07-21T14:00:18Z</time>
      </trkpt>
      <trkpt lat="47.1406110" lon="6.7645760">
        <ele>952.7</ele>
        <time>2022-07-21T14:00:19Z</time>
      </trkpt>
      <trkpt lat="47.1406060" lon="6.7645530">
        <ele>952.8</ele>
        <time>2022-07-21T14:00:20Z</time>
      </trkpt>
      <trkpt lat="47.1405800" lon="6.7645110">
        <ele>952.9</ele>
        <time>2022-07-21T14:00:21Z</time>
      </trkpt>
      <trkpt lat="47.1405690" lon="6.7644980">
        <ele>952.9</ele>
        <time>2022-07-21T14:00:22Z</time>
      </trkpt>
      <trkpt lat="47.1405460" lon="6.7644620">
        <ele>953.0</ele>
        <time>2022-07-21T14:00:23Z</time>
      </trkpt>
      <trkpt lat="47.1405210" lon="6.7644250">
        <ele>953.1</ele>
        <time>2022-07-21T14:00:25Z</time>
      </trkpt>
      <trkpt lat="47.1405160" lon="6.7644150">
        <ele>953.1</ele>
        <time>2022-07-21T14:00:26Z</time>
      </trkpt>
      <trkpt lat="47.1404940" lon="6.7643740">
        <ele>953.2</ele>
        <time>2022-07-21T14:00:27Z</time>
      </trkpt>
      <trkpt lat="47.1404870" lon="6.7643620">
        <ele>953.2</ele>
        <time>2022-07-21T14:00:28Z</time>
      </trkpt>
      <trkpt lat="47.1404790" lon="6.7643440">
        <ele>953.2</ele>
        <time>2022-07-21T14:00:29Z</time>
      </trkpt>
      <trkpt lat="47.1404690" lon="6.7643180">
        <ele>953.3</ele>
        <time>2022-07-21T14:00:30Z</time>
      </trkpt>
      <trkpt lat="47.1404560" lon="6.7642780">
        <ele>953.3</ele>
        <time>2022-07-21T14:00:31Z</time>
      </trkpt>
      <trkpt lat="47.1404520" lon="6.7642680">
        <ele>953.4</ele>
        <time>2022-07-21T14:00:32Z</time>
      </trkpt>
      <trkpt lat="47.1404300" lon="6.7642040">
        <ele>953.4</ele>
        <time>2022-07-21T14:00:33Z</time>
      </trkpt>
      <trkpt lat="47.1404180" lon="6.7641610">
        <ele>953.5</ele>
        <time>2022-07-21T14:00:34Z</time>
      </trkpt>
      <trkpt lat="47.1404130" lon="6.7641370">
        <ele>953.5</ele>
        <time>2022-07-21T14:00:35Z</time>
      </trkpt>
      <trkpt lat="47.1404100" lon="6.7640970">
        <ele>953.6</ele>
        <time>2022-07-21T14:00:37Z</time>
      </trkpt>
      <trkpt lat="47.1404000" lon="6.7640650">
        <ele>953.6</ele>
        <time>2022-07-21T14:00:38Z</time>
      </trkpt>
      <trkpt lat="47.1403850" lon="6.7640400">
        <ele>953.7</ele>
        <time>2022-07-21T14:00:40Z</time>
      </trkpt>
      <trkpt lat="47.1403640" lon="6.7640050">
        <ele>953.7</ele>
        <time>2022-07-21T14:00:41Z</time>
      </trkpt>
      <trkpt lat="47.1403590" lon="6.7639950">
        <ele>953.7</ele>
        <time>2022-07-21T14:00:42Z</time>
      </trkpt>
      <trkpt lat="47.1403590" lon="6.7639600">
        <ele>953.7</ele>
        <time>2022-07-21T14:00:43Z</time>
      </trkpt>
      <trkpt lat="47.1403640" lon="6.7639410">
        <ele>953.8</ele>
        <time>2022-07-21T14:00:44Z</time>
      </trkpt>
      <trkpt lat="47.1403620" lon="6.7639260">
        <ele>953.8</ele>
        <time>2022-07-21T14:00:45Z</time>
      </trkpt>
      <trkpt lat="47.1403600" lon="6.7639190">
        <ele>953.8</ele>
        <time>2022-07-21T14:00:46Z</time>
      </trkpt>
      <trkpt lat="47.1403630" lon="6.7639190">
        <ele>953.8</ele>
        <time>2022-07-21T14:00:47Z</time>
      </trkpt>
      <trkpt lat="47.1403680" lon="6.7639200">
        <ele>953.8</ele>
        <time>2022-07-21T14:00:48Z</time>
      </trkpt>
      <trkpt lat="47.1403720" lon="6.7639200">
        <ele>953.8</ele>
        <time>2022-07-21T14:00:49Z</time>
      </trkpt>
      <trkpt lat="47.1403740" lon="6.7639190">
        <ele>953.8</ele>
        <time>2022-07-21T14:00:50Z</time>
      </trkpt>
      <trkpt lat="47.1403750" lon="6.7639180">
        <ele>953.8</ele>
        <time>2022-07-21T14:00:51Z</time>
      </trkpt>
      <trkpt lat="47.1403750" lon="6.7639170">
        <ele>953.8</ele>
        <time>2022-07-21T14:00:52Z</time>
      </trkpt>
      <trkpt lat="47.1403740" lon="6.7639170">
        <ele>953.8</ele>
        <time>2022-07-21T14:00:53Z</time>
      </trkpt>
      <trkpt lat="47.1403730" lon="6.7639170">
        <ele>953.8</ele>
        <time>2022-07-21T14:00:54Z</time>
      </trkpt>
      <trkpt lat="47.1403730" lon="6.7639160">
        <ele>953.8</ele>
        <time>2022-07-21T14:00:55Z</time>
      </trkpt>
      <trkpt lat="47.1403820" lon="6.7638630">
        <ele>953.8</ele>
        <time>2022-07-21T14:01:13Z</time>
      </trkpt>
      <trkpt lat="47.1403830" lon="6.7638570">
        <ele>953.8</ele>
        <time>2022-07-21T14:01:14Z</time>
      </trkpt>
      <trkpt lat="47.1403830" lon="6.7638540">
        <ele>953.8</ele>
        <time>2022-07-21T14:01:15Z</time>
      </trkpt>
      <trkpt lat="47.1403790" lon="6.7638490">
        <ele>953.8</ele>
        <time>2022-07-21T14:01:16Z</time>
      </trkpt>
      <trkpt lat="47.1403750" lon="6.7638450">
        <ele>953.9</ele>
        <time>2022-07-21T14:01:17Z</time>
      </trkpt>
      <trkpt lat="47.1403720" lon="6.7638440">
        <ele>953.9</ele>
        <time>2022-07-21T14:01:18Z</time>
      </trkpt>
      <trkpt lat="47.1403690" lon="6.7638450">
        <ele>953.9</ele>
        <time>2022-07-21T14:01:19Z</time>
      </trkpt>
      <trkpt lat="47.1403700" lon="6.7638470">
        <ele>953.9</ele>
        <time>2022-07-21T14:01:20Z</time>
      </trkpt>
      <trkpt lat="47.1403710" lon="6.7638480">
        <ele>953.9</ele>
        <time>2022-07-21T14:01:21Z</time>
      </trkpt>
      <trkpt lat="47.1403710" lon="6.7638480">
        <ele>953.9</ele>
        <time>2022-07-21T14:01:22Z</time>
      </trkpt>
      <trkpt lat="47.1403710" lon="6.7638470">
        <ele>953.9</ele>
        <time>2022-07-21T14:01:23Z</time>
      </trkpt>
      <trkpt lat="47.1403710" lon="6.7638470">
        <ele>953.9</ele>
        <time>2022-07-21T14:01:24Z</time>
      </trkpt>
      <trkpt lat="47.1403710" lon="6.7638460">
        <ele>953.9</ele>
        <time>2022-07-21T14:01:25Z</time>
      </trkpt>
      <trkpt lat="47.1403700" lon="6.7638450">
        <ele>953.9</ele>
        <time>2022-07-21T14:01:26Z</time>
      </trkpt>
      <trkpt lat="47.1403690" lon="6.7638440">
        <ele>953.9</ele>
        <time>2022-07-21T14:01:27Z</time>
      </trkpt>
      <trkpt lat="47.1403690" lon="6.7638440">
        <ele>953.9</ele>
        <time>2022-07-21T14:01:28Z</time>
      </trkpt>
      <trkpt lat="47.1403530" lon="6.7637750">
        <ele>953.9</ele>
        <time>2022-07-21T14:02:43Z</time>
      </trkpt>
      <trkpt lat="47.1403500" lon="6.7637690">
        <ele>953.9</ele>
        <time>2022-07-21T14:02:44Z</time>
      </trkpt>
      <trkpt lat="47.1403470" lon="6.7637650">
        <ele>953.9</ele>
        <time>2022-07-21T14:02:45Z</time>
      </trkpt>
      <trkpt lat="47.1403450" lon="6.7637640">
        <ele>953.9</ele>
        <time>2022-07-21T14:02:46Z</time>
      </trkpt>
      <trkpt lat="47.1403450" lon="6.7637630">
        <ele>953.9</ele>
        <time>2022-07-21T14:02:47Z</time>
      </trkpt>
      <trkpt lat="47.1403450" lon="6.7637630">
        <ele>953.9</ele>
        <time>2022-07-21T14:02:48Z</time>
      </trkpt>
      <trkpt lat="47.1403450" lon="6.7637630">
        <ele>953.9</ele>
        <time>2022-07-21T14:02:49Z</time>
      </trkpt>
      <trkpt lat="47.1403450" lon="6.7637640">
        <ele>953.9</ele>
        <time>2022-07-21T14:02:50Z</time>
      </trkpt>
      <trkpt lat="47.1403460" lon="6.7637660">
        <ele>953.9</ele>
        <time>2022-07-21T14:02:51Z</time>
      </trkpt>
      <trkpt lat="47.1403470" lon="6.7637680">
        <ele>953.9</ele>
        <time>2022-07-21T14:02:52Z</time>
      </trkpt>
      <trkpt lat="47.1403460" lon="6.7637710">
        <ele>953.9</ele>
        <time>2022-07-21T14:02:53Z</time>
      </trkpt>
      <trkpt lat="47.1403410" lon="6.7637730">
        <ele>953.9</ele>
        <time>2022-07-21T14:02:54Z</time>
      </trkpt>
      <trkpt lat="47.1403390" lon="6.7637760">
        <ele>953.9</ele>
        <time>2022-07-21T14:02:55Z</time>
      </trkpt>
      <trkpt lat="47.1403400" lon="6.7637790">
        <ele>953.9</ele>
        <time>2022-07-21T14:02:56Z</time>
      </trkpt>
      <trkpt lat="47.1403420" lon="6.7637820">
        <ele>954.0</ele>
        <time>2022-07-21T14:02:57Z</time>
      </trkpt>
      <trkpt lat="47.1403430" lon="6.7637850">
        <ele>954.0</ele>
        <time>2022-07-21T14:02:58Z</time>
      </trkpt>
      <trkpt lat="47.1403410" lon="6.7637840">
        <ele>954.0</ele>
        <time>2022-07-21T14:02:59Z</time>
      </trkpt>
      <trkpt lat="47.1403350" lon="6.7637830">
        <ele>954.0</ele>
        <time>2022-07-21T14:03:00Z</time>
      </trkpt>
      <trkpt lat="47.1403280" lon="6.7637790">
        <ele>954.0</ele>
        <time>2022-07-21T14:03:01Z</time>
      </trkpt>
      <trkpt lat="47.1403240" lon="6.7637760">
        <ele>954.0</ele>
        <time>2022-07-21T14:03:02Z</time>
      </trkpt>
      <trkpt lat="47.1403230" lon="6.7637750">
        <ele>954.0</ele>
        <time>2022-07-21T14:03:03Z</time>
      </trkpt>
      <trkpt lat="47.1403230" lon="6.7637750">
        <ele>954.0</ele>
        <time>2022-07-21T14:03:04Z</time>
      </trkpt>
      <trkpt lat="47.1403300" lon="6.7637770">
        <ele>954.0</ele>
        <time>2022-07-21T14:03:05Z</time>
      </trkpt>
      <trkpt lat="47.1403360" lon="6.7637770">
        <ele>954.0</ele>
        <time>2022-07-21T14:03:06Z</time>
      </trkpt>
      <trkpt lat="47.1403410" lon="6.7637780">
        <ele>954.0</ele>
        <time>2022-07-21T14:03:07Z</time>
      </trkpt>
      <trkpt lat="47.1403450" lon="6.7637770">
        <ele>954.0</ele>
        <time>2022-07-21T14:03:08Z</time>
      </trkpt>
      <trkpt lat="47.1403470" lon="6.7637770">
        <ele>954.0</ele>
        <time>2022-07-21T14:03:09Z</time>
      </trkpt>
      <trkpt lat="47.1403510" lon="6.7637750">
        <ele>954.0</ele>
        <time>2022-07-21T14:03:10Z</time>
      </trkpt>
      <trkpt lat="47.1403590" lon="6.7637770">
        <ele>954.0</ele>
        <time>2022-07-21T14:03:11Z</time>
      </trkpt>
      <trkpt lat="47.1403690" lon="6.7637780">
        <ele>954.0</ele>
        <time>2022-07-21T14:03:12Z</time>
      </trkpt>
      <trkpt lat="47.1403830" lon="6.7637770">
        <ele>954.0</ele>
        <time>2022-07-21T14:03:13Z</time>
      </trkpt>
      <trkpt lat="47.1403920" lon="6.7637750">
        <ele>954.0</ele>
        <time>2022-07-21T14:03:14Z</time>
      </trkpt>
      <trkpt lat="47.1403930" lon="6.7637740">
        <ele>954.0</ele>
        <time>2022-07-21T14:03:15Z</time>
      </trkpt>
      <trkpt lat="47.1403920" lon="6.7637740">
        <ele>954.0</ele>
        <time>2022-07-21T14:03:16Z</time>
      </trkpt>
      <trkpt lat="47.1403890" lon="6.7637770">
        <ele>954.0</ele>
        <time>2022-07-21T14:03:17Z</time>
      </trkpt>
      <trkpt lat="47.1403860" lon="6.7637800">
        <ele>954.0</ele>
        <time>2022-07-21T14:03:18Z</time>
      </trkpt>
      <trkpt lat="47.1403820" lon="6.7637840">
        <ele>954.0</ele>
        <time>2022-07-21T14:03:19Z</time>
      </trkpt>
      <trkpt lat="47.1403800" lon="6.7637860">
        <ele>954.0</ele>
        <time>2022-07-21T14:03:20Z</time>
      </trkpt>
      <trkpt lat="47.1403780" lon="6.7637860">
        <ele>954.0</ele>
        <time>2022-07-21T14:03:21Z</time>
      </trkpt>
      <trkpt lat="47.1403770" lon="6.7637850">
        <ele>954.0</ele>
        <time>2022-07-21T14:03:22Z</time>
      </trkpt>
      <trkpt lat="47.1403770" lon="6.7637840">
        <ele>954.0</ele>
        <time>2022-07-21T14:03:23Z</time>
      </trkpt>
      <trkpt lat="47.1403780" lon="6.7637810">
        <ele>954.0</ele>
        <time>2022-07-21T14:03:24Z</time>
      </trkpt>
      <trkpt lat="47.1403780" lon="6.7637790">
        <ele>954.0</ele>
        <time>2022-07-21T14:03:25Z</time>
      </trkpt>
      <trkpt lat="47.1403780" lon="6.7637780">
        <ele>954.0</ele>
        <time>2022-07-21T14:03:26Z</time>
      </trkpt>
      <trkpt lat="47.1403780" lon="6.7637780">
        <ele>954.0</ele>
        <time>2022-07-21T14:03:27Z</time>
      </trkpt>
      <trkpt lat="47.1403780" lon="6.7637780">
        <ele>954.0</ele>
        <time>2022-07-21T14:03:28Z</time>
      </trkpt>
      <trkpt lat="47.1403780" lon="6.7637780">
        <ele>954.0</ele>
        <time>2022-07-21T14:03:29Z</time>
      </trkpt>
      <trkpt lat="47.1403790" lon="6.7637790">
        <ele>954.0</ele>
        <time>2022-07-21T14:03:30Z</time>
      </trkpt>
      <trkpt lat="47.1404210" lon="6.7637810">
        <ele>954.1</ele>
        <time>2022-07-21T14:05:13Z</time>
      </trkpt>
      <trkpt lat="47.1404170" lon="6.7637810">
        <ele>954.1</ele>
        <time>2022-07-21T14:05:14Z</time>
      </trkpt>
      <trkpt lat="47.1404140" lon="6.7637800">
        <ele>954.1</ele>
        <time>2022-07-21T14:05:15Z</time>
      </trkpt>
      <trkpt lat="47.1404080" lon="6.7637790">
        <ele>954.1</ele>
        <time>2022-07-21T14:05:16Z</time>
      </trkpt>
      <trkpt lat="47.1404040" lon="6.7637790">
        <ele>954.1</ele>
        <time>2022-07-21T14:05:17Z</time>
      </trkpt>
      <trkpt lat="47.1404020" lon="6.7637800">
        <ele>954.1</ele>
        <time>2022-07-21T14:05:18Z</time>
      </trkpt>
      <trkpt lat="47.1404020" lon="6.7637810">
        <ele>954.1</ele>
        <time>2022-07-21T14:05:19Z</time>
      </trkpt>
      <trkpt lat="47.1404020" lon="6.7637820">
        <ele>954.1</ele>
        <time>2022-07-21T14:05:20Z</time>
      </trkpt>
      <trkpt lat="47.1404020" lon="6.7637820">
        <ele>954.1</ele>
        <time>2022-07-21T14:05:21Z</time>
      </trkpt>
      <trkpt lat="47.1404020" lon="6.7637830">
        <ele>954.1</ele>
        <time>2022-07-21T14:05:22Z</time>
      </trkpt>
      <trkpt lat="47.1404010" lon="6.7637850">
        <ele>954.1</ele>
        <time>2022-07-21T14:05:23Z</time>
      </trkpt>
      <trkpt lat="47.1404000" lon="6.7637870">
        <ele>954.1</ele>
        <time>2022-07-21T14:05:24Z</time>
      </trkpt>
      <trkpt lat="47.1404000" lon="6.7637880">
        <ele>954.1</ele>
        <time>2022-07-21T14:05:25Z</time>
      </trkpt>
      <trkpt lat="47.1403990" lon="6.7637900">
        <ele>954.1</ele>
        <time>2022-07-21T14:05:26Z</time>
      </trkpt>
      <trkpt lat="47.1403990" lon="6.7637910">
        <ele>954.1</ele>
        <time>2022-07-21T14:05:27Z</time>
      </trkpt>
      <trkpt lat="47.1403600" lon="6.7638290">
        <ele>954.1</ele>
        <time>2022-07-21T14:13:21Z</time>
      </trkpt>
      <trkpt lat="47.1403640" lon="6.7638290">
        <ele>954.1</ele>
        <time>2022-07-21T14:13:22Z</time>
      </trkpt>
      <trkpt lat="47.1403700" lon="6.7638300">
        <ele>954.1</ele>
        <time>2022-07-21T14:13:23Z</time>
      </trkpt>
      <trkpt lat="47.1403740" lon="6.7638330">
        <ele>954.1</ele>
        <time>2022-07-21T14:13:24Z</time>
      </trkpt>
      <trkpt lat="47.1403750" lon="6.7638370">
        <ele>954.2</ele>
        <time>2022-07-21T14:13:25Z</time>
      </trkpt>
      <trkpt lat="47.1403760" lon="6.7638400">
        <ele>954.2</ele>
        <time>2022-07-21T14:13:26Z</time>
      </trkpt>
      <trkpt lat="47.1403780" lon="6.7638400">
        <ele>954.2</ele>
        <time>2022-07-21T14:13:27Z</time>
      </trkpt>
      <trkpt lat="47.1403810" lon="6.7638400">
        <ele>954.2</ele>
        <time>2022-07-21T14:13:28Z</time>
      </trkpt>
      <trkpt lat="47.1403840" lon="6.7638390">
        <ele>954.2</ele>
        <time>2022-07-21T14:13:29Z</time>
      </trkpt>
      <trkpt lat="47.1403860" lon="6.7638380">
        <ele>954.2</ele>
        <time>2022-07-21T14:13:30Z</time>
      </trkpt>
      <trkpt lat="47.1403880" lon="6.7638380">
        <ele>954.2</ele>
        <time>2022-07-21T14:13:31Z</time>
      </trkpt>
      <trkpt lat="47.1403890" lon="6.7638380">
        <ele>954.2</ele>
        <time>2022-07-21T14:13:32Z</time>
      </trkpt>
      <trkpt lat="47.1403900" lon="6.7638390">
        <ele>954.2</ele>
        <time>2022-07-21T14:13:33Z</time>
      </trkpt>
      <trkpt lat="47.1403900" lon="6.7638410">
        <ele>954.2</ele>
        <time>2022-07-21T14:13:34Z</time>
      </trkpt>
      <trkpt lat="47.1403910" lon="6.7638400">
        <ele>954.2</ele>
        <time>2022-07-21T14:13:35Z</time>
      </trkpt>
      <trkpt lat="47.1404050" lon="6.7637560">
        <ele>954.3</ele>
        <time>2022-07-21T14:15:08Z</time>
      </trkpt>
      <trkpt lat="47.1404070" lon="6.7637430">
        <ele>954.3</ele>
        <time>2022-07-21T14:15:09Z</time>
      </trkpt>
      <trkpt lat="47.1404100" lon="6.7637290">
        <ele>954.3</ele>
        <time>2022-07-21T14:15:10Z</time>
      </trkpt>
      <trkpt lat="47.1404120" lon="6.7637190">
        <ele>954.3</ele>
        <time>2022-07-21T14:15:11Z</time>
      </trkpt>
      <trkpt lat="47.1404120" lon="6.7637130">
        <ele>954.3</ele>
        <time>2022-07-21T14:15:12Z</time>
      </trkpt>
      <trkpt lat="47.1404130" lon="6.7637170">
        <ele>954.3</ele>
        <time>2022-07-21T14:15:13Z</time>
      </trkpt>
      <trkpt lat="47.1404190" lon="6.7637300">
        <ele>954.3</ele>
        <time>2022-07-21T14:15:14Z</time>
      </trkpt>
      <trkpt lat="47.1404220" lon="6.7637390">
        <ele>954.3</ele>
        <time>2022-07-21T14:15:15Z</time>
      </trkpt>
      <trkpt lat="47.1404240" lon="6.7637450">
        <ele>954.3</ele>
        <time>2022-07-21T14:15:16Z</time>
      </trkpt>
      <trkpt lat="47.1404250" lon="6.7637500">
        <ele>954.3</ele>
        <time>2022-07-21T14:15:17Z</time>
      </trkpt>
      <trkpt lat="47.1404250" lon="6.7637530">
        <ele>954.4</ele>
        <time>2022-07-21T14:15:18Z</time>
      </trkpt>
      <trkpt lat="47.1404250" lon="6.7637510">
        <ele>954.4</ele>
        <time>2022-07-21T14:15:19Z</time>
      </trkpt>
      <trkpt lat="47.1404250" lon="6.7637490">
        <ele>954.4</ele>
        <time>2022-07-21T14:15:20Z</time>
      </trkpt>
      <trkpt lat="47.1404260" lon="6.7637460">
        <ele>954.4</ele>
        <time>2022-07-21T14:15:21Z</time>
      </trkpt>
      <trkpt lat="47.1404260" lon="6.7637440">
        <ele>954.4</ele>
        <time>2022-07-21T14:15:22Z</time>
      </trkpt>
      <trkpt lat="47.1404260" lon="6.7637420">
        <ele>954.4</ele>
        <time>2022-07-21T14:15:23Z</time>
      </trkpt>
      <trkpt lat="47.1404260" lon="6.7637400">
        <ele>954.4</ele>
        <time>2022-07-21T14:15:24Z</time>
      </trkpt>
      <trkpt lat="47.1404260" lon="6.7637380">
        <ele>954.4</ele>
        <time>2022-07-21T14:15:25Z</time>
      </trkpt>
      <trkpt lat="47.1404270" lon="6.7637360">
        <ele>954.4</ele>
        <time>2022-07-21T14:15:26Z</time>
      </trkpt>
      <trkpt lat="47.1404270" lon="6.7637340">
        <ele>954.4</ele>
        <time>2022-07-21T14:15:27Z</time>
      </trkpt>
      <trkpt lat="47.1404270" lon="6.7637320">
        <ele>954.4</ele>
        <time>2022-07-21T14:15:28Z</time>
      </trkpt>
      <trkpt lat="47.1404270" lon="6.7637300">
        <ele>954.4</ele>
        <time>2022-07-21T14:15:29Z</time>
      </trkpt>
      <trkpt lat="47.1404280" lon="6.7637270">
        <ele>954.4</ele>
        <time>2022-07-21T14:15:30Z</time>
      </trkpt>
      <trkpt lat="47.1404280" lon="6.7637250">
        <ele>954.4</ele>
        <time>2022-07-21T14:15:31Z</time>
      </trkpt>
      <trkpt lat="47.1404280" lon="6.7637230">
        <ele>954.4</ele>
        <time>2022-07-21T14:15:32Z</time>
      </trkpt>
      <trkpt lat="47.1404280" lon="6.7637210">
        <ele>954.4</ele>
        <time>2022-07-21T14:15:33Z</time>
      </trkpt>
      <trkpt lat="47.1404290" lon="6.7637190">
        <ele>954.4</ele>
        <time>2022-07-21T14:15:34Z</time>
      </trkpt>
      <trkpt lat="47.1404290" lon="6.7637170">
        <ele>954.4</ele>
        <time>2022-07-21T14:15:35Z</time>
      </trkpt>
      <trkpt lat="47.1404290" lon="6.7637150">
        <ele>954.4</ele>
        <time>2022-07-21T14:15:36Z</time>
      </trkpt>
      <trkpt lat="47.1404290" lon="6.7637130">
        <ele>954.4</ele>
        <time>2022-07-21T14:15:37Z</time>
      </trkpt>
      <trkpt lat="47.1404290" lon="6.7637110">
        <ele>954.4</ele>
        <time>2022-07-21T14:15:38Z</time>
      </trkpt>
      <trkpt lat="47.1404300" lon="6.7637080">
        <ele>954.4</ele>
        <time>2022-07-21T14:15:39Z</time>
      </trkpt>
      <trkpt lat="47.1404300" lon="6.7637060">
        <ele>954.4</ele>
        <time>2022-07-21T14:15:40Z</time>
      </trkpt>
      <trkpt lat="47.1404300" lon="6.7637040">
        <ele>954.4</ele>
        <time>2022-07-21T14:15:41Z</time>
      </trkpt>
      <trkpt lat="47.1404300" lon="6.7637020">
        <ele>954.4</ele>
        <time>2022-07-21T14:15:42Z</time>
      </trkpt>
      <trkpt lat="47.1404310" lon="6.7637000">
        <ele>954.4</ele>
        <time>2022-07-21T14:15:43Z</time>
      </trkpt>
      <trkpt lat="47.1404310" lon="6.7636980">
        <ele>954.4</ele>
        <time>2022-07-21T14:15:44Z</time>
      </trkpt>
      <trkpt lat="47.1404310" lon="6.7636960">
        <ele>954.4</ele>
        <time>2022-07-21T14:15:45Z</time>
      </trkpt>
      <trkpt lat="47.1404310" lon="6.7636940">
        <ele>954.4</ele>
        <time>2022-07-21T14:15:46Z</time>
      </trkpt>
      <trkpt lat="47.1404320" lon="6.7636920">
        <ele>954.4</ele>
        <time>2022-07-21T14:15:47Z</time>
      </trkpt>
      <trkpt lat="47.1404320" lon="6.7636890">
        <ele>954.4</ele>
        <time>2022-07-21T14:15:48Z</time>
      </trkpt>
      <trkpt lat="47.1404320" lon="6.7636870">
        <ele>954.4</ele>
        <time>2022-07-21T14:16:10Z</time>
      </trkpt>
      <trkpt lat="47.1404320" lon="6.7636850">
        <ele>954.4</ele>
        <time>2022-07-21T14:16:11Z</time>
      </trkpt>
      <trkpt lat="47.1404320" lon="6.7636830">
        <ele>954.4</ele>
        <time>2022-07-21T14:16:12Z</time>
      </trkpt>
      <trkpt lat="47.1404330" lon="6.7636810">
        <ele>954.4</ele>
        <time>2022-07-21T14:16:13Z</time>
      </trkpt>
      <trkpt lat="47.1404330" lon="6.7636790">
        <ele>954.4</ele>
        <time>2022-07-21T14:16:14Z</time>
      </trkpt>
      <trkpt lat="47.1404330" lon="6.7636770">
        <ele>954.4</ele>
        <time>2022-07-21T14:16:15Z</time>
      </trkpt>
      <trkpt lat="47.1404330" lon="6.7636750">
        <ele>954.4</ele>
        <time>2022-07-21T14:16:16Z</time>
      </trkpt>
      <trkpt lat="47.1404340" lon="6.7636730">
        <ele>954.4</ele>
        <time>2022-07-21T14:16:17Z</time>
      </trkpt>
      <trkpt lat="47.1404340" lon="6.7636700">
        <ele>954.5</ele>
        <time>2022-07-21T14:16:18Z</time>
      </trkpt>
      <trkpt lat="47.1404340" lon="6.7636680">
        <ele>954.5</ele>
        <time>2022-07-21T14:16:19Z</time>
      </trkpt>
      <trkpt lat="47.1404340" lon="6.7636660">
        <ele>954.5</ele>
        <time>2022-07-21T14:16:20Z</time>
      </trkpt>
      <trkpt lat="47.1404350" lon="6.7636640">
        <ele>954.5</ele>
        <time>2022-07-21T14:16:21Z</time>
      </trkpt>
      <trkpt lat="47.1404350" lon="6.7636620">
        <ele>954.5</ele>
        <time>2022-07-21T14:16:22Z</time>
      </trkpt>
      <trkpt lat="47.1404350" lon="6.7636600">
        <ele>954.5</ele>
        <time>2022-07-21T14:17:53Z</time>
      </trkpt>
      <trkpt lat="47.1404350" lon="6.7636580">
        <ele>954.5</ele>
        <time>2022-07-21T14:17:54Z</time>
      </trkpt>
      <trkpt lat="47.1404350" lon="6.7636560">
        <ele>954.5</ele>
        <time>2022-07-21T14:17:55Z</time>
      </trkpt>
      <trkpt lat="47.1404310" lon="6.7636260">
        <ele>954.5</ele>
        <time>2022-07-21T14:17:56Z</time>
      </trkpt>
      <trkpt lat="47.1404260" lon="6.7636050">
        <ele>954.6</ele>
        <time>2022-07-21T14:17:57Z</time>
      </trkpt>
      <trkpt lat="47.1404130" lon="6.7635650">
        <ele>954.6</ele>
        <time>2022-07-21T14:17:58Z</time>
      </trkpt>
      <trkpt lat="47.1404060" lon="6.7635480">
        <ele>954.7</ele>
        <time>2022-07-21T14:17:59Z</time>
      </trkpt>
      <trkpt lat="47.1403890" lon="6.7635000">
        <ele>954.8</ele>
        <time>2022-07-21T14:18:00Z</time>
      </trkpt>
      <trkpt lat="47.1403840" lon="6.7634840">
        <ele>954.8</ele>
        <time>2022-07-21T14:18:01Z</time>
      </trkpt>
      <trkpt lat="47.1403730" lon="6.7634430">
        <ele>954.9</ele>
        <time>2022-07-21T14:18:02Z</time>
      </trkpt>
      <trkpt lat="47.1403690" lon="6.7634290">
        <ele>954.9</ele>
        <time>2022-07-21T14:18:03Z</time>
      </trkpt>
      <trkpt lat="47.1403610" lon="6.7634050">
        <ele>955.0</ele>
        <time>2022-07-21T14:18:04Z</time>
      </trkpt>
      <trkpt lat="47.1403510" lon="6.7633840">
        <ele>955.0</ele>
        <time>2022-07-21T14:18:05Z</time>
      </trkpt>
      <trkpt lat="47.1403240" lon="6.7633510">
        <ele>955.2</ele>
        <time>2022-07-21T14:18:06Z</time>
      </trkpt>
      <trkpt lat="47.1403140" lon="6.7633390">
        <ele>955.2</ele>
        <time>2022-07-21T14:18:07Z</time>
      </trkpt>
      <trkpt lat="47.1402850" lon="6.7633040">
        <ele>955.3</ele>
        <time>2022-07-21T14:18:08Z</time>
      </trkpt>
      <trkpt lat="47.1402770" lon="6.7632940">
        <ele>955.4</ele>
        <time>2022-07-21T14:18:09Z</time>
      </trkpt>
      <trkpt lat="47.1402560" lon="6.7632680">
        <ele>955.5</ele>
        <time>2022-07-21T14:18:10Z</time>
      </trkpt>
      <trkpt lat="47.1402250" lon="6.7632320">
        <ele>955.6</ele>
        <time>2022-07-21T14:18:11Z</time>
      </trkpt>
      <trkpt lat="47.1402130" lon="6.7632180">
        <ele>955.7</ele>
        <time>2022-07-21T14:18:12Z</time>
      </trkpt>
      <trkpt lat="47.1401900" lon="6.7631810">
        <ele>955.8</ele>
        <time>2022-07-21T14:18:13Z</time>
      </trkpt>
      <trkpt lat="47.1401820" lon="6.7631670">
        <ele>955.8</ele>
        <time>2022-07-21T14:18:14Z</time>
      </trkpt>
      <trkpt lat="47.1401690" lon="6.7631150">
        <ele>955.9</ele>
        <time>2022-07-21T14:18:15Z</time>
      </trkpt>
      <trkpt lat="47.1401660" lon="6.7630990">
        <ele>956.0</ele>
        <time>2022-07-21T14:18:16Z</time>
      </trkpt>
      <trkpt lat="47.1401580" lon="6.7630580">
        <ele>956.1</ele>
        <time>2022-07-21T14:18:17Z</time>
      </trkpt>
      <trkpt lat="47.1401480" lon="6.7630180">
        <ele>956.1</ele>
        <time>2022-07-21T14:18:18Z</time>
      </trkpt>
      <trkpt lat="47.1401430" lon="6.7629960">
        <ele>956.2</ele>
        <time>2022-07-21T14:18:19Z</time>
      </trkpt>
      <trkpt lat="47.1401370" lon="6.7629750">
        <ele>956.2</ele>
        <time>2022-07-21T14:18:20Z</time>
      </trkpt>
      <trkpt lat="47.1401230" lon="6.7629390">
        <ele>956.3</ele>
        <time>2022-07-21T14:18:21Z</time>
      </trkpt>
      <trkpt lat="47.1401190" lon="6.7629280">
        <ele>956.3</ele>
        <time>2022-07-21T14:18:22Z</time>
      </trkpt>
      <trkpt lat="47.1401080" lon="6.7629070">
        <ele>956.3</ele>
        <time>2022-07-21T14:18:23Z</time>
      </trkpt>
      <trkpt lat="47.1400990" lon="6.7628870">
        <ele>956.3</ele>
        <time>2022-07-21T14:18:24Z</time>
      </trkpt>
      <trkpt lat="47.1400800" lon="6.7628440">
        <ele>956.4</ele>
        <time>2022-07-21T14:18:25Z</time>
      </trkpt>
      <trkpt lat="47.1400740" lon="6.7628280">
        <ele>956.4</ele>
        <time>2022-07-21T14:18:26Z</time>
      </trkpt>
      <trkpt lat="47.1400600" lon="6.7627860">
        <ele>956.5</ele>
        <time>2022-07-21T14:18:27Z</time>
      </trkpt>
      <trkpt lat="47.1400560" lon="6.7627720">
        <ele>956.5</ele>
        <time>2022-07-21T14:18:28Z</time>
      </trkpt>
      <trkpt lat="47.1400350" lon="6.7627320">
        <ele>956.6</ele>
        <time>2022-07-21T14:18:29Z</time>
      </trkpt>
      <trkpt lat="47.1400250" lon="6.7627190">
        <ele>956.6</ele>
        <time>2022-07-21T14:18:30Z</time>
      </trkpt>
      <trkpt lat="47.1400060" lon="6.7626910">
        <ele>956.6</ele>
        <time>2022-07-21T14:18:31Z</time>
      </trkpt>
      <trkpt lat="47.1399980" lon="6.7626730">
        <ele>956.7</ele>
        <time>2022-07-21T14:18:32Z</time>
      </trkpt>
      <trkpt lat="47.1399900" lon="6.7626460">
        <ele>956.7</ele>
        <time>2022-07-21T14:18:33Z</time>
      </trkpt>
      <trkpt lat="47.1399760" lon="6.7626030">
        <ele>956.7</ele>
        <time>2022-07-21T14:18:34Z</time>
      </trkpt>
      <trkpt lat="47.1399690" lon="6.7625640">
        <ele>956.8</ele>
        <time>2022-07-21T14:18:35Z</time>
      </trkpt>
      <trkpt lat="47.1399620" lon="6.7625040">
        <ele>956.9</ele>
        <time>2022-07-21T14:18:36Z</time>
      </trkpt>
      <trkpt lat="47.1399580" lon="6.7624810">
        <ele>956.9</ele>
        <time>2022-07-21T14:18:37Z</time>
      </trkpt>
      <trkpt lat="47.1399460" lon="6.7624450">
        <ele>956.9</ele>
        <time>2022-07-21T14:18:38Z</time>
      </trkpt>
      <trkpt lat="47.1399230" lon="6.7624150">
        <ele>957.0</ele>
        <time>2022-07-21T14:18:39Z</time>
      </trkpt>
      <trkpt lat="47.1398980" lon="6.7623880">
        <ele>957.0</ele>
        <time>2022-07-21T14:18:40Z</time>
      </trkpt>
      <trkpt lat="47.1398880" lon="6.7623760">
        <ele>957.0</ele>
        <time>2022-07-21T14:18:41Z</time>
      </trkpt>
      <trkpt lat="47.1398670" lon="6.7623470">
        <ele>957.1</ele>
        <time>2022-07-21T14:18:42Z</time>
      </trkpt>
      <trkpt lat="47.1398470" lon="6.7623140">
        <ele>957.1</ele>
        <time>2022-07-21T14:18:43Z</time>
      </trkpt>
      <trkpt lat="47.1398280" lon="6.7622800">
        <ele>957.2</ele>
        <time>2022-07-21T14:18:44Z</time>
      </trkpt>
      <trkpt lat="47.1398090" lon="6.7622460">
        <ele>957.2</ele>
        <time>2022-07-21T14:18:45Z</time>
      </trkpt>
      <trkpt lat="47.1397880" lon="6.7622020">
        <ele>957.2</ele>
        <time>2022-07-21T14:18:46Z</time>
      </trkpt>
      <trkpt lat="47.1397800" lon="6.7621840">
        <ele>957.3</ele>
        <time>2022-07-21T14:18:47Z</time>
      </trkpt>
      <trkpt lat="47.1397660" lon="6.7621500">
        <ele>957.3</ele>
        <time>2022-07-21T14:18:48Z</time>
      </trkpt>
      <trkpt lat="47.1397490" lon="6.7621080">
        <ele>957.3</ele>
        <time>2022-07-21T14:18:49Z</time>
      </trkpt>
      <trkpt lat="47.1397320" lon="6.7620560">
        <ele>957.4</ele>
        <time>2022-07-21T14:18:50Z</time>
      </trkpt>
      <trkpt lat="47.1397270" lon="6.7620350">
        <ele>957.4</ele>
        <time>2022-07-21T14:18:51Z</time>
      </trkpt>
      <trkpt lat="47.1397120" lon="6.7619830">
        <ele>957.4</ele>
        <time>2022-07-21T14:18:52Z</time>
      </trkpt>
      <trkpt lat="47.1397080" lon="6.7619660">
        <ele>957.4</ele>
        <time>2022-07-21T14:18:53Z</time>
      </trkpt>
      <trkpt lat="47.1396960" lon="6.7619120">
        <ele>957.5</ele>
        <time>2022-07-21T14:18:54Z</time>
      </trkpt>
      <trkpt lat="47.1396930" lon="6.7618940">
        <ele>957.5</ele>
        <time>2022-07-21T14:18:55Z</time>
      </trkpt>
      <trkpt lat="47.1396890" lon="6.7618450">
        <ele>957.6</ele>
        <time>2022-07-21T14:18:56Z</time>
      </trkpt>
      <trkpt lat="47.1396870" lon="6.7617900">
        <ele>957.6</ele>
        <time>2022-07-21T14:18:57Z</time>
      </trkpt>
      <trkpt lat="47.1396860" lon="6.7617360">
        <ele>957.7</ele>
        <time>2022-07-21T14:18:58Z</time>
      </trkpt>
      <trkpt lat="47.1396850" lon="6.7617200">
        <ele>957.7</ele>
        <time>2022-07-21T14:18:59Z</time>
      </trkpt>
      <trkpt lat="47.1396780" lon="6.7616760">
        <ele>957.7</ele>
        <time>2022-07-21T14:19:00Z</time>
      </trkpt>
      <trkpt lat="47.1396730" lon="6.7616230">
        <ele>957.8</ele>
        <time>2022-07-21T14:19:01Z</time>
      </trkpt>
      <trkpt lat="47.1396710" lon="6.7616040">
        <ele>957.8</ele>
        <time>2022-07-21T14:19:02Z</time>
      </trkpt>
      <trkpt lat="47.1396590" lon="6.7615530">
        <ele>957.9</ele>
        <time>2022-07-21T14:19:03Z</time>
      </trkpt>
      <trkpt lat="47.1396560" lon="6.7615390">
        <ele>957.9</ele>
        <time>2022-07-21T14:19:04Z</time>
      </trkpt>
      <trkpt lat="47.1396390" lon="6.7614900">
        <ele>957.9</ele>
        <time>2022-07-21T14:19:05Z</time>
      </trkpt>
      <trkpt lat="47.1396340" lon="6.7614740">
        <ele>958.0</ele>
        <time>2022-07-21T14:19:06Z</time>
      </trkpt>
      <trkpt lat="47.1396220" lon="6.7614240">
        <ele>958.0</ele>
        <time>2022-07-21T14:19:07Z</time>
      </trkpt>
      <trkpt lat="47.1396200" lon="6.7614080">
        <ele>958.0</ele>
        <time>2022-07-21T14:19:08Z</time>
      </trkpt>
      <trkpt lat="47.1396160" lon="6.7613610">
        <ele>958.1</ele>
        <time>2022-07-21T14:19:09Z</time>
      </trkpt>
      <trkpt lat="47.1396150" lon="6.7613420">
        <ele>958.1</ele>
        <time>2022-07-21T14:19:10Z</time>
      </trkpt>
      <trkpt lat="47.1396130" lon="6.7612920">
        <ele>958.2</ele>
        <time>2022-07-21T14:19:11Z</time>
      </trkpt>
      <trkpt lat="47.1396120" lon="6.7612690">
        <ele>958.2</ele>
        <time>2022-07-21T14:19:12Z</time>
      </trkpt>
      <trkpt lat="47.1396140" lon="6.7612210">
        <ele>958.3</ele>
        <time>2022-07-21T14:19:13Z</time>
      </trkpt>
      <trkpt lat="47.1396140" lon="6.7612070">
        <ele>958.3</ele>
        <time>2022-07-21T14:19:14Z</time>
      </trkpt>
      <trkpt lat="47.1396140" lon="6.7611560">
        <ele>958.4</ele>
        <time>2022-07-21T14:19:15Z</time>
      </trkpt>
      <trkpt lat="47.1396130" lon="6.7611380">
        <ele>958.4</ele>
        <time>2022-07-21T14:19:16Z</time>
      </trkpt>
      <trkpt lat="47.1396120" lon="6.7610960">
        <ele>958.5</ele>
        <time>2022-07-21T14:19:17Z</time>
      </trkpt>
      <trkpt lat="47.1396110" lon="6.7610390">
        <ele>958.6</ele>
        <time>2022-07-21T14:19:18Z</time>
      </trkpt>
      <trkpt lat="47.1396110" lon="6.7610200">
        <ele>958.6</ele>
        <time>2022-07-21T14:19:19Z</time>
      </trkpt>
      <trkpt lat="47.1396130" lon="6.7609660">
        <ele>958.7</ele>
        <time>2022-07-21T14:19:20Z</time>
      </trkpt>
      <trkpt lat="47.1396150" lon="6.7609490">
        <ele>958.7</ele>
        <time>2022-07-21T14:19:21Z</time>
      </trkpt>
      <trkpt lat="47.1396170" lon="6.7609010">
        <ele>958.7</ele>
        <time>2022-07-21T14:19:22Z</time>
      </trkpt>
      <trkpt lat="47.1396170" lon="6.7608870">
        <ele>958.8</ele>
        <time>2022-07-21T14:19:23Z</time>
      </trkpt>
      <trkpt lat="47.1396130" lon="6.7608380">
        <ele>958.8</ele>
        <time>2022-07-21T14:19:24Z</time>
      </trkpt>
      <trkpt lat="47.1396120" lon="6.7608210">
        <ele>958.8</ele>
        <time>2022-07-21T14:19:25Z</time>
      </trkpt>
      <trkpt lat="47.1396090" lon="6.7607810">
        <ele>958.9</ele>
        <time>2022-07-21T14:19:26Z</time>
      </trkpt>
      <trkpt lat="47.1396060" lon="6.7607410">
        <ele>958.9</ele>
        <time>2022-07-21T14:19:27Z</time>
      </trkpt>
      <trkpt lat="47.1396060" lon="6.7606860">
        <ele>959.0</ele>
        <time>2022-07-21T14:19:28Z</time>
      </trkpt>
      <trkpt lat="47.1396070" lon="6.7606670">
        <ele>959.0</ele>
        <time>2022-07-21T14:19:29Z</time>
      </trkpt>
      <trkpt lat="47.1396120" lon="6.7606130">
        <ele>959.1</ele>
        <time>2022-07-21T14:19:30Z</time>
      </trkpt>
      <trkpt lat="47.1396140" lon="6.7605970">
        <ele>959.1</ele>
        <time>2022-07-21T14:19:31Z</time>
      </trkpt>
      <trkpt lat="47.1396170" lon="6.7605540">
        <ele>959.1</ele>
        <time>2022-07-21T14:19:32Z</time>
      </trkpt>
      <trkpt lat="47.1396190" lon="6.7605090">
        <ele>959.2</ele>
        <time>2022-07-21T14:19:33Z</time>
      </trkpt>
      <trkpt lat="47.1396190" lon="6.7604910">
        <ele>959.2</ele>
        <time>2022-07-21T14:19:34Z</time>
      </trkpt>
      <trkpt lat="47.1396120" lon="6.7604480">
        <ele>959.2</ele>
        <time>2022-07-21T14:19:35Z</time>
      </trkpt>
      <trkpt lat="47.1396050" lon="6.7604030">
        <ele>959.3</ele>
        <time>2022-07-21T14:19:36Z</time>
      </trkpt>
      <trkpt lat="47.1395970" lon="6.7603500">
        <ele>959.3</ele>
        <time>2022-07-21T14:19:37Z</time>
      </trkpt>
      <trkpt lat="47.1395950" lon="6.7603350">
        <ele>959.3</ele>
        <time>2022-07-21T14:19:38Z</time>
      </trkpt>
      <trkpt lat="47.1395870" lon="6.7602790">
        <ele>959.4</ele>
        <time>2022-07-21T14:19:39Z</time>
      </trkpt>
      <trkpt lat="47.1395840" lon="6.7602600">
        <ele>959.4</ele>
        <time>2022-07-21T14:19:40Z</time>
      </trkpt>
      <trkpt lat="47.1395750" lon="6.7602140">
        <ele>959.5</ele>
        <time>2022-07-21T14:19:41Z</time>
      </trkpt>
      <trkpt lat="47.1395650" lon="6.7601680">
        <ele>959.5</ele>
        <time>2022-07-21T14:19:42Z</time>
      </trkpt>
      <trkpt lat="47.1395560" lon="6.7601190">
        <ele>959.6</ele>
        <time>2022-07-21T14:19:43Z</time>
      </trkpt>
      <trkpt lat="47.1395520" lon="6.7600630">
        <ele>959.6</ele>
        <time>2022-07-21T14:19:44Z</time>
      </trkpt>
      <trkpt lat="47.1395510" lon="6.7600460">
        <ele>959.7</ele>
        <time>2022-07-21T14:19:45Z</time>
      </trkpt>
      <trkpt lat="47.1395490" lon="6.7600010">
        <ele>959.7</ele>
        <time>2022-07-21T14:19:46Z</time>
      </trkpt>
      <trkpt lat="47.1395470" lon="6.7599590">
        <ele>959.8</ele>
        <time>2022-07-21T14:19:47Z</time>
      </trkpt>
      <trkpt lat="47.1395460" lon="6.7599170">
        <ele>959.8</ele>
        <time>2022-07-21T14:19:48Z</time>
      </trkpt>
      <trkpt lat="47.1395470" lon="6.7598760">
        <ele>959.9</ele>
        <time>2022-07-21T14:19:49Z</time>
      </trkpt>
      <trkpt lat="47.1395510" lon="6.7598170">
        <ele>960.0</ele>
        <time>2022-07-21T14:19:50Z</time>
      </trkpt>
      <trkpt lat="47.1395530" lon="6.7597950">
        <ele>960.0</ele>
        <time>2022-07-21T14:19:51Z</time>
      </trkpt>
      <trkpt lat="47.1395580" lon="6.7597450">
        <ele>960.1</ele>
        <time>2022-07-21T14:19:52Z</time>
      </trkpt>
      <trkpt lat="47.1395600" lon="6.7597280">
        <ele>960.1</ele>
        <time>2022-07-21T14:19:53Z</time>
      </trkpt>
      <trkpt lat="47.1395610" lon="6.7596760">
        <ele>960.2</ele>
        <time>2022-07-21T14:19:54Z</time>
      </trkpt>
      <trkpt lat="47.1395600" lon="6.7596600">
        <ele>960.2</ele>
        <time>2022-07-21T14:19:55Z</time>
      </trkpt>
      <trkpt lat="47.1395530" lon="6.7596190">
        <ele>960.3</ele>
        <time>2022-07-21T14:19:56Z</time>
      </trkpt>
      <trkpt lat="47.1395450" lon="6.7595800">
        <ele>960.4</ele>
        <time>2022-07-21T14:19:57Z</time>
      </trkpt>
      <trkpt lat="47.1395350" lon="6.7595300">
        <ele>960.5</ele>
        <time>2022-07-21T14:19:58Z</time>
      </trkpt>
      <trkpt lat="47.1395320" lon="6.7595120">
        <ele>960.5</ele>
        <time>2022-07-21T14:19:59Z</time>
      </trkpt>
      <trkpt lat="47.1395260" lon="6.7594710">
        <ele>960.6</ele>
        <time>2022-07-21T14:20:00Z</time>
      </trkpt>
      <trkpt lat="47.1395240" lon="6.7594570">
        <ele>960.7</ele>
        <time>2022-07-21T14:20:01Z</time>
      </trkpt>
      <trkpt lat="47.1395110" lon="6.7594190">
        <ele>960.8</ele>
        <time>2022-07-21T14:20:02Z</time>
      </trkpt>
      <trkpt lat="47.1395060" lon="6.7594090">
        <ele>960.8</ele>
        <time>2022-07-21T14:20:03Z</time>
      </trkpt>
      <trkpt lat="47.1394930" lon="6.7593890">
        <ele>960.8</ele>
        <time>2022-07-21T14:20:04Z</time>
      </trkpt>
      <trkpt lat="47.1394800" lon="6.7593760">
        <ele>960.9</ele>
        <time>2022-07-21T14:20:05Z</time>
      </trkpt>
      <trkpt lat="47.1394720" lon="6.7593680">
        <ele>960.9</ele>
        <time>2022-07-21T14:20:06Z</time>
      </trkpt>
      <trkpt lat="47.1394670" lon="6.7593630">
        <ele>960.9</ele>
        <time>2022-07-21T14:20:07Z</time>
      </trkpt>
      <trkpt lat="47.1394660" lon="6.7593590">
        <ele>961.0</ele>
        <time>2022-07-21T14:20:08Z</time>
      </trkpt>
      <trkpt lat="47.1394620" lon="6.7593520">
        <ele>961.0</ele>
        <time>2022-07-21T14:20:09Z</time>
      </trkpt>
      <trkpt lat="47.1394580" lon="6.7593420">
        <ele>961.0</ele>
        <time>2022-07-21T14:20:10Z</time>
      </trkpt>
      <trkpt lat="47.1394510" lon="6.7593190">
        <ele>961.1</ele>
        <time>2022-07-21T14:20:11Z</time>
      </trkpt>
      <trkpt lat="47.1394480" lon="6.7593070">
        <ele>961.1</ele>
        <time>2022-07-21T14:20:12Z</time>
      </trkpt>
      <trkpt lat="47.1394460" lon="6.7592940">
        <ele>961.1</ele>
        <time>2022-07-21T14:20:13Z</time>
      </trkpt>
      <trkpt lat="47.1394440" lon="6.7592820">
        <ele>961.1</ele>
        <time>2022-07-21T14:20:14Z</time>
      </trkpt>
      <trkpt lat="47.1394460" lon="6.7592540">
        <ele>961.2</ele>
        <time>2022-07-21T14:20:16Z</time>
      </trkpt>
      <trkpt lat="47.1394470" lon="6.7592380">
        <ele>961.2</ele>
        <time>2022-07-21T14:20:17Z</time>
      </trkpt>
      <trkpt lat="47.1394470" lon="6.7592300">
        <ele>961.2</ele>
        <time>2022-07-21T14:20:18Z</time>
      </trkpt>
      <trkpt lat="47.1394470" lon="6.7592270">
        <ele>961.2</ele>
        <time>2022-07-21T14:20:19Z</time>
      </trkpt>
      <trkpt lat="47.1394470" lon="6.7592200">
        <ele>961.2</ele>
        <time>2022-07-21T14:20:20Z</time>
      </trkpt>
      <trkpt lat="47.1394450" lon="6.7592110">
        <ele>961.3</ele>
        <time>2022-07-21T14:20:21Z</time>
      </trkpt>
      <trkpt lat="47.1394430" lon="6.7591940">
        <ele>961.3</ele>
        <time>2022-07-21T14:20:22Z</time>
      </trkpt>
      <trkpt lat="47.1394360" lon="6.7591670">
        <ele>961.3</ele>
        <time>2022-07-21T14:20:23Z</time>
      </trkpt>
      <trkpt lat="47.1394210" lon="6.7591410">
        <ele>961.4</ele>
        <time>2022-07-21T14:20:25Z</time>
      </trkpt>
      <trkpt lat="47.1393960" lon="6.7591040">
        <ele>961.4</ele>
        <time>2022-07-21T14:20:26Z</time>
      </trkpt>
      <trkpt lat="47.1393900" lon="6.7590930">
        <ele>961.4</ele>
        <time>2022-07-21T14:20:27Z</time>
      </trkpt>
      <trkpt lat="47.1393660" lon="6.7590560">
        <ele>961.4</ele>
        <time>2022-07-21T14:20:28Z</time>
      </trkpt>
      <trkpt lat="47.1393570" lon="6.7590420">
        <ele>961.4</ele>
        <time>2022-07-21T14:20:29Z</time>
      </trkpt>
      <trkpt lat="47.1393350" lon="6.7590050">
        <ele>961.5</ele>
        <time>2022-07-21T14:20:30Z</time>
      </trkpt>
      <trkpt lat="47.1393280" lon="6.7589930">
        <ele>961.5</ele>
        <time>2022-07-21T14:20:31Z</time>
      </trkpt>
      <trkpt lat="47.1393040" lon="6.7589600">
        <ele>961.5</ele>
        <time>2022-07-21T14:20:33Z</time>
      </trkpt>
      <trkpt lat="47.1392820" lon="6.7589320">
        <ele>961.5</ele>
        <time>2022-07-21T14:20:34Z</time>
      </trkpt>
      <trkpt lat="47.1392550" lon="6.7589060">
        <ele>961.6</ele>
        <time>2022-07-21T14:20:35Z</time>
      </trkpt>
      <trkpt lat="47.1392460" lon="6.7588980">
        <ele>961.6</ele>
        <time>2022-07-21T14:20:36Z</time>
      </trkpt>
      <trkpt lat="47.1392320" lon="6.7588830">
        <ele>961.6</ele>
        <time>2022-07-21T14:20:37Z</time>
      </trkpt>
      <trkpt lat="47.1392170" lon="6.7588700">
        <ele>961.6</ele>
        <time>2022-07-21T14:20:38Z</time>
      </trkpt>
      <trkpt lat="47.1391870" lon="6.7588480">
        <ele>961.6</ele>
        <time>2022-07-21T14:20:39Z</time>
      </trkpt>
      <trkpt lat="47.1391600" lon="6.7588230">
        <ele>961.6</ele>
        <time>2022-07-21T14:20:41Z</time>
      </trkpt>
      <trkpt lat="47.1391460" lon="6.7588050">
        <ele>961.6</ele>
        <time>2022-07-21T14:20:42Z</time>
      </trkpt>
      <trkpt lat="47.1391350" lon="6.7587890">
        <ele>961.7</ele>
        <time>2022-07-21T14:20:43Z</time>
      </trkpt>
      <trkpt lat="47.1391100" lon="6.7587570">
        <ele>961.7</ele>
        <time>2022-07-21T14:20:44Z</time>
      </trkpt>
      <trkpt lat="47.1391010" lon="6.7587470">
        <ele>961.7</ele>
        <time>2022-07-21T14:20:45Z</time>
      </trkpt>
      <trkpt lat="47.1390760" lon="6.7587100">
        <ele>961.7</ele>
        <time>2022-07-21T14:20:46Z</time>
      </trkpt>
      <trkpt lat="47.1390670" lon="6.7586960">
        <ele>961.7</ele>
        <time>2022-07-21T14:20:47Z</time>
      </trkpt>
      <trkpt lat="47.1390300" lon="6.7586530">
        <ele>961.7</ele>
        <time>2022-07-21T14:20:49Z</time>
      </trkpt>
      <trkpt lat="47.1390080" lon="6.7586300">
        <ele>961.6</ele>
        <time>2022-07-21T14:20:50Z</time>
      </trkpt>
      <trkpt lat="47.1389840" lon="6.7586040">
        <ele>961.6</ele>
        <time>2022-07-21T14:20:51Z</time>
      </trkpt>
      <trkpt lat="47.1389590" lon="6.7585770">
        <ele>961.6</ele>
        <time>2022-07-21T14:20:52Z</time>
      </trkpt>
      <trkpt lat="47.1389230" lon="6.7585360">
        <ele>961.5</ele>
        <time>2022-07-21T14:20:53Z</time>
      </trkpt>
      <trkpt lat="47.1388880" lon="6.7584990">
        <ele>961.4</ele>
        <time>2022-07-21T14:20:55Z</time>
      </trkpt>
      <trkpt lat="47.1388600" lon="6.7584630">
        <ele>961.4</ele>
        <time>2022-07-21T14:20:56Z</time>
      </trkpt>
      <trkpt lat="47.1388340" lon="6.7584280">
        <ele>961.3</ele>
        <time>2022-07-21T14:20:57Z</time>
      </trkpt>
      <trkpt lat="47.1388060" lon="6.7583990">
        <ele>961.2</ele>
        <time>2022-07-21T14:20:58Z</time>
      </trkpt>
      <trkpt lat="47.1387310" lon="6.7583230">
        <ele>961.0</ele>
        <time>2022-07-21T14:21:00Z</time>
      </trkpt>
      <trkpt lat="47.1386930" lon="6.7582870">
        <ele>960.9</ele>
        <time>2022-07-21T14:21:02Z</time>
      </trkpt>
      <trkpt lat="47.1386600" lon="6.7582570">
        <ele>960.8</ele>
        <time>2022-07-21T14:21:03Z</time>
      </trkpt>
      <trkpt lat="47.1386280" lon="6.7582250">
        <ele>960.7</ele>
        <time>2022-07-21T14:21:04Z</time>
      </trkpt>
      <trkpt lat="47.1385960" lon="6.7581960">
        <ele>960.7</ele>
        <time>2022-07-21T14:21:05Z</time>
      </trkpt>
      <trkpt lat="47.1385650" lon="6.7581670">
        <ele>960.6</ele>
        <time>2022-07-21T14:21:06Z</time>
      </trkpt>
      <trkpt lat="47.1385150" lon="6.7581130">
        <ele>960.5</ele>
        <time>2022-07-21T14:21:08Z</time>
      </trkpt>
      <trkpt lat="47.1384750" lon="6.7580740">
        <ele>960.5</ele>
        <time>2022-07-21T14:21:09Z</time>
      </trkpt>
      <trkpt lat="47.1384470" lon="6.7580430">
        <ele>960.4</ele>
        <time>2022-07-21T14:21:10Z</time>
      </trkpt>
      <trkpt lat="47.1384230" lon="6.7580170">
        <ele>960.4</ele>
        <time>2022-07-21T14:21:11Z</time>
      </trkpt>
      <trkpt lat="47.1383920" lon="6.7579830">
        <ele>960.3</ele>
        <time>2022-07-21T14:21:12Z</time>
      </trkpt>
      <trkpt lat="47.1383540" lon="6.7579340">
        <ele>960.3</ele>
        <time>2022-07-21T14:21:14Z</time>
      </trkpt>
      <trkpt lat="47.1383210" lon="6.7578910">
        <ele>960.2</ele>
        <time>2022-07-21T14:21:15Z</time>
      </trkpt>
      <trkpt lat="47.1383080" lon="6.7578740">
        <ele>960.2</ele>
        <time>2022-07-21T14:21:16Z</time>
      </trkpt>
      <trkpt lat="47.1382830" lon="6.7578410">
        <ele>960.2</ele>
        <time>2022-07-21T14:21:17Z</time>
      </trkpt>
      <trkpt lat="47.1382600" lon="6.7578120">
        <ele>960.2</ele>
        <time>2022-07-21T14:21:18Z</time>
      </trkpt>
      <trkpt lat="47.1382360" lon="6.7577820">
        <ele>960.1</ele>
        <time>2022-07-21T14:21:19Z</time>
      </trkpt>
      <trkpt lat="47.1382140" lon="6.7577540">
        <ele>960.1</ele>
        <time>2022-07-21T14:21:20Z</time>
      </trkpt>
      <trkpt lat="47.1381940" lon="6.7577260">
        <ele>960.1</ele>
        <time>2022-07-21T14:21:21Z</time>
      </trkpt>
      <trkpt lat="47.1381730" lon="6.7576950">
        <ele>960.1</ele>
        <time>2022-07-21T14:21:22Z</time>
      </trkpt>
      <trkpt lat="47.1381530" lon="6.7576660">
        <ele>960.0</ele>
        <time>2022-07-21T14:21:23Z</time>
      </trkpt>
      <trkpt lat="47.1381310" lon="6.7576370">
        <ele>960.0</ele>
        <time>2022-07-21T14:21:24Z</time>
      </trkpt>
      <trkpt lat="47.1381050" lon="6.7576040">
        <ele>960.0</ele>
        <time>2022-07-21T14:21:25Z</time>
      </trkpt>
      <trkpt lat="47.1380930" lon="6.7575890">
        <ele>960.1</ele>
        <time>2022-07-21T14:21:26Z</time>
      </trkpt>
      <trkpt lat="47.1380710" lon="6.7575630">
        <ele>960.1</ele>
        <time>2022-07-21T14:21:27Z</time>
      </trkpt>
      <trkpt lat="47.1380430" lon="6.7575250">
        <ele>960.1</ele>
        <time>2022-07-21T14:21:28Z</time>
      </trkpt>
      <trkpt lat="47.1380320" lon="6.7575110">
        <ele>960.1</ele>
        <time>2022-07-21T14:21:29Z</time>
      </trkpt>
      <trkpt lat="47.1380060" lon="6.7574760">
        <ele>960.2</ele>
        <time>2022-07-21T14:21:30Z</time>
      </trkpt>
      <trkpt lat="47.1379970" lon="6.7574650">
        <ele>960.2</ele>
        <time>2022-07-21T14:21:31Z</time>
      </trkpt>
      <trkpt lat="47.1379790" lon="6.7574360">
        <ele>960.2</ele>
        <time>2022-07-21T14:21:32Z</time>
      </trkpt>
      <trkpt lat="47.1379540" lon="6.7574040">
        <ele>960.3</ele>
        <time>2022-07-21T14:21:33Z</time>
      </trkpt>
      <trkpt lat="47.1379460" lon="6.7573940">
        <ele>960.3</ele>
        <time>2022-07-21T14:21:34Z</time>
      </trkpt>
      <trkpt lat="47.1379150" lon="6.7573590">
        <ele>960.4</ele>
        <time>2022-07-21T14:21:35Z</time>
      </trkpt>
      <trkpt lat="47.1379050" lon="6.7573470">
        <ele>960.4</ele>
        <time>2022-07-21T14:21:36Z</time>
      </trkpt>
      <trkpt lat="47.1378820" lon="6.7573190">
        <ele>960.5</ele>
        <time>2022-07-21T14:21:37Z</time>
      </trkpt>
      <trkpt lat="47.1378750" lon="6.7573110">
        <ele>960.5</ele>
        <time>2022-07-21T14:21:38Z</time>
      </trkpt>
      <trkpt lat="47.1378600" lon="6.7572960">
        <ele>960.6</ele>
        <time>2022-07-21T14:21:39Z</time>
      </trkpt>
      <trkpt lat="47.1378460" lon="6.7572850">
        <ele>960.6</ele>
        <time>2022-07-21T14:21:40Z</time>
      </trkpt>
      <trkpt lat="47.1378300" lon="6.7572750">
        <ele>960.7</ele>
        <time>2022-07-21T14:21:41Z</time>
      </trkpt>
      <trkpt lat="47.1378200" lon="6.7572690">
        <ele>960.7</ele>
        <time>2022-07-21T14:21:42Z</time>
      </trkpt>
      <trkpt lat="47.1378070" lon="6.7572490">
        <ele>960.8</ele>
        <time>2022-07-21T14:21:43Z</time>
      </trkpt>
      <trkpt lat="47.1378010" lon="6.7572370">
        <ele>960.8</ele>
        <time>2022-07-21T14:21:44Z</time>
      </trkpt>
      <trkpt lat="47.1377950" lon="6.7572260">
        <ele>960.9</ele>
        <time>2022-07-21T14:21:45Z</time>
      </trkpt>
      <trkpt lat="47.1377900" lon="6.7572130">
        <ele>960.9</ele>
        <time>2022-07-21T14:21:46Z</time>
      </trkpt>
      <trkpt lat="47.1377890" lon="6.7572120">
        <ele>960.9</ele>
        <time>2022-07-21T14:21:47Z</time>
      </trkpt>
      <trkpt lat="47.1377890" lon="6.7572090">
        <ele>960.9</ele>
        <time>2022-07-21T14:21:48Z</time>
      </trkpt>
      <trkpt lat="47.1377870" lon="6.7571970">
        <ele>960.9</ele>
        <time>2022-07-21T14:21:49Z</time>
      </trkpt>
      <trkpt lat="47.1377820" lon="6.7571820">
        <ele>960.9</ele>
        <time>2022-07-21T14:21:50Z</time>
      </trkpt>
      <trkpt lat="47.1377800" lon="6.7571700">
        <ele>960.9</ele>
        <time>2022-07-21T14:21:51Z</time>
      </trkpt>
      <trkpt lat="47.1377780" lon="6.7571600">
        <ele>961.0</ele>
        <time>2022-07-21T14:21:52Z</time>
      </trkpt>
      <trkpt lat="47.1377780" lon="6.7571540">
        <ele>961.0</ele>
        <time>2022-07-21T14:21:54Z</time>
      </trkpt>
      <trkpt lat="47.1377790" lon="6.7571510">
        <ele>961.0</ele>
        <time>2022-07-21T14:21:55Z</time>
      </trkpt>
      <trkpt lat="47.1377800" lon="6.7571460">
        <ele>961.0</ele>
        <time>2022-07-21T14:21:56Z</time>
      </trkpt>
      <trkpt lat="47.1377790" lon="6.7571330">
        <ele>961.0</ele>
        <time>2022-07-21T14:21:57Z</time>
      </trkpt>
      <trkpt lat="47.1377780" lon="6.7571190">
        <ele>961.0</ele>
        <time>2022-07-21T14:21:59Z</time>
      </trkpt>
      <trkpt lat="47.1377770" lon="6.7571150">
        <ele>961.0</ele>
        <time>2022-07-21T14:22:01Z</time>
      </trkpt>
      <trkpt lat="47.1377760" lon="6.7571150">
        <ele>961.0</ele>
        <time>2022-07-21T14:22:02Z</time>
      </trkpt>
      <trkpt lat="47.1377750" lon="6.7571160">
        <ele>961.0</ele>
        <time>2022-07-21T14:22:03Z</time>
      </trkpt>
      <trkpt lat="47.1377750" lon="6.7571120">
        <ele>961.0</ele>
        <time>2022-07-21T14:22:04Z</time>
      </trkpt>
      <trkpt lat="47.1377690" lon="6.7570960">
        <ele>961.0</ele>
        <time>2022-07-21T14:22:05Z</time>
      </trkpt>
      <trkpt lat="47.1377590" lon="6.7570850">
        <ele>961.0</ele>
        <time>2022-07-21T14:22:06Z</time>
      </trkpt>
      <trkpt lat="47.1377390" lon="6.7570690">
        <ele>961.0</ele>
        <time>2022-07-21T14:22:07Z</time>
      </trkpt>
      <trkpt lat="47.1377190" lon="6.7570510">
        <ele>960.9</ele>
        <time>2022-07-21T14:22:08Z</time>
      </trkpt>
      <trkpt lat="47.1376930" lon="6.7570220">
        <ele>960.9</ele>
        <time>2022-07-21T14:22:10Z</time>
      </trkpt>
      <trkpt lat="47.1376720" lon="6.7569900">
        <ele>960.9</ele>
        <time>2022-07-21T14:22:11Z</time>
      </trkpt>
      <trkpt lat="47.1376640" lon="6.7569790">
        <ele>960.8</ele>
        <time>2022-07-21T14:22:12Z</time>
      </trkpt>
      <trkpt lat="47.1376380" lon="6.7569460">
        <ele>960.8</ele>
        <time>2022-07-21T14:22:13Z</time>
      </trkpt>
      <trkpt lat="47.1376130" lon="6.7569140">
        <ele>960.7</ele>
        <time>2022-07-21T14:22:15Z</time>
      </trkpt>
      <trkpt lat="47.1375850" lon="6.7568840">
        <ele>960.6</ele>
        <time>2022-07-21T14:22:16Z</time>
      </trkpt>
      <trkpt lat="47.1375500" lon="6.7568520">
        <ele>960.6</ele>
        <time>2022-07-21T14:22:17Z</time>
      </trkpt>
      <trkpt lat="47.1375140" lon="6.7568090">
        <ele>960.5</ele>
        <time>2022-07-21T14:22:19Z</time>
      </trkpt>
      <trkpt lat="47.1374800" lon="6.7567730">
        <ele>960.4</ele>
        <time>2022-07-21T14:22:20Z</time>
      </trkpt>
      <trkpt lat="47.1374450" lon="6.7567360">
        <ele>960.4</ele>
        <time>2022-07-21T14:22:21Z</time>
      </trkpt>
      <trkpt lat="47.1374070" lon="6.7566980">
        <ele>960.4</ele>
        <time>2022-07-21T14:22:22Z</time>
      </trkpt>
      <trkpt lat="47.1373530" lon="6.7566510">
        <ele>960.4</ele>
        <time>2022-07-21T14:22:23Z</time>
      </trkpt>
      <trkpt lat="47.1373180" lon="6.7566110">
        <ele>960.5</ele>
        <time>2022-07-21T14:22:25Z</time>
      </trkpt>
      <trkpt lat="47.1372880" lon="6.7565770">
        <ele>960.5</ele>
        <time>2022-07-21T14:22:26Z</time>
      </trkpt>
      <trkpt lat="47.1372670" lon="6.7565530">
        <ele>960.6</ele>
        <time>2022-07-21T14:22:27Z</time>
      </trkpt>
      <trkpt lat="47.1372430" lon="6.7565290">
        <ele>960.7</ele>
        <time>2022-07-21T14:22:28Z</time>
      </trkpt>
      <trkpt lat="47.1372110" lon="6.7564920">
        <ele>960.8</ele>
        <time>2022-07-21T14:22:29Z</time>
      </trkpt>
      <trkpt lat="47.1372000" lon="6.7564780">
        <ele>960.8</ele>
        <time>2022-07-21T14:22:30Z</time>
      </trkpt>
      <trkpt lat="47.1371750" lon="6.7564440">
        <ele>960.9</ele>
        <time>2022-07-21T14:22:31Z</time>
      </trkpt>
      <trkpt lat="47.1371590" lon="6.7564210">
        <ele>961.0</ele>
        <time>2022-07-21T14:22:32Z</time>
      </trkpt>
      <trkpt lat="47.1371410" lon="6.7563970">
        <ele>961.1</ele>
        <time>2022-07-21T14:22:34Z</time>
      </trkpt>
      <trkpt lat="47.1371130" lon="6.7563620">
        <ele>961.2</ele>
        <time>2022-07-21T14:22:35Z</time>
      </trkpt>
      <trkpt lat="47.1371010" lon="6.7563500">
        <ele>961.2</ele>
        <time>2022-07-21T14:22:36Z</time>
      </trkpt>
      <trkpt lat="47.1370680" lon="6.7563070">
        <ele>961.4</ele>
        <time>2022-07-21T14:22:37Z</time>
      </trkpt>
      <trkpt lat="47.1370530" lon="6.7562870">
        <ele>961.4</ele>
        <time>2022-07-21T14:22:38Z</time>
      </trkpt>
      <trkpt lat="47.1370310" lon="6.7562520">
        <ele>961.5</ele>
        <time>2022-07-21T14:22:39Z</time>
      </trkpt>
      <trkpt lat="47.1370150" lon="6.7562200">
        <ele>961.6</ele>
        <time>2022-07-21T14:22:40Z</time>
      </trkpt>
      <trkpt lat="47.1370010" lon="6.7561820">
        <ele>961.6</ele>
        <time>2022-07-21T14:22:42Z</time>
      </trkpt>
      <trkpt lat="47.1369820" lon="6.7561320">
        <ele>961.7</ele>
        <time>2022-07-21T14:22:43Z</time>
      </trkpt>
      <trkpt lat="47.1369620" lon="6.7560880">
        <ele>961.8</ele>
        <time>2022-07-21T14:22:45Z</time>
      </trkpt>
      <trkpt lat="47.1369580" lon="6.7560750">
        <ele>961.9</ele>
        <time>2022-07-21T14:22:46Z</time>
      </trkpt>
      <trkpt lat="47.1369480" lon="6.7560580">
        <ele>961.9</ele>
        <time>2022-07-21T14:22:47Z</time>
      </trkpt>
      <trkpt lat="47.1369450" lon="6.7560360">
        <ele>961.9</ele>
        <time>2022-07-21T14:22:48Z</time>
      </trkpt>
      <trkpt lat="47.1369490" lon="6.7560300">
        <ele>961.9</ele>
        <time>2022-07-21T14:22:50Z</time>
      </trkpt>
      <trkpt lat="47.1369480" lon="6.7560330">
        <ele>961.9</ele>
        <time>2022-07-21T14:22:51Z</time>
      </trkpt>
      <trkpt lat="47.1369480" lon="6.7560380">
        <ele>962.0</ele>
        <time>2022-07-21T14:22:52Z</time>
      </trkpt>
      <trkpt lat="47.1369480" lon="6.7560400">
        <ele>962.0</ele>
        <time>2022-07-21T14:22:53Z</time>
      </trkpt>
      <trkpt lat="47.1369480" lon="6.7560410">
        <ele>962.0</ele>
        <time>2022-07-21T14:22:54Z</time>
      </trkpt>
      <trkpt lat="47.1369490" lon="6.7560420">
        <ele>962.0</ele>
        <time>2022-07-21T14:22:55Z</time>
      </trkpt>
      <trkpt lat="47.1369490" lon="6.7560410">
        <ele>962.0</ele>
        <time>2022-07-21T14:22:56Z</time>
      </trkpt>
      <trkpt lat="47.1369500" lon="6.7560410">
        <ele>962.0</ele>
        <time>2022-07-21T14:22:57Z</time>
      </trkpt>
      <trkpt lat="47.1369500" lon="6.7560400">
        <ele>962.0</ele>
        <time>2022-07-21T14:22:58Z</time>
      </trkpt>
      <trkpt lat="47.1369320" lon="6.7560000">
        <ele>962.0</ele>
        <time>2022-07-21T14:23:03Z</time>
      </trkpt>
      <trkpt lat="47.1369300" lon="6.7559960">
        <ele>962.0</ele>
        <time>2022-07-21T14:23:04Z</time>
      </trkpt>
      <trkpt lat="47.1369290" lon="6.7559930">
        <ele>962.0</ele>
        <time>2022-07-21T14:23:05Z</time>
      </trkpt>
      <trkpt lat="47.1369280" lon="6.7559940">
        <ele>962.0</ele>
        <time>2022-07-21T14:23:06Z</time>
      </trkpt>
      <trkpt lat="47.1369270" lon="6.7559950">
        <ele>962.0</ele>
        <time>2022-07-21T14:23:07Z</time>
      </trkpt>
      <trkpt lat="47.1369260" lon="6.7559940">
        <ele>962.0</ele>
        <time>2022-07-21T14:23:08Z</time>
      </trkpt>
      <trkpt lat="47.1369250" lon="6.7559940">
        <ele>962.0</ele>
        <time>2022-07-21T14:23:09Z</time>
      </trkpt>
      <trkpt lat="47.1369240" lon="6.7559930">
        <ele>962.0</ele>
        <time>2022-07-21T14:23:10Z</time>
      </trkpt>
      <trkpt lat="47.1369230" lon="6.7559920">
        <ele>962.0</ele>
        <time>2022-07-21T14:23:11Z</time>
      </trkpt>
      <trkpt lat="47.1369230" lon="6.7559920">
        <ele>962.0</ele>
        <time>2022-07-21T14:23:12Z</time>
      </trkpt>
      <trkpt lat="47.1369250" lon="6.7559900">
        <ele>962.1</ele>
        <time>2022-07-21T14:23:13Z</time>
      </trkpt>
      <trkpt lat="47.1369270" lon="6.7559900">
        <ele>962.1</ele>
        <time>2022-07-21T14:23:14Z</time>
      </trkpt>
      <trkpt lat="47.1369080" lon="6.7559760">
        <ele>962.1</ele>
        <time>2022-07-21T14:23:28Z</time>
      </trkpt>
      <trkpt lat="47.1368960" lon="6.7559690">
        <ele>962.1</ele>
        <time>2022-07-21T14:23:29Z</time>
      </trkpt>
      <trkpt lat="47.1368920" lon="6.7559620">
        <ele>962.1</ele>
        <time>2022-07-21T14:23:30Z</time>
      </trkpt>
      <trkpt lat="47.1368790" lon="6.7559510">
        <ele>962.1</ele>
        <time>2022-07-21T14:23:31Z</time>
      </trkpt>
      <trkpt lat="47.1368510" lon="6.7559200">
        <ele>962.2</ele>
        <time>2022-07-21T14:23:32Z</time>
      </trkpt>
      <trkpt lat="47.1368430" lon="6.7559130">
        <ele>962.2</ele>
        <time>2022-07-21T14:23:33Z</time>
      </trkpt>
      <trkpt lat="47.1368170" lon="6.7558810">
        <ele>962.2</ele>
        <time>2022-07-21T14:23:35Z</time>
      </trkpt>
      <trkpt lat="47.1368100" lon="6.7558660">
        <ele>962.2</ele>
        <time>2022-07-21T14:23:36Z</time>
      </trkpt>
      <trkpt lat="47.1367900" lon="6.7558230">
        <ele>962.2</ele>
        <time>2022-07-21T14:23:37Z</time>
      </trkpt>
      <trkpt lat="47.1367710" lon="6.7557900">
        <ele>962.2</ele>
        <time>2022-07-21T14:23:38Z</time>
      </trkpt>
      <trkpt lat="47.1367380" lon="6.7557440">
        <ele>962.2</ele>
        <time>2022-07-21T14:23:40Z</time>
      </trkpt>
      <trkpt lat="47.1367260" lon="6.7557260">
        <ele>962.2</ele>
        <time>2022-07-21T14:23:41Z</time>
      </trkpt>
      <trkpt lat="47.1367140" lon="6.7557080">
        <ele>962.2</ele>
        <time>2022-07-21T14:23:42Z</time>
      </trkpt>
      <trkpt lat="47.1366890" lon="6.7556720">
        <ele>962.2</ele>
        <time>2022-07-21T14:23:43Z</time>
      </trkpt>
      <trkpt lat="47.1366680" lon="6.7556420">
        <ele>962.2</ele>
        <time>2022-07-21T14:23:44Z</time>
      </trkpt>
      <trkpt lat="47.1366430" lon="6.7556100">
        <ele>962.2</ele>
        <time>2022-07-21T14:23:45Z</time>
      </trkpt>
      <trkpt lat="47.1366150" lon="6.7555670">
        <ele>962.2</ele>
        <time>2022-07-21T14:23:47Z</time>
      </trkpt>
      <trkpt lat="47.1366060" lon="6.7555540">
        <ele>962.2</ele>
        <time>2022-07-21T14:23:48Z</time>
      </trkpt>
      <trkpt lat="47.1365830" lon="6.7555180">
        <ele>962.2</ele>
        <time>2022-07-21T14:23:49Z</time>
      </trkpt>
      <trkpt lat="47.1365630" lon="6.7554890">
        <ele>962.2</ele>
        <time>2022-07-21T14:23:50Z</time>
      </trkpt>
      <trkpt lat="47.1365430" lon="6.7554610">
        <ele>962.1</ele>
        <time>2022-07-21T14:23:51Z</time>
      </trkpt>
      <trkpt lat="47.1365160" lon="6.7554180">
        <ele>962.1</ele>
        <time>2022-07-21T14:23:52Z</time>
      </trkpt>
      <trkpt lat="47.1364930" lon="6.7553860">
        <ele>962.0</ele>
        <time>2022-07-21T14:23:53Z</time>
      </trkpt>
      <trkpt lat="47.1364620" lon="6.7553440">
        <ele>961.9</ele>
        <time>2022-07-21T14:23:55Z</time>
      </trkpt>
      <trkpt lat="47.1364320" lon="6.7553100">
        <ele>961.9</ele>
        <time>2022-07-21T14:23:56Z</time>
      </trkpt>
      <trkpt lat="47.1364040" lon="6.7552850">
        <ele>961.8</ele>
        <time>2022-07-21T14:23:57Z</time>
      </trkpt>
      <trkpt lat="47.1363770" lon="6.7552570">
        <ele>961.8</ele>
        <time>2022-07-21T14:23:58Z</time>
      </trkpt>
      <trkpt lat="47.1363510" lon="6.7552220">
        <ele>961.7</ele>
        <time>2022-07-21T14:23:59Z</time>
      </trkpt>
      <trkpt lat="47.1363240" lon="6.7551900">
        <ele>961.7</ele>
        <time>2022-07-21T14:24:00Z</time>
      </trkpt>
      <trkpt lat="47.1362920" lon="6.7551540">
        <ele>961.7</ele>
        <time>2022-07-21T14:24:01Z</time>
      </trkpt>
      <trkpt lat="47.1362590" lon="6.7551130">
        <ele>961.7</ele>
        <time>2022-07-21T14:24:02Z</time>
      </trkpt>
      <trkpt lat="47.1362250" lon="6.7550730">
        <ele>961.7</ele>
        <time>2022-07-21T14:24:03Z</time>
      </trkpt>
      <trkpt lat="47.1361980" lon="6.7550430">
        <ele>961.7</ele>
        <time>2022-07-21T14:24:04Z</time>
      </trkpt>
      <trkpt lat="47.1361740" lon="6.7550140">
        <ele>961.7</ele>
        <time>2022-07-21T14:24:06Z</time>
      </trkpt>
      <trkpt lat="47.1361470" lon="6.7549800">
        <ele>961.8</ele>
        <time>2022-07-21T14:24:07Z</time>
      </trkpt>
      <trkpt lat="47.1361220" lon="6.7549440">
        <ele>961.9</ele>
        <time>2022-07-21T14:24:08Z</time>
      </trkpt>
      <trkpt lat="47.1360880" lon="6.7549090">
        <ele>962.0</ele>
        <time>2022-07-21T14:24:09Z</time>
      </trkpt>
      <trkpt lat="47.1360740" lon="6.7548970">
        <ele>962.0</ele>
        <time>2022-07-21T14:24:10Z</time>
      </trkpt>
      <trkpt lat="47.1360510" lon="6.7548620">
        <ele>962.1</ele>
        <time>2022-07-21T14:24:12Z</time>
      </trkpt>
      <trkpt lat="47.1360430" lon="6.7548410">
        <ele>962.2</ele>
        <time>2022-07-21T14:24:13Z</time>
      </trkpt>
      <trkpt lat="47.1360360" lon="6.7548210">
        <ele>962.2</ele>
        <time>2022-07-21T14:24:14Z</time>
      </trkpt>
      <trkpt lat="47.1360290" lon="6.7548050">
        <ele>962.3</ele>
        <time>2022-07-21T14:24:15Z</time>
      </trkpt>
      <trkpt lat="47.1360290" lon="6.7547890">
        <ele>962.3</ele>
        <time>2022-07-21T14:24:17Z</time>
      </trkpt>
      <trkpt lat="47.1360300" lon="6.7547840">
        <ele>962.3</ele>
        <time>2022-07-21T14:24:18Z</time>
      </trkpt>
      <trkpt lat="47.1360290" lon="6.7547780">
        <ele>962.3</ele>
        <time>2022-07-21T14:24:19Z</time>
      </trkpt>
      <trkpt lat="47.1360280" lon="6.7547720">
        <ele>962.3</ele>
        <time>2022-07-21T14:24:20Z</time>
      </trkpt>
      <trkpt lat="47.1360280" lon="6.7547690">
        <ele>962.3</ele>
        <time>2022-07-21T14:24:21Z</time>
      </trkpt>
      <trkpt lat="47.1360310" lon="6.7547710">
        <ele>962.4</ele>
        <time>2022-07-21T14:24:22Z</time>
      </trkpt>
      <trkpt lat="47.1360330" lon="6.7547710">
        <ele>962.4</ele>
        <time>2022-07-21T14:24:23Z</time>
      </trkpt>
      <trkpt lat="47.1360340" lon="6.7547690">
        <ele>962.4</ele>
        <time>2022-07-21T14:24:24Z</time>
      </trkpt>
      <trkpt lat="47.1360330" lon="6.7547550">
        <ele>962.4</ele>
        <time>2022-07-21T14:24:25Z</time>
      </trkpt>
      <trkpt lat="47.1360310" lon="6.7547450">
        <ele>962.4</ele>
        <time>2022-07-21T14:24:27Z</time>
      </trkpt>
      <trkpt lat="47.1360290" lon="6.7547380">
        <ele>962.5</ele>
        <time>2022-07-21T14:24:28Z</time>
      </trkpt>
      <trkpt lat="47.1360260" lon="6.7547330">
        <ele>962.5</ele>
        <time>2022-07-21T14:24:29Z</time>
      </trkpt>
      <trkpt lat="47.1360250" lon="6.7547310">
        <ele>962.5</ele>
        <time>2022-07-21T14:24:30Z</time>
      </trkpt>
      <trkpt lat="47.1360230" lon="6.7547270">
        <ele>962.5</ele>
        <time>2022-07-21T14:24:31Z</time>
      </trkpt>
      <trkpt lat="47.1360130" lon="6.7547070">
        <ele>962.6</ele>
        <time>2022-07-21T14:24:32Z</time>
      </trkpt>
      <trkpt lat="47.1360030" lon="6.7546890">
        <ele>962.6</ele>
        <time>2022-07-21T14:24:34Z</time>
      </trkpt>
      <trkpt lat="47.1359800" lon="6.7546620">
        <ele>962.8</ele>
        <time>2022-07-21T14:24:35Z</time>
      </trkpt>
      <trkpt lat="47.1359710" lon="6.7546550">
        <ele>962.8</ele>
        <time>2022-07-21T14:24:36Z</time>
      </trkpt>
      <trkpt lat="47.1359510" lon="6.7546240">
        <ele>963.0</ele>
        <time>2022-07-21T14:24:37Z</time>
      </trkpt>
      <trkpt lat="47.1359470" lon="6.7546120">
        <ele>963.1</ele>
        <time>2022-07-21T14:24:38Z</time>
      </trkpt>
      <trkpt lat="47.1359450" lon="6.7545970">
        <ele>963.1</ele>
        <time>2022-07-21T14:24:39Z</time>
      </trkpt>
      <trkpt lat="47.1359470" lon="6.7545910">
        <ele>963.1</ele>
        <time>2022-07-21T14:24:40Z</time>
      </trkpt>
      <trkpt lat="47.1359460" lon="6.7545830">
        <ele>963.2</ele>
        <time>2022-07-21T14:24:41Z</time>
      </trkpt>
      <trkpt lat="47.1359450" lon="6.7545720">
        <ele>963.2</ele>
        <time>2022-07-21T14:24:42Z</time>
      </trkpt>
      <trkpt lat="47.1359460" lon="6.7545670">
        <ele>963.2</ele>
        <time>2022-07-21T14:24:43Z</time>
      </trkpt>
      <trkpt lat="47.1359420" lon="6.7545570">
        <ele>963.3</ele>
        <time>2022-07-21T14:24:44Z</time>
      </trkpt>
      <trkpt lat="47.1359380" lon="6.7545470">
        <ele>963.3</ele>
        <time>2022-07-21T14:24:46Z</time>
      </trkpt>
      <trkpt lat="47.1359340" lon="6.7545320">
        <ele>963.4</ele>
        <time>2022-07-21T14:24:47Z</time>
      </trkpt>
      <trkpt lat="47.1359240" lon="6.7544970">
        <ele>963.6</ele>
        <time>2022-07-21T14:24:48Z</time>
      </trkpt>
      <trkpt lat="47.1359180" lon="6.7544790">
        <ele>963.6</ele>
        <time>2022-07-21T14:24:49Z</time>
      </trkpt>
      <trkpt lat="47.1359120" lon="6.7544640">
        <ele>963.7</ele>
        <time>2022-07-21T14:24:50Z</time>
      </trkpt>
      <trkpt lat="47.1359020" lon="6.7544380">
        <ele>963.8</ele>
        <time>2022-07-21T14:24:52Z</time>
      </trkpt>
      <trkpt lat="47.1358950" lon="6.7544180">
        <ele>963.9</ele>
        <time>2022-07-21T14:24:53Z</time>
      </trkpt>
      <trkpt lat="47.1358890" lon="6.7543940">
        <ele>963.9</ele>
        <time>2022-07-21T14:24:54Z</time>
      </trkpt>
      <trkpt lat="47.1358760" lon="6.7543500">
        <ele>964.1</ele>
        <time>2022-07-21T14:24:55Z</time>
      </trkpt>
      <trkpt lat="47.1358710" lon="6.7543350">
        <ele>964.1</ele>
        <time>2022-07-21T14:24:56Z</time>
      </trkpt>
      <trkpt lat="47.1358640" lon="6.7542920">
        <ele>964.2</ele>
        <time>2022-07-21T14:24:58Z</time>
      </trkpt>
      <trkpt lat="47.1358550" lon="6.7542530">
        <ele>964.2</ele>
        <time>2022-07-21T14:24:59Z</time>
      </trkpt>
      <trkpt lat="47.1358390" lon="6.7542020">
        <ele>964.3</ele>
        <time>2022-07-21T14:25:00Z</time>
      </trkpt>
      <trkpt lat="47.1358330" lon="6.7541850">
        <ele>964.3</ele>
        <time>2022-07-21T14:25:01Z</time>
      </trkpt>
      <trkpt lat="47.1358140" lon="6.7541340">
        <ele>964.2</ele>
        <time>2022-07-21T14:25:02Z</time>
      </trkpt>
      <trkpt lat="47.1358030" lon="6.7540970">
        <ele>964.2</ele>
        <time>2022-07-21T14:25:03Z</time>
      </trkpt>
      <trkpt lat="47.1357780" lon="6.7540290">
        <ele>964.2</ele>
        <time>2022-07-21T14:25:05Z</time>
      </trkpt>
      <trkpt lat="47.1357560" lon="6.7539760">
        <ele>964.2</ele>
        <time>2022-07-21T14:25:06Z</time>
      </trkpt>
      <trkpt lat="47.1357360" lon="6.7539340">
        <ele>964.1</ele>
        <time>2022-07-21T14:25:07Z</time>
      </trkpt>
      <trkpt lat="47.1357210" lon="6.7538890">
        <ele>964.1</ele>
        <time>2022-07-21T14:25:08Z</time>
      </trkpt>
      <trkpt lat="47.1357060" lon="6.7538500">
        <ele>964.1</ele>
        <time>2022-07-21T14:25:09Z</time>
      </trkpt>
      <trkpt lat="47.1356940" lon="6.7538130">
        <ele>964.1</ele>
        <time>2022-07-21T14:25:11Z</time>
      </trkpt>
      <trkpt lat="47.1356790" lon="6.7537660">
        <ele>964.1</ele>
        <time>2022-07-21T14:25:12Z</time>
      </trkpt>
      <trkpt lat="47.1356640" lon="6.7537260">
        <ele>964.2</ele>
        <time>2022-07-21T14:25:13Z</time>
      </trkpt>
      <trkpt lat="47.1356440" lon="6.7536820">
        <ele>964.2</ele>
        <time>2022-07-21T14:25:15Z</time>
      </trkpt>
      <trkpt lat="47.1356390" lon="6.7536700">
        <ele>964.3</ele>
        <time>2022-07-21T14:25:16Z</time>
      </trkpt>
      <trkpt lat="47.1356350" lon="6.7536450">
        <ele>964.3</ele>
        <time>2022-07-21T14:25:17Z</time>
      </trkpt>
      <trkpt lat="47.1356310" lon="6.7536050">
        <ele>964.3</ele>
        <time>2022-07-21T14:25:19Z</time>
      </trkpt>
      <trkpt lat="47.1356210" lon="6.7535760">
        <ele>964.4</ele>
        <time>2022-07-21T14:25:20Z</time>
      </trkpt>
      <trkpt lat="47.1356170" lon="6.7535680">
        <ele>964.4</ele>
        <time>2022-07-21T14:25:21Z</time>
      </trkpt>
      <trkpt lat="47.1356120" lon="6.7535600">
        <ele>964.4</ele>
        <time>2022-07-21T14:25:22Z</time>
      </trkpt>
      <trkpt lat="47.1356070" lon="6.7535510">
        <ele>964.4</ele>
        <time>2022-07-21T14:25:23Z</time>
      </trkpt>
      <trkpt lat="47.1356040" lon="6.7535430">
        <ele>964.4</ele>
        <time>2022-07-21T14:25:24Z</time>
      </trkpt>
      <trkpt lat="47.1356010" lon="6.7535310">
        <ele>964.4</ele>
        <time>2022-07-21T14:25:25Z</time>
      </trkpt>
      <trkpt lat="47.1355990" lon="6.7535220">
        <ele>964.4</ele>
        <time>2022-07-21T14:25:26Z</time>
      </trkpt>
      <trkpt lat="47.1355980" lon="6.7535130">
        <ele>964.4</ele>
        <time>2022-07-21T14:25:27Z</time>
      </trkpt>
      <trkpt lat="47.1355970" lon="6.7535040">
        <ele>964.4</ele>
        <time>2022-07-21T14:25:28Z</time>
      </trkpt>
      <trkpt lat="47.1355960" lon="6.7534970">
        <ele>964.4</ele>
        <time>2022-07-21T14:25:29Z</time>
      </trkpt>
      <trkpt lat="47.1355960" lon="6.7534910">
        <ele>964.4</ele>
        <time>2022-07-21T14:25:30Z</time>
      </trkpt>
      <trkpt lat="47.1355960" lon="6.7534860">
        <ele>964.4</ele>
        <time>2022-07-21T14:25:31Z</time>
      </trkpt>
      <trkpt lat="47.1355960" lon="6.7534810">
        <ele>964.4</ele>
        <time>2022-07-21T14:25:32Z</time>
      </trkpt>
      <trkpt lat="47.1355900" lon="6.7534480">
        <ele>964.4</ele>
        <time>2022-07-21T14:25:33Z</time>
      </trkpt>
      <trkpt lat="47.1355850" lon="6.7534200">
        <ele>964.4</ele>
        <time>2022-07-21T14:25:34Z</time>
      </trkpt>
      <trkpt lat="47.1355800" lon="6.7533930">
        <ele>964.4</ele>
        <time>2022-07-21T14:25:42Z</time>
      </trkpt>
      <trkpt lat="47.1355750" lon="6.7533650">
        <ele>964.3</ele>
        <time>2022-07-21T14:25:44Z</time>
      </trkpt>
      <trkpt lat="47.1355700" lon="6.7533370">
        <ele>964.3</ele>
        <time>2022-07-21T14:25:45Z</time>
      </trkpt>
      <trkpt lat="47.1355650" lon="6.7533090">
        <ele>964.2</ele>
        <time>2022-07-21T14:25:46Z</time>
      </trkpt>
      <trkpt lat="47.1355510" lon="6.7532530">
        <ele>964.1</ele>
        <time>2022-07-21T14:25:47Z</time>
      </trkpt>
      <trkpt lat="47.1355460" lon="6.7532300">
        <ele>964.1</ele>
        <time>2022-07-21T14:25:48Z</time>
      </trkpt>
      <trkpt lat="47.1355270" lon="6.7531570">
        <ele>964.0</ele>
        <time>2022-07-21T14:25:49Z</time>
      </trkpt>
      <trkpt lat="47.1355130" lon="6.7531140">
        <ele>963.9</ele>
        <time>2022-07-21T14:25:50Z</time>
      </trkpt>
      <trkpt lat="47.1355000" lon="6.7530530">
        <ele>963.8</ele>
        <time>2022-07-21T14:25:52Z</time>
      </trkpt>
      <trkpt lat="47.1354830" lon="6.7529900">
        <ele>963.7</ele>
        <time>2022-07-21T14:25:53Z</time>
      </trkpt>
      <trkpt lat="47.1354700" lon="6.7529430">
        <ele>963.6</ele>
        <time>2022-07-21T14:25:55Z</time>
      </trkpt>
      <trkpt lat="47.1354560" lon="6.7528950">
        <ele>963.5</ele>
        <time>2022-07-21T14:25:56Z</time>
      </trkpt>
      <trkpt lat="47.1354500" lon="6.7528560">
        <ele>963.5</ele>
        <time>2022-07-21T14:25:57Z</time>
      </trkpt>
      <trkpt lat="47.1354440" lon="6.7528130">
        <ele>963.4</ele>
        <time>2022-07-21T14:25:58Z</time>
      </trkpt>
      <trkpt lat="47.1354380" lon="6.7527730">
        <ele>963.3</ele>
        <time>2022-07-21T14:25:59Z</time>
      </trkpt>
      <trkpt lat="47.1354330" lon="6.7527130">
        <ele>963.2</ele>
        <time>2022-07-21T14:26:00Z</time>
      </trkpt>
      <trkpt lat="47.1354330" lon="6.7526910">
        <ele>963.2</ele>
        <time>2022-07-21T14:26:01Z</time>
      </trkpt>
      <trkpt lat="47.1354270" lon="6.7526430">
        <ele>963.1</ele>
        <time>2022-07-21T14:26:02Z</time>
      </trkpt>
      <trkpt lat="47.1354190" lon="6.7526030">
        <ele>963.0</ele>
        <time>2022-07-21T14:26:03Z</time>
      </trkpt>
      <trkpt lat="47.1354080" lon="6.7525520">
        <ele>962.8</ele>
        <time>2022-07-21T14:26:05Z</time>
      </trkpt>
      <trkpt lat="47.1353980" lon="6.7524990">
        <ele>962.6</ele>
        <time>2022-07-21T14:26:06Z</time>
      </trkpt>
      <trkpt lat="47.1353860" lon="6.7524380">
        <ele>962.4</ele>
        <time>2022-07-21T14:26:07Z</time>
      </trkpt>
      <trkpt lat="47.1353730" lon="6.7523820">
        <ele>962.2</ele>
        <time>2022-07-21T14:26:08Z</time>
      </trkpt>
      <trkpt lat="47.1353450" lon="6.7522950">
        <ele>961.9</ele>
        <time>2022-07-21T14:26:10Z</time>
      </trkpt>
      <trkpt lat="47.1353190" lon="6.7522130">
        <ele>961.6</ele>
        <time>2022-07-21T14:26:11Z</time>
      </trkpt>
      <trkpt lat="47.1352970" lon="6.7521420">
        <ele>961.4</ele>
        <time>2022-07-21T14:26:12Z</time>
      </trkpt>
      <trkpt lat="47.1352750" lon="6.7520730">
        <ele>961.2</ele>
        <time>2022-07-21T14:26:13Z</time>
      </trkpt>
      <trkpt lat="47.1352530" lon="6.7520040">
        <ele>961.1</ele>
        <time>2022-07-21T14:26:14Z</time>
      </trkpt>
      <trkpt lat="47.1352330" lon="6.7519380">
        <ele>961.0</ele>
        <time>2022-07-21T14:26:15Z</time>
      </trkpt>
      <trkpt lat="47.1352020" lon="6.7518740">
        <ele>961.0</ele>
        <time>2022-07-21T14:26:16Z</time>
      </trkpt>
      <trkpt lat="47.1351760" lon="6.7518180">
        <ele>961.0</ele>
        <time>2022-07-21T14:26:17Z</time>
      </trkpt>
      <trkpt lat="47.1351540" lon="6.7517780">
        <ele>961.0</ele>
        <time>2022-07-21T14:26:18Z</time>
      </trkpt>
      <trkpt lat="47.1351210" lon="6.7517360">
        <ele>961.0</ele>
        <time>2022-07-21T14:26:19Z</time>
      </trkpt>
      <trkpt lat="47.1350970" lon="6.7516980">
        <ele>961.1</ele>
        <time>2022-07-21T14:26:20Z</time>
      </trkpt>
      <trkpt lat="47.1350780" lon="6.7516630">
        <ele>961.2</ele>
        <time>2022-07-21T14:26:21Z</time>
      </trkpt>
      <trkpt lat="47.1350540" lon="6.7516310">
        <ele>961.2</ele>
        <time>2022-07-21T14:26:22Z</time>
      </trkpt>
      <trkpt lat="47.1350380" lon="6.7515970">
        <ele>961.3</ele>
        <time>2022-07-21T14:26:23Z</time>
      </trkpt>
      <trkpt lat="47.1350270" lon="6.7515490">
        <ele>961.4</ele>
        <time>2022-07-21T14:26:24Z</time>
      </trkpt>
      <trkpt lat="47.1350110" lon="6.7515090">
        <ele>961.6</ele>
        <time>2022-07-21T14:26:25Z</time>
      </trkpt>
      <trkpt lat="47.1349900" lon="6.7514670">
        <ele>961.7</ele>
        <time>2022-07-21T14:26:26Z</time>
      </trkpt>
      <trkpt lat="47.1349700" lon="6.7514210">
        <ele>961.9</ele>
        <time>2022-07-21T14:26:28Z</time>
      </trkpt>
      <trkpt lat="47.1349500" lon="6.7513820">
        <ele>962.0</ele>
        <time>2022-07-21T14:26:29Z</time>
      </trkpt>
      <trkpt lat="47.1349210" lon="6.7513380">
        <ele>962.2</ele>
        <time>2022-07-21T14:26:30Z</time>
      </trkpt>
      <trkpt lat="47.1349090" lon="6.7513220">
        <ele>962.3</ele>
        <time>2022-07-21T14:26:31Z</time>
      </trkpt>
      <trkpt lat="47.1348780" lon="6.7512790">
        <ele>962.4</ele>
        <time>2022-07-21T14:26:32Z</time>
      </trkpt>
      <trkpt lat="47.1348520" lon="6.7512360">
        <ele>962.6</ele>
        <time>2022-07-21T14:26:34Z</time>
      </trkpt>
      <trkpt lat="47.1348300" lon="6.7511890">
        <ele>962.7</ele>
        <time>2022-07-21T14:26:35Z</time>
      </trkpt>
      <trkpt lat="47.1348100" lon="6.7511450">
        <ele>962.8</ele>
        <time>2022-07-21T14:26:36Z</time>
      </trkpt>
      <trkpt lat="47.1348020" lon="6.7511270">
        <ele>962.8</ele>
        <time>2022-07-21T14:26:37Z</time>
      </trkpt>
      <trkpt lat="47.1347840" lon="6.7510890">
        <ele>962.9</ele>
        <time>2022-07-21T14:26:39Z</time>
      </trkpt>
      <trkpt lat="47.1347650" lon="6.7510520">
        <ele>963.0</ele>
        <time>2022-07-21T14:26:40Z</time>
      </trkpt>
      <trkpt lat="47.1347390" lon="6.7510070">
        <ele>963.0</ele>
        <time>2022-07-21T14:26:41Z</time>
      </trkpt>
      <trkpt lat="47.1347310" lon="6.7509920">
        <ele>963.1</ele>
        <time>2022-07-21T14:26:42Z</time>
      </trkpt>
      <trkpt lat="47.1347050" lon="6.7509480">
        <ele>963.1</ele>
        <time>2022-07-21T14:26:43Z</time>
      </trkpt>
      <trkpt lat="47.1346790" lon="6.7509000">
        <ele>963.2</ele>
        <time>2022-07-21T14:26:44Z</time>
      </trkpt>
      <trkpt lat="47.1346540" lon="6.7508590">
        <ele>963.2</ele>
        <time>2022-07-21T14:26:45Z</time>
      </trkpt>
      <trkpt lat="47.1346360" lon="6.7508270">
        <ele>963.3</ele>
        <time>2022-07-21T14:26:46Z</time>
      </trkpt>
      <trkpt lat="47.1346160" lon="6.7507920">
        <ele>963.3</ele>
        <time>2022-07-21T14:26:48Z</time>
      </trkpt>
      <trkpt lat="47.1345980" lon="6.7507590">
        <ele>963.3</ele>
        <time>2022-07-21T14:26:49Z</time>
      </trkpt>
      <trkpt lat="47.1345770" lon="6.7507100">
        <ele>963.3</ele>
        <time>2022-07-21T14:26:50Z</time>
      </trkpt>
      <trkpt lat="47.1345590" lon="6.7506600">
        <ele>963.2</ele>
        <time>2022-07-21T14:26:51Z</time>
      </trkpt>
      <trkpt lat="47.1345490" lon="6.7506030">
        <ele>963.2</ele>
        <time>2022-07-21T14:26:52Z</time>
      </trkpt>
      <trkpt lat="47.1345380" lon="6.7505470">
        <ele>963.1</ele>
        <time>2022-07-21T14:26:53Z</time>
      </trkpt>
      <trkpt lat="47.1345150" lon="6.7504670">
        <ele>962.9</ele>
        <time>2022-07-21T14:26:55Z</time>
      </trkpt>
      <trkpt lat="47.1344980" lon="6.7504130">
        <ele>962.8</ele>
        <time>2022-07-21T14:26:56Z</time>
      </trkpt>
      <trkpt lat="47.1344790" lon="6.7503520">
        <ele>962.7</ele>
        <time>2022-07-21T14:26:57Z</time>
      </trkpt>
      <trkpt lat="47.1344620" lon="6.7503020">
        <ele>962.5</ele>
        <time>2022-07-21T14:26:58Z</time>
      </trkpt>
      <trkpt lat="47.1344390" lon="6.7502340">
        <ele>962.3</ele>
        <time>2022-07-21T14:26:59Z</time>
      </trkpt>
      <trkpt lat="47.1343970" lon="6.7501300">
        <ele>962.0</ele>
        <time>2022-07-21T14:27:01Z</time>
      </trkpt>
      <trkpt lat="47.1343810" lon="6.7500540">
        <ele>961.8</ele>
        <time>2022-07-21T14:27:02Z</time>
      </trkpt>
      <trkpt lat="47.1343570" lon="6.7499870">
        <ele>961.6</ele>
        <time>2022-07-21T14:27:03Z</time>
      </trkpt>
      <trkpt lat="47.1343270" lon="6.7499320">
        <ele>961.4</ele>
        <time>2022-07-21T14:27:04Z</time>
      </trkpt>
      <trkpt lat="47.1342970" lon="6.7498740">
        <ele>961.2</ele>
        <time>2022-07-21T14:27:05Z</time>
      </trkpt>
      <trkpt lat="47.1342710" lon="6.7498110">
        <ele>961.1</ele>
        <time>2022-07-21T14:27:06Z</time>
      </trkpt>
      <trkpt lat="47.1342490" lon="6.7497560">
        <ele>961.1</ele>
        <time>2022-07-21T14:27:07Z</time>
      </trkpt>
      <trkpt lat="47.1342300" lon="6.7497030">
        <ele>961.0</ele>
        <time>2022-07-21T14:27:08Z</time>
      </trkpt>
      <trkpt lat="47.1342060" lon="6.7496440">
        <ele>961.0</ele>
        <time>2022-07-21T14:27:09Z</time>
      </trkpt>
      <trkpt lat="47.1341810" lon="6.7495770">
        <ele>961.0</ele>
        <time>2022-07-21T14:27:10Z</time>
      </trkpt>
      <trkpt lat="47.1341810" lon="6.7495150">
        <ele>961.0</ele>
        <time>2022-07-21T14:27:11Z</time>
      </trkpt>
      <trkpt lat="47.1341670" lon="6.7494480">
        <ele>961.1</ele>
        <time>2022-07-21T14:27:13Z</time>
      </trkpt>
      <trkpt lat="47.1341430" lon="6.7493960">
        <ele>961.1</ele>
        <time>2022-07-21T14:27:14Z</time>
      </trkpt>
      <trkpt lat="47.1341230" lon="6.7493460">
        <ele>961.2</ele>
        <time>2022-07-21T14:27:15Z</time>
      </trkpt>
      <trkpt lat="47.1341040" lon="6.7492940">
        <ele>961.3</ele>
        <time>2022-07-21T14:27:16Z</time>
      </trkpt>
      <trkpt lat="47.1340740" lon="6.7492250">
        <ele>961.3</ele>
        <time>2022-07-21T14:27:18Z</time>
      </trkpt>
      <trkpt lat="47.1340630" lon="6.7491790">
        <ele>961.4</ele>
        <time>2022-07-21T14:27:19Z</time>
      </trkpt>
      <trkpt lat="47.1340490" lon="6.7491330">
        <ele>961.4</ele>
        <time>2022-07-21T14:27:20Z</time>
      </trkpt>
      <trkpt lat="47.1340350" lon="6.7490890">
        <ele>961.3</ele>
        <time>2022-07-21T14:27:21Z</time>
      </trkpt>
      <trkpt lat="47.1340220" lon="6.7490440">
        <ele>961.3</ele>
        <time>2022-07-21T14:27:22Z</time>
      </trkpt>
      <trkpt lat="47.1340140" lon="6.7489990">
        <ele>961.2</ele>
        <time>2022-07-21T14:27:23Z</time>
      </trkpt>
      <trkpt lat="47.1340040" lon="6.7489550">
        <ele>961.1</ele>
        <time>2022-07-21T14:27:24Z</time>
      </trkpt>
      <trkpt lat="47.1339950" lon="6.7489080">
        <ele>961.0</ele>
        <time>2022-07-21T14:27:25Z</time>
      </trkpt>
      <trkpt lat="47.1339830" lon="6.7488620">
        <ele>960.9</ele>
        <time>2022-07-21T14:27:26Z</time>
      </trkpt>
      <trkpt lat="47.1339710" lon="6.7488160">
        <ele>960.8</ele>
        <time>2022-07-21T14:27:27Z</time>
      </trkpt>
      <trkpt lat="47.1339620" lon="6.7487620">
        <ele>960.6</ele>
        <time>2022-07-21T14:27:28Z</time>
      </trkpt>
      <trkpt lat="47.1339480" lon="6.7486780">
        <ele>960.3</ele>
        <time>2022-07-21T14:27:29Z</time>
      </trkpt>
      <trkpt lat="47.1339360" lon="6.7486100">
        <ele>960.1</ele>
        <time>2022-07-21T14:27:30Z</time>
      </trkpt>
      <trkpt lat="47.1339200" lon="6.7484870">
        <ele>959.6</ele>
        <time>2022-07-21T14:27:32Z</time>
      </trkpt>
      <trkpt lat="47.1339080" lon="6.7484150">
        <ele>959.4</ele>
        <time>2022-07-21T14:27:33Z</time>
      </trkpt>
      <trkpt lat="47.1338960" lon="6.7483440">
        <ele>959.1</ele>
        <time>2022-07-21T14:27:34Z</time>
      </trkpt>
      <trkpt lat="47.1338830" lon="6.7482730">
        <ele>958.8</ele>
        <time>2022-07-21T14:27:35Z</time>
      </trkpt>
      <trkpt lat="47.1338730" lon="6.7481920">
        <ele>958.6</ele>
        <time>2022-07-21T14:27:36Z</time>
      </trkpt>
      <trkpt lat="47.1338640" lon="6.7481130">
        <ele>958.3</ele>
        <time>2022-07-21T14:27:37Z</time>
      </trkpt>
      <trkpt lat="47.1338530" lon="6.7480360">
        <ele>958.1</ele>
        <time>2022-07-21T14:27:38Z</time>
      </trkpt>
      <trkpt lat="47.1338400" lon="6.7479530">
        <ele>957.8</ele>
        <time>2022-07-21T14:27:39Z</time>
      </trkpt>
      <trkpt lat="47.1338250" lon="6.7478710">
        <ele>957.5</ele>
        <time>2022-07-21T14:27:40Z</time>
      </trkpt>
      <trkpt lat="47.1338080" lon="6.7477870">
        <ele>957.1</ele>
        <time>2022-07-21T14:27:41Z</time>
      </trkpt>
      <trkpt lat="47.1337900" lon="6.7477020">
        <ele>956.6</ele>
        <time>2022-07-21T14:27:42Z</time>
      </trkpt>
      <trkpt lat="47.1337730" lon="6.7476130">
        <ele>956.2</ele>
        <time>2022-07-21T14:27:43Z</time>
      </trkpt>
      <trkpt lat="47.1337540" lon="6.7475140">
        <ele>955.7</ele>
        <time>2022-07-21T14:27:44Z</time>
      </trkpt>
      <trkpt lat="47.1337320" lon="6.7474180">
        <ele>955.3</ele>
        <time>2022-07-21T14:27:45Z</time>
      </trkpt>
      <trkpt lat="47.1337080" lon="6.7473130">
        <ele>954.8</ele>
        <time>2022-07-21T14:27:46Z</time>
      </trkpt>
      <trkpt lat="47.1336940" lon="6.7472060">
        <ele>954.3</ele>
        <time>2022-07-21T14:27:47Z</time>
      </trkpt>
      <trkpt lat="47.1336810" lon="6.7471060">
        <ele>953.9</ele>
        <time>2022-07-21T14:27:48Z</time>
      </trkpt>
      <trkpt lat="47.1336560" lon="6.7470140">
        <ele>953.5</ele>
        <time>2022-07-21T14:27:49Z</time>
      </trkpt>
      <trkpt lat="47.1336350" lon="6.7469180">
        <ele>953.0</ele>
        <time>2022-07-21T14:27:50Z</time>
      </trkpt>
      <trkpt lat="47.1336170" lon="6.7468010">
        <ele>952.4</ele>
        <time>2022-07-21T14:27:51Z</time>
      </trkpt>
      <trkpt lat="47.1336010" lon="6.7466960">
        <ele>951.9</ele>
        <time>2022-07-21T14:27:52Z</time>
      </trkpt>
      <trkpt lat="47.1335850" lon="6.7465920">
        <ele>951.3</ele>
        <time>2022-07-21T14:27:53Z</time>
      </trkpt>
      <trkpt lat="47.1335660" lon="6.7464830">
        <ele>950.8</ele>
        <time>2022-07-21T14:27:54Z</time>
      </trkpt>
      <trkpt lat="47.1335450" lon="6.7463820">
        <ele>950.3</ele>
        <time>2022-07-21T14:27:55Z</time>
      </trkpt>
      <trkpt lat="47.1335220" lon="6.7462780">
        <ele>949.8</ele>
        <time>2022-07-21T14:27:56Z</time>
      </trkpt>
      <trkpt lat="47.1335050" lon="6.7461770">
        <ele>949.3</ele>
        <time>2022-07-21T14:27:57Z</time>
      </trkpt>
      <trkpt lat="47.1334880" lon="6.7460770">
        <ele>949.0</ele>
        <time>2022-07-21T14:27:58Z</time>
      </trkpt>
      <trkpt lat="47.1334680" lon="6.7459740">
        <ele>948.6</ele>
        <time>2022-07-21T14:27:59Z</time>
      </trkpt>
      <trkpt lat="47.1334470" lon="6.7458760">
        <ele>948.4</ele>
        <time>2022-07-21T14:28:00Z</time>
      </trkpt>
      <trkpt lat="47.1334260" lon="6.7457810">
        <ele>948.3</ele>
        <time>2022-07-21T14:28:01Z</time>
      </trkpt>
      <trkpt lat="47.1334080" lon="6.7456890">
        <ele>948.3</ele>
        <time>2022-07-21T14:28:02Z</time>
      </trkpt>
      <trkpt lat="47.1333910" lon="6.7456010">
        <ele>948.3</ele>
        <time>2022-07-21T14:28:03Z</time>
      </trkpt>
      <trkpt lat="47.1333810" lon="6.7455210">
        <ele>948.3</ele>
        <time>2022-07-21T14:28:04Z</time>
      </trkpt>
      <trkpt lat="47.1333640" lon="6.7454420">
        <ele>948.3</ele>
        <time>2022-07-21T14:28:05Z</time>
      </trkpt>
      <trkpt lat="47.1333510" lon="6.7453690">
        <ele>948.4</ele>
        <time>2022-07-21T14:28:06Z</time>
      </trkpt>
      <trkpt lat="47.1333410" lon="6.7452980">
        <ele>948.5</ele>
        <time>2022-07-21T14:28:07Z</time>
      </trkpt>
      <trkpt lat="47.1333360" lon="6.7452650">
        <ele>948.6</ele>
        <time>2022-07-21T14:28:08Z</time>
      </trkpt>
      <trkpt lat="47.1333280" lon="6.7452110">
        <ele>948.7</ele>
        <time>2022-07-21T14:28:09Z</time>
      </trkpt>
      <trkpt lat="47.1333200" lon="6.7451730">
        <ele>948.8</ele>
        <time>2022-07-21T14:28:10Z</time>
      </trkpt>
      <trkpt lat="47.1333120" lon="6.7451330">
        <ele>948.9</ele>
        <time>2022-07-21T14:28:11Z</time>
      </trkpt>
      <trkpt lat="47.1333030" lon="6.7450920">
        <ele>949.1</ele>
        <time>2022-07-21T14:28:12Z</time>
      </trkpt>
      <trkpt lat="47.1332990" lon="6.7450390">
        <ele>949.2</ele>
        <time>2022-07-21T14:28:13Z</time>
      </trkpt>
      <trkpt lat="47.1332990" lon="6.7450190">
        <ele>949.3</ele>
        <time>2022-07-21T14:28:14Z</time>
      </trkpt>
      <trkpt lat="47.1332980" lon="6.7449760">
        <ele>949.4</ele>
        <time>2022-07-21T14:28:15Z</time>
      </trkpt>
      <trkpt lat="47.1332810" lon="6.7449230">
        <ele>949.6</ele>
        <time>2022-07-21T14:28:16Z</time>
      </trkpt>
      <trkpt lat="47.1332710" lon="6.7448700">
        <ele>949.9</ele>
        <time>2022-07-21T14:28:18Z</time>
      </trkpt>
      <trkpt lat="47.1332680" lon="6.7448130">
        <ele>950.2</ele>
        <time>2022-07-21T14:28:19Z</time>
      </trkpt>
      <trkpt lat="47.1332680" lon="6.7447910">
        <ele>950.3</ele>
        <time>2022-07-21T14:28:20Z</time>
      </trkpt>
      <trkpt lat="47.1332710" lon="6.7447480">
        <ele>950.5</ele>
        <time>2022-07-21T14:28:21Z</time>
      </trkpt>
      <trkpt lat="47.1332810" lon="6.7446940">
        <ele>950.8</ele>
        <time>2022-07-21T14:28:23Z</time>
      </trkpt>
      <trkpt lat="47.1332830" lon="6.7446770">
        <ele>950.9</ele>
        <time>2022-07-21T14:28:24Z</time>
      </trkpt>
      <trkpt lat="47.1332950" lon="6.7446260">
        <ele>951.2</ele>
        <time>2022-07-21T14:28:25Z</time>
      </trkpt>
      <trkpt lat="47.1332990" lon="6.7446090">
        <ele>951.3</ele>
        <time>2022-07-21T14:28:26Z</time>
      </trkpt>
      <trkpt lat="47.1333110" lon="6.7445550">
        <ele>951.6</ele>
        <time>2022-07-21T14:28:27Z</time>
      </trkpt>
      <trkpt lat="47.1333150" lon="6.7445370">
        <ele>951.6</ele>
        <time>2022-07-21T14:28:28Z</time>
      </trkpt>
      <trkpt lat="47.1333290" lon="6.7444950">
        <ele>951.8</ele>
        <time>2022-07-21T14:28:29Z</time>
      </trkpt>
      <trkpt lat="47.1333350" lon="6.7444810">
        <ele>951.9</ele>
        <time>2022-07-21T14:28:30Z</time>
      </trkpt>
      <trkpt lat="47.1333540" lon="6.7444470">
        <ele>952.0</ele>
        <time>2022-07-21T14:28:31Z</time>
      </trkpt>
      <trkpt lat="47.1333690" lon="6.7444210">
        <ele>952.1</ele>
        <time>2022-07-21T14:28:32Z</time>
      </trkpt>
      <trkpt lat="47.1333930" lon="6.7443790">
        <ele>952.2</ele>
        <time>2022-07-21T14:28:34Z</time>
      </trkpt>
      <trkpt lat="47.1334150" lon="6.7443500">
        <ele>952.3</ele>
        <time>2022-07-21T14:28:35Z</time>
      </trkpt>
      <trkpt lat="47.1334400" lon="6.7443100">
        <ele>952.3</ele>
        <time>2022-07-21T14:28:36Z</time>
      </trkpt>
      <trkpt lat="47.1334510" lon="6.7442930">
        <ele>952.3</ele>
        <time>2022-07-21T14:28:37Z</time>
      </trkpt>
      <trkpt lat="47.1334810" lon="6.7442500">
        <ele>952.3</ele>
        <time>2022-07-21T14:28:39Z</time>
      </trkpt>
      <trkpt lat="47.1335010" lon="6.7442120">
        <ele>952.3</ele>
        <time>2022-07-21T14:28:40Z</time>
      </trkpt>
      <trkpt lat="47.1335210" lon="6.7441730">
        <ele>952.3</ele>
        <time>2022-07-21T14:28:41Z</time>
      </trkpt>
      <trkpt lat="47.1335400" lon="6.7441330">
        <ele>952.2</ele>
        <time>2022-07-21T14:28:42Z</time>
      </trkpt>
      <trkpt lat="47.1335580" lon="6.7440900">
        <ele>952.2</ele>
        <time>2022-07-21T14:28:43Z</time>
      </trkpt>
      <trkpt lat="47.1335770" lon="6.7440410">
        <ele>952.1</ele>
        <time>2022-07-21T14:28:44Z</time>
      </trkpt>
      <trkpt lat="47.1335880" lon="6.7439910">
        <ele>952.1</ele>
        <time>2022-07-21T14:28:45Z</time>
      </trkpt>
      <trkpt lat="47.1335950" lon="6.7439430">
        <ele>952.0</ele>
        <time>2022-07-21T14:28:46Z</time>
      </trkpt>
      <trkpt lat="47.1335960" lon="6.7439000">
        <ele>952.0</ele>
        <time>2022-07-21T14:28:47Z</time>
      </trkpt>
      <trkpt lat="47.1335950" lon="6.7438580">
        <ele>952.1</ele>
        <time>2022-07-21T14:28:48Z</time>
      </trkpt>
      <trkpt lat="47.1335900" lon="6.7438500">
        <ele>952.1</ele>
        <time>2022-07-21T14:28:49Z</time>
      </trkpt>
      <trkpt lat="47.1335880" lon="6.7438440">
        <ele>952.1</ele>
        <time>2022-07-21T14:28:50Z</time>
      </trkpt>
      <trkpt lat="47.1335850" lon="6.7438450">
        <ele>952.1</ele>
        <time>2022-07-21T14:28:51Z</time>
      </trkpt>
      <trkpt lat="47.1335840" lon="6.7438470">
        <ele>952.1</ele>
        <time>2022-07-21T14:28:52Z</time>
      </trkpt>
      <trkpt lat="47.1335830" lon="6.7438480">
        <ele>952.1</ele>
        <time>2022-07-21T14:28:53Z</time>
      </trkpt>
      <trkpt lat="47.1335830" lon="6.7438460">
        <ele>952.1</ele>
        <time>2022-07-21T14:28:54Z</time>
      </trkpt>
      <trkpt lat="47.1335820" lon="6.7438440">
        <ele>952.1</ele>
        <time>2022-07-21T14:28:55Z</time>
      </trkpt>
      <trkpt lat="47.1335820" lon="6.7438420">
        <ele>952.1</ele>
        <time>2022-07-21T14:28:56Z</time>
      </trkpt>
      <trkpt lat="47.1335810" lon="6.7438410">
        <ele>952.1</ele>
        <time>2022-07-21T14:28:57Z</time>
      </trkpt>
      <trkpt lat="47.1335800" lon="6.7438410">
        <ele>952.1</ele>
        <time>2022-07-21T14:28:58Z</time>
      </trkpt>
      <trkpt lat="47.1335800" lon="6.7438400">
        <ele>952.1</ele>
        <time>2022-07-21T14:28:59Z</time>
      </trkpt>
      <trkpt lat="47.1335790" lon="6.7438400">
        <ele>952.1</ele>
        <time>2022-07-21T14:29:00Z</time>
      </trkpt>
      <trkpt lat="47.1335780" lon="6.7438380">
        <ele>952.1</ele>
        <time>2022-07-21T14:29:01Z</time>
      </trkpt>
      <trkpt lat="47.1335670" lon="6.7438760">
        <ele>952.1</ele>
        <time>2022-07-21T14:29:17Z</time>
      </trkpt>
      <trkpt lat="47.1335620" lon="6.7438600">
        <ele>952.1</ele>
        <time>2022-07-21T14:29:18Z</time>
      </trkpt>
      <trkpt lat="47.1335640" lon="6.7438330">
        <ele>952.1</ele>
        <time>2022-07-21T14:29:19Z</time>
      </trkpt>
      <trkpt lat="47.1335650" lon="6.7438110">
        <ele>952.1</ele>
        <time>2022-07-21T14:29:21Z</time>
      </trkpt>
      <trkpt lat="47.1335660" lon="6.7438040">
        <ele>952.1</ele>
        <time>2022-07-21T14:29:22Z</time>
      </trkpt>
      <trkpt lat="47.1335690" lon="6.7437950">
        <ele>952.1</ele>
        <time>2022-07-21T14:29:23Z</time>
      </trkpt>
      <trkpt lat="47.1335700" lon="6.7437870">
        <ele>952.1</ele>
        <time>2022-07-21T14:29:24Z</time>
      </trkpt>
      <trkpt lat="47.1335710" lon="6.7437810">
        <ele>952.1</ele>
        <time>2022-07-21T14:29:25Z</time>
      </trkpt>
      <trkpt lat="47.1335730" lon="6.7437790">
        <ele>952.1</ele>
        <time>2022-07-21T14:29:26Z</time>
      </trkpt>
      <trkpt lat="47.1335750" lon="6.7437760">
        <ele>952.1</ele>
        <time>2022-07-21T14:29:27Z</time>
      </trkpt>
      <trkpt lat="47.1335770" lon="6.7437720">
        <ele>952.1</ele>
        <time>2022-07-21T14:29:28Z</time>
      </trkpt>
      <trkpt lat="47.1335780" lon="6.7437700">
        <ele>952.1</ele>
        <time>2022-07-21T14:29:29Z</time>
      </trkpt>
      <trkpt lat="47.1335790" lon="6.7437670">
        <ele>952.1</ele>
        <time>2022-07-21T14:29:30Z</time>
      </trkpt>
      <trkpt lat="47.1335790" lon="6.7437630">
        <ele>952.1</ele>
        <time>2022-07-21T14:29:31Z</time>
      </trkpt>
      <trkpt lat="47.1335790" lon="6.7437620">
        <ele>952.1</ele>
        <time>2022-07-21T14:29:32Z</time>
      </trkpt>
      <trkpt lat="47.1335800" lon="6.7437610">
        <ele>952.1</ele>
        <time>2022-07-21T14:29:33Z</time>
      </trkpt>
      <trkpt lat="47.1335810" lon="6.7437590">
        <ele>952.1</ele>
        <time>2022-07-21T14:29:34Z</time>
      </trkpt>
      <trkpt lat="47.1336150" lon="6.7437300">
        <ele>952.1</ele>
        <time>2022-07-21T14:29:56Z</time>
      </trkpt>
      <trkpt lat="47.1336140" lon="6.7437140">
        <ele>952.1</ele>
        <time>2022-07-21T14:29:57Z</time>
      </trkpt>
      <trkpt lat="47.1336070" lon="6.7437010">
        <ele>952.1</ele>
        <time>2022-07-21T14:29:58Z</time>
      </trkpt>
      <trkpt lat="47.1336010" lon="6.7436850">
        <ele>952.1</ele>
        <time>2022-07-21T14:29:59Z</time>
      </trkpt>
      <trkpt lat="47.1335960" lon="6.7436670">
        <ele>952.1</ele>
        <time>2022-07-21T14:30:00Z</time>
      </trkpt>
      <trkpt lat="47.1335910" lon="6.7436380">
        <ele>952.1</ele>
        <time>2022-07-21T14:30:01Z</time>
      </trkpt>
      <trkpt lat="47.1335870" lon="6.7435920">
        <ele>952.1</ele>
        <time>2022-07-21T14:30:02Z</time>
      </trkpt>
      <trkpt lat="47.1335860" lon="6.7435790">
        <ele>952.1</ele>
        <time>2022-07-21T14:30:03Z</time>
      </trkpt>
      <trkpt lat="47.1335840" lon="6.7435660">
        <ele>952.1</ele>
        <time>2022-07-21T14:30:04Z</time>
      </trkpt>
      <trkpt lat="47.1335750" lon="6.7435130">
        <ele>952.1</ele>
        <time>2022-07-21T14:30:06Z</time>
      </trkpt>
      <trkpt lat="47.1335620" lon="6.7434680">
        <ele>952.1</ele>
        <time>2022-07-21T14:30:07Z</time>
      </trkpt>
      <trkpt lat="47.1335580" lon="6.7434550">
        <ele>952.1</ele>
        <time>2022-07-21T14:30:08Z</time>
      </trkpt>
      <trkpt lat="47.1335520" lon="6.7434130">
        <ele>952.1</ele>
        <time>2022-07-21T14:30:09Z</time>
      </trkpt>
      <trkpt lat="47.1335490" lon="6.7433970">
        <ele>952.2</ele>
        <time>2022-07-21T14:30:10Z</time>
      </trkpt>
      <trkpt lat="47.1335450" lon="6.7433780">
        <ele>952.2</ele>
        <time>2022-07-21T14:30:11Z</time>
      </trkpt>
      <trkpt lat="47.1335370" lon="6.7433410">
        <ele>952.2</ele>
        <time>2022-07-21T14:30:13Z</time>
      </trkpt>
      <trkpt lat="47.1335360" lon="6.7433230">
        <ele>952.2</ele>
        <time>2022-07-21T14:30:14Z</time>
      </trkpt>
      <trkpt lat="47.1335370" lon="6.7433160">
        <ele>952.2</ele>
        <time>2022-07-21T14:30:15Z</time>
      </trkpt>
      <trkpt lat="47.1335380" lon="6.7433090">
        <ele>952.2</ele>
        <time>2022-07-21T14:30:16Z</time>
      </trkpt>
      <trkpt lat="47.1335390" lon="6.7433020">
        <ele>952.2</ele>
        <time>2022-07-21T14:30:17Z</time>
      </trkpt>
      <trkpt lat="47.1335390" lon="6.7432950">
        <ele>952.2</ele>
        <time>2022-07-21T14:30:18Z</time>
      </trkpt>
      <trkpt lat="47.1335400" lon="6.7432880">
        <ele>952.2</ele>
        <time>2022-07-21T14:30:19Z</time>
      </trkpt>
      <trkpt lat="47.1335380" lon="6.7432540">
        <ele>952.2</ele>
        <time>2022-07-21T14:30:20Z</time>
      </trkpt>
      <trkpt lat="47.1335370" lon="6.7432400">
        <ele>952.2</ele>
        <time>2022-07-21T14:30:21Z</time>
      </trkpt>
      <trkpt lat="47.1335350" lon="6.7432270">
        <ele>952.2</ele>
        <time>2022-07-21T14:30:22Z</time>
      </trkpt>
      <trkpt lat="47.1335190" lon="6.7431710">
        <ele>952.2</ele>
        <time>2022-07-21T14:30:23Z</time>
      </trkpt>
      <trkpt lat="47.1335120" lon="6.7431520">
        <ele>952.2</ele>
        <time>2022-07-21T14:30:24Z</time>
      </trkpt>
      <trkpt lat="47.1334990" lon="6.7431120">
        <ele>952.2</ele>
        <time>2022-07-21T14:30:26Z</time>
      </trkpt>
      <trkpt lat="47.1334870" lon="6.7430750">
        <ele>952.2</ele>
        <time>2022-07-21T14:30:27Z</time>
      </trkpt>
      <trkpt lat="47.1334720" lon="6.7430320">
        <ele>952.2</ele>
        <time>2022-07-21T14:30:28Z</time>
      </trkpt>
      <trkpt lat="47.1334520" lon="6.7429780">
        <ele>952.2</ele>
        <time>2022-07-21T14:30:29Z</time>
      </trkpt>
      <trkpt lat="47.1334370" lon="6.7429440">
        <ele>952.2</ele>
        <time>2022-07-21T14:30:30Z</time>
      </trkpt>
      <trkpt lat="47.1334230" lon="6.7429040">
        <ele>952.3</ele>
        <time>2022-07-21T14:30:32Z</time>
      </trkpt>
      <trkpt lat="47.1334120" lon="6.7428620">
        <ele>952.3</ele>
        <time>2022-07-21T14:30:33Z</time>
      </trkpt>
      <trkpt lat="47.1334050" lon="6.7428120">
        <ele>952.3</ele>
        <time>2022-07-21T14:30:34Z</time>
      </trkpt>
      <trkpt lat="47.1334030" lon="6.7427940">
        <ele>952.3</ele>
        <time>2022-07-21T14:30:35Z</time>
      </trkpt>
      <trkpt lat="47.1333920" lon="6.7427390">
        <ele>952.3</ele>
        <time>2022-07-21T14:30:36Z</time>
      </trkpt>
      <trkpt lat="47.1333870" lon="6.7427210">
        <ele>952.3</ele>
        <time>2022-07-21T14:30:37Z</time>
      </trkpt>
      <trkpt lat="47.1333760" lon="6.7426600">
        <ele>952.3</ele>
        <time>2022-07-21T14:30:38Z</time>
      </trkpt>
      <trkpt lat="47.1333650" lon="6.7426220">
        <ele>952.3</ele>
        <time>2022-07-21T14:30:40Z</time>
      </trkpt>
      <trkpt lat="47.1333500" lon="6.7425700">
        <ele>952.3</ele>
        <time>2022-07-21T14:30:41Z</time>
      </trkpt>
      <trkpt lat="47.1333400" lon="6.7425300">
        <ele>952.3</ele>
        <time>2022-07-21T14:30:42Z</time>
      </trkpt>
      <trkpt lat="47.1333320" lon="6.7424930">
        <ele>952.3</ele>
        <time>2022-07-21T14:30:43Z</time>
      </trkpt>
      <trkpt lat="47.1333220" lon="6.7424320">
        <ele>952.3</ele>
        <time>2022-07-21T14:30:45Z</time>
      </trkpt>
      <trkpt lat="47.1333130" lon="6.7423900">
        <ele>952.3</ele>
        <time>2022-07-21T14:30:46Z</time>
      </trkpt>
      <trkpt lat="47.1333050" lon="6.7423430">
        <ele>952.3</ele>
        <time>2022-07-21T14:30:47Z</time>
      </trkpt>
      <trkpt lat="47.1332920" lon="6.7422860">
        <ele>952.3</ele>
        <time>2022-07-21T14:30:48Z</time>
      </trkpt>
      <trkpt lat="47.1332780" lon="6.7422340">
        <ele>952.2</ele>
        <time>2022-07-21T14:30:49Z</time>
      </trkpt>
      <trkpt lat="47.1332670" lon="6.7421850">
        <ele>952.2</ele>
        <time>2022-07-21T14:30:50Z</time>
      </trkpt>
      <trkpt lat="47.1332540" lon="6.7421250">
        <ele>952.2</ele>
        <time>2022-07-21T14:30:52Z</time>
      </trkpt>
      <trkpt lat="47.1332440" lon="6.7420760">
        <ele>952.2</ele>
        <time>2022-07-21T14:30:53Z</time>
      </trkpt>
      <trkpt lat="47.1332290" lon="6.7420030">
        <ele>952.1</ele>
        <time>2022-07-21T14:30:54Z</time>
      </trkpt>
      <trkpt lat="47.1332180" lon="6.7419570">
        <ele>952.1</ele>
        <time>2022-07-21T14:30:55Z</time>
      </trkpt>
      <trkpt lat="47.1332050" lon="6.7419020">
        <ele>952.1</ele>
        <time>2022-07-21T14:30:57Z</time>
      </trkpt>
      <trkpt lat="47.1331920" lon="6.7418440">
        <ele>952.0</ele>
        <time>2022-07-21T14:30:58Z</time>
      </trkpt>
      <trkpt lat="47.1331840" lon="6.7417980">
        <ele>952.0</ele>
        <time>2022-07-21T14:30:59Z</time>
      </trkpt>
      <trkpt lat="47.1331730" lon="6.7417280">
        <ele>951.9</ele>
        <time>2022-07-21T14:31:00Z</time>
      </trkpt>
      <trkpt lat="47.1331620" lon="6.7416680">
        <ele>951.8</ele>
        <time>2022-07-21T14:31:01Z</time>
      </trkpt>
      <trkpt lat="47.1331500" lon="6.7416100">
        <ele>951.8</ele>
        <time>2022-07-21T14:31:03Z</time>
      </trkpt>
      <trkpt lat="47.1331410" lon="6.7415540">
        <ele>951.7</ele>
        <time>2022-07-21T14:31:04Z</time>
      </trkpt>
      <trkpt lat="47.1331250" lon="6.7414640">
        <ele>951.6</ele>
        <time>2022-07-21T14:31:05Z</time>
      </trkpt>
      <trkpt lat="47.1330820" lon="6.7414030">
        <ele>951.5</ele>
        <time>2022-07-21T14:31:06Z</time>
      </trkpt>
      <trkpt lat="47.1330720" lon="6.7413230">
        <ele>951.5</ele>
        <time>2022-07-21T14:31:08Z</time>
      </trkpt>
      <trkpt lat="47.1330680" lon="6.7412510">
        <ele>951.4</ele>
        <time>2022-07-21T14:31:09Z</time>
      </trkpt>
      <trkpt lat="47.1330630" lon="6.7411950">
        <ele>951.4</ele>
        <time>2022-07-21T14:31:10Z</time>
      </trkpt>
      <trkpt lat="47.1330570" lon="6.7411350">
        <ele>951.4</ele>
        <time>2022-07-21T14:31:11Z</time>
      </trkpt>
      <trkpt lat="47.1330500" lon="6.7410880">
        <ele>951.3</ele>
        <time>2022-07-21T14:31:12Z</time>
      </trkpt>
      <trkpt lat="47.1330320" lon="6.7410020">
        <ele>951.2</ele>
        <time>2022-07-21T14:31:14Z</time>
      </trkpt>
      <trkpt lat="47.1330250" lon="6.7409570">
        <ele>951.2</ele>
        <time>2022-07-21T14:31:15Z</time>
      </trkpt>
      <trkpt lat="47.1330060" lon="6.7409020">
        <ele>951.1</ele>
        <time>2022-07-21T14:31:16Z</time>
      </trkpt>
      <trkpt lat="47.1329860" lon="6.7408300">
        <ele>951.1</ele>
        <time>2022-07-21T14:31:18Z</time>
      </trkpt>
      <trkpt lat="47.1329750" lon="6.7407700">
        <ele>951.0</ele>
        <time>2022-07-21T14:31:19Z</time>
      </trkpt>
      <trkpt lat="47.1329680" lon="6.7407130">
        <ele>950.9</ele>
        <time>2022-07-21T14:31:20Z</time>
      </trkpt>
      <trkpt lat="47.1329600" lon="6.7406590">
        <ele>950.8</ele>
        <time>2022-07-21T14:31:21Z</time>
      </trkpt>
      <trkpt lat="47.1329450" lon="6.7405760">
        <ele>950.8</ele>
        <time>2022-07-21T14:31:22Z</time>
      </trkpt>
      <trkpt lat="47.1329360" lon="6.7405280">
        <ele>950.7</ele>
        <time>2022-07-21T14:31:23Z</time>
      </trkpt>
      <trkpt lat="47.1329260" lon="6.7404690">
        <ele>950.7</ele>
        <time>2022-07-21T14:31:24Z</time>
      </trkpt>
      <trkpt lat="47.1329110" lon="6.7403830">
        <ele>950.6</ele>
        <time>2022-07-21T14:31:26Z</time>
      </trkpt>
      <trkpt lat="47.1328930" lon="6.7402990">
        <ele>950.7</ele>
        <time>2022-07-21T14:31:27Z</time>
      </trkpt>
      <trkpt lat="47.1328820" lon="6.7402450">
        <ele>950.7</ele>
        <time>2022-07-21T14:31:28Z</time>
      </trkpt>
      <trkpt lat="47.1328720" lon="6.7401830">
        <ele>950.8</ele>
        <time>2022-07-21T14:31:30Z</time>
      </trkpt>
      <trkpt lat="47.1328720" lon="6.7401290">
        <ele>950.9</ele>
        <time>2022-07-21T14:31:31Z</time>
      </trkpt>
      <trkpt lat="47.1328710" lon="6.7400810">
        <ele>950.9</ele>
        <time>2022-07-21T14:31:32Z</time>
      </trkpt>
      <trkpt lat="47.1328670" lon="6.7400240">
        <ele>951.0</ele>
        <time>2022-07-21T14:31:33Z</time>
      </trkpt>
      <trkpt lat="47.1328600" lon="6.7399700">
        <ele>951.2</ele>
        <time>2022-07-21T14:31:34Z</time>
      </trkpt>
      <trkpt lat="47.1328570" lon="6.7399010">
        <ele>951.4</ele>
        <time>2022-07-21T14:31:36Z</time>
      </trkpt>
      <trkpt lat="47.1328590" lon="6.7398570">
        <ele>951.5</ele>
        <time>2022-07-21T14:31:37Z</time>
      </trkpt>
      <trkpt lat="47.1328600" lon="6.7397990">
        <ele>951.8</ele>
        <time>2022-07-21T14:31:38Z</time>
      </trkpt>
      <trkpt lat="47.1328610" lon="6.7397770">
        <ele>951.9</ele>
        <time>2022-07-21T14:31:39Z</time>
      </trkpt>
      <trkpt lat="47.1328640" lon="6.7397410">
        <ele>952.0</ele>
        <time>2022-07-21T14:31:40Z</time>
      </trkpt>
      <trkpt lat="47.1328640" lon="6.7397010">
        <ele>952.3</ele>
        <time>2022-07-21T14:31:42Z</time>
      </trkpt>
      <trkpt lat="47.1328570" lon="6.7396520">
        <ele>952.5</ele>
        <time>2022-07-21T14:31:43Z</time>
      </trkpt>
      <trkpt lat="47.1328550" lon="6.7396350">
        <ele>952.6</ele>
        <time>2022-07-21T14:31:44Z</time>
      </trkpt>
      <trkpt lat="47.1328500" lon="6.7395820">
        <ele>952.9</ele>
        <time>2022-07-21T14:31:45Z</time>
      </trkpt>
      <trkpt lat="47.1328410" lon="6.7395440">
        <ele>953.2</ele>
        <time>2022-07-21T14:31:47Z</time>
      </trkpt>
      <trkpt lat="47.1328320" lon="6.7395230">
        <ele>953.3</ele>
        <time>2022-07-21T14:31:48Z</time>
      </trkpt>
      <trkpt lat="47.1328190" lon="6.7395030">
        <ele>953.5</ele>
        <time>2022-07-21T14:31:49Z</time>
      </trkpt>
      <trkpt lat="47.1328000" lon="6.7394690">
        <ele>953.8</ele>
        <time>2022-07-21T14:31:50Z</time>
      </trkpt>
      <trkpt lat="47.1327960" lon="6.7394600">
        <ele>953.8</ele>
        <time>2022-07-21T14:31:51Z</time>
      </trkpt>
      <trkpt lat="47.1327820" lon="6.7394340">
        <ele>954.0</ele>
        <time>2022-07-21T14:31:53Z</time>
      </trkpt>
      <trkpt lat="47.1327740" lon="6.7394170">
        <ele>954.1</ele>
        <time>2022-07-21T14:31:54Z</time>
      </trkpt>
      <trkpt lat="47.1327660" lon="6.7394000">
        <ele>954.3</ele>
        <time>2022-07-21T14:31:55Z</time>
      </trkpt>
      <trkpt lat="47.1327420" lon="6.7393600">
        <ele>954.6</ele>
        <time>2022-07-21T14:31:57Z</time>
      </trkpt>
      <trkpt lat="47.1327350" lon="6.7393480">
        <ele>954.7</ele>
        <time>2022-07-21T14:31:58Z</time>
      </trkpt>
      <trkpt lat="47.1327250" lon="6.7393240">
        <ele>954.9</ele>
        <time>2022-07-21T14:31:59Z</time>
      </trkpt>
      <trkpt lat="47.1327170" lon="6.7393020">
        <ele>955.1</ele>
        <time>2022-07-21T14:32:00Z</time>
      </trkpt>
      <trkpt lat="47.1327080" lon="6.7392790">
        <ele>955.3</ele>
        <time>2022-07-21T14:32:01Z</time>
      </trkpt>
      <trkpt lat="47.1326970" lon="6.7392500">
        <ele>955.5</ele>
        <time>2022-07-21T14:32:03Z</time>
      </trkpt>
      <trkpt lat="47.1326800" lon="6.7392310">
        <ele>955.7</ele>
        <time>2022-07-21T14:32:04Z</time>
      </trkpt>
      <trkpt lat="47.1326680" lon="6.7392270">
        <ele>955.9</ele>
        <time>2022-07-21T14:32:05Z</time>
      </trkpt>
      <trkpt lat="47.1326460" lon="6.7392020">
        <ele>956.1</ele>
        <time>2022-07-21T14:32:06Z</time>
      </trkpt>
      <trkpt lat="47.1326360" lon="6.7391870">
        <ele>956.3</ele>
        <time>2022-07-21T14:32:08Z</time>
      </trkpt>
      <trkpt lat="47.1326270" lon="6.7391720">
        <ele>956.4</ele>
        <time>2022-07-21T14:32:09Z</time>
      </trkpt>
      <trkpt lat="47.1326170" lon="6.7391570">
        <ele>956.5</ele>
        <time>2022-07-21T14:32:10Z</time>
      </trkpt>
      <trkpt lat="47.1325970" lon="6.7391250">
        <ele>956.8</ele>
        <time>2022-07-21T14:32:11Z</time>
      </trkpt>
      <trkpt lat="47.1325910" lon="6.7391120">
        <ele>956.9</ele>
        <time>2022-07-21T14:32:12Z</time>
      </trkpt>
      <trkpt lat="47.1325780" lon="6.7390690">
        <ele>957.2</ele>
        <time>2022-07-21T14:32:13Z</time>
      </trkpt>
      <trkpt lat="47.1325720" lon="6.7390470">
        <ele>957.3</ele>
        <time>2022-07-21T14:32:14Z</time>
      </trkpt>
      <trkpt lat="47.1325660" lon="6.7390240">
        <ele>957.5</ele>
        <time>2022-07-21T14:32:15Z</time>
      </trkpt>
      <trkpt lat="47.1325550" lon="6.7389940">
        <ele>957.7</ele>
        <time>2022-07-21T14:32:17Z</time>
      </trkpt>
      <trkpt lat="47.1325340" lon="6.7389620">
        <ele>957.9</ele>
        <time>2022-07-21T14:32:18Z</time>
      </trkpt>
      <trkpt lat="47.1325280" lon="6.7389490">
        <ele>958.0</ele>
        <time>2022-07-21T14:32:19Z</time>
      </trkpt>
      <trkpt lat="47.1325180" lon="6.7389170">
        <ele>958.2</ele>
        <time>2022-07-21T14:32:20Z</time>
      </trkpt>
      <trkpt lat="47.1325090" lon="6.7388960">
        <ele>958.3</ele>
        <time>2022-07-21T14:32:22Z</time>
      </trkpt>
      <trkpt lat="47.1324990" lon="6.7388790">
        <ele>958.4</ele>
        <time>2022-07-21T14:32:23Z</time>
      </trkpt>
      <trkpt lat="47.1324920" lon="6.7388640">
        <ele>958.5</ele>
        <time>2022-07-21T14:32:24Z</time>
      </trkpt>
      <trkpt lat="47.1324840" lon="6.7388460">
        <ele>958.6</ele>
        <time>2022-07-21T14:32:25Z</time>
      </trkpt>
      <trkpt lat="47.1324700" lon="6.7388310">
        <ele>958.7</ele>
        <time>2022-07-21T14:32:26Z</time>
      </trkpt>
      <trkpt lat="47.1324470" lon="6.7387980">
        <ele>958.9</ele>
        <time>2022-07-21T14:32:27Z</time>
      </trkpt>
      <trkpt lat="47.1324400" lon="6.7387810">
        <ele>959.0</ele>
        <time>2022-07-21T14:32:28Z</time>
      </trkpt>
      <trkpt lat="47.1324330" lon="6.7387600">
        <ele>959.1</ele>
        <time>2022-07-21T14:32:30Z</time>
      </trkpt>
      <trkpt lat="47.1324200" lon="6.7387410">
        <ele>959.1</ele>
        <time>2022-07-21T14:32:31Z</time>
      </trkpt>
      <trkpt lat="47.1324000" lon="6.7387020">
        <ele>959.3</ele>
        <time>2022-07-21T14:32:32Z</time>
      </trkpt>
      <trkpt lat="47.1323910" lon="6.7386870">
        <ele>959.3</ele>
        <time>2022-07-21T14:32:33Z</time>
      </trkpt>
      <trkpt lat="47.1323680" lon="6.7386400">
        <ele>959.5</ele>
        <time>2022-07-21T14:32:34Z</time>
      </trkpt>
      <trkpt lat="47.1323610" lon="6.7386230">
        <ele>959.5</ele>
        <time>2022-07-21T14:32:35Z</time>
      </trkpt>
      <trkpt lat="47.1323410" lon="6.7385700">
        <ele>959.7</ele>
        <time>2022-07-21T14:32:36Z</time>
      </trkpt>
      <trkpt lat="47.1323350" lon="6.7385490">
        <ele>959.7</ele>
        <time>2022-07-21T14:32:37Z</time>
      </trkpt>
      <trkpt lat="47.1323210" lon="6.7385050">
        <ele>959.8</ele>
        <time>2022-07-21T14:32:38Z</time>
      </trkpt>
      <trkpt lat="47.1323040" lon="6.7384660">
        <ele>959.8</ele>
        <time>2022-07-21T14:32:40Z</time>
      </trkpt>
      <trkpt lat="47.1322920" lon="6.7384500">
        <ele>959.9</ele>
        <time>2022-07-21T14:32:41Z</time>
      </trkpt>
      <trkpt lat="47.1322590" lon="6.7384210">
        <ele>959.9</ele>
        <time>2022-07-21T14:32:43Z</time>
      </trkpt>
      <trkpt lat="47.1322500" lon="6.7384130">
        <ele>960.0</ele>
        <time>2022-07-21T14:32:44Z</time>
      </trkpt>
      <trkpt lat="47.1322320" lon="6.7383880">
        <ele>960.0</ele>
        <time>2022-07-21T14:32:45Z</time>
      </trkpt>
      <trkpt lat="47.1322030" lon="6.7383390">
        <ele>960.0</ele>
        <time>2022-07-21T14:32:46Z</time>
      </trkpt>
      <trkpt lat="47.1321920" lon="6.7383190">
        <ele>960.1</ele>
        <time>2022-07-21T14:32:47Z</time>
      </trkpt>
      <trkpt lat="47.1321630" lon="6.7382910">
        <ele>960.1</ele>
        <time>2022-07-21T14:32:48Z</time>
      </trkpt>
      <trkpt lat="47.1321310" lon="6.7382750">
        <ele>960.2</ele>
        <time>2022-07-21T14:32:49Z</time>
      </trkpt>
      <trkpt lat="47.1320960" lon="6.7382700">
        <ele>960.2</ele>
        <time>2022-07-21T14:32:50Z</time>
      </trkpt>
      <trkpt lat="47.1320620" lon="6.7382730">
        <ele>960.3</ele>
        <time>2022-07-21T14:32:51Z</time>
      </trkpt>
      <trkpt lat="47.1320200" lon="6.7382790">
        <ele>960.5</ele>
        <time>2022-07-21T14:32:52Z</time>
      </trkpt>
      <trkpt lat="47.1319780" lon="6.7382820">
        <ele>960.7</ele>
        <time>2022-07-21T14:32:53Z</time>
      </trkpt>
      <trkpt lat="47.1319470" lon="6.7382860">
        <ele>960.9</ele>
        <time>2022-07-21T14:32:54Z</time>
      </trkpt>
      <trkpt lat="47.1319140" lon="6.7382930">
        <ele>961.2</ele>
        <time>2022-07-21T14:32:55Z</time>
      </trkpt>
      <trkpt lat="47.1318730" lon="6.7383020">
        <ele>961.5</ele>
        <time>2022-07-21T14:32:57Z</time>
      </trkpt>
      <trkpt lat="47.1318600" lon="6.7383040">
        <ele>961.6</ele>
        <time>2022-07-21T14:32:58Z</time>
      </trkpt>
      <trkpt lat="47.1318460" lon="6.7383060">
        <ele>961.7</ele>
        <time>2022-07-21T14:32:59Z</time>
      </trkpt>
      <trkpt lat="47.1318160" lon="6.7383080">
        <ele>961.9</ele>
        <time>2022-07-21T14:33:00Z</time>
      </trkpt>
      <trkpt lat="47.1318050" lon="6.7383100">
        <ele>962.0</ele>
        <time>2022-07-21T14:33:01Z</time>
      </trkpt>
      <trkpt lat="47.1317720" lon="6.7383130">
        <ele>962.3</ele>
        <time>2022-07-21T14:33:02Z</time>
      </trkpt>
      <trkpt lat="47.1317600" lon="6.7383160">
        <ele>962.4</ele>
        <time>2022-07-21T14:33:03Z</time>
      </trkpt>
      <trkpt lat="47.1317250" lon="6.7383270">
        <ele>962.7</ele>
        <time>2022-07-21T14:33:05Z</time>
      </trkpt>
      <trkpt lat="47.1317140" lon="6.7383310">
        <ele>962.8</ele>
        <time>2022-07-21T14:33:06Z</time>
      </trkpt>
      <trkpt lat="47.1316930" lon="6.7383350">
        <ele>963.0</ele>
        <time>2022-07-21T14:33:07Z</time>
      </trkpt>
      <trkpt lat="47.1316800" lon="6.7383280">
        <ele>963.1</ele>
        <time>2022-07-21T14:33:08Z</time>
      </trkpt>
      <trkpt lat="47.1316350" lon="6.7383270">
        <ele>963.5</ele>
        <time>2022-07-21T14:33:10Z</time>
      </trkpt>
      <trkpt lat="47.1316110" lon="6.7383300">
        <ele>963.8</ele>
        <time>2022-07-21T14:33:12Z</time>
      </trkpt>
      <trkpt lat="47.1315960" lon="6.7383350">
        <ele>963.9</ele>
        <time>2022-07-21T14:33:13Z</time>
      </trkpt>
      <trkpt lat="47.1315760" lon="6.7383390">
        <ele>964.1</ele>
        <time>2022-07-21T14:33:14Z</time>
      </trkpt>
      <trkpt lat="47.1315440" lon="6.7383470">
        <ele>964.3</ele>
        <time>2022-07-21T14:33:15Z</time>
      </trkpt>
      <trkpt lat="47.1315340" lon="6.7383490">
        <ele>964.4</ele>
        <time>2022-07-21T14:33:16Z</time>
      </trkpt>
      <trkpt lat="47.1315030" lon="6.7383440">
        <ele>964.7</ele>
        <time>2022-07-21T14:33:18Z</time>
      </trkpt>
      <trkpt lat="47.1314940" lon="6.7383430">
        <ele>964.8</ele>
        <time>2022-07-21T14:33:19Z</time>
      </trkpt>
      <trkpt lat="47.1314680" lon="6.7383570">
        <ele>965.0</ele>
        <time>2022-07-21T14:33:20Z</time>
      </trkpt>
      <trkpt lat="47.1314400" lon="6.7383690">
        <ele>965.3</ele>
        <time>2022-07-21T14:33:21Z</time>
      </trkpt>
      <trkpt lat="47.1314260" lon="6.7383770">
        <ele>965.4</ele>
        <time>2022-07-21T14:33:22Z</time>
      </trkpt>
      <trkpt lat="47.1314040" lon="6.7383750">
        <ele>965.6</ele>
        <time>2022-07-21T14:33:24Z</time>
      </trkpt>
      <trkpt lat="47.1313770" lon="6.7383850">
        <ele>965.9</ele>
        <time>2022-07-21T14:33:25Z</time>
      </trkpt>
      <trkpt lat="47.1313680" lon="6.7383880">
        <ele>965.9</ele>
        <time>2022-07-21T14:33:26Z</time>
      </trkpt>
      <trkpt lat="47.1313380" lon="6.7383910">
        <ele>966.2</ele>
        <time>2022-07-21T14:33:27Z</time>
      </trkpt>
      <trkpt lat="47.1313300" lon="6.7383910">
        <ele>966.2</ele>
        <time>2022-07-21T14:33:28Z</time>
      </trkpt>
      <trkpt lat="47.1312950" lon="6.7383800">
        <ele>966.5</ele>
        <time>2022-07-21T14:33:29Z</time>
      </trkpt>
      <trkpt lat="47.1312850" lon="6.7383750">
        <ele>966.5</ele>
        <time>2022-07-21T14:33:30Z</time>
      </trkpt>
      <trkpt lat="47.1312550" lon="6.7383560">
        <ele>966.8</ele>
        <time>2022-07-21T14:33:32Z</time>
      </trkpt>
      <trkpt lat="47.1312440" lon="6.7383500">
        <ele>966.8</ele>
        <time>2022-07-21T14:33:33Z</time>
      </trkpt>
      <trkpt lat="47.1312290" lon="6.7383390">
        <ele>966.8</ele>
        <time>2022-07-21T14:33:34Z</time>
      </trkpt>
      <trkpt lat="47.1312180" lon="6.7383190">
        <ele>966.9</ele>
        <time>2022-07-21T14:33:35Z</time>
      </trkpt>
      <trkpt lat="47.1311940" lon="6.7382790">
        <ele>967.1</ele>
        <time>2022-07-21T14:33:36Z</time>
      </trkpt>
      <trkpt lat="47.1311830" lon="6.7382620">
        <ele>967.1</ele>
        <time>2022-07-21T14:33:37Z</time>
      </trkpt>
      <trkpt lat="47.1311630" lon="6.7382320">
        <ele>967.3</ele>
        <time>2022-07-21T14:33:39Z</time>
      </trkpt>
      <trkpt lat="47.1311470" lon="6.7382010">
        <ele>967.3</ele>
        <time>2022-07-21T14:33:40Z</time>
      </trkpt>
      <trkpt lat="47.1311180" lon="6.7381580">
        <ele>967.5</ele>
        <time>2022-07-21T14:33:41Z</time>
      </trkpt>
      <trkpt lat="47.1311070" lon="6.7381430">
        <ele>967.5</ele>
        <time>2022-07-21T14:33:42Z</time>
      </trkpt>
      <trkpt lat="47.1310770" lon="6.7380950">
        <ele>967.6</ele>
        <time>2022-07-21T14:33:44Z</time>
      </trkpt>
      <trkpt lat="47.1310600" lon="6.7380630">
        <ele>967.6</ele>
        <time>2022-07-21T14:33:45Z</time>
      </trkpt>
      <trkpt lat="47.1310360" lon="6.7380240">
        <ele>967.7</ele>
        <time>2022-07-21T14:33:46Z</time>
      </trkpt>
      <trkpt lat="47.1310100" lon="6.7379850">
        <ele>967.8</ele>
        <time>2022-07-21T14:33:47Z</time>
      </trkpt>
      <trkpt lat="47.1309820" lon="6.7379380">
        <ele>967.9</ele>
        <time>2022-07-21T14:33:48Z</time>
      </trkpt>
      <trkpt lat="47.1309640" lon="6.7379020">
        <ele>967.9</ele>
        <time>2022-07-21T14:33:49Z</time>
      </trkpt>
      <trkpt lat="47.1309390" lon="6.7378520">
        <ele>968.0</ele>
        <time>2022-07-21T14:33:51Z</time>
      </trkpt>
      <trkpt lat="47.1309170" lon="6.7378140">
        <ele>968.1</ele>
        <time>2022-07-21T14:33:52Z</time>
      </trkpt>
      <trkpt lat="47.1308940" lon="6.7377700">
        <ele>968.2</ele>
        <time>2022-07-21T14:33:53Z</time>
      </trkpt>
      <trkpt lat="47.1308750" lon="6.7377330">
        <ele>968.3</ele>
        <time>2022-07-21T14:33:54Z</time>
      </trkpt>
      <trkpt lat="47.1308580" lon="6.7377000">
        <ele>968.4</ele>
        <time>2022-07-21T14:33:55Z</time>
      </trkpt>
      <trkpt lat="47.1308350" lon="6.7376580">
        <ele>968.5</ele>
        <time>2022-07-21T14:33:57Z</time>
      </trkpt>
      <trkpt lat="47.1308180" lon="6.7376160">
        <ele>968.6</ele>
        <time>2022-07-21T14:33:58Z</time>
      </trkpt>
      <trkpt lat="47.1307970" lon="6.7375710">
        <ele>968.7</ele>
        <time>2022-07-21T14:33:59Z</time>
      </trkpt>
      <trkpt lat="47.1307780" lon="6.7375320">
        <ele>968.8</ele>
        <time>2022-07-21T14:34:00Z</time>
      </trkpt>
      <trkpt lat="47.1307600" lon="6.7374960">
        <ele>968.8</ele>
        <time>2022-07-21T14:34:02Z</time>
      </trkpt>
      <trkpt lat="47.1307380" lon="6.7374540">
        <ele>968.9</ele>
        <time>2022-07-21T14:34:03Z</time>
      </trkpt>
      <trkpt lat="47.1307160" lon="6.7374170">
        <ele>969.0</ele>
        <time>2022-07-21T14:34:04Z</time>
      </trkpt>
      <trkpt lat="47.1306790" lon="6.7373560">
        <ele>969.0</ele>
        <time>2022-07-21T14:34:06Z</time>
      </trkpt>
      <trkpt lat="47.1306580" lon="6.7373180">
        <ele>969.0</ele>
        <time>2022-07-21T14:34:07Z</time>
      </trkpt>
      <trkpt lat="47.1306330" lon="6.7372780">
        <ele>969.1</ele>
        <time>2022-07-21T14:34:08Z</time>
      </trkpt>
      <trkpt lat="47.1306090" lon="6.7372330">
        <ele>969.1</ele>
        <time>2022-07-21T14:34:09Z</time>
      </trkpt>
      <trkpt lat="47.1305900" lon="6.7371930">
        <ele>969.0</ele>
        <time>2022-07-21T14:34:10Z</time>
      </trkpt>
      <trkpt lat="47.1305720" lon="6.7371430">
        <ele>969.0</ele>
        <time>2022-07-21T14:34:11Z</time>
      </trkpt>
      <trkpt lat="47.1305450" lon="6.7370810">
        <ele>969.0</ele>
        <time>2022-07-21T14:34:12Z</time>
      </trkpt>
      <trkpt lat="47.1305190" lon="6.7370290">
        <ele>968.9</ele>
        <time>2022-07-21T14:34:13Z</time>
      </trkpt>
      <trkpt lat="47.1304950" lon="6.7369770">
        <ele>968.9</ele>
        <time>2022-07-21T14:34:14Z</time>
      </trkpt>
      <trkpt lat="47.1304690" lon="6.7369270">
        <ele>968.8</ele>
        <time>2022-07-21T14:34:15Z</time>
      </trkpt>
      <trkpt lat="47.1304420" lon="6.7368630">
        <ele>968.8</ele>
        <time>2022-07-21T14:34:16Z</time>
      </trkpt>
      <trkpt lat="47.1304090" lon="6.7367900">
        <ele>968.7</ele>
        <time>2022-07-21T14:34:18Z</time>
      </trkpt>
      <trkpt lat="47.1303870" lon="6.7367420">
        <ele>968.7</ele>
        <time>2022-07-21T14:34:19Z</time>
      </trkpt>
      <trkpt lat="47.1303580" lon="6.7366760">
        <ele>968.7</ele>
        <time>2022-07-21T14:34:20Z</time>
      </trkpt>
      <trkpt lat="47.1303330" lon="6.7366210">
        <ele>968.6</ele>
        <time>2022-07-21T14:34:21Z</time>
      </trkpt>
      <trkpt lat="47.1303210" lon="6.7365740">
        <ele>968.6</ele>
        <time>2022-07-21T14:34:22Z</time>
      </trkpt>
      <trkpt lat="47.1302940" lon="6.7365090">
        <ele>968.5</ele>
        <time>2022-07-21T14:34:23Z</time>
      </trkpt>
      <trkpt lat="47.1302680" lon="6.7364450">
        <ele>968.5</ele>
        <time>2022-07-21T14:34:24Z</time>
      </trkpt>
      <trkpt lat="47.1302580" lon="6.7363850">
        <ele>968.4</ele>
        <time>2022-07-21T14:34:25Z</time>
      </trkpt>
      <trkpt lat="47.1302330" lon="6.7363230">
        <ele>968.4</ele>
        <time>2022-07-21T14:34:26Z</time>
      </trkpt>
      <trkpt lat="47.1302000" lon="6.7362710">
        <ele>968.3</ele>
        <time>2022-07-21T14:34:27Z</time>
      </trkpt>
      <trkpt lat="47.1301810" lon="6.7362220">
        <ele>968.3</ele>
        <time>2022-07-21T14:34:28Z</time>
      </trkpt>
      <trkpt lat="47.1301580" lon="6.7361570">
        <ele>968.2</ele>
        <time>2022-07-21T14:34:29Z</time>
      </trkpt>
      <trkpt lat="47.1301290" lon="6.7361040">
        <ele>968.2</ele>
        <time>2022-07-21T14:34:30Z</time>
      </trkpt>
      <trkpt lat="47.1301100" lon="6.7360710">
        <ele>968.2</ele>
        <time>2022-07-21T14:34:31Z</time>
      </trkpt>
      <trkpt lat="47.1300900" lon="6.7360390">
        <ele>968.1</ele>
        <time>2022-07-21T14:34:32Z</time>
      </trkpt>
      <trkpt lat="47.1300550" lon="6.7359660">
        <ele>968.0</ele>
        <time>2022-07-21T14:34:34Z</time>
      </trkpt>
      <trkpt lat="47.1300250" lon="6.7358920">
        <ele>967.9</ele>
        <time>2022-07-21T14:34:35Z</time>
      </trkpt>
      <trkpt lat="47.1299700" lon="6.7357960">
        <ele>967.7</ele>
        <time>2022-07-21T14:34:36Z</time>
      </trkpt>
      <trkpt lat="47.1299400" lon="6.7357400">
        <ele>967.6</ele>
        <time>2022-07-21T14:34:37Z</time>
      </trkpt>
      <trkpt lat="47.1299080" lon="6.7356870">
        <ele>967.4</ele>
        <time>2022-07-21T14:34:38Z</time>
      </trkpt>
      <trkpt lat="47.1298840" lon="6.7356310">
        <ele>967.3</ele>
        <time>2022-07-21T14:34:39Z</time>
      </trkpt>
      <trkpt lat="47.1298560" lon="6.7355780">
        <ele>967.2</ele>
        <time>2022-07-21T14:34:40Z</time>
      </trkpt>
      <trkpt lat="47.1298310" lon="6.7355230">
        <ele>967.1</ele>
        <time>2022-07-21T14:34:41Z</time>
      </trkpt>
      <trkpt lat="47.1298010" lon="6.7354770">
        <ele>967.0</ele>
        <time>2022-07-21T14:34:42Z</time>
      </trkpt>
      <trkpt lat="47.1297740" lon="6.7354250">
        <ele>967.0</ele>
        <time>2022-07-21T14:34:44Z</time>
      </trkpt>
      <trkpt lat="47.1297500" lon="6.7353780">
        <ele>966.9</ele>
        <time>2022-07-21T14:34:45Z</time>
      </trkpt>
      <trkpt lat="47.1297230" lon="6.7353370">
        <ele>966.9</ele>
        <time>2022-07-21T14:34:46Z</time>
      </trkpt>
      <trkpt lat="47.1297170" lon="6.7353100">
        <ele>966.9</ele>
        <time>2022-07-21T14:34:47Z</time>
      </trkpt>
      <trkpt lat="47.1297130" lon="6.7352890">
        <ele>966.8</ele>
        <time>2022-07-21T14:34:48Z</time>
      </trkpt>
      <trkpt lat="47.1297070" lon="6.7352400">
        <ele>966.8</ele>
        <time>2022-07-21T14:34:50Z</time>
      </trkpt>
      <trkpt lat="47.1296970" lon="6.7352080">
        <ele>966.7</ele>
        <time>2022-07-21T14:34:51Z</time>
      </trkpt>
      <trkpt lat="47.1296950" lon="6.7352220">
        <ele>966.7</ele>
        <time>2022-07-21T14:34:52Z</time>
      </trkpt>
      <trkpt lat="47.1296920" lon="6.7352260">
        <ele>966.7</ele>
        <time>2022-07-21T14:34:53Z</time>
      </trkpt>
      <trkpt lat="47.1296920" lon="6.7352330">
        <ele>966.7</ele>
        <time>2022-07-21T14:34:54Z</time>
      </trkpt>
      <trkpt lat="47.1296930" lon="6.7352400">
        <ele>966.7</ele>
        <time>2022-07-21T14:34:55Z</time>
      </trkpt>
      <trkpt lat="47.1296940" lon="6.7352460">
        <ele>966.7</ele>
        <time>2022-07-21T14:34:56Z</time>
      </trkpt>
      <trkpt lat="47.1296960" lon="6.7352520">
        <ele>966.6</ele>
        <time>2022-07-21T14:34:57Z</time>
      </trkpt>
      <trkpt lat="47.1296980" lon="6.7352600">
        <ele>966.6</ele>
        <time>2022-07-21T14:34:59Z</time>
      </trkpt>
      <trkpt lat="47.1296980" lon="6.7352600">
        <ele>966.6</ele>
        <time>2022-07-21T14:35:00Z</time>
      </trkpt>
      <trkpt lat="47.1296970" lon="6.7352450">
        <ele>966.6</ele>
        <time>2022-07-21T14:35:01Z</time>
      </trkpt>
      <trkpt lat="47.1296970" lon="6.7352310">
        <ele>966.5</ele>
        <time>2022-07-21T14:35:03Z</time>
      </trkpt>
      <trkpt lat="47.1296960" lon="6.7352290">
        <ele>966.5</ele>
        <time>2022-07-21T14:35:04Z</time>
      </trkpt>
      <trkpt lat="47.1296950" lon="6.7352290">
        <ele>966.5</ele>
        <time>2022-07-21T14:35:05Z</time>
      </trkpt>
      <trkpt lat="47.1296920" lon="6.7352300">
        <ele>966.5</ele>
        <time>2022-07-21T14:35:06Z</time>
      </trkpt>
      <trkpt lat="47.1296910" lon="6.7352310">
        <ele>966.5</ele>
        <time>2022-07-21T14:35:07Z</time>
      </trkpt>
      <trkpt lat="47.1296910" lon="6.7352310">
        <ele>966.5</ele>
        <time>2022-07-21T14:35:08Z</time>
      </trkpt>
      <trkpt lat="47.1296870" lon="6.7352280">
        <ele>966.5</ele>
        <time>2022-07-21T14:35:09Z</time>
      </trkpt>
      <trkpt lat="47.1296750" lon="6.7352220">
        <ele>966.4</ele>
        <time>2022-07-21T14:35:10Z</time>
      </trkpt>
      <trkpt lat="47.1296660" lon="6.7352140">
        <ele>966.3</ele>
        <time>2022-07-21T14:35:11Z</time>
      </trkpt>
      <trkpt lat="47.1296540" lon="6.7351940">
        <ele>966.2</ele>
        <time>2022-07-21T14:35:13Z</time>
      </trkpt>
      <trkpt lat="47.1296540" lon="6.7351870">
        <ele>966.2</ele>
        <time>2022-07-21T14:35:14Z</time>
      </trkpt>
      <trkpt lat="47.1296580" lon="6.7351750">
        <ele>966.1</ele>
        <time>2022-07-21T14:35:15Z</time>
      </trkpt>
      <trkpt lat="47.1296570" lon="6.7351500">
        <ele>966.0</ele>
        <time>2022-07-21T14:35:16Z</time>
      </trkpt>
      <trkpt lat="47.1296440" lon="6.7350980">
        <ele>965.7</ele>
        <time>2022-07-21T14:35:18Z</time>
      </trkpt>
      <trkpt lat="47.1296380" lon="6.7350750">
        <ele>965.5</ele>
        <time>2022-07-21T14:35:19Z</time>
      </trkpt>
      <trkpt lat="47.1296160" lon="6.7350380">
        <ele>965.3</ele>
        <time>2022-07-21T14:35:20Z</time>
      </trkpt>
      <trkpt lat="47.1295980" lon="6.7349980">
        <ele>965.0</ele>
        <time>2022-07-21T14:35:21Z</time>
      </trkpt>
      <trkpt lat="47.1295690" lon="6.7349370">
        <ele>964.6</ele>
        <time>2022-07-21T14:35:23Z</time>
      </trkpt>
      <trkpt lat="47.1295150" lon="6.7348500">
        <ele>964.1</ele>
        <time>2022-07-21T14:35:24Z</time>
      </trkpt>
      <trkpt lat="47.1294800" lon="6.7347900">
        <ele>963.8</ele>
        <time>2022-07-21T14:35:25Z</time>
      </trkpt>
      <trkpt lat="47.1294500" lon="6.7347350">
        <ele>963.7</ele>
        <time>2022-07-21T14:35:26Z</time>
      </trkpt>
      <trkpt lat="47.1294300" lon="6.7346860">
        <ele>963.5</ele>
        <time>2022-07-21T14:35:27Z</time>
      </trkpt>
      <trkpt lat="47.1293950" lon="6.7346120">
        <ele>963.4</ele>
        <time>2022-07-21T14:35:28Z</time>
      </trkpt>
      <trkpt lat="47.1293610" lon="6.7345510">
        <ele>963.3</ele>
        <time>2022-07-21T14:35:30Z</time>
      </trkpt>
      <trkpt lat="47.1293240" lon="6.7344860">
        <ele>963.3</ele>
        <time>2022-07-21T14:35:31Z</time>
      </trkpt>
      <trkpt lat="47.1292750" lon="6.7344170">
        <ele>963.3</ele>
        <time>2022-07-21T14:35:33Z</time>
      </trkpt>
      <trkpt lat="47.1292440" lon="6.7343760">
        <ele>963.3</ele>
        <time>2022-07-21T14:35:34Z</time>
      </trkpt>
      <trkpt lat="47.1292330" lon="6.7343610">
        <ele>963.3</ele>
        <time>2022-07-21T14:35:35Z</time>
      </trkpt>
      <trkpt lat="47.1292030" lon="6.7343250">
        <ele>963.3</ele>
        <time>2022-07-21T14:35:36Z</time>
      </trkpt>
      <trkpt lat="47.1291930" lon="6.7343130">
        <ele>963.3</ele>
        <time>2022-07-21T14:35:37Z</time>
      </trkpt>
      <trkpt lat="47.1291630" lon="6.7342790">
        <ele>963.4</ele>
        <time>2022-07-21T14:35:38Z</time>
      </trkpt>
      <trkpt lat="47.1291520" lon="6.7342660">
        <ele>963.4</ele>
        <time>2022-07-21T14:35:39Z</time>
      </trkpt>
      <trkpt lat="47.1291290" lon="6.7342380">
        <ele>963.5</ele>
        <time>2022-07-21T14:35:40Z</time>
      </trkpt>
      <trkpt lat="47.1291000" lon="6.7342000">
        <ele>963.6</ele>
        <time>2022-07-21T14:35:41Z</time>
      </trkpt>
      <trkpt lat="47.1290760" lon="6.7341630">
        <ele>963.7</ele>
        <time>2022-07-21T14:35:42Z</time>
      </trkpt>
      <trkpt lat="47.1290580" lon="6.7341360">
        <ele>963.8</ele>
        <time>2022-07-21T14:35:43Z</time>
      </trkpt>
      <trkpt lat="47.1290320" lon="6.7340980">
        <ele>964.0</ele>
        <time>2022-07-21T14:35:45Z</time>
      </trkpt>
      <trkpt lat="47.1290020" lon="6.7340530">
        <ele>964.1</ele>
        <time>2022-07-21T14:35:46Z</time>
      </trkpt>
      <trkpt lat="47.1289740" lon="6.7340040">
        <ele>964.3</ele>
        <time>2022-07-21T14:35:47Z</time>
      </trkpt>
      <trkpt lat="47.1289510" lon="6.7339670">
        <ele>964.4</ele>
        <time>2022-07-21T14:35:49Z</time>
      </trkpt>
      <trkpt lat="47.1289300" lon="6.7339390">
        <ele>964.5</ele>
        <time>2022-07-21T14:35:50Z</time>
      </trkpt>
      <trkpt lat="47.1289030" lon="6.7339120">
        <ele>964.6</ele>
        <time>2022-07-21T14:35:51Z</time>
      </trkpt>
      <trkpt lat="47.1288750" lon="6.7338800">
        <ele>964.7</ele>
        <time>2022-07-21T14:35:52Z</time>
      </trkpt>
      <trkpt lat="47.1288510" lon="6.7338420">
        <ele>964.7</ele>
        <time>2022-07-21T14:35:53Z</time>
      </trkpt>
      <trkpt lat="47.1288300" lon="6.7338060">
        <ele>964.8</ele>
        <time>2022-07-21T14:35:54Z</time>
      </trkpt>
      <trkpt lat="47.1288050" lon="6.7337580">
        <ele>964.8</ele>
        <time>2022-07-21T14:35:55Z</time>
      </trkpt>
      <trkpt lat="47.1287840" lon="6.7337180">
        <ele>964.8</ele>
        <time>2022-07-21T14:35:56Z</time>
      </trkpt>
      <trkpt lat="47.1287600" lon="6.7336670">
        <ele>964.8</ele>
        <time>2022-07-21T14:35:57Z</time>
      </trkpt>
      <trkpt lat="47.1287330" lon="6.7336180">
        <ele>964.8</ele>
        <time>2022-07-21T14:35:58Z</time>
      </trkpt>
      <trkpt lat="47.1286950" lon="6.7335550">
        <ele>964.7</ele>
        <time>2022-07-21T14:36:00Z</time>
      </trkpt>
      <trkpt lat="47.1286660" lon="6.7335050">
        <ele>964.6</ele>
        <time>2022-07-21T14:36:01Z</time>
      </trkpt>
      <trkpt lat="47.1286380" lon="6.7334540">
        <ele>964.6</ele>
        <time>2022-07-21T14:36:02Z</time>
      </trkpt>
      <trkpt lat="47.1286130" lon="6.7334060">
        <ele>964.4</ele>
        <time>2022-07-21T14:36:03Z</time>
      </trkpt>
      <trkpt lat="47.1285690" lon="6.7333270">
        <ele>964.2</ele>
        <time>2022-07-21T14:36:04Z</time>
      </trkpt>
      <trkpt lat="47.1285330" lon="6.7332700">
        <ele>964.1</ele>
        <time>2022-07-21T14:36:05Z</time>
      </trkpt>
      <trkpt lat="47.1285000" lon="6.7332160">
        <ele>963.9</ele>
        <time>2022-07-21T14:36:06Z</time>
      </trkpt>
      <trkpt lat="47.1284720" lon="6.7331600">
        <ele>963.7</ele>
        <time>2022-07-21T14:36:07Z</time>
      </trkpt>
      <trkpt lat="47.1284380" lon="6.7331030">
        <ele>963.6</ele>
        <time>2022-07-21T14:36:08Z</time>
      </trkpt>
      <trkpt lat="47.1284060" lon="6.7330480">
        <ele>963.4</ele>
        <time>2022-07-21T14:36:09Z</time>
      </trkpt>
      <trkpt lat="47.1283780" lon="6.7329870">
        <ele>963.2</ele>
        <time>2022-07-21T14:36:10Z</time>
      </trkpt>
      <trkpt lat="47.1283470" lon="6.7329230">
        <ele>963.1</ele>
        <time>2022-07-21T14:36:11Z</time>
      </trkpt>
      <trkpt lat="47.1283140" lon="6.7328620">
        <ele>962.9</ele>
        <time>2022-07-21T14:36:12Z</time>
      </trkpt>
      <trkpt lat="47.1282800" lon="6.7327930">
        <ele>962.7</ele>
        <time>2022-07-21T14:36:13Z</time>
      </trkpt>
      <trkpt lat="47.1282450" lon="6.7327260">
        <ele>962.6</ele>
        <time>2022-07-21T14:36:14Z</time>
      </trkpt>
      <trkpt lat="47.1282140" lon="6.7326670">
        <ele>962.5</ele>
        <time>2022-07-21T14:36:15Z</time>
      </trkpt>
      <trkpt lat="47.1281790" lon="6.7326090">
        <ele>962.4</ele>
        <time>2022-07-21T14:36:16Z</time>
      </trkpt>
      <trkpt lat="47.1281420" lon="6.7325470">
        <ele>962.3</ele>
        <time>2022-07-21T14:36:17Z</time>
      </trkpt>
      <trkpt lat="47.1281060" lon="6.7324870">
        <ele>962.2</ele>
        <time>2022-07-21T14:36:18Z</time>
      </trkpt>
      <trkpt lat="47.1280700" lon="6.7324310">
        <ele>962.2</ele>
        <time>2022-07-21T14:36:19Z</time>
      </trkpt>
      <trkpt lat="47.1280410" lon="6.7323760">
        <ele>962.1</ele>
        <time>2022-07-21T14:36:20Z</time>
      </trkpt>
      <trkpt lat="47.1280120" lon="6.7323200">
        <ele>962.1</ele>
        <time>2022-07-21T14:36:21Z</time>
      </trkpt>
      <trkpt lat="47.1279820" lon="6.7322650">
        <ele>962.1</ele>
        <time>2022-07-21T14:36:22Z</time>
      </trkpt>
      <trkpt lat="47.1279500" lon="6.7322150">
        <ele>962.2</ele>
        <time>2022-07-21T14:36:23Z</time>
      </trkpt>
      <trkpt lat="47.1279270" lon="6.7321670">
        <ele>962.2</ele>
        <time>2022-07-21T14:36:24Z</time>
      </trkpt>
      <trkpt lat="47.1279090" lon="6.7321250">
        <ele>962.3</ele>
        <time>2022-07-21T14:36:25Z</time>
      </trkpt>
      <trkpt lat="47.1278920" lon="6.7320880">
        <ele>962.3</ele>
        <time>2022-07-21T14:36:26Z</time>
      </trkpt>
      <trkpt lat="47.1278680" lon="6.7320410">
        <ele>962.4</ele>
        <time>2022-07-21T14:36:27Z</time>
      </trkpt>
      <trkpt lat="47.1278520" lon="6.7319970">
        <ele>962.5</ele>
        <time>2022-07-21T14:36:28Z</time>
      </trkpt>
      <trkpt lat="47.1278410" lon="6.7319710">
        <ele>962.5</ele>
        <time>2022-07-21T14:36:29Z</time>
      </trkpt>
      <trkpt lat="47.1278500" lon="6.7319530">
        <ele>962.6</ele>
        <time>2022-07-21T14:36:30Z</time>
      </trkpt>
      <trkpt lat="47.1278470" lon="6.7319490">
        <ele>962.6</ele>
        <time>2022-07-21T14:36:32Z</time>
      </trkpt>
      <trkpt lat="47.1278410" lon="6.7319440">
        <ele>962.6</ele>
        <time>2022-07-21T14:36:33Z</time>
      </trkpt>
      <trkpt lat="47.1278340" lon="6.7319370">
        <ele>962.6</ele>
        <time>2022-07-21T14:36:34Z</time>
      </trkpt>
      <trkpt lat="47.1278310" lon="6.7319300">
        <ele>962.6</ele>
        <time>2022-07-21T14:36:35Z</time>
      </trkpt>
      <trkpt lat="47.1278300" lon="6.7319310">
        <ele>962.6</ele>
        <time>2022-07-21T14:36:36Z</time>
      </trkpt>
      <trkpt lat="47.1278300" lon="6.7319300">
        <ele>962.6</ele>
        <time>2022-07-21T14:36:37Z</time>
      </trkpt>
      <trkpt lat="47.1278280" lon="6.7319260">
        <ele>962.6</ele>
        <time>2022-07-21T14:36:38Z</time>
      </trkpt>
      <trkpt lat="47.1278220" lon="6.7319090">
        <ele>962.6</ele>
        <time>2022-07-21T14:36:39Z</time>
      </trkpt>
      <trkpt lat="47.1278170" lon="6.7318930">
        <ele>962.6</ele>
        <time>2022-07-21T14:36:40Z</time>
      </trkpt>
      <trkpt lat="47.1278130" lon="6.7318780">
        <ele>962.6</ele>
        <time>2022-07-21T14:36:41Z</time>
      </trkpt>
      <trkpt lat="47.1278070" lon="6.7318450">
        <ele>962.6</ele>
        <time>2022-07-21T14:36:43Z</time>
      </trkpt>
      <trkpt lat="47.1278060" lon="6.7318320">
        <ele>962.6</ele>
        <time>2022-07-21T14:36:44Z</time>
      </trkpt>
      <trkpt lat="47.1278050" lon="6.7318170">
        <ele>962.6</ele>
        <time>2022-07-21T14:36:45Z</time>
      </trkpt>
      <trkpt lat="47.1278030" lon="6.7318030">
        <ele>962.6</ele>
        <time>2022-07-21T14:36:46Z</time>
      </trkpt>
      <trkpt lat="47.1278010" lon="6.7317950">
        <ele>962.6</ele>
        <time>2022-07-21T14:36:47Z</time>
      </trkpt>
      <trkpt lat="47.1277980" lon="6.7317870">
        <ele>962.6</ele>
        <time>2022-07-21T14:36:48Z</time>
      </trkpt>
      <trkpt lat="47.1277950" lon="6.7317760">
        <ele>962.6</ele>
        <time>2022-07-21T14:36:49Z</time>
      </trkpt>
      <trkpt lat="47.1277920" lon="6.7317650">
        <ele>962.6</ele>
        <time>2022-07-21T14:36:50Z</time>
      </trkpt>
      <trkpt lat="47.1277920" lon="6.7317560">
        <ele>962.6</ele>
        <time>2022-07-21T14:36:51Z</time>
      </trkpt>
      <trkpt lat="47.1277930" lon="6.7317550">
        <ele>962.6</ele>
        <time>2022-07-21T14:36:52Z</time>
      </trkpt>
      <trkpt lat="47.1277940" lon="6.7317580">
        <ele>962.6</ele>
        <time>2022-07-21T14:36:53Z</time>
      </trkpt>
      <trkpt lat="47.1277950" lon="6.7317550">
        <ele>962.6</ele>
        <time>2022-07-21T14:36:54Z</time>
      </trkpt>
      <trkpt lat="47.1277970" lon="6.7317440">
        <ele>962.6</ele>
        <time>2022-07-21T14:36:55Z</time>
      </trkpt>
      <trkpt lat="47.1277890" lon="6.7317190">
        <ele>962.6</ele>
        <time>2022-07-21T14:36:56Z</time>
      </trkpt>
      <trkpt lat="47.1277830" lon="6.7317070">
        <ele>962.6</ele>
        <time>2022-07-21T14:36:57Z</time>
      </trkpt>
      <trkpt lat="47.1277770" lon="6.7316960">
        <ele>962.6</ele>
        <time>2022-07-21T14:36:58Z</time>
      </trkpt>
      <trkpt lat="47.1277450" lon="6.7316730">
        <ele>962.5</ele>
        <time>2022-07-21T14:36:59Z</time>
      </trkpt>
      <trkpt lat="47.1277170" lon="6.7316530">
        <ele>962.5</ele>
        <time>2022-07-21T14:37:00Z</time>
      </trkpt>
      <trkpt lat="47.1276860" lon="6.7316280">
        <ele>962.4</ele>
        <time>2022-07-21T14:37:01Z</time>
      </trkpt>
      <trkpt lat="47.1276540" lon="6.7316020">
        <ele>962.3</ele>
        <time>2022-07-21T14:37:02Z</time>
      </trkpt>
      <trkpt lat="47.1276220" lon="6.7315720">
        <ele>962.2</ele>
        <time>2022-07-21T14:37:03Z</time>
      </trkpt>
      <trkpt lat="47.1275910" lon="6.7315390">
        <ele>962.1</ele>
        <time>2022-07-21T14:37:04Z</time>
      </trkpt>
      <trkpt lat="47.1275610" lon="6.7315040">
        <ele>962.0</ele>
        <time>2022-07-21T14:37:05Z</time>
      </trkpt>
      <trkpt lat="47.1275340" lon="6.7314700">
        <ele>961.9</ele>
        <time>2022-07-21T14:37:06Z</time>
      </trkpt>
      <trkpt lat="47.1274990" lon="6.7314230">
        <ele>961.7</ele>
        <time>2022-07-21T14:37:07Z</time>
      </trkpt>
      <trkpt lat="47.1274680" lon="6.7313710">
        <ele>961.6</ele>
        <time>2022-07-21T14:37:08Z</time>
      </trkpt>
      <trkpt lat="47.1274380" lon="6.7313150">
        <ele>961.4</ele>
        <time>2022-07-21T14:37:09Z</time>
      </trkpt>
      <trkpt lat="47.1274080" lon="6.7312600">
        <ele>961.3</ele>
        <time>2022-07-21T14:37:10Z</time>
      </trkpt>
      <trkpt lat="47.1273800" lon="6.7312010">
        <ele>961.0</ele>
        <time>2022-07-21T14:37:11Z</time>
      </trkpt>
      <trkpt lat="47.1273480" lon="6.7311330">
        <ele>960.7</ele>
        <time>2022-07-21T14:37:12Z</time>
      </trkpt>
      <trkpt lat="47.1273180" lon="6.7310610">
        <ele>960.4</ele>
        <time>2022-07-21T14:37:13Z</time>
      </trkpt>
      <trkpt lat="47.1272980" lon="6.7310100">
        <ele>960.1</ele>
        <time>2022-07-21T14:37:14Z</time>
      </trkpt>
      <trkpt lat="47.1272660" lon="6.7309250">
        <ele>959.7</ele>
        <time>2022-07-21T14:37:15Z</time>
      </trkpt>
      <trkpt lat="47.1272340" lon="6.7308390">
        <ele>959.3</ele>
        <time>2022-07-21T14:37:16Z</time>
      </trkpt>
      <trkpt lat="47.1271990" lon="6.7307590">
        <ele>958.8</ele>
        <time>2022-07-21T14:37:17Z</time>
      </trkpt>
      <trkpt lat="47.1271660" lon="6.7306770">
        <ele>958.4</ele>
        <time>2022-07-21T14:37:18Z</time>
      </trkpt>
      <trkpt lat="47.1271330" lon="6.7305890">
        <ele>958.0</ele>
        <time>2022-07-21T14:37:19Z</time>
      </trkpt>
      <trkpt lat="47.1271020" lon="6.7305120">
        <ele>957.5</ele>
        <time>2022-07-21T14:37:20Z</time>
      </trkpt>
      <trkpt lat="47.1270780" lon="6.7304360">
        <ele>957.2</ele>
        <time>2022-07-21T14:37:21Z</time>
      </trkpt>
      <trkpt lat="47.1270550" lon="6.7303620">
        <ele>956.9</ele>
        <time>2022-07-21T14:37:22Z</time>
      </trkpt>
      <trkpt lat="47.1270310" lon="6.7302770">
        <ele>956.5</ele>
        <time>2022-07-21T14:37:23Z</time>
      </trkpt>
      <trkpt lat="47.1270020" lon="6.7301980">
        <ele>956.1</ele>
        <time>2022-07-21T14:37:24Z</time>
      </trkpt>
      <trkpt lat="47.1269720" lon="6.7301300">
        <ele>955.8</ele>
        <time>2022-07-21T14:37:25Z</time>
      </trkpt>
      <trkpt lat="47.1269400" lon="6.7300500">
        <ele>955.4</ele>
        <time>2022-07-21T14:37:26Z</time>
      </trkpt>
      <trkpt lat="47.1269060" lon="6.7299660">
        <ele>954.9</ele>
        <time>2022-07-21T14:37:27Z</time>
      </trkpt>
      <trkpt lat="47.1268780" lon="6.7298750">
        <ele>954.5</ele>
        <time>2022-07-21T14:37:28Z</time>
      </trkpt>
      <trkpt lat="47.1268550" lon="6.7297770">
        <ele>954.0</ele>
        <time>2022-07-21T14:37:29Z</time>
      </trkpt>
      <trkpt lat="47.1268210" lon="6.7296730">
        <ele>953.4</ele>
        <time>2022-07-21T14:37:30Z</time>
      </trkpt>
      <trkpt lat="47.1267820" lon="6.7295670">
        <ele>952.9</ele>
        <time>2022-07-21T14:37:31Z</time>
      </trkpt>
      <trkpt lat="47.1267440" lon="6.7294690">
        <ele>952.5</ele>
        <time>2022-07-21T14:37:32Z</time>
      </trkpt>
      <trkpt lat="47.1267080" lon="6.7293680">
        <ele>952.1</ele>
        <time>2022-07-21T14:37:33Z</time>
      </trkpt>
      <trkpt lat="47.1266800" lon="6.7292600">
        <ele>951.8</ele>
        <time>2022-07-21T14:37:34Z</time>
      </trkpt>
      <trkpt lat="47.1266500" lon="6.7291570">
        <ele>951.5</ele>
        <time>2022-07-21T14:37:35Z</time>
      </trkpt>
      <trkpt lat="47.1266210" lon="6.7290510">
        <ele>951.3</ele>
        <time>2022-07-21T14:37:36Z</time>
      </trkpt>
      <trkpt lat="47.1265930" lon="6.7289540">
        <ele>951.0</ele>
        <time>2022-07-21T14:37:37Z</time>
      </trkpt>
      <trkpt lat="47.1265620" lon="6.7288510">
        <ele>950.8</ele>
        <time>2022-07-21T14:37:38Z</time>
      </trkpt>
      <trkpt lat="47.1265250" lon="6.7287400">
        <ele>950.5</ele>
        <time>2022-07-21T14:37:39Z</time>
      </trkpt>
      <trkpt lat="47.1264980" lon="6.7286340">
        <ele>950.3</ele>
        <time>2022-07-21T14:37:40Z</time>
      </trkpt>
      <trkpt lat="47.1264640" lon="6.7285250">
        <ele>950.2</ele>
        <time>2022-07-21T14:37:41Z</time>
      </trkpt>
      <trkpt lat="47.1264300" lon="6.7284190">
        <ele>950.1</ele>
        <time>2022-07-21T14:37:42Z</time>
      </trkpt>
      <trkpt lat="47.1263960" lon="6.7283030">
        <ele>950.1</ele>
        <time>2022-07-21T14:37:43Z</time>
      </trkpt>
      <trkpt lat="47.1263590" lon="6.7281970">
        <ele>950.1</ele>
        <time>2022-07-21T14:37:44Z</time>
      </trkpt>
      <trkpt lat="47.1263150" lon="6.7281080">
        <ele>950.3</ele>
        <time>2022-07-21T14:37:45Z</time>
      </trkpt>
      <trkpt lat="47.1262720" lon="6.7280270">
        <ele>950.5</ele>
        <time>2022-07-21T14:37:46Z</time>
      </trkpt>
      <trkpt lat="47.1262300" lon="6.7279520">
        <ele>950.8</ele>
        <time>2022-07-21T14:37:47Z</time>
      </trkpt>
      <trkpt lat="47.1261810" lon="6.7278760">
        <ele>951.1</ele>
        <time>2022-07-21T14:37:48Z</time>
      </trkpt>
      <trkpt lat="47.1261370" lon="6.7278080">
        <ele>951.4</ele>
        <time>2022-07-21T14:37:49Z</time>
      </trkpt>
      <trkpt lat="47.1260950" lon="6.7277530">
        <ele>951.7</ele>
        <time>2022-07-21T14:37:50Z</time>
      </trkpt>
      <trkpt lat="47.1260630" lon="6.7276980">
        <ele>951.9</ele>
        <time>2022-07-21T14:37:51Z</time>
      </trkpt>
      <trkpt lat="47.1260320" lon="6.7276490">
        <ele>952.0</ele>
        <time>2022-07-21T14:37:52Z</time>
      </trkpt>
      <trkpt lat="47.1259970" lon="6.7275910">
        <ele>952.2</ele>
        <time>2022-07-21T14:37:53Z</time>
      </trkpt>
      <trkpt lat="47.1259620" lon="6.7275340">
        <ele>952.3</ele>
        <time>2022-07-21T14:37:54Z</time>
      </trkpt>
      <trkpt lat="47.1259330" lon="6.7274830">
        <ele>952.4</ele>
        <time>2022-07-21T14:37:55Z</time>
      </trkpt>
      <trkpt lat="47.1259140" lon="6.7274340">
        <ele>952.4</ele>
        <time>2022-07-21T14:37:56Z</time>
      </trkpt>
      <trkpt lat="47.1258870" lon="6.7273750">
        <ele>952.4</ele>
        <time>2022-07-21T14:37:57Z</time>
      </trkpt>
      <trkpt lat="47.1258590" lon="6.7273170">
        <ele>952.4</ele>
        <time>2022-07-21T14:37:58Z</time>
      </trkpt>
      <trkpt lat="47.1258300" lon="6.7272520">
        <ele>952.4</ele>
        <time>2022-07-21T14:37:59Z</time>
      </trkpt>
      <trkpt lat="47.1257990" lon="6.7271950">
        <ele>952.3</ele>
        <time>2022-07-21T14:38:00Z</time>
      </trkpt>
      <trkpt lat="47.1257750" lon="6.7271350">
        <ele>952.3</ele>
        <time>2022-07-21T14:38:01Z</time>
      </trkpt>
      <trkpt lat="47.1257500" lon="6.7270690">
        <ele>952.2</ele>
        <time>2022-07-21T14:38:02Z</time>
      </trkpt>
      <trkpt lat="47.1257200" lon="6.7269970">
        <ele>952.2</ele>
        <time>2022-07-21T14:38:03Z</time>
      </trkpt>
      <trkpt lat="47.1256910" lon="6.7269260">
        <ele>952.1</ele>
        <time>2022-07-21T14:38:04Z</time>
      </trkpt>
      <trkpt lat="47.1256600" lon="6.7268520">
        <ele>952.0</ele>
        <time>2022-07-21T14:38:05Z</time>
      </trkpt>
      <trkpt lat="47.1256400" lon="6.7267880">
        <ele>951.9</ele>
        <time>2022-07-21T14:38:06Z</time>
      </trkpt>
      <trkpt lat="47.1256190" lon="6.7267280">
        <ele>951.9</ele>
        <time>2022-07-21T14:38:07Z</time>
      </trkpt>
      <trkpt lat="47.1255930" lon="6.7266580">
        <ele>951.9</ele>
        <time>2022-07-21T14:38:08Z</time>
      </trkpt>
      <trkpt lat="47.1255690" lon="6.7265810">
        <ele>951.9</ele>
        <time>2022-07-21T14:38:09Z</time>
      </trkpt>
      <trkpt lat="47.1255510" lon="6.7265140">
        <ele>951.9</ele>
        <time>2022-07-21T14:38:10Z</time>
      </trkpt>
      <trkpt lat="47.1255290" lon="6.7264460">
        <ele>951.9</ele>
        <time>2022-07-21T14:38:11Z</time>
      </trkpt>
      <trkpt lat="47.1255000" lon="6.7263840">
        <ele>951.9</ele>
        <time>2022-07-21T14:38:12Z</time>
      </trkpt>
      <trkpt lat="47.1254700" lon="6.7263190">
        <ele>951.9</ele>
        <time>2022-07-21T14:38:13Z</time>
      </trkpt>
      <trkpt lat="47.1254430" lon="6.7262620">
        <ele>951.9</ele>
        <time>2022-07-21T14:38:14Z</time>
      </trkpt>
      <trkpt lat="47.1254180" lon="6.7262060">
        <ele>951.8</ele>
        <time>2022-07-21T14:38:15Z</time>
      </trkpt>
      <trkpt lat="47.1253970" lon="6.7261330">
        <ele>951.8</ele>
        <time>2022-07-21T14:38:16Z</time>
      </trkpt>
      <trkpt lat="47.1253810" lon="6.7260670">
        <ele>951.8</ele>
        <time>2022-07-21T14:38:17Z</time>
      </trkpt>
      <trkpt lat="47.1253580" lon="6.7260070">
        <ele>951.8</ele>
        <time>2022-07-21T14:38:18Z</time>
      </trkpt>
      <trkpt lat="47.1253380" lon="6.7259370">
        <ele>951.7</ele>
        <time>2022-07-21T14:38:19Z</time>
      </trkpt>
      <trkpt lat="47.1253220" lon="6.7258690">
        <ele>951.7</ele>
        <time>2022-07-21T14:38:20Z</time>
      </trkpt>
      <trkpt lat="47.1252970" lon="6.7258150">
        <ele>951.7</ele>
        <time>2022-07-21T14:38:21Z</time>
      </trkpt>
      <trkpt lat="47.1252710" lon="6.7257590">
        <ele>951.6</ele>
        <time>2022-07-21T14:38:22Z</time>
      </trkpt>
      <trkpt lat="47.1252480" lon="6.7257120">
        <ele>951.6</ele>
        <time>2022-07-21T14:38:23Z</time>
      </trkpt>
      <trkpt lat="47.1252260" lon="6.7256370">
        <ele>951.5</ele>
        <time>2022-07-21T14:38:24Z</time>
      </trkpt>
      <trkpt lat="47.1252130" lon="6.7255970">
        <ele>951.4</ele>
        <time>2022-07-21T14:38:25Z</time>
      </trkpt>
      <trkpt lat="47.1251860" lon="6.7255250">
        <ele>951.4</ele>
        <time>2022-07-21T14:38:26Z</time>
      </trkpt>
      <trkpt lat="47.1251600" lon="6.7254570">
        <ele>951.2</ele>
        <time>2022-07-21T14:38:27Z</time>
      </trkpt>
      <trkpt lat="47.1251320" lon="6.7253830">
        <ele>951.0</ele>
        <time>2022-07-21T14:38:28Z</time>
      </trkpt>
      <trkpt lat="47.1251110" lon="6.7253110">
        <ele>950.9</ele>
        <time>2022-07-21T14:38:29Z</time>
      </trkpt>
      <trkpt lat="47.1250920" lon="6.7252430">
        <ele>950.7</ele>
        <time>2022-07-21T14:38:30Z</time>
      </trkpt>
      <trkpt lat="47.1250620" lon="6.7251640">
        <ele>950.5</ele>
        <time>2022-07-21T14:38:31Z</time>
      </trkpt>
      <trkpt lat="47.1250350" lon="6.7250830">
        <ele>950.4</ele>
        <time>2022-07-21T14:38:32Z</time>
      </trkpt>
      <trkpt lat="47.1250050" lon="6.7250130">
        <ele>950.2</ele>
        <time>2022-07-21T14:38:33Z</time>
      </trkpt>
      <trkpt lat="47.1249840" lon="6.7249390">
        <ele>950.1</ele>
        <time>2022-07-21T14:38:34Z</time>
      </trkpt>
      <trkpt lat="47.1249620" lon="6.7248610">
        <ele>950.0</ele>
        <time>2022-07-21T14:38:35Z</time>
      </trkpt>
      <trkpt lat="47.1249370" lon="6.7247760">
        <ele>950.0</ele>
        <time>2022-07-21T14:38:36Z</time>
      </trkpt>
      <trkpt lat="47.1249050" lon="6.7247040">
        <ele>949.9</ele>
        <time>2022-07-21T14:38:37Z</time>
      </trkpt>
      <trkpt lat="47.1248800" lon="6.7246500">
        <ele>949.9</ele>
        <time>2022-07-21T14:38:38Z</time>
      </trkpt>
      <trkpt lat="47.1248550" lon="6.7245990">
        <ele>949.9</ele>
        <time>2022-07-21T14:38:39Z</time>
      </trkpt>
      <trkpt lat="47.1248290" lon="6.7245510">
        <ele>950.0</ele>
        <time>2022-07-21T14:38:40Z</time>
      </trkpt>
      <trkpt lat="47.1248020" lon="6.7244980">
        <ele>950.0</ele>
        <time>2022-07-21T14:38:41Z</time>
      </trkpt>
      <trkpt lat="47.1247800" lon="6.7244400">
        <ele>950.1</ele>
        <time>2022-07-21T14:38:42Z</time>
      </trkpt>
      <trkpt lat="47.1247620" lon="6.7244010">
        <ele>950.1</ele>
        <time>2022-07-21T14:38:43Z</time>
      </trkpt>
      <trkpt lat="47.1247330" lon="6.7243400">
        <ele>950.2</ele>
        <time>2022-07-21T14:38:44Z</time>
      </trkpt>
      <trkpt lat="47.1247010" lon="6.7242990">
        <ele>950.3</ele>
        <time>2022-07-21T14:38:45Z</time>
      </trkpt>
      <trkpt lat="47.1246810" lon="6.7242550">
        <ele>950.4</ele>
        <time>2022-07-21T14:38:46Z</time>
      </trkpt>
      <trkpt lat="47.1246570" lon="6.7241880">
        <ele>950.5</ele>
        <time>2022-07-21T14:38:47Z</time>
      </trkpt>
      <trkpt lat="47.1246340" lon="6.7241250">
        <ele>950.6</ele>
        <time>2022-07-21T14:38:48Z</time>
      </trkpt>
      <trkpt lat="47.1246180" lon="6.7240840">
        <ele>950.7</ele>
        <time>2022-07-21T14:38:49Z</time>
      </trkpt>
      <trkpt lat="47.1245950" lon="6.7240290">
        <ele>950.8</ele>
        <time>2022-07-21T14:38:50Z</time>
      </trkpt>
      <trkpt lat="47.1245720" lon="6.7239720">
        <ele>951.0</ele>
        <time>2022-07-21T14:38:51Z</time>
      </trkpt>
      <trkpt lat="47.1245540" lon="6.7239270">
        <ele>951.1</ele>
        <time>2022-07-21T14:38:52Z</time>
      </trkpt>
      <trkpt lat="47.1245320" lon="6.7238750">
        <ele>951.2</ele>
        <time>2022-07-21T14:38:53Z</time>
      </trkpt>
      <trkpt lat="47.1245120" lon="6.7238230">
        <ele>951.4</ele>
        <time>2022-07-21T14:38:54Z</time>
      </trkpt>
      <trkpt lat="47.1244910" lon="6.7237790">
        <ele>951.5</ele>
        <time>2022-07-21T14:38:55Z</time>
      </trkpt>
      <trkpt lat="47.1244730" lon="6.7237290">
        <ele>951.6</ele>
        <time>2022-07-21T14:38:56Z</time>
      </trkpt>
      <trkpt lat="47.1244500" lon="6.7236820">
        <ele>951.8</ele>
        <time>2022-07-21T14:38:57Z</time>
      </trkpt>
      <trkpt lat="47.1244290" lon="6.7236380">
        <ele>951.9</ele>
        <time>2022-07-21T14:38:58Z</time>
      </trkpt>
      <trkpt lat="47.1244100" lon="6.7235910">
        <ele>952.0</ele>
        <time>2022-07-21T14:38:59Z</time>
      </trkpt>
      <trkpt lat="47.1243910" lon="6.7235470">
        <ele>952.2</ele>
        <time>2022-07-21T14:39:00Z</time>
      </trkpt>
      <trkpt lat="47.1243680" lon="6.7235010">
        <ele>952.3</ele>
        <time>2022-07-21T14:39:01Z</time>
      </trkpt>
      <trkpt lat="47.1243430" lon="6.7234580">
        <ele>952.5</ele>
        <time>2022-07-21T14:39:02Z</time>
      </trkpt>
      <trkpt lat="47.1243240" lon="6.7234170">
        <ele>952.6</ele>
        <time>2022-07-21T14:39:03Z</time>
      </trkpt>
      <trkpt lat="47.1243060" lon="6.7233750">
        <ele>952.7</ele>
        <time>2022-07-21T14:39:04Z</time>
      </trkpt>
      <trkpt lat="47.1242840" lon="6.7233260">
        <ele>952.8</ele>
        <time>2022-07-21T14:39:05Z</time>
      </trkpt>
      <trkpt lat="47.1242620" lon="6.7232800">
        <ele>952.9</ele>
        <time>2022-07-21T14:39:06Z</time>
      </trkpt>
      <trkpt lat="47.1242430" lon="6.7232500">
        <ele>953.0</ele>
        <time>2022-07-21T14:39:07Z</time>
      </trkpt>
      <trkpt lat="47.1242210" lon="6.7232110">
        <ele>953.1</ele>
        <time>2022-07-21T14:39:08Z</time>
      </trkpt>
      <trkpt lat="47.1241980" lon="6.7231740">
        <ele>953.1</ele>
        <time>2022-07-21T14:39:09Z</time>
      </trkpt>
      <trkpt lat="47.1241750" lon="6.7231380">
        <ele>953.1</ele>
        <time>2022-07-21T14:39:10Z</time>
      </trkpt>
      <trkpt lat="47.1241490" lon="6.7231030">
        <ele>953.2</ele>
        <time>2022-07-21T14:39:11Z</time>
      </trkpt>
      <trkpt lat="47.1241180" lon="6.7230600">
        <ele>953.2</ele>
        <time>2022-07-21T14:39:12Z</time>
      </trkpt>
      <trkpt lat="47.1240910" lon="6.7230190">
        <ele>953.1</ele>
        <time>2022-07-21T14:39:13Z</time>
      </trkpt>
      <trkpt lat="47.1240640" lon="6.7229800">
        <ele>953.1</ele>
        <time>2022-07-21T14:39:14Z</time>
      </trkpt>
      <trkpt lat="47.1240360" lon="6.7229380">
        <ele>953.0</ele>
        <time>2022-07-21T14:39:15Z</time>
      </trkpt>
      <trkpt lat="47.1239960" lon="6.7228680">
        <ele>952.9</ele>
        <time>2022-07-21T14:39:16Z</time>
      </trkpt>
      <trkpt lat="47.1239630" lon="6.7228110">
        <ele>952.7</ele>
        <time>2022-07-21T14:39:17Z</time>
      </trkpt>
      <trkpt lat="47.1239270" lon="6.7227630">
        <ele>952.5</ele>
        <time>2022-07-21T14:39:18Z</time>
      </trkpt>
      <trkpt lat="47.1238890" lon="6.7227170">
        <ele>952.4</ele>
        <time>2022-07-21T14:39:19Z</time>
      </trkpt>
      <trkpt lat="47.1238520" lon="6.7226740">
        <ele>952.1</ele>
        <time>2022-07-21T14:39:20Z</time>
      </trkpt>
      <trkpt lat="47.1238090" lon="6.7226220">
        <ele>951.9</ele>
        <time>2022-07-21T14:39:21Z</time>
      </trkpt>
      <trkpt lat="47.1237620" lon="6.7225690">
        <ele>951.5</ele>
        <time>2022-07-21T14:39:22Z</time>
      </trkpt>
      <trkpt lat="47.1237160" lon="6.7225160">
        <ele>951.2</ele>
        <time>2022-07-21T14:39:23Z</time>
      </trkpt>
      <trkpt lat="47.1236690" lon="6.7224580">
        <ele>950.9</ele>
        <time>2022-07-21T14:39:24Z</time>
      </trkpt>
      <trkpt lat="47.1236220" lon="6.7224040">
        <ele>950.5</ele>
        <time>2022-07-21T14:39:25Z</time>
      </trkpt>
      <trkpt lat="47.1235680" lon="6.7223480">
        <ele>950.1</ele>
        <time>2022-07-21T14:39:26Z</time>
      </trkpt>
      <trkpt lat="47.1235070" lon="6.7222880">
        <ele>949.6</ele>
        <time>2022-07-21T14:39:27Z</time>
      </trkpt>
      <trkpt lat="47.1234490" lon="6.7222240">
        <ele>949.1</ele>
        <time>2022-07-21T14:39:28Z</time>
      </trkpt>
      <trkpt lat="47.1233880" lon="6.7221560">
        <ele>948.7</ele>
        <time>2022-07-21T14:39:29Z</time>
      </trkpt>
      <trkpt lat="47.1233250" lon="6.7220810">
        <ele>948.1</ele>
        <time>2022-07-21T14:39:30Z</time>
      </trkpt>
      <trkpt lat="47.1232550" lon="6.7220030">
        <ele>947.4</ele>
        <time>2022-07-21T14:39:31Z</time>
      </trkpt>
      <trkpt lat="47.1231880" lon="6.7219230">
        <ele>946.8</ele>
        <time>2022-07-21T14:39:32Z</time>
      </trkpt>
      <trkpt lat="47.1231220" lon="6.7218430">
        <ele>946.2</ele>
        <time>2022-07-21T14:39:33Z</time>
      </trkpt>
      <trkpt lat="47.1230500" lon="6.7217590">
        <ele>945.6</ele>
        <time>2022-07-21T14:39:34Z</time>
      </trkpt>
      <trkpt lat="47.1229750" lon="6.7216690">
        <ele>945.0</ele>
        <time>2022-07-21T14:39:35Z</time>
      </trkpt>
      <trkpt lat="47.1229030" lon="6.7215820">
        <ele>944.4</ele>
        <time>2022-07-21T14:39:36Z</time>
      </trkpt>
      <trkpt lat="47.1228390" lon="6.7215040">
        <ele>944.0</ele>
        <time>2022-07-21T14:39:37Z</time>
      </trkpt>
      <trkpt lat="47.1227830" lon="6.7214400">
        <ele>943.6</ele>
        <time>2022-07-21T14:39:38Z</time>
      </trkpt>
      <trkpt lat="47.1227520" lon="6.7213970">
        <ele>943.4</ele>
        <time>2022-07-21T14:39:39Z</time>
      </trkpt>
      <trkpt lat="47.1227370" lon="6.7213510">
        <ele>943.3</ele>
        <time>2022-07-21T14:39:40Z</time>
      </trkpt>
      <trkpt lat="47.1227310" lon="6.7213320">
        <ele>943.2</ele>
        <time>2022-07-21T14:39:41Z</time>
      </trkpt>
      <trkpt lat="47.1227210" lon="6.7213180">
        <ele>943.1</ele>
        <time>2022-07-21T14:39:42Z</time>
      </trkpt>
      <trkpt lat="47.1227150" lon="6.7213150">
        <ele>943.1</ele>
        <time>2022-07-21T14:39:43Z</time>
      </trkpt>
      <trkpt lat="47.1227020" lon="6.7213260">
        <ele>943.0</ele>
        <time>2022-07-21T14:39:44Z</time>
      </trkpt>
      <trkpt lat="47.1226810" lon="6.7213660">
        <ele>942.9</ele>
        <time>2022-07-21T14:39:45Z</time>
      </trkpt>
      <trkpt lat="47.1226750" lon="6.7213800">
        <ele>942.8</ele>
        <time>2022-07-21T14:39:46Z</time>
      </trkpt>
      <trkpt lat="47.1226590" lon="6.7214300">
        <ele>942.6</ele>
        <time>2022-07-21T14:39:47Z</time>
      </trkpt>
      <trkpt lat="47.1226520" lon="6.7214480">
        <ele>942.6</ele>
        <time>2022-07-21T14:39:48Z</time>
      </trkpt>
      <trkpt lat="47.1226500" lon="6.7214970">
        <ele>942.5</ele>
        <time>2022-07-21T14:39:49Z</time>
      </trkpt>
      <trkpt lat="47.1226510" lon="6.7215410">
        <ele>942.4</ele>
        <time>2022-07-21T14:39:50Z</time>
      </trkpt>
      <trkpt lat="47.1226430" lon="6.7215860">
        <ele>942.4</ele>
        <time>2022-07-21T14:39:51Z</time>
      </trkpt>
      <trkpt lat="47.1226340" lon="6.7216270">
        <ele>942.3</ele>
        <time>2022-07-21T14:39:52Z</time>
      </trkpt>
      <trkpt lat="47.1226150" lon="6.7216810">
        <ele>942.2</ele>
        <time>2022-07-21T14:39:53Z</time>
      </trkpt>
      <trkpt lat="47.1226070" lon="6.7217000">
        <ele>942.2</ele>
        <time>2022-07-21T14:39:54Z</time>
      </trkpt>
      <trkpt lat="47.1225890" lon="6.7217390">
        <ele>942.1</ele>
        <time>2022-07-21T14:39:55Z</time>
      </trkpt>
      <trkpt lat="47.1225690" lon="6.7217790">
        <ele>942.0</ele>
        <time>2022-07-21T14:39:56Z</time>
      </trkpt>
      <trkpt lat="47.1225450" lon="6.7218220">
        <ele>942.0</ele>
        <time>2022-07-21T14:39:57Z</time>
      </trkpt>
      <trkpt lat="47.1225150" lon="6.7218620">
        <ele>941.9</ele>
        <time>2022-07-21T14:39:58Z</time>
      </trkpt>
      <trkpt lat="47.1224900" lon="6.7219030">
        <ele>941.8</ele>
        <time>2022-07-21T14:39:59Z</time>
      </trkpt>
      <trkpt lat="47.1224660" lon="6.7219470">
        <ele>941.7</ele>
        <time>2022-07-21T14:40:00Z</time>
      </trkpt>
      <trkpt lat="47.1224420" lon="6.7219930">
        <ele>941.5</ele>
        <time>2022-07-21T14:40:01Z</time>
      </trkpt>
      <trkpt lat="47.1224170" lon="6.7220380">
        <ele>941.4</ele>
        <time>2022-07-21T14:40:02Z</time>
      </trkpt>
      <trkpt lat="47.1223900" lon="6.7220830">
        <ele>941.2</ele>
        <time>2022-07-21T14:40:03Z</time>
      </trkpt>
      <trkpt lat="47.1223600" lon="6.7221340">
        <ele>941.0</ele>
        <time>2022-07-21T14:40:04Z</time>
      </trkpt>
      <trkpt lat="47.1223320" lon="6.7221840">
        <ele>940.8</ele>
        <time>2022-07-21T14:40:05Z</time>
      </trkpt>
      <trkpt lat="47.1223030" lon="6.7222370">
        <ele>940.5</ele>
        <time>2022-07-21T14:40:06Z</time>
      </trkpt>
      <trkpt lat="47.1222720" lon="6.7222950">
        <ele>940.2</ele>
        <time>2022-07-21T14:40:07Z</time>
      </trkpt>
      <trkpt lat="47.1222430" lon="6.7223500">
        <ele>939.9</ele>
        <time>2022-07-21T14:40:08Z</time>
      </trkpt>
      <trkpt lat="47.1222230" lon="6.7223910">
        <ele>939.7</ele>
        <time>2022-07-21T14:40:09Z</time>
      </trkpt>
      <trkpt lat="47.1221820" lon="6.7224530">
        <ele>939.4</ele>
        <time>2022-07-21T14:40:10Z</time>
      </trkpt>
      <trkpt lat="47.1221470" lon="6.7225120">
        <ele>939.1</ele>
        <time>2022-07-21T14:40:11Z</time>
      </trkpt>
      <trkpt lat="47.1221120" lon="6.7225740">
        <ele>938.8</ele>
        <time>2022-07-21T14:40:12Z</time>
      </trkpt>
      <trkpt lat="47.1220780" lon="6.7226430">
        <ele>938.4</ele>
        <time>2022-07-21T14:40:13Z</time>
      </trkpt>
      <trkpt lat="47.1220410" lon="6.7227140">
        <ele>938.1</ele>
        <time>2022-07-21T14:40:14Z</time>
      </trkpt>
      <trkpt lat="47.1220010" lon="6.7227840">
        <ele>937.8</ele>
        <time>2022-07-21T14:40:15Z</time>
      </trkpt>
      <trkpt lat="47.1219570" lon="6.7228550">
        <ele>937.5</ele>
        <time>2022-07-21T14:40:16Z</time>
      </trkpt>
      <trkpt lat="47.1219100" lon="6.7229290">
        <ele>937.2</ele>
        <time>2022-07-21T14:40:17Z</time>
      </trkpt>
      <trkpt lat="47.1218580" lon="6.7229890">
        <ele>937.1</ele>
        <time>2022-07-21T14:40:18Z</time>
      </trkpt>
      <trkpt lat="47.1218030" lon="6.7230450">
        <ele>936.9</ele>
        <time>2022-07-21T14:40:19Z</time>
      </trkpt>
      <trkpt lat="47.1217480" lon="6.7230990">
        <ele>936.9</ele>
        <time>2022-07-21T14:40:20Z</time>
      </trkpt>
      <trkpt lat="47.1216960" lon="6.7231530">
        <ele>936.9</ele>
        <time>2022-07-21T14:40:21Z</time>
      </trkpt>
      <trkpt lat="47.1216510" lon="6.7232000">
        <ele>936.9</ele>
        <time>2022-07-21T14:40:22Z</time>
      </trkpt>
      <trkpt lat="47.1216050" lon="6.7232410">
        <ele>936.9</ele>
        <time>2022-07-21T14:40:23Z</time>
      </trkpt>
      <trkpt lat="47.1215540" lon="6.7232900">
        <ele>937.0</ele>
        <time>2022-07-21T14:40:24Z</time>
      </trkpt>
      <trkpt lat="47.1215010" lon="6.7233370">
        <ele>937.2</ele>
        <time>2022-07-21T14:40:25Z</time>
      </trkpt>
      <trkpt lat="47.1214550" lon="6.7233860">
        <ele>937.3</ele>
        <time>2022-07-21T14:40:26Z</time>
      </trkpt>
      <trkpt lat="47.1214140" lon="6.7234360">
        <ele>937.4</ele>
        <time>2022-07-21T14:40:27Z</time>
      </trkpt>
      <trkpt lat="47.1213730" lon="6.7234800">
        <ele>937.6</ele>
        <time>2022-07-21T14:40:28Z</time>
      </trkpt>
      <trkpt lat="47.1213300" lon="6.7235290">
        <ele>937.8</ele>
        <time>2022-07-21T14:40:29Z</time>
      </trkpt>
      <trkpt lat="47.1212950" lon="6.7235780">
        <ele>937.9</ele>
        <time>2022-07-21T14:40:30Z</time>
      </trkpt>
      <trkpt lat="47.1212650" lon="6.7236280">
        <ele>938.1</ele>
        <time>2022-07-21T14:40:31Z</time>
      </trkpt>
      <trkpt lat="47.1212350" lon="6.7236750">
        <ele>938.3</ele>
        <time>2022-07-21T14:40:32Z</time>
      </trkpt>
      <trkpt lat="47.1212110" lon="6.7237160">
        <ele>938.4</ele>
        <time>2022-07-21T14:40:33Z</time>
      </trkpt>
      <trkpt lat="47.1211920" lon="6.7237640">
        <ele>938.6</ele>
        <time>2022-07-21T14:40:34Z</time>
      </trkpt>
      <trkpt lat="47.1211780" lon="6.7238170">
        <ele>938.8</ele>
        <time>2022-07-21T14:40:35Z</time>
      </trkpt>
      <trkpt lat="47.1211600" lon="6.7238690">
        <ele>938.9</ele>
        <time>2022-07-21T14:40:36Z</time>
      </trkpt>
      <trkpt lat="47.1211520" lon="6.7238930">
        <ele>939.0</ele>
        <time>2022-07-21T14:40:37Z</time>
      </trkpt>
      <trkpt lat="47.1211360" lon="6.7239470">
        <ele>939.2</ele>
        <time>2022-07-21T14:40:38Z</time>
      </trkpt>
      <trkpt lat="47.1211200" lon="6.7239940">
        <ele>939.4</ele>
        <time>2022-07-21T14:40:39Z</time>
      </trkpt>
      <trkpt lat="47.1211110" lon="6.7240350">
        <ele>939.6</ele>
        <time>2022-07-21T14:40:40Z</time>
      </trkpt>
      <trkpt lat="47.1210950" lon="6.7240860">
        <ele>939.8</ele>
        <time>2022-07-21T14:40:41Z</time>
      </trkpt>
      <trkpt lat="47.1210810" lon="6.7241320">
        <ele>940.0</ele>
        <time>2022-07-21T14:40:42Z</time>
      </trkpt>
      <trkpt lat="47.1210650" lon="6.7241910">
        <ele>940.3</ele>
        <time>2022-07-21T14:40:43Z</time>
      </trkpt>
      <trkpt lat="47.1210590" lon="6.7242150">
        <ele>940.4</ele>
        <time>2022-07-21T14:40:44Z</time>
      </trkpt>
      <trkpt lat="47.1210530" lon="6.7242580">
        <ele>940.6</ele>
        <time>2022-07-21T14:40:45Z</time>
      </trkpt>
      <trkpt lat="47.1210460" lon="6.7243030">
        <ele>940.8</ele>
        <time>2022-07-21T14:40:46Z</time>
      </trkpt>
      <trkpt lat="47.1210370" lon="6.7243470">
        <ele>941.0</ele>
        <time>2022-07-21T14:40:47Z</time>
      </trkpt>
      <trkpt lat="47.1210320" lon="6.7243940">
        <ele>941.2</ele>
        <time>2022-07-21T14:40:48Z</time>
      </trkpt>
      <trkpt lat="47.1210310" lon="6.7244110">
        <ele>941.3</ele>
        <time>2022-07-21T14:40:49Z</time>
      </trkpt>
      <trkpt lat="47.1210250" lon="6.7244720">
        <ele>941.6</ele>
        <time>2022-07-21T14:40:50Z</time>
      </trkpt>
      <trkpt lat="47.1210220" lon="6.7244960">
        <ele>941.7</ele>
        <time>2022-07-21T14:40:51Z</time>
      </trkpt>
      <trkpt lat="47.1210130" lon="6.7245340">
        <ele>941.8</ele>
        <time>2022-07-21T14:40:52Z</time>
      </trkpt>
      <trkpt lat="47.1210020" lon="6.7245710">
        <ele>942.0</ele>
        <time>2022-07-21T14:40:53Z</time>
      </trkpt>
      <trkpt lat="47.1209900" lon="6.7246260">
        <ele>942.3</ele>
        <time>2022-07-21T14:40:54Z</time>
      </trkpt>
      <trkpt lat="47.1209860" lon="6.7246450">
        <ele>942.4</ele>
        <time>2022-07-21T14:40:55Z</time>
      </trkpt>
      <trkpt lat="47.1209820" lon="6.7247000">
        <ele>942.7</ele>
        <time>2022-07-21T14:40:56Z</time>
      </trkpt>
      <trkpt lat="47.1209810" lon="6.7247170">
        <ele>942.8</ele>
        <time>2022-07-21T14:40:57Z</time>
      </trkpt>
      <trkpt lat="47.1209770" lon="6.7247650">
        <ele>943.0</ele>
        <time>2022-07-21T14:40:58Z</time>
      </trkpt>
      <trkpt lat="47.1209750" lon="6.7247800">
        <ele>943.1</ele>
        <time>2022-07-21T14:40:59Z</time>
      </trkpt>
      <trkpt lat="47.1209690" lon="6.7248250">
        <ele>943.3</ele>
        <time>2022-07-21T14:41:00Z</time>
      </trkpt>
      <trkpt lat="47.1209670" lon="6.7248400">
        <ele>943.4</ele>
        <time>2022-07-21T14:41:01Z</time>
      </trkpt>
      <trkpt lat="47.1209640" lon="6.7248810">
        <ele>943.5</ele>
        <time>2022-07-21T14:41:02Z</time>
      </trkpt>
      <trkpt lat="47.1209630" lon="6.7248950">
        <ele>943.6</ele>
        <time>2022-07-21T14:41:03Z</time>
      </trkpt>
      <trkpt lat="47.1209550" lon="6.7249360">
        <ele>943.8</ele>
        <time>2022-07-21T14:41:04Z</time>
      </trkpt>
      <trkpt lat="47.1209520" lon="6.7249500">
        <ele>943.9</ele>
        <time>2022-07-21T14:41:05Z</time>
      </trkpt>
      <trkpt lat="47.1209450" lon="6.7249900">
        <ele>944.0</ele>
        <time>2022-07-21T14:41:06Z</time>
      </trkpt>
      <trkpt lat="47.1209430" lon="6.7250040">
        <ele>944.1</ele>
        <time>2022-07-21T14:41:07Z</time>
      </trkpt>
      <trkpt lat="47.1209400" lon="6.7250500">
        <ele>944.3</ele>
        <time>2022-07-21T14:41:08Z</time>
      </trkpt>
      <trkpt lat="47.1209400" lon="6.7250650">
        <ele>944.3</ele>
        <time>2022-07-21T14:41:09Z</time>
      </trkpt>
      <trkpt lat="47.1209410" lon="6.7251090">
        <ele>944.5</ele>
        <time>2022-07-21T14:41:10Z</time>
      </trkpt>
      <trkpt lat="47.1209420" lon="6.7251220">
        <ele>944.6</ele>
        <time>2022-07-21T14:41:11Z</time>
      </trkpt>
      <trkpt lat="47.1209450" lon="6.7251680">
        <ele>944.7</ele>
        <time>2022-07-21T14:41:12Z</time>
      </trkpt>
      <trkpt lat="47.1209460" lon="6.7251850">
        <ele>944.8</ele>
        <time>2022-07-21T14:41:13Z</time>
      </trkpt>
      <trkpt lat="47.1209500" lon="6.7252400">
        <ele>945.0</ele>
        <time>2022-07-21T14:41:14Z</time>
      </trkpt>
      <trkpt lat="47.1209510" lon="6.7252550">
        <ele>945.1</ele>
        <time>2022-07-21T14:41:15Z</time>
      </trkpt>
      <trkpt lat="47.1209550" lon="6.7253060">
        <ele>945.3</ele>
        <time>2022-07-21T14:41:16Z</time>
      </trkpt>
      <trkpt lat="47.1209560" lon="6.7253220">
        <ele>945.3</ele>
        <time>2022-07-21T14:41:17Z</time>
      </trkpt>
      <trkpt lat="47.1209630" lon="6.7253710">
        <ele>945.5</ele>
        <time>2022-07-21T14:41:18Z</time>
      </trkpt>
      <trkpt lat="47.1209660" lon="6.7253880">
        <ele>945.6</ele>
        <time>2022-07-21T14:41:19Z</time>
      </trkpt>
      <trkpt lat="47.1209730" lon="6.7254280">
        <ele>945.7</ele>
        <time>2022-07-21T14:41:20Z</time>
      </trkpt>
      <trkpt lat="47.1209820" lon="6.7254810">
        <ele>945.9</ele>
        <time>2022-07-21T14:41:21Z</time>
      </trkpt>
      <trkpt lat="47.1209860" lon="6.7254990">
        <ele>946.0</ele>
        <time>2022-07-21T14:41:22Z</time>
      </trkpt>
      <trkpt lat="47.1209950" lon="6.7255370">
        <ele>946.1</ele>
        <time>2022-07-21T14:41:23Z</time>
      </trkpt>
      <trkpt lat="47.1210080" lon="6.7255790">
        <ele>946.3</ele>
        <time>2022-07-21T14:41:24Z</time>
      </trkpt>
      <trkpt lat="47.1210120" lon="6.7255920">
        <ele>946.3</ele>
        <time>2022-07-21T14:41:25Z</time>
      </trkpt>
      <trkpt lat="47.1210270" lon="6.7256370">
        <ele>946.5</ele>
        <time>2022-07-21T14:41:26Z</time>
      </trkpt>
      <trkpt lat="47.1210320" lon="6.7256530">
        <ele>946.6</ele>
        <time>2022-07-21T14:41:27Z</time>
      </trkpt>
      <trkpt lat="47.1210470" lon="6.7257000">
        <ele>946.8</ele>
        <time>2022-07-21T14:41:28Z</time>
      </trkpt>
      <trkpt lat="47.1210520" lon="6.7257160">
        <ele>946.9</ele>
        <time>2022-07-21T14:41:29Z</time>
      </trkpt>
      <trkpt lat="47.1210600" lon="6.7257410">
        <ele>947.0</ele>
        <time>2022-07-21T14:41:30Z</time>
      </trkpt>
      <trkpt lat="47.1210680" lon="6.7257630">
        <ele>947.1</ele>
        <time>2022-07-21T14:41:31Z</time>
      </trkpt>
      <trkpt lat="47.1210830" lon="6.7258130">
        <ele>947.4</ele>
        <time>2022-07-21T14:41:32Z</time>
      </trkpt>
      <trkpt lat="47.1210890" lon="6.7258300">
        <ele>947.5</ele>
        <time>2022-07-21T14:41:33Z</time>
      </trkpt>
      <trkpt lat="47.1211030" lon="6.7258740">
        <ele>947.7</ele>
        <time>2022-07-21T14:41:34Z</time>
      </trkpt>
      <trkpt lat="47.1211080" lon="6.7258910">
        <ele>947.8</ele>
        <time>2022-07-21T14:41:35Z</time>
      </trkpt>
      <trkpt lat="47.1211230" lon="6.7259360">
        <ele>948.0</ele>
        <time>2022-07-21T14:41:36Z</time>
      </trkpt>
      <trkpt lat="47.1211270" lon="6.7259500">
        <ele>948.1</ele>
        <time>2022-07-21T14:41:37Z</time>
      </trkpt>
      <trkpt lat="47.1211390" lon="6.7260010">
        <ele>948.4</ele>
        <time>2022-07-21T14:41:38Z</time>
      </trkpt>
      <trkpt lat="47.1211420" lon="6.7260160">
        <ele>948.5</ele>
        <time>2022-07-21T14:41:39Z</time>
      </trkpt>
      <trkpt lat="47.1211460" lon="6.7260330">
        <ele>948.5</ele>
        <time>2022-07-21T14:41:40Z</time>
      </trkpt>
      <trkpt lat="47.1211570" lon="6.7260620">
        <ele>948.7</ele>
        <time>2022-07-21T14:41:41Z</time>
      </trkpt>
      <trkpt lat="47.1211750" lon="6.7261010">
        <ele>949.0</ele>
        <time>2022-07-21T14:41:42Z</time>
      </trkpt>
      <trkpt lat="47.1211820" lon="6.7261170">
        <ele>949.1</ele>
        <time>2022-07-21T14:41:43Z</time>
      </trkpt>
      <trkpt lat="47.1211990" lon="6.7261600">
        <ele>949.3</ele>
        <time>2022-07-21T14:41:44Z</time>
      </trkpt>
      <trkpt lat="47.1212050" lon="6.7261720">
        <ele>949.4</ele>
        <time>2022-07-21T14:41:45Z</time>
      </trkpt>
      <trkpt lat="47.1212210" lon="6.7262190">
        <ele>949.6</ele>
        <time>2022-07-21T14:41:46Z</time>
      </trkpt>
      <trkpt lat="47.1212240" lon="6.7262340">
        <ele>949.7</ele>
        <time>2022-07-21T14:41:47Z</time>
      </trkpt>
      <trkpt lat="47.1212320" lon="6.7262780">
        <ele>950.0</ele>
        <time>2022-07-21T14:41:48Z</time>
      </trkpt>
      <trkpt lat="47.1212340" lon="6.7262910">
        <ele>950.0</ele>
        <time>2022-07-21T14:41:49Z</time>
      </trkpt>
      <trkpt lat="47.1212410" lon="6.7263450">
        <ele>950.3</ele>
        <time>2022-07-21T14:41:50Z</time>
      </trkpt>
      <trkpt lat="47.1212420" lon="6.7263620">
        <ele>950.4</ele>
        <time>2022-07-21T14:41:51Z</time>
      </trkpt>
      <trkpt lat="47.1212460" lon="6.7264140">
        <ele>950.7</ele>
        <time>2022-07-21T14:41:52Z</time>
      </trkpt>
      <trkpt lat="47.1212470" lon="6.7264290">
        <ele>950.7</ele>
        <time>2022-07-21T14:41:53Z</time>
      </trkpt>
      <trkpt lat="47.1212510" lon="6.7264750">
        <ele>951.0</ele>
        <time>2022-07-21T14:41:54Z</time>
      </trkpt>
      <trkpt lat="47.1212520" lon="6.7264870">
        <ele>951.0</ele>
        <time>2022-07-21T14:41:55Z</time>
      </trkpt>
      <trkpt lat="47.1212520" lon="6.7265110">
        <ele>951.2</ele>
        <time>2022-07-21T14:41:56Z</time>
      </trkpt>
      <trkpt lat="47.1212530" lon="6.7265390">
        <ele>951.3</ele>
        <time>2022-07-21T14:41:57Z</time>
      </trkpt>
      <trkpt lat="47.1212560" lon="6.7265830">
        <ele>951.6</ele>
        <time>2022-07-21T14:41:58Z</time>
      </trkpt>
      <trkpt lat="47.1212570" lon="6.7265980">
        <ele>951.6</ele>
        <time>2022-07-21T14:41:59Z</time>
      </trkpt>
      <trkpt lat="47.1212620" lon="6.7266410">
        <ele>951.9</ele>
        <time>2022-07-21T14:42:00Z</time>
      </trkpt>
      <trkpt lat="47.1212630" lon="6.7266530">
        <ele>952.0</ele>
        <time>2022-07-21T14:42:01Z</time>
      </trkpt>
      <trkpt lat="47.1212670" lon="6.7266790">
        <ele>952.1</ele>
        <time>2022-07-21T14:42:02Z</time>
      </trkpt>
      <trkpt lat="47.1212690" lon="6.7266980">
        <ele>952.2</ele>
        <time>2022-07-21T14:42:03Z</time>
      </trkpt>
      <trkpt lat="47.1212710" lon="6.7267180">
        <ele>952.3</ele>
        <time>2022-07-21T14:42:04Z</time>
      </trkpt>
      <trkpt lat="47.1212720" lon="6.7267430">
        <ele>952.5</ele>
        <time>2022-07-21T14:42:05Z</time>
      </trkpt>
      <trkpt lat="47.1212730" lon="6.7267660">
        <ele>952.6</ele>
        <time>2022-07-21T14:42:06Z</time>
      </trkpt>
      <trkpt lat="47.1212780" lon="6.7267850">
        <ele>952.7</ele>
        <time>2022-07-21T14:42:07Z</time>
      </trkpt>
      <trkpt lat="47.1212830" lon="6.7268050">
        <ele>952.8</ele>
        <time>2022-07-21T14:42:08Z</time>
      </trkpt>
      <trkpt lat="47.1212860" lon="6.7268580">
        <ele>953.1</ele>
        <time>2022-07-21T14:42:10Z</time>
      </trkpt>
      <trkpt lat="47.1212880" lon="6.7269130">
        <ele>953.4</ele>
        <time>2022-07-21T14:42:11Z</time>
      </trkpt>
      <trkpt lat="47.1212890" lon="6.7269290">
        <ele>953.5</ele>
        <time>2022-07-21T14:42:12Z</time>
      </trkpt>
      <trkpt lat="47.1212920" lon="6.7269580">
        <ele>953.7</ele>
        <time>2022-07-21T14:42:13Z</time>
      </trkpt>
      <trkpt lat="47.1212980" lon="6.7270050">
        <ele>954.0</ele>
        <time>2022-07-21T14:42:15Z</time>
      </trkpt>
      <trkpt lat="47.1212960" lon="6.7270340">
        <ele>954.2</ele>
        <time>2022-07-21T14:42:16Z</time>
      </trkpt>
      <trkpt lat="47.1212930" lon="6.7270530">
        <ele>954.3</ele>
        <time>2022-07-21T14:42:17Z</time>
      </trkpt>
      <trkpt lat="47.1212840" lon="6.7270900">
        <ele>954.6</ele>
        <time>2022-07-21T14:42:18Z</time>
      </trkpt>
      <trkpt lat="47.1212800" lon="6.7271070">
        <ele>954.7</ele>
        <time>2022-07-21T14:42:19Z</time>
      </trkpt>
      <trkpt lat="47.1212720" lon="6.7271380">
        <ele>954.9</ele>
        <time>2022-07-21T14:42:20Z</time>
      </trkpt>
      <trkpt lat="47.1212660" lon="6.7271630">
        <ele>955.0</ele>
        <time>2022-07-21T14:42:22Z</time>
      </trkpt>
      <trkpt lat="47.1212520" lon="6.7272030">
        <ele>955.3</ele>
        <time>2022-07-21T14:42:23Z</time>
      </trkpt>
      <trkpt lat="47.1212470" lon="6.7272170">
        <ele>955.4</ele>
        <time>2022-07-21T14:42:24Z</time>
      </trkpt>
      <trkpt lat="47.1212400" lon="6.7272570">
        <ele>955.6</ele>
        <time>2022-07-21T14:42:25Z</time>
      </trkpt>
      <trkpt lat="47.1212370" lon="6.7272700">
        <ele>955.7</ele>
        <time>2022-07-21T14:42:26Z</time>
      </trkpt>
      <trkpt lat="47.1212390" lon="6.7272990">
        <ele>955.9</ele>
        <time>2022-07-21T14:42:28Z</time>
      </trkpt>
      <trkpt lat="47.1212360" lon="6.7273290">
        <ele>956.0</ele>
        <time>2022-07-21T14:42:30Z</time>
      </trkpt>
      <trkpt lat="47.1212310" lon="6.7273540">
        <ele>956.2</ele>
        <time>2022-07-21T14:42:31Z</time>
      </trkpt>
      <trkpt lat="47.1212280" lon="6.7273720">
        <ele>956.2</ele>
        <time>2022-07-21T14:42:32Z</time>
      </trkpt>
      <trkpt lat="47.1212270" lon="6.7273930">
        <ele>956.3</ele>
        <time>2022-07-21T14:42:33Z</time>
      </trkpt>
      <trkpt lat="47.1212190" lon="6.7274150">
        <ele>956.5</ele>
        <time>2022-07-21T14:42:34Z</time>
      </trkpt>
      <trkpt lat="47.1212020" lon="6.7274610">
        <ele>956.7</ele>
        <time>2022-07-21T14:42:35Z</time>
      </trkpt>
      <trkpt lat="47.1211950" lon="6.7274820">
        <ele>956.8</ele>
        <time>2022-07-21T14:42:36Z</time>
      </trkpt>
      <trkpt lat="47.1211820" lon="6.7275200">
        <ele>956.9</ele>
        <time>2022-07-21T14:42:37Z</time>
      </trkpt>
      <trkpt lat="47.1211650" lon="6.7275470">
        <ele>957.0</ele>
        <time>2022-07-21T14:42:38Z</time>
      </trkpt>
      <trkpt lat="47.1211480" lon="6.7275950">
        <ele>957.2</ele>
        <time>2022-07-21T14:42:40Z</time>
      </trkpt>
      <trkpt lat="47.1211380" lon="6.7276380">
        <ele>957.3</ele>
        <time>2022-07-21T14:42:41Z</time>
      </trkpt>
      <trkpt lat="47.1211250" lon="6.7276820">
        <ele>957.4</ele>
        <time>2022-07-21T14:42:42Z</time>
      </trkpt>
      <trkpt lat="47.1211070" lon="6.7277270">
        <ele>957.6</ele>
        <time>2022-07-21T14:42:43Z</time>
      </trkpt>
      <trkpt lat="47.1211000" lon="6.7277430">
        <ele>957.6</ele>
        <time>2022-07-21T14:42:44Z</time>
      </trkpt>
      <trkpt lat="47.1210820" lon="6.7277780">
        <ele>957.7</ele>
        <time>2022-07-21T14:42:46Z</time>
      </trkpt>
      <trkpt lat="47.1210650" lon="6.7278100">
        <ele>957.8</ele>
        <time>2022-07-21T14:42:47Z</time>
      </trkpt>
      <trkpt lat="47.1210450" lon="6.7278480">
        <ele>958.0</ele>
        <time>2022-07-21T14:42:48Z</time>
      </trkpt>
      <trkpt lat="47.1210390" lon="6.7278610">
        <ele>958.0</ele>
        <time>2022-07-21T14:42:49Z</time>
      </trkpt>
      <trkpt lat="47.1210170" lon="6.7279040">
        <ele>958.1</ele>
        <time>2022-07-21T14:42:50Z</time>
      </trkpt>
      <trkpt lat="47.1210060" lon="6.7279230">
        <ele>958.2</ele>
        <time>2022-07-21T14:42:51Z</time>
      </trkpt>
      <trkpt lat="47.1209940" lon="6.7279370">
        <ele>958.3</ele>
        <time>2022-07-21T14:42:53Z</time>
      </trkpt>
      <trkpt lat="47.1209790" lon="6.7279520">
        <ele>958.4</ele>
        <time>2022-07-21T14:42:54Z</time>
      </trkpt>
      <trkpt lat="47.1209710" lon="6.7279710">
        <ele>958.5</ele>
        <time>2022-07-21T14:42:55Z</time>
      </trkpt>
      <trkpt lat="47.1209650" lon="6.7279960">
        <ele>958.6</ele>
        <time>2022-07-21T14:42:56Z</time>
      </trkpt>
      <trkpt lat="47.1209560" lon="6.7280380">
        <ele>958.8</ele>
        <time>2022-07-21T14:42:57Z</time>
      </trkpt>
      <trkpt lat="47.1209530" lon="6.7280540">
        <ele>958.8</ele>
        <time>2022-07-21T14:42:58Z</time>
      </trkpt>
      <trkpt lat="47.1209510" lon="6.7280800">
        <ele>958.9</ele>
        <time>2022-07-21T14:42:59Z</time>
      </trkpt>
      <trkpt lat="47.1209540" lon="6.7281240">
        <ele>959.2</ele>
        <time>2022-07-21T14:43:01Z</time>
      </trkpt>
      <trkpt lat="47.1209550" lon="6.7281480">
        <ele>959.3</ele>
        <time>2022-07-21T14:43:02Z</time>
      </trkpt>
      <trkpt lat="47.1209570" lon="6.7281700">
        <ele>959.4</ele>
        <time>2022-07-21T14:43:03Z</time>
      </trkpt>
      <trkpt lat="47.1209530" lon="6.7282090">
        <ele>959.6</ele>
        <time>2022-07-21T14:43:04Z</time>
      </trkpt>
      <trkpt lat="47.1209470" lon="6.7282570">
        <ele>959.8</ele>
        <time>2022-07-21T14:43:06Z</time>
      </trkpt>
      <trkpt lat="47.1209460" lon="6.7282990">
        <ele>960.1</ele>
        <time>2022-07-21T14:43:07Z</time>
      </trkpt>
      <trkpt lat="47.1209440" lon="6.7283410">
        <ele>960.3</ele>
        <time>2022-07-21T14:43:08Z</time>
      </trkpt>
      <trkpt lat="47.1209420" lon="6.7283590">
        <ele>960.4</ele>
        <time>2022-07-21T14:43:09Z</time>
      </trkpt>
      <trkpt lat="47.1209380" lon="6.7283840">
        <ele>960.6</ele>
        <time>2022-07-21T14:43:10Z</time>
      </trkpt>
      <trkpt lat="47.1209320" lon="6.7284260">
        <ele>960.8</ele>
        <time>2022-07-21T14:43:11Z</time>
      </trkpt>
      <trkpt lat="47.1209300" lon="6.7284370">
        <ele>960.9</ele>
        <time>2022-07-21T14:43:12Z</time>
      </trkpt>
      <trkpt lat="47.1209240" lon="6.7284690">
        <ele>961.1</ele>
        <time>2022-07-21T14:43:13Z</time>
      </trkpt>
      <trkpt lat="47.1209200" lon="6.7285110">
        <ele>961.3</ele>
        <time>2022-07-21T14:43:15Z</time>
      </trkpt>
      <trkpt lat="47.1209180" lon="6.7285430">
        <ele>961.6</ele>
        <time>2022-07-21T14:43:16Z</time>
      </trkpt>
      <trkpt lat="47.1209160" lon="6.7285560">
        <ele>961.6</ele>
        <time>2022-07-21T14:43:17Z</time>
      </trkpt>
      <trkpt lat="47.1209130" lon="6.7285990">
        <ele>961.9</ele>
        <time>2022-07-21T14:43:18Z</time>
      </trkpt>
      <trkpt lat="47.1209140" lon="6.7286190">
        <ele>962.1</ele>
        <time>2022-07-21T14:43:20Z</time>
      </trkpt>
      <trkpt lat="47.1209150" lon="6.7286390">
        <ele>962.3</ele>
        <time>2022-07-21T14:43:21Z</time>
      </trkpt>
      <trkpt lat="47.1209160" lon="6.7286600">
        <ele>962.4</ele>
        <time>2022-07-21T14:43:22Z</time>
      </trkpt>
      <trkpt lat="47.1209150" lon="6.7287150">
        <ele>962.9</ele>
        <time>2022-07-21T14:43:24Z</time>
      </trkpt>
      <trkpt lat="47.1209160" lon="6.7287300">
        <ele>963.0</ele>
        <time>2022-07-21T14:43:25Z</time>
      </trkpt>
      <trkpt lat="47.1209160" lon="6.7287610">
        <ele>963.3</ele>
        <time>2022-07-21T14:43:26Z</time>
      </trkpt>
      <trkpt lat="47.1209180" lon="6.7287820">
        <ele>963.4</ele>
        <time>2022-07-21T14:43:27Z</time>
      </trkpt>
      <trkpt lat="47.1209240" lon="6.7288190">
        <ele>963.8</ele>
        <time>2022-07-21T14:43:28Z</time>
      </trkpt>
      <trkpt lat="47.1209290" lon="6.7288530">
        <ele>964.1</ele>
        <time>2022-07-21T14:43:30Z</time>
      </trkpt>
      <trkpt lat="47.1209230" lon="6.7289010">
        <ele>964.6</ele>
        <time>2022-07-21T14:43:31Z</time>
      </trkpt>
      <trkpt lat="47.1209210" lon="6.7289160">
        <ele>964.7</ele>
        <time>2022-07-21T14:43:32Z</time>
      </trkpt>
      <trkpt lat="47.1209270" lon="6.7289630">
        <ele>965.1</ele>
        <time>2022-07-21T14:43:33Z</time>
      </trkpt>
      <trkpt lat="47.1209290" lon="6.7289770">
        <ele>965.3</ele>
        <time>2022-07-21T14:43:34Z</time>
      </trkpt>
      <trkpt lat="47.1209330" lon="6.7290060">
        <ele>965.5</ele>
        <time>2022-07-21T14:43:35Z</time>
      </trkpt>
      <trkpt lat="47.1209340" lon="6.7290190">
        <ele>965.7</ele>
        <time>2022-07-21T14:43:37Z</time>
      </trkpt>
      <trkpt lat="47.1209350" lon="6.7290320">
        <ele>965.8</ele>
        <time>2022-07-21T14:43:38Z</time>
      </trkpt>
      <trkpt lat="47.1209350" lon="6.7290730">
        <ele>966.1</ele>
        <time>2022-07-21T14:43:39Z</time>
      </trkpt>
      <trkpt lat="47.1209360" lon="6.7290870">
        <ele>966.3</ele>
        <time>2022-07-21T14:43:40Z</time>
      </trkpt>
      <trkpt lat="47.1209360" lon="6.7291080">
        <ele>966.4</ele>
        <time>2022-07-21T14:43:41Z</time>
      </trkpt>
      <trkpt lat="47.1209340" lon="6.7291280">
        <ele>966.6</ele>
        <time>2022-07-21T14:43:42Z</time>
      </trkpt>
      <trkpt lat="47.1209330" lon="6.7291550">
        <ele>966.8</ele>
        <time>2022-07-21T14:43:43Z</time>
      </trkpt>
      <trkpt lat="47.1209310" lon="6.7291790">
        <ele>967.0</ele>
        <time>2022-07-21T14:43:44Z</time>
      </trkpt>
      <trkpt lat="47.1209280" lon="6.7292220">
        <ele>967.3</ele>
        <time>2022-07-21T14:43:46Z</time>
      </trkpt>
      <trkpt lat="47.1209270" lon="6.7292330">
        <ele>967.4</ele>
        <time>2022-07-21T14:43:47Z</time>
      </trkpt>
      <trkpt lat="47.1209230" lon="6.7292570">
        <ele>967.6</ele>
        <time>2022-07-21T14:43:48Z</time>
      </trkpt>
      <trkpt lat="47.1209210" lon="6.7292730">
        <ele>967.7</ele>
        <time>2022-07-21T14:43:50Z</time>
      </trkpt>
      <trkpt lat="47.1209210" lon="6.7292910">
        <ele>967.9</ele>
        <time>2022-07-21T14:43:51Z</time>
      </trkpt>
      <trkpt lat="47.1209230" lon="6.7293190">
        <ele>968.1</ele>
        <time>2022-07-21T14:43:52Z</time>
      </trkpt>
      <trkpt lat="47.1209280" lon="6.7293610">
        <ele>968.4</ele>
        <time>2022-07-21T14:43:53Z</time>
      </trkpt>
      <trkpt lat="47.1209270" lon="6.7293790">
        <ele>968.5</ele>
        <time>2022-07-21T14:43:54Z</time>
      </trkpt>
      <trkpt lat="47.1209220" lon="6.7294080">
        <ele>968.7</ele>
        <time>2022-07-21T14:43:56Z</time>
      </trkpt>
      <trkpt lat="47.1209190" lon="6.7294210">
        <ele>968.8</ele>
        <time>2022-07-21T14:43:57Z</time>
      </trkpt>
      <trkpt lat="47.1208950" lon="6.7294660">
        <ele>969.2</ele>
        <time>2022-07-21T14:43:58Z</time>
      </trkpt>
      <trkpt lat="47.1208890" lon="6.7294880">
        <ele>969.4</ele>
        <time>2022-07-21T14:43:59Z</time>
      </trkpt>
      <trkpt lat="47.1208860" lon="6.7295340">
        <ele>969.7</ele>
        <time>2022-07-21T14:44:01Z</time>
      </trkpt>
      <trkpt lat="47.1208870" lon="6.7295610">
        <ele>969.9</ele>
        <time>2022-07-21T14:44:03Z</time>
      </trkpt>
      <trkpt lat="47.1208880" lon="6.7295870">
        <ele>970.1</ele>
        <time>2022-07-21T14:44:04Z</time>
      </trkpt>
      <trkpt lat="47.1208900" lon="6.7296080">
        <ele>970.2</ele>
        <time>2022-07-21T14:44:05Z</time>
      </trkpt>
      <trkpt lat="47.1208930" lon="6.7296250">
        <ele>970.4</ele>
        <time>2022-07-21T14:44:06Z</time>
      </trkpt>
      <trkpt lat="47.1208990" lon="6.7296360">
        <ele>970.5</ele>
        <time>2022-07-21T14:44:07Z</time>
      </trkpt>
      <trkpt lat="47.1209030" lon="6.7296460">
        <ele>970.5</ele>
        <time>2022-07-21T14:44:08Z</time>
      </trkpt>
      <trkpt lat="47.1209040" lon="6.7296600">
        <ele>970.6</ele>
        <time>2022-07-21T14:44:09Z</time>
      </trkpt>
      <trkpt lat="47.1209070" lon="6.7296980">
        <ele>970.9</ele>
        <time>2022-07-21T14:44:10Z</time>
      </trkpt>
      <trkpt lat="47.1209110" lon="6.7297340">
        <ele>971.2</ele>
        <time>2022-07-21T14:44:11Z</time>
      </trkpt>
      <trkpt lat="47.1209160" lon="6.7297490">
        <ele>971.3</ele>
        <time>2022-07-21T14:44:12Z</time>
      </trkpt>
      <trkpt lat="47.1209200" lon="6.7297640">
        <ele>971.4</ele>
        <time>2022-07-21T14:44:13Z</time>
      </trkpt>
      <trkpt lat="47.1209330" lon="6.7298120">
        <ele>971.8</ele>
        <time>2022-07-21T14:44:15Z</time>
      </trkpt>
      <trkpt lat="47.1209340" lon="6.7298270">
        <ele>971.9</ele>
        <time>2022-07-21T14:44:16Z</time>
      </trkpt>
      <trkpt lat="47.1209340" lon="6.7298470">
        <ele>972.1</ele>
        <time>2022-07-21T14:44:18Z</time>
      </trkpt>
      <trkpt lat="47.1209370" lon="6.7298670">
        <ele>972.2</ele>
        <time>2022-07-21T14:44:19Z</time>
      </trkpt>
      <trkpt lat="47.1209420" lon="6.7298850">
        <ele>972.4</ele>
        <time>2022-07-21T14:44:20Z</time>
      </trkpt>
      <trkpt lat="47.1209440" lon="6.7298970">
        <ele>972.5</ele>
        <time>2022-07-21T14:44:21Z</time>
      </trkpt>
      <trkpt lat="47.1209450" lon="6.7299090">
        <ele>972.6</ele>
        <time>2022-07-21T14:44:22Z</time>
      </trkpt>
      <trkpt lat="47.1209510" lon="6.7299330">
        <ele>972.8</ele>
        <time>2022-07-21T14:44:23Z</time>
      </trkpt>
      <trkpt lat="47.1209580" lon="6.7299520">
        <ele>972.9</ele>
        <time>2022-07-21T14:44:25Z</time>
      </trkpt>
      <trkpt lat="47.1209650" lon="6.7299720">
        <ele>973.1</ele>
        <time>2022-07-21T14:44:26Z</time>
      </trkpt>
      <trkpt lat="47.1209730" lon="6.7299920">
        <ele>973.3</ele>
        <time>2022-07-21T14:44:27Z</time>
      </trkpt>
      <trkpt lat="47.1209800" lon="6.7300090">
        <ele>973.4</ele>
        <time>2022-07-21T14:44:28Z</time>
      </trkpt>
      <trkpt lat="47.1209880" lon="6.7300310">
        <ele>973.6</ele>
        <time>2022-07-21T14:44:29Z</time>
      </trkpt>
      <trkpt lat="47.1209940" lon="6.7300530">
        <ele>973.8</ele>
        <time>2022-07-21T14:44:30Z</time>
      </trkpt>
      <trkpt lat="47.1210010" lon="6.7300770">
        <ele>974.0</ele>
        <time>2022-07-21T14:44:31Z</time>
      </trkpt>
      <trkpt lat="47.1210070" lon="6.7301060">
        <ele>974.2</ele>
        <time>2022-07-21T14:44:32Z</time>
      </trkpt>
      <trkpt lat="47.1210120" lon="6.7301300">
        <ele>974.4</ele>
        <time>2022-07-21T14:44:34Z</time>
      </trkpt>
      <trkpt lat="47.1210180" lon="6.7301740">
        <ele>974.8</ele>
        <time>2022-07-21T14:44:36Z</time>
      </trkpt>
      <trkpt lat="47.1210220" lon="6.7301860">
        <ele>974.9</ele>
        <time>2022-07-21T14:44:37Z</time>
      </trkpt>
      <trkpt lat="47.1210290" lon="6.7302100">
        <ele>975.1</ele>
        <time>2022-07-21T14:44:38Z</time>
      </trkpt>
      <trkpt lat="47.1210380" lon="6.7302500">
        <ele>975.4</ele>
        <time>2022-07-21T14:44:39Z</time>
      </trkpt>
      <trkpt lat="47.1210440" lon="6.7302670">
        <ele>975.6</ele>
        <time>2022-07-21T14:44:40Z</time>
      </trkpt>
      <trkpt lat="47.1210510" lon="6.7302980">
        <ele>975.9</ele>
        <time>2022-07-21T14:44:42Z</time>
      </trkpt>
      <trkpt lat="47.1210550" lon="6.7303120">
        <ele>976.0</ele>
        <time>2022-07-21T14:44:43Z</time>
      </trkpt>
      <trkpt lat="47.1210590" lon="6.7303260">
        <ele>976.1</ele>
        <time>2022-07-21T14:44:44Z</time>
      </trkpt>
      <trkpt lat="47.1210640" lon="6.7303440">
        <ele>976.3</ele>
        <time>2022-07-21T14:44:45Z</time>
      </trkpt>
      <trkpt lat="47.1210670" lon="6.7303680">
        <ele>976.5</ele>
        <time>2022-07-21T14:44:46Z</time>
      </trkpt>
      <trkpt lat="47.1210700" lon="6.7303800">
        <ele>976.6</ele>
        <time>2022-07-21T14:44:47Z</time>
      </trkpt>
      <trkpt lat="47.1210730" lon="6.7303890">
        <ele>976.7</ele>
        <time>2022-07-21T14:44:48Z</time>
      </trkpt>
      <trkpt lat="47.1210750" lon="6.7303960">
        <ele>976.7</ele>
        <time>2022-07-21T14:44:49Z</time>
      </trkpt>
      <trkpt lat="47.1210760" lon="6.7304050">
        <ele>976.8</ele>
        <time>2022-07-21T14:44:50Z</time>
      </trkpt>
      <trkpt lat="47.1210780" lon="6.7304130">
        <ele>976.9</ele>
        <time>2022-07-21T14:44:51Z</time>
      </trkpt>
      <trkpt lat="47.1210810" lon="6.7304290">
        <ele>977.0</ele>
        <time>2022-07-21T14:44:52Z</time>
      </trkpt>
      <trkpt lat="47.1210850" lon="6.7304520">
        <ele>977.2</ele>
        <time>2022-07-21T14:44:53Z</time>
      </trkpt>
      <trkpt lat="47.1210860" lon="6.7304700">
        <ele>977.4</ele>
        <time>2022-07-21T14:44:54Z</time>
      </trkpt>
      <trkpt lat="47.1210860" lon="6.7304840">
        <ele>977.5</ele>
        <time>2022-07-21T14:44:55Z</time>
      </trkpt>
      <trkpt lat="47.1210830" lon="6.7305000">
        <ele>977.6</ele>
        <time>2022-07-21T14:44:56Z</time>
      </trkpt>
      <trkpt lat="47.1210810" lon="6.7305110">
        <ele>977.7</ele>
        <time>2022-07-21T14:44:57Z</time>
      </trkpt>
      <trkpt lat="47.1210810" lon="6.7305250">
        <ele>977.8</ele>
        <time>2022-07-21T14:44:58Z</time>
      </trkpt>
      <trkpt lat="47.1210830" lon="6.7305500">
        <ele>978.0</ele>
        <time>2022-07-21T14:44:59Z</time>
      </trkpt>
      <trkpt lat="47.1210910" lon="6.7305990">
        <ele>978.5</ele>
        <time>2022-07-21T14:45:00Z</time>
      </trkpt>
      <trkpt lat="47.1210930" lon="6.7306160">
        <ele>978.6</ele>
        <time>2022-07-21T14:45:01Z</time>
      </trkpt>
      <trkpt lat="47.1210980" lon="6.7306310">
        <ele>978.8</ele>
        <time>2022-07-21T14:45:02Z</time>
      </trkpt>
      <trkpt lat="47.1210970" lon="6.7306570">
        <ele>979.0</ele>
        <time>2022-07-21T14:45:03Z</time>
      </trkpt>
      <trkpt lat="47.1210960" lon="6.7306830">
        <ele>979.2</ele>
        <time>2022-07-21T14:45:05Z</time>
      </trkpt>
      <trkpt lat="47.1210960" lon="6.7306950">
        <ele>979.3</ele>
        <time>2022-07-21T14:45:06Z</time>
      </trkpt>
      <trkpt lat="47.1210950" lon="6.7307090">
        <ele>979.5</ele>
        <time>2022-07-21T14:45:07Z</time>
      </trkpt>
      <trkpt lat="47.1210950" lon="6.7307280">
        <ele>979.6</ele>
        <time>2022-07-21T14:45:08Z</time>
      </trkpt>
      <trkpt lat="47.1210930" lon="6.7307400">
        <ele>979.7</ele>
        <time>2022-07-21T14:45:09Z</time>
      </trkpt>
      <trkpt lat="47.1210890" lon="6.7307550">
        <ele>979.9</ele>
        <time>2022-07-21T14:45:11Z</time>
      </trkpt>
      <trkpt lat="47.1210840" lon="6.7307700">
        <ele>980.0</ele>
        <time>2022-07-21T14:45:12Z</time>
      </trkpt>
      <trkpt lat="47.1210790" lon="6.7307910">
        <ele>980.2</ele>
        <time>2022-07-21T14:45:13Z</time>
      </trkpt>
      <trkpt lat="47.1210750" lon="6.7308010">
        <ele>980.3</ele>
        <time>2022-07-21T14:45:14Z</time>
      </trkpt>
      <trkpt lat="47.1210730" lon="6.7308060">
        <ele>980.4</ele>
        <time>2022-07-21T14:45:15Z</time>
      </trkpt>
      <trkpt lat="47.1210640" lon="6.7308250">
        <ele>980.6</ele>
        <time>2022-07-21T14:45:16Z</time>
      </trkpt>
      <trkpt lat="47.1210540" lon="6.7308390">
        <ele>980.8</ele>
        <time>2022-07-21T14:45:18Z</time>
      </trkpt>
      <trkpt lat="47.1210470" lon="6.7308490">
        <ele>980.9</ele>
        <time>2022-07-21T14:45:19Z</time>
      </trkpt>
      <trkpt lat="47.1210410" lon="6.7308600">
        <ele>981.0</ele>
        <time>2022-07-21T14:45:20Z</time>
      </trkpt>
      <trkpt lat="47.1210330" lon="6.7308710">
        <ele>981.2</ele>
        <time>2022-07-21T14:45:21Z</time>
      </trkpt>
      <trkpt lat="47.1210270" lon="6.7308800">
        <ele>981.3</ele>
        <time>2022-07-21T14:45:22Z</time>
      </trkpt>
      <trkpt lat="47.1210230" lon="6.7308870">
        <ele>981.4</ele>
        <time>2022-07-21T14:45:23Z</time>
      </trkpt>
      <trkpt lat="47.1210190" lon="6.7308980">
        <ele>981.5</ele>
        <time>2022-07-21T14:45:24Z</time>
      </trkpt>
      <trkpt lat="47.1210160" lon="6.7309120">
        <ele>981.6</ele>
        <time>2022-07-21T14:45:25Z</time>
      </trkpt>
      <trkpt lat="47.1210140" lon="6.7309410">
        <ele>981.9</ele>
        <time>2022-07-21T14:45:26Z</time>
      </trkpt>
      <trkpt lat="47.1210100" lon="6.7309670">
        <ele>982.1</ele>
        <time>2022-07-21T14:45:28Z</time>
      </trkpt>
      <trkpt lat="47.1210050" lon="6.7309870">
        <ele>982.3</ele>
        <time>2022-07-21T14:45:29Z</time>
      </trkpt>
      <trkpt lat="47.1209950" lon="6.7310060">
        <ele>982.6</ele>
        <time>2022-07-21T14:45:30Z</time>
      </trkpt>
      <trkpt lat="47.1209770" lon="6.7310370">
        <ele>983.0</ele>
        <time>2022-07-21T14:45:31Z</time>
      </trkpt>
      <trkpt lat="47.1209700" lon="6.7310520">
        <ele>983.1</ele>
        <time>2022-07-21T14:45:33Z</time>
      </trkpt>
      <trkpt lat="47.1209630" lon="6.7310660">
        <ele>983.3</ele>
        <time>2022-07-21T14:45:34Z</time>
      </trkpt>
      <trkpt lat="47.1209560" lon="6.7310810">
        <ele>983.5</ele>
        <time>2022-07-21T14:45:35Z</time>
      </trkpt>
      <trkpt lat="47.1209400" lon="6.7311030">
        <ele>983.8</ele>
        <time>2022-07-21T14:45:36Z</time>
      </trkpt>
      <trkpt lat="47.1209350" lon="6.7311110">
        <ele>983.9</ele>
        <time>2022-07-21T14:45:37Z</time>
      </trkpt>
      <trkpt lat="47.1209290" lon="6.7311200">
        <ele>984.1</ele>
        <time>2022-07-21T14:45:38Z</time>
      </trkpt>
      <trkpt lat="47.1209150" lon="6.7311420">
        <ele>984.4</ele>
        <time>2022-07-21T14:45:39Z</time>
      </trkpt>
      <trkpt lat="47.1209060" lon="6.7311580">
        <ele>984.6</ele>
        <time>2022-07-21T14:45:41Z</time>
      </trkpt>
      <trkpt lat="47.1208950" lon="6.7311760">
        <ele>984.9</ele>
        <time>2022-07-21T14:45:42Z</time>
      </trkpt>
      <trkpt lat="47.1208840" lon="6.7311970">
        <ele>985.1</ele>
        <time>2022-07-21T14:45:43Z</time>
      </trkpt>
      <trkpt lat="47.1208780" lon="6.7312100">
        <ele>985.3</ele>
        <time>2022-07-21T14:45:44Z</time>
      </trkpt>
      <trkpt lat="47.1208670" lon="6.7312330">
        <ele>985.6</ele>
        <time>2022-07-21T14:45:46Z</time>
      </trkpt>
      <trkpt lat="47.1208610" lon="6.7312450">
        <ele>985.7</ele>
        <time>2022-07-21T14:45:47Z</time>
      </trkpt>
      <trkpt lat="47.1208570" lon="6.7312580">
        <ele>985.9</ele>
        <time>2022-07-21T14:45:48Z</time>
      </trkpt>
      <trkpt lat="47.1208510" lon="6.7312740">
        <ele>986.1</ele>
        <time>2022-07-21T14:45:49Z</time>
      </trkpt>
      <trkpt lat="47.1208480" lon="6.7312870">
        <ele>986.2</ele>
        <time>2022-07-21T14:45:50Z</time>
      </trkpt>
      <trkpt lat="47.1208460" lon="6.7312990">
        <ele>986.4</ele>
        <time>2022-07-21T14:45:51Z</time>
      </trkpt>
      <trkpt lat="47.1208440" lon="6.7313150">
        <ele>986.5</ele>
        <time>2022-07-21T14:45:52Z</time>
      </trkpt>
      <trkpt lat="47.1208420" lon="6.7313260">
        <ele>986.7</ele>
        <time>2022-07-21T14:45:53Z</time>
      </trkpt>
      <trkpt lat="47.1208340" lon="6.7313490">
        <ele>986.9</ele>
        <time>2022-07-21T14:45:55Z</time>
      </trkpt>
      <trkpt lat="47.1208290" lon="6.7313630">
        <ele>987.1</ele>
        <time>2022-07-21T14:45:56Z</time>
      </trkpt>
      <trkpt lat="47.1208260" lon="6.7313680">
        <ele>987.2</ele>
        <time>2022-07-21T14:45:57Z</time>
      </trkpt>
      <trkpt lat="47.1208210" lon="6.7313770">
        <ele>987.3</ele>
        <time>2022-07-21T14:45:58Z</time>
      </trkpt>
      <trkpt lat="47.1208140" lon="6.7313860">
        <ele>987.4</ele>
        <time>2022-07-21T14:45:59Z</time>
      </trkpt>
      <trkpt lat="47.1208080" lon="6.7313940">
        <ele>987.6</ele>
        <time>2022-07-21T14:46:00Z</time>
      </trkpt>
      <trkpt lat="47.1207900" lon="6.7314130">
        <ele>987.9</ele>
        <time>2022-07-21T14:46:01Z</time>
      </trkpt>
      <trkpt lat="47.1207820" lon="6.7314210">
        <ele>988.0</ele>
        <time>2022-07-21T14:46:02Z</time>
      </trkpt>
      <trkpt lat="47.1207730" lon="6.7314290">
        <ele>988.2</ele>
        <time>2022-07-21T14:46:03Z</time>
      </trkpt>
      <trkpt lat="47.1207540" lon="6.7314470">
        <ele>988.5</ele>
        <time>2022-07-21T14:46:05Z</time>
      </trkpt>
      <trkpt lat="47.1207290" lon="6.7314660">
        <ele>989.0</ele>
        <time>2022-07-21T14:46:07Z</time>
      </trkpt>
      <trkpt lat="47.1207140" lon="6.7314830">
        <ele>989.2</ele>
        <time>2022-07-21T14:46:08Z</time>
      </trkpt>
      <trkpt lat="47.1207040" lon="6.7314980">
        <ele>989.5</ele>
        <time>2022-07-21T14:46:09Z</time>
      </trkpt>
      <trkpt lat="47.1206950" lon="6.7315120">
        <ele>989.7</ele>
        <time>2022-07-21T14:46:10Z</time>
      </trkpt>
      <trkpt lat="47.1206840" lon="6.7315280">
        <ele>989.9</ele>
        <time>2022-07-21T14:46:11Z</time>
      </trkpt>
      <trkpt lat="47.1206760" lon="6.7315390">
        <ele>990.0</ele>
        <time>2022-07-21T14:46:12Z</time>
      </trkpt>
      <trkpt lat="47.1206650" lon="6.7315500">
        <ele>990.2</ele>
        <time>2022-07-21T14:46:14Z</time>
      </trkpt>
      <trkpt lat="47.1206570" lon="6.7315600">
        <ele>990.4</ele>
        <time>2022-07-21T14:46:15Z</time>
      </trkpt>
      <trkpt lat="47.1206440" lon="6.7315820">
        <ele>990.6</ele>
        <time>2022-07-21T14:46:16Z</time>
      </trkpt>
      <trkpt lat="47.1206360" lon="6.7315960">
        <ele>990.8</ele>
        <time>2022-07-21T14:46:17Z</time>
      </trkpt>
      <trkpt lat="47.1206300" lon="6.7316120">
        <ele>991.0</ele>
        <time>2022-07-21T14:46:18Z</time>
      </trkpt>
      <trkpt lat="47.1206190" lon="6.7316290">
        <ele>991.2</ele>
        <time>2022-07-21T14:46:20Z</time>
      </trkpt>
      <trkpt lat="47.1206060" lon="6.7316500">
        <ele>991.5</ele>
        <time>2022-07-21T14:46:21Z</time>
      </trkpt>
      <trkpt lat="47.1205990" lon="6.7316620">
        <ele>991.6</ele>
        <time>2022-07-21T14:46:22Z</time>
      </trkpt>
      <trkpt lat="47.1205870" lon="6.7316770">
        <ele>991.9</ele>
        <time>2022-07-21T14:46:23Z</time>
      </trkpt>
      <trkpt lat="47.1205790" lon="6.7316860">
        <ele>992.0</ele>
        <time>2022-07-21T14:46:24Z</time>
      </trkpt>
      <trkpt lat="47.1205710" lon="6.7316940">
        <ele>992.1</ele>
        <time>2022-07-21T14:46:25Z</time>
      </trkpt>
      <trkpt lat="47.1205630" lon="6.7317030">
        <ele>992.3</ele>
        <time>2022-07-21T14:46:26Z</time>
      </trkpt>
      <trkpt lat="47.1205540" lon="6.7317110">
        <ele>992.4</ele>
        <time>2022-07-21T14:46:27Z</time>
      </trkpt>
      <trkpt lat="47.1205450" lon="6.7317210">
        <ele>992.6</ele>
        <time>2022-07-21T14:46:28Z</time>
      </trkpt>
      <trkpt lat="47.1205300" lon="6.7317380">
        <ele>992.8</ele>
        <time>2022-07-21T14:46:29Z</time>
      </trkpt>
      <trkpt lat="47.1205160" lon="6.7317530">
        <ele>993.1</ele>
        <time>2022-07-21T14:46:31Z</time>
      </trkpt>
      <trkpt lat="47.1205000" lon="6.7317670">
        <ele>993.3</ele>
        <time>2022-07-21T14:46:32Z</time>
      </trkpt>
      <trkpt lat="47.1204870" lon="6.7317820">
        <ele>993.6</ele>
        <time>2022-07-21T14:46:33Z</time>
      </trkpt>
      <trkpt lat="47.1204780" lon="6.7317930">
        <ele>993.7</ele>
        <time>2022-07-21T14:46:34Z</time>
      </trkpt>
      <trkpt lat="47.1204690" lon="6.7318090">
        <ele>993.9</ele>
        <time>2022-07-21T14:46:35Z</time>
      </trkpt>
      <trkpt lat="47.1204640" lon="6.7318200">
        <ele>994.0</ele>
        <time>2022-07-21T14:46:37Z</time>
      </trkpt>
      <trkpt lat="47.1204560" lon="6.7318380">
        <ele>994.2</ele>
        <time>2022-07-21T14:46:38Z</time>
      </trkpt>
      <trkpt lat="47.1204500" lon="6.7318550">
        <ele>994.4</ele>
        <time>2022-07-21T14:46:39Z</time>
      </trkpt>
      <trkpt lat="47.1204480" lon="6.7318830">
        <ele>994.6</ele>
        <time>2022-07-21T14:46:40Z</time>
      </trkpt>
      <trkpt lat="47.1204480" lon="6.7318970">
        <ele>994.7</ele>
        <time>2022-07-21T14:46:41Z</time>
      </trkpt>
      <trkpt lat="47.1204490" lon="6.7319120">
        <ele>994.9</ele>
        <time>2022-07-21T14:46:42Z</time>
      </trkpt>
      <trkpt lat="47.1204510" lon="6.7319290">
        <ele>995.0</ele>
        <time>2022-07-21T14:46:44Z</time>
      </trkpt>
      <trkpt lat="47.1204520" lon="6.7319440">
        <ele>995.1</ele>
        <time>2022-07-21T14:46:45Z</time>
      </trkpt>
      <trkpt lat="47.1204530" lon="6.7319600">
        <ele>995.3</ele>
        <time>2022-07-21T14:46:46Z</time>
      </trkpt>
      <trkpt lat="47.1204550" lon="6.7319880">
        <ele>995.5</ele>
        <time>2022-07-21T14:46:48Z</time>
      </trkpt>
      <trkpt lat="47.1204550" lon="6.7320020">
        <ele>995.6</ele>
        <time>2022-07-21T14:46:49Z</time>
      </trkpt>
      <trkpt lat="47.1204550" lon="6.7320160">
        <ele>995.7</ele>
        <time>2022-07-21T14:46:50Z</time>
      </trkpt>
      <trkpt lat="47.1204580" lon="6.7320470">
        <ele>995.9</ele>
        <time>2022-07-21T14:46:51Z</time>
      </trkpt>
      <trkpt lat="47.1204590" lon="6.7320590">
        <ele>996.0</ele>
        <time>2022-07-21T14:46:52Z</time>
      </trkpt>
      <trkpt lat="47.1204610" lon="6.7320700">
        <ele>996.0</ele>
        <time>2022-07-21T14:46:53Z</time>
      </trkpt>
      <trkpt lat="47.1204640" lon="6.7320880">
        <ele>996.2</ele>
        <time>2022-07-21T14:46:54Z</time>
      </trkpt>
      <trkpt lat="47.1204680" lon="6.7321120">
        <ele>996.3</ele>
        <time>2022-07-21T14:46:55Z</time>
      </trkpt>
      <trkpt lat="47.1204730" lon="6.7321390">
        <ele>996.5</ele>
        <time>2022-07-21T14:46:56Z</time>
      </trkpt>
      <trkpt lat="47.1204760" lon="6.7321640">
        <ele>996.6</ele>
        <time>2022-07-21T14:46:58Z</time>
      </trkpt>
      <trkpt lat="47.1204800" lon="6.7321790">
        <ele>996.7</ele>
        <time>2022-07-21T14:46:59Z</time>
      </trkpt>
      <trkpt lat="47.1204850" lon="6.7321910">
        <ele>996.8</ele>
        <time>2022-07-21T14:47:00Z</time>
      </trkpt>
      <trkpt lat="47.1204910" lon="6.7322040">
        <ele>996.9</ele>
        <time>2022-07-21T14:47:01Z</time>
      </trkpt>
      <trkpt lat="47.1204970" lon="6.7322170">
        <ele>996.9</ele>
        <time>2022-07-21T14:47:02Z</time>
      </trkpt>
      <trkpt lat="47.1205010" lon="6.7322330">
        <ele>997.0</ele>
        <time>2022-07-21T14:47:04Z</time>
      </trkpt>
      <trkpt lat="47.1205060" lon="6.7322460">
        <ele>997.1</ele>
        <time>2022-07-21T14:47:05Z</time>
      </trkpt>
      <trkpt lat="47.1205130" lon="6.7322610">
        <ele>997.2</ele>
        <time>2022-07-21T14:47:06Z</time>
      </trkpt>
      <trkpt lat="47.1205330" lon="6.7322950">
        <ele>997.4</ele>
        <time>2022-07-21T14:47:08Z</time>
      </trkpt>
      <trkpt lat="47.1205550" lon="6.7323340">
        <ele>997.7</ele>
        <time>2022-07-21T14:47:09Z</time>
      </trkpt>
      <trkpt lat="47.1205620" lon="6.7323460">
        <ele>997.7</ele>
        <time>2022-07-21T14:47:10Z</time>
      </trkpt>
      <trkpt lat="47.1205880" lon="6.7323770">
        <ele>998.0</ele>
        <time>2022-07-21T14:47:11Z</time>
      </trkpt>
      <trkpt lat="47.1205950" lon="6.7323840">
        <ele>998.0</ele>
        <time>2022-07-21T14:47:12Z</time>
      </trkpt>
      <trkpt lat="47.1206200" lon="6.7324180">
        <ele>998.2</ele>
        <time>2022-07-21T14:47:13Z</time>
      </trkpt>
      <trkpt lat="47.1206380" lon="6.7324420">
        <ele>998.4</ele>
        <time>2022-07-21T14:47:14Z</time>
      </trkpt>
      <trkpt lat="47.1206550" lon="6.7324650">
        <ele>998.5</ele>
        <time>2022-07-21T14:47:16Z</time>
      </trkpt>
      <trkpt lat="47.1206640" lon="6.7324820">
        <ele>998.6</ele>
        <time>2022-07-21T14:47:17Z</time>
      </trkpt>
      <trkpt lat="47.1206750" lon="6.7325030">
        <ele>998.7</ele>
        <time>2022-07-21T14:47:18Z</time>
      </trkpt>
      <trkpt lat="47.1206900" lon="6.7325360">
        <ele>998.9</ele>
        <time>2022-07-21T14:47:19Z</time>
      </trkpt>
      <trkpt lat="47.1206950" lon="6.7325500">
        <ele>998.9</ele>
        <time>2022-07-21T14:47:20Z</time>
      </trkpt>
      <trkpt lat="47.1207110" lon="6.7325900">
        <ele>999.1</ele>
        <time>2022-07-21T14:47:21Z</time>
      </trkpt>
      <trkpt lat="47.1207150" lon="6.7326010">
        <ele>999.2</ele>
        <time>2022-07-21T14:47:22Z</time>
      </trkpt>
      <trkpt lat="47.1207320" lon="6.7326430">
        <ele>999.4</ele>
        <time>2022-07-21T14:47:23Z</time>
      </trkpt>
      <trkpt lat="47.1207380" lon="6.7326570">
        <ele>999.5</ele>
        <time>2022-07-21T14:47:24Z</time>
      </trkpt>
      <trkpt lat="47.1207540" lon="6.7327000">
        <ele>999.7</ele>
        <time>2022-07-21T14:47:26Z</time>
      </trkpt>
      <trkpt lat="47.1207600" lon="6.7327190">
        <ele>999.8</ele>
        <time>2022-07-21T14:47:27Z</time>
      </trkpt>
      <trkpt lat="47.1207750" lon="6.7327590">
        <ele>1000.0</ele>
        <time>2022-07-21T14:47:29Z</time>
      </trkpt>
      <trkpt lat="47.1207810" lon="6.7327720">
        <ele>1000.1</ele>
        <time>2022-07-21T14:47:30Z</time>
      </trkpt>
      <trkpt lat="47.1207870" lon="6.7327890">
        <ele>1000.2</ele>
        <time>2022-07-21T14:47:31Z</time>
      </trkpt>
      <trkpt lat="47.1207960" lon="6.7328130">
        <ele>1000.3</ele>
        <time>2022-07-21T14:47:32Z</time>
      </trkpt>
      <trkpt lat="47.1208120" lon="6.7328580">
        <ele>1000.5</ele>
        <time>2022-07-21T14:47:33Z</time>
      </trkpt>
      <trkpt lat="47.1208180" lon="6.7328790">
        <ele>1000.6</ele>
        <time>2022-07-21T14:47:35Z</time>
      </trkpt>
      <trkpt lat="47.1208240" lon="6.7328990">
        <ele>1000.7</ele>
        <time>2022-07-21T14:47:36Z</time>
      </trkpt>
      <trkpt lat="47.1208300" lon="6.7329190">
        <ele>1000.8</ele>
        <time>2022-07-21T14:47:37Z</time>
      </trkpt>
      <trkpt lat="47.1208390" lon="6.7329460">
        <ele>1001.0</ele>
        <time>2022-07-21T14:47:38Z</time>
      </trkpt>
      <trkpt lat="47.1208440" lon="6.7329660">
        <ele>1001.1</ele>
        <time>2022-07-21T14:47:39Z</time>
      </trkpt>
      <trkpt lat="47.1208540" lon="6.7330140">
        <ele>1001.3</ele>
        <time>2022-07-21T14:47:41Z</time>
      </trkpt>
      <trkpt lat="47.1208590" lon="6.7330290">
        <ele>1001.4</ele>
        <time>2022-07-21T14:47:42Z</time>
      </trkpt>
      <trkpt lat="47.1208740" lon="6.7330710">
        <ele>1001.6</ele>
        <time>2022-07-21T14:47:44Z</time>
      </trkpt>
      <trkpt lat="47.1208790" lon="6.7330830">
        <ele>1001.7</ele>
        <time>2022-07-21T14:47:45Z</time>
      </trkpt>
      <trkpt lat="47.1209090" lon="6.7331310">
        <ele>1002.0</ele>
        <time>2022-07-21T14:47:47Z</time>
      </trkpt>
      <trkpt lat="47.1209150" lon="6.7331430">
        <ele>1002.1</ele>
        <time>2022-07-21T14:47:49Z</time>
      </trkpt>
      <trkpt lat="47.1209200" lon="6.7331550">
        <ele>1002.2</ele>
        <time>2022-07-21T14:47:50Z</time>
      </trkpt>
      <trkpt lat="47.1209260" lon="6.7331670">
        <ele>1002.2</ele>
        <time>2022-07-21T14:47:51Z</time>
      </trkpt>
      <trkpt lat="47.1209370" lon="6.7331840">
        <ele>1002.4</ele>
        <time>2022-07-21T14:47:52Z</time>
      </trkpt>
      <trkpt lat="47.1209480" lon="6.7331980">
        <ele>1002.5</ele>
        <time>2022-07-21T14:47:53Z</time>
      </trkpt>
      <trkpt lat="47.1209610" lon="6.7332160">
        <ele>1002.6</ele>
        <time>2022-07-21T14:47:54Z</time>
      </trkpt>
      <trkpt lat="47.1209750" lon="6.7332350">
        <ele>1002.8</ele>
        <time>2022-07-21T14:47:56Z</time>
      </trkpt>
      <trkpt lat="47.1209820" lon="6.7332530">
        <ele>1002.9</ele>
        <time>2022-07-21T14:47:57Z</time>
      </trkpt>
      <trkpt lat="47.1209880" lon="6.7332680">
        <ele>1003.0</ele>
        <time>2022-07-21T14:47:58Z</time>
      </trkpt>
      <trkpt lat="47.1209940" lon="6.7332830">
        <ele>1003.1</ele>
        <time>2022-07-21T14:47:59Z</time>
      </trkpt>
      <trkpt lat="47.1210060" lon="6.7333070">
        <ele>1003.3</ele>
        <time>2022-07-21T14:48:00Z</time>
      </trkpt>
      <trkpt lat="47.1210130" lon="6.7333190">
        <ele>1003.4</ele>
        <time>2022-07-21T14:48:01Z</time>
      </trkpt>
      <trkpt lat="47.1210190" lon="6.7333300">
        <ele>1003.5</ele>
        <time>2022-07-21T14:48:02Z</time>
      </trkpt>
      <trkpt lat="47.1210330" lon="6.7333520">
        <ele>1003.6</ele>
        <time>2022-07-21T14:48:03Z</time>
      </trkpt>
      <trkpt lat="47.1210460" lon="6.7333690">
        <ele>1003.8</ele>
        <time>2022-07-21T14:48:05Z</time>
      </trkpt>
      <trkpt lat="47.1210650" lon="6.7334000">
        <ele>1004.1</ele>
        <time>2022-07-21T14:48:06Z</time>
      </trkpt>
      <trkpt lat="47.1210700" lon="6.7334100">
        <ele>1004.1</ele>
        <time>2022-07-21T14:48:07Z</time>
      </trkpt>
      <trkpt lat="47.1210790" lon="6.7334300">
        <ele>1004.3</ele>
        <time>2022-07-21T14:48:08Z</time>
      </trkpt>
      <trkpt lat="47.1210850" lon="6.7334460">
        <ele>1004.4</ele>
        <time>2022-07-21T14:48:09Z</time>
      </trkpt>
      <trkpt lat="47.1210920" lon="6.7334640">
        <ele>1004.6</ele>
        <time>2022-07-21T14:48:10Z</time>
      </trkpt>
      <trkpt lat="47.1210970" lon="6.7334760">
        <ele>1004.7</ele>
        <time>2022-07-21T14:48:11Z</time>
      </trkpt>
      <trkpt lat="47.1211020" lon="6.7334900">
        <ele>1004.8</ele>
        <time>2022-07-21T14:48:12Z</time>
      </trkpt>
      <trkpt lat="47.1211090" lon="6.7335200">
        <ele>1005.1</ele>
        <time>2022-07-21T14:48:13Z</time>
      </trkpt>
      <trkpt lat="47.1211130" lon="6.7335350">
        <ele>1005.2</ele>
        <time>2022-07-21T14:48:14Z</time>
      </trkpt>
      <trkpt lat="47.1211160" lon="6.7335510">
        <ele>1005.3</ele>
        <time>2022-07-21T14:48:15Z</time>
      </trkpt>
      <trkpt lat="47.1211150" lon="6.7335730">
        <ele>1005.5</ele>
        <time>2022-07-21T14:48:16Z</time>
      </trkpt>
      <trkpt lat="47.1211130" lon="6.7335840">
        <ele>1005.6</ele>
        <time>2022-07-21T14:48:17Z</time>
      </trkpt>
      <trkpt lat="47.1211100" lon="6.7335910">
        <ele>1005.7</ele>
        <time>2022-07-21T14:48:19Z</time>
      </trkpt>
      <trkpt lat="47.1211060" lon="6.7336060">
        <ele>1005.9</ele>
        <time>2022-07-21T14:48:20Z</time>
      </trkpt>
      <trkpt lat="47.1211010" lon="6.7336200">
        <ele>1006.0</ele>
        <time>2022-07-21T14:48:21Z</time>
      </trkpt>
      <trkpt lat="47.1210980" lon="6.7336300">
        <ele>1006.1</ele>
        <time>2022-07-21T14:48:23Z</time>
      </trkpt>
      <trkpt lat="47.1210950" lon="6.7336410">
        <ele>1006.2</ele>
        <time>2022-07-21T14:48:24Z</time>
      </trkpt>
      <trkpt lat="47.1210930" lon="6.7336490">
        <ele>1006.3</ele>
        <time>2022-07-21T14:48:25Z</time>
      </trkpt>
      <trkpt lat="47.1210860" lon="6.7336730">
        <ele>1006.6</ele>
        <time>2022-07-21T14:48:26Z</time>
      </trkpt>
      <trkpt lat="47.1210810" lon="6.7336870">
        <ele>1006.7</ele>
        <time>2022-07-21T14:48:27Z</time>
      </trkpt>
      <trkpt lat="47.1210720" lon="6.7337120">
        <ele>1007.0</ele>
        <time>2022-07-21T14:48:28Z</time>
      </trkpt>
      <trkpt lat="47.1210670" lon="6.7337290">
        <ele>1007.2</ele>
        <time>2022-07-21T14:48:29Z</time>
      </trkpt>
      <trkpt lat="47.1210640" lon="6.7337470">
        <ele>1007.4</ele>
        <time>2022-07-21T14:48:31Z</time>
      </trkpt>
      <trkpt lat="47.1210640" lon="6.7337570">
        <ele>1007.5</ele>
        <time>2022-07-21T14:48:32Z</time>
      </trkpt>
      <trkpt lat="47.1210550" lon="6.7338050">
        <ele>1008.0</ele>
        <time>2022-07-21T14:48:34Z</time>
      </trkpt>
      <trkpt lat="47.1210530" lon="6.7338160">
        <ele>1008.1</ele>
        <time>2022-07-21T14:48:35Z</time>
      </trkpt>
      <trkpt lat="47.1210510" lon="6.7338360">
        <ele>1008.3</ele>
        <time>2022-07-21T14:48:36Z</time>
      </trkpt>
      <trkpt lat="47.1210450" lon="6.7338660">
        <ele>1008.6</ele>
        <time>2022-07-21T14:48:37Z</time>
      </trkpt>
      <trkpt lat="47.1210380" lon="6.7338920">
        <ele>1008.9</ele>
        <time>2022-07-21T14:48:38Z</time>
      </trkpt>
      <trkpt lat="47.1210320" lon="6.7339120">
        <ele>1009.1</ele>
        <time>2022-07-21T14:48:39Z</time>
      </trkpt>
      <trkpt lat="47.1210250" lon="6.7339350">
        <ele>1009.3</ele>
        <time>2022-07-21T14:48:41Z</time>
      </trkpt>
      <trkpt lat="47.1210190" lon="6.7339540">
        <ele>1009.5</ele>
        <time>2022-07-21T14:48:42Z</time>
      </trkpt>
      <trkpt lat="47.1210090" lon="6.7339820">
        <ele>1009.8</ele>
        <time>2022-07-21T14:48:43Z</time>
      </trkpt>
      <trkpt lat="47.1209970" lon="6.7340160">
        <ele>1010.1</ele>
        <time>2022-07-21T14:48:45Z</time>
      </trkpt>
      <trkpt lat="47.1209840" lon="6.7340460">
        <ele>1010.4</ele>
        <time>2022-07-21T14:48:46Z</time>
      </trkpt>
      <trkpt lat="47.1209770" lon="6.7340590">
        <ele>1010.6</ele>
        <time>2022-07-21T14:48:47Z</time>
      </trkpt>
      <trkpt lat="47.1209710" lon="6.7340710">
        <ele>1010.7</ele>
        <time>2022-07-21T14:48:48Z</time>
      </trkpt>
      <trkpt lat="47.1209640" lon="6.7340890">
        <ele>1010.8</ele>
        <time>2022-07-21T14:48:49Z</time>
      </trkpt>
      <trkpt lat="47.1209540" lon="6.7341050">
        <ele>1011.1</ele>
        <time>2022-07-21T14:48:50Z</time>
      </trkpt>
      <trkpt lat="47.1209370" lon="6.7341350">
        <ele>1011.4</ele>
        <time>2022-07-21T14:48:52Z</time>
      </trkpt>
      <trkpt lat="47.1209310" lon="6.7341460">
        <ele>1011.5</ele>
        <time>2022-07-21T14:48:53Z</time>
      </trkpt>
      <trkpt lat="47.1209250" lon="6.7341560">
        <ele>1011.6</ele>
        <time>2022-07-21T14:48:54Z</time>
      </trkpt>
      <trkpt lat="47.1209200" lon="6.7341690">
        <ele>1011.7</ele>
        <time>2022-07-21T14:48:56Z</time>
      </trkpt>
      <trkpt lat="47.1209160" lon="6.7341880">
        <ele>1011.8</ele>
        <time>2022-07-21T14:48:57Z</time>
      </trkpt>
      <trkpt lat="47.1209150" lon="6.7342040">
        <ele>1012.0</ele>
        <time>2022-07-21T14:48:58Z</time>
      </trkpt>
      <trkpt lat="47.1209160" lon="6.7342200">
        <ele>1012.1</ele>
        <time>2022-07-21T14:48:59Z</time>
      </trkpt>
      <trkpt lat="47.1209170" lon="6.7342400">
        <ele>1012.2</ele>
        <time>2022-07-21T14:49:00Z</time>
      </trkpt>
      <trkpt lat="47.1209150" lon="6.7342650">
        <ele>1012.4</ele>
        <time>2022-07-21T14:49:01Z</time>
      </trkpt>
      <trkpt lat="47.1209100" lon="6.7342870">
        <ele>1012.6</ele>
        <time>2022-07-21T14:49:02Z</time>
      </trkpt>
      <trkpt lat="47.1208940" lon="6.7343450">
        <ele>1013.0</ele>
        <time>2022-07-21T14:49:04Z</time>
      </trkpt>
      <trkpt lat="47.1208880" lon="6.7343630">
        <ele>1013.2</ele>
        <time>2022-07-21T14:49:05Z</time>
      </trkpt>
      <trkpt lat="47.1208810" lon="6.7343810">
        <ele>1013.3</ele>
        <time>2022-07-21T14:49:06Z</time>
      </trkpt>
      <trkpt lat="47.1208630" lon="6.7344140">
        <ele>1013.6</ele>
        <time>2022-07-21T14:49:08Z</time>
      </trkpt>
      <trkpt lat="47.1208520" lon="6.7344380">
        <ele>1013.9</ele>
        <time>2022-07-21T14:49:09Z</time>
      </trkpt>
      <trkpt lat="47.1208490" lon="6.7344490">
        <ele>1013.9</ele>
        <time>2022-07-21T14:49:10Z</time>
      </trkpt>
      <trkpt lat="47.1208430" lon="6.7344740">
        <ele>1014.1</ele>
        <time>2022-07-21T14:49:12Z</time>
      </trkpt>
      <trkpt lat="47.1208380" lon="6.7344930">
        <ele>1014.3</ele>
        <time>2022-07-21T14:49:13Z</time>
      </trkpt>
      <trkpt lat="47.1208270" lon="6.7345320">
        <ele>1014.6</ele>
        <time>2022-07-21T14:49:14Z</time>
      </trkpt>
      <trkpt lat="47.1208220" lon="6.7345470">
        <ele>1014.7</ele>
        <time>2022-07-21T14:49:16Z</time>
      </trkpt>
      <trkpt lat="47.1208170" lon="6.7345620">
        <ele>1014.9</ele>
        <time>2022-07-21T14:49:17Z</time>
      </trkpt>
      <trkpt lat="47.1208120" lon="6.7345770">
        <ele>1015.0</ele>
        <time>2022-07-21T14:49:18Z</time>
      </trkpt>
      <trkpt lat="47.1208070" lon="6.7345920">
        <ele>1015.1</ele>
        <time>2022-07-21T14:49:19Z</time>
      </trkpt>
      <trkpt lat="47.1208030" lon="6.7346030">
        <ele>1015.2</ele>
        <time>2022-07-21T14:49:20Z</time>
      </trkpt>
      <trkpt lat="47.1207940" lon="6.7346210">
        <ele>1015.4</ele>
        <time>2022-07-21T14:49:21Z</time>
      </trkpt>
      <trkpt lat="47.1207840" lon="6.7346430">
        <ele>1015.6</ele>
        <time>2022-07-21T14:49:23Z</time>
      </trkpt>
      <trkpt lat="47.1207700" lon="6.7346690">
        <ele>1015.9</ele>
        <time>2022-07-21T14:49:24Z</time>
      </trkpt>
      <trkpt lat="47.1207650" lon="6.7346790">
        <ele>1016.0</ele>
        <time>2022-07-21T14:49:25Z</time>
      </trkpt>
      <trkpt lat="47.1207600" lon="6.7346890">
        <ele>1016.1</ele>
        <time>2022-07-21T14:49:26Z</time>
      </trkpt>
      <trkpt lat="47.1207470" lon="6.7347120">
        <ele>1016.3</ele>
        <time>2022-07-21T14:49:28Z</time>
      </trkpt>
      <trkpt lat="47.1207410" lon="6.7347210">
        <ele>1016.4</ele>
        <time>2022-07-21T14:49:29Z</time>
      </trkpt>
      <trkpt lat="47.1207350" lon="6.7347300">
        <ele>1016.5</ele>
        <time>2022-07-21T14:49:30Z</time>
      </trkpt>
      <trkpt lat="47.1207210" lon="6.7347490">
        <ele>1016.7</ele>
        <time>2022-07-21T14:49:31Z</time>
      </trkpt>
      <trkpt lat="47.1207130" lon="6.7347640">
        <ele>1016.9</ele>
        <time>2022-07-21T14:49:33Z</time>
      </trkpt>
      <trkpt lat="47.1207050" lon="6.7347810">
        <ele>1017.1</ele>
        <time>2022-07-21T14:49:34Z</time>
      </trkpt>
      <trkpt lat="47.1206970" lon="6.7347960">
        <ele>1017.2</ele>
        <time>2022-07-21T14:49:35Z</time>
      </trkpt>
      <trkpt lat="47.1206900" lon="6.7348140">
        <ele>1017.4</ele>
        <time>2022-07-21T14:49:36Z</time>
      </trkpt>
      <trkpt lat="47.1206850" lon="6.7348350">
        <ele>1017.6</ele>
        <time>2022-07-21T14:49:37Z</time>
      </trkpt>
      <trkpt lat="47.1206760" lon="6.7348640">
        <ele>1017.8</ele>
        <time>2022-07-21T14:49:39Z</time>
      </trkpt>
      <trkpt lat="47.1206720" lon="6.7348760">
        <ele>1017.9</ele>
        <time>2022-07-21T14:49:40Z</time>
      </trkpt>
      <trkpt lat="47.1206680" lon="6.7348870">
        <ele>1018.0</ele>
        <time>2022-07-21T14:49:41Z</time>
      </trkpt>
      <trkpt lat="47.1206540" lon="6.7349100">
        <ele>1018.3</ele>
        <time>2022-07-21T14:49:42Z</time>
      </trkpt>
      <trkpt lat="47.1206490" lon="6.7349190">
        <ele>1018.4</ele>
        <time>2022-07-21T14:49:43Z</time>
      </trkpt>
      <trkpt lat="47.1206440" lon="6.7349280">
        <ele>1018.5</ele>
        <time>2022-07-21T14:49:44Z</time>
      </trkpt>
      <trkpt lat="47.1206350" lon="6.7349530">
        <ele>1018.7</ele>
        <time>2022-07-21T14:49:45Z</time>
      </trkpt>
      <trkpt lat="47.1206300" lon="6.7349680">
        <ele>1018.8</ele>
        <time>2022-07-21T14:49:47Z</time>
      </trkpt>
      <trkpt lat="47.1206240" lon="6.7349890">
        <ele>1019.0</ele>
        <time>2022-07-21T14:49:48Z</time>
      </trkpt>
      <trkpt lat="47.1206210" lon="6.7350070">
        <ele>1019.1</ele>
        <time>2022-07-21T14:49:49Z</time>
      </trkpt>
      <trkpt lat="47.1206150" lon="6.7350340">
        <ele>1019.3</ele>
        <time>2022-07-21T14:49:50Z</time>
      </trkpt>
      <trkpt lat="47.1206100" lon="6.7350560">
        <ele>1019.5</ele>
        <time>2022-07-21T14:49:51Z</time>
      </trkpt>
      <trkpt lat="47.1206050" lon="6.7350770">
        <ele>1019.7</ele>
        <time>2022-07-21T14:49:52Z</time>
      </trkpt>
      <trkpt lat="47.1206010" lon="6.7350940">
        <ele>1019.8</ele>
        <time>2022-07-21T14:49:53Z</time>
      </trkpt>
      <trkpt lat="47.1205970" lon="6.7351160">
        <ele>1020.0</ele>
        <time>2022-07-21T14:49:54Z</time>
      </trkpt>
      <trkpt lat="47.1205950" lon="6.7351340">
        <ele>1020.1</ele>
        <time>2022-07-21T14:49:55Z</time>
      </trkpt>
      <trkpt lat="47.1205900" lon="6.7351600">
        <ele>1020.3</ele>
        <time>2022-07-21T14:49:56Z</time>
      </trkpt>
      <trkpt lat="47.1205870" lon="6.7351800">
        <ele>1020.4</ele>
        <time>2022-07-21T14:49:57Z</time>
      </trkpt>
      <trkpt lat="47.1205830" lon="6.7352260">
        <ele>1020.7</ele>
        <time>2022-07-21T14:49:59Z</time>
      </trkpt>
      <trkpt lat="47.1205820" lon="6.7352380">
        <ele>1020.8</ele>
        <time>2022-07-21T14:50:00Z</time>
      </trkpt>
      <trkpt lat="47.1205810" lon="6.7352740">
        <ele>1021.1</ele>
        <time>2022-07-21T14:50:01Z</time>
      </trkpt>
      <trkpt lat="47.1205810" lon="6.7353090">
        <ele>1021.3</ele>
        <time>2022-07-21T14:50:03Z</time>
      </trkpt>
      <trkpt lat="47.1205770" lon="6.7353300">
        <ele>1021.4</ele>
        <time>2022-07-21T14:50:04Z</time>
      </trkpt>
      <trkpt lat="47.1205740" lon="6.7353550">
        <ele>1021.6</ele>
        <time>2022-07-21T14:50:05Z</time>
      </trkpt>
      <trkpt lat="47.1205690" lon="6.7353760">
        <ele>1021.7</ele>
        <time>2022-07-21T14:50:06Z</time>
      </trkpt>
      <trkpt lat="47.1205630" lon="6.7353970">
        <ele>1021.8</ele>
        <time>2022-07-21T14:50:07Z</time>
      </trkpt>
      <trkpt lat="47.1205560" lon="6.7354100">
        <ele>1021.9</ele>
        <time>2022-07-21T14:50:08Z</time>
      </trkpt>
      <trkpt lat="47.1205460" lon="6.7354330">
        <ele>1022.1</ele>
        <time>2022-07-21T14:50:09Z</time>
      </trkpt>
      <trkpt lat="47.1205350" lon="6.7354580">
        <ele>1022.2</ele>
        <time>2022-07-21T14:50:10Z</time>
      </trkpt>
      <trkpt lat="47.1205250" lon="6.7354850">
        <ele>1022.4</ele>
        <time>2022-07-21T14:50:12Z</time>
      </trkpt>
      <trkpt lat="47.1205130" lon="6.7355200">
        <ele>1022.6</ele>
        <time>2022-07-21T14:50:13Z</time>
      </trkpt>
      <trkpt lat="47.1205100" lon="6.7355350">
        <ele>1022.6</ele>
        <time>2022-07-21T14:50:14Z</time>
      </trkpt>
      <trkpt lat="47.1205040" lon="6.7355620">
        <ele>1022.8</ele>
        <time>2022-07-21T14:50:15Z</time>
      </trkpt>
      <trkpt lat="47.1205010" lon="6.7355780">
        <ele>1022.9</ele>
        <time>2022-07-21T14:50:16Z</time>
      </trkpt>
      <trkpt lat="47.1204920" lon="6.7356100">
        <ele>1023.0</ele>
        <time>2022-07-21T14:50:17Z</time>
      </trkpt>
      <trkpt lat="47.1204800" lon="6.7356370">
        <ele>1023.2</ele>
        <time>2022-07-21T14:50:19Z</time>
      </trkpt>
      <trkpt lat="47.1204720" lon="6.7356590">
        <ele>1023.3</ele>
        <time>2022-07-21T14:50:20Z</time>
      </trkpt>
      <trkpt lat="47.1204630" lon="6.7356850">
        <ele>1023.4</ele>
        <time>2022-07-21T14:50:22Z</time>
      </trkpt>
      <trkpt lat="47.1204530" lon="6.7357230">
        <ele>1023.6</ele>
        <time>2022-07-21T14:50:23Z</time>
      </trkpt>
      <trkpt lat="47.1204500" lon="6.7357380">
        <ele>1023.6</ele>
        <time>2022-07-21T14:50:24Z</time>
      </trkpt>
      <trkpt lat="47.1204460" lon="6.7357590">
        <ele>1023.7</ele>
        <time>2022-07-21T14:50:25Z</time>
      </trkpt>
      <trkpt lat="47.1204430" lon="6.7357750">
        <ele>1023.8</ele>
        <time>2022-07-21T14:50:26Z</time>
      </trkpt>
      <trkpt lat="47.1204370" lon="6.7358160">
        <ele>1024.0</ele>
        <time>2022-07-21T14:50:28Z</time>
      </trkpt>
      <trkpt lat="47.1204280" lon="6.7358590">
        <ele>1024.2</ele>
        <time>2022-07-21T14:50:29Z</time>
      </trkpt>
      <trkpt lat="47.1204250" lon="6.7358710">
        <ele>1024.3</ele>
        <time>2022-07-21T14:50:30Z</time>
      </trkpt>
      <trkpt lat="47.1204130" lon="6.7359110">
        <ele>1024.5</ele>
        <time>2022-07-21T14:50:31Z</time>
      </trkpt>
      <trkpt lat="47.1204090" lon="6.7359280">
        <ele>1024.5</ele>
        <time>2022-07-21T14:50:32Z</time>
      </trkpt>
      <trkpt lat="47.1204010" lon="6.7359680">
        <ele>1024.7</ele>
        <time>2022-07-21T14:50:34Z</time>
      </trkpt>
      <trkpt lat="47.1203990" lon="6.7359820">
        <ele>1024.8</ele>
        <time>2022-07-21T14:50:35Z</time>
      </trkpt>
      <trkpt lat="47.1203900" lon="6.7360190">
        <ele>1025.0</ele>
        <time>2022-07-21T14:50:36Z</time>
      </trkpt>
      <trkpt lat="47.1203870" lon="6.7360320">
        <ele>1025.1</ele>
        <time>2022-07-21T14:50:37Z</time>
      </trkpt>
      <trkpt lat="47.1203810" lon="6.7360550">
        <ele>1025.2</ele>
        <time>2022-07-21T14:50:38Z</time>
      </trkpt>
      <trkpt lat="47.1203730" lon="6.7360770">
        <ele>1025.3</ele>
        <time>2022-07-21T14:50:39Z</time>
      </trkpt>
      <trkpt lat="47.1203610" lon="6.7361210">
        <ele>1025.6</ele>
        <time>2022-07-21T14:50:40Z</time>
      </trkpt>
      <trkpt lat="47.1203550" lon="6.7361390">
        <ele>1025.7</ele>
        <time>2022-07-21T14:50:41Z</time>
      </trkpt>
      <trkpt lat="47.1203380" lon="6.7361830">
        <ele>1026.0</ele>
        <time>2022-07-21T14:50:43Z</time>
      </trkpt>
      <trkpt lat="47.1203270" lon="6.7362040">
        <ele>1026.1</ele>
        <time>2022-07-21T14:50:44Z</time>
      </trkpt>
      <trkpt lat="47.1203160" lon="6.7362320">
        <ele>1026.3</ele>
        <time>2022-07-21T14:50:46Z</time>
      </trkpt>
      <trkpt lat="47.1203040" lon="6.7362630">
        <ele>1026.6</ele>
        <time>2022-07-21T14:50:47Z</time>
      </trkpt>
      <trkpt lat="47.1202940" lon="6.7362870">
        <ele>1026.7</ele>
        <time>2022-07-21T14:50:49Z</time>
      </trkpt>
      <trkpt lat="47.1202910" lon="6.7363150">
        <ele>1026.9</ele>
        <time>2022-07-21T14:50:50Z</time>
      </trkpt>
      <trkpt lat="47.1202890" lon="6.7363370">
        <ele>1027.6</ele>
        <time>2022-07-21T14:50:51Z</time>
      </trkpt>
      <trkpt lat="47.1202860" lon="6.7363520">
        <ele>1027.7</ele>
        <time>2022-07-21T14:50:52Z</time>
      </trkpt>
      <trkpt lat="47.1202880" lon="6.7363710">
        <ele>1027.7</ele>
        <time>2022-07-21T14:50:53Z</time>
      </trkpt>
      <trkpt lat="47.1202900" lon="6.7363880">
        <ele>1027.8</ele>
        <time>2022-07-21T14:50:54Z</time>
      </trkpt>
      <trkpt lat="47.1202930" lon="6.7364120">
        <ele>1027.9</ele>
        <time>2022-07-21T14:50:56Z</time>
      </trkpt>
      <trkpt lat="47.1202960" lon="6.7364300">
        <ele>1028.0</ele>
        <time>2022-07-21T14:50:57Z</time>
      </trkpt>
      <trkpt lat="47.1203090" lon="6.7364500">
        <ele>1028.1</ele>
        <time>2022-07-21T14:50:58Z</time>
      </trkpt>
      <trkpt lat="47.1203160" lon="6.7364600">
        <ele>1028.1</ele>
        <time>2022-07-21T14:50:59Z</time>
      </trkpt>
      <trkpt lat="47.1203230" lon="6.7364700">
        <ele>1028.2</ele>
        <time>2022-07-21T14:51:00Z</time>
      </trkpt>
      <trkpt lat="47.1203360" lon="6.7364950">
        <ele>1028.3</ele>
        <time>2022-07-21T14:51:01Z</time>
      </trkpt>
      <trkpt lat="47.1203400" lon="6.7365060">
        <ele>1028.4</ele>
        <time>2022-07-21T14:51:02Z</time>
      </trkpt>
      <trkpt lat="47.1203450" lon="6.7365180">
        <ele>1028.4</ele>
        <time>2022-07-21T14:51:03Z</time>
      </trkpt>
      <trkpt lat="47.1203660" lon="6.7365520">
        <ele>1028.6</ele>
        <time>2022-07-21T14:51:05Z</time>
      </trkpt>
      <trkpt lat="47.1203730" lon="6.7365590">
        <ele>1028.7</ele>
        <time>2022-07-21T14:51:06Z</time>
      </trkpt>
      <trkpt lat="47.1203820" lon="6.7365680">
        <ele>1028.7</ele>
        <time>2022-07-21T14:51:07Z</time>
      </trkpt>
      <trkpt lat="47.1203940" lon="6.7365830">
        <ele>1028.8</ele>
        <time>2022-07-21T14:51:08Z</time>
      </trkpt>
      <trkpt lat="47.1204030" lon="6.7365970">
        <ele>1028.9</ele>
        <time>2022-07-21T14:51:09Z</time>
      </trkpt>
      <trkpt lat="47.1204170" lon="6.7366200">
        <ele>1029.0</ele>
        <time>2022-07-21T14:51:11Z</time>
      </trkpt>
      <trkpt lat="47.1204280" lon="6.7366350">
        <ele>1029.1</ele>
        <time>2022-07-21T14:51:12Z</time>
      </trkpt>
      <trkpt lat="47.1204400" lon="6.7366490">
        <ele>1029.2</ele>
        <time>2022-07-21T14:51:13Z</time>
      </trkpt>
      <trkpt lat="47.1204530" lon="6.7366650">
        <ele>1029.3</ele>
        <time>2022-07-21T14:51:14Z</time>
      </trkpt>
      <trkpt lat="47.1204620" lon="6.7366780">
        <ele>1029.4</ele>
        <time>2022-07-21T14:51:15Z</time>
      </trkpt>
      <trkpt lat="47.1204670" lon="6.7366880">
        <ele>1029.4</ele>
        <time>2022-07-21T14:51:17Z</time>
      </trkpt>
      <trkpt lat="47.1204700" lon="6.7366970">
        <ele>1029.5</ele>
        <time>2022-07-21T14:51:18Z</time>
      </trkpt>
      <trkpt lat="47.1204720" lon="6.7367070">
        <ele>1029.5</ele>
        <time>2022-07-21T14:51:19Z</time>
      </trkpt>
      <trkpt lat="47.1204720" lon="6.7367080">
        <ele>1029.5</ele>
        <time>2022-07-21T14:51:20Z</time>
      </trkpt>
      <trkpt lat="47.1204710" lon="6.7367080">
        <ele>1029.5</ele>
        <time>2022-07-21T14:51:21Z</time>
      </trkpt>
      <trkpt lat="47.1204700" lon="6.7367080">
        <ele>1029.5</ele>
        <time>2022-07-21T14:51:22Z</time>
      </trkpt>
      <trkpt lat="47.1204700" lon="6.7367100">
        <ele>1029.5</ele>
        <time>2022-07-21T14:51:23Z</time>
      </trkpt>
      <trkpt lat="47.1204700" lon="6.7367110">
        <ele>1029.5</ele>
        <time>2022-07-21T14:51:24Z</time>
      </trkpt>
      <trkpt lat="47.1204710" lon="6.7367120">
        <ele>1029.5</ele>
        <time>2022-07-21T14:51:25Z</time>
      </trkpt>
      <trkpt lat="47.1204730" lon="6.7367140">
        <ele>1029.5</ele>
        <time>2022-07-21T14:51:26Z</time>
      </trkpt>
      <trkpt lat="47.1204740" lon="6.7367150">
        <ele>1029.6</ele>
        <time>2022-07-21T14:51:27Z</time>
      </trkpt>
      <trkpt lat="47.1204760" lon="6.7367180">
        <ele>1029.6</ele>
        <time>2022-07-21T14:51:28Z</time>
      </trkpt>
      <trkpt lat="47.1204780" lon="6.7367200">
        <ele>1029.6</ele>
        <time>2022-07-21T14:51:29Z</time>
      </trkpt>
      <trkpt lat="47.1204970" lon="6.7367500">
        <ele>1029.7</ele>
        <time>2022-07-21T14:52:54Z</time>
      </trkpt>
      <trkpt lat="47.1205090" lon="6.7367610">
        <ele>1029.8</ele>
        <time>2022-07-21T14:52:55Z</time>
      </trkpt>
      <trkpt lat="47.1205130" lon="6.7367650">
        <ele>1029.8</ele>
        <time>2022-07-21T14:52:56Z</time>
      </trkpt>
      <trkpt lat="47.1205160" lon="6.7367680">
        <ele>1029.8</ele>
        <time>2022-07-21T14:52:57Z</time>
      </trkpt>
      <trkpt lat="47.1205230" lon="6.7367710">
        <ele>1029.9</ele>
        <time>2022-07-21T14:52:58Z</time>
      </trkpt>
      <trkpt lat="47.1205250" lon="6.7367750">
        <ele>1029.9</ele>
        <time>2022-07-21T14:52:59Z</time>
      </trkpt>
      <trkpt lat="47.1205310" lon="6.7367860">
        <ele>1029.9</ele>
        <time>2022-07-21T14:53:00Z</time>
      </trkpt>
      <trkpt lat="47.1205400" lon="6.7368030">
        <ele>1030.0</ele>
        <time>2022-07-21T14:53:01Z</time>
      </trkpt>
      <trkpt lat="47.1205550" lon="6.7368220">
        <ele>1030.1</ele>
        <time>2022-07-21T14:53:02Z</time>
      </trkpt>
      <trkpt lat="47.1205620" lon="6.7368310">
        <ele>1030.1</ele>
        <time>2022-07-21T14:53:03Z</time>
      </trkpt>
      <trkpt lat="47.1205690" lon="6.7368400">
        <ele>1030.2</ele>
        <time>2022-07-21T14:53:04Z</time>
      </trkpt>
      <trkpt lat="47.1205890" lon="6.7368640">
        <ele>1030.3</ele>
        <time>2022-07-21T14:53:05Z</time>
      </trkpt>
      <trkpt lat="47.1205980" lon="6.7368740">
        <ele>1030.3</ele>
        <time>2022-07-21T14:53:06Z</time>
      </trkpt>
      <trkpt lat="47.1206230" lon="6.7369050">
        <ele>1030.4</ele>
        <time>2022-07-21T14:53:08Z</time>
      </trkpt>
      <trkpt lat="47.1206310" lon="6.7369130">
        <ele>1030.5</ele>
        <time>2022-07-21T14:53:09Z</time>
      </trkpt>
      <trkpt lat="47.1206430" lon="6.7369220">
        <ele>1030.5</ele>
        <time>2022-07-21T14:53:10Z</time>
      </trkpt>
      <trkpt lat="47.1206550" lon="6.7369380">
        <ele>1030.6</ele>
        <time>2022-07-21T14:53:11Z</time>
      </trkpt>
      <trkpt lat="47.1206720" lon="6.7369660">
        <ele>1030.7</ele>
        <time>2022-07-21T14:53:12Z</time>
      </trkpt>
      <trkpt lat="47.1206880" lon="6.7369960">
        <ele>1030.8</ele>
        <time>2022-07-21T14:53:14Z</time>
      </trkpt>
      <trkpt lat="47.1207060" lon="6.7370430">
        <ele>1031.0</ele>
        <time>2022-07-21T14:53:15Z</time>
      </trkpt>
      <trkpt lat="47.1207110" lon="6.7370580">
        <ele>1031.0</ele>
        <time>2022-07-21T14:53:16Z</time>
      </trkpt>
      <trkpt lat="47.1207270" lon="6.7370920">
        <ele>1031.1</ele>
        <time>2022-07-21T14:53:17Z</time>
      </trkpt>
      <trkpt lat="47.1207470" lon="6.7371370">
        <ele>1031.3</ele>
        <time>2022-07-21T14:53:18Z</time>
      </trkpt>
      <trkpt lat="47.1207710" lon="6.7371940">
        <ele>1031.5</ele>
        <time>2022-07-21T14:53:20Z</time>
      </trkpt>
      <trkpt lat="47.1207780" lon="6.7372130">
        <ele>1031.6</ele>
        <time>2022-07-21T14:53:21Z</time>
      </trkpt>
      <trkpt lat="47.1207850" lon="6.7372330">
        <ele>1031.6</ele>
        <time>2022-07-21T14:53:22Z</time>
      </trkpt>
      <trkpt lat="47.1207900" lon="6.7372650">
        <ele>1031.8</ele>
        <time>2022-07-21T14:53:23Z</time>
      </trkpt>
      <trkpt lat="47.1207920" lon="6.7372840">
        <ele>1031.8</ele>
        <time>2022-07-21T14:53:24Z</time>
      </trkpt>
      <trkpt lat="47.1207940" lon="6.7373020">
        <ele>1031.9</ele>
        <time>2022-07-21T14:53:25Z</time>
      </trkpt>
      <trkpt lat="47.1208030" lon="6.7373490">
        <ele>1032.0</ele>
        <time>2022-07-21T14:53:26Z</time>
      </trkpt>
      <trkpt lat="47.1208070" lon="6.7373660">
        <ele>1032.1</ele>
        <time>2022-07-21T14:53:27Z</time>
      </trkpt>
      <trkpt lat="47.1208180" lon="6.7374060">
        <ele>1032.2</ele>
        <time>2022-07-21T14:53:28Z</time>
      </trkpt>
      <trkpt lat="47.1208180" lon="6.7374380">
        <ele>1032.3</ele>
        <time>2022-07-21T14:53:30Z</time>
      </trkpt>
      <trkpt lat="47.1208180" lon="6.7374540">
        <ele>1032.4</ele>
        <time>2022-07-21T14:53:31Z</time>
      </trkpt>
      <trkpt lat="47.1208190" lon="6.7374790">
        <ele>1032.5</ele>
        <time>2022-07-21T14:53:32Z</time>
      </trkpt>
      <trkpt lat="47.1208190" lon="6.7375040">
        <ele>1032.6</ele>
        <time>2022-07-21T14:53:33Z</time>
      </trkpt>
      <trkpt lat="47.1208220" lon="6.7375380">
        <ele>1032.7</ele>
        <time>2022-07-21T14:53:34Z</time>
      </trkpt>
      <trkpt lat="47.1208190" lon="6.7375690">
        <ele>1032.8</ele>
        <time>2022-07-21T14:53:36Z</time>
      </trkpt>
      <trkpt lat="47.1208110" lon="6.7376090">
        <ele>1032.9</ele>
        <time>2022-07-21T14:53:37Z</time>
      </trkpt>
      <trkpt lat="47.1208080" lon="6.7376200">
        <ele>1033.0</ele>
        <time>2022-07-21T14:53:38Z</time>
      </trkpt>
      <trkpt lat="47.1208030" lon="6.7376510">
        <ele>1033.1</ele>
        <time>2022-07-21T14:53:39Z</time>
      </trkpt>
      <trkpt lat="47.1208020" lon="6.7376660">
        <ele>1033.1</ele>
        <time>2022-07-21T14:53:40Z</time>
      </trkpt>
      <trkpt lat="47.1208010" lon="6.7376810">
        <ele>1033.2</ele>
        <time>2022-07-21T14:53:41Z</time>
      </trkpt>
      <trkpt lat="47.1207980" lon="6.7377020">
        <ele>1033.3</ele>
        <time>2022-07-21T14:53:42Z</time>
      </trkpt>
      <trkpt lat="47.1207940" lon="6.7377230">
        <ele>1033.3</ele>
        <time>2022-07-21T14:53:43Z</time>
      </trkpt>
      <trkpt lat="47.1207900" lon="6.7377700">
        <ele>1033.5</ele>
        <time>2022-07-21T14:53:45Z</time>
      </trkpt>
      <trkpt lat="47.1207890" lon="6.7377820">
        <ele>1033.5</ele>
        <time>2022-07-21T14:53:46Z</time>
      </trkpt>
      <trkpt lat="47.1207880" lon="6.7378230">
        <ele>1033.6</ele>
        <time>2022-07-21T14:53:47Z</time>
      </trkpt>
      <trkpt lat="47.1207890" lon="6.7378630">
        <ele>1033.7</ele>
        <time>2022-07-21T14:53:49Z</time>
      </trkpt>
      <trkpt lat="47.1207880" lon="6.7378770">
        <ele>1033.8</ele>
        <time>2022-07-21T14:53:50Z</time>
      </trkpt>
      <trkpt lat="47.1207830" lon="6.7379160">
        <ele>1033.9</ele>
        <time>2022-07-21T14:53:51Z</time>
      </trkpt>
      <trkpt lat="47.1207770" lon="6.7379550">
        <ele>1034.0</ele>
        <time>2022-07-21T14:53:53Z</time>
      </trkpt>
      <trkpt lat="47.1207730" lon="6.7379820">
        <ele>1034.1</ele>
        <time>2022-07-21T14:53:54Z</time>
      </trkpt>
      <trkpt lat="47.1207710" lon="6.7380060">
        <ele>1034.1</ele>
        <time>2022-07-21T14:53:55Z</time>
      </trkpt>
      <trkpt lat="47.1207710" lon="6.7380460">
        <ele>1034.2</ele>
        <time>2022-07-21T14:53:56Z</time>
      </trkpt>
      <trkpt lat="47.1207700" lon="6.7380600">
        <ele>1034.3</ele>
        <time>2022-07-21T14:53:57Z</time>
      </trkpt>
      <trkpt lat="47.1207670" lon="6.7381190">
        <ele>1034.4</ele>
        <time>2022-07-21T14:53:58Z</time>
      </trkpt>
      <trkpt lat="47.1207660" lon="6.7381430">
        <ele>1034.5</ele>
        <time>2022-07-21T14:53:59Z</time>
      </trkpt>
      <trkpt lat="47.1207650" lon="6.7381770">
        <ele>1034.5</ele>
        <time>2022-07-21T14:54:00Z</time>
      </trkpt>
      <trkpt lat="47.1207640" lon="6.7382100">
        <ele>1034.6</ele>
        <time>2022-07-21T14:54:02Z</time>
      </trkpt>
      <trkpt lat="47.1207670" lon="6.7382410">
        <ele>1034.7</ele>
        <time>2022-07-21T14:54:03Z</time>
      </trkpt>
      <trkpt lat="47.1207710" lon="6.7382610">
        <ele>1034.7</ele>
        <time>2022-07-21T14:54:04Z</time>
      </trkpt>
      <trkpt lat="47.1207830" lon="6.7383040">
        <ele>1034.8</ele>
        <time>2022-07-21T14:54:05Z</time>
      </trkpt>
      <trkpt lat="47.1207880" lon="6.7383210">
        <ele>1034.8</ele>
        <time>2022-07-21T14:54:06Z</time>
      </trkpt>
      <trkpt lat="47.1208000" lon="6.7383720">
        <ele>1034.9</ele>
        <time>2022-07-21T14:54:07Z</time>
      </trkpt>
      <trkpt lat="47.1208040" lon="6.7383870">
        <ele>1035.0</ele>
        <time>2022-07-21T14:54:08Z</time>
      </trkpt>
      <trkpt lat="47.1208180" lon="6.7384430">
        <ele>1035.0</ele>
        <time>2022-07-21T14:54:09Z</time>
      </trkpt>
      <trkpt lat="47.1208230" lon="6.7384660">
        <ele>1035.1</ele>
        <time>2022-07-21T14:54:10Z</time>
      </trkpt>
      <trkpt lat="47.1208310" lon="6.7384980">
        <ele>1035.1</ele>
        <time>2022-07-21T14:54:12Z</time>
      </trkpt>
      <trkpt lat="47.1208310" lon="6.7385040">
        <ele>1035.1</ele>
        <time>2022-07-21T14:54:13Z</time>
      </trkpt>
      <trkpt lat="47.1208260" lon="6.7384820">
        <ele>1035.1</ele>
        <time>2022-07-21T14:54:14Z</time>
      </trkpt>
      <trkpt lat="47.1208230" lon="6.7384710">
        <ele>1035.1</ele>
        <time>2022-07-21T14:54:15Z</time>
      </trkpt>
      <trkpt lat="47.1208200" lon="6.7384670">
        <ele>1035.1</ele>
        <time>2022-07-21T14:54:16Z</time>
      </trkpt>
      <trkpt lat="47.1208180" lon="6.7384630">
        <ele>1035.1</ele>
        <time>2022-07-21T14:54:17Z</time>
      </trkpt>
      <trkpt lat="47.1208170" lon="6.7384620">
        <ele>1035.1</ele>
        <time>2022-07-21T14:54:18Z</time>
      </trkpt>
      <trkpt lat="47.1208170" lon="6.7384610">
        <ele>1035.1</ele>
        <time>2022-07-21T14:54:19Z</time>
      </trkpt>
      <trkpt lat="47.1208160" lon="6.7384610">
        <ele>1035.1</ele>
        <time>2022-07-21T14:54:20Z</time>
      </trkpt>
      <trkpt lat="47.1208160" lon="6.7384610">
        <ele>1035.1</ele>
        <time>2022-07-21T14:54:21Z</time>
      </trkpt>
      <trkpt lat="47.1208160" lon="6.7384600">
        <ele>1035.1</ele>
        <time>2022-07-21T14:54:22Z</time>
      </trkpt>
      <trkpt lat="47.1208130" lon="6.7385100">
        <ele>1035.2</ele>
        <time>2022-07-21T14:54:27Z</time>
      </trkpt>
      <trkpt lat="47.1208250" lon="6.7385490">
        <ele>1035.2</ele>
        <time>2022-07-21T14:54:28Z</time>
      </trkpt>
      <trkpt lat="47.1208420" lon="6.7385990">
        <ele>1035.2</ele>
        <time>2022-07-21T14:54:30Z</time>
      </trkpt>
      <trkpt lat="47.1208780" lon="6.7386630">
        <ele>1035.2</ele>
        <time>2022-07-21T14:54:31Z</time>
      </trkpt>
      <trkpt lat="47.1209080" lon="6.7387180">
        <ele>1035.2</ele>
        <time>2022-07-21T14:54:33Z</time>
      </trkpt>
      <trkpt lat="47.1209270" lon="6.7387550">
        <ele>1035.1</ele>
        <time>2022-07-21T14:54:34Z</time>
      </trkpt>
      <trkpt lat="47.1209430" lon="6.7387900">
        <ele>1035.1</ele>
        <time>2022-07-21T14:54:35Z</time>
      </trkpt>
      <trkpt lat="47.1209620" lon="6.7388350">
        <ele>1035.0</ele>
        <time>2022-07-21T14:54:36Z</time>
      </trkpt>
      <trkpt lat="47.1209850" lon="6.7388930">
        <ele>1035.0</ele>
        <time>2022-07-21T14:54:37Z</time>
      </trkpt>
      <trkpt lat="47.1210080" lon="6.7389650">
        <ele>1034.8</ele>
        <time>2022-07-21T14:54:39Z</time>
      </trkpt>
      <trkpt lat="47.1210250" lon="6.7390110">
        <ele>1034.8</ele>
        <time>2022-07-21T14:54:40Z</time>
      </trkpt>
      <trkpt lat="47.1210450" lon="6.7390550">
        <ele>1034.7</ele>
        <time>2022-07-21T14:54:41Z</time>
      </trkpt>
      <trkpt lat="47.1210610" lon="6.7390960">
        <ele>1034.6</ele>
        <time>2022-07-21T14:54:42Z</time>
      </trkpt>
      <trkpt lat="47.1210770" lon="6.7391430">
        <ele>1034.5</ele>
        <time>2022-07-21T14:54:43Z</time>
      </trkpt>
      <trkpt lat="47.1210990" lon="6.7392130">
        <ele>1034.4</ele>
        <time>2022-07-21T14:54:44Z</time>
      </trkpt>
      <trkpt lat="47.1211240" lon="6.7392580">
        <ele>1034.3</ele>
        <time>2022-07-21T14:54:46Z</time>
      </trkpt>
      <trkpt lat="47.1211460" lon="6.7392990">
        <ele>1034.2</ele>
        <time>2022-07-21T14:54:47Z</time>
      </trkpt>
      <trkpt lat="47.1211600" lon="6.7393190">
        <ele>1034.1</ele>
        <time>2022-07-21T14:54:48Z</time>
      </trkpt>
      <trkpt lat="47.1211630" lon="6.7393220">
        <ele>1034.1</ele>
        <time>2022-07-21T14:54:50Z</time>
      </trkpt>
      <trkpt lat="47.1211610" lon="6.7393190">
        <ele>1034.1</ele>
        <time>2022-07-21T14:54:51Z</time>
      </trkpt>
      <trkpt lat="47.1211610" lon="6.7393180">
        <ele>1034.1</ele>
        <time>2022-07-21T14:54:52Z</time>
      </trkpt>
      <trkpt lat="47.1211600" lon="6.7393180">
        <ele>1034.1</ele>
        <time>2022-07-21T14:54:53Z</time>
      </trkpt>
      <trkpt lat="47.1211590" lon="6.7393180">
        <ele>1034.1</ele>
        <time>2022-07-21T14:54:54Z</time>
      </trkpt>
      <trkpt lat="47.1211600" lon="6.7393190">
        <ele>1034.1</ele>
        <time>2022-07-21T14:54:55Z</time>
      </trkpt>
      <trkpt lat="47.1211580" lon="6.7393190">
        <ele>1034.1</ele>
        <time>2022-07-21T14:54:56Z</time>
      </trkpt>
      <trkpt lat="47.1211560" lon="6.7393190">
        <ele>1034.1</ele>
        <time>2022-07-21T14:54:57Z</time>
      </trkpt>
      <trkpt lat="47.1211540" lon="6.7393210">
        <ele>1034.1</ele>
        <time>2022-07-21T14:54:58Z</time>
      </trkpt>
      <trkpt lat="47.1211520" lon="6.7393230">
        <ele>1034.1</ele>
        <time>2022-07-21T14:54:59Z</time>
      </trkpt>
      <trkpt lat="47.1211510" lon="6.7393260">
        <ele>1034.1</ele>
        <time>2022-07-21T14:55:00Z</time>
      </trkpt>
      <trkpt lat="47.1211170" lon="6.7393550">
        <ele>1033.9</ele>
        <time>2022-07-21T14:55:11Z</time>
      </trkpt>
      <trkpt lat="47.1211150" lon="6.7393510">
        <ele>1033.9</ele>
        <time>2022-07-21T14:55:12Z</time>
      </trkpt>
      <trkpt lat="47.1211150" lon="6.7393500">
        <ele>1033.9</ele>
        <time>2022-07-21T14:55:13Z</time>
      </trkpt>
      <trkpt lat="47.1211210" lon="6.7393520">
        <ele>1033.9</ele>
        <time>2022-07-21T14:55:14Z</time>
      </trkpt>
      <trkpt lat="47.1211290" lon="6.7393540">
        <ele>1033.9</ele>
        <time>2022-07-21T14:55:15Z</time>
      </trkpt>
      <trkpt lat="47.1211350" lon="6.7393520">
        <ele>1033.9</ele>
        <time>2022-07-21T14:55:16Z</time>
      </trkpt>
      <trkpt lat="47.1211370" lon="6.7393490">
        <ele>1033.9</ele>
        <time>2022-07-21T14:55:17Z</time>
      </trkpt>
      <trkpt lat="47.1211360" lon="6.7393480">
        <ele>1033.9</ele>
        <time>2022-07-21T14:55:18Z</time>
      </trkpt>
      <trkpt lat="47.1211380" lon="6.7393480">
        <ele>1033.9</ele>
        <time>2022-07-21T14:55:19Z</time>
      </trkpt>
      <trkpt lat="47.1211390" lon="6.7393480">
        <ele>1033.9</ele>
        <time>2022-07-21T14:55:20Z</time>
      </trkpt>
      <trkpt lat="47.1211380" lon="6.7393500">
        <ele>1033.9</ele>
        <time>2022-07-21T14:55:21Z</time>
      </trkpt>
      <trkpt lat="47.1211370" lon="6.7393560">
        <ele>1033.8</ele>
        <time>2022-07-21T14:55:22Z</time>
      </trkpt>
      <trkpt lat="47.1211390" lon="6.7393620">
        <ele>1033.8</ele>
        <time>2022-07-21T14:55:23Z</time>
      </trkpt>
      <trkpt lat="47.1211390" lon="6.7393680">
        <ele>1033.8</ele>
        <time>2022-07-21T14:55:24Z</time>
      </trkpt>
      <trkpt lat="47.1211390" lon="6.7393700">
        <ele>1033.8</ele>
        <time>2022-07-21T14:55:25Z</time>
      </trkpt>
      <trkpt lat="47.1211390" lon="6.7393720">
        <ele>1033.8</ele>
        <time>2022-07-21T14:55:26Z</time>
      </trkpt>
      <trkpt lat="47.1211390" lon="6.7393740">
        <ele>1033.8</ele>
        <time>2022-07-21T14:55:27Z</time>
      </trkpt>
      <trkpt lat="47.1211380" lon="6.7393740">
        <ele>1033.8</ele>
        <time>2022-07-21T14:55:28Z</time>
      </trkpt>
      <trkpt lat="47.1211380" lon="6.7393740">
        <ele>1033.8</ele>
        <time>2022-07-21T14:55:29Z</time>
      </trkpt>
      <trkpt lat="47.1211390" lon="6.7393750">
        <ele>1033.8</ele>
        <time>2022-07-21T14:55:30Z</time>
      </trkpt>
      <trkpt lat="47.1211400" lon="6.7393770">
        <ele>1033.8</ele>
        <time>2022-07-21T14:55:31Z</time>
      </trkpt>
      <trkpt lat="47.1211390" lon="6.7393810">
        <ele>1033.8</ele>
        <time>2022-07-21T14:55:32Z</time>
      </trkpt>
      <trkpt lat="47.1211380" lon="6.7393850">
        <ele>1033.8</ele>
        <time>2022-07-21T14:55:33Z</time>
      </trkpt>
      <trkpt lat="47.1211360" lon="6.7393880">
        <ele>1033.8</ele>
        <time>2022-07-21T14:55:34Z</time>
      </trkpt>
      <trkpt lat="47.1211470" lon="6.7394250">
        <ele>1033.5</ele>
        <time>2022-07-21T14:56:22Z</time>
      </trkpt>
      <trkpt lat="47.1211490" lon="6.7394970">
        <ele>1033.1</ele>
        <time>2022-07-21T14:56:24Z</time>
      </trkpt>
      <trkpt lat="47.1211490" lon="6.7395560">
        <ele>1032.8</ele>
        <time>2022-07-21T14:56:25Z</time>
      </trkpt>
      <trkpt lat="47.1211520" lon="6.7396150">
        <ele>1032.4</ele>
        <time>2022-07-21T14:56:27Z</time>
      </trkpt>
      <trkpt lat="47.1211350" lon="6.7397690">
        <ele>1031.4</ele>
        <time>2022-07-21T14:56:28Z</time>
      </trkpt>
      <trkpt lat="47.1211500" lon="6.7398200">
        <ele>1031.1</ele>
        <time>2022-07-21T14:56:29Z</time>
      </trkpt>
      <trkpt lat="47.1211510" lon="6.7399000">
        <ele>1030.6</ele>
        <time>2022-07-21T14:56:30Z</time>
      </trkpt>
      <trkpt lat="47.1211120" lon="6.7401220">
        <ele>1029.6</ele>
        <time>2022-07-21T14:56:32Z</time>
      </trkpt>
      <trkpt lat="47.1211020" lon="6.7401990">
        <ele>1029.4</ele>
        <time>2022-07-21T14:56:33Z</time>
      </trkpt>
      <trkpt lat="47.1210850" lon="6.7403040">
        <ele>1029.1</ele>
        <time>2022-07-21T14:56:34Z</time>
      </trkpt>
      <trkpt lat="47.1210790" lon="6.7403900">
        <ele>1028.9</ele>
        <time>2022-07-21T14:56:35Z</time>
      </trkpt>
      <trkpt lat="47.1210830" lon="6.7404620">
        <ele>1028.8</ele>
        <time>2022-07-21T14:56:36Z</time>
      </trkpt>
      <trkpt lat="47.1210770" lon="6.7405290">
        <ele>1028.8</ele>
        <time>2022-07-21T14:56:37Z</time>
      </trkpt>
      <trkpt lat="47.1210530" lon="6.7406280">
        <ele>1028.7</ele>
        <time>2022-07-21T14:56:38Z</time>
      </trkpt>
      <trkpt lat="47.1210470" lon="6.7407040">
        <ele>1028.7</ele>
        <time>2022-07-21T14:56:40Z</time>
      </trkpt>
      <trkpt lat="47.1210440" lon="6.7408040">
        <ele>1028.7</ele>
        <time>2022-07-21T14:56:41Z</time>
      </trkpt>
      <trkpt lat="47.1210390" lon="6.7408870">
        <ele>1028.8</ele>
        <time>2022-07-21T14:56:42Z</time>
      </trkpt>
      <trkpt lat="47.1210410" lon="6.7409390">
        <ele>1028.9</ele>
        <time>2022-07-21T14:56:43Z</time>
      </trkpt>
      <trkpt lat="47.1210450" lon="6.7410040">
        <ele>1028.9</ele>
        <time>2022-07-21T14:56:45Z</time>
      </trkpt>
      <trkpt lat="47.1210520" lon="6.7410690">
        <ele>1029.0</ele>
        <time>2022-07-21T14:56:46Z</time>
      </trkpt>
      <trkpt lat="47.1210600" lon="6.7411240">
        <ele>1029.1</ele>
        <time>2022-07-21T14:56:47Z</time>
      </trkpt>
      <trkpt lat="47.1210730" lon="6.7412020">
        <ele>1029.2</ele>
        <time>2022-07-21T14:56:49Z</time>
      </trkpt>
      <trkpt lat="47.1210790" lon="6.7412500">
        <ele>1029.3</ele>
        <time>2022-07-21T14:56:50Z</time>
      </trkpt>
      <trkpt lat="47.1210810" lon="6.7412950">
        <ele>1029.4</ele>
        <time>2022-07-21T14:56:51Z</time>
      </trkpt>
      <trkpt lat="47.1210780" lon="6.7413380">
        <ele>1029.5</ele>
        <time>2022-07-21T14:56:52Z</time>
      </trkpt>
      <trkpt lat="47.1210760" lon="6.7413850">
        <ele>1029.6</ele>
        <time>2022-07-21T14:56:53Z</time>
      </trkpt>
      <trkpt lat="47.1210730" lon="6.7414440">
        <ele>1029.7</ele>
        <time>2022-07-21T14:56:54Z</time>
      </trkpt>
      <trkpt lat="47.1210700" lon="6.7414640">
        <ele>1029.8</ele>
        <time>2022-07-21T14:56:55Z</time>
      </trkpt>
      <trkpt lat="47.1210630" lon="6.7415230">
        <ele>1029.9</ele>
        <time>2022-07-21T14:56:57Z</time>
      </trkpt>
      <trkpt lat="47.1210550" lon="6.7415710">
        <ele>1030.0</ele>
        <time>2022-07-21T14:56:58Z</time>
      </trkpt>
      <trkpt lat="47.1210520" lon="6.7416370">
        <ele>1030.2</ele>
        <time>2022-07-21T14:56:59Z</time>
      </trkpt>
      <trkpt lat="47.1210530" lon="6.7416640">
        <ele>1030.2</ele>
        <time>2022-07-21T14:57:00Z</time>
      </trkpt>
      <trkpt lat="47.1210540" lon="6.7417040">
        <ele>1030.3</ele>
        <time>2022-07-21T14:57:01Z</time>
      </trkpt>
      <trkpt lat="47.1210520" lon="6.7417470">
        <ele>1030.5</ele>
        <time>2022-07-21T14:57:03Z</time>
      </trkpt>
      <trkpt lat="47.1210520" lon="6.7417610">
        <ele>1030.5</ele>
        <time>2022-07-21T14:57:04Z</time>
      </trkpt>
      <trkpt lat="47.1210530" lon="6.7418120">
        <ele>1030.7</ele>
        <time>2022-07-21T14:57:05Z</time>
      </trkpt>
      <trkpt lat="47.1210520" lon="6.7418390">
        <ele>1030.8</ele>
        <time>2022-07-21T14:57:06Z</time>
      </trkpt>
      <trkpt lat="47.1210530" lon="6.7418930">
        <ele>1030.9</ele>
        <time>2022-07-21T14:57:08Z</time>
      </trkpt>
      <trkpt lat="47.1210680" lon="6.7419570">
        <ele>1031.1</ele>
        <time>2022-07-21T14:57:09Z</time>
      </trkpt>
      <trkpt lat="47.1210740" lon="6.7419860">
        <ele>1031.2</ele>
        <time>2022-07-21T14:57:10Z</time>
      </trkpt>
      <trkpt lat="47.1210850" lon="6.7420520">
        <ele>1031.5</ele>
        <time>2022-07-21T14:57:11Z</time>
      </trkpt>
      <trkpt lat="47.1210930" lon="6.7421080">
        <ele>1031.6</ele>
        <time>2022-07-21T14:57:13Z</time>
      </trkpt>
      <trkpt lat="47.1211010" lon="6.7421500">
        <ele>1031.8</ele>
        <time>2022-07-21T14:57:14Z</time>
      </trkpt>
      <trkpt lat="47.1211100" lon="6.7421980">
        <ele>1031.9</ele>
        <time>2022-07-21T14:57:15Z</time>
      </trkpt>
      <trkpt lat="47.1211160" lon="6.7422440">
        <ele>1032.1</ele>
        <time>2022-07-21T14:57:16Z</time>
      </trkpt>
      <trkpt lat="47.1211220" lon="6.7423060">
        <ele>1032.3</ele>
        <time>2022-07-21T14:57:17Z</time>
      </trkpt>
      <trkpt lat="47.1211240" lon="6.7423320">
        <ele>1032.3</ele>
        <time>2022-07-21T14:57:18Z</time>
      </trkpt>
      <trkpt lat="47.1211290" lon="6.7423920">
        <ele>1032.5</ele>
        <time>2022-07-21T14:57:20Z</time>
      </trkpt>
      <trkpt lat="47.1211490" lon="6.7424720">
        <ele>1032.8</ele>
        <time>2022-07-21T14:57:21Z</time>
      </trkpt>
      <trkpt lat="47.1211560" lon="6.7425210">
        <ele>1032.9</ele>
        <time>2022-07-21T14:57:23Z</time>
      </trkpt>
      <trkpt lat="47.1211580" lon="6.7425620">
        <ele>1033.0</ele>
        <time>2022-07-21T14:57:24Z</time>
      </trkpt>
      <trkpt lat="47.1211610" lon="6.7426040">
        <ele>1033.1</ele>
        <time>2022-07-21T14:57:25Z</time>
      </trkpt>
      <trkpt lat="47.1211630" lon="6.7426560">
        <ele>1033.3</ele>
        <time>2022-07-21T14:57:26Z</time>
      </trkpt>
      <trkpt lat="47.1211640" lon="6.7426710">
        <ele>1033.3</ele>
        <time>2022-07-21T14:57:27Z</time>
      </trkpt>
      <trkpt lat="47.1211680" lon="6.7427240">
        <ele>1033.4</ele>
        <time>2022-07-21T14:57:28Z</time>
      </trkpt>
      <trkpt lat="47.1211680" lon="6.7427390">
        <ele>1033.4</ele>
        <time>2022-07-21T14:57:29Z</time>
      </trkpt>
      <trkpt lat="47.1211650" lon="6.7427940">
        <ele>1033.5</ele>
        <time>2022-07-21T14:57:30Z</time>
      </trkpt>
      <trkpt lat="47.1211630" lon="6.7428310">
        <ele>1033.5</ele>
        <time>2022-07-21T14:57:31Z</time>
      </trkpt>
      <trkpt lat="47.1211630" lon="6.7428940">
        <ele>1033.5</ele>
        <time>2022-07-21T14:57:33Z</time>
      </trkpt>
      <trkpt lat="47.1211630" lon="6.7429650">
        <ele>1033.5</ele>
        <time>2022-07-21T14:57:34Z</time>
      </trkpt>
      <trkpt lat="47.1211630" lon="6.7430050">
        <ele>1033.5</ele>
        <time>2022-07-21T14:57:35Z</time>
      </trkpt>
      <trkpt lat="47.1211620" lon="6.7430710">
        <ele>1033.5</ele>
        <time>2022-07-21T14:57:36Z</time>
      </trkpt>
      <trkpt lat="47.1211590" lon="6.7431490">
        <ele>1033.4</ele>
        <time>2022-07-21T14:57:38Z</time>
      </trkpt>
      <trkpt lat="47.1211570" lon="6.7432190">
        <ele>1033.3</ele>
        <time>2022-07-21T14:57:39Z</time>
      </trkpt>
      <trkpt lat="47.1211550" lon="6.7433080">
        <ele>1033.2</ele>
        <time>2022-07-21T14:57:41Z</time>
      </trkpt>
      <trkpt lat="47.1211450" lon="6.7433850">
        <ele>1033.0</ele>
        <time>2022-07-21T14:57:42Z</time>
      </trkpt>
      <trkpt lat="47.1211390" lon="6.7434360">
        <ele>1032.8</ele>
        <time>2022-07-21T14:57:43Z</time>
      </trkpt>
      <trkpt lat="47.1211350" lon="6.7434950">
        <ele>1032.5</ele>
        <time>2022-07-21T14:57:44Z</time>
      </trkpt>
      <trkpt lat="47.1211330" lon="6.7435620">
        <ele>1032.2</ele>
        <time>2022-07-21T14:57:45Z</time>
      </trkpt>
      <trkpt lat="47.1211290" lon="6.7436300">
        <ele>1031.8</ele>
        <time>2022-07-21T14:57:46Z</time>
      </trkpt>
      <trkpt lat="47.1211320" lon="6.7436940">
        <ele>1031.3</ele>
        <time>2022-07-21T14:57:47Z</time>
      </trkpt>
      <trkpt lat="47.1211460" lon="6.7438340">
        <ele>1030.3</ele>
        <time>2022-07-21T14:57:49Z</time>
      </trkpt>
      <trkpt lat="47.1211530" lon="6.7439130">
        <ele>1029.7</ele>
        <time>2022-07-21T14:57:50Z</time>
      </trkpt>
      <trkpt lat="47.1211650" lon="6.7439860">
        <ele>1029.1</ele>
        <time>2022-07-21T14:57:51Z</time>
      </trkpt>
      <trkpt lat="47.1211710" lon="6.7440670">
        <ele>1028.5</ele>
        <time>2022-07-21T14:57:52Z</time>
      </trkpt>
      <trkpt lat="47.1211680" lon="6.7441430">
        <ele>1027.9</ele>
        <time>2022-07-21T14:57:53Z</time>
      </trkpt>
      <trkpt lat="47.1211680" lon="6.7442110">
        <ele>1027.4</ele>
        <time>2022-07-21T14:57:54Z</time>
      </trkpt>
      <trkpt lat="47.1211590" lon="6.7442720">
        <ele>1026.9</ele>
        <time>2022-07-21T14:57:55Z</time>
      </trkpt>
      <trkpt lat="47.1211500" lon="6.7443530">
        <ele>1026.2</ele>
        <time>2022-07-21T14:57:56Z</time>
      </trkpt>
      <trkpt lat="47.1211500" lon="6.7444290">
        <ele>1025.6</ele>
        <time>2022-07-21T14:57:57Z</time>
      </trkpt>
      <trkpt lat="47.1211290" lon="6.7445130">
        <ele>1025.0</ele>
        <time>2022-07-21T14:57:59Z</time>
      </trkpt>
      <trkpt lat="47.1211250" lon="6.7445930">
        <ele>1024.4</ele>
        <time>2022-07-21T14:58:00Z</time>
      </trkpt>
      <trkpt lat="47.1211220" lon="6.7446800">
        <ele>1023.7</ele>
        <time>2022-07-21T14:58:01Z</time>
      </trkpt>
      <trkpt lat="47.1211230" lon="6.7447480">
        <ele>1023.3</ele>
        <time>2022-07-21T14:58:02Z</time>
      </trkpt>
      <trkpt lat="47.1211420" lon="6.7448230">
        <ele>1022.8</ele>
        <time>2022-07-21T14:58:03Z</time>
      </trkpt>
      <trkpt lat="47.1211510" lon="6.7448900">
        <ele>1022.4</ele>
        <time>2022-07-21T14:58:04Z</time>
      </trkpt>
      <trkpt lat="47.1211500" lon="6.7449640">
        <ele>1022.1</ele>
        <time>2022-07-21T14:58:05Z</time>
      </trkpt>
      <trkpt lat="47.1211660" lon="6.7450280">
        <ele>1021.8</ele>
        <time>2022-07-21T14:58:06Z</time>
      </trkpt>
      <trkpt lat="47.1211630" lon="6.7451030">
        <ele>1021.6</ele>
        <time>2022-07-21T14:58:07Z</time>
      </trkpt>
      <trkpt lat="47.1211710" lon="6.7451750">
        <ele>1021.5</ele>
        <time>2022-07-21T14:58:08Z</time>
      </trkpt>
      <trkpt lat="47.1211830" lon="6.7452390">
        <ele>1021.4</ele>
        <time>2022-07-21T14:58:09Z</time>
      </trkpt>
      <trkpt lat="47.1211740" lon="6.7452900">
        <ele>1021.4</ele>
        <time>2022-07-21T14:58:10Z</time>
      </trkpt>
      <trkpt lat="47.1211840" lon="6.7453840">
        <ele>1021.4</ele>
        <time>2022-07-21T14:58:12Z</time>
      </trkpt>
      <trkpt lat="47.1211960" lon="6.7454460">
        <ele>1021.4</ele>
        <time>2022-07-21T14:58:13Z</time>
      </trkpt>
      <trkpt lat="47.1212090" lon="6.7455030">
        <ele>1021.4</ele>
        <time>2022-07-21T14:58:14Z</time>
      </trkpt>
      <trkpt lat="47.1212200" lon="6.7455600">
        <ele>1021.4</ele>
        <time>2022-07-21T14:58:15Z</time>
      </trkpt>
      <trkpt lat="47.1212320" lon="6.7456390">
        <ele>1021.5</ele>
        <time>2022-07-21T14:58:16Z</time>
      </trkpt>
      <trkpt lat="47.1212450" lon="6.7456990">
        <ele>1021.5</ele>
        <time>2022-07-21T14:58:18Z</time>
      </trkpt>
      <trkpt lat="47.1212510" lon="6.7457530">
        <ele>1021.5</ele>
        <time>2022-07-21T14:58:19Z</time>
      </trkpt>
      <trkpt lat="47.1212490" lon="6.7457720">
        <ele>1021.5</ele>
        <time>2022-07-21T14:58:20Z</time>
      </trkpt>
      <trkpt lat="47.1212470" lon="6.7458360">
        <ele>1021.5</ele>
        <time>2022-07-21T14:58:21Z</time>
      </trkpt>
      <trkpt lat="47.1212480" lon="6.7458830">
        <ele>1021.5</ele>
        <time>2022-07-21T14:58:23Z</time>
      </trkpt>
      <trkpt lat="47.1212500" lon="6.7459250">
        <ele>1021.4</ele>
        <time>2022-07-21T14:58:24Z</time>
      </trkpt>
      <trkpt lat="47.1212530" lon="6.7459820">
        <ele>1021.4</ele>
        <time>2022-07-21T14:58:25Z</time>
      </trkpt>
      <trkpt lat="47.1212530" lon="6.7459990">
        <ele>1021.3</ele>
        <time>2022-07-21T14:58:26Z</time>
      </trkpt>
      <trkpt lat="47.1212610" lon="6.7460750">
        <ele>1021.2</ele>
        <time>2022-07-21T14:58:28Z</time>
      </trkpt>
      <trkpt lat="47.1212670" lon="6.7461390">
        <ele>1021.1</ele>
        <time>2022-07-21T14:58:29Z</time>
      </trkpt>
      <trkpt lat="47.1212710" lon="6.7462010">
        <ele>1021.0</ele>
        <time>2022-07-21T14:58:30Z</time>
      </trkpt>
      <trkpt lat="47.1212770" lon="6.7462650">
        <ele>1020.9</ele>
        <time>2022-07-21T14:58:31Z</time>
      </trkpt>
      <trkpt lat="47.1212810" lon="6.7463190">
        <ele>1020.8</ele>
        <time>2022-07-21T14:58:32Z</time>
      </trkpt>
      <trkpt lat="47.1212830" lon="6.7463980">
        <ele>1020.6</ele>
        <time>2022-07-21T14:58:33Z</time>
      </trkpt>
      <trkpt lat="47.1212830" lon="6.7464540">
        <ele>1020.4</ele>
        <time>2022-07-21T14:58:34Z</time>
      </trkpt>
      <trkpt lat="47.1212830" lon="6.7465560">
        <ele>1020.1</ele>
        <time>2022-07-21T14:58:36Z</time>
      </trkpt>
      <trkpt lat="47.1212620" lon="6.7466570">
        <ele>1019.7</ele>
        <time>2022-07-21T14:58:37Z</time>
      </trkpt>
      <trkpt lat="47.1212600" lon="6.7467320">
        <ele>1019.4</ele>
        <time>2022-07-21T14:58:38Z</time>
      </trkpt>
      <trkpt lat="47.1212390" lon="6.7469030">
        <ele>1018.8</ele>
        <time>2022-07-21T14:58:40Z</time>
      </trkpt>
      <trkpt lat="47.1212270" lon="6.7469780">
        <ele>1018.6</ele>
        <time>2022-07-21T14:58:41Z</time>
      </trkpt>
      <trkpt lat="47.1212090" lon="6.7470560">
        <ele>1018.3</ele>
        <time>2022-07-21T14:58:42Z</time>
      </trkpt>
      <trkpt lat="47.1211960" lon="6.7471380">
        <ele>1018.1</ele>
        <time>2022-07-21T14:58:43Z</time>
      </trkpt>
      <trkpt lat="47.1211910" lon="6.7472300">
        <ele>1017.9</ele>
        <time>2022-07-21T14:58:44Z</time>
      </trkpt>
      <trkpt lat="47.1211780" lon="6.7473440">
        <ele>1017.7</ele>
        <time>2022-07-21T14:58:45Z</time>
      </trkpt>
      <trkpt lat="47.1211710" lon="6.7474360">
        <ele>1017.5</ele>
        <time>2022-07-21T14:58:46Z</time>
      </trkpt>
      <trkpt lat="47.1211700" lon="6.7475100">
        <ele>1017.4</ele>
        <time>2022-07-21T14:58:47Z</time>
      </trkpt>
      <trkpt lat="47.1211670" lon="6.7475880">
        <ele>1017.3</ele>
        <time>2022-07-21T14:58:48Z</time>
      </trkpt>
      <trkpt lat="47.1211650" lon="6.7476770">
        <ele>1017.1</ele>
        <time>2022-07-21T14:58:49Z</time>
      </trkpt>
      <trkpt lat="47.1211660" lon="6.7477470">
        <ele>1017.0</ele>
        <time>2022-07-21T14:58:50Z</time>
      </trkpt>
      <trkpt lat="47.1211850" lon="6.7478120">
        <ele>1016.9</ele>
        <time>2022-07-21T14:58:51Z</time>
      </trkpt>
      <trkpt lat="47.1211960" lon="6.7478850">
        <ele>1016.8</ele>
        <time>2022-07-21T14:58:52Z</time>
      </trkpt>
      <trkpt lat="47.1211870" lon="6.7479710">
        <ele>1016.6</ele>
        <time>2022-07-21T14:58:53Z</time>
      </trkpt>
      <trkpt lat="47.1211790" lon="6.7480580">
        <ele>1016.3</ele>
        <time>2022-07-21T14:58:54Z</time>
      </trkpt>
      <trkpt lat="47.1211730" lon="6.7481390">
        <ele>1016.1</ele>
        <time>2022-07-21T14:58:55Z</time>
      </trkpt>
      <trkpt lat="47.1211650" lon="6.7482080">
        <ele>1015.9</ele>
        <time>2022-07-21T14:58:56Z</time>
      </trkpt>
      <trkpt lat="47.1211540" lon="6.7482990">
        <ele>1015.6</ele>
        <time>2022-07-21T14:58:57Z</time>
      </trkpt>
      <trkpt lat="47.1211360" lon="6.7483930">
        <ele>1015.2</ele>
        <time>2022-07-21T14:58:58Z</time>
      </trkpt>
      <trkpt lat="47.1211260" lon="6.7484720">
        <ele>1014.9</ele>
        <time>2022-07-21T14:58:59Z</time>
      </trkpt>
      <trkpt lat="47.1211120" lon="6.7485560">
        <ele>1014.6</ele>
        <time>2022-07-21T14:59:00Z</time>
      </trkpt>
      <trkpt lat="47.1210910" lon="6.7486420">
        <ele>1014.2</ele>
        <time>2022-07-21T14:59:01Z</time>
      </trkpt>
      <trkpt lat="47.1210720" lon="6.7487180">
        <ele>1013.9</ele>
        <time>2022-07-21T14:59:02Z</time>
      </trkpt>
      <trkpt lat="47.1210660" lon="6.7487880">
        <ele>1013.6</ele>
        <time>2022-07-21T14:59:03Z</time>
      </trkpt>
      <trkpt lat="47.1210530" lon="6.7488670">
        <ele>1013.3</ele>
        <time>2022-07-21T14:59:04Z</time>
      </trkpt>
      <trkpt lat="47.1210450" lon="6.7489450">
        <ele>1013.0</ele>
        <time>2022-07-21T14:59:05Z</time>
      </trkpt>
      <trkpt lat="47.1210360" lon="6.7490250">
        <ele>1012.6</ele>
        <time>2022-07-21T14:59:06Z</time>
      </trkpt>
      <trkpt lat="47.1210210" lon="6.7490990">
        <ele>1012.2</ele>
        <time>2022-07-21T14:59:07Z</time>
      </trkpt>
      <trkpt lat="47.1210030" lon="6.7491740">
        <ele>1011.8</ele>
        <time>2022-07-21T14:59:08Z</time>
      </trkpt>
      <trkpt lat="47.1209960" lon="6.7492580">
        <ele>1011.3</ele>
        <time>2022-07-21T14:59:09Z</time>
      </trkpt>
      <trkpt lat="47.1209790" lon="6.7493320">
        <ele>1010.7</ele>
        <time>2022-07-21T14:59:10Z</time>
      </trkpt>
      <trkpt lat="47.1209560" lon="6.7493990">
        <ele>1010.2</ele>
        <time>2022-07-21T14:59:11Z</time>
      </trkpt>
      <trkpt lat="47.1209350" lon="6.7494580">
        <ele>1009.6</ele>
        <time>2022-07-21T14:59:12Z</time>
      </trkpt>
      <trkpt lat="47.1209070" lon="6.7495320">
        <ele>1009.0</ele>
        <time>2022-07-21T14:59:13Z</time>
      </trkpt>
      <trkpt lat="47.1208850" lon="6.7495970">
        <ele>1008.4</ele>
        <time>2022-07-21T14:59:14Z</time>
      </trkpt>
      <trkpt lat="47.1208730" lon="6.7496530">
        <ele>1007.9</ele>
        <time>2022-07-21T14:59:15Z</time>
      </trkpt>
      <trkpt lat="47.1208690" lon="6.7497210">
        <ele>1007.3</ele>
        <time>2022-07-21T14:59:16Z</time>
      </trkpt>
      <trkpt lat="47.1208630" lon="6.7497880">
        <ele>1006.8</ele>
        <time>2022-07-21T14:59:17Z</time>
      </trkpt>
      <trkpt lat="47.1208660" lon="6.7498650">
        <ele>1006.2</ele>
        <time>2022-07-21T14:59:18Z</time>
      </trkpt>
      <trkpt lat="47.1208680" lon="6.7499530">
        <ele>1005.6</ele>
        <time>2022-07-21T14:59:19Z</time>
      </trkpt>
      <trkpt lat="47.1208790" lon="6.7500460">
        <ele>1005.0</ele>
        <time>2022-07-21T14:59:20Z</time>
      </trkpt>
      <trkpt lat="47.1208910" lon="6.7501400">
        <ele>1004.5</ele>
        <time>2022-07-21T14:59:21Z</time>
      </trkpt>
      <trkpt lat="47.1208990" lon="6.7502320">
        <ele>1004.1</ele>
        <time>2022-07-21T14:59:22Z</time>
      </trkpt>
      <trkpt lat="47.1209120" lon="6.7503160">
        <ele>1003.7</ele>
        <time>2022-07-21T14:59:23Z</time>
      </trkpt>
      <trkpt lat="47.1209250" lon="6.7504040">
        <ele>1003.4</ele>
        <time>2022-07-21T14:59:24Z</time>
      </trkpt>
      <trkpt lat="47.1209340" lon="6.7504900">
        <ele>1003.2</ele>
        <time>2022-07-21T14:59:25Z</time>
      </trkpt>
      <trkpt lat="47.1209450" lon="6.7505790">
        <ele>1002.9</ele>
        <time>2022-07-21T14:59:26Z</time>
      </trkpt>
      <trkpt lat="47.1209590" lon="6.7506630">
        <ele>1002.7</ele>
        <time>2022-07-21T14:59:27Z</time>
      </trkpt>
      <trkpt lat="47.1209770" lon="6.7507380">
        <ele>1002.5</ele>
        <time>2022-07-21T14:59:28Z</time>
      </trkpt>
      <trkpt lat="47.1209800" lon="6.7508110">
        <ele>1002.4</ele>
        <time>2022-07-21T14:59:29Z</time>
      </trkpt>
      <trkpt lat="47.1209810" lon="6.7508780">
        <ele>1002.2</ele>
        <time>2022-07-21T14:59:30Z</time>
      </trkpt>
      <trkpt lat="47.1209840" lon="6.7509470">
        <ele>1002.1</ele>
        <time>2022-07-21T14:59:31Z</time>
      </trkpt>
      <trkpt lat="47.1209820" lon="6.7510010">
        <ele>1002.0</ele>
        <time>2022-07-21T14:59:32Z</time>
      </trkpt>
      <trkpt lat="47.1209770" lon="6.7510770">
        <ele>1001.8</ele>
        <time>2022-07-21T14:59:33Z</time>
      </trkpt>
      <trkpt lat="47.1209710" lon="6.7511300">
        <ele>1001.7</ele>
        <time>2022-07-21T14:59:34Z</time>
      </trkpt>
      <trkpt lat="47.1209720" lon="6.7511760">
        <ele>1001.5</ele>
        <time>2022-07-21T14:59:35Z</time>
      </trkpt>
      <trkpt lat="47.1209710" lon="6.7512280">
        <ele>1001.4</ele>
        <time>2022-07-21T14:59:36Z</time>
      </trkpt>
      <trkpt lat="47.1209650" lon="6.7512710">
        <ele>1001.2</ele>
        <time>2022-07-21T14:59:37Z</time>
      </trkpt>
      <trkpt lat="47.1209510" lon="6.7513180">
        <ele>1001.0</ele>
        <time>2022-07-21T14:59:38Z</time>
      </trkpt>
      <trkpt lat="47.1209360" lon="6.7513400">
        <ele>1000.9</ele>
        <time>2022-07-21T14:59:39Z</time>
      </trkpt>
      <trkpt lat="47.1209310" lon="6.7513490">
        <ele>1000.6</ele>
        <time>2022-07-21T14:59:40Z</time>
      </trkpt>
      <trkpt lat="47.1209140" lon="6.7513280">
        <ele>1000.4</ele>
        <time>2022-07-21T14:59:41Z</time>
      </trkpt>
      <trkpt lat="47.1209010" lon="6.7513150">
        <ele>1000.3</ele>
        <time>2022-07-21T14:59:42Z</time>
      </trkpt>
      <trkpt lat="47.1208880" lon="6.7513020">
        <ele>1000.1</ele>
        <time>2022-07-21T14:59:43Z</time>
      </trkpt>
      <trkpt lat="47.1208660" lon="6.7512510">
        <ele>999.8</ele>
        <time>2022-07-21T14:59:44Z</time>
      </trkpt>
      <trkpt lat="47.1208540" lon="6.7512000">
        <ele>999.5</ele>
        <time>2022-07-21T14:59:45Z</time>
      </trkpt>
      <trkpt lat="47.1208400" lon="6.7511510">
        <ele>999.2</ele>
        <time>2022-07-21T14:59:46Z</time>
      </trkpt>
      <trkpt lat="47.1208220" lon="6.7510910">
        <ele>998.8</ele>
        <time>2022-07-21T14:59:47Z</time>
      </trkpt>
      <trkpt lat="47.1207930" lon="6.7510270">
        <ele>998.4</ele>
        <time>2022-07-21T14:59:48Z</time>
      </trkpt>
      <trkpt lat="47.1207580" lon="6.7509790">
        <ele>998.0</ele>
        <time>2022-07-21T14:59:49Z</time>
      </trkpt>
      <trkpt lat="47.1207280" lon="6.7509420">
        <ele>997.7</ele>
        <time>2022-07-21T14:59:50Z</time>
      </trkpt>
      <trkpt lat="47.1206990" lon="6.7508930">
        <ele>997.3</ele>
        <time>2022-07-21T14:59:51Z</time>
      </trkpt>
      <trkpt lat="47.1206820" lon="6.7508600">
        <ele>997.1</ele>
        <time>2022-07-21T14:59:52Z</time>
      </trkpt>
      <trkpt lat="47.1206620" lon="6.7508230">
        <ele>996.9</ele>
        <time>2022-07-21T14:59:53Z</time>
      </trkpt>
      <trkpt lat="47.1206360" lon="6.7507950">
        <ele>996.6</ele>
        <time>2022-07-21T14:59:54Z</time>
      </trkpt>
      <trkpt lat="47.1205990" lon="6.7507830">
        <ele>996.2</ele>
        <time>2022-07-21T14:59:55Z</time>
      </trkpt>
      <trkpt lat="47.1205670" lon="6.7507660">
        <ele>995.9</ele>
        <time>2022-07-21T14:59:56Z</time>
      </trkpt>
      <trkpt lat="47.1205390" lon="6.7507500">
        <ele>995.6</ele>
        <time>2022-07-21T14:59:57Z</time>
      </trkpt>
      <trkpt lat="47.1205310" lon="6.7507440">
        <ele>995.5</ele>
        <time>2022-07-21T14:59:58Z</time>
      </trkpt>
      <trkpt lat="47.1205270" lon="6.7507420">
        <ele>995.4</ele>
        <time>2022-07-21T14:59:59Z</time>
      </trkpt>
      <trkpt lat="47.1205190" lon="6.7507360">
        <ele>995.3</ele>
        <time>2022-07-21T15:00:00Z</time>
      </trkpt>
      <trkpt lat="47.1205040" lon="6.7507210">
        <ele>995.1</ele>
        <time>2022-07-21T15:00:01Z</time>
      </trkpt>
      <trkpt lat="47.1204740" lon="6.7506800">
        <ele>994.6</ele>
        <time>2022-07-21T15:00:02Z</time>
      </trkpt>
      <trkpt lat="47.1204610" lon="6.7506590">
        <ele>994.4</ele>
        <time>2022-07-21T15:00:03Z</time>
      </trkpt>
      <trkpt lat="47.1204190" lon="6.7506020">
        <ele>993.7</ele>
        <time>2022-07-21T15:00:04Z</time>
      </trkpt>
      <trkpt lat="47.1203800" lon="6.7505600">
        <ele>993.3</ele>
        <time>2022-07-21T15:00:05Z</time>
      </trkpt>
      <trkpt lat="47.1203540" lon="6.7505320">
        <ele>993.0</ele>
        <time>2022-07-21T15:00:06Z</time>
      </trkpt>
      <trkpt lat="47.1203320" lon="6.7504910">
        <ele>992.7</ele>
        <time>2022-07-21T15:00:07Z</time>
      </trkpt>
      <trkpt lat="47.1203120" lon="6.7504470">
        <ele>992.4</ele>
        <time>2022-07-21T15:00:08Z</time>
      </trkpt>
      <trkpt lat="47.1202830" lon="6.7503950">
        <ele>992.1</ele>
        <time>2022-07-21T15:00:09Z</time>
      </trkpt>
      <trkpt lat="47.1202550" lon="6.7503410">
        <ele>991.9</ele>
        <time>2022-07-21T15:00:10Z</time>
      </trkpt>
      <trkpt lat="47.1202270" lon="6.7502950">
        <ele>991.7</ele>
        <time>2022-07-21T15:00:11Z</time>
      </trkpt>
      <trkpt lat="47.1202060" lon="6.7502570">
        <ele>991.5</ele>
        <time>2022-07-21T15:00:12Z</time>
      </trkpt>
      <trkpt lat="47.1201840" lon="6.7502070">
        <ele>991.4</ele>
        <time>2022-07-21T15:00:13Z</time>
      </trkpt>
      <trkpt lat="47.1201620" lon="6.7501560">
        <ele>991.2</ele>
        <time>2022-07-21T15:00:14Z</time>
      </trkpt>
      <trkpt lat="47.1201400" lon="6.7500970">
        <ele>991.0</ele>
        <time>2022-07-21T15:00:15Z</time>
      </trkpt>
      <trkpt lat="47.1201260" lon="6.7500470">
        <ele>990.9</ele>
        <time>2022-07-21T15:00:16Z</time>
      </trkpt>
      <trkpt lat="47.1201130" lon="6.7499900">
        <ele>990.7</ele>
        <time>2022-07-21T15:00:17Z</time>
      </trkpt>
      <trkpt lat="47.1200980" lon="6.7499300">
        <ele>990.6</ele>
        <time>2022-07-21T15:00:18Z</time>
      </trkpt>
      <trkpt lat="47.1200830" lon="6.7498680">
        <ele>990.4</ele>
        <time>2022-07-21T15:00:19Z</time>
      </trkpt>
      <trkpt lat="47.1200640" lon="6.7497920">
        <ele>990.1</ele>
        <time>2022-07-21T15:00:20Z</time>
      </trkpt>
      <trkpt lat="47.1200350" lon="6.7497170">
        <ele>989.7</ele>
        <time>2022-07-21T15:00:21Z</time>
      </trkpt>
      <trkpt lat="47.1200040" lon="6.7496460">
        <ele>989.2</ele>
        <time>2022-07-21T15:00:22Z</time>
      </trkpt>
      <trkpt lat="47.1199690" lon="6.7495820">
        <ele>988.8</ele>
        <time>2022-07-21T15:00:23Z</time>
      </trkpt>
      <trkpt lat="47.1199230" lon="6.7495110">
        <ele>988.3</ele>
        <time>2022-07-21T15:00:24Z</time>
      </trkpt>
      <trkpt lat="47.1198800" lon="6.7494250">
        <ele>987.7</ele>
        <time>2022-07-21T15:00:25Z</time>
      </trkpt>
      <trkpt lat="47.1198510" lon="6.7493520">
        <ele>987.3</ele>
        <time>2022-07-21T15:00:26Z</time>
      </trkpt>
      <trkpt lat="47.1198220" lon="6.7492800">
        <ele>986.8</ele>
        <time>2022-07-21T15:00:27Z</time>
      </trkpt>
      <trkpt lat="47.1197820" lon="6.7491920">
        <ele>986.3</ele>
        <time>2022-07-21T15:00:28Z</time>
      </trkpt>
      <trkpt lat="47.1197500" lon="6.7491020">
        <ele>985.8</ele>
        <time>2022-07-21T15:00:29Z</time>
      </trkpt>
      <trkpt lat="47.1197130" lon="6.7490310">
        <ele>985.4</ele>
        <time>2022-07-21T15:00:30Z</time>
      </trkpt>
      <trkpt lat="47.1196660" lon="6.7489540">
        <ele>985.0</ele>
        <time>2022-07-21T15:00:31Z</time>
      </trkpt>
      <trkpt lat="47.1196130" lon="6.7488730">
        <ele>984.5</ele>
        <time>2022-07-21T15:00:32Z</time>
      </trkpt>
      <trkpt lat="47.1195690" lon="6.7487780">
        <ele>984.1</ele>
        <time>2022-07-21T15:00:33Z</time>
      </trkpt>
      <trkpt lat="47.1195350" lon="6.7486850">
        <ele>983.7</ele>
        <time>2022-07-21T15:00:34Z</time>
      </trkpt>
      <trkpt lat="47.1195040" lon="6.7485890">
        <ele>983.4</ele>
        <time>2022-07-21T15:00:35Z</time>
      </trkpt>
      <trkpt lat="47.1194770" lon="6.7485010">
        <ele>983.2</ele>
        <time>2022-07-21T15:00:36Z</time>
      </trkpt>
      <trkpt lat="47.1194420" lon="6.7484080">
        <ele>982.9</ele>
        <time>2022-07-21T15:00:37Z</time>
      </trkpt>
      <trkpt lat="47.1194130" lon="6.7483070">
        <ele>982.5</ele>
        <time>2022-07-21T15:00:38Z</time>
      </trkpt>
      <trkpt lat="47.1193750" lon="6.7482100">
        <ele>982.2</ele>
        <time>2022-07-21T15:00:39Z</time>
      </trkpt>
      <trkpt lat="47.1193420" lon="6.7481160">
        <ele>981.9</ele>
        <time>2022-07-21T15:00:40Z</time>
      </trkpt>
      <trkpt lat="47.1193090" lon="6.7480260">
        <ele>981.6</ele>
        <time>2022-07-21T15:00:41Z</time>
      </trkpt>
      <trkpt lat="47.1192930" lon="6.7479400">
        <ele>981.4</ele>
        <time>2022-07-21T15:00:42Z</time>
      </trkpt>
      <trkpt lat="47.1192800" lon="6.7478450">
        <ele>981.1</ele>
        <time>2022-07-21T15:00:43Z</time>
      </trkpt>
      <trkpt lat="47.1192520" lon="6.7477560">
        <ele>980.9</ele>
        <time>2022-07-21T15:00:44Z</time>
      </trkpt>
      <trkpt lat="47.1192190" lon="6.7476700">
        <ele>980.6</ele>
        <time>2022-07-21T15:00:45Z</time>
      </trkpt>
      <trkpt lat="47.1191840" lon="6.7475960">
        <ele>980.4</ele>
        <time>2022-07-21T15:00:46Z</time>
      </trkpt>
      <trkpt lat="47.1191450" lon="6.7475560">
        <ele>980.1</ele>
        <time>2022-07-21T15:00:47Z</time>
      </trkpt>
      <trkpt lat="47.1191080" lon="6.7475270">
        <ele>979.8</ele>
        <time>2022-07-21T15:00:48Z</time>
      </trkpt>
      <trkpt lat="47.1190760" lon="6.7474970">
        <ele>979.6</ele>
        <time>2022-07-21T15:00:49Z</time>
      </trkpt>
      <trkpt lat="47.1190590" lon="6.7474870">
        <ele>979.4</ele>
        <time>2022-07-21T15:00:50Z</time>
      </trkpt>
      <trkpt lat="47.1190190" lon="6.7474740">
        <ele>979.0</ele>
        <time>2022-07-21T15:00:51Z</time>
      </trkpt>
      <trkpt lat="47.1189810" lon="6.7474460">
        <ele>978.6</ele>
        <time>2022-07-21T15:00:52Z</time>
      </trkpt>
      <trkpt lat="47.1189500" lon="6.7474080">
        <ele>978.1</ele>
        <time>2022-07-21T15:00:53Z</time>
      </trkpt>
      <trkpt lat="47.1189080" lon="6.7473600">
        <ele>977.5</ele>
        <time>2022-07-21T15:00:54Z</time>
      </trkpt>
      <trkpt lat="47.1188650" lon="6.7473030">
        <ele>976.7</ele>
        <time>2022-07-21T15:00:55Z</time>
      </trkpt>
      <trkpt lat="47.1188380" lon="6.7472510">
        <ele>976.1</ele>
        <time>2022-07-21T15:00:56Z</time>
      </trkpt>
      <trkpt lat="47.1188010" lon="6.7471900">
        <ele>975.4</ele>
        <time>2022-07-21T15:00:57Z</time>
      </trkpt>
      <trkpt lat="47.1187680" lon="6.7471530">
        <ele>974.8</ele>
        <time>2022-07-21T15:00:58Z</time>
      </trkpt>
      <trkpt lat="47.1187410" lon="6.7471290">
        <ele>974.4</ele>
        <time>2022-07-21T15:00:59Z</time>
      </trkpt>
      <trkpt lat="47.1187100" lon="6.7471040">
        <ele>974.0</ele>
        <time>2022-07-21T15:01:00Z</time>
      </trkpt>
      <trkpt lat="47.1186680" lon="6.7470780">
        <ele>973.4</ele>
        <time>2022-07-21T15:01:01Z</time>
      </trkpt>
      <trkpt lat="47.1186370" lon="6.7470700">
        <ele>973.0</ele>
        <time>2022-07-21T15:01:02Z</time>
      </trkpt>
      <trkpt lat="47.1186090" lon="6.7470490">
        <ele>972.6</ele>
        <time>2022-07-21T15:01:03Z</time>
      </trkpt>
      <trkpt lat="47.1185810" lon="6.7470280">
        <ele>972.2</ele>
        <time>2022-07-21T15:01:04Z</time>
      </trkpt>
      <trkpt lat="47.1185520" lon="6.7470130">
        <ele>971.8</ele>
        <time>2022-07-21T15:01:05Z</time>
      </trkpt>
      <trkpt lat="47.1185260" lon="6.7469830">
        <ele>971.3</ele>
        <time>2022-07-21T15:01:06Z</time>
      </trkpt>
      <trkpt lat="47.1185190" lon="6.7469790">
        <ele>971.2</ele>
        <time>2022-07-21T15:01:07Z</time>
      </trkpt>
      <trkpt lat="47.1185040" lon="6.7469600">
        <ele>970.9</ele>
        <time>2022-07-21T15:01:08Z</time>
      </trkpt>
      <trkpt lat="47.1184950" lon="6.7469500">
        <ele>970.8</ele>
        <time>2022-07-21T15:01:09Z</time>
      </trkpt>
      <trkpt lat="47.1184860" lon="6.7469400">
        <ele>970.6</ele>
        <time>2022-07-21T15:01:10Z</time>
      </trkpt>
      <trkpt lat="47.1184640" lon="6.7469040">
        <ele>970.1</ele>
        <time>2022-07-21T15:01:11Z</time>
      </trkpt>
      <trkpt lat="47.1184570" lon="6.7468930">
        <ele>969.9</ele>
        <time>2022-07-21T15:01:12Z</time>
      </trkpt>
      <trkpt lat="47.1184240" lon="6.7468600">
        <ele>969.2</ele>
        <time>2022-07-21T15:01:13Z</time>
      </trkpt>
      <trkpt lat="47.1184130" lon="6.7468490">
        <ele>969.0</ele>
        <time>2022-07-21T15:01:14Z</time>
      </trkpt>
      <trkpt lat="47.1183860" lon="6.7468270">
        <ele>968.4</ele>
        <time>2022-07-21T15:01:15Z</time>
      </trkpt>
      <trkpt lat="47.1183750" lon="6.7468170">
        <ele>968.2</ele>
        <time>2022-07-21T15:01:16Z</time>
      </trkpt>
      <trkpt lat="47.1183410" lon="6.7467960">
        <ele>967.5</ele>
        <time>2022-07-21T15:01:17Z</time>
      </trkpt>
      <trkpt lat="47.1182970" lon="6.7467730">
        <ele>966.6</ele>
        <time>2022-07-21T15:01:18Z</time>
      </trkpt>
      <trkpt lat="47.1182560" lon="6.7467540">
        <ele>965.8</ele>
        <time>2022-07-21T15:01:19Z</time>
      </trkpt>
      <trkpt lat="47.1181980" lon="6.7467230">
        <ele>964.6</ele>
        <time>2022-07-21T15:01:20Z</time>
      </trkpt>
      <trkpt lat="47.1181360" lon="6.7466770">
        <ele>963.3</ele>
        <time>2022-07-21T15:01:21Z</time>
      </trkpt>
      <trkpt lat="47.1180850" lon="6.7466250">
        <ele>962.3</ele>
        <time>2022-07-21T15:01:22Z</time>
      </trkpt>
      <trkpt lat="47.1180340" lon="6.7465890">
        <ele>961.4</ele>
        <time>2022-07-21T15:01:23Z</time>
      </trkpt>
      <trkpt lat="47.1179970" lon="6.7465750">
        <ele>960.8</ele>
        <time>2022-07-21T15:01:24Z</time>
      </trkpt>
      <trkpt lat="47.1179670" lon="6.7465510">
        <ele>960.4</ele>
        <time>2022-07-21T15:01:25Z</time>
      </trkpt>
      <trkpt lat="47.1179400" lon="6.7465050">
        <ele>959.8</ele>
        <time>2022-07-21T15:01:26Z</time>
      </trkpt>
      <trkpt lat="47.1179260" lon="6.7464870">
        <ele>959.6</ele>
        <time>2022-07-21T15:01:27Z</time>
      </trkpt>
      <trkpt lat="47.1178880" lon="6.7464230">
        <ele>958.8</ele>
        <time>2022-07-21T15:01:28Z</time>
      </trkpt>
      <trkpt lat="47.1178410" lon="6.7463370">
        <ele>957.9</ele>
        <time>2022-07-21T15:01:29Z</time>
      </trkpt>
      <trkpt lat="47.1177940" lon="6.7462750">
        <ele>957.1</ele>
        <time>2022-07-21T15:01:30Z</time>
      </trkpt>
      <trkpt lat="47.1177360" lon="6.7462070">
        <ele>956.2</ele>
        <time>2022-07-21T15:01:31Z</time>
      </trkpt>
      <trkpt lat="47.1176940" lon="6.7461560">
        <ele>955.6</ele>
        <time>2022-07-21T15:01:32Z</time>
      </trkpt>
      <trkpt lat="47.1176340" lon="6.7461040">
        <ele>955.0</ele>
        <time>2022-07-21T15:01:33Z</time>
      </trkpt>
      <trkpt lat="47.1175750" lon="6.7460590">
        <ele>954.4</ele>
        <time>2022-07-21T15:01:34Z</time>
      </trkpt>
      <trkpt lat="47.1175210" lon="6.7460100">
        <ele>953.9</ele>
        <time>2022-07-21T15:01:35Z</time>
      </trkpt>
      <trkpt lat="47.1174930" lon="6.7459810">
        <ele>953.6</ele>
        <time>2022-07-21T15:01:36Z</time>
      </trkpt>
      <trkpt lat="47.1174590" lon="6.7459510">
        <ele>953.3</ele>
        <time>2022-07-21T15:01:37Z</time>
      </trkpt>
      <trkpt lat="47.1174470" lon="6.7459380">
        <ele>953.2</ele>
        <time>2022-07-21T15:01:38Z</time>
      </trkpt>
      <trkpt lat="47.1174110" lon="6.7459170">
        <ele>952.9</ele>
        <time>2022-07-21T15:01:39Z</time>
      </trkpt>
      <trkpt lat="47.1173690" lon="6.7458880">
        <ele>952.6</ele>
        <time>2022-07-21T15:01:40Z</time>
      </trkpt>
      <trkpt lat="47.1173210" lon="6.7458290">
        <ele>952.0</ele>
        <time>2022-07-21T15:01:41Z</time>
      </trkpt>
      <trkpt lat="47.1172800" lon="6.7457790">
        <ele>951.3</ele>
        <time>2022-07-21T15:01:42Z</time>
      </trkpt>
      <trkpt lat="47.1172500" lon="6.7457590">
        <ele>950.9</ele>
        <time>2022-07-21T15:01:43Z</time>
      </trkpt>
      <trkpt lat="47.1172190" lon="6.7457340">
        <ele>950.4</ele>
        <time>2022-07-21T15:01:44Z</time>
      </trkpt>
      <trkpt lat="47.1171890" lon="6.7457130">
        <ele>949.8</ele>
        <time>2022-07-21T15:01:45Z</time>
      </trkpt>
      <trkpt lat="47.1171800" lon="6.7457070">
        <ele>949.7</ele>
        <time>2022-07-21T15:01:46Z</time>
      </trkpt>
      <trkpt lat="47.1171530" lon="6.7456800">
        <ele>949.1</ele>
        <time>2022-07-21T15:01:47Z</time>
      </trkpt>
      <trkpt lat="47.1171220" lon="6.7456490">
        <ele>948.5</ele>
        <time>2022-07-21T15:01:48Z</time>
      </trkpt>
      <trkpt lat="47.1170860" lon="6.7456150">
        <ele>947.7</ele>
        <time>2022-07-21T15:01:49Z</time>
      </trkpt>
      <trkpt lat="47.1170560" lon="6.7455860">
        <ele>947.0</ele>
        <time>2022-07-21T15:01:50Z</time>
      </trkpt>
      <trkpt lat="47.1170160" lon="6.7455500">
        <ele>946.1</ele>
        <time>2022-07-21T15:01:51Z</time>
      </trkpt>
      <trkpt lat="47.1169740" lon="6.7455150">
        <ele>945.2</ele>
        <time>2022-07-21T15:01:52Z</time>
      </trkpt>
      <trkpt lat="47.1169220" lon="6.7454730">
        <ele>944.2</ele>
        <time>2022-07-21T15:01:53Z</time>
      </trkpt>
      <trkpt lat="47.1168610" lon="6.7454230">
        <ele>943.2</ele>
        <time>2022-07-21T15:01:54Z</time>
      </trkpt>
      <trkpt lat="47.1167910" lon="6.7453730">
        <ele>942.2</ele>
        <time>2022-07-21T15:01:55Z</time>
      </trkpt>
      <trkpt lat="47.1167410" lon="6.7453450">
        <ele>941.7</ele>
        <time>2022-07-21T15:01:56Z</time>
      </trkpt>
      <trkpt lat="47.1166920" lon="6.7453320">
        <ele>941.2</ele>
        <time>2022-07-21T15:01:57Z</time>
      </trkpt>
      <trkpt lat="47.1166440" lon="6.7453150">
        <ele>940.8</ele>
        <time>2022-07-21T15:01:58Z</time>
      </trkpt>
      <trkpt lat="47.1166010" lon="6.7452980">
        <ele>940.5</ele>
        <time>2022-07-21T15:01:59Z</time>
      </trkpt>
      <trkpt lat="47.1165820" lon="6.7452930">
        <ele>940.4</ele>
        <time>2022-07-21T15:02:00Z</time>
      </trkpt>
      <trkpt lat="47.1165480" lon="6.7452930">
        <ele>940.1</ele>
        <time>2022-07-21T15:02:01Z</time>
      </trkpt>
      <trkpt lat="47.1165070" lon="6.7452830">
        <ele>939.9</ele>
        <time>2022-07-21T15:02:02Z</time>
      </trkpt>
      <trkpt lat="47.1164740" lon="6.7452660">
        <ele>939.6</ele>
        <time>2022-07-21T15:02:03Z</time>
      </trkpt>
      <trkpt lat="47.1164350" lon="6.7452110">
        <ele>939.1</ele>
        <time>2022-07-21T15:02:04Z</time>
      </trkpt>
      <trkpt lat="47.1163950" lon="6.7451340">
        <ele>938.5</ele>
        <time>2022-07-21T15:02:05Z</time>
      </trkpt>
      <trkpt lat="47.1163560" lon="6.7450660">
        <ele>937.8</ele>
        <time>2022-07-21T15:02:06Z</time>
      </trkpt>
      <trkpt lat="47.1163160" lon="6.7450240">
        <ele>937.2</ele>
        <time>2022-07-21T15:02:07Z</time>
      </trkpt>
      <trkpt lat="47.1162720" lon="6.7450040">
        <ele>936.6</ele>
        <time>2022-07-21T15:02:08Z</time>
      </trkpt>
      <trkpt lat="47.1162300" lon="6.7449920">
        <ele>936.0</ele>
        <time>2022-07-21T15:02:09Z</time>
      </trkpt>
      <trkpt lat="47.1161900" lon="6.7449780">
        <ele>935.4</ele>
        <time>2022-07-21T15:02:10Z</time>
      </trkpt>
      <trkpt lat="47.1161490" lon="6.7449540">
        <ele>934.7</ele>
        <time>2022-07-21T15:02:11Z</time>
      </trkpt>
      <trkpt lat="47.1161040" lon="6.7449220">
        <ele>934.0</ele>
        <time>2022-07-21T15:02:12Z</time>
      </trkpt>
      <trkpt lat="47.1160520" lon="6.7449000">
        <ele>933.3</ele>
        <time>2022-07-21T15:02:13Z</time>
      </trkpt>
      <trkpt lat="47.1159930" lon="6.7448640">
        <ele>932.4</ele>
        <time>2022-07-21T15:02:14Z</time>
      </trkpt>
      <trkpt lat="47.1159450" lon="6.7448230">
        <ele>931.6</ele>
        <time>2022-07-21T15:02:15Z</time>
      </trkpt>
      <trkpt lat="47.1159040" lon="6.7447900">
        <ele>931.0</ele>
        <time>2022-07-21T15:02:16Z</time>
      </trkpt>
      <trkpt lat="47.1158590" lon="6.7447710">
        <ele>930.4</ele>
        <time>2022-07-21T15:02:17Z</time>
      </trkpt>
      <trkpt lat="47.1158130" lon="6.7447840">
        <ele>929.8</ele>
        <time>2022-07-21T15:02:18Z</time>
      </trkpt>
      <trkpt lat="47.1157720" lon="6.7448080">
        <ele>929.3</ele>
        <time>2022-07-21T15:02:19Z</time>
      </trkpt>
      <trkpt lat="47.1157350" lon="6.7448290">
        <ele>928.8</ele>
        <time>2022-07-21T15:02:20Z</time>
      </trkpt>
      <trkpt lat="47.1157080" lon="6.7448440">
        <ele>928.4</ele>
        <time>2022-07-21T15:02:21Z</time>
      </trkpt>
      <trkpt lat="47.1156990" lon="6.7448460">
        <ele>928.3</ele>
        <time>2022-07-21T15:02:22Z</time>
      </trkpt>
      <trkpt lat="47.1156830" lon="6.7448510">
        <ele>928.1</ele>
        <time>2022-07-21T15:02:23Z</time>
      </trkpt>
      <trkpt lat="47.1156730" lon="6.7448550">
        <ele>927.9</ele>
        <time>2022-07-21T15:02:24Z</time>
      </trkpt>
      <trkpt lat="47.1156670" lon="6.7448550">
        <ele>927.8</ele>
        <time>2022-07-21T15:02:25Z</time>
      </trkpt>
      <trkpt lat="47.1156620" lon="6.7448530">
        <ele>927.8</ele>
        <time>2022-07-21T15:02:26Z</time>
      </trkpt>
      <trkpt lat="47.1156590" lon="6.7448470">
        <ele>927.7</ele>
        <time>2022-07-21T15:02:27Z</time>
      </trkpt>
      <trkpt lat="47.1156570" lon="6.7448410">
        <ele>927.7</ele>
        <time>2022-07-21T15:02:28Z</time>
      </trkpt>
      <trkpt lat="47.1156560" lon="6.7448370">
        <ele>927.6</ele>
        <time>2022-07-21T15:02:29Z</time>
      </trkpt>
      <trkpt lat="47.1156540" lon="6.7448380">
        <ele>927.6</ele>
        <time>2022-07-21T15:02:30Z</time>
      </trkpt>
      <trkpt lat="47.1156530" lon="6.7448380">
        <ele>927.6</ele>
        <time>2022-07-21T15:02:31Z</time>
      </trkpt>
      <trkpt lat="47.1156520" lon="6.7448360">
        <ele>927.6</ele>
        <time>2022-07-21T15:02:32Z</time>
      </trkpt>
      <trkpt lat="47.1156450" lon="6.7448250">
        <ele>927.4</ele>
        <time>2022-07-21T15:02:33Z</time>
      </trkpt>
      <trkpt lat="47.1156360" lon="6.7448170">
        <ele>927.3</ele>
        <time>2022-07-21T15:02:34Z</time>
      </trkpt>
      <trkpt lat="47.1156270" lon="6.7448150">
        <ele>927.2</ele>
        <time>2022-07-21T15:02:35Z</time>
      </trkpt>
      <trkpt lat="47.1156200" lon="6.7448160">
        <ele>927.1</ele>
        <time>2022-07-21T15:02:36Z</time>
      </trkpt>
      <trkpt lat="47.1156160" lon="6.7448170">
        <ele>927.0</ele>
        <time>2022-07-21T15:02:37Z</time>
      </trkpt>
      <trkpt lat="47.1156130" lon="6.7448240">
        <ele>926.9</ele>
        <time>2022-07-21T15:02:38Z</time>
      </trkpt>
      <trkpt lat="47.1156110" lon="6.7448290">
        <ele>926.9</ele>
        <time>2022-07-21T15:02:39Z</time>
      </trkpt>
      <trkpt lat="47.1156090" lon="6.7448340">
        <ele>926.8</ele>
        <time>2022-07-21T15:02:40Z</time>
      </trkpt>
      <trkpt lat="47.1156070" lon="6.7448390">
        <ele>926.8</ele>
        <time>2022-07-21T15:02:41Z</time>
      </trkpt>
      <trkpt lat="47.1156060" lon="6.7448450">
        <ele>926.7</ele>
        <time>2022-07-21T15:02:42Z</time>
      </trkpt>
      <trkpt lat="47.1156040" lon="6.7448500">
        <ele>926.7</ele>
        <time>2022-07-21T15:02:43Z</time>
      </trkpt>
      <trkpt lat="47.1156020" lon="6.7448550">
        <ele>926.6</ele>
        <time>2022-07-21T15:02:44Z</time>
      </trkpt>
      <trkpt lat="47.1156000" lon="6.7448600">
        <ele>926.6</ele>
        <time>2022-07-21T15:02:45Z</time>
      </trkpt>
      <trkpt lat="47.1155980" lon="6.7448660">
        <ele>926.5</ele>
        <time>2022-07-21T15:02:46Z</time>
      </trkpt>
      <trkpt lat="47.1155970" lon="6.7448710">
        <ele>926.5</ele>
        <time>2022-07-21T15:02:47Z</time>
      </trkpt>
      <trkpt lat="47.1155950" lon="6.7448760">
        <ele>926.4</ele>
        <time>2022-07-21T15:02:48Z</time>
      </trkpt>
      <trkpt lat="47.1155930" lon="6.7448810">
        <ele>926.4</ele>
        <time>2022-07-21T15:02:49Z</time>
      </trkpt>
      <trkpt lat="47.1155910" lon="6.7448860">
        <ele>926.3</ele>
        <time>2022-07-21T15:02:50Z</time>
      </trkpt>
      <trkpt lat="47.1155890" lon="6.7448920">
        <ele>926.3</ele>
        <time>2022-07-21T15:02:51Z</time>
      </trkpt>
      <trkpt lat="47.1155610" lon="6.7449490">
        <ele>925.7</ele>
        <time>2022-07-21T15:02:52Z</time>
      </trkpt>
      <trkpt lat="47.1155270" lon="6.7450160">
        <ele>925.0</ele>
        <time>2022-07-21T15:02:53Z</time>
      </trkpt>
      <trkpt lat="47.1154960" lon="6.7450760">
        <ele>924.3</ele>
        <time>2022-07-21T15:02:54Z</time>
      </trkpt>
      <trkpt lat="47.1154700" lon="6.7451250">
        <ele>923.8</ele>
        <time>2022-07-21T15:02:55Z</time>
      </trkpt>
      <trkpt lat="47.1154470" lon="6.7451580">
        <ele>923.7</ele>
        <time>2022-07-21T15:02:56Z</time>
      </trkpt>
      <trkpt lat="47.1154350" lon="6.7451720">
        <ele>923.5</ele>
        <time>2022-07-21T15:02:57Z</time>
      </trkpt>
      <trkpt lat="47.1154260" lon="6.7451950">
        <ele>923.3</ele>
        <time>2022-07-21T15:02:58Z</time>
      </trkpt>
      <trkpt lat="47.1154240" lon="6.7452110">
        <ele>923.2</ele>
        <time>2022-07-21T15:02:59Z</time>
      </trkpt>
      <trkpt lat="47.1154230" lon="6.7452230">
        <ele>923.1</ele>
        <time>2022-07-21T15:03:00Z</time>
      </trkpt>
      <trkpt lat="47.1154200" lon="6.7452340">
        <ele>923.0</ele>
        <time>2022-07-21T15:03:01Z</time>
      </trkpt>
      <trkpt lat="47.1154130" lon="6.7452410">
        <ele>922.9</ele>
        <time>2022-07-21T15:03:02Z</time>
      </trkpt>
      <trkpt lat="47.1154030" lon="6.7452440">
        <ele>922.8</ele>
        <time>2022-07-21T15:03:03Z</time>
      </trkpt>
      <trkpt lat="47.1153890" lon="6.7452460">
        <ele>922.6</ele>
        <time>2022-07-21T15:03:04Z</time>
      </trkpt>
      <trkpt lat="47.1153830" lon="6.7452510">
        <ele>922.6</ele>
        <time>2022-07-21T15:03:05Z</time>
      </trkpt>
      <trkpt lat="47.1153730" lon="6.7452540">
        <ele>922.4</ele>
        <time>2022-07-21T15:03:06Z</time>
      </trkpt>
      <trkpt lat="47.1153570" lon="6.7452560">
        <ele>922.3</ele>
        <time>2022-07-21T15:03:07Z</time>
      </trkpt>
      <trkpt lat="47.1153410" lon="6.7452500">
        <ele>922.1</ele>
        <time>2022-07-21T15:03:08Z</time>
      </trkpt>
      <trkpt lat="47.1153150" lon="6.7452400">
        <ele>921.7</ele>
        <time>2022-07-21T15:03:09Z</time>
      </trkpt>
      <trkpt lat="47.1153030" lon="6.7452340">
        <ele>921.6</ele>
        <time>2022-07-21T15:03:10Z</time>
      </trkpt>
      <trkpt lat="47.1152720" lon="6.7452140">
        <ele>921.2</ele>
        <time>2022-07-21T15:03:11Z</time>
      </trkpt>
      <trkpt lat="47.1152400" lon="6.7451980">
        <ele>920.7</ele>
        <time>2022-07-21T15:03:12Z</time>
      </trkpt>
      <trkpt lat="47.1152290" lon="6.7451940">
        <ele>920.5</ele>
        <time>2022-07-21T15:03:13Z</time>
      </trkpt>
      <trkpt lat="47.1152140" lon="6.7451950">
        <ele>920.3</ele>
        <time>2022-07-21T15:03:14Z</time>
      </trkpt>
      <trkpt lat="47.1151990" lon="6.7452000">
        <ele>920.1</ele>
        <time>2022-07-21T15:03:15Z</time>
      </trkpt>
      <trkpt lat="47.1151780" lon="6.7451990">
        <ele>919.8</ele>
        <time>2022-07-21T15:03:16Z</time>
      </trkpt>
      <trkpt lat="47.1151700" lon="6.7451960">
        <ele>919.7</ele>
        <time>2022-07-21T15:03:17Z</time>
      </trkpt>
      <trkpt lat="47.1151620" lon="6.7451940">
        <ele>919.6</ele>
        <time>2022-07-21T15:03:18Z</time>
      </trkpt>
      <trkpt lat="47.1151490" lon="6.7451890">
        <ele>919.4</ele>
        <time>2022-07-21T15:03:19Z</time>
      </trkpt>
      <trkpt lat="47.1151380" lon="6.7451850">
        <ele>919.2</ele>
        <time>2022-07-21T15:03:20Z</time>
      </trkpt>
      <trkpt lat="47.1151340" lon="6.7451830">
        <ele>919.1</ele>
        <time>2022-07-21T15:03:21Z</time>
      </trkpt>
      <trkpt lat="47.1151360" lon="6.7451840">
        <ele>919.1</ele>
        <time>2022-07-21T15:03:22Z</time>
      </trkpt>
      <trkpt lat="47.1151410" lon="6.7451870">
        <ele>919.0</ele>
        <time>2022-07-21T15:03:23Z</time>
      </trkpt>
      <trkpt lat="47.1151450" lon="6.7451880">
        <ele>919.0</ele>
        <time>2022-07-21T15:03:24Z</time>
      </trkpt>
      <trkpt lat="47.1151480" lon="6.7451900">
        <ele>918.9</ele>
        <time>2022-07-21T15:03:25Z</time>
      </trkpt>
      <trkpt lat="47.1151520" lon="6.7451930">
        <ele>918.9</ele>
        <time>2022-07-21T15:03:26Z</time>
      </trkpt>
      <trkpt lat="47.1151550" lon="6.7451970">
        <ele>918.8</ele>
        <time>2022-07-21T15:03:27Z</time>
      </trkpt>
      <trkpt lat="47.1151570" lon="6.7452010">
        <ele>918.8</ele>
        <time>2022-07-21T15:03:28Z</time>
      </trkpt>
      <trkpt lat="47.1151590" lon="6.7452040">
        <ele>918.7</ele>
        <time>2022-07-21T15:03:29Z</time>
      </trkpt>
      <trkpt lat="47.1151540" lon="6.7452040">
        <ele>918.7</ele>
        <time>2022-07-21T15:03:30Z</time>
      </trkpt>
      <trkpt lat="47.1151480" lon="6.7452030">
        <ele>918.6</ele>
        <time>2022-07-21T15:03:31Z</time>
      </trkpt>
      <trkpt lat="47.1151420" lon="6.7452020">
        <ele>918.5</ele>
        <time>2022-07-21T15:03:32Z</time>
      </trkpt>
      <trkpt lat="47.1151360" lon="6.7452010">
        <ele>918.4</ele>
        <time>2022-07-21T15:03:33Z</time>
      </trkpt>
      <trkpt lat="47.1151290" lon="6.7452000">
        <ele>918.3</ele>
        <time>2022-07-21T15:03:34Z</time>
      </trkpt>
      <trkpt lat="47.1151230" lon="6.7451990">
        <ele>918.2</ele>
        <time>2022-07-21T15:03:35Z</time>
      </trkpt>
      <trkpt lat="47.1151170" lon="6.7451980">
        <ele>918.2</ele>
        <time>2022-07-21T15:03:36Z</time>
      </trkpt>
      <trkpt lat="47.1151110" lon="6.7451970">
        <ele>918.1</ele>
        <time>2022-07-21T15:03:37Z</time>
      </trkpt>
      <trkpt lat="47.1151050" lon="6.7451960">
        <ele>918.0</ele>
        <time>2022-07-21T15:03:38Z</time>
      </trkpt>
      <trkpt lat="47.1150980" lon="6.7451940">
        <ele>917.9</ele>
        <time>2022-07-21T15:03:39Z</time>
      </trkpt>
      <trkpt lat="47.1150920" lon="6.7451930">
        <ele>917.8</ele>
        <time>2022-07-21T15:03:46Z</time>
      </trkpt>
      <trkpt lat="47.1150860" lon="6.7451920">
        <ele>917.8</ele>
        <time>2022-07-21T15:03:47Z</time>
      </trkpt>
      <trkpt lat="47.1150800" lon="6.7451910">
        <ele>917.7</ele>
        <time>2022-07-21T15:03:48Z</time>
      </trkpt>
      <trkpt lat="47.1150500" lon="6.7451870">
        <ele>917.3</ele>
        <time>2022-07-21T15:03:49Z</time>
      </trkpt>
      <trkpt lat="47.1150420" lon="6.7451830">
        <ele>917.2</ele>
        <time>2022-07-21T15:03:50Z</time>
      </trkpt>
      <trkpt lat="47.1150100" lon="6.7451580">
        <ele>916.7</ele>
        <time>2022-07-21T15:03:51Z</time>
      </trkpt>
      <trkpt lat="47.1149970" lon="6.7451490">
        <ele>916.5</ele>
        <time>2022-07-21T15:03:52Z</time>
      </trkpt>
      <trkpt lat="47.1149640" lon="6.7451320">
        <ele>916.1</ele>
        <time>2022-07-21T15:03:53Z</time>
      </trkpt>
      <trkpt lat="47.1149520" lon="6.7451260">
        <ele>915.9</ele>
        <time>2022-07-21T15:03:54Z</time>
      </trkpt>
      <trkpt lat="47.1149220" lon="6.7451010">
        <ele>915.5</ele>
        <time>2022-07-21T15:03:55Z</time>
      </trkpt>
      <trkpt lat="47.1149120" lon="6.7450900">
        <ele>915.3</ele>
        <time>2022-07-21T15:03:56Z</time>
      </trkpt>
      <trkpt lat="47.1148920" lon="6.7450630">
        <ele>915.0</ele>
        <time>2022-07-21T15:03:57Z</time>
      </trkpt>
      <trkpt lat="47.1148570" lon="6.7450380">
        <ele>914.5</ele>
        <time>2022-07-21T15:03:58Z</time>
      </trkpt>
      <trkpt lat="47.1148450" lon="6.7450330">
        <ele>914.3</ele>
        <time>2022-07-21T15:03:59Z</time>
      </trkpt>
      <trkpt lat="47.1148300" lon="6.7450320">
        <ele>914.1</ele>
        <time>2022-07-21T15:04:00Z</time>
      </trkpt>
      <trkpt lat="47.1148140" lon="6.7450290">
        <ele>913.9</ele>
        <time>2022-07-21T15:04:01Z</time>
      </trkpt>
      <trkpt lat="47.1147950" lon="6.7450170">
        <ele>913.6</ele>
        <time>2022-07-21T15:04:02Z</time>
      </trkpt>
      <trkpt lat="47.1147880" lon="6.7450090">
        <ele>913.5</ele>
        <time>2022-07-21T15:04:03Z</time>
      </trkpt>
      <trkpt lat="47.1147810" lon="6.7450010">
        <ele>913.4</ele>
        <time>2022-07-21T15:04:04Z</time>
      </trkpt>
      <trkpt lat="47.1147650" lon="6.7449830">
        <ele>913.1</ele>
        <time>2022-07-21T15:04:05Z</time>
      </trkpt>
      <trkpt lat="47.1147580" lon="6.7449770">
        <ele>913.0</ele>
        <time>2022-07-21T15:04:06Z</time>
      </trkpt>
      <trkpt lat="47.1147500" lon="6.7449700">
        <ele>912.9</ele>
        <time>2022-07-21T15:04:07Z</time>
      </trkpt>
      <trkpt lat="47.1147210" lon="6.7449560">
        <ele>912.4</ele>
        <time>2022-07-21T15:04:08Z</time>
      </trkpt>
      <trkpt lat="47.1146860" lon="6.7449430">
        <ele>911.9</ele>
        <time>2022-07-21T15:04:09Z</time>
      </trkpt>
      <trkpt lat="47.1146530" lon="6.7449340">
        <ele>911.5</ele>
        <time>2022-07-21T15:04:10Z</time>
      </trkpt>
      <trkpt lat="47.1146220" lon="6.7449200">
        <ele>911.1</ele>
        <time>2022-07-21T15:04:11Z</time>
      </trkpt>
      <trkpt lat="47.1146130" lon="6.7449150">
        <ele>910.9</ele>
        <time>2022-07-21T15:04:12Z</time>
      </trkpt>
      <trkpt lat="47.1145770" lon="6.7449010">
        <ele>910.5</ele>
        <time>2022-07-21T15:04:13Z</time>
      </trkpt>
      <trkpt lat="47.1145650" lon="6.7448970">
        <ele>910.3</ele>
        <time>2022-07-21T15:04:14Z</time>
      </trkpt>
      <trkpt lat="47.1145350" lon="6.7448900">
        <ele>910.0</ele>
        <time>2022-07-21T15:04:15Z</time>
      </trkpt>
      <trkpt lat="47.1145060" lon="6.7448790">
        <ele>909.6</ele>
        <time>2022-07-21T15:04:16Z</time>
      </trkpt>
      <trkpt lat="47.1144790" lon="6.7448680">
        <ele>909.4</ele>
        <time>2022-07-21T15:04:17Z</time>
      </trkpt>
      <trkpt lat="47.1144690" lon="6.7448630">
        <ele>909.3</ele>
        <time>2022-07-21T15:04:18Z</time>
      </trkpt>
      <trkpt lat="47.1144390" lon="6.7448500">
        <ele>909.0</ele>
        <time>2022-07-21T15:04:19Z</time>
      </trkpt>
      <trkpt lat="47.1144310" lon="6.7448470">
        <ele>908.9</ele>
        <time>2022-07-21T15:04:20Z</time>
      </trkpt>
      <trkpt lat="47.1144020" lon="6.7448340">
        <ele>908.6</ele>
        <time>2022-07-21T15:04:21Z</time>
      </trkpt>
      <trkpt lat="47.1143920" lon="6.7448290">
        <ele>908.5</ele>
        <time>2022-07-21T15:04:22Z</time>
      </trkpt>
      <trkpt lat="47.1143660" lon="6.7448080">
        <ele>908.2</ele>
        <time>2022-07-21T15:04:23Z</time>
      </trkpt>
      <trkpt lat="47.1143580" lon="6.7448000">
        <ele>908.2</ele>
        <time>2022-07-21T15:04:24Z</time>
      </trkpt>
      <trkpt lat="47.1143290" lon="6.7447740">
        <ele>907.9</ele>
        <time>2022-07-21T15:04:25Z</time>
      </trkpt>
      <trkpt lat="47.1143180" lon="6.7447650">
        <ele>907.7</ele>
        <time>2022-07-21T15:04:26Z</time>
      </trkpt>
      <trkpt lat="47.1142850" lon="6.7447430">
        <ele>907.4</ele>
        <time>2022-07-21T15:04:27Z</time>
      </trkpt>
      <trkpt lat="47.1142720" lon="6.7447350">
        <ele>907.3</ele>
        <time>2022-07-21T15:04:28Z</time>
      </trkpt>
      <trkpt lat="47.1142440" lon="6.7447140">
        <ele>907.0</ele>
        <time>2022-07-21T15:04:29Z</time>
      </trkpt>
      <trkpt lat="47.1142360" lon="6.7447070">
        <ele>906.9</ele>
        <time>2022-07-21T15:04:30Z</time>
      </trkpt>
      <trkpt lat="47.1142130" lon="6.7446770">
        <ele>906.6</ele>
        <time>2022-07-21T15:04:31Z</time>
      </trkpt>
      <trkpt lat="47.1142050" lon="6.7446670">
        <ele>906.5</ele>
        <time>2022-07-21T15:04:32Z</time>
      </trkpt>
      <trkpt lat="47.1141820" lon="6.7446420">
        <ele>906.1</ele>
        <time>2022-07-21T15:04:33Z</time>
      </trkpt>
      <trkpt lat="47.1141750" lon="6.7446350">
        <ele>906.0</ele>
        <time>2022-07-21T15:04:34Z</time>
      </trkpt>
      <trkpt lat="47.1141610" lon="6.7446210">
        <ele>905.8</ele>
        <time>2022-07-21T15:04:35Z</time>
      </trkpt>
      <trkpt lat="47.1141520" lon="6.7446100">
        <ele>905.7</ele>
        <time>2022-07-21T15:04:36Z</time>
      </trkpt>
      <trkpt lat="47.1141390" lon="6.7445880">
        <ele>905.4</ele>
        <time>2022-07-21T15:04:37Z</time>
      </trkpt>
      <trkpt lat="47.1141330" lon="6.7445760">
        <ele>905.3</ele>
        <time>2022-07-21T15:04:38Z</time>
      </trkpt>
      <trkpt lat="47.1141270" lon="6.7445640">
        <ele>905.2</ele>
        <time>2022-07-21T15:04:39Z</time>
      </trkpt>
      <trkpt lat="47.1141110" lon="6.7445350">
        <ele>904.8</ele>
        <time>2022-07-21T15:04:40Z</time>
      </trkpt>
      <trkpt lat="47.1141030" lon="6.7445220">
        <ele>904.7</ele>
        <time>2022-07-21T15:04:41Z</time>
      </trkpt>
      <trkpt lat="47.1140940" lon="6.7445050">
        <ele>904.5</ele>
        <time>2022-07-21T15:04:42Z</time>
      </trkpt>
      <trkpt lat="47.1140810" lon="6.7444820">
        <ele>904.2</ele>
        <time>2022-07-21T15:04:43Z</time>
      </trkpt>
      <trkpt lat="47.1140610" lon="6.7444520">
        <ele>903.8</ele>
        <time>2022-07-21T15:04:44Z</time>
      </trkpt>
      <trkpt lat="47.1140540" lon="6.7444410">
        <ele>903.6</ele>
        <time>2022-07-21T15:04:45Z</time>
      </trkpt>
      <trkpt lat="47.1140410" lon="6.7444250">
        <ele>903.4</ele>
        <time>2022-07-21T15:04:46Z</time>
      </trkpt>
      <trkpt lat="47.1140320" lon="6.7444100">
        <ele>903.2</ele>
        <time>2022-07-21T15:04:47Z</time>
      </trkpt>
      <trkpt lat="47.1140120" lon="6.7443830">
        <ele>902.8</ele>
        <time>2022-07-21T15:04:48Z</time>
      </trkpt>
      <trkpt lat="47.1140060" lon="6.7443730">
        <ele>902.6</ele>
        <time>2022-07-21T15:04:49Z</time>
      </trkpt>
      <trkpt lat="47.1139770" lon="6.7443410">
        <ele>902.1</ele>
        <time>2022-07-21T15:04:50Z</time>
      </trkpt>
      <trkpt lat="47.1139680" lon="6.7443300">
        <ele>901.9</ele>
        <time>2022-07-21T15:04:51Z</time>
      </trkpt>
      <trkpt lat="47.1139470" lon="6.7443000">
        <ele>901.5</ele>
        <time>2022-07-21T15:04:52Z</time>
      </trkpt>
      <trkpt lat="47.1139390" lon="6.7442870">
        <ele>901.3</ele>
        <time>2022-07-21T15:04:53Z</time>
      </trkpt>
      <trkpt lat="47.1139160" lon="6.7442560">
        <ele>900.9</ele>
        <time>2022-07-21T15:04:54Z</time>
      </trkpt>
      <trkpt lat="47.1139070" lon="6.7442460">
        <ele>900.7</ele>
        <time>2022-07-21T15:04:55Z</time>
      </trkpt>
      <trkpt lat="47.1138730" lon="6.7442090">
        <ele>900.2</ele>
        <time>2022-07-21T15:04:56Z</time>
      </trkpt>
      <trkpt lat="47.1138610" lon="6.7441950">
        <ele>899.9</ele>
        <time>2022-07-21T15:04:57Z</time>
      </trkpt>
      <trkpt lat="47.1138310" lon="6.7441670">
        <ele>899.5</ele>
        <time>2022-07-21T15:04:58Z</time>
      </trkpt>
      <trkpt lat="47.1137970" lon="6.7441370">
        <ele>898.9</ele>
        <time>2022-07-21T15:04:59Z</time>
      </trkpt>
      <trkpt lat="47.1137680" lon="6.7441110">
        <ele>898.4</ele>
        <time>2022-07-21T15:05:00Z</time>
      </trkpt>
      <trkpt lat="47.1137420" lon="6.7440830">
        <ele>898.0</ele>
        <time>2022-07-21T15:05:01Z</time>
      </trkpt>
      <trkpt lat="47.1137220" lon="6.7440470">
        <ele>897.6</ele>
        <time>2022-07-21T15:05:02Z</time>
      </trkpt>
      <trkpt lat="47.1137170" lon="6.7440340">
        <ele>897.4</ele>
        <time>2022-07-21T15:05:03Z</time>
      </trkpt>
      <trkpt lat="47.1137010" lon="6.7439950">
        <ele>897.0</ele>
        <time>2022-07-21T15:05:04Z</time>
      </trkpt>
      <trkpt lat="47.1136950" lon="6.7439830">
        <ele>896.9</ele>
        <time>2022-07-21T15:05:05Z</time>
      </trkpt>
      <trkpt lat="47.1136780" lon="6.7439620">
        <ele>896.6</ele>
        <time>2022-07-21T15:05:06Z</time>
      </trkpt>
      <trkpt lat="47.1136720" lon="6.7439450">
        <ele>896.4</ele>
        <time>2022-07-21T15:05:07Z</time>
      </trkpt>
      <trkpt lat="47.1136710" lon="6.7439380">
        <ele>896.3</ele>
        <time>2022-07-21T15:05:08Z</time>
      </trkpt>
      <trkpt lat="47.1136700" lon="6.7439310">
        <ele>896.2</ele>
        <time>2022-07-21T15:05:09Z</time>
      </trkpt>
      <trkpt lat="47.1136690" lon="6.7439230">
        <ele>896.2</ele>
        <time>2022-07-21T15:05:10Z</time>
      </trkpt>
      <trkpt lat="47.1136670" lon="6.7439130">
        <ele>896.1</ele>
        <time>2022-07-21T15:05:11Z</time>
      </trkpt>
      <trkpt lat="47.1136640" lon="6.7438950">
        <ele>895.9</ele>
        <time>2022-07-21T15:05:12Z</time>
      </trkpt>
      <trkpt lat="47.1136600" lon="6.7438770">
        <ele>895.7</ele>
        <time>2022-07-21T15:05:13Z</time>
      </trkpt>
      <trkpt lat="47.1136590" lon="6.7438630">
        <ele>895.5</ele>
        <time>2022-07-21T15:05:14Z</time>
      </trkpt>
      <trkpt lat="47.1136570" lon="6.7438490">
        <ele>895.4</ele>
        <time>2022-07-21T15:05:15Z</time>
      </trkpt>
      <trkpt lat="47.1136540" lon="6.7438410">
        <ele>895.3</ele>
        <time>2022-07-21T15:05:16Z</time>
      </trkpt>
      <trkpt lat="47.1136510" lon="6.7438360">
        <ele>895.2</ele>
        <time>2022-07-21T15:05:17Z</time>
      </trkpt>
      <trkpt lat="47.1136510" lon="6.7438330">
        <ele>895.2</ele>
        <time>2022-07-21T15:05:18Z</time>
      </trkpt>
      <trkpt lat="47.1136540" lon="6.7438340">
        <ele>895.2</ele>
        <time>2022-07-21T15:05:19Z</time>
      </trkpt>
      <trkpt lat="47.1136560" lon="6.7438250">
        <ele>895.1</ele>
        <time>2022-07-21T15:05:20Z</time>
      </trkpt>
      <trkpt lat="47.1136580" lon="6.7438090">
        <ele>894.9</ele>
        <time>2022-07-21T15:05:21Z</time>
      </trkpt>
      <trkpt lat="47.1136590" lon="6.7437840">
        <ele>894.6</ele>
        <time>2022-07-21T15:05:22Z</time>
      </trkpt>
      <trkpt lat="47.1136560" lon="6.7437680">
        <ele>894.4</ele>
        <time>2022-07-21T15:05:23Z</time>
      </trkpt>
      <trkpt lat="47.1136500" lon="6.7437530">
        <ele>894.2</ele>
        <time>2022-07-21T15:05:24Z</time>
      </trkpt>
      <trkpt lat="47.1136420" lon="6.7437420">
        <ele>894.0</ele>
        <time>2022-07-21T15:05:25Z</time>
      </trkpt>
      <trkpt lat="47.1136370" lon="6.7437290">
        <ele>893.8</ele>
        <time>2022-07-21T15:05:26Z</time>
      </trkpt>
      <trkpt lat="47.1136330" lon="6.7437180">
        <ele>893.7</ele>
        <time>2022-07-21T15:05:27Z</time>
      </trkpt>
      <trkpt lat="47.1136280" lon="6.7437050">
        <ele>893.5</ele>
        <time>2022-07-21T15:05:28Z</time>
      </trkpt>
      <trkpt lat="47.1136170" lon="6.7436860">
        <ele>893.2</ele>
        <time>2022-07-21T15:05:29Z</time>
      </trkpt>
      <trkpt lat="47.1136100" lon="6.7436720">
        <ele>893.0</ele>
        <time>2022-07-21T15:05:30Z</time>
      </trkpt>
      <trkpt lat="47.1135990" lon="6.7436550">
        <ele>892.7</ele>
        <time>2022-07-21T15:05:31Z</time>
      </trkpt>
      <trkpt lat="47.1135830" lon="6.7436330">
        <ele>892.3</ele>
        <time>2022-07-21T15:05:32Z</time>
      </trkpt>
      <trkpt lat="47.1135770" lon="6.7436210">
        <ele>892.0</ele>
        <time>2022-07-21T15:05:33Z</time>
      </trkpt>
      <trkpt lat="47.1135760" lon="6.7436100">
        <ele>891.9</ele>
        <time>2022-07-21T15:05:34Z</time>
      </trkpt>
      <trkpt lat="47.1135820" lon="6.7435950">
        <ele>891.7</ele>
        <time>2022-07-21T15:05:35Z</time>
      </trkpt>
      <trkpt lat="47.1135820" lon="6.7435850">
        <ele>891.5</ele>
        <time>2022-07-21T15:05:36Z</time>
      </trkpt>
      <trkpt lat="47.1135830" lon="6.7435780">
        <ele>891.4</ele>
        <time>2022-07-21T15:05:37Z</time>
      </trkpt>
      <trkpt lat="47.1135850" lon="6.7435460">
        <ele>891.0</ele>
        <time>2022-07-21T15:05:38Z</time>
      </trkpt>
      <trkpt lat="47.1135820" lon="6.7435230">
        <ele>890.7</ele>
        <time>2022-07-21T15:05:39Z</time>
      </trkpt>
      <trkpt lat="47.1135790" lon="6.7434990">
        <ele>890.3</ele>
        <time>2022-07-21T15:05:40Z</time>
      </trkpt>
      <trkpt lat="47.1135600" lon="6.7434610">
        <ele>889.7</ele>
        <time>2022-07-21T15:05:41Z</time>
      </trkpt>
      <trkpt lat="47.1135380" lon="6.7434290">
        <ele>889.1</ele>
        <time>2022-07-21T15:05:42Z</time>
      </trkpt>
      <trkpt lat="47.1135180" lon="6.7433900">
        <ele>888.4</ele>
        <time>2022-07-21T15:05:43Z</time>
      </trkpt>
      <trkpt lat="47.1135060" lon="6.7433450">
        <ele>887.8</ele>
        <time>2022-07-21T15:05:44Z</time>
      </trkpt>
      <trkpt lat="47.1135030" lon="6.7433270">
        <ele>887.6</ele>
        <time>2022-07-21T15:05:45Z</time>
      </trkpt>
      <trkpt lat="47.1134960" lon="6.7432730">
        <ele>886.9</ele>
        <time>2022-07-21T15:05:46Z</time>
      </trkpt>
      <trkpt lat="47.1134940" lon="6.7432560">
        <ele>886.6</ele>
        <time>2022-07-21T15:05:47Z</time>
      </trkpt>
      <trkpt lat="47.1134940" lon="6.7432080">
        <ele>886.1</ele>
        <time>2022-07-21T15:05:48Z</time>
      </trkpt>
      <trkpt lat="47.1134960" lon="6.7431920">
        <ele>885.9</ele>
        <time>2022-07-21T15:05:49Z</time>
      </trkpt>
      <trkpt lat="47.1135050" lon="6.7431380">
        <ele>885.2</ele>
        <time>2022-07-21T15:05:50Z</time>
      </trkpt>
      <trkpt lat="47.1135070" lon="6.7431170">
        <ele>885.0</ele>
        <time>2022-07-21T15:05:51Z</time>
      </trkpt>
      <trkpt lat="47.1135010" lon="6.7430690">
        <ele>884.4</ele>
        <time>2022-07-21T15:05:52Z</time>
      </trkpt>
      <trkpt lat="47.1134970" lon="6.7430560">
        <ele>884.2</ele>
        <time>2022-07-21T15:05:53Z</time>
      </trkpt>
      <trkpt lat="47.1134870" lon="6.7430190">
        <ele>883.8</ele>
        <time>2022-07-21T15:05:54Z</time>
      </trkpt>
      <trkpt lat="47.1134850" lon="6.7430060">
        <ele>883.6</ele>
        <time>2022-07-21T15:05:55Z</time>
      </trkpt>
      <trkpt lat="47.1134850" lon="6.7429640">
        <ele>883.2</ele>
        <time>2022-07-21T15:05:56Z</time>
      </trkpt>
      <trkpt lat="47.1134860" lon="6.7429470">
        <ele>883.0</ele>
        <time>2022-07-21T15:05:57Z</time>
      </trkpt>
      <trkpt lat="47.1134870" lon="6.7428920">
        <ele>882.3</ele>
        <time>2022-07-21T15:05:58Z</time>
      </trkpt>
      <trkpt lat="47.1134860" lon="6.7428730">
        <ele>882.1</ele>
        <time>2022-07-21T15:05:59Z</time>
      </trkpt>
      <trkpt lat="47.1134790" lon="6.7428330">
        <ele>881.7</ele>
        <time>2022-07-21T15:06:00Z</time>
      </trkpt>
      <trkpt lat="47.1134740" lon="6.7427900">
        <ele>881.2</ele>
        <time>2022-07-21T15:06:01Z</time>
      </trkpt>
      <trkpt lat="47.1134670" lon="6.7427380">
        <ele>880.5</ele>
        <time>2022-07-21T15:06:02Z</time>
      </trkpt>
      <trkpt lat="47.1134640" lon="6.7427190">
        <ele>880.3</ele>
        <time>2022-07-21T15:06:03Z</time>
      </trkpt>
      <trkpt lat="47.1134490" lon="6.7426590">
        <ele>879.6</ele>
        <time>2022-07-21T15:06:04Z</time>
      </trkpt>
      <trkpt lat="47.1134420" lon="6.7426350">
        <ele>879.2</ele>
        <time>2022-07-21T15:06:05Z</time>
      </trkpt>
      <trkpt lat="47.1134270" lon="6.7425780">
        <ele>878.5</ele>
        <time>2022-07-21T15:06:06Z</time>
      </trkpt>
      <trkpt lat="47.1134100" lon="6.7425070">
        <ele>877.7</ele>
        <time>2022-07-21T15:06:07Z</time>
      </trkpt>
      <trkpt lat="47.1133920" lon="6.7424390">
        <ele>876.8</ele>
        <time>2022-07-21T15:06:08Z</time>
      </trkpt>
      <trkpt lat="47.1133760" lon="6.7423950">
        <ele>876.3</ele>
        <time>2022-07-21T15:06:09Z</time>
      </trkpt>
      <trkpt lat="47.1133570" lon="6.7423480">
        <ele>875.7</ele>
        <time>2022-07-21T15:06:10Z</time>
      </trkpt>
      <trkpt lat="47.1133400" lon="6.7423070">
        <ele>875.1</ele>
        <time>2022-07-21T15:06:11Z</time>
      </trkpt>
      <trkpt lat="47.1133330" lon="6.7422850">
        <ele>874.9</ele>
        <time>2022-07-21T15:06:12Z</time>
      </trkpt>
      <trkpt lat="47.1133310" lon="6.7422760">
        <ele>874.8</ele>
        <time>2022-07-21T15:06:13Z</time>
      </trkpt>
      <trkpt lat="47.1133320" lon="6.7422650">
        <ele>874.6</ele>
        <time>2022-07-21T15:06:14Z</time>
      </trkpt>
      <trkpt lat="47.1133330" lon="6.7422520">
        <ele>874.5</ele>
        <time>2022-07-21T15:06:15Z</time>
      </trkpt>
      <trkpt lat="47.1133370" lon="6.7422470">
        <ele>874.4</ele>
        <time>2022-07-21T15:06:16Z</time>
      </trkpt>
      <trkpt lat="47.1133400" lon="6.7422460">
        <ele>874.4</ele>
        <time>2022-07-21T15:06:17Z</time>
      </trkpt>
      <trkpt lat="47.1133450" lon="6.7422470">
        <ele>874.3</ele>
        <time>2022-07-21T15:06:18Z</time>
      </trkpt>
      <trkpt lat="47.1133450" lon="6.7422360">
        <ele>874.1</ele>
        <time>2022-07-21T15:06:19Z</time>
      </trkpt>
      <trkpt lat="47.1133420" lon="6.7422240">
        <ele>874.0</ele>
        <time>2022-07-21T15:06:20Z</time>
      </trkpt>
      <trkpt lat="47.1133400" lon="6.7422120">
        <ele>873.9</ele>
        <time>2022-07-21T15:06:21Z</time>
      </trkpt>
      <trkpt lat="47.1133360" lon="6.7421960">
        <ele>873.7</ele>
        <time>2022-07-21T15:06:22Z</time>
      </trkpt>
      <trkpt lat="47.1133300" lon="6.7421760">
        <ele>873.4</ele>
        <time>2022-07-21T15:06:23Z</time>
      </trkpt>
      <trkpt lat="47.1133260" lon="6.7421610">
        <ele>873.2</ele>
        <time>2022-07-21T15:06:24Z</time>
      </trkpt>
      <trkpt lat="47.1133200" lon="6.7421380">
        <ele>872.9</ele>
        <time>2022-07-21T15:06:25Z</time>
      </trkpt>
      <trkpt lat="47.1133130" lon="6.7421070">
        <ele>872.5</ele>
        <time>2022-07-21T15:06:26Z</time>
      </trkpt>
      <trkpt lat="47.1133110" lon="6.7420960">
        <ele>872.4</ele>
        <time>2022-07-21T15:06:27Z</time>
      </trkpt>
      <trkpt lat="47.1133090" lon="6.7420860">
        <ele>872.3</ele>
        <time>2022-07-21T15:06:28Z</time>
      </trkpt>
      <trkpt lat="47.1133080" lon="6.7420640">
        <ele>872.0</ele>
        <time>2022-07-21T15:06:29Z</time>
      </trkpt>
      <trkpt lat="47.1133080" lon="6.7420530">
        <ele>871.9</ele>
        <time>2022-07-21T15:06:30Z</time>
      </trkpt>
      <trkpt lat="47.1133070" lon="6.7420450">
        <ele>871.8</ele>
        <time>2022-07-21T15:06:31Z</time>
      </trkpt>
      <trkpt lat="47.1133030" lon="6.7420340">
        <ele>871.6</ele>
        <time>2022-07-21T15:06:32Z</time>
      </trkpt>
      <trkpt lat="47.1132990" lon="6.7420190">
        <ele>871.4</ele>
        <time>2022-07-21T15:06:33Z</time>
      </trkpt>
      <trkpt lat="47.1132960" lon="6.7420020">
        <ele>871.2</ele>
        <time>2022-07-21T15:06:34Z</time>
      </trkpt>
      <trkpt lat="47.1132940" lon="6.7419810">
        <ele>870.9</ele>
        <time>2022-07-21T15:06:35Z</time>
      </trkpt>
      <trkpt lat="47.1132960" lon="6.7419610">
        <ele>870.7</ele>
        <time>2022-07-21T15:06:36Z</time>
      </trkpt>
      <trkpt lat="47.1132920" lon="6.7419390">
        <ele>870.4</ele>
        <time>2022-07-21T15:06:37Z</time>
      </trkpt>
      <trkpt lat="47.1132880" lon="6.7419170">
        <ele>870.1</ele>
        <time>2022-07-21T15:06:38Z</time>
      </trkpt>
      <trkpt lat="47.1132870" lon="6.7418970">
        <ele>869.8</ele>
        <time>2022-07-21T15:06:39Z</time>
      </trkpt>
      <trkpt lat="47.1132860" lon="6.7418820">
        <ele>869.6</ele>
        <time>2022-07-21T15:06:40Z</time>
      </trkpt>
      <trkpt lat="47.1132850" lon="6.7418650">
        <ele>869.4</ele>
        <time>2022-07-21T15:06:41Z</time>
      </trkpt>
      <trkpt lat="47.1132860" lon="6.7418350">
        <ele>869.0</ele>
        <time>2022-07-21T15:06:42Z</time>
      </trkpt>
      <trkpt lat="47.1132860" lon="6.7418230">
        <ele>868.8</ele>
        <time>2022-07-21T15:06:43Z</time>
      </trkpt>
      <trkpt lat="47.1132860" lon="6.7418100">
        <ele>868.6</ele>
        <time>2022-07-21T15:06:44Z</time>
      </trkpt>
      <trkpt lat="47.1132870" lon="6.7417980">
        <ele>868.4</ele>
        <time>2022-07-21T15:06:45Z</time>
      </trkpt>
      <trkpt lat="47.1132850" lon="6.7417810">
        <ele>868.2</ele>
        <time>2022-07-21T15:06:46Z</time>
      </trkpt>
      <trkpt lat="47.1132840" lon="6.7417710">
        <ele>868.0</ele>
        <time>2022-07-21T15:06:47Z</time>
      </trkpt>
      <trkpt lat="47.1132820" lon="6.7417600">
        <ele>867.9</ele>
        <time>2022-07-21T15:06:48Z</time>
      </trkpt>
      <trkpt lat="47.1132800" lon="6.7417460">
        <ele>867.7</ele>
        <time>2022-07-21T15:06:49Z</time>
      </trkpt>
      <trkpt lat="47.1132780" lon="6.7417350">
        <ele>867.5</ele>
        <time>2022-07-21T15:06:50Z</time>
      </trkpt>
      <trkpt lat="47.1132750" lon="6.7417240">
        <ele>867.3</ele>
        <time>2022-07-21T15:06:51Z</time>
      </trkpt>
      <trkpt lat="47.1132690" lon="6.7417090">
        <ele>867.0</ele>
        <time>2022-07-21T15:06:52Z</time>
      </trkpt>
      <trkpt lat="47.1132610" lon="6.7416950">
        <ele>866.7</ele>
        <time>2022-07-21T15:06:53Z</time>
      </trkpt>
      <trkpt lat="47.1132550" lon="6.7416830">
        <ele>866.5</ele>
        <time>2022-07-21T15:06:54Z</time>
      </trkpt>
      <trkpt lat="47.1132490" lon="6.7416780">
        <ele>866.3</ele>
        <time>2022-07-21T15:06:55Z</time>
      </trkpt>
      <trkpt lat="47.1132510" lon="6.7416500">
        <ele>865.9</ele>
        <time>2022-07-21T15:06:56Z</time>
      </trkpt>
      <trkpt lat="47.1132490" lon="6.7416320">
        <ele>865.6</ele>
        <time>2022-07-21T15:06:57Z</time>
      </trkpt>
      <trkpt lat="47.1132460" lon="6.7416170">
        <ele>865.4</ele>
        <time>2022-07-21T15:06:58Z</time>
      </trkpt>
      <trkpt lat="47.1132430" lon="6.7416090">
        <ele>865.2</ele>
        <time>2022-07-21T15:06:59Z</time>
      </trkpt>
      <trkpt lat="47.1132410" lon="6.7415980">
        <ele>865.1</ele>
        <time>2022-07-21T15:07:01Z</time>
      </trkpt>
      <trkpt lat="47.1132390" lon="6.7415820">
        <ele>864.8</ele>
        <time>2022-07-21T15:07:02Z</time>
      </trkpt>
      <trkpt lat="47.1132320" lon="6.7415710">
        <ele>864.6</ele>
        <time>2022-07-21T15:07:03Z</time>
      </trkpt>
      <trkpt lat="47.1132250" lon="6.7415660">
        <ele>864.4</ele>
        <time>2022-07-21T15:07:04Z</time>
      </trkpt>
      <trkpt lat="47.1132230" lon="6.7415710">
        <ele>864.3</ele>
        <time>2022-07-21T15:07:05Z</time>
      </trkpt>
      <trkpt lat="47.1132220" lon="6.7415780">
        <ele>864.2</ele>
        <time>2022-07-21T15:07:06Z</time>
      </trkpt>
      <trkpt lat="47.1132210" lon="6.7415820">
        <ele>864.1</ele>
        <time>2022-07-21T15:07:07Z</time>
      </trkpt>
      <trkpt lat="47.1132190" lon="6.7415870">
        <ele>864.0</ele>
        <time>2022-07-21T15:07:08Z</time>
      </trkpt>
      <trkpt lat="47.1132180" lon="6.7415880">
        <ele>864.0</ele>
        <time>2022-07-21T15:07:10Z</time>
      </trkpt>
      <trkpt lat="47.1132170" lon="6.7415890">
        <ele>864.0</ele>
        <time>2022-07-21T15:07:11Z</time>
      </trkpt>
      <trkpt lat="47.1132150" lon="6.7415860">
        <ele>863.9</ele>
        <time>2022-07-21T15:07:12Z</time>
      </trkpt>
      <trkpt lat="47.1132060" lon="6.7415680">
        <ele>863.5</ele>
        <time>2022-07-21T15:07:13Z</time>
      </trkpt>
      <trkpt lat="47.1131980" lon="6.7415550">
        <ele>863.2</ele>
        <time>2022-07-21T15:07:14Z</time>
      </trkpt>
      <trkpt lat="47.1131900" lon="6.7415430">
        <ele>863.0</ele>
        <time>2022-07-21T15:07:15Z</time>
      </trkpt>
      <trkpt lat="47.1131820" lon="6.7415310">
        <ele>862.7</ele>
        <time>2022-07-21T15:07:16Z</time>
      </trkpt>
      <trkpt lat="47.1131650" lon="6.7415070">
        <ele>862.1</ele>
        <time>2022-07-21T15:07:17Z</time>
      </trkpt>
      <trkpt lat="47.1131540" lon="6.7414870">
        <ele>861.7</ele>
        <time>2022-07-21T15:07:19Z</time>
      </trkpt>
      <trkpt lat="47.1131540" lon="6.7414810">
        <ele>861.6</ele>
        <time>2022-07-21T15:07:20Z</time>
      </trkpt>
      <trkpt lat="47.1131540" lon="6.7414780">
        <ele>861.6</ele>
        <time>2022-07-21T15:07:21Z</time>
      </trkpt>
      <trkpt lat="47.1131560" lon="6.7414780">
        <ele>861.5</ele>
        <time>2022-07-21T15:07:22Z</time>
      </trkpt>
      <trkpt lat="47.1131570" lon="6.7414790">
        <ele>861.5</ele>
        <time>2022-07-21T15:07:23Z</time>
      </trkpt>
      <trkpt lat="47.1131580" lon="6.7414780">
        <ele>861.5</ele>
        <time>2022-07-21T15:07:24Z</time>
      </trkpt>
      <trkpt lat="47.1131590" lon="6.7414710">
        <ele>861.3</ele>
        <time>2022-07-21T15:07:25Z</time>
      </trkpt>
      <trkpt lat="47.1131600" lon="6.7414580">
        <ele>861.1</ele>
        <time>2022-07-21T15:07:27Z</time>
      </trkpt>
      <trkpt lat="47.1131630" lon="6.7414490">
        <ele>861.0</ele>
        <time>2022-07-21T15:07:28Z</time>
      </trkpt>
      <trkpt lat="47.1131720" lon="6.7414040">
        <ele>860.2</ele>
        <time>2022-07-21T15:07:29Z</time>
      </trkpt>
      <trkpt lat="47.1131860" lon="6.7413150">
        <ele>858.7</ele>
        <time>2022-07-21T15:07:30Z</time>
      </trkpt>
      <trkpt lat="47.1131950" lon="6.7412190">
        <ele>857.3</ele>
        <time>2022-07-21T15:07:31Z</time>
      </trkpt>
      <trkpt lat="47.1131980" lon="6.7411160">
        <ele>855.9</ele>
        <time>2022-07-21T15:07:32Z</time>
      </trkpt>
      <trkpt lat="47.1131910" lon="6.7410150">
        <ele>854.7</ele>
        <time>2022-07-21T15:07:33Z</time>
      </trkpt>
      <trkpt lat="47.1131780" lon="6.7409260">
        <ele>853.7</ele>
        <time>2022-07-21T15:07:34Z</time>
      </trkpt>
      <trkpt lat="47.1131600" lon="6.7408370">
        <ele>852.8</ele>
        <time>2022-07-21T15:07:35Z</time>
      </trkpt>
      <trkpt lat="47.1131510" lon="6.7407560">
        <ele>852.1</ele>
        <time>2022-07-21T15:07:36Z</time>
      </trkpt>
      <trkpt lat="47.1131610" lon="6.7406850">
        <ele>851.5</ele>
        <time>2022-07-21T15:07:37Z</time>
      </trkpt>
      <trkpt lat="47.1131660" lon="6.7406170">
        <ele>851.0</ele>
        <time>2022-07-21T15:07:38Z</time>
      </trkpt>
      <trkpt lat="47.1131670" lon="6.7405610">
        <ele>850.7</ele>
        <time>2022-07-21T15:07:39Z</time>
      </trkpt>
      <trkpt lat="47.1131730" lon="6.7405330">
        <ele>850.5</ele>
        <time>2022-07-21T15:07:40Z</time>
      </trkpt>
      <trkpt lat="47.1131760" lon="6.7405070">
        <ele>850.3</ele>
        <time>2022-07-21T15:07:41Z</time>
      </trkpt>
      <trkpt lat="47.1131880" lon="6.7404510">
        <ele>850.0</ele>
        <time>2022-07-21T15:07:42Z</time>
      </trkpt>
      <trkpt lat="47.1131970" lon="6.7404080">
        <ele>849.7</ele>
        <time>2022-07-21T15:07:43Z</time>
      </trkpt>
      <trkpt lat="47.1132000" lon="6.7403810">
        <ele>849.6</ele>
        <time>2022-07-21T15:07:44Z</time>
      </trkpt>
      <trkpt lat="47.1132030" lon="6.7403650">
        <ele>849.5</ele>
        <time>2022-07-21T15:07:45Z</time>
      </trkpt>
      <trkpt lat="47.1132100" lon="6.7403410">
        <ele>849.3</ele>
        <time>2022-07-21T15:07:46Z</time>
      </trkpt>
      <trkpt lat="47.1132130" lon="6.7403170">
        <ele>849.2</ele>
        <time>2022-07-21T15:07:47Z</time>
      </trkpt>
      <trkpt lat="47.1132130" lon="6.7403080">
        <ele>849.1</ele>
        <time>2022-07-21T15:07:48Z</time>
      </trkpt>
      <trkpt lat="47.1132100" lon="6.7403040">
        <ele>849.1</ele>
        <time>2022-07-21T15:07:49Z</time>
      </trkpt>
      <trkpt lat="47.1132080" lon="6.7403020">
        <ele>849.1</ele>
        <time>2022-07-21T15:07:50Z</time>
      </trkpt>
      <trkpt lat="47.1132050" lon="6.7403020">
        <ele>849.0</ele>
        <time>2022-07-21T15:07:51Z</time>
      </trkpt>
      <trkpt lat="47.1132000" lon="6.7403050">
        <ele>849.0</ele>
        <time>2022-07-21T15:07:52Z</time>
      </trkpt>
      <trkpt lat="47.1131960" lon="6.7403080">
        <ele>849.0</ele>
        <time>2022-07-21T15:07:53Z</time>
      </trkpt>
      <trkpt lat="47.1131920" lon="6.7403120">
        <ele>848.9</ele>
        <time>2022-07-21T15:07:54Z</time>
      </trkpt>
      <trkpt lat="47.1131870" lon="6.7403180">
        <ele>848.9</ele>
        <time>2022-07-21T15:07:55Z</time>
      </trkpt>
      <trkpt lat="47.1131830" lon="6.7403230">
        <ele>848.8</ele>
        <time>2022-07-21T15:07:56Z</time>
      </trkpt>
      <trkpt lat="47.1131800" lon="6.7403280">
        <ele>848.8</ele>
        <time>2022-07-21T15:07:57Z</time>
      </trkpt>
      <trkpt lat="47.1131770" lon="6.7403310">
        <ele>848.8</ele>
        <time>2022-07-21T15:07:58Z</time>
      </trkpt>
      <trkpt lat="47.1131940" lon="6.7402740">
        <ele>848.4</ele>
        <time>2022-07-21T15:08:04Z</time>
      </trkpt>
      <trkpt lat="47.1131290" lon="6.7401260">
        <ele>847.3</ele>
        <time>2022-07-21T15:08:06Z</time>
      </trkpt>
      <trkpt lat="47.1130870" lon="6.7400670">
        <ele>846.8</ele>
        <time>2022-07-21T15:08:07Z</time>
      </trkpt>
      <trkpt lat="47.1130510" lon="6.7400200">
        <ele>846.3</ele>
        <time>2022-07-21T15:08:08Z</time>
      </trkpt>
      <trkpt lat="47.1130420" lon="6.7399430">
        <ele>845.9</ele>
        <time>2022-07-21T15:08:09Z</time>
      </trkpt>
      <trkpt lat="47.1130150" lon="6.7398930">
        <ele>845.5</ele>
        <time>2022-07-21T15:08:11Z</time>
      </trkpt>
      <trkpt lat="47.1129960" lon="6.7398630">
        <ele>845.3</ele>
        <time>2022-07-21T15:08:12Z</time>
      </trkpt>
      <trkpt lat="47.1129900" lon="6.7398530">
        <ele>845.2</ele>
        <time>2022-07-21T15:08:13Z</time>
      </trkpt>
      <trkpt lat="47.1130170" lon="6.7398600">
        <ele>845.0</ele>
        <time>2022-07-21T15:08:14Z</time>
      </trkpt>
      <trkpt lat="47.1130270" lon="6.7398620">
        <ele>844.9</ele>
        <time>2022-07-21T15:08:15Z</time>
      </trkpt>
      <trkpt lat="47.1130340" lon="6.7398650">
        <ele>844.8</ele>
        <time>2022-07-21T15:08:16Z</time>
      </trkpt>
      <trkpt lat="47.1130460" lon="6.7398650">
        <ele>844.7</ele>
        <time>2022-07-21T15:08:18Z</time>
      </trkpt>
      <trkpt lat="47.1130510" lon="6.7398560">
        <ele>844.6</ele>
        <time>2022-07-21T15:08:19Z</time>
      </trkpt>
      <trkpt lat="47.1130490" lon="6.7398370">
        <ele>844.5</ele>
        <time>2022-07-21T15:08:20Z</time>
      </trkpt>
      <trkpt lat="47.1130360" lon="6.7397950">
        <ele>844.2</ele>
        <time>2022-07-21T15:08:21Z</time>
      </trkpt>
      <trkpt lat="47.1130270" lon="6.7397690">
        <ele>844.0</ele>
        <time>2022-07-21T15:08:22Z</time>
      </trkpt>
      <trkpt lat="47.1129840" lon="6.7397490">
        <ele>843.6</ele>
        <time>2022-07-21T15:08:24Z</time>
      </trkpt>
      <trkpt lat="47.1129660" lon="6.7397410">
        <ele>843.4</ele>
        <time>2022-07-21T15:08:25Z</time>
      </trkpt>
      <trkpt lat="47.1129260" lon="6.7397110">
        <ele>842.9</ele>
        <time>2022-07-21T15:08:26Z</time>
      </trkpt>
      <trkpt lat="47.1128910" lon="6.7396760">
        <ele>842.4</ele>
        <time>2022-07-21T15:08:27Z</time>
      </trkpt>
      <trkpt lat="47.1128780" lon="6.7396590">
        <ele>842.2</ele>
        <time>2022-07-21T15:08:28Z</time>
      </trkpt>
      <trkpt lat="47.1128500" lon="6.7396180">
        <ele>841.7</ele>
        <time>2022-07-21T15:08:30Z</time>
      </trkpt>
      <trkpt lat="47.1127970" lon="6.7395400">
        <ele>840.6</ele>
        <time>2022-07-21T15:08:31Z</time>
      </trkpt>
      <trkpt lat="47.1127610" lon="6.7394890">
        <ele>839.9</ele>
        <time>2022-07-21T15:08:32Z</time>
      </trkpt>
      <trkpt lat="47.1127210" lon="6.7394270">
        <ele>839.1</ele>
        <time>2022-07-21T15:08:33Z</time>
      </trkpt>
      <trkpt lat="47.1126870" lon="6.7393790">
        <ele>838.5</ele>
        <time>2022-07-21T15:08:34Z</time>
      </trkpt>
      <trkpt lat="47.1126790" lon="6.7393680">
        <ele>838.3</ele>
        <time>2022-07-21T15:08:35Z</time>
      </trkpt>
      <trkpt lat="47.1126700" lon="6.7393490">
        <ele>838.1</ele>
        <time>2022-07-21T15:08:36Z</time>
      </trkpt>
      <trkpt lat="47.1126310" lon="6.7392790">
        <ele>837.3</ele>
        <time>2022-07-21T15:08:38Z</time>
      </trkpt>
      <trkpt lat="47.1126060" lon="6.7392260">
        <ele>836.7</ele>
        <time>2022-07-21T15:08:39Z</time>
      </trkpt>
      <trkpt lat="47.1125280" lon="6.7391530">
        <ele>835.5</ele>
        <time>2022-07-21T15:08:40Z</time>
      </trkpt>
      <trkpt lat="47.1124690" lon="6.7390730">
        <ele>834.4</ele>
        <time>2022-07-21T15:08:41Z</time>
      </trkpt>
      <trkpt lat="47.1124330" lon="6.7390230">
        <ele>833.7</ele>
        <time>2022-07-21T15:08:42Z</time>
      </trkpt>
      <trkpt lat="47.1123720" lon="6.7389990">
        <ele>832.9</ele>
        <time>2022-07-21T15:08:43Z</time>
      </trkpt>
      <trkpt lat="47.1123160" lon="6.7389800">
        <ele>832.2</ele>
        <time>2022-07-21T15:08:44Z</time>
      </trkpt>
      <trkpt lat="47.1122590" lon="6.7389410">
        <ele>831.5</ele>
        <time>2022-07-21T15:08:45Z</time>
      </trkpt>
      <trkpt lat="47.1122030" lon="6.7389010">
        <ele>830.8</ele>
        <time>2022-07-21T15:08:46Z</time>
      </trkpt>
      <trkpt lat="47.1121570" lon="6.7388780">
        <ele>830.2</ele>
        <time>2022-07-21T15:08:47Z</time>
      </trkpt>
      <trkpt lat="47.1121230" lon="6.7388540">
        <ele>829.8</ele>
        <time>2022-07-21T15:08:48Z</time>
      </trkpt>
      <trkpt lat="47.1120970" lon="6.7388300">
        <ele>829.5</ele>
        <time>2022-07-21T15:08:49Z</time>
      </trkpt>
      <trkpt lat="47.1120800" lon="6.7388280">
        <ele>829.4</ele>
        <time>2022-07-21T15:08:50Z</time>
      </trkpt>
      <trkpt lat="47.1120650" lon="6.7388040">
        <ele>829.1</ele>
        <time>2022-07-21T15:08:52Z</time>
      </trkpt>
      <trkpt lat="47.1120570" lon="6.7387860">
        <ele>829.0</ele>
        <time>2022-07-21T15:08:53Z</time>
      </trkpt>
      <trkpt lat="47.1120500" lon="6.7387720">
        <ele>828.9</ele>
        <time>2022-07-21T15:08:54Z</time>
      </trkpt>
      <trkpt lat="47.1120400" lon="6.7387600">
        <ele>828.8</ele>
        <time>2022-07-21T15:08:56Z</time>
      </trkpt>
      <trkpt lat="47.1120390" lon="6.7387610">
        <ele>828.8</ele>
        <time>2022-07-21T15:08:57Z</time>
      </trkpt>
      <trkpt lat="47.1120420" lon="6.7387640">
        <ele>828.8</ele>
        <time>2022-07-21T15:08:58Z</time>
      </trkpt>
      <trkpt lat="47.1120480" lon="6.7387710">
        <ele>828.7</ele>
        <time>2022-07-21T15:08:59Z</time>
      </trkpt>
      <trkpt lat="47.1120520" lon="6.7387770">
        <ele>828.7</ele>
        <time>2022-07-21T15:09:00Z</time>
      </trkpt>
      <trkpt lat="47.1120550" lon="6.7387800">
        <ele>828.6</ele>
        <time>2022-07-21T15:09:01Z</time>
      </trkpt>
      <trkpt lat="47.1120530" lon="6.7387840">
        <ele>828.6</ele>
        <time>2022-07-21T15:09:03Z</time>
      </trkpt>
      <trkpt lat="47.1120290" lon="6.7387700">
        <ele>828.4</ele>
        <time>2022-07-21T15:09:04Z</time>
      </trkpt>
      <trkpt lat="47.1120080" lon="6.7387570">
        <ele>828.3</ele>
        <time>2022-07-21T15:09:05Z</time>
      </trkpt>
      <trkpt lat="47.1119890" lon="6.7387530">
        <ele>828.1</ele>
        <time>2022-07-21T15:09:06Z</time>
      </trkpt>
      <trkpt lat="47.1119800" lon="6.7387520">
        <ele>828.1</ele>
        <time>2022-07-21T15:09:07Z</time>
      </trkpt>
      <trkpt lat="47.1119760" lon="6.7387520">
        <ele>828.1</ele>
        <time>2022-07-21T15:09:08Z</time>
      </trkpt>
      <trkpt lat="47.1119700" lon="6.7387560">
        <ele>828.0</ele>
        <time>2022-07-21T15:09:09Z</time>
      </trkpt>
      <trkpt lat="47.1119670" lon="6.7387620">
        <ele>828.0</ele>
        <time>2022-07-21T15:09:11Z</time>
      </trkpt>
      <trkpt lat="47.1119680" lon="6.7387630">
        <ele>828.0</ele>
        <time>2022-07-21T15:09:12Z</time>
      </trkpt>
      <trkpt lat="47.1119700" lon="6.7387700">
        <ele>828.0</ele>
        <time>2022-07-21T15:09:13Z</time>
      </trkpt>
      <trkpt lat="47.1119680" lon="6.7387760">
        <ele>827.9</ele>
        <time>2022-07-21T15:09:14Z</time>
      </trkpt>
      <trkpt lat="47.1119460" lon="6.7387430">
        <ele>827.8</ele>
        <time>2022-07-21T15:09:15Z</time>
      </trkpt>
      <trkpt lat="47.1119240" lon="6.7387090">
        <ele>827.7</ele>
        <time>2022-07-21T15:09:16Z</time>
      </trkpt>
      <trkpt lat="47.1118860" lon="6.7386650">
        <ele>827.5</ele>
        <time>2022-07-21T15:09:18Z</time>
      </trkpt>
      <trkpt lat="47.1118540" lon="6.7386370">
        <ele>827.4</ele>
        <time>2022-07-21T15:09:19Z</time>
      </trkpt>
      <trkpt lat="47.1118310" lon="6.7386070">
        <ele>827.3</ele>
        <time>2022-07-21T15:09:20Z</time>
      </trkpt>
      <trkpt lat="47.1117990" lon="6.7385580">
        <ele>827.3</ele>
        <time>2022-07-21T15:09:21Z</time>
      </trkpt>
      <trkpt lat="47.1117720" lon="6.7385150">
        <ele>827.3</ele>
        <time>2022-07-21T15:09:22Z</time>
      </trkpt>
      <trkpt lat="47.1117420" lon="6.7384650">
        <ele>827.3</ele>
        <time>2022-07-21T15:09:23Z</time>
      </trkpt>
      <trkpt lat="47.1117150" lon="6.7384180">
        <ele>827.4</ele>
        <time>2022-07-21T15:09:24Z</time>
      </trkpt>
      <trkpt lat="47.1117020" lon="6.7383940">
        <ele>827.5</ele>
        <time>2022-07-21T15:09:25Z</time>
      </trkpt>
      <trkpt lat="47.1116850" lon="6.7383580">
        <ele>827.6</ele>
        <time>2022-07-21T15:09:27Z</time>
      </trkpt>
      <trkpt lat="47.1116730" lon="6.7383110">
        <ele>827.7</ele>
        <time>2022-07-21T15:09:28Z</time>
      </trkpt>
      <trkpt lat="47.1116680" lon="6.7382980">
        <ele>827.7</ele>
        <time>2022-07-21T15:09:29Z</time>
      </trkpt>
      <trkpt lat="47.1116530" lon="6.7382700">
        <ele>827.8</ele>
        <time>2022-07-21T15:09:30Z</time>
      </trkpt>
      <trkpt lat="47.1116300" lon="6.7382480">
        <ele>827.9</ele>
        <time>2022-07-21T15:09:32Z</time>
      </trkpt>
      <trkpt lat="47.1115930" lon="6.7381860">
        <ele>828.1</ele>
        <time>2022-07-21T15:09:33Z</time>
      </trkpt>
      <trkpt lat="47.1115700" lon="6.7381420">
        <ele>828.2</ele>
        <time>2022-07-21T15:09:34Z</time>
      </trkpt>
      <trkpt lat="47.1115460" lon="6.7380900">
        <ele>828.2</ele>
        <time>2022-07-21T15:09:35Z</time>
      </trkpt>
      <trkpt lat="47.1115220" lon="6.7380250">
        <ele>828.3</ele>
        <time>2022-07-21T15:09:36Z</time>
      </trkpt>
      <trkpt lat="47.1115110" lon="6.7379940">
        <ele>828.4</ele>
        <time>2022-07-21T15:09:37Z</time>
      </trkpt>
      <trkpt lat="47.1114880" lon="6.7379310">
        <ele>828.4</ele>
        <time>2022-07-21T15:09:39Z</time>
      </trkpt>
      <trkpt lat="47.1114750" lon="6.7378970">
        <ele>828.5</ele>
        <time>2022-07-21T15:09:40Z</time>
      </trkpt>
      <trkpt lat="47.1114610" lon="6.7378530">
        <ele>828.5</ele>
        <time>2022-07-21T15:09:41Z</time>
      </trkpt>
      <trkpt lat="47.1114580" lon="6.7378410">
        <ele>828.6</ele>
        <time>2022-07-21T15:09:42Z</time>
      </trkpt>
      <trkpt lat="47.1114390" lon="6.7377970">
        <ele>828.6</ele>
        <time>2022-07-21T15:09:43Z</time>
      </trkpt>
      <trkpt lat="47.1114320" lon="6.7377820">
        <ele>828.7</ele>
        <time>2022-07-21T15:09:44Z</time>
      </trkpt>
      <trkpt lat="47.1114240" lon="6.7377560">
        <ele>828.7</ele>
        <time>2022-07-21T15:09:45Z</time>
      </trkpt>
      <trkpt lat="47.1114180" lon="6.7377380">
        <ele>828.8</ele>
        <time>2022-07-21T15:09:47Z</time>
      </trkpt>
      <trkpt lat="47.1114150" lon="6.7377270">
        <ele>828.8</ele>
        <time>2022-07-21T15:09:48Z</time>
      </trkpt>
      <trkpt lat="47.1114110" lon="6.7377130">
        <ele>828.8</ele>
        <time>2022-07-21T15:09:49Z</time>
      </trkpt>
      <trkpt lat="47.1114070" lon="6.7376990">
        <ele>828.8</ele>
        <time>2022-07-21T15:09:50Z</time>
      </trkpt>
      <trkpt lat="47.1113970" lon="6.7376830">
        <ele>828.9</ele>
        <time>2022-07-21T15:09:51Z</time>
      </trkpt>
      <trkpt lat="47.1113880" lon="6.7376660">
        <ele>828.9</ele>
        <time>2022-07-21T15:09:52Z</time>
      </trkpt>
      <trkpt lat="47.1113740" lon="6.7376430">
        <ele>829.0</ele>
        <time>2022-07-21T15:09:53Z</time>
      </trkpt>
      <trkpt lat="47.1113660" lon="6.7376310">
        <ele>829.0</ele>
        <time>2022-07-21T15:09:54Z</time>
      </trkpt>
      <trkpt lat="47.1113580" lon="6.7376190">
        <ele>829.0</ele>
        <time>2022-07-21T15:09:55Z</time>
      </trkpt>
      <trkpt lat="47.1113400" lon="6.7376020">
        <ele>829.1</ele>
        <time>2022-07-21T15:09:56Z</time>
      </trkpt>
      <trkpt lat="47.1113080" lon="6.7375690">
        <ele>829.1</ele>
        <time>2022-07-21T15:09:58Z</time>
      </trkpt>
      <trkpt lat="47.1112770" lon="6.7375310">
        <ele>829.2</ele>
        <time>2022-07-21T15:09:59Z</time>
      </trkpt>
      <trkpt lat="47.1112450" lon="6.7374960">
        <ele>829.3</ele>
        <time>2022-07-21T15:10:00Z</time>
      </trkpt>
      <trkpt lat="47.1111960" lon="6.7374430">
        <ele>829.3</ele>
        <time>2022-07-21T15:10:01Z</time>
      </trkpt>
      <trkpt lat="47.1111580" lon="6.7374030">
        <ele>829.3</ele>
        <time>2022-07-21T15:10:02Z</time>
      </trkpt>
      <trkpt lat="47.1111310" lon="6.7373790">
        <ele>829.2</ele>
        <time>2022-07-21T15:10:04Z</time>
      </trkpt>
      <trkpt lat="47.1110930" lon="6.7373560">
        <ele>829.2</ele>
        <time>2022-07-21T15:10:05Z</time>
      </trkpt>
      <trkpt lat="47.1110600" lon="6.7373340">
        <ele>829.2</ele>
        <time>2022-07-21T15:10:06Z</time>
      </trkpt>
      <trkpt lat="47.1110290" lon="6.7373090">
        <ele>829.1</ele>
        <time>2022-07-21T15:10:07Z</time>
      </trkpt>
      <trkpt lat="47.1110000" lon="6.7372860">
        <ele>829.1</ele>
        <time>2022-07-21T15:10:08Z</time>
      </trkpt>
      <trkpt lat="47.1109700" lon="6.7372580">
        <ele>829.1</ele>
        <time>2022-07-21T15:10:09Z</time>
      </trkpt>
      <trkpt lat="47.1109600" lon="6.7372480">
        <ele>829.1</ele>
        <time>2022-07-21T15:10:10Z</time>
      </trkpt>
      <trkpt lat="47.1109350" lon="6.7372190">
        <ele>829.1</ele>
        <time>2022-07-21T15:10:11Z</time>
      </trkpt>
      <trkpt lat="47.1108940" lon="6.7371630">
        <ele>829.2</ele>
        <time>2022-07-21T15:10:13Z</time>
      </trkpt>
      <trkpt lat="47.1108760" lon="6.7371390">
        <ele>829.2</ele>
        <time>2022-07-21T15:10:14Z</time>
      </trkpt>
      <trkpt lat="47.1108580" lon="6.7371150">
        <ele>829.2</ele>
        <time>2022-07-21T15:10:15Z</time>
      </trkpt>
      <trkpt lat="47.1108230" lon="6.7370730">
        <ele>829.2</ele>
        <time>2022-07-21T15:10:17Z</time>
      </trkpt>
      <trkpt lat="47.1107850" lon="6.7370400">
        <ele>829.3</ele>
        <time>2022-07-21T15:10:18Z</time>
      </trkpt>
      <trkpt lat="47.1107440" lon="6.7370120">
        <ele>829.4</ele>
        <time>2022-07-21T15:10:19Z</time>
      </trkpt>
      <trkpt lat="47.1107080" lon="6.7369830">
        <ele>829.4</ele>
        <time>2022-07-21T15:10:20Z</time>
      </trkpt>
      <trkpt lat="47.1106790" lon="6.7369620">
        <ele>829.5</ele>
        <time>2022-07-21T15:10:21Z</time>
      </trkpt>
      <trkpt lat="47.1106470" lon="6.7369520">
        <ele>829.6</ele>
        <time>2022-07-21T15:10:23Z</time>
      </trkpt>
      <trkpt lat="47.1106200" lon="6.7369340">
        <ele>829.7</ele>
        <time>2022-07-21T15:10:24Z</time>
      </trkpt>
      <trkpt lat="47.1105800" lon="6.7368890">
        <ele>829.9</ele>
        <time>2022-07-21T15:10:25Z</time>
      </trkpt>
      <trkpt lat="47.1105600" lon="6.7368640">
        <ele>830.0</ele>
        <time>2022-07-21T15:10:26Z</time>
      </trkpt>
      <trkpt lat="47.1105470" lon="6.7368480">
        <ele>830.1</ele>
        <time>2022-07-21T15:10:28Z</time>
      </trkpt>
      <trkpt lat="47.1105320" lon="6.7368320">
        <ele>830.2</ele>
        <time>2022-07-21T15:10:29Z</time>
      </trkpt>
      <trkpt lat="47.1105120" lon="6.7368110">
        <ele>830.3</ele>
        <time>2022-07-21T15:10:31Z</time>
      </trkpt>
      <trkpt lat="47.1105050" lon="6.7368050">
        <ele>830.3</ele>
        <time>2022-07-21T15:10:32Z</time>
      </trkpt>
      <trkpt lat="47.1104840" lon="6.7367950">
        <ele>830.5</ele>
        <time>2022-07-21T15:10:33Z</time>
      </trkpt>
      <trkpt lat="47.1104730" lon="6.7367920">
        <ele>830.6</ele>
        <time>2022-07-21T15:10:35Z</time>
      </trkpt>
      <trkpt lat="47.1104620" lon="6.7367890">
        <ele>830.6</ele>
        <time>2022-07-21T15:10:36Z</time>
      </trkpt>
      <trkpt lat="47.1104510" lon="6.7367860">
        <ele>830.7</ele>
        <time>2022-07-21T15:10:37Z</time>
      </trkpt>
      <trkpt lat="47.1104400" lon="6.7367830">
        <ele>830.8</ele>
        <time>2022-07-21T15:10:38Z</time>
      </trkpt>
      <trkpt lat="47.1104060" lon="6.7367900">
        <ele>831.0</ele>
        <time>2022-07-21T15:10:39Z</time>
      </trkpt>
      <trkpt lat="47.1103940" lon="6.7367910">
        <ele>831.1</ele>
        <time>2022-07-21T15:10:40Z</time>
      </trkpt>
      <trkpt lat="47.1103760" lon="6.7367870">
        <ele>831.3</ele>
        <time>2022-07-21T15:10:41Z</time>
      </trkpt>
      <trkpt lat="47.1103560" lon="6.7367710">
        <ele>831.4</ele>
        <time>2022-07-21T15:10:43Z</time>
      </trkpt>
      <trkpt lat="47.1103420" lon="6.7367530">
        <ele>831.6</ele>
        <time>2022-07-21T15:10:44Z</time>
      </trkpt>
      <trkpt lat="47.1103300" lon="6.7367410">
        <ele>831.7</ele>
        <time>2022-07-21T15:10:45Z</time>
      </trkpt>
      <trkpt lat="47.1103080" lon="6.7367080">
        <ele>831.9</ele>
        <time>2022-07-21T15:10:46Z</time>
      </trkpt>
      <trkpt lat="47.1103010" lon="6.7366970">
        <ele>832.0</ele>
        <time>2022-07-21T15:10:47Z</time>
      </trkpt>
      <trkpt lat="47.1102780" lon="6.7366730">
        <ele>832.2</ele>
        <time>2022-07-21T15:10:48Z</time>
      </trkpt>
      <trkpt lat="47.1102670" lon="6.7366620">
        <ele>832.4</ele>
        <time>2022-07-21T15:10:49Z</time>
      </trkpt>
      <trkpt lat="47.1102450" lon="6.7366400">
        <ele>832.6</ele>
        <time>2022-07-21T15:10:50Z</time>
      </trkpt>
      <trkpt lat="47.1102370" lon="6.7366300">
        <ele>832.7</ele>
        <time>2022-07-21T15:10:51Z</time>
      </trkpt>
      <trkpt lat="47.1102160" lon="6.7365960">
        <ele>833.0</ele>
        <time>2022-07-21T15:10:52Z</time>
      </trkpt>
      <trkpt lat="47.1102100" lon="6.7365850">
        <ele>833.0</ele>
        <time>2022-07-21T15:10:53Z</time>
      </trkpt>
      <trkpt lat="47.1101910" lon="6.7365480">
        <ele>833.3</ele>
        <time>2022-07-21T15:10:55Z</time>
      </trkpt>
      <trkpt lat="47.1101840" lon="6.7365310">
        <ele>833.5</ele>
        <time>2022-07-21T15:10:56Z</time>
      </trkpt>
      <trkpt lat="47.1101740" lon="6.7365120">
        <ele>833.6</ele>
        <time>2022-07-21T15:10:57Z</time>
      </trkpt>
      <trkpt lat="47.1101640" lon="6.7364930">
        <ele>833.8</ele>
        <time>2022-07-21T15:10:58Z</time>
      </trkpt>
      <trkpt lat="47.1101510" lon="6.7364740">
        <ele>834.0</ele>
        <time>2022-07-21T15:10:59Z</time>
      </trkpt>
      <trkpt lat="47.1101330" lon="6.7364460">
        <ele>834.2</ele>
        <time>2022-07-21T15:11:01Z</time>
      </trkpt>
      <trkpt lat="47.1101190" lon="6.7364260">
        <ele>834.4</ele>
        <time>2022-07-21T15:11:02Z</time>
      </trkpt>
      <trkpt lat="47.1100970" lon="6.7363970">
        <ele>834.7</ele>
        <time>2022-07-21T15:11:04Z</time>
      </trkpt>
      <trkpt lat="47.1100720" lon="6.7363750">
        <ele>835.0</ele>
        <time>2022-07-21T15:11:05Z</time>
      </trkpt>
      <trkpt lat="47.1100530" lon="6.7363610">
        <ele>835.2</ele>
        <time>2022-07-21T15:11:06Z</time>
      </trkpt>
      <trkpt lat="47.1100340" lon="6.7363500">
        <ele>835.4</ele>
        <time>2022-07-21T15:11:08Z</time>
      </trkpt>
      <trkpt lat="47.1100180" lon="6.7363470">
        <ele>835.6</ele>
        <time>2022-07-21T15:11:09Z</time>
      </trkpt>
      <trkpt lat="47.1100010" lon="6.7363460">
        <ele>835.7</ele>
        <time>2022-07-21T15:11:10Z</time>
      </trkpt>
      <trkpt lat="47.1099550" lon="6.7363520">
        <ele>836.1</ele>
        <time>2022-07-21T15:11:11Z</time>
      </trkpt>
      <trkpt lat="47.1099100" lon="6.7363610">
        <ele>836.6</ele>
        <time>2022-07-21T15:11:12Z</time>
      </trkpt>
      <trkpt lat="47.1098800" lon="6.7363680">
        <ele>836.8</ele>
        <time>2022-07-21T15:11:13Z</time>
      </trkpt>
      <trkpt lat="47.1098700" lon="6.7363710">
        <ele>836.9</ele>
        <time>2022-07-21T15:11:14Z</time>
      </trkpt>
      <trkpt lat="47.1098570" lon="6.7363790">
        <ele>837.1</ele>
        <time>2022-07-21T15:11:15Z</time>
      </trkpt>
      <trkpt lat="47.1098470" lon="6.7363850">
        <ele>837.2</ele>
        <time>2022-07-21T15:11:16Z</time>
      </trkpt>
      <trkpt lat="47.1098370" lon="6.7363940">
        <ele>837.3</ele>
        <time>2022-07-21T15:11:18Z</time>
      </trkpt>
      <trkpt lat="47.1098320" lon="6.7364030">
        <ele>837.4</ele>
        <time>2022-07-21T15:11:19Z</time>
      </trkpt>
      <trkpt lat="47.1098170" lon="6.7364320">
        <ele>837.6</ele>
        <time>2022-07-21T15:11:21Z</time>
      </trkpt>
      <trkpt lat="47.1098060" lon="6.7364490">
        <ele>837.7</ele>
        <time>2022-07-21T15:11:22Z</time>
      </trkpt>
      <trkpt lat="47.1097990" lon="6.7364470">
        <ele>837.8</ele>
        <time>2022-07-21T15:11:23Z</time>
      </trkpt>
      <trkpt lat="47.1097890" lon="6.7364350">
        <ele>837.9</ele>
        <time>2022-07-21T15:11:24Z</time>
      </trkpt>
      <trkpt lat="47.1097750" lon="6.7364340">
        <ele>838.0</ele>
        <time>2022-07-21T15:11:25Z</time>
      </trkpt>
      <trkpt lat="47.1097630" lon="6.7364490">
        <ele>838.1</ele>
        <time>2022-07-21T15:11:26Z</time>
      </trkpt>
      <trkpt lat="47.1097510" lon="6.7364850">
        <ele>838.2</ele>
        <time>2022-07-21T15:11:27Z</time>
      </trkpt>
      <trkpt lat="47.1097200" lon="6.7365350">
        <ele>838.5</ele>
        <time>2022-07-21T15:11:29Z</time>
      </trkpt>
      <trkpt lat="47.1097090" lon="6.7365500">
        <ele>838.5</ele>
        <time>2022-07-21T15:11:30Z</time>
      </trkpt>
      <trkpt lat="47.1096970" lon="6.7365650">
        <ele>838.6</ele>
        <time>2022-07-21T15:11:31Z</time>
      </trkpt>
      <trkpt lat="47.1096690" lon="6.7365890">
        <ele>838.8</ele>
        <time>2022-07-21T15:11:32Z</time>
      </trkpt>
      <trkpt lat="47.1096570" lon="6.7365950">
        <ele>838.8</ele>
        <time>2022-07-21T15:11:33Z</time>
      </trkpt>
      <trkpt lat="47.1096360" lon="6.7366110">
        <ele>838.9</ele>
        <time>2022-07-21T15:11:34Z</time>
      </trkpt>
      <trkpt lat="47.1096010" lon="6.7366120">
        <ele>839.1</ele>
        <time>2022-07-21T15:11:36Z</time>
      </trkpt>
      <trkpt lat="47.1095700" lon="6.7366100">
        <ele>839.2</ele>
        <time>2022-07-21T15:11:37Z</time>
      </trkpt>
      <trkpt lat="47.1095310" lon="6.7366160">
        <ele>839.3</ele>
        <time>2022-07-21T15:11:38Z</time>
      </trkpt>
      <trkpt lat="47.1095200" lon="6.7366190">
        <ele>839.4</ele>
        <time>2022-07-21T15:11:39Z</time>
      </trkpt>
      <trkpt lat="47.1094890" lon="6.7366290">
        <ele>839.5</ele>
        <time>2022-07-21T15:11:40Z</time>
      </trkpt>
      <trkpt lat="47.1094800" lon="6.7366320">
        <ele>839.6</ele>
        <time>2022-07-21T15:11:41Z</time>
      </trkpt>
      <trkpt lat="47.1094520" lon="6.7366460">
        <ele>839.7</ele>
        <time>2022-07-21T15:11:42Z</time>
      </trkpt>
      <trkpt lat="47.1094450" lon="6.7366490">
        <ele>839.7</ele>
        <time>2022-07-21T15:11:43Z</time>
      </trkpt>
      <trkpt lat="47.1094290" lon="6.7366510">
        <ele>839.7</ele>
        <time>2022-07-21T15:11:44Z</time>
      </trkpt>
      <trkpt lat="47.1094100" lon="6.7366430">
        <ele>839.8</ele>
        <time>2022-07-21T15:11:45Z</time>
      </trkpt>
      <trkpt lat="47.1093910" lon="6.7366310">
        <ele>839.9</ele>
        <time>2022-07-21T15:11:46Z</time>
      </trkpt>
      <trkpt lat="47.1093770" lon="6.7366280">
        <ele>839.9</ele>
        <time>2022-07-21T15:11:47Z</time>
      </trkpt>
      <trkpt lat="47.1093600" lon="6.7366280">
        <ele>840.0</ele>
        <time>2022-07-21T15:11:48Z</time>
      </trkpt>
      <trkpt lat="47.1093430" lon="6.7366330">
        <ele>840.1</ele>
        <time>2022-07-21T15:11:49Z</time>
      </trkpt>
      <trkpt lat="47.1093220" lon="6.7366410">
        <ele>840.1</ele>
        <time>2022-07-21T15:11:50Z</time>
      </trkpt>
      <trkpt lat="47.1093130" lon="6.7366430">
        <ele>840.2</ele>
        <time>2022-07-21T15:11:51Z</time>
      </trkpt>
      <trkpt lat="47.1093050" lon="6.7366450">
        <ele>840.2</ele>
        <time>2022-07-21T15:11:52Z</time>
      </trkpt>
      <trkpt lat="47.1092750" lon="6.7366410">
        <ele>840.3</ele>
        <time>2022-07-21T15:11:53Z</time>
      </trkpt>
      <trkpt lat="47.1092650" lon="6.7366390">
        <ele>840.3</ele>
        <time>2022-07-21T15:11:54Z</time>
      </trkpt>
      <trkpt lat="47.1092330" lon="6.7366260">
        <ele>840.4</ele>
        <time>2022-07-21T15:11:55Z</time>
      </trkpt>
      <trkpt lat="47.1092240" lon="6.7366220">
        <ele>840.5</ele>
        <time>2022-07-21T15:11:56Z</time>
      </trkpt>
      <trkpt lat="47.1091920" lon="6.7366070">
        <ele>840.6</ele>
        <time>2022-07-21T15:11:57Z</time>
      </trkpt>
      <trkpt lat="47.1091830" lon="6.7366020">
        <ele>840.6</ele>
        <time>2022-07-21T15:11:58Z</time>
      </trkpt>
      <trkpt lat="47.1091590" lon="6.7365800">
        <ele>840.7</ele>
        <time>2022-07-21T15:11:59Z</time>
      </trkpt>
      <trkpt lat="47.1091310" lon="6.7365490">
        <ele>840.8</ele>
        <time>2022-07-21T15:12:00Z</time>
      </trkpt>
      <trkpt lat="47.1091240" lon="6.7365430">
        <ele>840.9</ele>
        <time>2022-07-21T15:12:01Z</time>
      </trkpt>
      <trkpt lat="47.1091110" lon="6.7365330">
        <ele>840.9</ele>
        <time>2022-07-21T15:12:02Z</time>
      </trkpt>
      <trkpt lat="47.1090920" lon="6.7365270">
        <ele>841.0</ele>
        <time>2022-07-21T15:12:03Z</time>
      </trkpt>
      <trkpt lat="47.1090500" lon="6.7365180">
        <ele>841.1</ele>
        <time>2022-07-21T15:12:04Z</time>
      </trkpt>
      <trkpt lat="47.1090350" lon="6.7365140">
        <ele>841.1</ele>
        <time>2022-07-21T15:12:05Z</time>
      </trkpt>
      <trkpt lat="47.1090070" lon="6.7365040">
        <ele>841.2</ele>
        <time>2022-07-21T15:12:06Z</time>
      </trkpt>
      <trkpt lat="47.1089620" lon="6.7364790">
        <ele>841.4</ele>
        <time>2022-07-21T15:12:08Z</time>
      </trkpt>
      <trkpt lat="47.1089450" lon="6.7364740">
        <ele>841.4</ele>
        <time>2022-07-21T15:12:09Z</time>
      </trkpt>
      <trkpt lat="47.1089280" lon="6.7364730">
        <ele>841.5</ele>
        <time>2022-07-21T15:12:10Z</time>
      </trkpt>
      <trkpt lat="47.1089000" lon="6.7364690">
        <ele>841.5</ele>
        <time>2022-07-21T15:12:11Z</time>
      </trkpt>
      <trkpt lat="47.1088880" lon="6.7364670">
        <ele>841.6</ele>
        <time>2022-07-21T15:12:12Z</time>
      </trkpt>
      <trkpt lat="47.1088490" lon="6.7364540">
        <ele>841.7</ele>
        <time>2022-07-21T15:12:13Z</time>
      </trkpt>
      <trkpt lat="47.1088360" lon="6.7364480">
        <ele>841.7</ele>
        <time>2022-07-21T15:12:14Z</time>
      </trkpt>
      <trkpt lat="47.1088090" lon="6.7364400">
        <ele>841.8</ele>
        <time>2022-07-21T15:12:16Z</time>
      </trkpt>
      <trkpt lat="47.1087820" lon="6.7364340">
        <ele>841.9</ele>
        <time>2022-07-21T15:12:17Z</time>
      </trkpt>
      <trkpt lat="47.1087520" lon="6.7364220">
        <ele>842.0</ele>
        <time>2022-07-21T15:12:18Z</time>
      </trkpt>
      <trkpt lat="47.1087220" lon="6.7364070">
        <ele>842.1</ele>
        <time>2022-07-21T15:12:19Z</time>
      </trkpt>
      <trkpt lat="47.1087120" lon="6.7364030">
        <ele>842.1</ele>
        <time>2022-07-21T15:12:20Z</time>
      </trkpt>
      <trkpt lat="47.1086870" lon="6.7363940">
        <ele>842.2</ele>
        <time>2022-07-21T15:12:21Z</time>
      </trkpt>
      <trkpt lat="47.1086760" lon="6.7363920">
        <ele>842.2</ele>
        <time>2022-07-21T15:12:22Z</time>
      </trkpt>
      <trkpt lat="47.1086420" lon="6.7363800">
        <ele>842.3</ele>
        <time>2022-07-21T15:12:24Z</time>
      </trkpt>
      <trkpt lat="47.1086320" lon="6.7363750">
        <ele>842.3</ele>
        <time>2022-07-21T15:12:25Z</time>
      </trkpt>
      <trkpt lat="47.1085870" lon="6.7363530">
        <ele>842.3</ele>
        <time>2022-07-21T15:12:27Z</time>
      </trkpt>
      <trkpt lat="47.1085520" lon="6.7363340">
        <ele>842.4</ele>
        <time>2022-07-21T15:12:28Z</time>
      </trkpt>
      <trkpt lat="47.1085360" lon="6.7363270">
        <ele>842.4</ele>
        <time>2022-07-21T15:12:29Z</time>
      </trkpt>
      <trkpt lat="47.1084970" lon="6.7363150">
        <ele>842.5</ele>
        <time>2022-07-21T15:12:30Z</time>
      </trkpt>
      <trkpt lat="47.1084640" lon="6.7363070">
        <ele>842.5</ele>
        <time>2022-07-21T15:12:31Z</time>
      </trkpt>
      <trkpt lat="47.1084300" lon="6.7362950">
        <ele>842.5</ele>
        <time>2022-07-21T15:12:32Z</time>
      </trkpt>
      <trkpt lat="47.1083980" lon="6.7362830">
        <ele>842.5</ele>
        <time>2022-07-21T15:12:33Z</time>
      </trkpt>
      <trkpt lat="47.1083700" lon="6.7362730">
        <ele>842.5</ele>
        <time>2022-07-21T15:12:34Z</time>
      </trkpt>
      <trkpt lat="47.1083270" lon="6.7362620">
        <ele>842.5</ele>
        <time>2022-07-21T15:12:35Z</time>
      </trkpt>
      <trkpt lat="47.1082840" lon="6.7362530">
        <ele>842.5</ele>
        <time>2022-07-21T15:12:36Z</time>
      </trkpt>
      <trkpt lat="47.1082450" lon="6.7362470">
        <ele>842.5</ele>
        <time>2022-07-21T15:12:38Z</time>
      </trkpt>
      <trkpt lat="47.1082090" lon="6.7362470">
        <ele>842.5</ele>
        <time>2022-07-21T15:12:39Z</time>
      </trkpt>
      <trkpt lat="47.1081990" lon="6.7362460">
        <ele>842.5</ele>
        <time>2022-07-21T15:12:40Z</time>
      </trkpt>
      <trkpt lat="47.1081630" lon="6.7362280">
        <ele>842.5</ele>
        <time>2022-07-21T15:12:41Z</time>
      </trkpt>
      <trkpt lat="47.1081260" lon="6.7362160">
        <ele>842.5</ele>
        <time>2022-07-21T15:12:42Z</time>
      </trkpt>
      <trkpt lat="47.1080870" lon="6.7362050">
        <ele>842.5</ele>
        <time>2022-07-21T15:12:43Z</time>
      </trkpt>
      <trkpt lat="47.1080560" lon="6.7361970">
        <ele>842.5</ele>
        <time>2022-07-21T15:12:44Z</time>
      </trkpt>
      <trkpt lat="47.1080090" lon="6.7361770">
        <ele>842.5</ele>
        <time>2022-07-21T15:12:46Z</time>
      </trkpt>
      <trkpt lat="47.1079690" lon="6.7361600">
        <ele>842.5</ele>
        <time>2022-07-21T15:12:47Z</time>
      </trkpt>
      <trkpt lat="47.1079310" lon="6.7361450">
        <ele>842.4</ele>
        <time>2022-07-21T15:12:48Z</time>
      </trkpt>
      <trkpt lat="47.1078980" lon="6.7361330">
        <ele>842.4</ele>
        <time>2022-07-21T15:12:49Z</time>
      </trkpt>
      <trkpt lat="47.1078560" lon="6.7361150">
        <ele>842.4</ele>
        <time>2022-07-21T15:12:50Z</time>
      </trkpt>
      <trkpt lat="47.1078230" lon="6.7361030">
        <ele>842.3</ele>
        <time>2022-07-21T15:12:51Z</time>
      </trkpt>
      <trkpt lat="47.1078020" lon="6.7360950">
        <ele>842.3</ele>
        <time>2022-07-21T15:12:52Z</time>
      </trkpt>
      <trkpt lat="47.1077660" lon="6.7360730">
        <ele>842.3</ele>
        <time>2022-07-21T15:12:54Z</time>
      </trkpt>
      <trkpt lat="47.1077360" lon="6.7360500">
        <ele>842.2</ele>
        <time>2022-07-21T15:12:55Z</time>
      </trkpt>
      <trkpt lat="47.1077000" lon="6.7360280">
        <ele>842.2</ele>
        <time>2022-07-21T15:12:56Z</time>
      </trkpt>
      <trkpt lat="47.1076740" lon="6.7360130">
        <ele>842.2</ele>
        <time>2022-07-21T15:12:57Z</time>
      </trkpt>
      <trkpt lat="47.1076480" lon="6.7359950">
        <ele>842.1</ele>
        <time>2022-07-21T15:12:58Z</time>
      </trkpt>
      <trkpt lat="47.1076180" lon="6.7359740">
        <ele>842.1</ele>
        <time>2022-07-21T15:12:59Z</time>
      </trkpt>
      <trkpt lat="47.1075910" lon="6.7359560">
        <ele>842.1</ele>
        <time>2022-07-21T15:13:00Z</time>
      </trkpt>
      <trkpt lat="47.1075640" lon="6.7359350">
        <ele>842.0</ele>
        <time>2022-07-21T15:13:02Z</time>
      </trkpt>
      <trkpt lat="47.1075220" lon="6.7358930">
        <ele>841.9</ele>
        <time>2022-07-21T15:13:03Z</time>
      </trkpt>
      <trkpt lat="47.1074870" lon="6.7358630">
        <ele>841.8</ele>
        <time>2022-07-21T15:13:04Z</time>
      </trkpt>
      <trkpt lat="47.1074510" lon="6.7358340">
        <ele>841.7</ele>
        <time>2022-07-21T15:13:05Z</time>
      </trkpt>
      <trkpt lat="47.1074090" lon="6.7357920">
        <ele>841.5</ele>
        <time>2022-07-21T15:13:06Z</time>
      </trkpt>
      <trkpt lat="47.1073770" lon="6.7357620">
        <ele>841.4</ele>
        <time>2022-07-21T15:13:07Z</time>
      </trkpt>
      <trkpt lat="47.1073400" lon="6.7357310">
        <ele>841.2</ele>
        <time>2022-07-21T15:13:08Z</time>
      </trkpt>
      <trkpt lat="47.1072880" lon="6.7356760">
        <ele>841.0</ele>
        <time>2022-07-21T15:13:09Z</time>
      </trkpt>
      <trkpt lat="47.1072460" lon="6.7356160">
        <ele>840.7</ele>
        <time>2022-07-21T15:13:10Z</time>
      </trkpt>
      <trkpt lat="47.1072300" lon="6.7355670">
        <ele>840.5</ele>
        <time>2022-07-21T15:13:11Z</time>
      </trkpt>
      <trkpt lat="47.1072100" lon="6.7355400">
        <ele>840.4</ele>
        <time>2022-07-21T15:13:12Z</time>
      </trkpt>
      <trkpt lat="47.1071730" lon="6.7355140">
        <ele>840.2</ele>
        <time>2022-07-21T15:13:13Z</time>
      </trkpt>
      <trkpt lat="47.1071070" lon="6.7354870">
        <ele>839.9</ele>
        <time>2022-07-21T15:13:14Z</time>
      </trkpt>
      <trkpt lat="47.1070430" lon="6.7354630">
        <ele>839.6</ele>
        <time>2022-07-21T15:13:15Z</time>
      </trkpt>
      <trkpt lat="47.1069920" lon="6.7354330">
        <ele>839.5</ele>
        <time>2022-07-21T15:13:16Z</time>
      </trkpt>
      <trkpt lat="47.1069440" lon="6.7353900">
        <ele>839.3</ele>
        <time>2022-07-21T15:13:17Z</time>
      </trkpt>
      <trkpt lat="47.1068930" lon="6.7353450">
        <ele>839.2</ele>
        <time>2022-07-21T15:13:18Z</time>
      </trkpt>
      <trkpt lat="47.1068570" lon="6.7352980">
        <ele>839.1</ele>
        <time>2022-07-21T15:13:19Z</time>
      </trkpt>
      <trkpt lat="47.1068340" lon="6.7352610">
        <ele>839.1</ele>
        <time>2022-07-21T15:13:20Z</time>
      </trkpt>
      <trkpt lat="47.1068060" lon="6.7352310">
        <ele>839.0</ele>
        <time>2022-07-21T15:13:21Z</time>
      </trkpt>
      <trkpt lat="47.1067880" lon="6.7351990">
        <ele>839.0</ele>
        <time>2022-07-21T15:13:22Z</time>
      </trkpt>
      <trkpt lat="47.1067760" lon="6.7351900">
        <ele>839.0</ele>
        <time>2022-07-21T15:13:23Z</time>
      </trkpt>
      <trkpt lat="47.1067310" lon="6.7351870">
        <ele>839.0</ele>
        <time>2022-07-21T15:13:24Z</time>
      </trkpt>
      <trkpt lat="47.1066850" lon="6.7351780">
        <ele>839.0</ele>
        <time>2022-07-21T15:13:25Z</time>
      </trkpt>
      <trkpt lat="47.1066520" lon="6.7351800">
        <ele>839.1</ele>
        <time>2022-07-21T15:13:26Z</time>
      </trkpt>
      <trkpt lat="47.1066200" lon="6.7351970">
        <ele>839.1</ele>
        <time>2022-07-21T15:13:27Z</time>
      </trkpt>
      <trkpt lat="47.1065920" lon="6.7352180">
        <ele>839.1</ele>
        <time>2022-07-21T15:13:28Z</time>
      </trkpt>
      <trkpt lat="47.1065710" lon="6.7352580">
        <ele>839.2</ele>
        <time>2022-07-21T15:13:29Z</time>
      </trkpt>
      <trkpt lat="47.1065480" lon="6.7352810">
        <ele>839.2</ele>
        <time>2022-07-21T15:13:30Z</time>
      </trkpt>
      <trkpt lat="47.1065200" lon="6.7352880">
        <ele>839.2</ele>
        <time>2022-07-21T15:13:31Z</time>
      </trkpt>
      <trkpt lat="47.1064830" lon="6.7352870">
        <ele>839.3</ele>
        <time>2022-07-21T15:13:32Z</time>
      </trkpt>
      <trkpt lat="47.1064660" lon="6.7352840">
        <ele>839.3</ele>
        <time>2022-07-21T15:13:33Z</time>
      </trkpt>
      <trkpt lat="47.1064320" lon="6.7352720">
        <ele>839.3</ele>
        <time>2022-07-21T15:13:34Z</time>
      </trkpt>
      <trkpt lat="47.1064010" lon="6.7352540">
        <ele>839.4</ele>
        <time>2022-07-21T15:13:35Z</time>
      </trkpt>
      <trkpt lat="47.1063720" lon="6.7352340">
        <ele>839.4</ele>
        <time>2022-07-21T15:13:36Z</time>
      </trkpt>
      <trkpt lat="47.1063320" lon="6.7352140">
        <ele>839.4</ele>
        <time>2022-07-21T15:13:37Z</time>
      </trkpt>
      <trkpt lat="47.1063030" lon="6.7351970">
        <ele>839.5</ele>
        <time>2022-07-21T15:13:38Z</time>
      </trkpt>
      <trkpt lat="47.1062740" lon="6.7351810">
        <ele>839.5</ele>
        <time>2022-07-21T15:13:39Z</time>
      </trkpt>
      <trkpt lat="47.1062510" lon="6.7351690">
        <ele>839.5</ele>
        <time>2022-07-21T15:13:40Z</time>
      </trkpt>
      <trkpt lat="47.1062410" lon="6.7351630">
        <ele>839.5</ele>
        <time>2022-07-21T15:13:41Z</time>
      </trkpt>
      <trkpt lat="47.1062180" lon="6.7351500">
        <ele>839.5</ele>
        <time>2022-07-21T15:13:42Z</time>
      </trkpt>
      <trkpt lat="47.1062060" lon="6.7351420">
        <ele>839.6</ele>
        <time>2022-07-21T15:13:43Z</time>
      </trkpt>
      <trkpt lat="47.1061820" lon="6.7351200">
        <ele>839.6</ele>
        <time>2022-07-21T15:13:44Z</time>
      </trkpt>
      <trkpt lat="47.1061750" lon="6.7351140">
        <ele>839.6</ele>
        <time>2022-07-21T15:13:45Z</time>
      </trkpt>
      <trkpt lat="47.1061500" lon="6.7350930">
        <ele>839.6</ele>
        <time>2022-07-21T15:13:46Z</time>
      </trkpt>
      <trkpt lat="47.1061390" lon="6.7350840">
        <ele>839.7</ele>
        <time>2022-07-21T15:13:47Z</time>
      </trkpt>
      <trkpt lat="47.1061220" lon="6.7350730">
        <ele>839.7</ele>
        <time>2022-07-21T15:13:48Z</time>
      </trkpt>
      <trkpt lat="47.1061100" lon="6.7350660">
        <ele>839.7</ele>
        <time>2022-07-21T15:13:49Z</time>
      </trkpt>
      <trkpt lat="47.1060970" lon="6.7350600">
        <ele>839.7</ele>
        <time>2022-07-21T15:13:50Z</time>
      </trkpt>
      <trkpt lat="47.1060810" lon="6.7350530">
        <ele>839.7</ele>
        <time>2022-07-21T15:13:51Z</time>
      </trkpt>
      <trkpt lat="47.1060640" lon="6.7350440">
        <ele>839.7</ele>
        <time>2022-07-21T15:13:52Z</time>
      </trkpt>
      <trkpt lat="47.1060510" lon="6.7350390">
        <ele>839.8</ele>
        <time>2022-07-21T15:13:53Z</time>
      </trkpt>
      <trkpt lat="47.1060320" lon="6.7350370">
        <ele>839.8</ele>
        <time>2022-07-21T15:13:54Z</time>
      </trkpt>
      <trkpt lat="47.1060210" lon="6.7350340">
        <ele>839.8</ele>
        <time>2022-07-21T15:13:55Z</time>
      </trkpt>
      <trkpt lat="47.1060110" lon="6.7350310">
        <ele>839.8</ele>
        <time>2022-07-21T15:13:56Z</time>
      </trkpt>
      <trkpt lat="47.1059750" lon="6.7349940">
        <ele>839.8</ele>
        <time>2022-07-21T15:13:57Z</time>
      </trkpt>
      <trkpt lat="47.1059590" lon="6.7349770">
        <ele>839.8</ele>
        <time>2022-07-21T15:13:58Z</time>
      </trkpt>
      <trkpt lat="47.1059230" lon="6.7349490">
        <ele>839.9</ele>
        <time>2022-07-21T15:13:59Z</time>
      </trkpt>
      <trkpt lat="47.1058920" lon="6.7349270">
        <ele>839.9</ele>
        <time>2022-07-21T15:14:00Z</time>
      </trkpt>
      <trkpt lat="47.1058820" lon="6.7349190">
        <ele>839.9</ele>
        <time>2022-07-21T15:14:01Z</time>
      </trkpt>
      <trkpt lat="47.1058560" lon="6.7348950">
        <ele>840.0</ele>
        <time>2022-07-21T15:14:02Z</time>
      </trkpt>
      <trkpt lat="47.1058450" lon="6.7348830">
        <ele>840.0</ele>
        <time>2022-07-21T15:14:03Z</time>
      </trkpt>
      <trkpt lat="47.1058170" lon="6.7348400">
        <ele>840.1</ele>
        <time>2022-07-21T15:14:04Z</time>
      </trkpt>
      <trkpt lat="47.1058070" lon="6.7348250">
        <ele>840.1</ele>
        <time>2022-07-21T15:14:05Z</time>
      </trkpt>
      <trkpt lat="47.1057890" lon="6.7347950">
        <ele>840.2</ele>
        <time>2022-07-21T15:14:06Z</time>
      </trkpt>
      <trkpt lat="47.1057820" lon="6.7347850">
        <ele>840.2</ele>
        <time>2022-07-21T15:14:07Z</time>
      </trkpt>
      <trkpt lat="47.1057620" lon="6.7347540">
        <ele>840.3</ele>
        <time>2022-07-21T15:14:08Z</time>
      </trkpt>
      <trkpt lat="47.1057570" lon="6.7347450">
        <ele>840.3</ele>
        <time>2022-07-21T15:14:09Z</time>
      </trkpt>
      <trkpt lat="47.1057460" lon="6.7347240">
        <ele>840.4</ele>
        <time>2022-07-21T15:14:10Z</time>
      </trkpt>
      <trkpt lat="47.1057390" lon="6.7347020">
        <ele>840.5</ele>
        <time>2022-07-21T15:14:11Z</time>
      </trkpt>
      <trkpt lat="47.1057230" lon="6.7346630">
        <ele>840.6</ele>
        <time>2022-07-21T15:14:12Z</time>
      </trkpt>
      <trkpt lat="47.1057150" lon="6.7346490">
        <ele>840.7</ele>
        <time>2022-07-21T15:14:13Z</time>
      </trkpt>
      <trkpt lat="47.1056820" lon="6.7346200">
        <ele>840.9</ele>
        <time>2022-07-21T15:14:14Z</time>
      </trkpt>
      <trkpt lat="47.1056680" lon="6.7346100">
        <ele>841.0</ele>
        <time>2022-07-21T15:14:15Z</time>
      </trkpt>
      <trkpt lat="47.1056460" lon="6.7345840">
        <ele>841.1</ele>
        <time>2022-07-21T15:14:16Z</time>
      </trkpt>
      <trkpt lat="47.1056240" lon="6.7345480">
        <ele>841.3</ele>
        <time>2022-07-21T15:14:17Z</time>
      </trkpt>
      <trkpt lat="47.1056180" lon="6.7345360">
        <ele>841.4</ele>
        <time>2022-07-21T15:14:18Z</time>
      </trkpt>
      <trkpt lat="47.1056000" lon="6.7345000">
        <ele>841.6</ele>
        <time>2022-07-21T15:14:19Z</time>
      </trkpt>
      <trkpt lat="47.1055930" lon="6.7344880">
        <ele>841.7</ele>
        <time>2022-07-21T15:14:20Z</time>
      </trkpt>
      <trkpt lat="47.1055640" lon="6.7344490">
        <ele>842.0</ele>
        <time>2022-07-21T15:14:21Z</time>
      </trkpt>
      <trkpt lat="47.1055530" lon="6.7344380">
        <ele>842.1</ele>
        <time>2022-07-21T15:14:22Z</time>
      </trkpt>
      <trkpt lat="47.1055300" lon="6.7344130">
        <ele>842.3</ele>
        <time>2022-07-21T15:14:23Z</time>
      </trkpt>
      <trkpt lat="47.1055230" lon="6.7344060">
        <ele>842.3</ele>
        <time>2022-07-21T15:14:24Z</time>
      </trkpt>
      <trkpt lat="47.1055080" lon="6.7343910">
        <ele>842.5</ele>
        <time>2022-07-21T15:14:25Z</time>
      </trkpt>
      <trkpt lat="47.1054940" lon="6.7343820">
        <ele>842.6</ele>
        <time>2022-07-21T15:14:26Z</time>
      </trkpt>
      <trkpt lat="47.1054760" lon="6.7343730">
        <ele>842.7</ele>
        <time>2022-07-21T15:14:27Z</time>
      </trkpt>
      <trkpt lat="47.1054610" lon="6.7343660">
        <ele>842.9</ele>
        <time>2022-07-21T15:14:28Z</time>
      </trkpt>
      <trkpt lat="47.1054350" lon="6.7343440">
        <ele>843.1</ele>
        <time>2022-07-21T15:14:29Z</time>
      </trkpt>
      <trkpt lat="47.1054260" lon="6.7343350">
        <ele>843.2</ele>
        <time>2022-07-21T15:14:30Z</time>
      </trkpt>
      <trkpt lat="47.1054220" lon="6.7343250">
        <ele>843.3</ele>
        <time>2022-07-21T15:14:31Z</time>
      </trkpt>
      <trkpt lat="47.1054170" lon="6.7343170">
        <ele>843.3</ele>
        <time>2022-07-21T15:14:32Z</time>
      </trkpt>
      <trkpt lat="47.1054020" lon="6.7343050">
        <ele>843.5</ele>
        <time>2022-07-21T15:14:33Z</time>
      </trkpt>
      <trkpt lat="47.1053730" lon="6.7342680">
        <ele>843.8</ele>
        <time>2022-07-21T15:14:34Z</time>
      </trkpt>
      <trkpt lat="47.1053630" lon="6.7342510">
        <ele>843.9</ele>
        <time>2022-07-21T15:14:35Z</time>
      </trkpt>
      <trkpt lat="47.1053480" lon="6.7342290">
        <ele>844.1</ele>
        <time>2022-07-21T15:14:36Z</time>
      </trkpt>
      <trkpt lat="47.1053370" lon="6.7342200">
        <ele>844.2</ele>
        <time>2022-07-21T15:14:37Z</time>
      </trkpt>
      <trkpt lat="47.1053120" lon="6.7341960">
        <ele>844.4</ele>
        <time>2022-07-21T15:14:38Z</time>
      </trkpt>
      <trkpt lat="47.1052760" lon="6.7341580">
        <ele>844.7</ele>
        <time>2022-07-21T15:14:40Z</time>
      </trkpt>
      <trkpt lat="47.1052610" lon="6.7341420">
        <ele>844.8</ele>
        <time>2022-07-21T15:14:41Z</time>
      </trkpt>
      <trkpt lat="47.1052150" lon="6.7341110">
        <ele>845.1</ele>
        <time>2022-07-21T15:14:42Z</time>
      </trkpt>
      <trkpt lat="47.1051680" lon="6.7340840">
        <ele>845.3</ele>
        <time>2022-07-21T15:14:44Z</time>
      </trkpt>
      <trkpt lat="47.1051530" lon="6.7340740">
        <ele>845.4</ele>
        <time>2022-07-21T15:14:45Z</time>
      </trkpt>
      <trkpt lat="47.1051380" lon="6.7340630">
        <ele>845.5</ele>
        <time>2022-07-21T15:14:46Z</time>
      </trkpt>
      <trkpt lat="47.1051040" lon="6.7340480">
        <ele>845.6</ele>
        <time>2022-07-21T15:14:47Z</time>
      </trkpt>
      <trkpt lat="47.1050950" lon="6.7340450">
        <ele>845.7</ele>
        <time>2022-07-21T15:14:48Z</time>
      </trkpt>
      <trkpt lat="47.1050550" lon="6.7340400">
        <ele>845.8</ele>
        <time>2022-07-21T15:14:49Z</time>
      </trkpt>
      <trkpt lat="47.1050390" lon="6.7340380">
        <ele>845.9</ele>
        <time>2022-07-21T15:14:50Z</time>
      </trkpt>
      <trkpt lat="47.1050130" lon="6.7340430">
        <ele>846.0</ele>
        <time>2022-07-21T15:14:51Z</time>
      </trkpt>
      <trkpt lat="47.1049840" lon="6.7340480">
        <ele>846.1</ele>
        <time>2022-07-21T15:14:53Z</time>
      </trkpt>
      <trkpt lat="47.1049470" lon="6.7340520">
        <ele>846.3</ele>
        <time>2022-07-21T15:14:54Z</time>
      </trkpt>
      <trkpt lat="47.1049340" lon="6.7340510">
        <ele>846.4</ele>
        <time>2022-07-21T15:14:55Z</time>
      </trkpt>
      <trkpt lat="47.1049030" lon="6.7340430">
        <ele>846.5</ele>
        <time>2022-07-21T15:14:56Z</time>
      </trkpt>
      <trkpt lat="47.1048810" lon="6.7340400">
        <ele>846.6</ele>
        <time>2022-07-21T15:14:57Z</time>
      </trkpt>
      <trkpt lat="47.1048680" lon="6.7340380">
        <ele>846.7</ele>
        <time>2022-07-21T15:14:58Z</time>
      </trkpt>
      <trkpt lat="47.1048570" lon="6.7340410">
        <ele>846.8</ele>
        <time>2022-07-21T15:15:00Z</time>
      </trkpt>
      <trkpt lat="47.1048460" lon="6.7340430">
        <ele>846.8</ele>
        <time>2022-07-21T15:15:01Z</time>
      </trkpt>
      <trkpt lat="47.1048340" lon="6.7340450">
        <ele>846.9</ele>
        <time>2022-07-21T15:15:02Z</time>
      </trkpt>
      <trkpt lat="47.1048220" lon="6.7340490">
        <ele>846.9</ele>
        <time>2022-07-21T15:15:03Z</time>
      </trkpt>
      <trkpt lat="47.1048090" lon="6.7340490">
        <ele>847.0</ele>
        <time>2022-07-21T15:15:04Z</time>
      </trkpt>
      <trkpt lat="47.1048000" lon="6.7340430">
        <ele>847.1</ele>
        <time>2022-07-21T15:15:05Z</time>
      </trkpt>
      <trkpt lat="47.1047870" lon="6.7340250">
        <ele>847.3</ele>
        <time>2022-07-21T15:15:06Z</time>
      </trkpt>
      <trkpt lat="47.1047720" lon="6.7340140">
        <ele>847.5</ele>
        <time>2022-07-21T15:15:07Z</time>
      </trkpt>
      <trkpt lat="47.1047550" lon="6.7340060">
        <ele>847.7</ele>
        <time>2022-07-21T15:15:09Z</time>
      </trkpt>
      <trkpt lat="47.1047480" lon="6.7340030">
        <ele>847.7</ele>
        <time>2022-07-21T15:15:10Z</time>
      </trkpt>
      <trkpt lat="47.1047440" lon="6.7339990">
        <ele>847.8</ele>
        <time>2022-07-21T15:15:11Z</time>
      </trkpt>
      <trkpt lat="47.1047280" lon="6.7339880">
        <ele>847.9</ele>
        <time>2022-07-21T15:15:12Z</time>
      </trkpt>
      <trkpt lat="47.1047220" lon="6.7339820">
        <ele>848.0</ele>
        <time>2022-07-21T15:15:14Z</time>
      </trkpt>
      <trkpt lat="47.1047170" lon="6.7339750">
        <ele>848.1</ele>
        <time>2022-07-21T15:15:15Z</time>
      </trkpt>
      <trkpt lat="47.1047090" lon="6.7339660">
        <ele>848.2</ele>
        <time>2022-07-21T15:15:16Z</time>
      </trkpt>
      <trkpt lat="47.1046940" lon="6.7339550">
        <ele>848.3</ele>
        <time>2022-07-21T15:15:17Z</time>
      </trkpt>
      <trkpt lat="47.1046790" lon="6.7339460">
        <ele>848.5</ele>
        <time>2022-07-21T15:15:19Z</time>
      </trkpt>
      <trkpt lat="47.1046570" lon="6.7339350">
        <ele>848.7</ele>
        <time>2022-07-21T15:15:20Z</time>
      </trkpt>
      <trkpt lat="47.1046490" lon="6.7339320">
        <ele>848.8</ele>
        <time>2022-07-21T15:15:21Z</time>
      </trkpt>
      <trkpt lat="47.1046400" lon="6.7339290">
        <ele>848.9</ele>
        <time>2022-07-21T15:15:22Z</time>
      </trkpt>
      <trkpt lat="47.1046060" lon="6.7339190">
        <ele>849.2</ele>
        <time>2022-07-21T15:15:23Z</time>
      </trkpt>
      <trkpt lat="47.1045960" lon="6.7339180">
        <ele>849.3</ele>
        <time>2022-07-21T15:15:24Z</time>
      </trkpt>
      <trkpt lat="47.1045690" lon="6.7339240">
        <ele>849.6</ele>
        <time>2022-07-21T15:15:26Z</time>
      </trkpt>
      <trkpt lat="47.1045590" lon="6.7339280">
        <ele>849.7</ele>
        <time>2022-07-21T15:15:27Z</time>
      </trkpt>
      <trkpt lat="47.1045490" lon="6.7339330">
        <ele>849.8</ele>
        <time>2022-07-21T15:15:28Z</time>
      </trkpt>
      <trkpt lat="47.1045280" lon="6.7339400">
        <ele>850.0</ele>
        <time>2022-07-21T15:15:29Z</time>
      </trkpt>
      <trkpt lat="47.1044890" lon="6.7339400">
        <ele>850.4</ele>
        <time>2022-07-21T15:15:31Z</time>
      </trkpt>
      <trkpt lat="47.1044750" lon="6.7339370">
        <ele>850.5</ele>
        <time>2022-07-21T15:15:32Z</time>
      </trkpt>
      <trkpt lat="47.1044550" lon="6.7339370">
        <ele>850.7</ele>
        <time>2022-07-21T15:15:33Z</time>
      </trkpt>
      <trkpt lat="47.1044230" lon="6.7339270">
        <ele>851.1</ele>
        <time>2022-07-21T15:15:35Z</time>
      </trkpt>
      <trkpt lat="47.1043900" lon="6.7339280">
        <ele>851.4</ele>
        <time>2022-07-21T15:15:36Z</time>
      </trkpt>
      <trkpt lat="47.1043810" lon="6.7339300">
        <ele>851.5</ele>
        <time>2022-07-21T15:15:37Z</time>
      </trkpt>
      <trkpt lat="47.1043510" lon="6.7339350">
        <ele>851.8</ele>
        <time>2022-07-21T15:15:38Z</time>
      </trkpt>
      <trkpt lat="47.1043390" lon="6.7339350">
        <ele>851.9</ele>
        <time>2022-07-21T15:15:39Z</time>
      </trkpt>
      <trkpt lat="47.1043060" lon="6.7339270">
        <ele>852.3</ele>
        <time>2022-07-21T15:15:41Z</time>
      </trkpt>
      <trkpt lat="47.1042980" lon="6.7339240">
        <ele>852.3</ele>
        <time>2022-07-21T15:15:42Z</time>
      </trkpt>
      <trkpt lat="47.1042630" lon="6.7339020">
        <ele>852.7</ele>
        <time>2022-07-21T15:15:43Z</time>
      </trkpt>
      <trkpt lat="47.1042500" lon="6.7338930">
        <ele>852.9</ele>
        <time>2022-07-21T15:15:44Z</time>
      </trkpt>
      <trkpt lat="47.1042160" lon="6.7338750">
        <ele>853.2</ele>
        <time>2022-07-21T15:15:45Z</time>
      </trkpt>
      <trkpt lat="47.1042030" lon="6.7338690">
        <ele>853.4</ele>
        <time>2022-07-21T15:15:46Z</time>
      </trkpt>
      <trkpt lat="47.1041630" lon="6.7338580">
        <ele>853.8</ele>
        <time>2022-07-21T15:15:48Z</time>
      </trkpt>
      <trkpt lat="47.1041500" lon="6.7338530">
        <ele>853.9</ele>
        <time>2022-07-21T15:15:49Z</time>
      </trkpt>
      <trkpt lat="47.1041370" lon="6.7338490">
        <ele>854.0</ele>
        <time>2022-07-21T15:15:50Z</time>
      </trkpt>
      <trkpt lat="47.1041020" lon="6.7338440">
        <ele>854.3</ele>
        <time>2022-07-21T15:15:52Z</time>
      </trkpt>
      <trkpt lat="47.1040880" lon="6.7338410">
        <ele>854.5</ele>
        <time>2022-07-21T15:15:53Z</time>
      </trkpt>
      <trkpt lat="47.1040550" lon="6.7338310">
        <ele>854.8</ele>
        <time>2022-07-21T15:15:54Z</time>
      </trkpt>
      <trkpt lat="47.1040160" lon="6.7338140">
        <ele>855.1</ele>
        <time>2022-07-21T15:15:56Z</time>
      </trkpt>
      <trkpt lat="47.1040030" lon="6.7338090">
        <ele>855.3</ele>
        <time>2022-07-21T15:15:57Z</time>
      </trkpt>
      <trkpt lat="47.1039900" lon="6.7338030">
        <ele>855.4</ele>
        <time>2022-07-21T15:15:58Z</time>
      </trkpt>
      <trkpt lat="47.1039710" lon="6.7337940">
        <ele>855.4</ele>
        <time>2022-07-21T15:15:59Z</time>
      </trkpt>
      <trkpt lat="47.1039640" lon="6.7337890">
        <ele>855.4</ele>
        <time>2022-07-21T15:16:00Z</time>
      </trkpt>
      <trkpt lat="47.1039570" lon="6.7337840">
        <ele>855.5</ele>
        <time>2022-07-21T15:16:01Z</time>
      </trkpt>
      <trkpt lat="47.1039500" lon="6.7337790">
        <ele>855.5</ele>
        <time>2022-07-21T15:16:02Z</time>
      </trkpt>
      <trkpt lat="47.1039320" lon="6.7337720">
        <ele>855.6</ele>
        <time>2022-07-21T15:16:03Z</time>
      </trkpt>
      <trkpt lat="47.1039190" lon="6.7337660">
        <ele>855.6</ele>
        <time>2022-07-21T15:16:04Z</time>
      </trkpt>
      <trkpt lat="47.1039040" lon="6.7337570">
        <ele>855.6</ele>
        <time>2022-07-21T15:16:05Z</time>
      </trkpt>
      <trkpt lat="47.1038880" lon="6.7337480">
        <ele>855.7</ele>
        <time>2022-07-21T15:16:06Z</time>
      </trkpt>
      <trkpt lat="47.1038710" lon="6.7337410">
        <ele>855.7</ele>
        <time>2022-07-21T15:16:07Z</time>
      </trkpt>
      <trkpt lat="47.1038530" lon="6.7337340">
        <ele>855.8</ele>
        <time>2022-07-21T15:16:08Z</time>
      </trkpt>
      <trkpt lat="47.1038270" lon="6.7337240">
        <ele>856.0</ele>
        <time>2022-07-21T15:16:09Z</time>
      </trkpt>
      <trkpt lat="47.1038170" lon="6.7337200">
        <ele>856.1</ele>
        <time>2022-07-21T15:16:10Z</time>
      </trkpt>
      <trkpt lat="47.1038010" lon="6.7337080">
        <ele>856.3</ele>
        <time>2022-07-21T15:16:11Z</time>
      </trkpt>
      <trkpt lat="47.1037870" lon="6.7336960">
        <ele>856.4</ele>
        <time>2022-07-21T15:16:12Z</time>
      </trkpt>
      <trkpt lat="47.1037610" lon="6.7336800">
        <ele>856.6</ele>
        <time>2022-07-21T15:16:13Z</time>
      </trkpt>
      <trkpt lat="47.1037520" lon="6.7336750">
        <ele>856.7</ele>
        <time>2022-07-21T15:16:14Z</time>
      </trkpt>
      <trkpt lat="47.1037350" lon="6.7336640">
        <ele>856.9</ele>
        <time>2022-07-21T15:16:15Z</time>
      </trkpt>
      <trkpt lat="47.1037200" lon="6.7336530">
        <ele>857.0</ele>
        <time>2022-07-21T15:16:16Z</time>
      </trkpt>
      <trkpt lat="47.1036900" lon="6.7336360">
        <ele>857.3</ele>
        <time>2022-07-21T15:16:17Z</time>
      </trkpt>
      <trkpt lat="47.1036810" lon="6.7336300">
        <ele>857.4</ele>
        <time>2022-07-21T15:16:18Z</time>
      </trkpt>
      <trkpt lat="47.1036670" lon="6.7336170">
        <ele>857.5</ele>
        <time>2022-07-21T15:16:19Z</time>
      </trkpt>
      <trkpt lat="47.1036520" lon="6.7336030">
        <ele>857.7</ele>
        <time>2022-07-21T15:16:20Z</time>
      </trkpt>
      <trkpt lat="47.1036390" lon="6.7335890">
        <ele>857.8</ele>
        <time>2022-07-21T15:16:21Z</time>
      </trkpt>
      <trkpt lat="47.1036310" lon="6.7335880">
        <ele>857.9</ele>
        <time>2022-07-21T15:16:22Z</time>
      </trkpt>
      <trkpt lat="47.1036210" lon="6.7335850">
        <ele>858.0</ele>
        <time>2022-07-21T15:16:23Z</time>
      </trkpt>
      <trkpt lat="47.1036070" lon="6.7335800">
        <ele>858.1</ele>
        <time>2022-07-21T15:16:24Z</time>
      </trkpt>
      <trkpt lat="47.1035710" lon="6.7335720">
        <ele>858.4</ele>
        <time>2022-07-21T15:16:26Z</time>
      </trkpt>
      <trkpt lat="47.1035540" lon="6.7335700">
        <ele>858.6</ele>
        <time>2022-07-21T15:16:27Z</time>
      </trkpt>
      <trkpt lat="47.1035460" lon="6.7335750">
        <ele>858.6</ele>
        <time>2022-07-21T15:16:28Z</time>
      </trkpt>
      <trkpt lat="47.1035380" lon="6.7335730">
        <ele>858.7</ele>
        <time>2022-07-21T15:16:29Z</time>
      </trkpt>
      <trkpt lat="47.1035270" lon="6.7335690">
        <ele>858.8</ele>
        <time>2022-07-21T15:16:30Z</time>
      </trkpt>
      <trkpt lat="47.1035110" lon="6.7335610">
        <ele>859.0</ele>
        <time>2022-07-21T15:16:31Z</time>
      </trkpt>
      <trkpt lat="47.1034830" lon="6.7335440">
        <ele>859.2</ele>
        <time>2022-07-21T15:16:32Z</time>
      </trkpt>
      <trkpt lat="47.1034710" lon="6.7335390">
        <ele>859.3</ele>
        <time>2022-07-21T15:16:33Z</time>
      </trkpt>
      <trkpt lat="47.1034440" lon="6.7335250">
        <ele>859.5</ele>
        <time>2022-07-21T15:16:34Z</time>
      </trkpt>
      <trkpt lat="47.1034340" lon="6.7335200">
        <ele>859.6</ele>
        <time>2022-07-21T15:16:35Z</time>
      </trkpt>
      <trkpt lat="47.1034050" lon="6.7335050">
        <ele>859.9</ele>
        <time>2022-07-21T15:16:36Z</time>
      </trkpt>
      <trkpt lat="47.1033930" lon="6.7335000">
        <ele>859.9</ele>
        <time>2022-07-21T15:16:37Z</time>
      </trkpt>
      <trkpt lat="47.1033610" lon="6.7334870">
        <ele>860.2</ele>
        <time>2022-07-21T15:16:38Z</time>
      </trkpt>
      <trkpt lat="47.1033530" lon="6.7334840">
        <ele>860.2</ele>
        <time>2022-07-21T15:16:39Z</time>
      </trkpt>
      <trkpt lat="47.1033260" lon="6.7334700">
        <ele>860.4</ele>
        <time>2022-07-21T15:16:40Z</time>
      </trkpt>
      <trkpt lat="47.1033160" lon="6.7334630">
        <ele>860.5</ele>
        <time>2022-07-21T15:16:41Z</time>
      </trkpt>
      <trkpt lat="47.1032850" lon="6.7334370">
        <ele>860.7</ele>
        <time>2022-07-21T15:16:42Z</time>
      </trkpt>
      <trkpt lat="47.1032750" lon="6.7334270">
        <ele>860.8</ele>
        <time>2022-07-21T15:16:43Z</time>
      </trkpt>
      <trkpt lat="47.1032450" lon="6.7334050">
        <ele>861.0</ele>
        <time>2022-07-21T15:16:44Z</time>
      </trkpt>
      <trkpt lat="47.1032380" lon="6.7334010">
        <ele>861.0</ele>
        <time>2022-07-21T15:16:45Z</time>
      </trkpt>
      <trkpt lat="47.1031950" lon="6.7333860">
        <ele>861.3</ele>
        <time>2022-07-21T15:16:47Z</time>
      </trkpt>
      <trkpt lat="47.1031670" lon="6.7333700">
        <ele>861.4</ele>
        <time>2022-07-21T15:16:48Z</time>
      </trkpt>
      <trkpt lat="47.1031580" lon="6.7333650">
        <ele>861.5</ele>
        <time>2022-07-21T15:16:49Z</time>
      </trkpt>
      <trkpt lat="47.1031410" lon="6.7333540">
        <ele>861.5</ele>
        <time>2022-07-21T15:16:50Z</time>
      </trkpt>
      <trkpt lat="47.1031250" lon="6.7333440">
        <ele>861.5</ele>
        <time>2022-07-21T15:16:51Z</time>
      </trkpt>
      <trkpt lat="47.1030910" lon="6.7333210">
        <ele>861.6</ele>
        <time>2022-07-21T15:16:52Z</time>
      </trkpt>
      <trkpt lat="47.1030800" lon="6.7333130">
        <ele>861.7</ele>
        <time>2022-07-21T15:16:53Z</time>
      </trkpt>
      <trkpt lat="47.1030450" lon="6.7332960">
        <ele>861.8</ele>
        <time>2022-07-21T15:16:54Z</time>
      </trkpt>
      <trkpt lat="47.1030290" lon="6.7332880">
        <ele>861.8</ele>
        <time>2022-07-21T15:16:55Z</time>
      </trkpt>
      <trkpt lat="47.1030020" lon="6.7332620">
        <ele>861.9</ele>
        <time>2022-07-21T15:16:57Z</time>
      </trkpt>
      <trkpt lat="47.1029900" lon="6.7332510">
        <ele>861.9</ele>
        <time>2022-07-21T15:16:58Z</time>
      </trkpt>
      <trkpt lat="47.1029640" lon="6.7332290">
        <ele>862.0</ele>
        <time>2022-07-21T15:16:59Z</time>
      </trkpt>
      <trkpt lat="47.1029550" lon="6.7332210">
        <ele>862.0</ele>
        <time>2022-07-21T15:17:00Z</time>
      </trkpt>
      <trkpt lat="47.1029390" lon="6.7332110">
        <ele>862.0</ele>
        <time>2022-07-21T15:17:01Z</time>
      </trkpt>
      <trkpt lat="47.1029240" lon="6.7332010">
        <ele>862.1</ele>
        <time>2022-07-21T15:17:02Z</time>
      </trkpt>
      <trkpt lat="47.1029050" lon="6.7331920">
        <ele>862.1</ele>
        <time>2022-07-21T15:17:03Z</time>
      </trkpt>
      <trkpt lat="47.1028900" lon="6.7331860">
        <ele>862.2</ele>
        <time>2022-07-21T15:17:04Z</time>
      </trkpt>
      <trkpt lat="47.1028640" lon="6.7331770">
        <ele>862.2</ele>
        <time>2022-07-21T15:17:05Z</time>
      </trkpt>
      <trkpt lat="47.1028540" lon="6.7331740">
        <ele>862.3</ele>
        <time>2022-07-21T15:17:06Z</time>
      </trkpt>
      <trkpt lat="47.1028280" lon="6.7331650">
        <ele>862.3</ele>
        <time>2022-07-21T15:17:07Z</time>
      </trkpt>
      <trkpt lat="47.1028180" lon="6.7331620">
        <ele>862.4</ele>
        <time>2022-07-21T15:17:08Z</time>
      </trkpt>
      <trkpt lat="47.1028010" lon="6.7331520">
        <ele>862.4</ele>
        <time>2022-07-21T15:17:09Z</time>
      </trkpt>
      <trkpt lat="47.1027860" lon="6.7331420">
        <ele>862.4</ele>
        <time>2022-07-21T15:17:10Z</time>
      </trkpt>
      <trkpt lat="47.1027730" lon="6.7331280">
        <ele>862.5</ele>
        <time>2022-07-21T15:17:11Z</time>
      </trkpt>
      <trkpt lat="47.1027640" lon="6.7331070">
        <ele>862.5</ele>
        <time>2022-07-21T15:17:12Z</time>
      </trkpt>
      <trkpt lat="47.1027670" lon="6.7330730">
        <ele>862.6</ele>
        <time>2022-07-21T15:17:13Z</time>
      </trkpt>
      <trkpt lat="47.1027730" lon="6.7330600">
        <ele>862.6</ele>
        <time>2022-07-21T15:17:14Z</time>
      </trkpt>
      <trkpt lat="47.1027790" lon="6.7330460">
        <ele>862.6</ele>
        <time>2022-07-21T15:17:15Z</time>
      </trkpt>
      <trkpt lat="47.1027910" lon="6.7330300">
        <ele>862.7</ele>
        <time>2022-07-21T15:17:16Z</time>
      </trkpt>
      <trkpt lat="47.1028020" lon="6.7330160">
        <ele>862.7</ele>
        <time>2022-07-21T15:17:17Z</time>
      </trkpt>
      <trkpt lat="47.1028290" lon="6.7329830">
        <ele>862.8</ele>
        <time>2022-07-21T15:17:18Z</time>
      </trkpt>
      <trkpt lat="47.1028390" lon="6.7329710">
        <ele>862.8</ele>
        <time>2022-07-21T15:17:19Z</time>
      </trkpt>
      <trkpt lat="47.1028590" lon="6.7329410">
        <ele>862.9</ele>
        <time>2022-07-21T15:17:20Z</time>
      </trkpt>
      <trkpt lat="47.1028650" lon="6.7329300">
        <ele>862.9</ele>
        <time>2022-07-21T15:17:21Z</time>
      </trkpt>
      <trkpt lat="47.1028740" lon="6.7329090">
        <ele>863.0</ele>
        <time>2022-07-21T15:17:22Z</time>
      </trkpt>
      <trkpt lat="47.1028820" lon="6.7328890">
        <ele>863.0</ele>
        <time>2022-07-21T15:17:23Z</time>
      </trkpt>
      <trkpt lat="47.1028880" lon="6.7328720">
        <ele>863.0</ele>
        <time>2022-07-21T15:17:24Z</time>
      </trkpt>
      <trkpt lat="47.1028910" lon="6.7328620">
        <ele>863.1</ele>
        <time>2022-07-21T15:17:25Z</time>
      </trkpt>
      <trkpt lat="47.1028920" lon="6.7328570">
        <ele>863.1</ele>
        <time>2022-07-21T15:17:26Z</time>
      </trkpt>
      <trkpt lat="47.1028920" lon="6.7328590">
        <ele>863.1</ele>
        <time>2022-07-21T15:17:27Z</time>
      </trkpt>
      <trkpt lat="47.1028950" lon="6.7328570">
        <ele>863.1</ele>
        <time>2022-07-21T15:17:28Z</time>
      </trkpt>
      <trkpt lat="47.1029020" lon="6.7328540">
        <ele>863.1</ele>
        <time>2022-07-21T15:17:29Z</time>
      </trkpt>
      <trkpt lat="47.1029050" lon="6.7328520">
        <ele>863.1</ele>
        <time>2022-07-21T15:17:30Z</time>
      </trkpt>
      <trkpt lat="47.1029090" lon="6.7328480">
        <ele>863.1</ele>
        <time>2022-07-21T15:17:31Z</time>
      </trkpt>
      <trkpt lat="47.1029140" lon="6.7328430">
        <ele>863.1</ele>
        <time>2022-07-21T15:17:32Z</time>
      </trkpt>
      <trkpt lat="47.1029200" lon="6.7328410">
        <ele>863.1</ele>
        <time>2022-07-21T15:17:33Z</time>
      </trkpt>
      <trkpt lat="47.1029250" lon="6.7328430">
        <ele>863.2</ele>
        <time>2022-07-21T15:17:34Z</time>
      </trkpt>
      <trkpt lat="47.1029260" lon="6.7328490">
        <ele>863.2</ele>
        <time>2022-07-21T15:17:35Z</time>
      </trkpt>
      <trkpt lat="47.1029250" lon="6.7328510">
        <ele>863.2</ele>
        <time>2022-07-21T15:17:36Z</time>
      </trkpt>
      <trkpt lat="47.1029220" lon="6.7328520">
        <ele>863.2</ele>
        <time>2022-07-21T15:17:37Z</time>
      </trkpt>
      <trkpt lat="47.1029180" lon="6.7328520">
        <ele>863.2</ele>
        <time>2022-07-21T15:17:38Z</time>
      </trkpt>
      <trkpt lat="47.1029180" lon="6.7328570">
        <ele>863.2</ele>
        <time>2022-07-21T15:17:39Z</time>
      </trkpt>
      <trkpt lat="47.1029180" lon="6.7328630">
        <ele>863.2</ele>
        <time>2022-07-21T15:17:40Z</time>
      </trkpt>
      <trkpt lat="47.1029180" lon="6.7328660">
        <ele>863.2</ele>
        <time>2022-07-21T15:17:41Z</time>
      </trkpt>
      <trkpt lat="47.1029180" lon="6.7328670">
        <ele>863.2</ele>
        <time>2022-07-21T15:17:42Z</time>
      </trkpt>
      <trkpt lat="47.1029180" lon="6.7328650">
        <ele>863.2</ele>
        <time>2022-07-21T15:17:43Z</time>
      </trkpt>
      <trkpt lat="47.1029180" lon="6.7328630">
        <ele>863.2</ele>
        <time>2022-07-21T15:17:44Z</time>
      </trkpt>
      <trkpt lat="47.1029170" lon="6.7328620">
        <ele>863.2</ele>
        <time>2022-07-21T15:17:45Z</time>
      </trkpt>
      <trkpt lat="47.1029160" lon="6.7328620">
        <ele>863.2</ele>
        <time>2022-07-21T15:17:46Z</time>
      </trkpt>
      <trkpt lat="47.1028930" lon="6.7328160">
        <ele>863.3</ele>
        <time>2022-07-21T15:19:15Z</time>
      </trkpt>
      <trkpt lat="47.1028910" lon="6.7328140">
        <ele>863.3</ele>
        <time>2022-07-21T15:19:16Z</time>
      </trkpt>
      <trkpt lat="47.1028900" lon="6.7328130">
        <ele>863.3</ele>
        <time>2022-07-21T15:19:17Z</time>
      </trkpt>
      <trkpt lat="47.1028890" lon="6.7328120">
        <ele>863.3</ele>
        <time>2022-07-21T15:19:18Z</time>
      </trkpt>
      <trkpt lat="47.1028880" lon="6.7328110">
        <ele>863.3</ele>
        <time>2022-07-21T15:19:19Z</time>
      </trkpt>
      <trkpt lat="47.1028870" lon="6.7328100">
        <ele>863.3</ele>
        <time>2022-07-21T15:19:20Z</time>
      </trkpt>
      <trkpt lat="47.1028870" lon="6.7328090">
        <ele>863.3</ele>
        <time>2022-07-21T15:19:21Z</time>
      </trkpt>
      <trkpt lat="47.1028870" lon="6.7328090">
        <ele>863.3</ele>
        <time>2022-07-21T15:19:22Z</time>
      </trkpt>
      <trkpt lat="47.1028880" lon="6.7328110">
        <ele>863.3</ele>
        <time>2022-07-21T15:19:23Z</time>
      </trkpt>
      <trkpt lat="47.1028900" lon="6.7328110">
        <ele>863.4</ele>
        <time>2022-07-21T15:19:24Z</time>
      </trkpt>
      <trkpt lat="47.1028900" lon="6.7328120">
        <ele>863.4</ele>
        <time>2022-07-21T15:19:25Z</time>
      </trkpt>
      <trkpt lat="47.1028900" lon="6.7328120">
        <ele>863.4</ele>
        <time>2022-07-21T15:19:26Z</time>
      </trkpt>
      <trkpt lat="47.1029160" lon="6.7328850">
        <ele>863.5</ele>
        <time>2022-07-21T15:22:06Z</time>
      </trkpt>
      <trkpt lat="47.1029210" lon="6.7328880">
        <ele>863.5</ele>
        <time>2022-07-21T15:22:07Z</time>
      </trkpt>
      <trkpt lat="47.1029240" lon="6.7328880">
        <ele>863.5</ele>
        <time>2022-07-21T15:22:08Z</time>
      </trkpt>
      <trkpt lat="47.1029260" lon="6.7328880">
        <ele>863.5</ele>
        <time>2022-07-21T15:22:09Z</time>
      </trkpt>
      <trkpt lat="47.1029270" lon="6.7328880">
        <ele>863.5</ele>
        <time>2022-07-21T15:22:10Z</time>
      </trkpt>
      <trkpt lat="47.1029270" lon="6.7328880">
        <ele>863.5</ele>
        <time>2022-07-21T15:22:11Z</time>
      </trkpt>
      <trkpt lat="47.1029270" lon="6.7328880">
        <ele>863.5</ele>
        <time>2022-07-21T15:22:12Z</time>
      </trkpt>
      <trkpt lat="47.1029270" lon="6.7328880">
        <ele>863.5</ele>
        <time>2022-07-21T15:22:13Z</time>
      </trkpt>
      <trkpt lat="47.1029270" lon="6.7328880">
        <ele>863.5</ele>
        <time>2022-07-21T15:22:14Z</time>
      </trkpt>
      <trkpt lat="47.1029270" lon="6.7328880">
        <ele>863.5</ele>
        <time>2022-07-21T15:22:15Z</time>
      </trkpt>
      <trkpt lat="47.1029270" lon="6.7328880">
        <ele>863.5</ele>
        <time>2022-07-21T15:22:16Z</time>
      </trkpt>
      <trkpt lat="47.1029270" lon="6.7328880">
        <ele>863.5</ele>
        <time>2022-07-21T15:22:17Z</time>
      </trkpt>
      <trkpt lat="47.1029270" lon="6.7328880">
        <ele>863.5</ele>
        <time>2022-07-21T15:22:18Z</time>
      </trkpt>
      <trkpt lat="47.1029070" lon="6.7328240">
        <ele>863.6</ele>
        <time>2022-07-21T15:27:53Z</time>
      </trkpt>
      <trkpt lat="47.1029110" lon="6.7328180">
        <ele>863.7</ele>
        <time>2022-07-21T15:27:54Z</time>
      </trkpt>
      <trkpt lat="47.1029110" lon="6.7328130">
        <ele>863.7</ele>
        <time>2022-07-21T15:27:55Z</time>
      </trkpt>
      <trkpt lat="47.1029100" lon="6.7328070">
        <ele>863.7</ele>
        <time>2022-07-21T15:27:56Z</time>
      </trkpt>
      <trkpt lat="47.1029080" lon="6.7328050">
        <ele>863.7</ele>
        <time>2022-07-21T15:27:57Z</time>
      </trkpt>
      <trkpt lat="47.1029050" lon="6.7328090">
        <ele>863.7</ele>
        <time>2022-07-21T15:27:58Z</time>
      </trkpt>
      <trkpt lat="47.1029010" lon="6.7328120">
        <ele>863.7</ele>
        <time>2022-07-21T15:27:59Z</time>
      </trkpt>
      <trkpt lat="47.1028990" lon="6.7328140">
        <ele>863.7</ele>
        <time>2022-07-21T15:28:00Z</time>
      </trkpt>
      <trkpt lat="47.1028970" lon="6.7328160">
        <ele>863.7</ele>
        <time>2022-07-21T15:28:01Z</time>
      </trkpt>
      <trkpt lat="47.1028950" lon="6.7328180">
        <ele>863.7</ele>
        <time>2022-07-21T15:28:02Z</time>
      </trkpt>
      <trkpt lat="47.1028930" lon="6.7328190">
        <ele>863.7</ele>
        <time>2022-07-21T15:28:03Z</time>
      </trkpt>
      <trkpt lat="47.1028910" lon="6.7328210">
        <ele>863.7</ele>
        <time>2022-07-21T15:28:04Z</time>
      </trkpt>
      <trkpt lat="47.1028910" lon="6.7328230">
        <ele>863.7</ele>
        <time>2022-07-21T15:28:05Z</time>
      </trkpt>
      <trkpt lat="47.1028900" lon="6.7328250">
        <ele>863.7</ele>
        <time>2022-07-21T15:28:06Z</time>
      </trkpt>
      <trkpt lat="47.1028870" lon="6.7328290">
        <ele>863.7</ele>
        <time>2022-07-21T15:28:07Z</time>
      </trkpt>
      <trkpt lat="47.1028780" lon="6.7328320">
        <ele>863.8</ele>
        <time>2022-07-21T15:28:09Z</time>
      </trkpt>
      <trkpt lat="47.1028750" lon="6.7328330">
        <ele>863.8</ele>
        <time>2022-07-21T15:28:10Z</time>
      </trkpt>
      <trkpt lat="47.1028720" lon="6.7328340">
        <ele>863.8</ele>
        <time>2022-07-21T15:28:11Z</time>
      </trkpt>
      <trkpt lat="47.1028680" lon="6.7328370">
        <ele>863.8</ele>
        <time>2022-07-21T15:28:12Z</time>
      </trkpt>
      <trkpt lat="47.1028650" lon="6.7328400">
        <ele>863.8</ele>
        <time>2022-07-21T15:28:13Z</time>
      </trkpt>
      <trkpt lat="47.1028640" lon="6.7328390">
        <ele>863.8</ele>
        <time>2022-07-21T15:28:14Z</time>
      </trkpt>
      <trkpt lat="47.1028640" lon="6.7328380">
        <ele>863.8</ele>
        <time>2022-07-21T15:28:15Z</time>
      </trkpt>
      <trkpt lat="47.1028650" lon="6.7328390">
        <ele>863.8</ele>
        <time>2022-07-21T15:28:16Z</time>
      </trkpt>
      <trkpt lat="47.1028670" lon="6.7328380">
        <ele>863.8</ele>
        <time>2022-07-21T15:28:17Z</time>
      </trkpt>
      <trkpt lat="47.1028670" lon="6.7328350">
        <ele>863.8</ele>
        <time>2022-07-21T15:28:18Z</time>
      </trkpt>
      <trkpt lat="47.1028650" lon="6.7328340">
        <ele>863.8</ele>
        <time>2022-07-21T15:28:19Z</time>
      </trkpt>
      <trkpt lat="47.1028640" lon="6.7328340">
        <ele>863.8</ele>
        <time>2022-07-21T15:28:20Z</time>
      </trkpt>
      <trkpt lat="47.1028640" lon="6.7328330">
        <ele>863.8</ele>
        <time>2022-07-21T15:28:21Z</time>
      </trkpt>
      <trkpt lat="47.1028630" lon="6.7328320">
        <ele>863.8</ele>
        <time>2022-07-21T15:28:22Z</time>
      </trkpt>
      <trkpt lat="47.1028630" lon="6.7328310">
        <ele>863.8</ele>
        <time>2022-07-21T15:28:23Z</time>
      </trkpt>
      <trkpt lat="47.1028610" lon="6.7328290">
        <ele>863.8</ele>
        <time>2022-07-21T15:28:24Z</time>
      </trkpt>
      <trkpt lat="47.1028610" lon="6.7328290">
        <ele>863.8</ele>
        <time>2022-07-21T15:28:25Z</time>
      </trkpt>
      <trkpt lat="47.1028610" lon="6.7328280">
        <ele>863.8</ele>
        <time>2022-07-21T15:28:26Z</time>
      </trkpt>
      <trkpt lat="47.1028600" lon="6.7328270">
        <ele>863.8</ele>
        <time>2022-07-21T15:28:27Z</time>
      </trkpt>
      <trkpt lat="47.1028530" lon="6.7328160">
        <ele>863.9</ele>
        <time>2022-07-21T15:29:36Z</time>
      </trkpt>
      <trkpt lat="47.1028540" lon="6.7328170">
        <ele>863.9</ele>
        <time>2022-07-21T15:29:37Z</time>
      </trkpt>
      <trkpt lat="47.1028550" lon="6.7328210">
        <ele>863.9</ele>
        <time>2022-07-21T15:29:38Z</time>
      </trkpt>
      <trkpt lat="47.1028560" lon="6.7328270">
        <ele>863.9</ele>
        <time>2022-07-21T15:29:39Z</time>
      </trkpt>
      <trkpt lat="47.1028560" lon="6.7328290">
        <ele>863.9</ele>
        <time>2022-07-21T15:29:40Z</time>
      </trkpt>
      <trkpt lat="47.1028550" lon="6.7328310">
        <ele>863.9</ele>
        <time>2022-07-21T15:29:41Z</time>
      </trkpt>
      <trkpt lat="47.1028550" lon="6.7328310">
        <ele>863.9</ele>
        <time>2022-07-21T15:29:42Z</time>
      </trkpt>
      <trkpt lat="47.1028550" lon="6.7328300">
        <ele>863.9</ele>
        <time>2022-07-21T15:29:43Z</time>
      </trkpt>
      <trkpt lat="47.1028430" lon="6.7328350">
        <ele>863.9</ele>
        <time>2022-07-21T15:29:44Z</time>
      </trkpt>
      <trkpt lat="47.1028320" lon="6.7328440">
        <ele>864.0</ele>
        <time>2022-07-21T15:29:45Z</time>
      </trkpt>
      <trkpt lat="47.1028260" lon="6.7328530">
        <ele>864.0</ele>
        <time>2022-07-21T15:29:46Z</time>
      </trkpt>
      <trkpt lat="47.1028180" lon="6.7328650">
        <ele>864.0</ele>
        <time>2022-07-21T15:29:47Z</time>
      </trkpt>
      <trkpt lat="47.1028090" lon="6.7328750">
        <ele>864.0</ele>
        <time>2022-07-21T15:29:48Z</time>
      </trkpt>
      <trkpt lat="47.1027930" lon="6.7328900">
        <ele>864.1</ele>
        <time>2022-07-21T15:29:49Z</time>
      </trkpt>
      <trkpt lat="47.1027850" lon="6.7328970">
        <ele>864.1</ele>
        <time>2022-07-21T15:29:50Z</time>
      </trkpt>
      <trkpt lat="47.1027770" lon="6.7329030">
        <ele>864.1</ele>
        <time>2022-07-21T15:29:51Z</time>
      </trkpt>
      <trkpt lat="47.1027750" lon="6.7329070">
        <ele>864.1</ele>
        <time>2022-07-21T15:29:52Z</time>
      </trkpt>
      <trkpt lat="47.1027640" lon="6.7329150">
        <ele>864.2</ele>
        <time>2022-07-21T15:29:53Z</time>
      </trkpt>
      <trkpt lat="47.1027530" lon="6.7329240">
        <ele>864.2</ele>
        <time>2022-07-21T15:29:54Z</time>
      </trkpt>
      <trkpt lat="47.1027410" lon="6.7329320">
        <ele>864.2</ele>
        <time>2022-07-21T15:29:55Z</time>
      </trkpt>
      <trkpt lat="47.1027300" lon="6.7329410">
        <ele>864.3</ele>
        <time>2022-07-21T15:29:56Z</time>
      </trkpt>
      <trkpt lat="47.1026900" lon="6.7329770">
        <ele>864.4</ele>
        <time>2022-07-21T15:29:57Z</time>
      </trkpt>
      <trkpt lat="47.1026350" lon="6.7330330">
        <ele>864.4</ele>
        <time>2022-07-21T15:29:58Z</time>
      </trkpt>
      <trkpt lat="47.1025920" lon="6.7330740">
        <ele>864.5</ele>
        <time>2022-07-21T15:29:59Z</time>
      </trkpt>
      <trkpt lat="47.1025590" lon="6.7330960">
        <ele>864.5</ele>
        <time>2022-07-21T15:30:00Z</time>
      </trkpt>
      <trkpt lat="47.1025180" lon="6.7331120">
        <ele>864.5</ele>
        <time>2022-07-21T15:30:01Z</time>
      </trkpt>
      <trkpt lat="47.1024790" lon="6.7331120">
        <ele>864.5</ele>
        <time>2022-07-21T15:30:02Z</time>
      </trkpt>
      <trkpt lat="47.1024450" lon="6.7331050">
        <ele>864.6</ele>
        <time>2022-07-21T15:30:03Z</time>
      </trkpt>
      <trkpt lat="47.1024060" lon="6.7330930">
        <ele>864.6</ele>
        <time>2022-07-21T15:30:04Z</time>
      </trkpt>
      <trkpt lat="47.1023750" lon="6.7330790">
        <ele>864.6</ele>
        <time>2022-07-21T15:30:05Z</time>
      </trkpt>
      <trkpt lat="47.1023450" lon="6.7330610">
        <ele>864.6</ele>
        <time>2022-07-21T15:30:06Z</time>
      </trkpt>
      <trkpt lat="47.1023080" lon="6.7330330">
        <ele>864.6</ele>
        <time>2022-07-21T15:30:07Z</time>
      </trkpt>
      <trkpt lat="47.1022780" lon="6.7330040">
        <ele>864.6</ele>
        <time>2022-07-21T15:30:08Z</time>
      </trkpt>
      <trkpt lat="47.1022530" lon="6.7329780">
        <ele>864.7</ele>
        <time>2022-07-21T15:30:09Z</time>
      </trkpt>
      <trkpt lat="47.1022270" lon="6.7329500">
        <ele>864.7</ele>
        <time>2022-07-21T15:30:10Z</time>
      </trkpt>
      <trkpt lat="47.1022050" lon="6.7329200">
        <ele>864.8</ele>
        <time>2022-07-21T15:30:11Z</time>
      </trkpt>
      <trkpt lat="47.1021810" lon="6.7328840">
        <ele>864.9</ele>
        <time>2022-07-21T15:30:12Z</time>
      </trkpt>
      <trkpt lat="47.1021560" lon="6.7328410">
        <ele>865.0</ele>
        <time>2022-07-21T15:30:13Z</time>
      </trkpt>
      <trkpt lat="47.1021390" lon="6.7328090">
        <ele>865.0</ele>
        <time>2022-07-21T15:30:14Z</time>
      </trkpt>
      <trkpt lat="47.1021160" lon="6.7327720">
        <ele>865.1</ele>
        <time>2022-07-21T15:30:15Z</time>
      </trkpt>
      <trkpt lat="47.1021070" lon="6.7327600">
        <ele>865.2</ele>
        <time>2022-07-21T15:30:16Z</time>
      </trkpt>
      <trkpt lat="47.1020850" lon="6.7327320">
        <ele>865.2</ele>
        <time>2022-07-21T15:30:17Z</time>
      </trkpt>
      <trkpt lat="47.1020610" lon="6.7327080">
        <ele>865.3</ele>
        <time>2022-07-21T15:30:18Z</time>
      </trkpt>
      <trkpt lat="47.1020440" lon="6.7326870">
        <ele>865.4</ele>
        <time>2022-07-21T15:30:19Z</time>
      </trkpt>
      <trkpt lat="47.1020370" lon="6.7326720">
        <ele>865.5</ele>
        <time>2022-07-21T15:30:20Z</time>
      </trkpt>
      <trkpt lat="47.1020170" lon="6.7326360">
        <ele>865.7</ele>
        <time>2022-07-21T15:30:21Z</time>
      </trkpt>
      <trkpt lat="47.1020110" lon="6.7326240">
        <ele>865.7</ele>
        <time>2022-07-21T15:30:22Z</time>
      </trkpt>
      <trkpt lat="47.1019920" lon="6.7325840">
        <ele>865.9</ele>
        <time>2022-07-21T15:30:23Z</time>
      </trkpt>
      <trkpt lat="47.1019850" lon="6.7325700">
        <ele>865.9</ele>
        <time>2022-07-21T15:30:24Z</time>
      </trkpt>
      <trkpt lat="47.1019690" lon="6.7325350">
        <ele>866.1</ele>
        <time>2022-07-21T15:30:25Z</time>
      </trkpt>
      <trkpt lat="47.1019630" lon="6.7325250">
        <ele>866.1</ele>
        <time>2022-07-21T15:30:26Z</time>
      </trkpt>
      <trkpt lat="47.1019430" lon="6.7324890">
        <ele>866.3</ele>
        <time>2022-07-21T15:30:27Z</time>
      </trkpt>
      <trkpt lat="47.1019340" lon="6.7324750">
        <ele>866.4</ele>
        <time>2022-07-21T15:30:28Z</time>
      </trkpt>
      <trkpt lat="47.1019220" lon="6.7324560">
        <ele>866.4</ele>
        <time>2022-07-21T15:30:29Z</time>
      </trkpt>
      <trkpt lat="47.1019110" lon="6.7324360">
        <ele>866.5</ele>
        <time>2022-07-21T15:30:30Z</time>
      </trkpt>
      <trkpt lat="47.1019000" lon="6.7324140">
        <ele>866.6</ele>
        <time>2022-07-21T15:30:31Z</time>
      </trkpt>
      <trkpt lat="47.1018920" lon="6.7323920">
        <ele>866.6</ele>
        <time>2022-07-21T15:30:32Z</time>
      </trkpt>
      <trkpt lat="47.1018770" lon="6.7323520">
        <ele>866.7</ele>
        <time>2022-07-21T15:30:33Z</time>
      </trkpt>
      <trkpt lat="47.1018720" lon="6.7323370">
        <ele>866.7</ele>
        <time>2022-07-21T15:30:34Z</time>
      </trkpt>
      <trkpt lat="47.1018610" lon="6.7322950">
        <ele>866.8</ele>
        <time>2022-07-21T15:30:35Z</time>
      </trkpt>
      <trkpt lat="47.1018560" lon="6.7322790">
        <ele>866.8</ele>
        <time>2022-07-21T15:30:36Z</time>
      </trkpt>
      <trkpt lat="47.1018470" lon="6.7322540">
        <ele>866.8</ele>
        <time>2022-07-21T15:30:37Z</time>
      </trkpt>
      <trkpt lat="47.1018410" lon="6.7322340">
        <ele>866.9</ele>
        <time>2022-07-21T15:30:38Z</time>
      </trkpt>
      <trkpt lat="47.1018270" lon="6.7321980">
        <ele>867.0</ele>
        <time>2022-07-21T15:30:39Z</time>
      </trkpt>
      <trkpt lat="47.1018200" lon="6.7321820">
        <ele>867.0</ele>
        <time>2022-07-21T15:30:40Z</time>
      </trkpt>
      <trkpt lat="47.1017950" lon="6.7321420">
        <ele>867.1</ele>
        <time>2022-07-21T15:30:41Z</time>
      </trkpt>
      <trkpt lat="47.1017830" lon="6.7321260">
        <ele>867.2</ele>
        <time>2022-07-21T15:30:42Z</time>
      </trkpt>
      <trkpt lat="47.1017590" lon="6.7320940">
        <ele>867.3</ele>
        <time>2022-07-21T15:30:43Z</time>
      </trkpt>
      <trkpt lat="47.1017330" lon="6.7320610">
        <ele>867.4</ele>
        <time>2022-07-21T15:30:44Z</time>
      </trkpt>
      <trkpt lat="47.1017120" lon="6.7320350">
        <ele>867.5</ele>
        <time>2022-07-21T15:30:45Z</time>
      </trkpt>
      <trkpt lat="47.1016900" lon="6.7320070">
        <ele>867.6</ele>
        <time>2022-07-21T15:30:46Z</time>
      </trkpt>
      <trkpt lat="47.1016600" lon="6.7319680">
        <ele>867.7</ele>
        <time>2022-07-21T15:30:47Z</time>
      </trkpt>
      <trkpt lat="47.1016490" lon="6.7319550">
        <ele>867.8</ele>
        <time>2022-07-21T15:30:48Z</time>
      </trkpt>
      <trkpt lat="47.1016300" lon="6.7319240">
        <ele>867.8</ele>
        <time>2022-07-21T15:30:49Z</time>
      </trkpt>
      <trkpt lat="47.1016130" lon="6.7318930">
        <ele>867.9</ele>
        <time>2022-07-21T15:30:50Z</time>
      </trkpt>
      <trkpt lat="47.1015950" lon="6.7318580">
        <ele>868.0</ele>
        <time>2022-07-21T15:30:51Z</time>
      </trkpt>
      <trkpt lat="47.1015680" lon="6.7318140">
        <ele>868.2</ele>
        <time>2022-07-21T15:30:52Z</time>
      </trkpt>
      <trkpt lat="47.1015570" lon="6.7317980">
        <ele>868.2</ele>
        <time>2022-07-21T15:30:53Z</time>
      </trkpt>
      <trkpt lat="47.1015360" lon="6.7317670">
        <ele>868.4</ele>
        <time>2022-07-21T15:30:54Z</time>
      </trkpt>
      <trkpt lat="47.1015190" lon="6.7317370">
        <ele>868.5</ele>
        <time>2022-07-21T15:30:55Z</time>
      </trkpt>
      <trkpt lat="47.1014990" lon="6.7316910">
        <ele>868.6</ele>
        <time>2022-07-21T15:30:56Z</time>
      </trkpt>
      <trkpt lat="47.1014930" lon="6.7316770">
        <ele>868.7</ele>
        <time>2022-07-21T15:30:57Z</time>
      </trkpt>
      <trkpt lat="47.1014760" lon="6.7316310">
        <ele>868.8</ele>
        <time>2022-07-21T15:30:58Z</time>
      </trkpt>
      <trkpt lat="47.1014700" lon="6.7316150">
        <ele>868.9</ele>
        <time>2022-07-21T15:30:59Z</time>
      </trkpt>
      <trkpt lat="47.1014550" lon="6.7315660">
        <ele>869.0</ele>
        <time>2022-07-21T15:31:00Z</time>
      </trkpt>
      <trkpt lat="47.1014500" lon="6.7315480">
        <ele>869.1</ele>
        <time>2022-07-21T15:31:01Z</time>
      </trkpt>
      <trkpt lat="47.1014380" lon="6.7315000">
        <ele>869.2</ele>
        <time>2022-07-21T15:31:02Z</time>
      </trkpt>
      <trkpt lat="47.1014340" lon="6.7314850">
        <ele>869.3</ele>
        <time>2022-07-21T15:31:03Z</time>
      </trkpt>
      <trkpt lat="47.1014190" lon="6.7314340">
        <ele>869.5</ele>
        <time>2022-07-21T15:31:04Z</time>
      </trkpt>
      <trkpt lat="47.1014140" lon="6.7314160">
        <ele>869.5</ele>
        <time>2022-07-21T15:31:05Z</time>
      </trkpt>
      <trkpt lat="47.1014010" lon="6.7313740">
        <ele>869.6</ele>
        <time>2022-07-21T15:31:06Z</time>
      </trkpt>
      <trkpt lat="47.1013950" lon="6.7313550">
        <ele>869.7</ele>
        <time>2022-07-21T15:31:07Z</time>
      </trkpt>
      <trkpt lat="47.1013770" lon="6.7313080">
        <ele>869.9</ele>
        <time>2022-07-21T15:31:08Z</time>
      </trkpt>
      <trkpt lat="47.1013710" lon="6.7312930">
        <ele>869.9</ele>
        <time>2022-07-21T15:31:09Z</time>
      </trkpt>
      <trkpt lat="47.1013570" lon="6.7312410">
        <ele>870.0</ele>
        <time>2022-07-21T15:31:10Z</time>
      </trkpt>
      <trkpt lat="47.1013510" lon="6.7312240">
        <ele>870.1</ele>
        <time>2022-07-21T15:31:11Z</time>
      </trkpt>
      <trkpt lat="47.1013360" lon="6.7311770">
        <ele>870.2</ele>
        <time>2022-07-21T15:31:12Z</time>
      </trkpt>
      <trkpt lat="47.1013310" lon="6.7311630">
        <ele>870.2</ele>
        <time>2022-07-21T15:31:13Z</time>
      </trkpt>
      <trkpt lat="47.1013140" lon="6.7311130">
        <ele>870.4</ele>
        <time>2022-07-21T15:31:14Z</time>
      </trkpt>
      <trkpt lat="47.1013080" lon="6.7310970">
        <ele>870.4</ele>
        <time>2022-07-21T15:31:15Z</time>
      </trkpt>
      <trkpt lat="47.1012900" lon="6.7310450">
        <ele>870.5</ele>
        <time>2022-07-21T15:31:16Z</time>
      </trkpt>
      <trkpt lat="47.1012830" lon="6.7310270">
        <ele>870.5</ele>
        <time>2022-07-21T15:31:17Z</time>
      </trkpt>
      <trkpt lat="47.1012680" lon="6.7309830">
        <ele>870.6</ele>
        <time>2022-07-21T15:31:18Z</time>
      </trkpt>
      <trkpt lat="47.1012620" lon="6.7309670">
        <ele>870.6</ele>
        <time>2022-07-21T15:31:19Z</time>
      </trkpt>
      <trkpt lat="47.1012470" lon="6.7309280">
        <ele>870.7</ele>
        <time>2022-07-21T15:31:20Z</time>
      </trkpt>
      <trkpt lat="47.1012300" lon="6.7308880">
        <ele>870.8</ele>
        <time>2022-07-21T15:31:21Z</time>
      </trkpt>
      <trkpt lat="47.1012110" lon="6.7308500">
        <ele>870.8</ele>
        <time>2022-07-21T15:31:22Z</time>
      </trkpt>
      <trkpt lat="47.1011960" lon="6.7308160">
        <ele>870.9</ele>
        <time>2022-07-21T15:31:23Z</time>
      </trkpt>
      <trkpt lat="47.1011780" lon="6.7307640">
        <ele>870.9</ele>
        <time>2022-07-21T15:31:24Z</time>
      </trkpt>
      <trkpt lat="47.1011720" lon="6.7307430">
        <ele>871.0</ele>
        <time>2022-07-21T15:31:25Z</time>
      </trkpt>
      <trkpt lat="47.1011590" lon="6.7307060">
        <ele>871.0</ele>
        <time>2022-07-21T15:31:26Z</time>
      </trkpt>
      <trkpt lat="47.1011420" lon="6.7306670">
        <ele>871.0</ele>
        <time>2022-07-21T15:31:27Z</time>
      </trkpt>
      <trkpt lat="47.1011280" lon="6.7306290">
        <ele>871.0</ele>
        <time>2022-07-21T15:31:28Z</time>
      </trkpt>
      <trkpt lat="47.1011120" lon="6.7305920">
        <ele>871.1</ele>
        <time>2022-07-21T15:31:29Z</time>
      </trkpt>
      <trkpt lat="47.1010990" lon="6.7305560">
        <ele>871.1</ele>
        <time>2022-07-21T15:31:30Z</time>
      </trkpt>
      <trkpt lat="47.1010760" lon="6.7304890">
        <ele>871.0</ele>
        <time>2022-07-21T15:31:31Z</time>
      </trkpt>
      <trkpt lat="47.1010550" lon="6.7304230">
        <ele>871.0</ele>
        <time>2022-07-21T15:31:33Z</time>
      </trkpt>
      <trkpt lat="47.1010390" lon="6.7303650">
        <ele>870.9</ele>
        <time>2022-07-21T15:31:34Z</time>
      </trkpt>
      <trkpt lat="47.1010230" lon="6.7303100">
        <ele>870.9</ele>
        <time>2022-07-21T15:31:35Z</time>
      </trkpt>
      <trkpt lat="47.1009980" lon="6.7302410">
        <ele>870.8</ele>
        <time>2022-07-21T15:31:36Z</time>
      </trkpt>
      <trkpt lat="47.1009740" lon="6.7301820">
        <ele>870.7</ele>
        <time>2022-07-21T15:31:37Z</time>
      </trkpt>
      <trkpt lat="47.1009300" lon="6.7300840">
        <ele>870.5</ele>
        <time>2022-07-21T15:31:39Z</time>
      </trkpt>
      <trkpt lat="47.1009180" lon="6.7300160">
        <ele>870.4</ele>
        <time>2022-07-21T15:31:40Z</time>
      </trkpt>
      <trkpt lat="47.1008990" lon="6.7299490">
        <ele>870.3</ele>
        <time>2022-07-21T15:31:41Z</time>
      </trkpt>
      <trkpt lat="47.1008750" lon="6.7298810">
        <ele>870.1</ele>
        <time>2022-07-21T15:31:42Z</time>
      </trkpt>
      <trkpt lat="47.1008520" lon="6.7298110">
        <ele>870.0</ele>
        <time>2022-07-21T15:31:43Z</time>
      </trkpt>
      <trkpt lat="47.1008320" lon="6.7297450">
        <ele>869.9</ele>
        <time>2022-07-21T15:31:44Z</time>
      </trkpt>
      <trkpt lat="47.1008120" lon="6.7296780">
        <ele>869.8</ele>
        <time>2022-07-21T15:31:45Z</time>
      </trkpt>
      <trkpt lat="47.1007890" lon="6.7296090">
        <ele>869.7</ele>
        <time>2022-07-21T15:31:46Z</time>
      </trkpt>
      <trkpt lat="47.1007690" lon="6.7295290">
        <ele>869.7</ele>
        <time>2022-07-21T15:31:47Z</time>
      </trkpt>
      <trkpt lat="47.1007500" lon="6.7294640">
        <ele>869.6</ele>
        <time>2022-07-21T15:31:48Z</time>
      </trkpt>
      <trkpt lat="47.1007310" lon="6.7294040">
        <ele>869.6</ele>
        <time>2022-07-21T15:31:49Z</time>
      </trkpt>
      <trkpt lat="47.1007140" lon="6.7293350">
        <ele>869.6</ele>
        <time>2022-07-21T15:31:50Z</time>
      </trkpt>
      <trkpt lat="47.1006950" lon="6.7292630">
        <ele>869.6</ele>
        <time>2022-07-21T15:31:51Z</time>
      </trkpt>
      <trkpt lat="47.1006790" lon="6.7291880">
        <ele>869.6</ele>
        <time>2022-07-21T15:31:52Z</time>
      </trkpt>
      <trkpt lat="47.1006630" lon="6.7291210">
        <ele>869.5</ele>
        <time>2022-07-21T15:31:53Z</time>
      </trkpt>
      <trkpt lat="47.1006560" lon="6.7290550">
        <ele>869.5</ele>
        <time>2022-07-21T15:31:54Z</time>
      </trkpt>
      <trkpt lat="47.1006550" lon="6.7290110">
        <ele>869.5</ele>
        <time>2022-07-21T15:31:55Z</time>
      </trkpt>
      <trkpt lat="47.1006500" lon="6.7289500">
        <ele>869.5</ele>
        <time>2022-07-21T15:31:56Z</time>
      </trkpt>
      <trkpt lat="47.1006470" lon="6.7288910">
        <ele>869.5</ele>
        <time>2022-07-21T15:31:57Z</time>
      </trkpt>
      <trkpt lat="47.1006490" lon="6.7288290">
        <ele>869.5</ele>
        <time>2022-07-21T15:31:58Z</time>
      </trkpt>
      <trkpt lat="47.1006510" lon="6.7287710">
        <ele>869.4</ele>
        <time>2022-07-21T15:31:59Z</time>
      </trkpt>
      <trkpt lat="47.1006520" lon="6.7287180">
        <ele>869.4</ele>
        <time>2022-07-21T15:32:00Z</time>
      </trkpt>
      <trkpt lat="47.1006550" lon="6.7286130">
        <ele>869.3</ele>
        <time>2022-07-21T15:32:02Z</time>
      </trkpt>
      <trkpt lat="47.1006640" lon="6.7285370">
        <ele>869.3</ele>
        <time>2022-07-21T15:32:03Z</time>
      </trkpt>
      <trkpt lat="47.1006670" lon="6.7284510">
        <ele>869.2</ele>
        <time>2022-07-21T15:32:04Z</time>
      </trkpt>
      <trkpt lat="47.1006800" lon="6.7283570">
        <ele>869.0</ele>
        <time>2022-07-21T15:32:06Z</time>
      </trkpt>
      <trkpt lat="47.1006940" lon="6.7282630">
        <ele>868.8</ele>
        <time>2022-07-21T15:32:07Z</time>
      </trkpt>
      <trkpt lat="47.1006970" lon="6.7281900">
        <ele>868.6</ele>
        <time>2022-07-21T15:32:08Z</time>
      </trkpt>
      <trkpt lat="47.1006990" lon="6.7281160">
        <ele>868.4</ele>
        <time>2022-07-21T15:32:09Z</time>
      </trkpt>
      <trkpt lat="47.1007020" lon="6.7280370">
        <ele>868.2</ele>
        <time>2022-07-21T15:32:10Z</time>
      </trkpt>
      <trkpt lat="47.1007000" lon="6.7279600">
        <ele>868.1</ele>
        <time>2022-07-21T15:32:11Z</time>
      </trkpt>
      <trkpt lat="47.1006940" lon="6.7278910">
        <ele>867.9</ele>
        <time>2022-07-21T15:32:12Z</time>
      </trkpt>
      <trkpt lat="47.1006800" lon="6.7278230">
        <ele>867.7</ele>
        <time>2022-07-21T15:32:13Z</time>
      </trkpt>
      <trkpt lat="47.1006670" lon="6.7277580">
        <ele>867.6</ele>
        <time>2022-07-21T15:32:14Z</time>
      </trkpt>
      <trkpt lat="47.1006600" lon="6.7276740">
        <ele>867.5</ele>
        <time>2022-07-21T15:32:15Z</time>
      </trkpt>
      <trkpt lat="47.1006440" lon="6.7275830">
        <ele>867.3</ele>
        <time>2022-07-21T15:32:16Z</time>
      </trkpt>
      <trkpt lat="47.1006320" lon="6.7274890">
        <ele>867.2</ele>
        <time>2022-07-21T15:32:17Z</time>
      </trkpt>
      <trkpt lat="47.1006160" lon="6.7273950">
        <ele>867.2</ele>
        <time>2022-07-21T15:32:18Z</time>
      </trkpt>
      <trkpt lat="47.1005980" lon="6.7273080">
        <ele>867.2</ele>
        <time>2022-07-21T15:32:19Z</time>
      </trkpt>
      <trkpt lat="47.1005830" lon="6.7272350">
        <ele>867.2</ele>
        <time>2022-07-21T15:32:20Z</time>
      </trkpt>
      <trkpt lat="47.1005630" lon="6.7271650">
        <ele>867.2</ele>
        <time>2022-07-21T15:32:21Z</time>
      </trkpt>
      <trkpt lat="47.1005350" lon="6.7270990">
        <ele>867.3</ele>
        <time>2022-07-21T15:32:22Z</time>
      </trkpt>
      <trkpt lat="47.1005090" lon="6.7270280">
        <ele>867.4</ele>
        <time>2022-07-21T15:32:23Z</time>
      </trkpt>
      <trkpt lat="47.1004820" lon="6.7269620">
        <ele>867.5</ele>
        <time>2022-07-21T15:32:24Z</time>
      </trkpt>
      <trkpt lat="47.1004500" lon="6.7269060">
        <ele>867.7</ele>
        <time>2022-07-21T15:32:25Z</time>
      </trkpt>
      <trkpt lat="47.1004240" lon="6.7268530">
        <ele>867.8</ele>
        <time>2022-07-21T15:32:26Z</time>
      </trkpt>
      <trkpt lat="47.1004050" lon="6.7268070">
        <ele>868.0</ele>
        <time>2022-07-21T15:32:27Z</time>
      </trkpt>
      <trkpt lat="47.1003800" lon="6.7267730">
        <ele>868.2</ele>
        <time>2022-07-21T15:32:28Z</time>
      </trkpt>
      <trkpt lat="47.1003630" lon="6.7267410">
        <ele>868.3</ele>
        <time>2022-07-21T15:32:29Z</time>
      </trkpt>
      <trkpt lat="47.1003480" lon="6.7266860">
        <ele>868.5</ele>
        <time>2022-07-21T15:32:30Z</time>
      </trkpt>
      <trkpt lat="47.1003410" lon="6.7266630">
        <ele>868.6</ele>
        <time>2022-07-21T15:32:31Z</time>
      </trkpt>
      <trkpt lat="47.1003230" lon="6.7266300">
        <ele>868.8</ele>
        <time>2022-07-21T15:32:32Z</time>
      </trkpt>
      <trkpt lat="47.1003100" lon="6.7266110">
        <ele>868.9</ele>
        <time>2022-07-21T15:32:33Z</time>
      </trkpt>
      <trkpt lat="47.1003130" lon="6.7266290">
        <ele>869.0</ele>
        <time>2022-07-21T15:32:34Z</time>
      </trkpt>
      <trkpt lat="47.1003000" lon="6.7266080">
        <ele>869.1</ele>
        <time>2022-07-21T15:32:35Z</time>
      </trkpt>
      <trkpt lat="47.1002780" lon="6.7265620">
        <ele>869.4</ele>
        <time>2022-07-21T15:32:36Z</time>
      </trkpt>
      <trkpt lat="47.1002740" lon="6.7265430">
        <ele>869.5</ele>
        <time>2022-07-21T15:32:37Z</time>
      </trkpt>
      <trkpt lat="47.1002590" lon="6.7264900">
        <ele>869.8</ele>
        <time>2022-07-21T15:32:38Z</time>
      </trkpt>
      <trkpt lat="47.1002530" lon="6.7264730">
        <ele>869.9</ele>
        <time>2022-07-21T15:32:39Z</time>
      </trkpt>
      <trkpt lat="47.1002420" lon="6.7264490">
        <ele>870.1</ele>
        <time>2022-07-21T15:32:40Z</time>
      </trkpt>
      <trkpt lat="47.1002330" lon="6.7264310">
        <ele>870.2</ele>
        <time>2022-07-21T15:32:41Z</time>
      </trkpt>
      <trkpt lat="47.1002210" lon="6.7264130">
        <ele>870.3</ele>
        <time>2022-07-21T15:32:42Z</time>
      </trkpt>
      <trkpt lat="47.1002070" lon="6.7263950">
        <ele>870.5</ele>
        <time>2022-07-21T15:32:43Z</time>
      </trkpt>
      <trkpt lat="47.1001960" lon="6.7263780">
        <ele>870.6</ele>
        <time>2022-07-21T15:32:44Z</time>
      </trkpt>
      <trkpt lat="47.1001820" lon="6.7263610">
        <ele>870.8</ele>
        <time>2022-07-21T15:32:45Z</time>
      </trkpt>
      <trkpt lat="47.1001630" lon="6.7263350">
        <ele>871.0</ele>
        <time>2022-07-21T15:32:46Z</time>
      </trkpt>
      <trkpt lat="47.1001550" lon="6.7263250">
        <ele>871.1</ele>
        <time>2022-07-21T15:32:47Z</time>
      </trkpt>
      <trkpt lat="47.1001410" lon="6.7263060">
        <ele>871.3</ele>
        <time>2022-07-21T15:32:48Z</time>
      </trkpt>
      <trkpt lat="47.1001300" lon="6.7262890">
        <ele>871.4</ele>
        <time>2022-07-21T15:32:49Z</time>
      </trkpt>
      <trkpt lat="47.1001200" lon="6.7262700">
        <ele>871.6</ele>
        <time>2022-07-21T15:32:50Z</time>
      </trkpt>
      <trkpt lat="47.1001100" lon="6.7262530">
        <ele>871.7</ele>
        <time>2022-07-21T15:32:51Z</time>
      </trkpt>
      <trkpt lat="47.1000980" lon="6.7262320">
        <ele>871.9</ele>
        <time>2022-07-21T15:32:52Z</time>
      </trkpt>
      <trkpt lat="47.1000890" lon="6.7262100">
        <ele>872.0</ele>
        <time>2022-07-21T15:32:53Z</time>
      </trkpt>
      <trkpt lat="47.1000790" lon="6.7261970">
        <ele>872.2</ele>
        <time>2022-07-21T15:32:54Z</time>
      </trkpt>
      <trkpt lat="47.1000680" lon="6.7261810">
        <ele>872.3</ele>
        <time>2022-07-21T15:32:55Z</time>
      </trkpt>
      <trkpt lat="47.1000450" lon="6.7261570">
        <ele>872.6</ele>
        <time>2022-07-21T15:32:56Z</time>
      </trkpt>
      <trkpt lat="47.1000380" lon="6.7261480">
        <ele>872.7</ele>
        <time>2022-07-21T15:32:57Z</time>
      </trkpt>
      <trkpt lat="47.1000240" lon="6.7261300">
        <ele>872.8</ele>
        <time>2022-07-21T15:32:58Z</time>
      </trkpt>
      <trkpt lat="47.1000040" lon="6.7261090">
        <ele>873.1</ele>
        <time>2022-07-21T15:33:00Z</time>
      </trkpt>
      <trkpt lat="47.0999850" lon="6.7260970">
        <ele>873.3</ele>
        <time>2022-07-21T15:33:01Z</time>
      </trkpt>
      <trkpt lat="47.0999740" lon="6.7260900">
        <ele>873.4</ele>
        <time>2022-07-21T15:33:02Z</time>
      </trkpt>
      <trkpt lat="47.0999600" lon="6.7260820">
        <ele>873.5</ele>
        <time>2022-07-21T15:33:03Z</time>
      </trkpt>
      <trkpt lat="47.0999490" lon="6.7260740">
        <ele>873.7</ele>
        <time>2022-07-21T15:33:04Z</time>
      </trkpt>
      <trkpt lat="47.0999390" lon="6.7260650">
        <ele>873.8</ele>
        <time>2022-07-21T15:33:05Z</time>
      </trkpt>
      <trkpt lat="47.0999300" lon="6.7260520">
        <ele>873.9</ele>
        <time>2022-07-21T15:33:06Z</time>
      </trkpt>
      <trkpt lat="47.0999240" lon="6.7260410">
        <ele>874.0</ele>
        <time>2022-07-21T15:33:07Z</time>
      </trkpt>
      <trkpt lat="47.0999090" lon="6.7260250">
        <ele>874.2</ele>
        <time>2022-07-21T15:33:08Z</time>
      </trkpt>
      <trkpt lat="47.0999030" lon="6.7260200">
        <ele>874.2</ele>
        <time>2022-07-21T15:33:09Z</time>
      </trkpt>
      <trkpt lat="47.0998960" lon="6.7260150">
        <ele>874.3</ele>
        <time>2022-07-21T15:33:10Z</time>
      </trkpt>
      <trkpt lat="47.0998900" lon="6.7260090">
        <ele>874.4</ele>
        <time>2022-07-21T15:33:11Z</time>
      </trkpt>
      <trkpt lat="47.0998640" lon="6.7259790">
        <ele>874.7</ele>
        <time>2022-07-21T15:33:12Z</time>
      </trkpt>
      <trkpt lat="47.0998550" lon="6.7259700">
        <ele>874.8</ele>
        <time>2022-07-21T15:33:13Z</time>
      </trkpt>
      <trkpt lat="47.0998400" lon="6.7259550">
        <ele>875.0</ele>
        <time>2022-07-21T15:33:14Z</time>
      </trkpt>
      <trkpt lat="47.0998050" lon="6.7259210">
        <ele>875.4</ele>
        <time>2022-07-21T15:33:16Z</time>
      </trkpt>
      <trkpt lat="47.0997890" lon="6.7259020">
        <ele>875.6</ele>
        <time>2022-07-21T15:33:17Z</time>
      </trkpt>
      <trkpt lat="47.0997630" lon="6.7258660">
        <ele>875.9</ele>
        <time>2022-07-21T15:33:19Z</time>
      </trkpt>
      <trkpt lat="47.0997380" lon="6.7258470">
        <ele>876.1</ele>
        <time>2022-07-21T15:33:20Z</time>
      </trkpt>
      <trkpt lat="47.0997140" lon="6.7258210">
        <ele>876.4</ele>
        <time>2022-07-21T15:33:21Z</time>
      </trkpt>
      <trkpt lat="47.0997060" lon="6.7258120">
        <ele>876.5</ele>
        <time>2022-07-21T15:33:22Z</time>
      </trkpt>
      <trkpt lat="47.0996870" lon="6.7257750">
        <ele>876.7</ele>
        <time>2022-07-21T15:33:23Z</time>
      </trkpt>
      <trkpt lat="47.0996810" lon="6.7257580">
        <ele>876.9</ele>
        <time>2022-07-21T15:33:24Z</time>
      </trkpt>
      <trkpt lat="47.0996730" lon="6.7257260">
        <ele>877.0</ele>
        <time>2022-07-21T15:33:25Z</time>
      </trkpt>
      <trkpt lat="47.0996600" lon="6.7256690">
        <ele>877.4</ele>
        <time>2022-07-21T15:33:27Z</time>
      </trkpt>
      <trkpt lat="47.0996460" lon="6.7256280">
        <ele>877.7</ele>
        <time>2022-07-21T15:33:28Z</time>
      </trkpt>
      <trkpt lat="47.0996260" lon="6.7255900">
        <ele>877.9</ele>
        <time>2022-07-21T15:33:29Z</time>
      </trkpt>
      <trkpt lat="47.0996200" lon="6.7255820">
        <ele>878.0</ele>
        <time>2022-07-21T15:33:30Z</time>
      </trkpt>
      <trkpt lat="47.0995940" lon="6.7255240">
        <ele>878.3</ele>
        <time>2022-07-21T15:33:32Z</time>
      </trkpt>
      <trkpt lat="47.0995760" lon="6.7254910">
        <ele>878.6</ele>
        <time>2022-07-21T15:33:33Z</time>
      </trkpt>
      <trkpt lat="47.0995710" lon="6.7254810">
        <ele>878.6</ele>
        <time>2022-07-21T15:33:34Z</time>
      </trkpt>
      <trkpt lat="47.0995600" lon="6.7254570">
        <ele>878.8</ele>
        <time>2022-07-21T15:33:35Z</time>
      </trkpt>
      <trkpt lat="47.0995490" lon="6.7254400">
        <ele>878.9</ele>
        <time>2022-07-21T15:33:36Z</time>
      </trkpt>
      <trkpt lat="47.0995240" lon="6.7254170">
        <ele>879.1</ele>
        <time>2022-07-21T15:33:37Z</time>
      </trkpt>
      <trkpt lat="47.0995140" lon="6.7254120">
        <ele>879.2</ele>
        <time>2022-07-21T15:33:38Z</time>
      </trkpt>
      <trkpt lat="47.0994840" lon="6.7253930">
        <ele>879.4</ele>
        <time>2022-07-21T15:33:39Z</time>
      </trkpt>
      <trkpt lat="47.0994760" lon="6.7253860">
        <ele>879.5</ele>
        <time>2022-07-21T15:33:40Z</time>
      </trkpt>
      <trkpt lat="47.0994600" lon="6.7253700">
        <ele>879.6</ele>
        <time>2022-07-21T15:33:41Z</time>
      </trkpt>
      <trkpt lat="47.0994480" lon="6.7253550">
        <ele>879.7</ele>
        <time>2022-07-21T15:33:42Z</time>
      </trkpt>
      <trkpt lat="47.0994240" lon="6.7253260">
        <ele>879.9</ele>
        <time>2022-07-21T15:33:43Z</time>
      </trkpt>
      <trkpt lat="47.0994150" lon="6.7253140">
        <ele>880.0</ele>
        <time>2022-07-21T15:33:44Z</time>
      </trkpt>
      <trkpt lat="47.0993980" lon="6.7252870">
        <ele>880.1</ele>
        <time>2022-07-21T15:33:45Z</time>
      </trkpt>
      <trkpt lat="47.0993910" lon="6.7252750">
        <ele>880.2</ele>
        <time>2022-07-21T15:33:46Z</time>
      </trkpt>
      <trkpt lat="47.0993640" lon="6.7252400">
        <ele>880.4</ele>
        <time>2022-07-21T15:33:47Z</time>
      </trkpt>
      <trkpt lat="47.0993550" lon="6.7252290">
        <ele>880.4</ele>
        <time>2022-07-21T15:33:48Z</time>
      </trkpt>
      <trkpt lat="47.0993260" lon="6.7252000">
        <ele>880.6</ele>
        <time>2022-07-21T15:33:49Z</time>
      </trkpt>
      <trkpt lat="47.0993150" lon="6.7251900">
        <ele>880.7</ele>
        <time>2022-07-21T15:33:50Z</time>
      </trkpt>
      <trkpt lat="47.0992890" lon="6.7251610">
        <ele>880.8</ele>
        <time>2022-07-21T15:33:51Z</time>
      </trkpt>
      <trkpt lat="47.0992810" lon="6.7251510">
        <ele>880.9</ele>
        <time>2022-07-21T15:33:52Z</time>
      </trkpt>
      <trkpt lat="47.0992450" lon="6.7251220">
        <ele>881.0</ele>
        <time>2022-07-21T15:33:53Z</time>
      </trkpt>
      <trkpt lat="47.0992310" lon="6.7251120">
        <ele>881.1</ele>
        <time>2022-07-21T15:33:54Z</time>
      </trkpt>
      <trkpt lat="47.0992000" lon="6.7250890">
        <ele>881.2</ele>
        <time>2022-07-21T15:33:55Z</time>
      </trkpt>
      <trkpt lat="47.0991910" lon="6.7250810">
        <ele>881.3</ele>
        <time>2022-07-21T15:33:56Z</time>
      </trkpt>
      <trkpt lat="47.0991620" lon="6.7250560">
        <ele>881.4</ele>
        <time>2022-07-21T15:33:57Z</time>
      </trkpt>
      <trkpt lat="47.0991510" lon="6.7250470">
        <ele>881.4</ele>
        <time>2022-07-21T15:33:58Z</time>
      </trkpt>
      <trkpt lat="47.0991250" lon="6.7250200">
        <ele>881.5</ele>
        <time>2022-07-21T15:33:59Z</time>
      </trkpt>
      <trkpt lat="47.0991180" lon="6.7250130">
        <ele>881.5</ele>
        <time>2022-07-21T15:34:00Z</time>
      </trkpt>
      <trkpt lat="47.0990870" lon="6.7249730">
        <ele>881.6</ele>
        <time>2022-07-21T15:34:01Z</time>
      </trkpt>
      <trkpt lat="47.0990760" lon="6.7249580">
        <ele>881.7</ele>
        <time>2022-07-21T15:34:02Z</time>
      </trkpt>
      <trkpt lat="47.0990480" lon="6.7249220">
        <ele>881.8</ele>
        <time>2022-07-21T15:34:03Z</time>
      </trkpt>
      <trkpt lat="47.0990390" lon="6.7249090">
        <ele>881.8</ele>
        <time>2022-07-21T15:34:04Z</time>
      </trkpt>
      <trkpt lat="47.0990150" lon="6.7248780">
        <ele>881.9</ele>
        <time>2022-07-21T15:34:05Z</time>
      </trkpt>
      <trkpt lat="47.0990070" lon="6.7248670">
        <ele>881.9</ele>
        <time>2022-07-21T15:34:06Z</time>
      </trkpt>
      <trkpt lat="47.0989790" lon="6.7248320">
        <ele>882.0</ele>
        <time>2022-07-21T15:34:07Z</time>
      </trkpt>
      <trkpt lat="47.0989670" lon="6.7248180">
        <ele>882.0</ele>
        <time>2022-07-21T15:34:08Z</time>
      </trkpt>
      <trkpt lat="47.0989430" lon="6.7247900">
        <ele>882.0</ele>
        <time>2022-07-21T15:34:09Z</time>
      </trkpt>
      <trkpt lat="47.0989110" lon="6.7247620">
        <ele>882.1</ele>
        <time>2022-07-21T15:34:10Z</time>
      </trkpt>
      <trkpt lat="47.0988960" lon="6.7247510">
        <ele>882.1</ele>
        <time>2022-07-21T15:34:11Z</time>
      </trkpt>
      <trkpt lat="47.0988610" lon="6.7247300">
        <ele>882.1</ele>
        <time>2022-07-21T15:34:12Z</time>
      </trkpt>
      <trkpt lat="47.0988330" lon="6.7247130">
        <ele>882.2</ele>
        <time>2022-07-21T15:34:13Z</time>
      </trkpt>
      <trkpt lat="47.0988010" lon="6.7246860">
        <ele>882.2</ele>
        <time>2022-07-21T15:34:14Z</time>
      </trkpt>
      <trkpt lat="47.0987720" lon="6.7246580">
        <ele>882.2</ele>
        <time>2022-07-21T15:34:15Z</time>
      </trkpt>
      <trkpt lat="47.0987410" lon="6.7246300">
        <ele>882.2</ele>
        <time>2022-07-21T15:34:16Z</time>
      </trkpt>
      <trkpt lat="47.0987140" lon="6.7246070">
        <ele>882.2</ele>
        <time>2022-07-21T15:34:17Z</time>
      </trkpt>
      <trkpt lat="47.0986800" lon="6.7245820">
        <ele>882.3</ele>
        <time>2022-07-21T15:34:18Z</time>
      </trkpt>
      <trkpt lat="47.0986530" lon="6.7245620">
        <ele>882.3</ele>
        <time>2022-07-21T15:34:19Z</time>
      </trkpt>
      <trkpt lat="47.0986190" lon="6.7245320">
        <ele>882.3</ele>
        <time>2022-07-21T15:34:20Z</time>
      </trkpt>
      <trkpt lat="47.0985860" lon="6.7244990">
        <ele>882.3</ele>
        <time>2022-07-21T15:34:21Z</time>
      </trkpt>
      <trkpt lat="47.0985560" lon="6.7244690">
        <ele>882.3</ele>
        <time>2022-07-21T15:34:22Z</time>
      </trkpt>
      <trkpt lat="47.0985240" lon="6.7244350">
        <ele>882.3</ele>
        <time>2022-07-21T15:34:23Z</time>
      </trkpt>
      <trkpt lat="47.0984960" lon="6.7244020">
        <ele>882.2</ele>
        <time>2022-07-21T15:34:24Z</time>
      </trkpt>
      <trkpt lat="47.0984560" lon="6.7243750">
        <ele>882.2</ele>
        <time>2022-07-21T15:34:25Z</time>
      </trkpt>
      <trkpt lat="47.0984140" lon="6.7243450">
        <ele>882.2</ele>
        <time>2022-07-21T15:34:26Z</time>
      </trkpt>
      <trkpt lat="47.0983710" lon="6.7243180">
        <ele>882.2</ele>
        <time>2022-07-21T15:34:27Z</time>
      </trkpt>
      <trkpt lat="47.0983530" lon="6.7243040">
        <ele>882.2</ele>
        <time>2022-07-21T15:34:28Z</time>
      </trkpt>
      <trkpt lat="47.0983210" lon="6.7242690">
        <ele>882.2</ele>
        <time>2022-07-21T15:34:29Z</time>
      </trkpt>
      <trkpt lat="47.0982980" lon="6.7242450">
        <ele>882.2</ele>
        <time>2022-07-21T15:34:30Z</time>
      </trkpt>
      <trkpt lat="47.0982650" lon="6.7242040">
        <ele>882.2</ele>
        <time>2022-07-21T15:34:31Z</time>
      </trkpt>
      <trkpt lat="47.0982310" lon="6.7241710">
        <ele>882.2</ele>
        <time>2022-07-21T15:34:32Z</time>
      </trkpt>
      <trkpt lat="47.0981910" lon="6.7241470">
        <ele>882.2</ele>
        <time>2022-07-21T15:34:33Z</time>
      </trkpt>
      <trkpt lat="47.0981590" lon="6.7241130">
        <ele>882.2</ele>
        <time>2022-07-21T15:34:34Z</time>
      </trkpt>
      <trkpt lat="47.0981320" lon="6.7240790">
        <ele>882.2</ele>
        <time>2022-07-21T15:34:35Z</time>
      </trkpt>
      <trkpt lat="47.0981070" lon="6.7240580">
        <ele>882.2</ele>
        <time>2022-07-21T15:34:36Z</time>
      </trkpt>
      <trkpt lat="47.0980710" lon="6.7240290">
        <ele>882.3</ele>
        <time>2022-07-21T15:34:37Z</time>
      </trkpt>
      <trkpt lat="47.0980390" lon="6.7240030">
        <ele>882.3</ele>
        <time>2022-07-21T15:34:38Z</time>
      </trkpt>
      <trkpt lat="47.0980020" lon="6.7239760">
        <ele>882.3</ele>
        <time>2022-07-21T15:34:39Z</time>
      </trkpt>
      <trkpt lat="47.0979870" lon="6.7239660">
        <ele>882.3</ele>
        <time>2022-07-21T15:34:40Z</time>
      </trkpt>
      <trkpt lat="47.0979590" lon="6.7239550">
        <ele>882.3</ele>
        <time>2022-07-21T15:34:41Z</time>
      </trkpt>
      <trkpt lat="47.0979260" lon="6.7239680">
        <ele>882.4</ele>
        <time>2022-07-21T15:34:42Z</time>
      </trkpt>
      <trkpt lat="47.0979140" lon="6.7239760">
        <ele>882.8</ele>
        <time>2022-07-21T15:34:43Z</time>
      </trkpt>
      <trkpt lat="47.0978890" lon="6.7240060">
        <ele>882.9</ele>
        <time>2022-07-21T15:34:44Z</time>
      </trkpt>
      <trkpt lat="47.0978690" lon="6.7240480">
        <ele>883.1</ele>
        <time>2022-07-21T15:34:45Z</time>
      </trkpt>
      <trkpt lat="47.0978630" lon="6.7240610">
        <ele>883.1</ele>
        <time>2022-07-21T15:34:46Z</time>
      </trkpt>
      <trkpt lat="47.0978420" lon="6.7241050">
        <ele>883.4</ele>
        <time>2022-07-21T15:34:47Z</time>
      </trkpt>
      <trkpt lat="47.0978370" lon="6.7241180">
        <ele>883.4</ele>
        <time>2022-07-21T15:34:48Z</time>
      </trkpt>
      <trkpt lat="47.0978190" lon="6.7241440">
        <ele>883.6</ele>
        <time>2022-07-21T15:34:49Z</time>
      </trkpt>
      <trkpt lat="47.0978120" lon="6.7241550">
        <ele>883.6</ele>
        <time>2022-07-21T15:34:50Z</time>
      </trkpt>
      <trkpt lat="47.0978040" lon="6.7241680">
        <ele>883.7</ele>
        <time>2022-07-21T15:34:51Z</time>
      </trkpt>
      <trkpt lat="47.0977920" lon="6.7241830">
        <ele>883.8</ele>
        <time>2022-07-21T15:34:52Z</time>
      </trkpt>
      <trkpt lat="47.0977810" lon="6.7241940">
        <ele>883.9</ele>
        <time>2022-07-21T15:34:53Z</time>
      </trkpt>
      <trkpt lat="47.0977730" lon="6.7241990">
        <ele>883.9</ele>
        <time>2022-07-21T15:34:54Z</time>
      </trkpt>
      <trkpt lat="47.0977640" lon="6.7242020">
        <ele>884.0</ele>
        <time>2022-07-21T15:34:55Z</time>
      </trkpt>
      <trkpt lat="47.0977480" lon="6.7242080">
        <ele>884.1</ele>
        <time>2022-07-21T15:34:56Z</time>
      </trkpt>
      <trkpt lat="47.0977300" lon="6.7242170">
        <ele>884.2</ele>
        <time>2022-07-21T15:34:57Z</time>
      </trkpt>
      <trkpt lat="47.0977050" lon="6.7242340">
        <ele>884.3</ele>
        <time>2022-07-21T15:34:58Z</time>
      </trkpt>
      <trkpt lat="47.0976960" lon="6.7242400">
        <ele>884.4</ele>
        <time>2022-07-21T15:34:59Z</time>
      </trkpt>
      <trkpt lat="47.0976650" lon="6.7242640">
        <ele>884.6</ele>
        <time>2022-07-21T15:35:00Z</time>
      </trkpt>
      <trkpt lat="47.0976550" lon="6.7242730">
        <ele>884.7</ele>
        <time>2022-07-21T15:35:01Z</time>
      </trkpt>
      <trkpt lat="47.0976440" lon="6.7242850">
        <ele>884.8</ele>
        <time>2022-07-21T15:35:02Z</time>
      </trkpt>
      <trkpt lat="47.0976280" lon="6.7243010">
        <ele>884.9</ele>
        <time>2022-07-21T15:35:03Z</time>
      </trkpt>
      <trkpt lat="47.0976020" lon="6.7243260">
        <ele>885.0</ele>
        <time>2022-07-21T15:35:04Z</time>
      </trkpt>
      <trkpt lat="47.0975910" lon="6.7243360">
        <ele>885.1</ele>
        <time>2022-07-21T15:35:05Z</time>
      </trkpt>
      <trkpt lat="47.0975760" lon="6.7243500">
        <ele>885.2</ele>
        <time>2022-07-21T15:35:06Z</time>
      </trkpt>
      <trkpt lat="47.0975530" lon="6.7243700">
        <ele>885.4</ele>
        <time>2022-07-21T15:35:08Z</time>
      </trkpt>
      <trkpt lat="47.0975270" lon="6.7243850">
        <ele>885.5</ele>
        <time>2022-07-21T15:35:09Z</time>
      </trkpt>
      <trkpt lat="47.0974930" lon="6.7244030">
        <ele>885.8</ele>
        <time>2022-07-21T15:35:10Z</time>
      </trkpt>
      <trkpt lat="47.0974820" lon="6.7244090">
        <ele>885.8</ele>
        <time>2022-07-21T15:35:11Z</time>
      </trkpt>
      <trkpt lat="47.0974490" lon="6.7244360">
        <ele>886.0</ele>
        <time>2022-07-21T15:35:13Z</time>
      </trkpt>
      <trkpt lat="47.0974240" lon="6.7244580">
        <ele>886.2</ele>
        <time>2022-07-21T15:35:14Z</time>
      </trkpt>
      <trkpt lat="47.0973990" lon="6.7244760">
        <ele>886.4</ele>
        <time>2022-07-21T15:35:15Z</time>
      </trkpt>
      <trkpt lat="47.0973790" lon="6.7244890">
        <ele>886.5</ele>
        <time>2022-07-21T15:35:16Z</time>
      </trkpt>
      <trkpt lat="47.0973470" lon="6.7245080">
        <ele>886.7</ele>
        <time>2022-07-21T15:35:18Z</time>
      </trkpt>
      <trkpt lat="47.0973260" lon="6.7245200">
        <ele>886.9</ele>
        <time>2022-07-21T15:35:19Z</time>
      </trkpt>
      <trkpt lat="47.0972880" lon="6.7245400">
        <ele>887.1</ele>
        <time>2022-07-21T15:35:21Z</time>
      </trkpt>
      <trkpt lat="47.0972580" lon="6.7245590">
        <ele>887.3</ele>
        <time>2022-07-21T15:35:22Z</time>
      </trkpt>
      <trkpt lat="47.0972360" lon="6.7245760">
        <ele>887.4</ele>
        <time>2022-07-21T15:35:23Z</time>
      </trkpt>
      <trkpt lat="47.0972010" lon="6.7246090">
        <ele>887.6</ele>
        <time>2022-07-21T15:35:25Z</time>
      </trkpt>
      <trkpt lat="47.0971710" lon="6.7246330">
        <ele>887.8</ele>
        <time>2022-07-21T15:35:26Z</time>
      </trkpt>
      <trkpt lat="47.0971390" lon="6.7246540">
        <ele>887.9</ele>
        <time>2022-07-21T15:35:27Z</time>
      </trkpt>
      <trkpt lat="47.0971040" lon="6.7246740">
        <ele>888.0</ele>
        <time>2022-07-21T15:35:28Z</time>
      </trkpt>
      <trkpt lat="47.0970920" lon="6.7246800">
        <ele>888.0</ele>
        <time>2022-07-21T15:35:29Z</time>
      </trkpt>
      <trkpt lat="47.0970630" lon="6.7246860">
        <ele>888.0</ele>
        <time>2022-07-21T15:35:30Z</time>
      </trkpt>
      <trkpt lat="47.0970530" lon="6.7246870">
        <ele>888.0</ele>
        <time>2022-07-21T15:35:31Z</time>
      </trkpt>
      <trkpt lat="47.0970200" lon="6.7246910">
        <ele>888.1</ele>
        <time>2022-07-21T15:35:32Z</time>
      </trkpt>
      <trkpt lat="47.0970070" lon="6.7246960">
        <ele>888.1</ele>
        <time>2022-07-21T15:35:33Z</time>
      </trkpt>
      <trkpt lat="47.0969800" lon="6.7247220">
        <ele>887.7</ele>
        <time>2022-07-21T15:35:34Z</time>
      </trkpt>
      <trkpt lat="47.0969470" lon="6.7247630">
        <ele>887.4</ele>
        <time>2022-07-21T15:35:35Z</time>
      </trkpt>
      <trkpt lat="47.0969130" lon="6.7248200">
        <ele>887.1</ele>
        <time>2022-07-21T15:35:37Z</time>
      </trkpt>
      <trkpt lat="47.0968870" lon="6.7248830">
        <ele>886.8</ele>
        <time>2022-07-21T15:35:38Z</time>
      </trkpt>
      <trkpt lat="47.0968680" lon="6.7249950">
        <ele>886.4</ele>
        <time>2022-07-21T15:35:39Z</time>
      </trkpt>
      <trkpt lat="47.0968560" lon="6.7250650">
        <ele>886.1</ele>
        <time>2022-07-21T15:35:40Z</time>
      </trkpt>
      <trkpt lat="47.0968520" lon="6.7251420">
        <ele>885.7</ele>
        <time>2022-07-21T15:35:41Z</time>
      </trkpt>
      <trkpt lat="47.0968500" lon="6.7252240">
        <ele>885.3</ele>
        <time>2022-07-21T15:35:42Z</time>
      </trkpt>
      <trkpt lat="47.0968470" lon="6.7253000">
        <ele>884.9</ele>
        <time>2022-07-21T15:35:43Z</time>
      </trkpt>
      <trkpt lat="47.0968420" lon="6.7253680">
        <ele>884.5</ele>
        <time>2022-07-21T15:35:44Z</time>
      </trkpt>
      <trkpt lat="47.0968630" lon="6.7254020">
        <ele>884.1</ele>
        <time>2022-07-21T15:35:45Z</time>
      </trkpt>
      <trkpt lat="47.0968680" lon="6.7254540">
        <ele>883.7</ele>
        <time>2022-07-21T15:35:47Z</time>
      </trkpt>
      <trkpt lat="47.0968690" lon="6.7254680">
        <ele>883.6</ele>
        <time>2022-07-21T15:35:48Z</time>
      </trkpt>
      <trkpt lat="47.0968500" lon="6.7255420">
        <ele>883.0</ele>
        <time>2022-07-21T15:35:49Z</time>
      </trkpt>
      <trkpt lat="47.0968170" lon="6.7256220">
        <ele>882.2</ele>
        <time>2022-07-21T15:35:51Z</time>
      </trkpt>
      <trkpt lat="47.0967740" lon="6.7257140">
        <ele>881.4</ele>
        <time>2022-07-21T15:35:52Z</time>
      </trkpt>
      <trkpt lat="47.0967290" lon="6.7257850">
        <ele>880.9</ele>
        <time>2022-07-21T15:35:53Z</time>
      </trkpt>
      <trkpt lat="47.0966930" lon="6.7258680">
        <ele>880.3</ele>
        <time>2022-07-21T15:35:54Z</time>
      </trkpt>
      <trkpt lat="47.0966690" lon="6.7259640">
        <ele>879.9</ele>
        <time>2022-07-21T15:35:55Z</time>
      </trkpt>
      <trkpt lat="47.0966530" lon="6.7260410">
        <ele>879.6</ele>
        <time>2022-07-21T15:35:56Z</time>
      </trkpt>
      <trkpt lat="47.0966350" lon="6.7261060">
        <ele>879.4</ele>
        <time>2022-07-21T15:35:57Z</time>
      </trkpt>
      <trkpt lat="47.0966350" lon="6.7261590">
        <ele>879.3</ele>
        <time>2022-07-21T15:35:58Z</time>
      </trkpt>
      <trkpt lat="47.0966150" lon="6.7262080">
        <ele>879.2</ele>
        <time>2022-07-21T15:36:00Z</time>
      </trkpt>
      <trkpt lat="47.0966040" lon="6.7262260">
        <ele>879.1</ele>
        <time>2022-07-21T15:36:01Z</time>
      </trkpt>
      <trkpt lat="47.0966020" lon="6.7262390">
        <ele>879.1</ele>
        <time>2022-07-21T15:36:02Z</time>
      </trkpt>
      <trkpt lat="47.0965980" lon="6.7262520">
        <ele>879.1</ele>
        <time>2022-07-21T15:36:03Z</time>
      </trkpt>
      <trkpt lat="47.0965950" lon="6.7262660">
        <ele>879.1</ele>
        <time>2022-07-21T15:36:04Z</time>
      </trkpt>
      <trkpt lat="47.0965860" lon="6.7262870">
        <ele>879.0</ele>
        <time>2022-07-21T15:36:05Z</time>
      </trkpt>
      <trkpt lat="47.0965770" lon="6.7263090">
        <ele>879.0</ele>
        <time>2022-07-21T15:36:07Z</time>
      </trkpt>
      <trkpt lat="47.0965540" lon="6.7263370">
        <ele>879.0</ele>
        <time>2022-07-21T15:36:08Z</time>
      </trkpt>
      <trkpt lat="47.0965300" lon="6.7263760">
        <ele>879.0</ele>
        <time>2022-07-21T15:36:09Z</time>
      </trkpt>
      <trkpt lat="47.0965180" lon="6.7264070">
        <ele>878.9</ele>
        <time>2022-07-21T15:36:10Z</time>
      </trkpt>
      <trkpt lat="47.0965130" lon="6.7264770">
        <ele>878.9</ele>
        <time>2022-07-21T15:36:12Z</time>
      </trkpt>
      <trkpt lat="47.0965210" lon="6.7265400">
        <ele>878.9</ele>
        <time>2022-07-21T15:36:13Z</time>
      </trkpt>
      <trkpt lat="47.0965290" lon="6.7265850">
        <ele>878.9</ele>
        <time>2022-07-21T15:36:14Z</time>
      </trkpt>
      <trkpt lat="47.0965410" lon="6.7266490">
        <ele>878.9</ele>
        <time>2022-07-21T15:36:15Z</time>
      </trkpt>
      <trkpt lat="47.0965510" lon="6.7267130">
        <ele>878.9</ele>
        <time>2022-07-21T15:36:17Z</time>
      </trkpt>
      <trkpt lat="47.0965570" lon="6.7267590">
        <ele>878.8</ele>
        <time>2022-07-21T15:36:18Z</time>
      </trkpt>
      <trkpt lat="47.0965680" lon="6.7268180">
        <ele>878.8</ele>
        <time>2022-07-21T15:36:19Z</time>
      </trkpt>
      <trkpt lat="47.0965820" lon="6.7268650">
        <ele>878.8</ele>
        <time>2022-07-21T15:36:20Z</time>
      </trkpt>
      <trkpt lat="47.0965980" lon="6.7269140">
        <ele>878.7</ele>
        <time>2022-07-21T15:36:21Z</time>
      </trkpt>
      <trkpt lat="47.0966160" lon="6.7269690">
        <ele>878.7</ele>
        <time>2022-07-21T15:36:22Z</time>
      </trkpt>
      <trkpt lat="47.0966320" lon="6.7270230">
        <ele>878.7</ele>
        <time>2022-07-21T15:36:23Z</time>
      </trkpt>
      <trkpt lat="47.0966500" lon="6.7270890">
        <ele>878.6</ele>
        <time>2022-07-21T15:36:24Z</time>
      </trkpt>
      <trkpt lat="47.0966660" lon="6.7271760">
        <ele>878.6</ele>
        <time>2022-07-21T15:36:26Z</time>
      </trkpt>
      <trkpt lat="47.0966740" lon="6.7272330">
        <ele>878.5</ele>
        <time>2022-07-21T15:36:27Z</time>
      </trkpt>
      <trkpt lat="47.0966780" lon="6.7272710">
        <ele>878.5</ele>
        <time>2022-07-21T15:36:28Z</time>
      </trkpt>
      <trkpt lat="47.0966880" lon="6.7273370">
        <ele>878.5</ele>
        <time>2022-07-21T15:36:30Z</time>
      </trkpt>
      <trkpt lat="47.0966960" lon="6.7273980">
        <ele>878.5</ele>
        <time>2022-07-21T15:36:31Z</time>
      </trkpt>
      <trkpt lat="47.0967010" lon="6.7274220">
        <ele>878.5</ele>
        <time>2022-07-21T15:36:32Z</time>
      </trkpt>
      <trkpt lat="47.0967210" lon="6.7274620">
        <ele>878.6</ele>
        <time>2022-07-21T15:36:33Z</time>
      </trkpt>
      <trkpt lat="47.0967360" lon="6.7274900">
        <ele>878.6</ele>
        <time>2022-07-21T15:36:34Z</time>
      </trkpt>
      <trkpt lat="47.0967530" lon="6.7275240">
        <ele>878.7</ele>
        <time>2022-07-21T15:36:35Z</time>
      </trkpt>
      <trkpt lat="47.0967700" lon="6.7275820">
        <ele>878.7</ele>
        <time>2022-07-21T15:36:36Z</time>
      </trkpt>
      <trkpt lat="47.0967740" lon="6.7276060">
        <ele>878.8</ele>
        <time>2022-07-21T15:36:37Z</time>
      </trkpt>
      <trkpt lat="47.0967730" lon="6.7276460">
        <ele>878.8</ele>
        <time>2022-07-21T15:36:38Z</time>
      </trkpt>
      <trkpt lat="47.0967720" lon="6.7276950">
        <ele>879.0</ele>
        <time>2022-07-21T15:36:39Z</time>
      </trkpt>
      <trkpt lat="47.0967760" lon="6.7277530">
        <ele>879.1</ele>
        <time>2022-07-21T15:36:40Z</time>
      </trkpt>
      <trkpt lat="47.0967780" lon="6.7277730">
        <ele>879.2</ele>
        <time>2022-07-21T15:36:41Z</time>
      </trkpt>
      <trkpt lat="47.0967830" lon="6.7278240">
        <ele>879.4</ele>
        <time>2022-07-21T15:36:42Z</time>
      </trkpt>
      <trkpt lat="47.0967830" lon="6.7278350">
        <ele>879.5</ele>
        <time>2022-07-21T15:36:43Z</time>
      </trkpt>
      <trkpt lat="47.0967830" lon="6.7278820">
        <ele>879.7</ele>
        <time>2022-07-21T15:36:44Z</time>
      </trkpt>
      <trkpt lat="47.0967820" lon="6.7279020">
        <ele>879.8</ele>
        <time>2022-07-21T15:36:45Z</time>
      </trkpt>
      <trkpt lat="47.0967750" lon="6.7279440">
        <ele>880.0</ele>
        <time>2022-07-21T15:36:46Z</time>
      </trkpt>
      <trkpt lat="47.0967720" lon="6.7279580">
        <ele>880.1</ele>
        <time>2022-07-21T15:36:47Z</time>
      </trkpt>
      <trkpt lat="47.0967670" lon="6.7279770">
        <ele>880.2</ele>
        <time>2022-07-21T15:36:48Z</time>
      </trkpt>
      <trkpt lat="47.0967590" lon="6.7279930">
        <ele>880.3</ele>
        <time>2022-07-21T15:36:49Z</time>
      </trkpt>
      <trkpt lat="47.0967420" lon="6.7280170">
        <ele>880.6</ele>
        <time>2022-07-21T15:36:50Z</time>
      </trkpt>
      <trkpt lat="47.0967320" lon="6.7280300">
        <ele>880.7</ele>
        <time>2022-07-21T15:36:51Z</time>
      </trkpt>
      <trkpt lat="47.0967230" lon="6.7280430">
        <ele>880.8</ele>
        <time>2022-07-21T15:36:52Z</time>
      </trkpt>
      <trkpt lat="47.0966950" lon="6.7280730">
        <ele>881.1</ele>
        <time>2022-07-21T15:36:53Z</time>
      </trkpt>
      <trkpt lat="47.0966860" lon="6.7280800">
        <ele>881.2</ele>
        <time>2022-07-21T15:36:54Z</time>
      </trkpt>
      <trkpt lat="47.0966750" lon="6.7280870">
        <ele>881.3</ele>
        <time>2022-07-21T15:36:55Z</time>
      </trkpt>
      <trkpt lat="47.0966600" lon="6.7280930">
        <ele>881.5</ele>
        <time>2022-07-21T15:36:56Z</time>
      </trkpt>
      <trkpt lat="47.0966440" lon="6.7281010">
        <ele>881.7</ele>
        <time>2022-07-21T15:36:57Z</time>
      </trkpt>
      <trkpt lat="47.0966270" lon="6.7281120">
        <ele>881.9</ele>
        <time>2022-07-21T15:36:58Z</time>
      </trkpt>
      <trkpt lat="47.0966140" lon="6.7281220">
        <ele>882.1</ele>
        <time>2022-07-21T15:36:59Z</time>
      </trkpt>
      <trkpt lat="47.0965990" lon="6.7281320">
        <ele>882.3</ele>
        <time>2022-07-21T15:37:00Z</time>
      </trkpt>
      <trkpt lat="47.0965850" lon="6.7281410">
        <ele>882.5</ele>
        <time>2022-07-21T15:37:01Z</time>
      </trkpt>
      <trkpt lat="47.0965700" lon="6.7281480">
        <ele>882.7</ele>
        <time>2022-07-21T15:37:02Z</time>
      </trkpt>
      <trkpt lat="47.0965510" lon="6.7281600">
        <ele>882.9</ele>
        <time>2022-07-21T15:37:03Z</time>
      </trkpt>
      <trkpt lat="47.0965440" lon="6.7281660">
        <ele>883.0</ele>
        <time>2022-07-21T15:37:04Z</time>
      </trkpt>
      <trkpt lat="47.0965370" lon="6.7281720">
        <ele>883.1</ele>
        <time>2022-07-21T15:37:05Z</time>
      </trkpt>
      <trkpt lat="47.0965180" lon="6.7281900">
        <ele>883.4</ele>
        <time>2022-07-21T15:37:06Z</time>
      </trkpt>
      <trkpt lat="47.0965110" lon="6.7281960">
        <ele>883.5</ele>
        <time>2022-07-21T15:37:07Z</time>
      </trkpt>
      <trkpt lat="47.0965030" lon="6.7282030">
        <ele>883.6</ele>
        <time>2022-07-21T15:37:08Z</time>
      </trkpt>
      <trkpt lat="47.0964910" lon="6.7282160">
        <ele>883.8</ele>
        <time>2022-07-21T15:37:09Z</time>
      </trkpt>
      <trkpt lat="47.0964850" lon="6.7282290">
        <ele>884.0</ele>
        <time>2022-07-21T15:37:10Z</time>
      </trkpt>
      <trkpt lat="47.0964800" lon="6.7282400">
        <ele>884.1</ele>
        <time>2022-07-21T15:37:11Z</time>
      </trkpt>
      <trkpt lat="47.0964740" lon="6.7282510">
        <ele>884.2</ele>
        <time>2022-07-21T15:37:12Z</time>
      </trkpt>
      <trkpt lat="47.0964690" lon="6.7282620">
        <ele>884.3</ele>
        <time>2022-07-21T15:37:13Z</time>
      </trkpt>
      <trkpt lat="47.0964660" lon="6.7282710">
        <ele>884.4</ele>
        <time>2022-07-21T15:37:14Z</time>
      </trkpt>
      <trkpt lat="47.0964660" lon="6.7282830">
        <ele>884.5</ele>
        <time>2022-07-21T15:37:15Z</time>
      </trkpt>
      <trkpt lat="47.0964560" lon="6.7283010">
        <ele>884.8</ele>
        <time>2022-07-21T15:37:16Z</time>
      </trkpt>
      <trkpt lat="47.0964520" lon="6.7283170">
        <ele>884.9</ele>
        <time>2022-07-21T15:37:17Z</time>
      </trkpt>
      <trkpt lat="47.0964450" lon="6.7283250">
        <ele>885.1</ele>
        <time>2022-07-21T15:37:18Z</time>
      </trkpt>
      <trkpt lat="47.0964370" lon="6.7283370">
        <ele>885.2</ele>
        <time>2022-07-21T15:37:19Z</time>
      </trkpt>
      <trkpt lat="47.0964260" lon="6.7283460">
        <ele>885.4</ele>
        <time>2022-07-21T15:37:20Z</time>
      </trkpt>
      <trkpt lat="47.0964190" lon="6.7283500">
        <ele>885.5</ele>
        <time>2022-07-21T15:37:21Z</time>
      </trkpt>
      <trkpt lat="47.0964050" lon="6.7283640">
        <ele>885.8</ele>
        <time>2022-07-21T15:37:22Z</time>
      </trkpt>
      <trkpt lat="47.0963990" lon="6.7283730">
        <ele>885.9</ele>
        <time>2022-07-21T15:37:23Z</time>
      </trkpt>
      <trkpt lat="47.0963930" lon="6.7283820">
        <ele>886.1</ele>
        <time>2022-07-21T15:37:24Z</time>
      </trkpt>
      <trkpt lat="47.0963870" lon="6.7283910">
        <ele>886.2</ele>
        <time>2022-07-21T15:37:25Z</time>
      </trkpt>
      <trkpt lat="47.0963820" lon="6.7283950">
        <ele>886.3</ele>
        <time>2022-07-21T15:37:26Z</time>
      </trkpt>
      <trkpt lat="47.0963760" lon="6.7283990">
        <ele>886.4</ele>
        <time>2022-07-21T15:37:27Z</time>
      </trkpt>
      <trkpt lat="47.0963690" lon="6.7284040">
        <ele>886.6</ele>
        <time>2022-07-21T15:37:28Z</time>
      </trkpt>
      <trkpt lat="47.0963580" lon="6.7284120">
        <ele>886.8</ele>
        <time>2022-07-21T15:37:29Z</time>
      </trkpt>
      <trkpt lat="47.0963490" lon="6.7284260">
        <ele>887.0</ele>
        <time>2022-07-21T15:37:30Z</time>
      </trkpt>
      <trkpt lat="47.0963410" lon="6.7284320">
        <ele>887.2</ele>
        <time>2022-07-21T15:37:31Z</time>
      </trkpt>
      <trkpt lat="47.0963340" lon="6.7284380">
        <ele>887.3</ele>
        <time>2022-07-21T15:37:32Z</time>
      </trkpt>
      <trkpt lat="47.0963260" lon="6.7284470">
        <ele>887.5</ele>
        <time>2022-07-21T15:37:33Z</time>
      </trkpt>
      <trkpt lat="47.0963140" lon="6.7284610">
        <ele>887.8</ele>
        <time>2022-07-21T15:37:34Z</time>
      </trkpt>
      <trkpt lat="47.0963020" lon="6.7284700">
        <ele>888.0</ele>
        <time>2022-07-21T15:37:36Z</time>
      </trkpt>
      <trkpt lat="47.0962910" lon="6.7284790">
        <ele>888.2</ele>
        <time>2022-07-21T15:37:37Z</time>
      </trkpt>
      <trkpt lat="47.0962820" lon="6.7284840">
        <ele>888.4</ele>
        <time>2022-07-21T15:37:38Z</time>
      </trkpt>
      <trkpt lat="47.0962760" lon="6.7284860">
        <ele>888.5</ele>
        <time>2022-07-21T15:37:39Z</time>
      </trkpt>
      <trkpt lat="47.0962720" lon="6.7284870">
        <ele>888.6</ele>
        <time>2022-07-21T15:37:41Z</time>
      </trkpt>
      <trkpt lat="47.0962650" lon="6.7284920">
        <ele>888.8</ele>
        <time>2022-07-21T15:37:42Z</time>
      </trkpt>
      <trkpt lat="47.0962580" lon="6.7284990">
        <ele>888.9</ele>
        <time>2022-07-21T15:37:44Z</time>
      </trkpt>
      <trkpt lat="47.0962480" lon="6.7285100">
        <ele>889.2</ele>
        <time>2022-07-21T15:37:45Z</time>
      </trkpt>
      <trkpt lat="47.0962410" lon="6.7285170">
        <ele>889.3</ele>
        <time>2022-07-21T15:37:46Z</time>
      </trkpt>
      <trkpt lat="47.0962340" lon="6.7285240">
        <ele>889.5</ele>
        <time>2022-07-21T15:37:47Z</time>
      </trkpt>
      <trkpt lat="47.0962310" lon="6.7285280">
        <ele>889.6</ele>
        <time>2022-07-21T15:37:48Z</time>
      </trkpt>
      <trkpt lat="47.0962310" lon="6.7285290">
        <ele>889.6</ele>
        <time>2022-07-21T15:37:50Z</time>
      </trkpt>
      <trkpt lat="47.0962310" lon="6.7285300">
        <ele>889.6</ele>
        <time>2022-07-21T15:37:51Z</time>
      </trkpt>
      <trkpt lat="47.0962250" lon="6.7285390">
        <ele>889.8</ele>
        <time>2022-07-21T15:37:53Z</time>
      </trkpt>
      <trkpt lat="47.0962240" lon="6.7285440">
        <ele>889.8</ele>
        <time>2022-07-21T15:37:54Z</time>
      </trkpt>
      <trkpt lat="47.0962210" lon="6.7285490">
        <ele>889.9</ele>
        <time>2022-07-21T15:37:55Z</time>
      </trkpt>
      <trkpt lat="47.0962190" lon="6.7285550">
        <ele>890.0</ele>
        <time>2022-07-21T15:37:56Z</time>
      </trkpt>
      <trkpt lat="47.0962150" lon="6.7285600">
        <ele>890.1</ele>
        <time>2022-07-21T15:37:57Z</time>
      </trkpt>
      <trkpt lat="47.0962120" lon="6.7285650">
        <ele>890.2</ele>
        <time>2022-07-21T15:37:58Z</time>
      </trkpt>
      <trkpt lat="47.0962000" lon="6.7285710">
        <ele>890.5</ele>
        <time>2022-07-21T15:37:59Z</time>
      </trkpt>
      <trkpt lat="47.0961780" lon="6.7285820">
        <ele>890.9</ele>
        <time>2022-07-21T15:38:01Z</time>
      </trkpt>
      <trkpt lat="47.0961660" lon="6.7285870">
        <ele>891.2</ele>
        <time>2022-07-21T15:38:02Z</time>
      </trkpt>
      <trkpt lat="47.0961530" lon="6.7285950">
        <ele>891.5</ele>
        <time>2022-07-21T15:38:03Z</time>
      </trkpt>
      <trkpt lat="47.0961420" lon="6.7286010">
        <ele>891.7</ele>
        <time>2022-07-21T15:38:04Z</time>
      </trkpt>
      <trkpt lat="47.0961330" lon="6.7286030">
        <ele>891.9</ele>
        <time>2022-07-21T15:38:05Z</time>
      </trkpt>
      <trkpt lat="47.0961260" lon="6.7286070">
        <ele>892.1</ele>
        <time>2022-07-21T15:38:06Z</time>
      </trkpt>
      <trkpt lat="47.0961190" lon="6.7286150">
        <ele>892.3</ele>
        <time>2022-07-21T15:38:07Z</time>
      </trkpt>
      <trkpt lat="47.0961140" lon="6.7286240">
        <ele>892.4</ele>
        <time>2022-07-21T15:38:08Z</time>
      </trkpt>
      <trkpt lat="47.0961120" lon="6.7286320">
        <ele>892.5</ele>
        <time>2022-07-21T15:38:09Z</time>
      </trkpt>
      <trkpt lat="47.0961120" lon="6.7286380">
        <ele>892.6</ele>
        <time>2022-07-21T15:38:10Z</time>
      </trkpt>
      <trkpt lat="47.0961130" lon="6.7286420">
        <ele>892.7</ele>
        <time>2022-07-21T15:38:11Z</time>
      </trkpt>
      <trkpt lat="47.0961120" lon="6.7286480">
        <ele>892.8</ele>
        <time>2022-07-21T15:38:12Z</time>
      </trkpt>
      <trkpt lat="47.0961070" lon="6.7286550">
        <ele>892.9</ele>
        <time>2022-07-21T15:38:13Z</time>
      </trkpt>
      <trkpt lat="47.0961020" lon="6.7286590">
        <ele>893.1</ele>
        <time>2022-07-21T15:38:14Z</time>
      </trkpt>
      <trkpt lat="47.0960930" lon="6.7286650">
        <ele>893.3</ele>
        <time>2022-07-21T15:38:15Z</time>
      </trkpt>
      <trkpt lat="47.0960840" lon="6.7286720">
        <ele>893.5</ele>
        <time>2022-07-21T15:38:16Z</time>
      </trkpt>
      <trkpt lat="47.0960740" lon="6.7286800">
        <ele>893.7</ele>
        <time>2022-07-21T15:38:17Z</time>
      </trkpt>
      <trkpt lat="47.0960650" lon="6.7286890">
        <ele>894.0</ele>
        <time>2022-07-21T15:38:18Z</time>
      </trkpt>
      <trkpt lat="47.0960590" lon="6.7286950">
        <ele>894.2</ele>
        <time>2022-07-21T15:38:19Z</time>
      </trkpt>
      <trkpt lat="47.0960500" lon="6.7287060">
        <ele>894.4</ele>
        <time>2022-07-21T15:38:20Z</time>
      </trkpt>
      <trkpt lat="47.0960390" lon="6.7287220">
        <ele>894.8</ele>
        <time>2022-07-21T15:38:21Z</time>
      </trkpt>
      <trkpt lat="47.0960310" lon="6.7287300">
        <ele>895.0</ele>
        <time>2022-07-21T15:38:22Z</time>
      </trkpt>
      <trkpt lat="47.0960220" lon="6.7287380">
        <ele>895.2</ele>
        <time>2022-07-21T15:38:23Z</time>
      </trkpt>
      <trkpt lat="47.0960120" lon="6.7287450">
        <ele>895.5</ele>
        <time>2022-07-21T15:38:24Z</time>
      </trkpt>
      <trkpt lat="47.0960040" lon="6.7287490">
        <ele>895.7</ele>
        <time>2022-07-21T15:38:25Z</time>
      </trkpt>
      <trkpt lat="47.0959940" lon="6.7287550">
        <ele>895.9</ele>
        <time>2022-07-21T15:38:26Z</time>
      </trkpt>
      <trkpt lat="47.0959870" lon="6.7287600">
        <ele>896.1</ele>
        <time>2022-07-21T15:38:27Z</time>
      </trkpt>
      <trkpt lat="47.0959790" lon="6.7287660">
        <ele>896.3</ele>
        <time>2022-07-21T15:38:28Z</time>
      </trkpt>
      <trkpt lat="47.0959710" lon="6.7287750">
        <ele>896.5</ele>
        <time>2022-07-21T15:38:29Z</time>
      </trkpt>
      <trkpt lat="47.0959660" lon="6.7287830">
        <ele>896.7</ele>
        <time>2022-07-21T15:38:30Z</time>
      </trkpt>
      <trkpt lat="47.0959630" lon="6.7287870">
        <ele>896.8</ele>
        <time>2022-07-21T15:38:31Z</time>
      </trkpt>
      <trkpt lat="47.0959580" lon="6.7287910">
        <ele>896.9</ele>
        <time>2022-07-21T15:38:32Z</time>
      </trkpt>
      <trkpt lat="47.0959500" lon="6.7287980">
        <ele>897.1</ele>
        <time>2022-07-21T15:38:34Z</time>
      </trkpt>
      <trkpt lat="47.0959440" lon="6.7288020">
        <ele>897.2</ele>
        <time>2022-07-21T15:38:35Z</time>
      </trkpt>
      <trkpt lat="47.0959390" lon="6.7288060">
        <ele>897.4</ele>
        <time>2022-07-21T15:38:36Z</time>
      </trkpt>
      <trkpt lat="47.0959280" lon="6.7288120">
        <ele>897.6</ele>
        <time>2022-07-21T15:38:38Z</time>
      </trkpt>
      <trkpt lat="47.0959220" lon="6.7288160">
        <ele>897.8</ele>
        <time>2022-07-21T15:38:39Z</time>
      </trkpt>
      <trkpt lat="47.0959180" lon="6.7288180">
        <ele>897.9</ele>
        <time>2022-07-21T15:38:40Z</time>
      </trkpt>
      <trkpt lat="47.0959120" lon="6.7288210">
        <ele>898.0</ele>
        <time>2022-07-21T15:38:41Z</time>
      </trkpt>
      <trkpt lat="47.0959080" lon="6.7288220">
        <ele>898.1</ele>
        <time>2022-07-21T15:38:42Z</time>
      </trkpt>
      <trkpt lat="47.0958830" lon="6.7288280">
        <ele>898.7</ele>
        <time>2022-07-21T15:38:48Z</time>
      </trkpt>
      <trkpt lat="47.0958720" lon="6.7288290">
        <ele>898.9</ele>
        <time>2022-07-21T15:38:49Z</time>
      </trkpt>
      <trkpt lat="47.0958630" lon="6.7288290">
        <ele>899.1</ele>
        <time>2022-07-21T15:38:50Z</time>
      </trkpt>
      <trkpt lat="47.0958500" lon="6.7288340">
        <ele>899.4</ele>
        <time>2022-07-21T15:38:51Z</time>
      </trkpt>
      <trkpt lat="47.0958330" lon="6.7288510">
        <ele>899.8</ele>
        <time>2022-07-21T15:38:53Z</time>
      </trkpt>
      <trkpt lat="47.0958250" lon="6.7288590">
        <ele>900.0</ele>
        <time>2022-07-21T15:38:54Z</time>
      </trkpt>
      <trkpt lat="47.0958170" lon="6.7288680">
        <ele>900.2</ele>
        <time>2022-07-21T15:38:55Z</time>
      </trkpt>
      <trkpt lat="47.0958040" lon="6.7288780">
        <ele>900.5</ele>
        <time>2022-07-21T15:38:56Z</time>
      </trkpt>
      <trkpt lat="47.0957910" lon="6.7288900">
        <ele>900.9</ele>
        <time>2022-07-21T15:38:57Z</time>
      </trkpt>
      <trkpt lat="47.0957770" lon="6.7289030">
        <ele>901.2</ele>
        <time>2022-07-21T15:38:58Z</time>
      </trkpt>
      <trkpt lat="47.0957580" lon="6.7289190">
        <ele>901.6</ele>
        <time>2022-07-21T15:39:00Z</time>
      </trkpt>
      <trkpt lat="47.0957310" lon="6.7289390">
        <ele>902.2</ele>
        <time>2022-07-21T15:39:01Z</time>
      </trkpt>
      <trkpt lat="47.0957240" lon="6.7289450">
        <ele>902.3</ele>
        <time>2022-07-21T15:39:02Z</time>
      </trkpt>
      <trkpt lat="47.0957160" lon="6.7289560">
        <ele>902.5</ele>
        <time>2022-07-21T15:39:03Z</time>
      </trkpt>
      <trkpt lat="47.0957080" lon="6.7289690">
        <ele>902.8</ele>
        <time>2022-07-21T15:39:04Z</time>
      </trkpt>
      <trkpt lat="47.0957020" lon="6.7289800">
        <ele>902.9</ele>
        <time>2022-07-21T15:39:06Z</time>
      </trkpt>
      <trkpt lat="47.0956960" lon="6.7289870">
        <ele>903.1</ele>
        <time>2022-07-21T15:39:07Z</time>
      </trkpt>
      <trkpt lat="47.0956830" lon="6.7289940">
        <ele>903.3</ele>
        <time>2022-07-21T15:39:08Z</time>
      </trkpt>
      <trkpt lat="47.0956750" lon="6.7289980">
        <ele>903.5</ele>
        <time>2022-07-21T15:39:09Z</time>
      </trkpt>
      <trkpt lat="47.0956650" lon="6.7290020">
        <ele>903.7</ele>
        <time>2022-07-21T15:39:10Z</time>
      </trkpt>
      <trkpt lat="47.0956540" lon="6.7290070">
        <ele>903.9</ele>
        <time>2022-07-21T15:39:11Z</time>
      </trkpt>
      <trkpt lat="47.0956450" lon="6.7290130">
        <ele>904.0</ele>
        <time>2022-07-21T15:39:12Z</time>
      </trkpt>
      <trkpt lat="47.0956210" lon="6.7290390">
        <ele>904.6</ele>
        <time>2022-07-21T15:39:13Z</time>
      </trkpt>
      <trkpt lat="47.0956120" lon="6.7290520">
        <ele>904.8</ele>
        <time>2022-07-21T15:39:14Z</time>
      </trkpt>
      <trkpt lat="47.0955990" lon="6.7290760">
        <ele>905.1</ele>
        <time>2022-07-21T15:39:16Z</time>
      </trkpt>
      <trkpt lat="47.0955900" lon="6.7290890">
        <ele>905.3</ele>
        <time>2022-07-21T15:39:17Z</time>
      </trkpt>
      <trkpt lat="47.0955790" lon="6.7291020">
        <ele>905.5</ele>
        <time>2022-07-21T15:39:18Z</time>
      </trkpt>
      <trkpt lat="47.0955670" lon="6.7291210">
        <ele>905.8</ele>
        <time>2022-07-21T15:39:19Z</time>
      </trkpt>
      <trkpt lat="47.0955620" lon="6.7291290">
        <ele>906.0</ele>
        <time>2022-07-21T15:39:20Z</time>
      </trkpt>
      <trkpt lat="47.0955550" lon="6.7291440">
        <ele>906.1</ele>
        <time>2022-07-21T15:39:21Z</time>
      </trkpt>
      <trkpt lat="47.0955490" lon="6.7291570">
        <ele>906.3</ele>
        <time>2022-07-21T15:39:22Z</time>
      </trkpt>
      <trkpt lat="47.0955430" lon="6.7291700">
        <ele>906.5</ele>
        <time>2022-07-21T15:39:23Z</time>
      </trkpt>
      <trkpt lat="47.0955380" lon="6.7291760">
        <ele>906.6</ele>
        <time>2022-07-21T15:39:25Z</time>
      </trkpt>
      <trkpt lat="47.0955350" lon="6.7291840">
        <ele>906.7</ele>
        <time>2022-07-21T15:39:26Z</time>
      </trkpt>
      <trkpt lat="47.0955340" lon="6.7291890">
        <ele>906.7</ele>
        <time>2022-07-21T15:39:27Z</time>
      </trkpt>
      <trkpt lat="47.0955320" lon="6.7291950">
        <ele>906.8</ele>
        <time>2022-07-21T15:39:28Z</time>
      </trkpt>
      <trkpt lat="47.0955280" lon="6.7292060">
        <ele>906.9</ele>
        <time>2022-07-21T15:39:30Z</time>
      </trkpt>
      <trkpt lat="47.0955270" lon="6.7292230">
        <ele>907.1</ele>
        <time>2022-07-21T15:39:31Z</time>
      </trkpt>
      <trkpt lat="47.0955240" lon="6.7292420">
        <ele>910.6</ele>
        <time>2022-07-21T15:39:33Z</time>
      </trkpt>
      <trkpt lat="47.0955210" lon="6.7292550">
        <ele>910.6</ele>
        <time>2022-07-21T15:39:34Z</time>
      </trkpt>
      <trkpt lat="47.0955070" lon="6.7292740">
        <ele>910.6</ele>
        <time>2022-07-21T15:39:36Z</time>
      </trkpt>
      <trkpt lat="47.0955020" lon="6.7292730">
        <ele>910.6</ele>
        <time>2022-07-21T15:39:37Z</time>
      </trkpt>
      <trkpt lat="47.0954960" lon="6.7292740">
        <ele>910.6</ele>
        <time>2022-07-21T15:39:38Z</time>
      </trkpt>
      <trkpt lat="47.0954950" lon="6.7292740">
        <ele>910.6</ele>
        <time>2022-07-21T15:39:39Z</time>
      </trkpt>
      <trkpt lat="47.0954910" lon="6.7292750">
        <ele>910.6</ele>
        <time>2022-07-21T15:39:40Z</time>
      </trkpt>
      <trkpt lat="47.0954850" lon="6.7292750">
        <ele>910.6</ele>
        <time>2022-07-21T15:39:41Z</time>
      </trkpt>
      <trkpt lat="47.0954790" lon="6.7292740">
        <ele>910.6</ele>
        <time>2022-07-21T15:39:42Z</time>
      </trkpt>
      <trkpt lat="47.0954740" lon="6.7292730">
        <ele>910.6</ele>
        <time>2022-07-21T15:39:43Z</time>
      </trkpt>
      <trkpt lat="47.0954690" lon="6.7292700">
        <ele>910.6</ele>
        <time>2022-07-21T15:39:44Z</time>
      </trkpt>
      <trkpt lat="47.0954640" lon="6.7292680">
        <ele>910.6</ele>
        <time>2022-07-21T15:39:45Z</time>
      </trkpt>
      <trkpt lat="47.0954580" lon="6.7292660">
        <ele>910.6</ele>
        <time>2022-07-21T15:39:47Z</time>
      </trkpt>
      <trkpt lat="47.0954520" lon="6.7292630">
        <ele>910.6</ele>
        <time>2022-07-21T15:39:48Z</time>
      </trkpt>
      <trkpt lat="47.0954470" lon="6.7292570">
        <ele>910.6</ele>
        <time>2022-07-21T15:39:49Z</time>
      </trkpt>
      <trkpt lat="47.0954380" lon="6.7292460">
        <ele>910.6</ele>
        <time>2022-07-21T15:39:51Z</time>
      </trkpt>
      <trkpt lat="47.0954310" lon="6.7292350">
        <ele>910.6</ele>
        <time>2022-07-21T15:39:52Z</time>
      </trkpt>
      <trkpt lat="47.0954160" lon="6.7292180">
        <ele>911.8</ele>
        <time>2022-07-21T15:39:53Z</time>
      </trkpt>
      <trkpt lat="47.0954070" lon="6.7292090">
        <ele>911.9</ele>
        <time>2022-07-21T15:39:54Z</time>
      </trkpt>
      <trkpt lat="47.0953990" lon="6.7292010">
        <ele>911.9</ele>
        <time>2022-07-21T15:39:55Z</time>
      </trkpt>
      <trkpt lat="47.0953780" lon="6.7291910">
        <ele>911.9</ele>
        <time>2022-07-21T15:39:57Z</time>
      </trkpt>
      <trkpt lat="47.0953690" lon="6.7291880">
        <ele>911.9</ele>
        <time>2022-07-21T15:39:58Z</time>
      </trkpt>
      <trkpt lat="47.0953610" lon="6.7291860">
        <ele>911.9</ele>
        <time>2022-07-21T15:39:59Z</time>
      </trkpt>
      <trkpt lat="47.0953390" lon="6.7291710">
        <ele>911.9</ele>
        <time>2022-07-21T15:40:01Z</time>
      </trkpt>
      <trkpt lat="47.0953290" lon="6.7291620">
        <ele>911.9</ele>
        <time>2022-07-21T15:40:02Z</time>
      </trkpt>
      <trkpt lat="47.0953230" lon="6.7291560">
        <ele>911.9</ele>
        <time>2022-07-21T15:40:03Z</time>
      </trkpt>
      <trkpt lat="47.0953180" lon="6.7291580">
        <ele>911.9</ele>
        <time>2022-07-21T15:40:04Z</time>
      </trkpt>
      <trkpt lat="47.0953150" lon="6.7291560">
        <ele>911.9</ele>
        <time>2022-07-21T15:40:05Z</time>
      </trkpt>
      <trkpt lat="47.0953130" lon="6.7291560">
        <ele>911.9</ele>
        <time>2022-07-21T15:40:06Z</time>
      </trkpt>
      <trkpt lat="47.0953130" lon="6.7291590">
        <ele>911.9</ele>
        <time>2022-07-21T15:40:07Z</time>
      </trkpt>
      <trkpt lat="47.0953130" lon="6.7291610">
        <ele>911.9</ele>
        <time>2022-07-21T15:40:08Z</time>
      </trkpt>
      <trkpt lat="47.0953130" lon="6.7291630">
        <ele>911.9</ele>
        <time>2022-07-21T15:40:09Z</time>
      </trkpt>
      <trkpt lat="47.0953140" lon="6.7291650">
        <ele>911.9</ele>
        <time>2022-07-21T15:40:10Z</time>
      </trkpt>
      <trkpt lat="47.0953140" lon="6.7291650">
        <ele>911.9</ele>
        <time>2022-07-21T15:40:11Z</time>
      </trkpt>
      <trkpt lat="47.0953140" lon="6.7291640">
        <ele>911.9</ele>
        <time>2022-07-21T15:40:12Z</time>
      </trkpt>
      <trkpt lat="47.0953130" lon="6.7291640">
        <ele>911.9</ele>
        <time>2022-07-21T15:40:13Z</time>
      </trkpt>
      <trkpt lat="47.0953130" lon="6.7291630">
        <ele>911.9</ele>
        <time>2022-07-21T15:40:14Z</time>
      </trkpt>
      <trkpt lat="47.0953130" lon="6.7291630">
        <ele>911.9</ele>
        <time>2022-07-21T15:40:15Z</time>
      </trkpt>
      <trkpt lat="47.0953010" lon="6.7291240">
        <ele>911.9</ele>
        <time>2022-07-21T15:40:24Z</time>
      </trkpt>
      <trkpt lat="47.0952940" lon="6.7290920">
        <ele>911.9</ele>
        <time>2022-07-21T15:40:25Z</time>
      </trkpt>
      <trkpt lat="47.0952790" lon="6.7290460">
        <ele>911.8</ele>
        <time>2022-07-21T15:40:27Z</time>
      </trkpt>
      <trkpt lat="47.0952640" lon="6.7290110">
        <ele>911.8</ele>
        <time>2022-07-21T15:40:28Z</time>
      </trkpt>
      <trkpt lat="47.0952550" lon="6.7289950">
        <ele>911.7</ele>
        <time>2022-07-21T15:40:29Z</time>
      </trkpt>
      <trkpt lat="47.0952310" lon="6.7289590">
        <ele>911.7</ele>
        <time>2022-07-21T15:40:30Z</time>
      </trkpt>
      <trkpt lat="47.0952250" lon="6.7289480">
        <ele>911.6</ele>
        <time>2022-07-21T15:40:31Z</time>
      </trkpt>
      <trkpt lat="47.0952130" lon="6.7289090">
        <ele>911.6</ele>
        <time>2022-07-21T15:40:32Z</time>
      </trkpt>
      <trkpt lat="47.0952120" lon="6.7288560">
        <ele>911.5</ele>
        <time>2022-07-21T15:40:33Z</time>
      </trkpt>
      <trkpt lat="47.0952130" lon="6.7288420">
        <ele>911.5</ele>
        <time>2022-07-21T15:40:34Z</time>
      </trkpt>
      <trkpt lat="47.0952000" lon="6.7287950">
        <ele>911.4</ele>
        <time>2022-07-21T15:40:35Z</time>
      </trkpt>
      <trkpt lat="47.0951920" lon="6.7287810">
        <ele>911.4</ele>
        <time>2022-07-21T15:40:36Z</time>
      </trkpt>
      <trkpt lat="47.0951690" lon="6.7287410">
        <ele>911.3</ele>
        <time>2022-07-21T15:40:37Z</time>
      </trkpt>
      <trkpt lat="47.0951620" lon="6.7287280">
        <ele>911.3</ele>
        <time>2022-07-21T15:40:38Z</time>
      </trkpt>
      <trkpt lat="47.0951430" lon="6.7286860">
        <ele>911.2</ele>
        <time>2022-07-21T15:40:39Z</time>
      </trkpt>
      <trkpt lat="47.0951360" lon="6.7286710">
        <ele>911.2</ele>
        <time>2022-07-21T15:40:40Z</time>
      </trkpt>
      <trkpt lat="47.0951080" lon="6.7286150">
        <ele>911.1</ele>
        <time>2022-07-21T15:40:41Z</time>
      </trkpt>
      <trkpt lat="47.0950950" lon="6.7285890">
        <ele>911.0</ele>
        <time>2022-07-21T15:40:42Z</time>
      </trkpt>
      <trkpt lat="47.0950660" lon="6.7285430">
        <ele>911.0</ele>
        <time>2022-07-21T15:40:44Z</time>
      </trkpt>
      <trkpt lat="47.0950360" lon="6.7285150">
        <ele>911.0</ele>
        <time>2022-07-21T15:40:45Z</time>
      </trkpt>
      <trkpt lat="47.0950070" lon="6.7284940">
        <ele>910.9</ele>
        <time>2022-07-21T15:40:46Z</time>
      </trkpt>
      <trkpt lat="47.0949680" lon="6.7284670">
        <ele>910.9</ele>
        <time>2022-07-21T15:40:47Z</time>
      </trkpt>
      <trkpt lat="47.0949380" lon="6.7284340">
        <ele>910.8</ele>
        <time>2022-07-21T15:40:48Z</time>
      </trkpt>
      <trkpt lat="47.0949160" lon="6.7284020">
        <ele>910.8</ele>
        <time>2022-07-21T15:40:50Z</time>
      </trkpt>
      <trkpt lat="47.0949060" lon="6.7283590">
        <ele>910.7</ele>
        <time>2022-07-21T15:40:51Z</time>
      </trkpt>
      <trkpt lat="47.0948990" lon="6.7283020">
        <ele>910.6</ele>
        <time>2022-07-21T15:40:52Z</time>
      </trkpt>
      <trkpt lat="47.0949010" lon="6.7282440">
        <ele>910.6</ele>
        <time>2022-07-21T15:40:53Z</time>
      </trkpt>
      <trkpt lat="47.0949010" lon="6.7281850">
        <ele>910.5</ele>
        <time>2022-07-21T15:40:54Z</time>
      </trkpt>
      <trkpt lat="47.0948910" lon="6.7281040">
        <ele>910.3</ele>
        <time>2022-07-21T15:40:56Z</time>
      </trkpt>
      <trkpt lat="47.0948800" lon="6.7280480">
        <ele>910.2</ele>
        <time>2022-07-21T15:40:57Z</time>
      </trkpt>
      <trkpt lat="47.0948700" lon="6.7279920">
        <ele>910.1</ele>
        <time>2022-07-21T15:40:58Z</time>
      </trkpt>
      <trkpt lat="47.0948460" lon="6.7278890">
        <ele>910.0</ele>
        <time>2022-07-21T15:40:59Z</time>
      </trkpt>
      <trkpt lat="47.0948300" lon="6.7278360">
        <ele>909.8</ele>
        <time>2022-07-21T15:41:01Z</time>
      </trkpt>
      <trkpt lat="47.0948180" lon="6.7277970">
        <ele>909.7</ele>
        <time>2022-07-21T15:41:02Z</time>
      </trkpt>
      <trkpt lat="47.0948000" lon="6.7277570">
        <ele>909.6</ele>
        <time>2022-07-21T15:41:03Z</time>
      </trkpt>
      <trkpt lat="47.0947770" lon="6.7277060">
        <ele>909.5</ele>
        <time>2022-07-21T15:41:05Z</time>
      </trkpt>
      <trkpt lat="47.0947580" lon="6.7276650">
        <ele>909.4</ele>
        <time>2022-07-21T15:41:06Z</time>
      </trkpt>
      <trkpt lat="47.0947360" lon="6.7276220">
        <ele>909.2</ele>
        <time>2022-07-21T15:41:07Z</time>
      </trkpt>
      <trkpt lat="47.0947130" lon="6.7275780">
        <ele>909.1</ele>
        <time>2022-07-21T15:41:08Z</time>
      </trkpt>
      <trkpt lat="47.0946910" lon="6.7275240">
        <ele>909.0</ele>
        <time>2022-07-21T15:41:09Z</time>
      </trkpt>
      <trkpt lat="47.0946600" lon="6.7274580">
        <ele>908.8</ele>
        <time>2022-07-21T15:41:10Z</time>
      </trkpt>
      <trkpt lat="47.0946430" lon="6.7274250">
        <ele>908.6</ele>
        <time>2022-07-21T15:41:11Z</time>
      </trkpt>
      <trkpt lat="47.0946170" lon="6.7273710">
        <ele>908.4</ele>
        <time>2022-07-21T15:41:12Z</time>
      </trkpt>
      <trkpt lat="47.0946000" lon="6.7273320">
        <ele>908.3</ele>
        <time>2022-07-21T15:41:14Z</time>
      </trkpt>
      <trkpt lat="47.0945870" lon="6.7272950">
        <ele>908.1</ele>
        <time>2022-07-21T15:41:15Z</time>
      </trkpt>
      <trkpt lat="47.0945730" lon="6.7272490">
        <ele>908.0</ele>
        <time>2022-07-21T15:41:16Z</time>
      </trkpt>
      <trkpt lat="47.0945670" lon="6.7272240">
        <ele>907.8</ele>
        <time>2022-07-21T15:41:17Z</time>
      </trkpt>
      <trkpt lat="47.0945580" lon="6.7271660">
        <ele>907.6</ele>
        <time>2022-07-21T15:41:18Z</time>
      </trkpt>
      <trkpt lat="47.0945540" lon="6.7271390">
        <ele>907.5</ele>
        <time>2022-07-21T15:41:19Z</time>
      </trkpt>
      <trkpt lat="47.0945400" lon="6.7271020">
        <ele>907.2</ele>
        <time>2022-07-21T15:41:21Z</time>
      </trkpt>
      <trkpt lat="47.0945330" lon="6.7270550">
        <ele>907.0</ele>
        <time>2022-07-21T15:41:22Z</time>
      </trkpt>
      <trkpt lat="47.0945190" lon="6.7269890">
        <ele>906.6</ele>
        <time>2022-07-21T15:41:23Z</time>
      </trkpt>
      <trkpt lat="47.0945050" lon="6.7269290">
        <ele>906.1</ele>
        <time>2022-07-21T15:41:24Z</time>
      </trkpt>
      <trkpt lat="47.0944750" lon="6.7268480">
        <ele>905.5</ele>
        <time>2022-07-21T15:41:26Z</time>
      </trkpt>
      <trkpt lat="47.0944520" lon="6.7267890">
        <ele>905.0</ele>
        <time>2022-07-21T15:41:27Z</time>
      </trkpt>
      <trkpt lat="47.0944350" lon="6.7267360">
        <ele>904.5</ele>
        <time>2022-07-21T15:41:28Z</time>
      </trkpt>
      <trkpt lat="47.0944210" lon="6.7266620">
        <ele>904.0</ele>
        <time>2022-07-21T15:41:29Z</time>
      </trkpt>
      <trkpt lat="47.0944110" lon="6.7266120">
        <ele>903.6</ele>
        <time>2022-07-21T15:41:30Z</time>
      </trkpt>
      <trkpt lat="47.0943460" lon="6.7263280">
        <ele>901.2</ele>
        <time>2022-07-21T15:41:32Z</time>
      </trkpt>
      <trkpt lat="47.0943090" lon="6.7262580">
        <ele>900.4</ele>
        <time>2022-07-21T15:41:33Z</time>
      </trkpt>
      <trkpt lat="47.0942500" lon="6.7261620">
        <ele>899.5</ele>
        <time>2022-07-21T15:41:34Z</time>
      </trkpt>
      <trkpt lat="47.0942120" lon="6.7260850">
        <ele>898.9</ele>
        <time>2022-07-21T15:41:36Z</time>
      </trkpt>
      <trkpt lat="47.0941700" lon="6.7260680">
        <ele>898.6</ele>
        <time>2022-07-21T15:41:37Z</time>
      </trkpt>
      <trkpt lat="47.0941250" lon="6.7260420">
        <ele>898.2</ele>
        <time>2022-07-21T15:41:39Z</time>
      </trkpt>
      <trkpt lat="47.0941010" lon="6.7260210">
        <ele>898.0</ele>
        <time>2022-07-21T15:41:40Z</time>
      </trkpt>
      <trkpt lat="47.0940770" lon="6.7259720">
        <ele>897.7</ele>
        <time>2022-07-21T15:41:41Z</time>
      </trkpt>
      <trkpt lat="47.0940530" lon="6.7259350">
        <ele>897.4</ele>
        <time>2022-07-21T15:41:43Z</time>
      </trkpt>
      <trkpt lat="47.0940300" lon="6.7259060">
        <ele>897.2</ele>
        <time>2022-07-21T15:41:44Z</time>
      </trkpt>
      <trkpt lat="47.0940060" lon="6.7258680">
        <ele>897.0</ele>
        <time>2022-07-21T15:41:45Z</time>
      </trkpt>
      <trkpt lat="47.0939980" lon="6.7258260">
        <ele>896.7</ele>
        <time>2022-07-21T15:41:46Z</time>
      </trkpt>
      <trkpt lat="47.0939980" lon="6.7257840">
        <ele>896.5</ele>
        <time>2022-07-21T15:41:47Z</time>
      </trkpt>
      <trkpt lat="47.0939820" lon="6.7257380">
        <ele>896.2</ele>
        <time>2022-07-21T15:41:49Z</time>
      </trkpt>
      <trkpt lat="47.0939820" lon="6.7257210">
        <ele>896.1</ele>
        <time>2022-07-21T15:41:50Z</time>
      </trkpt>
      <trkpt lat="47.0939790" lon="6.7256900">
        <ele>895.9</ele>
        <time>2022-07-21T15:41:51Z</time>
      </trkpt>
      <trkpt lat="47.0939730" lon="6.7256710">
        <ele>895.7</ele>
        <time>2022-07-21T15:41:52Z</time>
      </trkpt>
      <trkpt lat="47.0939670" lon="6.7256670">
        <ele>895.6</ele>
        <time>2022-07-21T15:41:53Z</time>
      </trkpt>
      <trkpt lat="47.0939610" lon="6.7256630">
        <ele>895.6</ele>
        <time>2022-07-21T15:41:55Z</time>
      </trkpt>
      <trkpt lat="47.0939550" lon="6.7256590">
        <ele>895.5</ele>
        <time>2022-07-21T15:41:56Z</time>
      </trkpt>
      <trkpt lat="47.0939490" lon="6.7256550">
        <ele>895.4</ele>
        <time>2022-07-21T15:41:57Z</time>
      </trkpt>
      <trkpt lat="47.0939430" lon="6.7256510">
        <ele>895.4</ele>
        <time>2022-07-21T15:41:58Z</time>
      </trkpt>
      <trkpt lat="47.0939370" lon="6.7256470">
        <ele>895.3</ele>
        <time>2022-07-21T15:42:00Z</time>
      </trkpt>
      <trkpt lat="47.0939300" lon="6.7256430">
        <ele>895.2</ele>
        <time>2022-07-21T15:42:01Z</time>
      </trkpt>
      <trkpt lat="47.0939240" lon="6.7256390">
        <ele>895.2</ele>
        <time>2022-07-21T15:42:05Z</time>
      </trkpt>
      <trkpt lat="47.0939180" lon="6.7256350">
        <ele>895.1</ele>
        <time>2022-07-21T15:42:06Z</time>
      </trkpt>
      <trkpt lat="47.0939120" lon="6.7256310">
        <ele>895.0</ele>
        <time>2022-07-21T15:42:07Z</time>
      </trkpt>
      <trkpt lat="47.0939060" lon="6.7256260">
        <ele>894.9</ele>
        <time>2022-07-21T15:42:08Z</time>
      </trkpt>
      <trkpt lat="47.0938880" lon="6.7256310">
        <ele>894.7</ele>
        <time>2022-07-21T15:42:09Z</time>
      </trkpt>
      <trkpt lat="47.0938700" lon="6.7256410">
        <ele>894.2</ele>
        <time>2022-07-21T15:42:11Z</time>
      </trkpt>
      <trkpt lat="47.0938580" lon="6.7256500">
        <ele>893.9</ele>
        <time>2022-07-21T15:42:12Z</time>
      </trkpt>
      <trkpt lat="47.0938460" lon="6.7256610">
        <ele>893.6</ele>
        <time>2022-07-21T15:42:13Z</time>
      </trkpt>
      <trkpt lat="47.0938340" lon="6.7256720">
        <ele>893.3</ele>
        <time>2022-07-21T15:42:14Z</time>
      </trkpt>
      <trkpt lat="47.0938080" lon="6.7256840">
        <ele>892.7</ele>
        <time>2022-07-21T15:42:16Z</time>
      </trkpt>
      <trkpt lat="47.0937960" lon="6.7256780">
        <ele>892.4</ele>
        <time>2022-07-21T15:42:18Z</time>
      </trkpt>
      <trkpt lat="47.0937910" lon="6.7256690">
        <ele>892.3</ele>
        <time>2022-07-21T15:42:19Z</time>
      </trkpt>
      <trkpt lat="47.0937850" lon="6.7256550">
        <ele>892.0</ele>
        <time>2022-07-21T15:42:20Z</time>
      </trkpt>
      <trkpt lat="47.0937820" lon="6.7256450">
        <ele>891.9</ele>
        <time>2022-07-21T15:42:21Z</time>
      </trkpt>
      <trkpt lat="47.0937830" lon="6.7256380">
        <ele>891.8</ele>
        <time>2022-07-21T15:42:22Z</time>
      </trkpt>
      <trkpt lat="47.0937830" lon="6.7256260">
        <ele>891.6</ele>
        <time>2022-07-21T15:42:24Z</time>
      </trkpt>
      <trkpt lat="47.0937850" lon="6.7256210">
        <ele>891.5</ele>
        <time>2022-07-21T15:42:25Z</time>
      </trkpt>
      <trkpt lat="47.0937880" lon="6.7256170">
        <ele>891.5</ele>
        <time>2022-07-21T15:42:26Z</time>
      </trkpt>
      <trkpt lat="47.0937960" lon="6.7256040">
        <ele>891.2</ele>
        <time>2022-07-21T15:42:27Z</time>
      </trkpt>
      <trkpt lat="47.0938110" lon="6.7255870">
        <ele>890.9</ele>
        <time>2022-07-21T15:42:29Z</time>
      </trkpt>
      <trkpt lat="47.0938260" lon="6.7255580">
        <ele>890.5</ele>
        <time>2022-07-21T15:42:30Z</time>
      </trkpt>
      <trkpt lat="47.0938330" lon="6.7255410">
        <ele>890.3</ele>
        <time>2022-07-21T15:42:31Z</time>
      </trkpt>
      <trkpt lat="47.0938410" lon="6.7255200">
        <ele>890.1</ele>
        <time>2022-07-21T15:42:33Z</time>
      </trkpt>
      <trkpt lat="47.0938460" lon="6.7255070">
        <ele>889.9</ele>
        <time>2022-07-21T15:42:34Z</time>
      </trkpt>
      <trkpt lat="47.0938430" lon="6.7254970">
        <ele>889.8</ele>
        <time>2022-07-21T15:42:35Z</time>
      </trkpt>
      <trkpt lat="47.0938400" lon="6.7254790">
        <ele>889.7</ele>
        <time>2022-07-21T15:42:36Z</time>
      </trkpt>
      <trkpt lat="47.0938400" lon="6.7254670">
        <ele>889.6</ele>
        <time>2022-07-21T15:42:37Z</time>
      </trkpt>
      <trkpt lat="47.0938410" lon="6.7254550">
        <ele>889.5</ele>
        <time>2022-07-21T15:42:39Z</time>
      </trkpt>
      <trkpt lat="47.0938410" lon="6.7254430">
        <ele>889.4</ele>
        <time>2022-07-21T15:42:40Z</time>
      </trkpt>
      <trkpt lat="47.0938410" lon="6.7254310">
        <ele>889.3</ele>
        <time>2022-07-21T15:42:41Z</time>
      </trkpt>
      <trkpt lat="47.0938410" lon="6.7254190">
        <ele>889.3</ele>
        <time>2022-07-21T15:42:42Z</time>
      </trkpt>
      <trkpt lat="47.0938410" lon="6.7254070">
        <ele>889.2</ele>
        <time>2022-07-21T15:42:43Z</time>
      </trkpt>
      <trkpt lat="47.0938410" lon="6.7253950">
        <ele>889.1</ele>
        <time>2022-07-21T15:42:44Z</time>
      </trkpt>
      <trkpt lat="47.0938420" lon="6.7253830">
        <ele>889.1</ele>
        <time>2022-07-21T15:42:45Z</time>
      </trkpt>
      <trkpt lat="47.0938420" lon="6.7253720">
        <ele>889.0</ele>
        <time>2022-07-21T15:42:54Z</time>
      </trkpt>
      <trkpt lat="47.0938420" lon="6.7253600">
        <ele>889.0</ele>
        <time>2022-07-21T15:42:55Z</time>
      </trkpt>
      <trkpt lat="47.0938420" lon="6.7253480">
        <ele>888.9</ele>
        <time>2022-07-21T15:42:56Z</time>
      </trkpt>
      <trkpt lat="47.0938400" lon="6.7253030">
        <ele>888.7</ele>
        <time>2022-07-21T15:42:57Z</time>
      </trkpt>
      <trkpt lat="47.0938310" lon="6.7252370">
        <ele>888.5</ele>
        <time>2022-07-21T15:42:58Z</time>
      </trkpt>
      <trkpt lat="47.0938220" lon="6.7251860">
        <ele>888.4</ele>
        <time>2022-07-21T15:43:00Z</time>
      </trkpt>
      <trkpt lat="47.0938120" lon="6.7251470">
        <ele>888.2</ele>
        <time>2022-07-21T15:43:01Z</time>
      </trkpt>
      <trkpt lat="47.0937910" lon="6.7250970">
        <ele>888.1</ele>
        <time>2022-07-21T15:43:03Z</time>
      </trkpt>
      <trkpt lat="47.0937750" lon="6.7250610">
        <ele>888.0</ele>
        <time>2022-07-21T15:43:04Z</time>
      </trkpt>
      <trkpt lat="47.0937610" lon="6.7250230">
        <ele>887.9</ele>
        <time>2022-07-21T15:43:05Z</time>
      </trkpt>
      <trkpt lat="47.0937540" lon="6.7249790">
        <ele>887.8</ele>
        <time>2022-07-21T15:43:06Z</time>
      </trkpt>
      <trkpt lat="47.0937550" lon="6.7249690">
        <ele>887.7</ele>
        <time>2022-07-21T15:43:07Z</time>
      </trkpt>
      <trkpt lat="47.0937560" lon="6.7249590">
        <ele>887.7</ele>
        <time>2022-07-21T15:43:08Z</time>
      </trkpt>
      <trkpt lat="47.0937570" lon="6.7249490">
        <ele>887.7</ele>
        <time>2022-07-21T15:43:09Z</time>
      </trkpt>
      <trkpt lat="47.0937570" lon="6.7249390">
        <ele>887.7</ele>
        <time>2022-07-21T15:43:10Z</time>
      </trkpt>
      <trkpt lat="47.0937580" lon="6.7249290">
        <ele>887.6</ele>
        <time>2022-07-21T15:43:11Z</time>
      </trkpt>
      <trkpt lat="47.0937590" lon="6.7249190">
        <ele>887.6</ele>
        <time>2022-07-21T15:43:12Z</time>
      </trkpt>
      <trkpt lat="47.0937600" lon="6.7249090">
        <ele>887.6</ele>
        <time>2022-07-21T15:43:13Z</time>
      </trkpt>
      <trkpt lat="47.0937600" lon="6.7248990">
        <ele>887.6</ele>
        <time>2022-07-21T15:43:14Z</time>
      </trkpt>
      <trkpt lat="47.0937610" lon="6.7248890">
        <ele>887.5</ele>
        <time>2022-07-21T15:43:15Z</time>
      </trkpt>
      <trkpt lat="47.0937620" lon="6.7248790">
        <ele>887.5</ele>
        <time>2022-07-21T15:43:16Z</time>
      </trkpt>
      <trkpt lat="47.0937630" lon="6.7248690">
        <ele>887.5</ele>
        <time>2022-07-21T15:43:33Z</time>
      </trkpt>
      <trkpt lat="47.0937630" lon="6.7248590">
        <ele>887.5</ele>
        <time>2022-07-21T15:43:34Z</time>
      </trkpt>
      <trkpt lat="47.0937640" lon="6.7248490">
        <ele>887.4</ele>
        <time>2022-07-21T15:43:35Z</time>
      </trkpt>
      <trkpt lat="47.0937560" lon="6.7248060">
        <ele>887.3</ele>
        <time>2022-07-21T15:43:36Z</time>
      </trkpt>
      <trkpt lat="47.0937430" lon="6.7247550">
        <ele>887.2</ele>
        <time>2022-07-21T15:43:37Z</time>
      </trkpt>
      <trkpt lat="47.0937210" lon="6.7246720">
        <ele>886.9</ele>
        <time>2022-07-21T15:43:38Z</time>
      </trkpt>
      <trkpt lat="47.0937000" lon="6.7245900">
        <ele>886.7</ele>
        <time>2022-07-21T15:43:40Z</time>
      </trkpt>
      <trkpt lat="47.0936820" lon="6.7245140">
        <ele>886.5</ele>
        <time>2022-07-21T15:43:41Z</time>
      </trkpt>
      <trkpt lat="47.0936680" lon="6.7244570">
        <ele>886.4</ele>
        <time>2022-07-21T15:43:42Z</time>
      </trkpt>
      <trkpt lat="47.0936550" lon="6.7244050">
        <ele>886.3</ele>
        <time>2022-07-21T15:43:43Z</time>
      </trkpt>
      <trkpt lat="47.0936420" lon="6.7243580">
        <ele>886.2</ele>
        <time>2022-07-21T15:43:44Z</time>
      </trkpt>
      <trkpt lat="47.0936220" lon="6.7242900">
        <ele>886.1</ele>
        <time>2022-07-21T15:43:45Z</time>
      </trkpt>
      <trkpt lat="47.0935980" lon="6.7242160">
        <ele>885.9</ele>
        <time>2022-07-21T15:43:47Z</time>
      </trkpt>
      <trkpt lat="47.0935860" lon="6.7241860">
        <ele>885.9</ele>
        <time>2022-07-21T15:43:48Z</time>
      </trkpt>
      <trkpt lat="47.0935700" lon="6.7241290">
        <ele>885.7</ele>
        <time>2022-07-21T15:43:50Z</time>
      </trkpt>
      <trkpt lat="47.0935610" lon="6.7240850">
        <ele>885.6</ele>
        <time>2022-07-21T15:43:51Z</time>
      </trkpt>
      <trkpt lat="47.0935570" lon="6.7240430">
        <ele>885.6</ele>
        <time>2022-07-21T15:43:52Z</time>
      </trkpt>
      <trkpt lat="47.0935510" lon="6.7239970">
        <ele>885.4</ele>
        <time>2022-07-21T15:43:53Z</time>
      </trkpt>
      <trkpt lat="47.0935440" lon="6.7239560">
        <ele>885.3</ele>
        <time>2022-07-21T15:43:54Z</time>
      </trkpt>
      <trkpt lat="47.0935330" lon="6.7239120">
        <ele>885.2</ele>
        <time>2022-07-21T15:43:55Z</time>
      </trkpt>
      <trkpt lat="47.0935160" lon="6.7238510">
        <ele>885.0</ele>
        <time>2022-07-21T15:43:56Z</time>
      </trkpt>
      <trkpt lat="47.0934950" lon="6.7237730">
        <ele>884.6</ele>
        <time>2022-07-21T15:43:58Z</time>
      </trkpt>
      <trkpt lat="47.0934840" lon="6.7237290">
        <ele>884.4</ele>
        <time>2022-07-21T15:43:59Z</time>
      </trkpt>
      <trkpt lat="47.0934680" lon="6.7236680">
        <ele>884.0</ele>
        <time>2022-07-21T15:44:01Z</time>
      </trkpt>
      <trkpt lat="47.0934510" lon="6.7236280">
        <ele>883.7</ele>
        <time>2022-07-21T15:44:02Z</time>
      </trkpt>
      <trkpt lat="47.0934330" lon="6.7236020">
        <ele>883.4</ele>
        <time>2022-07-21T15:44:03Z</time>
      </trkpt>
      <trkpt lat="47.0934120" lon="6.7235720">
        <ele>883.0</ele>
        <time>2022-07-21T15:44:05Z</time>
      </trkpt>
      <trkpt lat="47.0933810" lon="6.7235300">
        <ele>882.5</ele>
        <time>2022-07-21T15:44:06Z</time>
      </trkpt>
      <trkpt lat="47.0933690" lon="6.7235120">
        <ele>882.3</ele>
        <time>2022-07-21T15:44:07Z</time>
      </trkpt>
      <trkpt lat="47.0933420" lon="6.7234730">
        <ele>881.8</ele>
        <time>2022-07-21T15:44:08Z</time>
      </trkpt>
      <trkpt lat="47.0933340" lon="6.7234600">
        <ele>881.6</ele>
        <time>2022-07-21T15:44:09Z</time>
      </trkpt>
      <trkpt lat="47.0933180" lon="6.7234280">
        <ele>881.3</ele>
        <time>2022-07-21T15:44:10Z</time>
      </trkpt>
      <trkpt lat="47.0933050" lon="6.7234050">
        <ele>881.0</ele>
        <time>2022-07-21T15:44:12Z</time>
      </trkpt>
      <trkpt lat="47.0932980" lon="6.7233960">
        <ele>880.9</ele>
        <time>2022-07-21T15:44:13Z</time>
      </trkpt>
      <trkpt lat="47.0932940" lon="6.7233910">
        <ele>880.8</ele>
        <time>2022-07-21T15:44:14Z</time>
      </trkpt>
      <trkpt lat="47.0932920" lon="6.7233890">
        <ele>880.8</ele>
        <time>2022-07-21T15:44:15Z</time>
      </trkpt>
      <trkpt lat="47.0932910" lon="6.7233900">
        <ele>880.7</ele>
        <time>2022-07-21T15:44:16Z</time>
      </trkpt>
      <trkpt lat="47.0932890" lon="6.7233920">
        <ele>880.7</ele>
        <time>2022-07-21T15:44:17Z</time>
      </trkpt>
      <trkpt lat="47.0932890" lon="6.7233940">
        <ele>880.7</ele>
        <time>2022-07-21T15:44:18Z</time>
      </trkpt>
      <trkpt lat="47.0932910" lon="6.7233950">
        <ele>880.7</ele>
        <time>2022-07-21T15:44:19Z</time>
      </trkpt>
      <trkpt lat="47.0932920" lon="6.7233950">
        <ele>880.6</ele>
        <time>2022-07-21T15:44:20Z</time>
      </trkpt>
      <trkpt lat="47.0932970" lon="6.7233950">
        <ele>880.6</ele>
        <time>2022-07-21T15:44:21Z</time>
      </trkpt>
      <trkpt lat="47.0933000" lon="6.7233910">
        <ele>880.5</ele>
        <time>2022-07-21T15:44:22Z</time>
      </trkpt>
      <trkpt lat="47.0933060" lon="6.7233850">
        <ele>880.4</ele>
        <time>2022-07-21T15:44:23Z</time>
      </trkpt>
      <trkpt lat="47.0933090" lon="6.7233790">
        <ele>880.3</ele>
        <time>2022-07-21T15:44:24Z</time>
      </trkpt>
      <trkpt lat="47.0933110" lon="6.7233720">
        <ele>880.3</ele>
        <time>2022-07-21T15:44:25Z</time>
      </trkpt>
      <trkpt lat="47.0933120" lon="6.7233680">
        <ele>880.2</ele>
        <time>2022-07-21T15:44:26Z</time>
      </trkpt>
      <trkpt lat="47.0933100" lon="6.7233620">
        <ele>880.2</ele>
        <time>2022-07-21T15:44:27Z</time>
      </trkpt>
      <trkpt lat="47.0932970" lon="6.7233380">
        <ele>879.9</ele>
        <time>2022-07-21T15:44:28Z</time>
      </trkpt>
      <trkpt lat="47.0932850" lon="6.7233180">
        <ele>879.6</ele>
        <time>2022-07-21T15:44:29Z</time>
      </trkpt>
      <trkpt lat="47.0932730" lon="6.7232990">
        <ele>879.4</ele>
        <time>2022-07-21T15:44:30Z</time>
      </trkpt>
      <trkpt lat="47.0932600" lon="6.7232790">
        <ele>879.2</ele>
        <time>2022-07-21T15:44:32Z</time>
      </trkpt>
      <trkpt lat="47.0932480" lon="6.7232590">
        <ele>879.0</ele>
        <time>2022-07-21T15:44:33Z</time>
      </trkpt>
      <trkpt lat="47.0932360" lon="6.7232400">
        <ele>878.7</ele>
        <time>2022-07-21T15:44:34Z</time>
      </trkpt>
      <trkpt lat="47.0932240" lon="6.7232200">
        <ele>878.5</ele>
        <time>2022-07-21T15:44:35Z</time>
      </trkpt>
      <trkpt lat="47.0932120" lon="6.7232000">
        <ele>878.3</ele>
        <time>2022-07-21T15:44:36Z</time>
      </trkpt>
      <trkpt lat="47.0932000" lon="6.7231800">
        <ele>878.1</ele>
        <time>2022-07-21T15:45:40Z</time>
      </trkpt>
      <trkpt lat="47.0931880" lon="6.7231610">
        <ele>877.9</ele>
        <time>2022-07-21T15:45:41Z</time>
      </trkpt>
      <trkpt lat="47.0931760" lon="6.7231410">
        <ele>877.7</ele>
        <time>2022-07-21T15:45:42Z</time>
      </trkpt>
      <trkpt lat="47.0931570" lon="6.7231010">
        <ele>877.4</ele>
        <time>2022-07-21T15:45:43Z</time>
      </trkpt>
      <trkpt lat="47.0931340" lon="6.7230600">
        <ele>877.0</ele>
        <time>2022-07-21T15:45:44Z</time>
      </trkpt>
      <trkpt lat="47.0931100" lon="6.7230230">
        <ele>876.7</ele>
        <time>2022-07-21T15:45:45Z</time>
      </trkpt>
      <trkpt lat="47.0930920" lon="6.7229840">
        <ele>876.4</ele>
        <time>2022-07-21T15:45:47Z</time>
      </trkpt>
      <trkpt lat="47.0930840" lon="6.7229600">
        <ele>876.2</ele>
        <time>2022-07-21T15:45:48Z</time>
      </trkpt>
      <trkpt lat="47.0930560" lon="6.7229120">
        <ele>875.9</ele>
        <time>2022-07-21T15:45:49Z</time>
      </trkpt>
      <trkpt lat="47.0930340" lon="6.7228700">
        <ele>875.6</ele>
        <time>2022-07-21T15:45:51Z</time>
      </trkpt>
      <trkpt lat="47.0930100" lon="6.7228310">
        <ele>875.3</ele>
        <time>2022-07-21T15:45:52Z</time>
      </trkpt>
      <trkpt lat="47.0929860" lon="6.7227880">
        <ele>875.0</ele>
        <time>2022-07-21T15:45:53Z</time>
      </trkpt>
      <trkpt lat="47.0929290" lon="6.7226590">
        <ele>874.2</ele>
        <time>2022-07-21T15:45:54Z</time>
      </trkpt>
      <trkpt lat="47.0929180" lon="6.7225820">
        <ele>873.9</ele>
        <time>2022-07-21T15:45:55Z</time>
      </trkpt>
      <trkpt lat="47.0928940" lon="6.7225110">
        <ele>873.7</ele>
        <time>2022-07-21T15:45:57Z</time>
      </trkpt>
      <trkpt lat="47.0928530" lon="6.7224510">
        <ele>873.6</ele>
        <time>2022-07-21T15:45:58Z</time>
      </trkpt>
      <trkpt lat="47.0928160" lon="6.7224070">
        <ele>873.6</ele>
        <time>2022-07-21T15:45:59Z</time>
      </trkpt>
      <trkpt lat="47.0927770" lon="6.7223800">
        <ele>873.7</ele>
        <time>2022-07-21T15:46:00Z</time>
      </trkpt>
      <trkpt lat="47.0927470" lon="6.7223430">
        <ele>873.8</ele>
        <time>2022-07-21T15:46:02Z</time>
      </trkpt>
      <trkpt lat="47.0927170" lon="6.7223070">
        <ele>873.9</ele>
        <time>2022-07-21T15:46:03Z</time>
      </trkpt>
      <trkpt lat="47.0927060" lon="6.7222940">
        <ele>874.0</ele>
        <time>2022-07-21T15:46:04Z</time>
      </trkpt>
      <trkpt lat="47.0926770" lon="6.7222490">
        <ele>874.2</ele>
        <time>2022-07-21T15:46:05Z</time>
      </trkpt>
      <trkpt lat="47.0926640" lon="6.7222300">
        <ele>874.2</ele>
        <time>2022-07-21T15:46:06Z</time>
      </trkpt>
      <trkpt lat="47.0926360" lon="6.7221870">
        <ele>874.4</ele>
        <time>2022-07-21T15:46:07Z</time>
      </trkpt>
      <trkpt lat="47.0926150" lon="6.7221530">
        <ele>874.6</ele>
        <time>2022-07-21T15:46:08Z</time>
      </trkpt>
      <trkpt lat="47.0925900" lon="6.7221110">
        <ele>874.7</ele>
        <time>2022-07-21T15:46:09Z</time>
      </trkpt>
      <trkpt lat="47.0925830" lon="6.7220960">
        <ele>874.8</ele>
        <time>2022-07-21T15:46:10Z</time>
      </trkpt>
      <trkpt lat="47.0925580" lon="6.7220550">
        <ele>874.9</ele>
        <time>2022-07-21T15:46:11Z</time>
      </trkpt>
      <trkpt lat="47.0925340" lon="6.7220230">
        <ele>875.1</ele>
        <time>2022-07-21T15:46:12Z</time>
      </trkpt>
      <trkpt lat="47.0924960" lon="6.7219800">
        <ele>875.3</ele>
        <time>2022-07-21T15:46:14Z</time>
      </trkpt>
      <trkpt lat="47.0924860" lon="6.7219650">
        <ele>875.3</ele>
        <time>2022-07-21T15:46:15Z</time>
      </trkpt>
      <trkpt lat="47.0924760" lon="6.7219500">
        <ele>875.4</ele>
        <time>2022-07-21T15:46:16Z</time>
      </trkpt>
      <trkpt lat="47.0924570" lon="6.7219050">
        <ele>875.5</ele>
        <time>2022-07-21T15:46:17Z</time>
      </trkpt>
      <trkpt lat="47.0924380" lon="6.7218580">
        <ele>875.6</ele>
        <time>2022-07-21T15:46:19Z</time>
      </trkpt>
      <trkpt lat="47.0924210" lon="6.7218240">
        <ele>875.7</ele>
        <time>2022-07-21T15:46:20Z</time>
      </trkpt>
      <trkpt lat="47.0924020" lon="6.7217900">
        <ele>875.8</ele>
        <time>2022-07-21T15:46:21Z</time>
      </trkpt>
      <trkpt lat="47.0923820" lon="6.7217570">
        <ele>875.9</ele>
        <time>2022-07-21T15:46:22Z</time>
      </trkpt>
      <trkpt lat="47.0923620" lon="6.7217210">
        <ele>876.0</ele>
        <time>2022-07-21T15:46:24Z</time>
      </trkpt>
      <trkpt lat="47.0923450" lon="6.7216890">
        <ele>876.1</ele>
        <time>2022-07-21T15:46:25Z</time>
      </trkpt>
      <trkpt lat="47.0923230" lon="6.7216500">
        <ele>876.2</ele>
        <time>2022-07-21T15:46:26Z</time>
      </trkpt>
      <trkpt lat="47.0923160" lon="6.7216380">
        <ele>876.2</ele>
        <time>2022-07-21T15:46:27Z</time>
      </trkpt>
      <trkpt lat="47.0922970" lon="6.7216090">
        <ele>876.3</ele>
        <time>2022-07-21T15:46:28Z</time>
      </trkpt>
      <trkpt lat="47.0922740" lon="6.7215640">
        <ele>876.4</ele>
        <time>2022-07-21T15:46:29Z</time>
      </trkpt>
      <trkpt lat="47.0922660" lon="6.7215470">
        <ele>876.5</ele>
        <time>2022-07-21T15:46:30Z</time>
      </trkpt>
      <trkpt lat="47.0922490" lon="6.7214880">
        <ele>876.6</ele>
        <time>2022-07-21T15:46:32Z</time>
      </trkpt>
      <trkpt lat="47.0922420" lon="6.7214680">
        <ele>876.7</ele>
        <time>2022-07-21T15:46:33Z</time>
      </trkpt>
      <trkpt lat="47.0922360" lon="6.7214470">
        <ele>876.7</ele>
        <time>2022-07-21T15:46:34Z</time>
      </trkpt>
      <trkpt lat="47.0922250" lon="6.7214070">
        <ele>876.8</ele>
        <time>2022-07-21T15:46:35Z</time>
      </trkpt>
      <trkpt lat="47.0922120" lon="6.7213630">
        <ele>876.9</ele>
        <time>2022-07-21T15:46:36Z</time>
      </trkpt>
      <trkpt lat="47.0921970" lon="6.7213270">
        <ele>877.0</ele>
        <time>2022-07-21T15:46:37Z</time>
      </trkpt>
      <trkpt lat="47.0921760" lon="6.7212810">
        <ele>877.1</ele>
        <time>2022-07-21T15:46:38Z</time>
      </trkpt>
      <trkpt lat="47.0921680" lon="6.7212650">
        <ele>877.2</ele>
        <time>2022-07-21T15:46:39Z</time>
      </trkpt>
      <trkpt lat="47.0921490" lon="6.7212320">
        <ele>877.3</ele>
        <time>2022-07-21T15:46:41Z</time>
      </trkpt>
      <trkpt lat="47.0921290" lon="6.7212020">
        <ele>877.4</ele>
        <time>2022-07-21T15:46:42Z</time>
      </trkpt>
      <trkpt lat="47.0921040" lon="6.7211690">
        <ele>877.5</ele>
        <time>2022-07-21T15:46:43Z</time>
      </trkpt>
      <trkpt lat="47.0920950" lon="6.7211590">
        <ele>877.5</ele>
        <time>2022-07-21T15:46:44Z</time>
      </trkpt>
      <trkpt lat="47.0920640" lon="6.7211170">
        <ele>877.7</ele>
        <time>2022-07-21T15:46:45Z</time>
      </trkpt>
      <trkpt lat="47.0920520" lon="6.7211020">
        <ele>877.7</ele>
        <time>2022-07-21T15:46:46Z</time>
      </trkpt>
      <trkpt lat="47.0920260" lon="6.7210700">
        <ele>877.8</ele>
        <time>2022-07-21T15:46:47Z</time>
      </trkpt>
      <trkpt lat="47.0920020" lon="6.7210390">
        <ele>877.9</ele>
        <time>2022-07-21T15:46:48Z</time>
      </trkpt>
      <trkpt lat="47.0919760" lon="6.7210000">
        <ele>878.0</ele>
        <time>2022-07-21T15:46:50Z</time>
      </trkpt>
      <trkpt lat="47.0919560" lon="6.7209700">
        <ele>878.1</ele>
        <time>2022-07-21T15:46:51Z</time>
      </trkpt>
      <trkpt lat="47.0919290" lon="6.7209330">
        <ele>878.2</ele>
        <time>2022-07-21T15:46:52Z</time>
      </trkpt>
      <trkpt lat="47.0919200" lon="6.7209220">
        <ele>878.2</ele>
        <time>2022-07-21T15:46:53Z</time>
      </trkpt>
      <trkpt lat="47.0918990" lon="6.7208920">
        <ele>878.3</ele>
        <time>2022-07-21T15:46:54Z</time>
      </trkpt>
      <trkpt lat="47.0918790" lon="6.7208640">
        <ele>878.4</ele>
        <time>2022-07-21T15:46:55Z</time>
      </trkpt>
      <trkpt lat="47.0918510" lon="6.7208280">
        <ele>878.5</ele>
        <time>2022-07-21T15:46:56Z</time>
      </trkpt>
      <trkpt lat="47.0918410" lon="6.7208160">
        <ele>878.6</ele>
        <time>2022-07-21T15:46:57Z</time>
      </trkpt>
      <trkpt lat="47.0918170" lon="6.7207770">
        <ele>878.7</ele>
        <time>2022-07-21T15:46:58Z</time>
      </trkpt>
      <trkpt lat="47.0917980" lon="6.7207380">
        <ele>878.8</ele>
        <time>2022-07-21T15:47:00Z</time>
      </trkpt>
      <trkpt lat="47.0917800" lon="6.7207020">
        <ele>878.9</ele>
        <time>2022-07-21T15:47:01Z</time>
      </trkpt>
      <trkpt lat="47.0917550" lon="6.7206600">
        <ele>879.0</ele>
        <time>2022-07-21T15:47:02Z</time>
      </trkpt>
      <trkpt lat="47.0917270" lon="6.7206060">
        <ele>879.1</ele>
        <time>2022-07-21T15:47:04Z</time>
      </trkpt>
      <trkpt lat="47.0917180" lon="6.7205890">
        <ele>879.2</ele>
        <time>2022-07-21T15:47:05Z</time>
      </trkpt>
      <trkpt lat="47.0917090" lon="6.7205730">
        <ele>879.2</ele>
        <time>2022-07-21T15:47:06Z</time>
      </trkpt>
      <trkpt lat="47.0916880" lon="6.7205290">
        <ele>879.3</ele>
        <time>2022-07-21T15:47:07Z</time>
      </trkpt>
      <trkpt lat="47.0916780" lon="6.7205090">
        <ele>879.4</ele>
        <time>2022-07-21T15:47:08Z</time>
      </trkpt>
      <trkpt lat="47.0916590" lon="6.7204790">
        <ele>879.5</ele>
        <time>2022-07-21T15:47:10Z</time>
      </trkpt>
      <trkpt lat="47.0916450" lon="6.7204580">
        <ele>879.5</ele>
        <time>2022-07-21T15:47:11Z</time>
      </trkpt>
      <trkpt lat="47.0916390" lon="6.7204440">
        <ele>879.5</ele>
        <time>2022-07-21T15:47:12Z</time>
      </trkpt>
      <trkpt lat="47.0916190" lon="6.7203930">
        <ele>879.6</ele>
        <time>2022-07-21T15:47:13Z</time>
      </trkpt>
      <trkpt lat="47.0916110" lon="6.7203770">
        <ele>879.6</ele>
        <time>2022-07-21T15:47:14Z</time>
      </trkpt>
      <trkpt lat="47.0915870" lon="6.7203530">
        <ele>879.5</ele>
        <time>2022-07-21T15:47:16Z</time>
      </trkpt>
      <trkpt lat="47.0915800" lon="6.7203470">
        <ele>879.5</ele>
        <time>2022-07-21T15:47:17Z</time>
      </trkpt>
      <trkpt lat="47.0915540" lon="6.7203270">
        <ele>879.4</ele>
        <time>2022-07-21T15:47:18Z</time>
      </trkpt>
      <trkpt lat="47.0915430" lon="6.7203160">
        <ele>879.4</ele>
        <time>2022-07-21T15:47:19Z</time>
      </trkpt>
      <trkpt lat="47.0915230" lon="6.7203000">
        <ele>879.3</ele>
        <time>2022-07-21T15:47:20Z</time>
      </trkpt>
      <trkpt lat="47.0914990" lon="6.7202750">
        <ele>879.1</ele>
        <time>2022-07-21T15:47:22Z</time>
      </trkpt>
      <trkpt lat="47.0914700" lon="6.7202410">
        <ele>878.8</ele>
        <time>2022-07-21T15:47:23Z</time>
      </trkpt>
      <trkpt lat="47.0914570" lon="6.7202270">
        <ele>878.6</ele>
        <time>2022-07-21T15:47:24Z</time>
      </trkpt>
      <trkpt lat="47.0914290" lon="6.7201910">
        <ele>878.3</ele>
        <time>2022-07-21T15:47:25Z</time>
      </trkpt>
      <trkpt lat="47.0914080" lon="6.7201460">
        <ele>877.9</ele>
        <time>2022-07-21T15:47:26Z</time>
      </trkpt>
      <trkpt lat="47.0913930" lon="6.7201040">
        <ele>877.5</ele>
        <time>2022-07-21T15:47:27Z</time>
      </trkpt>
      <trkpt lat="47.0913740" lon="6.7200400">
        <ele>877.0</ele>
        <time>2022-07-21T15:47:28Z</time>
      </trkpt>
      <trkpt lat="47.0913580" lon="6.7199790">
        <ele>876.6</ele>
        <time>2022-07-21T15:47:29Z</time>
      </trkpt>
      <trkpt lat="47.0913420" lon="6.7199290">
        <ele>876.2</ele>
        <time>2022-07-21T15:47:31Z</time>
      </trkpt>
      <trkpt lat="47.0913300" lon="6.7198780">
        <ele>875.8</ele>
        <time>2022-07-21T15:47:32Z</time>
      </trkpt>
      <trkpt lat="47.0913250" lon="6.7198620">
        <ele>875.7</ele>
        <time>2022-07-21T15:47:33Z</time>
      </trkpt>
      <trkpt lat="47.0913220" lon="6.7198420">
        <ele>875.6</ele>
        <time>2022-07-21T15:47:34Z</time>
      </trkpt>
      <trkpt lat="47.0913190" lon="6.7198120">
        <ele>875.3</ele>
        <time>2022-07-21T15:47:35Z</time>
      </trkpt>
      <trkpt lat="47.0913180" lon="6.7197850">
        <ele>875.2</ele>
        <time>2022-07-21T15:47:36Z</time>
      </trkpt>
      <trkpt lat="47.0913220" lon="6.7197620">
        <ele>875.0</ele>
        <time>2022-07-21T15:47:38Z</time>
      </trkpt>
      <trkpt lat="47.0913260" lon="6.7197600">
        <ele>874.9</ele>
        <time>2022-07-21T15:47:39Z</time>
      </trkpt>
      <trkpt lat="47.0913280" lon="6.7197600">
        <ele>874.9</ele>
        <time>2022-07-21T15:47:40Z</time>
      </trkpt>
      <trkpt lat="47.0913300" lon="6.7197590">
        <ele>874.9</ele>
        <time>2022-07-21T15:47:41Z</time>
      </trkpt>
      <trkpt lat="47.0913320" lon="6.7197590">
        <ele>874.9</ele>
        <time>2022-07-21T15:47:42Z</time>
      </trkpt>
      <trkpt lat="47.0913320" lon="6.7197590">
        <ele>874.9</ele>
        <time>2022-07-21T15:47:43Z</time>
      </trkpt>
      <trkpt lat="47.0913330" lon="6.7197580">
        <ele>874.9</ele>
        <time>2022-07-21T15:47:44Z</time>
      </trkpt>
      <trkpt lat="47.0913330" lon="6.7197570">
        <ele>874.9</ele>
        <time>2022-07-21T15:47:45Z</time>
      </trkpt>
      <trkpt lat="47.0913330" lon="6.7197560">
        <ele>874.8</ele>
        <time>2022-07-21T15:47:46Z</time>
      </trkpt>
      <trkpt lat="47.0913140" lon="6.7195990">
        <ele>873.5</ele>
        <time>2022-07-21T15:48:13Z</time>
      </trkpt>
      <trkpt lat="47.0913060" lon="6.7195650">
        <ele>873.2</ele>
        <time>2022-07-21T15:48:14Z</time>
      </trkpt>
      <trkpt lat="47.0912940" lon="6.7195360">
        <ele>872.8</ele>
        <time>2022-07-21T15:48:16Z</time>
      </trkpt>
      <trkpt lat="47.0912790" lon="6.7195130">
        <ele>872.5</ele>
        <time>2022-07-21T15:48:17Z</time>
      </trkpt>
      <trkpt lat="47.0912730" lon="6.7195010">
        <ele>872.4</ele>
        <time>2022-07-21T15:48:18Z</time>
      </trkpt>
      <trkpt lat="47.0912670" lon="6.7194890">
        <ele>872.2</ele>
        <time>2022-07-21T15:48:19Z</time>
      </trkpt>
      <trkpt lat="47.0912520" lon="6.7194630">
        <ele>871.9</ele>
        <time>2022-07-21T15:48:20Z</time>
      </trkpt>
      <trkpt lat="47.0912470" lon="6.7194510">
        <ele>871.8</ele>
        <time>2022-07-21T15:48:21Z</time>
      </trkpt>
      <trkpt lat="47.0912420" lon="6.7194400">
        <ele>871.6</ele>
        <time>2022-07-21T15:48:22Z</time>
      </trkpt>
      <trkpt lat="47.0912360" lon="6.7193840">
        <ele>871.1</ele>
        <time>2022-07-21T15:48:24Z</time>
      </trkpt>
      <trkpt lat="47.0912330" lon="6.7193620">
        <ele>870.8</ele>
        <time>2022-07-21T15:48:25Z</time>
      </trkpt>
      <trkpt lat="47.0912250" lon="6.7193120">
        <ele>870.3</ele>
        <time>2022-07-21T15:48:26Z</time>
      </trkpt>
      <trkpt lat="47.0912210" lon="6.7192670">
        <ele>869.8</ele>
        <time>2022-07-21T15:48:27Z</time>
      </trkpt>
      <trkpt lat="47.0912110" lon="6.7191960">
        <ele>869.0</ele>
        <time>2022-07-21T15:48:29Z</time>
      </trkpt>
      <trkpt lat="47.0912030" lon="6.7191650">
        <ele>868.6</ele>
        <time>2022-07-21T15:48:31Z</time>
      </trkpt>
      <trkpt lat="47.0912070" lon="6.7191660">
        <ele>868.6</ele>
        <time>2022-07-21T15:48:32Z</time>
      </trkpt>
      <trkpt lat="47.0912090" lon="6.7191640">
        <ele>868.5</ele>
        <time>2022-07-21T15:48:33Z</time>
      </trkpt>
      <trkpt lat="47.0912100" lon="6.7191630">
        <ele>868.5</ele>
        <time>2022-07-21T15:48:34Z</time>
      </trkpt>
      <trkpt lat="47.0912110" lon="6.7191610">
        <ele>868.5</ele>
        <time>2022-07-21T15:48:35Z</time>
      </trkpt>
      <trkpt lat="47.0912120" lon="6.7191590">
        <ele>868.4</ele>
        <time>2022-07-21T15:48:37Z</time>
      </trkpt>
      <trkpt lat="47.0912130" lon="6.7191580">
        <ele>868.4</ele>
        <time>2022-07-21T15:48:38Z</time>
      </trkpt>
      <trkpt lat="47.0912130" lon="6.7191560">
        <ele>868.4</ele>
        <time>2022-07-21T15:48:39Z</time>
      </trkpt>
      <trkpt lat="47.0912070" lon="6.7191000">
        <ele>867.7</ele>
        <time>2022-07-21T15:48:45Z</time>
      </trkpt>
      <trkpt lat="47.0912060" lon="6.7190790">
        <ele>867.4</ele>
        <time>2022-07-21T15:48:47Z</time>
      </trkpt>
      <trkpt lat="47.0912020" lon="6.7190630">
        <ele>867.1</ele>
        <time>2022-07-21T15:48:48Z</time>
      </trkpt>
      <trkpt lat="47.0911980" lon="6.7190520">
        <ele>867.0</ele>
        <time>2022-07-21T15:48:49Z</time>
      </trkpt>
      <trkpt lat="47.0911950" lon="6.7190350">
        <ele>866.7</ele>
        <time>2022-07-21T15:48:50Z</time>
      </trkpt>
      <trkpt lat="47.0911950" lon="6.7190190">
        <ele>866.5</ele>
        <time>2022-07-21T15:48:52Z</time>
      </trkpt>
      <trkpt lat="47.0911990" lon="6.7190100">
        <ele>866.3</ele>
        <time>2022-07-21T15:48:53Z</time>
      </trkpt>
      <trkpt lat="47.0911990" lon="6.7189890">
        <ele>866.0</ele>
        <time>2022-07-21T15:48:54Z</time>
      </trkpt>
      <trkpt lat="47.0911990" lon="6.7189690">
        <ele>865.7</ele>
        <time>2022-07-21T15:48:55Z</time>
      </trkpt>
      <trkpt lat="47.0911990" lon="6.7189550">
        <ele>865.5</ele>
        <time>2022-07-21T15:48:56Z</time>
      </trkpt>
      <trkpt lat="47.0911990" lon="6.7189360">
        <ele>865.2</ele>
        <time>2022-07-21T15:48:57Z</time>
      </trkpt>
      <trkpt lat="47.0911990" lon="6.7189060">
        <ele>864.7</ele>
        <time>2022-07-21T15:48:59Z</time>
      </trkpt>
      <trkpt lat="47.0911990" lon="6.7188910">
        <ele>864.5</ele>
        <time>2022-07-21T15:49:00Z</time>
      </trkpt>
      <trkpt lat="47.0912000" lon="6.7188650">
        <ele>864.1</ele>
        <time>2022-07-21T15:49:01Z</time>
      </trkpt>
      <trkpt lat="47.0911990" lon="6.7188500">
        <ele>863.8</ele>
        <time>2022-07-21T15:49:02Z</time>
      </trkpt>
      <trkpt lat="47.0911990" lon="6.7188360">
        <ele>863.6</ele>
        <time>2022-07-21T15:49:03Z</time>
      </trkpt>
      <trkpt lat="47.0911980" lon="6.7188300">
        <ele>863.5</ele>
        <time>2022-07-21T15:49:04Z</time>
      </trkpt>
      <trkpt lat="47.0911970" lon="6.7188240">
        <ele>863.4</ele>
        <time>2022-07-21T15:49:05Z</time>
      </trkpt>
      <trkpt lat="47.0911960" lon="6.7188200">
        <ele>863.4</ele>
        <time>2022-07-21T15:49:06Z</time>
      </trkpt>
      <trkpt lat="47.0911950" lon="6.7188180">
        <ele>863.3</ele>
        <time>2022-07-21T15:49:07Z</time>
      </trkpt>
      <trkpt lat="47.0911950" lon="6.7188170">
        <ele>863.3</ele>
        <time>2022-07-21T15:49:08Z</time>
      </trkpt>
      <trkpt lat="47.0911950" lon="6.7188140">
        <ele>863.3</ele>
        <time>2022-07-21T15:49:09Z</time>
      </trkpt>
      <trkpt lat="47.0911950" lon="6.7188050">
        <ele>863.1</ele>
        <time>2022-07-21T15:49:10Z</time>
      </trkpt>
      <trkpt lat="47.0911890" lon="6.7187800">
        <ele>862.7</ele>
        <time>2022-07-21T15:49:11Z</time>
      </trkpt>
      <trkpt lat="47.0911790" lon="6.7187550">
        <ele>862.3</ele>
        <time>2022-07-21T15:49:12Z</time>
      </trkpt>
      <trkpt lat="47.0911720" lon="6.7187390">
        <ele>862.1</ele>
        <time>2022-07-21T15:49:13Z</time>
      </trkpt>
      <trkpt lat="47.0911520" lon="6.7187090">
        <ele>861.5</ele>
        <time>2022-07-21T15:49:14Z</time>
      </trkpt>
      <trkpt lat="47.0911440" lon="6.7186960">
        <ele>861.3</ele>
        <time>2022-07-21T15:49:15Z</time>
      </trkpt>
      <trkpt lat="47.0911300" lon="6.7186470">
        <ele>860.6</ele>
        <time>2022-07-21T15:49:17Z</time>
      </trkpt>
      <trkpt lat="47.0911050" lon="6.7185590">
        <ele>859.7</ele>
        <time>2022-07-21T15:49:19Z</time>
      </trkpt>
      <trkpt lat="47.0910950" lon="6.7185320">
        <ele>859.5</ele>
        <time>2022-07-21T15:49:21Z</time>
      </trkpt>
      <trkpt lat="47.0910840" lon="6.7185170">
        <ele>859.3</ele>
        <time>2022-07-21T15:49:22Z</time>
      </trkpt>
      <trkpt lat="47.0910710" lon="6.7185030">
        <ele>859.2</ele>
        <time>2022-07-21T15:49:23Z</time>
      </trkpt>
      <trkpt lat="47.0910600" lon="6.7184960">
        <ele>859.1</ele>
        <time>2022-07-21T15:49:24Z</time>
      </trkpt>
      <trkpt lat="47.0910580" lon="6.7184930">
        <ele>859.0</ele>
        <time>2022-07-21T15:49:25Z</time>
      </trkpt>
      <trkpt lat="47.0910560" lon="6.7184900">
        <ele>859.0</ele>
        <time>2022-07-21T15:49:26Z</time>
      </trkpt>
      <trkpt lat="47.0910480" lon="6.7184880">
        <ele>858.9</ele>
        <time>2022-07-21T15:49:28Z</time>
      </trkpt>
      <trkpt lat="47.0910440" lon="6.7184870">
        <ele>858.9</ele>
        <time>2022-07-21T15:49:29Z</time>
      </trkpt>
      <trkpt lat="47.0910420" lon="6.7184840">
        <ele>858.9</ele>
        <time>2022-07-21T15:49:30Z</time>
      </trkpt>
      <trkpt lat="47.0910410" lon="6.7184830">
        <ele>858.9</ele>
        <time>2022-07-21T15:49:31Z</time>
      </trkpt>
      <trkpt lat="47.0910400" lon="6.7184810">
        <ele>858.9</ele>
        <time>2022-07-21T15:49:32Z</time>
      </trkpt>
      <trkpt lat="47.0910460" lon="6.7184430">
        <ele>858.7</ele>
        <time>2022-07-21T15:49:56Z</time>
      </trkpt>
      <trkpt lat="47.0910430" lon="6.7184390">
        <ele>858.6</ele>
        <time>2022-07-21T15:49:57Z</time>
      </trkpt>
      <trkpt lat="47.0910400" lon="6.7184350">
        <ele>858.6</ele>
        <time>2022-07-21T15:49:58Z</time>
      </trkpt>
      <trkpt lat="47.0910330" lon="6.7184220">
        <ele>858.5</ele>
        <time>2022-07-21T15:49:59Z</time>
      </trkpt>
      <trkpt lat="47.0910280" lon="6.7184080">
        <ele>858.4</ele>
        <time>2022-07-21T15:50:00Z</time>
      </trkpt>
      <trkpt lat="47.0910250" lon="6.7183800">
        <ele>858.2</ele>
        <time>2022-07-21T15:50:01Z</time>
      </trkpt>
      <trkpt lat="47.0910240" lon="6.7183670">
        <ele>858.1</ele>
        <time>2022-07-21T15:50:02Z</time>
      </trkpt>
      <trkpt lat="47.0910220" lon="6.7183540">
        <ele>858.0</ele>
        <time>2022-07-21T15:50:03Z</time>
      </trkpt>
      <trkpt lat="47.0910180" lon="6.7183250">
        <ele>857.7</ele>
        <time>2022-07-21T15:50:04Z</time>
      </trkpt>
      <trkpt lat="47.0910140" lon="6.7183110">
        <ele>857.6</ele>
        <time>2022-07-21T15:50:05Z</time>
      </trkpt>
      <trkpt lat="47.0910100" lon="6.7182940">
        <ele>857.5</ele>
        <time>2022-07-21T15:50:06Z</time>
      </trkpt>
      <trkpt lat="47.0910070" lon="6.7182800">
        <ele>857.3</ele>
        <time>2022-07-21T15:50:07Z</time>
      </trkpt>
      <trkpt lat="47.0910040" lon="6.7182690">
        <ele>857.2</ele>
        <time>2022-07-21T15:50:08Z</time>
      </trkpt>
      <trkpt lat="47.0910020" lon="6.7182580">
        <ele>857.1</ele>
        <time>2022-07-21T15:50:09Z</time>
      </trkpt>
      <trkpt lat="47.0910000" lon="6.7182450">
        <ele>857.0</ele>
        <time>2022-07-21T15:50:11Z</time>
      </trkpt>
      <trkpt lat="47.0909970" lon="6.7182290">
        <ele>856.8</ele>
        <time>2022-07-21T15:50:12Z</time>
      </trkpt>
      <trkpt lat="47.0909940" lon="6.7182140">
        <ele>856.6</ele>
        <time>2022-07-21T15:50:13Z</time>
      </trkpt>
      <trkpt lat="47.0909900" lon="6.7181970">
        <ele>856.4</ele>
        <time>2022-07-21T15:50:14Z</time>
      </trkpt>
      <trkpt lat="47.0909880" lon="6.7181630">
        <ele>856.0</ele>
        <time>2022-07-21T15:50:16Z</time>
      </trkpt>
      <trkpt lat="47.0909840" lon="6.7181310">
        <ele>855.6</ele>
        <time>2022-07-21T15:50:17Z</time>
      </trkpt>
      <trkpt lat="47.0909820" lon="6.7181190">
        <ele>855.5</ele>
        <time>2022-07-21T15:50:18Z</time>
      </trkpt>
      <trkpt lat="47.0909800" lon="6.7181080">
        <ele>855.3</ele>
        <time>2022-07-21T15:50:19Z</time>
      </trkpt>
      <trkpt lat="47.0909760" lon="6.7180930">
        <ele>855.1</ele>
        <time>2022-07-21T15:50:20Z</time>
      </trkpt>
      <trkpt lat="47.0909740" lon="6.7180820">
        <ele>855.0</ele>
        <time>2022-07-21T15:50:21Z</time>
      </trkpt>
      <trkpt lat="47.0909690" lon="6.7180690">
        <ele>854.8</ele>
        <time>2022-07-21T15:50:22Z</time>
      </trkpt>
      <trkpt lat="47.0909640" lon="6.7180520">
        <ele>854.5</ele>
        <time>2022-07-21T15:50:23Z</time>
      </trkpt>
      <trkpt lat="47.0909620" lon="6.7180400">
        <ele>854.3</ele>
        <time>2022-07-21T15:50:24Z</time>
      </trkpt>
      <trkpt lat="47.0909620" lon="6.7180220">
        <ele>854.1</ele>
        <time>2022-07-21T15:50:25Z</time>
      </trkpt>
      <trkpt lat="47.0909590" lon="6.7180040">
        <ele>853.8</ele>
        <time>2022-07-21T15:50:27Z</time>
      </trkpt>
      <trkpt lat="47.0909550" lon="6.7179940">
        <ele>853.6</ele>
        <time>2022-07-21T15:50:28Z</time>
      </trkpt>
      <trkpt lat="47.0909520" lon="6.7179830">
        <ele>853.5</ele>
        <time>2022-07-21T15:50:29Z</time>
      </trkpt>
      <trkpt lat="47.0909490" lon="6.7179720">
        <ele>853.3</ele>
        <time>2022-07-21T15:50:30Z</time>
      </trkpt>
      <trkpt lat="47.0909460" lon="6.7179580">
        <ele>853.1</ele>
        <time>2022-07-21T15:50:31Z</time>
      </trkpt>
      <trkpt lat="47.0909420" lon="6.7179370">
        <ele>852.7</ele>
        <time>2022-07-21T15:50:32Z</time>
      </trkpt>
      <trkpt lat="47.0909370" lon="6.7179200">
        <ele>852.4</ele>
        <time>2022-07-21T15:50:34Z</time>
      </trkpt>
      <trkpt lat="47.0909330" lon="6.7179090">
        <ele>852.2</ele>
        <time>2022-07-21T15:50:35Z</time>
      </trkpt>
      <trkpt lat="47.0909270" lon="6.7178960">
        <ele>852.0</ele>
        <time>2022-07-21T15:50:36Z</time>
      </trkpt>
      <trkpt lat="47.0909220" lon="6.7178820">
        <ele>851.8</ele>
        <time>2022-07-21T15:50:38Z</time>
      </trkpt>
      <trkpt lat="47.0909180" lon="6.7178710">
        <ele>851.6</ele>
        <time>2022-07-21T15:50:39Z</time>
      </trkpt>
      <trkpt lat="47.0909130" lon="6.7178550">
        <ele>851.3</ele>
        <time>2022-07-21T15:50:40Z</time>
      </trkpt>
      <trkpt lat="47.0909100" lon="6.7178430">
        <ele>851.1</ele>
        <time>2022-07-21T15:50:41Z</time>
      </trkpt>
      <trkpt lat="47.0909070" lon="6.7178380">
        <ele>851.0</ele>
        <time>2022-07-21T15:50:42Z</time>
      </trkpt>
      <trkpt lat="47.0909080" lon="6.7178340">
        <ele>850.9</ele>
        <time>2022-07-21T15:50:44Z</time>
      </trkpt>
      <trkpt lat="47.0909090" lon="6.7178320">
        <ele>850.9</ele>
        <time>2022-07-21T15:50:45Z</time>
      </trkpt>
      <trkpt lat="47.0909110" lon="6.7178300">
        <ele>850.8</ele>
        <time>2022-07-21T15:50:46Z</time>
      </trkpt>
      <trkpt lat="47.0909150" lon="6.7178270">
        <ele>850.7</ele>
        <time>2022-07-21T15:50:47Z</time>
      </trkpt>
      <trkpt lat="47.0909190" lon="6.7178180">
        <ele>850.6</ele>
        <time>2022-07-21T15:50:49Z</time>
      </trkpt>
      <trkpt lat="47.0909200" lon="6.7178140">
        <ele>850.5</ele>
        <time>2022-07-21T15:50:50Z</time>
      </trkpt>
      <trkpt lat="47.0909210" lon="6.7178120">
        <ele>850.5</ele>
        <time>2022-07-21T15:50:51Z</time>
      </trkpt>
      <trkpt lat="47.0909210" lon="6.7178090">
        <ele>850.4</ele>
        <time>2022-07-21T15:50:52Z</time>
      </trkpt>
      <trkpt lat="47.0909170" lon="6.7177710">
        <ele>849.8</ele>
        <time>2022-07-21T15:51:10Z</time>
      </trkpt>
      <trkpt lat="47.0909170" lon="6.7177610">
        <ele>849.7</ele>
        <time>2022-07-21T15:51:11Z</time>
      </trkpt>
      <trkpt lat="47.0909160" lon="6.7177480">
        <ele>849.5</ele>
        <time>2022-07-21T15:51:12Z</time>
      </trkpt>
      <trkpt lat="47.0909140" lon="6.7177320">
        <ele>849.2</ele>
        <time>2022-07-21T15:51:13Z</time>
      </trkpt>
      <trkpt lat="47.0909100" lon="6.7177110">
        <ele>848.9</ele>
        <time>2022-07-21T15:51:14Z</time>
      </trkpt>
      <trkpt lat="47.0909060" lon="6.7176910">
        <ele>848.6</ele>
        <time>2022-07-21T15:51:15Z</time>
      </trkpt>
      <trkpt lat="47.0909000" lon="6.7176670">
        <ele>848.2</ele>
        <time>2022-07-21T15:51:17Z</time>
      </trkpt>
      <trkpt lat="47.0908920" lon="6.7176480">
        <ele>847.9</ele>
        <time>2022-07-21T15:51:18Z</time>
      </trkpt>
      <trkpt lat="47.0908880" lon="6.7176380">
        <ele>847.7</ele>
        <time>2022-07-21T15:51:19Z</time>
      </trkpt>
      <trkpt lat="47.0908800" lon="6.7176200">
        <ele>847.4</ele>
        <time>2022-07-21T15:51:20Z</time>
      </trkpt>
      <trkpt lat="47.0908750" lon="6.7176110">
        <ele>847.3</ele>
        <time>2022-07-21T15:51:21Z</time>
      </trkpt>
      <trkpt lat="47.0908720" lon="6.7176090">
        <ele>847.2</ele>
        <time>2022-07-21T15:51:22Z</time>
      </trkpt>
      <trkpt lat="47.0908640" lon="6.7176110">
        <ele>847.0</ele>
        <time>2022-07-21T15:51:23Z</time>
      </trkpt>
      <trkpt lat="47.0908590" lon="6.7176100">
        <ele>846.9</ele>
        <time>2022-07-21T15:51:25Z</time>
      </trkpt>
      <trkpt lat="47.0908550" lon="6.7176070">
        <ele>846.8</ele>
        <time>2022-07-21T15:51:26Z</time>
      </trkpt>
      <trkpt lat="47.0908510" lon="6.7176030">
        <ele>846.7</ele>
        <time>2022-07-21T15:51:27Z</time>
      </trkpt>
      <trkpt lat="47.0908490" lon="6.7176000">
        <ele>846.7</ele>
        <time>2022-07-21T15:51:28Z</time>
      </trkpt>
      <trkpt lat="47.0908430" lon="6.7175880">
        <ele>846.4</ele>
        <time>2022-07-21T15:51:29Z</time>
      </trkpt>
      <trkpt lat="47.0908400" lon="6.7175690">
        <ele>846.2</ele>
        <time>2022-07-21T15:51:30Z</time>
      </trkpt>
      <trkpt lat="47.0908370" lon="6.7175550">
        <ele>846.0</ele>
        <time>2022-07-21T15:51:31Z</time>
      </trkpt>
      <trkpt lat="47.0908330" lon="6.7175350">
        <ele>845.7</ele>
        <time>2022-07-21T15:51:33Z</time>
      </trkpt>
      <trkpt lat="47.0908340" lon="6.7175330">
        <ele>845.6</ele>
        <time>2022-07-21T15:51:34Z</time>
      </trkpt>
      <trkpt lat="47.0908350" lon="6.7175300">
        <ele>845.6</ele>
        <time>2022-07-21T15:51:35Z</time>
      </trkpt>
      <trkpt lat="47.0908360" lon="6.7175260">
        <ele>845.5</ele>
        <time>2022-07-21T15:51:36Z</time>
      </trkpt>
      <trkpt lat="47.0908380" lon="6.7175170">
        <ele>845.4</ele>
        <time>2022-07-21T15:51:37Z</time>
      </trkpt>
      <trkpt lat="47.0908400" lon="6.7175060">
        <ele>845.2</ele>
        <time>2022-07-21T15:51:38Z</time>
      </trkpt>
      <trkpt lat="47.0908420" lon="6.7174800">
        <ele>844.8</ele>
        <time>2022-07-21T15:51:39Z</time>
      </trkpt>
      <trkpt lat="47.0908450" lon="6.7174490">
        <ele>844.4</ele>
        <time>2022-07-21T15:51:41Z</time>
      </trkpt>
      <trkpt lat="47.0908470" lon="6.7174060">
        <ele>843.8</ele>
        <time>2022-07-21T15:51:42Z</time>
      </trkpt>
      <trkpt lat="47.0908470" lon="6.7173960">
        <ele>843.6</ele>
        <time>2022-07-21T15:51:43Z</time>
      </trkpt>
      <trkpt lat="47.0908440" lon="6.7173720">
        <ele>843.3</ele>
        <time>2022-07-21T15:51:44Z</time>
      </trkpt>
      <trkpt lat="47.0908390" lon="6.7173450">
        <ele>842.9</ele>
        <time>2022-07-21T15:51:46Z</time>
      </trkpt>
      <trkpt lat="47.0908300" lon="6.7173250">
        <ele>842.5</ele>
        <time>2022-07-21T15:51:47Z</time>
      </trkpt>
      <trkpt lat="47.0908240" lon="6.7173070">
        <ele>842.2</ele>
        <time>2022-07-21T15:51:48Z</time>
      </trkpt>
      <trkpt lat="47.0908150" lon="6.7172790">
        <ele>841.8</ele>
        <time>2022-07-21T15:51:49Z</time>
      </trkpt>
      <trkpt lat="47.0908120" lon="6.7172670">
        <ele>841.6</ele>
        <time>2022-07-21T15:51:50Z</time>
      </trkpt>
      <trkpt lat="47.0908090" lon="6.7172540">
        <ele>841.4</ele>
        <time>2022-07-21T15:51:51Z</time>
      </trkpt>
      <trkpt lat="47.0908060" lon="6.7172330">
        <ele>841.2</ele>
        <time>2022-07-21T15:51:53Z</time>
      </trkpt>
      <trkpt lat="47.0908010" lon="6.7172150">
        <ele>840.9</ele>
        <time>2022-07-21T15:51:54Z</time>
      </trkpt>
      <trkpt lat="47.0907910" lon="6.7172000">
        <ele>840.6</ele>
        <time>2022-07-21T15:51:55Z</time>
      </trkpt>
      <trkpt lat="47.0907810" lon="6.7171840">
        <ele>840.3</ele>
        <time>2022-07-21T15:51:56Z</time>
      </trkpt>
      <trkpt lat="47.0907590" lon="6.7171500">
        <ele>839.7</ele>
        <time>2022-07-21T15:51:58Z</time>
      </trkpt>
      <trkpt lat="47.0907520" lon="6.7171420">
        <ele>839.5</ele>
        <time>2022-07-21T15:51:59Z</time>
      </trkpt>
      <trkpt lat="47.0907380" lon="6.7171310">
        <ele>839.2</ele>
        <time>2022-07-21T15:52:00Z</time>
      </trkpt>
      <trkpt lat="47.0907260" lon="6.7171230">
        <ele>838.9</ele>
        <time>2022-07-21T15:52:01Z</time>
      </trkpt>
      <trkpt lat="47.0907020" lon="6.7170990">
        <ele>838.4</ele>
        <time>2022-07-21T15:52:03Z</time>
      </trkpt>
      <trkpt lat="47.0906950" lon="6.7170930">
        <ele>838.2</ele>
        <time>2022-07-21T15:52:04Z</time>
      </trkpt>
      <trkpt lat="47.0906840" lon="6.7170820">
        <ele>837.9</ele>
        <time>2022-07-21T15:52:05Z</time>
      </trkpt>
      <trkpt lat="47.0906720" lon="6.7170700">
        <ele>837.7</ele>
        <time>2022-07-21T15:52:06Z</time>
      </trkpt>
      <trkpt lat="47.0906590" lon="6.7170550">
        <ele>837.4</ele>
        <time>2022-07-21T15:52:07Z</time>
      </trkpt>
      <trkpt lat="47.0906460" lon="6.7170430">
        <ele>837.1</ele>
        <time>2022-07-21T15:52:08Z</time>
      </trkpt>
      <trkpt lat="47.0906210" lon="6.7170190">
        <ele>836.5</ele>
        <time>2022-07-21T15:52:09Z</time>
      </trkpt>
      <trkpt lat="47.0906090" lon="6.7170100">
        <ele>836.3</ele>
        <time>2022-07-21T15:52:11Z</time>
      </trkpt>
      <trkpt lat="47.0905980" lon="6.7170000">
        <ele>836.1</ele>
        <time>2022-07-21T15:52:12Z</time>
      </trkpt>
      <trkpt lat="47.0905860" lon="6.7169900">
        <ele>835.8</ele>
        <time>2022-07-21T15:52:13Z</time>
      </trkpt>
      <trkpt lat="47.0905710" lon="6.7169740">
        <ele>835.5</ele>
        <time>2022-07-21T15:52:15Z</time>
      </trkpt>
      <trkpt lat="47.0905590" lon="6.7169570">
        <ele>835.2</ele>
        <time>2022-07-21T15:52:16Z</time>
      </trkpt>
      <trkpt lat="47.0905510" lon="6.7169460">
        <ele>835.1</ele>
        <time>2022-07-21T15:52:17Z</time>
      </trkpt>
      <trkpt lat="47.0905470" lon="6.7169390">
        <ele>835.0</ele>
        <time>2022-07-21T15:52:18Z</time>
      </trkpt>
      <trkpt lat="47.0905490" lon="6.7169340">
        <ele>834.9</ele>
        <time>2022-07-21T15:52:19Z</time>
      </trkpt>
      <trkpt lat="47.0905500" lon="6.7169290">
        <ele>834.8</ele>
        <time>2022-07-21T15:52:20Z</time>
      </trkpt>
      <trkpt lat="47.0905520" lon="6.7169210">
        <ele>834.8</ele>
        <time>2022-07-21T15:52:21Z</time>
      </trkpt>
      <trkpt lat="47.0905550" lon="6.7169150">
        <ele>834.7</ele>
        <time>2022-07-21T15:52:22Z</time>
      </trkpt>
      <trkpt lat="47.0905350" lon="6.7168660">
        <ele>834.1</ele>
        <time>2022-07-21T15:52:23Z</time>
      </trkpt>
      <trkpt lat="47.0905250" lon="6.7168530">
        <ele>834.0</ele>
        <time>2022-07-21T15:52:24Z</time>
      </trkpt>
      <trkpt lat="47.0904940" lon="6.7168150">
        <ele>833.4</ele>
        <time>2022-07-21T15:52:25Z</time>
      </trkpt>
      <trkpt lat="47.0904630" lon="6.7167640">
        <ele>832.9</ele>
        <time>2022-07-21T15:52:26Z</time>
      </trkpt>
      <trkpt lat="47.0904300" lon="6.7166990">
        <ele>832.4</ele>
        <time>2022-07-21T15:52:27Z</time>
      </trkpt>
      <trkpt lat="47.0904340" lon="6.7166580">
        <ele>832.2</ele>
        <time>2022-07-21T15:52:28Z</time>
      </trkpt>
      <trkpt lat="47.0903840" lon="6.7165590">
        <ele>831.7</ele>
        <time>2022-07-21T15:52:29Z</time>
      </trkpt>
      <trkpt lat="47.0903420" lon="6.7164980">
        <ele>831.4</ele>
        <time>2022-07-21T15:52:30Z</time>
      </trkpt>
      <trkpt lat="47.0903240" lon="6.7164350">
        <ele>831.3</ele>
        <time>2022-07-21T15:52:31Z</time>
      </trkpt>
      <trkpt lat="47.0903180" lon="6.7163720">
        <ele>831.2</ele>
        <time>2022-07-21T15:52:32Z</time>
      </trkpt>
      <trkpt lat="47.0903070" lon="6.7163210">
        <ele>831.2</ele>
        <time>2022-07-21T15:52:33Z</time>
      </trkpt>
      <trkpt lat="47.0902990" lon="6.7162750">
        <ele>831.2</ele>
        <time>2022-07-21T15:52:34Z</time>
      </trkpt>
      <trkpt lat="47.0903070" lon="6.7161930">
        <ele>831.3</ele>
        <time>2022-07-21T15:52:36Z</time>
      </trkpt>
      <trkpt lat="47.0903230" lon="6.7161550">
        <ele>831.3</ele>
        <time>2022-07-21T15:52:37Z</time>
      </trkpt>
      <trkpt lat="47.0903290" lon="6.7161420">
        <ele>831.4</ele>
        <time>2022-07-21T15:52:38Z</time>
      </trkpt>
      <trkpt lat="47.0903400" lon="6.7161000">
        <ele>831.4</ele>
        <time>2022-07-21T15:52:40Z</time>
      </trkpt>
      <trkpt lat="47.0903540" lon="6.7160640">
        <ele>831.5</ele>
        <time>2022-07-21T15:52:41Z</time>
      </trkpt>
      <trkpt lat="47.0903590" lon="6.7160100">
        <ele>831.6</ele>
        <time>2022-07-21T15:52:42Z</time>
      </trkpt>
      <trkpt lat="47.0903540" lon="6.7159890">
        <ele>831.7</ele>
        <time>2022-07-21T15:52:43Z</time>
      </trkpt>
      <trkpt lat="47.0903410" lon="6.7159440">
        <ele>831.8</ele>
        <time>2022-07-21T15:52:45Z</time>
      </trkpt>
      <trkpt lat="47.0903370" lon="6.7159330">
        <ele>831.8</ele>
        <time>2022-07-21T15:52:46Z</time>
      </trkpt>
      <trkpt lat="47.0903310" lon="6.7159140">
        <ele>831.9</ele>
        <time>2022-07-21T15:52:47Z</time>
      </trkpt>
      <trkpt lat="47.0903220" lon="6.7158930">
        <ele>831.9</ele>
        <time>2022-07-21T15:52:48Z</time>
      </trkpt>
      <trkpt lat="47.0902950" lon="6.7158580">
        <ele>832.0</ele>
        <time>2022-07-21T15:52:49Z</time>
      </trkpt>
      <trkpt lat="47.0902820" lon="6.7158390">
        <ele>832.1</ele>
        <time>2022-07-21T15:52:50Z</time>
      </trkpt>
      <trkpt lat="47.0902580" lon="6.7158110">
        <ele>832.2</ele>
        <time>2022-07-21T15:52:52Z</time>
      </trkpt>
      <trkpt lat="47.0902500" lon="6.7158020">
        <ele>832.3</ele>
        <time>2022-07-21T15:52:53Z</time>
      </trkpt>
      <trkpt lat="47.0902290" lon="6.7157720">
        <ele>832.4</ele>
        <time>2022-07-21T15:52:54Z</time>
      </trkpt>
      <trkpt lat="47.0902210" lon="6.7157620">
        <ele>832.4</ele>
        <time>2022-07-21T15:52:55Z</time>
      </trkpt>
      <trkpt lat="47.0901890" lon="6.7157340">
        <ele>832.6</ele>
        <time>2022-07-21T15:52:56Z</time>
      </trkpt>
      <trkpt lat="47.0901730" lon="6.7157220">
        <ele>832.7</ele>
        <time>2022-07-21T15:52:57Z</time>
      </trkpt>
      <trkpt lat="47.0901330" lon="6.7156920">
        <ele>832.8</ele>
        <time>2022-07-21T15:52:59Z</time>
      </trkpt>
      <trkpt lat="47.0901170" lon="6.7156810">
        <ele>832.8</ele>
        <time>2022-07-21T15:53:00Z</time>
      </trkpt>
      <trkpt lat="47.0901010" lon="6.7156690">
        <ele>832.9</ele>
        <time>2022-07-21T15:53:01Z</time>
      </trkpt>
      <trkpt lat="47.0900700" lon="6.7156170">
        <ele>832.9</ele>
        <time>2022-07-21T15:53:02Z</time>
      </trkpt>
      <trkpt lat="47.0900500" lon="6.7155690">
        <ele>832.9</ele>
        <time>2022-07-21T15:53:04Z</time>
      </trkpt>
      <trkpt lat="47.0900220" lon="6.7155260">
        <ele>832.8</ele>
        <time>2022-07-21T15:53:05Z</time>
      </trkpt>
      <trkpt lat="47.0900100" lon="6.7155110">
        <ele>832.8</ele>
        <time>2022-07-21T15:53:06Z</time>
      </trkpt>
      <trkpt lat="47.0899870" lon="6.7154820">
        <ele>832.7</ele>
        <time>2022-07-21T15:53:07Z</time>
      </trkpt>
      <trkpt lat="47.0899480" lon="6.7154300">
        <ele>832.5</ele>
        <time>2022-07-21T15:53:09Z</time>
      </trkpt>
      <trkpt lat="47.0899320" lon="6.7153870">
        <ele>832.4</ele>
        <time>2022-07-21T15:53:10Z</time>
      </trkpt>
      <trkpt lat="47.0899180" lon="6.7153300">
        <ele>832.2</ele>
        <time>2022-07-21T15:53:11Z</time>
      </trkpt>
      <trkpt lat="47.0899090" lon="6.7152870">
        <ele>832.0</ele>
        <time>2022-07-21T15:53:12Z</time>
      </trkpt>
      <trkpt lat="47.0898900" lon="6.7152320">
        <ele>831.8</ele>
        <time>2022-07-21T15:53:14Z</time>
      </trkpt>
      <trkpt lat="47.0898840" lon="6.7151910">
        <ele>831.7</ele>
        <time>2022-07-21T15:53:15Z</time>
      </trkpt>
      <trkpt lat="47.0898670" lon="6.7151350">
        <ele>831.4</ele>
        <time>2022-07-21T15:53:16Z</time>
      </trkpt>
      <trkpt lat="47.0898560" lon="6.7150840">
        <ele>831.2</ele>
        <time>2022-07-21T15:53:17Z</time>
      </trkpt>
      <trkpt lat="47.0898470" lon="6.7150380">
        <ele>831.0</ele>
        <time>2022-07-21T15:53:18Z</time>
      </trkpt>
      <trkpt lat="47.0898370" lon="6.7149810">
        <ele>830.7</ele>
        <time>2022-07-21T15:53:19Z</time>
      </trkpt>
      <trkpt lat="47.0898280" lon="6.7148850">
        <ele>830.2</ele>
        <time>2022-07-21T15:53:21Z</time>
      </trkpt>
      <trkpt lat="47.0898340" lon="6.7148240">
        <ele>829.9</ele>
        <time>2022-07-21T15:53:22Z</time>
      </trkpt>
      <trkpt lat="47.0898380" lon="6.7147680">
        <ele>829.5</ele>
        <time>2022-07-21T15:53:23Z</time>
      </trkpt>
      <trkpt lat="47.0898500" lon="6.7147210">
        <ele>829.2</ele>
        <time>2022-07-21T15:53:25Z</time>
      </trkpt>
      <trkpt lat="47.0898630" lon="6.7146760">
        <ele>828.9</ele>
        <time>2022-07-21T15:53:26Z</time>
      </trkpt>
      <trkpt lat="47.0898770" lon="6.7146260">
        <ele>828.5</ele>
        <time>2022-07-21T15:53:27Z</time>
      </trkpt>
      <trkpt lat="47.0898850" lon="6.7145840">
        <ele>828.3</ele>
        <time>2022-07-21T15:53:28Z</time>
      </trkpt>
      <trkpt lat="47.0898980" lon="6.7145070">
        <ele>827.8</ele>
        <time>2022-07-21T15:53:29Z</time>
      </trkpt>
      <trkpt lat="47.0899100" lon="6.7144730">
        <ele>827.5</ele>
        <time>2022-07-21T15:53:30Z</time>
      </trkpt>
      <trkpt lat="47.0899410" lon="6.7144180">
        <ele>827.0</ele>
        <time>2022-07-21T15:53:32Z</time>
      </trkpt>
      <trkpt lat="47.0899570" lon="6.7143830">
        <ele>826.7</ele>
        <time>2022-07-21T15:53:33Z</time>
      </trkpt>
      <trkpt lat="47.0899630" lon="6.7142870">
        <ele>826.1</ele>
        <time>2022-07-21T15:53:34Z</time>
      </trkpt>
      <trkpt lat="47.0899610" lon="6.7142220">
        <ele>825.6</ele>
        <time>2022-07-21T15:53:35Z</time>
      </trkpt>
      <trkpt lat="47.0899540" lon="6.7141580">
        <ele>825.2</ele>
        <time>2022-07-21T15:53:36Z</time>
      </trkpt>
      <trkpt lat="47.0899490" lon="6.7140750">
        <ele>824.7</ele>
        <time>2022-07-21T15:53:37Z</time>
      </trkpt>
      <trkpt lat="47.0899470" lon="6.7139870">
        <ele>824.2</ele>
        <time>2022-07-21T15:53:38Z</time>
      </trkpt>
      <trkpt lat="47.0899480" lon="6.7139210">
        <ele>823.8</ele>
        <time>2022-07-21T15:53:39Z</time>
      </trkpt>
      <trkpt lat="47.0899630" lon="6.7138660">
        <ele>823.5</ele>
        <time>2022-07-21T15:53:40Z</time>
      </trkpt>
      <trkpt lat="47.0899990" lon="6.7138420">
        <ele>823.2</ele>
        <time>2022-07-21T15:53:41Z</time>
      </trkpt>
      <trkpt lat="47.0900080" lon="6.7137810">
        <ele>823.0</ele>
        <time>2022-07-21T15:53:42Z</time>
      </trkpt>
      <trkpt lat="47.0900110" lon="6.7137120">
        <ele>822.7</ele>
        <time>2022-07-21T15:53:43Z</time>
      </trkpt>
      <trkpt lat="47.0900200" lon="6.7136460">
        <ele>822.4</ele>
        <time>2022-07-21T15:53:44Z</time>
      </trkpt>
      <trkpt lat="47.0900260" lon="6.7135810">
        <ele>822.1</ele>
        <time>2022-07-21T15:53:45Z</time>
      </trkpt>
      <trkpt lat="47.0900220" lon="6.7134640">
        <ele>821.5</ele>
        <time>2022-07-21T15:53:47Z</time>
      </trkpt>
      <trkpt lat="47.0900130" lon="6.7133920">
        <ele>821.2</ele>
        <time>2022-07-21T15:53:48Z</time>
      </trkpt>
      <trkpt lat="47.0899920" lon="6.7132980">
        <ele>820.8</ele>
        <time>2022-07-21T15:53:49Z</time>
      </trkpt>
      <trkpt lat="47.0899800" lon="6.7132160">
        <ele>820.4</ele>
        <time>2022-07-21T15:53:50Z</time>
      </trkpt>
      <trkpt lat="47.0899780" lon="6.7131320">
        <ele>820.0</ele>
        <time>2022-07-21T15:53:51Z</time>
      </trkpt>
      <trkpt lat="47.0899770" lon="6.7130480">
        <ele>819.7</ele>
        <time>2022-07-21T15:53:52Z</time>
      </trkpt>
      <trkpt lat="47.0899710" lon="6.7129770">
        <ele>819.4</ele>
        <time>2022-07-21T15:53:53Z</time>
      </trkpt>
      <trkpt lat="47.0899770" lon="6.7129020">
        <ele>819.2</ele>
        <time>2022-07-21T15:53:54Z</time>
      </trkpt>
      <trkpt lat="47.0899770" lon="6.7127720">
        <ele>818.8</ele>
        <time>2022-07-21T15:53:56Z</time>
      </trkpt>
      <trkpt lat="47.0899750" lon="6.7127230">
        <ele>818.6</ele>
        <time>2022-07-21T15:53:57Z</time>
      </trkpt>
      <trkpt lat="47.0899720" lon="6.7126450">
        <ele>818.4</ele>
        <time>2022-07-21T15:53:58Z</time>
      </trkpt>
      <trkpt lat="47.0899670" lon="6.7125780">
        <ele>818.2</ele>
        <time>2022-07-21T15:53:59Z</time>
      </trkpt>
      <trkpt lat="47.0899670" lon="6.7124890">
        <ele>817.9</ele>
        <time>2022-07-21T15:54:00Z</time>
      </trkpt>
      <trkpt lat="47.0899650" lon="6.7124080">
        <ele>817.6</ele>
        <time>2022-07-21T15:54:01Z</time>
      </trkpt>
      <trkpt lat="47.0899620" lon="6.7123300">
        <ele>817.4</ele>
        <time>2022-07-21T15:54:02Z</time>
      </trkpt>
      <trkpt lat="47.0899660" lon="6.7122630">
        <ele>817.2</ele>
        <time>2022-07-21T15:54:03Z</time>
      </trkpt>
      <trkpt lat="47.0899790" lon="6.7122120">
        <ele>817.0</ele>
        <time>2022-07-21T15:54:04Z</time>
      </trkpt>
      <trkpt lat="47.0900040" lon="6.7121440">
        <ele>816.8</ele>
        <time>2022-07-21T15:54:05Z</time>
      </trkpt>
      <trkpt lat="47.0900250" lon="6.7120820">
        <ele>816.6</ele>
        <time>2022-07-21T15:54:06Z</time>
      </trkpt>
      <trkpt lat="47.0900390" lon="6.7120110">
        <ele>816.3</ele>
        <time>2022-07-21T15:54:07Z</time>
      </trkpt>
      <trkpt lat="47.0900460" lon="6.7119410">
        <ele>816.2</ele>
        <time>2022-07-21T15:54:08Z</time>
      </trkpt>
      <trkpt lat="47.0900740" lon="6.7118830">
        <ele>816.0</ele>
        <time>2022-07-21T15:54:09Z</time>
      </trkpt>
      <trkpt lat="47.0900780" lon="6.7118060">
        <ele>815.8</ele>
        <time>2022-07-21T15:54:11Z</time>
      </trkpt>
      <trkpt lat="47.0900780" lon="6.7117620">
        <ele>815.8</ele>
        <time>2022-07-21T15:54:12Z</time>
      </trkpt>
      <trkpt lat="47.0900650" lon="6.7117230">
        <ele>815.7</ele>
        <time>2022-07-21T15:54:13Z</time>
      </trkpt>
      <trkpt lat="47.0900610" lon="6.7117140">
        <ele>815.7</ele>
        <time>2022-07-21T15:54:14Z</time>
      </trkpt>
      <trkpt lat="47.0900440" lon="6.7116780">
        <ele>815.6</ele>
        <time>2022-07-21T15:54:15Z</time>
      </trkpt>
      <trkpt lat="47.0900330" lon="6.7116420">
        <ele>815.6</ele>
        <time>2022-07-21T15:54:16Z</time>
      </trkpt>
      <trkpt lat="47.0900230" lon="6.7115890">
        <ele>815.5</ele>
        <time>2022-07-21T15:54:18Z</time>
      </trkpt>
      <trkpt lat="47.0900210" lon="6.7115470">
        <ele>815.5</ele>
        <time>2022-07-21T15:54:19Z</time>
      </trkpt>
      <trkpt lat="47.0900130" lon="6.7115020">
        <ele>815.5</ele>
        <time>2022-07-21T15:54:20Z</time>
      </trkpt>
      <trkpt lat="47.0900080" lon="6.7114600">
        <ele>815.4</ele>
        <time>2022-07-21T15:54:21Z</time>
      </trkpt>
      <trkpt lat="47.0900030" lon="6.7113990">
        <ele>815.4</ele>
        <time>2022-07-21T15:54:22Z</time>
      </trkpt>
      <trkpt lat="47.0900020" lon="6.7113770">
        <ele>815.3</ele>
        <time>2022-07-21T15:54:23Z</time>
      </trkpt>
      <trkpt lat="47.0900020" lon="6.7113420">
        <ele>815.3</ele>
        <time>2022-07-21T15:54:24Z</time>
      </trkpt>
      <trkpt lat="47.0899970" lon="6.7113190">
        <ele>815.3</ele>
        <time>2022-07-21T15:54:26Z</time>
      </trkpt>
      <trkpt lat="47.0899870" lon="6.7113040">
        <ele>815.3</ele>
        <time>2022-07-21T15:54:27Z</time>
      </trkpt>
      <trkpt lat="47.0899820" lon="6.7112810">
        <ele>815.2</ele>
        <time>2022-07-21T15:54:28Z</time>
      </trkpt>
      <trkpt lat="47.0899800" lon="6.7112400">
        <ele>815.2</ele>
        <time>2022-07-21T15:54:29Z</time>
      </trkpt>
      <trkpt lat="47.0899820" lon="6.7112230">
        <ele>815.2</ele>
        <time>2022-07-21T15:54:30Z</time>
      </trkpt>
      <trkpt lat="47.0899880" lon="6.7111610">
        <ele>815.1</ele>
        <time>2022-07-21T15:54:31Z</time>
      </trkpt>
      <trkpt lat="47.0899900" lon="6.7111330">
        <ele>815.0</ele>
        <time>2022-07-21T15:54:32Z</time>
      </trkpt>
      <trkpt lat="47.0899930" lon="6.7110740">
        <ele>815.0</ele>
        <time>2022-07-21T15:54:34Z</time>
      </trkpt>
      <trkpt lat="47.0899890" lon="6.7110080">
        <ele>814.9</ele>
        <time>2022-07-21T15:54:35Z</time>
      </trkpt>
      <trkpt lat="47.0899900" lon="6.7109670">
        <ele>814.9</ele>
        <time>2022-07-21T15:54:36Z</time>
      </trkpt>
      <trkpt lat="47.0899980" lon="6.7109120">
        <ele>815.0</ele>
        <time>2022-07-21T15:54:37Z</time>
      </trkpt>
      <trkpt lat="47.0900010" lon="6.7108570">
        <ele>815.0</ele>
        <time>2022-07-21T15:54:38Z</time>
      </trkpt>
      <trkpt lat="47.0900010" lon="6.7108390">
        <ele>815.0</ele>
        <time>2022-07-21T15:54:39Z</time>
      </trkpt>
      <trkpt lat="47.0900060" lon="6.7107830">
        <ele>815.2</ele>
        <time>2022-07-21T15:54:40Z</time>
      </trkpt>
      <trkpt lat="47.0900100" lon="6.7107650">
        <ele>815.2</ele>
        <time>2022-07-21T15:54:41Z</time>
      </trkpt>
      <trkpt lat="47.0900250" lon="6.7107000">
        <ele>815.4</ele>
        <time>2022-07-21T15:54:43Z</time>
      </trkpt>
      <trkpt lat="47.0900300" lon="6.7106780">
        <ele>815.5</ele>
        <time>2022-07-21T15:54:44Z</time>
      </trkpt>
      <trkpt lat="47.0900360" lon="6.7106560">
        <ele>815.6</ele>
        <time>2022-07-21T15:54:45Z</time>
      </trkpt>
      <trkpt lat="47.0900420" lon="6.7106320">
        <ele>815.7</ele>
        <time>2022-07-21T15:54:46Z</time>
      </trkpt>
      <trkpt lat="47.0900510" lon="6.7106100">
        <ele>815.9</ele>
        <time>2022-07-21T15:54:47Z</time>
      </trkpt>
      <trkpt lat="47.0900610" lon="6.7105930">
        <ele>816.0</ele>
        <time>2022-07-21T15:54:48Z</time>
      </trkpt>
      <trkpt lat="47.0900670" lon="6.7105850">
        <ele>816.0</ele>
        <time>2022-07-21T15:54:49Z</time>
      </trkpt>
      <trkpt lat="47.0900710" lon="6.7105790">
        <ele>816.1</ele>
        <time>2022-07-21T15:54:51Z</time>
      </trkpt>
      <trkpt lat="47.0900720" lon="6.7105750">
        <ele>816.1</ele>
        <time>2022-07-21T15:54:52Z</time>
      </trkpt>
      <trkpt lat="47.0900720" lon="6.7105730">
        <ele>816.1</ele>
        <time>2022-07-21T15:54:53Z</time>
      </trkpt>
      <trkpt lat="47.0900730" lon="6.7105700">
        <ele>816.1</ele>
        <time>2022-07-21T15:54:54Z</time>
      </trkpt>
      <trkpt lat="47.0900750" lon="6.7105660">
        <ele>816.4</ele>
        <time>2022-07-21T15:54:55Z</time>
      </trkpt>
      <trkpt lat="47.0900760" lon="6.7105620">
        <ele>816.5</ele>
        <time>2022-07-21T15:54:57Z</time>
      </trkpt>
      <trkpt lat="47.0900780" lon="6.7105590">
        <ele>816.5</ele>
        <time>2022-07-21T15:54:58Z</time>
      </trkpt>
      <trkpt lat="47.0901290" lon="6.7104350">
        <ele>818.3</ele>
        <time>2022-07-21T15:55:24Z</time>
      </trkpt>
      <trkpt lat="47.0901350" lon="6.7104240">
        <ele>818.5</ele>
        <time>2022-07-21T15:55:25Z</time>
      </trkpt>
      <trkpt lat="47.0901380" lon="6.7104170">
        <ele>818.6</ele>
        <time>2022-07-21T15:55:26Z</time>
      </trkpt>
      <trkpt lat="47.0901410" lon="6.7104110">
        <ele>818.7</ele>
        <time>2022-07-21T15:55:27Z</time>
      </trkpt>
      <trkpt lat="47.0901440" lon="6.7104050">
        <ele>818.8</ele>
        <time>2022-07-21T15:55:28Z</time>
      </trkpt>
      <trkpt lat="47.0901470" lon="6.7103980">
        <ele>818.9</ele>
        <time>2022-07-21T15:55:29Z</time>
      </trkpt>
      <trkpt lat="47.0901510" lon="6.7103900">
        <ele>819.0</ele>
        <time>2022-07-21T15:55:31Z</time>
      </trkpt>
      <trkpt lat="47.0901580" lon="6.7103760">
        <ele>819.3</ele>
        <time>2022-07-21T15:55:32Z</time>
      </trkpt>
      <trkpt lat="47.0901630" lon="6.7103650">
        <ele>819.4</ele>
        <time>2022-07-21T15:55:33Z</time>
      </trkpt>
      <trkpt lat="47.0901670" lon="6.7103550">
        <ele>819.6</ele>
        <time>2022-07-21T15:55:34Z</time>
      </trkpt>
      <trkpt lat="47.0901710" lon="6.7103420">
        <ele>819.8</ele>
        <time>2022-07-21T15:55:35Z</time>
      </trkpt>
      <trkpt lat="47.0901740" lon="6.7103340">
        <ele>819.9</ele>
        <time>2022-07-21T15:55:37Z</time>
      </trkpt>
      <trkpt lat="47.0901760" lon="6.7103250">
        <ele>820.1</ele>
        <time>2022-07-21T15:55:38Z</time>
      </trkpt>
      <trkpt lat="47.0901800" lon="6.7103120">
        <ele>820.3</ele>
        <time>2022-07-21T15:55:39Z</time>
      </trkpt>
      <trkpt lat="47.0901810" lon="6.7103040">
        <ele>820.4</ele>
        <time>2022-07-21T15:55:41Z</time>
      </trkpt>
      <trkpt lat="47.0901830" lon="6.7102960">
        <ele>820.5</ele>
        <time>2022-07-21T15:55:42Z</time>
      </trkpt>
      <trkpt lat="47.0901830" lon="6.7102920">
        <ele>820.6</ele>
        <time>2022-07-21T15:55:44Z</time>
      </trkpt>
      <trkpt lat="47.0901830" lon="6.7102870">
        <ele>820.7</ele>
        <time>2022-07-21T15:55:45Z</time>
      </trkpt>
      <trkpt lat="47.0901820" lon="6.7102820">
        <ele>820.7</ele>
        <time>2022-07-21T15:55:46Z</time>
      </trkpt>
      <trkpt lat="47.0901810" lon="6.7102670">
        <ele>821.0</ele>
        <time>2022-07-21T15:55:47Z</time>
      </trkpt>
      <trkpt lat="47.0901780" lon="6.7102520">
        <ele>821.2</ele>
        <time>2022-07-21T15:55:48Z</time>
      </trkpt>
      <trkpt lat="47.0901760" lon="6.7102410">
        <ele>821.3</ele>
        <time>2022-07-21T15:55:49Z</time>
      </trkpt>
      <trkpt lat="47.0901740" lon="6.7102320">
        <ele>821.5</ele>
        <time>2022-07-21T15:55:50Z</time>
      </trkpt>
      <trkpt lat="47.0901730" lon="6.7102200">
        <ele>821.7</ele>
        <time>2022-07-21T15:55:51Z</time>
      </trkpt>
      <trkpt lat="47.0901700" lon="6.7102010">
        <ele>821.9</ele>
        <time>2022-07-21T15:55:53Z</time>
      </trkpt>
      <trkpt lat="47.0901690" lon="6.7101880">
        <ele>822.1</ele>
        <time>2022-07-21T15:55:54Z</time>
      </trkpt>
      <trkpt lat="47.0901660" lon="6.7101720">
        <ele>822.4</ele>
        <time>2022-07-21T15:55:55Z</time>
      </trkpt>
      <trkpt lat="47.0901640" lon="6.7101560">
        <ele>822.6</ele>
        <time>2022-07-21T15:55:56Z</time>
      </trkpt>
      <trkpt lat="47.0901620" lon="6.7101300">
        <ele>823.0</ele>
        <time>2022-07-21T15:55:57Z</time>
      </trkpt>
      <trkpt lat="47.0901610" lon="6.7101110">
        <ele>823.2</ele>
        <time>2022-07-21T15:55:58Z</time>
      </trkpt>
      <trkpt lat="47.0901600" lon="6.7100950">
        <ele>823.4</ele>
        <time>2022-07-21T15:55:59Z</time>
      </trkpt>
      <trkpt lat="47.0901570" lon="6.7100770">
        <ele>823.7</ele>
        <time>2022-07-21T15:56:00Z</time>
      </trkpt>
      <trkpt lat="47.0901550" lon="6.7100670">
        <ele>823.8</ele>
        <time>2022-07-21T15:56:01Z</time>
      </trkpt>
      <trkpt lat="47.0901540" lon="6.7100560">
        <ele>824.0</ele>
        <time>2022-07-21T15:56:02Z</time>
      </trkpt>
      <trkpt lat="47.0901550" lon="6.7100490">
        <ele>824.1</ele>
        <time>2022-07-21T15:56:03Z</time>
      </trkpt>
      <trkpt lat="47.0901560" lon="6.7100390">
        <ele>824.2</ele>
        <time>2022-07-21T15:56:04Z</time>
      </trkpt>
      <trkpt lat="47.0901560" lon="6.7100280">
        <ele>824.3</ele>
        <time>2022-07-21T15:56:05Z</time>
      </trkpt>
      <trkpt lat="47.0901570" lon="6.7100170">
        <ele>824.5</ele>
        <time>2022-07-21T15:56:06Z</time>
      </trkpt>
      <trkpt lat="47.0901580" lon="6.7100100">
        <ele>824.6</ele>
        <time>2022-07-21T15:56:07Z</time>
      </trkpt>
      <trkpt lat="47.0901600" lon="6.7100040">
        <ele>824.7</ele>
        <time>2022-07-21T15:56:08Z</time>
      </trkpt>
      <trkpt lat="47.0901640" lon="6.7099970">
        <ele>824.8</ele>
        <time>2022-07-21T15:56:09Z</time>
      </trkpt>
      <trkpt lat="47.0901660" lon="6.7099930">
        <ele>824.8</ele>
        <time>2022-07-21T15:56:10Z</time>
      </trkpt>
      <trkpt lat="47.0901690" lon="6.7099880">
        <ele>824.9</ele>
        <time>2022-07-21T15:56:11Z</time>
      </trkpt>
      <trkpt lat="47.0901760" lon="6.7099760">
        <ele>825.1</ele>
        <time>2022-07-21T15:56:12Z</time>
      </trkpt>
      <trkpt lat="47.0901810" lon="6.7099570">
        <ele>825.4</ele>
        <time>2022-07-21T15:56:14Z</time>
      </trkpt>
      <trkpt lat="47.0901820" lon="6.7099450">
        <ele>825.5</ele>
        <time>2022-07-21T15:56:15Z</time>
      </trkpt>
      <trkpt lat="47.0901830" lon="6.7099330">
        <ele>825.7</ele>
        <time>2022-07-21T15:56:16Z</time>
      </trkpt>
      <trkpt lat="47.0901840" lon="6.7099200">
        <ele>825.8</ele>
        <time>2022-07-21T15:56:17Z</time>
      </trkpt>
      <trkpt lat="47.0901890" lon="6.7098760">
        <ele>826.4</ele>
        <time>2022-07-21T15:56:19Z</time>
      </trkpt>
      <trkpt lat="47.0901910" lon="6.7098650">
        <ele>826.5</ele>
        <time>2022-07-21T15:56:20Z</time>
      </trkpt>
      <trkpt lat="47.0901910" lon="6.7098470">
        <ele>826.7</ele>
        <time>2022-07-21T15:56:21Z</time>
      </trkpt>
      <trkpt lat="47.0901920" lon="6.7098160">
        <ele>827.1</ele>
        <time>2022-07-21T15:56:22Z</time>
      </trkpt>
      <trkpt lat="47.0901920" lon="6.7097960">
        <ele>827.3</ele>
        <time>2022-07-21T15:56:23Z</time>
      </trkpt>
      <trkpt lat="47.0901910" lon="6.7097710">
        <ele>827.6</ele>
        <time>2022-07-21T15:56:24Z</time>
      </trkpt>
      <trkpt lat="47.0901910" lon="6.7097520">
        <ele>827.8</ele>
        <time>2022-07-21T15:56:25Z</time>
      </trkpt>
      <trkpt lat="47.0901910" lon="6.7097370">
        <ele>828.0</ele>
        <time>2022-07-21T15:56:27Z</time>
      </trkpt>
      <trkpt lat="47.0901910" lon="6.7097270">
        <ele>828.1</ele>
        <time>2022-07-21T15:56:28Z</time>
      </trkpt>
      <trkpt lat="47.0901910" lon="6.7097170">
        <ele>828.2</ele>
        <time>2022-07-21T15:56:29Z</time>
      </trkpt>
      <trkpt lat="47.0901900" lon="6.7097060">
        <ele>828.4</ele>
        <time>2022-07-21T15:56:30Z</time>
      </trkpt>
      <trkpt lat="47.0901900" lon="6.7096930">
        <ele>828.5</ele>
        <time>2022-07-21T15:56:31Z</time>
      </trkpt>
      <trkpt lat="47.0901900" lon="6.7096810">
        <ele>828.7</ele>
        <time>2022-07-21T15:56:32Z</time>
      </trkpt>
      <trkpt lat="47.0901900" lon="6.7096690">
        <ele>828.8</ele>
        <time>2022-07-21T15:56:33Z</time>
      </trkpt>
      <trkpt lat="47.0901820" lon="6.7096490">
        <ele>829.1</ele>
        <time>2022-07-21T15:56:34Z</time>
      </trkpt>
      <trkpt lat="47.0901740" lon="6.7096390">
        <ele>829.3</ele>
        <time>2022-07-21T15:56:35Z</time>
      </trkpt>
      <trkpt lat="47.0901650" lon="6.7096290">
        <ele>829.5</ele>
        <time>2022-07-21T15:56:37Z</time>
      </trkpt>
      <trkpt lat="47.0901560" lon="6.7096180">
        <ele>829.7</ele>
        <time>2022-07-21T15:56:38Z</time>
      </trkpt>
      <trkpt lat="47.0901540" lon="6.7096090">
        <ele>829.8</ele>
        <time>2022-07-21T15:56:39Z</time>
      </trkpt>
      <trkpt lat="47.0901510" lon="6.7096030">
        <ele>829.9</ele>
        <time>2022-07-21T15:56:40Z</time>
      </trkpt>
      <trkpt lat="47.0901340" lon="6.7095750">
        <ele>830.4</ele>
        <time>2022-07-21T15:56:41Z</time>
      </trkpt>
      <trkpt lat="47.0901270" lon="6.7095600">
        <ele>830.6</ele>
        <time>2022-07-21T15:56:43Z</time>
      </trkpt>
      <trkpt lat="47.0901220" lon="6.7095480">
        <ele>830.8</ele>
        <time>2022-07-21T15:56:44Z</time>
      </trkpt>
      <trkpt lat="47.0901190" lon="6.7095330">
        <ele>831.0</ele>
        <time>2022-07-21T15:56:45Z</time>
      </trkpt>
      <trkpt lat="47.0901180" lon="6.7095100">
        <ele>831.3</ele>
        <time>2022-07-21T15:56:46Z</time>
      </trkpt>
      <trkpt lat="47.0901180" lon="6.7094990">
        <ele>831.4</ele>
        <time>2022-07-21T15:56:47Z</time>
      </trkpt>
      <trkpt lat="47.0901140" lon="6.7094790">
        <ele>831.7</ele>
        <time>2022-07-21T15:56:49Z</time>
      </trkpt>
      <trkpt lat="47.0901130" lon="6.7094620">
        <ele>831.9</ele>
        <time>2022-07-21T15:56:50Z</time>
      </trkpt>
      <trkpt lat="47.0901110" lon="6.7094500">
        <ele>832.1</ele>
        <time>2022-07-21T15:56:51Z</time>
      </trkpt>
      <trkpt lat="47.0901110" lon="6.7094360">
        <ele>832.3</ele>
        <time>2022-07-21T15:56:52Z</time>
      </trkpt>
      <trkpt lat="47.0901080" lon="6.7094010">
        <ele>832.8</ele>
        <time>2022-07-21T15:56:53Z</time>
      </trkpt>
      <trkpt lat="47.0901060" lon="6.7093900">
        <ele>832.9</ele>
        <time>2022-07-21T15:56:55Z</time>
      </trkpt>
      <trkpt lat="47.0901030" lon="6.7093790">
        <ele>833.1</ele>
        <time>2022-07-21T15:56:56Z</time>
      </trkpt>
      <trkpt lat="47.0900990" lon="6.7093650">
        <ele>833.3</ele>
        <time>2022-07-21T15:56:57Z</time>
      </trkpt>
      <trkpt lat="47.0900960" lon="6.7093530">
        <ele>833.5</ele>
        <time>2022-07-21T15:56:58Z</time>
      </trkpt>
      <trkpt lat="47.0900930" lon="6.7093360">
        <ele>833.7</ele>
        <time>2022-07-21T15:57:00Z</time>
      </trkpt>
      <trkpt lat="47.0900890" lon="6.7093260">
        <ele>833.8</ele>
        <time>2022-07-21T15:57:01Z</time>
      </trkpt>
      <trkpt lat="47.0900830" lon="6.7093140">
        <ele>834.0</ele>
        <time>2022-07-21T15:57:02Z</time>
      </trkpt>
      <trkpt lat="47.0900800" lon="6.7093030">
        <ele>834.2</ele>
        <time>2022-07-21T15:57:04Z</time>
      </trkpt>
      <trkpt lat="47.0900770" lon="6.7092910">
        <ele>834.4</ele>
        <time>2022-07-21T15:57:05Z</time>
      </trkpt>
      <trkpt lat="47.0900730" lon="6.7092800">
        <ele>834.5</ele>
        <time>2022-07-21T15:57:06Z</time>
      </trkpt>
      <trkpt lat="47.0900700" lon="6.7092650">
        <ele>834.8</ele>
        <time>2022-07-21T15:57:08Z</time>
      </trkpt>
      <trkpt lat="47.0900670" lon="6.7092580">
        <ele>834.9</ele>
        <time>2022-07-21T15:57:09Z</time>
      </trkpt>
      <trkpt lat="47.0900640" lon="6.7092510">
        <ele>835.0</ele>
        <time>2022-07-21T15:57:11Z</time>
      </trkpt>
      <trkpt lat="47.0900610" lon="6.7092370">
        <ele>835.2</ele>
        <time>2022-07-21T15:57:12Z</time>
      </trkpt>
      <trkpt lat="47.0900590" lon="6.7092220">
        <ele>835.4</ele>
        <time>2022-07-21T15:57:13Z</time>
      </trkpt>
      <trkpt lat="47.0900570" lon="6.7092080">
        <ele>835.6</ele>
        <time>2022-07-21T15:57:14Z</time>
      </trkpt>
      <trkpt lat="47.0900540" lon="6.7091890">
        <ele>835.8</ele>
        <time>2022-07-21T15:57:16Z</time>
      </trkpt>
      <trkpt lat="47.0900550" lon="6.7091780">
        <ele>836.0</ele>
        <time>2022-07-21T15:57:17Z</time>
      </trkpt>
      <trkpt lat="47.0900550" lon="6.7091680">
        <ele>836.1</ele>
        <time>2022-07-21T15:57:18Z</time>
      </trkpt>
      <trkpt lat="47.0900610" lon="6.7091570">
        <ele>836.3</ele>
        <time>2022-07-21T15:57:19Z</time>
      </trkpt>
      <trkpt lat="47.0900640" lon="6.7091460">
        <ele>836.5</ele>
        <time>2022-07-21T15:57:20Z</time>
      </trkpt>
      <trkpt lat="47.0900690" lon="6.7091300">
        <ele>836.8</ele>
        <time>2022-07-21T15:57:21Z</time>
      </trkpt>
      <trkpt lat="47.0900710" lon="6.7091180">
        <ele>836.9</ele>
        <time>2022-07-21T15:57:22Z</time>
      </trkpt>
      <trkpt lat="47.0900760" lon="6.7091050">
        <ele>837.1</ele>
        <time>2022-07-21T15:57:23Z</time>
      </trkpt>
      <trkpt lat="47.0900790" lon="6.7090920">
        <ele>837.3</ele>
        <time>2022-07-21T15:57:24Z</time>
      </trkpt>
      <trkpt lat="47.0900820" lon="6.7090780">
        <ele>837.6</ele>
        <time>2022-07-21T15:57:25Z</time>
      </trkpt>
      <trkpt lat="47.0900820" lon="6.7090630">
        <ele>837.8</ele>
        <time>2022-07-21T15:57:26Z</time>
      </trkpt>
      <trkpt lat="47.0900810" lon="6.7090490">
        <ele>838.0</ele>
        <time>2022-07-21T15:57:27Z</time>
      </trkpt>
      <trkpt lat="47.0900800" lon="6.7090420">
        <ele>838.1</ele>
        <time>2022-07-21T15:57:28Z</time>
      </trkpt>
      <trkpt lat="47.0900800" lon="6.7090380">
        <ele>838.1</ele>
        <time>2022-07-21T15:57:29Z</time>
      </trkpt>
      <trkpt lat="47.0900820" lon="6.7090370">
        <ele>838.2</ele>
        <time>2022-07-21T15:57:30Z</time>
      </trkpt>
      <trkpt lat="47.0900830" lon="6.7090370">
        <ele>838.2</ele>
        <time>2022-07-21T15:57:31Z</time>
      </trkpt>
      <trkpt lat="47.0900850" lon="6.7090360">
        <ele>838.2</ele>
        <time>2022-07-21T15:57:32Z</time>
      </trkpt>
      <trkpt lat="47.0900870" lon="6.7090330">
        <ele>838.3</ele>
        <time>2022-07-21T15:57:33Z</time>
      </trkpt>
      <trkpt lat="47.0900900" lon="6.7090300">
        <ele>838.4</ele>
        <time>2022-07-21T15:57:34Z</time>
      </trkpt>
      <trkpt lat="47.0900920" lon="6.7090250">
        <ele>838.5</ele>
        <time>2022-07-21T15:57:35Z</time>
      </trkpt>
      <trkpt lat="47.0900950" lon="6.7090160">
        <ele>838.6</ele>
        <time>2022-07-21T15:57:37Z</time>
      </trkpt>
      <trkpt lat="47.0900960" lon="6.7090100">
        <ele>838.7</ele>
        <time>2022-07-21T15:57:38Z</time>
      </trkpt>
      <trkpt lat="47.0900960" lon="6.7090100">
        <ele>838.7</ele>
        <time>2022-07-21T15:57:38Z</time>
      </trkpt>
      <trkpt lat="47.0900990" lon="6.7090000">
        <ele>838.9</ele>
        <time>2022-07-21T15:57:39Z</time>
      </trkpt>
      <trkpt lat="47.0901020" lon="6.7089890">
        <ele>839.0</ele>
        <time>2022-07-21T15:57:40Z</time>
      </trkpt>
      <trkpt lat="47.0901050" lon="6.7089720">
        <ele>839.3</ele>
        <time>2022-07-21T15:57:42Z</time>
      </trkpt>
      <trkpt lat="47.0901090" lon="6.7089630">
        <ele>839.4</ele>
        <time>2022-07-21T15:57:43Z</time>
      </trkpt>
      <trkpt lat="47.0901090" lon="6.7089600">
        <ele>839.5</ele>
        <time>2022-07-21T15:57:44Z</time>
      </trkpt>
      <trkpt lat="47.0901110" lon="6.7089500">
        <ele>839.6</ele>
        <time>2022-07-21T15:57:45Z</time>
      </trkpt>
      <trkpt lat="47.0901120" lon="6.7089430">
        <ele>839.7</ele>
        <time>2022-07-21T15:57:47Z</time>
      </trkpt>
      <trkpt lat="47.0901130" lon="6.7089310">
        <ele>839.9</ele>
        <time>2022-07-21T15:57:48Z</time>
      </trkpt>
      <trkpt lat="47.0901140" lon="6.7089180">
        <ele>840.1</ele>
        <time>2022-07-21T15:57:49Z</time>
      </trkpt>
      <trkpt lat="47.0901150" lon="6.7089100">
        <ele>840.2</ele>
        <time>2022-07-21T15:57:51Z</time>
      </trkpt>
      <trkpt lat="47.0901150" lon="6.7089070">
        <ele>840.3</ele>
        <time>2022-07-21T15:57:52Z</time>
      </trkpt>
      <trkpt lat="47.0901160" lon="6.7089030">
        <ele>840.3</ele>
        <time>2022-07-21T15:57:53Z</time>
      </trkpt>
      <trkpt lat="47.0901180" lon="6.7088990">
        <ele>840.4</ele>
        <time>2022-07-21T15:57:54Z</time>
      </trkpt>
      <trkpt lat="47.0901190" lon="6.7088890">
        <ele>840.5</ele>
        <time>2022-07-21T15:57:55Z</time>
      </trkpt>
      <trkpt lat="47.0901160" lon="6.7088780">
        <ele>840.7</ele>
        <time>2022-07-21T15:57:56Z</time>
      </trkpt>
      <trkpt lat="47.0901110" lon="6.7088730">
        <ele>840.8</ele>
        <time>2022-07-21T15:57:57Z</time>
      </trkpt>
      <trkpt lat="47.0901060" lon="6.7088680">
        <ele>840.9</ele>
        <time>2022-07-21T15:57:58Z</time>
      </trkpt>
      <trkpt lat="47.0901010" lon="6.7088620">
        <ele>841.1</ele>
        <time>2022-07-21T15:58:00Z</time>
      </trkpt>
      <trkpt lat="47.0900960" lon="6.7088570">
        <ele>841.2</ele>
        <time>2022-07-21T15:58:01Z</time>
      </trkpt>
      <trkpt lat="47.0900910" lon="6.7088510">
        <ele>841.3</ele>
        <time>2022-07-21T15:58:03Z</time>
      </trkpt>
      <trkpt lat="47.0900860" lon="6.7088460">
        <ele>841.4</ele>
        <time>2022-07-21T15:58:04Z</time>
      </trkpt>
      <trkpt lat="47.0900820" lon="6.7088410">
        <ele>841.5</ele>
        <time>2022-07-21T15:58:18Z</time>
      </trkpt>
      <trkpt lat="47.0900770" lon="6.7088350">
        <ele>841.6</ele>
        <time>2022-07-21T15:58:19Z</time>
      </trkpt>
      <trkpt lat="47.0900720" lon="6.7088300">
        <ele>841.7</ele>
        <time>2022-07-21T15:58:20Z</time>
      </trkpt>
      <trkpt lat="47.0900350" lon="6.7088230">
        <ele>842.3</ele>
        <time>2022-07-21T15:58:21Z</time>
      </trkpt>
      <trkpt lat="47.0899890" lon="6.7088010">
        <ele>842.9</ele>
        <time>2022-07-21T15:58:23Z</time>
      </trkpt>
      <trkpt lat="47.0899730" lon="6.7087880">
        <ele>843.1</ele>
        <time>2022-07-21T15:58:24Z</time>
      </trkpt>
      <trkpt lat="47.0899570" lon="6.7087740">
        <ele>843.2</ele>
        <time>2022-07-21T15:58:25Z</time>
      </trkpt>
      <trkpt lat="47.0899250" lon="6.7087600">
        <ele>843.4</ele>
        <time>2022-07-21T15:58:26Z</time>
      </trkpt>
      <trkpt lat="47.0898860" lon="6.7087500">
        <ele>843.6</ele>
        <time>2022-07-21T15:58:28Z</time>
      </trkpt>
      <trkpt lat="47.0898400" lon="6.7087420">
        <ele>843.5</ele>
        <time>2022-07-21T15:58:29Z</time>
      </trkpt>
      <trkpt lat="47.0898080" lon="6.7087400">
        <ele>843.4</ele>
        <time>2022-07-21T15:58:30Z</time>
      </trkpt>
      <trkpt lat="47.0897720" lon="6.7087360">
        <ele>843.3</ele>
        <time>2022-07-21T15:58:31Z</time>
      </trkpt>
      <trkpt lat="47.0896740" lon="6.7087180">
        <ele>843.0</ele>
        <time>2022-07-21T15:58:33Z</time>
      </trkpt>
      <trkpt lat="47.0896290" lon="6.7086900">
        <ele>842.8</ele>
        <time>2022-07-21T15:58:34Z</time>
      </trkpt>
      <trkpt lat="47.0895820" lon="6.7086830">
        <ele>842.6</ele>
        <time>2022-07-21T15:58:35Z</time>
      </trkpt>
      <trkpt lat="47.0895400" lon="6.7086740">
        <ele>842.5</ele>
        <time>2022-07-21T15:58:37Z</time>
      </trkpt>
      <trkpt lat="47.0895010" lon="6.7086610">
        <ele>842.4</ele>
        <time>2022-07-21T15:58:38Z</time>
      </trkpt>
      <trkpt lat="47.0894720" lon="6.7086550">
        <ele>842.4</ele>
        <time>2022-07-21T15:58:39Z</time>
      </trkpt>
      <trkpt lat="47.0894410" lon="6.7086570">
        <ele>842.3</ele>
        <time>2022-07-21T15:58:40Z</time>
      </trkpt>
      <trkpt lat="47.0894110" lon="6.7086520">
        <ele>842.3</ele>
        <time>2022-07-21T15:58:41Z</time>
      </trkpt>
      <trkpt lat="47.0893730" lon="6.7086240">
        <ele>842.2</ele>
        <time>2022-07-21T15:58:43Z</time>
      </trkpt>
      <trkpt lat="47.0893500" lon="6.7086030">
        <ele>842.1</ele>
        <time>2022-07-21T15:58:44Z</time>
      </trkpt>
      <trkpt lat="47.0893110" lon="6.7085580">
        <ele>842.0</ele>
        <time>2022-07-21T15:58:45Z</time>
      </trkpt>
      <trkpt lat="47.0892870" lon="6.7085370">
        <ele>841.9</ele>
        <time>2022-07-21T15:58:46Z</time>
      </trkpt>
      <trkpt lat="47.0892410" lon="6.7084930">
        <ele>841.6</ele>
        <time>2022-07-21T15:58:47Z</time>
      </trkpt>
      <trkpt lat="47.0891360" lon="6.7084320">
        <ele>840.8</ele>
        <time>2022-07-21T15:58:49Z</time>
      </trkpt>
      <trkpt lat="47.0890990" lon="6.7084520">
        <ele>840.5</ele>
        <time>2022-07-21T15:58:50Z</time>
      </trkpt>
      <trkpt lat="47.0890640" lon="6.7084130">
        <ele>840.1</ele>
        <time>2022-07-21T15:58:51Z</time>
      </trkpt>
      <trkpt lat="47.0890520" lon="6.7083810">
        <ele>839.9</ele>
        <time>2022-07-21T15:58:52Z</time>
      </trkpt>
      <trkpt lat="47.0890080" lon="6.7082950">
        <ele>839.2</ele>
        <time>2022-07-21T15:58:54Z</time>
      </trkpt>
      <trkpt lat="47.0889660" lon="6.7082330">
        <ele>838.7</ele>
        <time>2022-07-21T15:58:55Z</time>
      </trkpt>
      <trkpt lat="47.0889180" lon="6.7081440">
        <ele>838.0</ele>
        <time>2022-07-21T15:58:56Z</time>
      </trkpt>
      <trkpt lat="47.0888770" lon="6.7080670">
        <ele>837.5</ele>
        <time>2022-07-21T15:58:57Z</time>
      </trkpt>
      <trkpt lat="47.0888370" lon="6.7080020">
        <ele>837.0</ele>
        <time>2022-07-21T15:58:58Z</time>
      </trkpt>
      <trkpt lat="47.0888030" lon="6.7079560">
        <ele>836.6</ele>
        <time>2022-07-21T15:58:59Z</time>
      </trkpt>
      <trkpt lat="47.0887600" lon="6.7079060">
        <ele>836.3</ele>
        <time>2022-07-21T15:59:00Z</time>
      </trkpt>
      <trkpt lat="47.0887160" lon="6.7078530">
        <ele>836.0</ele>
        <time>2022-07-21T15:59:01Z</time>
      </trkpt>
      <trkpt lat="47.0886820" lon="6.7077990">
        <ele>835.8</ele>
        <time>2022-07-21T15:59:02Z</time>
      </trkpt>
      <trkpt lat="47.0886540" lon="6.7077670">
        <ele>835.7</ele>
        <time>2022-07-21T15:59:03Z</time>
      </trkpt>
      <trkpt lat="47.0886230" lon="6.7077260">
        <ele>835.7</ele>
        <time>2022-07-21T15:59:04Z</time>
      </trkpt>
      <trkpt lat="47.0885920" lon="6.7076940">
        <ele>835.6</ele>
        <time>2022-07-21T15:59:05Z</time>
      </trkpt>
      <trkpt lat="47.0885580" lon="6.7076730">
        <ele>835.8</ele>
        <time>2022-07-21T15:59:06Z</time>
      </trkpt>
      <trkpt lat="47.0885280" lon="6.7076520">
        <ele>835.9</ele>
        <time>2022-07-21T15:59:07Z</time>
      </trkpt>
      <trkpt lat="47.0884980" lon="6.7076270">
        <ele>836.1</ele>
        <time>2022-07-21T15:59:08Z</time>
      </trkpt>
      <trkpt lat="47.0884620" lon="6.7076040">
        <ele>836.3</ele>
        <time>2022-07-21T15:59:09Z</time>
      </trkpt>
      <trkpt lat="47.0884240" lon="6.7075780">
        <ele>836.5</ele>
        <time>2022-07-21T15:59:10Z</time>
      </trkpt>
      <trkpt lat="47.0883920" lon="6.7075580">
        <ele>836.6</ele>
        <time>2022-07-21T15:59:11Z</time>
      </trkpt>
      <trkpt lat="47.0883610" lon="6.7075370">
        <ele>836.8</ele>
        <time>2022-07-21T15:59:12Z</time>
      </trkpt>
      <trkpt lat="47.0883310" lon="6.7075030">
        <ele>837.0</ele>
        <time>2022-07-21T15:59:13Z</time>
      </trkpt>
      <trkpt lat="47.0883210" lon="6.7074910">
        <ele>837.1</ele>
        <time>2022-07-21T15:59:14Z</time>
      </trkpt>
      <trkpt lat="47.0882970" lon="6.7074640">
        <ele>837.2</ele>
        <time>2022-07-21T15:59:15Z</time>
      </trkpt>
      <trkpt lat="47.0882730" lon="6.7074330">
        <ele>837.3</ele>
        <time>2022-07-21T15:59:16Z</time>
      </trkpt>
      <trkpt lat="47.0882440" lon="6.7074050">
        <ele>837.5</ele>
        <time>2022-07-21T15:59:17Z</time>
      </trkpt>
      <trkpt lat="47.0882160" lon="6.7073810">
        <ele>837.6</ele>
        <time>2022-07-21T15:59:18Z</time>
      </trkpt>
      <trkpt lat="47.0881940" lon="6.7073570">
        <ele>837.7</ele>
        <time>2022-07-21T15:59:19Z</time>
      </trkpt>
      <trkpt lat="47.0881670" lon="6.7073190">
        <ele>837.8</ele>
        <time>2022-07-21T15:59:20Z</time>
      </trkpt>
      <trkpt lat="47.0881600" lon="6.7073060">
        <ele>837.9</ele>
        <time>2022-07-21T15:59:21Z</time>
      </trkpt>
      <trkpt lat="47.0881390" lon="6.7072760">
        <ele>838.0</ele>
        <time>2022-07-21T15:59:22Z</time>
      </trkpt>
      <trkpt lat="47.0881190" lon="6.7072470">
        <ele>838.1</ele>
        <time>2022-07-21T15:59:23Z</time>
      </trkpt>
      <trkpt lat="47.0881090" lon="6.7072360">
        <ele>838.1</ele>
        <time>2022-07-21T15:59:24Z</time>
      </trkpt>
      <trkpt lat="47.0880790" lon="6.7072060">
        <ele>838.2</ele>
        <time>2022-07-21T15:59:25Z</time>
      </trkpt>
      <trkpt lat="47.0880680" lon="6.7071960">
        <ele>838.3</ele>
        <time>2022-07-21T15:59:26Z</time>
      </trkpt>
      <trkpt lat="47.0880330" lon="6.7071730">
        <ele>838.4</ele>
        <time>2022-07-21T15:59:27Z</time>
      </trkpt>
      <trkpt lat="47.0880200" lon="6.7071650">
        <ele>838.4</ele>
        <time>2022-07-21T15:59:28Z</time>
      </trkpt>
      <trkpt lat="47.0879920" lon="6.7071510">
        <ele>838.5</ele>
        <time>2022-07-21T15:59:29Z</time>
      </trkpt>
      <trkpt lat="47.0879660" lon="6.7071380">
        <ele>838.5</ele>
        <time>2022-07-21T15:59:30Z</time>
      </trkpt>
      <trkpt lat="47.0879310" lon="6.7071170">
        <ele>838.6</ele>
        <time>2022-07-21T15:59:31Z</time>
      </trkpt>
      <trkpt lat="47.0879200" lon="6.7071080">
        <ele>838.7</ele>
        <time>2022-07-21T15:59:32Z</time>
      </trkpt>
      <trkpt lat="47.0878940" lon="6.7070880">
        <ele>838.7</ele>
        <time>2022-07-21T15:59:33Z</time>
      </trkpt>
      <trkpt lat="47.0878680" lon="6.7070720">
        <ele>838.8</ele>
        <time>2022-07-21T15:59:34Z</time>
      </trkpt>
      <trkpt lat="47.0878390" lon="6.7070540">
        <ele>838.9</ele>
        <time>2022-07-21T15:59:35Z</time>
      </trkpt>
      <trkpt lat="47.0878040" lon="6.7070420">
        <ele>839.0</ele>
        <time>2022-07-21T15:59:36Z</time>
      </trkpt>
      <trkpt lat="47.0877940" lon="6.7070420">
        <ele>839.0</ele>
        <time>2022-07-21T15:59:37Z</time>
      </trkpt>
      <trkpt lat="47.0877590" lon="6.7070350">
        <ele>839.1</ele>
        <time>2022-07-21T15:59:38Z</time>
      </trkpt>
      <trkpt lat="47.0877500" lon="6.7070310">
        <ele>839.1</ele>
        <time>2022-07-21T15:59:39Z</time>
      </trkpt>
      <trkpt lat="47.0877290" lon="6.7070250">
        <ele>839.1</ele>
        <time>2022-07-21T15:59:40Z</time>
      </trkpt>
      <trkpt lat="47.0877170" lon="6.7070210">
        <ele>839.2</ele>
        <time>2022-07-21T15:59:41Z</time>
      </trkpt>
      <trkpt lat="47.0877060" lon="6.7070170">
        <ele>839.2</ele>
        <time>2022-07-21T15:59:42Z</time>
      </trkpt>
      <trkpt lat="47.0876750" lon="6.7070110">
        <ele>839.3</ele>
        <time>2022-07-21T15:59:43Z</time>
      </trkpt>
      <trkpt lat="47.0876680" lon="6.7070080">
        <ele>839.3</ele>
        <time>2022-07-21T15:59:44Z</time>
      </trkpt>
      <trkpt lat="47.0876550" lon="6.7070060">
        <ele>839.3</ele>
        <time>2022-07-21T15:59:45Z</time>
      </trkpt>
      <trkpt lat="47.0876400" lon="6.7070050">
        <ele>839.4</ele>
        <time>2022-07-21T15:59:46Z</time>
      </trkpt>
      <trkpt lat="47.0876120" lon="6.7070130">
        <ele>839.5</ele>
        <time>2022-07-21T15:59:47Z</time>
      </trkpt>
      <trkpt lat="47.0875820" lon="6.7070210">
        <ele>839.6</ele>
        <time>2022-07-21T15:59:48Z</time>
      </trkpt>
      <trkpt lat="47.0875550" lon="6.7070270">
        <ele>839.7</ele>
        <time>2022-07-21T15:59:49Z</time>
      </trkpt>
      <trkpt lat="47.0875240" lon="6.7070330">
        <ele>839.8</ele>
        <time>2022-07-21T15:59:50Z</time>
      </trkpt>
      <trkpt lat="47.0874850" lon="6.7070410">
        <ele>840.0</ele>
        <time>2022-07-21T15:59:51Z</time>
      </trkpt>
      <trkpt lat="47.0874460" lon="6.7070510">
        <ele>840.1</ele>
        <time>2022-07-21T15:59:52Z</time>
      </trkpt>
      <trkpt lat="47.0874330" lon="6.7070530">
        <ele>840.2</ele>
        <time>2022-07-21T15:59:53Z</time>
      </trkpt>
      <trkpt lat="47.0873950" lon="6.7070590">
        <ele>840.3</ele>
        <time>2022-07-21T15:59:54Z</time>
      </trkpt>
      <trkpt lat="47.0873820" lon="6.7070610">
        <ele>840.4</ele>
        <time>2022-07-21T15:59:55Z</time>
      </trkpt>
      <trkpt lat="47.0873600" lon="6.7070670">
        <ele>840.5</ele>
        <time>2022-07-21T15:59:56Z</time>
      </trkpt>
      <trkpt lat="47.0873540" lon="6.7070710">
        <ele>840.6</ele>
        <time>2022-07-21T15:59:57Z</time>
      </trkpt>
      <trkpt lat="47.0873470" lon="6.7070740">
        <ele>840.6</ele>
        <time>2022-07-21T15:59:58Z</time>
      </trkpt>
      <trkpt lat="47.0873120" lon="6.7070800">
        <ele>840.8</ele>
        <time>2022-07-21T15:59:59Z</time>
      </trkpt>
      <trkpt lat="47.0873010" lon="6.7070790">
        <ele>840.8</ele>
        <time>2022-07-21T16:00:00Z</time>
      </trkpt>
      <trkpt lat="47.0872750" lon="6.7070760">
        <ele>841.0</ele>
        <time>2022-07-21T16:00:01Z</time>
      </trkpt>
      <trkpt lat="47.0872650" lon="6.7070740">
        <ele>841.0</ele>
        <time>2022-07-21T16:00:02Z</time>
      </trkpt>
      <trkpt lat="47.0872460" lon="6.7070750">
        <ele>841.1</ele>
        <time>2022-07-21T16:00:03Z</time>
      </trkpt>
      <trkpt lat="47.0872290" lon="6.7070780">
        <ele>841.2</ele>
        <time>2022-07-21T16:00:04Z</time>
      </trkpt>
      <trkpt lat="47.0872040" lon="6.7070800">
        <ele>841.3</ele>
        <time>2022-07-21T16:00:05Z</time>
      </trkpt>
      <trkpt lat="47.0871910" lon="6.7070790">
        <ele>841.4</ele>
        <time>2022-07-21T16:00:06Z</time>
      </trkpt>
      <trkpt lat="47.0871580" lon="6.7070780">
        <ele>841.6</ele>
        <time>2022-07-21T16:00:07Z</time>
      </trkpt>
      <trkpt lat="47.0871490" lon="6.7070770">
        <ele>841.7</ele>
        <time>2022-07-21T16:00:08Z</time>
      </trkpt>
      <trkpt lat="47.0871200" lon="6.7070710">
        <ele>841.9</ele>
        <time>2022-07-21T16:00:09Z</time>
      </trkpt>
      <trkpt lat="47.0871110" lon="6.7070700">
        <ele>842.0</ele>
        <time>2022-07-21T16:00:10Z</time>
      </trkpt>
      <trkpt lat="47.0870810" lon="6.7070640">
        <ele>842.2</ele>
        <time>2022-07-21T16:00:11Z</time>
      </trkpt>
      <trkpt lat="47.0870700" lon="6.7070620">
        <ele>842.3</ele>
        <time>2022-07-21T16:00:12Z</time>
      </trkpt>
      <trkpt lat="47.0870400" lon="6.7070560">
        <ele>842.5</ele>
        <time>2022-07-21T16:00:13Z</time>
      </trkpt>
      <trkpt lat="47.0870290" lon="6.7070540">
        <ele>842.6</ele>
        <time>2022-07-21T16:00:14Z</time>
      </trkpt>
      <trkpt lat="47.0869950" lon="6.7070440">
        <ele>842.9</ele>
        <time>2022-07-21T16:00:15Z</time>
      </trkpt>
      <trkpt lat="47.0869850" lon="6.7070410">
        <ele>843.0</ele>
        <time>2022-07-21T16:00:16Z</time>
      </trkpt>
      <trkpt lat="47.0869560" lon="6.7070340">
        <ele>843.2</ele>
        <time>2022-07-21T16:00:17Z</time>
      </trkpt>
      <trkpt lat="47.0869440" lon="6.7070320">
        <ele>843.3</ele>
        <time>2022-07-21T16:00:18Z</time>
      </trkpt>
      <trkpt lat="47.0869280" lon="6.7070230">
        <ele>843.5</ele>
        <time>2022-07-21T16:00:19Z</time>
      </trkpt>
      <trkpt lat="47.0869120" lon="6.7070170">
        <ele>843.6</ele>
        <time>2022-07-21T16:00:20Z</time>
      </trkpt>
      <trkpt lat="47.0868950" lon="6.7070120">
        <ele>843.8</ele>
        <time>2022-07-21T16:00:21Z</time>
      </trkpt>
      <trkpt lat="47.0868840" lon="6.7070090">
        <ele>843.9</ele>
        <time>2022-07-21T16:00:22Z</time>
      </trkpt>
      <trkpt lat="47.0868670" lon="6.7070050">
        <ele>844.1</ele>
        <time>2022-07-21T16:00:23Z</time>
      </trkpt>
      <trkpt lat="47.0868550" lon="6.7070010">
        <ele>844.2</ele>
        <time>2022-07-21T16:00:24Z</time>
      </trkpt>
      <trkpt lat="47.0868280" lon="6.7069930">
        <ele>844.6</ele>
        <time>2022-07-21T16:00:25Z</time>
      </trkpt>
      <trkpt lat="47.0868190" lon="6.7069900">
        <ele>844.7</ele>
        <time>2022-07-21T16:00:26Z</time>
      </trkpt>
      <trkpt lat="47.0868080" lon="6.7069830">
        <ele>844.8</ele>
        <time>2022-07-21T16:00:27Z</time>
      </trkpt>
      <trkpt lat="47.0867920" lon="6.7069740">
        <ele>845.0</ele>
        <time>2022-07-21T16:00:29Z</time>
      </trkpt>
      <trkpt lat="47.0867810" lon="6.7069680">
        <ele>845.2</ele>
        <time>2022-07-21T16:00:30Z</time>
      </trkpt>
      <trkpt lat="47.0867730" lon="6.7069630">
        <ele>845.3</ele>
        <time>2022-07-21T16:00:31Z</time>
      </trkpt>
      <trkpt lat="47.0867650" lon="6.7069590">
        <ele>845.4</ele>
        <time>2022-07-21T16:00:32Z</time>
      </trkpt>
      <trkpt lat="47.0867460" lon="6.7069490">
        <ele>845.6</ele>
        <time>2022-07-21T16:00:33Z</time>
      </trkpt>
      <trkpt lat="47.0867370" lon="6.7069450">
        <ele>845.8</ele>
        <time>2022-07-21T16:00:34Z</time>
      </trkpt>
      <trkpt lat="47.0867270" lon="6.7069400">
        <ele>845.9</ele>
        <time>2022-07-21T16:00:35Z</time>
      </trkpt>
      <trkpt lat="47.0867110" lon="6.7069340">
        <ele>846.1</ele>
        <time>2022-07-21T16:00:36Z</time>
      </trkpt>
      <trkpt lat="47.0866990" lon="6.7069320">
        <ele>846.3</ele>
        <time>2022-07-21T16:00:37Z</time>
      </trkpt>
      <trkpt lat="47.0866770" lon="6.7069270">
        <ele>846.6</ele>
        <time>2022-07-21T16:00:39Z</time>
      </trkpt>
      <trkpt lat="47.0866700" lon="6.7069240">
        <ele>846.7</ele>
        <time>2022-07-21T16:00:40Z</time>
      </trkpt>
      <trkpt lat="47.0866620" lon="6.7069220">
        <ele>846.8</ele>
        <time>2022-07-21T16:00:41Z</time>
      </trkpt>
      <trkpt lat="47.0866530" lon="6.7069180">
        <ele>846.9</ele>
        <time>2022-07-21T16:00:42Z</time>
      </trkpt>
      <trkpt lat="47.0866410" lon="6.7069170">
        <ele>847.1</ele>
        <time>2022-07-21T16:00:43Z</time>
      </trkpt>
      <trkpt lat="47.0866320" lon="6.7069160">
        <ele>847.2</ele>
        <time>2022-07-21T16:00:44Z</time>
      </trkpt>
      <trkpt lat="47.0866120" lon="6.7069090">
        <ele>847.5</ele>
        <time>2022-07-21T16:00:45Z</time>
      </trkpt>
      <trkpt lat="47.0866030" lon="6.7069060">
        <ele>847.6</ele>
        <time>2022-07-21T16:00:46Z</time>
      </trkpt>
      <trkpt lat="47.0865940" lon="6.7069030">
        <ele>847.8</ele>
        <time>2022-07-21T16:00:47Z</time>
      </trkpt>
      <trkpt lat="47.0865670" lon="6.7068960">
        <ele>848.2</ele>
        <time>2022-07-21T16:00:48Z</time>
      </trkpt>
      <trkpt lat="47.0865560" lon="6.7068930">
        <ele>848.3</ele>
        <time>2022-07-21T16:00:49Z</time>
      </trkpt>
      <trkpt lat="47.0865380" lon="6.7068860">
        <ele>848.6</ele>
        <time>2022-07-21T16:00:51Z</time>
      </trkpt>
      <trkpt lat="47.0865250" lon="6.7068820">
        <ele>848.8</ele>
        <time>2022-07-21T16:00:52Z</time>
      </trkpt>
      <trkpt lat="47.0864950" lon="6.7068730">
        <ele>849.2</ele>
        <time>2022-07-21T16:00:53Z</time>
      </trkpt>
      <trkpt lat="47.0864870" lon="6.7068710">
        <ele>849.4</ele>
        <time>2022-07-21T16:00:54Z</time>
      </trkpt>
      <trkpt lat="47.0864720" lon="6.7068660">
        <ele>849.6</ele>
        <time>2022-07-21T16:00:55Z</time>
      </trkpt>
      <trkpt lat="47.0864530" lon="6.7068610">
        <ele>849.8</ele>
        <time>2022-07-21T16:00:56Z</time>
      </trkpt>
      <trkpt lat="47.0864380" lon="6.7068560">
        <ele>849.9</ele>
        <time>2022-07-21T16:00:57Z</time>
      </trkpt>
      <trkpt lat="47.0864210" lon="6.7068500">
        <ele>850.1</ele>
        <time>2022-07-21T16:00:58Z</time>
      </trkpt>
      <trkpt lat="47.0864050" lon="6.7068460">
        <ele>850.3</ele>
        <time>2022-07-21T16:00:59Z</time>
      </trkpt>
      <trkpt lat="47.0863650" lon="6.7068310">
        <ele>850.7</ele>
        <time>2022-07-21T16:01:01Z</time>
      </trkpt>
      <trkpt lat="47.0863330" lon="6.7068160">
        <ele>851.1</ele>
        <time>2022-07-21T16:01:02Z</time>
      </trkpt>
      <trkpt lat="47.0863220" lon="6.7068110">
        <ele>851.2</ele>
        <time>2022-07-21T16:01:03Z</time>
      </trkpt>
      <trkpt lat="47.0862970" lon="6.7067940">
        <ele>851.5</ele>
        <time>2022-07-21T16:01:04Z</time>
      </trkpt>
      <trkpt lat="47.0862890" lon="6.7067880">
        <ele>851.6</ele>
        <time>2022-07-21T16:01:05Z</time>
      </trkpt>
      <trkpt lat="47.0862740" lon="6.7067750">
        <ele>851.8</ele>
        <time>2022-07-21T16:01:06Z</time>
      </trkpt>
      <trkpt lat="47.0862600" lon="6.7067640">
        <ele>852.0</ele>
        <time>2022-07-21T16:01:07Z</time>
      </trkpt>
      <trkpt lat="47.0862350" lon="6.7067400">
        <ele>852.3</ele>
        <time>2022-07-21T16:01:08Z</time>
      </trkpt>
      <trkpt lat="47.0862250" lon="6.7067320">
        <ele>852.4</ele>
        <time>2022-07-21T16:01:09Z</time>
      </trkpt>
      <trkpt lat="47.0862090" lon="6.7067190">
        <ele>852.6</ele>
        <time>2022-07-21T16:01:10Z</time>
      </trkpt>
      <trkpt lat="47.0861940" lon="6.7067090">
        <ele>852.8</ele>
        <time>2022-07-21T16:01:11Z</time>
      </trkpt>
      <trkpt lat="47.0861780" lon="6.7067010">
        <ele>853.0</ele>
        <time>2022-07-21T16:01:12Z</time>
      </trkpt>
      <trkpt lat="47.0861630" lon="6.7066930">
        <ele>853.1</ele>
        <time>2022-07-21T16:01:13Z</time>
      </trkpt>
      <trkpt lat="47.0861500" lon="6.7066880">
        <ele>853.3</ele>
        <time>2022-07-21T16:01:14Z</time>
      </trkpt>
      <trkpt lat="47.0861350" lon="6.7066830">
        <ele>853.4</ele>
        <time>2022-07-21T16:01:15Z</time>
      </trkpt>
      <trkpt lat="47.0861220" lon="6.7066780">
        <ele>853.6</ele>
        <time>2022-07-21T16:01:16Z</time>
      </trkpt>
      <trkpt lat="47.0861020" lon="6.7066710">
        <ele>853.8</ele>
        <time>2022-07-21T16:01:17Z</time>
      </trkpt>
      <trkpt lat="47.0860740" lon="6.7066610">
        <ele>854.0</ele>
        <time>2022-07-21T16:01:18Z</time>
      </trkpt>
      <trkpt lat="47.0860660" lon="6.7066580">
        <ele>854.1</ele>
        <time>2022-07-21T16:01:19Z</time>
      </trkpt>
      <trkpt lat="47.0860450" lon="6.7066520">
        <ele>854.3</ele>
        <time>2022-07-21T16:01:20Z</time>
      </trkpt>
      <trkpt lat="47.0860370" lon="6.7066500">
        <ele>854.4</ele>
        <time>2022-07-21T16:01:21Z</time>
      </trkpt>
      <trkpt lat="47.0860290" lon="6.7066480">
        <ele>854.5</ele>
        <time>2022-07-21T16:01:22Z</time>
      </trkpt>
      <trkpt lat="47.0860150" lon="6.7066430">
        <ele>854.6</ele>
        <time>2022-07-21T16:01:23Z</time>
      </trkpt>
      <trkpt lat="47.0859980" lon="6.7066390">
        <ele>854.8</ele>
        <time>2022-07-21T16:01:24Z</time>
      </trkpt>
      <trkpt lat="47.0859820" lon="6.7066370">
        <ele>855.0</ele>
        <time>2022-07-21T16:01:25Z</time>
      </trkpt>
      <trkpt lat="47.0859700" lon="6.7066350">
        <ele>855.1</ele>
        <time>2022-07-21T16:01:26Z</time>
      </trkpt>
      <trkpt lat="47.0859470" lon="6.7066330">
        <ele>855.3</ele>
        <time>2022-07-21T16:01:27Z</time>
      </trkpt>
      <trkpt lat="47.0859380" lon="6.7066300">
        <ele>855.4</ele>
        <time>2022-07-21T16:01:28Z</time>
      </trkpt>
      <trkpt lat="47.0859300" lon="6.7066280">
        <ele>855.5</ele>
        <time>2022-07-21T16:01:29Z</time>
      </trkpt>
      <trkpt lat="47.0859150" lon="6.7066210">
        <ele>855.6</ele>
        <time>2022-07-21T16:01:30Z</time>
      </trkpt>
      <trkpt lat="47.0859030" lon="6.7066140">
        <ele>855.7</ele>
        <time>2022-07-21T16:01:31Z</time>
      </trkpt>
      <trkpt lat="47.0858920" lon="6.7066070">
        <ele>855.9</ele>
        <time>2022-07-21T16:01:32Z</time>
      </trkpt>
      <trkpt lat="47.0858780" lon="6.7065970">
        <ele>856.0</ele>
        <time>2022-07-21T16:01:33Z</time>
      </trkpt>
      <trkpt lat="47.0858540" lon="6.7065870">
        <ele>856.3</ele>
        <time>2022-07-21T16:01:34Z</time>
      </trkpt>
      <trkpt lat="47.0858430" lon="6.7065840">
        <ele>856.4</ele>
        <time>2022-07-21T16:01:35Z</time>
      </trkpt>
      <trkpt lat="47.0858260" lon="6.7065800">
        <ele>856.5</ele>
        <time>2022-07-21T16:01:36Z</time>
      </trkpt>
      <trkpt lat="47.0858130" lon="6.7065770">
        <ele>856.7</ele>
        <time>2022-07-21T16:01:37Z</time>
      </trkpt>
      <trkpt lat="47.0857850" lon="6.7065670">
        <ele>857.0</ele>
        <time>2022-07-21T16:01:38Z</time>
      </trkpt>
      <trkpt lat="47.0857750" lon="6.7065640">
        <ele>857.1</ele>
        <time>2022-07-21T16:01:39Z</time>
      </trkpt>
      <trkpt lat="47.0857600" lon="6.7065570">
        <ele>857.2</ele>
        <time>2022-07-21T16:01:40Z</time>
      </trkpt>
      <trkpt lat="47.0857490" lon="6.7065470">
        <ele>857.4</ele>
        <time>2022-07-21T16:01:41Z</time>
      </trkpt>
      <trkpt lat="47.0857330" lon="6.7065320">
        <ele>857.6</ele>
        <time>2022-07-21T16:01:42Z</time>
      </trkpt>
      <trkpt lat="47.0857240" lon="6.7065230">
        <ele>857.7</ele>
        <time>2022-07-21T16:01:43Z</time>
      </trkpt>
      <trkpt lat="47.0857160" lon="6.7065130">
        <ele>857.8</ele>
        <time>2022-07-21T16:01:44Z</time>
      </trkpt>
      <trkpt lat="47.0856970" lon="6.7064960">
        <ele>858.0</ele>
        <time>2022-07-21T16:01:45Z</time>
      </trkpt>
      <trkpt lat="47.0856880" lon="6.7064890">
        <ele>858.1</ele>
        <time>2022-07-21T16:01:46Z</time>
      </trkpt>
      <trkpt lat="47.0856790" lon="6.7064820">
        <ele>858.2</ele>
        <time>2022-07-21T16:01:47Z</time>
      </trkpt>
      <trkpt lat="47.0856600" lon="6.7064650">
        <ele>858.5</ele>
        <time>2022-07-21T16:01:48Z</time>
      </trkpt>
      <trkpt lat="47.0856520" lon="6.7064590">
        <ele>858.6</ele>
        <time>2022-07-21T16:01:49Z</time>
      </trkpt>
      <trkpt lat="47.0856450" lon="6.7064530">
        <ele>858.7</ele>
        <time>2022-07-21T16:01:50Z</time>
      </trkpt>
      <trkpt lat="47.0856350" lon="6.7064440">
        <ele>858.8</ele>
        <time>2022-07-21T16:01:51Z</time>
      </trkpt>
      <trkpt lat="47.0856250" lon="6.7064350">
        <ele>858.9</ele>
        <time>2022-07-21T16:01:52Z</time>
      </trkpt>
      <trkpt lat="47.0856160" lon="6.7064270">
        <ele>859.1</ele>
        <time>2022-07-21T16:01:53Z</time>
      </trkpt>
      <trkpt lat="47.0856050" lon="6.7064190">
        <ele>859.2</ele>
        <time>2022-07-21T16:01:54Z</time>
      </trkpt>
      <trkpt lat="47.0855900" lon="6.7064130">
        <ele>859.4</ele>
        <time>2022-07-21T16:01:55Z</time>
      </trkpt>
      <trkpt lat="47.0855750" lon="6.7064080">
        <ele>859.6</ele>
        <time>2022-07-21T16:01:56Z</time>
      </trkpt>
      <trkpt lat="47.0855600" lon="6.7064020">
        <ele>859.8</ele>
        <time>2022-07-21T16:01:57Z</time>
      </trkpt>
      <trkpt lat="47.0855400" lon="6.7063890">
        <ele>860.0</ele>
        <time>2022-07-21T16:01:58Z</time>
      </trkpt>
      <trkpt lat="47.0855330" lon="6.7063840">
        <ele>860.1</ele>
        <time>2022-07-21T16:01:59Z</time>
      </trkpt>
      <trkpt lat="47.0855260" lon="6.7063780">
        <ele>860.2</ele>
        <time>2022-07-21T16:02:00Z</time>
      </trkpt>
      <trkpt lat="47.0855190" lon="6.7063710">
        <ele>860.3</ele>
        <time>2022-07-21T16:02:01Z</time>
      </trkpt>
      <trkpt lat="47.0855120" lon="6.7063660">
        <ele>860.4</ele>
        <time>2022-07-21T16:02:02Z</time>
      </trkpt>
      <trkpt lat="47.0855030" lon="6.7063570">
        <ele>860.5</ele>
        <time>2022-07-21T16:02:03Z</time>
      </trkpt>
      <trkpt lat="47.0854970" lon="6.7063470">
        <ele>860.6</ele>
        <time>2022-07-21T16:02:04Z</time>
      </trkpt>
      <trkpt lat="47.0854910" lon="6.7063390">
        <ele>860.7</ele>
        <time>2022-07-21T16:02:05Z</time>
      </trkpt>
      <trkpt lat="47.0854860" lon="6.7063280">
        <ele>860.8</ele>
        <time>2022-07-21T16:02:06Z</time>
      </trkpt>
      <trkpt lat="47.0854820" lon="6.7063180">
        <ele>860.9</ele>
        <time>2022-07-21T16:02:07Z</time>
      </trkpt>
      <trkpt lat="47.0854770" lon="6.7063070">
        <ele>861.0</ele>
        <time>2022-07-21T16:02:08Z</time>
      </trkpt>
      <trkpt lat="47.0854680" lon="6.7062990">
        <ele>861.2</ele>
        <time>2022-07-21T16:02:09Z</time>
      </trkpt>
      <trkpt lat="47.0854580" lon="6.7062910">
        <ele>861.3</ele>
        <time>2022-07-21T16:02:10Z</time>
      </trkpt>
      <trkpt lat="47.0854500" lon="6.7062780">
        <ele>861.5</ele>
        <time>2022-07-21T16:02:11Z</time>
      </trkpt>
      <trkpt lat="47.0854430" lon="6.7062650">
        <ele>861.6</ele>
        <time>2022-07-21T16:02:12Z</time>
      </trkpt>
      <trkpt lat="47.0854360" lon="6.7062550">
        <ele>861.7</ele>
        <time>2022-07-21T16:02:13Z</time>
      </trkpt>
      <trkpt lat="47.0854200" lon="6.7062390">
        <ele>862.0</ele>
        <time>2022-07-21T16:02:14Z</time>
      </trkpt>
      <trkpt lat="47.0854120" lon="6.7062330">
        <ele>862.1</ele>
        <time>2022-07-21T16:02:15Z</time>
      </trkpt>
      <trkpt lat="47.0854050" lon="6.7062270">
        <ele>862.2</ele>
        <time>2022-07-21T16:02:16Z</time>
      </trkpt>
      <trkpt lat="47.0853870" lon="6.7062140">
        <ele>862.4</ele>
        <time>2022-07-21T16:02:17Z</time>
      </trkpt>
      <trkpt lat="47.0853790" lon="6.7062100">
        <ele>862.6</ele>
        <time>2022-07-21T16:02:18Z</time>
      </trkpt>
      <trkpt lat="47.0853720" lon="6.7062050">
        <ele>862.7</ele>
        <time>2022-07-21T16:02:19Z</time>
      </trkpt>
      <trkpt lat="47.0853580" lon="6.7061970">
        <ele>862.8</ele>
        <time>2022-07-21T16:02:20Z</time>
      </trkpt>
      <trkpt lat="47.0853450" lon="6.7061830">
        <ele>863.1</ele>
        <time>2022-07-21T16:02:21Z</time>
      </trkpt>
      <trkpt lat="47.0853340" lon="6.7061690">
        <ele>863.3</ele>
        <time>2022-07-21T16:02:22Z</time>
      </trkpt>
      <trkpt lat="47.0853260" lon="6.7061610">
        <ele>863.4</ele>
        <time>2022-07-21T16:02:23Z</time>
      </trkpt>
      <trkpt lat="47.0853160" lon="6.7061520">
        <ele>863.6</ele>
        <time>2022-07-21T16:02:24Z</time>
      </trkpt>
      <trkpt lat="47.0852960" lon="6.7061400">
        <ele>863.8</ele>
        <time>2022-07-21T16:02:25Z</time>
      </trkpt>
      <trkpt lat="47.0852870" lon="6.7061370">
        <ele>864.0</ele>
        <time>2022-07-21T16:02:26Z</time>
      </trkpt>
      <trkpt lat="47.0852780" lon="6.7061350">
        <ele>864.1</ele>
        <time>2022-07-21T16:02:27Z</time>
      </trkpt>
      <trkpt lat="47.0852640" lon="6.7061280">
        <ele>864.3</ele>
        <time>2022-07-21T16:02:28Z</time>
      </trkpt>
      <trkpt lat="47.0852530" lon="6.7061190">
        <ele>864.5</ele>
        <time>2022-07-21T16:02:29Z</time>
      </trkpt>
      <trkpt lat="47.0852450" lon="6.7061110">
        <ele>864.6</ele>
        <time>2022-07-21T16:02:30Z</time>
      </trkpt>
      <trkpt lat="47.0852400" lon="6.7061010">
        <ele>864.7</ele>
        <time>2022-07-21T16:02:31Z</time>
      </trkpt>
      <trkpt lat="47.0852340" lon="6.7060890">
        <ele>864.9</ele>
        <time>2022-07-21T16:02:32Z</time>
      </trkpt>
      <trkpt lat="47.0852290" lon="6.7060800">
        <ele>865.0</ele>
        <time>2022-07-21T16:02:33Z</time>
      </trkpt>
      <trkpt lat="47.0852220" lon="6.7060700">
        <ele>865.1</ele>
        <time>2022-07-21T16:02:34Z</time>
      </trkpt>
      <trkpt lat="47.0852120" lon="6.7060650">
        <ele>865.3</ele>
        <time>2022-07-21T16:02:35Z</time>
      </trkpt>
      <trkpt lat="47.0852020" lon="6.7060640">
        <ele>865.4</ele>
        <time>2022-07-21T16:02:36Z</time>
      </trkpt>
      <trkpt lat="47.0851940" lon="6.7060650">
        <ele>865.5</ele>
        <time>2022-07-21T16:02:37Z</time>
      </trkpt>
      <trkpt lat="47.0851860" lon="6.7060590">
        <ele>865.6</ele>
        <time>2022-07-21T16:02:38Z</time>
      </trkpt>
      <trkpt lat="47.0851830" lon="6.7060450">
        <ele>865.8</ele>
        <time>2022-07-21T16:02:39Z</time>
      </trkpt>
      <trkpt lat="47.0851820" lon="6.7060310">
        <ele>865.9</ele>
        <time>2022-07-21T16:02:40Z</time>
      </trkpt>
      <trkpt lat="47.0851800" lon="6.7060110">
        <ele>866.1</ele>
        <time>2022-07-21T16:02:41Z</time>
      </trkpt>
      <trkpt lat="47.0851790" lon="6.7059970">
        <ele>866.2</ele>
        <time>2022-07-21T16:02:42Z</time>
      </trkpt>
      <trkpt lat="47.0851780" lon="6.7059840">
        <ele>866.4</ele>
        <time>2022-07-21T16:02:43Z</time>
      </trkpt>
      <trkpt lat="47.0851760" lon="6.7059740">
        <ele>866.4</ele>
        <time>2022-07-21T16:02:44Z</time>
      </trkpt>
      <trkpt lat="47.0851700" lon="6.7059620">
        <ele>866.6</ele>
        <time>2022-07-21T16:02:45Z</time>
      </trkpt>
      <trkpt lat="47.0851620" lon="6.7059530">
        <ele>866.7</ele>
        <time>2022-07-21T16:02:46Z</time>
      </trkpt>
      <trkpt lat="47.0851560" lon="6.7059460">
        <ele>866.8</ele>
        <time>2022-07-21T16:02:47Z</time>
      </trkpt>
      <trkpt lat="47.0851500" lon="6.7059390">
        <ele>866.9</ele>
        <time>2022-07-21T16:02:48Z</time>
      </trkpt>
      <trkpt lat="47.0851440" lon="6.7059290">
        <ele>867.0</ele>
        <time>2022-07-21T16:02:49Z</time>
      </trkpt>
      <trkpt lat="47.0851360" lon="6.7059170">
        <ele>867.2</ele>
        <time>2022-07-21T16:02:50Z</time>
      </trkpt>
      <trkpt lat="47.0851200" lon="6.7059080">
        <ele>867.4</ele>
        <time>2022-07-21T16:02:51Z</time>
      </trkpt>
      <trkpt lat="47.0851080" lon="6.7059070">
        <ele>867.6</ele>
        <time>2022-07-21T16:02:52Z</time>
      </trkpt>
      <trkpt lat="47.0850890" lon="6.7059050">
        <ele>867.8</ele>
        <time>2022-07-21T16:02:53Z</time>
      </trkpt>
      <trkpt lat="47.0850720" lon="6.7059030">
        <ele>868.1</ele>
        <time>2022-07-21T16:02:54Z</time>
      </trkpt>
      <trkpt lat="47.0850560" lon="6.7058890">
        <ele>868.3</ele>
        <time>2022-07-21T16:02:55Z</time>
      </trkpt>
      <trkpt lat="47.0850480" lon="6.7058810">
        <ele>868.4</ele>
        <time>2022-07-21T16:02:56Z</time>
      </trkpt>
      <trkpt lat="47.0850410" lon="6.7058720">
        <ele>868.5</ele>
        <time>2022-07-21T16:02:57Z</time>
      </trkpt>
      <trkpt lat="47.0850410" lon="6.7058510">
        <ele>868.7</ele>
        <time>2022-07-21T16:02:58Z</time>
      </trkpt>
      <trkpt lat="47.0850430" lon="6.7058430">
        <ele>868.8</ele>
        <time>2022-07-21T16:02:59Z</time>
      </trkpt>
      <trkpt lat="47.0850440" lon="6.7058270">
        <ele>868.9</ele>
        <time>2022-07-21T16:03:00Z</time>
      </trkpt>
      <trkpt lat="47.0850430" lon="6.7058060">
        <ele>869.1</ele>
        <time>2022-07-21T16:03:01Z</time>
      </trkpt>
      <trkpt lat="47.0850400" lon="6.7057950">
        <ele>869.2</ele>
        <time>2022-07-21T16:03:02Z</time>
      </trkpt>
      <trkpt lat="47.0850340" lon="6.7057840">
        <ele>869.4</ele>
        <time>2022-07-21T16:03:03Z</time>
      </trkpt>
      <trkpt lat="47.0850250" lon="6.7057700">
        <ele>869.5</ele>
        <time>2022-07-21T16:03:04Z</time>
      </trkpt>
      <trkpt lat="47.0850170" lon="6.7057580">
        <ele>869.7</ele>
        <time>2022-07-21T16:03:05Z</time>
      </trkpt>
      <trkpt lat="47.0850140" lon="6.7057480">
        <ele>869.8</ele>
        <time>2022-07-21T16:03:06Z</time>
      </trkpt>
      <trkpt lat="47.0850060" lon="6.7057210">
        <ele>870.0</ele>
        <time>2022-07-21T16:03:07Z</time>
      </trkpt>
      <trkpt lat="47.0850020" lon="6.7057100">
        <ele>870.1</ele>
        <time>2022-07-21T16:03:08Z</time>
      </trkpt>
      <trkpt lat="47.0849970" lon="6.7056990">
        <ele>870.3</ele>
        <time>2022-07-21T16:03:09Z</time>
      </trkpt>
      <trkpt lat="47.0849910" lon="6.7056810">
        <ele>870.4</ele>
        <time>2022-07-21T16:03:10Z</time>
      </trkpt>
      <trkpt lat="47.0849840" lon="6.7056640">
        <ele>870.6</ele>
        <time>2022-07-21T16:03:11Z</time>
      </trkpt>
      <trkpt lat="47.0849780" lon="6.7056500">
        <ele>870.8</ele>
        <time>2022-07-21T16:03:12Z</time>
      </trkpt>
      <trkpt lat="47.0849730" lon="6.7056360">
        <ele>870.9</ele>
        <time>2022-07-21T16:03:13Z</time>
      </trkpt>
      <trkpt lat="47.0849690" lon="6.7056210">
        <ele>871.1</ele>
        <time>2022-07-21T16:03:14Z</time>
      </trkpt>
      <trkpt lat="47.0849650" lon="6.7056040">
        <ele>871.2</ele>
        <time>2022-07-21T16:03:15Z</time>
      </trkpt>
      <trkpt lat="47.0849610" lon="6.7055900">
        <ele>871.4</ele>
        <time>2022-07-21T16:03:16Z</time>
      </trkpt>
      <trkpt lat="47.0849570" lon="6.7055810">
        <ele>871.5</ele>
        <time>2022-07-21T16:03:17Z</time>
      </trkpt>
      <trkpt lat="47.0849490" lon="6.7055690">
        <ele>871.6</ele>
        <time>2022-07-21T16:03:18Z</time>
      </trkpt>
      <trkpt lat="47.0849390" lon="6.7055590">
        <ele>871.8</ele>
        <time>2022-07-21T16:03:19Z</time>
      </trkpt>
      <trkpt lat="47.0849300" lon="6.7055500">
        <ele>871.9</ele>
        <time>2022-07-21T16:03:20Z</time>
      </trkpt>
      <trkpt lat="47.0849230" lon="6.7055400">
        <ele>872.1</ele>
        <time>2022-07-21T16:03:21Z</time>
      </trkpt>
      <trkpt lat="47.0849160" lon="6.7055290">
        <ele>872.2</ele>
        <time>2022-07-21T16:03:22Z</time>
      </trkpt>
      <trkpt lat="47.0849090" lon="6.7055150">
        <ele>872.4</ele>
        <time>2022-07-21T16:03:23Z</time>
      </trkpt>
      <trkpt lat="47.0849050" lon="6.7055000">
        <ele>872.5</ele>
        <time>2022-07-21T16:03:24Z</time>
      </trkpt>
      <trkpt lat="47.0849040" lon="6.7054870">
        <ele>872.7</ele>
        <time>2022-07-21T16:03:25Z</time>
      </trkpt>
      <trkpt lat="47.0849010" lon="6.7054690">
        <ele>872.8</ele>
        <time>2022-07-21T16:03:26Z</time>
      </trkpt>
      <trkpt lat="47.0848960" lon="6.7054540">
        <ele>873.0</ele>
        <time>2022-07-21T16:03:27Z</time>
      </trkpt>
      <trkpt lat="47.0848880" lon="6.7054370">
        <ele>873.2</ele>
        <time>2022-07-21T16:03:28Z</time>
      </trkpt>
      <trkpt lat="47.0848860" lon="6.7054230">
        <ele>873.4</ele>
        <time>2022-07-21T16:03:29Z</time>
      </trkpt>
      <trkpt lat="47.0848800" lon="6.7053950">
        <ele>873.6</ele>
        <time>2022-07-21T16:03:30Z</time>
      </trkpt>
      <trkpt lat="47.0848780" lon="6.7053830">
        <ele>873.8</ele>
        <time>2022-07-21T16:03:31Z</time>
      </trkpt>
      <trkpt lat="47.0848760" lon="6.7053710">
        <ele>873.9</ele>
        <time>2022-07-21T16:03:32Z</time>
      </trkpt>
      <trkpt lat="47.0848750" lon="6.7053560">
        <ele>874.0</ele>
        <time>2022-07-21T16:03:33Z</time>
      </trkpt>
      <trkpt lat="47.0848700" lon="6.7053430">
        <ele>874.2</ele>
        <time>2022-07-21T16:03:34Z</time>
      </trkpt>
      <trkpt lat="47.0848660" lon="6.7053320">
        <ele>874.3</ele>
        <time>2022-07-21T16:03:35Z</time>
      </trkpt>
      <trkpt lat="47.0848610" lon="6.7053220">
        <ele>874.4</ele>
        <time>2022-07-21T16:03:36Z</time>
      </trkpt>
      <trkpt lat="47.0848560" lon="6.7053130">
        <ele>874.5</ele>
        <time>2022-07-21T16:03:37Z</time>
      </trkpt>
      <trkpt lat="47.0848530" lon="6.7053040">
        <ele>874.6</ele>
        <time>2022-07-21T16:03:38Z</time>
      </trkpt>
      <trkpt lat="47.0848470" lon="6.7052900">
        <ele>874.8</ele>
        <time>2022-07-21T16:03:39Z</time>
      </trkpt>
      <trkpt lat="47.0848440" lon="6.7052770">
        <ele>874.9</ele>
        <time>2022-07-21T16:03:40Z</time>
      </trkpt>
      <trkpt lat="47.0848370" lon="6.7052600">
        <ele>875.1</ele>
        <time>2022-07-21T16:03:41Z</time>
      </trkpt>
      <trkpt lat="47.0848310" lon="6.7052440">
        <ele>875.3</ele>
        <time>2022-07-21T16:03:42Z</time>
      </trkpt>
      <trkpt lat="47.0848260" lon="6.7052280">
        <ele>875.5</ele>
        <time>2022-07-21T16:03:43Z</time>
      </trkpt>
      <trkpt lat="47.0848240" lon="6.7052120">
        <ele>875.6</ele>
        <time>2022-07-21T16:03:44Z</time>
      </trkpt>
      <trkpt lat="47.0848240" lon="6.7052020">
        <ele>875.7</ele>
        <time>2022-07-21T16:03:45Z</time>
      </trkpt>
      <trkpt lat="47.0848220" lon="6.7051870">
        <ele>875.9</ele>
        <time>2022-07-21T16:03:46Z</time>
      </trkpt>
      <trkpt lat="47.0848180" lon="6.7051750">
        <ele>876.0</ele>
        <time>2022-07-21T16:03:47Z</time>
      </trkpt>
      <trkpt lat="47.0848140" lon="6.7051620">
        <ele>876.1</ele>
        <time>2022-07-21T16:03:48Z</time>
      </trkpt>
      <trkpt lat="47.0848100" lon="6.7051450">
        <ele>876.3</ele>
        <time>2022-07-21T16:03:49Z</time>
      </trkpt>
      <trkpt lat="47.0848050" lon="6.7051330">
        <ele>876.4</ele>
        <time>2022-07-21T16:03:50Z</time>
      </trkpt>
      <trkpt lat="47.0848000" lon="6.7051190">
        <ele>876.6</ele>
        <time>2022-07-21T16:03:51Z</time>
      </trkpt>
      <trkpt lat="47.0847970" lon="6.7050950">
        <ele>876.8</ele>
        <time>2022-07-21T16:03:52Z</time>
      </trkpt>
      <trkpt lat="47.0847980" lon="6.7050850">
        <ele>876.9</ele>
        <time>2022-07-21T16:03:53Z</time>
      </trkpt>
      <trkpt lat="47.0847990" lon="6.7050750">
        <ele>877.0</ele>
        <time>2022-07-21T16:03:54Z</time>
      </trkpt>
      <trkpt lat="47.0847990" lon="6.7050650">
        <ele>877.1</ele>
        <time>2022-07-21T16:03:55Z</time>
      </trkpt>
      <trkpt lat="47.0847960" lon="6.7050450">
        <ele>877.2</ele>
        <time>2022-07-21T16:03:56Z</time>
      </trkpt>
      <trkpt lat="47.0847900" lon="6.7050260">
        <ele>877.4</ele>
        <time>2022-07-21T16:03:57Z</time>
      </trkpt>
      <trkpt lat="47.0847830" lon="6.7049970">
        <ele>877.6</ele>
        <time>2022-07-21T16:03:58Z</time>
      </trkpt>
      <trkpt lat="47.0847800" lon="6.7049850">
        <ele>877.8</ele>
        <time>2022-07-21T16:03:59Z</time>
      </trkpt>
      <trkpt lat="47.0847770" lon="6.7049730">
        <ele>877.9</ele>
        <time>2022-07-21T16:04:00Z</time>
      </trkpt>
      <trkpt lat="47.0847740" lon="6.7049580">
        <ele>878.0</ele>
        <time>2022-07-21T16:04:01Z</time>
      </trkpt>
      <trkpt lat="47.0847720" lon="6.7049450">
        <ele>878.1</ele>
        <time>2022-07-21T16:04:02Z</time>
      </trkpt>
      <trkpt lat="47.0847660" lon="6.7049240">
        <ele>878.3</ele>
        <time>2022-07-21T16:04:03Z</time>
      </trkpt>
      <trkpt lat="47.0847590" lon="6.7048960">
        <ele>878.5</ele>
        <time>2022-07-21T16:04:04Z</time>
      </trkpt>
      <trkpt lat="47.0847560" lon="6.7048860">
        <ele>878.6</ele>
        <time>2022-07-21T16:04:05Z</time>
      </trkpt>
      <trkpt lat="47.0847520" lon="6.7048750">
        <ele>878.7</ele>
        <time>2022-07-21T16:04:06Z</time>
      </trkpt>
      <trkpt lat="47.0847440" lon="6.7048540">
        <ele>878.8</ele>
        <time>2022-07-21T16:04:07Z</time>
      </trkpt>
      <trkpt lat="47.0847370" lon="6.7048340">
        <ele>879.0</ele>
        <time>2022-07-21T16:04:08Z</time>
      </trkpt>
      <trkpt lat="47.0847320" lon="6.7048190">
        <ele>879.1</ele>
        <time>2022-07-21T16:04:09Z</time>
      </trkpt>
      <trkpt lat="47.0847270" lon="6.7048030">
        <ele>879.3</ele>
        <time>2022-07-21T16:04:10Z</time>
      </trkpt>
      <trkpt lat="47.0847200" lon="6.7047900">
        <ele>879.4</ele>
        <time>2022-07-21T16:04:11Z</time>
      </trkpt>
      <trkpt lat="47.0847120" lon="6.7047790">
        <ele>879.5</ele>
        <time>2022-07-21T16:04:12Z</time>
      </trkpt>
      <trkpt lat="47.0847040" lon="6.7047670">
        <ele>879.6</ele>
        <time>2022-07-21T16:04:13Z</time>
      </trkpt>
      <trkpt lat="47.0846970" lon="6.7047550">
        <ele>879.7</ele>
        <time>2022-07-21T16:04:14Z</time>
      </trkpt>
      <trkpt lat="47.0846860" lon="6.7047300">
        <ele>880.0</ele>
        <time>2022-07-21T16:04:15Z</time>
      </trkpt>
      <trkpt lat="47.0846830" lon="6.7047200">
        <ele>880.0</ele>
        <time>2022-07-21T16:04:16Z</time>
      </trkpt>
      <trkpt lat="47.0846790" lon="6.7047090">
        <ele>880.1</ele>
        <time>2022-07-21T16:04:17Z</time>
      </trkpt>
      <trkpt lat="47.0846750" lon="6.7046810">
        <ele>880.4</ele>
        <time>2022-07-21T16:04:18Z</time>
      </trkpt>
      <trkpt lat="47.0846740" lon="6.7046680">
        <ele>880.4</ele>
        <time>2022-07-21T16:04:19Z</time>
      </trkpt>
      <trkpt lat="47.0846730" lon="6.7046550">
        <ele>880.4</ele>
        <time>2022-07-21T16:04:20Z</time>
      </trkpt>
      <trkpt lat="47.0846700" lon="6.7046400">
        <ele>880.5</ele>
        <time>2022-07-21T16:04:21Z</time>
      </trkpt>
      <trkpt lat="47.0846670" lon="6.7046230">
        <ele>880.5</ele>
        <time>2022-07-21T16:04:22Z</time>
      </trkpt>
      <trkpt lat="47.0846660" lon="6.7046100">
        <ele>880.6</ele>
        <time>2022-07-21T16:04:23Z</time>
      </trkpt>
      <trkpt lat="47.0846640" lon="6.7045970">
        <ele>880.6</ele>
        <time>2022-07-21T16:04:24Z</time>
      </trkpt>
      <trkpt lat="47.0846650" lon="6.7045890">
        <ele>880.6</ele>
        <time>2022-07-21T16:04:25Z</time>
      </trkpt>
      <trkpt lat="47.0846650" lon="6.7045760">
        <ele>880.7</ele>
        <time>2022-07-21T16:04:26Z</time>
      </trkpt>
      <trkpt lat="47.0846680" lon="6.7045630">
        <ele>880.7</ele>
        <time>2022-07-21T16:04:27Z</time>
      </trkpt>
      <trkpt lat="47.0846710" lon="6.7045530">
        <ele>880.8</ele>
        <time>2022-07-21T16:04:28Z</time>
      </trkpt>
      <trkpt lat="47.0846790" lon="6.7045370">
        <ele>880.8</ele>
        <time>2022-07-21T16:04:29Z</time>
      </trkpt>
      <trkpt lat="47.0846840" lon="6.7045310">
        <ele>880.8</ele>
        <time>2022-07-21T16:04:30Z</time>
      </trkpt>
      <trkpt lat="47.0846900" lon="6.7045230">
        <ele>880.9</ele>
        <time>2022-07-21T16:04:31Z</time>
      </trkpt>
      <trkpt lat="47.0846940" lon="6.7045220">
        <ele>880.9</ele>
        <time>2022-07-21T16:04:32Z</time>
      </trkpt>
      <trkpt lat="47.0847020" lon="6.7045170">
        <ele>880.9</ele>
        <time>2022-07-21T16:04:33Z</time>
      </trkpt>
      <trkpt lat="47.0847130" lon="6.7045190">
        <ele>881.8</ele>
        <time>2022-07-21T16:04:34Z</time>
      </trkpt>
      <trkpt lat="47.0847250" lon="6.7045200">
        <ele>882.0</ele>
        <time>2022-07-21T16:04:35Z</time>
      </trkpt>
      <trkpt lat="47.0847350" lon="6.7045240">
        <ele>882.1</ele>
        <time>2022-07-21T16:04:36Z</time>
      </trkpt>
      <trkpt lat="47.0847440" lon="6.7045270">
        <ele>882.2</ele>
        <time>2022-07-21T16:04:37Z</time>
      </trkpt>
      <trkpt lat="47.0847530" lon="6.7045300">
        <ele>882.3</ele>
        <time>2022-07-21T16:04:38Z</time>
      </trkpt>
      <trkpt lat="47.0847660" lon="6.7045360">
        <ele>882.5</ele>
        <time>2022-07-21T16:04:39Z</time>
      </trkpt>
      <trkpt lat="47.0847770" lon="6.7045370">
        <ele>882.7</ele>
        <time>2022-07-21T16:04:40Z</time>
      </trkpt>
      <trkpt lat="47.0847870" lon="6.7045400">
        <ele>882.8</ele>
        <time>2022-07-21T16:04:41Z</time>
      </trkpt>
      <trkpt lat="47.0847990" lon="6.7045410">
        <ele>882.9</ele>
        <time>2022-07-21T16:04:42Z</time>
      </trkpt>
      <trkpt lat="47.0848100" lon="6.7045450">
        <ele>883.1</ele>
        <time>2022-07-21T16:04:43Z</time>
      </trkpt>
      <trkpt lat="47.0848210" lon="6.7045500">
        <ele>883.2</ele>
        <time>2022-07-21T16:04:44Z</time>
      </trkpt>
      <trkpt lat="47.0848320" lon="6.7045530">
        <ele>883.4</ele>
        <time>2022-07-21T16:04:45Z</time>
      </trkpt>
      <trkpt lat="47.0848430" lon="6.7045550">
        <ele>883.5</ele>
        <time>2022-07-21T16:04:46Z</time>
      </trkpt>
      <trkpt lat="47.0848550" lon="6.7045530">
        <ele>883.7</ele>
        <time>2022-07-21T16:04:47Z</time>
      </trkpt>
      <trkpt lat="47.0848700" lon="6.7045500">
        <ele>883.8</ele>
        <time>2022-07-21T16:04:48Z</time>
      </trkpt>
      <trkpt lat="47.0848870" lon="6.7045470">
        <ele>884.1</ele>
        <time>2022-07-21T16:04:49Z</time>
      </trkpt>
      <trkpt lat="47.0849040" lon="6.7045410">
        <ele>884.3</ele>
        <time>2022-07-21T16:04:50Z</time>
      </trkpt>
      <trkpt lat="47.0849180" lon="6.7045360">
        <ele>884.4</ele>
        <time>2022-07-21T16:04:51Z</time>
      </trkpt>
      <trkpt lat="47.0849270" lon="6.7045320">
        <ele>884.5</ele>
        <time>2022-07-21T16:04:52Z</time>
      </trkpt>
      <trkpt lat="47.0849340" lon="6.7045270">
        <ele>884.6</ele>
        <time>2022-07-21T16:04:53Z</time>
      </trkpt>
      <trkpt lat="47.0849430" lon="6.7045220">
        <ele>884.7</ele>
        <time>2022-07-21T16:04:54Z</time>
      </trkpt>
      <trkpt lat="47.0849630" lon="6.7045140">
        <ele>885.0</ele>
        <time>2022-07-21T16:04:55Z</time>
      </trkpt>
      <trkpt lat="47.0849710" lon="6.7045100">
        <ele>885.1</ele>
        <time>2022-07-21T16:04:56Z</time>
      </trkpt>
      <trkpt lat="47.0849870" lon="6.7045050">
        <ele>885.2</ele>
        <time>2022-07-21T16:04:57Z</time>
      </trkpt>
      <trkpt lat="47.0850000" lon="6.7045000">
        <ele>885.4</ele>
        <time>2022-07-21T16:04:58Z</time>
      </trkpt>
      <trkpt lat="47.0850100" lon="6.7044950">
        <ele>885.5</ele>
        <time>2022-07-21T16:04:59Z</time>
      </trkpt>
      <trkpt lat="47.0850270" lon="6.7044860">
        <ele>885.7</ele>
        <time>2022-07-21T16:05:00Z</time>
      </trkpt>
      <trkpt lat="47.0850430" lon="6.7044770">
        <ele>885.9</ele>
        <time>2022-07-21T16:05:01Z</time>
      </trkpt>
      <trkpt lat="47.0850550" lon="6.7044680">
        <ele>886.0</ele>
        <time>2022-07-21T16:05:02Z</time>
      </trkpt>
      <trkpt lat="47.0850680" lon="6.7044570">
        <ele>886.2</ele>
        <time>2022-07-21T16:05:03Z</time>
      </trkpt>
      <trkpt lat="47.0850800" lon="6.7044360">
        <ele>886.3</ele>
        <time>2022-07-21T16:05:04Z</time>
      </trkpt>
      <trkpt lat="47.0850900" lon="6.7044070">
        <ele>886.6</ele>
        <time>2022-07-21T16:05:05Z</time>
      </trkpt>
      <trkpt lat="47.0850930" lon="6.7043940">
        <ele>886.7</ele>
        <time>2022-07-21T16:05:06Z</time>
      </trkpt>
      <trkpt lat="47.0850970" lon="6.7043820">
        <ele>887.1</ele>
        <time>2022-07-21T16:05:07Z</time>
      </trkpt>
      <trkpt lat="47.0851000" lon="6.7043650">
        <ele>887.2</ele>
        <time>2022-07-21T16:05:08Z</time>
      </trkpt>
      <trkpt lat="47.0851060" lon="6.7043430">
        <ele>887.3</ele>
        <time>2022-07-21T16:05:09Z</time>
      </trkpt>
      <trkpt lat="47.0851160" lon="6.7043210">
        <ele>887.4</ele>
        <time>2022-07-21T16:05:10Z</time>
      </trkpt>
      <trkpt lat="47.0851260" lon="6.7043020">
        <ele>887.5</ele>
        <time>2022-07-21T16:05:11Z</time>
      </trkpt>
      <trkpt lat="47.0851380" lon="6.7042840">
        <ele>887.6</ele>
        <time>2022-07-21T16:05:12Z</time>
      </trkpt>
      <trkpt lat="47.0851470" lon="6.7042720">
        <ele>887.7</ele>
        <time>2022-07-21T16:05:13Z</time>
      </trkpt>
      <trkpt lat="47.0851570" lon="6.7042560">
        <ele>887.8</ele>
        <time>2022-07-21T16:05:14Z</time>
      </trkpt>
      <trkpt lat="47.0851650" lon="6.7042380">
        <ele>887.9</ele>
        <time>2022-07-21T16:05:15Z</time>
      </trkpt>
      <trkpt lat="47.0851750" lon="6.7042170">
        <ele>888.0</ele>
        <time>2022-07-21T16:05:16Z</time>
      </trkpt>
      <trkpt lat="47.0851830" lon="6.7041940">
        <ele>888.1</ele>
        <time>2022-07-21T16:05:17Z</time>
      </trkpt>
      <trkpt lat="47.0851900" lon="6.7041710">
        <ele>888.2</ele>
        <time>2022-07-21T16:05:18Z</time>
      </trkpt>
      <trkpt lat="47.0851940" lon="6.7041470">
        <ele>888.3</ele>
        <time>2022-07-21T16:05:19Z</time>
      </trkpt>
      <trkpt lat="47.0851960" lon="6.7041220">
        <ele>888.4</ele>
        <time>2022-07-21T16:05:20Z</time>
      </trkpt>
      <trkpt lat="47.0852000" lon="6.7040970">
        <ele>888.5</ele>
        <time>2022-07-21T16:05:21Z</time>
      </trkpt>
      <trkpt lat="47.0852120" lon="6.7040590">
        <ele>888.7</ele>
        <time>2022-07-21T16:05:22Z</time>
      </trkpt>
      <trkpt lat="47.0852160" lon="6.7040460">
        <ele>888.7</ele>
        <time>2022-07-21T16:05:23Z</time>
      </trkpt>
      <trkpt lat="47.0852200" lon="6.7040260">
        <ele>888.8</ele>
        <time>2022-07-21T16:05:24Z</time>
      </trkpt>
      <trkpt lat="47.0852220" lon="6.7040050">
        <ele>888.9</ele>
        <time>2022-07-21T16:05:25Z</time>
      </trkpt>
      <trkpt lat="47.0852230" lon="6.7039670">
        <ele>889.0</ele>
        <time>2022-07-21T16:05:26Z</time>
      </trkpt>
      <trkpt lat="47.0852230" lon="6.7039510">
        <ele>889.1</ele>
        <time>2022-07-21T16:05:27Z</time>
      </trkpt>
      <trkpt lat="47.0852260" lon="6.7039230">
        <ele>889.2</ele>
        <time>2022-07-21T16:05:28Z</time>
      </trkpt>
      <trkpt lat="47.0852310" lon="6.7039040">
        <ele>889.3</ele>
        <time>2022-07-21T16:05:29Z</time>
      </trkpt>
      <trkpt lat="47.0852350" lon="6.7038800">
        <ele>889.3</ele>
        <time>2022-07-21T16:05:30Z</time>
      </trkpt>
      <trkpt lat="47.0852390" lon="6.7038540">
        <ele>889.4</ele>
        <time>2022-07-21T16:05:31Z</time>
      </trkpt>
      <trkpt lat="47.0852490" lon="6.7038130">
        <ele>889.6</ele>
        <time>2022-07-21T16:05:32Z</time>
      </trkpt>
      <trkpt lat="47.0852530" lon="6.7038030">
        <ele>889.6</ele>
        <time>2022-07-21T16:05:33Z</time>
      </trkpt>
      <trkpt lat="47.0852600" lon="6.7037780">
        <ele>889.7</ele>
        <time>2022-07-21T16:05:34Z</time>
      </trkpt>
      <trkpt lat="47.0852640" lon="6.7037650">
        <ele>889.8</ele>
        <time>2022-07-21T16:05:35Z</time>
      </trkpt>
      <trkpt lat="47.0852680" lon="6.7037520">
        <ele>889.9</ele>
        <time>2022-07-21T16:05:36Z</time>
      </trkpt>
      <trkpt lat="47.0852720" lon="6.7037320">
        <ele>890.0</ele>
        <time>2022-07-21T16:05:37Z</time>
      </trkpt>
      <trkpt lat="47.0852760" lon="6.7037140">
        <ele>890.0</ele>
        <time>2022-07-21T16:05:38Z</time>
      </trkpt>
      <trkpt lat="47.0852840" lon="6.7036750">
        <ele>890.2</ele>
        <time>2022-07-21T16:05:39Z</time>
      </trkpt>
      <trkpt lat="47.0852880" lon="6.7036620">
        <ele>890.3</ele>
        <time>2022-07-21T16:05:40Z</time>
      </trkpt>
      <trkpt lat="47.0852950" lon="6.7036380">
        <ele>890.4</ele>
        <time>2022-07-21T16:05:41Z</time>
      </trkpt>
      <trkpt lat="47.0853000" lon="6.7036200">
        <ele>890.5</ele>
        <time>2022-07-21T16:05:42Z</time>
      </trkpt>
      <trkpt lat="47.0853020" lon="6.7036080">
        <ele>890.5</ele>
        <time>2022-07-21T16:05:43Z</time>
      </trkpt>
      <trkpt lat="47.0853070" lon="6.7035820">
        <ele>890.7</ele>
        <time>2022-07-21T16:05:44Z</time>
      </trkpt>
      <trkpt lat="47.0853120" lon="6.7035580">
        <ele>890.8</ele>
        <time>2022-07-21T16:05:45Z</time>
      </trkpt>
      <trkpt lat="47.0853160" lon="6.7035390">
        <ele>890.9</ele>
        <time>2022-07-21T16:05:46Z</time>
      </trkpt>
      <trkpt lat="47.0853220" lon="6.7035180">
        <ele>891.0</ele>
        <time>2022-07-21T16:05:47Z</time>
      </trkpt>
      <trkpt lat="47.0853300" lon="6.7034960">
        <ele>891.2</ele>
        <time>2022-07-21T16:05:48Z</time>
      </trkpt>
      <trkpt lat="47.0853400" lon="6.7034730">
        <ele>891.3</ele>
        <time>2022-07-21T16:05:49Z</time>
      </trkpt>
      <trkpt lat="47.0853470" lon="6.7034520">
        <ele>891.5</ele>
        <time>2022-07-21T16:05:50Z</time>
      </trkpt>
      <trkpt lat="47.0853530" lon="6.7034350">
        <ele>891.6</ele>
        <time>2022-07-21T16:05:51Z</time>
      </trkpt>
      <trkpt lat="47.0853590" lon="6.7034140">
        <ele>891.7</ele>
        <time>2022-07-21T16:05:52Z</time>
      </trkpt>
      <trkpt lat="47.0853650" lon="6.7033890">
        <ele>891.8</ele>
        <time>2022-07-21T16:05:53Z</time>
      </trkpt>
      <trkpt lat="47.0853710" lon="6.7033640">
        <ele>892.0</ele>
        <time>2022-07-21T16:05:54Z</time>
      </trkpt>
      <trkpt lat="47.0853760" lon="6.7033420">
        <ele>892.1</ele>
        <time>2022-07-21T16:05:55Z</time>
      </trkpt>
      <trkpt lat="47.0853810" lon="6.7033240">
        <ele>892.3</ele>
        <time>2022-07-21T16:05:56Z</time>
      </trkpt>
      <trkpt lat="47.0853900" lon="6.7032960">
        <ele>892.4</ele>
        <time>2022-07-21T16:05:57Z</time>
      </trkpt>
      <trkpt lat="47.0853940" lon="6.7032830">
        <ele>892.5</ele>
        <time>2022-07-21T16:05:58Z</time>
      </trkpt>
      <trkpt lat="47.0853990" lon="6.7032690">
        <ele>892.6</ele>
        <time>2022-07-21T16:05:59Z</time>
      </trkpt>
      <trkpt lat="47.0854050" lon="6.7032380">
        <ele>892.8</ele>
        <time>2022-07-21T16:06:00Z</time>
      </trkpt>
      <trkpt lat="47.0854070" lon="6.7032230">
        <ele>892.9</ele>
        <time>2022-07-21T16:06:01Z</time>
      </trkpt>
      <trkpt lat="47.0854090" lon="6.7032090">
        <ele>893.0</ele>
        <time>2022-07-21T16:06:02Z</time>
      </trkpt>
      <trkpt lat="47.0854140" lon="6.7031760">
        <ele>893.2</ele>
        <time>2022-07-21T16:06:03Z</time>
      </trkpt>
      <trkpt lat="47.0854170" lon="6.7031620">
        <ele>893.3</ele>
        <time>2022-07-21T16:06:04Z</time>
      </trkpt>
      <trkpt lat="47.0854200" lon="6.7031470">
        <ele>893.4</ele>
        <time>2022-07-21T16:06:05Z</time>
      </trkpt>
      <trkpt lat="47.0854250" lon="6.7031290">
        <ele>893.5</ele>
        <time>2022-07-21T16:06:06Z</time>
      </trkpt>
      <trkpt lat="47.0854300" lon="6.7031080">
        <ele>893.6</ele>
        <time>2022-07-21T16:06:07Z</time>
      </trkpt>
      <trkpt lat="47.0854330" lon="6.7030840">
        <ele>893.8</ele>
        <time>2022-07-21T16:06:08Z</time>
      </trkpt>
      <trkpt lat="47.0854360" lon="6.7030660">
        <ele>893.9</ele>
        <time>2022-07-21T16:06:09Z</time>
      </trkpt>
      <trkpt lat="47.0854390" lon="6.7030470">
        <ele>894.0</ele>
        <time>2022-07-21T16:06:10Z</time>
      </trkpt>
      <trkpt lat="47.0854450" lon="6.7030220">
        <ele>894.2</ele>
        <time>2022-07-21T16:06:11Z</time>
      </trkpt>
      <trkpt lat="47.0854520" lon="6.7029960">
        <ele>894.4</ele>
        <time>2022-07-21T16:06:12Z</time>
      </trkpt>
      <trkpt lat="47.0854560" lon="6.7029780">
        <ele>894.5</ele>
        <time>2022-07-21T16:06:13Z</time>
      </trkpt>
      <trkpt lat="47.0854600" lon="6.7029480">
        <ele>894.7</ele>
        <time>2022-07-21T16:06:14Z</time>
      </trkpt>
      <trkpt lat="47.0854620" lon="6.7029340">
        <ele>894.8</ele>
        <time>2022-07-21T16:06:15Z</time>
      </trkpt>
      <trkpt lat="47.0854640" lon="6.7029200">
        <ele>894.9</ele>
        <time>2022-07-21T16:06:16Z</time>
      </trkpt>
      <trkpt lat="47.0854660" lon="6.7028970">
        <ele>895.1</ele>
        <time>2022-07-21T16:06:17Z</time>
      </trkpt>
      <trkpt lat="47.0854690" lon="6.7028730">
        <ele>895.3</ele>
        <time>2022-07-21T16:06:18Z</time>
      </trkpt>
      <trkpt lat="47.0854740" lon="6.7028410">
        <ele>895.5</ele>
        <time>2022-07-21T16:06:19Z</time>
      </trkpt>
      <trkpt lat="47.0854760" lon="6.7028310">
        <ele>895.5</ele>
        <time>2022-07-21T16:06:20Z</time>
      </trkpt>
      <trkpt lat="47.0854770" lon="6.7028200">
        <ele>895.6</ele>
        <time>2022-07-21T16:06:21Z</time>
      </trkpt>
      <trkpt lat="47.0854850" lon="6.7027910">
        <ele>895.8</ele>
        <time>2022-07-21T16:06:22Z</time>
      </trkpt>
      <trkpt lat="47.0854870" lon="6.7027800">
        <ele>895.9</ele>
        <time>2022-07-21T16:06:23Z</time>
      </trkpt>
      <trkpt lat="47.0854900" lon="6.7027680">
        <ele>896.0</ele>
        <time>2022-07-21T16:06:24Z</time>
      </trkpt>
      <trkpt lat="47.0854930" lon="6.7027480">
        <ele>896.1</ele>
        <time>2022-07-21T16:06:25Z</time>
      </trkpt>
      <trkpt lat="47.0854960" lon="6.7027260">
        <ele>896.3</ele>
        <time>2022-07-21T16:06:26Z</time>
      </trkpt>
      <trkpt lat="47.0855000" lon="6.7027030">
        <ele>896.4</ele>
        <time>2022-07-21T16:06:27Z</time>
      </trkpt>
      <trkpt lat="47.0855040" lon="6.7026830">
        <ele>896.6</ele>
        <time>2022-07-21T16:06:28Z</time>
      </trkpt>
      <trkpt lat="47.0855080" lon="6.7026610">
        <ele>896.7</ele>
        <time>2022-07-21T16:06:29Z</time>
      </trkpt>
      <trkpt lat="47.0855110" lon="6.7026420">
        <ele>896.9</ele>
        <time>2022-07-21T16:06:30Z</time>
      </trkpt>
      <trkpt lat="47.0855130" lon="6.7026200">
        <ele>897.0</ele>
        <time>2022-07-21T16:06:31Z</time>
      </trkpt>
      <trkpt lat="47.0855150" lon="6.7025980">
        <ele>897.2</ele>
        <time>2022-07-21T16:06:32Z</time>
      </trkpt>
      <trkpt lat="47.0855200" lon="6.7025570">
        <ele>897.4</ele>
        <time>2022-07-21T16:06:33Z</time>
      </trkpt>
      <trkpt lat="47.0855220" lon="6.7025440">
        <ele>897.5</ele>
        <time>2022-07-21T16:06:34Z</time>
      </trkpt>
      <trkpt lat="47.0855260" lon="6.7025200">
        <ele>897.7</ele>
        <time>2022-07-21T16:06:35Z</time>
      </trkpt>
      <trkpt lat="47.0855310" lon="6.7025030">
        <ele>897.8</ele>
        <time>2022-07-21T16:06:36Z</time>
      </trkpt>
      <trkpt lat="47.0855340" lon="6.7024850">
        <ele>898.0</ele>
        <time>2022-07-21T16:06:37Z</time>
      </trkpt>
      <trkpt lat="47.0855380" lon="6.7024630">
        <ele>898.1</ele>
        <time>2022-07-21T16:06:38Z</time>
      </trkpt>
      <trkpt lat="47.0855410" lon="6.7024320">
        <ele>898.3</ele>
        <time>2022-07-21T16:06:39Z</time>
      </trkpt>
      <trkpt lat="47.0855410" lon="6.7024190">
        <ele>898.4</ele>
        <time>2022-07-21T16:06:40Z</time>
      </trkpt>
      <trkpt lat="47.0855420" lon="6.7024060">
        <ele>898.5</ele>
        <time>2022-07-21T16:06:41Z</time>
      </trkpt>
      <trkpt lat="47.0855440" lon="6.7023780">
        <ele>898.7</ele>
        <time>2022-07-21T16:06:42Z</time>
      </trkpt>
      <trkpt lat="47.0855460" lon="6.7023650">
        <ele>898.8</ele>
        <time>2022-07-21T16:06:43Z</time>
      </trkpt>
      <trkpt lat="47.0855480" lon="6.7023520">
        <ele>898.9</ele>
        <time>2022-07-21T16:06:44Z</time>
      </trkpt>
      <trkpt lat="47.0855520" lon="6.7023280">
        <ele>899.0</ele>
        <time>2022-07-21T16:06:45Z</time>
      </trkpt>
      <trkpt lat="47.0855570" lon="6.7023060">
        <ele>899.2</ele>
        <time>2022-07-21T16:06:46Z</time>
      </trkpt>
      <trkpt lat="47.0855600" lon="6.7022870">
        <ele>899.3</ele>
        <time>2022-07-21T16:06:47Z</time>
      </trkpt>
      <trkpt lat="47.0855640" lon="6.7022680">
        <ele>899.4</ele>
        <time>2022-07-21T16:06:48Z</time>
      </trkpt>
      <trkpt lat="47.0855670" lon="6.7022460">
        <ele>899.6</ele>
        <time>2022-07-21T16:06:49Z</time>
      </trkpt>
      <trkpt lat="47.0855700" lon="6.7022290">
        <ele>899.7</ele>
        <time>2022-07-21T16:06:50Z</time>
      </trkpt>
      <trkpt lat="47.0855740" lon="6.7022050">
        <ele>899.8</ele>
        <time>2022-07-21T16:06:51Z</time>
      </trkpt>
      <trkpt lat="47.0855800" lon="6.7021870">
        <ele>899.9</ele>
        <time>2022-07-21T16:06:52Z</time>
      </trkpt>
      <trkpt lat="47.0855860" lon="6.7021650">
        <ele>900.1</ele>
        <time>2022-07-21T16:06:53Z</time>
      </trkpt>
      <trkpt lat="47.0855940" lon="6.7021390">
        <ele>900.2</ele>
        <time>2022-07-21T16:06:54Z</time>
      </trkpt>
      <trkpt lat="47.0856010" lon="6.7021000">
        <ele>900.5</ele>
        <time>2022-07-21T16:06:55Z</time>
      </trkpt>
      <trkpt lat="47.0856020" lon="6.7020870">
        <ele>900.5</ele>
        <time>2022-07-21T16:06:56Z</time>
      </trkpt>
      <trkpt lat="47.0856040" lon="6.7020640">
        <ele>900.7</ele>
        <time>2022-07-21T16:06:57Z</time>
      </trkpt>
      <trkpt lat="47.0856030" lon="6.7020400">
        <ele>900.8</ele>
        <time>2022-07-21T16:06:58Z</time>
      </trkpt>
      <trkpt lat="47.0856040" lon="6.7020150">
        <ele>900.9</ele>
        <time>2022-07-21T16:06:59Z</time>
      </trkpt>
      <trkpt lat="47.0856070" lon="6.7019900">
        <ele>901.1</ele>
        <time>2022-07-21T16:07:00Z</time>
      </trkpt>
      <trkpt lat="47.0856110" lon="6.7019680">
        <ele>901.2</ele>
        <time>2022-07-21T16:07:01Z</time>
      </trkpt>
      <trkpt lat="47.0856160" lon="6.7019460">
        <ele>901.3</ele>
        <time>2022-07-21T16:07:02Z</time>
      </trkpt>
      <trkpt lat="47.0856210" lon="6.7019220">
        <ele>901.4</ele>
        <time>2022-07-21T16:07:03Z</time>
      </trkpt>
      <trkpt lat="47.0856260" lon="6.7018970">
        <ele>901.6</ele>
        <time>2022-07-21T16:07:04Z</time>
      </trkpt>
      <trkpt lat="47.0856300" lon="6.7018730">
        <ele>901.7</ele>
        <time>2022-07-21T16:07:05Z</time>
      </trkpt>
      <trkpt lat="47.0856330" lon="6.7018520">
        <ele>901.8</ele>
        <time>2022-07-21T16:07:06Z</time>
      </trkpt>
      <trkpt lat="47.0856360" lon="6.7018290">
        <ele>901.9</ele>
        <time>2022-07-21T16:07:07Z</time>
      </trkpt>
      <trkpt lat="47.0856380" lon="6.7018090">
        <ele>902.0</ele>
        <time>2022-07-21T16:07:08Z</time>
      </trkpt>
      <trkpt lat="47.0856420" lon="6.7017860">
        <ele>902.1</ele>
        <time>2022-07-21T16:07:09Z</time>
      </trkpt>
      <trkpt lat="47.0856460" lon="6.7017710">
        <ele>902.2</ele>
        <time>2022-07-21T16:07:10Z</time>
      </trkpt>
      <trkpt lat="47.0856500" lon="6.7017460">
        <ele>902.3</ele>
        <time>2022-07-21T16:07:11Z</time>
      </trkpt>
      <trkpt lat="47.0856550" lon="6.7017210">
        <ele>902.5</ele>
        <time>2022-07-21T16:07:12Z</time>
      </trkpt>
      <trkpt lat="47.0856590" lon="6.7016960">
        <ele>902.6</ele>
        <time>2022-07-21T16:07:13Z</time>
      </trkpt>
      <trkpt lat="47.0856630" lon="6.7016750">
        <ele>902.7</ele>
        <time>2022-07-21T16:07:14Z</time>
      </trkpt>
      <trkpt lat="47.0856660" lon="6.7016500">
        <ele>902.8</ele>
        <time>2022-07-21T16:07:15Z</time>
      </trkpt>
      <trkpt lat="47.0856690" lon="6.7016250">
        <ele>902.9</ele>
        <time>2022-07-21T16:07:16Z</time>
      </trkpt>
      <trkpt lat="47.0856690" lon="6.7016050">
        <ele>903.0</ele>
        <time>2022-07-21T16:07:17Z</time>
      </trkpt>
      <trkpt lat="47.0856680" lon="6.7015820">
        <ele>903.2</ele>
        <time>2022-07-21T16:07:18Z</time>
      </trkpt>
      <trkpt lat="47.0856670" lon="6.7015580">
        <ele>903.3</ele>
        <time>2022-07-21T16:07:19Z</time>
      </trkpt>
      <trkpt lat="47.0856670" lon="6.7015410">
        <ele>903.4</ele>
        <time>2022-07-21T16:07:20Z</time>
      </trkpt>
      <trkpt lat="47.0856720" lon="6.7015250">
        <ele>903.4</ele>
        <time>2022-07-21T16:07:21Z</time>
      </trkpt>
      <trkpt lat="47.0856780" lon="6.7015020">
        <ele>903.6</ele>
        <time>2022-07-21T16:07:22Z</time>
      </trkpt>
      <trkpt lat="47.0856820" lon="6.7014820">
        <ele>903.7</ele>
        <time>2022-07-21T16:07:23Z</time>
      </trkpt>
      <trkpt lat="47.0856870" lon="6.7014540">
        <ele>903.8</ele>
        <time>2022-07-21T16:07:24Z</time>
      </trkpt>
      <trkpt lat="47.0856880" lon="6.7014320">
        <ele>903.9</ele>
        <time>2022-07-21T16:07:25Z</time>
      </trkpt>
      <trkpt lat="47.0856900" lon="6.7014120">
        <ele>904.0</ele>
        <time>2022-07-21T16:07:26Z</time>
      </trkpt>
      <trkpt lat="47.0856970" lon="6.7013670">
        <ele>904.3</ele>
        <time>2022-07-21T16:07:27Z</time>
      </trkpt>
      <trkpt lat="47.0857000" lon="6.7013540">
        <ele>904.3</ele>
        <time>2022-07-21T16:07:28Z</time>
      </trkpt>
      <trkpt lat="47.0857040" lon="6.7013310">
        <ele>904.4</ele>
        <time>2022-07-21T16:07:29Z</time>
      </trkpt>
      <trkpt lat="47.0857070" lon="6.7013080">
        <ele>904.6</ele>
        <time>2022-07-21T16:07:30Z</time>
      </trkpt>
      <trkpt lat="47.0857100" lon="6.7012870">
        <ele>904.7</ele>
        <time>2022-07-21T16:07:31Z</time>
      </trkpt>
      <trkpt lat="47.0857130" lon="6.7012620">
        <ele>904.8</ele>
        <time>2022-07-21T16:07:32Z</time>
      </trkpt>
      <trkpt lat="47.0857170" lon="6.7012370">
        <ele>904.9</ele>
        <time>2022-07-21T16:07:33Z</time>
      </trkpt>
      <trkpt lat="47.0857190" lon="6.7012190">
        <ele>905.0</ele>
        <time>2022-07-21T16:07:34Z</time>
      </trkpt>
      <trkpt lat="47.0857190" lon="6.7011900">
        <ele>905.2</ele>
        <time>2022-07-21T16:07:35Z</time>
      </trkpt>
      <trkpt lat="47.0857180" lon="6.7011740">
        <ele>905.3</ele>
        <time>2022-07-21T16:07:36Z</time>
      </trkpt>
      <trkpt lat="47.0857180" lon="6.7011580">
        <ele>905.4</ele>
        <time>2022-07-21T16:07:37Z</time>
      </trkpt>
      <trkpt lat="47.0857190" lon="6.7011330">
        <ele>905.5</ele>
        <time>2022-07-21T16:07:38Z</time>
      </trkpt>
      <trkpt lat="47.0857210" lon="6.7011170">
        <ele>905.6</ele>
        <time>2022-07-21T16:07:39Z</time>
      </trkpt>
      <trkpt lat="47.0857230" lon="6.7010900">
        <ele>905.7</ele>
        <time>2022-07-21T16:07:40Z</time>
      </trkpt>
      <trkpt lat="47.0857270" lon="6.7010650">
        <ele>905.9</ele>
        <time>2022-07-21T16:07:41Z</time>
      </trkpt>
      <trkpt lat="47.0857330" lon="6.7010400">
        <ele>906.0</ele>
        <time>2022-07-21T16:07:42Z</time>
      </trkpt>
      <trkpt lat="47.0857370" lon="6.7010190">
        <ele>906.2</ele>
        <time>2022-07-21T16:07:43Z</time>
      </trkpt>
      <trkpt lat="47.0857410" lon="6.7009940">
        <ele>906.3</ele>
        <time>2022-07-21T16:07:44Z</time>
      </trkpt>
      <trkpt lat="47.0857430" lon="6.7009790">
        <ele>906.4</ele>
        <time>2022-07-21T16:07:45Z</time>
      </trkpt>
      <trkpt lat="47.0857440" lon="6.7009530">
        <ele>906.5</ele>
        <time>2022-07-21T16:07:46Z</time>
      </trkpt>
      <trkpt lat="47.0857450" lon="6.7009300">
        <ele>906.7</ele>
        <time>2022-07-21T16:07:47Z</time>
      </trkpt>
      <trkpt lat="47.0857460" lon="6.7009080">
        <ele>906.8</ele>
        <time>2022-07-21T16:07:48Z</time>
      </trkpt>
      <trkpt lat="47.0857470" lon="6.7008860">
        <ele>906.9</ele>
        <time>2022-07-21T16:07:49Z</time>
      </trkpt>
      <trkpt lat="47.0857490" lon="6.7008440">
        <ele>907.1</ele>
        <time>2022-07-21T16:07:50Z</time>
      </trkpt>
      <trkpt lat="47.0857500" lon="6.7008290">
        <ele>907.2</ele>
        <time>2022-07-21T16:07:51Z</time>
      </trkpt>
      <trkpt lat="47.0857530" lon="6.7007850">
        <ele>907.4</ele>
        <time>2022-07-21T16:07:52Z</time>
      </trkpt>
      <trkpt lat="47.0857540" lon="6.7007710">
        <ele>907.5</ele>
        <time>2022-07-21T16:07:53Z</time>
      </trkpt>
      <trkpt lat="47.0857580" lon="6.7007290">
        <ele>907.7</ele>
        <time>2022-07-21T16:07:54Z</time>
      </trkpt>
      <trkpt lat="47.0857590" lon="6.7007160">
        <ele>907.7</ele>
        <time>2022-07-21T16:07:55Z</time>
      </trkpt>
      <trkpt lat="47.0857640" lon="6.7006750">
        <ele>907.9</ele>
        <time>2022-07-21T16:07:56Z</time>
      </trkpt>
      <trkpt lat="47.0857660" lon="6.7006610">
        <ele>908.0</ele>
        <time>2022-07-21T16:07:57Z</time>
      </trkpt>
      <trkpt lat="47.0857680" lon="6.7006420">
        <ele>908.1</ele>
        <time>2022-07-21T16:07:58Z</time>
      </trkpt>
      <trkpt lat="47.0857710" lon="6.7006100">
        <ele>908.2</ele>
        <time>2022-07-21T16:07:59Z</time>
      </trkpt>
      <trkpt lat="47.0857740" lon="6.7005630">
        <ele>908.5</ele>
        <time>2022-07-21T16:08:00Z</time>
      </trkpt>
      <trkpt lat="47.0857740" lon="6.7005480">
        <ele>908.5</ele>
        <time>2022-07-21T16:08:01Z</time>
      </trkpt>
      <trkpt lat="47.0857760" lon="6.7005040">
        <ele>908.7</ele>
        <time>2022-07-21T16:08:02Z</time>
      </trkpt>
      <trkpt lat="47.0857770" lon="6.7004910">
        <ele>908.8</ele>
        <time>2022-07-21T16:08:03Z</time>
      </trkpt>
      <trkpt lat="47.0857780" lon="6.7004640">
        <ele>908.9</ele>
        <time>2022-07-21T16:08:04Z</time>
      </trkpt>
      <trkpt lat="47.0857800" lon="6.7004380">
        <ele>909.1</ele>
        <time>2022-07-21T16:08:05Z</time>
      </trkpt>
      <trkpt lat="47.0857820" lon="6.7004110">
        <ele>909.2</ele>
        <time>2022-07-21T16:08:06Z</time>
      </trkpt>
      <trkpt lat="47.0857840" lon="6.7003890">
        <ele>909.3</ele>
        <time>2022-07-21T16:08:07Z</time>
      </trkpt>
      <trkpt lat="47.0857860" lon="6.7003760">
        <ele>909.3</ele>
        <time>2022-07-21T16:08:08Z</time>
      </trkpt>
      <trkpt lat="47.0857890" lon="6.7003470">
        <ele>909.5</ele>
        <time>2022-07-21T16:08:09Z</time>
      </trkpt>
      <trkpt lat="47.0857920" lon="6.7003050">
        <ele>909.7</ele>
        <time>2022-07-21T16:08:10Z</time>
      </trkpt>
      <trkpt lat="47.0857930" lon="6.7002910">
        <ele>909.7</ele>
        <time>2022-07-21T16:08:11Z</time>
      </trkpt>
      <trkpt lat="47.0857950" lon="6.7002720">
        <ele>909.8</ele>
        <time>2022-07-21T16:08:12Z</time>
      </trkpt>
      <trkpt lat="47.0857990" lon="6.7002460">
        <ele>910.0</ele>
        <time>2022-07-21T16:08:13Z</time>
      </trkpt>
      <trkpt lat="47.0858060" lon="6.7002000">
        <ele>910.2</ele>
        <time>2022-07-21T16:08:14Z</time>
      </trkpt>
      <trkpt lat="47.0858080" lon="6.7001850">
        <ele>910.3</ele>
        <time>2022-07-21T16:08:15Z</time>
      </trkpt>
      <trkpt lat="47.0858130" lon="6.7001400">
        <ele>910.5</ele>
        <time>2022-07-21T16:08:16Z</time>
      </trkpt>
      <trkpt lat="47.0858150" lon="6.7001250">
        <ele>910.5</ele>
        <time>2022-07-21T16:08:17Z</time>
      </trkpt>
      <trkpt lat="47.0858220" lon="6.7000860">
        <ele>910.7</ele>
        <time>2022-07-21T16:08:18Z</time>
      </trkpt>
      <trkpt lat="47.0858240" lon="6.7000740">
        <ele>910.8</ele>
        <time>2022-07-21T16:08:19Z</time>
      </trkpt>
      <trkpt lat="47.0858270" lon="6.7000580">
        <ele>910.9</ele>
        <time>2022-07-21T16:08:20Z</time>
      </trkpt>
      <trkpt lat="47.0858310" lon="6.7000310">
        <ele>911.0</ele>
        <time>2022-07-21T16:08:21Z</time>
      </trkpt>
      <trkpt lat="47.0858370" lon="6.6999930">
        <ele>911.2</ele>
        <time>2022-07-21T16:08:22Z</time>
      </trkpt>
      <trkpt lat="47.0858390" lon="6.6999790">
        <ele>911.3</ele>
        <time>2022-07-21T16:08:23Z</time>
      </trkpt>
      <trkpt lat="47.0858440" lon="6.6999370">
        <ele>911.5</ele>
        <time>2022-07-21T16:08:24Z</time>
      </trkpt>
      <trkpt lat="47.0858460" lon="6.6999230">
        <ele>911.5</ele>
        <time>2022-07-21T16:08:25Z</time>
      </trkpt>
      <trkpt lat="47.0858480" lon="6.6999020">
        <ele>911.6</ele>
        <time>2022-07-21T16:08:26Z</time>
      </trkpt>
      <trkpt lat="47.0858500" lon="6.6998810">
        <ele>911.7</ele>
        <time>2022-07-21T16:08:27Z</time>
      </trkpt>
      <trkpt lat="47.0858540" lon="6.6998380">
        <ele>911.9</ele>
        <time>2022-07-21T16:08:28Z</time>
      </trkpt>
      <trkpt lat="47.0858550" lon="6.6998230">
        <ele>912.0</ele>
        <time>2022-07-21T16:08:29Z</time>
      </trkpt>
      <trkpt lat="47.0858590" lon="6.6997790">
        <ele>912.2</ele>
        <time>2022-07-21T16:08:30Z</time>
      </trkpt>
      <trkpt lat="47.0858600" lon="6.6997640">
        <ele>912.3</ele>
        <time>2022-07-21T16:08:31Z</time>
      </trkpt>
      <trkpt lat="47.0858630" lon="6.6997230">
        <ele>912.5</ele>
        <time>2022-07-21T16:08:32Z</time>
      </trkpt>
      <trkpt lat="47.0858640" lon="6.6997100">
        <ele>912.5</ele>
        <time>2022-07-21T16:08:33Z</time>
      </trkpt>
      <trkpt lat="47.0858670" lon="6.6996830">
        <ele>912.7</ele>
        <time>2022-07-21T16:08:34Z</time>
      </trkpt>
      <trkpt lat="47.0858690" lon="6.6996570">
        <ele>912.8</ele>
        <time>2022-07-21T16:08:35Z</time>
      </trkpt>
      <trkpt lat="47.0858730" lon="6.6996170">
        <ele>913.0</ele>
        <time>2022-07-21T16:08:36Z</time>
      </trkpt>
      <trkpt lat="47.0858740" lon="6.6996020">
        <ele>913.0</ele>
        <time>2022-07-21T16:08:37Z</time>
      </trkpt>
      <trkpt lat="47.0858790" lon="6.6995580">
        <ele>913.2</ele>
        <time>2022-07-21T16:08:38Z</time>
      </trkpt>
      <trkpt lat="47.0858810" lon="6.6995430">
        <ele>913.3</ele>
        <time>2022-07-21T16:08:39Z</time>
      </trkpt>
      <trkpt lat="47.0858850" lon="6.6995030">
        <ele>913.5</ele>
        <time>2022-07-21T16:08:40Z</time>
      </trkpt>
      <trkpt lat="47.0858860" lon="6.6994900">
        <ele>913.5</ele>
        <time>2022-07-21T16:08:41Z</time>
      </trkpt>
      <trkpt lat="47.0858890" lon="6.6994640">
        <ele>913.7</ele>
        <time>2022-07-21T16:08:42Z</time>
      </trkpt>
      <trkpt lat="47.0858910" lon="6.6994380">
        <ele>913.8</ele>
        <time>2022-07-21T16:08:43Z</time>
      </trkpt>
      <trkpt lat="47.0858940" lon="6.6993980">
        <ele>913.9</ele>
        <time>2022-07-21T16:08:44Z</time>
      </trkpt>
      <trkpt lat="47.0858950" lon="6.6993830">
        <ele>914.0</ele>
        <time>2022-07-21T16:08:45Z</time>
      </trkpt>
      <trkpt lat="47.0858970" lon="6.6993360">
        <ele>914.2</ele>
        <time>2022-07-21T16:08:46Z</time>
      </trkpt>
      <trkpt lat="47.0858980" lon="6.6993200">
        <ele>914.3</ele>
        <time>2022-07-21T16:08:47Z</time>
      </trkpt>
      <trkpt lat="47.0858980" lon="6.6992770">
        <ele>914.4</ele>
        <time>2022-07-21T16:08:48Z</time>
      </trkpt>
      <trkpt lat="47.0858980" lon="6.6992620">
        <ele>914.5</ele>
        <time>2022-07-21T16:08:49Z</time>
      </trkpt>
      <trkpt lat="47.0858960" lon="6.6992130">
        <ele>914.6</ele>
        <time>2022-07-21T16:08:50Z</time>
      </trkpt>
      <trkpt lat="47.0858960" lon="6.6991970">
        <ele>914.7</ele>
        <time>2022-07-21T16:08:51Z</time>
      </trkpt>
      <trkpt lat="47.0858950" lon="6.6991520">
        <ele>914.9</ele>
        <time>2022-07-21T16:08:52Z</time>
      </trkpt>
      <trkpt lat="47.0858950" lon="6.6991410">
        <ele>914.9</ele>
        <time>2022-07-21T16:08:53Z</time>
      </trkpt>
      <trkpt lat="47.0858930" lon="6.6990980">
        <ele>915.0</ele>
        <time>2022-07-21T16:08:54Z</time>
      </trkpt>
      <trkpt lat="47.0858920" lon="6.6990830">
        <ele>915.1</ele>
        <time>2022-07-21T16:08:55Z</time>
      </trkpt>
      <trkpt lat="47.0858880" lon="6.6990320">
        <ele>915.2</ele>
        <time>2022-07-21T16:08:56Z</time>
      </trkpt>
      <trkpt lat="47.0858860" lon="6.6990140">
        <ele>915.3</ele>
        <time>2022-07-21T16:08:57Z</time>
      </trkpt>
      <trkpt lat="47.0858830" lon="6.6989650">
        <ele>915.4</ele>
        <time>2022-07-21T16:08:58Z</time>
      </trkpt>
      <trkpt lat="47.0858810" lon="6.6989480">
        <ele>915.4</ele>
        <time>2022-07-21T16:08:59Z</time>
      </trkpt>
      <trkpt lat="47.0858770" lon="6.6988930">
        <ele>915.5</ele>
        <time>2022-07-21T16:09:00Z</time>
      </trkpt>
      <trkpt lat="47.0858770" lon="6.6988760">
        <ele>915.5</ele>
        <time>2022-07-21T16:09:01Z</time>
      </trkpt>
      <trkpt lat="47.0858750" lon="6.6988300">
        <ele>915.6</ele>
        <time>2022-07-21T16:09:02Z</time>
      </trkpt>
      <trkpt lat="47.0858740" lon="6.6988130">
        <ele>915.7</ele>
        <time>2022-07-21T16:09:03Z</time>
      </trkpt>
      <trkpt lat="47.0858730" lon="6.6987730">
        <ele>915.7</ele>
        <time>2022-07-21T16:09:04Z</time>
      </trkpt>
      <trkpt lat="47.0858720" lon="6.6987180">
        <ele>915.8</ele>
        <time>2022-07-21T16:09:05Z</time>
      </trkpt>
      <trkpt lat="47.0858720" lon="6.6987000">
        <ele>915.9</ele>
        <time>2022-07-21T16:09:06Z</time>
      </trkpt>
      <trkpt lat="47.0858730" lon="6.6986570">
        <ele>915.9</ele>
        <time>2022-07-21T16:09:07Z</time>
      </trkpt>
      <trkpt lat="47.0858740" lon="6.6986140">
        <ele>916.0</ele>
        <time>2022-07-21T16:09:08Z</time>
      </trkpt>
      <trkpt lat="47.0858750" lon="6.6985740">
        <ele>916.1</ele>
        <time>2022-07-21T16:09:09Z</time>
      </trkpt>
      <trkpt lat="47.0858730" lon="6.6985260">
        <ele>916.2</ele>
        <time>2022-07-21T16:09:10Z</time>
      </trkpt>
      <trkpt lat="47.0858720" lon="6.6985060">
        <ele>916.3</ele>
        <time>2022-07-21T16:09:11Z</time>
      </trkpt>
      <trkpt lat="47.0858690" lon="6.6984660">
        <ele>916.4</ele>
        <time>2022-07-21T16:09:12Z</time>
      </trkpt>
      <trkpt lat="47.0858700" lon="6.6984090">
        <ele>916.5</ele>
        <time>2022-07-21T16:09:13Z</time>
      </trkpt>
      <trkpt lat="47.0858710" lon="6.6983910">
        <ele>916.6</ele>
        <time>2022-07-21T16:09:14Z</time>
      </trkpt>
      <trkpt lat="47.0858720" lon="6.6983420">
        <ele>916.7</ele>
        <time>2022-07-21T16:09:15Z</time>
      </trkpt>
      <trkpt lat="47.0858720" lon="6.6983250">
        <ele>916.7</ele>
        <time>2022-07-21T16:09:16Z</time>
      </trkpt>
      <trkpt lat="47.0858720" lon="6.6982770">
        <ele>916.8</ele>
        <time>2022-07-21T16:09:17Z</time>
      </trkpt>
      <trkpt lat="47.0858720" lon="6.6982590">
        <ele>916.8</ele>
        <time>2022-07-21T16:09:18Z</time>
      </trkpt>
      <trkpt lat="47.0858720" lon="6.6982380">
        <ele>916.9</ele>
        <time>2022-07-21T16:09:19Z</time>
      </trkpt>
      <trkpt lat="47.0858730" lon="6.6982130">
        <ele>916.9</ele>
        <time>2022-07-21T16:09:20Z</time>
      </trkpt>
      <trkpt lat="47.0858700" lon="6.6981660">
        <ele>917.0</ele>
        <time>2022-07-21T16:09:22Z</time>
      </trkpt>
      <trkpt lat="47.0858670" lon="6.6981440">
        <ele>917.0</ele>
        <time>2022-07-21T16:09:23Z</time>
      </trkpt>
      <trkpt lat="47.0858630" lon="6.6981280">
        <ele>917.0</ele>
        <time>2022-07-21T16:09:24Z</time>
      </trkpt>
      <trkpt lat="47.0858500" lon="6.6980880">
        <ele>917.1</ele>
        <time>2022-07-21T16:09:25Z</time>
      </trkpt>
      <trkpt lat="47.0858460" lon="6.6980750">
        <ele>917.1</ele>
        <time>2022-07-21T16:09:26Z</time>
      </trkpt>
      <trkpt lat="47.0858290" lon="6.6980460">
        <ele>917.2</ele>
        <time>2022-07-21T16:09:27Z</time>
      </trkpt>
      <trkpt lat="47.0858200" lon="6.6980340">
        <ele>917.2</ele>
        <time>2022-07-21T16:09:28Z</time>
      </trkpt>
      <trkpt lat="47.0857950" lon="6.6979930">
        <ele>917.3</ele>
        <time>2022-07-21T16:09:29Z</time>
      </trkpt>
      <trkpt lat="47.0857860" lon="6.6979790">
        <ele>917.3</ele>
        <time>2022-07-21T16:09:30Z</time>
      </trkpt>
      <trkpt lat="47.0857560" lon="6.6979390">
        <ele>917.3</ele>
        <time>2022-07-21T16:09:31Z</time>
      </trkpt>
      <trkpt lat="47.0857440" lon="6.6979250">
        <ele>917.4</ele>
        <time>2022-07-21T16:09:32Z</time>
      </trkpt>
      <trkpt lat="47.0857200" lon="6.6978980">
        <ele>917.4</ele>
        <time>2022-07-21T16:09:33Z</time>
      </trkpt>
      <trkpt lat="47.0856960" lon="6.6978690">
        <ele>917.4</ele>
        <time>2022-07-21T16:09:34Z</time>
      </trkpt>
      <trkpt lat="47.0856710" lon="6.6978400">
        <ele>917.4</ele>
        <time>2022-07-21T16:09:35Z</time>
      </trkpt>
      <trkpt lat="47.0856500" lon="6.6978090">
        <ele>917.4</ele>
        <time>2022-07-21T16:09:36Z</time>
      </trkpt>
      <trkpt lat="47.0856290" lon="6.6977750">
        <ele>917.4</ele>
        <time>2022-07-21T16:09:37Z</time>
      </trkpt>
      <trkpt lat="47.0856080" lon="6.6977410">
        <ele>917.4</ele>
        <time>2022-07-21T16:09:38Z</time>
      </trkpt>
      <trkpt lat="47.0855840" lon="6.6977090">
        <ele>917.5</ele>
        <time>2022-07-21T16:09:39Z</time>
      </trkpt>
      <trkpt lat="47.0855630" lon="6.6976790">
        <ele>917.5</ele>
        <time>2022-07-21T16:09:40Z</time>
      </trkpt>
      <trkpt lat="47.0855410" lon="6.6976460">
        <ele>917.5</ele>
        <time>2022-07-21T16:09:41Z</time>
      </trkpt>
      <trkpt lat="47.0855210" lon="6.6976120">
        <ele>917.5</ele>
        <time>2022-07-21T16:09:42Z</time>
      </trkpt>
      <trkpt lat="47.0855020" lon="6.6975790">
        <ele>917.5</ele>
        <time>2022-07-21T16:09:43Z</time>
      </trkpt>
      <trkpt lat="47.0854710" lon="6.6975260">
        <ele>917.5</ele>
        <time>2022-07-21T16:09:44Z</time>
      </trkpt>
      <trkpt lat="47.0854370" lon="6.6974800">
        <ele>917.5</ele>
        <time>2022-07-21T16:09:46Z</time>
      </trkpt>
      <trkpt lat="47.0853960" lon="6.6974360">
        <ele>917.4</ele>
        <time>2022-07-21T16:09:47Z</time>
      </trkpt>
      <trkpt lat="47.0853620" lon="6.6973970">
        <ele>917.4</ele>
        <time>2022-07-21T16:09:48Z</time>
      </trkpt>
      <trkpt lat="47.0853230" lon="6.6973530">
        <ele>917.3</ele>
        <time>2022-07-21T16:09:50Z</time>
      </trkpt>
      <trkpt lat="47.0852780" lon="6.6973030">
        <ele>917.1</ele>
        <time>2022-07-21T16:09:51Z</time>
      </trkpt>
      <trkpt lat="47.0851890" lon="6.6972250">
        <ele>916.7</ele>
        <time>2022-07-21T16:09:53Z</time>
      </trkpt>
      <trkpt lat="47.0851500" lon="6.6971850">
        <ele>916.5</ele>
        <time>2022-07-21T16:09:54Z</time>
      </trkpt>
      <trkpt lat="47.0851160" lon="6.6971520">
        <ele>916.3</ele>
        <time>2022-07-21T16:09:55Z</time>
      </trkpt>
      <trkpt lat="47.0850760" lon="6.6971130">
        <ele>916.1</ele>
        <time>2022-07-21T16:09:56Z</time>
      </trkpt>
      <trkpt lat="47.0850320" lon="6.6970690">
        <ele>915.8</ele>
        <time>2022-07-21T16:09:57Z</time>
      </trkpt>
      <trkpt lat="47.0849910" lon="6.6970260">
        <ele>915.7</ele>
        <time>2022-07-21T16:09:58Z</time>
      </trkpt>
      <trkpt lat="47.0849480" lon="6.6969900">
        <ele>915.5</ele>
        <time>2022-07-21T16:09:59Z</time>
      </trkpt>
      <trkpt lat="47.0849080" lon="6.6970160">
        <ele>915.4</ele>
        <time>2022-07-21T16:10:00Z</time>
      </trkpt>
      <trkpt lat="47.0848630" lon="6.6970320">
        <ele>915.0</ele>
        <time>2022-07-21T16:10:01Z</time>
      </trkpt>
      <trkpt lat="47.0848200" lon="6.6970360">
        <ele>914.7</ele>
        <time>2022-07-21T16:10:02Z</time>
      </trkpt>
      <trkpt lat="47.0847310" lon="6.6970750">
        <ele>914.2</ele>
        <time>2022-07-21T16:10:04Z</time>
      </trkpt>
      <trkpt lat="47.0846690" lon="6.6970940">
        <ele>913.8</ele>
        <time>2022-07-21T16:10:05Z</time>
      </trkpt>
      <trkpt lat="47.0846050" lon="6.6971130">
        <ele>913.5</ele>
        <time>2022-07-21T16:10:06Z</time>
      </trkpt>
      <trkpt lat="47.0845410" lon="6.6971290">
        <ele>913.3</ele>
        <time>2022-07-21T16:10:07Z</time>
      </trkpt>
      <trkpt lat="47.0844760" lon="6.6971430">
        <ele>913.1</ele>
        <time>2022-07-21T16:10:08Z</time>
      </trkpt>
      <trkpt lat="47.0844110" lon="6.6971590">
        <ele>912.9</ele>
        <time>2022-07-21T16:10:09Z</time>
      </trkpt>
      <trkpt lat="47.0843510" lon="6.6971790">
        <ele>912.8</ele>
        <time>2022-07-21T16:10:10Z</time>
      </trkpt>
      <trkpt lat="47.0842910" lon="6.6972000">
        <ele>912.7</ele>
        <time>2022-07-21T16:10:11Z</time>
      </trkpt>
      <trkpt lat="47.0842340" lon="6.6972150">
        <ele>912.6</ele>
        <time>2022-07-21T16:10:12Z</time>
      </trkpt>
      <trkpt lat="47.0841760" lon="6.6972280">
        <ele>912.4</ele>
        <time>2022-07-21T16:10:13Z</time>
      </trkpt>
      <trkpt lat="47.0841140" lon="6.6972380">
        <ele>912.2</ele>
        <time>2022-07-21T16:10:14Z</time>
      </trkpt>
      <trkpt lat="47.0840520" lon="6.6972350">
        <ele>912.1</ele>
        <time>2022-07-21T16:10:15Z</time>
      </trkpt>
      <trkpt lat="47.0839920" lon="6.6972270">
        <ele>911.9</ele>
        <time>2022-07-21T16:10:16Z</time>
      </trkpt>
      <trkpt lat="47.0839320" lon="6.6972160">
        <ele>911.7</ele>
        <time>2022-07-21T16:10:17Z</time>
      </trkpt>
      <trkpt lat="47.0838700" lon="6.6971980">
        <ele>911.5</ele>
        <time>2022-07-21T16:10:18Z</time>
      </trkpt>
      <trkpt lat="47.0838090" lon="6.6971840">
        <ele>911.4</ele>
        <time>2022-07-21T16:10:19Z</time>
      </trkpt>
      <trkpt lat="47.0837480" lon="6.6971680">
        <ele>911.2</ele>
        <time>2022-07-21T16:10:20Z</time>
      </trkpt>
      <trkpt lat="47.0836840" lon="6.6971490">
        <ele>911.0</ele>
        <time>2022-07-21T16:10:21Z</time>
      </trkpt>
      <trkpt lat="47.0836210" lon="6.6971280">
        <ele>910.8</ele>
        <time>2022-07-21T16:10:22Z</time>
      </trkpt>
      <trkpt lat="47.0835560" lon="6.6971060">
        <ele>910.6</ele>
        <time>2022-07-21T16:10:23Z</time>
      </trkpt>
      <trkpt lat="47.0834910" lon="6.6970850">
        <ele>910.4</ele>
        <time>2022-07-21T16:10:24Z</time>
      </trkpt>
      <trkpt lat="47.0834330" lon="6.6970710">
        <ele>910.3</ele>
        <time>2022-07-21T16:10:25Z</time>
      </trkpt>
      <trkpt lat="47.0833730" lon="6.6970830">
        <ele>910.1</ele>
        <time>2022-07-21T16:10:26Z</time>
      </trkpt>
      <trkpt lat="47.0833110" lon="6.6971130">
        <ele>910.0</ele>
        <time>2022-07-21T16:10:27Z</time>
      </trkpt>
      <trkpt lat="47.0832490" lon="6.6971410">
        <ele>909.8</ele>
        <time>2022-07-21T16:10:28Z</time>
      </trkpt>
      <trkpt lat="47.0831910" lon="6.6971730">
        <ele>909.7</ele>
        <time>2022-07-21T16:10:29Z</time>
      </trkpt>
      <trkpt lat="47.0831320" lon="6.6972080">
        <ele>909.7</ele>
        <time>2022-07-21T16:10:30Z</time>
      </trkpt>
      <trkpt lat="47.0830740" lon="6.6972470">
        <ele>909.7</ele>
        <time>2022-07-21T16:10:31Z</time>
      </trkpt>
      <trkpt lat="47.0830200" lon="6.6972870">
        <ele>909.8</ele>
        <time>2022-07-21T16:10:32Z</time>
      </trkpt>
      <trkpt lat="47.0829660" lon="6.6973360">
        <ele>909.8</ele>
        <time>2022-07-21T16:10:33Z</time>
      </trkpt>
      <trkpt lat="47.0829200" lon="6.6973940">
        <ele>909.9</ele>
        <time>2022-07-21T16:10:34Z</time>
      </trkpt>
      <trkpt lat="47.0828820" lon="6.6974490">
        <ele>909.9</ele>
        <time>2022-07-21T16:10:35Z</time>
      </trkpt>
      <trkpt lat="47.0828480" lon="6.6975040">
        <ele>910.0</ele>
        <time>2022-07-21T16:10:36Z</time>
      </trkpt>
      <trkpt lat="47.0828160" lon="6.6975570">
        <ele>910.0</ele>
        <time>2022-07-21T16:10:37Z</time>
      </trkpt>
      <trkpt lat="47.0827930" lon="6.6975910">
        <ele>910.1</ele>
        <time>2022-07-21T16:10:38Z</time>
      </trkpt>
      <trkpt lat="47.0827670" lon="6.6976260">
        <ele>910.1</ele>
        <time>2022-07-21T16:10:39Z</time>
      </trkpt>
      <trkpt lat="47.0827380" lon="6.6976660">
        <ele>910.3</ele>
        <time>2022-07-21T16:10:40Z</time>
      </trkpt>
      <trkpt lat="47.0827020" lon="6.6977070">
        <ele>910.4</ele>
        <time>2022-07-21T16:10:41Z</time>
      </trkpt>
      <trkpt lat="47.0826720" lon="6.6977450">
        <ele>910.5</ele>
        <time>2022-07-21T16:10:42Z</time>
      </trkpt>
      <trkpt lat="47.0826620" lon="6.6977590">
        <ele>910.6</ele>
        <time>2022-07-21T16:10:43Z</time>
      </trkpt>
      <trkpt lat="47.0826370" lon="6.6977850">
        <ele>910.7</ele>
        <time>2022-07-21T16:10:44Z</time>
      </trkpt>
      <trkpt lat="47.0826290" lon="6.6977880">
        <ele>910.7</ele>
        <time>2022-07-21T16:10:45Z</time>
      </trkpt>
      <trkpt lat="47.0825980" lon="6.6978060">
        <ele>910.9</ele>
        <time>2022-07-21T16:10:46Z</time>
      </trkpt>
      <trkpt lat="47.0825850" lon="6.6978180">
        <ele>910.9</ele>
        <time>2022-07-21T16:10:47Z</time>
      </trkpt>
      <trkpt lat="47.0825600" lon="6.6978380">
        <ele>911.1</ele>
        <time>2022-07-21T16:10:48Z</time>
      </trkpt>
      <trkpt lat="47.0825230" lon="6.6978630">
        <ele>911.2</ele>
        <time>2022-07-21T16:10:49Z</time>
      </trkpt>
      <trkpt lat="47.0825090" lon="6.6978720">
        <ele>911.3</ele>
        <time>2022-07-21T16:10:50Z</time>
      </trkpt>
      <trkpt lat="47.0824710" lon="6.6979000">
        <ele>911.5</ele>
        <time>2022-07-21T16:10:52Z</time>
      </trkpt>
      <trkpt lat="47.0824570" lon="6.6979100">
        <ele>911.6</ele>
        <time>2022-07-21T16:10:53Z</time>
      </trkpt>
      <trkpt lat="47.0824440" lon="6.6979200">
        <ele>911.7</ele>
        <time>2022-07-21T16:10:54Z</time>
      </trkpt>
      <trkpt lat="47.0823950" lon="6.6979500">
        <ele>912.0</ele>
        <time>2022-07-21T16:10:55Z</time>
      </trkpt>
      <trkpt lat="47.0823500" lon="6.6979690">
        <ele>912.3</ele>
        <time>2022-07-21T16:10:57Z</time>
      </trkpt>
      <trkpt lat="47.0823350" lon="6.6979720">
        <ele>912.4</ele>
        <time>2022-07-21T16:10:58Z</time>
      </trkpt>
      <trkpt lat="47.0823210" lon="6.6979760">
        <ele>912.4</ele>
        <time>2022-07-21T16:10:59Z</time>
      </trkpt>
      <trkpt lat="47.0822890" lon="6.6979840">
        <ele>912.7</ele>
        <time>2022-07-21T16:11:00Z</time>
      </trkpt>
      <trkpt lat="47.0822620" lon="6.6979950">
        <ele>912.9</ele>
        <time>2022-07-21T16:11:01Z</time>
      </trkpt>
      <trkpt lat="47.0822350" lon="6.6980110">
        <ele>913.1</ele>
        <time>2022-07-21T16:11:02Z</time>
      </trkpt>
      <trkpt lat="47.0822270" lon="6.6980150">
        <ele>913.1</ele>
        <time>2022-07-21T16:11:03Z</time>
      </trkpt>
      <trkpt lat="47.0822230" lon="6.6980210">
        <ele>913.2</ele>
        <time>2022-07-21T16:11:05Z</time>
      </trkpt>
      <trkpt lat="47.0822090" lon="6.6980330">
        <ele>913.3</ele>
        <time>2022-07-21T16:11:06Z</time>
      </trkpt>
      <trkpt lat="47.0821990" lon="6.6980400">
        <ele>913.4</ele>
        <time>2022-07-21T16:11:07Z</time>
      </trkpt>
      <trkpt lat="47.0821780" lon="6.6980430">
        <ele>913.6</ele>
        <time>2022-07-21T16:11:08Z</time>
      </trkpt>
      <trkpt lat="47.0821670" lon="6.6980420">
        <ele>913.7</ele>
        <time>2022-07-21T16:11:09Z</time>
      </trkpt>
      <trkpt lat="47.0821550" lon="6.6980400">
        <ele>913.8</ele>
        <time>2022-07-21T16:11:11Z</time>
      </trkpt>
      <trkpt lat="47.0821430" lon="6.6980380">
        <ele>913.9</ele>
        <time>2022-07-21T16:11:12Z</time>
      </trkpt>
      <trkpt lat="47.0821310" lon="6.6980370">
        <ele>914.0</ele>
        <time>2022-07-21T16:11:13Z</time>
      </trkpt>
      <trkpt lat="47.0821190" lon="6.6980350">
        <ele>914.1</ele>
        <time>2022-07-21T16:11:14Z</time>
      </trkpt>
      <trkpt lat="47.0820860" lon="6.6980250">
        <ele>914.3</ele>
        <time>2022-07-21T16:11:16Z</time>
      </trkpt>
      <trkpt lat="47.0820750" lon="6.6980210">
        <ele>914.4</ele>
        <time>2022-07-21T16:11:17Z</time>
      </trkpt>
      <trkpt lat="47.0820520" lon="6.6979990">
        <ele>914.6</ele>
        <time>2022-07-21T16:11:18Z</time>
      </trkpt>
      <trkpt lat="47.0820190" lon="6.6979510">
        <ele>915.0</ele>
        <time>2022-07-21T16:11:20Z</time>
      </trkpt>
      <trkpt lat="47.0820090" lon="6.6979330">
        <ele>915.1</ele>
        <time>2022-07-21T16:11:21Z</time>
      </trkpt>
      <trkpt lat="47.0819980" lon="6.6979140">
        <ele>915.2</ele>
        <time>2022-07-21T16:11:22Z</time>
      </trkpt>
      <trkpt lat="47.0819830" lon="6.6978710">
        <ele>915.5</ele>
        <time>2022-07-21T16:11:23Z</time>
      </trkpt>
      <trkpt lat="47.0819630" lon="6.6978290">
        <ele>915.7</ele>
        <time>2022-07-21T16:11:24Z</time>
      </trkpt>
      <trkpt lat="47.0819570" lon="6.6978180">
        <ele>915.8</ele>
        <time>2022-07-21T16:11:25Z</time>
      </trkpt>
      <trkpt lat="47.0819220" lon="6.6977850">
        <ele>916.1</ele>
        <time>2022-07-21T16:11:27Z</time>
      </trkpt>
      <trkpt lat="47.0819100" lon="6.6977710">
        <ele>916.2</ele>
        <time>2022-07-21T16:11:28Z</time>
      </trkpt>
      <trkpt lat="47.0818980" lon="6.6977580">
        <ele>916.3</ele>
        <time>2022-07-21T16:11:29Z</time>
      </trkpt>
      <trkpt lat="47.0818620" lon="6.6977490">
        <ele>916.6</ele>
        <time>2022-07-21T16:11:31Z</time>
      </trkpt>
      <trkpt lat="47.0818500" lon="6.6977510">
        <ele>916.6</ele>
        <time>2022-07-21T16:11:32Z</time>
      </trkpt>
      <trkpt lat="47.0818270" lon="6.6977620">
        <ele>916.8</ele>
        <time>2022-07-21T16:11:33Z</time>
      </trkpt>
      <trkpt lat="47.0817880" lon="6.6977740">
        <ele>917.1</ele>
        <time>2022-07-21T16:11:35Z</time>
      </trkpt>
      <trkpt lat="47.0817700" lon="6.6977770">
        <ele>917.2</ele>
        <time>2022-07-21T16:11:36Z</time>
      </trkpt>
      <trkpt lat="47.0817470" lon="6.6977960">
        <ele>917.4</ele>
        <time>2022-07-21T16:11:38Z</time>
      </trkpt>
      <trkpt lat="47.0817170" lon="6.6978050">
        <ele>917.6</ele>
        <time>2022-07-21T16:11:39Z</time>
      </trkpt>
      <trkpt lat="47.0817050" lon="6.6978040">
        <ele>917.7</ele>
        <time>2022-07-21T16:11:40Z</time>
      </trkpt>
      <trkpt lat="47.0816800" lon="6.6977770">
        <ele>917.9</ele>
        <time>2022-07-21T16:11:41Z</time>
      </trkpt>
      <trkpt lat="47.0816730" lon="6.6977670">
        <ele>918.0</ele>
        <time>2022-07-21T16:11:42Z</time>
      </trkpt>
      <trkpt lat="47.0816340" lon="6.6977480">
        <ele>918.3</ele>
        <time>2022-07-21T16:11:44Z</time>
      </trkpt>
      <trkpt lat="47.0815910" lon="6.6977410">
        <ele>918.6</ele>
        <time>2022-07-21T16:11:46Z</time>
      </trkpt>
      <trkpt lat="47.0815700" lon="6.6977360">
        <ele>918.7</ele>
        <time>2022-07-21T16:11:47Z</time>
      </trkpt>
      <trkpt lat="47.0815350" lon="6.6977290">
        <ele>919.0</ele>
        <time>2022-07-21T16:11:49Z</time>
      </trkpt>
      <trkpt lat="47.0815160" lon="6.6977270">
        <ele>919.1</ele>
        <time>2022-07-21T16:11:51Z</time>
      </trkpt>
      <trkpt lat="47.0814880" lon="6.6977300">
        <ele>919.3</ele>
        <time>2022-07-21T16:11:53Z</time>
      </trkpt>
      <trkpt lat="47.0814790" lon="6.6977300">
        <ele>919.3</ele>
        <time>2022-07-21T16:11:54Z</time>
      </trkpt>
      <trkpt lat="47.0814620" lon="6.6977290">
        <ele>919.4</ele>
        <time>2022-07-21T16:11:55Z</time>
      </trkpt>
      <trkpt lat="47.0814490" lon="6.6977280">
        <ele>919.5</ele>
        <time>2022-07-21T16:11:56Z</time>
      </trkpt>
      <trkpt lat="47.0814330" lon="6.6977200">
        <ele>919.6</ele>
        <time>2022-07-21T16:11:57Z</time>
      </trkpt>
      <trkpt lat="47.0814150" lon="6.6977120">
        <ele>919.7</ele>
        <time>2022-07-21T16:11:58Z</time>
      </trkpt>
      <trkpt lat="47.0813880" lon="6.6976930">
        <ele>919.9</ele>
        <time>2022-07-21T16:11:59Z</time>
      </trkpt>
      <trkpt lat="47.0813770" lon="6.6976830">
        <ele>920.0</ele>
        <time>2022-07-21T16:12:00Z</time>
      </trkpt>
      <trkpt lat="47.0813630" lon="6.6976780">
        <ele>920.1</ele>
        <time>2022-07-21T16:12:02Z</time>
      </trkpt>
      <trkpt lat="47.0813550" lon="6.6976790">
        <ele>920.1</ele>
        <time>2022-07-21T16:12:03Z</time>
      </trkpt>
      <trkpt lat="47.0813370" lon="6.6976830">
        <ele>920.2</ele>
        <time>2022-07-21T16:12:05Z</time>
      </trkpt>
      <trkpt lat="47.0813060" lon="6.6976980">
        <ele>920.4</ele>
        <time>2022-07-21T16:12:06Z</time>
      </trkpt>
      <trkpt lat="47.0812980" lon="6.6977030">
        <ele>920.5</ele>
        <time>2022-07-21T16:12:07Z</time>
      </trkpt>
      <trkpt lat="47.0812830" lon="6.6977110">
        <ele>920.6</ele>
        <time>2022-07-21T16:12:08Z</time>
      </trkpt>
      <trkpt lat="47.0812680" lon="6.6977140">
        <ele>920.7</ele>
        <time>2022-07-21T16:12:09Z</time>
      </trkpt>
      <trkpt lat="47.0812510" lon="6.6977140">
        <ele>920.8</ele>
        <time>2022-07-21T16:12:11Z</time>
      </trkpt>
      <trkpt lat="47.0812350" lon="6.6977080">
        <ele>921.0</ele>
        <time>2022-07-21T16:12:12Z</time>
      </trkpt>
      <trkpt lat="47.0812180" lon="6.6977010">
        <ele>921.1</ele>
        <time>2022-07-21T16:12:13Z</time>
      </trkpt>
      <trkpt lat="47.0812090" lon="6.6976950">
        <ele>921.2</ele>
        <time>2022-07-21T16:12:14Z</time>
      </trkpt>
      <trkpt lat="47.0811990" lon="6.6976900">
        <ele>921.3</ele>
        <time>2022-07-21T16:12:15Z</time>
      </trkpt>
      <trkpt lat="47.0811640" lon="6.6976860">
        <ele>921.5</ele>
        <time>2022-07-21T16:12:16Z</time>
      </trkpt>
      <trkpt lat="47.0811190" lon="6.6976660">
        <ele>921.9</ele>
        <time>2022-07-21T16:12:18Z</time>
      </trkpt>
      <trkpt lat="47.0811060" lon="6.6976520">
        <ele>922.1</ele>
        <time>2022-07-21T16:12:19Z</time>
      </trkpt>
      <trkpt lat="47.0810930" lon="6.6976380">
        <ele>922.2</ele>
        <time>2022-07-21T16:12:20Z</time>
      </trkpt>
      <trkpt lat="47.0810770" lon="6.6976280">
        <ele>922.4</ele>
        <time>2022-07-21T16:12:21Z</time>
      </trkpt>
      <trkpt lat="47.0810680" lon="6.6976260">
        <ele>922.5</ele>
        <time>2022-07-21T16:12:22Z</time>
      </trkpt>
      <trkpt lat="47.0810520" lon="6.6976140">
        <ele>922.6</ele>
        <time>2022-07-21T16:12:24Z</time>
      </trkpt>
      <trkpt lat="47.0810300" lon="6.6975940">
        <ele>922.8</ele>
        <time>2022-07-21T16:12:25Z</time>
      </trkpt>
      <trkpt lat="47.0810260" lon="6.6975750">
        <ele>923.0</ele>
        <time>2022-07-21T16:12:27Z</time>
      </trkpt>
      <trkpt lat="47.0810250" lon="6.6975650">
        <ele>923.0</ele>
        <time>2022-07-21T16:12:28Z</time>
      </trkpt>
      <trkpt lat="47.0810210" lon="6.6975600">
        <ele>923.1</ele>
        <time>2022-07-21T16:12:29Z</time>
      </trkpt>
      <trkpt lat="47.0810130" lon="6.6975560">
        <ele>923.1</ele>
        <time>2022-07-21T16:12:30Z</time>
      </trkpt>
      <trkpt lat="47.0810090" lon="6.6975530">
        <ele>923.2</ele>
        <time>2022-07-21T16:12:31Z</time>
      </trkpt>
      <trkpt lat="47.0810070" lon="6.6975520">
        <ele>923.2</ele>
        <time>2022-07-21T16:12:32Z</time>
      </trkpt>
      <trkpt lat="47.0810050" lon="6.6975490">
        <ele>923.2</ele>
        <time>2022-07-21T16:12:33Z</time>
      </trkpt>
      <trkpt lat="47.0810050" lon="6.6975470">
        <ele>923.2</ele>
        <time>2022-07-21T16:12:34Z</time>
      </trkpt>
      <trkpt lat="47.0810080" lon="6.6975420">
        <ele>923.3</ele>
        <time>2022-07-21T16:12:35Z</time>
      </trkpt>
      <trkpt lat="47.0810110" lon="6.6975410">
        <ele>923.3</ele>
        <time>2022-07-21T16:12:36Z</time>
      </trkpt>
      <trkpt lat="47.0810140" lon="6.6975400">
        <ele>923.3</ele>
        <time>2022-07-21T16:12:37Z</time>
      </trkpt>
      <trkpt lat="47.0810160" lon="6.6975370">
        <ele>923.4</ele>
        <time>2022-07-21T16:12:38Z</time>
      </trkpt>
      <trkpt lat="47.0810160" lon="6.6975340">
        <ele>923.4</ele>
        <time>2022-07-21T16:12:39Z</time>
      </trkpt>
      <trkpt lat="47.0810160" lon="6.6975310">
        <ele>923.4</ele>
        <time>2022-07-21T16:12:40Z</time>
      </trkpt>
      <trkpt lat="47.0810090" lon="6.6975180">
        <ele>923.5</ele>
        <time>2022-07-21T16:12:41Z</time>
      </trkpt>
      <trkpt lat="47.0810010" lon="6.6975050">
        <ele>923.6</ele>
        <time>2022-07-21T16:12:42Z</time>
      </trkpt>
      <trkpt lat="47.0809890" lon="6.6974870">
        <ele>923.7</ele>
        <time>2022-07-21T16:12:44Z</time>
      </trkpt>
      <trkpt lat="47.0809790" lon="6.6974760">
        <ele>923.8</ele>
        <time>2022-07-21T16:12:45Z</time>
      </trkpt>
      <trkpt lat="47.0809620" lon="6.6974710">
        <ele>924.0</ele>
        <time>2022-07-21T16:12:46Z</time>
      </trkpt>
      <trkpt lat="47.0809460" lon="6.6974670">
        <ele>924.1</ele>
        <time>2022-07-21T16:12:47Z</time>
      </trkpt>
      <trkpt lat="47.0809140" lon="6.6974710">
        <ele>924.3</ele>
        <time>2022-07-21T16:12:48Z</time>
      </trkpt>
      <trkpt lat="47.0809020" lon="6.6974730">
        <ele>924.4</ele>
        <time>2022-07-21T16:12:49Z</time>
      </trkpt>
      <trkpt lat="47.0808730" lon="6.6974710">
        <ele>924.7</ele>
        <time>2022-07-21T16:12:50Z</time>
      </trkpt>
      <trkpt lat="47.0808640" lon="6.6974700">
        <ele>924.7</ele>
        <time>2022-07-21T16:12:51Z</time>
      </trkpt>
      <trkpt lat="47.0808430" lon="6.6974720">
        <ele>924.9</ele>
        <time>2022-07-21T16:12:52Z</time>
      </trkpt>
      <trkpt lat="47.0807850" lon="6.6974830">
        <ele>925.3</ele>
        <time>2022-07-21T16:12:54Z</time>
      </trkpt>
      <trkpt lat="47.0807600" lon="6.6974860">
        <ele>925.4</ele>
        <time>2022-07-21T16:12:56Z</time>
      </trkpt>
      <trkpt lat="47.0807340" lon="6.6974840">
        <ele>925.6</ele>
        <time>2022-07-21T16:12:57Z</time>
      </trkpt>
      <trkpt lat="47.0807240" lon="6.6974810">
        <ele>925.6</ele>
        <time>2022-07-21T16:12:59Z</time>
      </trkpt>
      <trkpt lat="47.0807130" lon="6.6974790">
        <ele>925.7</ele>
        <time>2022-07-21T16:13:00Z</time>
      </trkpt>
      <trkpt lat="47.0807020" lon="6.6974760">
        <ele>925.7</ele>
        <time>2022-07-21T16:13:01Z</time>
      </trkpt>
      <trkpt lat="47.0806920" lon="6.6974730">
        <ele>925.8</ele>
        <time>2022-07-21T16:13:02Z</time>
      </trkpt>
      <trkpt lat="47.0806590" lon="6.6974540">
        <ele>926.0</ele>
        <time>2022-07-21T16:13:03Z</time>
      </trkpt>
      <trkpt lat="47.0806490" lon="6.6974500">
        <ele>926.0</ele>
        <time>2022-07-21T16:13:04Z</time>
      </trkpt>
      <trkpt lat="47.0806270" lon="6.6974470">
        <ele>926.1</ele>
        <time>2022-07-21T16:13:05Z</time>
      </trkpt>
      <trkpt lat="47.0806010" lon="6.6974530">
        <ele>926.2</ele>
        <time>2022-07-21T16:13:07Z</time>
      </trkpt>
      <trkpt lat="47.0805690" lon="6.6974610">
        <ele>926.3</ele>
        <time>2022-07-21T16:13:08Z</time>
      </trkpt>
      <trkpt lat="47.0805540" lon="6.6974600">
        <ele>926.4</ele>
        <time>2022-07-21T16:13:09Z</time>
      </trkpt>
      <trkpt lat="47.0805350" lon="6.6974650">
        <ele>926.5</ele>
        <time>2022-07-21T16:13:10Z</time>
      </trkpt>
      <trkpt lat="47.0805230" lon="6.6974740">
        <ele>926.5</ele>
        <time>2022-07-21T16:13:11Z</time>
      </trkpt>
      <trkpt lat="47.0804980" lon="6.6974960">
        <ele>926.6</ele>
        <time>2022-07-21T16:13:12Z</time>
      </trkpt>
      <trkpt lat="47.0804650" lon="6.6975140">
        <ele>926.7</ele>
        <time>2022-07-21T16:13:14Z</time>
      </trkpt>
      <trkpt lat="47.0804520" lon="6.6975210">
        <ele>926.7</ele>
        <time>2022-07-21T16:13:15Z</time>
      </trkpt>
      <trkpt lat="47.0804210" lon="6.6975350">
        <ele>926.7</ele>
        <time>2022-07-21T16:13:16Z</time>
      </trkpt>
      <trkpt lat="47.0803960" lon="6.6975390">
        <ele>926.8</ele>
        <time>2022-07-21T16:13:17Z</time>
      </trkpt>
      <trkpt lat="47.0803500" lon="6.6975340">
        <ele>926.8</ele>
        <time>2022-07-21T16:13:19Z</time>
      </trkpt>
      <trkpt lat="47.0803230" lon="6.6975230">
        <ele>926.9</ele>
        <time>2022-07-21T16:13:20Z</time>
      </trkpt>
      <trkpt lat="47.0802920" lon="6.6975140">
        <ele>926.9</ele>
        <time>2022-07-21T16:13:21Z</time>
      </trkpt>
      <trkpt lat="47.0802600" lon="6.6975100">
        <ele>927.0</ele>
        <time>2022-07-21T16:13:22Z</time>
      </trkpt>
      <trkpt lat="47.0802200" lon="6.6975120">
        <ele>927.0</ele>
        <time>2022-07-21T16:13:24Z</time>
      </trkpt>
      <trkpt lat="47.0802040" lon="6.6975140">
        <ele>927.0</ele>
        <time>2022-07-21T16:13:25Z</time>
      </trkpt>
      <trkpt lat="47.0801680" lon="6.6975200">
        <ele>927.0</ele>
        <time>2022-07-21T16:13:26Z</time>
      </trkpt>
      <trkpt lat="47.0801570" lon="6.6975230">
        <ele>927.0</ele>
        <time>2022-07-21T16:13:27Z</time>
      </trkpt>
      <trkpt lat="47.0801290" lon="6.6975300">
        <ele>927.0</ele>
        <time>2022-07-21T16:13:28Z</time>
      </trkpt>
      <trkpt lat="47.0801180" lon="6.6975330">
        <ele>927.0</ele>
        <time>2022-07-21T16:13:29Z</time>
      </trkpt>
      <trkpt lat="47.0800810" lon="6.6975380">
        <ele>927.0</ele>
        <time>2022-07-21T16:13:30Z</time>
      </trkpt>
      <trkpt lat="47.0800670" lon="6.6975400">
        <ele>927.0</ele>
        <time>2022-07-21T16:13:31Z</time>
      </trkpt>
      <trkpt lat="47.0800360" lon="6.6975460">
        <ele>926.9</ele>
        <time>2022-07-21T16:13:32Z</time>
      </trkpt>
      <trkpt lat="47.0800000" lon="6.6975540">
        <ele>926.9</ele>
        <time>2022-07-21T16:13:33Z</time>
      </trkpt>
      <trkpt lat="47.0799560" lon="6.6975670">
        <ele>926.8</ele>
        <time>2022-07-21T16:13:34Z</time>
      </trkpt>
      <trkpt lat="47.0799220" lon="6.6975770">
        <ele>926.8</ele>
        <time>2022-07-21T16:13:35Z</time>
      </trkpt>
      <trkpt lat="47.0798450" lon="6.6975820">
        <ele>926.5</ele>
        <time>2022-07-21T16:13:37Z</time>
      </trkpt>
      <trkpt lat="47.0798120" lon="6.6975840">
        <ele>926.4</ele>
        <time>2022-07-21T16:13:39Z</time>
      </trkpt>
      <trkpt lat="47.0797820" lon="6.6975800">
        <ele>926.3</ele>
        <time>2022-07-21T16:13:40Z</time>
      </trkpt>
      <trkpt lat="47.0797400" lon="6.6975820">
        <ele>926.2</ele>
        <time>2022-07-21T16:13:41Z</time>
      </trkpt>
      <trkpt lat="47.0797240" lon="6.6975830">
        <ele>926.1</ele>
        <time>2022-07-21T16:13:42Z</time>
      </trkpt>
      <trkpt lat="47.0796900" lon="6.6975820">
        <ele>925.9</ele>
        <time>2022-07-21T16:13:43Z</time>
      </trkpt>
      <trkpt lat="47.0796530" lon="6.6975860">
        <ele>925.7</ele>
        <time>2022-07-21T16:13:44Z</time>
      </trkpt>
      <trkpt lat="47.0796410" lon="6.6975890">
        <ele>925.6</ele>
        <time>2022-07-21T16:13:45Z</time>
      </trkpt>
      <trkpt lat="47.0796000" lon="6.6975820">
        <ele>925.4</ele>
        <time>2022-07-21T16:13:46Z</time>
      </trkpt>
      <trkpt lat="47.0795810" lon="6.6975780">
        <ele>925.3</ele>
        <time>2022-07-21T16:13:47Z</time>
      </trkpt>
      <trkpt lat="47.0795310" lon="6.6975550">
        <ele>924.9</ele>
        <time>2022-07-21T16:13:48Z</time>
      </trkpt>
      <trkpt lat="47.0794660" lon="6.6975260">
        <ele>924.4</ele>
        <time>2022-07-21T16:13:50Z</time>
      </trkpt>
      <trkpt lat="47.0794200" lon="6.6975120">
        <ele>924.1</ele>
        <time>2022-07-21T16:13:51Z</time>
      </trkpt>
      <trkpt lat="47.0793920" lon="6.6975020">
        <ele>924.0</ele>
        <time>2022-07-21T16:13:52Z</time>
      </trkpt>
      <trkpt lat="47.0793530" lon="6.6974820">
        <ele>923.8</ele>
        <time>2022-07-21T16:13:53Z</time>
      </trkpt>
      <trkpt lat="47.0793130" lon="6.6974620">
        <ele>923.6</ele>
        <time>2022-07-21T16:13:54Z</time>
      </trkpt>
      <trkpt lat="47.0792740" lon="6.6974450">
        <ele>923.4</ele>
        <time>2022-07-21T16:13:55Z</time>
      </trkpt>
      <trkpt lat="47.0792380" lon="6.6974250">
        <ele>923.2</ele>
        <time>2022-07-21T16:13:56Z</time>
      </trkpt>
      <trkpt lat="47.0791790" lon="6.6973920">
        <ele>922.9</ele>
        <time>2022-07-21T16:13:57Z</time>
      </trkpt>
      <trkpt lat="47.0790960" lon="6.6973860">
        <ele>922.4</ele>
        <time>2022-07-21T16:13:58Z</time>
      </trkpt>
      <trkpt lat="47.0790380" lon="6.6973790">
        <ele>922.0</ele>
        <time>2022-07-21T16:13:59Z</time>
      </trkpt>
      <trkpt lat="47.0789900" lon="6.6973740">
        <ele>921.7</ele>
        <time>2022-07-21T16:14:00Z</time>
      </trkpt>
      <trkpt lat="47.0789430" lon="6.6973670">
        <ele>921.4</ele>
        <time>2022-07-21T16:14:01Z</time>
      </trkpt>
      <trkpt lat="47.0788990" lon="6.6973560">
        <ele>921.0</ele>
        <time>2022-07-21T16:14:03Z</time>
      </trkpt>
      <trkpt lat="47.0788630" lon="6.6973360">
        <ele>920.7</ele>
        <time>2022-07-21T16:14:04Z</time>
      </trkpt>
      <trkpt lat="47.0788260" lon="6.6973100">
        <ele>920.4</ele>
        <time>2022-07-21T16:14:05Z</time>
      </trkpt>
      <trkpt lat="47.0787960" lon="6.6972960">
        <ele>920.1</ele>
        <time>2022-07-21T16:14:06Z</time>
      </trkpt>
      <trkpt lat="47.0787660" lon="6.6972920">
        <ele>919.8</ele>
        <time>2022-07-21T16:14:07Z</time>
      </trkpt>
      <trkpt lat="47.0787550" lon="6.6972890">
        <ele>919.7</ele>
        <time>2022-07-21T16:14:08Z</time>
      </trkpt>
      <trkpt lat="47.0787340" lon="6.6972820">
        <ele>919.5</ele>
        <time>2022-07-21T16:14:09Z</time>
      </trkpt>
      <trkpt lat="47.0787200" lon="6.6972810">
        <ele>919.4</ele>
        <time>2022-07-21T16:14:10Z</time>
      </trkpt>
      <trkpt lat="47.0787010" lon="6.6972810">
        <ele>919.2</ele>
        <time>2022-07-21T16:14:11Z</time>
      </trkpt>
      <trkpt lat="47.0786880" lon="6.6972810">
        <ele>919.1</ele>
        <time>2022-07-21T16:14:12Z</time>
      </trkpt>
      <trkpt lat="47.0786810" lon="6.6972820">
        <ele>919.0</ele>
        <time>2022-07-21T16:14:13Z</time>
      </trkpt>
      <trkpt lat="47.0786770" lon="6.6972810">
        <ele>919.0</ele>
        <time>2022-07-21T16:14:14Z</time>
      </trkpt>
      <trkpt lat="47.0786730" lon="6.6972810">
        <ele>919.0</ele>
        <time>2022-07-21T16:14:15Z</time>
      </trkpt>
      <trkpt lat="47.0786690" lon="6.6972800">
        <ele>918.9</ele>
        <time>2022-07-21T16:14:16Z</time>
      </trkpt>
      <trkpt lat="47.0786650" lon="6.6972800">
        <ele>918.9</ele>
        <time>2022-07-21T16:14:17Z</time>
      </trkpt>
      <trkpt lat="47.0786610" lon="6.6972790">
        <ele>918.8</ele>
        <time>2022-07-21T16:14:18Z</time>
      </trkpt>
      <trkpt lat="47.0786580" lon="6.6972790">
        <ele>918.8</ele>
        <time>2022-07-21T16:14:19Z</time>
      </trkpt>
      <trkpt lat="47.0786540" lon="6.6972780">
        <ele>918.8</ele>
        <time>2022-07-21T16:14:20Z</time>
      </trkpt>
      <trkpt lat="47.0786500" lon="6.6972770">
        <ele>918.7</ele>
        <time>2022-07-21T16:14:21Z</time>
      </trkpt>
      <trkpt lat="47.0786460" lon="6.6972770">
        <ele>918.7</ele>
        <time>2022-07-21T16:14:22Z</time>
      </trkpt>
      <trkpt lat="47.0786420" lon="6.6972760">
        <ele>918.7</ele>
        <time>2022-07-21T16:14:23Z</time>
      </trkpt>
      <trkpt lat="47.0786380" lon="6.6972760">
        <ele>918.6</ele>
        <time>2022-07-21T16:14:24Z</time>
      </trkpt>
      <trkpt lat="47.0786350" lon="6.6972750">
        <ele>918.6</ele>
        <time>2022-07-21T16:14:25Z</time>
      </trkpt>
      <trkpt lat="47.0786310" lon="6.6972750">
        <ele>918.6</ele>
        <time>2022-07-21T16:14:26Z</time>
      </trkpt>
      <trkpt lat="47.0786270" lon="6.6972740">
        <ele>918.5</ele>
        <time>2022-07-21T16:14:27Z</time>
      </trkpt>
      <trkpt lat="47.0786230" lon="6.6972730">
        <ele>918.5</ele>
        <time>2022-07-21T16:14:28Z</time>
      </trkpt>
      <trkpt lat="47.0786190" lon="6.6972730">
        <ele>918.4</ele>
        <time>2022-07-21T16:14:29Z</time>
      </trkpt>
      <trkpt lat="47.0786150" lon="6.6972720">
        <ele>918.4</ele>
        <time>2022-07-21T16:15:39Z</time>
      </trkpt>
      <trkpt lat="47.0786120" lon="6.6972720">
        <ele>918.4</ele>
        <time>2022-07-21T16:15:40Z</time>
      </trkpt>
      <trkpt lat="47.0786080" lon="6.6972710">
        <ele>918.3</ele>
        <time>2022-07-21T16:15:41Z</time>
      </trkpt>
      <trkpt lat="47.0785820" lon="6.6972590">
        <ele>918.1</ele>
        <time>2022-07-21T16:15:42Z</time>
      </trkpt>
      <trkpt lat="47.0785530" lon="6.6972440">
        <ele>917.8</ele>
        <time>2022-07-21T16:15:43Z</time>
      </trkpt>
      <trkpt lat="47.0785020" lon="6.6972370">
        <ele>917.3</ele>
        <time>2022-07-21T16:15:44Z</time>
      </trkpt>
      <trkpt lat="47.0784670" lon="6.6972420">
        <ele>917.0</ele>
        <time>2022-07-21T16:15:45Z</time>
      </trkpt>
      <trkpt lat="47.0784340" lon="6.6972570">
        <ele>916.6</ele>
        <time>2022-07-21T16:15:47Z</time>
      </trkpt>
      <trkpt lat="47.0784130" lon="6.6972470">
        <ele>916.4</ele>
        <time>2022-07-21T16:15:48Z</time>
      </trkpt>
      <trkpt lat="47.0783750" lon="6.6972330">
        <ele>916.1</ele>
        <time>2022-07-21T16:15:49Z</time>
      </trkpt>
      <trkpt lat="47.0783200" lon="6.6971910">
        <ele>915.6</ele>
        <time>2022-07-21T16:15:50Z</time>
      </trkpt>
      <trkpt lat="47.0782780" lon="6.6971600">
        <ele>915.4</ele>
        <time>2022-07-21T16:15:51Z</time>
      </trkpt>
      <trkpt lat="47.0782360" lon="6.6971380">
        <ele>915.1</ele>
        <time>2022-07-21T16:15:52Z</time>
      </trkpt>
      <trkpt lat="47.0782010" lon="6.6971240">
        <ele>914.9</ele>
        <time>2022-07-21T16:15:53Z</time>
      </trkpt>
      <trkpt lat="47.0781610" lon="6.6970970">
        <ele>914.7</ele>
        <time>2022-07-21T16:15:54Z</time>
      </trkpt>
      <trkpt lat="47.0781180" lon="6.6970650">
        <ele>914.5</ele>
        <time>2022-07-21T16:15:55Z</time>
      </trkpt>
      <trkpt lat="47.0780790" lon="6.6970460">
        <ele>914.4</ele>
        <time>2022-07-21T16:15:56Z</time>
      </trkpt>
      <trkpt lat="47.0780310" lon="6.6970110">
        <ele>914.1</ele>
        <time>2022-07-21T16:15:58Z</time>
      </trkpt>
      <trkpt lat="47.0779910" lon="6.6969840">
        <ele>913.9</ele>
        <time>2022-07-21T16:15:59Z</time>
      </trkpt>
      <trkpt lat="47.0779500" lon="6.6969600">
        <ele>913.7</ele>
        <time>2022-07-21T16:16:00Z</time>
      </trkpt>
      <trkpt lat="47.0779150" lon="6.6969390">
        <ele>913.4</ele>
        <time>2022-07-21T16:16:01Z</time>
      </trkpt>
      <trkpt lat="47.0778710" lon="6.6969130">
        <ele>913.2</ele>
        <time>2022-07-21T16:16:02Z</time>
      </trkpt>
      <trkpt lat="47.0778390" lon="6.6968970">
        <ele>913.0</ele>
        <time>2022-07-21T16:16:03Z</time>
      </trkpt>
      <trkpt lat="47.0777990" lon="6.6968810">
        <ele>912.7</ele>
        <time>2022-07-21T16:16:05Z</time>
      </trkpt>
      <trkpt lat="47.0777630" lon="6.6968680">
        <ele>912.5</ele>
        <time>2022-07-21T16:16:06Z</time>
      </trkpt>
      <trkpt lat="47.0777270" lon="6.6968520">
        <ele>912.2</ele>
        <time>2022-07-21T16:16:07Z</time>
      </trkpt>
      <trkpt lat="47.0776960" lon="6.6968360">
        <ele>912.0</ele>
        <time>2022-07-21T16:16:08Z</time>
      </trkpt>
      <trkpt lat="47.0776750" lon="6.6968270">
        <ele>911.8</ele>
        <time>2022-07-21T16:16:09Z</time>
      </trkpt>
      <trkpt lat="47.0776580" lon="6.6968200">
        <ele>911.7</ele>
        <time>2022-07-21T16:16:11Z</time>
      </trkpt>
      <trkpt lat="47.0776610" lon="6.6968230">
        <ele>911.7</ele>
        <time>2022-07-21T16:16:12Z</time>
      </trkpt>
      <trkpt lat="47.0776620" lon="6.6968270">
        <ele>911.7</ele>
        <time>2022-07-21T16:16:13Z</time>
      </trkpt>
      <trkpt lat="47.0776620" lon="6.6968290">
        <ele>911.7</ele>
        <time>2022-07-21T16:16:14Z</time>
      </trkpt>
      <trkpt lat="47.0776610" lon="6.6968290">
        <ele>911.7</ele>
        <time>2022-07-21T16:16:15Z</time>
      </trkpt>
      <trkpt lat="47.0776580" lon="6.6968290">
        <ele>911.6</ele>
        <time>2022-07-21T16:16:16Z</time>
      </trkpt>
      <trkpt lat="47.0776450" lon="6.6968210">
        <ele>911.5</ele>
        <time>2022-07-21T16:16:17Z</time>
      </trkpt>
      <trkpt lat="47.0776310" lon="6.6968030">
        <ele>911.4</ele>
        <time>2022-07-21T16:16:18Z</time>
      </trkpt>
      <trkpt lat="47.0776160" lon="6.6967770">
        <ele>911.2</ele>
        <time>2022-07-21T16:16:20Z</time>
      </trkpt>
      <trkpt lat="47.0776080" lon="6.6967670">
        <ele>911.1</ele>
        <time>2022-07-21T16:16:21Z</time>
      </trkpt>
      <trkpt lat="47.0776030" lon="6.6967580">
        <ele>911.0</ele>
        <time>2022-07-21T16:16:22Z</time>
      </trkpt>
      <trkpt lat="47.0776000" lon="6.6967510">
        <ele>911.0</ele>
        <time>2022-07-21T16:16:23Z</time>
      </trkpt>
      <trkpt lat="47.0775990" lon="6.6967470">
        <ele>911.0</ele>
        <time>2022-07-21T16:16:24Z</time>
      </trkpt>
      <trkpt lat="47.0775860" lon="6.6967330">
        <ele>910.8</ele>
        <time>2022-07-21T16:16:25Z</time>
      </trkpt>
      <trkpt lat="47.0775590" lon="6.6966910">
        <ele>910.5</ele>
        <time>2022-07-21T16:16:26Z</time>
      </trkpt>
      <trkpt lat="47.0775510" lon="6.6966750">
        <ele>910.4</ele>
        <time>2022-07-21T16:16:27Z</time>
      </trkpt>
      <trkpt lat="47.0775240" lon="6.6966380">
        <ele>910.1</ele>
        <time>2022-07-21T16:16:28Z</time>
      </trkpt>
      <trkpt lat="47.0774870" lon="6.6965920">
        <ele>909.7</ele>
        <time>2022-07-21T16:16:30Z</time>
      </trkpt>
      <trkpt lat="47.0774640" lon="6.6965670">
        <ele>909.5</ele>
        <time>2022-07-21T16:16:31Z</time>
      </trkpt>
      <trkpt lat="47.0774270" lon="6.6965140">
        <ele>909.1</ele>
        <time>2022-07-21T16:16:32Z</time>
      </trkpt>
      <trkpt lat="47.0773920" lon="6.6964730">
        <ele>908.8</ele>
        <time>2022-07-21T16:16:34Z</time>
      </trkpt>
      <trkpt lat="47.0773670" lon="6.6964290">
        <ele>908.5</ele>
        <time>2022-07-21T16:16:35Z</time>
      </trkpt>
      <trkpt lat="47.0773600" lon="6.6964110">
        <ele>908.4</ele>
        <time>2022-07-21T16:16:36Z</time>
      </trkpt>
      <trkpt lat="47.0773140" lon="6.6963250">
        <ele>907.9</ele>
        <time>2022-07-21T16:16:38Z</time>
      </trkpt>
      <trkpt lat="47.0772980" lon="6.6962990">
        <ele>907.8</ele>
        <time>2022-07-21T16:16:40Z</time>
      </trkpt>
      <trkpt lat="47.0772780" lon="6.6962640">
        <ele>907.6</ele>
        <time>2022-07-21T16:16:41Z</time>
      </trkpt>
      <trkpt lat="47.0772580" lon="6.6962290">
        <ele>907.4</ele>
        <time>2022-07-21T16:16:42Z</time>
      </trkpt>
      <trkpt lat="47.0772390" lon="6.6962050">
        <ele>907.3</ele>
        <time>2022-07-21T16:16:43Z</time>
      </trkpt>
      <trkpt lat="47.0772170" lon="6.6961810">
        <ele>907.2</ele>
        <time>2022-07-21T16:16:45Z</time>
      </trkpt>
      <trkpt lat="47.0771900" lon="6.6961580">
        <ele>907.0</ele>
        <time>2022-07-21T16:16:46Z</time>
      </trkpt>
      <trkpt lat="47.0771710" lon="6.6961410">
        <ele>906.9</ele>
        <time>2022-07-21T16:16:47Z</time>
      </trkpt>
      <trkpt lat="47.0771690" lon="6.6961380">
        <ele>906.9</ele>
        <time>2022-07-21T16:16:48Z</time>
      </trkpt>
      <trkpt lat="47.0771680" lon="6.6961350">
        <ele>906.9</ele>
        <time>2022-07-21T16:16:49Z</time>
      </trkpt>
      <trkpt lat="47.0771660" lon="6.6961330">
        <ele>906.9</ele>
        <time>2022-07-21T16:16:50Z</time>
      </trkpt>
      <trkpt lat="47.0771650" lon="6.6961300">
        <ele>906.9</ele>
        <time>2022-07-21T16:16:52Z</time>
      </trkpt>
      <trkpt lat="47.0771630" lon="6.6961280">
        <ele>906.9</ele>
        <time>2022-07-21T16:16:53Z</time>
      </trkpt>
      <trkpt lat="47.0771620" lon="6.6961250">
        <ele>906.9</ele>
        <time>2022-07-21T16:16:54Z</time>
      </trkpt>
      <trkpt lat="47.0771600" lon="6.6961230">
        <ele>906.9</ele>
        <time>2022-07-21T16:16:55Z</time>
      </trkpt>
      <trkpt lat="47.0771590" lon="6.6961200">
        <ele>906.8</ele>
        <time>2022-07-21T16:16:57Z</time>
      </trkpt>
      <trkpt lat="47.0771580" lon="6.6961170">
        <ele>906.8</ele>
        <time>2022-07-21T16:16:58Z</time>
      </trkpt>
      <trkpt lat="47.0771560" lon="6.6961150">
        <ele>906.8</ele>
        <time>2022-07-21T16:16:59Z</time>
      </trkpt>
      <trkpt lat="47.0771550" lon="6.6961120">
        <ele>906.8</ele>
        <time>2022-07-21T16:17:00Z</time>
      </trkpt>
      <trkpt lat="47.0771470" lon="6.6960830">
        <ele>906.7</ele>
        <time>2022-07-21T16:17:02Z</time>
      </trkpt>
      <trkpt lat="47.0771430" lon="6.6960630">
        <ele>906.6</ele>
        <time>2022-07-21T16:17:03Z</time>
      </trkpt>
      <trkpt lat="47.0771420" lon="6.6960460">
        <ele>906.6</ele>
        <time>2022-07-21T16:17:04Z</time>
      </trkpt>
      <trkpt lat="47.0771410" lon="6.6960370">
        <ele>906.6</ele>
        <time>2022-07-21T16:17:05Z</time>
      </trkpt>
      <trkpt lat="47.0771390" lon="6.6960240">
        <ele>906.5</ele>
        <time>2022-07-21T16:17:06Z</time>
      </trkpt>
      <trkpt lat="47.0771330" lon="6.6960060">
        <ele>906.4</ele>
        <time>2022-07-21T16:17:07Z</time>
      </trkpt>
      <trkpt lat="47.0771300" lon="6.6959950">
        <ele>906.4</ele>
        <time>2022-07-21T16:17:08Z</time>
      </trkpt>
      <trkpt lat="47.0771280" lon="6.6959830">
        <ele>906.4</ele>
        <time>2022-07-21T16:17:09Z</time>
      </trkpt>
      <trkpt lat="47.0771250" lon="6.6959710">
        <ele>906.3</ele>
        <time>2022-07-21T16:17:10Z</time>
      </trkpt>
      <trkpt lat="47.0771220" lon="6.6959590">
        <ele>906.3</ele>
        <time>2022-07-21T16:17:11Z</time>
      </trkpt>
      <trkpt lat="47.0771200" lon="6.6959480">
        <ele>906.3</ele>
        <time>2022-07-21T16:17:12Z</time>
      </trkpt>
      <trkpt lat="47.0771170" lon="6.6959360">
        <ele>906.2</ele>
        <time>2022-07-21T16:17:13Z</time>
      </trkpt>
      <trkpt lat="47.0771140" lon="6.6959240">
        <ele>906.2</ele>
        <time>2022-07-21T16:17:14Z</time>
      </trkpt>
      <trkpt lat="47.0771110" lon="6.6959120">
        <ele>906.2</ele>
        <time>2022-07-21T16:17:15Z</time>
      </trkpt>
      <trkpt lat="47.0771090" lon="6.6959000">
        <ele>906.1</ele>
        <time>2022-07-21T16:17:16Z</time>
      </trkpt>
      <trkpt lat="47.0771060" lon="6.6958890">
        <ele>906.1</ele>
        <time>2022-07-21T16:17:23Z</time>
      </trkpt>
      <trkpt lat="47.0771030" lon="6.6958770">
        <ele>906.0</ele>
        <time>2022-07-21T16:17:24Z</time>
      </trkpt>
      <trkpt lat="47.0771010" lon="6.6958650">
        <ele>906.1</ele>
        <time>2022-07-21T16:17:25Z</time>
      </trkpt>
      <trkpt lat="47.0771020" lon="6.6958290">
        <ele>906.1</ele>
        <time>2022-07-21T16:17:26Z</time>
      </trkpt>
      <trkpt lat="47.0771140" lon="6.6958040">
        <ele>906.2</ele>
        <time>2022-07-21T16:17:28Z</time>
      </trkpt>
      <trkpt lat="47.0771410" lon="6.6957870">
        <ele>906.2</ele>
        <time>2022-07-21T16:17:29Z</time>
      </trkpt>
      <trkpt lat="47.0771510" lon="6.6957820">
        <ele>906.3</ele>
        <time>2022-07-21T16:17:30Z</time>
      </trkpt>
      <trkpt lat="47.0771680" lon="6.6957690">
        <ele>906.3</ele>
        <time>2022-07-21T16:17:31Z</time>
      </trkpt>
      <trkpt lat="47.0771790" lon="6.6957530">
        <ele>906.4</ele>
        <time>2022-07-21T16:17:32Z</time>
      </trkpt>
      <trkpt lat="47.0771910" lon="6.6957070">
        <ele>906.5</ele>
        <time>2022-07-21T16:17:33Z</time>
      </trkpt>
      <trkpt lat="47.0771960" lon="6.6956910">
        <ele>906.5</ele>
        <time>2022-07-21T16:17:34Z</time>
      </trkpt>
      <trkpt lat="47.0772090" lon="6.6956460">
        <ele>906.7</ele>
        <time>2022-07-21T16:17:35Z</time>
      </trkpt>
      <trkpt lat="47.0772110" lon="6.6956320">
        <ele>906.7</ele>
        <time>2022-07-21T16:17:36Z</time>
      </trkpt>
      <trkpt lat="47.0772300" lon="6.6955710">
        <ele>906.9</ele>
        <time>2022-07-21T16:17:38Z</time>
      </trkpt>
      <trkpt lat="47.0772360" lon="6.6955270">
        <ele>907.0</ele>
        <time>2022-07-21T16:17:39Z</time>
      </trkpt>
      <trkpt lat="47.0772370" lon="6.6955120">
        <ele>907.1</ele>
        <time>2022-07-21T16:17:40Z</time>
      </trkpt>
      <trkpt lat="47.0772350" lon="6.6954660">
        <ele>907.2</ele>
        <time>2022-07-21T16:17:41Z</time>
      </trkpt>
      <trkpt lat="47.0772360" lon="6.6954490">
        <ele>907.3</ele>
        <time>2022-07-21T16:17:42Z</time>
      </trkpt>
      <trkpt lat="47.0772390" lon="6.6953990">
        <ele>907.4</ele>
        <time>2022-07-21T16:17:43Z</time>
      </trkpt>
      <trkpt lat="47.0772410" lon="6.6953840">
        <ele>907.5</ele>
        <time>2022-07-21T16:17:44Z</time>
      </trkpt>
      <trkpt lat="47.0772430" lon="6.6953370">
        <ele>907.6</ele>
        <time>2022-07-21T16:17:45Z</time>
      </trkpt>
      <trkpt lat="47.0772450" lon="6.6953220">
        <ele>907.7</ele>
        <time>2022-07-21T16:17:46Z</time>
      </trkpt>
      <trkpt lat="47.0772480" lon="6.6952900">
        <ele>907.7</ele>
        <time>2022-07-21T16:17:47Z</time>
      </trkpt>
      <trkpt lat="47.0772550" lon="6.6952200">
        <ele>907.9</ele>
        <time>2022-07-21T16:17:49Z</time>
      </trkpt>
      <trkpt lat="47.0772590" lon="6.6951780">
        <ele>908.0</ele>
        <time>2022-07-21T16:17:50Z</time>
      </trkpt>
      <trkpt lat="47.0772670" lon="6.6951250">
        <ele>908.2</ele>
        <time>2022-07-21T16:17:51Z</time>
      </trkpt>
      <trkpt lat="47.0772700" lon="6.6951060">
        <ele>908.2</ele>
        <time>2022-07-21T16:17:52Z</time>
      </trkpt>
      <trkpt lat="47.0772780" lon="6.6950620">
        <ele>908.3</ele>
        <time>2022-07-21T16:17:53Z</time>
      </trkpt>
      <trkpt lat="47.0772810" lon="6.6950440">
        <ele>908.3</ele>
        <time>2022-07-21T16:17:54Z</time>
      </trkpt>
      <trkpt lat="47.0772830" lon="6.6949910">
        <ele>908.4</ele>
        <time>2022-07-21T16:17:55Z</time>
      </trkpt>
      <trkpt lat="47.0772850" lon="6.6949740">
        <ele>908.5</ele>
        <time>2022-07-21T16:17:56Z</time>
      </trkpt>
      <trkpt lat="47.0772900" lon="6.6949200">
        <ele>908.6</ele>
        <time>2022-07-21T16:17:57Z</time>
      </trkpt>
      <trkpt lat="47.0772920" lon="6.6949010">
        <ele>908.6</ele>
        <time>2022-07-21T16:17:58Z</time>
      </trkpt>
      <trkpt lat="47.0772960" lon="6.6948480">
        <ele>908.7</ele>
        <time>2022-07-21T16:17:59Z</time>
      </trkpt>
      <trkpt lat="47.0772990" lon="6.6948310">
        <ele>908.7</ele>
        <time>2022-07-21T16:18:00Z</time>
      </trkpt>
      <trkpt lat="47.0773020" lon="6.6947870">
        <ele>908.8</ele>
        <time>2022-07-21T16:18:01Z</time>
      </trkpt>
      <trkpt lat="47.0773060" lon="6.6947220">
        <ele>908.9</ele>
        <time>2022-07-21T16:18:03Z</time>
      </trkpt>
      <trkpt lat="47.0773100" lon="6.6946820">
        <ele>909.0</ele>
        <time>2022-07-21T16:18:04Z</time>
      </trkpt>
      <trkpt lat="47.0773110" lon="6.6946350">
        <ele>909.1</ele>
        <time>2022-07-21T16:18:05Z</time>
      </trkpt>
      <trkpt lat="47.0773120" lon="6.6945930">
        <ele>909.1</ele>
        <time>2022-07-21T16:18:06Z</time>
      </trkpt>
      <trkpt lat="47.0773130" lon="6.6945120">
        <ele>909.2</ele>
        <time>2022-07-21T16:18:08Z</time>
      </trkpt>
      <trkpt lat="47.0773140" lon="6.6944700">
        <ele>909.3</ele>
        <time>2022-07-21T16:18:09Z</time>
      </trkpt>
      <trkpt lat="47.0773160" lon="6.6944260">
        <ele>909.3</ele>
        <time>2022-07-21T16:18:10Z</time>
      </trkpt>
      <trkpt lat="47.0773170" lon="6.6943630">
        <ele>909.4</ele>
        <time>2022-07-21T16:18:11Z</time>
      </trkpt>
      <trkpt lat="47.0773160" lon="6.6942960">
        <ele>909.5</ele>
        <time>2022-07-21T16:18:13Z</time>
      </trkpt>
      <trkpt lat="47.0773140" lon="6.6942490">
        <ele>909.6</ele>
        <time>2022-07-21T16:18:14Z</time>
      </trkpt>
      <trkpt lat="47.0773130" lon="6.6941940">
        <ele>909.7</ele>
        <time>2022-07-21T16:18:15Z</time>
      </trkpt>
      <trkpt lat="47.0773120" lon="6.6941200">
        <ele>909.8</ele>
        <time>2022-07-21T16:18:17Z</time>
      </trkpt>
      <trkpt lat="47.0773110" lon="6.6940630">
        <ele>910.0</ele>
        <time>2022-07-21T16:18:18Z</time>
      </trkpt>
      <trkpt lat="47.0773070" lon="6.6940220">
        <ele>910.1</ele>
        <time>2022-07-21T16:18:19Z</time>
      </trkpt>
      <trkpt lat="47.0773020" lon="6.6939740">
        <ele>910.2</ele>
        <time>2022-07-21T16:18:20Z</time>
      </trkpt>
      <trkpt lat="47.0773010" lon="6.6939610">
        <ele>910.2</ele>
        <time>2022-07-21T16:18:21Z</time>
      </trkpt>
      <trkpt lat="47.0772970" lon="6.6939310">
        <ele>910.3</ele>
        <time>2022-07-21T16:18:22Z</time>
      </trkpt>
      <trkpt lat="47.0772940" lon="6.6938660">
        <ele>910.5</ele>
        <time>2022-07-21T16:18:24Z</time>
      </trkpt>
      <trkpt lat="47.0772870" lon="6.6938150">
        <ele>910.6</ele>
        <time>2022-07-21T16:18:25Z</time>
      </trkpt>
      <trkpt lat="47.0772850" lon="6.6937970">
        <ele>910.7</ele>
        <time>2022-07-21T16:18:26Z</time>
      </trkpt>
      <trkpt lat="47.0772780" lon="6.6937480">
        <ele>910.8</ele>
        <time>2022-07-21T16:18:27Z</time>
      </trkpt>
      <trkpt lat="47.0772760" lon="6.6937320">
        <ele>910.8</ele>
        <time>2022-07-21T16:18:28Z</time>
      </trkpt>
      <trkpt lat="47.0772710" lon="6.6936790">
        <ele>911.0</ele>
        <time>2022-07-21T16:18:29Z</time>
      </trkpt>
      <trkpt lat="47.0772690" lon="6.6936620">
        <ele>911.0</ele>
        <time>2022-07-21T16:18:30Z</time>
      </trkpt>
      <trkpt lat="47.0772680" lon="6.6936110">
        <ele>911.1</ele>
        <time>2022-07-21T16:18:31Z</time>
      </trkpt>
      <trkpt lat="47.0772670" lon="6.6935950">
        <ele>911.2</ele>
        <time>2022-07-21T16:18:32Z</time>
      </trkpt>
      <trkpt lat="47.0772680" lon="6.6935430">
        <ele>911.3</ele>
        <time>2022-07-21T16:18:33Z</time>
      </trkpt>
      <trkpt lat="47.0772680" lon="6.6935260">
        <ele>911.3</ele>
        <time>2022-07-21T16:18:34Z</time>
      </trkpt>
      <trkpt lat="47.0772700" lon="6.6934700">
        <ele>911.4</ele>
        <time>2022-07-21T16:18:35Z</time>
      </trkpt>
      <trkpt lat="47.0772730" lon="6.6934500">
        <ele>911.5</ele>
        <time>2022-07-21T16:18:36Z</time>
      </trkpt>
      <trkpt lat="47.0772770" lon="6.6934130">
        <ele>911.5</ele>
        <time>2022-07-21T16:18:37Z</time>
      </trkpt>
      <trkpt lat="47.0772830" lon="6.6933290">
        <ele>911.6</ele>
        <time>2022-07-21T16:18:39Z</time>
      </trkpt>
      <trkpt lat="47.0772850" lon="6.6932830">
        <ele>911.7</ele>
        <time>2022-07-21T16:18:40Z</time>
      </trkpt>
      <trkpt lat="47.0772850" lon="6.6932370">
        <ele>911.7</ele>
        <time>2022-07-21T16:18:41Z</time>
      </trkpt>
      <trkpt lat="47.0772920" lon="6.6931500">
        <ele>911.7</ele>
        <time>2022-07-21T16:18:43Z</time>
      </trkpt>
      <trkpt lat="47.0773000" lon="6.6930500">
        <ele>911.7</ele>
        <time>2022-07-21T16:18:45Z</time>
      </trkpt>
      <trkpt lat="47.0773010" lon="6.6930050">
        <ele>911.7</ele>
        <time>2022-07-21T16:18:46Z</time>
      </trkpt>
      <trkpt lat="47.0773040" lon="6.6929510">
        <ele>911.7</ele>
        <time>2022-07-21T16:18:47Z</time>
      </trkpt>
      <trkpt lat="47.0773050" lon="6.6929070">
        <ele>911.7</ele>
        <time>2022-07-21T16:18:48Z</time>
      </trkpt>
      <trkpt lat="47.0772890" lon="6.6928060">
        <ele>911.7</ele>
        <time>2022-07-21T16:18:50Z</time>
      </trkpt>
      <trkpt lat="47.0772700" lon="6.6927520">
        <ele>911.7</ele>
        <time>2022-07-21T16:18:51Z</time>
      </trkpt>
      <trkpt lat="47.0772460" lon="6.6927020">
        <ele>911.8</ele>
        <time>2022-07-21T16:18:52Z</time>
      </trkpt>
      <trkpt lat="47.0772180" lon="6.6926590">
        <ele>911.8</ele>
        <time>2022-07-21T16:18:53Z</time>
      </trkpt>
      <trkpt lat="47.0771870" lon="6.6926240">
        <ele>911.8</ele>
        <time>2022-07-21T16:18:54Z</time>
      </trkpt>
      <trkpt lat="47.0771560" lon="6.6925910">
        <ele>911.8</ele>
        <time>2022-07-21T16:18:55Z</time>
      </trkpt>
      <trkpt lat="47.0771280" lon="6.6925660">
        <ele>911.9</ele>
        <time>2022-07-21T16:18:56Z</time>
      </trkpt>
      <trkpt lat="47.0770940" lon="6.6925370">
        <ele>911.9</ele>
        <time>2022-07-21T16:18:58Z</time>
      </trkpt>
      <trkpt lat="47.0770630" lon="6.6925100">
        <ele>911.9</ele>
        <time>2022-07-21T16:18:59Z</time>
      </trkpt>
      <trkpt lat="47.0770250" lon="6.6924750">
        <ele>911.9</ele>
        <time>2022-07-21T16:19:00Z</time>
      </trkpt>
      <trkpt lat="47.0769770" lon="6.6924270">
        <ele>912.0</ele>
        <time>2022-07-21T16:19:01Z</time>
      </trkpt>
      <trkpt lat="47.0769490" lon="6.6923910">
        <ele>912.0</ele>
        <time>2022-07-21T16:19:02Z</time>
      </trkpt>
      <trkpt lat="47.0769050" lon="6.6922980">
        <ele>912.0</ele>
        <time>2022-07-21T16:19:04Z</time>
      </trkpt>
      <trkpt lat="47.0768930" lon="6.6922190">
        <ele>912.0</ele>
        <time>2022-07-21T16:19:05Z</time>
      </trkpt>
      <trkpt lat="47.0768890" lon="6.6921690">
        <ele>912.1</ele>
        <time>2022-07-21T16:19:06Z</time>
      </trkpt>
      <trkpt lat="47.0768850" lon="6.6920860">
        <ele>912.2</ele>
        <time>2022-07-21T16:19:08Z</time>
      </trkpt>
      <trkpt lat="47.0768920" lon="6.6920240">
        <ele>912.5</ele>
        <time>2022-07-21T16:19:09Z</time>
      </trkpt>
      <trkpt lat="47.0769090" lon="6.6919880">
        <ele>912.7</ele>
        <time>2022-07-21T16:19:10Z</time>
      </trkpt>
      <trkpt lat="47.0769380" lon="6.6919610">
        <ele>912.8</ele>
        <time>2022-07-21T16:19:11Z</time>
      </trkpt>
      <trkpt lat="47.0769750" lon="6.6919340">
        <ele>913.1</ele>
        <time>2022-07-21T16:19:12Z</time>
      </trkpt>
      <trkpt lat="47.0770050" lon="6.6919010">
        <ele>913.3</ele>
        <time>2022-07-21T16:19:14Z</time>
      </trkpt>
      <trkpt lat="47.0770140" lon="6.6918910">
        <ele>913.4</ele>
        <time>2022-07-21T16:19:15Z</time>
      </trkpt>
      <trkpt lat="47.0770290" lon="6.6918740">
        <ele>913.5</ele>
        <time>2022-07-21T16:19:16Z</time>
      </trkpt>
      <trkpt lat="47.0770410" lon="6.6918590">
        <ele>913.6</ele>
        <time>2022-07-21T16:19:17Z</time>
      </trkpt>
      <trkpt lat="47.0770660" lon="6.6918300">
        <ele>913.9</ele>
        <time>2022-07-21T16:19:18Z</time>
      </trkpt>
      <trkpt lat="47.0770770" lon="6.6918170">
        <ele>914.0</ele>
        <time>2022-07-21T16:19:19Z</time>
      </trkpt>
      <trkpt lat="47.0771020" lon="6.6917850">
        <ele>914.2</ele>
        <time>2022-07-21T16:19:21Z</time>
      </trkpt>
      <trkpt lat="47.0771140" lon="6.6917630">
        <ele>914.4</ele>
        <time>2022-07-21T16:19:22Z</time>
      </trkpt>
      <trkpt lat="47.0771250" lon="6.6917490">
        <ele>914.5</ele>
        <time>2022-07-21T16:19:23Z</time>
      </trkpt>
      <trkpt lat="47.0771340" lon="6.6917330">
        <ele>914.6</ele>
        <time>2022-07-21T16:19:24Z</time>
      </trkpt>
      <trkpt lat="47.0771420" lon="6.6917130">
        <ele>914.8</ele>
        <time>2022-07-21T16:19:25Z</time>
      </trkpt>
      <trkpt lat="47.0771480" lon="6.6916980">
        <ele>914.9</ele>
        <time>2022-07-21T16:19:26Z</time>
      </trkpt>
      <trkpt lat="47.0771520" lon="6.6916870">
        <ele>914.9</ele>
        <time>2022-07-21T16:19:27Z</time>
      </trkpt>
      <trkpt lat="47.0771610" lon="6.6916770">
        <ele>915.0</ele>
        <time>2022-07-21T16:19:28Z</time>
      </trkpt>
      <trkpt lat="47.0771790" lon="6.6916450">
        <ele>915.3</ele>
        <time>2022-07-21T16:19:29Z</time>
      </trkpt>
      <trkpt lat="47.0771880" lon="6.6916300">
        <ele>915.4</ele>
        <time>2022-07-21T16:19:30Z</time>
      </trkpt>
      <trkpt lat="47.0772010" lon="6.6916040">
        <ele>915.6</ele>
        <time>2022-07-21T16:19:32Z</time>
      </trkpt>
      <trkpt lat="47.0772110" lon="6.6915890">
        <ele>915.7</ele>
        <time>2022-07-21T16:19:33Z</time>
      </trkpt>
      <trkpt lat="47.0772230" lon="6.6915710">
        <ele>915.8</ele>
        <time>2022-07-21T16:19:34Z</time>
      </trkpt>
      <trkpt lat="47.0772330" lon="6.6915530">
        <ele>916.0</ele>
        <time>2022-07-21T16:19:35Z</time>
      </trkpt>
      <trkpt lat="47.0772460" lon="6.6915270">
        <ele>916.2</ele>
        <time>2022-07-21T16:19:36Z</time>
      </trkpt>
      <trkpt lat="47.0772660" lon="6.6914960">
        <ele>916.4</ele>
        <time>2022-07-21T16:19:38Z</time>
      </trkpt>
      <trkpt lat="47.0772730" lon="6.6914740">
        <ele>916.6</ele>
        <time>2022-07-21T16:19:39Z</time>
      </trkpt>
      <trkpt lat="47.0772810" lon="6.6914540">
        <ele>916.7</ele>
        <time>2022-07-21T16:19:40Z</time>
      </trkpt>
      <trkpt lat="47.0772900" lon="6.6914310">
        <ele>916.8</ele>
        <time>2022-07-21T16:19:41Z</time>
      </trkpt>
      <trkpt lat="47.0773000" lon="6.6914150">
        <ele>917.0</ele>
        <time>2022-07-21T16:19:42Z</time>
      </trkpt>
      <trkpt lat="47.0773120" lon="6.6914020">
        <ele>917.1</ele>
        <time>2022-07-21T16:19:43Z</time>
      </trkpt>
      <trkpt lat="47.0773260" lon="6.6913900">
        <ele>917.2</ele>
        <time>2022-07-21T16:19:44Z</time>
      </trkpt>
      <trkpt lat="47.0773390" lon="6.6913650">
        <ele>917.4</ele>
        <time>2022-07-21T16:19:45Z</time>
      </trkpt>
      <trkpt lat="47.0773430" lon="6.6913560">
        <ele>917.5</ele>
        <time>2022-07-21T16:19:46Z</time>
      </trkpt>
      <trkpt lat="47.0773480" lon="6.6913460">
        <ele>917.6</ele>
        <time>2022-07-21T16:19:47Z</time>
      </trkpt>
      <trkpt lat="47.0773530" lon="6.6913310">
        <ele>917.7</ele>
        <time>2022-07-21T16:19:48Z</time>
      </trkpt>
      <trkpt lat="47.0773630" lon="6.6913100">
        <ele>917.8</ele>
        <time>2022-07-21T16:19:49Z</time>
      </trkpt>
      <trkpt lat="47.0773820" lon="6.6912680">
        <ele>918.1</ele>
        <time>2022-07-21T16:19:51Z</time>
      </trkpt>
      <trkpt lat="47.0773870" lon="6.6912560">
        <ele>918.2</ele>
        <time>2022-07-21T16:19:52Z</time>
      </trkpt>
      <trkpt lat="47.0773980" lon="6.6912280">
        <ele>918.4</ele>
        <time>2022-07-21T16:19:53Z</time>
      </trkpt>
      <trkpt lat="47.0774020" lon="6.6912170">
        <ele>918.4</ele>
        <time>2022-07-21T16:19:54Z</time>
      </trkpt>
      <trkpt lat="47.0774060" lon="6.6912060">
        <ele>918.5</ele>
        <time>2022-07-21T16:19:55Z</time>
      </trkpt>
      <trkpt lat="47.0774150" lon="6.6911850">
        <ele>918.6</ele>
        <time>2022-07-21T16:19:56Z</time>
      </trkpt>
      <trkpt lat="47.0774190" lon="6.6911680">
        <ele>918.7</ele>
        <time>2022-07-21T16:19:57Z</time>
      </trkpt>
      <trkpt lat="47.0774250" lon="6.6911500">
        <ele>918.9</ele>
        <time>2022-07-21T16:19:58Z</time>
      </trkpt>
      <trkpt lat="47.0774270" lon="6.6911270">
        <ele>919.0</ele>
        <time>2022-07-21T16:19:59Z</time>
      </trkpt>
      <trkpt lat="47.0774280" lon="6.6911070">
        <ele>919.1</ele>
        <time>2022-07-21T16:20:00Z</time>
      </trkpt>
      <trkpt lat="47.0774290" lon="6.6910770">
        <ele>919.3</ele>
        <time>2022-07-21T16:20:01Z</time>
      </trkpt>
      <trkpt lat="47.0774420" lon="6.6910320">
        <ele>919.6</ele>
        <time>2022-07-21T16:20:03Z</time>
      </trkpt>
      <trkpt lat="47.0774450" lon="6.6910230">
        <ele>919.6</ele>
        <time>2022-07-21T16:20:04Z</time>
      </trkpt>
      <trkpt lat="47.0774550" lon="6.6909950">
        <ele>919.8</ele>
        <time>2022-07-21T16:20:05Z</time>
      </trkpt>
      <trkpt lat="47.0774590" lon="6.6909840">
        <ele>919.9</ele>
        <time>2022-07-21T16:20:06Z</time>
      </trkpt>
      <trkpt lat="47.0774630" lon="6.6909720">
        <ele>919.9</ele>
        <time>2022-07-21T16:20:07Z</time>
      </trkpt>
      <trkpt lat="47.0774680" lon="6.6909500">
        <ele>920.1</ele>
        <time>2022-07-21T16:20:08Z</time>
      </trkpt>
      <trkpt lat="47.0774760" lon="6.6909300">
        <ele>920.2</ele>
        <time>2022-07-21T16:20:09Z</time>
      </trkpt>
      <trkpt lat="47.0774880" lon="6.6909020">
        <ele>920.4</ele>
        <time>2022-07-21T16:20:10Z</time>
      </trkpt>
      <trkpt lat="47.0774930" lon="6.6908890">
        <ele>920.4</ele>
        <time>2022-07-21T16:20:11Z</time>
      </trkpt>
      <trkpt lat="47.0774970" lon="6.6908760">
        <ele>920.5</ele>
        <time>2022-07-21T16:20:12Z</time>
      </trkpt>
      <trkpt lat="47.0775010" lon="6.6908340">
        <ele>920.7</ele>
        <time>2022-07-21T16:20:13Z</time>
      </trkpt>
      <trkpt lat="47.0775020" lon="6.6908210">
        <ele>920.8</ele>
        <time>2022-07-21T16:20:14Z</time>
      </trkpt>
      <trkpt lat="47.0775030" lon="6.6908000">
        <ele>920.9</ele>
        <time>2022-07-21T16:20:15Z</time>
      </trkpt>
      <trkpt lat="47.0775090" lon="6.6907750">
        <ele>921.0</ele>
        <time>2022-07-21T16:20:16Z</time>
      </trkpt>
      <trkpt lat="47.0775220" lon="6.6907200">
        <ele>921.3</ele>
        <time>2022-07-21T16:20:18Z</time>
      </trkpt>
      <trkpt lat="47.0775260" lon="6.6906960">
        <ele>921.4</ele>
        <time>2022-07-21T16:20:19Z</time>
      </trkpt>
      <trkpt lat="47.0775250" lon="6.6906720">
        <ele>921.5</ele>
        <time>2022-07-21T16:20:20Z</time>
      </trkpt>
      <trkpt lat="47.0775260" lon="6.6906480">
        <ele>921.6</ele>
        <time>2022-07-21T16:20:21Z</time>
      </trkpt>
      <trkpt lat="47.0775270" lon="6.6906230">
        <ele>921.7</ele>
        <time>2022-07-21T16:20:22Z</time>
      </trkpt>
      <trkpt lat="47.0775320" lon="6.6905990">
        <ele>921.9</ele>
        <time>2022-07-21T16:20:23Z</time>
      </trkpt>
      <trkpt lat="47.0775390" lon="6.6905820">
        <ele>922.0</ele>
        <time>2022-07-21T16:20:24Z</time>
      </trkpt>
      <trkpt lat="47.0775490" lon="6.6905510">
        <ele>922.1</ele>
        <time>2022-07-21T16:20:25Z</time>
      </trkpt>
      <trkpt lat="47.0775520" lon="6.6905390">
        <ele>922.2</ele>
        <time>2022-07-21T16:20:26Z</time>
      </trkpt>
      <trkpt lat="47.0775550" lon="6.6905280">
        <ele>922.2</ele>
        <time>2022-07-21T16:20:27Z</time>
      </trkpt>
      <trkpt lat="47.0775590" lon="6.6904940">
        <ele>922.4</ele>
        <time>2022-07-21T16:20:28Z</time>
      </trkpt>
      <trkpt lat="47.0775600" lon="6.6904810">
        <ele>922.5</ele>
        <time>2022-07-21T16:20:29Z</time>
      </trkpt>
      <trkpt lat="47.0775620" lon="6.6904670">
        <ele>922.6</ele>
        <time>2022-07-21T16:20:30Z</time>
      </trkpt>
      <trkpt lat="47.0775640" lon="6.6904490">
        <ele>922.7</ele>
        <time>2022-07-21T16:20:31Z</time>
      </trkpt>
      <trkpt lat="47.0775680" lon="6.6904260">
        <ele>922.8</ele>
        <time>2022-07-21T16:20:32Z</time>
      </trkpt>
      <trkpt lat="47.0775720" lon="6.6904020">
        <ele>922.9</ele>
        <time>2022-07-21T16:20:33Z</time>
      </trkpt>
      <trkpt lat="47.0775780" lon="6.6903800">
        <ele>923.1</ele>
        <time>2022-07-21T16:20:34Z</time>
      </trkpt>
      <trkpt lat="47.0775820" lon="6.6903590">
        <ele>923.2</ele>
        <time>2022-07-21T16:20:35Z</time>
      </trkpt>
      <trkpt lat="47.0775890" lon="6.6903360">
        <ele>923.3</ele>
        <time>2022-07-21T16:20:36Z</time>
      </trkpt>
      <trkpt lat="47.0775940" lon="6.6903150">
        <ele>923.4</ele>
        <time>2022-07-21T16:20:37Z</time>
      </trkpt>
      <trkpt lat="47.0776030" lon="6.6902760">
        <ele>923.7</ele>
        <time>2022-07-21T16:20:39Z</time>
      </trkpt>
      <trkpt lat="47.0776060" lon="6.6902520">
        <ele>923.8</ele>
        <time>2022-07-21T16:20:40Z</time>
      </trkpt>
      <trkpt lat="47.0776090" lon="6.6902320">
        <ele>924.0</ele>
        <time>2022-07-21T16:20:41Z</time>
      </trkpt>
      <trkpt lat="47.0776130" lon="6.6902120">
        <ele>924.1</ele>
        <time>2022-07-21T16:20:42Z</time>
      </trkpt>
      <trkpt lat="47.0776190" lon="6.6901910">
        <ele>924.2</ele>
        <time>2022-07-21T16:20:43Z</time>
      </trkpt>
      <trkpt lat="47.0776240" lon="6.6901640">
        <ele>924.4</ele>
        <time>2022-07-21T16:20:44Z</time>
      </trkpt>
      <trkpt lat="47.0776300" lon="6.6901430">
        <ele>924.5</ele>
        <time>2022-07-21T16:20:45Z</time>
      </trkpt>
      <trkpt lat="47.0776340" lon="6.6901230">
        <ele>924.6</ele>
        <time>2022-07-21T16:20:46Z</time>
      </trkpt>
      <trkpt lat="47.0776320" lon="6.6901030">
        <ele>924.7</ele>
        <time>2022-07-21T16:20:47Z</time>
      </trkpt>
      <trkpt lat="47.0776290" lon="6.6900790">
        <ele>924.9</ele>
        <time>2022-07-21T16:20:48Z</time>
      </trkpt>
      <trkpt lat="47.0776290" lon="6.6900550">
        <ele>925.0</ele>
        <time>2022-07-21T16:20:49Z</time>
      </trkpt>
      <trkpt lat="47.0776310" lon="6.6900340">
        <ele>925.1</ele>
        <time>2022-07-21T16:20:50Z</time>
      </trkpt>
      <trkpt lat="47.0776320" lon="6.6900130">
        <ele>925.3</ele>
        <time>2022-07-21T16:20:51Z</time>
      </trkpt>
      <trkpt lat="47.0776320" lon="6.6899950">
        <ele>925.4</ele>
        <time>2022-07-21T16:20:52Z</time>
      </trkpt>
      <trkpt lat="47.0776300" lon="6.6899670">
        <ele>925.5</ele>
        <time>2022-07-21T16:20:53Z</time>
      </trkpt>
      <trkpt lat="47.0776300" lon="6.6899250">
        <ele>925.7</ele>
        <time>2022-07-21T16:20:54Z</time>
      </trkpt>
      <trkpt lat="47.0776290" lon="6.6899090">
        <ele>925.8</ele>
        <time>2022-07-21T16:20:55Z</time>
      </trkpt>
      <trkpt lat="47.0776230" lon="6.6898580">
        <ele>926.1</ele>
        <time>2022-07-21T16:20:56Z</time>
      </trkpt>
      <trkpt lat="47.0776200" lon="6.6898390">
        <ele>926.1</ele>
        <time>2022-07-21T16:20:57Z</time>
      </trkpt>
      <trkpt lat="47.0776140" lon="6.6897940">
        <ele>926.2</ele>
        <time>2022-07-21T16:20:58Z</time>
      </trkpt>
      <trkpt lat="47.0776110" lon="6.6897790">
        <ele>926.2</ele>
        <time>2022-07-21T16:20:59Z</time>
      </trkpt>
      <trkpt lat="47.0776060" lon="6.6897630">
        <ele>926.3</ele>
        <time>2022-07-21T16:21:00Z</time>
      </trkpt>
      <trkpt lat="47.0775950" lon="6.6897340">
        <ele>926.3</ele>
        <time>2022-07-21T16:21:01Z</time>
      </trkpt>
      <trkpt lat="47.0775760" lon="6.6896980">
        <ele>926.4</ele>
        <time>2022-07-21T16:21:02Z</time>
      </trkpt>
      <trkpt lat="47.0775690" lon="6.6896860">
        <ele>926.5</ele>
        <time>2022-07-21T16:21:03Z</time>
      </trkpt>
      <trkpt lat="47.0775520" lon="6.6896460">
        <ele>926.6</ele>
        <time>2022-07-21T16:21:04Z</time>
      </trkpt>
      <trkpt lat="47.0775470" lon="6.6896330">
        <ele>926.6</ele>
        <time>2022-07-21T16:21:05Z</time>
      </trkpt>
      <trkpt lat="47.0775280" lon="6.6895970">
        <ele>926.7</ele>
        <time>2022-07-21T16:21:06Z</time>
      </trkpt>
      <trkpt lat="47.0775210" lon="6.6895830">
        <ele>926.7</ele>
        <time>2022-07-21T16:21:07Z</time>
      </trkpt>
      <trkpt lat="47.0774990" lon="6.6895430">
        <ele>926.8</ele>
        <time>2022-07-21T16:21:08Z</time>
      </trkpt>
      <trkpt lat="47.0774910" lon="6.6895280">
        <ele>926.9</ele>
        <time>2022-07-21T16:21:09Z</time>
      </trkpt>
      <trkpt lat="47.0774710" lon="6.6894950">
        <ele>926.9</ele>
        <time>2022-07-21T16:21:10Z</time>
      </trkpt>
      <trkpt lat="47.0774620" lon="6.6894800">
        <ele>927.0</ele>
        <time>2022-07-21T16:21:11Z</time>
      </trkpt>
      <trkpt lat="47.0774370" lon="6.6894360">
        <ele>927.1</ele>
        <time>2022-07-21T16:21:12Z</time>
      </trkpt>
      <trkpt lat="47.0774290" lon="6.6894220">
        <ele>927.1</ele>
        <time>2022-07-21T16:21:13Z</time>
      </trkpt>
      <trkpt lat="47.0774040" lon="6.6893830">
        <ele>927.2</ele>
        <time>2022-07-21T16:21:14Z</time>
      </trkpt>
      <trkpt lat="47.0773940" lon="6.6893690">
        <ele>927.2</ele>
        <time>2022-07-21T16:21:15Z</time>
      </trkpt>
      <trkpt lat="47.0773740" lon="6.6893400">
        <ele>927.3</ele>
        <time>2022-07-21T16:21:16Z</time>
      </trkpt>
      <trkpt lat="47.0773530" lon="6.6893070">
        <ele>927.3</ele>
        <time>2022-07-21T16:21:17Z</time>
      </trkpt>
      <trkpt lat="47.0773310" lon="6.6892720">
        <ele>927.4</ele>
        <time>2022-07-21T16:21:18Z</time>
      </trkpt>
      <trkpt lat="47.0773110" lon="6.6892370">
        <ele>927.5</ele>
        <time>2022-07-21T16:21:19Z</time>
      </trkpt>
      <trkpt lat="47.0772920" lon="6.6892040">
        <ele>927.5</ele>
        <time>2022-07-21T16:21:20Z</time>
      </trkpt>
      <trkpt lat="47.0772720" lon="6.6891700">
        <ele>927.6</ele>
        <time>2022-07-21T16:21:21Z</time>
      </trkpt>
      <trkpt lat="47.0772540" lon="6.6891370">
        <ele>927.6</ele>
        <time>2022-07-21T16:21:22Z</time>
      </trkpt>
      <trkpt lat="47.0772370" lon="6.6891060">
        <ele>927.6</ele>
        <time>2022-07-21T16:21:23Z</time>
      </trkpt>
      <trkpt lat="47.0772130" lon="6.6890670">
        <ele>927.7</ele>
        <time>2022-07-21T16:21:24Z</time>
      </trkpt>
      <trkpt lat="47.0771880" lon="6.6890260">
        <ele>927.7</ele>
        <time>2022-07-21T16:21:25Z</time>
      </trkpt>
      <trkpt lat="47.0771660" lon="6.6889850">
        <ele>927.7</ele>
        <time>2022-07-21T16:21:26Z</time>
      </trkpt>
      <trkpt lat="47.0771430" lon="6.6889410">
        <ele>927.8</ele>
        <time>2022-07-21T16:21:27Z</time>
      </trkpt>
      <trkpt lat="47.0771340" lon="6.6889250">
        <ele>927.8</ele>
        <time>2022-07-21T16:21:28Z</time>
      </trkpt>
      <trkpt lat="47.0771090" lon="6.6888840">
        <ele>927.8</ele>
        <time>2022-07-21T16:21:29Z</time>
      </trkpt>
      <trkpt lat="47.0770850" lon="6.6888440">
        <ele>927.9</ele>
        <time>2022-07-21T16:21:30Z</time>
      </trkpt>
      <trkpt lat="47.0770600" lon="6.6888040">
        <ele>927.9</ele>
        <time>2022-07-21T16:21:31Z</time>
      </trkpt>
      <trkpt lat="47.0770390" lon="6.6887700">
        <ele>927.9</ele>
        <time>2022-07-21T16:21:32Z</time>
      </trkpt>
      <trkpt lat="47.0770140" lon="6.6887300">
        <ele>928.0</ele>
        <time>2022-07-21T16:21:33Z</time>
      </trkpt>
      <trkpt lat="47.0769940" lon="6.6886930">
        <ele>928.0</ele>
        <time>2022-07-21T16:21:34Z</time>
      </trkpt>
      <trkpt lat="47.0769740" lon="6.6886530">
        <ele>928.0</ele>
        <time>2022-07-21T16:21:35Z</time>
      </trkpt>
      <trkpt lat="47.0769560" lon="6.6886140">
        <ele>928.1</ele>
        <time>2022-07-21T16:21:36Z</time>
      </trkpt>
      <trkpt lat="47.0769380" lon="6.6885740">
        <ele>928.1</ele>
        <time>2022-07-21T16:21:37Z</time>
      </trkpt>
      <trkpt lat="47.0769220" lon="6.6885380">
        <ele>928.2</ele>
        <time>2022-07-21T16:21:38Z</time>
      </trkpt>
      <trkpt lat="47.0769050" lon="6.6884980">
        <ele>928.3</ele>
        <time>2022-07-21T16:21:39Z</time>
      </trkpt>
      <trkpt lat="47.0768870" lon="6.6884550">
        <ele>928.3</ele>
        <time>2022-07-21T16:21:40Z</time>
      </trkpt>
      <trkpt lat="47.0768710" lon="6.6884110">
        <ele>928.4</ele>
        <time>2022-07-21T16:21:41Z</time>
      </trkpt>
      <trkpt lat="47.0768550" lon="6.6883620">
        <ele>928.5</ele>
        <time>2022-07-21T16:21:42Z</time>
      </trkpt>
      <trkpt lat="47.0768440" lon="6.6883140">
        <ele>928.6</ele>
        <time>2022-07-21T16:21:43Z</time>
      </trkpt>
      <trkpt lat="47.0768360" lon="6.6882720">
        <ele>928.7</ele>
        <time>2022-07-21T16:21:44Z</time>
      </trkpt>
      <trkpt lat="47.0768270" lon="6.6882260">
        <ele>928.8</ele>
        <time>2022-07-21T16:21:45Z</time>
      </trkpt>
      <trkpt lat="47.0768180" lon="6.6881800">
        <ele>928.8</ele>
        <time>2022-07-21T16:21:46Z</time>
      </trkpt>
      <trkpt lat="47.0768110" lon="6.6881360">
        <ele>928.9</ele>
        <time>2022-07-21T16:21:47Z</time>
      </trkpt>
      <trkpt lat="47.0768050" lon="6.6880950">
        <ele>929.0</ele>
        <time>2022-07-21T16:21:48Z</time>
      </trkpt>
      <trkpt lat="47.0767980" lon="6.6880550">
        <ele>929.0</ele>
        <time>2022-07-21T16:21:49Z</time>
      </trkpt>
      <trkpt lat="47.0767890" lon="6.6880080">
        <ele>929.1</ele>
        <time>2022-07-21T16:21:50Z</time>
      </trkpt>
      <trkpt lat="47.0767820" lon="6.6879600">
        <ele>929.2</ele>
        <time>2022-07-21T16:21:51Z</time>
      </trkpt>
      <trkpt lat="47.0767760" lon="6.6879140">
        <ele>929.2</ele>
        <time>2022-07-21T16:21:52Z</time>
      </trkpt>
      <trkpt lat="47.0767690" lon="6.6878640">
        <ele>929.3</ele>
        <time>2022-07-21T16:21:53Z</time>
      </trkpt>
      <trkpt lat="47.0767590" lon="6.6878090">
        <ele>929.4</ele>
        <time>2022-07-21T16:21:54Z</time>
      </trkpt>
      <trkpt lat="47.0767470" lon="6.6877520">
        <ele>929.5</ele>
        <time>2022-07-21T16:21:55Z</time>
      </trkpt>
      <trkpt lat="47.0767430" lon="6.6877310">
        <ele>929.5</ele>
        <time>2022-07-21T16:21:56Z</time>
      </trkpt>
      <trkpt lat="47.0767310" lon="6.6876790">
        <ele>929.5</ele>
        <time>2022-07-21T16:21:57Z</time>
      </trkpt>
      <trkpt lat="47.0767190" lon="6.6876290">
        <ele>929.6</ele>
        <time>2022-07-21T16:21:58Z</time>
      </trkpt>
      <trkpt lat="47.0767080" lon="6.6875830">
        <ele>929.6</ele>
        <time>2022-07-21T16:21:59Z</time>
      </trkpt>
      <trkpt lat="47.0766940" lon="6.6875310">
        <ele>929.6</ele>
        <time>2022-07-21T16:22:00Z</time>
      </trkpt>
      <trkpt lat="47.0766890" lon="6.6875100">
        <ele>929.6</ele>
        <time>2022-07-21T16:22:01Z</time>
      </trkpt>
      <trkpt lat="47.0766760" lon="6.6874620">
        <ele>929.7</ele>
        <time>2022-07-21T16:22:02Z</time>
      </trkpt>
      <trkpt lat="47.0766620" lon="6.6874080">
        <ele>929.8</ele>
        <time>2022-07-21T16:22:03Z</time>
      </trkpt>
      <trkpt lat="47.0766490" lon="6.6873520">
        <ele>929.9</ele>
        <time>2022-07-21T16:22:04Z</time>
      </trkpt>
      <trkpt lat="47.0766360" lon="6.6872950">
        <ele>930.0</ele>
        <time>2022-07-21T16:22:05Z</time>
      </trkpt>
      <trkpt lat="47.0766220" lon="6.6872470">
        <ele>930.1</ele>
        <time>2022-07-21T16:22:06Z</time>
      </trkpt>
      <trkpt lat="47.0766070" lon="6.6872040">
        <ele>930.3</ele>
        <time>2022-07-21T16:22:07Z</time>
      </trkpt>
      <trkpt lat="47.0765920" lon="6.6871610">
        <ele>930.4</ele>
        <time>2022-07-21T16:22:08Z</time>
      </trkpt>
      <trkpt lat="47.0765730" lon="6.6871160">
        <ele>930.6</ele>
        <time>2022-07-21T16:22:09Z</time>
      </trkpt>
      <trkpt lat="47.0765670" lon="6.6871040">
        <ele>930.6</ele>
        <time>2022-07-21T16:22:10Z</time>
      </trkpt>
      <trkpt lat="47.0765490" lon="6.6870730">
        <ele>930.8</ele>
        <time>2022-07-21T16:22:11Z</time>
      </trkpt>
      <trkpt lat="47.0765300" lon="6.6870380">
        <ele>930.9</ele>
        <time>2022-07-21T16:22:12Z</time>
      </trkpt>
      <trkpt lat="47.0765110" lon="6.6870070">
        <ele>931.0</ele>
        <time>2022-07-21T16:22:13Z</time>
      </trkpt>
      <trkpt lat="47.0764890" lon="6.6869670">
        <ele>931.2</ele>
        <time>2022-07-21T16:22:14Z</time>
      </trkpt>
      <trkpt lat="47.0764690" lon="6.6869330">
        <ele>931.3</ele>
        <time>2022-07-21T16:22:15Z</time>
      </trkpt>
      <trkpt lat="47.0764500" lon="6.6868980">
        <ele>931.4</ele>
        <time>2022-07-21T16:22:16Z</time>
      </trkpt>
      <trkpt lat="47.0764330" lon="6.6868640">
        <ele>931.6</ele>
        <time>2022-07-21T16:22:17Z</time>
      </trkpt>
      <trkpt lat="47.0764160" lon="6.6868200">
        <ele>931.7</ele>
        <time>2022-07-21T16:22:18Z</time>
      </trkpt>
      <trkpt lat="47.0764090" lon="6.6867990">
        <ele>931.8</ele>
        <time>2022-07-21T16:22:19Z</time>
      </trkpt>
      <trkpt lat="47.0764000" lon="6.6867520">
        <ele>931.9</ele>
        <time>2022-07-21T16:22:20Z</time>
      </trkpt>
      <trkpt lat="47.0763890" lon="6.6866940">
        <ele>932.1</ele>
        <time>2022-07-21T16:22:21Z</time>
      </trkpt>
      <trkpt lat="47.0763840" lon="6.6866700">
        <ele>932.1</ele>
        <time>2022-07-21T16:22:22Z</time>
      </trkpt>
      <trkpt lat="47.0763730" lon="6.6866240">
        <ele>932.2</ele>
        <time>2022-07-21T16:22:23Z</time>
      </trkpt>
      <trkpt lat="47.0763630" lon="6.6865760">
        <ele>932.3</ele>
        <time>2022-07-21T16:22:24Z</time>
      </trkpt>
      <trkpt lat="47.0763540" lon="6.6865360">
        <ele>932.4</ele>
        <time>2022-07-21T16:22:25Z</time>
      </trkpt>
      <trkpt lat="47.0763410" lon="6.6864890">
        <ele>932.5</ele>
        <time>2022-07-21T16:22:26Z</time>
      </trkpt>
      <trkpt lat="47.0763310" lon="6.6864420">
        <ele>932.6</ele>
        <time>2022-07-21T16:22:27Z</time>
      </trkpt>
      <trkpt lat="47.0763230" lon="6.6863930">
        <ele>932.7</ele>
        <time>2022-07-21T16:22:28Z</time>
      </trkpt>
      <trkpt lat="47.0763180" lon="6.6863500">
        <ele>932.8</ele>
        <time>2022-07-21T16:22:29Z</time>
      </trkpt>
      <trkpt lat="47.0763070" lon="6.6862930">
        <ele>932.9</ele>
        <time>2022-07-21T16:22:30Z</time>
      </trkpt>
      <trkpt lat="47.0763030" lon="6.6862740">
        <ele>932.9</ele>
        <time>2022-07-21T16:22:31Z</time>
      </trkpt>
      <trkpt lat="47.0762950" lon="6.6862400">
        <ele>932.9</ele>
        <time>2022-07-21T16:22:32Z</time>
      </trkpt>
      <trkpt lat="47.0762740" lon="6.6861770">
        <ele>933.0</ele>
        <time>2022-07-21T16:22:34Z</time>
      </trkpt>
      <trkpt lat="47.0762580" lon="6.6861390">
        <ele>933.0</ele>
        <time>2022-07-21T16:22:35Z</time>
      </trkpt>
      <trkpt lat="47.0762420" lon="6.6860970">
        <ele>933.0</ele>
        <time>2022-07-21T16:22:36Z</time>
      </trkpt>
      <trkpt lat="47.0762290" lon="6.6860550">
        <ele>933.1</ele>
        <time>2022-07-21T16:22:37Z</time>
      </trkpt>
      <trkpt lat="47.0762180" lon="6.6860160">
        <ele>933.1</ele>
        <time>2022-07-21T16:22:38Z</time>
      </trkpt>
      <trkpt lat="47.0762080" lon="6.6859740">
        <ele>933.1</ele>
        <time>2022-07-21T16:22:39Z</time>
      </trkpt>
      <trkpt lat="47.0761970" lon="6.6859320">
        <ele>933.0</ele>
        <time>2022-07-21T16:22:40Z</time>
      </trkpt>
      <trkpt lat="47.0761840" lon="6.6858880">
        <ele>933.0</ele>
        <time>2022-07-21T16:22:41Z</time>
      </trkpt>
      <trkpt lat="47.0761680" lon="6.6858420">
        <ele>933.0</ele>
        <time>2022-07-21T16:22:42Z</time>
      </trkpt>
      <trkpt lat="47.0761520" lon="6.6857920">
        <ele>933.0</ele>
        <time>2022-07-21T16:22:43Z</time>
      </trkpt>
      <trkpt lat="47.0761250" lon="6.6857090">
        <ele>932.9</ele>
        <time>2022-07-21T16:22:45Z</time>
      </trkpt>
      <trkpt lat="47.0761070" lon="6.6856540">
        <ele>932.8</ele>
        <time>2022-07-21T16:22:46Z</time>
      </trkpt>
      <trkpt lat="47.0760940" lon="6.6856090">
        <ele>932.8</ele>
        <time>2022-07-21T16:22:47Z</time>
      </trkpt>
      <trkpt lat="47.0760770" lon="6.6855650">
        <ele>932.7</ele>
        <time>2022-07-21T16:22:48Z</time>
      </trkpt>
      <trkpt lat="47.0760630" lon="6.6855260">
        <ele>932.6</ele>
        <time>2022-07-21T16:22:49Z</time>
      </trkpt>
      <trkpt lat="47.0760440" lon="6.6854770">
        <ele>932.5</ele>
        <time>2022-07-21T16:22:50Z</time>
      </trkpt>
      <trkpt lat="47.0760010" lon="6.6854210">
        <ele>932.3</ele>
        <time>2022-07-21T16:22:51Z</time>
      </trkpt>
      <trkpt lat="47.0759810" lon="6.6853620">
        <ele>932.2</ele>
        <time>2022-07-21T16:22:52Z</time>
      </trkpt>
      <trkpt lat="47.0759650" lon="6.6853190">
        <ele>932.0</ele>
        <time>2022-07-21T16:22:53Z</time>
      </trkpt>
      <trkpt lat="47.0759380" lon="6.6852540">
        <ele>931.8</ele>
        <time>2022-07-21T16:22:54Z</time>
      </trkpt>
      <trkpt lat="47.0759210" lon="6.6851780">
        <ele>931.6</ele>
        <time>2022-07-21T16:22:55Z</time>
      </trkpt>
      <trkpt lat="47.0759060" lon="6.6851080">
        <ele>931.5</ele>
        <time>2022-07-21T16:22:56Z</time>
      </trkpt>
      <trkpt lat="47.0758900" lon="6.6850370">
        <ele>931.3</ele>
        <time>2022-07-21T16:22:57Z</time>
      </trkpt>
      <trkpt lat="47.0758730" lon="6.6849700">
        <ele>931.1</ele>
        <time>2022-07-21T16:22:58Z</time>
      </trkpt>
      <trkpt lat="47.0758510" lon="6.6848910">
        <ele>930.8</ele>
        <time>2022-07-21T16:22:59Z</time>
      </trkpt>
      <trkpt lat="47.0758260" lon="6.6848080">
        <ele>930.5</ele>
        <time>2022-07-21T16:23:00Z</time>
      </trkpt>
      <trkpt lat="47.0757930" lon="6.6847320">
        <ele>930.2</ele>
        <time>2022-07-21T16:23:01Z</time>
      </trkpt>
      <trkpt lat="47.0757670" lon="6.6846570">
        <ele>929.9</ele>
        <time>2022-07-21T16:23:02Z</time>
      </trkpt>
      <trkpt lat="47.0757340" lon="6.6845850">
        <ele>929.6</ele>
        <time>2022-07-21T16:23:03Z</time>
      </trkpt>
      <trkpt lat="47.0757000" lon="6.6845070">
        <ele>929.3</ele>
        <time>2022-07-21T16:23:04Z</time>
      </trkpt>
      <trkpt lat="47.0756650" lon="6.6844280">
        <ele>929.0</ele>
        <time>2022-07-21T16:23:05Z</time>
      </trkpt>
      <trkpt lat="47.0756340" lon="6.6843510">
        <ele>928.7</ele>
        <time>2022-07-21T16:23:06Z</time>
      </trkpt>
      <trkpt lat="47.0756020" lon="6.6842680">
        <ele>928.3</ele>
        <time>2022-07-21T16:23:07Z</time>
      </trkpt>
      <trkpt lat="47.0755700" lon="6.6841830">
        <ele>928.0</ele>
        <time>2022-07-21T16:23:08Z</time>
      </trkpt>
      <trkpt lat="47.0755310" lon="6.6840970">
        <ele>927.6</ele>
        <time>2022-07-21T16:23:09Z</time>
      </trkpt>
      <trkpt lat="47.0754900" lon="6.6840130">
        <ele>927.2</ele>
        <time>2022-07-21T16:23:10Z</time>
      </trkpt>
      <trkpt lat="47.0754540" lon="6.6839310">
        <ele>926.9</ele>
        <time>2022-07-21T16:23:11Z</time>
      </trkpt>
      <trkpt lat="47.0754140" lon="6.6838480">
        <ele>926.5</ele>
        <time>2022-07-21T16:23:12Z</time>
      </trkpt>
      <trkpt lat="47.0753740" lon="6.6837610">
        <ele>926.1</ele>
        <time>2022-07-21T16:23:13Z</time>
      </trkpt>
      <trkpt lat="47.0753350" lon="6.6836720">
        <ele>925.8</ele>
        <time>2022-07-21T16:23:14Z</time>
      </trkpt>
      <trkpt lat="47.0753030" lon="6.6835820">
        <ele>925.5</ele>
        <time>2022-07-21T16:23:15Z</time>
      </trkpt>
      <trkpt lat="47.0752850" lon="6.6834790">
        <ele>925.3</ele>
        <time>2022-07-21T16:23:16Z</time>
      </trkpt>
      <trkpt lat="47.0752660" lon="6.6833730">
        <ele>925.0</ele>
        <time>2022-07-21T16:23:17Z</time>
      </trkpt>
      <trkpt lat="47.0752480" lon="6.6832730">
        <ele>924.9</ele>
        <time>2022-07-21T16:23:18Z</time>
      </trkpt>
      <trkpt lat="47.0752380" lon="6.6831740">
        <ele>924.7</ele>
        <time>2022-07-21T16:23:19Z</time>
      </trkpt>
      <trkpt lat="47.0752290" lon="6.6830770">
        <ele>924.6</ele>
        <time>2022-07-21T16:23:20Z</time>
      </trkpt>
      <trkpt lat="47.0752150" lon="6.6829810">
        <ele>924.5</ele>
        <time>2022-07-21T16:23:21Z</time>
      </trkpt>
      <trkpt lat="47.0751990" lon="6.6828870">
        <ele>924.4</ele>
        <time>2022-07-21T16:23:22Z</time>
      </trkpt>
      <trkpt lat="47.0751870" lon="6.6827920">
        <ele>924.4</ele>
        <time>2022-07-21T16:23:23Z</time>
      </trkpt>
      <trkpt lat="47.0751830" lon="6.6827070">
        <ele>924.4</ele>
        <time>2022-07-21T16:23:24Z</time>
      </trkpt>
      <trkpt lat="47.0751800" lon="6.6826250">
        <ele>924.3</ele>
        <time>2022-07-21T16:23:25Z</time>
      </trkpt>
      <trkpt lat="47.0751720" lon="6.6825400">
        <ele>924.3</ele>
        <time>2022-07-21T16:23:26Z</time>
      </trkpt>
      <trkpt lat="47.0751660" lon="6.6824560">
        <ele>924.3</ele>
        <time>2022-07-21T16:23:27Z</time>
      </trkpt>
      <trkpt lat="47.0751640" lon="6.6823730">
        <ele>924.3</ele>
        <time>2022-07-21T16:23:28Z</time>
      </trkpt>
      <trkpt lat="47.0751640" lon="6.6822940">
        <ele>924.2</ele>
        <time>2022-07-21T16:23:29Z</time>
      </trkpt>
      <trkpt lat="47.0751590" lon="6.6822220">
        <ele>924.2</ele>
        <time>2022-07-21T16:23:30Z</time>
      </trkpt>
      <trkpt lat="47.0751540" lon="6.6821490">
        <ele>924.1</ele>
        <time>2022-07-21T16:23:31Z</time>
      </trkpt>
      <trkpt lat="47.0751620" lon="6.6820750">
        <ele>923.9</ele>
        <time>2022-07-21T16:23:32Z</time>
      </trkpt>
      <trkpt lat="47.0751830" lon="6.6819960">
        <ele>923.8</ele>
        <time>2022-07-21T16:23:33Z</time>
      </trkpt>
      <trkpt lat="47.0752080" lon="6.6819190">
        <ele>923.7</ele>
        <time>2022-07-21T16:23:34Z</time>
      </trkpt>
      <trkpt lat="47.0752330" lon="6.6818450">
        <ele>923.6</ele>
        <time>2022-07-21T16:23:35Z</time>
      </trkpt>
      <trkpt lat="47.0752580" lon="6.6817740">
        <ele>923.5</ele>
        <time>2022-07-21T16:23:36Z</time>
      </trkpt>
      <trkpt lat="47.0752840" lon="6.6817060">
        <ele>923.4</ele>
        <time>2022-07-21T16:23:37Z</time>
      </trkpt>
      <trkpt lat="47.0753120" lon="6.6816430">
        <ele>923.3</ele>
        <time>2022-07-21T16:23:38Z</time>
      </trkpt>
      <trkpt lat="47.0753410" lon="6.6815880">
        <ele>923.2</ele>
        <time>2022-07-21T16:23:39Z</time>
      </trkpt>
      <trkpt lat="47.0753710" lon="6.6815430">
        <ele>923.1</ele>
        <time>2022-07-21T16:23:40Z</time>
      </trkpt>
      <trkpt lat="47.0754070" lon="6.6815050">
        <ele>923.1</ele>
        <time>2022-07-21T16:23:41Z</time>
      </trkpt>
      <trkpt lat="47.0754460" lon="6.6814910">
        <ele>923.0</ele>
        <time>2022-07-21T16:23:42Z</time>
      </trkpt>
      <trkpt lat="47.0754910" lon="6.6814990">
        <ele>922.9</ele>
        <time>2022-07-21T16:23:43Z</time>
      </trkpt>
      <trkpt lat="47.0755320" lon="6.6814610">
        <ele>922.8</ele>
        <time>2022-07-21T16:23:44Z</time>
      </trkpt>
      <trkpt lat="47.0755670" lon="6.6813860">
        <ele>922.8</ele>
        <time>2022-07-21T16:23:45Z</time>
      </trkpt>
      <trkpt lat="47.0755850" lon="6.6812990">
        <ele>922.7</ele>
        <time>2022-07-21T16:23:46Z</time>
      </trkpt>
      <trkpt lat="47.0756080" lon="6.6812270">
        <ele>922.6</ele>
        <time>2022-07-21T16:23:47Z</time>
      </trkpt>
      <trkpt lat="47.0756130" lon="6.6811310">
        <ele>922.6</ele>
        <time>2022-07-21T16:23:48Z</time>
      </trkpt>
      <trkpt lat="47.0756180" lon="6.6810430">
        <ele>922.5</ele>
        <time>2022-07-21T16:23:49Z</time>
      </trkpt>
      <trkpt lat="47.0756140" lon="6.6809550">
        <ele>922.4</ele>
        <time>2022-07-21T16:23:50Z</time>
      </trkpt>
      <trkpt lat="47.0756060" lon="6.6808810">
        <ele>922.3</ele>
        <time>2022-07-21T16:23:51Z</time>
      </trkpt>
      <trkpt lat="47.0756000" lon="6.6808180">
        <ele>922.3</ele>
        <time>2022-07-21T16:23:52Z</time>
      </trkpt>
      <trkpt lat="47.0756030" lon="6.6807560">
        <ele>922.3</ele>
        <time>2022-07-21T16:23:53Z</time>
      </trkpt>
      <trkpt lat="47.0756020" lon="6.6806790">
        <ele>922.3</ele>
        <time>2022-07-21T16:23:54Z</time>
      </trkpt>
      <trkpt lat="47.0755990" lon="6.6806030">
        <ele>922.3</ele>
        <time>2022-07-21T16:23:55Z</time>
      </trkpt>
      <trkpt lat="47.0755960" lon="6.6805200">
        <ele>922.3</ele>
        <time>2022-07-21T16:23:56Z</time>
      </trkpt>
      <trkpt lat="47.0755930" lon="6.6804340">
        <ele>922.3</ele>
        <time>2022-07-21T16:23:57Z</time>
      </trkpt>
      <trkpt lat="47.0755800" lon="6.6803580">
        <ele>922.4</ele>
        <time>2022-07-21T16:23:58Z</time>
      </trkpt>
      <trkpt lat="47.0755590" lon="6.6802980">
        <ele>922.4</ele>
        <time>2022-07-21T16:23:59Z</time>
      </trkpt>
      <trkpt lat="47.0755440" lon="6.6802300">
        <ele>922.4</ele>
        <time>2022-07-21T16:24:00Z</time>
      </trkpt>
      <trkpt lat="47.0755280" lon="6.6801760">
        <ele>922.4</ele>
        <time>2022-07-21T16:24:01Z</time>
      </trkpt>
      <trkpt lat="47.0755050" lon="6.6801160">
        <ele>922.4</ele>
        <time>2022-07-21T16:24:02Z</time>
      </trkpt>
      <trkpt lat="47.0754910" lon="6.6800650">
        <ele>922.4</ele>
        <time>2022-07-21T16:24:03Z</time>
      </trkpt>
      <trkpt lat="47.0754790" lon="6.6800050">
        <ele>922.5</ele>
        <time>2022-07-21T16:24:04Z</time>
      </trkpt>
      <trkpt lat="47.0754650" lon="6.6799460">
        <ele>922.5</ele>
        <time>2022-07-21T16:24:05Z</time>
      </trkpt>
      <trkpt lat="47.0754560" lon="6.6798890">
        <ele>922.5</ele>
        <time>2022-07-21T16:24:06Z</time>
      </trkpt>
      <trkpt lat="47.0754440" lon="6.6798290">
        <ele>922.6</ele>
        <time>2022-07-21T16:24:07Z</time>
      </trkpt>
      <trkpt lat="47.0754390" lon="6.6798060">
        <ele>922.6</ele>
        <time>2022-07-21T16:24:08Z</time>
      </trkpt>
      <trkpt lat="47.0754300" lon="6.6797490">
        <ele>922.6</ele>
        <time>2022-07-21T16:24:09Z</time>
      </trkpt>
      <trkpt lat="47.0754250" lon="6.6796940">
        <ele>922.6</ele>
        <time>2022-07-21T16:24:10Z</time>
      </trkpt>
      <trkpt lat="47.0754190" lon="6.6796340">
        <ele>922.7</ele>
        <time>2022-07-21T16:24:11Z</time>
      </trkpt>
      <trkpt lat="47.0754130" lon="6.6795790">
        <ele>922.7</ele>
        <time>2022-07-21T16:24:12Z</time>
      </trkpt>
      <trkpt lat="47.0754070" lon="6.6795360">
        <ele>922.7</ele>
        <time>2022-07-21T16:24:13Z</time>
      </trkpt>
      <trkpt lat="47.0754020" lon="6.6794790">
        <ele>922.7</ele>
        <time>2022-07-21T16:24:14Z</time>
      </trkpt>
      <trkpt lat="47.0753950" lon="6.6794220">
        <ele>922.7</ele>
        <time>2022-07-21T16:24:15Z</time>
      </trkpt>
      <trkpt lat="47.0753910" lon="6.6793770">
        <ele>922.7</ele>
        <time>2022-07-21T16:24:16Z</time>
      </trkpt>
      <trkpt lat="47.0753850" lon="6.6793180">
        <ele>922.7</ele>
        <time>2022-07-21T16:24:17Z</time>
      </trkpt>
      <trkpt lat="47.0753800" lon="6.6792490">
        <ele>922.7</ele>
        <time>2022-07-21T16:24:18Z</time>
      </trkpt>
      <trkpt lat="47.0753780" lon="6.6791980">
        <ele>922.7</ele>
        <time>2022-07-21T16:24:19Z</time>
      </trkpt>
      <trkpt lat="47.0753750" lon="6.6791380">
        <ele>922.7</ele>
        <time>2022-07-21T16:24:20Z</time>
      </trkpt>
      <trkpt lat="47.0753710" lon="6.6790750">
        <ele>922.7</ele>
        <time>2022-07-21T16:24:21Z</time>
      </trkpt>
      <trkpt lat="47.0753670" lon="6.6790190">
        <ele>922.7</ele>
        <time>2022-07-21T16:24:22Z</time>
      </trkpt>
      <trkpt lat="47.0753620" lon="6.6789680">
        <ele>922.7</ele>
        <time>2022-07-21T16:24:23Z</time>
      </trkpt>
      <trkpt lat="47.0753550" lon="6.6789070">
        <ele>922.7</ele>
        <time>2022-07-21T16:24:24Z</time>
      </trkpt>
      <trkpt lat="47.0753470" lon="6.6788430">
        <ele>922.7</ele>
        <time>2022-07-21T16:24:25Z</time>
      </trkpt>
      <trkpt lat="47.0753390" lon="6.6787820">
        <ele>922.7</ele>
        <time>2022-07-21T16:24:26Z</time>
      </trkpt>
      <trkpt lat="47.0753330" lon="6.6787290">
        <ele>922.8</ele>
        <time>2022-07-21T16:24:27Z</time>
      </trkpt>
      <trkpt lat="47.0753250" lon="6.6786730">
        <ele>922.8</ele>
        <time>2022-07-21T16:24:28Z</time>
      </trkpt>
      <trkpt lat="47.0753130" lon="6.6786100">
        <ele>922.8</ele>
        <time>2022-07-21T16:24:29Z</time>
      </trkpt>
      <trkpt lat="47.0753070" lon="6.6785830">
        <ele>922.8</ele>
        <time>2022-07-21T16:24:30Z</time>
      </trkpt>
      <trkpt lat="47.0752940" lon="6.6785370">
        <ele>922.9</ele>
        <time>2022-07-21T16:24:31Z</time>
      </trkpt>
      <trkpt lat="47.0752800" lon="6.6784890">
        <ele>922.9</ele>
        <time>2022-07-21T16:24:32Z</time>
      </trkpt>
      <trkpt lat="47.0752670" lon="6.6784420">
        <ele>922.9</ele>
        <time>2022-07-21T16:24:33Z</time>
      </trkpt>
      <trkpt lat="47.0752540" lon="6.6784000">
        <ele>923.0</ele>
        <time>2022-07-21T16:24:34Z</time>
      </trkpt>
      <trkpt lat="47.0752320" lon="6.6783470">
        <ele>923.2</ele>
        <time>2022-07-21T16:24:35Z</time>
      </trkpt>
      <trkpt lat="47.0752130" lon="6.6783120">
        <ele>923.3</ele>
        <time>2022-07-21T16:24:36Z</time>
      </trkpt>
      <trkpt lat="47.0751910" lon="6.6782790">
        <ele>923.4</ele>
        <time>2022-07-21T16:24:37Z</time>
      </trkpt>
      <trkpt lat="47.0751660" lon="6.6782430">
        <ele>923.6</ele>
        <time>2022-07-21T16:24:38Z</time>
      </trkpt>
      <trkpt lat="47.0751580" lon="6.6782320">
        <ele>923.7</ele>
        <time>2022-07-21T16:24:39Z</time>
      </trkpt>
      <trkpt lat="47.0751420" lon="6.6782120">
        <ele>923.8</ele>
        <time>2022-07-21T16:24:40Z</time>
      </trkpt>
      <trkpt lat="47.0751320" lon="6.6782000">
        <ele>923.9</ele>
        <time>2022-07-21T16:24:41Z</time>
      </trkpt>
      <trkpt lat="47.0751200" lon="6.6781820">
        <ele>924.0</ele>
        <time>2022-07-21T16:24:42Z</time>
      </trkpt>
      <trkpt lat="47.0751080" lon="6.6781660">
        <ele>924.1</ele>
        <time>2022-07-21T16:24:43Z</time>
      </trkpt>
      <trkpt lat="47.0750910" lon="6.6781430">
        <ele>924.3</ele>
        <time>2022-07-21T16:24:44Z</time>
      </trkpt>
      <trkpt lat="47.0750830" lon="6.6781340">
        <ele>924.4</ele>
        <time>2022-07-21T16:24:45Z</time>
      </trkpt>
      <trkpt lat="47.0750760" lon="6.6781240">
        <ele>924.5</ele>
        <time>2022-07-21T16:24:46Z</time>
      </trkpt>
      <trkpt lat="47.0750620" lon="6.6781080">
        <ele>924.6</ele>
        <time>2022-07-21T16:24:47Z</time>
      </trkpt>
      <trkpt lat="47.0750530" lon="6.6780940">
        <ele>924.7</ele>
        <time>2022-07-21T16:24:48Z</time>
      </trkpt>
      <trkpt lat="47.0750340" lon="6.6780650">
        <ele>925.0</ele>
        <time>2022-07-21T16:24:49Z</time>
      </trkpt>
      <trkpt lat="47.0750270" lon="6.6780550">
        <ele>925.0</ele>
        <time>2022-07-21T16:24:50Z</time>
      </trkpt>
      <trkpt lat="47.0750150" lon="6.6780340">
        <ele>925.2</ele>
        <time>2022-07-21T16:24:51Z</time>
      </trkpt>
      <trkpt lat="47.0750060" lon="6.6780160">
        <ele>925.4</ele>
        <time>2022-07-21T16:24:52Z</time>
      </trkpt>
      <trkpt lat="47.0749890" lon="6.6779830">
        <ele>925.6</ele>
        <time>2022-07-21T16:24:53Z</time>
      </trkpt>
      <trkpt lat="47.0749830" lon="6.6779720">
        <ele>925.7</ele>
        <time>2022-07-21T16:24:54Z</time>
      </trkpt>
      <trkpt lat="47.0749630" lon="6.6779420">
        <ele>926.0</ele>
        <time>2022-07-21T16:24:55Z</time>
      </trkpt>
      <trkpt lat="47.0749570" lon="6.6779330">
        <ele>926.0</ele>
        <time>2022-07-21T16:24:56Z</time>
      </trkpt>
      <trkpt lat="47.0749350" lon="6.6778980">
        <ele>926.3</ele>
        <time>2022-07-21T16:24:57Z</time>
      </trkpt>
      <trkpt lat="47.0749280" lon="6.6778860">
        <ele>926.4</ele>
        <time>2022-07-21T16:24:58Z</time>
      </trkpt>
      <trkpt lat="47.0749060" lon="6.6778450">
        <ele>926.7</ele>
        <time>2022-07-21T16:24:59Z</time>
      </trkpt>
      <trkpt lat="47.0749010" lon="6.6778320">
        <ele>926.8</ele>
        <time>2022-07-21T16:25:00Z</time>
      </trkpt>
      <trkpt lat="47.0748890" lon="6.6777940">
        <ele>927.0</ele>
        <time>2022-07-21T16:25:01Z</time>
      </trkpt>
      <trkpt lat="47.0748860" lon="6.6777780">
        <ele>927.1</ele>
        <time>2022-07-21T16:25:02Z</time>
      </trkpt>
      <trkpt lat="47.0748810" lon="6.6777330">
        <ele>927.3</ele>
        <time>2022-07-21T16:25:03Z</time>
      </trkpt>
      <trkpt lat="47.0748800" lon="6.6777180">
        <ele>927.4</ele>
        <time>2022-07-21T16:25:04Z</time>
      </trkpt>
      <trkpt lat="47.0748750" lon="6.6776660">
        <ele>927.7</ele>
        <time>2022-07-21T16:25:05Z</time>
      </trkpt>
      <trkpt lat="47.0748730" lon="6.6776510">
        <ele>927.7</ele>
        <time>2022-07-21T16:25:06Z</time>
      </trkpt>
      <trkpt lat="47.0748650" lon="6.6776000">
        <ele>928.0</ele>
        <time>2022-07-21T16:25:08Z</time>
      </trkpt>
      <trkpt lat="47.0748630" lon="6.6775860">
        <ele>928.1</ele>
        <time>2022-07-21T16:25:09Z</time>
      </trkpt>
      <trkpt lat="47.0748570" lon="6.6775530">
        <ele>928.2</ele>
        <time>2022-07-21T16:25:10Z</time>
      </trkpt>
      <trkpt lat="47.0748570" lon="6.6775270">
        <ele>928.3</ele>
        <time>2022-07-21T16:25:12Z</time>
      </trkpt>
      <trkpt lat="47.0748430" lon="6.6774890">
        <ele>928.5</ele>
        <time>2022-07-21T16:25:13Z</time>
      </trkpt>
      <trkpt lat="47.0748370" lon="6.6774730">
        <ele>928.6</ele>
        <time>2022-07-21T16:25:14Z</time>
      </trkpt>
      <trkpt lat="47.0748290" lon="6.6774320">
        <ele>928.8</ele>
        <time>2022-07-21T16:25:15Z</time>
      </trkpt>
      <trkpt lat="47.0748250" lon="6.6774060">
        <ele>928.9</ele>
        <time>2022-07-21T16:25:16Z</time>
      </trkpt>
      <trkpt lat="47.0748210" lon="6.6773830">
        <ele>929.0</ele>
        <time>2022-07-21T16:25:17Z</time>
      </trkpt>
      <trkpt lat="47.0748080" lon="6.6773440">
        <ele>929.1</ele>
        <time>2022-07-21T16:25:18Z</time>
      </trkpt>
      <trkpt lat="47.0748020" lon="6.6773300">
        <ele>929.2</ele>
        <time>2022-07-21T16:25:19Z</time>
      </trkpt>
      <trkpt lat="47.0747850" lon="6.6772900">
        <ele>929.3</ele>
        <time>2022-07-21T16:25:20Z</time>
      </trkpt>
      <trkpt lat="47.0747800" lon="6.6772770">
        <ele>929.4</ele>
        <time>2022-07-21T16:25:21Z</time>
      </trkpt>
      <trkpt lat="47.0747710" lon="6.6772330">
        <ele>929.5</ele>
        <time>2022-07-21T16:25:22Z</time>
      </trkpt>
      <trkpt lat="47.0747680" lon="6.6772170">
        <ele>929.6</ele>
        <time>2022-07-21T16:25:23Z</time>
      </trkpt>
      <trkpt lat="47.0747580" lon="6.6771630">
        <ele>929.7</ele>
        <time>2022-07-21T16:25:24Z</time>
      </trkpt>
      <trkpt lat="47.0747540" lon="6.6771440">
        <ele>929.7</ele>
        <time>2022-07-21T16:25:25Z</time>
      </trkpt>
      <trkpt lat="47.0747430" lon="6.6770900">
        <ele>929.8</ele>
        <time>2022-07-21T16:25:26Z</time>
      </trkpt>
      <trkpt lat="47.0747410" lon="6.6770710">
        <ele>929.9</ele>
        <time>2022-07-21T16:25:27Z</time>
      </trkpt>
      <trkpt lat="47.0747360" lon="6.6770310">
        <ele>930.0</ele>
        <time>2022-07-21T16:25:28Z</time>
      </trkpt>
      <trkpt lat="47.0747330" lon="6.6769890">
        <ele>930.0</ele>
        <time>2022-07-21T16:25:29Z</time>
      </trkpt>
      <trkpt lat="47.0747270" lon="6.6769500">
        <ele>930.1</ele>
        <time>2022-07-21T16:25:30Z</time>
      </trkpt>
      <trkpt lat="47.0747220" lon="6.6769090">
        <ele>930.2</ele>
        <time>2022-07-21T16:25:31Z</time>
      </trkpt>
      <trkpt lat="47.0747080" lon="6.6768460">
        <ele>930.3</ele>
        <time>2022-07-21T16:25:32Z</time>
      </trkpt>
      <trkpt lat="47.0747020" lon="6.6768210">
        <ele>930.3</ele>
        <time>2022-07-21T16:25:33Z</time>
      </trkpt>
      <trkpt lat="47.0746900" lon="6.6767710">
        <ele>930.4</ele>
        <time>2022-07-21T16:25:34Z</time>
      </trkpt>
      <trkpt lat="47.0746800" lon="6.6767180">
        <ele>930.5</ele>
        <time>2022-07-21T16:25:36Z</time>
      </trkpt>
      <trkpt lat="47.0746650" lon="6.6766630">
        <ele>930.6</ele>
        <time>2022-07-21T16:25:37Z</time>
      </trkpt>
      <trkpt lat="47.0746540" lon="6.6766130">
        <ele>930.7</ele>
        <time>2022-07-21T16:25:39Z</time>
      </trkpt>
      <trkpt lat="47.0746500" lon="6.6765650">
        <ele>930.7</ele>
        <time>2022-07-21T16:25:40Z</time>
      </trkpt>
      <trkpt lat="47.0746460" lon="6.6765240">
        <ele>930.8</ele>
        <time>2022-07-21T16:25:41Z</time>
      </trkpt>
      <trkpt lat="47.0746380" lon="6.6764680">
        <ele>931.0</ele>
        <time>2022-07-21T16:25:42Z</time>
      </trkpt>
      <trkpt lat="47.0746340" lon="6.6764500">
        <ele>931.0</ele>
        <time>2022-07-21T16:25:43Z</time>
      </trkpt>
      <trkpt lat="47.0746260" lon="6.6763970">
        <ele>931.2</ele>
        <time>2022-07-21T16:25:44Z</time>
      </trkpt>
      <trkpt lat="47.0746230" lon="6.6763790">
        <ele>931.2</ele>
        <time>2022-07-21T16:25:45Z</time>
      </trkpt>
      <trkpt lat="47.0746140" lon="6.6763280">
        <ele>931.4</ele>
        <time>2022-07-21T16:25:46Z</time>
      </trkpt>
      <trkpt lat="47.0746110" lon="6.6763130">
        <ele>931.4</ele>
        <time>2022-07-21T16:25:47Z</time>
      </trkpt>
      <trkpt lat="47.0746040" lon="6.6762670">
        <ele>931.6</ele>
        <time>2022-07-21T16:25:48Z</time>
      </trkpt>
      <trkpt lat="47.0746030" lon="6.6762520">
        <ele>931.6</ele>
        <time>2022-07-21T16:25:49Z</time>
      </trkpt>
      <trkpt lat="47.0745990" lon="6.6762080">
        <ele>931.7</ele>
        <time>2022-07-21T16:25:50Z</time>
      </trkpt>
      <trkpt lat="47.0745980" lon="6.6761930">
        <ele>931.8</ele>
        <time>2022-07-21T16:25:51Z</time>
      </trkpt>
      <trkpt lat="47.0745950" lon="6.6761420">
        <ele>932.0</ele>
        <time>2022-07-21T16:25:52Z</time>
      </trkpt>
      <trkpt lat="47.0745920" lon="6.6761210">
        <ele>932.0</ele>
        <time>2022-07-21T16:25:53Z</time>
      </trkpt>
      <trkpt lat="47.0745800" lon="6.6760550">
        <ele>932.3</ele>
        <time>2022-07-21T16:25:55Z</time>
      </trkpt>
      <trkpt lat="47.0745760" lon="6.6760330">
        <ele>932.4</ele>
        <time>2022-07-21T16:25:56Z</time>
      </trkpt>
      <trkpt lat="47.0745730" lon="6.6760120">
        <ele>932.4</ele>
        <time>2022-07-21T16:25:57Z</time>
      </trkpt>
      <trkpt lat="47.0745660" lon="6.6759660">
        <ele>932.6</ele>
        <time>2022-07-21T16:25:58Z</time>
      </trkpt>
      <trkpt lat="47.0745630" lon="6.6759510">
        <ele>932.7</ele>
        <time>2022-07-21T16:25:59Z</time>
      </trkpt>
      <trkpt lat="47.0745490" lon="6.6759080">
        <ele>932.9</ele>
        <time>2022-07-21T16:26:00Z</time>
      </trkpt>
      <trkpt lat="47.0745440" lon="6.6758950">
        <ele>932.9</ele>
        <time>2022-07-21T16:26:01Z</time>
      </trkpt>
      <trkpt lat="47.0745300" lon="6.6758570">
        <ele>933.1</ele>
        <time>2022-07-21T16:26:02Z</time>
      </trkpt>
      <trkpt lat="47.0745250" lon="6.6758440">
        <ele>933.1</ele>
        <time>2022-07-21T16:26:03Z</time>
      </trkpt>
      <trkpt lat="47.0745080" lon="6.6758040">
        <ele>933.3</ele>
        <time>2022-07-21T16:26:04Z</time>
      </trkpt>
      <trkpt lat="47.0745010" lon="6.6757900">
        <ele>933.4</ele>
        <time>2022-07-21T16:26:05Z</time>
      </trkpt>
      <trkpt lat="47.0744780" lon="6.6757480">
        <ele>933.6</ele>
        <time>2022-07-21T16:26:06Z</time>
      </trkpt>
      <trkpt lat="47.0744710" lon="6.6757350">
        <ele>933.7</ele>
        <time>2022-07-21T16:26:07Z</time>
      </trkpt>
      <trkpt lat="47.0744470" lon="6.6756890">
        <ele>933.9</ele>
        <time>2022-07-21T16:26:09Z</time>
      </trkpt>
      <trkpt lat="47.0744260" lon="6.6756500">
        <ele>934.1</ele>
        <time>2022-07-21T16:26:10Z</time>
      </trkpt>
      <trkpt lat="47.0744180" lon="6.6756350">
        <ele>934.1</ele>
        <time>2022-07-21T16:26:11Z</time>
      </trkpt>
      <trkpt lat="47.0743990" lon="6.6756060">
        <ele>934.3</ele>
        <time>2022-07-21T16:26:12Z</time>
      </trkpt>
      <trkpt lat="47.0743770" lon="6.6755810">
        <ele>934.4</ele>
        <time>2022-07-21T16:26:13Z</time>
      </trkpt>
      <trkpt lat="47.0743540" lon="6.6755570">
        <ele>934.5</ele>
        <time>2022-07-21T16:26:14Z</time>
      </trkpt>
      <trkpt lat="47.0743300" lon="6.6755210">
        <ele>934.7</ele>
        <time>2022-07-21T16:26:15Z</time>
      </trkpt>
      <trkpt lat="47.0743220" lon="6.6755090">
        <ele>934.7</ele>
        <time>2022-07-21T16:26:16Z</time>
      </trkpt>
      <trkpt lat="47.0742980" lon="6.6754840">
        <ele>934.9</ele>
        <time>2022-07-21T16:26:17Z</time>
      </trkpt>
      <trkpt lat="47.0742750" lon="6.6754590">
        <ele>935.0</ele>
        <time>2022-07-21T16:26:18Z</time>
      </trkpt>
      <trkpt lat="47.0742360" lon="6.6754070">
        <ele>935.3</ele>
        <time>2022-07-21T16:26:20Z</time>
      </trkpt>
      <trkpt lat="47.0742160" lon="6.6753780">
        <ele>935.4</ele>
        <time>2022-07-21T16:26:21Z</time>
      </trkpt>
      <trkpt lat="47.0741980" lon="6.6753470">
        <ele>935.5</ele>
        <time>2022-07-21T16:26:22Z</time>
      </trkpt>
      <trkpt lat="47.0741710" lon="6.6753110">
        <ele>935.7</ele>
        <time>2022-07-21T16:26:23Z</time>
      </trkpt>
      <trkpt lat="47.0741620" lon="6.6753000">
        <ele>935.8</ele>
        <time>2022-07-21T16:26:24Z</time>
      </trkpt>
      <trkpt lat="47.0741350" lon="6.6752630">
        <ele>936.0</ele>
        <time>2022-07-21T16:26:25Z</time>
      </trkpt>
      <trkpt lat="47.0741260" lon="6.6752510">
        <ele>936.0</ele>
        <time>2022-07-21T16:26:26Z</time>
      </trkpt>
      <trkpt lat="47.0741060" lon="6.6752190">
        <ele>936.2</ele>
        <time>2022-07-21T16:26:27Z</time>
      </trkpt>
      <trkpt lat="47.0741020" lon="6.6752090">
        <ele>936.3</ele>
        <time>2022-07-21T16:26:28Z</time>
      </trkpt>
      <trkpt lat="47.0740800" lon="6.6751850">
        <ele>936.4</ele>
        <time>2022-07-21T16:26:29Z</time>
      </trkpt>
      <trkpt lat="47.0740720" lon="6.6751750">
        <ele>936.5</ele>
        <time>2022-07-21T16:26:30Z</time>
      </trkpt>
      <trkpt lat="47.0740480" lon="6.6751370">
        <ele>936.7</ele>
        <time>2022-07-21T16:26:31Z</time>
      </trkpt>
      <trkpt lat="47.0740400" lon="6.6751250">
        <ele>936.8</ele>
        <time>2022-07-21T16:26:32Z</time>
      </trkpt>
      <trkpt lat="47.0740170" lon="6.6750930">
        <ele>936.9</ele>
        <time>2022-07-21T16:26:33Z</time>
      </trkpt>
      <trkpt lat="47.0740090" lon="6.6750840">
        <ele>937.0</ele>
        <time>2022-07-21T16:26:34Z</time>
      </trkpt>
      <trkpt lat="47.0739860" lon="6.6750500">
        <ele>937.2</ele>
        <time>2022-07-21T16:26:35Z</time>
      </trkpt>
      <trkpt lat="47.0739790" lon="6.6750370">
        <ele>937.3</ele>
        <time>2022-07-21T16:26:36Z</time>
      </trkpt>
      <trkpt lat="47.0739530" lon="6.6749940">
        <ele>937.5</ele>
        <time>2022-07-21T16:26:37Z</time>
      </trkpt>
      <trkpt lat="47.0739440" lon="6.6749780">
        <ele>937.6</ele>
        <time>2022-07-21T16:26:38Z</time>
      </trkpt>
      <trkpt lat="47.0739260" lon="6.6749450">
        <ele>937.7</ele>
        <time>2022-07-21T16:26:39Z</time>
      </trkpt>
      <trkpt lat="47.0739090" lon="6.6749140">
        <ele>937.9</ele>
        <time>2022-07-21T16:26:40Z</time>
      </trkpt>
      <trkpt lat="47.0738920" lon="6.6748840">
        <ele>938.0</ele>
        <time>2022-07-21T16:26:41Z</time>
      </trkpt>
      <trkpt lat="47.0738720" lon="6.6748550">
        <ele>938.1</ele>
        <time>2022-07-21T16:26:42Z</time>
      </trkpt>
      <trkpt lat="47.0738520" lon="6.6748260">
        <ele>938.3</ele>
        <time>2022-07-21T16:26:43Z</time>
      </trkpt>
      <trkpt lat="47.0738330" lon="6.6747960">
        <ele>938.4</ele>
        <time>2022-07-21T16:26:44Z</time>
      </trkpt>
      <trkpt lat="47.0738120" lon="6.6747550">
        <ele>938.6</ele>
        <time>2022-07-21T16:26:45Z</time>
      </trkpt>
      <trkpt lat="47.0738040" lon="6.6747430">
        <ele>938.7</ele>
        <time>2022-07-21T16:26:46Z</time>
      </trkpt>
      <trkpt lat="47.0737770" lon="6.6747030">
        <ele>938.8</ele>
        <time>2022-07-21T16:26:47Z</time>
      </trkpt>
      <trkpt lat="47.0737680" lon="6.6746900">
        <ele>938.9</ele>
        <time>2022-07-21T16:26:48Z</time>
      </trkpt>
      <trkpt lat="47.0737430" lon="6.6746530">
        <ele>939.1</ele>
        <time>2022-07-21T16:26:49Z</time>
      </trkpt>
      <trkpt lat="47.0737350" lon="6.6746410">
        <ele>939.1</ele>
        <time>2022-07-21T16:26:50Z</time>
      </trkpt>
      <trkpt lat="47.0737090" lon="6.6746040">
        <ele>939.3</ele>
        <time>2022-07-21T16:26:51Z</time>
      </trkpt>
      <trkpt lat="47.0736990" lon="6.6745890">
        <ele>939.3</ele>
        <time>2022-07-21T16:26:52Z</time>
      </trkpt>
      <trkpt lat="47.0736760" lon="6.6745470">
        <ele>939.5</ele>
        <time>2022-07-21T16:26:53Z</time>
      </trkpt>
      <trkpt lat="47.0736690" lon="6.6745340">
        <ele>939.5</ele>
        <time>2022-07-21T16:26:54Z</time>
      </trkpt>
      <trkpt lat="47.0736520" lon="6.6744950">
        <ele>939.6</ele>
        <time>2022-07-21T16:26:55Z</time>
      </trkpt>
      <trkpt lat="47.0736490" lon="6.6744850">
        <ele>939.6</ele>
        <time>2022-07-21T16:26:56Z</time>
      </trkpt>
      <trkpt lat="47.0736420" lon="6.6744460">
        <ele>939.7</ele>
        <time>2022-07-21T16:26:57Z</time>
      </trkpt>
      <trkpt lat="47.0736390" lon="6.6744310">
        <ele>939.8</ele>
        <time>2022-07-21T16:26:58Z</time>
      </trkpt>
      <trkpt lat="47.0736310" lon="6.6743890">
        <ele>939.9</ele>
        <time>2022-07-21T16:26:59Z</time>
      </trkpt>
      <trkpt lat="47.0736290" lon="6.6743750">
        <ele>939.9</ele>
        <time>2022-07-21T16:27:00Z</time>
      </trkpt>
      <trkpt lat="47.0736190" lon="6.6743210">
        <ele>940.0</ele>
        <time>2022-07-21T16:27:01Z</time>
      </trkpt>
      <trkpt lat="47.0736150" lon="6.6743050">
        <ele>940.0</ele>
        <time>2022-07-21T16:27:02Z</time>
      </trkpt>
      <trkpt lat="47.0736000" lon="6.6742530">
        <ele>940.1</ele>
        <time>2022-07-21T16:27:03Z</time>
      </trkpt>
      <trkpt lat="47.0735950" lon="6.6742360">
        <ele>940.1</ele>
        <time>2022-07-21T16:27:04Z</time>
      </trkpt>
      <trkpt lat="47.0735850" lon="6.6741890">
        <ele>940.1</ele>
        <time>2022-07-21T16:27:05Z</time>
      </trkpt>
      <trkpt lat="47.0735810" lon="6.6741720">
        <ele>940.1</ele>
        <time>2022-07-21T16:27:06Z</time>
      </trkpt>
      <trkpt lat="47.0735740" lon="6.6741230">
        <ele>940.2</ele>
        <time>2022-07-21T16:27:07Z</time>
      </trkpt>
      <trkpt lat="47.0735720" lon="6.6741030">
        <ele>940.2</ele>
        <time>2022-07-21T16:27:08Z</time>
      </trkpt>
      <trkpt lat="47.0735660" lon="6.6740430">
        <ele>940.2</ele>
        <time>2022-07-21T16:27:09Z</time>
      </trkpt>
      <trkpt lat="47.0735490" lon="6.6739800">
        <ele>940.2</ele>
        <time>2022-07-21T16:27:11Z</time>
      </trkpt>
      <trkpt lat="47.0735400" lon="6.6739300">
        <ele>940.2</ele>
        <time>2022-07-21T16:27:12Z</time>
      </trkpt>
      <trkpt lat="47.0735300" lon="6.6738840">
        <ele>940.2</ele>
        <time>2022-07-21T16:27:13Z</time>
      </trkpt>
      <trkpt lat="47.0735190" lon="6.6738360">
        <ele>940.2</ele>
        <time>2022-07-21T16:27:14Z</time>
      </trkpt>
      <trkpt lat="47.0735100" lon="6.6737890">
        <ele>940.3</ele>
        <time>2022-07-21T16:27:15Z</time>
      </trkpt>
      <trkpt lat="47.0735040" lon="6.6737480">
        <ele>940.3</ele>
        <time>2022-07-21T16:27:16Z</time>
      </trkpt>
      <trkpt lat="47.0734960" lon="6.6737090">
        <ele>940.3</ele>
        <time>2022-07-21T16:27:17Z</time>
      </trkpt>
      <trkpt lat="47.0734870" lon="6.6736770">
        <ele>940.3</ele>
        <time>2022-07-21T16:27:18Z</time>
      </trkpt>
      <trkpt lat="47.0734850" lon="6.6736610">
        <ele>940.3</ele>
        <time>2022-07-21T16:27:19Z</time>
      </trkpt>
      <trkpt lat="47.0734810" lon="6.6736420">
        <ele>940.3</ele>
        <time>2022-07-21T16:27:20Z</time>
      </trkpt>
      <trkpt lat="47.0734760" lon="6.6736220">
        <ele>940.3</ele>
        <time>2022-07-21T16:27:21Z</time>
      </trkpt>
      <trkpt lat="47.0734720" lon="6.6736010">
        <ele>940.4</ele>
        <time>2022-07-21T16:27:22Z</time>
      </trkpt>
      <trkpt lat="47.0734680" lon="6.6735820">
        <ele>940.4</ele>
        <time>2022-07-21T16:27:23Z</time>
      </trkpt>
      <trkpt lat="47.0734570" lon="6.6735510">
        <ele>940.4</ele>
        <time>2022-07-21T16:27:24Z</time>
      </trkpt>
      <trkpt lat="47.0734520" lon="6.6735400">
        <ele>940.4</ele>
        <time>2022-07-21T16:27:25Z</time>
      </trkpt>
      <trkpt lat="47.0734470" lon="6.6735280">
        <ele>940.4</ele>
        <time>2022-07-21T16:27:26Z</time>
      </trkpt>
      <trkpt lat="47.0734430" lon="6.6735070">
        <ele>940.4</ele>
        <time>2022-07-21T16:27:27Z</time>
      </trkpt>
      <trkpt lat="47.0734400" lon="6.6734870">
        <ele>940.4</ele>
        <time>2022-07-21T16:27:28Z</time>
      </trkpt>
      <trkpt lat="47.0734300" lon="6.6734990">
        <ele>940.4</ele>
        <time>2022-07-21T16:27:29Z</time>
      </trkpt>
      <trkpt lat="47.0734230" lon="6.6734920">
        <ele>940.4</ele>
        <time>2022-07-21T16:27:30Z</time>
      </trkpt>
      <trkpt lat="47.0734160" lon="6.6734860">
        <ele>940.4</ele>
        <time>2022-07-21T16:27:31Z</time>
      </trkpt>
      <trkpt lat="47.0734100" lon="6.6734790">
        <ele>940.4</ele>
        <time>2022-07-21T16:27:32Z</time>
      </trkpt>
      <trkpt lat="47.0734030" lon="6.6734730">
        <ele>940.5</ele>
        <time>2022-07-21T16:27:33Z</time>
      </trkpt>
      <trkpt lat="47.0733710" lon="6.6734390">
        <ele>940.5</ele>
        <time>2022-07-21T16:27:34Z</time>
      </trkpt>
      <trkpt lat="47.0733600" lon="6.6734300">
        <ele>940.5</ele>
        <time>2022-07-21T16:27:35Z</time>
      </trkpt>
      <trkpt lat="47.0733330" lon="6.6734190">
        <ele>940.5</ele>
        <time>2022-07-21T16:27:36Z</time>
      </trkpt>
      <trkpt lat="47.0732940" lon="6.6734170">
        <ele>940.5</ele>
        <time>2022-07-21T16:27:37Z</time>
      </trkpt>
      <trkpt lat="47.0732600" lon="6.6734200">
        <ele>940.3</ele>
        <time>2022-07-21T16:27:38Z</time>
      </trkpt>
      <trkpt lat="47.0732210" lon="6.6734070">
        <ele>940.3</ele>
        <time>2022-07-21T16:27:39Z</time>
      </trkpt>
      <trkpt lat="47.0731840" lon="6.6733580">
        <ele>940.2</ele>
        <time>2022-07-21T16:27:40Z</time>
      </trkpt>
      <trkpt lat="47.0731530" lon="6.6733060">
        <ele>940.1</ele>
        <time>2022-07-21T16:27:41Z</time>
      </trkpt>
      <trkpt lat="47.0731310" lon="6.6732590">
        <ele>940.1</ele>
        <time>2022-07-21T16:27:42Z</time>
      </trkpt>
      <trkpt lat="47.0731060" lon="6.6732020">
        <ele>940.1</ele>
        <time>2022-07-21T16:27:43Z</time>
      </trkpt>
      <trkpt lat="47.0730810" lon="6.6731500">
        <ele>940.0</ele>
        <time>2022-07-21T16:27:44Z</time>
      </trkpt>
      <trkpt lat="47.0730600" lon="6.6731030">
        <ele>940.0</ele>
        <time>2022-07-21T16:27:45Z</time>
      </trkpt>
      <trkpt lat="47.0730380" lon="6.6730570">
        <ele>939.9</ele>
        <time>2022-07-21T16:27:46Z</time>
      </trkpt>
      <trkpt lat="47.0730190" lon="6.6730130">
        <ele>939.9</ele>
        <time>2022-07-21T16:27:47Z</time>
      </trkpt>
      <trkpt lat="47.0729990" lon="6.6729720">
        <ele>939.8</ele>
        <time>2022-07-21T16:27:48Z</time>
      </trkpt>
      <trkpt lat="47.0729730" lon="6.6729220">
        <ele>939.7</ele>
        <time>2022-07-21T16:27:49Z</time>
      </trkpt>
      <trkpt lat="47.0729620" lon="6.6729030">
        <ele>939.7</ele>
        <time>2022-07-21T16:27:50Z</time>
      </trkpt>
      <trkpt lat="47.0729400" lon="6.6728630">
        <ele>939.6</ele>
        <time>2022-07-21T16:27:51Z</time>
      </trkpt>
      <trkpt lat="47.0729140" lon="6.6728190">
        <ele>939.5</ele>
        <time>2022-07-21T16:27:52Z</time>
      </trkpt>
      <trkpt lat="47.0728900" lon="6.6727730">
        <ele>939.5</ele>
        <time>2022-07-21T16:27:53Z</time>
      </trkpt>
      <trkpt lat="47.0728660" lon="6.6727240">
        <ele>939.4</ele>
        <time>2022-07-21T16:27:54Z</time>
      </trkpt>
      <trkpt lat="47.0728420" lon="6.6726740">
        <ele>939.3</ele>
        <time>2022-07-21T16:27:55Z</time>
      </trkpt>
      <trkpt lat="47.0728170" lon="6.6726220">
        <ele>939.2</ele>
        <time>2022-07-21T16:27:56Z</time>
      </trkpt>
      <trkpt lat="47.0727930" lon="6.6725710">
        <ele>939.1</ele>
        <time>2022-07-21T16:27:57Z</time>
      </trkpt>
      <trkpt lat="47.0727670" lon="6.6725200">
        <ele>939.0</ele>
        <time>2022-07-21T16:27:58Z</time>
      </trkpt>
      <trkpt lat="47.0727420" lon="6.6724690">
        <ele>939.0</ele>
        <time>2022-07-21T16:27:59Z</time>
      </trkpt>
      <trkpt lat="47.0727150" lon="6.6724150">
        <ele>938.9</ele>
        <time>2022-07-21T16:28:00Z</time>
      </trkpt>
      <trkpt lat="47.0726890" lon="6.6723640">
        <ele>938.8</ele>
        <time>2022-07-21T16:28:01Z</time>
      </trkpt>
      <trkpt lat="47.0726640" lon="6.6723140">
        <ele>938.8</ele>
        <time>2022-07-21T16:28:02Z</time>
      </trkpt>
      <trkpt lat="47.0726380" lon="6.6722630">
        <ele>938.7</ele>
        <time>2022-07-21T16:28:03Z</time>
      </trkpt>
      <trkpt lat="47.0726110" lon="6.6722130">
        <ele>938.6</ele>
        <time>2022-07-21T16:28:04Z</time>
      </trkpt>
      <trkpt lat="47.0725840" lon="6.6721620">
        <ele>938.6</ele>
        <time>2022-07-21T16:28:05Z</time>
      </trkpt>
      <trkpt lat="47.0725530" lon="6.6721090">
        <ele>938.5</ele>
        <time>2022-07-21T16:28:06Z</time>
      </trkpt>
      <trkpt lat="47.0725210" lon="6.6720540">
        <ele>938.4</ele>
        <time>2022-07-21T16:28:07Z</time>
      </trkpt>
      <trkpt lat="47.0724910" lon="6.6720000">
        <ele>938.3</ele>
        <time>2022-07-21T16:28:08Z</time>
      </trkpt>
      <trkpt lat="47.0724600" lon="6.6719440">
        <ele>938.2</ele>
        <time>2022-07-21T16:28:09Z</time>
      </trkpt>
      <trkpt lat="47.0724320" lon="6.6718850">
        <ele>938.1</ele>
        <time>2022-07-21T16:28:10Z</time>
      </trkpt>
      <trkpt lat="47.0724050" lon="6.6718340">
        <ele>938.0</ele>
        <time>2022-07-21T16:28:11Z</time>
      </trkpt>
      <trkpt lat="47.0723770" lon="6.6717810">
        <ele>938.0</ele>
        <time>2022-07-21T16:28:12Z</time>
      </trkpt>
      <trkpt lat="47.0723430" lon="6.6717310">
        <ele>937.9</ele>
        <time>2022-07-21T16:28:13Z</time>
      </trkpt>
      <trkpt lat="47.0723110" lon="6.6716790">
        <ele>937.8</ele>
        <time>2022-07-21T16:28:14Z</time>
      </trkpt>
      <trkpt lat="47.0722700" lon="6.6716310">
        <ele>937.8</ele>
        <time>2022-07-21T16:28:15Z</time>
      </trkpt>
      <trkpt lat="47.0722270" lon="6.6715880">
        <ele>937.7</ele>
        <time>2022-07-21T16:28:16Z</time>
      </trkpt>
      <trkpt lat="47.0721920" lon="6.6715370">
        <ele>937.7</ele>
        <time>2022-07-21T16:28:17Z</time>
      </trkpt>
      <trkpt lat="47.0721530" lon="6.6714820">
        <ele>937.7</ele>
        <time>2022-07-21T16:28:18Z</time>
      </trkpt>
      <trkpt lat="47.0721190" lon="6.6714260">
        <ele>937.7</ele>
        <time>2022-07-21T16:28:19Z</time>
      </trkpt>
      <trkpt lat="47.0720980" lon="6.6713850">
        <ele>937.7</ele>
        <time>2022-07-21T16:28:20Z</time>
      </trkpt>
      <trkpt lat="47.0720620" lon="6.6713310">
        <ele>937.7</ele>
        <time>2022-07-21T16:28:21Z</time>
      </trkpt>
      <trkpt lat="47.0720270" lon="6.6712780">
        <ele>937.7</ele>
        <time>2022-07-21T16:28:22Z</time>
      </trkpt>
      <trkpt lat="47.0719990" lon="6.6712280">
        <ele>937.8</ele>
        <time>2022-07-21T16:28:23Z</time>
      </trkpt>
      <trkpt lat="47.0719800" lon="6.6711770">
        <ele>937.8</ele>
        <time>2022-07-21T16:28:24Z</time>
      </trkpt>
      <trkpt lat="47.0719720" lon="6.6711590">
        <ele>937.8</ele>
        <time>2022-07-21T16:28:25Z</time>
      </trkpt>
      <trkpt lat="47.0719440" lon="6.6711120">
        <ele>937.8</ele>
        <time>2022-07-21T16:28:26Z</time>
      </trkpt>
      <trkpt lat="47.0719240" lon="6.6710760">
        <ele>937.8</ele>
        <time>2022-07-21T16:28:27Z</time>
      </trkpt>
      <trkpt lat="47.0718960" lon="6.6710300">
        <ele>937.8</ele>
        <time>2022-07-21T16:28:28Z</time>
      </trkpt>
      <trkpt lat="47.0718780" lon="6.6709920">
        <ele>937.8</ele>
        <time>2022-07-21T16:28:29Z</time>
      </trkpt>
      <trkpt lat="47.0718470" lon="6.6709360">
        <ele>937.8</ele>
        <time>2022-07-21T16:28:30Z</time>
      </trkpt>
      <trkpt lat="47.0718290" lon="6.6708880">
        <ele>937.8</ele>
        <time>2022-07-21T16:28:31Z</time>
      </trkpt>
      <trkpt lat="47.0718080" lon="6.6708320">
        <ele>937.8</ele>
        <time>2022-07-21T16:28:32Z</time>
      </trkpt>
      <trkpt lat="47.0717840" lon="6.6707780">
        <ele>937.7</ele>
        <time>2022-07-21T16:28:33Z</time>
      </trkpt>
      <trkpt lat="47.0717630" lon="6.6707360">
        <ele>937.7</ele>
        <time>2022-07-21T16:28:34Z</time>
      </trkpt>
      <trkpt lat="47.0717370" lon="6.6706870">
        <ele>937.6</ele>
        <time>2022-07-21T16:28:35Z</time>
      </trkpt>
      <trkpt lat="47.0717170" lon="6.6706510">
        <ele>937.5</ele>
        <time>2022-07-21T16:28:36Z</time>
      </trkpt>
      <trkpt lat="47.0716870" lon="6.6705950">
        <ele>937.4</ele>
        <time>2022-07-21T16:28:37Z</time>
      </trkpt>
      <trkpt lat="47.0716600" lon="6.6705380">
        <ele>937.3</ele>
        <time>2022-07-21T16:28:38Z</time>
      </trkpt>
      <trkpt lat="47.0716410" lon="6.6705000">
        <ele>937.2</ele>
        <time>2022-07-21T16:28:39Z</time>
      </trkpt>
      <trkpt lat="47.0715980" lon="6.6704420">
        <ele>937.0</ele>
        <time>2022-07-21T16:28:40Z</time>
      </trkpt>
      <trkpt lat="47.0715490" lon="6.6703790">
        <ele>936.8</ele>
        <time>2022-07-21T16:28:41Z</time>
      </trkpt>
      <trkpt lat="47.0715120" lon="6.6703230">
        <ele>936.6</ele>
        <time>2022-07-21T16:28:42Z</time>
      </trkpt>
      <trkpt lat="47.0714860" lon="6.6702850">
        <ele>936.5</ele>
        <time>2022-07-21T16:28:43Z</time>
      </trkpt>
      <trkpt lat="47.0714420" lon="6.6702200">
        <ele>936.3</ele>
        <time>2022-07-21T16:28:44Z</time>
      </trkpt>
      <trkpt lat="47.0713960" lon="6.6701550">
        <ele>936.1</ele>
        <time>2022-07-21T16:28:45Z</time>
      </trkpt>
      <trkpt lat="47.0713550" lon="6.6700910">
        <ele>935.9</ele>
        <time>2022-07-21T16:28:46Z</time>
      </trkpt>
      <trkpt lat="47.0713170" lon="6.6700230">
        <ele>935.7</ele>
        <time>2022-07-21T16:28:47Z</time>
      </trkpt>
      <trkpt lat="47.0712800" lon="6.6699590">
        <ele>935.5</ele>
        <time>2022-07-21T16:28:48Z</time>
      </trkpt>
      <trkpt lat="47.0712390" lon="6.6698900">
        <ele>935.4</ele>
        <time>2022-07-21T16:28:49Z</time>
      </trkpt>
      <trkpt lat="47.0712020" lon="6.6698120">
        <ele>935.3</ele>
        <time>2022-07-21T16:28:50Z</time>
      </trkpt>
      <trkpt lat="47.0711750" lon="6.6697350">
        <ele>935.2</ele>
        <time>2022-07-21T16:28:51Z</time>
      </trkpt>
      <trkpt lat="47.0711490" lon="6.6696600">
        <ele>935.2</ele>
        <time>2022-07-21T16:28:52Z</time>
      </trkpt>
      <trkpt lat="47.0711250" lon="6.6695900">
        <ele>935.1</ele>
        <time>2022-07-21T16:28:53Z</time>
      </trkpt>
      <trkpt lat="47.0711050" lon="6.6695190">
        <ele>935.1</ele>
        <time>2022-07-21T16:28:54Z</time>
      </trkpt>
      <trkpt lat="47.0710830" lon="6.6694470">
        <ele>935.0</ele>
        <time>2022-07-21T16:28:55Z</time>
      </trkpt>
      <trkpt lat="47.0710560" lon="6.6693760">
        <ele>935.0</ele>
        <time>2022-07-21T16:28:56Z</time>
      </trkpt>
      <trkpt lat="47.0710340" lon="6.6693240">
        <ele>935.0</ele>
        <time>2022-07-21T16:28:57Z</time>
      </trkpt>
      <trkpt lat="47.0710370" lon="6.6692670">
        <ele>934.9</ele>
        <time>2022-07-21T16:28:58Z</time>
      </trkpt>
      <trkpt lat="47.0710500" lon="6.6691840">
        <ele>934.9</ele>
        <time>2022-07-21T16:28:59Z</time>
      </trkpt>
      <trkpt lat="47.0710570" lon="6.6691030">
        <ele>934.9</ele>
        <time>2022-07-21T16:29:00Z</time>
      </trkpt>
      <trkpt lat="47.0710610" lon="6.6690220">
        <ele>934.9</ele>
        <time>2022-07-21T16:29:01Z</time>
      </trkpt>
      <trkpt lat="47.0710610" lon="6.6689490">
        <ele>934.8</ele>
        <time>2022-07-21T16:29:02Z</time>
      </trkpt>
      <trkpt lat="47.0710590" lon="6.6688970">
        <ele>934.8</ele>
        <time>2022-07-21T16:29:03Z</time>
      </trkpt>
      <trkpt lat="47.0710560" lon="6.6688370">
        <ele>934.8</ele>
        <time>2022-07-21T16:29:04Z</time>
      </trkpt>
      <trkpt lat="47.0710630" lon="6.6687660">
        <ele>934.8</ele>
        <time>2022-07-21T16:29:05Z</time>
      </trkpt>
      <trkpt lat="47.0710760" lon="6.6686950">
        <ele>934.8</ele>
        <time>2022-07-21T16:29:06Z</time>
      </trkpt>
      <trkpt lat="47.0710820" lon="6.6686470">
        <ele>934.8</ele>
        <time>2022-07-21T16:29:07Z</time>
      </trkpt>
      <trkpt lat="47.0710960" lon="6.6685780">
        <ele>934.7</ele>
        <time>2022-07-21T16:29:08Z</time>
      </trkpt>
      <trkpt lat="47.0711150" lon="6.6684980">
        <ele>934.7</ele>
        <time>2022-07-21T16:29:09Z</time>
      </trkpt>
      <trkpt lat="47.0711290" lon="6.6684230">
        <ele>934.7</ele>
        <time>2022-07-21T16:29:10Z</time>
      </trkpt>
      <trkpt lat="47.0711340" lon="6.6683510">
        <ele>934.7</ele>
        <time>2022-07-21T16:29:11Z</time>
      </trkpt>
      <trkpt lat="47.0711360" lon="6.6683050">
        <ele>934.7</ele>
        <time>2022-07-21T16:29:12Z</time>
      </trkpt>
      <trkpt lat="47.0711370" lon="6.6682460">
        <ele>934.8</ele>
        <time>2022-07-21T16:29:13Z</time>
      </trkpt>
      <trkpt lat="47.0711330" lon="6.6682070">
        <ele>934.8</ele>
        <time>2022-07-21T16:29:14Z</time>
      </trkpt>
      <trkpt lat="47.0711270" lon="6.6681620">
        <ele>934.9</ele>
        <time>2022-07-21T16:29:15Z</time>
      </trkpt>
      <trkpt lat="47.0711130" lon="6.6681080">
        <ele>935.0</ele>
        <time>2022-07-21T16:29:16Z</time>
      </trkpt>
      <trkpt lat="47.0711080" lon="6.6680880">
        <ele>935.0</ele>
        <time>2022-07-21T16:29:17Z</time>
      </trkpt>
      <trkpt lat="47.0711010" lon="6.6680360">
        <ele>935.1</ele>
        <time>2022-07-21T16:29:18Z</time>
      </trkpt>
      <trkpt lat="47.0710900" lon="6.6679980">
        <ele>935.2</ele>
        <time>2022-07-21T16:29:19Z</time>
      </trkpt>
      <trkpt lat="47.0710820" lon="6.6679490">
        <ele>935.3</ele>
        <time>2022-07-21T16:29:20Z</time>
      </trkpt>
      <trkpt lat="47.0710750" lon="6.6678920">
        <ele>935.5</ele>
        <time>2022-07-21T16:29:21Z</time>
      </trkpt>
      <trkpt lat="47.0710710" lon="6.6678710">
        <ele>935.5</ele>
        <time>2022-07-21T16:29:22Z</time>
      </trkpt>
      <trkpt lat="47.0710550" lon="6.6678290">
        <ele>935.7</ele>
        <time>2022-07-21T16:29:23Z</time>
      </trkpt>
      <trkpt lat="47.0710420" lon="6.6677910">
        <ele>935.8</ele>
        <time>2022-07-21T16:29:24Z</time>
      </trkpt>
      <trkpt lat="47.0710200" lon="6.6677480">
        <ele>936.1</ele>
        <time>2022-07-21T16:29:25Z</time>
      </trkpt>
      <trkpt lat="47.0710120" lon="6.6677360">
        <ele>936.1</ele>
        <time>2022-07-21T16:29:26Z</time>
      </trkpt>
      <trkpt lat="47.0709950" lon="6.6677050">
        <ele>936.3</ele>
        <time>2022-07-21T16:29:27Z</time>
      </trkpt>
      <trkpt lat="47.0709780" lon="6.6676590">
        <ele>936.5</ele>
        <time>2022-07-21T16:29:28Z</time>
      </trkpt>
      <trkpt lat="47.0709750" lon="6.6676450">
        <ele>936.6</ele>
        <time>2022-07-21T16:29:29Z</time>
      </trkpt>
      <trkpt lat="47.0709640" lon="6.6676010">
        <ele>936.8</ele>
        <time>2022-07-21T16:29:30Z</time>
      </trkpt>
      <trkpt lat="47.0709600" lon="6.6675880">
        <ele>936.9</ele>
        <time>2022-07-21T16:29:31Z</time>
      </trkpt>
      <trkpt lat="47.0709420" lon="6.6675450">
        <ele>937.1</ele>
        <time>2022-07-21T16:29:32Z</time>
      </trkpt>
      <trkpt lat="47.0709340" lon="6.6675310">
        <ele>937.2</ele>
        <time>2022-07-21T16:29:33Z</time>
      </trkpt>
      <trkpt lat="47.0709180" lon="6.6674950">
        <ele>937.4</ele>
        <time>2022-07-21T16:29:34Z</time>
      </trkpt>
      <trkpt lat="47.0709020" lon="6.6674620">
        <ele>937.6</ele>
        <time>2022-07-21T16:29:35Z</time>
      </trkpt>
      <trkpt lat="47.0708880" lon="6.6674270">
        <ele>937.8</ele>
        <time>2022-07-21T16:29:36Z</time>
      </trkpt>
      <trkpt lat="47.0708660" lon="6.6673880">
        <ele>938.0</ele>
        <time>2022-07-21T16:29:37Z</time>
      </trkpt>
      <trkpt lat="47.0708600" lon="6.6673770">
        <ele>938.1</ele>
        <time>2022-07-21T16:29:38Z</time>
      </trkpt>
      <trkpt lat="47.0708400" lon="6.6673310">
        <ele>938.3</ele>
        <time>2022-07-21T16:29:39Z</time>
      </trkpt>
      <trkpt lat="47.0708340" lon="6.6673140">
        <ele>938.4</ele>
        <time>2022-07-21T16:29:40Z</time>
      </trkpt>
      <trkpt lat="47.0708180" lon="6.6672710">
        <ele>938.6</ele>
        <time>2022-07-21T16:29:41Z</time>
      </trkpt>
      <trkpt lat="47.0708130" lon="6.6672590">
        <ele>938.7</ele>
        <time>2022-07-21T16:29:42Z</time>
      </trkpt>
      <trkpt lat="47.0707980" lon="6.6672200">
        <ele>938.9</ele>
        <time>2022-07-21T16:29:43Z</time>
      </trkpt>
      <trkpt lat="47.0707930" lon="6.6672060">
        <ele>938.9</ele>
        <time>2022-07-21T16:29:44Z</time>
      </trkpt>
      <trkpt lat="47.0707740" lon="6.6671710">
        <ele>939.1</ele>
        <time>2022-07-21T16:29:45Z</time>
      </trkpt>
      <trkpt lat="47.0707670" lon="6.6671610">
        <ele>939.2</ele>
        <time>2022-07-21T16:29:46Z</time>
      </trkpt>
      <trkpt lat="47.0707420" lon="6.6671310">
        <ele>939.4</ele>
        <time>2022-07-21T16:29:47Z</time>
      </trkpt>
      <trkpt lat="47.0707330" lon="6.6671200">
        <ele>939.5</ele>
        <time>2022-07-21T16:29:48Z</time>
      </trkpt>
      <trkpt lat="47.0707100" lon="6.6670850">
        <ele>939.7</ele>
        <time>2022-07-21T16:29:49Z</time>
      </trkpt>
      <trkpt lat="47.0707010" lon="6.6670710">
        <ele>939.7</ele>
        <time>2022-07-21T16:29:50Z</time>
      </trkpt>
      <trkpt lat="47.0706780" lon="6.6670350">
        <ele>939.9</ele>
        <time>2022-07-21T16:29:51Z</time>
      </trkpt>
      <trkpt lat="47.0706690" lon="6.6670230">
        <ele>940.0</ele>
        <time>2022-07-21T16:29:52Z</time>
      </trkpt>
      <trkpt lat="47.0706540" lon="6.6669970">
        <ele>940.2</ele>
        <time>2022-07-21T16:29:53Z</time>
      </trkpt>
      <trkpt lat="47.0706500" lon="6.6669860">
        <ele>940.2</ele>
        <time>2022-07-21T16:29:54Z</time>
      </trkpt>
      <trkpt lat="47.0706450" lon="6.6669750">
        <ele>940.2</ele>
        <time>2022-07-21T16:29:55Z</time>
      </trkpt>
      <trkpt lat="47.0706340" lon="6.6669370">
        <ele>940.4</ele>
        <time>2022-07-21T16:29:56Z</time>
      </trkpt>
      <trkpt lat="47.0706230" lon="6.6668990">
        <ele>940.5</ele>
        <time>2022-07-21T16:29:57Z</time>
      </trkpt>
      <trkpt lat="47.0706100" lon="6.6668560">
        <ele>940.6</ele>
        <time>2022-07-21T16:29:58Z</time>
      </trkpt>
      <trkpt lat="47.0706030" lon="6.6668410">
        <ele>940.7</ele>
        <time>2022-07-21T16:29:59Z</time>
      </trkpt>
      <trkpt lat="47.0705940" lon="6.6668200">
        <ele>940.7</ele>
        <time>2022-07-21T16:30:00Z</time>
      </trkpt>
      <trkpt lat="47.0705840" lon="6.6668000">
        <ele>940.8</ele>
        <time>2022-07-21T16:30:01Z</time>
      </trkpt>
      <trkpt lat="47.0705560" lon="6.6667650">
        <ele>940.9</ele>
        <time>2022-07-21T16:30:02Z</time>
      </trkpt>
      <trkpt lat="47.0705470" lon="6.6667540">
        <ele>940.9</ele>
        <time>2022-07-21T16:30:03Z</time>
      </trkpt>
      <trkpt lat="47.0705130" lon="6.6667180">
        <ele>940.9</ele>
        <time>2022-07-21T16:30:04Z</time>
      </trkpt>
      <trkpt lat="47.0705000" lon="6.6667040">
        <ele>940.9</ele>
        <time>2022-07-21T16:30:05Z</time>
      </trkpt>
      <trkpt lat="47.0704740" lon="6.6666790">
        <ele>940.9</ele>
        <time>2022-07-21T16:30:06Z</time>
      </trkpt>
      <trkpt lat="47.0704470" lon="6.6666570">
        <ele>940.9</ele>
        <time>2022-07-21T16:30:07Z</time>
      </trkpt>
      <trkpt lat="47.0704160" lon="6.6666340">
        <ele>940.9</ele>
        <time>2022-07-21T16:30:08Z</time>
      </trkpt>
      <trkpt lat="47.0703770" lon="6.6665950">
        <ele>940.9</ele>
        <time>2022-07-21T16:30:09Z</time>
      </trkpt>
      <trkpt lat="47.0703410" lon="6.6665530">
        <ele>940.8</ele>
        <time>2022-07-21T16:30:10Z</time>
      </trkpt>
      <trkpt lat="47.0703030" lon="6.6665060">
        <ele>940.8</ele>
        <time>2022-07-21T16:30:11Z</time>
      </trkpt>
      <trkpt lat="47.0702700" lon="6.6664650">
        <ele>940.7</ele>
        <time>2022-07-21T16:30:12Z</time>
      </trkpt>
      <trkpt lat="47.0702440" lon="6.6664200">
        <ele>940.7</ele>
        <time>2022-07-21T16:30:13Z</time>
      </trkpt>
      <trkpt lat="47.0702140" lon="6.6663700">
        <ele>940.7</ele>
        <time>2022-07-21T16:30:14Z</time>
      </trkpt>
      <trkpt lat="47.0701870" lon="6.6663330">
        <ele>940.7</ele>
        <time>2022-07-21T16:30:15Z</time>
      </trkpt>
      <trkpt lat="47.0701610" lon="6.6663010">
        <ele>940.7</ele>
        <time>2022-07-21T16:30:16Z</time>
      </trkpt>
      <trkpt lat="47.0701060" lon="6.6662250">
        <ele>940.6</ele>
        <time>2022-07-21T16:30:17Z</time>
      </trkpt>
      <trkpt lat="47.0700590" lon="6.6661480">
        <ele>940.6</ele>
        <time>2022-07-21T16:30:19Z</time>
      </trkpt>
      <trkpt lat="47.0700300" lon="6.6660980">
        <ele>940.6</ele>
        <time>2022-07-21T16:30:20Z</time>
      </trkpt>
      <trkpt lat="47.0700030" lon="6.6660500">
        <ele>940.6</ele>
        <time>2022-07-21T16:30:21Z</time>
      </trkpt>
      <trkpt lat="47.0699790" lon="6.6660080">
        <ele>940.6</ele>
        <time>2022-07-21T16:30:22Z</time>
      </trkpt>
      <trkpt lat="47.0699540" lon="6.6659630">
        <ele>940.6</ele>
        <time>2022-07-21T16:30:23Z</time>
      </trkpt>
      <trkpt lat="47.0699290" lon="6.6659180">
        <ele>940.5</ele>
        <time>2022-07-21T16:30:24Z</time>
      </trkpt>
      <trkpt lat="47.0699080" lon="6.6658720">
        <ele>940.5</ele>
        <time>2022-07-21T16:30:25Z</time>
      </trkpt>
      <trkpt lat="47.0698860" lon="6.6658260">
        <ele>940.5</ele>
        <time>2022-07-21T16:30:26Z</time>
      </trkpt>
      <trkpt lat="47.0698640" lon="6.6657830">
        <ele>940.4</ele>
        <time>2022-07-21T16:30:27Z</time>
      </trkpt>
      <trkpt lat="47.0698450" lon="6.6657370">
        <ele>940.4</ele>
        <time>2022-07-21T16:30:28Z</time>
      </trkpt>
      <trkpt lat="47.0698100" lon="6.6656530">
        <ele>940.4</ele>
        <time>2022-07-21T16:30:30Z</time>
      </trkpt>
      <trkpt lat="47.0697850" lon="6.6655980">
        <ele>940.3</ele>
        <time>2022-07-21T16:30:31Z</time>
      </trkpt>
      <trkpt lat="47.0697550" lon="6.6655300">
        <ele>940.3</ele>
        <time>2022-07-21T16:30:32Z</time>
      </trkpt>
      <trkpt lat="47.0697340" lon="6.6654790">
        <ele>940.2</ele>
        <time>2022-07-21T16:30:33Z</time>
      </trkpt>
      <trkpt lat="47.0697140" lon="6.6654300">
        <ele>940.2</ele>
        <time>2022-07-21T16:30:34Z</time>
      </trkpt>
      <trkpt lat="47.0697020" lon="6.6653740">
        <ele>940.2</ele>
        <time>2022-07-21T16:30:35Z</time>
      </trkpt>
      <trkpt lat="47.0696660" lon="6.6653200">
        <ele>940.1</ele>
        <time>2022-07-21T16:30:36Z</time>
      </trkpt>
      <trkpt lat="47.0696350" lon="6.6652690">
        <ele>940.1</ele>
        <time>2022-07-21T16:30:37Z</time>
      </trkpt>
      <trkpt lat="47.0696170" lon="6.6652290">
        <ele>940.0</ele>
        <time>2022-07-21T16:30:38Z</time>
      </trkpt>
      <trkpt lat="47.0696050" lon="6.6651770">
        <ele>940.0</ele>
        <time>2022-07-21T16:30:39Z</time>
      </trkpt>
      <trkpt lat="47.0695540" lon="6.6651020">
        <ele>940.0</ele>
        <time>2022-07-21T16:30:41Z</time>
      </trkpt>
      <trkpt lat="47.0695290" lon="6.6650490">
        <ele>940.0</ele>
        <time>2022-07-21T16:30:42Z</time>
      </trkpt>
      <trkpt lat="47.0694880" lon="6.6649540">
        <ele>939.9</ele>
        <time>2022-07-21T16:30:44Z</time>
      </trkpt>
      <trkpt lat="47.0694520" lon="6.6648910">
        <ele>939.9</ele>
        <time>2022-07-21T16:30:45Z</time>
      </trkpt>
      <trkpt lat="47.0694220" lon="6.6648340">
        <ele>939.9</ele>
        <time>2022-07-21T16:30:46Z</time>
      </trkpt>
      <trkpt lat="47.0694010" lon="6.6647640">
        <ele>939.9</ele>
        <time>2022-07-21T16:30:48Z</time>
      </trkpt>
      <trkpt lat="47.0693700" lon="6.6646900">
        <ele>939.9</ele>
        <time>2022-07-21T16:30:49Z</time>
      </trkpt>
      <trkpt lat="47.0693400" lon="6.6646250">
        <ele>940.0</ele>
        <time>2022-07-21T16:30:50Z</time>
      </trkpt>
      <trkpt lat="47.0693090" lon="6.6645550">
        <ele>940.0</ele>
        <time>2022-07-21T16:30:52Z</time>
      </trkpt>
      <trkpt lat="47.0692910" lon="6.6645080">
        <ele>940.0</ele>
        <time>2022-07-21T16:30:53Z</time>
      </trkpt>
      <trkpt lat="47.0692640" lon="6.6644220">
        <ele>940.1</ele>
        <time>2022-07-21T16:30:55Z</time>
      </trkpt>
      <trkpt lat="47.0692520" lon="6.6643560">
        <ele>940.2</ele>
        <time>2022-07-21T16:30:56Z</time>
      </trkpt>
      <trkpt lat="47.0692530" lon="6.6643000">
        <ele>940.2</ele>
        <time>2022-07-21T16:30:57Z</time>
      </trkpt>
      <trkpt lat="47.0692640" lon="6.6642450">
        <ele>940.3</ele>
        <time>2022-07-21T16:30:58Z</time>
      </trkpt>
      <trkpt lat="47.0692750" lon="6.6641990">
        <ele>940.4</ele>
        <time>2022-07-21T16:30:59Z</time>
      </trkpt>
      <trkpt lat="47.0693150" lon="6.6641140">
        <ele>940.4</ele>
        <time>2022-07-21T16:31:01Z</time>
      </trkpt>
      <trkpt lat="47.0693440" lon="6.6640630">
        <ele>940.4</ele>
        <time>2022-07-21T16:31:02Z</time>
      </trkpt>
      <trkpt lat="47.0693740" lon="6.6640200">
        <ele>940.4</ele>
        <time>2022-07-21T16:31:03Z</time>
      </trkpt>
      <trkpt lat="47.0694450" lon="6.6639590">
        <ele>940.4</ele>
        <time>2022-07-21T16:31:04Z</time>
      </trkpt>
      <trkpt lat="47.0694830" lon="6.6639130">
        <ele>940.3</ele>
        <time>2022-07-21T16:31:05Z</time>
      </trkpt>
      <trkpt lat="47.0694980" lon="6.6638830">
        <ele>940.3</ele>
        <time>2022-07-21T16:31:06Z</time>
      </trkpt>
      <trkpt lat="47.0694960" lon="6.6638680">
        <ele>940.3</ele>
        <time>2022-07-21T16:31:07Z</time>
      </trkpt>
      <trkpt lat="47.0695270" lon="6.6638080">
        <ele>940.2</ele>
        <time>2022-07-21T16:31:09Z</time>
      </trkpt>
      <trkpt lat="47.0695610" lon="6.6637460">
        <ele>940.0</ele>
        <time>2022-07-21T16:31:10Z</time>
      </trkpt>
      <trkpt lat="47.0695870" lon="6.6637060">
        <ele>939.9</ele>
        <time>2022-07-21T16:31:11Z</time>
      </trkpt>
      <trkpt lat="47.0696190" lon="6.6636670">
        <ele>939.7</ele>
        <time>2022-07-21T16:31:12Z</time>
      </trkpt>
      <trkpt lat="47.0696590" lon="6.6636230">
        <ele>939.5</ele>
        <time>2022-07-21T16:31:13Z</time>
      </trkpt>
      <trkpt lat="47.0696990" lon="6.6635770">
        <ele>939.1</ele>
        <time>2022-07-21T16:31:14Z</time>
      </trkpt>
      <trkpt lat="47.0697470" lon="6.6635280">
        <ele>938.7</ele>
        <time>2022-07-21T16:31:15Z</time>
      </trkpt>
      <trkpt lat="47.0698000" lon="6.6634780">
        <ele>938.3</ele>
        <time>2022-07-21T16:31:16Z</time>
      </trkpt>
      <trkpt lat="47.0698560" lon="6.6634260">
        <ele>937.9</ele>
        <time>2022-07-21T16:31:17Z</time>
      </trkpt>
      <trkpt lat="47.0699120" lon="6.6633660">
        <ele>937.5</ele>
        <time>2022-07-21T16:31:18Z</time>
      </trkpt>
      <trkpt lat="47.0699630" lon="6.6633080">
        <ele>937.1</ele>
        <time>2022-07-21T16:31:19Z</time>
      </trkpt>
      <trkpt lat="47.0699930" lon="6.6632330">
        <ele>936.8</ele>
        <time>2022-07-21T16:31:20Z</time>
      </trkpt>
      <trkpt lat="47.0700090" lon="6.6631410">
        <ele>936.6</ele>
        <time>2022-07-21T16:31:21Z</time>
      </trkpt>
      <trkpt lat="47.0700030" lon="6.6630550">
        <ele>936.5</ele>
        <time>2022-07-21T16:31:22Z</time>
      </trkpt>
      <trkpt lat="47.0699910" lon="6.6629790">
        <ele>936.4</ele>
        <time>2022-07-21T16:31:23Z</time>
      </trkpt>
      <trkpt lat="47.0699840" lon="6.6629140">
        <ele>936.3</ele>
        <time>2022-07-21T16:31:24Z</time>
      </trkpt>
      <trkpt lat="47.0699650" lon="6.6628730">
        <ele>936.2</ele>
        <time>2022-07-21T16:31:25Z</time>
      </trkpt>
      <trkpt lat="47.0699400" lon="6.6628230">
        <ele>936.1</ele>
        <time>2022-07-21T16:31:26Z</time>
      </trkpt>
      <trkpt lat="47.0699210" lon="6.6627730">
        <ele>936.0</ele>
        <time>2022-07-21T16:31:27Z</time>
      </trkpt>
      <trkpt lat="47.0698900" lon="6.6627070">
        <ele>935.8</ele>
        <time>2022-07-21T16:31:28Z</time>
      </trkpt>
      <trkpt lat="47.0698440" lon="6.6626570">
        <ele>935.7</ele>
        <time>2022-07-21T16:31:29Z</time>
      </trkpt>
      <trkpt lat="47.0697950" lon="6.6626170">
        <ele>935.6</ele>
        <time>2022-07-21T16:31:30Z</time>
      </trkpt>
      <trkpt lat="47.0697490" lon="6.6625780">
        <ele>935.5</ele>
        <time>2022-07-21T16:31:31Z</time>
      </trkpt>
      <trkpt lat="47.0697040" lon="6.6625390">
        <ele>935.5</ele>
        <time>2022-07-21T16:31:32Z</time>
      </trkpt>
      <trkpt lat="47.0696610" lon="6.6625020">
        <ele>935.5</ele>
        <time>2022-07-21T16:31:33Z</time>
      </trkpt>
      <trkpt lat="47.0696250" lon="6.6624610">
        <ele>935.5</ele>
        <time>2022-07-21T16:31:34Z</time>
      </trkpt>
      <trkpt lat="47.0695870" lon="6.6624110">
        <ele>935.5</ele>
        <time>2022-07-21T16:31:35Z</time>
      </trkpt>
      <trkpt lat="47.0695490" lon="6.6623700">
        <ele>935.5</ele>
        <time>2022-07-21T16:31:36Z</time>
      </trkpt>
      <trkpt lat="47.0695250" lon="6.6623260">
        <ele>935.4</ele>
        <time>2022-07-21T16:31:37Z</time>
      </trkpt>
      <trkpt lat="47.0694920" lon="6.6622300">
        <ele>935.4</ele>
        <time>2022-07-21T16:31:38Z</time>
      </trkpt>
      <trkpt lat="47.0694980" lon="6.6621880">
        <ele>935.4</ele>
        <time>2022-07-21T16:31:39Z</time>
      </trkpt>
      <trkpt lat="47.0694700" lon="6.6621550">
        <ele>935.3</ele>
        <time>2022-07-21T16:31:41Z</time>
      </trkpt>
      <trkpt lat="47.0694400" lon="6.6621200">
        <ele>935.3</ele>
        <time>2022-07-21T16:31:42Z</time>
      </trkpt>
      <trkpt lat="47.0694130" lon="6.6620840">
        <ele>935.2</ele>
        <time>2022-07-21T16:31:43Z</time>
      </trkpt>
      <trkpt lat="47.0693820" lon="6.6620320">
        <ele>935.1</ele>
        <time>2022-07-21T16:31:44Z</time>
      </trkpt>
      <trkpt lat="47.0693670" lon="6.6619890">
        <ele>935.1</ele>
        <time>2022-07-21T16:31:45Z</time>
      </trkpt>
      <trkpt lat="47.0693150" lon="6.6618820">
        <ele>935.0</ele>
        <time>2022-07-21T16:31:47Z</time>
      </trkpt>
      <trkpt lat="47.0692990" lon="6.6618410">
        <ele>935.0</ele>
        <time>2022-07-21T16:31:48Z</time>
      </trkpt>
      <trkpt lat="47.0692850" lon="6.6617760">
        <ele>935.0</ele>
        <time>2022-07-21T16:31:49Z</time>
      </trkpt>
      <trkpt lat="47.0692540" lon="6.6617050">
        <ele>935.0</ele>
        <time>2022-07-21T16:31:50Z</time>
      </trkpt>
      <trkpt lat="47.0692230" lon="6.6616440">
        <ele>935.1</ele>
        <time>2022-07-21T16:31:52Z</time>
      </trkpt>
      <trkpt lat="47.0691950" lon="6.6615930">
        <ele>935.1</ele>
        <time>2022-07-21T16:31:53Z</time>
      </trkpt>
      <trkpt lat="47.0691620" lon="6.6615400">
        <ele>935.2</ele>
        <time>2022-07-21T16:31:54Z</time>
      </trkpt>
      <trkpt lat="47.0691350" lon="6.6614910">
        <ele>935.3</ele>
        <time>2022-07-21T16:31:56Z</time>
      </trkpt>
      <trkpt lat="47.0691110" lon="6.6614430">
        <ele>935.4</ele>
        <time>2022-07-21T16:31:57Z</time>
      </trkpt>
      <trkpt lat="47.0690810" lon="6.6613950">
        <ele>935.5</ele>
        <time>2022-07-21T16:31:58Z</time>
      </trkpt>
      <trkpt lat="47.0690540" lon="6.6613520">
        <ele>935.6</ele>
        <time>2022-07-21T16:31:59Z</time>
      </trkpt>
      <trkpt lat="47.0690220" lon="6.6612740">
        <ele>935.7</ele>
        <time>2022-07-21T16:32:01Z</time>
      </trkpt>
      <trkpt lat="47.0690100" lon="6.6612330">
        <ele>935.8</ele>
        <time>2022-07-21T16:32:02Z</time>
      </trkpt>
      <trkpt lat="47.0689890" lon="6.6611850">
        <ele>936.0</ele>
        <time>2022-07-21T16:32:03Z</time>
      </trkpt>
      <trkpt lat="47.0689800" lon="6.6611680">
        <ele>936.0</ele>
        <time>2022-07-21T16:32:04Z</time>
      </trkpt>
      <trkpt lat="47.0689530" lon="6.6611140">
        <ele>936.2</ele>
        <time>2022-07-21T16:32:05Z</time>
      </trkpt>
      <trkpt lat="47.0689280" lon="6.6610540">
        <ele>936.5</ele>
        <time>2022-07-21T16:32:07Z</time>
      </trkpt>
      <trkpt lat="47.0689130" lon="6.6610170">
        <ele>936.6</ele>
        <time>2022-07-21T16:32:08Z</time>
      </trkpt>
      <trkpt lat="47.0688970" lon="6.6609790">
        <ele>936.8</ele>
        <time>2022-07-21T16:32:09Z</time>
      </trkpt>
      <trkpt lat="47.0688910" lon="6.6609650">
        <ele>936.8</ele>
        <time>2022-07-21T16:32:10Z</time>
      </trkpt>
      <trkpt lat="47.0688800" lon="6.6609350">
        <ele>937.0</ele>
        <time>2022-07-21T16:32:11Z</time>
      </trkpt>
      <trkpt lat="47.0688480" lon="6.6608800">
        <ele>937.3</ele>
        <time>2022-07-21T16:32:13Z</time>
      </trkpt>
      <trkpt lat="47.0688320" lon="6.6608410">
        <ele>937.5</ele>
        <time>2022-07-21T16:32:14Z</time>
      </trkpt>
      <trkpt lat="47.0688220" lon="6.6608040">
        <ele>937.7</ele>
        <time>2022-07-21T16:32:15Z</time>
      </trkpt>
      <trkpt lat="47.0688070" lon="6.6607650">
        <ele>937.9</ele>
        <time>2022-07-21T16:32:16Z</time>
      </trkpt>
      <trkpt lat="47.0687840" lon="6.6607200">
        <ele>938.2</ele>
        <time>2022-07-21T16:32:17Z</time>
      </trkpt>
      <trkpt lat="47.0687760" lon="6.6607050">
        <ele>938.3</ele>
        <time>2022-07-21T16:32:18Z</time>
      </trkpt>
      <trkpt lat="47.0687590" lon="6.6606590">
        <ele>938.6</ele>
        <time>2022-07-21T16:32:19Z</time>
      </trkpt>
      <trkpt lat="47.0687550" lon="6.6606440">
        <ele>938.7</ele>
        <time>2022-07-21T16:32:20Z</time>
      </trkpt>
      <trkpt lat="47.0687460" lon="6.6606200">
        <ele>938.9</ele>
        <time>2022-07-21T16:32:21Z</time>
      </trkpt>
      <trkpt lat="47.0687390" lon="6.6605990">
        <ele>939.0</ele>
        <time>2022-07-21T16:32:22Z</time>
      </trkpt>
      <trkpt lat="47.0687240" lon="6.6605640">
        <ele>939.3</ele>
        <time>2022-07-21T16:32:23Z</time>
      </trkpt>
      <trkpt lat="47.0687190" lon="6.6605540">
        <ele>939.4</ele>
        <time>2022-07-21T16:32:24Z</time>
      </trkpt>
      <trkpt lat="47.0687080" lon="6.6605320">
        <ele>939.6</ele>
        <time>2022-07-21T16:32:25Z</time>
      </trkpt>
      <trkpt lat="47.0686980" lon="6.6605120">
        <ele>939.7</ele>
        <time>2022-07-21T16:32:26Z</time>
      </trkpt>
      <trkpt lat="47.0686890" lon="6.6604960">
        <ele>939.9</ele>
        <time>2022-07-21T16:32:27Z</time>
      </trkpt>
      <trkpt lat="47.0686790" lon="6.6604810">
        <ele>940.0</ele>
        <time>2022-07-21T16:32:28Z</time>
      </trkpt>
      <trkpt lat="47.0686680" lon="6.6604640">
        <ele>940.2</ele>
        <time>2022-07-21T16:32:29Z</time>
      </trkpt>
      <trkpt lat="47.0686580" lon="6.6604460">
        <ele>940.3</ele>
        <time>2022-07-21T16:32:30Z</time>
      </trkpt>
      <trkpt lat="47.0686410" lon="6.6604250">
        <ele>940.6</ele>
        <time>2022-07-21T16:32:31Z</time>
      </trkpt>
      <trkpt lat="47.0686350" lon="6.6604170">
        <ele>940.7</ele>
        <time>2022-07-21T16:32:32Z</time>
      </trkpt>
      <trkpt lat="47.0686290" lon="6.6604090">
        <ele>940.8</ele>
        <time>2022-07-21T16:32:33Z</time>
      </trkpt>
      <trkpt lat="47.0686220" lon="6.6603960">
        <ele>940.9</ele>
        <time>2022-07-21T16:32:34Z</time>
      </trkpt>
      <trkpt lat="47.0686150" lon="6.6603800">
        <ele>941.0</ele>
        <time>2022-07-21T16:32:35Z</time>
      </trkpt>
      <trkpt lat="47.0686100" lon="6.6603680">
        <ele>941.1</ele>
        <time>2022-07-21T16:32:36Z</time>
      </trkpt>
      <trkpt lat="47.0686010" lon="6.6603440">
        <ele>941.3</ele>
        <time>2022-07-21T16:32:38Z</time>
      </trkpt>
      <trkpt lat="47.0685950" lon="6.6603270">
        <ele>941.5</ele>
        <time>2022-07-21T16:32:39Z</time>
      </trkpt>
      <trkpt lat="47.0685850" lon="6.6603070">
        <ele>941.7</ele>
        <time>2022-07-21T16:32:40Z</time>
      </trkpt>
      <trkpt lat="47.0685810" lon="6.6602970">
        <ele>941.8</ele>
        <time>2022-07-21T16:32:41Z</time>
      </trkpt>
      <trkpt lat="47.0685770" lon="6.6602880">
        <ele>941.8</ele>
        <time>2022-07-21T16:32:42Z</time>
      </trkpt>
      <trkpt lat="47.0685730" lon="6.6602780">
        <ele>941.9</ele>
        <time>2022-07-21T16:32:43Z</time>
      </trkpt>
      <trkpt lat="47.0685670" lon="6.6602600">
        <ele>942.1</ele>
        <time>2022-07-21T16:32:44Z</time>
      </trkpt>
      <trkpt lat="47.0685600" lon="6.6602430">
        <ele>942.2</ele>
        <time>2022-07-21T16:32:45Z</time>
      </trkpt>
      <trkpt lat="47.0685480" lon="6.6602150">
        <ele>942.5</ele>
        <time>2022-07-21T16:32:46Z</time>
      </trkpt>
      <trkpt lat="47.0685430" lon="6.6602040">
        <ele>942.6</ele>
        <time>2022-07-21T16:32:47Z</time>
      </trkpt>
      <trkpt lat="47.0685380" lon="6.6601940">
        <ele>942.7</ele>
        <time>2022-07-21T16:32:48Z</time>
      </trkpt>
      <trkpt lat="47.0685300" lon="6.6601780">
        <ele>942.8</ele>
        <time>2022-07-21T16:32:49Z</time>
      </trkpt>
      <trkpt lat="47.0685130" lon="6.6601500">
        <ele>943.1</ele>
        <time>2022-07-21T16:32:51Z</time>
      </trkpt>
      <trkpt lat="47.0685050" lon="6.6601390">
        <ele>943.3</ele>
        <time>2022-07-21T16:32:52Z</time>
      </trkpt>
      <trkpt lat="47.0684990" lon="6.6601260">
        <ele>943.4</ele>
        <time>2022-07-21T16:32:53Z</time>
      </trkpt>
      <trkpt lat="47.0684920" lon="6.6601080">
        <ele>943.5</ele>
        <time>2022-07-21T16:32:54Z</time>
      </trkpt>
      <trkpt lat="47.0684840" lon="6.6600910">
        <ele>943.7</ele>
        <time>2022-07-21T16:32:55Z</time>
      </trkpt>
      <trkpt lat="47.0684800" lon="6.6600730">
        <ele>943.8</ele>
        <time>2022-07-21T16:32:56Z</time>
      </trkpt>
      <trkpt lat="47.0684790" lon="6.6600470">
        <ele>944.0</ele>
        <time>2022-07-21T16:32:57Z</time>
      </trkpt>
      <trkpt lat="47.0684730" lon="6.6600260">
        <ele>944.2</ele>
        <time>2022-07-21T16:32:58Z</time>
      </trkpt>
      <trkpt lat="47.0684650" lon="6.6600040">
        <ele>944.4</ele>
        <time>2022-07-21T16:32:59Z</time>
      </trkpt>
      <trkpt lat="47.0684560" lon="6.6599850">
        <ele>944.5</ele>
        <time>2022-07-21T16:33:00Z</time>
      </trkpt>
      <trkpt lat="47.0684480" lon="6.6599640">
        <ele>944.7</ele>
        <time>2022-07-21T16:33:01Z</time>
      </trkpt>
      <trkpt lat="47.0684420" lon="6.6599420">
        <ele>944.8</ele>
        <time>2022-07-21T16:33:02Z</time>
      </trkpt>
      <trkpt lat="47.0684380" lon="6.6599220">
        <ele>945.0</ele>
        <time>2022-07-21T16:33:03Z</time>
      </trkpt>
      <trkpt lat="47.0684340" lon="6.6599030">
        <ele>945.1</ele>
        <time>2022-07-21T16:33:04Z</time>
      </trkpt>
      <trkpt lat="47.0684300" lon="6.6598830">
        <ele>945.2</ele>
        <time>2022-07-21T16:33:05Z</time>
      </trkpt>
      <trkpt lat="47.0684270" lon="6.6598610">
        <ele>945.4</ele>
        <time>2022-07-21T16:33:06Z</time>
      </trkpt>
      <trkpt lat="47.0684260" lon="6.6598410">
        <ele>945.5</ele>
        <time>2022-07-21T16:33:07Z</time>
      </trkpt>
      <trkpt lat="47.0684240" lon="6.6598190">
        <ele>945.6</ele>
        <time>2022-07-21T16:33:08Z</time>
      </trkpt>
      <trkpt lat="47.0684210" lon="6.6597970">
        <ele>945.7</ele>
        <time>2022-07-21T16:33:09Z</time>
      </trkpt>
      <trkpt lat="47.0684180" lon="6.6597740">
        <ele>945.8</ele>
        <time>2022-07-21T16:33:10Z</time>
      </trkpt>
      <trkpt lat="47.0684170" lon="6.6597520">
        <ele>946.0</ele>
        <time>2022-07-21T16:33:11Z</time>
      </trkpt>
      <trkpt lat="47.0684160" lon="6.6597310">
        <ele>946.1</ele>
        <time>2022-07-21T16:33:12Z</time>
      </trkpt>
      <trkpt lat="47.0684130" lon="6.6597100">
        <ele>946.2</ele>
        <time>2022-07-21T16:33:13Z</time>
      </trkpt>
      <trkpt lat="47.0684100" lon="6.6596870">
        <ele>946.3</ele>
        <time>2022-07-21T16:33:14Z</time>
      </trkpt>
      <trkpt lat="47.0684090" lon="6.6596630">
        <ele>946.4</ele>
        <time>2022-07-21T16:33:15Z</time>
      </trkpt>
      <trkpt lat="47.0684070" lon="6.6596390">
        <ele>946.6</ele>
        <time>2022-07-21T16:33:16Z</time>
      </trkpt>
      <trkpt lat="47.0684050" lon="6.6596130">
        <ele>946.7</ele>
        <time>2022-07-21T16:33:17Z</time>
      </trkpt>
      <trkpt lat="47.0684050" lon="6.6595870">
        <ele>946.8</ele>
        <time>2022-07-21T16:33:18Z</time>
      </trkpt>
      <trkpt lat="47.0684040" lon="6.6595640">
        <ele>946.9</ele>
        <time>2022-07-21T16:33:19Z</time>
      </trkpt>
      <trkpt lat="47.0684010" lon="6.6595380">
        <ele>947.1</ele>
        <time>2022-07-21T16:33:20Z</time>
      </trkpt>
      <trkpt lat="47.0683980" lon="6.6595130">
        <ele>947.2</ele>
        <time>2022-07-21T16:33:21Z</time>
      </trkpt>
      <trkpt lat="47.0683950" lon="6.6594910">
        <ele>947.3</ele>
        <time>2022-07-21T16:33:22Z</time>
      </trkpt>
      <trkpt lat="47.0683920" lon="6.6594700">
        <ele>947.4</ele>
        <time>2022-07-21T16:33:23Z</time>
      </trkpt>
      <trkpt lat="47.0683900" lon="6.6594480">
        <ele>947.5</ele>
        <time>2022-07-21T16:33:24Z</time>
      </trkpt>
      <trkpt lat="47.0683880" lon="6.6594250">
        <ele>947.6</ele>
        <time>2022-07-21T16:33:25Z</time>
      </trkpt>
      <trkpt lat="47.0683870" lon="6.6594010">
        <ele>947.7</ele>
        <time>2022-07-21T16:33:26Z</time>
      </trkpt>
      <trkpt lat="47.0683860" lon="6.6593770">
        <ele>947.9</ele>
        <time>2022-07-21T16:33:27Z</time>
      </trkpt>
      <trkpt lat="47.0683850" lon="6.6593540">
        <ele>948.0</ele>
        <time>2022-07-21T16:33:28Z</time>
      </trkpt>
      <trkpt lat="47.0683850" lon="6.6593300">
        <ele>948.1</ele>
        <time>2022-07-21T16:33:29Z</time>
      </trkpt>
      <trkpt lat="47.0683840" lon="6.6593060">
        <ele>948.2</ele>
        <time>2022-07-21T16:33:30Z</time>
      </trkpt>
      <trkpt lat="47.0683820" lon="6.6592830">
        <ele>948.4</ele>
        <time>2022-07-21T16:33:31Z</time>
      </trkpt>
      <trkpt lat="47.0683800" lon="6.6592650">
        <ele>948.5</ele>
        <time>2022-07-21T16:33:32Z</time>
      </trkpt>
      <trkpt lat="47.0683760" lon="6.6592430">
        <ele>948.6</ele>
        <time>2022-07-21T16:33:33Z</time>
      </trkpt>
      <trkpt lat="47.0683700" lon="6.6592190">
        <ele>948.7</ele>
        <time>2022-07-21T16:33:34Z</time>
      </trkpt>
      <trkpt lat="47.0683650" lon="6.6592010">
        <ele>948.9</ele>
        <time>2022-07-21T16:33:35Z</time>
      </trkpt>
      <trkpt lat="47.0683600" lon="6.6591760">
        <ele>949.0</ele>
        <time>2022-07-21T16:33:36Z</time>
      </trkpt>
      <trkpt lat="47.0683540" lon="6.6591500">
        <ele>949.2</ele>
        <time>2022-07-21T16:33:37Z</time>
      </trkpt>
      <trkpt lat="47.0683500" lon="6.6591320">
        <ele>949.3</ele>
        <time>2022-07-21T16:33:38Z</time>
      </trkpt>
      <trkpt lat="47.0683460" lon="6.6591090">
        <ele>949.4</ele>
        <time>2022-07-21T16:33:39Z</time>
      </trkpt>
      <trkpt lat="47.0683390" lon="6.6590860">
        <ele>949.6</ele>
        <time>2022-07-21T16:33:40Z</time>
      </trkpt>
      <trkpt lat="47.0683310" lon="6.6590650">
        <ele>949.7</ele>
        <time>2022-07-21T16:33:41Z</time>
      </trkpt>
      <trkpt lat="47.0683210" lon="6.6590450">
        <ele>949.9</ele>
        <time>2022-07-21T16:33:42Z</time>
      </trkpt>
      <trkpt lat="47.0683120" lon="6.6590220">
        <ele>950.0</ele>
        <time>2022-07-21T16:33:43Z</time>
      </trkpt>
      <trkpt lat="47.0683040" lon="6.6590000">
        <ele>950.2</ele>
        <time>2022-07-21T16:33:44Z</time>
      </trkpt>
      <trkpt lat="47.0682990" lon="6.6589750">
        <ele>950.3</ele>
        <time>2022-07-21T16:33:45Z</time>
      </trkpt>
      <trkpt lat="47.0682970" lon="6.6589500">
        <ele>950.5</ele>
        <time>2022-07-21T16:33:46Z</time>
      </trkpt>
      <trkpt lat="47.0682990" lon="6.6589270">
        <ele>950.6</ele>
        <time>2022-07-21T16:33:47Z</time>
      </trkpt>
      <trkpt lat="47.0682990" lon="6.6589060">
        <ele>950.7</ele>
        <time>2022-07-21T16:33:48Z</time>
      </trkpt>
      <trkpt lat="47.0682980" lon="6.6588830">
        <ele>950.9</ele>
        <time>2022-07-21T16:33:49Z</time>
      </trkpt>
      <trkpt lat="47.0682950" lon="6.6588560">
        <ele>951.0</ele>
        <time>2022-07-21T16:33:50Z</time>
      </trkpt>
      <trkpt lat="47.0682920" lon="6.6588360">
        <ele>951.2</ele>
        <time>2022-07-21T16:33:51Z</time>
      </trkpt>
      <trkpt lat="47.0682870" lon="6.6588140">
        <ele>951.3</ele>
        <time>2022-07-21T16:33:52Z</time>
      </trkpt>
      <trkpt lat="47.0682810" lon="6.6587890">
        <ele>951.5</ele>
        <time>2022-07-21T16:33:53Z</time>
      </trkpt>
      <trkpt lat="47.0682750" lon="6.6587650">
        <ele>951.6</ele>
        <time>2022-07-21T16:33:54Z</time>
      </trkpt>
      <trkpt lat="47.0682620" lon="6.6587300">
        <ele>951.8</ele>
        <time>2022-07-21T16:33:55Z</time>
      </trkpt>
      <trkpt lat="47.0682570" lon="6.6587180">
        <ele>951.9</ele>
        <time>2022-07-21T16:33:56Z</time>
      </trkpt>
      <trkpt lat="47.0682470" lon="6.6586970">
        <ele>952.1</ele>
        <time>2022-07-21T16:33:57Z</time>
      </trkpt>
      <trkpt lat="47.0682400" lon="6.6586780">
        <ele>952.2</ele>
        <time>2022-07-21T16:33:58Z</time>
      </trkpt>
      <trkpt lat="47.0682330" lon="6.6586550">
        <ele>952.3</ele>
        <time>2022-07-21T16:33:59Z</time>
      </trkpt>
      <trkpt lat="47.0682290" lon="6.6586310">
        <ele>952.4</ele>
        <time>2022-07-21T16:34:00Z</time>
      </trkpt>
      <trkpt lat="47.0682200" lon="6.6585930">
        <ele>952.6</ele>
        <time>2022-07-21T16:34:01Z</time>
      </trkpt>
      <trkpt lat="47.0682160" lon="6.6585800">
        <ele>952.7</ele>
        <time>2022-07-21T16:34:02Z</time>
      </trkpt>
      <trkpt lat="47.0682070" lon="6.6585540">
        <ele>952.8</ele>
        <time>2022-07-21T16:34:03Z</time>
      </trkpt>
      <trkpt lat="47.0682000" lon="6.6585330">
        <ele>952.9</ele>
        <time>2022-07-21T16:34:04Z</time>
      </trkpt>
      <trkpt lat="47.0681950" lon="6.6585090">
        <ele>953.0</ele>
        <time>2022-07-21T16:34:05Z</time>
      </trkpt>
      <trkpt lat="47.0681910" lon="6.6584840">
        <ele>953.1</ele>
        <time>2022-07-21T16:34:06Z</time>
      </trkpt>
      <trkpt lat="47.0681830" lon="6.6584440">
        <ele>953.2</ele>
        <time>2022-07-21T16:34:07Z</time>
      </trkpt>
      <trkpt lat="47.0681800" lon="6.6584320">
        <ele>953.3</ele>
        <time>2022-07-21T16:34:08Z</time>
      </trkpt>
      <trkpt lat="47.0681680" lon="6.6583920">
        <ele>953.4</ele>
        <time>2022-07-21T16:34:09Z</time>
      </trkpt>
      <trkpt lat="47.0681640" lon="6.6583790">
        <ele>953.5</ele>
        <time>2022-07-21T16:34:10Z</time>
      </trkpt>
      <trkpt lat="47.0681540" lon="6.6583410">
        <ele>953.6</ele>
        <time>2022-07-21T16:34:11Z</time>
      </trkpt>
      <trkpt lat="47.0681510" lon="6.6583280">
        <ele>953.7</ele>
        <time>2022-07-21T16:34:12Z</time>
      </trkpt>
      <trkpt lat="47.0681440" lon="6.6582870">
        <ele>953.8</ele>
        <time>2022-07-21T16:34:13Z</time>
      </trkpt>
      <trkpt lat="47.0681400" lon="6.6582740">
        <ele>953.8</ele>
        <time>2022-07-21T16:34:14Z</time>
      </trkpt>
      <trkpt lat="47.0681220" lon="6.6582320">
        <ele>954.0</ele>
        <time>2022-07-21T16:34:15Z</time>
      </trkpt>
      <trkpt lat="47.0681150" lon="6.6582170">
        <ele>954.0</ele>
        <time>2022-07-21T16:34:16Z</time>
      </trkpt>
      <trkpt lat="47.0681000" lon="6.6581730">
        <ele>954.1</ele>
        <time>2022-07-21T16:34:17Z</time>
      </trkpt>
      <trkpt lat="47.0680960" lon="6.6581590">
        <ele>954.2</ele>
        <time>2022-07-21T16:34:18Z</time>
      </trkpt>
      <trkpt lat="47.0680920" lon="6.6581150">
        <ele>954.3</ele>
        <time>2022-07-21T16:34:19Z</time>
      </trkpt>
      <trkpt lat="47.0680920" lon="6.6581020">
        <ele>954.3</ele>
        <time>2022-07-21T16:34:20Z</time>
      </trkpt>
      <trkpt lat="47.0680890" lon="6.6580790">
        <ele>954.4</ele>
        <time>2022-07-21T16:34:21Z</time>
      </trkpt>
      <trkpt lat="47.0680860" lon="6.6580540">
        <ele>954.5</ele>
        <time>2022-07-21T16:34:22Z</time>
      </trkpt>
      <trkpt lat="47.0680800" lon="6.6580080">
        <ele>954.6</ele>
        <time>2022-07-21T16:34:23Z</time>
      </trkpt>
      <trkpt lat="47.0680780" lon="6.6579930">
        <ele>954.6</ele>
        <time>2022-07-21T16:34:24Z</time>
      </trkpt>
      <trkpt lat="47.0680730" lon="6.6579510">
        <ele>954.7</ele>
        <time>2022-07-21T16:34:25Z</time>
      </trkpt>
      <trkpt lat="47.0680720" lon="6.6579390">
        <ele>954.8</ele>
        <time>2022-07-21T16:34:26Z</time>
      </trkpt>
      <trkpt lat="47.0680670" lon="6.6578960">
        <ele>954.9</ele>
        <time>2022-07-21T16:34:27Z</time>
      </trkpt>
      <trkpt lat="47.0680650" lon="6.6578800">
        <ele>954.9</ele>
        <time>2022-07-21T16:34:28Z</time>
      </trkpt>
      <trkpt lat="47.0680630" lon="6.6578370">
        <ele>955.0</ele>
        <time>2022-07-21T16:34:29Z</time>
      </trkpt>
      <trkpt lat="47.0680620" lon="6.6578240">
        <ele>955.1</ele>
        <time>2022-07-21T16:34:30Z</time>
      </trkpt>
      <trkpt lat="47.0680570" lon="6.6577840">
        <ele>955.1</ele>
        <time>2022-07-21T16:34:31Z</time>
      </trkpt>
      <trkpt lat="47.0680540" lon="6.6577720">
        <ele>955.2</ele>
        <time>2022-07-21T16:34:32Z</time>
      </trkpt>
      <trkpt lat="47.0680490" lon="6.6577480">
        <ele>955.2</ele>
        <time>2022-07-21T16:34:33Z</time>
      </trkpt>
      <trkpt lat="47.0680440" lon="6.6577270">
        <ele>955.3</ele>
        <time>2022-07-21T16:34:34Z</time>
      </trkpt>
      <trkpt lat="47.0680350" lon="6.6576850">
        <ele>955.4</ele>
        <time>2022-07-21T16:34:35Z</time>
      </trkpt>
      <trkpt lat="47.0680310" lon="6.6576710">
        <ele>955.4</ele>
        <time>2022-07-21T16:34:36Z</time>
      </trkpt>
      <trkpt lat="47.0680220" lon="6.6576180">
        <ele>955.5</ele>
        <time>2022-07-21T16:34:37Z</time>
      </trkpt>
      <trkpt lat="47.0680190" lon="6.6576010">
        <ele>955.5</ele>
        <time>2022-07-21T16:34:38Z</time>
      </trkpt>
      <trkpt lat="47.0680180" lon="6.6575590">
        <ele>955.6</ele>
        <time>2022-07-21T16:34:39Z</time>
      </trkpt>
      <trkpt lat="47.0680190" lon="6.6575450">
        <ele>955.6</ele>
        <time>2022-07-21T16:34:40Z</time>
      </trkpt>
      <trkpt lat="47.0680250" lon="6.6574950">
        <ele>955.6</ele>
        <time>2022-07-21T16:34:41Z</time>
      </trkpt>
      <trkpt lat="47.0680270" lon="6.6574770">
        <ele>955.6</ele>
        <time>2022-07-21T16:34:42Z</time>
      </trkpt>
      <trkpt lat="47.0680360" lon="6.6574280">
        <ele>955.6</ele>
        <time>2022-07-21T16:34:43Z</time>
      </trkpt>
      <trkpt lat="47.0680400" lon="6.6574080">
        <ele>955.6</ele>
        <time>2022-07-21T16:34:44Z</time>
      </trkpt>
      <trkpt lat="47.0680550" lon="6.6573460">
        <ele>955.6</ele>
        <time>2022-07-21T16:34:45Z</time>
      </trkpt>
      <trkpt lat="47.0680610" lon="6.6573190">
        <ele>955.6</ele>
        <time>2022-07-21T16:34:46Z</time>
      </trkpt>
      <trkpt lat="47.0680730" lon="6.6572690">
        <ele>955.5</ele>
        <time>2022-07-21T16:34:47Z</time>
      </trkpt>
      <trkpt lat="47.0680800" lon="6.6572210">
        <ele>955.4</ele>
        <time>2022-07-21T16:34:48Z</time>
      </trkpt>
      <trkpt lat="47.0680860" lon="6.6571680">
        <ele>955.3</ele>
        <time>2022-07-21T16:34:49Z</time>
      </trkpt>
      <trkpt lat="47.0680910" lon="6.6571090">
        <ele>955.2</ele>
        <time>2022-07-21T16:34:50Z</time>
      </trkpt>
      <trkpt lat="47.0680940" lon="6.6570470">
        <ele>955.1</ele>
        <time>2022-07-21T16:34:51Z</time>
      </trkpt>
      <trkpt lat="47.0680960" lon="6.6569960">
        <ele>955.0</ele>
        <time>2022-07-21T16:34:52Z</time>
      </trkpt>
      <trkpt lat="47.0680990" lon="6.6569310">
        <ele>954.8</ele>
        <time>2022-07-21T16:34:53Z</time>
      </trkpt>
      <trkpt lat="47.0681010" lon="6.6568700">
        <ele>954.7</ele>
        <time>2022-07-21T16:34:54Z</time>
      </trkpt>
      <trkpt lat="47.0681010" lon="6.6568100">
        <ele>954.6</ele>
        <time>2022-07-21T16:34:55Z</time>
      </trkpt>
      <trkpt lat="47.0681010" lon="6.6567460">
        <ele>954.5</ele>
        <time>2022-07-21T16:34:56Z</time>
      </trkpt>
      <trkpt lat="47.0681000" lon="6.6566890">
        <ele>954.4</ele>
        <time>2022-07-21T16:34:57Z</time>
      </trkpt>
      <trkpt lat="47.0680970" lon="6.6566310">
        <ele>954.3</ele>
        <time>2022-07-21T16:34:58Z</time>
      </trkpt>
      <trkpt lat="47.0680940" lon="6.6565700">
        <ele>954.1</ele>
        <time>2022-07-21T16:34:59Z</time>
      </trkpt>
      <trkpt lat="47.0680900" lon="6.6565160">
        <ele>954.0</ele>
        <time>2022-07-21T16:35:00Z</time>
      </trkpt>
      <trkpt lat="47.0680830" lon="6.6564350">
        <ele>953.9</ele>
        <time>2022-07-21T16:35:02Z</time>
      </trkpt>
      <trkpt lat="47.0679900" lon="6.6563260">
        <ele>953.4</ele>
        <time>2022-07-21T16:35:03Z</time>
      </trkpt>
      <trkpt lat="47.0679590" lon="6.6562710">
        <ele>953.2</ele>
        <time>2022-07-21T16:35:04Z</time>
      </trkpt>
      <trkpt lat="47.0679350" lon="6.6562250">
        <ele>953.1</ele>
        <time>2022-07-21T16:35:05Z</time>
      </trkpt>
      <trkpt lat="47.0679100" lon="6.6562000">
        <ele>953.0</ele>
        <time>2022-07-21T16:35:06Z</time>
      </trkpt>
      <trkpt lat="47.0679170" lon="6.6561570">
        <ele>952.9</ele>
        <time>2022-07-21T16:35:07Z</time>
      </trkpt>
      <trkpt lat="47.0678940" lon="6.6560950">
        <ele>952.7</ele>
        <time>2022-07-21T16:35:08Z</time>
      </trkpt>
      <trkpt lat="47.0678480" lon="6.6560100">
        <ele>952.5</ele>
        <time>2022-07-21T16:35:10Z</time>
      </trkpt>
      <trkpt lat="47.0677990" lon="6.6559560">
        <ele>952.3</ele>
        <time>2022-07-21T16:35:11Z</time>
      </trkpt>
      <trkpt lat="47.0677520" lon="6.6559040">
        <ele>952.2</ele>
        <time>2022-07-21T16:35:12Z</time>
      </trkpt>
      <trkpt lat="47.0677040" lon="6.6558510">
        <ele>952.0</ele>
        <time>2022-07-21T16:35:13Z</time>
      </trkpt>
      <trkpt lat="47.0675790" lon="6.6557760">
        <ele>951.8</ele>
        <time>2022-07-21T16:35:15Z</time>
      </trkpt>
      <trkpt lat="47.0675280" lon="6.6557630">
        <ele>951.7</ele>
        <time>2022-07-21T16:35:16Z</time>
      </trkpt>
      <trkpt lat="47.0674600" lon="6.6557580">
        <ele>951.6</ele>
        <time>2022-07-21T16:35:17Z</time>
      </trkpt>
      <trkpt lat="47.0674060" lon="6.6557640">
        <ele>951.5</ele>
        <time>2022-07-21T16:35:18Z</time>
      </trkpt>
      <trkpt lat="47.0673600" lon="6.6557760">
        <ele>951.5</ele>
        <time>2022-07-21T16:35:19Z</time>
      </trkpt>
      <trkpt lat="47.0673080" lon="6.6557710">
        <ele>951.4</ele>
        <time>2022-07-21T16:35:20Z</time>
      </trkpt>
      <trkpt lat="47.0672590" lon="6.6557690">
        <ele>951.4</ele>
        <time>2022-07-21T16:35:21Z</time>
      </trkpt>
      <trkpt lat="47.0672180" lon="6.6557690">
        <ele>951.4</ele>
        <time>2022-07-21T16:35:22Z</time>
      </trkpt>
      <trkpt lat="47.0671750" lon="6.6557690">
        <ele>951.4</ele>
        <time>2022-07-21T16:35:23Z</time>
      </trkpt>
      <trkpt lat="47.0671200" lon="6.6557920">
        <ele>951.4</ele>
        <time>2022-07-21T16:35:25Z</time>
      </trkpt>
      <trkpt lat="47.0670840" lon="6.6557840">
        <ele>951.4</ele>
        <time>2022-07-21T16:35:26Z</time>
      </trkpt>
      <trkpt lat="47.0670400" lon="6.6557820">
        <ele>951.4</ele>
        <time>2022-07-21T16:35:27Z</time>
      </trkpt>
      <trkpt lat="47.0669940" lon="6.6557710">
        <ele>951.4</ele>
        <time>2022-07-21T16:35:28Z</time>
      </trkpt>
      <trkpt lat="47.0669550" lon="6.6557440">
        <ele>951.4</ele>
        <time>2022-07-21T16:35:30Z</time>
      </trkpt>
      <trkpt lat="47.0669220" lon="6.6557260">
        <ele>951.4</ele>
        <time>2022-07-21T16:35:31Z</time>
      </trkpt>
      <trkpt lat="47.0668790" lon="6.6557080">
        <ele>951.4</ele>
        <time>2022-07-21T16:35:32Z</time>
      </trkpt>
      <trkpt lat="47.0668260" lon="6.6556850">
        <ele>951.4</ele>
        <time>2022-07-21T16:35:33Z</time>
      </trkpt>
      <trkpt lat="47.0667850" lon="6.6556660">
        <ele>951.3</ele>
        <time>2022-07-21T16:35:34Z</time>
      </trkpt>
      <trkpt lat="47.0667290" lon="6.6556180">
        <ele>951.2</ele>
        <time>2022-07-21T16:35:35Z</time>
      </trkpt>
      <trkpt lat="47.0666790" lon="6.6555820">
        <ele>951.0</ele>
        <time>2022-07-21T16:35:36Z</time>
      </trkpt>
      <trkpt lat="47.0666210" lon="6.6555360">
        <ele>950.8</ele>
        <time>2022-07-21T16:35:37Z</time>
      </trkpt>
      <trkpt lat="47.0665770" lon="6.6555010">
        <ele>950.6</ele>
        <time>2022-07-21T16:35:38Z</time>
      </trkpt>
      <trkpt lat="47.0665340" lon="6.6554610">
        <ele>950.4</ele>
        <time>2022-07-21T16:35:39Z</time>
      </trkpt>
      <trkpt lat="47.0664970" lon="6.6554190">
        <ele>950.2</ele>
        <time>2022-07-21T16:35:40Z</time>
      </trkpt>
      <trkpt lat="47.0664490" lon="6.6553820">
        <ele>949.9</ele>
        <time>2022-07-21T16:35:41Z</time>
      </trkpt>
      <trkpt lat="47.0664000" lon="6.6553400">
        <ele>949.5</ele>
        <time>2022-07-21T16:35:42Z</time>
      </trkpt>
      <trkpt lat="47.0663520" lon="6.6553000">
        <ele>949.2</ele>
        <time>2022-07-21T16:35:43Z</time>
      </trkpt>
      <trkpt lat="47.0663100" lon="6.6552540">
        <ele>948.8</ele>
        <time>2022-07-21T16:35:44Z</time>
      </trkpt>
      <trkpt lat="47.0662720" lon="6.6552100">
        <ele>948.4</ele>
        <time>2022-07-21T16:35:45Z</time>
      </trkpt>
      <trkpt lat="47.0662110" lon="6.6551690">
        <ele>947.8</ele>
        <time>2022-07-21T16:35:46Z</time>
      </trkpt>
      <trkpt lat="47.0661410" lon="6.6551280">
        <ele>947.2</ele>
        <time>2022-07-21T16:35:47Z</time>
      </trkpt>
      <trkpt lat="47.0660690" lon="6.6550820">
        <ele>946.6</ele>
        <time>2022-07-21T16:35:48Z</time>
      </trkpt>
      <trkpt lat="47.0660000" lon="6.6550220">
        <ele>946.1</ele>
        <time>2022-07-21T16:35:49Z</time>
      </trkpt>
      <trkpt lat="47.0659330" lon="6.6549510">
        <ele>945.8</ele>
        <time>2022-07-21T16:35:50Z</time>
      </trkpt>
      <trkpt lat="47.0658760" lon="6.6548780">
        <ele>945.7</ele>
        <time>2022-07-21T16:35:51Z</time>
      </trkpt>
      <trkpt lat="47.0658320" lon="6.6548130">
        <ele>945.6</ele>
        <time>2022-07-21T16:35:52Z</time>
      </trkpt>
      <trkpt lat="47.0657830" lon="6.6547410">
        <ele>945.5</ele>
        <time>2022-07-21T16:35:53Z</time>
      </trkpt>
      <trkpt lat="47.0657360" lon="6.6546660">
        <ele>945.5</ele>
        <time>2022-07-21T16:35:54Z</time>
      </trkpt>
      <trkpt lat="47.0656920" lon="6.6545940">
        <ele>945.5</ele>
        <time>2022-07-21T16:35:55Z</time>
      </trkpt>
      <trkpt lat="47.0656490" lon="6.6545250">
        <ele>945.5</ele>
        <time>2022-07-21T16:35:56Z</time>
      </trkpt>
      <trkpt lat="47.0656110" lon="6.6544630">
        <ele>945.5</ele>
        <time>2022-07-21T16:35:57Z</time>
      </trkpt>
      <trkpt lat="47.0655720" lon="6.6543990">
        <ele>945.5</ele>
        <time>2022-07-21T16:35:58Z</time>
      </trkpt>
      <trkpt lat="47.0655360" lon="6.6543360">
        <ele>945.5</ele>
        <time>2022-07-21T16:35:59Z</time>
      </trkpt>
      <trkpt lat="47.0655030" lon="6.6542810">
        <ele>945.5</ele>
        <time>2022-07-21T16:36:00Z</time>
      </trkpt>
      <trkpt lat="47.0654700" lon="6.6542230">
        <ele>945.4</ele>
        <time>2022-07-21T16:36:01Z</time>
      </trkpt>
      <trkpt lat="47.0654280" lon="6.6541560">
        <ele>945.3</ele>
        <time>2022-07-21T16:36:02Z</time>
      </trkpt>
      <trkpt lat="47.0653930" lon="6.6541110">
        <ele>945.2</ele>
        <time>2022-07-21T16:36:03Z</time>
      </trkpt>
      <trkpt lat="47.0653480" lon="6.6540540">
        <ele>945.1</ele>
        <time>2022-07-21T16:36:04Z</time>
      </trkpt>
      <trkpt lat="47.0653020" lon="6.6539970">
        <ele>944.9</ele>
        <time>2022-07-21T16:36:05Z</time>
      </trkpt>
      <trkpt lat="47.0652530" lon="6.6539470">
        <ele>944.7</ele>
        <time>2022-07-21T16:36:06Z</time>
      </trkpt>
      <trkpt lat="47.0652060" lon="6.6539070">
        <ele>944.5</ele>
        <time>2022-07-21T16:36:07Z</time>
      </trkpt>
      <trkpt lat="47.0651480" lon="6.6538710">
        <ele>944.3</ele>
        <time>2022-07-21T16:36:08Z</time>
      </trkpt>
      <trkpt lat="47.0650920" lon="6.6538410">
        <ele>944.1</ele>
        <time>2022-07-21T16:36:09Z</time>
      </trkpt>
      <trkpt lat="47.0650290" lon="6.6538160">
        <ele>943.9</ele>
        <time>2022-07-21T16:36:10Z</time>
      </trkpt>
      <trkpt lat="47.0649770" lon="6.6537890">
        <ele>943.8</ele>
        <time>2022-07-21T16:36:11Z</time>
      </trkpt>
      <trkpt lat="47.0649130" lon="6.6537930">
        <ele>943.7</ele>
        <time>2022-07-21T16:36:12Z</time>
      </trkpt>
      <trkpt lat="47.0648540" lon="6.6538250">
        <ele>943.6</ele>
        <time>2022-07-21T16:36:13Z</time>
      </trkpt>
      <trkpt lat="47.0648030" lon="6.6538590">
        <ele>943.5</ele>
        <time>2022-07-21T16:36:14Z</time>
      </trkpt>
      <trkpt lat="47.0647590" lon="6.6538940">
        <ele>943.4</ele>
        <time>2022-07-21T16:36:15Z</time>
      </trkpt>
      <trkpt lat="47.0647200" lon="6.6539270">
        <ele>943.3</ele>
        <time>2022-07-21T16:36:16Z</time>
      </trkpt>
      <trkpt lat="47.0646930" lon="6.6539430">
        <ele>943.3</ele>
        <time>2022-07-21T16:36:17Z</time>
      </trkpt>
      <trkpt lat="47.0646630" lon="6.6539440">
        <ele>943.2</ele>
        <time>2022-07-21T16:36:18Z</time>
      </trkpt>
      <trkpt lat="47.0645980" lon="6.6539570">
        <ele>943.0</ele>
        <time>2022-07-21T16:36:19Z</time>
      </trkpt>
      <trkpt lat="47.0645310" lon="6.6539670">
        <ele>942.8</ele>
        <time>2022-07-21T16:36:20Z</time>
      </trkpt>
      <trkpt lat="47.0644740" lon="6.6539660">
        <ele>942.6</ele>
        <time>2022-07-21T16:36:21Z</time>
      </trkpt>
      <trkpt lat="47.0644270" lon="6.6539540">
        <ele>942.4</ele>
        <time>2022-07-21T16:36:22Z</time>
      </trkpt>
      <trkpt lat="47.0643770" lon="6.6539320">
        <ele>942.2</ele>
        <time>2022-07-21T16:36:23Z</time>
      </trkpt>
      <trkpt lat="47.0643270" lon="6.6539060">
        <ele>941.9</ele>
        <time>2022-07-21T16:36:24Z</time>
      </trkpt>
      <trkpt lat="47.0642690" lon="6.6538720">
        <ele>941.5</ele>
        <time>2022-07-21T16:36:25Z</time>
      </trkpt>
      <trkpt lat="47.0642050" lon="6.6538330">
        <ele>941.1</ele>
        <time>2022-07-21T16:36:26Z</time>
      </trkpt>
      <trkpt lat="47.0641370" lon="6.6537850">
        <ele>940.6</ele>
        <time>2022-07-21T16:36:27Z</time>
      </trkpt>
      <trkpt lat="47.0640700" lon="6.6537350">
        <ele>940.1</ele>
        <time>2022-07-21T16:36:28Z</time>
      </trkpt>
      <trkpt lat="47.0639920" lon="6.6536830">
        <ele>939.7</ele>
        <time>2022-07-21T16:36:29Z</time>
      </trkpt>
      <trkpt lat="47.0639210" lon="6.6536310">
        <ele>939.2</ele>
        <time>2022-07-21T16:36:30Z</time>
      </trkpt>
      <trkpt lat="47.0638550" lon="6.6535660">
        <ele>938.8</ele>
        <time>2022-07-21T16:36:31Z</time>
      </trkpt>
      <trkpt lat="47.0637890" lon="6.6535010">
        <ele>938.4</ele>
        <time>2022-07-21T16:36:32Z</time>
      </trkpt>
      <trkpt lat="47.0637160" lon="6.6534400">
        <ele>937.9</ele>
        <time>2022-07-21T16:36:33Z</time>
      </trkpt>
      <trkpt lat="47.0636280" lon="6.6533770">
        <ele>937.3</ele>
        <time>2022-07-21T16:36:34Z</time>
      </trkpt>
      <trkpt lat="47.0635350" lon="6.6533170">
        <ele>936.7</ele>
        <time>2022-07-21T16:36:35Z</time>
      </trkpt>
      <trkpt lat="47.0634440" lon="6.6532720">
        <ele>936.2</ele>
        <time>2022-07-21T16:36:36Z</time>
      </trkpt>
      <trkpt lat="47.0633590" lon="6.6532310">
        <ele>936.1</ele>
        <time>2022-07-21T16:36:37Z</time>
      </trkpt>
      <trkpt lat="47.0632730" lon="6.6532080">
        <ele>936.0</ele>
        <time>2022-07-21T16:36:38Z</time>
      </trkpt>
      <trkpt lat="47.0631790" lon="6.6532150">
        <ele>935.8</ele>
        <time>2022-07-21T16:36:39Z</time>
      </trkpt>
      <trkpt lat="47.0630920" lon="6.6532390">
        <ele>935.8</ele>
        <time>2022-07-21T16:36:40Z</time>
      </trkpt>
      <trkpt lat="47.0630050" lon="6.6532540">
        <ele>935.8</ele>
        <time>2022-07-21T16:36:41Z</time>
      </trkpt>
      <trkpt lat="47.0629270" lon="6.6532690">
        <ele>935.8</ele>
        <time>2022-07-21T16:36:42Z</time>
      </trkpt>
      <trkpt lat="47.0628490" lon="6.6533030">
        <ele>935.8</ele>
        <time>2022-07-21T16:36:43Z</time>
      </trkpt>
      <trkpt lat="47.0627780" lon="6.6533350">
        <ele>935.9</ele>
        <time>2022-07-21T16:36:44Z</time>
      </trkpt>
      <trkpt lat="47.0627160" lon="6.6533860">
        <ele>935.9</ele>
        <time>2022-07-21T16:36:45Z</time>
      </trkpt>
      <trkpt lat="47.0626730" lon="6.6534260">
        <ele>935.9</ele>
        <time>2022-07-21T16:36:46Z</time>
      </trkpt>
      <trkpt lat="47.0626300" lon="6.6534540">
        <ele>935.9</ele>
        <time>2022-07-21T16:36:47Z</time>
      </trkpt>
      <trkpt lat="47.0625820" lon="6.6534810">
        <ele>935.8</ele>
        <time>2022-07-21T16:36:48Z</time>
      </trkpt>
      <trkpt lat="47.0625370" lon="6.6535070">
        <ele>935.7</ele>
        <time>2022-07-21T16:36:49Z</time>
      </trkpt>
      <trkpt lat="47.0624900" lon="6.6535320">
        <ele>935.6</ele>
        <time>2022-07-21T16:36:50Z</time>
      </trkpt>
      <trkpt lat="47.0624420" lon="6.6535510">
        <ele>935.5</ele>
        <time>2022-07-21T16:36:51Z</time>
      </trkpt>
      <trkpt lat="47.0623920" lon="6.6535670">
        <ele>935.4</ele>
        <time>2022-07-21T16:36:52Z</time>
      </trkpt>
      <trkpt lat="47.0623560" lon="6.6535780">
        <ele>935.3</ele>
        <time>2022-07-21T16:36:53Z</time>
      </trkpt>
      <trkpt lat="47.0623070" lon="6.6535980">
        <ele>935.2</ele>
        <time>2022-07-21T16:36:54Z</time>
      </trkpt>
      <trkpt lat="47.0622570" lon="6.6536140">
        <ele>935.0</ele>
        <time>2022-07-21T16:36:55Z</time>
      </trkpt>
      <trkpt lat="47.0622000" lon="6.6536300">
        <ele>934.7</ele>
        <time>2022-07-21T16:36:56Z</time>
      </trkpt>
      <trkpt lat="47.0621310" lon="6.6536450">
        <ele>934.4</ele>
        <time>2022-07-21T16:36:57Z</time>
      </trkpt>
      <trkpt lat="47.0620500" lon="6.6536510">
        <ele>933.8</ele>
        <time>2022-07-21T16:36:58Z</time>
      </trkpt>
      <trkpt lat="47.0619750" lon="6.6536570">
        <ele>933.3</ele>
        <time>2022-07-21T16:36:59Z</time>
      </trkpt>
      <trkpt lat="47.0619120" lon="6.6536580">
        <ele>932.9</ele>
        <time>2022-07-21T16:37:00Z</time>
      </trkpt>
      <trkpt lat="47.0618510" lon="6.6536680">
        <ele>932.4</ele>
        <time>2022-07-21T16:37:01Z</time>
      </trkpt>
      <trkpt lat="47.0617810" lon="6.6536760">
        <ele>931.9</ele>
        <time>2022-07-21T16:37:02Z</time>
      </trkpt>
      <trkpt lat="47.0617150" lon="6.6536700">
        <ele>931.4</ele>
        <time>2022-07-21T16:37:03Z</time>
      </trkpt>
      <trkpt lat="47.0616540" lon="6.6536600">
        <ele>931.0</ele>
        <time>2022-07-21T16:37:04Z</time>
      </trkpt>
      <trkpt lat="47.0616030" lon="6.6536390">
        <ele>930.5</ele>
        <time>2022-07-21T16:37:05Z</time>
      </trkpt>
      <trkpt lat="47.0615520" lon="6.6536170">
        <ele>930.1</ele>
        <time>2022-07-21T16:37:06Z</time>
      </trkpt>
      <trkpt lat="47.0614980" lon="6.6535900">
        <ele>929.6</ele>
        <time>2022-07-21T16:37:07Z</time>
      </trkpt>
      <trkpt lat="47.0614540" lon="6.6535580">
        <ele>929.2</ele>
        <time>2022-07-21T16:37:08Z</time>
      </trkpt>
      <trkpt lat="47.0613890" lon="6.6535200">
        <ele>928.6</ele>
        <time>2022-07-21T16:37:09Z</time>
      </trkpt>
      <trkpt lat="47.0613170" lon="6.6534910">
        <ele>927.9</ele>
        <time>2022-07-21T16:37:10Z</time>
      </trkpt>
      <trkpt lat="47.0612610" lon="6.6534730">
        <ele>927.3</ele>
        <time>2022-07-21T16:37:11Z</time>
      </trkpt>
      <trkpt lat="47.0612070" lon="6.6534590">
        <ele>926.9</ele>
        <time>2022-07-21T16:37:12Z</time>
      </trkpt>
      <trkpt lat="47.0611610" lon="6.6534560">
        <ele>926.5</ele>
        <time>2022-07-21T16:37:13Z</time>
      </trkpt>
      <trkpt lat="47.0611250" lon="6.6534590">
        <ele>926.2</ele>
        <time>2022-07-21T16:37:14Z</time>
      </trkpt>
      <trkpt lat="47.0611090" lon="6.6534620">
        <ele>926.1</ele>
        <time>2022-07-21T16:37:15Z</time>
      </trkpt>
      <trkpt lat="47.0610810" lon="6.6534650">
        <ele>925.9</ele>
        <time>2022-07-21T16:37:16Z</time>
      </trkpt>
      <trkpt lat="47.0610510" lon="6.6534480">
        <ele>925.7</ele>
        <time>2022-07-21T16:37:17Z</time>
      </trkpt>
      <trkpt lat="47.0610200" lon="6.6534430">
        <ele>925.5</ele>
        <time>2022-07-21T16:37:18Z</time>
      </trkpt>
      <trkpt lat="47.0609770" lon="6.6534260">
        <ele>925.3</ele>
        <time>2022-07-21T16:37:19Z</time>
      </trkpt>
      <trkpt lat="47.0609170" lon="6.6534000">
        <ele>924.9</ele>
        <time>2022-07-21T16:37:20Z</time>
      </trkpt>
      <trkpt lat="47.0608710" lon="6.6533730">
        <ele>924.6</ele>
        <time>2022-07-21T16:37:21Z</time>
      </trkpt>
      <trkpt lat="47.0608220" lon="6.6533330">
        <ele>924.3</ele>
        <time>2022-07-21T16:37:22Z</time>
      </trkpt>
      <trkpt lat="47.0607720" lon="6.6532890">
        <ele>924.1</ele>
        <time>2022-07-21T16:37:23Z</time>
      </trkpt>
      <trkpt lat="47.0607310" lon="6.6532400">
        <ele>923.9</ele>
        <time>2022-07-21T16:37:24Z</time>
      </trkpt>
      <trkpt lat="47.0607030" lon="6.6532010">
        <ele>923.8</ele>
        <time>2022-07-21T16:37:25Z</time>
      </trkpt>
      <trkpt lat="47.0606710" lon="6.6531660">
        <ele>923.7</ele>
        <time>2022-07-21T16:37:26Z</time>
      </trkpt>
      <trkpt lat="47.0606260" lon="6.6531210">
        <ele>923.6</ele>
        <time>2022-07-21T16:37:27Z</time>
      </trkpt>
      <trkpt lat="47.0605920" lon="6.6530820">
        <ele>923.5</ele>
        <time>2022-07-21T16:37:28Z</time>
      </trkpt>
      <trkpt lat="47.0605610" lon="6.6530460">
        <ele>923.4</ele>
        <time>2022-07-21T16:37:29Z</time>
      </trkpt>
      <trkpt lat="47.0605210" lon="6.6530040">
        <ele>923.3</ele>
        <time>2022-07-21T16:37:30Z</time>
      </trkpt>
      <trkpt lat="47.0604860" lon="6.6529570">
        <ele>923.2</ele>
        <time>2022-07-21T16:37:31Z</time>
      </trkpt>
      <trkpt lat="47.0604600" lon="6.6529110">
        <ele>923.1</ele>
        <time>2022-07-21T16:37:32Z</time>
      </trkpt>
      <trkpt lat="47.0604260" lon="6.6528670">
        <ele>923.0</ele>
        <time>2022-07-21T16:37:33Z</time>
      </trkpt>
      <trkpt lat="47.0604080" lon="6.6528130">
        <ele>923.0</ele>
        <time>2022-07-21T16:37:34Z</time>
      </trkpt>
      <trkpt lat="47.0604000" lon="6.6527890">
        <ele>922.9</ele>
        <time>2022-07-21T16:37:35Z</time>
      </trkpt>
      <trkpt lat="47.0603740" lon="6.6527340">
        <ele>922.9</ele>
        <time>2022-07-21T16:37:36Z</time>
      </trkpt>
      <trkpt lat="47.0603500" lon="6.6526940">
        <ele>922.8</ele>
        <time>2022-07-21T16:37:37Z</time>
      </trkpt>
      <trkpt lat="47.0603170" lon="6.6526520">
        <ele>922.8</ele>
        <time>2022-07-21T16:37:38Z</time>
      </trkpt>
      <trkpt lat="47.0602930" lon="6.6526140">
        <ele>922.8</ele>
        <time>2022-07-21T16:37:39Z</time>
      </trkpt>
      <trkpt lat="47.0602630" lon="6.6525750">
        <ele>922.8</ele>
        <time>2022-07-21T16:37:40Z</time>
      </trkpt>
      <trkpt lat="47.0602310" lon="6.6525420">
        <ele>922.8</ele>
        <time>2022-07-21T16:37:41Z</time>
      </trkpt>
      <trkpt lat="47.0602040" lon="6.6525010">
        <ele>922.9</ele>
        <time>2022-07-21T16:37:42Z</time>
      </trkpt>
      <trkpt lat="47.0601930" lon="6.6524580">
        <ele>923.0</ele>
        <time>2022-07-21T16:37:43Z</time>
      </trkpt>
      <trkpt lat="47.0601810" lon="6.6524230">
        <ele>923.1</ele>
        <time>2022-07-21T16:37:44Z</time>
      </trkpt>
      <trkpt lat="47.0601780" lon="6.6524140">
        <ele>923.1</ele>
        <time>2022-07-21T16:37:45Z</time>
      </trkpt>
      <trkpt lat="47.0601720" lon="6.6524040">
        <ele>923.1</ele>
        <time>2022-07-21T16:37:46Z</time>
      </trkpt>
      <trkpt lat="47.0601660" lon="6.6523970">
        <ele>923.2</ele>
        <time>2022-07-21T16:37:47Z</time>
      </trkpt>
      <trkpt lat="47.0601570" lon="6.6523920">
        <ele>923.2</ele>
        <time>2022-07-21T16:37:48Z</time>
      </trkpt>
      <trkpt lat="47.0601490" lon="6.6523920">
        <ele>923.3</ele>
        <time>2022-07-21T16:37:49Z</time>
      </trkpt>
      <trkpt lat="47.0601430" lon="6.6523950">
        <ele>923.3</ele>
        <time>2022-07-21T16:37:50Z</time>
      </trkpt>
      <trkpt lat="47.0601390" lon="6.6523970">
        <ele>923.3</ele>
        <time>2022-07-21T16:37:51Z</time>
      </trkpt>
      <trkpt lat="47.0601340" lon="6.6523970">
        <ele>923.3</ele>
        <time>2022-07-21T16:37:52Z</time>
      </trkpt>
      <trkpt lat="47.0601310" lon="6.6523970">
        <ele>923.4</ele>
        <time>2022-07-21T16:37:53Z</time>
      </trkpt>
      <trkpt lat="47.0601270" lon="6.6523950">
        <ele>923.4</ele>
        <time>2022-07-21T16:37:54Z</time>
      </trkpt>
      <trkpt lat="47.0601220" lon="6.6523910">
        <ele>923.4</ele>
        <time>2022-07-21T16:37:55Z</time>
      </trkpt>
      <trkpt lat="47.0601200" lon="6.6523910">
        <ele>923.4</ele>
        <time>2022-07-21T16:37:56Z</time>
      </trkpt>
      <trkpt lat="47.0601160" lon="6.6523870">
        <ele>923.5</ele>
        <time>2022-07-21T16:37:57Z</time>
      </trkpt>
      <trkpt lat="47.0601130" lon="6.6523760">
        <ele>923.5</ele>
        <time>2022-07-21T16:37:58Z</time>
      </trkpt>
      <trkpt lat="47.0601130" lon="6.6523640">
        <ele>923.6</ele>
        <time>2022-07-21T16:37:59Z</time>
      </trkpt>
      <trkpt lat="47.0601130" lon="6.6523510">
        <ele>923.6</ele>
        <time>2022-07-21T16:38:00Z</time>
      </trkpt>
      <trkpt lat="47.0601120" lon="6.6523340">
        <ele>923.7</ele>
        <time>2022-07-21T16:38:01Z</time>
      </trkpt>
      <trkpt lat="47.0601090" lon="6.6523200">
        <ele>923.8</ele>
        <time>2022-07-21T16:38:02Z</time>
      </trkpt>
      <trkpt lat="47.0601060" lon="6.6523080">
        <ele>923.8</ele>
        <time>2022-07-21T16:38:03Z</time>
      </trkpt>
      <trkpt lat="47.0601040" lon="6.6522980">
        <ele>923.9</ele>
        <time>2022-07-21T16:38:04Z</time>
      </trkpt>
      <trkpt lat="47.0601020" lon="6.6522860">
        <ele>923.9</ele>
        <time>2022-07-21T16:38:05Z</time>
      </trkpt>
      <trkpt lat="47.0601030" lon="6.6522770">
        <ele>924.0</ele>
        <time>2022-07-21T16:38:06Z</time>
      </trkpt>
      <trkpt lat="47.0601040" lon="6.6522750">
        <ele>924.0</ele>
        <time>2022-07-21T16:38:07Z</time>
      </trkpt>
      <trkpt lat="47.0601040" lon="6.6522810">
        <ele>924.0</ele>
        <time>2022-07-21T16:38:08Z</time>
      </trkpt>
      <trkpt lat="47.0601000" lon="6.6522870">
        <ele>924.0</ele>
        <time>2022-07-21T16:38:09Z</time>
      </trkpt>
      <trkpt lat="47.0600980" lon="6.6522890">
        <ele>924.0</ele>
        <time>2022-07-21T16:38:10Z</time>
      </trkpt>
      <trkpt lat="47.0600970" lon="6.6522880">
        <ele>924.1</ele>
        <time>2022-07-21T16:38:11Z</time>
      </trkpt>
      <trkpt lat="47.0600950" lon="6.6522870">
        <ele>924.1</ele>
        <time>2022-07-21T16:38:12Z</time>
      </trkpt>
      <trkpt lat="47.0600940" lon="6.6522860">
        <ele>924.1</ele>
        <time>2022-07-21T16:38:13Z</time>
      </trkpt>
      <trkpt lat="47.0600920" lon="6.6522860">
        <ele>924.1</ele>
        <time>2022-07-21T16:38:14Z</time>
      </trkpt>
      <trkpt lat="47.0600890" lon="6.6522860">
        <ele>924.1</ele>
        <time>2022-07-21T16:38:15Z</time>
      </trkpt>
      <trkpt lat="47.0600860" lon="6.6522720">
        <ele>924.2</ele>
        <time>2022-07-21T16:38:16Z</time>
      </trkpt>
      <trkpt lat="47.0600810" lon="6.6522540">
        <ele>924.3</ele>
        <time>2022-07-21T16:38:17Z</time>
      </trkpt>
      <trkpt lat="47.0600750" lon="6.6522440">
        <ele>924.3</ele>
        <time>2022-07-21T16:38:18Z</time>
      </trkpt>
      <trkpt lat="47.0600670" lon="6.6522280">
        <ele>924.4</ele>
        <time>2022-07-21T16:38:19Z</time>
      </trkpt>
      <trkpt lat="47.0600520" lon="6.6521970">
        <ele>924.5</ele>
        <time>2022-07-21T16:38:20Z</time>
      </trkpt>
      <trkpt lat="47.0600460" lon="6.6521850">
        <ele>924.6</ele>
        <time>2022-07-21T16:38:21Z</time>
      </trkpt>
      <trkpt lat="47.0600360" lon="6.6521580">
        <ele>924.7</ele>
        <time>2022-07-21T16:38:22Z</time>
      </trkpt>
      <trkpt lat="47.0600290" lon="6.6521410">
        <ele>924.8</ele>
        <time>2022-07-21T16:38:23Z</time>
      </trkpt>
      <trkpt lat="47.0600190" lon="6.6521210">
        <ele>924.8</ele>
        <time>2022-07-21T16:38:24Z</time>
      </trkpt>
      <trkpt lat="47.0600080" lon="6.6521020">
        <ele>924.9</ele>
        <time>2022-07-21T16:38:25Z</time>
      </trkpt>
      <trkpt lat="47.0599900" lon="6.6520730">
        <ele>925.0</ele>
        <time>2022-07-21T16:38:26Z</time>
      </trkpt>
      <trkpt lat="47.0599840" lon="6.6520630">
        <ele>925.0</ele>
        <time>2022-07-21T16:38:27Z</time>
      </trkpt>
      <trkpt lat="47.0599650" lon="6.6520270">
        <ele>925.1</ele>
        <time>2022-07-21T16:38:28Z</time>
      </trkpt>
      <trkpt lat="47.0599590" lon="6.6520150">
        <ele>925.1</ele>
        <time>2022-07-21T16:38:29Z</time>
      </trkpt>
      <trkpt lat="47.0599310" lon="6.6519740">
        <ele>925.2</ele>
        <time>2022-07-21T16:38:30Z</time>
      </trkpt>
      <trkpt lat="47.0599230" lon="6.6519610">
        <ele>925.2</ele>
        <time>2022-07-21T16:38:31Z</time>
      </trkpt>
      <trkpt lat="47.0599030" lon="6.6519290">
        <ele>925.2</ele>
        <time>2022-07-21T16:38:32Z</time>
      </trkpt>
      <trkpt lat="47.0598940" lon="6.6519140">
        <ele>925.2</ele>
        <time>2022-07-21T16:38:33Z</time>
      </trkpt>
      <trkpt lat="47.0598680" lon="6.6518760">
        <ele>925.2</ele>
        <time>2022-07-21T16:38:34Z</time>
      </trkpt>
      <trkpt lat="47.0598610" lon="6.6518650">
        <ele>925.2</ele>
        <time>2022-07-21T16:38:35Z</time>
      </trkpt>
      <trkpt lat="47.0598410" lon="6.6518290">
        <ele>925.1</ele>
        <time>2022-07-21T16:38:36Z</time>
      </trkpt>
      <trkpt lat="47.0598320" lon="6.6518120">
        <ele>925.1</ele>
        <time>2022-07-21T16:38:37Z</time>
      </trkpt>
      <trkpt lat="47.0598150" lon="6.6517800">
        <ele>925.1</ele>
        <time>2022-07-21T16:38:38Z</time>
      </trkpt>
      <trkpt lat="47.0597880" lon="6.6517380">
        <ele>925.1</ele>
        <time>2022-07-21T16:38:39Z</time>
      </trkpt>
      <trkpt lat="47.0597780" lon="6.6517230">
        <ele>925.1</ele>
        <time>2022-07-21T16:38:40Z</time>
      </trkpt>
      <trkpt lat="47.0597540" lon="6.6516940">
        <ele>925.0</ele>
        <time>2022-07-21T16:38:41Z</time>
      </trkpt>
      <trkpt lat="47.0597310" lon="6.6516650">
        <ele>925.0</ele>
        <time>2022-07-21T16:38:42Z</time>
      </trkpt>
      <trkpt lat="47.0597120" lon="6.6516330">
        <ele>925.0</ele>
        <time>2022-07-21T16:38:43Z</time>
      </trkpt>
      <trkpt lat="47.0596940" lon="6.6516010">
        <ele>924.9</ele>
        <time>2022-07-21T16:38:44Z</time>
      </trkpt>
      <trkpt lat="47.0596750" lon="6.6515630">
        <ele>924.9</ele>
        <time>2022-07-21T16:38:45Z</time>
      </trkpt>
      <trkpt lat="47.0596670" lon="6.6515480">
        <ele>924.9</ele>
        <time>2022-07-21T16:38:46Z</time>
      </trkpt>
      <trkpt lat="47.0596500" lon="6.6515150">
        <ele>924.9</ele>
        <time>2022-07-21T16:38:47Z</time>
      </trkpt>
      <trkpt lat="47.0596330" lon="6.6514790">
        <ele>924.8</ele>
        <time>2022-07-21T16:38:48Z</time>
      </trkpt>
      <trkpt lat="47.0596150" lon="6.6514370">
        <ele>924.8</ele>
        <time>2022-07-21T16:38:49Z</time>
      </trkpt>
      <trkpt lat="47.0596100" lon="6.6514240">
        <ele>924.8</ele>
        <time>2022-07-21T16:38:50Z</time>
      </trkpt>
      <trkpt lat="47.0595940" lon="6.6513880">
        <ele>924.8</ele>
        <time>2022-07-21T16:38:51Z</time>
      </trkpt>
      <trkpt lat="47.0595760" lon="6.6513520">
        <ele>924.8</ele>
        <time>2022-07-21T16:38:52Z</time>
      </trkpt>
      <trkpt lat="47.0595700" lon="6.6513410">
        <ele>924.8</ele>
        <time>2022-07-21T16:38:53Z</time>
      </trkpt>
      <trkpt lat="47.0595390" lon="6.6513050">
        <ele>924.7</ele>
        <time>2022-07-21T16:38:54Z</time>
      </trkpt>
      <trkpt lat="47.0595280" lon="6.6512920">
        <ele>924.7</ele>
        <time>2022-07-21T16:38:55Z</time>
      </trkpt>
      <trkpt lat="47.0595040" lon="6.6512590">
        <ele>924.7</ele>
        <time>2022-07-21T16:38:56Z</time>
      </trkpt>
      <trkpt lat="47.0594790" lon="6.6512210">
        <ele>924.6</ele>
        <time>2022-07-21T16:38:57Z</time>
      </trkpt>
      <trkpt lat="47.0594540" lon="6.6511850">
        <ele>924.5</ele>
        <time>2022-07-21T16:38:58Z</time>
      </trkpt>
      <trkpt lat="47.0594290" lon="6.6511510">
        <ele>924.4</ele>
        <time>2022-07-21T16:38:59Z</time>
      </trkpt>
      <trkpt lat="47.0594030" lon="6.6511130">
        <ele>924.3</ele>
        <time>2022-07-21T16:39:00Z</time>
      </trkpt>
      <trkpt lat="47.0593780" lon="6.6510770">
        <ele>924.2</ele>
        <time>2022-07-21T16:39:01Z</time>
      </trkpt>
      <trkpt lat="47.0593520" lon="6.6510370">
        <ele>924.1</ele>
        <time>2022-07-21T16:39:02Z</time>
      </trkpt>
      <trkpt lat="47.0593250" lon="6.6509900">
        <ele>923.9</ele>
        <time>2022-07-21T16:39:03Z</time>
      </trkpt>
      <trkpt lat="47.0592980" lon="6.6509420">
        <ele>923.8</ele>
        <time>2022-07-21T16:39:04Z</time>
      </trkpt>
      <trkpt lat="47.0592650" lon="6.6508920">
        <ele>923.6</ele>
        <time>2022-07-21T16:39:05Z</time>
      </trkpt>
      <trkpt lat="47.0592360" lon="6.6508500">
        <ele>923.5</ele>
        <time>2022-07-21T16:39:06Z</time>
      </trkpt>
      <trkpt lat="47.0592060" lon="6.6508030">
        <ele>923.4</ele>
        <time>2022-07-21T16:39:07Z</time>
      </trkpt>
      <trkpt lat="47.0591790" lon="6.6507580">
        <ele>923.2</ele>
        <time>2022-07-21T16:39:08Z</time>
      </trkpt>
      <trkpt lat="47.0591570" lon="6.6507190">
        <ele>923.1</ele>
        <time>2022-07-21T16:39:09Z</time>
      </trkpt>
      <trkpt lat="47.0591350" lon="6.6506830">
        <ele>923.0</ele>
        <time>2022-07-21T16:39:10Z</time>
      </trkpt>
      <trkpt lat="47.0591100" lon="6.6506490">
        <ele>922.9</ele>
        <time>2022-07-21T16:39:11Z</time>
      </trkpt>
      <trkpt lat="47.0590830" lon="6.6506170">
        <ele>922.7</ele>
        <time>2022-07-21T16:39:12Z</time>
      </trkpt>
      <trkpt lat="47.0590530" lon="6.6505830">
        <ele>922.6</ele>
        <time>2022-07-21T16:39:13Z</time>
      </trkpt>
      <trkpt lat="47.0590320" lon="6.6505520">
        <ele>922.4</ele>
        <time>2022-07-21T16:39:14Z</time>
      </trkpt>
      <trkpt lat="47.0590100" lon="6.6505160">
        <ele>922.3</ele>
        <time>2022-07-21T16:39:15Z</time>
      </trkpt>
      <trkpt lat="47.0589820" lon="6.6504750">
        <ele>922.0</ele>
        <time>2022-07-21T16:39:16Z</time>
      </trkpt>
      <trkpt lat="47.0589520" lon="6.6504290">
        <ele>921.8</ele>
        <time>2022-07-21T16:39:17Z</time>
      </trkpt>
      <trkpt lat="47.0589180" lon="6.6503680">
        <ele>921.5</ele>
        <time>2022-07-21T16:39:18Z</time>
      </trkpt>
      <trkpt lat="47.0588740" lon="6.6503170">
        <ele>921.2</ele>
        <time>2022-07-21T16:39:19Z</time>
      </trkpt>
      <trkpt lat="47.0588100" lon="6.6502560">
        <ele>920.8</ele>
        <time>2022-07-21T16:39:20Z</time>
      </trkpt>
      <trkpt lat="47.0587640" lon="6.6502060">
        <ele>920.4</ele>
        <time>2022-07-21T16:39:21Z</time>
      </trkpt>
      <trkpt lat="47.0587400" lon="6.6501570">
        <ele>920.2</ele>
        <time>2022-07-21T16:39:22Z</time>
      </trkpt>
      <trkpt lat="47.0587120" lon="6.6501010">
        <ele>919.9</ele>
        <time>2022-07-21T16:39:23Z</time>
      </trkpt>
      <trkpt lat="47.0586850" lon="6.6500590">
        <ele>919.6</ele>
        <time>2022-07-21T16:39:24Z</time>
      </trkpt>
      <trkpt lat="47.0586490" lon="6.6500130">
        <ele>919.4</ele>
        <time>2022-07-21T16:39:25Z</time>
      </trkpt>
      <trkpt lat="47.0586100" lon="6.6499580">
        <ele>919.2</ele>
        <time>2022-07-21T16:39:26Z</time>
      </trkpt>
      <trkpt lat="47.0585700" lon="6.6498990">
        <ele>919.0</ele>
        <time>2022-07-21T16:39:27Z</time>
      </trkpt>
      <trkpt lat="47.0585390" lon="6.6498460">
        <ele>918.8</ele>
        <time>2022-07-21T16:39:28Z</time>
      </trkpt>
      <trkpt lat="47.0584990" lon="6.6497830">
        <ele>918.7</ele>
        <time>2022-07-21T16:39:29Z</time>
      </trkpt>
      <trkpt lat="47.0584590" lon="6.6497230">
        <ele>918.6</ele>
        <time>2022-07-21T16:39:30Z</time>
      </trkpt>
      <trkpt lat="47.0584260" lon="6.6496660">
        <ele>918.5</ele>
        <time>2022-07-21T16:39:31Z</time>
      </trkpt>
      <trkpt lat="47.0583790" lon="6.6496260">
        <ele>918.4</ele>
        <time>2022-07-21T16:39:32Z</time>
      </trkpt>
      <trkpt lat="47.0583450" lon="6.6495770">
        <ele>918.4</ele>
        <time>2022-07-21T16:39:33Z</time>
      </trkpt>
      <trkpt lat="47.0583070" lon="6.6495080">
        <ele>918.4</ele>
        <time>2022-07-21T16:39:35Z</time>
      </trkpt>
      <trkpt lat="47.0582790" lon="6.6494540">
        <ele>918.4</ele>
        <time>2022-07-21T16:39:36Z</time>
      </trkpt>
      <trkpt lat="47.0582490" lon="6.6494050">
        <ele>918.4</ele>
        <time>2022-07-21T16:39:37Z</time>
      </trkpt>
      <trkpt lat="47.0582270" lon="6.6493650">
        <ele>918.4</ele>
        <time>2022-07-21T16:39:38Z</time>
      </trkpt>
      <trkpt lat="47.0582070" lon="6.6493260">
        <ele>918.4</ele>
        <time>2022-07-21T16:39:39Z</time>
      </trkpt>
      <trkpt lat="47.0581870" lon="6.6492900">
        <ele>918.4</ele>
        <time>2022-07-21T16:39:40Z</time>
      </trkpt>
      <trkpt lat="47.0581600" lon="6.6492590">
        <ele>918.5</ele>
        <time>2022-07-21T16:39:41Z</time>
      </trkpt>
      <trkpt lat="47.0581320" lon="6.6492320">
        <ele>918.5</ele>
        <time>2022-07-21T16:39:42Z</time>
      </trkpt>
      <trkpt lat="47.0581010" lon="6.6491880">
        <ele>918.6</ele>
        <time>2022-07-21T16:39:44Z</time>
      </trkpt>
      <trkpt lat="47.0580720" lon="6.6491480">
        <ele>918.6</ele>
        <time>2022-07-21T16:39:45Z</time>
      </trkpt>
      <trkpt lat="47.0580630" lon="6.6491320">
        <ele>918.6</ele>
        <time>2022-07-21T16:39:46Z</time>
      </trkpt>
      <trkpt lat="47.0580310" lon="6.6490960">
        <ele>918.7</ele>
        <time>2022-07-21T16:39:47Z</time>
      </trkpt>
      <trkpt lat="47.0580210" lon="6.6490850">
        <ele>918.7</ele>
        <time>2022-07-21T16:39:48Z</time>
      </trkpt>
      <trkpt lat="47.0579950" lon="6.6490580">
        <ele>918.7</ele>
        <time>2022-07-21T16:39:49Z</time>
      </trkpt>
      <trkpt lat="47.0579760" lon="6.6490260">
        <ele>918.8</ele>
        <time>2022-07-21T16:39:50Z</time>
      </trkpt>
      <trkpt lat="47.0579690" lon="6.6490160">
        <ele>918.8</ele>
        <time>2022-07-21T16:39:51Z</time>
      </trkpt>
      <trkpt lat="47.0579270" lon="6.6489740">
        <ele>918.8</ele>
        <time>2022-07-21T16:39:53Z</time>
      </trkpt>
      <trkpt lat="47.0578800" lon="6.6489380">
        <ele>918.8</ele>
        <time>2022-07-21T16:39:54Z</time>
      </trkpt>
      <trkpt lat="47.0578420" lon="6.6488990">
        <ele>918.8</ele>
        <time>2022-07-21T16:39:56Z</time>
      </trkpt>
      <trkpt lat="47.0578170" lon="6.6488690">
        <ele>918.8</ele>
        <time>2022-07-21T16:39:57Z</time>
      </trkpt>
      <trkpt lat="47.0577990" lon="6.6488360">
        <ele>918.7</ele>
        <time>2022-07-21T16:39:58Z</time>
      </trkpt>
      <trkpt lat="47.0577800" lon="6.6488010">
        <ele>918.7</ele>
        <time>2022-07-21T16:39:59Z</time>
      </trkpt>
      <trkpt lat="47.0577490" lon="6.6487560">
        <ele>918.6</ele>
        <time>2022-07-21T16:40:00Z</time>
      </trkpt>
      <trkpt lat="47.0577060" lon="6.6487010">
        <ele>918.5</ele>
        <time>2022-07-21T16:40:02Z</time>
      </trkpt>
      <trkpt lat="47.0576810" lon="6.6486660">
        <ele>918.5</ele>
        <time>2022-07-21T16:40:03Z</time>
      </trkpt>
      <trkpt lat="47.0576570" lon="6.6486330">
        <ele>918.4</ele>
        <time>2022-07-21T16:40:04Z</time>
      </trkpt>
      <trkpt lat="47.0576350" lon="6.6485910">
        <ele>918.3</ele>
        <time>2022-07-21T16:40:05Z</time>
      </trkpt>
      <trkpt lat="47.0576150" lon="6.6485550">
        <ele>918.2</ele>
        <time>2022-07-21T16:40:06Z</time>
      </trkpt>
      <trkpt lat="47.0575660" lon="6.6484760">
        <ele>917.9</ele>
        <time>2022-07-21T16:40:07Z</time>
      </trkpt>
      <trkpt lat="47.0575230" lon="6.6484220">
        <ele>917.7</ele>
        <time>2022-07-21T16:40:09Z</time>
      </trkpt>
      <trkpt lat="47.0574850" lon="6.6483690">
        <ele>917.5</ele>
        <time>2022-07-21T16:40:10Z</time>
      </trkpt>
      <trkpt lat="47.0574310" lon="6.6482710">
        <ele>917.1</ele>
        <time>2022-07-21T16:40:11Z</time>
      </trkpt>
      <trkpt lat="47.0574050" lon="6.6482470">
        <ele>916.9</ele>
        <time>2022-07-21T16:40:12Z</time>
      </trkpt>
      <trkpt lat="47.0573630" lon="6.6482040">
        <ele>916.6</ele>
        <time>2022-07-21T16:40:13Z</time>
      </trkpt>
      <trkpt lat="47.0573280" lon="6.6481750">
        <ele>916.3</ele>
        <time>2022-07-21T16:40:14Z</time>
      </trkpt>
      <trkpt lat="47.0572790" lon="6.6481290">
        <ele>916.0</ele>
        <time>2022-07-21T16:40:16Z</time>
      </trkpt>
      <trkpt lat="47.0572330" lon="6.6481020">
        <ele>915.7</ele>
        <time>2022-07-21T16:40:17Z</time>
      </trkpt>
      <trkpt lat="47.0571600" lon="6.6480900">
        <ele>914.7</ele>
        <time>2022-07-21T16:40:18Z</time>
      </trkpt>
      <trkpt lat="47.0571020" lon="6.6480820">
        <ele>913.9</ele>
        <time>2022-07-21T16:40:19Z</time>
      </trkpt>
      <trkpt lat="47.0570540" lon="6.6480660">
        <ele>913.3</ele>
        <time>2022-07-21T16:40:20Z</time>
      </trkpt>
      <trkpt lat="47.0570160" lon="6.6480760">
        <ele>912.8</ele>
        <time>2022-07-21T16:40:21Z</time>
      </trkpt>
      <trkpt lat="47.0569930" lon="6.6480740">
        <ele>912.6</ele>
        <time>2022-07-21T16:40:22Z</time>
      </trkpt>
      <trkpt lat="47.0569390" lon="6.6480490">
        <ele>911.9</ele>
        <time>2022-07-21T16:40:23Z</time>
      </trkpt>
      <trkpt lat="47.0568850" lon="6.6480190">
        <ele>911.2</ele>
        <time>2022-07-21T16:40:24Z</time>
      </trkpt>
      <trkpt lat="47.0568360" lon="6.6479810">
        <ele>910.5</ele>
        <time>2022-07-21T16:40:25Z</time>
      </trkpt>
      <trkpt lat="47.0568120" lon="6.6479750">
        <ele>910.2</ele>
        <time>2022-07-21T16:40:26Z</time>
      </trkpt>
      <trkpt lat="47.0567650" lon="6.6479290">
        <ele>909.5</ele>
        <time>2022-07-21T16:40:28Z</time>
      </trkpt>
      <trkpt lat="47.0567210" lon="6.6478830">
        <ele>908.9</ele>
        <time>2022-07-21T16:40:29Z</time>
      </trkpt>
      <trkpt lat="47.0566340" lon="6.6478150">
        <ele>907.9</ele>
        <time>2022-07-21T16:40:30Z</time>
      </trkpt>
      <trkpt lat="47.0565820" lon="6.6477840">
        <ele>907.4</ele>
        <time>2022-07-21T16:40:31Z</time>
      </trkpt>
      <trkpt lat="47.0565230" lon="6.6477680">
        <ele>906.9</ele>
        <time>2022-07-21T16:40:32Z</time>
      </trkpt>
      <trkpt lat="47.0564650" lon="6.6477660">
        <ele>906.4</ele>
        <time>2022-07-21T16:40:33Z</time>
      </trkpt>
      <trkpt lat="47.0564060" lon="6.6477770">
        <ele>905.9</ele>
        <time>2022-07-21T16:40:34Z</time>
      </trkpt>
      <trkpt lat="47.0563560" lon="6.6477860">
        <ele>905.5</ele>
        <time>2022-07-21T16:40:35Z</time>
      </trkpt>
      <trkpt lat="47.0563110" lon="6.6478100">
        <ele>905.1</ele>
        <time>2022-07-21T16:40:36Z</time>
      </trkpt>
      <trkpt lat="47.0562580" lon="6.6478390">
        <ele>904.7</ele>
        <time>2022-07-21T16:40:37Z</time>
      </trkpt>
      <trkpt lat="47.0562050" lon="6.6478630">
        <ele>904.3</ele>
        <time>2022-07-21T16:40:38Z</time>
      </trkpt>
      <trkpt lat="47.0561550" lon="6.6478760">
        <ele>903.9</ele>
        <time>2022-07-21T16:40:39Z</time>
      </trkpt>
      <trkpt lat="47.0561050" lon="6.6478660">
        <ele>903.5</ele>
        <time>2022-07-21T16:40:40Z</time>
      </trkpt>
      <trkpt lat="47.0560580" lon="6.6478320">
        <ele>903.0</ele>
        <time>2022-07-21T16:40:41Z</time>
      </trkpt>
      <trkpt lat="47.0560190" lon="6.6477800">
        <ele>902.5</ele>
        <time>2022-07-21T16:40:42Z</time>
      </trkpt>
      <trkpt lat="47.0559790" lon="6.6477300">
        <ele>902.1</ele>
        <time>2022-07-21T16:40:43Z</time>
      </trkpt>
      <trkpt lat="47.0559360" lon="6.6476910">
        <ele>901.6</ele>
        <time>2022-07-21T16:40:44Z</time>
      </trkpt>
      <trkpt lat="47.0558720" lon="6.6476400">
        <ele>901.0</ele>
        <time>2022-07-21T16:40:45Z</time>
      </trkpt>
      <trkpt lat="47.0558220" lon="6.6475990">
        <ele>900.5</ele>
        <time>2022-07-21T16:40:46Z</time>
      </trkpt>
      <trkpt lat="47.0557930" lon="6.6475780">
        <ele>900.2</ele>
        <time>2022-07-21T16:40:47Z</time>
      </trkpt>
      <trkpt lat="47.0557590" lon="6.6475370">
        <ele>899.8</ele>
        <time>2022-07-21T16:40:48Z</time>
      </trkpt>
      <trkpt lat="47.0557140" lon="6.6474860">
        <ele>899.2</ele>
        <time>2022-07-21T16:40:49Z</time>
      </trkpt>
      <trkpt lat="47.0556600" lon="6.6474430">
        <ele>898.6</ele>
        <time>2022-07-21T16:40:50Z</time>
      </trkpt>
      <trkpt lat="47.0556090" lon="6.6473920">
        <ele>898.0</ele>
        <time>2022-07-21T16:40:51Z</time>
      </trkpt>
      <trkpt lat="47.0555600" lon="6.6473290">
        <ele>897.4</ele>
        <time>2022-07-21T16:40:52Z</time>
      </trkpt>
      <trkpt lat="47.0555090" lon="6.6472630">
        <ele>896.7</ele>
        <time>2022-07-21T16:40:53Z</time>
      </trkpt>
      <trkpt lat="47.0554710" lon="6.6472040">
        <ele>896.2</ele>
        <time>2022-07-21T16:40:54Z</time>
      </trkpt>
      <trkpt lat="47.0554300" lon="6.6471480">
        <ele>895.6</ele>
        <time>2022-07-21T16:40:55Z</time>
      </trkpt>
      <trkpt lat="47.0553890" lon="6.6470930">
        <ele>895.1</ele>
        <time>2022-07-21T16:40:56Z</time>
      </trkpt>
      <trkpt lat="47.0553500" lon="6.6470490">
        <ele>894.6</ele>
        <time>2022-07-21T16:40:57Z</time>
      </trkpt>
      <trkpt lat="47.0553130" lon="6.6470430">
        <ele>894.3</ele>
        <time>2022-07-21T16:40:58Z</time>
      </trkpt>
      <trkpt lat="47.0552840" lon="6.6469940">
        <ele>893.9</ele>
        <time>2022-07-21T16:41:00Z</time>
      </trkpt>
      <trkpt lat="47.0552490" lon="6.6469370">
        <ele>893.4</ele>
        <time>2022-07-21T16:41:01Z</time>
      </trkpt>
      <trkpt lat="47.0552290" lon="6.6469080">
        <ele>893.1</ele>
        <time>2022-07-21T16:41:02Z</time>
      </trkpt>
      <trkpt lat="47.0551930" lon="6.6468540">
        <ele>892.6</ele>
        <time>2022-07-21T16:41:03Z</time>
      </trkpt>
      <trkpt lat="47.0551600" lon="6.6467780">
        <ele>892.0</ele>
        <time>2022-07-21T16:41:05Z</time>
      </trkpt>
      <trkpt lat="47.0551060" lon="6.6466890">
        <ele>891.2</ele>
        <time>2022-07-21T16:41:06Z</time>
      </trkpt>
      <trkpt lat="47.0550690" lon="6.6466170">
        <ele>890.7</ele>
        <time>2022-07-21T16:41:07Z</time>
      </trkpt>
      <trkpt lat="47.0550420" lon="6.6465570">
        <ele>890.2</ele>
        <time>2022-07-21T16:41:08Z</time>
      </trkpt>
      <trkpt lat="47.0550330" lon="6.6464800">
        <ele>889.7</ele>
        <time>2022-07-21T16:41:09Z</time>
      </trkpt>
      <trkpt lat="47.0550230" lon="6.6464220">
        <ele>889.4</ele>
        <time>2022-07-21T16:41:10Z</time>
      </trkpt>
      <trkpt lat="47.0549740" lon="6.6463630">
        <ele>888.9</ele>
        <time>2022-07-21T16:41:11Z</time>
      </trkpt>
      <trkpt lat="47.0549490" lon="6.6463190">
        <ele>888.5</ele>
        <time>2022-07-21T16:41:12Z</time>
      </trkpt>
      <trkpt lat="47.0549320" lon="6.6462770">
        <ele>888.3</ele>
        <time>2022-07-21T16:41:13Z</time>
      </trkpt>
      <trkpt lat="47.0549220" lon="6.6462200">
        <ele>887.9</ele>
        <time>2022-07-21T16:41:15Z</time>
      </trkpt>
      <trkpt lat="47.0548990" lon="6.6461090">
        <ele>887.2</ele>
        <time>2022-07-21T16:41:16Z</time>
      </trkpt>
      <trkpt lat="47.0548720" lon="6.6460520">
        <ele>886.8</ele>
        <time>2022-07-21T16:41:17Z</time>
      </trkpt>
      <trkpt lat="47.0548130" lon="6.6459510">
        <ele>886.0</ele>
        <time>2022-07-21T16:41:19Z</time>
      </trkpt>
      <trkpt lat="47.0548110" lon="6.6458850">
        <ele>885.6</ele>
        <time>2022-07-21T16:41:20Z</time>
      </trkpt>
      <trkpt lat="47.0547960" lon="6.6458250">
        <ele>885.3</ele>
        <time>2022-07-21T16:41:21Z</time>
      </trkpt>
      <trkpt lat="47.0547790" lon="6.6457960">
        <ele>885.0</ele>
        <time>2022-07-21T16:41:22Z</time>
      </trkpt>
      <trkpt lat="47.0547670" lon="6.6457790">
        <ele>884.9</ele>
        <time>2022-07-21T16:41:23Z</time>
      </trkpt>
      <trkpt lat="47.0547430" lon="6.6457370">
        <ele>884.6</ele>
        <time>2022-07-21T16:41:24Z</time>
      </trkpt>
      <trkpt lat="47.0547270" lon="6.6457000">
        <ele>884.3</ele>
        <time>2022-07-21T16:41:26Z</time>
      </trkpt>
      <trkpt lat="47.0547160" lon="6.6456720">
        <ele>884.1</ele>
        <time>2022-07-21T16:41:27Z</time>
      </trkpt>
      <trkpt lat="47.0547140" lon="6.6456570">
        <ele>884.0</ele>
        <time>2022-07-21T16:41:28Z</time>
      </trkpt>
      <trkpt lat="47.0547270" lon="6.6456150">
        <ele>883.8</ele>
        <time>2022-07-21T16:41:29Z</time>
      </trkpt>
      <trkpt lat="47.0547330" lon="6.6455980">
        <ele>883.6</ele>
        <time>2022-07-21T16:41:30Z</time>
      </trkpt>
      <trkpt lat="47.0547440" lon="6.6455830">
        <ele>883.5</ele>
        <time>2022-07-21T16:41:31Z</time>
      </trkpt>
      <trkpt lat="47.0547460" lon="6.6455760">
        <ele>883.5</ele>
        <time>2022-07-21T16:41:32Z</time>
      </trkpt>
      <trkpt lat="47.0547450" lon="6.6455770">
        <ele>883.5</ele>
        <time>2022-07-21T16:41:33Z</time>
      </trkpt>
      <trkpt lat="47.0547440" lon="6.6455790">
        <ele>883.4</ele>
        <time>2022-07-21T16:41:34Z</time>
      </trkpt>
      <trkpt lat="47.0547440" lon="6.6455820">
        <ele>883.4</ele>
        <time>2022-07-21T16:41:35Z</time>
      </trkpt>
      <trkpt lat="47.0547420" lon="6.6455860">
        <ele>883.4</ele>
        <time>2022-07-21T16:41:36Z</time>
      </trkpt>
      <trkpt lat="47.0547410" lon="6.6455880">
        <ele>883.4</ele>
        <time>2022-07-21T16:41:37Z</time>
      </trkpt>
      <trkpt lat="47.0547400" lon="6.6455900">
        <ele>883.4</ele>
        <time>2022-07-21T16:41:38Z</time>
      </trkpt>
      <trkpt lat="47.0547390" lon="6.6455930">
        <ele>883.3</ele>
        <time>2022-07-21T16:41:39Z</time>
      </trkpt>
      <trkpt lat="47.0547200" lon="6.6456370">
        <ele>883.0</ele>
        <time>2022-07-21T16:41:47Z</time>
      </trkpt>
      <trkpt lat="47.0547190" lon="6.6456390">
        <ele>883.0</ele>
        <time>2022-07-21T16:41:48Z</time>
      </trkpt>
      <trkpt lat="47.0547190" lon="6.6456390">
        <ele>883.0</ele>
        <time>2022-07-21T16:41:49Z</time>
      </trkpt>
      <trkpt lat="47.0547190" lon="6.6456390">
        <ele>883.0</ele>
        <time>2022-07-21T16:41:50Z</time>
      </trkpt>
      <trkpt lat="47.0547190" lon="6.6456380">
        <ele>883.0</ele>
        <time>2022-07-21T16:41:51Z</time>
      </trkpt>
      <trkpt lat="47.0547190" lon="6.6456380">
        <ele>883.0</ele>
        <time>2022-07-21T16:41:52Z</time>
      </trkpt>
      <trkpt lat="47.0547140" lon="6.6456200">
        <ele>882.9</ele>
        <time>2022-07-21T16:41:53Z</time>
      </trkpt>
      <trkpt lat="47.0547090" lon="6.6455920">
        <ele>882.8</ele>
        <time>2022-07-21T16:41:54Z</time>
      </trkpt>
      <trkpt lat="47.0547090" lon="6.6455580">
        <ele>882.6</ele>
        <time>2022-07-21T16:41:55Z</time>
      </trkpt>
      <trkpt lat="47.0547030" lon="6.6455230">
        <ele>882.4</ele>
        <time>2022-07-21T16:41:57Z</time>
      </trkpt>
      <trkpt lat="47.0546970" lon="6.6454780">
        <ele>882.1</ele>
        <time>2022-07-21T16:41:58Z</time>
      </trkpt>
      <trkpt lat="47.0546930" lon="6.6454660">
        <ele>882.0</ele>
        <time>2022-07-21T16:41:59Z</time>
      </trkpt>
      <trkpt lat="47.0546840" lon="6.6454240">
        <ele>881.8</ele>
        <time>2022-07-21T16:42:00Z</time>
      </trkpt>
      <trkpt lat="47.0546000" lon="6.6453660">
        <ele>881.0</ele>
        <time>2022-07-21T16:42:01Z</time>
      </trkpt>
      <trkpt lat="47.0545340" lon="6.6452970">
        <ele>880.3</ele>
        <time>2022-07-21T16:42:02Z</time>
      </trkpt>
      <trkpt lat="47.0544950" lon="6.6452480">
        <ele>879.9</ele>
        <time>2022-07-21T16:42:03Z</time>
      </trkpt>
      <trkpt lat="47.0544330" lon="6.6452100">
        <ele>879.4</ele>
        <time>2022-07-21T16:42:04Z</time>
      </trkpt>
      <trkpt lat="47.0544010" lon="6.6451940">
        <ele>879.1</ele>
        <time>2022-07-21T16:42:05Z</time>
      </trkpt>
      <trkpt lat="47.0543870" lon="6.6451490">
        <ele>878.8</ele>
        <time>2022-07-21T16:42:06Z</time>
      </trkpt>
      <trkpt lat="47.0543420" lon="6.6450960">
        <ele>878.4</ele>
        <time>2022-07-21T16:42:08Z</time>
      </trkpt>
      <trkpt lat="47.0542690" lon="6.6449950">
        <ele>877.6</ele>
        <time>2022-07-21T16:42:09Z</time>
      </trkpt>
      <trkpt lat="47.0542230" lon="6.6449480">
        <ele>877.2</ele>
        <time>2022-07-21T16:42:10Z</time>
      </trkpt>
      <trkpt lat="47.0541730" lon="6.6449020">
        <ele>876.7</ele>
        <time>2022-07-21T16:42:11Z</time>
      </trkpt>
      <trkpt lat="47.0541310" lon="6.6448640">
        <ele>876.3</ele>
        <time>2022-07-21T16:42:12Z</time>
      </trkpt>
      <trkpt lat="47.0540920" lon="6.6448280">
        <ele>875.9</ele>
        <time>2022-07-21T16:42:13Z</time>
      </trkpt>
      <trkpt lat="47.0540530" lon="6.6447990">
        <ele>875.6</ele>
        <time>2022-07-21T16:42:14Z</time>
      </trkpt>
      <trkpt lat="47.0539970" lon="6.6447640">
        <ele>875.1</ele>
        <time>2022-07-21T16:42:15Z</time>
      </trkpt>
      <trkpt lat="47.0539420" lon="6.6447250">
        <ele>874.6</ele>
        <time>2022-07-21T16:42:16Z</time>
      </trkpt>
      <trkpt lat="47.0538930" lon="6.6446830">
        <ele>874.1</ele>
        <time>2022-07-21T16:42:17Z</time>
      </trkpt>
      <trkpt lat="47.0538540" lon="6.6446420">
        <ele>873.7</ele>
        <time>2022-07-21T16:42:18Z</time>
      </trkpt>
      <trkpt lat="47.0538260" lon="6.6446060">
        <ele>873.4</ele>
        <time>2022-07-21T16:42:19Z</time>
      </trkpt>
      <trkpt lat="47.0538170" lon="6.6445680">
        <ele>873.1</ele>
        <time>2022-07-21T16:42:20Z</time>
      </trkpt>
      <trkpt lat="47.0537510" lon="6.6445270">
        <ele>872.5</ele>
        <time>2022-07-21T16:42:21Z</time>
      </trkpt>
      <trkpt lat="47.0536850" lon="6.6444850">
        <ele>871.9</ele>
        <time>2022-07-21T16:42:22Z</time>
      </trkpt>
      <trkpt lat="47.0536430" lon="6.6444510">
        <ele>871.5</ele>
        <time>2022-07-21T16:42:23Z</time>
      </trkpt>
      <trkpt lat="47.0536040" lon="6.6444200">
        <ele>871.1</ele>
        <time>2022-07-21T16:42:24Z</time>
      </trkpt>
      <trkpt lat="47.0535170" lon="6.6443500">
        <ele>870.2</ele>
        <time>2022-07-21T16:42:26Z</time>
      </trkpt>
      <trkpt lat="47.0534800" lon="6.6443130">
        <ele>869.8</ele>
        <time>2022-07-21T16:42:27Z</time>
      </trkpt>
      <trkpt lat="47.0534640" lon="6.6443070">
        <ele>869.7</ele>
        <time>2022-07-21T16:42:28Z</time>
      </trkpt>
      <trkpt lat="47.0534550" lon="6.6442940">
        <ele>869.6</ele>
        <time>2022-07-21T16:42:29Z</time>
      </trkpt>
      <trkpt lat="47.0534450" lon="6.6442810">
        <ele>869.5</ele>
        <time>2022-07-21T16:42:31Z</time>
      </trkpt>
      <trkpt lat="47.0534350" lon="6.6442680">
        <ele>869.4</ele>
        <time>2022-07-21T16:42:32Z</time>
      </trkpt>
      <trkpt lat="47.0534090" lon="6.6442530">
        <ele>869.1</ele>
        <time>2022-07-21T16:42:33Z</time>
      </trkpt>
      <trkpt lat="47.0533780" lon="6.6442210">
        <ele>868.8</ele>
        <time>2022-07-21T16:42:34Z</time>
      </trkpt>
      <trkpt lat="47.0533460" lon="6.6441890">
        <ele>868.4</ele>
        <time>2022-07-21T16:42:35Z</time>
      </trkpt>
      <trkpt lat="47.0533350" lon="6.6441760">
        <ele>868.3</ele>
        <time>2022-07-21T16:42:36Z</time>
      </trkpt>
      <trkpt lat="47.0533140" lon="6.6441600">
        <ele>868.1</ele>
        <time>2022-07-21T16:42:37Z</time>
      </trkpt>
      <trkpt lat="47.0532860" lon="6.6441170">
        <ele>867.7</ele>
        <time>2022-07-21T16:42:39Z</time>
      </trkpt>
      <trkpt lat="47.0532670" lon="6.6440840">
        <ele>867.5</ele>
        <time>2022-07-21T16:42:40Z</time>
      </trkpt>
      <trkpt lat="47.0532480" lon="6.6440460">
        <ele>867.3</ele>
        <time>2022-07-21T16:42:41Z</time>
      </trkpt>
      <trkpt lat="47.0532080" lon="6.6439870">
        <ele>866.9</ele>
        <time>2022-07-21T16:42:42Z</time>
      </trkpt>
      <trkpt lat="47.0531690" lon="6.6439220">
        <ele>866.6</ele>
        <time>2022-07-21T16:42:44Z</time>
      </trkpt>
      <trkpt lat="47.0531360" lon="6.6438660">
        <ele>866.4</ele>
        <time>2022-07-21T16:42:45Z</time>
      </trkpt>
      <trkpt lat="47.0531130" lon="6.6438130">
        <ele>866.2</ele>
        <time>2022-07-21T16:42:46Z</time>
      </trkpt>
      <trkpt lat="47.0530980" lon="6.6437700">
        <ele>866.2</ele>
        <time>2022-07-21T16:42:47Z</time>
      </trkpt>
      <trkpt lat="47.0530830" lon="6.6437070">
        <ele>866.1</ele>
        <time>2022-07-21T16:42:49Z</time>
      </trkpt>
      <trkpt lat="47.0530590" lon="6.6436480">
        <ele>866.0</ele>
        <time>2022-07-21T16:42:50Z</time>
      </trkpt>
      <trkpt lat="47.0530050" lon="6.6435780">
        <ele>865.9</ele>
        <time>2022-07-21T16:42:51Z</time>
      </trkpt>
      <trkpt lat="47.0529680" lon="6.6435170">
        <ele>865.8</ele>
        <time>2022-07-21T16:42:53Z</time>
      </trkpt>
      <trkpt lat="47.0529450" lon="6.6434640">
        <ele>865.8</ele>
        <time>2022-07-21T16:42:54Z</time>
      </trkpt>
      <trkpt lat="47.0529210" lon="6.6434130">
        <ele>865.7</ele>
        <time>2022-07-21T16:42:55Z</time>
      </trkpt>
      <trkpt lat="47.0528820" lon="6.6433470">
        <ele>865.7</ele>
        <time>2022-07-21T16:42:56Z</time>
      </trkpt>
      <trkpt lat="47.0528570" lon="6.6433040">
        <ele>865.7</ele>
        <time>2022-07-21T16:42:57Z</time>
      </trkpt>
      <trkpt lat="47.0528250" lon="6.6432550">
        <ele>865.7</ele>
        <time>2022-07-21T16:42:59Z</time>
      </trkpt>
      <trkpt lat="47.0527920" lon="6.6432130">
        <ele>865.7</ele>
        <time>2022-07-21T16:43:00Z</time>
      </trkpt>
      <trkpt lat="47.0527540" lon="6.6431670">
        <ele>865.8</ele>
        <time>2022-07-21T16:43:01Z</time>
      </trkpt>
      <trkpt lat="47.0527100" lon="6.6431040">
        <ele>865.9</ele>
        <time>2022-07-21T16:43:03Z</time>
      </trkpt>
      <trkpt lat="47.0526910" lon="6.6430710">
        <ele>866.0</ele>
        <time>2022-07-21T16:43:04Z</time>
      </trkpt>
      <trkpt lat="47.0526680" lon="6.6430350">
        <ele>866.2</ele>
        <time>2022-07-21T16:43:05Z</time>
      </trkpt>
      <trkpt lat="47.0526600" lon="6.6430240">
        <ele>866.2</ele>
        <time>2022-07-21T16:43:06Z</time>
      </trkpt>
      <trkpt lat="47.0526350" lon="6.6430050">
        <ele>866.4</ele>
        <time>2022-07-21T16:43:07Z</time>
      </trkpt>
      <trkpt lat="47.0526120" lon="6.6429840">
        <ele>866.5</ele>
        <time>2022-07-21T16:43:08Z</time>
      </trkpt>
      <trkpt lat="47.0525900" lon="6.6429500">
        <ele>866.7</ele>
        <time>2022-07-21T16:43:10Z</time>
      </trkpt>
      <trkpt lat="47.0525840" lon="6.6429400">
        <ele>866.7</ele>
        <time>2022-07-21T16:43:11Z</time>
      </trkpt>
      <trkpt lat="47.0525740" lon="6.6429250">
        <ele>866.8</ele>
        <time>2022-07-21T16:43:12Z</time>
      </trkpt>
      <trkpt lat="47.0525700" lon="6.6429130">
        <ele>866.8</ele>
        <time>2022-07-21T16:43:13Z</time>
      </trkpt>
      <trkpt lat="47.0525690" lon="6.6429040">
        <ele>866.9</ele>
        <time>2022-07-21T16:43:14Z</time>
      </trkpt>
      <trkpt lat="47.0525660" lon="6.6428910">
        <ele>866.9</ele>
        <time>2022-07-21T16:43:15Z</time>
      </trkpt>
      <trkpt lat="47.0525610" lon="6.6428760">
        <ele>867.0</ele>
        <time>2022-07-21T16:43:16Z</time>
      </trkpt>
      <trkpt lat="47.0525550" lon="6.6428630">
        <ele>867.1</ele>
        <time>2022-07-21T16:43:18Z</time>
      </trkpt>
      <trkpt lat="47.0525490" lon="6.6428460">
        <ele>867.1</ele>
        <time>2022-07-21T16:43:19Z</time>
      </trkpt>
      <trkpt lat="47.0525390" lon="6.6428190">
        <ele>867.3</ele>
        <time>2022-07-21T16:43:21Z</time>
      </trkpt>
      <trkpt lat="47.0525320" lon="6.6428080">
        <ele>867.4</ele>
        <time>2022-07-21T16:43:22Z</time>
      </trkpt>
      <trkpt lat="47.0525260" lon="6.6427990">
        <ele>867.4</ele>
        <time>2022-07-21T16:43:23Z</time>
      </trkpt>
      <trkpt lat="47.0525160" lon="6.6427780">
        <ele>867.5</ele>
        <time>2022-07-21T16:43:24Z</time>
      </trkpt>
      <trkpt lat="47.0525010" lon="6.6427580">
        <ele>867.7</ele>
        <time>2022-07-21T16:43:25Z</time>
      </trkpt>
      <trkpt lat="47.0524940" lon="6.6427490">
        <ele>867.8</ele>
        <time>2022-07-21T16:43:27Z</time>
      </trkpt>
      <trkpt lat="47.0524880" lon="6.6427400">
        <ele>867.8</ele>
        <time>2022-07-21T16:43:28Z</time>
      </trkpt>
      <trkpt lat="47.0524820" lon="6.6427310">
        <ele>867.9</ele>
        <time>2022-07-21T16:43:29Z</time>
      </trkpt>
      <trkpt lat="47.0524720" lon="6.6427190">
        <ele>868.0</ele>
        <time>2022-07-21T16:43:30Z</time>
      </trkpt>
      <trkpt lat="47.0524650" lon="6.6427110">
        <ele>868.1</ele>
        <time>2022-07-21T16:43:31Z</time>
      </trkpt>
      <trkpt lat="47.0524600" lon="6.6427030">
        <ele>868.1</ele>
        <time>2022-07-21T16:43:32Z</time>
      </trkpt>
      <trkpt lat="47.0524520" lon="6.6426860">
        <ele>868.3</ele>
        <time>2022-07-21T16:43:33Z</time>
      </trkpt>
      <trkpt lat="47.0524470" lon="6.6426750">
        <ele>868.3</ele>
        <time>2022-07-21T16:43:34Z</time>
      </trkpt>
      <trkpt lat="47.0524370" lon="6.6426590">
        <ele>868.4</ele>
        <time>2022-07-21T16:43:35Z</time>
      </trkpt>
      <trkpt lat="47.0524260" lon="6.6426380">
        <ele>868.6</ele>
        <time>2022-07-21T16:43:36Z</time>
      </trkpt>
      <trkpt lat="47.0524120" lon="6.6426140">
        <ele>868.8</ele>
        <time>2022-07-21T16:43:37Z</time>
      </trkpt>
      <trkpt lat="47.0524050" lon="6.6426040">
        <ele>868.9</ele>
        <time>2022-07-21T16:43:38Z</time>
      </trkpt>
      <trkpt lat="47.0523990" lon="6.6425930">
        <ele>869.0</ele>
        <time>2022-07-21T16:43:39Z</time>
      </trkpt>
      <trkpt lat="47.0523900" lon="6.6425770">
        <ele>869.1</ele>
        <time>2022-07-21T16:43:40Z</time>
      </trkpt>
      <trkpt lat="47.0523760" lon="6.6425550">
        <ele>869.2</ele>
        <time>2022-07-21T16:43:42Z</time>
      </trkpt>
      <trkpt lat="47.0523670" lon="6.6425450">
        <ele>869.3</ele>
        <time>2022-07-21T16:43:43Z</time>
      </trkpt>
      <trkpt lat="47.0523610" lon="6.6425360">
        <ele>869.4</ele>
        <time>2022-07-21T16:43:44Z</time>
      </trkpt>
      <trkpt lat="47.0523540" lon="6.6425290">
        <ele>869.5</ele>
        <time>2022-07-21T16:43:45Z</time>
      </trkpt>
      <trkpt lat="47.0523440" lon="6.6425190">
        <ele>869.6</ele>
        <time>2022-07-21T16:43:46Z</time>
      </trkpt>
      <trkpt lat="47.0523300" lon="6.6425020">
        <ele>869.8</ele>
        <time>2022-07-21T16:43:48Z</time>
      </trkpt>
      <trkpt lat="47.0523190" lon="6.6424930">
        <ele>869.9</ele>
        <time>2022-07-21T16:43:49Z</time>
      </trkpt>
      <trkpt lat="47.0523060" lon="6.6424820">
        <ele>870.0</ele>
        <time>2022-07-21T16:43:50Z</time>
      </trkpt>
      <trkpt lat="47.0522880" lon="6.6424590">
        <ele>870.2</ele>
        <time>2022-07-21T16:43:51Z</time>
      </trkpt>
      <trkpt lat="47.0522780" lon="6.6424330">
        <ele>870.3</ele>
        <time>2022-07-21T16:43:53Z</time>
      </trkpt>
      <trkpt lat="47.0522610" lon="6.6424020">
        <ele>870.5</ele>
        <time>2022-07-21T16:43:54Z</time>
      </trkpt>
      <trkpt lat="47.0522540" lon="6.6423920">
        <ele>870.6</ele>
        <time>2022-07-21T16:43:55Z</time>
      </trkpt>
      <trkpt lat="47.0522300" lon="6.6423590">
        <ele>870.9</ele>
        <time>2022-07-21T16:43:56Z</time>
      </trkpt>
      <trkpt lat="47.0522170" lon="6.6423430">
        <ele>871.0</ele>
        <time>2022-07-21T16:43:57Z</time>
      </trkpt>
      <trkpt lat="47.0521930" lon="6.6423140">
        <ele>871.2</ele>
        <time>2022-07-21T16:43:58Z</time>
      </trkpt>
      <trkpt lat="47.0521780" lon="6.6422930">
        <ele>871.3</ele>
        <time>2022-07-21T16:43:59Z</time>
      </trkpt>
      <trkpt lat="47.0521690" lon="6.6422790">
        <ele>871.4</ele>
        <time>2022-07-21T16:44:00Z</time>
      </trkpt>
      <trkpt lat="47.0521600" lon="6.6422660">
        <ele>871.4</ele>
        <time>2022-07-21T16:44:01Z</time>
      </trkpt>
      <trkpt lat="47.0521420" lon="6.6422340">
        <ele>871.6</ele>
        <time>2022-07-21T16:44:03Z</time>
      </trkpt>
      <trkpt lat="47.0521230" lon="6.6422000">
        <ele>871.7</ele>
        <time>2022-07-21T16:44:04Z</time>
      </trkpt>
      <trkpt lat="47.0521160" lon="6.6421890">
        <ele>871.7</ele>
        <time>2022-07-21T16:44:05Z</time>
      </trkpt>
      <trkpt lat="47.0520920" lon="6.6421410">
        <ele>871.9</ele>
        <time>2022-07-21T16:44:06Z</time>
      </trkpt>
      <trkpt lat="47.0520840" lon="6.6421200">
        <ele>871.9</ele>
        <time>2022-07-21T16:44:07Z</time>
      </trkpt>
      <trkpt lat="47.0520660" lon="6.6420670">
        <ele>872.0</ele>
        <time>2022-07-21T16:44:08Z</time>
      </trkpt>
      <trkpt lat="47.0520580" lon="6.6420480">
        <ele>872.1</ele>
        <time>2022-07-21T16:44:09Z</time>
      </trkpt>
      <trkpt lat="47.0520320" lon="6.6420090">
        <ele>872.2</ele>
        <time>2022-07-21T16:44:11Z</time>
      </trkpt>
      <trkpt lat="47.0520120" lon="6.6419720">
        <ele>872.2</ele>
        <time>2022-07-21T16:44:12Z</time>
      </trkpt>
      <trkpt lat="47.0520060" lon="6.6419600">
        <ele>872.3</ele>
        <time>2022-07-21T16:44:13Z</time>
      </trkpt>
      <trkpt lat="47.0519920" lon="6.6419140">
        <ele>872.3</ele>
        <time>2022-07-21T16:44:14Z</time>
      </trkpt>
      <trkpt lat="47.0519710" lon="6.6418660">
        <ele>872.4</ele>
        <time>2022-07-21T16:44:16Z</time>
      </trkpt>
      <trkpt lat="47.0519540" lon="6.6418240">
        <ele>872.5</ele>
        <time>2022-07-21T16:44:17Z</time>
      </trkpt>
      <trkpt lat="47.0519460" lon="6.6417880">
        <ele>872.6</ele>
        <time>2022-07-21T16:44:18Z</time>
      </trkpt>
      <trkpt lat="47.0519340" lon="6.6417350">
        <ele>872.7</ele>
        <time>2022-07-21T16:44:20Z</time>
      </trkpt>
      <trkpt lat="47.0519100" lon="6.6416910">
        <ele>872.8</ele>
        <time>2022-07-21T16:44:21Z</time>
      </trkpt>
      <trkpt lat="47.0519010" lon="6.6416730">
        <ele>872.9</ele>
        <time>2022-07-21T16:44:22Z</time>
      </trkpt>
      <trkpt lat="47.0518810" lon="6.6416250">
        <ele>873.0</ele>
        <time>2022-07-21T16:44:23Z</time>
      </trkpt>
      <trkpt lat="47.0518760" lon="6.6416100">
        <ele>873.0</ele>
        <time>2022-07-21T16:44:24Z</time>
      </trkpt>
      <trkpt lat="47.0518570" lon="6.6415660">
        <ele>873.1</ele>
        <time>2022-07-21T16:44:25Z</time>
      </trkpt>
      <trkpt lat="47.0518350" lon="6.6415030">
        <ele>873.2</ele>
        <time>2022-07-21T16:44:27Z</time>
      </trkpt>
      <trkpt lat="47.0518270" lon="6.6414850">
        <ele>873.2</ele>
        <time>2022-07-21T16:44:28Z</time>
      </trkpt>
      <trkpt lat="47.0518190" lon="6.6414670">
        <ele>873.3</ele>
        <time>2022-07-21T16:44:29Z</time>
      </trkpt>
      <trkpt lat="47.0517980" lon="6.6414300">
        <ele>873.3</ele>
        <time>2022-07-21T16:44:30Z</time>
      </trkpt>
      <trkpt lat="47.0517770" lon="6.6413990">
        <ele>873.4</ele>
        <time>2022-07-21T16:44:31Z</time>
      </trkpt>
      <trkpt lat="47.0517700" lon="6.6413860">
        <ele>873.4</ele>
        <time>2022-07-21T16:44:32Z</time>
      </trkpt>
      <trkpt lat="47.0517530" lon="6.6413430">
        <ele>873.5</ele>
        <time>2022-07-21T16:44:33Z</time>
      </trkpt>
      <trkpt lat="47.0517470" lon="6.6413310">
        <ele>873.5</ele>
        <time>2022-07-21T16:44:34Z</time>
      </trkpt>
      <trkpt lat="47.0517270" lon="6.6412850">
        <ele>873.5</ele>
        <time>2022-07-21T16:44:35Z</time>
      </trkpt>
      <trkpt lat="47.0517200" lon="6.6412690">
        <ele>873.5</ele>
        <time>2022-07-21T16:44:36Z</time>
      </trkpt>
      <trkpt lat="47.0517090" lon="6.6412440">
        <ele>873.6</ele>
        <time>2022-07-21T16:44:37Z</time>
      </trkpt>
      <trkpt lat="47.0516850" lon="6.6412040">
        <ele>873.6</ele>
        <time>2022-07-21T16:44:39Z</time>
      </trkpt>
      <trkpt lat="47.0516630" lon="6.6411670">
        <ele>873.7</ele>
        <time>2022-07-21T16:44:40Z</time>
      </trkpt>
      <trkpt lat="47.0516570" lon="6.6411530">
        <ele>873.7</ele>
        <time>2022-07-21T16:44:41Z</time>
      </trkpt>
      <trkpt lat="47.0516340" lon="6.6411110">
        <ele>873.7</ele>
        <time>2022-07-21T16:44:43Z</time>
      </trkpt>
      <trkpt lat="47.0516120" lon="6.6410780">
        <ele>873.7</ele>
        <time>2022-07-21T16:44:44Z</time>
      </trkpt>
      <trkpt lat="47.0515910" lon="6.6410360">
        <ele>873.7</ele>
        <time>2022-07-21T16:44:45Z</time>
      </trkpt>
      <trkpt lat="47.0515740" lon="6.6410020">
        <ele>873.7</ele>
        <time>2022-07-21T16:44:46Z</time>
      </trkpt>
      <trkpt lat="47.0515630" lon="6.6409760">
        <ele>873.7</ele>
        <time>2022-07-21T16:44:47Z</time>
      </trkpt>
      <trkpt lat="47.0515520" lon="6.6409390">
        <ele>873.7</ele>
        <time>2022-07-21T16:44:49Z</time>
      </trkpt>
      <trkpt lat="47.0515460" lon="6.6409000">
        <ele>873.6</ele>
        <time>2022-07-21T16:44:50Z</time>
      </trkpt>
      <trkpt lat="47.0515360" lon="6.6408610">
        <ele>873.6</ele>
        <time>2022-07-21T16:44:51Z</time>
      </trkpt>
      <trkpt lat="47.0515190" lon="6.6408250">
        <ele>873.6</ele>
        <time>2022-07-21T16:44:52Z</time>
      </trkpt>
      <trkpt lat="47.0515010" lon="6.6407900">
        <ele>873.5</ele>
        <time>2022-07-21T16:44:53Z</time>
      </trkpt>
      <trkpt lat="47.0514780" lon="6.6407520">
        <ele>873.5</ele>
        <time>2022-07-21T16:44:54Z</time>
      </trkpt>
      <trkpt lat="47.0514550" lon="6.6407170">
        <ele>873.4</ele>
        <time>2022-07-21T16:44:55Z</time>
      </trkpt>
      <trkpt lat="47.0514240" lon="6.6406720">
        <ele>873.3</ele>
        <time>2022-07-21T16:44:56Z</time>
      </trkpt>
      <trkpt lat="47.0513920" lon="6.6406280">
        <ele>873.1</ele>
        <time>2022-07-21T16:44:57Z</time>
      </trkpt>
      <trkpt lat="47.0513430" lon="6.6405730">
        <ele>872.9</ele>
        <time>2022-07-21T16:44:58Z</time>
      </trkpt>
      <trkpt lat="47.0512950" lon="6.6405250">
        <ele>872.7</ele>
        <time>2022-07-21T16:44:59Z</time>
      </trkpt>
      <trkpt lat="47.0511930" lon="6.6403700">
        <ele>872.0</ele>
        <time>2022-07-21T16:45:01Z</time>
      </trkpt>
      <trkpt lat="47.0511550" lon="6.6402940">
        <ele>871.6</ele>
        <time>2022-07-21T16:45:02Z</time>
      </trkpt>
      <trkpt lat="47.0511230" lon="6.6402230">
        <ele>871.3</ele>
        <time>2022-07-21T16:45:03Z</time>
      </trkpt>
      <trkpt lat="47.0510850" lon="6.6401580">
        <ele>871.0</ele>
        <time>2022-07-21T16:45:04Z</time>
      </trkpt>
      <trkpt lat="47.0510530" lon="6.6400920">
        <ele>870.7</ele>
        <time>2022-07-21T16:45:05Z</time>
      </trkpt>
      <trkpt lat="47.0510190" lon="6.6400210">
        <ele>870.4</ele>
        <time>2022-07-21T16:45:06Z</time>
      </trkpt>
      <trkpt lat="47.0509970" lon="6.6399600">
        <ele>870.2</ele>
        <time>2022-07-21T16:45:07Z</time>
      </trkpt>
      <trkpt lat="47.0509810" lon="6.6399040">
        <ele>870.0</ele>
        <time>2022-07-21T16:45:08Z</time>
      </trkpt>
      <trkpt lat="47.0509380" lon="6.6398390">
        <ele>869.6</ele>
        <time>2022-07-21T16:45:09Z</time>
      </trkpt>
      <trkpt lat="47.0508920" lon="6.6397710">
        <ele>869.3</ele>
        <time>2022-07-21T16:45:10Z</time>
      </trkpt>
      <trkpt lat="47.0508510" lon="6.6397010">
        <ele>869.0</ele>
        <time>2022-07-21T16:45:11Z</time>
      </trkpt>
      <trkpt lat="47.0508090" lon="6.6396370">
        <ele>868.6</ele>
        <time>2022-07-21T16:45:12Z</time>
      </trkpt>
      <trkpt lat="47.0507710" lon="6.6395540">
        <ele>868.3</ele>
        <time>2022-07-21T16:45:13Z</time>
      </trkpt>
      <trkpt lat="47.0507250" lon="6.6394580">
        <ele>867.9</ele>
        <time>2022-07-21T16:45:14Z</time>
      </trkpt>
      <trkpt lat="47.0506740" lon="6.6393770">
        <ele>867.5</ele>
        <time>2022-07-21T16:45:15Z</time>
      </trkpt>
      <trkpt lat="47.0506200" lon="6.6393000">
        <ele>867.2</ele>
        <time>2022-07-21T16:45:16Z</time>
      </trkpt>
      <trkpt lat="47.0505680" lon="6.6392120">
        <ele>866.8</ele>
        <time>2022-07-21T16:45:17Z</time>
      </trkpt>
      <trkpt lat="47.0505210" lon="6.6391280">
        <ele>866.5</ele>
        <time>2022-07-21T16:45:18Z</time>
      </trkpt>
      <trkpt lat="47.0504820" lon="6.6390440">
        <ele>866.3</ele>
        <time>2022-07-21T16:45:19Z</time>
      </trkpt>
      <trkpt lat="47.0504450" lon="6.6389620">
        <ele>866.1</ele>
        <time>2022-07-21T16:45:20Z</time>
      </trkpt>
      <trkpt lat="47.0504190" lon="6.6388820">
        <ele>865.9</ele>
        <time>2022-07-21T16:45:21Z</time>
      </trkpt>
      <trkpt lat="47.0504020" lon="6.6388000">
        <ele>865.8</ele>
        <time>2022-07-21T16:45:22Z</time>
      </trkpt>
      <trkpt lat="47.0503810" lon="6.6387260">
        <ele>865.6</ele>
        <time>2022-07-21T16:45:23Z</time>
      </trkpt>
      <trkpt lat="47.0503770" lon="6.6386680">
        <ele>865.5</ele>
        <time>2022-07-21T16:45:24Z</time>
      </trkpt>
      <trkpt lat="47.0503620" lon="6.6386110">
        <ele>865.5</ele>
        <time>2022-07-21T16:45:25Z</time>
      </trkpt>
      <trkpt lat="47.0503500" lon="6.6385600">
        <ele>865.4</ele>
        <time>2022-07-21T16:45:26Z</time>
      </trkpt>
      <trkpt lat="47.0503450" lon="6.6385070">
        <ele>865.3</ele>
        <time>2022-07-21T16:45:27Z</time>
      </trkpt>
      <trkpt lat="47.0503580" lon="6.6384560">
        <ele>865.3</ele>
        <time>2022-07-21T16:45:28Z</time>
      </trkpt>
      <trkpt lat="47.0503690" lon="6.6384070">
        <ele>865.2</ele>
        <time>2022-07-21T16:45:29Z</time>
      </trkpt>
      <trkpt lat="47.0503760" lon="6.6383640">
        <ele>865.1</ele>
        <time>2022-07-21T16:45:30Z</time>
      </trkpt>
      <trkpt lat="47.0503750" lon="6.6383480">
        <ele>865.1</ele>
        <time>2022-07-21T16:45:31Z</time>
      </trkpt>
      <trkpt lat="47.0503720" lon="6.6382980">
        <ele>865.0</ele>
        <time>2022-07-21T16:45:32Z</time>
      </trkpt>
      <trkpt lat="47.0503580" lon="6.6382380">
        <ele>864.9</ele>
        <time>2022-07-21T16:45:34Z</time>
      </trkpt>
      <trkpt lat="47.0503400" lon="6.6381670">
        <ele>864.8</ele>
        <time>2022-07-21T16:45:35Z</time>
      </trkpt>
      <trkpt lat="47.0503260" lon="6.6380870">
        <ele>864.6</ele>
        <time>2022-07-21T16:45:36Z</time>
      </trkpt>
      <trkpt lat="47.0503280" lon="6.6379230">
        <ele>864.3</ele>
        <time>2022-07-21T16:45:38Z</time>
      </trkpt>
      <trkpt lat="47.0503400" lon="6.6378670">
        <ele>864.2</ele>
        <time>2022-07-21T16:45:39Z</time>
      </trkpt>
      <trkpt lat="47.0503240" lon="6.6377970">
        <ele>864.1</ele>
        <time>2022-07-21T16:45:40Z</time>
      </trkpt>
      <trkpt lat="47.0503130" lon="6.6377530">
        <ele>864.0</ele>
        <time>2022-07-21T16:45:41Z</time>
      </trkpt>
      <trkpt lat="47.0502760" lon="6.6376830">
        <ele>863.8</ele>
        <time>2022-07-21T16:45:42Z</time>
      </trkpt>
      <trkpt lat="47.0502580" lon="6.6376500">
        <ele>863.7</ele>
        <time>2022-07-21T16:45:43Z</time>
      </trkpt>
      <trkpt lat="47.0502630" lon="6.6376210">
        <ele>863.6</ele>
        <time>2022-07-21T16:45:44Z</time>
      </trkpt>
      <trkpt lat="47.0502440" lon="6.6375430">
        <ele>863.5</ele>
        <time>2022-07-21T16:45:46Z</time>
      </trkpt>
      <trkpt lat="47.0502150" lon="6.6374760">
        <ele>863.3</ele>
        <time>2022-07-21T16:45:47Z</time>
      </trkpt>
      <trkpt lat="47.0501880" lon="6.6374220">
        <ele>863.2</ele>
        <time>2022-07-21T16:45:48Z</time>
      </trkpt>
      <trkpt lat="47.0501490" lon="6.6373510">
        <ele>863.0</ele>
        <time>2022-07-21T16:45:49Z</time>
      </trkpt>
      <trkpt lat="47.0500970" lon="6.6372450">
        <ele>862.7</ele>
        <time>2022-07-21T16:45:51Z</time>
      </trkpt>
      <trkpt lat="47.0500090" lon="6.6371100">
        <ele>862.2</ele>
        <time>2022-07-21T16:45:52Z</time>
      </trkpt>
      <trkpt lat="47.0499530" lon="6.6370310">
        <ele>861.8</ele>
        <time>2022-07-21T16:45:53Z</time>
      </trkpt>
      <trkpt lat="47.0499040" lon="6.6369600">
        <ele>861.4</ele>
        <time>2022-07-21T16:45:54Z</time>
      </trkpt>
      <trkpt lat="47.0498510" lon="6.6368980">
        <ele>861.0</ele>
        <time>2022-07-21T16:45:55Z</time>
      </trkpt>
      <trkpt lat="47.0498040" lon="6.6368380">
        <ele>860.5</ele>
        <time>2022-07-21T16:45:56Z</time>
      </trkpt>
      <trkpt lat="47.0497510" lon="6.6367830">
        <ele>860.1</ele>
        <time>2022-07-21T16:45:57Z</time>
      </trkpt>
      <trkpt lat="47.0497020" lon="6.6367180">
        <ele>859.6</ele>
        <time>2022-07-21T16:45:58Z</time>
      </trkpt>
      <trkpt lat="47.0496630" lon="6.6366630">
        <ele>859.1</ele>
        <time>2022-07-21T16:45:59Z</time>
      </trkpt>
      <trkpt lat="47.0496320" lon="6.6366110">
        <ele>858.6</ele>
        <time>2022-07-21T16:46:00Z</time>
      </trkpt>
      <trkpt lat="47.0495970" lon="6.6365690">
        <ele>858.1</ele>
        <time>2022-07-21T16:46:01Z</time>
      </trkpt>
      <trkpt lat="47.0495580" lon="6.6365340">
        <ele>857.5</ele>
        <time>2022-07-21T16:46:02Z</time>
      </trkpt>
      <trkpt lat="47.0495090" lon="6.6364650">
        <ele>856.7</ele>
        <time>2022-07-21T16:46:03Z</time>
      </trkpt>
      <trkpt lat="47.0494620" lon="6.6364010">
        <ele>855.9</ele>
        <time>2022-07-21T16:46:04Z</time>
      </trkpt>
      <trkpt lat="47.0494180" lon="6.6363330">
        <ele>855.1</ele>
        <time>2022-07-21T16:46:05Z</time>
      </trkpt>
      <trkpt lat="47.0493730" lon="6.6362710">
        <ele>854.4</ele>
        <time>2022-07-21T16:46:06Z</time>
      </trkpt>
      <trkpt lat="47.0493260" lon="6.6361980">
        <ele>853.6</ele>
        <time>2022-07-21T16:46:07Z</time>
      </trkpt>
      <trkpt lat="47.0492860" lon="6.6361330">
        <ele>852.9</ele>
        <time>2022-07-21T16:46:08Z</time>
      </trkpt>
      <trkpt lat="47.0492440" lon="6.6360740">
        <ele>852.2</ele>
        <time>2022-07-21T16:46:09Z</time>
      </trkpt>
      <trkpt lat="47.0491980" lon="6.6360080">
        <ele>851.5</ele>
        <time>2022-07-21T16:46:10Z</time>
      </trkpt>
      <trkpt lat="47.0491500" lon="6.6359580">
        <ele>850.9</ele>
        <time>2022-07-21T16:46:11Z</time>
      </trkpt>
      <trkpt lat="47.0491070" lon="6.6358980">
        <ele>850.2</ele>
        <time>2022-07-21T16:46:12Z</time>
      </trkpt>
      <trkpt lat="47.0490710" lon="6.6358430">
        <ele>849.6</ele>
        <time>2022-07-21T16:46:13Z</time>
      </trkpt>
      <trkpt lat="47.0490490" lon="6.6358120">
        <ele>849.2</ele>
        <time>2022-07-21T16:46:14Z</time>
      </trkpt>
      <trkpt lat="47.0490230" lon="6.6357720">
        <ele>848.7</ele>
        <time>2022-07-21T16:46:15Z</time>
      </trkpt>
      <trkpt lat="47.0489980" lon="6.6357320">
        <ele>848.3</ele>
        <time>2022-07-21T16:46:16Z</time>
      </trkpt>
      <trkpt lat="47.0489680" lon="6.6356810">
        <ele>847.7</ele>
        <time>2022-07-21T16:46:17Z</time>
      </trkpt>
      <trkpt lat="47.0489490" lon="6.6356270">
        <ele>847.2</ele>
        <time>2022-07-21T16:46:18Z</time>
      </trkpt>
      <trkpt lat="47.0489380" lon="6.6355900">
        <ele>846.8</ele>
        <time>2022-07-21T16:46:19Z</time>
      </trkpt>
      <trkpt lat="47.0489670" lon="6.6355650">
        <ele>846.3</ele>
        <time>2022-07-21T16:46:20Z</time>
      </trkpt>
      <trkpt lat="47.0489240" lon="6.6355060">
        <ele>845.5</ele>
        <time>2022-07-21T16:46:21Z</time>
      </trkpt>
      <trkpt lat="47.0488650" lon="6.6354450">
        <ele>844.5</ele>
        <time>2022-07-21T16:46:22Z</time>
      </trkpt>
      <trkpt lat="47.0488070" lon="6.6353920">
        <ele>843.6</ele>
        <time>2022-07-21T16:46:23Z</time>
      </trkpt>
      <trkpt lat="47.0487600" lon="6.6353420">
        <ele>842.9</ele>
        <time>2022-07-21T16:46:24Z</time>
      </trkpt>
      <trkpt lat="47.0487080" lon="6.6352880">
        <ele>842.1</ele>
        <time>2022-07-21T16:46:25Z</time>
      </trkpt>
      <trkpt lat="47.0486500" lon="6.6352330">
        <ele>841.2</ele>
        <time>2022-07-21T16:46:26Z</time>
      </trkpt>
      <trkpt lat="47.0485930" lon="6.6351770">
        <ele>840.3</ele>
        <time>2022-07-21T16:46:27Z</time>
      </trkpt>
      <trkpt lat="47.0485310" lon="6.6351260">
        <ele>839.4</ele>
        <time>2022-07-21T16:46:28Z</time>
      </trkpt>
      <trkpt lat="47.0484720" lon="6.6350590">
        <ele>838.5</ele>
        <time>2022-07-21T16:46:29Z</time>
      </trkpt>
      <trkpt lat="47.0484160" lon="6.6349890">
        <ele>837.7</ele>
        <time>2022-07-21T16:46:30Z</time>
      </trkpt>
      <trkpt lat="47.0483690" lon="6.6349240">
        <ele>837.0</ele>
        <time>2022-07-21T16:46:31Z</time>
      </trkpt>
      <trkpt lat="47.0483300" lon="6.6348620">
        <ele>836.5</ele>
        <time>2022-07-21T16:46:32Z</time>
      </trkpt>
      <trkpt lat="47.0482780" lon="6.6347970">
        <ele>835.8</ele>
        <time>2022-07-21T16:46:33Z</time>
      </trkpt>
      <trkpt lat="47.0482190" lon="6.6347330">
        <ele>835.1</ele>
        <time>2022-07-21T16:46:34Z</time>
      </trkpt>
      <trkpt lat="47.0481670" lon="6.6346610">
        <ele>834.4</ele>
        <time>2022-07-21T16:46:35Z</time>
      </trkpt>
      <trkpt lat="47.0481230" lon="6.6345950">
        <ele>833.8</ele>
        <time>2022-07-21T16:46:36Z</time>
      </trkpt>
      <trkpt lat="47.0480730" lon="6.6345280">
        <ele>833.2</ele>
        <time>2022-07-21T16:46:37Z</time>
      </trkpt>
      <trkpt lat="47.0480270" lon="6.6344700">
        <ele>832.6</ele>
        <time>2022-07-21T16:46:38Z</time>
      </trkpt>
      <trkpt lat="47.0479800" lon="6.6344080">
        <ele>832.0</ele>
        <time>2022-07-21T16:46:39Z</time>
      </trkpt>
      <trkpt lat="47.0479320" lon="6.6343480">
        <ele>831.5</ele>
        <time>2022-07-21T16:46:40Z</time>
      </trkpt>
      <trkpt lat="47.0478940" lon="6.6342900">
        <ele>831.0</ele>
        <time>2022-07-21T16:46:41Z</time>
      </trkpt>
      <trkpt lat="47.0478590" lon="6.6342390">
        <ele>830.5</ele>
        <time>2022-07-21T16:46:42Z</time>
      </trkpt>
      <trkpt lat="47.0478170" lon="6.6341870">
        <ele>830.1</ele>
        <time>2022-07-21T16:46:43Z</time>
      </trkpt>
      <trkpt lat="47.0477730" lon="6.6341190">
        <ele>829.6</ele>
        <time>2022-07-21T16:46:44Z</time>
      </trkpt>
      <trkpt lat="47.0477350" lon="6.6340470">
        <ele>829.1</ele>
        <time>2022-07-21T16:46:45Z</time>
      </trkpt>
      <trkpt lat="47.0476910" lon="6.6339860">
        <ele>828.7</ele>
        <time>2022-07-21T16:46:46Z</time>
      </trkpt>
      <trkpt lat="47.0476410" lon="6.6339130">
        <ele>828.1</ele>
        <time>2022-07-21T16:46:47Z</time>
      </trkpt>
      <trkpt lat="47.0475880" lon="6.6338340">
        <ele>827.6</ele>
        <time>2022-07-21T16:46:48Z</time>
      </trkpt>
      <trkpt lat="47.0475350" lon="6.6337480">
        <ele>826.9</ele>
        <time>2022-07-21T16:46:49Z</time>
      </trkpt>
      <trkpt lat="47.0474930" lon="6.6336600">
        <ele>826.3</ele>
        <time>2022-07-21T16:46:50Z</time>
      </trkpt>
      <trkpt lat="47.0474470" lon="6.6335950">
        <ele>825.7</ele>
        <time>2022-07-21T16:46:51Z</time>
      </trkpt>
      <trkpt lat="47.0473990" lon="6.6335380">
        <ele>825.2</ele>
        <time>2022-07-21T16:46:52Z</time>
      </trkpt>
      <trkpt lat="47.0473640" lon="6.6334890">
        <ele>824.7</ele>
        <time>2022-07-21T16:46:53Z</time>
      </trkpt>
      <trkpt lat="47.0473300" lon="6.6334420">
        <ele>824.3</ele>
        <time>2022-07-21T16:46:54Z</time>
      </trkpt>
      <trkpt lat="47.0473050" lon="6.6333990">
        <ele>823.9</ele>
        <time>2022-07-21T16:46:55Z</time>
      </trkpt>
      <trkpt lat="47.0472710" lon="6.6333430">
        <ele>823.4</ele>
        <time>2022-07-21T16:46:56Z</time>
      </trkpt>
      <trkpt lat="47.0472320" lon="6.6332860">
        <ele>822.8</ele>
        <time>2022-07-21T16:46:57Z</time>
      </trkpt>
      <trkpt lat="47.0471890" lon="6.6332240">
        <ele>822.2</ele>
        <time>2022-07-21T16:46:58Z</time>
      </trkpt>
      <trkpt lat="47.0471350" lon="6.6331580">
        <ele>821.5</ele>
        <time>2022-07-21T16:46:59Z</time>
      </trkpt>
      <trkpt lat="47.0470850" lon="6.6330840">
        <ele>820.9</ele>
        <time>2022-07-21T16:47:00Z</time>
      </trkpt>
      <trkpt lat="47.0470350" lon="6.6330010">
        <ele>820.3</ele>
        <time>2022-07-21T16:47:01Z</time>
      </trkpt>
      <trkpt lat="47.0469890" lon="6.6329070">
        <ele>819.7</ele>
        <time>2022-07-21T16:47:02Z</time>
      </trkpt>
      <trkpt lat="47.0469460" lon="6.6328170">
        <ele>819.3</ele>
        <time>2022-07-21T16:47:03Z</time>
      </trkpt>
      <trkpt lat="47.0469070" lon="6.6327200">
        <ele>819.0</ele>
        <time>2022-07-21T16:47:04Z</time>
      </trkpt>
      <trkpt lat="47.0468790" lon="6.6326190">
        <ele>818.8</ele>
        <time>2022-07-21T16:47:05Z</time>
      </trkpt>
      <trkpt lat="47.0468610" lon="6.6325140">
        <ele>818.7</ele>
        <time>2022-07-21T16:47:06Z</time>
      </trkpt>
      <trkpt lat="47.0468530" lon="6.6324190">
        <ele>818.7</ele>
        <time>2022-07-21T16:47:07Z</time>
      </trkpt>
      <trkpt lat="47.0468450" lon="6.6323310">
        <ele>818.7</ele>
        <time>2022-07-21T16:47:08Z</time>
      </trkpt>
      <trkpt lat="47.0468460" lon="6.6322440">
        <ele>818.6</ele>
        <time>2022-07-21T16:47:09Z</time>
      </trkpt>
      <trkpt lat="47.0468550" lon="6.6321610">
        <ele>818.6</ele>
        <time>2022-07-21T16:47:10Z</time>
      </trkpt>
      <trkpt lat="47.0468700" lon="6.6320850">
        <ele>818.6</ele>
        <time>2022-07-21T16:47:11Z</time>
      </trkpt>
      <trkpt lat="47.0468870" lon="6.6320200">
        <ele>818.5</ele>
        <time>2022-07-21T16:47:12Z</time>
      </trkpt>
      <trkpt lat="47.0469040" lon="6.6319700">
        <ele>818.5</ele>
        <time>2022-07-21T16:47:13Z</time>
      </trkpt>
      <trkpt lat="47.0469210" lon="6.6318950">
        <ele>818.4</ele>
        <time>2022-07-21T16:47:14Z</time>
      </trkpt>
      <trkpt lat="47.0469380" lon="6.6318190">
        <ele>818.3</ele>
        <time>2022-07-21T16:47:15Z</time>
      </trkpt>
      <trkpt lat="47.0469570" lon="6.6317570">
        <ele>818.2</ele>
        <time>2022-07-21T16:47:16Z</time>
      </trkpt>
      <trkpt lat="47.0469690" lon="6.6317050">
        <ele>818.1</ele>
        <time>2022-07-21T16:47:17Z</time>
      </trkpt>
      <trkpt lat="47.0469720" lon="6.6316860">
        <ele>818.1</ele>
        <time>2022-07-21T16:47:18Z</time>
      </trkpt>
      <trkpt lat="47.0469880" lon="6.6316080">
        <ele>818.0</ele>
        <time>2022-07-21T16:47:19Z</time>
      </trkpt>
      <trkpt lat="47.0470050" lon="6.6315370">
        <ele>817.9</ele>
        <time>2022-07-21T16:47:20Z</time>
      </trkpt>
      <trkpt lat="47.0470380" lon="6.6314950">
        <ele>817.8</ele>
        <time>2022-07-21T16:47:21Z</time>
      </trkpt>
      <trkpt lat="47.0470500" lon="6.6314440">
        <ele>817.8</ele>
        <time>2022-07-21T16:47:22Z</time>
      </trkpt>
      <trkpt lat="47.0470530" lon="6.6314030">
        <ele>817.7</ele>
        <time>2022-07-21T16:47:23Z</time>
      </trkpt>
      <trkpt lat="47.0470670" lon="6.6313390">
        <ele>817.6</ele>
        <time>2022-07-21T16:47:24Z</time>
      </trkpt>
      <trkpt lat="47.0470830" lon="6.6312850">
        <ele>817.5</ele>
        <time>2022-07-21T16:47:26Z</time>
      </trkpt>
      <trkpt lat="47.0471160" lon="6.6311420">
        <ele>817.1</ele>
        <time>2022-07-21T16:47:27Z</time>
      </trkpt>
      <trkpt lat="47.0471310" lon="6.6310570">
        <ele>816.9</ele>
        <time>2022-07-21T16:47:28Z</time>
      </trkpt>
      <trkpt lat="47.0471490" lon="6.6309730">
        <ele>816.7</ele>
        <time>2022-07-21T16:47:29Z</time>
      </trkpt>
      <trkpt lat="47.0471700" lon="6.6308940">
        <ele>816.4</ele>
        <time>2022-07-21T16:47:30Z</time>
      </trkpt>
      <trkpt lat="47.0471860" lon="6.6308200">
        <ele>816.2</ele>
        <time>2022-07-21T16:47:31Z</time>
      </trkpt>
      <trkpt lat="47.0471940" lon="6.6307440">
        <ele>816.0</ele>
        <time>2022-07-21T16:47:32Z</time>
      </trkpt>
      <trkpt lat="47.0472030" lon="6.6306760">
        <ele>815.9</ele>
        <time>2022-07-21T16:47:33Z</time>
      </trkpt>
      <trkpt lat="47.0472160" lon="6.6306080">
        <ele>815.7</ele>
        <time>2022-07-21T16:47:34Z</time>
      </trkpt>
      <trkpt lat="47.0472260" lon="6.6305630">
        <ele>815.6</ele>
        <time>2022-07-21T16:47:35Z</time>
      </trkpt>
      <trkpt lat="47.0472490" lon="6.6305040">
        <ele>815.4</ele>
        <time>2022-07-21T16:47:36Z</time>
      </trkpt>
      <trkpt lat="47.0472780" lon="6.6304030">
        <ele>815.1</ele>
        <time>2022-07-21T16:47:37Z</time>
      </trkpt>
      <trkpt lat="47.0472970" lon="6.6303420">
        <ele>814.8</ele>
        <time>2022-07-21T16:47:38Z</time>
      </trkpt>
      <trkpt lat="47.0473310" lon="6.6302760">
        <ele>814.6</ele>
        <time>2022-07-21T16:47:39Z</time>
      </trkpt>
      <trkpt lat="47.0473640" lon="6.6302190">
        <ele>814.3</ele>
        <time>2022-07-21T16:47:40Z</time>
      </trkpt>
      <trkpt lat="47.0474090" lon="6.6301310">
        <ele>813.9</ele>
        <time>2022-07-21T16:47:41Z</time>
      </trkpt>
      <trkpt lat="47.0474550" lon="6.6300590">
        <ele>813.6</ele>
        <time>2022-07-21T16:47:42Z</time>
      </trkpt>
      <trkpt lat="47.0475050" lon="6.6299890">
        <ele>813.3</ele>
        <time>2022-07-21T16:47:43Z</time>
      </trkpt>
      <trkpt lat="47.0475470" lon="6.6299180">
        <ele>813.0</ele>
        <time>2022-07-21T16:47:44Z</time>
      </trkpt>
      <trkpt lat="47.0475910" lon="6.6298550">
        <ele>812.8</ele>
        <time>2022-07-21T16:47:45Z</time>
      </trkpt>
      <trkpt lat="47.0476380" lon="6.6298080">
        <ele>812.6</ele>
        <time>2022-07-21T16:47:46Z</time>
      </trkpt>
      <trkpt lat="47.0476910" lon="6.6297660">
        <ele>812.5</ele>
        <time>2022-07-21T16:47:47Z</time>
      </trkpt>
      <trkpt lat="47.0477430" lon="6.6297210">
        <ele>812.3</ele>
        <time>2022-07-21T16:47:48Z</time>
      </trkpt>
      <trkpt lat="47.0477890" lon="6.6296760">
        <ele>812.2</ele>
        <time>2022-07-21T16:47:49Z</time>
      </trkpt>
      <trkpt lat="47.0478180" lon="6.6296950">
        <ele>812.2</ele>
        <time>2022-07-21T16:47:50Z</time>
      </trkpt>
      <trkpt lat="47.0478620" lon="6.6296800">
        <ele>812.1</ele>
        <time>2022-07-21T16:47:51Z</time>
      </trkpt>
      <trkpt lat="47.0478800" lon="6.6296640">
        <ele>812.1</ele>
        <time>2022-07-21T16:47:52Z</time>
      </trkpt>
      <trkpt lat="47.0479140" lon="6.6296240">
        <ele>812.0</ele>
        <time>2022-07-21T16:47:54Z</time>
      </trkpt>
      <trkpt lat="47.0479500" lon="6.6294870">
        <ele>812.0</ele>
        <time>2022-07-21T16:47:55Z</time>
      </trkpt>
      <trkpt lat="47.0479730" lon="6.6294530">
        <ele>812.0</ele>
        <time>2022-07-21T16:47:56Z</time>
      </trkpt>
      <trkpt lat="47.0480330" lon="6.6294170">
        <ele>811.9</ele>
        <time>2022-07-21T16:47:57Z</time>
      </trkpt>
      <trkpt lat="47.0480690" lon="6.6293680">
        <ele>811.9</ele>
        <time>2022-07-21T16:47:59Z</time>
      </trkpt>
      <trkpt lat="47.0481160" lon="6.6293250">
        <ele>811.9</ele>
        <time>2022-07-21T16:48:00Z</time>
      </trkpt>
      <trkpt lat="47.0481530" lon="6.6292890">
        <ele>811.9</ele>
        <time>2022-07-21T16:48:01Z</time>
      </trkpt>
      <trkpt lat="47.0481720" lon="6.6292760">
        <ele>811.8</ele>
        <time>2022-07-21T16:48:02Z</time>
      </trkpt>
      <trkpt lat="47.0481970" lon="6.6292390">
        <ele>811.8</ele>
        <time>2022-07-21T16:48:04Z</time>
      </trkpt>
      <trkpt lat="47.0482190" lon="6.6292040">
        <ele>811.8</ele>
        <time>2022-07-21T16:48:05Z</time>
      </trkpt>
      <trkpt lat="47.0482460" lon="6.6291630">
        <ele>811.8</ele>
        <time>2022-07-21T16:48:06Z</time>
      </trkpt>
      <trkpt lat="47.0482560" lon="6.6291480">
        <ele>811.7</ele>
        <time>2022-07-21T16:48:07Z</time>
      </trkpt>
      <trkpt lat="47.0483020" lon="6.6290780">
        <ele>811.7</ele>
        <time>2022-07-21T16:48:09Z</time>
      </trkpt>
      <trkpt lat="47.0483280" lon="6.6290400">
        <ele>811.6</ele>
        <time>2022-07-21T16:48:10Z</time>
      </trkpt>
      <trkpt lat="47.0483510" lon="6.6290050">
        <ele>811.6</ele>
        <time>2022-07-21T16:48:11Z</time>
      </trkpt>
      <trkpt lat="47.0483750" lon="6.6289690">
        <ele>811.6</ele>
        <time>2022-07-21T16:48:12Z</time>
      </trkpt>
      <trkpt lat="47.0484140" lon="6.6289110">
        <ele>811.5</ele>
        <time>2022-07-21T16:48:13Z</time>
      </trkpt>
      <trkpt lat="47.0484500" lon="6.6288610">
        <ele>811.5</ele>
        <time>2022-07-21T16:48:14Z</time>
      </trkpt>
      <trkpt lat="47.0484870" lon="6.6288070">
        <ele>811.4</ele>
        <time>2022-07-21T16:48:15Z</time>
      </trkpt>
      <trkpt lat="47.0485250" lon="6.6287550">
        <ele>811.4</ele>
        <time>2022-07-21T16:48:17Z</time>
      </trkpt>
      <trkpt lat="47.0485520" lon="6.6287230">
        <ele>811.4</ele>
        <time>2022-07-21T16:48:18Z</time>
      </trkpt>
      <trkpt lat="47.0485910" lon="6.6286850">
        <ele>811.3</ele>
        <time>2022-07-21T16:48:19Z</time>
      </trkpt>
      <trkpt lat="47.0486390" lon="6.6286390">
        <ele>811.3</ele>
        <time>2022-07-21T16:48:21Z</time>
      </trkpt>
      <trkpt lat="47.0487000" lon="6.6285780">
        <ele>811.2</ele>
        <time>2022-07-21T16:48:22Z</time>
      </trkpt>
      <trkpt lat="47.0487360" lon="6.6285440">
        <ele>811.2</ele>
        <time>2022-07-21T16:48:23Z</time>
      </trkpt>
      <trkpt lat="47.0487960" lon="6.6284810">
        <ele>811.1</ele>
        <time>2022-07-21T16:48:24Z</time>
      </trkpt>
      <trkpt lat="47.0488440" lon="6.6284340">
        <ele>811.0</ele>
        <time>2022-07-21T16:48:25Z</time>
      </trkpt>
      <trkpt lat="47.0488890" lon="6.6283870">
        <ele>811.0</ele>
        <time>2022-07-21T16:48:27Z</time>
      </trkpt>
      <trkpt lat="47.0489290" lon="6.6283420">
        <ele>810.9</ele>
        <time>2022-07-21T16:48:28Z</time>
      </trkpt>
      <trkpt lat="47.0489560" lon="6.6283070">
        <ele>810.9</ele>
        <time>2022-07-21T16:48:29Z</time>
      </trkpt>
      <trkpt lat="47.0489840" lon="6.6282720">
        <ele>810.9</ele>
        <time>2022-07-21T16:48:30Z</time>
      </trkpt>
      <trkpt lat="47.0490130" lon="6.6282420">
        <ele>810.8</ele>
        <time>2022-07-21T16:48:31Z</time>
      </trkpt>
      <trkpt lat="47.0490560" lon="6.6282050">
        <ele>810.8</ele>
        <time>2022-07-21T16:48:32Z</time>
      </trkpt>
      <trkpt lat="47.0490870" lon="6.6281880">
        <ele>810.8</ele>
        <time>2022-07-21T16:48:33Z</time>
      </trkpt>
      <trkpt lat="47.0491210" lon="6.6281730">
        <ele>810.7</ele>
        <time>2022-07-21T16:48:34Z</time>
      </trkpt>
      <trkpt lat="47.0491590" lon="6.6281560">
        <ele>810.7</ele>
        <time>2022-07-21T16:48:35Z</time>
      </trkpt>
      <trkpt lat="47.0492080" lon="6.6281310">
        <ele>810.7</ele>
        <time>2022-07-21T16:48:36Z</time>
      </trkpt>
      <trkpt lat="47.0492640" lon="6.6280990">
        <ele>810.6</ele>
        <time>2022-07-21T16:48:37Z</time>
      </trkpt>
      <trkpt lat="47.0493110" lon="6.6280750">
        <ele>810.6</ele>
        <time>2022-07-21T16:48:38Z</time>
      </trkpt>
      <trkpt lat="47.0493570" lon="6.6280510">
        <ele>810.5</ele>
        <time>2022-07-21T16:48:39Z</time>
      </trkpt>
      <trkpt lat="47.0494000" lon="6.6280260">
        <ele>810.5</ele>
        <time>2022-07-21T16:48:40Z</time>
      </trkpt>
      <trkpt lat="47.0494420" lon="6.6280050">
        <ele>810.4</ele>
        <time>2022-07-21T16:48:41Z</time>
      </trkpt>
      <trkpt lat="47.0494850" lon="6.6279890">
        <ele>810.4</ele>
        <time>2022-07-21T16:48:42Z</time>
      </trkpt>
      <trkpt lat="47.0495260" lon="6.6279750">
        <ele>810.3</ele>
        <time>2022-07-21T16:48:43Z</time>
      </trkpt>
      <trkpt lat="47.0495600" lon="6.6279650">
        <ele>810.3</ele>
        <time>2022-07-21T16:48:44Z</time>
      </trkpt>
      <trkpt lat="47.0495950" lon="6.6279570">
        <ele>810.2</ele>
        <time>2022-07-21T16:48:45Z</time>
      </trkpt>
      <trkpt lat="47.0496070" lon="6.6279550">
        <ele>810.2</ele>
        <time>2022-07-21T16:48:46Z</time>
      </trkpt>
      <trkpt lat="47.0496370" lon="6.6279500">
        <ele>810.2</ele>
        <time>2022-07-21T16:48:47Z</time>
      </trkpt>
      <trkpt lat="47.0496710" lon="6.6279330">
        <ele>810.1</ele>
        <time>2022-07-21T16:48:48Z</time>
      </trkpt>
      <trkpt lat="47.0497190" lon="6.6279000">
        <ele>810.0</ele>
        <time>2022-07-21T16:48:49Z</time>
      </trkpt>
      <trkpt lat="47.0497720" lon="6.6278630">
        <ele>809.7</ele>
        <time>2022-07-21T16:48:50Z</time>
      </trkpt>
      <trkpt lat="47.0498300" lon="6.6278300">
        <ele>809.4</ele>
        <time>2022-07-21T16:48:51Z</time>
      </trkpt>
      <trkpt lat="47.0498860" lon="6.6277960">
        <ele>809.1</ele>
        <time>2022-07-21T16:48:52Z</time>
      </trkpt>
      <trkpt lat="47.0499400" lon="6.6277590">
        <ele>808.8</ele>
        <time>2022-07-21T16:48:53Z</time>
      </trkpt>
      <trkpt lat="47.0499990" lon="6.6277260">
        <ele>808.4</ele>
        <time>2022-07-21T16:48:54Z</time>
      </trkpt>
      <trkpt lat="47.0500570" lon="6.6277000">
        <ele>808.1</ele>
        <time>2022-07-21T16:48:55Z</time>
      </trkpt>
      <trkpt lat="47.0501050" lon="6.6276710">
        <ele>807.9</ele>
        <time>2022-07-21T16:48:56Z</time>
      </trkpt>
      <trkpt lat="47.0501380" lon="6.6276460">
        <ele>807.7</ele>
        <time>2022-07-21T16:48:57Z</time>
      </trkpt>
      <trkpt lat="47.0501800" lon="6.6276220">
        <ele>807.5</ele>
        <time>2022-07-21T16:48:58Z</time>
      </trkpt>
      <trkpt lat="47.0502280" lon="6.6276020">
        <ele>807.2</ele>
        <time>2022-07-21T16:48:59Z</time>
      </trkpt>
      <trkpt lat="47.0502690" lon="6.6275870">
        <ele>807.0</ele>
        <time>2022-07-21T16:49:00Z</time>
      </trkpt>
      <trkpt lat="47.0503190" lon="6.6275570">
        <ele>806.7</ele>
        <time>2022-07-21T16:49:01Z</time>
      </trkpt>
      <trkpt lat="47.0503640" lon="6.6275300">
        <ele>806.5</ele>
        <time>2022-07-21T16:49:02Z</time>
      </trkpt>
      <trkpt lat="47.0504200" lon="6.6274940">
        <ele>806.2</ele>
        <time>2022-07-21T16:49:03Z</time>
      </trkpt>
      <trkpt lat="47.0504660" lon="6.6274700">
        <ele>805.9</ele>
        <time>2022-07-21T16:49:04Z</time>
      </trkpt>
      <trkpt lat="47.0505020" lon="6.6274630">
        <ele>805.7</ele>
        <time>2022-07-21T16:49:05Z</time>
      </trkpt>
      <trkpt lat="47.0505750" lon="6.6274440">
        <ele>805.4</ele>
        <time>2022-07-21T16:49:06Z</time>
      </trkpt>
      <trkpt lat="47.0506190" lon="6.6274330">
        <ele>805.1</ele>
        <time>2022-07-21T16:49:07Z</time>
      </trkpt>
      <trkpt lat="47.0506800" lon="6.6274090">
        <ele>804.8</ele>
        <time>2022-07-21T16:49:08Z</time>
      </trkpt>
      <trkpt lat="47.0507160" lon="6.6274010">
        <ele>804.5</ele>
        <time>2022-07-21T16:49:09Z</time>
      </trkpt>
      <trkpt lat="47.0507660" lon="6.6273790">
        <ele>804.2</ele>
        <time>2022-07-21T16:49:10Z</time>
      </trkpt>
      <trkpt lat="47.0507980" lon="6.6273660">
        <ele>804.0</ele>
        <time>2022-07-21T16:49:11Z</time>
      </trkpt>
      <trkpt lat="47.0508400" lon="6.6273770">
        <ele>803.8</ele>
        <time>2022-07-21T16:49:12Z</time>
      </trkpt>
      <trkpt lat="47.0508750" lon="6.6273840">
        <ele>803.5</ele>
        <time>2022-07-21T16:49:13Z</time>
      </trkpt>
      <trkpt lat="47.0509150" lon="6.6273970">
        <ele>803.3</ele>
        <time>2022-07-21T16:49:14Z</time>
      </trkpt>
      <trkpt lat="47.0509590" lon="6.6274130">
        <ele>803.0</ele>
        <time>2022-07-21T16:49:15Z</time>
      </trkpt>
      <trkpt lat="47.0510020" lon="6.6274180">
        <ele>802.8</ele>
        <time>2022-07-21T16:49:16Z</time>
      </trkpt>
      <trkpt lat="47.0510350" lon="6.6274300">
        <ele>802.6</ele>
        <time>2022-07-21T16:49:17Z</time>
      </trkpt>
      <trkpt lat="47.0510960" lon="6.6274450">
        <ele>802.2</ele>
        <time>2022-07-21T16:49:18Z</time>
      </trkpt>
      <trkpt lat="47.0511400" lon="6.6274570">
        <ele>802.0</ele>
        <time>2022-07-21T16:49:19Z</time>
      </trkpt>
      <trkpt lat="47.0511770" lon="6.6274550">
        <ele>801.8</ele>
        <time>2022-07-21T16:49:20Z</time>
      </trkpt>
      <trkpt lat="47.0512170" lon="6.6274500">
        <ele>801.6</ele>
        <time>2022-07-21T16:49:21Z</time>
      </trkpt>
      <trkpt lat="47.0512980" lon="6.6274340">
        <ele>801.1</ele>
        <time>2022-07-21T16:49:22Z</time>
      </trkpt>
      <trkpt lat="47.0513500" lon="6.6274320">
        <ele>800.9</ele>
        <time>2022-07-21T16:49:23Z</time>
      </trkpt>
      <trkpt lat="47.0514050" lon="6.6274590">
        <ele>800.6</ele>
        <time>2022-07-21T16:49:25Z</time>
      </trkpt>
      <trkpt lat="47.0514850" lon="6.6274660">
        <ele>800.3</ele>
        <time>2022-07-21T16:49:26Z</time>
      </trkpt>
      <trkpt lat="47.0515320" lon="6.6274780">
        <ele>800.1</ele>
        <time>2022-07-21T16:49:27Z</time>
      </trkpt>
      <trkpt lat="47.0515920" lon="6.6274860">
        <ele>799.9</ele>
        <time>2022-07-21T16:49:28Z</time>
      </trkpt>
      <trkpt lat="47.0516340" lon="6.6275040">
        <ele>799.8</ele>
        <time>2022-07-21T16:49:29Z</time>
      </trkpt>
      <trkpt lat="47.0516690" lon="6.6275050">
        <ele>799.8</ele>
        <time>2022-07-21T16:49:30Z</time>
      </trkpt>
      <trkpt lat="47.0517080" lon="6.6275020">
        <ele>799.7</ele>
        <time>2022-07-21T16:49:31Z</time>
      </trkpt>
      <trkpt lat="47.0517580" lon="6.6275040">
        <ele>799.6</ele>
        <time>2022-07-21T16:49:32Z</time>
      </trkpt>
      <trkpt lat="47.0518000" lon="6.6275150">
        <ele>799.6</ele>
        <time>2022-07-21T16:49:33Z</time>
      </trkpt>
      <trkpt lat="47.0518400" lon="6.6275540">
        <ele>799.6</ele>
        <time>2022-07-21T16:49:35Z</time>
      </trkpt>
      <trkpt lat="47.0518810" lon="6.6275860">
        <ele>799.6</ele>
        <time>2022-07-21T16:49:36Z</time>
      </trkpt>
      <trkpt lat="47.0519060" lon="6.6276070">
        <ele>799.6</ele>
        <time>2022-07-21T16:49:37Z</time>
      </trkpt>
      <trkpt lat="47.0519360" lon="6.6276300">
        <ele>799.6</ele>
        <time>2022-07-21T16:49:38Z</time>
      </trkpt>
      <trkpt lat="47.0519630" lon="6.6276510">
        <ele>799.7</ele>
        <time>2022-07-21T16:49:39Z</time>
      </trkpt>
      <trkpt lat="47.0519920" lon="6.6276710">
        <ele>799.7</ele>
        <time>2022-07-21T16:49:40Z</time>
      </trkpt>
      <trkpt lat="47.0520310" lon="6.6276930">
        <ele>799.7</ele>
        <time>2022-07-21T16:49:41Z</time>
      </trkpt>
      <trkpt lat="47.0520660" lon="6.6277160">
        <ele>799.8</ele>
        <time>2022-07-21T16:49:43Z</time>
      </trkpt>
      <trkpt lat="47.0520980" lon="6.6277350">
        <ele>799.8</ele>
        <time>2022-07-21T16:49:44Z</time>
      </trkpt>
      <trkpt lat="47.0521310" lon="6.6277630">
        <ele>799.9</ele>
        <time>2022-07-21T16:49:45Z</time>
      </trkpt>
      <trkpt lat="47.0521430" lon="6.6277730">
        <ele>799.9</ele>
        <time>2022-07-21T16:49:46Z</time>
      </trkpt>
      <trkpt lat="47.0521810" lon="6.6277890">
        <ele>800.0</ele>
        <time>2022-07-21T16:49:47Z</time>
      </trkpt>
      <trkpt lat="47.0522110" lon="6.6277940">
        <ele>800.1</ele>
        <time>2022-07-21T16:49:49Z</time>
      </trkpt>
      <trkpt lat="47.0522450" lon="6.6278010">
        <ele>800.1</ele>
        <time>2022-07-21T16:49:50Z</time>
      </trkpt>
      <trkpt lat="47.0522780" lon="6.6278100">
        <ele>800.2</ele>
        <time>2022-07-21T16:49:51Z</time>
      </trkpt>
      <trkpt lat="47.0523120" lon="6.6278210">
        <ele>800.3</ele>
        <time>2022-07-21T16:49:52Z</time>
      </trkpt>
      <trkpt lat="47.0523220" lon="6.6278250">
        <ele>800.3</ele>
        <time>2022-07-21T16:49:53Z</time>
      </trkpt>
      <trkpt lat="47.0523530" lon="6.6278340">
        <ele>800.4</ele>
        <time>2022-07-21T16:49:54Z</time>
      </trkpt>
      <trkpt lat="47.0523940" lon="6.6278530">
        <ele>800.5</ele>
        <time>2022-07-21T16:49:56Z</time>
      </trkpt>
      <trkpt lat="47.0524260" lon="6.6278610">
        <ele>800.5</ele>
        <time>2022-07-21T16:49:57Z</time>
      </trkpt>
      <trkpt lat="47.0524590" lon="6.6278780">
        <ele>800.6</ele>
        <time>2022-07-21T16:49:58Z</time>
      </trkpt>
      <trkpt lat="47.0524900" lon="6.6278990">
        <ele>800.6</ele>
        <time>2022-07-21T16:49:59Z</time>
      </trkpt>
      <trkpt lat="47.0525370" lon="6.6279340">
        <ele>800.7</ele>
        <time>2022-07-21T16:50:01Z</time>
      </trkpt>
      <trkpt lat="47.0525560" lon="6.6279470">
        <ele>800.7</ele>
        <time>2022-07-21T16:50:02Z</time>
      </trkpt>
      <trkpt lat="47.0525740" lon="6.6279590">
        <ele>800.7</ele>
        <time>2022-07-21T16:50:03Z</time>
      </trkpt>
      <trkpt lat="47.0526100" lon="6.6279880">
        <ele>800.7</ele>
        <time>2022-07-21T16:50:04Z</time>
      </trkpt>
      <trkpt lat="47.0526430" lon="6.6280120">
        <ele>800.7</ele>
        <time>2022-07-21T16:50:05Z</time>
      </trkpt>
      <trkpt lat="47.0526680" lon="6.6280310">
        <ele>800.8</ele>
        <time>2022-07-21T16:50:06Z</time>
      </trkpt>
      <trkpt lat="47.0526990" lon="6.6280530">
        <ele>800.8</ele>
        <time>2022-07-21T16:50:07Z</time>
      </trkpt>
      <trkpt lat="47.0527270" lon="6.6280760">
        <ele>800.8</ele>
        <time>2022-07-21T16:50:08Z</time>
      </trkpt>
      <trkpt lat="47.0527560" lon="6.6280990">
        <ele>800.8</ele>
        <time>2022-07-21T16:50:09Z</time>
      </trkpt>
      <trkpt lat="47.0527900" lon="6.6281200">
        <ele>800.8</ele>
        <time>2022-07-21T16:50:10Z</time>
      </trkpt>
      <trkpt lat="47.0528180" lon="6.6281350">
        <ele>800.9</ele>
        <time>2022-07-21T16:50:11Z</time>
      </trkpt>
      <trkpt lat="47.0528550" lon="6.6281470">
        <ele>800.9</ele>
        <time>2022-07-21T16:50:12Z</time>
      </trkpt>
      <trkpt lat="47.0529010" lon="6.6281460">
        <ele>800.9</ele>
        <time>2022-07-21T16:50:13Z</time>
      </trkpt>
      <trkpt lat="47.0529460" lon="6.6281470">
        <ele>800.9</ele>
        <time>2022-07-21T16:50:14Z</time>
      </trkpt>
      <trkpt lat="47.0529840" lon="6.6281570">
        <ele>800.9</ele>
        <time>2022-07-21T16:50:16Z</time>
      </trkpt>
      <trkpt lat="47.0530230" lon="6.6281790">
        <ele>801.0</ele>
        <time>2022-07-21T16:50:17Z</time>
      </trkpt>
      <trkpt lat="47.0530620" lon="6.6282180">
        <ele>801.0</ele>
        <time>2022-07-21T16:50:18Z</time>
      </trkpt>
      <trkpt lat="47.0531010" lon="6.6282610">
        <ele>801.0</ele>
        <time>2022-07-21T16:50:20Z</time>
      </trkpt>
      <trkpt lat="47.0531360" lon="6.6282860">
        <ele>801.0</ele>
        <time>2022-07-21T16:50:21Z</time>
      </trkpt>
      <trkpt lat="47.0531700" lon="6.6283020">
        <ele>801.0</ele>
        <time>2022-07-21T16:50:22Z</time>
      </trkpt>
      <trkpt lat="47.0532170" lon="6.6283240">
        <ele>801.0</ele>
        <time>2022-07-21T16:50:23Z</time>
      </trkpt>
      <trkpt lat="47.0532380" lon="6.6283350">
        <ele>801.0</ele>
        <time>2022-07-21T16:50:24Z</time>
      </trkpt>
      <trkpt lat="47.0532900" lon="6.6283660">
        <ele>801.0</ele>
        <time>2022-07-21T16:50:26Z</time>
      </trkpt>
      <trkpt lat="47.0533400" lon="6.6283910">
        <ele>800.9</ele>
        <time>2022-07-21T16:50:27Z</time>
      </trkpt>
      <trkpt lat="47.0533740" lon="6.6284070">
        <ele>800.8</ele>
        <time>2022-07-21T16:50:28Z</time>
      </trkpt>
      <trkpt lat="47.0534260" lon="6.6284260">
        <ele>800.7</ele>
        <time>2022-07-21T16:50:29Z</time>
      </trkpt>
      <trkpt lat="47.0534830" lon="6.6284490">
        <ele>800.6</ele>
        <time>2022-07-21T16:50:31Z</time>
      </trkpt>
      <trkpt lat="47.0535160" lon="6.6284610">
        <ele>800.5</ele>
        <time>2022-07-21T16:50:32Z</time>
      </trkpt>
      <trkpt lat="47.0535820" lon="6.6284700">
        <ele>800.3</ele>
        <time>2022-07-21T16:50:34Z</time>
      </trkpt>
      <trkpt lat="47.0536280" lon="6.6284560">
        <ele>800.1</ele>
        <time>2022-07-21T16:50:35Z</time>
      </trkpt>
      <trkpt lat="47.0537150" lon="6.6282950">
        <ele>799.3</ele>
        <time>2022-07-21T16:50:36Z</time>
      </trkpt>
      <trkpt lat="47.0537630" lon="6.6282120">
        <ele>798.8</ele>
        <time>2022-07-21T16:50:37Z</time>
      </trkpt>
      <trkpt lat="47.0538070" lon="6.6281320">
        <ele>798.3</ele>
        <time>2022-07-21T16:50:38Z</time>
      </trkpt>
      <trkpt lat="47.0538600" lon="6.6280500">
        <ele>797.8</ele>
        <time>2022-07-21T16:50:39Z</time>
      </trkpt>
      <trkpt lat="47.0539100" lon="6.6279730">
        <ele>797.3</ele>
        <time>2022-07-21T16:50:40Z</time>
      </trkpt>
      <trkpt lat="47.0539470" lon="6.6279060">
        <ele>796.9</ele>
        <time>2022-07-21T16:50:41Z</time>
      </trkpt>
      <trkpt lat="47.0539840" lon="6.6278340">
        <ele>796.5</ele>
        <time>2022-07-21T16:50:42Z</time>
      </trkpt>
      <trkpt lat="47.0540190" lon="6.6277560">
        <ele>796.1</ele>
        <time>2022-07-21T16:50:43Z</time>
      </trkpt>
      <trkpt lat="47.0540510" lon="6.6276780">
        <ele>795.7</ele>
        <time>2022-07-21T16:50:44Z</time>
      </trkpt>
      <trkpt lat="47.0540810" lon="6.6276000">
        <ele>795.3</ele>
        <time>2022-07-21T16:50:45Z</time>
      </trkpt>
      <trkpt lat="47.0541000" lon="6.6275120">
        <ele>795.0</ele>
        <time>2022-07-21T16:50:46Z</time>
      </trkpt>
      <trkpt lat="47.0541290" lon="6.6274210">
        <ele>794.7</ele>
        <time>2022-07-21T16:50:47Z</time>
      </trkpt>
      <trkpt lat="47.0541440" lon="6.6273260">
        <ele>794.4</ele>
        <time>2022-07-21T16:50:48Z</time>
      </trkpt>
      <trkpt lat="47.0541510" lon="6.6272450">
        <ele>794.1</ele>
        <time>2022-07-21T16:50:49Z</time>
      </trkpt>
      <trkpt lat="47.0541510" lon="6.6271650">
        <ele>793.8</ele>
        <time>2022-07-21T16:50:50Z</time>
      </trkpt>
      <trkpt lat="47.0541530" lon="6.6270860">
        <ele>793.6</ele>
        <time>2022-07-21T16:50:51Z</time>
      </trkpt>
      <trkpt lat="47.0541640" lon="6.6270040">
        <ele>793.3</ele>
        <time>2022-07-21T16:50:52Z</time>
      </trkpt>
      <trkpt lat="47.0541810" lon="6.6269200">
        <ele>793.0</ele>
        <time>2022-07-21T16:50:53Z</time>
      </trkpt>
      <trkpt lat="47.0542060" lon="6.6268350">
        <ele>792.7</ele>
        <time>2022-07-21T16:50:54Z</time>
      </trkpt>
      <trkpt lat="47.0542370" lon="6.6267510">
        <ele>792.4</ele>
        <time>2022-07-21T16:50:55Z</time>
      </trkpt>
      <trkpt lat="47.0542650" lon="6.6266780">
        <ele>792.2</ele>
        <time>2022-07-21T16:50:56Z</time>
      </trkpt>
      <trkpt lat="47.0542980" lon="6.6266070">
        <ele>792.1</ele>
        <time>2022-07-21T16:50:57Z</time>
      </trkpt>
      <trkpt lat="47.0543400" lon="6.6265370">
        <ele>791.9</ele>
        <time>2022-07-21T16:50:58Z</time>
      </trkpt>
      <trkpt lat="47.0543820" lon="6.6264710">
        <ele>791.8</ele>
        <time>2022-07-21T16:50:59Z</time>
      </trkpt>
      <trkpt lat="47.0544210" lon="6.6264100">
        <ele>791.7</ele>
        <time>2022-07-21T16:51:00Z</time>
      </trkpt>
      <trkpt lat="47.0544580" lon="6.6263530">
        <ele>791.6</ele>
        <time>2022-07-21T16:51:01Z</time>
      </trkpt>
      <trkpt lat="47.0545060" lon="6.6263100">
        <ele>791.6</ele>
        <time>2022-07-21T16:51:02Z</time>
      </trkpt>
      <trkpt lat="47.0545550" lon="6.6262720">
        <ele>791.5</ele>
        <time>2022-07-21T16:51:03Z</time>
      </trkpt>
      <trkpt lat="47.0545960" lon="6.6262490">
        <ele>791.5</ele>
        <time>2022-07-21T16:51:04Z</time>
      </trkpt>
      <trkpt lat="47.0546270" lon="6.6262350">
        <ele>791.5</ele>
        <time>2022-07-21T16:51:05Z</time>
      </trkpt>
      <trkpt lat="47.0546750" lon="6.6262170">
        <ele>791.4</ele>
        <time>2022-07-21T16:51:06Z</time>
      </trkpt>
      <trkpt lat="47.0547310" lon="6.6262060">
        <ele>791.4</ele>
        <time>2022-07-21T16:51:07Z</time>
      </trkpt>
      <trkpt lat="47.0547850" lon="6.6262010">
        <ele>791.4</ele>
        <time>2022-07-21T16:51:08Z</time>
      </trkpt>
      <trkpt lat="47.0548400" lon="6.6262100">
        <ele>791.4</ele>
        <time>2022-07-21T16:51:09Z</time>
      </trkpt>
      <trkpt lat="47.0548910" lon="6.6262220">
        <ele>791.4</ele>
        <time>2022-07-21T16:51:10Z</time>
      </trkpt>
      <trkpt lat="47.0549470" lon="6.6262310">
        <ele>791.4</ele>
        <time>2022-07-21T16:51:11Z</time>
      </trkpt>
      <trkpt lat="47.0549960" lon="6.6262430">
        <ele>791.3</ele>
        <time>2022-07-21T16:51:12Z</time>
      </trkpt>
      <trkpt lat="47.0550310" lon="6.6262640">
        <ele>791.3</ele>
        <time>2022-07-21T16:51:13Z</time>
      </trkpt>
      <trkpt lat="47.0550790" lon="6.6262860">
        <ele>791.3</ele>
        <time>2022-07-21T16:51:14Z</time>
      </trkpt>
      <trkpt lat="47.0551220" lon="6.6263110">
        <ele>791.4</ele>
        <time>2022-07-21T16:51:15Z</time>
      </trkpt>
      <trkpt lat="47.0551510" lon="6.6263320">
        <ele>791.4</ele>
        <time>2022-07-21T16:51:16Z</time>
      </trkpt>
      <trkpt lat="47.0551790" lon="6.6263650">
        <ele>791.4</ele>
        <time>2022-07-21T16:51:17Z</time>
      </trkpt>
      <trkpt lat="47.0552330" lon="6.6263810">
        <ele>791.4</ele>
        <time>2022-07-21T16:51:18Z</time>
      </trkpt>
      <trkpt lat="47.0553110" lon="6.6264120">
        <ele>791.5</ele>
        <time>2022-07-21T16:51:20Z</time>
      </trkpt>
      <trkpt lat="47.0553530" lon="6.6264260">
        <ele>791.5</ele>
        <time>2022-07-21T16:51:21Z</time>
      </trkpt>
      <trkpt lat="47.0554000" lon="6.6264310">
        <ele>791.6</ele>
        <time>2022-07-21T16:51:22Z</time>
      </trkpt>
      <trkpt lat="47.0554410" lon="6.6264360">
        <ele>791.7</ele>
        <time>2022-07-21T16:51:23Z</time>
      </trkpt>
      <trkpt lat="47.0554830" lon="6.6264420">
        <ele>791.7</ele>
        <time>2022-07-21T16:51:24Z</time>
      </trkpt>
      <trkpt lat="47.0555210" lon="6.6264510">
        <ele>791.8</ele>
        <time>2022-07-21T16:51:25Z</time>
      </trkpt>
      <trkpt lat="47.0555600" lon="6.6264550">
        <ele>791.9</ele>
        <time>2022-07-21T16:51:26Z</time>
      </trkpt>
      <trkpt lat="47.0556000" lon="6.6264600">
        <ele>792.0</ele>
        <time>2022-07-21T16:51:27Z</time>
      </trkpt>
      <trkpt lat="47.0556430" lon="6.6264650">
        <ele>792.1</ele>
        <time>2022-07-21T16:51:28Z</time>
      </trkpt>
      <trkpt lat="47.0557010" lon="6.6264670">
        <ele>792.3</ele>
        <time>2022-07-21T16:51:29Z</time>
      </trkpt>
      <trkpt lat="47.0557480" lon="6.6264690">
        <ele>792.3</ele>
        <time>2022-07-21T16:51:31Z</time>
      </trkpt>
      <trkpt lat="47.0557850" lon="6.6264760">
        <ele>792.4</ele>
        <time>2022-07-21T16:51:32Z</time>
      </trkpt>
      <trkpt lat="47.0558260" lon="6.6264830">
        <ele>792.5</ele>
        <time>2022-07-21T16:51:33Z</time>
      </trkpt>
      <trkpt lat="47.0558770" lon="6.6264980">
        <ele>792.6</ele>
        <time>2022-07-21T16:51:34Z</time>
      </trkpt>
      <trkpt lat="47.0559120" lon="6.6265060">
        <ele>792.6</ele>
        <time>2022-07-21T16:51:35Z</time>
      </trkpt>
      <trkpt lat="47.0559540" lon="6.6265200">
        <ele>792.7</ele>
        <time>2022-07-21T16:51:37Z</time>
      </trkpt>
      <trkpt lat="47.0559830" lon="6.6265320">
        <ele>792.7</ele>
        <time>2022-07-21T16:51:38Z</time>
      </trkpt>
      <trkpt lat="47.0560250" lon="6.6265450">
        <ele>792.8</ele>
        <time>2022-07-21T16:51:39Z</time>
      </trkpt>
      <trkpt lat="47.0560700" lon="6.6265580">
        <ele>792.8</ele>
        <time>2022-07-21T16:51:41Z</time>
      </trkpt>
      <trkpt lat="47.0561100" lon="6.6265760">
        <ele>792.9</ele>
        <time>2022-07-21T16:51:43Z</time>
      </trkpt>
      <trkpt lat="47.0561480" lon="6.6265950">
        <ele>793.0</ele>
        <time>2022-07-21T16:51:44Z</time>
      </trkpt>
      <trkpt lat="47.0561820" lon="6.6266210">
        <ele>793.0</ele>
        <time>2022-07-21T16:51:45Z</time>
      </trkpt>
      <trkpt lat="47.0562040" lon="6.6266350">
        <ele>793.1</ele>
        <time>2022-07-21T16:51:46Z</time>
      </trkpt>
      <trkpt lat="47.0562380" lon="6.6266510">
        <ele>793.1</ele>
        <time>2022-07-21T16:51:47Z</time>
      </trkpt>
      <trkpt lat="47.0562640" lon="6.6266640">
        <ele>793.2</ele>
        <time>2022-07-21T16:51:48Z</time>
      </trkpt>
      <trkpt lat="47.0562970" lon="6.6266810">
        <ele>793.2</ele>
        <time>2022-07-21T16:51:49Z</time>
      </trkpt>
      <trkpt lat="47.0563340" lon="6.6267030">
        <ele>793.3</ele>
        <time>2022-07-21T16:51:50Z</time>
      </trkpt>
      <trkpt lat="47.0563470" lon="6.6267110">
        <ele>793.3</ele>
        <time>2022-07-21T16:51:51Z</time>
      </trkpt>
      <trkpt lat="47.0563790" lon="6.6267280">
        <ele>793.4</ele>
        <time>2022-07-21T16:51:52Z</time>
      </trkpt>
      <trkpt lat="47.0564060" lon="6.6267420">
        <ele>793.4</ele>
        <time>2022-07-21T16:51:53Z</time>
      </trkpt>
      <trkpt lat="47.0564360" lon="6.6267550">
        <ele>793.4</ele>
        <time>2022-07-21T16:51:54Z</time>
      </trkpt>
      <trkpt lat="47.0564640" lon="6.6267670">
        <ele>793.5</ele>
        <time>2022-07-21T16:51:55Z</time>
      </trkpt>
      <trkpt lat="47.0565010" lon="6.6267860">
        <ele>793.5</ele>
        <time>2022-07-21T16:51:56Z</time>
      </trkpt>
      <trkpt lat="47.0565150" lon="6.6267930">
        <ele>793.4</ele>
        <time>2022-07-21T16:51:57Z</time>
      </trkpt>
      <trkpt lat="47.0565520" lon="6.6268040">
        <ele>793.4</ele>
        <time>2022-07-21T16:51:58Z</time>
      </trkpt>
      <trkpt lat="47.0565660" lon="6.6268070">
        <ele>793.4</ele>
        <time>2022-07-21T16:51:59Z</time>
      </trkpt>
      <trkpt lat="47.0565950" lon="6.6268070">
        <ele>793.3</ele>
        <time>2022-07-21T16:52:00Z</time>
      </trkpt>
      <trkpt lat="47.0566330" lon="6.6268000">
        <ele>793.3</ele>
        <time>2022-07-21T16:52:01Z</time>
      </trkpt>
      <trkpt lat="47.0566480" lon="6.6267970">
        <ele>793.2</ele>
        <time>2022-07-21T16:52:02Z</time>
      </trkpt>
      <trkpt lat="47.0566760" lon="6.6267900">
        <ele>793.1</ele>
        <time>2022-07-21T16:52:03Z</time>
      </trkpt>
      <trkpt lat="47.0567060" lon="6.6267780">
        <ele>793.0</ele>
        <time>2022-07-21T16:52:04Z</time>
      </trkpt>
      <trkpt lat="47.0567350" lon="6.6267600">
        <ele>792.9</ele>
        <time>2022-07-21T16:52:05Z</time>
      </trkpt>
      <trkpt lat="47.0567670" lon="6.6267330">
        <ele>792.8</ele>
        <time>2022-07-21T16:52:06Z</time>
      </trkpt>
      <trkpt lat="47.0567940" lon="6.6267040">
        <ele>792.7</ele>
        <time>2022-07-21T16:52:07Z</time>
      </trkpt>
      <trkpt lat="47.0568250" lon="6.6266690">
        <ele>792.6</ele>
        <time>2022-07-21T16:52:08Z</time>
      </trkpt>
      <trkpt lat="47.0568620" lon="6.6266220">
        <ele>792.5</ele>
        <time>2022-07-21T16:52:09Z</time>
      </trkpt>
      <trkpt lat="47.0568980" lon="6.6265520">
        <ele>792.2</ele>
        <time>2022-07-21T16:52:10Z</time>
      </trkpt>
      <trkpt lat="47.0569220" lon="6.6264750">
        <ele>791.9</ele>
        <time>2022-07-21T16:52:11Z</time>
      </trkpt>
      <trkpt lat="47.0569470" lon="6.6264080">
        <ele>791.7</ele>
        <time>2022-07-21T16:52:12Z</time>
      </trkpt>
      <trkpt lat="47.0569690" lon="6.6263490">
        <ele>791.4</ele>
        <time>2022-07-21T16:52:13Z</time>
      </trkpt>
      <trkpt lat="47.0569820" lon="6.6262840">
        <ele>791.2</ele>
        <time>2022-07-21T16:52:14Z</time>
      </trkpt>
      <trkpt lat="47.0569960" lon="6.6262250">
        <ele>791.0</ele>
        <time>2022-07-21T16:52:15Z</time>
      </trkpt>
      <trkpt lat="47.0570170" lon="6.6261580">
        <ele>790.7</ele>
        <time>2022-07-21T16:52:16Z</time>
      </trkpt>
      <trkpt lat="47.0570390" lon="6.6260890">
        <ele>790.5</ele>
        <time>2022-07-21T16:52:17Z</time>
      </trkpt>
      <trkpt lat="47.0570660" lon="6.6260170">
        <ele>790.2</ele>
        <time>2022-07-21T16:52:18Z</time>
      </trkpt>
      <trkpt lat="47.0570900" lon="6.6259470">
        <ele>789.9</ele>
        <time>2022-07-21T16:52:19Z</time>
      </trkpt>
      <trkpt lat="47.0571140" lon="6.6258830">
        <ele>789.7</ele>
        <time>2022-07-21T16:52:20Z</time>
      </trkpt>
      <trkpt lat="47.0571400" lon="6.6258120">
        <ele>789.5</ele>
        <time>2022-07-21T16:52:21Z</time>
      </trkpt>
      <trkpt lat="47.0571630" lon="6.6257390">
        <ele>789.3</ele>
        <time>2022-07-21T16:52:22Z</time>
      </trkpt>
      <trkpt lat="47.0571920" lon="6.6256740">
        <ele>789.1</ele>
        <time>2022-07-21T16:52:23Z</time>
      </trkpt>
      <trkpt lat="47.0572260" lon="6.6256110">
        <ele>788.9</ele>
        <time>2022-07-21T16:52:24Z</time>
      </trkpt>
      <trkpt lat="47.0572600" lon="6.6255440">
        <ele>788.7</ele>
        <time>2022-07-21T16:52:25Z</time>
      </trkpt>
      <trkpt lat="47.0572940" lon="6.6254780">
        <ele>788.5</ele>
        <time>2022-07-21T16:52:26Z</time>
      </trkpt>
      <trkpt lat="47.0573270" lon="6.6254090">
        <ele>788.2</ele>
        <time>2022-07-21T16:52:27Z</time>
      </trkpt>
      <trkpt lat="47.0573550" lon="6.6253430">
        <ele>788.0</ele>
        <time>2022-07-21T16:52:28Z</time>
      </trkpt>
      <trkpt lat="47.0573870" lon="6.6252790">
        <ele>787.8</ele>
        <time>2022-07-21T16:52:29Z</time>
      </trkpt>
      <trkpt lat="47.0574190" lon="6.6252130">
        <ele>787.6</ele>
        <time>2022-07-21T16:52:30Z</time>
      </trkpt>
      <trkpt lat="47.0574500" lon="6.6251450">
        <ele>787.4</ele>
        <time>2022-07-21T16:52:31Z</time>
      </trkpt>
      <trkpt lat="47.0574860" lon="6.6250780">
        <ele>787.2</ele>
        <time>2022-07-21T16:52:32Z</time>
      </trkpt>
      <trkpt lat="47.0575260" lon="6.6250140">
        <ele>786.9</ele>
        <time>2022-07-21T16:52:33Z</time>
      </trkpt>
      <trkpt lat="47.0575660" lon="6.6249470">
        <ele>786.7</ele>
        <time>2022-07-21T16:52:34Z</time>
      </trkpt>
      <trkpt lat="47.0576020" lon="6.6248780">
        <ele>786.4</ele>
        <time>2022-07-21T16:52:35Z</time>
      </trkpt>
      <trkpt lat="47.0576410" lon="6.6248120">
        <ele>786.2</ele>
        <time>2022-07-21T16:52:36Z</time>
      </trkpt>
      <trkpt lat="47.0576750" lon="6.6247460">
        <ele>786.0</ele>
        <time>2022-07-21T16:52:37Z</time>
      </trkpt>
      <trkpt lat="47.0577110" lon="6.6246800">
        <ele>785.7</ele>
        <time>2022-07-21T16:52:38Z</time>
      </trkpt>
      <trkpt lat="47.0577520" lon="6.6246170">
        <ele>785.5</ele>
        <time>2022-07-21T16:52:39Z</time>
      </trkpt>
      <trkpt lat="47.0577890" lon="6.6245620">
        <ele>785.2</ele>
        <time>2022-07-21T16:52:40Z</time>
      </trkpt>
      <trkpt lat="47.0578240" lon="6.6245070">
        <ele>785.0</ele>
        <time>2022-07-21T16:52:41Z</time>
      </trkpt>
      <trkpt lat="47.0578690" lon="6.6244550">
        <ele>784.8</ele>
        <time>2022-07-21T16:52:42Z</time>
      </trkpt>
      <trkpt lat="47.0579100" lon="6.6244060">
        <ele>784.6</ele>
        <time>2022-07-21T16:52:43Z</time>
      </trkpt>
      <trkpt lat="47.0579490" lon="6.6243680">
        <ele>784.4</ele>
        <time>2022-07-21T16:52:44Z</time>
      </trkpt>
      <trkpt lat="47.0579840" lon="6.6243400">
        <ele>784.2</ele>
        <time>2022-07-21T16:52:45Z</time>
      </trkpt>
      <trkpt lat="47.0580240" lon="6.6243080">
        <ele>784.1</ele>
        <time>2022-07-21T16:52:46Z</time>
      </trkpt>
      <trkpt lat="47.0580590" lon="6.6242840">
        <ele>783.9</ele>
        <time>2022-07-21T16:52:47Z</time>
      </trkpt>
      <trkpt lat="47.0580700" lon="6.6242740">
        <ele>783.9</ele>
        <time>2022-07-21T16:52:48Z</time>
      </trkpt>
      <trkpt lat="47.0580920" lon="6.6242440">
        <ele>783.8</ele>
        <time>2022-07-21T16:52:49Z</time>
      </trkpt>
      <trkpt lat="47.0581070" lon="6.6242050">
        <ele>783.7</ele>
        <time>2022-07-21T16:52:50Z</time>
      </trkpt>
      <trkpt lat="47.0581150" lon="6.6241500">
        <ele>783.5</ele>
        <time>2022-07-21T16:52:51Z</time>
      </trkpt>
      <trkpt lat="47.0581230" lon="6.6240940">
        <ele>783.5</ele>
        <time>2022-07-21T16:52:52Z</time>
      </trkpt>
      <trkpt lat="47.0581250" lon="6.6240720">
        <ele>783.5</ele>
        <time>2022-07-21T16:52:53Z</time>
      </trkpt>
      <trkpt lat="47.0581010" lon="6.6240330">
        <ele>783.4</ele>
        <time>2022-07-21T16:52:54Z</time>
      </trkpt>
      <trkpt lat="47.0580470" lon="6.6239740">
        <ele>783.3</ele>
        <time>2022-07-21T16:52:55Z</time>
      </trkpt>
      <trkpt lat="47.0580120" lon="6.6239240">
        <ele>783.2</ele>
        <time>2022-07-21T16:52:56Z</time>
      </trkpt>
      <trkpt lat="47.0579740" lon="6.6238710">
        <ele>783.1</ele>
        <time>2022-07-21T16:52:57Z</time>
      </trkpt>
      <trkpt lat="47.0579200" lon="6.6238060">
        <ele>783.0</ele>
        <time>2022-07-21T16:52:59Z</time>
      </trkpt>
      <trkpt lat="47.0578920" lon="6.6237770">
        <ele>782.9</ele>
        <time>2022-07-21T16:53:00Z</time>
      </trkpt>
      <trkpt lat="47.0578630" lon="6.6237270">
        <ele>782.8</ele>
        <time>2022-07-21T16:53:01Z</time>
      </trkpt>
      <trkpt lat="47.0578400" lon="6.6236850">
        <ele>782.7</ele>
        <time>2022-07-21T16:53:02Z</time>
      </trkpt>
      <trkpt lat="47.0577960" lon="6.6236140">
        <ele>782.6</ele>
        <time>2022-07-21T16:53:03Z</time>
      </trkpt>
      <trkpt lat="47.0577730" lon="6.6235710">
        <ele>782.5</ele>
        <time>2022-07-21T16:53:04Z</time>
      </trkpt>
      <trkpt lat="47.0577380" lon="6.6235130">
        <ele>782.4</ele>
        <time>2022-07-21T16:53:06Z</time>
      </trkpt>
      <trkpt lat="47.0577030" lon="6.6234510">
        <ele>782.3</ele>
        <time>2022-07-21T16:53:07Z</time>
      </trkpt>
      <trkpt lat="47.0576610" lon="6.6233810">
        <ele>782.2</ele>
        <time>2022-07-21T16:53:09Z</time>
      </trkpt>
      <trkpt lat="47.0576310" lon="6.6233330">
        <ele>782.1</ele>
        <time>2022-07-21T16:53:10Z</time>
      </trkpt>
      <trkpt lat="47.0575980" lon="6.6232780">
        <ele>782.0</ele>
        <time>2022-07-21T16:53:11Z</time>
      </trkpt>
      <trkpt lat="47.0575640" lon="6.6232240">
        <ele>782.0</ele>
        <time>2022-07-21T16:53:12Z</time>
      </trkpt>
      <trkpt lat="47.0575390" lon="6.6231800">
        <ele>781.9</ele>
        <time>2022-07-21T16:53:13Z</time>
      </trkpt>
      <trkpt lat="47.0575060" lon="6.6231400">
        <ele>781.8</ele>
        <time>2022-07-21T16:53:14Z</time>
      </trkpt>
      <trkpt lat="47.0574680" lon="6.6230910">
        <ele>781.7</ele>
        <time>2022-07-21T16:53:15Z</time>
      </trkpt>
      <trkpt lat="47.0574330" lon="6.6230470">
        <ele>781.7</ele>
        <time>2022-07-21T16:53:16Z</time>
      </trkpt>
      <trkpt lat="47.0574070" lon="6.6230200">
        <ele>781.6</ele>
        <time>2022-07-21T16:53:17Z</time>
      </trkpt>
      <trkpt lat="47.0573770" lon="6.6229750">
        <ele>781.5</ele>
        <time>2022-07-21T16:53:18Z</time>
      </trkpt>
      <trkpt lat="47.0573470" lon="6.6229120">
        <ele>781.5</ele>
        <time>2022-07-21T16:53:19Z</time>
      </trkpt>
      <trkpt lat="47.0573170" lon="6.6228540">
        <ele>781.4</ele>
        <time>2022-07-21T16:53:20Z</time>
      </trkpt>
      <trkpt lat="47.0572830" lon="6.6228020">
        <ele>781.3</ele>
        <time>2022-07-21T16:53:21Z</time>
      </trkpt>
      <trkpt lat="47.0572500" lon="6.6227480">
        <ele>781.2</ele>
        <time>2022-07-21T16:53:22Z</time>
      </trkpt>
      <trkpt lat="47.0572290" lon="6.6227110">
        <ele>781.2</ele>
        <time>2022-07-21T16:53:23Z</time>
      </trkpt>
      <trkpt lat="47.0572020" lon="6.6226650">
        <ele>781.1</ele>
        <time>2022-07-21T16:53:24Z</time>
      </trkpt>
      <trkpt lat="47.0571690" lon="6.6226180">
        <ele>781.0</ele>
        <time>2022-07-21T16:53:25Z</time>
      </trkpt>
      <trkpt lat="47.0571310" lon="6.6225620">
        <ele>780.9</ele>
        <time>2022-07-21T16:53:26Z</time>
      </trkpt>
      <trkpt lat="47.0570990" lon="6.6225050">
        <ele>780.8</ele>
        <time>2022-07-21T16:53:27Z</time>
      </trkpt>
      <trkpt lat="47.0570790" lon="6.6224650">
        <ele>780.8</ele>
        <time>2022-07-21T16:53:28Z</time>
      </trkpt>
      <trkpt lat="47.0570530" lon="6.6224210">
        <ele>780.7</ele>
        <time>2022-07-21T16:53:29Z</time>
      </trkpt>
      <trkpt lat="47.0570170" lon="6.6223750">
        <ele>780.5</ele>
        <time>2022-07-21T16:53:30Z</time>
      </trkpt>
      <trkpt lat="47.0569880" lon="6.6223420">
        <ele>780.4</ele>
        <time>2022-07-21T16:53:31Z</time>
      </trkpt>
      <trkpt lat="47.0569600" lon="6.6223140">
        <ele>780.4</ele>
        <time>2022-07-21T16:53:32Z</time>
      </trkpt>
      <trkpt lat="47.0569250" lon="6.6222830">
        <ele>780.4</ele>
        <time>2022-07-21T16:53:33Z</time>
      </trkpt>
      <trkpt lat="47.0568920" lon="6.6222550">
        <ele>780.3</ele>
        <time>2022-07-21T16:53:34Z</time>
      </trkpt>
      <trkpt lat="47.0568590" lon="6.6222320">
        <ele>780.1</ele>
        <time>2022-07-21T16:53:35Z</time>
      </trkpt>
      <trkpt lat="47.0568170" lon="6.6222050">
        <ele>779.9</ele>
        <time>2022-07-21T16:53:36Z</time>
      </trkpt>
      <trkpt lat="47.0567760" lon="6.6221760">
        <ele>779.7</ele>
        <time>2022-07-21T16:53:37Z</time>
      </trkpt>
      <trkpt lat="47.0567340" lon="6.6221450">
        <ele>779.4</ele>
        <time>2022-07-21T16:53:38Z</time>
      </trkpt>
      <trkpt lat="47.0567200" lon="6.6221250">
        <ele>779.3</ele>
        <time>2022-07-21T16:53:39Z</time>
      </trkpt>
      <trkpt lat="47.0567120" lon="6.6221060">
        <ele>779.2</ele>
        <time>2022-07-21T16:53:40Z</time>
      </trkpt>
      <trkpt lat="47.0566830" lon="6.6220810">
        <ele>779.0</ele>
        <time>2022-07-21T16:53:41Z</time>
      </trkpt>
      <trkpt lat="47.0566740" lon="6.6220710">
        <ele>779.0</ele>
        <time>2022-07-21T16:53:42Z</time>
      </trkpt>
      <trkpt lat="47.0566490" lon="6.6220540">
        <ele>778.8</ele>
        <time>2022-07-21T16:53:43Z</time>
      </trkpt>
      <trkpt lat="47.0566210" lon="6.6220400">
        <ele>778.6</ele>
        <time>2022-07-21T16:53:44Z</time>
      </trkpt>
      <trkpt lat="47.0565920" lon="6.6220220">
        <ele>778.4</ele>
        <time>2022-07-21T16:53:45Z</time>
      </trkpt>
      <trkpt lat="47.0565600" lon="6.6219980">
        <ele>778.2</ele>
        <time>2022-07-21T16:53:46Z</time>
      </trkpt>
      <trkpt lat="47.0565160" lon="6.6219680">
        <ele>777.9</ele>
        <time>2022-07-21T16:53:47Z</time>
      </trkpt>
      <trkpt lat="47.0564740" lon="6.6219460">
        <ele>777.6</ele>
        <time>2022-07-21T16:53:48Z</time>
      </trkpt>
      <trkpt lat="47.0564370" lon="6.6219260">
        <ele>777.3</ele>
        <time>2022-07-21T16:53:49Z</time>
      </trkpt>
      <trkpt lat="47.0563890" lon="6.6219000">
        <ele>777.0</ele>
        <time>2022-07-21T16:53:50Z</time>
      </trkpt>
      <trkpt lat="47.0563380" lon="6.6218750">
        <ele>776.6</ele>
        <time>2022-07-21T16:53:51Z</time>
      </trkpt>
      <trkpt lat="47.0562870" lon="6.6218390">
        <ele>776.2</ele>
        <time>2022-07-21T16:53:52Z</time>
      </trkpt>
      <trkpt lat="47.0562350" lon="6.6218020">
        <ele>775.8</ele>
        <time>2022-07-21T16:53:53Z</time>
      </trkpt>
      <trkpt lat="47.0561760" lon="6.6217620">
        <ele>775.4</ele>
        <time>2022-07-21T16:53:54Z</time>
      </trkpt>
      <trkpt lat="47.0561150" lon="6.6217230">
        <ele>774.9</ele>
        <time>2022-07-21T16:53:55Z</time>
      </trkpt>
      <trkpt lat="47.0560540" lon="6.6216780">
        <ele>774.5</ele>
        <time>2022-07-21T16:53:56Z</time>
      </trkpt>
      <trkpt lat="47.0559940" lon="6.6216320">
        <ele>774.0</ele>
        <time>2022-07-21T16:53:57Z</time>
      </trkpt>
      <trkpt lat="47.0559390" lon="6.6215810">
        <ele>773.6</ele>
        <time>2022-07-21T16:53:58Z</time>
      </trkpt>
      <trkpt lat="47.0558830" lon="6.6215290">
        <ele>773.1</ele>
        <time>2022-07-21T16:53:59Z</time>
      </trkpt>
      <trkpt lat="47.0558380" lon="6.6214740">
        <ele>772.8</ele>
        <time>2022-07-21T16:54:00Z</time>
      </trkpt>
      <trkpt lat="47.0557960" lon="6.6214040">
        <ele>772.3</ele>
        <time>2022-07-21T16:54:01Z</time>
      </trkpt>
      <trkpt lat="47.0557550" lon="6.6213290">
        <ele>771.9</ele>
        <time>2022-07-21T16:54:02Z</time>
      </trkpt>
      <trkpt lat="47.0557280" lon="6.6212540">
        <ele>771.6</ele>
        <time>2022-07-21T16:54:03Z</time>
      </trkpt>
      <trkpt lat="47.0557120" lon="6.6211680">
        <ele>771.4</ele>
        <time>2022-07-21T16:54:04Z</time>
      </trkpt>
      <trkpt lat="47.0556890" lon="6.6210510">
        <ele>771.1</ele>
        <time>2022-07-21T16:54:05Z</time>
      </trkpt>
      <trkpt lat="47.0556660" lon="6.6209340">
        <ele>770.9</ele>
        <time>2022-07-21T16:54:06Z</time>
      </trkpt>
      <trkpt lat="47.0556540" lon="6.6208210">
        <ele>770.6</ele>
        <time>2022-07-21T16:54:07Z</time>
      </trkpt>
      <trkpt lat="47.0556430" lon="6.6207100">
        <ele>770.4</ele>
        <time>2022-07-21T16:54:08Z</time>
      </trkpt>
      <trkpt lat="47.0556340" lon="6.6206040">
        <ele>770.1</ele>
        <time>2022-07-21T16:54:09Z</time>
      </trkpt>
      <trkpt lat="47.0556530" lon="6.6204860">
        <ele>769.6</ele>
        <time>2022-07-21T16:54:10Z</time>
      </trkpt>
      <trkpt lat="47.0556940" lon="6.6203710">
        <ele>769.0</ele>
        <time>2022-07-21T16:54:11Z</time>
      </trkpt>
      <trkpt lat="47.0557270" lon="6.6202610">
        <ele>768.6</ele>
        <time>2022-07-21T16:54:12Z</time>
      </trkpt>
      <trkpt lat="47.0557600" lon="6.6201580">
        <ele>768.2</ele>
        <time>2022-07-21T16:54:13Z</time>
      </trkpt>
      <trkpt lat="47.0557940" lon="6.6200480">
        <ele>767.9</ele>
        <time>2022-07-21T16:54:14Z</time>
      </trkpt>
      <trkpt lat="47.0558300" lon="6.6199340">
        <ele>767.5</ele>
        <time>2022-07-21T16:54:15Z</time>
      </trkpt>
      <trkpt lat="47.0558610" lon="6.6198220">
        <ele>767.1</ele>
        <time>2022-07-21T16:54:16Z</time>
      </trkpt>
      <trkpt lat="47.0558940" lon="6.6197160">
        <ele>766.7</ele>
        <time>2022-07-21T16:54:17Z</time>
      </trkpt>
      <trkpt lat="47.0559280" lon="6.6196060">
        <ele>766.3</ele>
        <time>2022-07-21T16:54:18Z</time>
      </trkpt>
      <trkpt lat="47.0559620" lon="6.6195010">
        <ele>765.9</ele>
        <time>2022-07-21T16:54:19Z</time>
      </trkpt>
      <trkpt lat="47.0559960" lon="6.6193930">
        <ele>765.5</ele>
        <time>2022-07-21T16:54:20Z</time>
      </trkpt>
      <trkpt lat="47.0560330" lon="6.6192750">
        <ele>765.1</ele>
        <time>2022-07-21T16:54:21Z</time>
      </trkpt>
      <trkpt lat="47.0560690" lon="6.6191710">
        <ele>764.8</ele>
        <time>2022-07-21T16:54:22Z</time>
      </trkpt>
      <trkpt lat="47.0561020" lon="6.6190700">
        <ele>764.4</ele>
        <time>2022-07-21T16:54:23Z</time>
      </trkpt>
      <trkpt lat="47.0561430" lon="6.6189730">
        <ele>764.3</ele>
        <time>2022-07-21T16:54:24Z</time>
      </trkpt>
      <trkpt lat="47.0561790" lon="6.6188730">
        <ele>763.8</ele>
        <time>2022-07-21T16:54:25Z</time>
      </trkpt>
      <trkpt lat="47.0562170" lon="6.6187720">
        <ele>763.3</ele>
        <time>2022-07-21T16:54:26Z</time>
      </trkpt>
      <trkpt lat="47.0562590" lon="6.6186770">
        <ele>762.9</ele>
        <time>2022-07-21T16:54:27Z</time>
      </trkpt>
      <trkpt lat="47.0563070" lon="6.6185820">
        <ele>762.4</ele>
        <time>2022-07-21T16:54:28Z</time>
      </trkpt>
      <trkpt lat="47.0563670" lon="6.6185170">
        <ele>761.9</ele>
        <time>2022-07-21T16:54:29Z</time>
      </trkpt>
      <trkpt lat="47.0564250" lon="6.6184480">
        <ele>761.4</ele>
        <time>2022-07-21T16:54:30Z</time>
      </trkpt>
      <trkpt lat="47.0564810" lon="6.6183880">
        <ele>761.0</ele>
        <time>2022-07-21T16:54:31Z</time>
      </trkpt>
      <trkpt lat="47.0565370" lon="6.6183440">
        <ele>760.6</ele>
        <time>2022-07-21T16:54:32Z</time>
      </trkpt>
      <trkpt lat="47.0565890" lon="6.6183110">
        <ele>760.2</ele>
        <time>2022-07-21T16:54:33Z</time>
      </trkpt>
      <trkpt lat="47.0566480" lon="6.6182810">
        <ele>759.9</ele>
        <time>2022-07-21T16:54:34Z</time>
      </trkpt>
      <trkpt lat="47.0567080" lon="6.6182480">
        <ele>759.6</ele>
        <time>2022-07-21T16:54:35Z</time>
      </trkpt>
      <trkpt lat="47.0567610" lon="6.6181940">
        <ele>759.3</ele>
        <time>2022-07-21T16:54:36Z</time>
      </trkpt>
      <trkpt lat="47.0568100" lon="6.6181340">
        <ele>759.0</ele>
        <time>2022-07-21T16:54:37Z</time>
      </trkpt>
      <trkpt lat="47.0568540" lon="6.6180680">
        <ele>758.7</ele>
        <time>2022-07-21T16:54:38Z</time>
      </trkpt>
      <trkpt lat="47.0568920" lon="6.6180020">
        <ele>758.4</ele>
        <time>2022-07-21T16:54:39Z</time>
      </trkpt>
      <trkpt lat="47.0569260" lon="6.6179390">
        <ele>758.2</ele>
        <time>2022-07-21T16:54:40Z</time>
      </trkpt>
      <trkpt lat="47.0569540" lon="6.6178630">
        <ele>757.9</ele>
        <time>2022-07-21T16:54:41Z</time>
      </trkpt>
      <trkpt lat="47.0569760" lon="6.6177820">
        <ele>757.6</ele>
        <time>2022-07-21T16:54:42Z</time>
      </trkpt>
      <trkpt lat="47.0569970" lon="6.6177300">
        <ele>757.4</ele>
        <time>2022-07-21T16:54:43Z</time>
      </trkpt>
      <trkpt lat="47.0570050" lon="6.6176990">
        <ele>757.3</ele>
        <time>2022-07-21T16:54:44Z</time>
      </trkpt>
      <trkpt lat="47.0570040" lon="6.6176840">
        <ele>757.3</ele>
        <time>2022-07-21T16:54:45Z</time>
      </trkpt>
      <trkpt lat="47.0570050" lon="6.6176620">
        <ele>757.2</ele>
        <time>2022-07-21T16:54:46Z</time>
      </trkpt>
      <trkpt lat="47.0570060" lon="6.6176380">
        <ele>757.2</ele>
        <time>2022-07-21T16:54:47Z</time>
      </trkpt>
      <trkpt lat="47.0570250" lon="6.6175870">
        <ele>757.0</ele>
        <time>2022-07-21T16:54:48Z</time>
      </trkpt>
      <trkpt lat="47.0570490" lon="6.6175390">
        <ele>757.3</ele>
        <time>2022-07-21T16:54:49Z</time>
      </trkpt>
      <trkpt lat="47.0570670" lon="6.6174970">
        <ele>757.4</ele>
        <time>2022-07-21T16:54:50Z</time>
      </trkpt>
      <trkpt lat="47.0570730" lon="6.6174350">
        <ele>757.6</ele>
        <time>2022-07-21T16:54:51Z</time>
      </trkpt>
      <trkpt lat="47.0570660" lon="6.6173750">
        <ele>757.6</ele>
        <time>2022-07-21T16:54:52Z</time>
      </trkpt>
      <trkpt lat="47.0570510" lon="6.6173290">
        <ele>757.6</ele>
        <time>2022-07-21T16:54:53Z</time>
      </trkpt>
      <trkpt lat="47.0570330" lon="6.6172760">
        <ele>757.6</ele>
        <time>2022-07-21T16:54:54Z</time>
      </trkpt>
      <trkpt lat="47.0570050" lon="6.6172150">
        <ele>757.4</ele>
        <time>2022-07-21T16:54:55Z</time>
      </trkpt>
      <trkpt lat="47.0569830" lon="6.6171700">
        <ele>757.3</ele>
        <time>2022-07-21T16:54:56Z</time>
      </trkpt>
      <trkpt lat="47.0569550" lon="6.6171150">
        <ele>757.1</ele>
        <time>2022-07-21T16:54:57Z</time>
      </trkpt>
      <trkpt lat="47.0569290" lon="6.6170660">
        <ele>757.0</ele>
        <time>2022-07-21T16:54:58Z</time>
      </trkpt>
      <trkpt lat="47.0569000" lon="6.6170190">
        <ele>756.8</ele>
        <time>2022-07-21T16:54:59Z</time>
      </trkpt>
      <trkpt lat="47.0568720" lon="6.6169650">
        <ele>756.7</ele>
        <time>2022-07-21T16:55:00Z</time>
      </trkpt>
      <trkpt lat="47.0568480" lon="6.6169070">
        <ele>756.6</ele>
        <time>2022-07-21T16:55:01Z</time>
      </trkpt>
      <trkpt lat="47.0568270" lon="6.6168510">
        <ele>756.5</ele>
        <time>2022-07-21T16:55:02Z</time>
      </trkpt>
      <trkpt lat="47.0568060" lon="6.6168090">
        <ele>756.4</ele>
        <time>2022-07-21T16:55:03Z</time>
      </trkpt>
      <trkpt lat="47.0567850" lon="6.6167550">
        <ele>756.5</ele>
        <time>2022-07-21T16:55:04Z</time>
      </trkpt>
      <trkpt lat="47.0567760" lon="6.6167050">
        <ele>756.5</ele>
        <time>2022-07-21T16:55:05Z</time>
      </trkpt>
      <trkpt lat="47.0567620" lon="6.6166480">
        <ele>756.6</ele>
        <time>2022-07-21T16:55:06Z</time>
      </trkpt>
      <trkpt lat="47.0567480" lon="6.6165910">
        <ele>756.6</ele>
        <time>2022-07-21T16:55:07Z</time>
      </trkpt>
      <trkpt lat="47.0567350" lon="6.6165360">
        <ele>756.7</ele>
        <time>2022-07-21T16:55:08Z</time>
      </trkpt>
      <trkpt lat="47.0567260" lon="6.6164830">
        <ele>756.8</ele>
        <time>2022-07-21T16:55:09Z</time>
      </trkpt>
      <trkpt lat="47.0567190" lon="6.6164310">
        <ele>756.8</ele>
        <time>2022-07-21T16:55:10Z</time>
      </trkpt>
      <trkpt lat="47.0567080" lon="6.6163740">
        <ele>756.9</ele>
        <time>2022-07-21T16:55:11Z</time>
      </trkpt>
      <trkpt lat="47.0566950" lon="6.6163220">
        <ele>756.9</ele>
        <time>2022-07-21T16:55:12Z</time>
      </trkpt>
      <trkpt lat="47.0566800" lon="6.6162810">
        <ele>757.0</ele>
        <time>2022-07-21T16:55:13Z</time>
      </trkpt>
      <trkpt lat="47.0566650" lon="6.6162470">
        <ele>757.0</ele>
        <time>2022-07-21T16:55:14Z</time>
      </trkpt>
      <trkpt lat="47.0566470" lon="6.6162030">
        <ele>757.1</ele>
        <time>2022-07-21T16:55:15Z</time>
      </trkpt>
      <trkpt lat="47.0566320" lon="6.6161570">
        <ele>757.1</ele>
        <time>2022-07-21T16:55:16Z</time>
      </trkpt>
      <trkpt lat="47.0566220" lon="6.6161110">
        <ele>757.2</ele>
        <time>2022-07-21T16:55:17Z</time>
      </trkpt>
      <trkpt lat="47.0566170" lon="6.6160670">
        <ele>757.2</ele>
        <time>2022-07-21T16:55:18Z</time>
      </trkpt>
      <trkpt lat="47.0566220" lon="6.6160210">
        <ele>757.3</ele>
        <time>2022-07-21T16:55:19Z</time>
      </trkpt>
      <trkpt lat="47.0566250" lon="6.6160040">
        <ele>757.3</ele>
        <time>2022-07-21T16:55:20Z</time>
      </trkpt>
      <trkpt lat="47.0566380" lon="6.6159550">
        <ele>757.4</ele>
        <time>2022-07-21T16:55:21Z</time>
      </trkpt>
      <trkpt lat="47.0566410" lon="6.6159400">
        <ele>757.4</ele>
        <time>2022-07-21T16:55:22Z</time>
      </trkpt>
      <trkpt lat="47.0566400" lon="6.6158940">
        <ele>757.5</ele>
        <time>2022-07-21T16:55:23Z</time>
      </trkpt>
      <trkpt lat="47.0566390" lon="6.6158790">
        <ele>757.6</ele>
        <time>2022-07-21T16:55:24Z</time>
      </trkpt>
      <trkpt lat="47.0566450" lon="6.6158390">
        <ele>757.6</ele>
        <time>2022-07-21T16:55:25Z</time>
      </trkpt>
      <trkpt lat="47.0566510" lon="6.6158260">
        <ele>757.7</ele>
        <time>2022-07-21T16:55:26Z</time>
      </trkpt>
      <trkpt lat="47.0566670" lon="6.6157910">
        <ele>757.8</ele>
        <time>2022-07-21T16:55:27Z</time>
      </trkpt>
      <trkpt lat="47.0566730" lon="6.6157810">
        <ele>757.8</ele>
        <time>2022-07-21T16:55:28Z</time>
      </trkpt>
      <trkpt lat="47.0566870" lon="6.6157440">
        <ele>757.8</ele>
        <time>2022-07-21T16:55:29Z</time>
      </trkpt>
      <trkpt lat="47.0566920" lon="6.6157300">
        <ele>757.8</ele>
        <time>2022-07-21T16:55:30Z</time>
      </trkpt>
      <trkpt lat="47.0566970" lon="6.6157090">
        <ele>757.8</ele>
        <time>2022-07-21T16:55:31Z</time>
      </trkpt>
      <trkpt lat="47.0567050" lon="6.6156820">
        <ele>757.8</ele>
        <time>2022-07-21T16:55:32Z</time>
      </trkpt>
      <trkpt lat="47.0567070" lon="6.6156420">
        <ele>757.8</ele>
        <time>2022-07-21T16:55:33Z</time>
      </trkpt>
      <trkpt lat="47.0566990" lon="6.6155850">
        <ele>757.9</ele>
        <time>2022-07-21T16:55:34Z</time>
      </trkpt>
      <trkpt lat="47.0566840" lon="6.6155420">
        <ele>757.9</ele>
        <time>2022-07-21T16:55:35Z</time>
      </trkpt>
      <trkpt lat="47.0566620" lon="6.6154980">
        <ele>758.0</ele>
        <time>2022-07-21T16:55:36Z</time>
      </trkpt>
      <trkpt lat="47.0566440" lon="6.6154560">
        <ele>758.0</ele>
        <time>2022-07-21T16:55:37Z</time>
      </trkpt>
      <trkpt lat="47.0566290" lon="6.6153990">
        <ele>758.1</ele>
        <time>2022-07-21T16:55:38Z</time>
      </trkpt>
      <trkpt lat="47.0566250" lon="6.6153760">
        <ele>758.1</ele>
        <time>2022-07-21T16:55:39Z</time>
      </trkpt>
      <trkpt lat="47.0566320" lon="6.6153320">
        <ele>758.2</ele>
        <time>2022-07-21T16:55:40Z</time>
      </trkpt>
      <trkpt lat="47.0566370" lon="6.6153180">
        <ele>758.2</ele>
        <time>2022-07-21T16:55:41Z</time>
      </trkpt>
      <trkpt lat="47.0566400" lon="6.6153030">
        <ele>758.2</ele>
        <time>2022-07-21T16:55:42Z</time>
      </trkpt>
      <trkpt lat="47.0566420" lon="6.6152870">
        <ele>758.2</ele>
        <time>2022-07-21T16:55:43Z</time>
      </trkpt>
      <trkpt lat="47.0566410" lon="6.6152730">
        <ele>758.2</ele>
        <time>2022-07-21T16:55:44Z</time>
      </trkpt>
      <trkpt lat="47.0566310" lon="6.6152640">
        <ele>758.3</ele>
        <time>2022-07-21T16:55:45Z</time>
      </trkpt>
      <trkpt lat="47.0566260" lon="6.6152630">
        <ele>758.3</ele>
        <time>2022-07-21T16:55:46Z</time>
      </trkpt>
      <trkpt lat="47.0566210" lon="6.6152620">
        <ele>758.3</ele>
        <time>2022-07-21T16:55:47Z</time>
      </trkpt>
      <trkpt lat="47.0566160" lon="6.6152610">
        <ele>758.3</ele>
        <time>2022-07-21T16:55:48Z</time>
      </trkpt>
      <trkpt lat="47.0566110" lon="6.6152600">
        <ele>758.3</ele>
        <time>2022-07-21T16:55:49Z</time>
      </trkpt>
      <trkpt lat="47.0566060" lon="6.6152590">
        <ele>758.3</ele>
        <time>2022-07-21T16:55:50Z</time>
      </trkpt>
      <trkpt lat="47.0566010" lon="6.6152580">
        <ele>758.3</ele>
        <time>2022-07-21T16:55:51Z</time>
      </trkpt>
      <trkpt lat="47.0565960" lon="6.6152570">
        <ele>758.3</ele>
        <time>2022-07-21T16:55:52Z</time>
      </trkpt>
      <trkpt lat="47.0565910" lon="6.6152560">
        <ele>758.3</ele>
        <time>2022-07-21T16:55:53Z</time>
      </trkpt>
      <trkpt lat="47.0565720" lon="6.6152520">
        <ele>758.4</ele>
        <time>2022-07-21T16:55:54Z</time>
      </trkpt>
      <trkpt lat="47.0565590" lon="6.6152480">
        <ele>758.4</ele>
        <time>2022-07-21T16:55:55Z</time>
      </trkpt>
      <trkpt lat="47.0565230" lon="6.6152450">
        <ele>758.5</ele>
        <time>2022-07-21T16:55:56Z</time>
      </trkpt>
      <trkpt lat="47.0565100" lon="6.6152430">
        <ele>758.5</ele>
        <time>2022-07-21T16:55:57Z</time>
      </trkpt>
      <trkpt lat="47.0564840" lon="6.6152170">
        <ele>758.5</ele>
        <time>2022-07-21T16:55:58Z</time>
      </trkpt>
      <trkpt lat="47.0564770" lon="6.6152030">
        <ele>758.6</ele>
        <time>2022-07-21T16:55:59Z</time>
      </trkpt>
      <trkpt lat="47.0564720" lon="6.6151630">
        <ele>758.6</ele>
        <time>2022-07-21T16:56:00Z</time>
      </trkpt>
      <trkpt lat="47.0564830" lon="6.6151260">
        <ele>758.6</ele>
        <time>2022-07-21T16:56:01Z</time>
      </trkpt>
      <trkpt lat="47.0564960" lon="6.6150740">
        <ele>758.7</ele>
        <time>2022-07-21T16:56:02Z</time>
      </trkpt>
      <trkpt lat="47.0565000" lon="6.6150590">
        <ele>758.7</ele>
        <time>2022-07-21T16:56:03Z</time>
      </trkpt>
      <trkpt lat="47.0565060" lon="6.6150180">
        <ele>758.7</ele>
        <time>2022-07-21T16:56:04Z</time>
      </trkpt>
      <trkpt lat="47.0565070" lon="6.6150040">
        <ele>758.7</ele>
        <time>2022-07-21T16:56:05Z</time>
      </trkpt>
      <trkpt lat="47.0565160" lon="6.6149620">
        <ele>758.8</ele>
        <time>2022-07-21T16:56:06Z</time>
      </trkpt>
      <trkpt lat="47.0565190" lon="6.6149490">
        <ele>758.8</ele>
        <time>2022-07-21T16:56:07Z</time>
      </trkpt>
      <trkpt lat="47.0565260" lon="6.6149070">
        <ele>758.8</ele>
        <time>2022-07-21T16:56:08Z</time>
      </trkpt>
      <trkpt lat="47.0565270" lon="6.6148950">
        <ele>758.8</ele>
        <time>2022-07-21T16:56:09Z</time>
      </trkpt>
      <trkpt lat="47.0565280" lon="6.6148730">
        <ele>758.8</ele>
        <time>2022-07-21T16:56:10Z</time>
      </trkpt>
      <trkpt lat="47.0565320" lon="6.6148430">
        <ele>758.9</ele>
        <time>2022-07-21T16:56:11Z</time>
      </trkpt>
      <trkpt lat="47.0565400" lon="6.6148010">
        <ele>758.9</ele>
        <time>2022-07-21T16:56:12Z</time>
      </trkpt>
      <trkpt lat="47.0565430" lon="6.6147890">
        <ele>758.9</ele>
        <time>2022-07-21T16:56:13Z</time>
      </trkpt>
      <trkpt lat="47.0565550" lon="6.6147480">
        <ele>758.9</ele>
        <time>2022-07-21T16:56:14Z</time>
      </trkpt>
      <trkpt lat="47.0565590" lon="6.6147360">
        <ele>758.9</ele>
        <time>2022-07-21T16:56:15Z</time>
      </trkpt>
      <trkpt lat="47.0565730" lon="6.6146910">
        <ele>759.0</ele>
        <time>2022-07-21T16:56:16Z</time>
      </trkpt>
      <trkpt lat="47.0565760" lon="6.6146770">
        <ele>759.0</ele>
        <time>2022-07-21T16:56:17Z</time>
      </trkpt>
      <trkpt lat="47.0565830" lon="6.6146360">
        <ele>759.1</ele>
        <time>2022-07-21T16:56:18Z</time>
      </trkpt>
      <trkpt lat="47.0565850" lon="6.6146230">
        <ele>759.1</ele>
        <time>2022-07-21T16:56:19Z</time>
      </trkpt>
      <trkpt lat="47.0565950" lon="6.6145760">
        <ele>759.2</ele>
        <time>2022-07-21T16:56:20Z</time>
      </trkpt>
      <trkpt lat="47.0565990" lon="6.6145600">
        <ele>759.2</ele>
        <time>2022-07-21T16:56:21Z</time>
      </trkpt>
      <trkpt lat="47.0566000" lon="6.6145330">
        <ele>759.2</ele>
        <time>2022-07-21T16:56:22Z</time>
      </trkpt>
      <trkpt lat="47.0566020" lon="6.6145090">
        <ele>759.2</ele>
        <time>2022-07-21T16:56:23Z</time>
      </trkpt>
      <trkpt lat="47.0566030" lon="6.6144890">
        <ele>759.2</ele>
        <time>2022-07-21T16:56:24Z</time>
      </trkpt>
      <trkpt lat="47.0566050" lon="6.6144680">
        <ele>759.2</ele>
        <time>2022-07-21T16:56:25Z</time>
      </trkpt>
      <trkpt lat="47.0566060" lon="6.6144520">
        <ele>759.3</ele>
        <time>2022-07-21T16:56:26Z</time>
      </trkpt>
      <trkpt lat="47.0566040" lon="6.6144430">
        <ele>759.3</ele>
        <time>2022-07-21T16:56:27Z</time>
      </trkpt>
      <trkpt lat="47.0566030" lon="6.6144390">
        <ele>759.3</ele>
        <time>2022-07-21T16:56:28Z</time>
      </trkpt>
      <trkpt lat="47.0565990" lon="6.6144420">
        <ele>759.3</ele>
        <time>2022-07-21T16:56:29Z</time>
      </trkpt>
      <trkpt lat="47.0565920" lon="6.6144490">
        <ele>759.3</ele>
        <time>2022-07-21T16:56:30Z</time>
      </trkpt>
      <trkpt lat="47.0565890" lon="6.6144500">
        <ele>759.3</ele>
        <time>2022-07-21T16:56:31Z</time>
      </trkpt>
      <trkpt lat="47.0565890" lon="6.6144470">
        <ele>759.3</ele>
        <time>2022-07-21T16:56:32Z</time>
      </trkpt>
      <trkpt lat="47.0565900" lon="6.6144430">
        <ele>759.3</ele>
        <time>2022-07-21T16:56:33Z</time>
      </trkpt>
      <trkpt lat="47.0565920" lon="6.6144400">
        <ele>759.3</ele>
        <time>2022-07-21T16:56:34Z</time>
      </trkpt>
      <trkpt lat="47.0565940" lon="6.6144370">
        <ele>759.3</ele>
        <time>2022-07-21T16:56:35Z</time>
      </trkpt>
      <trkpt lat="47.0565940" lon="6.6144370">
        <ele>759.3</ele>
        <time>2022-07-21T16:56:36Z</time>
      </trkpt>
      <trkpt lat="47.0565940" lon="6.6144410">
        <ele>759.3</ele>
        <time>2022-07-21T16:56:37Z</time>
      </trkpt>
      <trkpt lat="47.0565930" lon="6.6144460">
        <ele>759.3</ele>
        <time>2022-07-21T16:56:38Z</time>
      </trkpt>
      <trkpt lat="47.0565920" lon="6.6144500">
        <ele>759.3</ele>
        <time>2022-07-21T16:56:39Z</time>
      </trkpt>
      <trkpt lat="47.0565920" lon="6.6144520">
        <ele>759.3</ele>
        <time>2022-07-21T16:56:40Z</time>
      </trkpt>
      <trkpt lat="47.0565910" lon="6.6144530">
        <ele>759.3</ele>
        <time>2022-07-21T16:56:41Z</time>
      </trkpt>
      <trkpt lat="47.0565900" lon="6.6144550">
        <ele>759.3</ele>
        <time>2022-07-21T16:56:42Z</time>
      </trkpt>
      <trkpt lat="47.0565880" lon="6.6144580">
        <ele>759.3</ele>
        <time>2022-07-21T16:56:43Z</time>
      </trkpt>
      <trkpt lat="47.0565860" lon="6.6144600">
        <ele>759.3</ele>
        <time>2022-07-21T16:56:44Z</time>
      </trkpt>
      <trkpt lat="47.0565840" lon="6.6144610">
        <ele>759.3</ele>
        <time>2022-07-21T16:56:45Z</time>
      </trkpt>
      <trkpt lat="47.0565830" lon="6.6144620">
        <ele>759.3</ele>
        <time>2022-07-21T16:56:46Z</time>
      </trkpt>
      <trkpt lat="47.0532470" lon="6.5987980">
        <ele>755.8</ele>
        <time>2022-07-22T07:49:52Z</time>
      </trkpt>
      <trkpt lat="47.0532470" lon="6.5987980">
        <ele>756.0</ele>
        <time>2022-07-22T07:50:03Z</time>
      </trkpt>
      <trkpt lat="47.0532340" lon="6.5988940">
        <ele>756.0</ele>
        <time>2022-07-22T07:50:08Z</time>
      </trkpt>
      <trkpt lat="47.0531910" lon="6.5988920">
        <ele>756.0</ele>
        <time>2022-07-22T07:50:10Z</time>
      </trkpt>
      <trkpt lat="47.0531490" lon="6.5988650">
        <ele>756.0</ele>
        <time>2022-07-22T07:50:14Z</time>
      </trkpt>
      <trkpt lat="47.0531350" lon="6.5988540">
        <ele>756.0</ele>
        <time>2022-07-22T07:50:15Z</time>
      </trkpt>
      <trkpt lat="47.0530750" lon="6.5988040">
        <ele>755.8</ele>
        <time>2022-07-22T07:50:21Z</time>
      </trkpt>
      <trkpt lat="47.0530240" lon="6.5987830">
        <ele>755.6</ele>
        <time>2022-07-22T07:50:24Z</time>
      </trkpt>
      <trkpt lat="47.0529660" lon="6.5987620">
        <ele>755.4</ele>
        <time>2022-07-22T07:50:26Z</time>
      </trkpt>
      <trkpt lat="47.0527330" lon="6.5986700">
        <ele>755.2</ele>
        <time>2022-07-22T07:50:33Z</time>
      </trkpt>
      <trkpt lat="47.0525420" lon="6.5986290">
        <ele>754.8</ele>
        <time>2022-07-22T07:50:39Z</time>
      </trkpt>
      <trkpt lat="47.0524370" lon="6.5986010">
        <ele>754.8</ele>
        <time>2022-07-22T07:50:42Z</time>
      </trkpt>
      <trkpt lat="47.0523350" lon="6.5985940">
        <ele>754.6</ele>
        <time>2022-07-22T07:50:47Z</time>
      </trkpt>
      <trkpt lat="47.0523090" lon="6.5986010">
        <ele>754.4</ele>
        <time>2022-07-22T07:50:49Z</time>
      </trkpt>
      <trkpt lat="47.0522340" lon="6.5985970">
        <ele>754.2</ele>
        <time>2022-07-22T07:50:53Z</time>
      </trkpt>
      <trkpt lat="47.0519940" lon="6.5986570">
        <ele>754.2</ele>
        <time>2022-07-22T07:51:00Z</time>
      </trkpt>
      <trkpt lat="47.0517290" lon="6.5986050">
        <ele>754.2</ele>
        <time>2022-07-22T07:51:08Z</time>
      </trkpt>
      <trkpt lat="47.0515350" lon="6.5985600">
        <ele>754.2</ele>
        <time>2022-07-22T07:51:13Z</time>
      </trkpt>
      <trkpt lat="47.0514250" lon="6.5985310">
        <ele>754.2</ele>
        <time>2022-07-22T07:51:16Z</time>
      </trkpt>
      <trkpt lat="47.0511260" lon="6.5983990">
        <ele>754.2</ele>
        <time>2022-07-22T07:51:24Z</time>
      </trkpt>
      <trkpt lat="47.0508010" lon="6.5981720">
        <ele>754.4</ele>
        <time>2022-07-22T07:51:34Z</time>
      </trkpt>
      <trkpt lat="47.0503960" lon="6.5978760">
        <ele>754.4</ele>
        <time>2022-07-22T07:51:46Z</time>
      </trkpt>
      <trkpt lat="47.0501120" lon="6.5975100">
        <ele>754.8</ele>
        <time>2022-07-22T07:51:56Z</time>
      </trkpt>
      <trkpt lat="47.0499040" lon="6.5971810">
        <ele>754.8</ele>
        <time>2022-07-22T07:52:04Z</time>
      </trkpt>
      <trkpt lat="47.0497800" lon="6.5968350">
        <ele>754.6</ele>
        <time>2022-07-22T07:52:11Z</time>
      </trkpt>
      <trkpt lat="47.0496880" lon="6.5963500">
        <ele>754.4</ele>
        <time>2022-07-22T07:52:20Z</time>
      </trkpt>
      <trkpt lat="47.0496440" lon="6.5958450">
        <ele>754.4</ele>
        <time>2022-07-22T07:52:29Z</time>
      </trkpt>
      <trkpt lat="47.0495560" lon="6.5955120">
        <ele>754.6</ele>
        <time>2022-07-22T07:52:35Z</time>
      </trkpt>
      <trkpt lat="47.0495330" lon="6.5954640">
        <ele>754.6</ele>
        <time>2022-07-22T07:52:36Z</time>
      </trkpt>
      <trkpt lat="47.0493020" lon="6.5951280">
        <ele>754.8</ele>
        <time>2022-07-22T07:52:44Z</time>
      </trkpt>
      <trkpt lat="47.0492710" lon="6.5950910">
        <ele>754.8</ele>
        <time>2022-07-22T07:52:45Z</time>
      </trkpt>
      <trkpt lat="47.0490680" lon="6.5948920">
        <ele>755.0</ele>
        <time>2022-07-22T07:52:51Z</time>
      </trkpt>
      <trkpt lat="47.0487110" lon="6.5946010">
        <ele>755.0</ele>
        <time>2022-07-22T07:53:01Z</time>
      </trkpt>
      <trkpt lat="47.0484110" lon="6.5944040">
        <ele>755.0</ele>
        <time>2022-07-22T07:53:09Z</time>
      </trkpt>
      <trkpt lat="47.0480670" lon="6.5941060">
        <ele>755.0</ele>
        <time>2022-07-22T07:53:19Z</time>
      </trkpt>
      <trkpt lat="47.0477540" lon="6.5937400">
        <ele>755.0</ele>
        <time>2022-07-22T07:53:29Z</time>
      </trkpt>
      <trkpt lat="47.0475260" lon="6.5933240">
        <ele>755.0</ele>
        <time>2022-07-22T07:53:38Z</time>
      </trkpt>
      <trkpt lat="47.0473810" lon="6.5929140">
        <ele>755.0</ele>
        <time>2022-07-22T07:53:46Z</time>
      </trkpt>
      <trkpt lat="47.0473460" lon="6.5928870">
        <ele>755.0</ele>
        <time>2022-07-22T07:53:47Z</time>
      </trkpt>
      <trkpt lat="47.0472710" lon="6.5928950">
        <ele>754.8</ele>
        <time>2022-07-22T07:53:49Z</time>
      </trkpt>
      <trkpt lat="47.0472120" lon="6.5929560">
        <ele>754.8</ele>
        <time>2022-07-22T07:53:51Z</time>
      </trkpt>
      <trkpt lat="47.0471280" lon="6.5930740">
        <ele>754.8</ele>
        <time>2022-07-22T07:53:54Z</time>
      </trkpt>
      <trkpt lat="47.0468230" lon="6.5936080">
        <ele>754.8</ele>
        <time>2022-07-22T07:54:05Z</time>
      </trkpt>
      <trkpt lat="47.0465870" lon="6.5940520">
        <ele>754.8</ele>
        <time>2022-07-22T07:54:14Z</time>
      </trkpt>
      <trkpt lat="47.0463890" lon="6.5942870">
        <ele>754.8</ele>
        <time>2022-07-22T07:54:20Z</time>
      </trkpt>
      <trkpt lat="47.0463470" lon="6.5942990">
        <ele>754.8</ele>
        <time>2022-07-22T07:54:21Z</time>
      </trkpt>
      <trkpt lat="47.0462310" lon="6.5942360">
        <ele>754.6</ele>
        <time>2022-07-22T07:54:24Z</time>
      </trkpt>
      <trkpt lat="47.0461330" lon="6.5941180">
        <ele>754.6</ele>
        <time>2022-07-22T07:54:27Z</time>
      </trkpt>
      <trkpt lat="47.0459970" lon="6.5939780">
        <ele>754.8</ele>
        <time>2022-07-22T07:54:31Z</time>
      </trkpt>
      <trkpt lat="47.0457180" lon="6.5937190">
        <ele>754.8</ele>
        <time>2022-07-22T07:54:39Z</time>
      </trkpt>
      <trkpt lat="47.0453170" lon="6.5933980">
        <ele>755.0</ele>
        <time>2022-07-22T07:54:50Z</time>
      </trkpt>
      <trkpt lat="47.0452760" lon="6.5933810">
        <ele>755.0</ele>
        <time>2022-07-22T07:54:51Z</time>
      </trkpt>
      <trkpt lat="47.0451080" lon="6.5933860">
        <ele>755.0</ele>
        <time>2022-07-22T07:54:55Z</time>
      </trkpt>
      <trkpt lat="47.0448330" lon="6.5935170">
        <ele>755.2</ele>
        <time>2022-07-22T07:55:01Z</time>
      </trkpt>
      <trkpt lat="47.0445290" lon="6.5936620">
        <ele>755.0</ele>
        <time>2022-07-22T07:55:08Z</time>
      </trkpt>
      <trkpt lat="47.0441970" lon="6.5936430">
        <ele>755.0</ele>
        <time>2022-07-22T07:55:15Z</time>
      </trkpt>
      <trkpt lat="47.0438210" lon="6.5935860">
        <ele>754.8</ele>
        <time>2022-07-22T07:55:23Z</time>
      </trkpt>
      <trkpt lat="47.0434730" lon="6.5934900">
        <ele>754.6</ele>
        <time>2022-07-22T07:55:31Z</time>
      </trkpt>
      <trkpt lat="47.0431930" lon="6.5933490">
        <ele>754.6</ele>
        <time>2022-07-22T07:55:38Z</time>
      </trkpt>
      <trkpt lat="47.0428720" lon="6.5931470">
        <ele>754.8</ele>
        <time>2022-07-22T07:55:46Z</time>
      </trkpt>
      <trkpt lat="47.0428360" lon="6.5931090">
        <ele>754.8</ele>
        <time>2022-07-22T07:55:47Z</time>
      </trkpt>
      <trkpt lat="47.0427160" lon="6.5929140">
        <ele>754.8</ele>
        <time>2022-07-22T07:55:51Z</time>
      </trkpt>
      <trkpt lat="47.0425020" lon="6.5924360">
        <ele>754.8</ele>
        <time>2022-07-22T07:56:00Z</time>
      </trkpt>
      <trkpt lat="47.0424420" lon="6.5923420">
        <ele>754.8</ele>
        <time>2022-07-22T07:56:02Z</time>
      </trkpt>
      <trkpt lat="47.0423270" lon="6.5922310">
        <ele>754.8</ele>
        <time>2022-07-22T07:56:05Z</time>
      </trkpt>
      <trkpt lat="47.0422840" lon="6.5922010">
        <ele>754.8</ele>
        <time>2022-07-22T07:56:06Z</time>
      </trkpt>
      <trkpt lat="47.0419730" lon="6.5920430">
        <ele>754.8</ele>
        <time>2022-07-22T07:56:13Z</time>
      </trkpt>
      <trkpt lat="47.0416930" lon="6.5920420">
        <ele>754.8</ele>
        <time>2022-07-22T07:56:19Z</time>
      </trkpt>
      <trkpt lat="47.0413940" lon="6.5920910">
        <ele>754.8</ele>
        <time>2022-07-22T07:56:26Z</time>
      </trkpt>
      <trkpt lat="47.0410770" lon="6.5922340">
        <ele>754.8</ele>
        <time>2022-07-22T07:56:34Z</time>
      </trkpt>
      <trkpt lat="47.0407740" lon="6.5924300">
        <ele>755.0</ele>
        <time>2022-07-22T07:56:42Z</time>
      </trkpt>
      <trkpt lat="47.0406780" lon="6.5925520">
        <ele>755.0</ele>
        <time>2022-07-22T07:56:45Z</time>
      </trkpt>
      <trkpt lat="47.0406020" lon="6.5927010">
        <ele>754.8</ele>
        <time>2022-07-22T07:56:48Z</time>
      </trkpt>
      <trkpt lat="47.0404840" lon="6.5930670">
        <ele>755.0</ele>
        <time>2022-07-22T07:56:55Z</time>
      </trkpt>
      <trkpt lat="47.0404110" lon="6.5934070">
        <ele>754.8</ele>
        <time>2022-07-22T07:57:01Z</time>
      </trkpt>
      <trkpt lat="47.0403840" lon="6.5934380">
        <ele>754.8</ele>
        <time>2022-07-22T07:57:02Z</time>
      </trkpt>
      <trkpt lat="47.0403130" lon="6.5934640">
        <ele>755.0</ele>
        <time>2022-07-22T07:57:04Z</time>
      </trkpt>
      <trkpt lat="47.0400350" lon="6.5934290">
        <ele>755.2</ele>
        <time>2022-07-22T07:57:11Z</time>
      </trkpt>
      <trkpt lat="47.0396530" lon="6.5933550">
        <ele>755.6</ele>
        <time>2022-07-22T07:57:21Z</time>
      </trkpt>
      <trkpt lat="47.0396140" lon="6.5933480">
        <ele>755.6</ele>
        <time>2022-07-22T07:57:22Z</time>
      </trkpt>
      <trkpt lat="47.0393430" lon="6.5932980">
        <ele>755.8</ele>
        <time>2022-07-22T07:57:29Z</time>
      </trkpt>
      <trkpt lat="47.0392410" lon="6.5932850">
        <ele>756.0</ele>
        <time>2022-07-22T07:57:32Z</time>
      </trkpt>
      <trkpt lat="47.0391400" lon="6.5932770">
        <ele>756.0</ele>
        <time>2022-07-22T07:57:35Z</time>
      </trkpt>
      <trkpt lat="47.0388110" lon="6.5932870">
        <ele>756.0</ele>
        <time>2022-07-22T07:57:44Z</time>
      </trkpt>
      <trkpt lat="47.0385110" lon="6.5933270">
        <ele>756.2</ele>
        <time>2022-07-22T07:57:52Z</time>
      </trkpt>
      <trkpt lat="47.0382550" lon="6.5933320">
        <ele>756.2</ele>
        <time>2022-07-22T07:57:59Z</time>
      </trkpt>
      <trkpt lat="47.0381150" lon="6.5931990">
        <ele>756.4</ele>
        <time>2022-07-22T07:58:04Z</time>
      </trkpt>
      <trkpt lat="47.0379200" lon="6.5929530">
        <ele>756.8</ele>
        <time>2022-07-22T07:58:12Z</time>
      </trkpt>
      <trkpt lat="47.0378700" lon="6.5928910">
        <ele>757.0</ele>
        <time>2022-07-22T07:58:14Z</time>
      </trkpt>
      <trkpt lat="47.0377500" lon="6.5927410">
        <ele>757.6</ele>
        <time>2022-07-22T07:58:19Z</time>
      </trkpt>
      <trkpt lat="47.0375790" lon="6.5925080">
        <ele>758.2</ele>
        <time>2022-07-22T07:58:27Z</time>
      </trkpt>
      <trkpt lat="47.0374150" lon="6.5923520">
        <ele>758.6</ele>
        <time>2022-07-22T07:58:34Z</time>
      </trkpt>
      <trkpt lat="47.0373960" lon="6.5923580">
        <ele>758.6</ele>
        <time>2022-07-22T07:58:35Z</time>
      </trkpt>
      <trkpt lat="47.0373670" lon="6.5924270">
        <ele>758.6</ele>
        <time>2022-07-22T07:58:38Z</time>
      </trkpt>
      <trkpt lat="47.0373600" lon="6.5924640">
        <ele>758.6</ele>
        <time>2022-07-22T07:58:39Z</time>
      </trkpt>
      <trkpt lat="47.0372850" lon="6.5926140">
        <ele>758.8</ele>
        <time>2022-07-22T07:58:43Z</time>
      </trkpt>
      <trkpt lat="47.0371090" lon="6.5927720">
        <ele>758.8</ele>
        <time>2022-07-22T07:58:49Z</time>
      </trkpt>
      <trkpt lat="47.0368590" lon="6.5929980">
        <ele>758.8</ele>
        <time>2022-07-22T07:58:58Z</time>
      </trkpt>
      <trkpt lat="47.0367530" lon="6.5929760">
        <ele>759.0</ele>
        <time>2022-07-22T07:59:03Z</time>
      </trkpt>
      <trkpt lat="47.0366710" lon="6.5929210">
        <ele>759.0</ele>
        <time>2022-07-22T07:59:08Z</time>
      </trkpt>
      <trkpt lat="47.0366080" lon="6.5929960">
        <ele>759.2</ele>
        <time>2022-07-22T07:59:11Z</time>
      </trkpt>
      <trkpt lat="47.0364700" lon="6.5932600">
        <ele>759.2</ele>
        <time>2022-07-22T07:59:17Z</time>
      </trkpt>
      <trkpt lat="47.0363450" lon="6.5935070">
        <ele>759.4</ele>
        <time>2022-07-22T07:59:23Z</time>
      </trkpt>
      <trkpt lat="47.0361880" lon="6.5937620">
        <ele>759.4</ele>
        <time>2022-07-22T07:59:30Z</time>
      </trkpt>
      <trkpt lat="47.0360290" lon="6.5939950">
        <ele>759.8</ele>
        <time>2022-07-22T07:59:37Z</time>
      </trkpt>
      <trkpt lat="47.0359810" lon="6.5940590">
        <ele>760.0</ele>
        <time>2022-07-22T07:59:39Z</time>
      </trkpt>
      <trkpt lat="47.0358240" lon="6.5942530">
        <ele>760.6</ele>
        <time>2022-07-22T07:59:45Z</time>
      </trkpt>
      <trkpt lat="47.0355890" lon="6.5944350">
        <ele>760.6</ele>
        <time>2022-07-22T07:59:52Z</time>
      </trkpt>
      <trkpt lat="47.0354440" lon="6.5944670">
        <ele>760.8</ele>
        <time>2022-07-22T07:59:56Z</time>
      </trkpt>
      <trkpt lat="47.0353710" lon="6.5944870">
        <ele>760.8</ele>
        <time>2022-07-22T07:59:58Z</time>
      </trkpt>
      <trkpt lat="47.0351360" lon="6.5945520">
        <ele>761.0</ele>
        <time>2022-07-22T08:00:05Z</time>
      </trkpt>
      <trkpt lat="47.0349190" lon="6.5945990">
        <ele>761.2</ele>
        <time>2022-07-22T08:00:11Z</time>
      </trkpt>
      <trkpt lat="47.0346340" lon="6.5946600">
        <ele>761.8</ele>
        <time>2022-07-22T08:00:19Z</time>
      </trkpt>
      <trkpt lat="47.0344660" lon="6.5946930">
        <ele>761.8</ele>
        <time>2022-07-22T08:00:24Z</time>
      </trkpt>
      <trkpt lat="47.0342420" lon="6.5947440">
        <ele>762.0</ele>
        <time>2022-07-22T08:00:30Z</time>
      </trkpt>
      <trkpt lat="47.0340300" lon="6.5947440">
        <ele>762.2</ele>
        <time>2022-07-22T08:00:36Z</time>
      </trkpt>
      <trkpt lat="47.0338020" lon="6.5947300">
        <ele>762.4</ele>
        <time>2022-07-22T08:00:42Z</time>
      </trkpt>
      <trkpt lat="47.0335410" lon="6.5947250">
        <ele>762.6</ele>
        <time>2022-07-22T08:00:49Z</time>
      </trkpt>
      <trkpt lat="47.0333910" lon="6.5947260">
        <ele>762.8</ele>
        <time>2022-07-22T08:00:54Z</time>
      </trkpt>
      <trkpt lat="47.0333590" lon="6.5947200">
        <ele>762.8</ele>
        <time>2022-07-22T08:00:55Z</time>
      </trkpt>
      <trkpt lat="47.0331860" lon="6.5947260">
        <ele>763.2</ele>
        <time>2022-07-22T08:01:00Z</time>
      </trkpt>
      <trkpt lat="47.0329690" lon="6.5947680">
        <ele>763.8</ele>
        <time>2022-07-22T08:01:06Z</time>
      </trkpt>
      <trkpt lat="47.0328640" lon="6.5948060">
        <ele>763.8</ele>
        <time>2022-07-22T08:01:09Z</time>
      </trkpt>
      <trkpt lat="47.0327140" lon="6.5948510">
        <ele>764.0</ele>
        <time>2022-07-22T08:01:13Z</time>
      </trkpt>
      <trkpt lat="47.0324480" lon="6.5949340">
        <ele>764.2</ele>
        <time>2022-07-22T08:01:20Z</time>
      </trkpt>
      <trkpt lat="47.0322630" lon="6.5949710">
        <ele>764.6</ele>
        <time>2022-07-22T08:01:25Z</time>
      </trkpt>
      <trkpt lat="47.0320540" lon="6.5949350">
        <ele>764.8</ele>
        <time>2022-07-22T08:01:31Z</time>
      </trkpt>
      <trkpt lat="47.0320240" lon="6.5949170">
        <ele>764.8</ele>
        <time>2022-07-22T08:01:32Z</time>
      </trkpt>
      <trkpt lat="47.0319430" lon="6.5948000">
        <ele>764.8</ele>
        <time>2022-07-22T08:01:36Z</time>
      </trkpt>
      <trkpt lat="47.0319700" lon="6.5946820">
        <ele>765.0</ele>
        <time>2022-07-22T08:01:39Z</time>
      </trkpt>
      <trkpt lat="47.0319950" lon="6.5946440">
        <ele>765.0</ele>
        <time>2022-07-22T08:01:40Z</time>
      </trkpt>
      <trkpt lat="47.0321930" lon="6.5943680">
        <ele>765.0</ele>
        <time>2022-07-22T08:01:47Z</time>
      </trkpt>
      <trkpt lat="47.0323270" lon="6.5942060">
        <ele>765.0</ele>
        <time>2022-07-22T08:01:52Z</time>
      </trkpt>
      <trkpt lat="47.0325650" lon="6.5938660">
        <ele>764.2</ele>
        <time>2022-07-22T08:02:00Z</time>
      </trkpt>
      <trkpt lat="47.0327960" lon="6.5935490">
        <ele>764.0</ele>
        <time>2022-07-22T08:02:08Z</time>
      </trkpt>
      <trkpt lat="47.0329600" lon="6.5932250">
        <ele>764.0</ele>
        <time>2022-07-22T08:02:16Z</time>
      </trkpt>
      <trkpt lat="47.0331050" lon="6.5928590">
        <ele>764.8</ele>
        <time>2022-07-22T08:02:24Z</time>
      </trkpt>
      <trkpt lat="47.0332420" lon="6.5925080">
        <ele>765.0</ele>
        <time>2022-07-22T08:02:31Z</time>
      </trkpt>
      <trkpt lat="47.0334930" lon="6.5920300">
        <ele>765.2</ele>
        <time>2022-07-22T08:02:41Z</time>
      </trkpt>
      <trkpt lat="47.0337300" lon="6.5916980">
        <ele>765.2</ele>
        <time>2022-07-22T08:02:49Z</time>
      </trkpt>
      <trkpt lat="47.0339290" lon="6.5913650">
        <ele>765.4</ele>
        <time>2022-07-22T08:02:57Z</time>
      </trkpt>
      <trkpt lat="47.0340300" lon="6.5911500">
        <ele>765.8</ele>
        <time>2022-07-22T08:03:02Z</time>
      </trkpt>
      <trkpt lat="47.0340960" lon="6.5909840">
        <ele>766.0</ele>
        <time>2022-07-22T08:03:06Z</time>
      </trkpt>
      <trkpt lat="47.0342010" lon="6.5906810">
        <ele>767.0</ele>
        <time>2022-07-22T08:03:14Z</time>
      </trkpt>
      <trkpt lat="47.0342140" lon="6.5906410">
        <ele>767.2</ele>
        <time>2022-07-22T08:03:15Z</time>
      </trkpt>
      <trkpt lat="47.0343080" lon="6.5903450">
        <ele>768.2</ele>
        <time>2022-07-22T08:03:22Z</time>
      </trkpt>
      <trkpt lat="47.0343570" lon="6.5902130">
        <ele>768.4</ele>
        <time>2022-07-22T08:03:25Z</time>
      </trkpt>
      <trkpt lat="47.0345060" lon="6.5898780">
        <ele>768.8</ele>
        <time>2022-07-22T08:03:33Z</time>
      </trkpt>
      <trkpt lat="47.0346020" lon="6.5896400">
        <ele>768.8</ele>
        <time>2022-07-22T08:03:40Z</time>
      </trkpt>
      <trkpt lat="47.0346080" lon="6.5895920">
        <ele>769.0</ele>
        <time>2022-07-22T08:03:42Z</time>
      </trkpt>
      <trkpt lat="47.0345820" lon="6.5895140">
        <ele>769.0</ele>
        <time>2022-07-22T08:03:45Z</time>
      </trkpt>
      <trkpt lat="47.0344940" lon="6.5894460">
        <ele>769.2</ele>
        <time>2022-07-22T08:03:49Z</time>
      </trkpt>
      <trkpt lat="47.0343320" lon="6.5893740">
        <ele>769.4</ele>
        <time>2022-07-22T08:03:56Z</time>
      </trkpt>
      <trkpt lat="47.0342300" lon="6.5893280">
        <ele>770.0</ele>
        <time>2022-07-22T08:04:01Z</time>
      </trkpt>
      <trkpt lat="47.0341550" lon="6.5893010">
        <ele>770.8</ele>
        <time>2022-07-22T08:04:05Z</time>
      </trkpt>
      <trkpt lat="47.0341400" lon="6.5892920">
        <ele>771.0</ele>
        <time>2022-07-22T08:04:06Z</time>
      </trkpt>
      <trkpt lat="47.0340340" lon="6.5892340">
        <ele>772.0</ele>
        <time>2022-07-22T08:04:12Z</time>
      </trkpt>
      <trkpt lat="47.0340160" lon="6.5892230">
        <ele>772.4</ele>
        <time>2022-07-22T08:04:13Z</time>
      </trkpt>
      <trkpt lat="47.0339260" lon="6.5891700">
        <ele>773.2</ele>
        <time>2022-07-22T08:04:18Z</time>
      </trkpt>
      <trkpt lat="47.0338350" lon="6.5891170">
        <ele>773.8</ele>
        <time>2022-07-22T08:04:23Z</time>
      </trkpt>
      <trkpt lat="47.0338010" lon="6.5890970">
        <ele>774.2</ele>
        <time>2022-07-22T08:04:25Z</time>
      </trkpt>
      <trkpt lat="47.0336940" lon="6.5890340">
        <ele>775.2</ele>
        <time>2022-07-22T08:04:32Z</time>
      </trkpt>
      <trkpt lat="47.0336770" lon="6.5890240">
        <ele>775.2</ele>
        <time>2022-07-22T08:04:33Z</time>
      </trkpt>
      <trkpt lat="47.0335470" lon="6.5889350">
        <ele>776.4</ele>
        <time>2022-07-22T08:04:40Z</time>
      </trkpt>
      <trkpt lat="47.0335270" lon="6.5889250">
        <ele>776.6</ele>
        <time>2022-07-22T08:04:41Z</time>
      </trkpt>
      <trkpt lat="47.0333560" lon="6.5888160">
        <ele>777.2</ele>
        <time>2022-07-22T08:04:49Z</time>
      </trkpt>
      <trkpt lat="47.0333350" lon="6.5888030">
        <ele>777.4</ele>
        <time>2022-07-22T08:04:50Z</time>
      </trkpt>
      <trkpt lat="47.0331940" lon="6.5887220">
        <ele>777.8</ele>
        <time>2022-07-22T08:04:57Z</time>
      </trkpt>
      <trkpt lat="47.0330820" lon="6.5886700">
        <ele>778.4</ele>
        <time>2022-07-22T08:05:03Z</time>
      </trkpt>
      <trkpt lat="47.0329910" lon="6.5886360">
        <ele>779.0</ele>
        <time>2022-07-22T08:05:08Z</time>
      </trkpt>
      <trkpt lat="47.0329190" lon="6.5886090">
        <ele>779.4</ele>
        <time>2022-07-22T08:05:12Z</time>
      </trkpt>
      <trkpt lat="47.0328230" lon="6.5885770">
        <ele>780.4</ele>
        <time>2022-07-22T08:05:17Z</time>
      </trkpt>
      <trkpt lat="47.0328030" lon="6.5885730">
        <ele>780.6</ele>
        <time>2022-07-22T08:05:18Z</time>
      </trkpt>
      <trkpt lat="47.0326610" lon="6.5885420">
        <ele>781.6</ele>
        <time>2022-07-22T08:05:25Z</time>
      </trkpt>
      <trkpt lat="47.0326200" lon="6.5885370">
        <ele>782.0</ele>
        <time>2022-07-22T08:05:27Z</time>
      </trkpt>
      <trkpt lat="47.0325290" lon="6.5885350">
        <ele>782.6</ele>
        <time>2022-07-22T08:05:32Z</time>
      </trkpt>
      <trkpt lat="47.0324510" lon="6.5885280">
        <ele>783.2</ele>
        <time>2022-07-22T08:05:36Z</time>
      </trkpt>
      <trkpt lat="47.0323890" lon="6.5885200">
        <ele>783.8</ele>
        <time>2022-07-22T08:05:39Z</time>
      </trkpt>
      <trkpt lat="47.0322330" lon="6.5884830">
        <ele>784.4</ele>
        <time>2022-07-22T08:05:46Z</time>
      </trkpt>
      <trkpt lat="47.0321880" lon="6.5884640">
        <ele>784.6</ele>
        <time>2022-07-22T08:05:48Z</time>
      </trkpt>
      <trkpt lat="47.0320730" lon="6.5884070">
        <ele>785.4</ele>
        <time>2022-07-22T08:05:54Z</time>
      </trkpt>
      <trkpt lat="47.0320420" lon="6.5883890">
        <ele>785.8</ele>
        <time>2022-07-22T08:05:56Z</time>
      </trkpt>
      <trkpt lat="47.0320090" lon="6.5883690">
        <ele>786.0</ele>
        <time>2022-07-22T08:05:58Z</time>
      </trkpt>
      <trkpt lat="47.0319550" lon="6.5883410">
        <ele>786.4</ele>
        <time>2022-07-22T08:06:01Z</time>
      </trkpt>
      <trkpt lat="47.0318580" lon="6.5882900">
        <ele>787.0</ele>
        <time>2022-07-22T08:06:06Z</time>
      </trkpt>
      <trkpt lat="47.0318100" lon="6.5882530">
        <ele>787.0</ele>
        <time>2022-07-22T08:06:08Z</time>
      </trkpt>
      <trkpt lat="47.0316340" lon="6.5881250">
        <ele>787.6</ele>
        <time>2022-07-22T08:06:14Z</time>
      </trkpt>
      <trkpt lat="47.0315120" lon="6.5880140">
        <ele>787.8</ele>
        <time>2022-07-22T08:06:18Z</time>
      </trkpt>
      <trkpt lat="47.0314210" lon="6.5879330">
        <ele>788.0</ele>
        <time>2022-07-22T08:06:21Z</time>
      </trkpt>
      <trkpt lat="47.0312010" lon="6.5877240">
        <ele>788.2</ele>
        <time>2022-07-22T08:06:29Z</time>
      </trkpt>
      <trkpt lat="47.0310770" lon="6.5876010">
        <ele>788.6</ele>
        <time>2022-07-22T08:06:35Z</time>
      </trkpt>
      <trkpt lat="47.0310420" lon="6.5875700">
        <ele>789.0</ele>
        <time>2022-07-22T08:06:37Z</time>
      </trkpt>
      <trkpt lat="47.0309640" lon="6.5875020">
        <ele>789.4</ele>
        <time>2022-07-22T08:06:41Z</time>
      </trkpt>
      <trkpt lat="47.0308880" lon="6.5874330">
        <ele>790.2</ele>
        <time>2022-07-22T08:06:45Z</time>
      </trkpt>
      <trkpt lat="47.0308200" lon="6.5873700">
        <ele>790.6</ele>
        <time>2022-07-22T08:06:48Z</time>
      </trkpt>
      <trkpt lat="47.0307280" lon="6.5872760">
        <ele>791.2</ele>
        <time>2022-07-22T08:06:52Z</time>
      </trkpt>
      <trkpt lat="47.0306630" lon="6.5872250">
        <ele>791.8</ele>
        <time>2022-07-22T08:06:55Z</time>
      </trkpt>
      <trkpt lat="47.0305970" lon="6.5871930">
        <ele>792.2</ele>
        <time>2022-07-22T08:06:58Z</time>
      </trkpt>
      <trkpt lat="47.0304740" lon="6.5871760">
        <ele>793.2</ele>
        <time>2022-07-22T08:07:03Z</time>
      </trkpt>
      <trkpt lat="47.0303490" lon="6.5871600">
        <ele>794.2</ele>
        <time>2022-07-22T08:07:09Z</time>
      </trkpt>
      <trkpt lat="47.0303080" lon="6.5871560">
        <ele>794.4</ele>
        <time>2022-07-22T08:07:11Z</time>
      </trkpt>
      <trkpt lat="47.0301830" lon="6.5871540">
        <ele>795.4</ele>
        <time>2022-07-22T08:07:17Z</time>
      </trkpt>
      <trkpt lat="47.0301200" lon="6.5871500">
        <ele>795.8</ele>
        <time>2022-07-22T08:07:20Z</time>
      </trkpt>
      <trkpt lat="47.0300600" lon="6.5871380">
        <ele>796.6</ele>
        <time>2022-07-22T08:07:23Z</time>
      </trkpt>
      <trkpt lat="47.0299420" lon="6.5870980">
        <ele>797.0</ele>
        <time>2022-07-22T08:07:28Z</time>
      </trkpt>
      <trkpt lat="47.0298960" lon="6.5870750">
        <ele>797.6</ele>
        <time>2022-07-22T08:07:30Z</time>
      </trkpt>
      <trkpt lat="47.0297620" lon="6.5869910">
        <ele>798.0</ele>
        <time>2022-07-22T08:07:36Z</time>
      </trkpt>
      <trkpt lat="47.0295940" lon="6.5868710">
        <ele>798.4</ele>
        <time>2022-07-22T08:07:43Z</time>
      </trkpt>
      <trkpt lat="47.0294570" lon="6.5867730">
        <ele>798.6</ele>
        <time>2022-07-22T08:07:48Z</time>
      </trkpt>
      <trkpt lat="47.0293990" lon="6.5867290">
        <ele>798.8</ele>
        <time>2022-07-22T08:07:50Z</time>
      </trkpt>
      <trkpt lat="47.0292460" lon="6.5865890">
        <ele>799.4</ele>
        <time>2022-07-22T08:07:56Z</time>
      </trkpt>
      <trkpt lat="47.0291940" lon="6.5865450">
        <ele>799.8</ele>
        <time>2022-07-22T08:07:58Z</time>
      </trkpt>
      <trkpt lat="47.0290660" lon="6.5864070">
        <ele>800.4</ele>
        <time>2022-07-22T08:08:03Z</time>
      </trkpt>
      <trkpt lat="47.0289620" lon="6.5862780">
        <ele>801.0</ele>
        <time>2022-07-22T08:08:07Z</time>
      </trkpt>
      <trkpt lat="47.0289050" lon="6.5862190">
        <ele>801.0</ele>
        <time>2022-07-22T08:08:09Z</time>
      </trkpt>
      <trkpt lat="47.0287210" lon="6.5860130">
        <ele>801.4</ele>
        <time>2022-07-22T08:08:16Z</time>
      </trkpt>
      <trkpt lat="47.0285920" lon="6.5858700">
        <ele>802.0</ele>
        <time>2022-07-22T08:08:21Z</time>
      </trkpt>
      <trkpt lat="47.0285190" lon="6.5857980">
        <ele>802.0</ele>
        <time>2022-07-22T08:08:24Z</time>
      </trkpt>
      <trkpt lat="47.0283340" lon="6.5856240">
        <ele>803.0</ele>
        <time>2022-07-22T08:08:32Z</time>
      </trkpt>
      <trkpt lat="47.0282900" lon="6.5855850">
        <ele>803.4</ele>
        <time>2022-07-22T08:08:34Z</time>
      </trkpt>
      <trkpt lat="47.0281670" lon="6.5854850">
        <ele>804.0</ele>
        <time>2022-07-22T08:08:39Z</time>
      </trkpt>
      <trkpt lat="47.0280880" lon="6.5854210">
        <ele>804.4</ele>
        <time>2022-07-22T08:08:42Z</time>
      </trkpt>
      <trkpt lat="47.0278880" lon="6.5852810">
        <ele>805.0</ele>
        <time>2022-07-22T08:08:49Z</time>
      </trkpt>
      <trkpt lat="47.0278280" lon="6.5852330">
        <ele>805.0</ele>
        <time>2022-07-22T08:08:51Z</time>
      </trkpt>
      <trkpt lat="47.0276660" lon="6.5850800">
        <ele>805.2</ele>
        <time>2022-07-22T08:08:57Z</time>
      </trkpt>
      <trkpt lat="47.0274500" lon="6.5847960">
        <ele>805.6</ele>
        <time>2022-07-22T08:09:06Z</time>
      </trkpt>
      <trkpt lat="47.0273400" lon="6.5845670">
        <ele>806.0</ele>
        <time>2022-07-22T08:09:12Z</time>
      </trkpt>
      <trkpt lat="47.0271610" lon="6.5842800">
        <ele>806.0</ele>
        <time>2022-07-22T08:09:18Z</time>
      </trkpt>
      <trkpt lat="47.0268990" lon="6.5840040">
        <ele>805.6</ele>
        <time>2022-07-22T08:09:24Z</time>
      </trkpt>
      <trkpt lat="47.0267210" lon="6.5837310">
        <ele>805.2</ele>
        <time>2022-07-22T08:09:28Z</time>
      </trkpt>
      <trkpt lat="47.0266970" lon="6.5835000">
        <ele>805.0</ele>
        <time>2022-07-22T08:09:31Z</time>
      </trkpt>
      <trkpt lat="47.0267040" lon="6.5834370">
        <ele>804.8</ele>
        <time>2022-07-22T08:09:32Z</time>
      </trkpt>
      <trkpt lat="47.0267780" lon="6.5831850">
        <ele>804.6</ele>
        <time>2022-07-22T08:09:37Z</time>
      </trkpt>
      <trkpt lat="47.0269290" lon="6.5830030">
        <ele>804.6</ele>
        <time>2022-07-22T08:09:42Z</time>
      </trkpt>
      <trkpt lat="47.0271930" lon="6.5826900">
        <ele>804.4</ele>
        <time>2022-07-22T08:09:48Z</time>
      </trkpt>
      <trkpt lat="47.0274800" lon="6.5822720">
        <ele>803.8</ele>
        <time>2022-07-22T08:09:54Z</time>
      </trkpt>
      <trkpt lat="47.0275160" lon="6.5821860">
        <ele>803.6</ele>
        <time>2022-07-22T08:09:55Z</time>
      </trkpt>
      <trkpt lat="47.0276280" lon="6.5818120">
        <ele>802.6</ele>
        <time>2022-07-22T08:09:59Z</time>
      </trkpt>
      <trkpt lat="47.0277240" lon="6.5814380">
        <ele>801.6</ele>
        <time>2022-07-22T08:10:03Z</time>
      </trkpt>
      <trkpt lat="47.0277640" lon="6.5812370">
        <ele>801.0</ele>
        <time>2022-07-22T08:10:05Z</time>
      </trkpt>
      <trkpt lat="47.0277720" lon="6.5811290">
        <ele>800.4</ele>
        <time>2022-07-22T08:10:06Z</time>
      </trkpt>
      <trkpt lat="47.0277570" lon="6.5809070">
        <ele>799.4</ele>
        <time>2022-07-22T08:10:08Z</time>
      </trkpt>
      <trkpt lat="47.0276840" lon="6.5805750">
        <ele>798.2</ele>
        <time>2022-07-22T08:10:11Z</time>
      </trkpt>
      <trkpt lat="47.0276490" lon="6.5804670">
        <ele>797.8</ele>
        <time>2022-07-22T08:10:12Z</time>
      </trkpt>
      <trkpt lat="47.0275520" lon="6.5801320">
        <ele>797.0</ele>
        <time>2022-07-22T08:10:15Z</time>
      </trkpt>
      <trkpt lat="47.0274310" lon="6.5797770">
        <ele>795.8</ele>
        <time>2022-07-22T08:10:18Z</time>
      </trkpt>
      <trkpt lat="47.0273300" lon="6.5795520">
        <ele>795.2</ele>
        <time>2022-07-22T08:10:20Z</time>
      </trkpt>
      <trkpt lat="47.0272700" lon="6.5794510">
        <ele>794.8</ele>
        <time>2022-07-22T08:10:21Z</time>
      </trkpt>
      <trkpt lat="47.0271460" lon="6.5792500">
        <ele>793.4</ele>
        <time>2022-07-22T08:10:23Z</time>
      </trkpt>
      <trkpt lat="47.0269630" lon="6.5789340">
        <ele>792.4</ele>
        <time>2022-07-22T08:10:26Z</time>
      </trkpt>
      <trkpt lat="47.0268580" lon="6.5787100">
        <ele>791.4</ele>
        <time>2022-07-22T08:10:28Z</time>
      </trkpt>
      <trkpt lat="47.0268100" lon="6.5785950">
        <ele>791.0</ele>
        <time>2022-07-22T08:10:29Z</time>
      </trkpt>
      <trkpt lat="47.0266300" lon="6.5781280">
        <ele>789.8</ele>
        <time>2022-07-22T08:10:33Z</time>
      </trkpt>
      <trkpt lat="47.0265040" lon="6.5777580">
        <ele>788.6</ele>
        <time>2022-07-22T08:10:36Z</time>
      </trkpt>
      <trkpt lat="47.0263930" lon="6.5773790">
        <ele>787.4</ele>
        <time>2022-07-22T08:10:39Z</time>
      </trkpt>
      <trkpt lat="47.0263120" lon="6.5771270">
        <ele>786.6</ele>
        <time>2022-07-22T08:10:41Z</time>
      </trkpt>
      <trkpt lat="47.0262630" lon="6.5770100">
        <ele>786.0</ele>
        <time>2022-07-22T08:10:42Z</time>
      </trkpt>
      <trkpt lat="47.0261440" lon="6.5768010">
        <ele>785.2</ele>
        <time>2022-07-22T08:10:44Z</time>
      </trkpt>
      <trkpt lat="47.0260800" lon="6.5767140">
        <ele>784.8</ele>
        <time>2022-07-22T08:10:45Z</time>
      </trkpt>
      <trkpt lat="47.0259620" lon="6.5765870">
        <ele>783.8</ele>
        <time>2022-07-22T08:10:47Z</time>
      </trkpt>
      <trkpt lat="47.0259070" lon="6.5765380">
        <ele>783.4</ele>
        <time>2022-07-22T08:10:48Z</time>
      </trkpt>
      <trkpt lat="47.0258140" lon="6.5764450">
        <ele>782.6</ele>
        <time>2022-07-22T08:10:50Z</time>
      </trkpt>
      <trkpt lat="47.0257740" lon="6.5763880">
        <ele>782.2</ele>
        <time>2022-07-22T08:10:51Z</time>
      </trkpt>
      <trkpt lat="47.0257480" lon="6.5763180">
        <ele>782.0</ele>
        <time>2022-07-22T08:10:52Z</time>
      </trkpt>
      <trkpt lat="47.0257380" lon="6.5762390">
        <ele>781.0</ele>
        <time>2022-07-22T08:10:53Z</time>
      </trkpt>
      <trkpt lat="47.0257560" lon="6.5760880">
        <ele>780.0</ele>
        <time>2022-07-22T08:10:55Z</time>
      </trkpt>
      <trkpt lat="47.0258240" lon="6.5759510">
        <ele>779.0</ele>
        <time>2022-07-22T08:10:57Z</time>
      </trkpt>
      <trkpt lat="47.0258750" lon="6.5758950">
        <ele>778.6</ele>
        <time>2022-07-22T08:10:58Z</time>
      </trkpt>
      <trkpt lat="47.0259340" lon="6.5758420">
        <ele>778.2</ele>
        <time>2022-07-22T08:10:59Z</time>
      </trkpt>
      <trkpt lat="47.0259970" lon="6.5757880">
        <ele>777.8</ele>
        <time>2022-07-22T08:11:00Z</time>
      </trkpt>
      <trkpt lat="47.0262140" lon="6.5756040">
        <ele>776.4</ele>
        <time>2022-07-22T08:11:03Z</time>
      </trkpt>
      <trkpt lat="47.0263720" lon="6.5754650">
        <ele>775.4</ele>
        <time>2022-07-22T08:11:05Z</time>
      </trkpt>
      <trkpt lat="47.0266790" lon="6.5751620">
        <ele>774.0</ele>
        <time>2022-07-22T08:11:09Z</time>
      </trkpt>
      <trkpt lat="47.0267560" lon="6.5750850">
        <ele>773.4</ele>
        <time>2022-07-22T08:11:10Z</time>
      </trkpt>
      <trkpt lat="47.0268300" lon="6.5750130">
        <ele>773.0</ele>
        <time>2022-07-22T08:11:11Z</time>
      </trkpt>
      <trkpt lat="47.0269720" lon="6.5748750">
        <ele>771.6</ele>
        <time>2022-07-22T08:11:13Z</time>
      </trkpt>
      <trkpt lat="47.0271150" lon="6.5747450">
        <ele>770.2</ele>
        <time>2022-07-22T08:11:15Z</time>
      </trkpt>
      <trkpt lat="47.0271840" lon="6.5746770">
        <ele>769.8</ele>
        <time>2022-07-22T08:11:16Z</time>
      </trkpt>
      <trkpt lat="47.0272480" lon="6.5745990">
        <ele>769.2</ele>
        <time>2022-07-22T08:11:17Z</time>
      </trkpt>
      <trkpt lat="47.0273440" lon="6.5744120">
        <ele>768.0</ele>
        <time>2022-07-22T08:11:19Z</time>
      </trkpt>
      <trkpt lat="47.0273930" lon="6.5742200">
        <ele>767.0</ele>
        <time>2022-07-22T08:11:21Z</time>
      </trkpt>
      <trkpt lat="47.0274020" lon="6.5741230">
        <ele>766.2</ele>
        <time>2022-07-22T08:11:22Z</time>
      </trkpt>
      <trkpt lat="47.0274080" lon="6.5740320">
        <ele>765.8</ele>
        <time>2022-07-22T08:11:23Z</time>
      </trkpt>
      <trkpt lat="47.0274120" lon="6.5739470">
        <ele>765.6</ele>
        <time>2022-07-22T08:11:24Z</time>
      </trkpt>
      <trkpt lat="47.0274150" lon="6.5736880">
        <ele>764.8</ele>
        <time>2022-07-22T08:11:27Z</time>
      </trkpt>
      <trkpt lat="47.0274250" lon="6.5731700">
        <ele>764.4</ele>
        <time>2022-07-22T08:11:33Z</time>
      </trkpt>
      <trkpt lat="47.0274420" lon="6.5728450">
        <ele>764.2</ele>
        <time>2022-07-22T08:11:37Z</time>
      </trkpt>
      <trkpt lat="47.0274490" lon="6.5727710">
        <ele>764.2</ele>
        <time>2022-07-22T08:11:38Z</time>
      </trkpt>
      <trkpt lat="47.0274530" lon="6.5725940">
        <ele>764.0</ele>
        <time>2022-07-22T08:11:42Z</time>
      </trkpt>
      <trkpt lat="47.0274560" lon="6.5725830">
        <ele>763.8</ele>
        <time>2022-07-22T08:11:44Z</time>
      </trkpt>
      <trkpt lat="47.0274570" lon="6.5725830">
        <ele>763.6</ele>
        <time>2022-07-22T08:11:45Z</time>
      </trkpt>
      <trkpt lat="47.0274500" lon="6.5725010">
        <ele>763.6</ele>
        <time>2022-07-22T08:11:49Z</time>
      </trkpt>
      <trkpt lat="47.0273600" lon="6.5723060">
        <ele>763.6</ele>
        <time>2022-07-22T08:11:54Z</time>
      </trkpt>
      <trkpt lat="47.0271030" lon="6.5718950">
        <ele>763.8</ele>
        <time>2022-07-22T08:12:04Z</time>
      </trkpt>
      <trkpt lat="47.0268340" lon="6.5714610">
        <ele>764.2</ele>
        <time>2022-07-22T08:12:14Z</time>
      </trkpt>
      <trkpt lat="47.0265460" lon="6.5710240">
        <ele>764.4</ele>
        <time>2022-07-22T08:12:25Z</time>
      </trkpt>
      <trkpt lat="47.0264850" lon="6.5709540">
        <ele>764.6</ele>
        <time>2022-07-22T08:12:27Z</time>
      </trkpt>
      <trkpt lat="47.0262960" lon="6.5707930">
        <ele>765.0</ele>
        <time>2022-07-22T08:12:32Z</time>
      </trkpt>
      <trkpt lat="47.0260390" lon="6.5706200">
        <ele>765.2</ele>
        <time>2022-07-22T08:12:38Z</time>
      </trkpt>
      <trkpt lat="47.0259560" lon="6.5705460">
        <ele>765.2</ele>
        <time>2022-07-22T08:12:40Z</time>
      </trkpt>
      <trkpt lat="47.0257430" lon="6.5702780">
        <ele>764.8</ele>
        <time>2022-07-22T08:12:46Z</time>
      </trkpt>
      <trkpt lat="47.0255260" lon="6.5698760">
        <ele>764.8</ele>
        <time>2022-07-22T08:12:54Z</time>
      </trkpt>
      <trkpt lat="47.0253520" lon="6.5693880">
        <ele>765.2</ele>
        <time>2022-07-22T08:13:03Z</time>
      </trkpt>
      <trkpt lat="47.0252950" lon="6.5690920">
        <ele>765.6</ele>
        <time>2022-07-22T08:13:08Z</time>
      </trkpt>
      <trkpt lat="47.0252820" lon="6.5689720">
        <ele>765.6</ele>
        <time>2022-07-22T08:13:10Z</time>
      </trkpt>
      <trkpt lat="47.0252680" lon="6.5685750">
        <ele>766.0</ele>
        <time>2022-07-22T08:13:17Z</time>
      </trkpt>
      <trkpt lat="47.0252370" lon="6.5683470">
        <ele>766.4</ele>
        <time>2022-07-22T08:13:21Z</time>
      </trkpt>
      <trkpt lat="47.0251940" lon="6.5681850">
        <ele>766.6</ele>
        <time>2022-07-22T08:13:24Z</time>
      </trkpt>
      <trkpt lat="47.0250280" lon="6.5678750">
        <ele>767.0</ele>
        <time>2022-07-22T08:13:31Z</time>
      </trkpt>
      <trkpt lat="47.0247240" lon="6.5675780">
        <ele>767.4</ele>
        <time>2022-07-22T08:13:40Z</time>
      </trkpt>
      <trkpt lat="47.0246910" lon="6.5675460">
        <ele>767.4</ele>
        <time>2022-07-22T08:13:41Z</time>
      </trkpt>
      <trkpt lat="47.0244720" lon="6.5673410">
        <ele>767.8</ele>
        <time>2022-07-22T08:13:48Z</time>
      </trkpt>
      <trkpt lat="47.0241960" lon="6.5671240">
        <ele>768.0</ele>
        <time>2022-07-22T08:13:56Z</time>
      </trkpt>
      <trkpt lat="47.0238810" lon="6.5669500">
        <ele>768.2</ele>
        <time>2022-07-22T08:14:04Z</time>
      </trkpt>
      <trkpt lat="47.0236940" lon="6.5668390">
        <ele>768.4</ele>
        <time>2022-07-22T08:14:09Z</time>
      </trkpt>
      <trkpt lat="47.0235850" lon="6.5667820">
        <ele>768.6</ele>
        <time>2022-07-22T08:14:12Z</time>
      </trkpt>
      <trkpt lat="47.0233700" lon="6.5666330">
        <ele>769.0</ele>
        <time>2022-07-22T08:14:19Z</time>
      </trkpt>
      <trkpt lat="47.0231750" lon="6.5664620">
        <ele>769.2</ele>
        <time>2022-07-22T08:14:26Z</time>
      </trkpt>
      <trkpt lat="47.0231460" lon="6.5664170">
        <ele>769.4</ele>
        <time>2022-07-22T08:14:28Z</time>
      </trkpt>
      <trkpt lat="47.0231200" lon="6.5663410">
        <ele>769.6</ele>
        <time>2022-07-22T08:14:31Z</time>
      </trkpt>
      <trkpt lat="47.0231240" lon="6.5662250">
        <ele>770.6</ele>
        <time>2022-07-22T08:14:36Z</time>
      </trkpt>
      <trkpt lat="47.0231460" lon="6.5661030">
        <ele>771.6</ele>
        <time>2022-07-22T08:14:41Z</time>
      </trkpt>
      <trkpt lat="47.0231670" lon="6.5660400">
        <ele>772.2</ele>
        <time>2022-07-22T08:14:44Z</time>
      </trkpt>
      <trkpt lat="47.0231830" lon="6.5660040">
        <ele>772.6</ele>
        <time>2022-07-22T08:14:46Z</time>
      </trkpt>
      <trkpt lat="47.0232240" lon="6.5659150">
        <ele>773.4</ele>
        <time>2022-07-22T08:14:51Z</time>
      </trkpt>
      <trkpt lat="47.0232400" lon="6.5658500">
        <ele>773.8</ele>
        <time>2022-07-22T08:14:54Z</time>
      </trkpt>
      <trkpt lat="47.0232500" lon="6.5657950">
        <ele>774.2</ele>
        <time>2022-07-22T08:14:57Z</time>
      </trkpt>
      <trkpt lat="47.0232440" lon="6.5657690">
        <ele>774.4</ele>
        <time>2022-07-22T08:14:58Z</time>
      </trkpt>
      <trkpt lat="47.0232310" lon="6.5656970">
        <ele>774.8</ele>
        <time>2022-07-22T08:15:01Z</time>
      </trkpt>
      <trkpt lat="47.0232090" lon="6.5656370">
        <ele>775.2</ele>
        <time>2022-07-22T08:15:04Z</time>
      </trkpt>
      <trkpt lat="47.0231480" lon="6.5655740">
        <ele>775.8</ele>
        <time>2022-07-22T08:15:09Z</time>
      </trkpt>
      <trkpt lat="47.0231230" lon="6.5655580">
        <ele>776.4</ele>
        <time>2022-07-22T08:15:11Z</time>
      </trkpt>
      <trkpt lat="47.0230690" lon="6.5655240">
        <ele>776.8</ele>
        <time>2022-07-22T08:15:15Z</time>
      </trkpt>
      <trkpt lat="47.0230260" lon="6.5655050">
        <ele>777.6</ele>
        <time>2022-07-22T08:15:18Z</time>
      </trkpt>
      <trkpt lat="47.0229940" lon="6.5654950">
        <ele>778.0</ele>
        <time>2022-07-22T08:15:20Z</time>
      </trkpt>
      <trkpt lat="47.0228740" lon="6.5654440">
        <ele>779.0</ele>
        <time>2022-07-22T08:15:28Z</time>
      </trkpt>
      <trkpt lat="47.0227750" lon="6.5653800">
        <ele>780.0</ele>
        <time>2022-07-22T08:15:35Z</time>
      </trkpt>
      <trkpt lat="47.0227630" lon="6.5653700">
        <ele>780.2</ele>
        <time>2022-07-22T08:15:36Z</time>
      </trkpt>
      <trkpt lat="47.0227190" lon="6.5653240">
        <ele>781.2</ele>
        <time>2022-07-22T08:15:40Z</time>
      </trkpt>
      <trkpt lat="47.0226550" lon="6.5652220">
        <ele>782.2</ele>
        <time>2022-07-22T08:15:46Z</time>
      </trkpt>
      <trkpt lat="47.0226120" lon="6.5651260">
        <ele>782.8</ele>
        <time>2022-07-22T08:15:51Z</time>
      </trkpt>
      <trkpt lat="47.0225750" lon="6.5650570">
        <ele>783.2</ele>
        <time>2022-07-22T08:15:55Z</time>
      </trkpt>
      <trkpt lat="47.0225290" lon="6.5649380">
        <ele>783.8</ele>
        <time>2022-07-22T08:16:01Z</time>
      </trkpt>
      <trkpt lat="47.0225120" lon="6.5648730">
        <ele>784.4</ele>
        <time>2022-07-22T08:16:04Z</time>
      </trkpt>
      <trkpt lat="47.0224770" lon="6.5647380">
        <ele>785.2</ele>
        <time>2022-07-22T08:16:10Z</time>
      </trkpt>
      <trkpt lat="47.0224720" lon="6.5647110">
        <ele>785.4</ele>
        <time>2022-07-22T08:16:11Z</time>
      </trkpt>
      <trkpt lat="47.0224410" lon="6.5645630">
        <ele>786.2</ele>
        <time>2022-07-22T08:16:17Z</time>
      </trkpt>
      <trkpt lat="47.0224300" lon="6.5645220">
        <ele>786.4</ele>
        <time>2022-07-22T08:16:19Z</time>
      </trkpt>
      <trkpt lat="47.0224140" lon="6.5644270">
        <ele>787.2</ele>
        <time>2022-07-22T08:16:23Z</time>
      </trkpt>
      <trkpt lat="47.0224070" lon="6.5643580">
        <ele>787.6</ele>
        <time>2022-07-22T08:16:26Z</time>
      </trkpt>
      <trkpt lat="47.0223980" lon="6.5642540">
        <ele>788.0</ele>
        <time>2022-07-22T08:16:30Z</time>
      </trkpt>
      <trkpt lat="47.0223910" lon="6.5641190">
        <ele>788.6</ele>
        <time>2022-07-22T08:16:36Z</time>
      </trkpt>
      <trkpt lat="47.0223890" lon="6.5640970">
        <ele>788.8</ele>
        <time>2022-07-22T08:16:37Z</time>
      </trkpt>
      <trkpt lat="47.0223830" lon="6.5639740">
        <ele>789.8</ele>
        <time>2022-07-22T08:16:42Z</time>
      </trkpt>
      <trkpt lat="47.0223890" lon="6.5639270">
        <ele>790.0</ele>
        <time>2022-07-22T08:16:44Z</time>
      </trkpt>
      <trkpt lat="47.0224010" lon="6.5638300">
        <ele>790.8</ele>
        <time>2022-07-22T08:16:48Z</time>
      </trkpt>
      <trkpt lat="47.0224150" lon="6.5636840">
        <ele>791.6</ele>
        <time>2022-07-22T08:16:53Z</time>
      </trkpt>
      <trkpt lat="47.0224230" lon="6.5636030">
        <ele>792.0</ele>
        <time>2022-07-22T08:16:56Z</time>
      </trkpt>
      <trkpt lat="47.0224520" lon="6.5634720">
        <ele>792.6</ele>
        <time>2022-07-22T08:17:01Z</time>
      </trkpt>
      <trkpt lat="47.0224600" lon="6.5633900">
        <ele>793.0</ele>
        <time>2022-07-22T08:17:04Z</time>
      </trkpt>
      <trkpt lat="47.0224810" lon="6.5632200">
        <ele>793.6</ele>
        <time>2022-07-22T08:17:10Z</time>
      </trkpt>
      <trkpt lat="47.0224870" lon="6.5631930">
        <ele>794.0</ele>
        <time>2022-07-22T08:17:11Z</time>
      </trkpt>
      <trkpt lat="47.0225230" lon="6.5629600">
        <ele>795.0</ele>
        <time>2022-07-22T08:17:19Z</time>
      </trkpt>
      <trkpt lat="47.0225180" lon="6.5627760">
        <ele>795.6</ele>
        <time>2022-07-22T08:17:26Z</time>
      </trkpt>
      <trkpt lat="47.0225070" lon="6.5626260">
        <ele>796.2</ele>
        <time>2022-07-22T08:17:31Z</time>
      </trkpt>
      <trkpt lat="47.0225000" lon="6.5625460">
        <ele>796.6</ele>
        <time>2022-07-22T08:17:34Z</time>
      </trkpt>
      <trkpt lat="47.0224840" lon="6.5624140">
        <ele>797.2</ele>
        <time>2022-07-22T08:17:39Z</time>
      </trkpt>
      <trkpt lat="47.0224780" lon="6.5623620">
        <ele>797.6</ele>
        <time>2022-07-22T08:17:41Z</time>
      </trkpt>
      <trkpt lat="47.0224650" lon="6.5622350">
        <ele>798.4</ele>
        <time>2022-07-22T08:17:46Z</time>
      </trkpt>
      <trkpt lat="47.0224620" lon="6.5621680">
        <ele>798.4</ele>
        <time>2022-07-22T08:17:49Z</time>
      </trkpt>
      <trkpt lat="47.0224710" lon="6.5620290">
        <ele>799.4</ele>
        <time>2022-07-22T08:17:55Z</time>
      </trkpt>
      <trkpt lat="47.0224730" lon="6.5620050">
        <ele>799.6</ele>
        <time>2022-07-22T08:17:56Z</time>
      </trkpt>
      <trkpt lat="47.0224840" lon="6.5618500">
        <ele>800.4</ele>
        <time>2022-07-22T08:18:03Z</time>
      </trkpt>
      <trkpt lat="47.0224870" lon="6.5618300">
        <ele>800.6</ele>
        <time>2022-07-22T08:18:04Z</time>
      </trkpt>
      <trkpt lat="47.0225070" lon="6.5617210">
        <ele>801.6</ele>
        <time>2022-07-22T08:18:09Z</time>
      </trkpt>
      <trkpt lat="47.0225160" lon="6.5616840">
        <ele>801.8</ele>
        <time>2022-07-22T08:18:11Z</time>
      </trkpt>
      <trkpt lat="47.0225370" lon="6.5615930">
        <ele>802.4</ele>
        <time>2022-07-22T08:18:16Z</time>
      </trkpt>
      <trkpt lat="47.0225560" lon="6.5615280">
        <ele>803.0</ele>
        <time>2022-07-22T08:18:19Z</time>
      </trkpt>
      <trkpt lat="47.0225660" lon="6.5614940">
        <ele>803.4</ele>
        <time>2022-07-22T08:18:21Z</time>
      </trkpt>
      <trkpt lat="47.0225910" lon="6.5613990">
        <ele>804.6</ele>
        <time>2022-07-22T08:18:27Z</time>
      </trkpt>
      <trkpt lat="47.0226060" lon="6.5613610">
        <ele>805.0</ele>
        <time>2022-07-22T08:18:30Z</time>
      </trkpt>
      <trkpt lat="47.0226290" lon="6.5612990">
        <ele>805.6</ele>
        <time>2022-07-22T08:18:34Z</time>
      </trkpt>
      <trkpt lat="47.0226610" lon="6.5612160">
        <ele>806.6</ele>
        <time>2022-07-22T08:18:40Z</time>
      </trkpt>
      <trkpt lat="47.0226660" lon="6.5611940">
        <ele>806.8</ele>
        <time>2022-07-22T08:18:41Z</time>
      </trkpt>
      <trkpt lat="47.0226730" lon="6.5611790">
        <ele>807.0</ele>
        <time>2022-07-22T08:18:42Z</time>
      </trkpt>
      <trkpt lat="47.0227060" lon="6.5611000">
        <ele>807.8</ele>
        <time>2022-07-22T08:18:47Z</time>
      </trkpt>
      <trkpt lat="47.0227680" lon="6.5610270">
        <ele>808.8</ele>
        <time>2022-07-22T08:18:54Z</time>
      </trkpt>
      <trkpt lat="47.0228570" lon="6.5609480">
        <ele>809.8</ele>
        <time>2022-07-22T08:19:01Z</time>
      </trkpt>
      <trkpt lat="47.0228940" lon="6.5609190">
        <ele>810.4</ele>
        <time>2022-07-22T08:19:04Z</time>
      </trkpt>
      <trkpt lat="47.0229280" lon="6.5608910">
        <ele>811.2</ele>
        <time>2022-07-22T08:19:07Z</time>
      </trkpt>
      <trkpt lat="47.0230050" lon="6.5607800">
        <ele>811.8</ele>
        <time>2022-07-22T08:19:15Z</time>
      </trkpt>
      <trkpt lat="47.0230120" lon="6.5607630">
        <ele>812.0</ele>
        <time>2022-07-22T08:19:16Z</time>
      </trkpt>
      <trkpt lat="47.0230420" lon="6.5606530">
        <ele>812.8</ele>
        <time>2022-07-22T08:19:22Z</time>
      </trkpt>
      <trkpt lat="47.0230550" lon="6.5605980">
        <ele>813.2</ele>
        <time>2022-07-22T08:19:25Z</time>
      </trkpt>
      <trkpt lat="47.0230650" lon="6.5605670">
        <ele>813.4</ele>
        <time>2022-07-22T08:19:27Z</time>
      </trkpt>
      <trkpt lat="47.0230710" lon="6.5605260">
        <ele>813.6</ele>
        <time>2022-07-22T08:19:29Z</time>
      </trkpt>
      <trkpt lat="47.0230890" lon="6.5604400">
        <ele>814.2</ele>
        <time>2022-07-22T08:19:33Z</time>
      </trkpt>
      <trkpt lat="47.0231020" lon="6.5603760">
        <ele>814.8</ele>
        <time>2022-07-22T08:19:36Z</time>
      </trkpt>
      <trkpt lat="47.0231190" lon="6.5602820">
        <ele>815.4</ele>
        <time>2022-07-22T08:19:41Z</time>
      </trkpt>
      <trkpt lat="47.0231380" lon="6.5601840">
        <ele>816.2</ele>
        <time>2022-07-22T08:19:46Z</time>
      </trkpt>
      <trkpt lat="47.0231400" lon="6.5601640">
        <ele>816.4</ele>
        <time>2022-07-22T08:19:47Z</time>
      </trkpt>
      <trkpt lat="47.0231540" lon="6.5600350">
        <ele>817.4</ele>
        <time>2022-07-22T08:19:53Z</time>
      </trkpt>
      <trkpt lat="47.0231540" lon="6.5599850">
        <ele>817.8</ele>
        <time>2022-07-22T08:19:55Z</time>
      </trkpt>
      <trkpt lat="47.0231240" lon="6.5598260">
        <ele>818.6</ele>
        <time>2022-07-22T08:20:00Z</time>
      </trkpt>
      <trkpt lat="47.0231030" lon="6.5597640">
        <ele>818.8</ele>
        <time>2022-07-22T08:20:02Z</time>
      </trkpt>
      <trkpt lat="47.0230060" lon="6.5596010">
        <ele>819.6</ele>
        <time>2022-07-22T08:20:08Z</time>
      </trkpt>
      <trkpt lat="47.0229910" lon="6.5595830">
        <ele>819.8</ele>
        <time>2022-07-22T08:20:09Z</time>
      </trkpt>
      <trkpt lat="47.0228450" lon="6.5594510">
        <ele>820.8</ele>
        <time>2022-07-22T08:20:19Z</time>
      </trkpt>
      <trkpt lat="47.0227240" lon="6.5593550">
        <ele>821.6</ele>
        <time>2022-07-22T08:20:26Z</time>
      </trkpt>
      <trkpt lat="47.0226860" lon="6.5593330">
        <ele>822.0</ele>
        <time>2022-07-22T08:20:28Z</time>
      </trkpt>
      <trkpt lat="47.0225690" lon="6.5592720">
        <ele>822.6</ele>
        <time>2022-07-22T08:20:34Z</time>
      </trkpt>
      <trkpt lat="47.0225480" lon="6.5592590">
        <ele>822.6</ele>
        <time>2022-07-22T08:20:35Z</time>
      </trkpt>
      <trkpt lat="47.0224240" lon="6.5591430">
        <ele>823.0</ele>
        <time>2022-07-22T08:20:41Z</time>
      </trkpt>
      <trkpt lat="47.0222110" lon="6.5589480">
        <ele>823.2</ele>
        <time>2022-07-22T08:20:49Z</time>
      </trkpt>
      <trkpt lat="47.0220450" lon="6.5588210">
        <ele>823.2</ele>
        <time>2022-07-22T08:20:55Z</time>
      </trkpt>
      <trkpt lat="47.0219070" lon="6.5586870">
        <ele>823.8</ele>
        <time>2022-07-22T08:21:02Z</time>
      </trkpt>
      <trkpt lat="47.0218850" lon="6.5586660">
        <ele>824.4</ele>
        <time>2022-07-22T08:21:03Z</time>
      </trkpt>
      <trkpt lat="47.0218130" lon="6.5585980">
        <ele>824.8</ele>
        <time>2022-07-22T08:21:06Z</time>
      </trkpt>
      <trkpt lat="47.0217000" lon="6.5584990">
        <ele>825.6</ele>
        <time>2022-07-22T08:21:11Z</time>
      </trkpt>
      <trkpt lat="47.0215660" lon="6.5583640">
        <ele>826.0</ele>
        <time>2022-07-22T08:21:18Z</time>
      </trkpt>
      <trkpt lat="47.0214990" lon="6.5583000">
        <ele>826.4</ele>
        <time>2022-07-22T08:21:21Z</time>
      </trkpt>
      <trkpt lat="47.0214260" lon="6.5582210">
        <ele>827.0</ele>
        <time>2022-07-22T08:21:24Z</time>
      </trkpt>
      <trkpt lat="47.0213000" lon="6.5580870">
        <ele>827.6</ele>
        <time>2022-07-22T08:21:29Z</time>
      </trkpt>
      <trkpt lat="47.0210220" lon="6.5577960">
        <ele>827.8</ele>
        <time>2022-07-22T08:21:38Z</time>
      </trkpt>
      <trkpt lat="47.0207570" lon="6.5575670">
        <ele>827.8</ele>
        <time>2022-07-22T08:21:46Z</time>
      </trkpt>
      <trkpt lat="47.0206690" lon="6.5574860">
        <ele>827.8</ele>
        <time>2022-07-22T08:21:49Z</time>
      </trkpt>
      <trkpt lat="47.0205400" lon="6.5573590">
        <ele>827.6</ele>
        <time>2022-07-22T08:21:54Z</time>
      </trkpt>
      <trkpt lat="47.0205160" lon="6.5573360">
        <ele>827.8</ele>
        <time>2022-07-22T08:21:55Z</time>
      </trkpt>
      <trkpt lat="47.0203870" lon="6.5572020">
        <ele>829.0</ele>
        <time>2022-07-22T08:22:01Z</time>
      </trkpt>
      <trkpt lat="47.0202590" lon="6.5570780">
        <ele>830.0</ele>
        <time>2022-07-22T08:22:08Z</time>
      </trkpt>
      <trkpt lat="47.0201450" lon="6.5569660">
        <ele>831.0</ele>
        <time>2022-07-22T08:22:14Z</time>
      </trkpt>
      <trkpt lat="47.0201250" lon="6.5569500">
        <ele>831.2</ele>
        <time>2022-07-22T08:22:15Z</time>
      </trkpt>
      <trkpt lat="47.0200080" lon="6.5568580">
        <ele>832.0</ele>
        <time>2022-07-22T08:22:21Z</time>
      </trkpt>
      <trkpt lat="47.0199910" lon="6.5568440">
        <ele>832.0</ele>
        <time>2022-07-22T08:22:22Z</time>
      </trkpt>
      <trkpt lat="47.0198820" lon="6.5567430">
        <ele>833.2</ele>
        <time>2022-07-22T08:22:28Z</time>
      </trkpt>
      <trkpt lat="47.0198620" lon="6.5567200">
        <ele>833.4</ele>
        <time>2022-07-22T08:22:29Z</time>
      </trkpt>
      <trkpt lat="47.0197580" lon="6.5566170">
        <ele>834.4</ele>
        <time>2022-07-22T08:22:34Z</time>
      </trkpt>
      <trkpt lat="47.0197160" lon="6.5565680">
        <ele>834.8</ele>
        <time>2022-07-22T08:22:36Z</time>
      </trkpt>
      <trkpt lat="47.0195910" lon="6.5564210">
        <ele>835.4</ele>
        <time>2022-07-22T08:22:43Z</time>
      </trkpt>
      <trkpt lat="47.0195550" lon="6.5563790">
        <ele>835.4</ele>
        <time>2022-07-22T08:22:45Z</time>
      </trkpt>
      <trkpt lat="47.0194780" lon="6.5562790">
        <ele>835.8</ele>
        <time>2022-07-22T08:22:49Z</time>
      </trkpt>
      <trkpt lat="47.0193760" lon="6.5561440">
        <ele>836.6</ele>
        <time>2022-07-22T08:22:55Z</time>
      </trkpt>
      <trkpt lat="47.0192500" lon="6.5559860">
        <ele>837.4</ele>
        <time>2022-07-22T08:23:01Z</time>
      </trkpt>
      <trkpt lat="47.0191820" lon="6.5558990">
        <ele>837.6</ele>
        <time>2022-07-22T08:23:04Z</time>
      </trkpt>
      <trkpt lat="47.0190700" lon="6.5557400">
        <ele>838.2</ele>
        <time>2022-07-22T08:23:09Z</time>
      </trkpt>
      <trkpt lat="47.0189630" lon="6.5555830">
        <ele>838.6</ele>
        <time>2022-07-22T08:23:14Z</time>
      </trkpt>
      <trkpt lat="47.0188810" lon="6.5554610">
        <ele>838.8</ele>
        <time>2022-07-22T08:23:18Z</time>
      </trkpt>
      <trkpt lat="47.0186950" lon="6.5551870">
        <ele>839.6</ele>
        <time>2022-07-22T08:23:27Z</time>
      </trkpt>
      <trkpt lat="47.0186580" lon="6.5551270">
        <ele>839.8</ele>
        <time>2022-07-22T08:23:29Z</time>
      </trkpt>
      <trkpt lat="47.0185590" lon="6.5549550">
        <ele>840.8</ele>
        <time>2022-07-22T08:23:35Z</time>
      </trkpt>
      <trkpt lat="47.0185240" lon="6.5549090">
        <ele>840.8</ele>
        <time>2022-07-22T08:23:37Z</time>
      </trkpt>
      <trkpt lat="47.0184380" lon="6.5547840">
        <ele>841.6</ele>
        <time>2022-07-22T08:23:42Z</time>
      </trkpt>
      <trkpt lat="47.0184030" lon="6.5547360">
        <ele>842.0</ele>
        <time>2022-07-22T08:23:44Z</time>
      </trkpt>
      <trkpt lat="47.0183280" lon="6.5546340">
        <ele>842.6</ele>
        <time>2022-07-22T08:23:48Z</time>
      </trkpt>
      <trkpt lat="47.0182480" lon="6.5545100">
        <ele>843.2</ele>
        <time>2022-07-22T08:23:52Z</time>
      </trkpt>
      <trkpt lat="47.0181350" lon="6.5542950">
        <ele>843.8</ele>
        <time>2022-07-22T08:23:58Z</time>
      </trkpt>
      <trkpt lat="47.0180500" lon="6.5541020">
        <ele>844.2</ele>
        <time>2022-07-22T08:24:03Z</time>
      </trkpt>
      <trkpt lat="47.0179450" lon="6.5538810">
        <ele>844.8</ele>
        <time>2022-07-22T08:24:09Z</time>
      </trkpt>
      <trkpt lat="47.0179270" lon="6.5538440">
        <ele>844.8</ele>
        <time>2022-07-22T08:24:10Z</time>
      </trkpt>
      <trkpt lat="47.0178020" lon="6.5535880">
        <ele>845.2</ele>
        <time>2022-07-22T08:24:17Z</time>
      </trkpt>
      <trkpt lat="47.0177020" lon="6.5534060">
        <ele>845.6</ele>
        <time>2022-07-22T08:24:22Z</time>
      </trkpt>
      <trkpt lat="47.0176670" lon="6.5533410">
        <ele>845.8</ele>
        <time>2022-07-22T08:24:24Z</time>
      </trkpt>
      <trkpt lat="47.0175680" lon="6.5531670">
        <ele>846.2</ele>
        <time>2022-07-22T08:24:29Z</time>
      </trkpt>
      <trkpt lat="47.0174580" lon="6.5529720">
        <ele>846.4</ele>
        <time>2022-07-22T08:24:36Z</time>
      </trkpt>
      <trkpt lat="47.0173580" lon="6.5527630">
        <ele>846.6</ele>
        <time>2022-07-22T08:24:43Z</time>
      </trkpt>
      <trkpt lat="47.0172610" lon="6.5526070">
        <ele>847.2</ele>
        <time>2022-07-22T08:24:49Z</time>
      </trkpt>
      <trkpt lat="47.0172290" lon="6.5524960">
        <ele>847.6</ele>
        <time>2022-07-22T08:24:54Z</time>
      </trkpt>
      <trkpt lat="47.0172240" lon="6.5524740">
        <ele>847.6</ele>
        <time>2022-07-22T08:24:55Z</time>
      </trkpt>
      <trkpt lat="47.0171720" lon="6.5523210">
        <ele>848.6</ele>
        <time>2022-07-22T08:25:01Z</time>
      </trkpt>
      <trkpt lat="47.0171540" lon="6.5522800">
        <ele>848.8</ele>
        <time>2022-07-22T08:25:03Z</time>
      </trkpt>
      <trkpt lat="47.0171330" lon="6.5522090">
        <ele>849.2</ele>
        <time>2022-07-22T08:25:07Z</time>
      </trkpt>
      <trkpt lat="47.0171110" lon="6.5521390">
        <ele>850.0</ele>
        <time>2022-07-22T08:25:12Z</time>
      </trkpt>
      <trkpt lat="47.0170800" lon="6.5520140">
        <ele>851.0</ele>
        <time>2022-07-22T08:25:20Z</time>
      </trkpt>
      <trkpt lat="47.0170620" lon="6.5519720">
        <ele>851.4</ele>
        <time>2022-07-22T08:25:23Z</time>
      </trkpt>
      <trkpt lat="47.0170490" lon="6.5518920">
        <ele>852.2</ele>
        <time>2022-07-22T08:25:28Z</time>
      </trkpt>
      <trkpt lat="47.0170210" lon="6.5518140">
        <ele>852.6</ele>
        <time>2022-07-22T08:25:33Z</time>
      </trkpt>
      <trkpt lat="47.0169980" lon="6.5517370">
        <ele>853.2</ele>
        <time>2022-07-22T08:25:37Z</time>
      </trkpt>
      <trkpt lat="47.0169920" lon="6.5516710">
        <ele>853.6</ele>
        <time>2022-07-22T08:25:41Z</time>
      </trkpt>
      <trkpt lat="47.0169910" lon="6.5516360">
        <ele>853.8</ele>
        <time>2022-07-22T08:25:43Z</time>
      </trkpt>
      <trkpt lat="47.0169750" lon="6.5515860">
        <ele>854.2</ele>
        <time>2022-07-22T08:25:46Z</time>
      </trkpt>
      <trkpt lat="47.0169720" lon="6.5515690">
        <ele>854.2</ele>
        <time>2022-07-22T08:25:47Z</time>
      </trkpt>
      <trkpt lat="47.0169550" lon="6.5514530">
        <ele>855.0</ele>
        <time>2022-07-22T08:25:53Z</time>
      </trkpt>
      <trkpt lat="47.0169510" lon="6.5514320">
        <ele>855.2</ele>
        <time>2022-07-22T08:25:54Z</time>
      </trkpt>
      <trkpt lat="47.0169300" lon="6.5512990">
        <ele>856.4</ele>
        <time>2022-07-22T08:26:01Z</time>
      </trkpt>
      <trkpt lat="47.0169270" lon="6.5512830">
        <ele>856.4</ele>
        <time>2022-07-22T08:26:02Z</time>
      </trkpt>
      <trkpt lat="47.0169230" lon="6.5511820">
        <ele>857.2</ele>
        <time>2022-07-22T08:26:07Z</time>
      </trkpt>
      <trkpt lat="47.0169250" lon="6.5511320">
        <ele>857.6</ele>
        <time>2022-07-22T08:26:10Z</time>
      </trkpt>
      <trkpt lat="47.0169130" lon="6.5510410">
        <ele>858.4</ele>
        <time>2022-07-22T08:26:16Z</time>
      </trkpt>
      <trkpt lat="47.0169150" lon="6.5510220">
        <ele>858.6</ele>
        <time>2022-07-22T08:26:17Z</time>
      </trkpt>
      <trkpt lat="47.0169040" lon="6.5509780">
        <ele>859.6</ele>
        <time>2022-07-22T08:26:22Z</time>
      </trkpt>
      <trkpt lat="47.0168960" lon="6.5509680">
        <ele>859.6</ele>
        <time>2022-07-22T08:26:23Z</time>
      </trkpt>
      <trkpt lat="47.0168710" lon="6.5509150">
        <ele>860.6</ele>
        <time>2022-07-22T08:26:28Z</time>
      </trkpt>
      <trkpt lat="47.0168540" lon="6.5508540">
        <ele>861.2</ele>
        <time>2022-07-22T08:26:33Z</time>
      </trkpt>
      <trkpt lat="47.0168470" lon="6.5508340">
        <ele>861.4</ele>
        <time>2022-07-22T08:26:35Z</time>
      </trkpt>
      <trkpt lat="47.0168110" lon="6.5507500">
        <ele>862.4</ele>
        <time>2022-07-22T08:26:42Z</time>
      </trkpt>
      <trkpt lat="47.0167960" lon="6.5507230">
        <ele>863.2</ele>
        <time>2022-07-22T08:26:46Z</time>
      </trkpt>
      <trkpt lat="47.0167960" lon="6.5507160">
        <ele>863.4</ele>
        <time>2022-07-22T08:26:47Z</time>
      </trkpt>
      <trkpt lat="47.0167930" lon="6.5507050">
        <ele>864.0</ele>
        <time>2022-07-22T08:26:50Z</time>
      </trkpt>
      <trkpt lat="47.0156890" lon="6.5497370">
        <ele>881.4</ele>
        <time>2022-07-22T08:29:13Z</time>
      </trkpt>
      <trkpt lat="47.0156600" lon="6.5497100">
        <ele>881.8</ele>
        <time>2022-07-22T08:29:15Z</time>
      </trkpt>
      <trkpt lat="47.0156050" lon="6.5496490">
        <ele>882.6</ele>
        <time>2022-07-22T08:29:19Z</time>
      </trkpt>
      <trkpt lat="47.0155350" lon="6.5495760">
        <ele>883.4</ele>
        <time>2022-07-22T08:29:27Z</time>
      </trkpt>
      <trkpt lat="47.0155150" lon="6.5495630">
        <ele>883.8</ele>
        <time>2022-07-22T08:29:29Z</time>
      </trkpt>
      <trkpt lat="47.0154730" lon="6.5495280">
        <ele>884.4</ele>
        <time>2022-07-22T08:29:34Z</time>
      </trkpt>
      <trkpt lat="47.0154130" lon="6.5494450">
        <ele>885.4</ele>
        <time>2022-07-22T08:29:41Z</time>
      </trkpt>
      <trkpt lat="47.0153810" lon="6.5494040">
        <ele>885.4</ele>
        <time>2022-07-22T08:29:44Z</time>
      </trkpt>
      <trkpt lat="47.0153080" lon="6.5493620">
        <ele>886.4</ele>
        <time>2022-07-22T08:29:50Z</time>
      </trkpt>
      <trkpt lat="47.0152880" lon="6.5493430">
        <ele>886.6</ele>
        <time>2022-07-22T08:29:52Z</time>
      </trkpt>
      <trkpt lat="47.0152390" lon="6.5493010">
        <ele>887.2</ele>
        <time>2022-07-22T08:29:57Z</time>
      </trkpt>
      <trkpt lat="47.0151700" lon="6.5492330">
        <ele>888.2</ele>
        <time>2022-07-22T08:30:04Z</time>
      </trkpt>
      <trkpt lat="47.0151580" lon="6.5492210">
        <ele>888.4</ele>
        <time>2022-07-22T08:30:05Z</time>
      </trkpt>
      <trkpt lat="47.0150810" lon="6.5491590">
        <ele>889.6</ele>
        <time>2022-07-22T08:30:11Z</time>
      </trkpt>
      <trkpt lat="47.0150170" lon="6.5491150">
        <ele>890.2</ele>
        <time>2022-07-22T08:30:16Z</time>
      </trkpt>
      <trkpt lat="47.0150090" lon="6.5491080">
        <ele>890.4</ele>
        <time>2022-07-22T08:30:17Z</time>
      </trkpt>
      <trkpt lat="47.0149520" lon="6.5490560">
        <ele>891.2</ele>
        <time>2022-07-22T08:30:24Z</time>
      </trkpt>
      <trkpt lat="47.0149450" lon="6.5490510">
        <ele>891.4</ele>
        <time>2022-07-22T08:30:25Z</time>
      </trkpt>
      <trkpt lat="47.0148920" lon="6.5489890">
        <ele>892.4</ele>
        <time>2022-07-22T08:30:32Z</time>
      </trkpt>
      <trkpt lat="47.0148360" lon="6.5489400">
        <ele>893.4</ele>
        <time>2022-07-22T08:30:38Z</time>
      </trkpt>
      <trkpt lat="47.0147990" lon="6.5488980">
        <ele>894.2</ele>
        <time>2022-07-22T08:30:43Z</time>
      </trkpt>
      <trkpt lat="47.0147850" lon="6.5488730">
        <ele>894.6</ele>
        <time>2022-07-22T08:30:46Z</time>
      </trkpt>
      <trkpt lat="47.0147370" lon="6.5487760">
        <ele>895.6</ele>
        <time>2022-07-22T08:30:54Z</time>
      </trkpt>
      <trkpt lat="47.0147190" lon="6.5487510">
        <ele>896.0</ele>
        <time>2022-07-22T08:30:56Z</time>
      </trkpt>
      <trkpt lat="47.0146820" lon="6.5486970">
        <ele>896.6</ele>
        <time>2022-07-22T08:31:01Z</time>
      </trkpt>
      <trkpt lat="47.0145920" lon="6.5486610">
        <ele>897.2</ele>
        <time>2022-07-22T08:31:07Z</time>
      </trkpt>
      <trkpt lat="47.0145560" lon="6.5486330">
        <ele>897.6</ele>
        <time>2022-07-22T08:31:10Z</time>
      </trkpt>
      <trkpt lat="47.0144960" lon="6.5486020">
        <ele>899.0</ele>
        <time>2022-07-22T08:31:15Z</time>
      </trkpt>
      <trkpt lat="47.0144580" lon="6.5485760">
        <ele>899.4</ele>
        <time>2022-07-22T08:31:19Z</time>
      </trkpt>
      <trkpt lat="47.0144410" lon="6.5485660">
        <ele>899.8</ele>
        <time>2022-07-22T08:31:21Z</time>
      </trkpt>
      <trkpt lat="47.0143800" lon="6.5485120">
        <ele>900.8</ele>
        <time>2022-07-22T08:31:28Z</time>
      </trkpt>
      <trkpt lat="47.0143700" lon="6.5485020">
        <ele>901.0</ele>
        <time>2022-07-22T08:31:29Z</time>
      </trkpt>
      <trkpt lat="47.0143300" lon="6.5484460">
        <ele>902.0</ele>
        <time>2022-07-22T08:31:35Z</time>
      </trkpt>
      <trkpt lat="47.0142860" lon="6.5483880">
        <ele>902.4</ele>
        <time>2022-07-22T08:31:40Z</time>
      </trkpt>
      <trkpt lat="47.0142610" lon="6.5483540">
        <ele>902.8</ele>
        <time>2022-07-22T08:31:43Z</time>
      </trkpt>
      <trkpt lat="47.0142170" lon="6.5482470">
        <ele>903.6</ele>
        <time>2022-07-22T08:31:50Z</time>
      </trkpt>
      <trkpt lat="47.0142000" lon="6.5482310">
        <ele>903.8</ele>
        <time>2022-07-22T08:31:52Z</time>
      </trkpt>
      <trkpt lat="47.0141790" lon="6.5481990">
        <ele>904.2</ele>
        <time>2022-07-22T08:31:54Z</time>
      </trkpt>
      <trkpt lat="47.0141220" lon="6.5481490">
        <ele>905.0</ele>
        <time>2022-07-22T08:31:59Z</time>
      </trkpt>
      <trkpt lat="47.0140800" lon="6.5480930">
        <ele>905.4</ele>
        <time>2022-07-22T08:32:04Z</time>
      </trkpt>
      <trkpt lat="47.0140420" lon="6.5480210">
        <ele>905.8</ele>
        <time>2022-07-22T08:32:07Z</time>
      </trkpt>
      <trkpt lat="47.0139770" lon="6.5479190">
        <ele>906.6</ele>
        <time>2022-07-22T08:32:13Z</time>
      </trkpt>
      <trkpt lat="47.0139640" lon="6.5478920">
        <ele>906.8</ele>
        <time>2022-07-22T08:32:15Z</time>
      </trkpt>
      <trkpt lat="47.0139050" lon="6.5477730">
        <ele>907.8</ele>
        <time>2022-07-22T08:32:24Z</time>
      </trkpt>
      <trkpt lat="47.0139040" lon="6.5477530">
        <ele>907.8</ele>
        <time>2022-07-22T08:32:25Z</time>
      </trkpt>
      <trkpt lat="47.0139130" lon="6.5476810">
        <ele>908.4</ele>
        <time>2022-07-22T08:32:32Z</time>
      </trkpt>
      <trkpt lat="47.0149470" lon="6.5473440">
        <ele>927.2</ele>
        <time>2022-07-22T08:35:31Z</time>
      </trkpt>
      <trkpt lat="47.0149100" lon="6.5472730">
        <ele>927.0</ele>
        <time>2022-07-22T08:35:35Z</time>
      </trkpt>
      <trkpt lat="47.0148900" lon="6.5472330">
        <ele>927.2</ele>
        <time>2022-07-22T08:35:37Z</time>
      </trkpt>
      <trkpt lat="47.0148180" lon="6.5470610">
        <ele>928.0</ele>
        <time>2022-07-22T08:35:45Z</time>
      </trkpt>
      <trkpt lat="47.0147630" lon="6.5468760">
        <ele>928.8</ele>
        <time>2022-07-22T08:35:53Z</time>
      </trkpt>
      <trkpt lat="47.0147450" lon="6.5468140">
        <ele>929.0</ele>
        <time>2022-07-22T08:35:56Z</time>
      </trkpt>
      <trkpt lat="47.0147340" lon="6.5467520">
        <ele>929.4</ele>
        <time>2022-07-22T08:35:59Z</time>
      </trkpt>
      <trkpt lat="47.0147000" lon="6.5466520">
        <ele>930.0</ele>
        <time>2022-07-22T08:36:04Z</time>
      </trkpt>
      <trkpt lat="47.0146920" lon="6.5466250">
        <ele>930.4</ele>
        <time>2022-07-22T08:36:06Z</time>
      </trkpt>
      <trkpt lat="47.0146390" lon="6.5464830">
        <ele>931.2</ele>
        <time>2022-07-22T08:36:12Z</time>
      </trkpt>
      <trkpt lat="47.0145430" lon="6.5462640">
        <ele>931.6</ele>
        <time>2022-07-22T08:36:20Z</time>
      </trkpt>
      <trkpt lat="47.0144330" lon="6.5460380">
        <ele>931.6</ele>
        <time>2022-07-22T08:36:27Z</time>
      </trkpt>
      <trkpt lat="47.0143210" lon="6.5458380">
        <ele>931.6</ele>
        <time>2022-07-22T08:36:34Z</time>
      </trkpt>
      <trkpt lat="47.0142620" lon="6.5457490">
        <ele>932.0</ele>
        <time>2022-07-22T08:36:38Z</time>
      </trkpt>
      <trkpt lat="47.0142330" lon="6.5457070">
        <ele>932.2</ele>
        <time>2022-07-22T08:36:40Z</time>
      </trkpt>
      <trkpt lat="47.0141540" lon="6.5455850">
        <ele>932.6</ele>
        <time>2022-07-22T08:36:46Z</time>
      </trkpt>
      <trkpt lat="47.0140830" lon="6.5454000">
        <ele>933.0</ele>
        <time>2022-07-22T08:36:52Z</time>
      </trkpt>
      <trkpt lat="47.0140750" lon="6.5453710">
        <ele>933.0</ele>
        <time>2022-07-22T08:36:53Z</time>
      </trkpt>
      <trkpt lat="47.0140040" lon="6.5451830">
        <ele>933.6</ele>
        <time>2022-07-22T08:36:59Z</time>
      </trkpt>
      <trkpt lat="47.0139290" lon="6.5450340">
        <ele>934.0</ele>
        <time>2022-07-22T08:37:05Z</time>
      </trkpt>
      <trkpt lat="47.0139090" lon="6.5449910">
        <ele>934.2</ele>
        <time>2022-07-22T08:37:07Z</time>
      </trkpt>
      <trkpt lat="47.0137870" lon="6.5448310">
        <ele>934.8</ele>
        <time>2022-07-22T08:37:15Z</time>
      </trkpt>
      <trkpt lat="47.0137160" lon="6.5447230">
        <ele>935.0</ele>
        <time>2022-07-22T08:37:19Z</time>
      </trkpt>
      <trkpt lat="47.0136560" lon="6.5446750">
        <ele>935.0</ele>
        <time>2022-07-22T08:37:22Z</time>
      </trkpt>
      <trkpt lat="47.0135260" lon="6.5445010">
        <ele>935.6</ele>
        <time>2022-07-22T08:37:28Z</time>
      </trkpt>
      <trkpt lat="47.0134370" lon="6.5444340">
        <ele>936.0</ele>
        <time>2022-07-22T08:37:31Z</time>
      </trkpt>
      <trkpt lat="47.0133690" lon="6.5443700">
        <ele>936.4</ele>
        <time>2022-07-22T08:37:34Z</time>
      </trkpt>
      <trkpt lat="47.0132170" lon="6.5442330">
        <ele>936.8</ele>
        <time>2022-07-22T08:37:40Z</time>
      </trkpt>
      <trkpt lat="47.0131930" lon="6.5442140">
        <ele>936.8</ele>
        <time>2022-07-22T08:37:41Z</time>
      </trkpt>
      <trkpt lat="47.0130220" lon="6.5440940">
        <ele>937.4</ele>
        <time>2022-07-22T08:37:48Z</time>
      </trkpt>
      <trkpt lat="47.0128600" lon="6.5439400">
        <ele>937.8</ele>
        <time>2022-07-22T08:37:55Z</time>
      </trkpt>
      <trkpt lat="47.0126870" lon="6.5438210">
        <ele>938.2</ele>
        <time>2022-07-22T08:38:02Z</time>
      </trkpt>
      <trkpt lat="47.0124530" lon="6.5436840">
        <ele>938.4</ele>
        <time>2022-07-22T08:38:09Z</time>
      </trkpt>
      <trkpt lat="47.0122430" lon="6.5435860">
        <ele>938.8</ele>
        <time>2022-07-22T08:38:16Z</time>
      </trkpt>
      <trkpt lat="47.0122210" lon="6.5435790">
        <ele>938.8</ele>
        <time>2022-07-22T08:38:17Z</time>
      </trkpt>
      <trkpt lat="47.0120440" lon="6.5435340">
        <ele>939.0</ele>
        <time>2022-07-22T08:38:23Z</time>
      </trkpt>
      <trkpt lat="47.0119240" lon="6.5434180">
        <ele>939.4</ele>
        <time>2022-07-22T08:38:28Z</time>
      </trkpt>
      <trkpt lat="47.0118140" lon="6.5432820">
        <ele>939.8</ele>
        <time>2022-07-22T08:38:34Z</time>
      </trkpt>
      <trkpt lat="47.0117960" lon="6.5432590">
        <ele>939.8</ele>
        <time>2022-07-22T08:38:35Z</time>
      </trkpt>
      <trkpt lat="47.0116900" lon="6.5430880">
        <ele>940.2</ele>
        <time>2022-07-22T08:38:41Z</time>
      </trkpt>
      <trkpt lat="47.0115970" lon="6.5428730">
        <ele>940.6</ele>
        <time>2022-07-22T08:38:48Z</time>
      </trkpt>
      <trkpt lat="47.0115800" lon="6.5428380">
        <ele>940.8</ele>
        <time>2022-07-22T08:38:49Z</time>
      </trkpt>
      <trkpt lat="47.0114860" lon="6.5426450">
        <ele>941.4</ele>
        <time>2022-07-22T08:38:54Z</time>
      </trkpt>
      <trkpt lat="47.0113960" lon="6.5424550">
        <ele>941.8</ele>
        <time>2022-07-22T08:38:59Z</time>
      </trkpt>
      <trkpt lat="47.0113620" lon="6.5423900">
        <ele>942.0</ele>
        <time>2022-07-22T08:39:01Z</time>
      </trkpt>
      <trkpt lat="47.0112730" lon="6.5422010">
        <ele>942.2</ele>
        <time>2022-07-22T08:39:06Z</time>
      </trkpt>
      <trkpt lat="47.0110750" lon="6.5418440">
        <ele>942.2</ele>
        <time>2022-07-22T08:39:13Z</time>
      </trkpt>
      <trkpt lat="47.0107760" lon="6.5413160">
        <ele>942.0</ele>
        <time>2022-07-22T08:39:23Z</time>
      </trkpt>
      <trkpt lat="47.0104930" lon="6.5409280">
        <ele>941.6</ele>
        <time>2022-07-22T08:39:31Z</time>
      </trkpt>
      <trkpt lat="47.0101390" lon="6.5406030">
        <ele>941.6</ele>
        <time>2022-07-22T08:39:40Z</time>
      </trkpt>
      <trkpt lat="47.0098690" lon="6.5402960">
        <ele>941.8</ele>
        <time>2022-07-22T08:39:48Z</time>
      </trkpt>
      <trkpt lat="47.0095310" lon="6.5397100">
        <ele>942.2</ele>
        <time>2022-07-22T08:39:59Z</time>
      </trkpt>
      <trkpt lat="47.0091790" lon="6.5390860">
        <ele>942.0</ele>
        <time>2022-07-22T08:40:11Z</time>
      </trkpt>
      <trkpt lat="47.0089030" lon="6.5387170">
        <ele>941.8</ele>
        <time>2022-07-22T08:40:19Z</time>
      </trkpt>
      <trkpt lat="47.0087710" lon="6.5386310">
        <ele>941.8</ele>
        <time>2022-07-22T08:40:22Z</time>
      </trkpt>
      <trkpt lat="47.0086300" lon="6.5385850">
        <ele>941.6</ele>
        <time>2022-07-22T08:40:25Z</time>
      </trkpt>
      <trkpt lat="47.0082150" lon="6.5384720">
        <ele>941.4</ele>
        <time>2022-07-22T08:40:34Z</time>
      </trkpt>
      <trkpt lat="47.0079670" lon="6.5382590">
        <ele>941.4</ele>
        <time>2022-07-22T08:40:41Z</time>
      </trkpt>
      <trkpt lat="47.0079370" lon="6.5382300">
        <ele>941.4</ele>
        <time>2022-07-22T08:40:42Z</time>
      </trkpt>
      <trkpt lat="47.0076030" lon="6.5379500">
        <ele>942.4</ele>
        <time>2022-07-22T08:40:52Z</time>
      </trkpt>
      <trkpt lat="47.0074320" lon="6.5378660">
        <ele>942.6</ele>
        <time>2022-07-22T08:40:58Z</time>
      </trkpt>
      <trkpt lat="47.0073400" lon="6.5378350">
        <ele>942.8</ele>
        <time>2022-07-22T08:41:03Z</time>
      </trkpt>
      <trkpt lat="47.0072720" lon="6.5378060">
        <ele>943.4</ele>
        <time>2022-07-22T08:41:07Z</time>
      </trkpt>
      <trkpt lat="47.0072310" lon="6.5377880">
        <ele>944.0</ele>
        <time>2022-07-22T08:41:10Z</time>
      </trkpt>
      <trkpt lat="47.0071670" lon="6.5377620">
        <ele>944.8</ele>
        <time>2022-07-22T08:41:15Z</time>
      </trkpt>
      <trkpt lat="47.0071390" lon="6.5377440">
        <ele>945.0</ele>
        <time>2022-07-22T08:41:17Z</time>
      </trkpt>
      <trkpt lat="47.0070870" lon="6.5376990">
        <ele>946.0</ele>
        <time>2022-07-22T08:41:21Z</time>
      </trkpt>
      <trkpt lat="47.0070720" lon="6.5376850">
        <ele>946.2</ele>
        <time>2022-07-22T08:41:22Z</time>
      </trkpt>
      <trkpt lat="47.0069830" lon="6.5376250">
        <ele>946.8</ele>
        <time>2022-07-22T08:41:28Z</time>
      </trkpt>
      <trkpt lat="47.0069160" lon="6.5375840">
        <ele>947.2</ele>
        <time>2022-07-22T08:41:33Z</time>
      </trkpt>
      <trkpt lat="47.0068780" lon="6.5375650">
        <ele>947.6</ele>
        <time>2022-07-22T08:41:36Z</time>
      </trkpt>
      <trkpt lat="47.0068400" lon="6.5375530">
        <ele>948.2</ele>
        <time>2022-07-22T08:41:39Z</time>
      </trkpt>
      <trkpt lat="47.0067750" lon="6.5375340">
        <ele>948.8</ele>
        <time>2022-07-22T08:41:43Z</time>
      </trkpt>
      <trkpt lat="47.0067250" lon="6.5374960">
        <ele>949.4</ele>
        <time>2022-07-22T08:41:46Z</time>
      </trkpt>
      <trkpt lat="47.0066520" lon="6.5374270">
        <ele>949.6</ele>
        <time>2022-07-22T08:41:50Z</time>
      </trkpt>
      <trkpt lat="47.0065530" lon="6.5373030">
        <ele>950.2</ele>
        <time>2022-07-22T08:41:57Z</time>
      </trkpt>
      <trkpt lat="47.0065070" lon="6.5372480">
        <ele>950.4</ele>
        <time>2022-07-22T08:42:00Z</time>
      </trkpt>
      <trkpt lat="47.0064480" lon="6.5371760">
        <ele>950.6</ele>
        <time>2022-07-22T08:42:04Z</time>
      </trkpt>
      <trkpt lat="47.0063910" lon="6.5370840">
        <ele>950.8</ele>
        <time>2022-07-22T08:42:08Z</time>
      </trkpt>
      <trkpt lat="47.0063430" lon="6.5370120">
        <ele>951.2</ele>
        <time>2022-07-22T08:42:11Z</time>
      </trkpt>
      <trkpt lat="47.0063140" lon="6.5369710">
        <ele>951.4</ele>
        <time>2022-07-22T08:42:13Z</time>
      </trkpt>
      <trkpt lat="47.0062440" lon="6.5368790">
        <ele>951.6</ele>
        <time>2022-07-22T08:42:18Z</time>
      </trkpt>
      <trkpt lat="47.0061670" lon="6.5367740">
        <ele>952.4</ele>
        <time>2022-07-22T08:42:25Z</time>
      </trkpt>
      <trkpt lat="47.0061570" lon="6.5367520">
        <ele>952.4</ele>
        <time>2022-07-22T08:42:26Z</time>
      </trkpt>
      <trkpt lat="47.0060850" lon="6.5366130">
        <ele>953.4</ele>
        <time>2022-07-22T08:42:31Z</time>
      </trkpt>
      <trkpt lat="47.0060620" lon="6.5365650">
        <ele>953.8</ele>
        <time>2022-07-22T08:42:33Z</time>
      </trkpt>
      <trkpt lat="47.0059930" lon="6.5364350">
        <ele>954.4</ele>
        <time>2022-07-22T08:42:39Z</time>
      </trkpt>
      <trkpt lat="47.0059800" lon="6.5364130">
        <ele>954.4</ele>
        <time>2022-07-22T08:42:40Z</time>
      </trkpt>
      <trkpt lat="47.0058940" lon="6.5362540">
        <ele>955.0</ele>
        <time>2022-07-22T08:42:47Z</time>
      </trkpt>
      <trkpt lat="47.0058230" lon="6.5361250">
        <ele>955.4</ele>
        <time>2022-07-22T08:42:52Z</time>
      </trkpt>
      <trkpt lat="47.0057910" lon="6.5360680">
        <ele>955.4</ele>
        <time>2022-07-22T08:42:54Z</time>
      </trkpt>
      <trkpt lat="47.0057360" lon="6.5359450">
        <ele>955.6</ele>
        <time>2022-07-22T08:42:59Z</time>
      </trkpt>
      <trkpt lat="47.0057040" lon="6.5357960">
        <ele>956.2</ele>
        <time>2022-07-22T08:43:04Z</time>
      </trkpt>
      <trkpt lat="47.0056690" lon="6.5357100">
        <ele>956.4</ele>
        <time>2022-07-22T08:43:07Z</time>
      </trkpt>
      <trkpt lat="47.0056600" lon="6.5356570">
        <ele>956.4</ele>
        <time>2022-07-22T08:43:10Z</time>
      </trkpt>
      <trkpt lat="47.0056070" lon="6.5355050">
        <ele>957.2</ele>
        <time>2022-07-22T08:43:17Z</time>
      </trkpt>
      <trkpt lat="47.0055540" lon="6.5353690">
        <ele>958.0</ele>
        <time>2022-07-22T08:43:23Z</time>
      </trkpt>
      <trkpt lat="47.0055320" lon="6.5353030">
        <ele>958.4</ele>
        <time>2022-07-22T08:43:26Z</time>
      </trkpt>
      <trkpt lat="47.0054970" lon="6.5351950">
        <ele>959.0</ele>
        <time>2022-07-22T08:43:31Z</time>
      </trkpt>
      <trkpt lat="47.0054690" lon="6.5351210">
        <ele>959.6</ele>
        <time>2022-07-22T08:43:34Z</time>
      </trkpt>
      <trkpt lat="47.0054300" lon="6.5350000">
        <ele>960.0</ele>
        <time>2022-07-22T08:43:37Z</time>
      </trkpt>
      <trkpt lat="47.0053280" lon="6.5347010">
        <ele>960.6</ele>
        <time>2022-07-22T08:43:44Z</time>
      </trkpt>
      <trkpt lat="47.0053120" lon="6.5346580">
        <ele>960.8</ele>
        <time>2022-07-22T08:43:45Z</time>
      </trkpt>
      <trkpt lat="47.0052120" lon="6.5343770">
        <ele>961.0</ele>
        <time>2022-07-22T08:43:52Z</time>
      </trkpt>
      <trkpt lat="47.0051520" lon="6.5341830">
        <ele>961.2</ele>
        <time>2022-07-22T08:43:57Z</time>
      </trkpt>
      <trkpt lat="47.0050830" lon="6.5338840">
        <ele>961.4</ele>
        <time>2022-07-22T08:44:04Z</time>
      </trkpt>
      <trkpt lat="47.0050180" lon="6.5336230">
        <ele>961.4</ele>
        <time>2022-07-22T08:44:11Z</time>
      </trkpt>
      <trkpt lat="47.0049060" lon="6.5333250">
        <ele>961.4</ele>
        <time>2022-07-22T08:44:18Z</time>
      </trkpt>
      <trkpt lat="47.0048200" lon="6.5331060">
        <ele>961.2</ele>
        <time>2022-07-22T08:44:22Z</time>
      </trkpt>
      <trkpt lat="47.0047540" lon="6.5329240">
        <ele>960.8</ele>
        <time>2022-07-22T08:44:25Z</time>
      </trkpt>
      <trkpt lat="47.0046800" lon="6.5327520">
        <ele>960.2</ele>
        <time>2022-07-22T08:44:28Z</time>
      </trkpt>
      <trkpt lat="47.0046500" lon="6.5326970">
        <ele>960.2</ele>
        <time>2022-07-22T08:44:29Z</time>
      </trkpt>
      <trkpt lat="47.0045410" lon="6.5325290">
        <ele>959.4</ele>
        <time>2022-07-22T08:44:32Z</time>
      </trkpt>
      <trkpt lat="47.0044970" lon="6.5324740">
        <ele>959.0</ele>
        <time>2022-07-22T08:44:33Z</time>
      </trkpt>
      <trkpt lat="47.0044200" lon="6.5323900">
        <ele>958.2</ele>
        <time>2022-07-22T08:44:35Z</time>
      </trkpt>
      <trkpt lat="47.0042150" lon="6.5321720">
        <ele>957.6</ele>
        <time>2022-07-22T08:44:40Z</time>
      </trkpt>
      <trkpt lat="47.0039380" lon="6.5318970">
        <ele>958.0</ele>
        <time>2022-07-22T08:44:49Z</time>
      </trkpt>
      <trkpt lat="47.0037220" lon="6.5316650">
        <ele>959.0</ele>
        <time>2022-07-22T08:44:57Z</time>
      </trkpt>
      <trkpt lat="47.0036700" lon="6.5316080">
        <ele>959.2</ele>
        <time>2022-07-22T08:44:59Z</time>
      </trkpt>
      <trkpt lat="47.0034630" lon="6.5313530">
        <ele>959.2</ele>
        <time>2022-07-22T08:45:06Z</time>
      </trkpt>
      <trkpt lat="47.0033560" lon="6.5312120">
        <ele>959.0</ele>
        <time>2022-07-22T08:45:11Z</time>
      </trkpt>
      <trkpt lat="47.0033520" lon="6.5312050">
        <ele>958.8</ele>
        <time>2022-07-22T08:45:13Z</time>
      </trkpt>
      <trkpt lat="47.0033260" lon="6.5311540">
        <ele>958.4</ele>
        <time>2022-07-22T08:46:07Z</time>
      </trkpt>
      <trkpt lat="47.0033100" lon="6.5311350">
        <ele>958.4</ele>
        <time>2022-07-22T08:46:08Z</time>
      </trkpt>
      <trkpt lat="47.0031780" lon="6.5309620">
        <ele>958.4</ele>
        <time>2022-07-22T08:46:14Z</time>
      </trkpt>
      <trkpt lat="47.0029540" lon="6.5306620">
        <ele>958.6</ele>
        <time>2022-07-22T08:46:22Z</time>
      </trkpt>
      <trkpt lat="47.0027990" lon="6.5304180">
        <ele>958.6</ele>
        <time>2022-07-22T08:46:28Z</time>
      </trkpt>
      <trkpt lat="47.0026100" lon="6.5301210">
        <ele>958.8</ele>
        <time>2022-07-22T08:46:36Z</time>
      </trkpt>
      <trkpt lat="47.0024550" lon="6.5298720">
        <ele>959.0</ele>
        <time>2022-07-22T08:46:42Z</time>
      </trkpt>
      <trkpt lat="47.0023750" lon="6.5297460">
        <ele>959.0</ele>
        <time>2022-07-22T08:46:45Z</time>
      </trkpt>
      <trkpt lat="47.0021690" lon="6.5293940">
        <ele>958.8</ele>
        <time>2022-07-22T08:46:53Z</time>
      </trkpt>
      <trkpt lat="47.0019240" lon="6.5289530">
        <ele>958.8</ele>
        <time>2022-07-22T08:47:02Z</time>
      </trkpt>
      <trkpt lat="47.0018920" lon="6.5289080">
        <ele>958.6</ele>
        <time>2022-07-22T08:47:03Z</time>
      </trkpt>
      <trkpt lat="47.0018090" lon="6.5287560">
        <ele>958.4</ele>
        <time>2022-07-22T08:47:07Z</time>
      </trkpt>
      <trkpt lat="47.0016230" lon="6.5284740">
        <ele>957.8</ele>
        <time>2022-07-22T08:47:16Z</time>
      </trkpt>
      <trkpt lat="47.0014210" lon="6.5281310">
        <ele>957.8</ele>
        <time>2022-07-22T08:47:25Z</time>
      </trkpt>
      <trkpt lat="47.0013980" lon="6.5280540">
        <ele>957.8</ele>
        <time>2022-07-22T08:47:27Z</time>
      </trkpt>
      <trkpt lat="47.0014130" lon="6.5279740">
        <ele>957.8</ele>
        <time>2022-07-22T08:47:29Z</time>
      </trkpt>
      <trkpt lat="47.0015180" lon="6.5278410">
        <ele>957.8</ele>
        <time>2022-07-22T08:47:34Z</time>
      </trkpt>
      <trkpt lat="47.0016720" lon="6.5275970">
        <ele>958.2</ele>
        <time>2022-07-22T08:47:42Z</time>
      </trkpt>
      <trkpt lat="47.0017400" lon="6.5273510">
        <ele>958.4</ele>
        <time>2022-07-22T08:47:48Z</time>
      </trkpt>
      <trkpt lat="47.0018220" lon="6.5269970">
        <ele>958.4</ele>
        <time>2022-07-22T08:47:56Z</time>
      </trkpt>
      <trkpt lat="47.0018420" lon="6.5268210">
        <ele>958.4</ele>
        <time>2022-07-22T08:48:02Z</time>
      </trkpt>
      <trkpt lat="47.0018290" lon="6.5266830">
        <ele>959.0</ele>
        <time>2022-07-22T08:48:10Z</time>
      </trkpt>
      <trkpt lat="47.0018240" lon="6.5266510">
        <ele>959.4</ele>
        <time>2022-07-22T08:48:12Z</time>
      </trkpt>
      <trkpt lat="47.0018120" lon="6.5265910">
        <ele>959.8</ele>
        <time>2022-07-22T08:48:16Z</time>
      </trkpt>
      <trkpt lat="47.0018030" lon="6.5265460">
        <ele>960.6</ele>
        <time>2022-07-22T08:48:19Z</time>
      </trkpt>
      <trkpt lat="47.0017980" lon="6.5264920">
        <ele>961.4</ele>
        <time>2022-07-22T08:48:23Z</time>
      </trkpt>
      <trkpt lat="47.0017940" lon="6.5264850">
        <ele>961.6</ele>
        <time>2022-07-22T08:48:24Z</time>
      </trkpt>
      <trkpt lat="47.0017820" lon="6.5264240">
        <ele>962.6</ele>
        <time>2022-07-22T08:48:29Z</time>
      </trkpt>
      <trkpt lat="47.0017670" lon="6.5263830">
        <ele>963.0</ele>
        <time>2022-07-22T08:48:32Z</time>
      </trkpt>
      <trkpt lat="47.0017590" lon="6.5263190">
        <ele>963.6</ele>
        <time>2022-07-22T08:48:36Z</time>
      </trkpt>
      <trkpt lat="47.0017330" lon="6.5262200">
        <ele>964.6</ele>
        <time>2022-07-22T08:48:43Z</time>
      </trkpt>
      <trkpt lat="47.0017280" lon="6.5261940">
        <ele>964.8</ele>
        <time>2022-07-22T08:48:45Z</time>
      </trkpt>
      <trkpt lat="47.0016930" lon="6.5261380">
        <ele>965.6</ele>
        <time>2022-07-22T08:48:51Z</time>
      </trkpt>
      <trkpt lat="47.0016680" lon="6.5260640">
        <ele>966.0</ele>
        <time>2022-07-22T08:48:56Z</time>
      </trkpt>
      <trkpt lat="47.0016570" lon="6.5260220">
        <ele>966.4</ele>
        <time>2022-07-22T08:48:59Z</time>
      </trkpt>
      <trkpt lat="47.0016190" lon="6.5259250">
        <ele>967.6</ele>
        <time>2022-07-22T08:49:06Z</time>
      </trkpt>
      <trkpt lat="47.0016110" lon="6.5258890">
        <ele>968.0</ele>
        <time>2022-07-22T08:49:08Z</time>
      </trkpt>
      <trkpt lat="47.0015840" lon="6.5258160">
        <ele>968.6</ele>
        <time>2022-07-22T08:49:12Z</time>
      </trkpt>
      <trkpt lat="47.0015480" lon="6.5256880">
        <ele>969.2</ele>
        <time>2022-07-22T08:49:21Z</time>
      </trkpt>
      <trkpt lat="47.0015430" lon="6.5256710">
        <ele>969.4</ele>
        <time>2022-07-22T08:49:22Z</time>
      </trkpt>
      <trkpt lat="47.0014850" lon="6.5255320">
        <ele>970.4</ele>
        <time>2022-07-22T08:49:30Z</time>
      </trkpt>
      <trkpt lat="47.0014740" lon="6.5254690">
        <ele>971.2</ele>
        <time>2022-07-22T08:49:34Z</time>
      </trkpt>
      <trkpt lat="47.0014650" lon="6.5254400">
        <ele>971.4</ele>
        <time>2022-07-22T08:49:36Z</time>
      </trkpt>
      <trkpt lat="47.0014200" lon="6.5253210">
        <ele>972.4</ele>
        <time>2022-07-22T08:49:43Z</time>
      </trkpt>
      <trkpt lat="47.0013980" lon="6.5252820">
        <ele>973.0</ele>
        <time>2022-07-22T08:49:46Z</time>
      </trkpt>
      <trkpt lat="47.0013620" lon="6.5252200">
        <ele>973.6</ele>
        <time>2022-07-22T08:49:51Z</time>
      </trkpt>
      <trkpt lat="47.0013250" lon="6.5250910">
        <ele>974.6</ele>
        <time>2022-07-22T08:50:00Z</time>
      </trkpt>
      <trkpt lat="47.0013110" lon="6.5250130">
        <ele>975.6</ele>
        <time>2022-07-22T08:50:05Z</time>
      </trkpt>
      <trkpt lat="47.0012880" lon="6.5249170">
        <ele>976.4</ele>
        <time>2022-07-22T08:50:11Z</time>
      </trkpt>
      <trkpt lat="47.0012870" lon="6.5249030">
        <ele>976.8</ele>
        <time>2022-07-22T08:50:12Z</time>
      </trkpt>
      <trkpt lat="47.0012670" lon="6.5248180">
        <ele>977.6</ele>
        <time>2022-07-22T08:50:17Z</time>
      </trkpt>
      <trkpt lat="47.0012350" lon="6.5246770">
        <ele>978.8</ele>
        <time>2022-07-22T08:50:24Z</time>
      </trkpt>
      <trkpt lat="47.0012030" lon="6.5245530">
        <ele>980.0</ele>
        <time>2022-07-22T08:50:32Z</time>
      </trkpt>
      <trkpt lat="47.0012000" lon="6.5245160">
        <ele>980.0</ele>
        <time>2022-07-22T08:50:34Z</time>
      </trkpt>
      <trkpt lat="47.0011610" lon="6.5243560">
        <ele>981.0</ele>
        <time>2022-07-22T08:50:43Z</time>
      </trkpt>
      <trkpt lat="47.0011430" lon="6.5242640">
        <ele>981.2</ele>
        <time>2022-07-22T08:50:47Z</time>
      </trkpt>
      <trkpt lat="47.0011300" lon="6.5241400">
        <ele>981.8</ele>
        <time>2022-07-22T08:50:54Z</time>
      </trkpt>
      <trkpt lat="47.0011340" lon="6.5240720">
        <ele>982.6</ele>
        <time>2022-07-22T08:50:58Z</time>
      </trkpt>
      <trkpt lat="47.0011380" lon="6.5240380">
        <ele>983.0</ele>
        <time>2022-07-22T08:51:00Z</time>
      </trkpt>
      <trkpt lat="47.0011860" lon="6.5239410">
        <ele>984.0</ele>
        <time>2022-07-22T08:51:07Z</time>
      </trkpt>
      <trkpt lat="47.0012010" lon="6.5239150">
        <ele>984.2</ele>
        <time>2022-07-22T08:51:09Z</time>
      </trkpt>
      <trkpt lat="47.0012560" lon="6.5238630">
        <ele>985.2</ele>
        <time>2022-07-22T08:51:14Z</time>
      </trkpt>
      <trkpt lat="47.0012880" lon="6.5238140">
        <ele>985.8</ele>
        <time>2022-07-22T08:51:19Z</time>
      </trkpt>
      <trkpt lat="47.0012920" lon="6.5238080">
        <ele>986.2</ele>
        <time>2022-07-22T08:51:21Z</time>
      </trkpt>
      <trkpt lat="47.0013540" lon="6.5235600">
        <ele>986.8</ele>
        <time>2022-07-22T08:52:08Z</time>
      </trkpt>
      <trkpt lat="47.0013860" lon="6.5235210">
        <ele>986.8</ele>
        <time>2022-07-22T08:52:10Z</time>
      </trkpt>
      <trkpt lat="47.0014050" lon="6.5235030">
        <ele>986.6</ele>
        <time>2022-07-22T08:52:14Z</time>
      </trkpt>
      <trkpt lat="47.0014340" lon="6.5234480">
        <ele>986.0</ele>
        <time>2022-07-22T08:52:32Z</time>
      </trkpt>
      <trkpt lat="47.0014770" lon="6.5233910">
        <ele>986.0</ele>
        <time>2022-07-22T08:52:35Z</time>
      </trkpt>
      <trkpt lat="47.0016030" lon="6.5231880">
        <ele>986.0</ele>
        <time>2022-07-22T08:52:41Z</time>
      </trkpt>
      <trkpt lat="47.0018410" lon="6.5228680">
        <ele>985.6</ele>
        <time>2022-07-22T08:52:48Z</time>
      </trkpt>
      <trkpt lat="47.0019060" lon="6.5227600">
        <ele>985.4</ele>
        <time>2022-07-22T08:52:50Z</time>
      </trkpt>
      <trkpt lat="47.0019500" lon="6.5226600">
        <ele>985.0</ele>
        <time>2022-07-22T08:52:52Z</time>
      </trkpt>
      <trkpt lat="47.0019710" lon="6.5226160">
        <ele>984.2</ele>
        <time>2022-07-22T08:52:55Z</time>
      </trkpt>
      <trkpt lat="47.0019710" lon="6.5226160">
        <ele>983.8</ele>
        <time>2022-07-22T08:52:56Z</time>
      </trkpt>
      <trkpt lat="47.0020430" lon="6.5224100">
        <ele>980.8</ele>
        <time>2022-07-22T08:53:30Z</time>
      </trkpt>
      <trkpt lat="47.0020500" lon="6.5223500">
        <ele>980.8</ele>
        <time>2022-07-22T08:53:32Z</time>
      </trkpt>
      <trkpt lat="47.0020650" lon="6.5222370">
        <ele>980.8</ele>
        <time>2022-07-22T08:53:35Z</time>
      </trkpt>
      <trkpt lat="47.0020710" lon="6.5221390">
        <ele>980.6</ele>
        <time>2022-07-22T08:53:38Z</time>
      </trkpt>
      <trkpt lat="47.0020580" lon="6.5219360">
        <ele>979.6</ele>
        <time>2022-07-22T08:53:43Z</time>
      </trkpt>
      <trkpt lat="47.0021060" lon="6.5217370">
        <ele>978.8</ele>
        <time>2022-07-22T08:53:48Z</time>
      </trkpt>
      <trkpt lat="47.0021120" lon="6.5216970">
        <ele>978.8</ele>
        <time>2022-07-22T08:53:49Z</time>
      </trkpt>
      <trkpt lat="47.0021420" lon="6.5214870">
        <ele>977.6</ele>
        <time>2022-07-22T08:53:54Z</time>
      </trkpt>
      <trkpt lat="47.0021450" lon="6.5214500">
        <ele>977.0</ele>
        <time>2022-07-22T08:53:55Z</time>
      </trkpt>
      <trkpt lat="47.0021760" lon="6.5212660">
        <ele>976.0</ele>
        <time>2022-07-22T08:53:59Z</time>
      </trkpt>
      <trkpt lat="47.0021730" lon="6.5212240">
        <ele>975.6</ele>
        <time>2022-07-22T08:54:00Z</time>
      </trkpt>
      <trkpt lat="47.0021830" lon="6.5211410">
        <ele>975.0</ele>
        <time>2022-07-22T08:54:03Z</time>
      </trkpt>
      <trkpt lat="47.0021950" lon="6.5211210">
        <ele>974.8</ele>
        <time>2022-07-22T08:54:04Z</time>
      </trkpt>
      <trkpt lat="47.0022090" lon="6.5211060">
        <ele>974.6</ele>
        <time>2022-07-22T08:54:05Z</time>
      </trkpt>
      <trkpt lat="47.0022450" lon="6.5210250">
        <ele>973.8</ele>
        <time>2022-07-22T08:54:09Z</time>
      </trkpt>
      <trkpt lat="47.0022510" lon="6.5209900">
        <ele>973.8</ele>
        <time>2022-07-22T08:54:10Z</time>
      </trkpt>
      <trkpt lat="47.0022530" lon="6.5209230">
        <ele>973.6</ele>
        <time>2022-07-22T08:54:12Z</time>
      </trkpt>
      <trkpt lat="47.0022620" lon="6.5207780">
        <ele>973.6</ele>
        <time>2022-07-22T08:54:16Z</time>
      </trkpt>
      <trkpt lat="47.0022930" lon="6.5206000">
        <ele>973.2</ele>
        <time>2022-07-22T08:54:21Z</time>
      </trkpt>
      <trkpt lat="47.0023030" lon="6.5205620">
        <ele>973.2</ele>
        <time>2022-07-22T08:54:22Z</time>
      </trkpt>
      <trkpt lat="47.0023430" lon="6.5204470">
        <ele>972.8</ele>
        <time>2022-07-22T08:54:25Z</time>
      </trkpt>
      <trkpt lat="47.0023620" lon="6.5203900">
        <ele>972.4</ele>
        <time>2022-07-22T08:54:27Z</time>
      </trkpt>
      <trkpt lat="47.0024120" lon="6.5202390">
        <ele>971.4</ele>
        <time>2022-07-22T08:54:33Z</time>
      </trkpt>
      <trkpt lat="47.0024170" lon="6.5202050">
        <ele>971.2</ele>
        <time>2022-07-22T08:54:34Z</time>
      </trkpt>
      <trkpt lat="47.0024230" lon="6.5201450">
        <ele>970.8</ele>
        <time>2022-07-22T08:54:36Z</time>
      </trkpt>
      <trkpt lat="47.0024350" lon="6.5200390">
        <ele>970.6</ele>
        <time>2022-07-22T08:54:39Z</time>
      </trkpt>
      <trkpt lat="47.0024490" lon="6.5198490">
        <ele>970.4</ele>
        <time>2022-07-22T08:54:43Z</time>
      </trkpt>
      <trkpt lat="47.0024540" lon="6.5197610">
        <ele>970.2</ele>
        <time>2022-07-22T08:54:45Z</time>
      </trkpt>
      <trkpt lat="47.0024950" lon="6.5195620">
        <ele>969.4</ele>
        <time>2022-07-22T08:54:51Z</time>
      </trkpt>
      <trkpt lat="47.0025000" lon="6.5195320">
        <ele>969.2</ele>
        <time>2022-07-22T08:54:52Z</time>
      </trkpt>
      <trkpt lat="47.0025460" lon="6.5193950">
        <ele>967.8</ele>
        <time>2022-07-22T08:54:56Z</time>
      </trkpt>
      <trkpt lat="47.0025700" lon="6.5193070">
        <ele>967.4</ele>
        <time>2022-07-22T08:54:58Z</time>
      </trkpt>
      <trkpt lat="47.0025750" lon="6.5192690">
        <ele>967.2</ele>
        <time>2022-07-22T08:54:59Z</time>
      </trkpt>
      <trkpt lat="47.0025830" lon="6.5191140">
        <ele>966.8</ele>
        <time>2022-07-22T08:55:03Z</time>
      </trkpt>
      <trkpt lat="47.0025820" lon="6.5190780">
        <ele>966.4</ele>
        <time>2022-07-22T08:55:04Z</time>
      </trkpt>
      <trkpt lat="47.0025800" lon="6.5189550">
        <ele>965.6</ele>
        <time>2022-07-22T08:55:07Z</time>
      </trkpt>
      <trkpt lat="47.0026000" lon="6.5188380">
        <ele>965.0</ele>
        <time>2022-07-22T08:55:10Z</time>
      </trkpt>
      <trkpt lat="47.0026100" lon="6.5187480">
        <ele>964.4</ele>
        <time>2022-07-22T08:55:12Z</time>
      </trkpt>
      <trkpt lat="47.0026270" lon="6.5186430">
        <ele>963.8</ele>
        <time>2022-07-22T08:55:15Z</time>
      </trkpt>
      <trkpt lat="47.0026480" lon="6.5185910">
        <ele>963.2</ele>
        <time>2022-07-22T08:55:17Z</time>
      </trkpt>
      <trkpt lat="47.0026930" lon="6.5185110">
        <ele>962.2</ele>
        <time>2022-07-22T08:55:20Z</time>
      </trkpt>
      <trkpt lat="47.0027130" lon="6.5184640">
        <ele>961.6</ele>
        <time>2022-07-22T08:55:21Z</time>
      </trkpt>
      <trkpt lat="47.0027280" lon="6.5184040">
        <ele>960.8</ele>
        <time>2022-07-22T08:55:22Z</time>
      </trkpt>
      <trkpt lat="47.0027450" lon="6.5181130">
        <ele>959.8</ele>
        <time>2022-07-22T08:55:25Z</time>
      </trkpt>
      <trkpt lat="47.0027560" lon="6.5179920">
        <ele>959.6</ele>
        <time>2022-07-22T08:55:26Z</time>
      </trkpt>
      <trkpt lat="47.0028240" lon="6.5176940">
        <ele>958.6</ele>
        <time>2022-07-22T08:55:29Z</time>
      </trkpt>
      <trkpt lat="47.0028530" lon="6.5176340">
        <ele>958.4</ele>
        <time>2022-07-22T08:55:30Z</time>
      </trkpt>
      <trkpt lat="47.0029110" lon="6.5175510">
        <ele>957.4</ele>
        <time>2022-07-22T08:55:32Z</time>
      </trkpt>
      <trkpt lat="47.0029280" lon="6.5175220">
        <ele>956.6</ele>
        <time>2022-07-22T08:55:34Z</time>
      </trkpt>
      <trkpt lat="47.0029320" lon="6.5175170">
        <ele>956.0</ele>
        <time>2022-07-22T08:55:35Z</time>
      </trkpt>
      <trkpt lat="47.0029160" lon="6.5173070">
        <ele>954.6</ele>
        <time>2022-07-22T08:55:55Z</time>
      </trkpt>
      <trkpt lat="47.0029140" lon="6.5172510">
        <ele>954.6</ele>
        <time>2022-07-22T08:55:57Z</time>
      </trkpt>
      <trkpt lat="47.0028770" lon="6.5169680">
        <ele>954.8</ele>
        <time>2022-07-22T08:56:06Z</time>
      </trkpt>
      <trkpt lat="47.0028530" lon="6.5167830">
        <ele>955.4</ele>
        <time>2022-07-22T08:56:13Z</time>
      </trkpt>
      <trkpt lat="47.0028390" lon="6.5166500">
        <ele>955.8</ele>
        <time>2022-07-22T08:56:19Z</time>
      </trkpt>
      <trkpt lat="47.0028420" lon="6.5165970">
        <ele>956.2</ele>
        <time>2022-07-22T08:56:21Z</time>
      </trkpt>
      <trkpt lat="47.0028550" lon="6.5164510">
        <ele>956.8</ele>
        <time>2022-07-22T08:56:27Z</time>
      </trkpt>
      <trkpt lat="47.0028600" lon="6.5164080">
        <ele>956.8</ele>
        <time>2022-07-22T08:56:30Z</time>
      </trkpt>
      <trkpt lat="47.0028600" lon="6.5164050">
        <ele>957.0</ele>
        <time>2022-07-22T08:56:31Z</time>
      </trkpt>
      <trkpt lat="47.0028700" lon="6.5160340">
        <ele>959.2</ele>
        <time>2022-07-22T08:57:38Z</time>
      </trkpt>
      <trkpt lat="47.0028620" lon="6.5159690">
        <ele>959.2</ele>
        <time>2022-07-22T08:57:41Z</time>
      </trkpt>
      <trkpt lat="47.0028280" lon="6.5158140">
        <ele>959.4</ele>
        <time>2022-07-22T08:57:47Z</time>
      </trkpt>
      <trkpt lat="47.0027470" lon="6.5155570">
        <ele>959.6</ele>
        <time>2022-07-22T08:57:55Z</time>
      </trkpt>
      <trkpt lat="47.0026840" lon="6.5152360">
        <ele>959.6</ele>
        <time>2022-07-22T08:58:02Z</time>
      </trkpt>
      <trkpt lat="47.0026420" lon="6.5149140">
        <ele>959.2</ele>
        <time>2022-07-22T08:58:08Z</time>
      </trkpt>
      <trkpt lat="47.0026240" lon="6.5146450">
        <ele>958.6</ele>
        <time>2022-07-22T08:58:14Z</time>
      </trkpt>
      <trkpt lat="47.0026210" lon="6.5145940">
        <ele>958.0</ele>
        <time>2022-07-22T08:58:15Z</time>
      </trkpt>
      <trkpt lat="47.0026210" lon="6.5145360">
        <ele>957.8</ele>
        <time>2022-07-22T08:58:16Z</time>
      </trkpt>
      <trkpt lat="47.0026440" lon="6.5143800">
        <ele>957.2</ele>
        <time>2022-07-22T08:58:19Z</time>
      </trkpt>
      <trkpt lat="47.0026570" lon="6.5143290">
        <ele>956.8</ele>
        <time>2022-07-22T08:58:20Z</time>
      </trkpt>
      <trkpt lat="47.0027140" lon="6.5141570">
        <ele>956.0</ele>
        <time>2022-07-22T08:58:23Z</time>
      </trkpt>
      <trkpt lat="47.0027620" lon="6.5140160">
        <ele>955.2</ele>
        <time>2022-07-22T08:58:25Z</time>
      </trkpt>
      <trkpt lat="47.0027840" lon="6.5139470">
        <ele>954.8</ele>
        <time>2022-07-22T08:58:26Z</time>
      </trkpt>
      <trkpt lat="47.0028270" lon="6.5138140">
        <ele>954.0</ele>
        <time>2022-07-22T08:58:28Z</time>
      </trkpt>
      <trkpt lat="47.0028500" lon="6.5137540">
        <ele>953.6</ele>
        <time>2022-07-22T08:58:29Z</time>
      </trkpt>
      <trkpt lat="47.0028770" lon="6.5136960">
        <ele>953.0</ele>
        <time>2022-07-22T08:58:30Z</time>
      </trkpt>
      <trkpt lat="47.0029080" lon="6.5136410">
        <ele>952.4</ele>
        <time>2022-07-22T08:58:31Z</time>
      </trkpt>
      <trkpt lat="47.0029910" lon="6.5135390">
        <ele>951.2</ele>
        <time>2022-07-22T08:58:33Z</time>
      </trkpt>
      <trkpt lat="47.0030340" lon="6.5134930">
        <ele>950.8</ele>
        <time>2022-07-22T08:58:34Z</time>
      </trkpt>
      <trkpt lat="47.0030780" lon="6.5134500">
        <ele>950.2</ele>
        <time>2022-07-22T08:58:35Z</time>
      </trkpt>
      <trkpt lat="47.0031260" lon="6.5134070">
        <ele>949.6</ele>
        <time>2022-07-22T08:58:36Z</time>
      </trkpt>
      <trkpt lat="47.0031700" lon="6.5133620">
        <ele>949.0</ele>
        <time>2022-07-22T08:58:37Z</time>
      </trkpt>
      <trkpt lat="47.0032100" lon="6.5133120">
        <ele>948.6</ele>
        <time>2022-07-22T08:58:38Z</time>
      </trkpt>
      <trkpt lat="47.0032830" lon="6.5131960">
        <ele>947.6</ele>
        <time>2022-07-22T08:58:40Z</time>
      </trkpt>
      <trkpt lat="47.0033200" lon="6.5131370">
        <ele>947.2</ele>
        <time>2022-07-22T08:58:41Z</time>
      </trkpt>
      <trkpt lat="47.0033620" lon="6.5130800">
        <ele>946.6</ele>
        <time>2022-07-22T08:58:42Z</time>
      </trkpt>
      <trkpt lat="47.0034490" lon="6.5129790">
        <ele>944.6</ele>
        <time>2022-07-22T08:58:44Z</time>
      </trkpt>
      <trkpt lat="47.0035400" lon="6.5128960">
        <ele>943.4</ele>
        <time>2022-07-22T08:58:46Z</time>
      </trkpt>
      <trkpt lat="47.0036250" lon="6.5128000">
        <ele>942.4</ele>
        <time>2022-07-22T08:58:48Z</time>
      </trkpt>
      <trkpt lat="47.0036550" lon="6.5127430">
        <ele>941.8</ele>
        <time>2022-07-22T08:58:49Z</time>
      </trkpt>
      <trkpt lat="47.0036750" lon="6.5126760">
        <ele>941.2</ele>
        <time>2022-07-22T08:58:50Z</time>
      </trkpt>
      <trkpt lat="47.0036910" lon="6.5126060">
        <ele>940.6</ele>
        <time>2022-07-22T08:58:51Z</time>
      </trkpt>
      <trkpt lat="47.0037070" lon="6.5124670">
        <ele>939.4</ele>
        <time>2022-07-22T08:58:53Z</time>
      </trkpt>
      <trkpt lat="47.0037060" lon="6.5124060">
        <ele>938.8</ele>
        <time>2022-07-22T08:58:54Z</time>
      </trkpt>
      <trkpt lat="47.0037030" lon="6.5123480">
        <ele>938.2</ele>
        <time>2022-07-22T08:58:55Z</time>
      </trkpt>
      <trkpt lat="47.0036970" lon="6.5122520">
        <ele>937.0</ele>
        <time>2022-07-22T08:58:57Z</time>
      </trkpt>
      <trkpt lat="47.0036800" lon="6.5121820">
        <ele>936.0</ele>
        <time>2022-07-22T08:58:59Z</time>
      </trkpt>
      <trkpt lat="47.0036390" lon="6.5121350">
        <ele>934.6</ele>
        <time>2022-07-22T08:59:01Z</time>
      </trkpt>
      <trkpt lat="47.0035930" lon="6.5121140">
        <ele>933.6</ele>
        <time>2022-07-22T08:59:03Z</time>
      </trkpt>
      <trkpt lat="47.0035730" lon="6.5121110">
        <ele>933.2</ele>
        <time>2022-07-22T08:59:04Z</time>
      </trkpt>
      <trkpt lat="47.0035330" lon="6.5121110">
        <ele>932.4</ele>
        <time>2022-07-22T08:59:06Z</time>
      </trkpt>
      <trkpt lat="47.0034900" lon="6.5121130">
        <ele>932.2</ele>
        <time>2022-07-22T08:59:08Z</time>
      </trkpt>
      <trkpt lat="47.0034460" lon="6.5121150">
        <ele>932.0</ele>
        <time>2022-07-22T08:59:10Z</time>
      </trkpt>
      <trkpt lat="47.0032800" lon="6.5121120">
        <ele>932.4</ele>
        <time>2022-07-22T08:59:18Z</time>
      </trkpt>
      <trkpt lat="47.0031590" lon="6.5120950">
        <ele>933.2</ele>
        <time>2022-07-22T08:59:23Z</time>
      </trkpt>
      <trkpt lat="47.0031040" lon="6.5120750">
        <ele>933.4</ele>
        <time>2022-07-22T08:59:25Z</time>
      </trkpt>
      <trkpt lat="47.0029200" lon="6.5120230">
        <ele>933.8</ele>
        <time>2022-07-22T08:59:32Z</time>
      </trkpt>
      <trkpt lat="47.0027110" lon="6.5119840">
        <ele>934.0</ele>
        <time>2022-07-22T08:59:39Z</time>
      </trkpt>
      <trkpt lat="47.0025140" lon="6.5119660">
        <ele>933.8</ele>
        <time>2022-07-22T08:59:46Z</time>
      </trkpt>
      <trkpt lat="47.0024690" lon="6.5119620">
        <ele>934.0</ele>
        <time>2022-07-22T08:59:48Z</time>
      </trkpt>
      <trkpt lat="47.0023490" lon="6.5119440">
        <ele>934.6</ele>
        <time>2022-07-22T08:59:53Z</time>
      </trkpt>
      <trkpt lat="47.0022590" lon="6.5119310">
        <ele>935.0</ele>
        <time>2022-07-22T08:59:56Z</time>
      </trkpt>
      <trkpt lat="47.0021070" lon="6.5118850">
        <ele>935.4</ele>
        <time>2022-07-22T09:00:01Z</time>
      </trkpt>
      <trkpt lat="47.0018740" lon="6.5118670">
        <ele>935.6</ele>
        <time>2022-07-22T09:00:07Z</time>
      </trkpt>
      <trkpt lat="47.0017340" lon="6.5119070">
        <ele>935.6</ele>
        <time>2022-07-22T09:00:10Z</time>
      </trkpt>
      <trkpt lat="47.0016140" lon="6.5119540">
        <ele>935.4</ele>
        <time>2022-07-22T09:00:13Z</time>
      </trkpt>
      <trkpt lat="47.0014160" lon="6.5120560">
        <ele>934.6</ele>
        <time>2022-07-22T09:00:18Z</time>
      </trkpt>
      <trkpt lat="47.0012150" lon="6.5121320">
        <ele>934.4</ele>
        <time>2022-07-22T09:00:23Z</time>
      </trkpt>
      <trkpt lat="47.0010120" lon="6.5121030">
        <ele>934.2</ele>
        <time>2022-07-22T09:00:29Z</time>
      </trkpt>
      <trkpt lat="47.0007630" lon="6.5120200">
        <ele>935.0</ele>
        <time>2022-07-22T09:00:37Z</time>
      </trkpt>
      <trkpt lat="47.0005270" lon="6.5119780">
        <ele>935.8</ele>
        <time>2022-07-22T09:00:44Z</time>
      </trkpt>
      <trkpt lat="47.0004950" lon="6.5119770">
        <ele>935.8</ele>
        <time>2022-07-22T09:00:45Z</time>
      </trkpt>
      <trkpt lat="47.0003020" lon="6.5119980">
        <ele>936.4</ele>
        <time>2022-07-22T09:00:51Z</time>
      </trkpt>
      <trkpt lat="47.0001760" lon="6.5120520">
        <ele>936.6</ele>
        <time>2022-07-22T09:00:55Z</time>
      </trkpt>
      <trkpt lat="47.0000910" lon="6.5120920">
        <ele>936.8</ele>
        <time>2022-07-22T09:00:58Z</time>
      </trkpt>
      <trkpt lat="46.9998460" lon="6.5122440">
        <ele>937.0</ele>
        <time>2022-07-22T09:01:06Z</time>
      </trkpt>
      <trkpt lat="46.9997380" lon="6.5123030">
        <ele>937.6</ele>
        <time>2022-07-22T09:01:10Z</time>
      </trkpt>
      <trkpt lat="46.9996680" lon="6.5123470">
        <ele>937.8</ele>
        <time>2022-07-22T09:01:13Z</time>
      </trkpt>
      <trkpt lat="46.9995030" lon="6.5124560">
        <ele>938.6</ele>
        <time>2022-07-22T09:01:19Z</time>
      </trkpt>
      <trkpt lat="46.9993550" lon="6.5125260">
        <ele>939.4</ele>
        <time>2022-07-22T09:01:25Z</time>
      </trkpt>
      <trkpt lat="46.9992750" lon="6.5125380">
        <ele>939.8</ele>
        <time>2022-07-22T09:01:29Z</time>
      </trkpt>
      <trkpt lat="46.9991990" lon="6.5125600">
        <ele>940.0</ele>
        <time>2022-07-22T09:01:32Z</time>
      </trkpt>
      <trkpt lat="46.9990600" lon="6.5125440">
        <ele>940.6</ele>
        <time>2022-07-22T09:01:37Z</time>
      </trkpt>
      <trkpt lat="46.9989900" lon="6.5125290">
        <ele>940.8</ele>
        <time>2022-07-22T09:01:39Z</time>
      </trkpt>
      <trkpt lat="46.9987210" lon="6.5125700">
        <ele>941.2</ele>
        <time>2022-07-22T09:01:46Z</time>
      </trkpt>
      <trkpt lat="46.9984690" lon="6.5125030">
        <ele>941.2</ele>
        <time>2022-07-22T09:01:53Z</time>
      </trkpt>
      <trkpt lat="46.9982910" lon="6.5124630">
        <ele>941.6</ele>
        <time>2022-07-22T09:01:59Z</time>
      </trkpt>
      <trkpt lat="46.9982690" lon="6.5124560">
        <ele>941.4</ele>
        <time>2022-07-22T09:02:00Z</time>
      </trkpt>
      <trkpt lat="46.9981480" lon="6.5123860">
        <ele>942.2</ele>
        <time>2022-07-22T09:02:06Z</time>
      </trkpt>
      <trkpt lat="46.9981320" lon="6.5123770">
        <ele>942.4</ele>
        <time>2022-07-22T09:02:07Z</time>
      </trkpt>
      <trkpt lat="46.9979920" lon="6.5123420">
        <ele>943.4</ele>
        <time>2022-07-22T09:02:13Z</time>
      </trkpt>
      <trkpt lat="46.9978120" lon="6.5122650">
        <ele>944.4</ele>
        <time>2022-07-22T09:02:20Z</time>
      </trkpt>
      <trkpt lat="46.9977640" lon="6.5122360">
        <ele>944.6</ele>
        <time>2022-07-22T09:02:22Z</time>
      </trkpt>
      <trkpt lat="46.9976370" lon="6.5121510">
        <ele>944.6</ele>
        <time>2022-07-22T09:02:27Z</time>
      </trkpt>
      <trkpt lat="46.9974770" lon="6.5120630">
        <ele>945.0</ele>
        <time>2022-07-22T09:02:33Z</time>
      </trkpt>
      <trkpt lat="46.9973790" lon="6.5120230">
        <ele>945.4</ele>
        <time>2022-07-22T09:02:37Z</time>
      </trkpt>
      <trkpt lat="46.9973160" lon="6.5119740">
        <ele>945.8</ele>
        <time>2022-07-22T09:02:40Z</time>
      </trkpt>
      <trkpt lat="46.9971730" lon="6.5118950">
        <ele>946.2</ele>
        <time>2022-07-22T09:02:46Z</time>
      </trkpt>
      <trkpt lat="46.9971500" lon="6.5118880">
        <ele>946.4</ele>
        <time>2022-07-22T09:02:47Z</time>
      </trkpt>
      <trkpt lat="46.9969750" lon="6.5118680">
        <ele>947.4</ele>
        <time>2022-07-22T09:02:54Z</time>
      </trkpt>
      <trkpt lat="46.9967980" lon="6.5118350">
        <ele>948.2</ele>
        <time>2022-07-22T09:03:00Z</time>
      </trkpt>
      <trkpt lat="46.9967260" lon="6.5118160">
        <ele>948.4</ele>
        <time>2022-07-22T09:03:02Z</time>
      </trkpt>
      <trkpt lat="46.9965560" lon="6.5117300">
        <ele>948.4</ele>
        <time>2022-07-22T09:03:07Z</time>
      </trkpt>
      <trkpt lat="46.9963710" lon="6.5116260">
        <ele>948.8</ele>
        <time>2022-07-22T09:03:14Z</time>
      </trkpt>
      <trkpt lat="46.9962690" lon="6.5115740">
        <ele>949.4</ele>
        <time>2022-07-22T09:03:18Z</time>
      </trkpt>
      <trkpt lat="46.9961860" lon="6.5115100">
        <ele>950.2</ele>
        <time>2022-07-22T09:03:22Z</time>
      </trkpt>
      <trkpt lat="46.9961450" lon="6.5114810">
        <ele>950.4</ele>
        <time>2022-07-22T09:03:24Z</time>
      </trkpt>
      <trkpt lat="46.9960410" lon="6.5114260">
        <ele>950.8</ele>
        <time>2022-07-22T09:03:28Z</time>
      </trkpt>
      <trkpt lat="46.9958600" lon="6.5113080">
        <ele>951.0</ele>
        <time>2022-07-22T09:03:35Z</time>
      </trkpt>
      <trkpt lat="46.9957380" lon="6.5112090">
        <ele>951.4</ele>
        <time>2022-07-22T09:03:40Z</time>
      </trkpt>
      <trkpt lat="46.9956900" lon="6.5111730">
        <ele>951.8</ele>
        <time>2022-07-22T09:03:42Z</time>
      </trkpt>
      <trkpt lat="46.9954780" lon="6.5110610">
        <ele>952.6</ele>
        <time>2022-07-22T09:03:49Z</time>
      </trkpt>
      <trkpt lat="46.9954470" lon="6.5110470">
        <ele>952.4</ele>
        <time>2022-07-22T09:03:50Z</time>
      </trkpt>
      <trkpt lat="46.9952210" lon="6.5109040">
        <ele>953.2</ele>
        <time>2022-07-22T09:03:58Z</time>
      </trkpt>
      <trkpt lat="46.9951710" lon="6.5108670">
        <ele>953.4</ele>
        <time>2022-07-22T09:04:00Z</time>
      </trkpt>
      <trkpt lat="46.9950320" lon="6.5107790">
        <ele>954.0</ele>
        <time>2022-07-22T09:04:05Z</time>
      </trkpt>
      <trkpt lat="46.9949440" lon="6.5107250">
        <ele>954.4</ele>
        <time>2022-07-22T09:04:08Z</time>
      </trkpt>
      <trkpt lat="46.9948030" lon="6.5106320">
        <ele>954.8</ele>
        <time>2022-07-22T09:04:13Z</time>
      </trkpt>
      <trkpt lat="46.9946280" lon="6.5104750">
        <ele>955.2</ele>
        <time>2022-07-22T09:04:20Z</time>
      </trkpt>
      <trkpt lat="46.9945070" lon="6.5103830">
        <ele>955.4</ele>
        <time>2022-07-22T09:04:25Z</time>
      </trkpt>
      <trkpt lat="46.9944870" lon="6.5103660">
        <ele>955.6</ele>
        <time>2022-07-22T09:04:26Z</time>
      </trkpt>
      <trkpt lat="46.9943420" lon="6.5102400">
        <ele>956.4</ele>
        <time>2022-07-22T09:04:33Z</time>
      </trkpt>
      <trkpt lat="46.9943210" lon="6.5102290">
        <ele>956.6</ele>
        <time>2022-07-22T09:04:34Z</time>
      </trkpt>
      <trkpt lat="46.9942230" lon="6.5100960">
        <ele>957.4</ele>
        <time>2022-07-22T09:04:40Z</time>
      </trkpt>
      <trkpt lat="46.9941780" lon="6.5100360">
        <ele>957.6</ele>
        <time>2022-07-22T09:04:42Z</time>
      </trkpt>
      <trkpt lat="46.9940860" lon="6.5099160">
        <ele>958.2</ele>
        <time>2022-07-22T09:04:47Z</time>
      </trkpt>
      <trkpt lat="46.9940310" lon="6.5098480">
        <ele>958.6</ele>
        <time>2022-07-22T09:04:51Z</time>
      </trkpt>
      <trkpt lat="46.9939970" lon="6.5097870">
        <ele>958.8</ele>
        <time>2022-07-22T09:04:53Z</time>
      </trkpt>
      <trkpt lat="46.9939830" lon="6.5097640">
        <ele>958.8</ele>
        <time>2022-07-22T09:04:54Z</time>
      </trkpt>
      <trkpt lat="46.9939340" lon="6.5097310">
        <ele>959.6</ele>
        <time>2022-07-22T09:04:59Z</time>
      </trkpt>
      <trkpt lat="46.9939260" lon="6.5097160">
        <ele>959.8</ele>
        <time>2022-07-22T09:05:00Z</time>
      </trkpt>
      <trkpt lat="46.9938530" lon="6.5096150">
        <ele>960.4</ele>
        <time>2022-07-22T09:05:06Z</time>
      </trkpt>
      <trkpt lat="46.9938350" lon="6.5096100">
        <ele>960.4</ele>
        <time>2022-07-22T09:05:07Z</time>
      </trkpt>
      <trkpt lat="46.9937930" lon="6.5095800">
        <ele>960.4</ele>
        <time>2022-07-22T09:05:11Z</time>
      </trkpt>
      <trkpt lat="46.9937900" lon="6.5095770">
        <ele>960.4</ele>
        <time>2022-07-22T09:05:12Z</time>
      </trkpt>
      <trkpt lat="46.9936920" lon="6.5094470">
        <ele>960.2</ele>
        <time>2022-07-22T09:13:05Z</time>
      </trkpt>
      <trkpt lat="46.9936580" lon="6.5093860">
        <ele>960.2</ele>
        <time>2022-07-22T09:13:08Z</time>
      </trkpt>
      <trkpt lat="46.9935670" lon="6.5092400">
        <ele>960.2</ele>
        <time>2022-07-22T09:13:15Z</time>
      </trkpt>
      <trkpt lat="46.9935420" lon="6.5091940">
        <ele>960.2</ele>
        <time>2022-07-22T09:13:17Z</time>
      </trkpt>
      <trkpt lat="46.9934780" lon="6.5090890">
        <ele>960.6</ele>
        <time>2022-07-22T09:13:22Z</time>
      </trkpt>
      <trkpt lat="46.9933670" lon="6.5089070">
        <ele>961.2</ele>
        <time>2022-07-22T09:13:30Z</time>
      </trkpt>
      <trkpt lat="46.9933530" lon="6.5088830">
        <ele>961.4</ele>
        <time>2022-07-22T09:13:31Z</time>
      </trkpt>
      <trkpt lat="46.9932310" lon="6.5086830">
        <ele>962.0</ele>
        <time>2022-07-22T09:13:40Z</time>
      </trkpt>
      <trkpt lat="46.9931820" lon="6.5085820">
        <ele>962.4</ele>
        <time>2022-07-22T09:13:44Z</time>
      </trkpt>
      <trkpt lat="46.9931290" lon="6.5084620">
        <ele>962.8</ele>
        <time>2022-07-22T09:13:49Z</time>
      </trkpt>
      <trkpt lat="46.9930990" lon="6.5083590">
        <ele>963.4</ele>
        <time>2022-07-22T09:13:53Z</time>
      </trkpt>
      <trkpt lat="46.9930670" lon="6.5082620">
        <ele>964.0</ele>
        <time>2022-07-22T09:13:57Z</time>
      </trkpt>
      <trkpt lat="46.9930400" lon="6.5081620">
        <ele>964.4</ele>
        <time>2022-07-22T09:14:01Z</time>
      </trkpt>
      <trkpt lat="46.9930170" lon="6.5080660">
        <ele>964.8</ele>
        <time>2022-07-22T09:14:05Z</time>
      </trkpt>
      <trkpt lat="46.9929680" lon="6.5078960">
        <ele>965.6</ele>
        <time>2022-07-22T09:14:12Z</time>
      </trkpt>
      <trkpt lat="46.9929600" lon="6.5078730">
        <ele>965.6</ele>
        <time>2022-07-22T09:14:13Z</time>
      </trkpt>
      <trkpt lat="46.9929530" lon="6.5078480">
        <ele>966.0</ele>
        <time>2022-07-22T09:14:14Z</time>
      </trkpt>
      <trkpt lat="46.9929150" lon="6.5076820">
        <ele>966.6</ele>
        <time>2022-07-22T09:14:21Z</time>
      </trkpt>
      <trkpt lat="46.9929070" lon="6.5076290">
        <ele>966.8</ele>
        <time>2022-07-22T09:14:23Z</time>
      </trkpt>
      <trkpt lat="46.9928770" lon="6.5075100">
        <ele>967.6</ele>
        <time>2022-07-22T09:14:28Z</time>
      </trkpt>
      <trkpt lat="46.9928450" lon="6.5073630">
        <ele>967.8</ele>
        <time>2022-07-22T09:14:34Z</time>
      </trkpt>
      <trkpt lat="46.9928390" lon="6.5073350">
        <ele>968.0</ele>
        <time>2022-07-22T09:14:35Z</time>
      </trkpt>
      <trkpt lat="46.9928040" lon="6.5071710">
        <ele>969.0</ele>
        <time>2022-07-22T09:14:41Z</time>
      </trkpt>
      <trkpt lat="46.9927810" lon="6.5070950">
        <ele>969.2</ele>
        <time>2022-07-22T09:14:44Z</time>
      </trkpt>
      <trkpt lat="46.9927410" lon="6.5068860">
        <ele>970.0</ele>
        <time>2022-07-22T09:14:52Z</time>
      </trkpt>
      <trkpt lat="46.9927210" lon="6.5068020">
        <ele>970.2</ele>
        <time>2022-07-22T09:14:55Z</time>
      </trkpt>
      <trkpt lat="46.9927000" lon="6.5067170">
        <ele>970.4</ele>
        <time>2022-07-22T09:14:58Z</time>
      </trkpt>
      <trkpt lat="46.9926490" lon="6.5065080">
        <ele>970.6</ele>
        <time>2022-07-22T09:15:05Z</time>
      </trkpt>
      <trkpt lat="46.9925620" lon="6.5062450">
        <ele>971.0</ele>
        <time>2022-07-22T09:15:14Z</time>
      </trkpt>
      <trkpt lat="46.9925370" lon="6.5061920">
        <ele>971.2</ele>
        <time>2022-07-22T09:15:16Z</time>
      </trkpt>
      <trkpt lat="46.9924180" lon="6.5059760">
        <ele>972.0</ele>
        <time>2022-07-22T09:15:25Z</time>
      </trkpt>
      <trkpt lat="46.9924040" lon="6.5059560">
        <ele>972.2</ele>
        <time>2022-07-22T09:15:26Z</time>
      </trkpt>
      <trkpt lat="46.9922990" lon="6.5058040">
        <ele>973.0</ele>
        <time>2022-07-22T09:15:34Z</time>
      </trkpt>
      <trkpt lat="46.9922420" lon="6.5057240">
        <ele>973.4</ele>
        <time>2022-07-22T09:15:38Z</time>
      </trkpt>
      <trkpt lat="46.9921450" lon="6.5055870">
        <ele>974.4</ele>
        <time>2022-07-22T09:15:45Z</time>
      </trkpt>
      <trkpt lat="46.9920290" lon="6.5053940">
        <ele>975.4</ele>
        <time>2022-07-22T09:15:54Z</time>
      </trkpt>
      <trkpt lat="46.9918960" lon="6.5051540">
        <ele>976.4</ele>
        <time>2022-07-22T09:16:05Z</time>
      </trkpt>
      <trkpt lat="46.9918860" lon="6.5051310">
        <ele>976.6</ele>
        <time>2022-07-22T09:16:06Z</time>
      </trkpt>
      <trkpt lat="46.9918280" lon="6.5050120">
        <ele>977.6</ele>
        <time>2022-07-22T09:16:11Z</time>
      </trkpt>
      <trkpt lat="46.9917720" lon="6.5048940">
        <ele>978.0</ele>
        <time>2022-07-22T09:16:16Z</time>
      </trkpt>
      <trkpt lat="46.9916980" lon="6.5047340">
        <ele>978.8</ele>
        <time>2022-07-22T09:16:23Z</time>
      </trkpt>
      <trkpt lat="46.9916780" lon="6.5046850">
        <ele>979.0</ele>
        <time>2022-07-22T09:16:25Z</time>
      </trkpt>
      <trkpt lat="46.9916240" lon="6.5045810">
        <ele>979.8</ele>
        <time>2022-07-22T09:16:30Z</time>
      </trkpt>
      <trkpt lat="46.9915960" lon="6.5045120">
        <ele>980.0</ele>
        <time>2022-07-22T09:16:33Z</time>
      </trkpt>
      <trkpt lat="46.9915840" lon="6.5044910">
        <ele>980.2</ele>
        <time>2022-07-22T09:16:34Z</time>
      </trkpt>
      <trkpt lat="46.9915200" lon="6.5043520">
        <ele>980.8</ele>
        <time>2022-07-22T09:16:40Z</time>
      </trkpt>
      <trkpt lat="46.9914300" lon="6.5041710">
        <ele>981.6</ele>
        <time>2022-07-22T09:16:48Z</time>
      </trkpt>
      <trkpt lat="46.9914050" lon="6.5041270">
        <ele>982.0</ele>
        <time>2022-07-22T09:16:50Z</time>
      </trkpt>
      <trkpt lat="46.9913070" lon="6.5039510">
        <ele>982.8</ele>
        <time>2022-07-22T09:16:57Z</time>
      </trkpt>
      <trkpt lat="46.9912620" lon="6.5038780">
        <ele>983.0</ele>
        <time>2022-07-22T09:17:00Z</time>
      </trkpt>
      <trkpt lat="46.9911600" lon="6.5036980">
        <ele>983.2</ele>
        <time>2022-07-22T09:17:06Z</time>
      </trkpt>
      <trkpt lat="46.9909770" lon="6.5035580">
        <ele>983.4</ele>
        <time>2022-07-22T09:17:12Z</time>
      </trkpt>
      <trkpt lat="46.9906300" lon="6.5034090">
        <ele>983.2</ele>
        <time>2022-07-22T09:17:20Z</time>
      </trkpt>
      <trkpt lat="46.9905020" lon="6.5032030">
        <ele>982.8</ele>
        <time>2022-07-22T09:17:24Z</time>
      </trkpt>
      <trkpt lat="46.9904680" lon="6.5030510">
        <ele>982.4</ele>
        <time>2022-07-22T09:17:27Z</time>
      </trkpt>
      <trkpt lat="46.9904620" lon="6.5030050">
        <ele>982.4</ele>
        <time>2022-07-22T09:17:28Z</time>
      </trkpt>
      <trkpt lat="46.9904580" lon="6.5029570">
        <ele>982.4</ele>
        <time>2022-07-22T09:17:29Z</time>
      </trkpt>
      <trkpt lat="46.9904300" lon="6.5026130">
        <ele>982.4</ele>
        <time>2022-07-22T09:17:37Z</time>
      </trkpt>
      <trkpt lat="46.9903750" lon="6.5022080">
        <ele>983.8</ele>
        <time>2022-07-22T09:17:48Z</time>
      </trkpt>
      <trkpt lat="46.9903610" lon="6.5021350">
        <ele>984.0</ele>
        <time>2022-07-22T09:17:50Z</time>
      </trkpt>
      <trkpt lat="46.9902670" lon="6.5018210">
        <ele>985.4</ele>
        <time>2022-07-22T09:17:59Z</time>
      </trkpt>
      <trkpt lat="46.9901860" lon="6.5015710">
        <ele>986.6</ele>
        <time>2022-07-22T09:18:06Z</time>
      </trkpt>
      <trkpt lat="46.9901510" lon="6.5014610">
        <ele>986.8</ele>
        <time>2022-07-22T09:18:09Z</time>
      </trkpt>
      <trkpt lat="46.9900390" lon="6.5011090">
        <ele>987.4</ele>
        <time>2022-07-22T09:18:19Z</time>
      </trkpt>
      <trkpt lat="46.9900190" lon="6.5010400">
        <ele>987.6</ele>
        <time>2022-07-22T09:18:21Z</time>
      </trkpt>
      <trkpt lat="46.9899600" lon="6.5008300">
        <ele>988.4</ele>
        <time>2022-07-22T09:18:27Z</time>
      </trkpt>
      <trkpt lat="46.9899390" lon="6.5007600">
        <ele>988.6</ele>
        <time>2022-07-22T09:18:29Z</time>
      </trkpt>
      <trkpt lat="46.9898730" lon="6.5005030">
        <ele>989.6</ele>
        <time>2022-07-22T09:18:36Z</time>
      </trkpt>
      <trkpt lat="46.9898520" lon="6.5003920">
        <ele>989.8</ele>
        <time>2022-07-22T09:18:39Z</time>
      </trkpt>
      <trkpt lat="46.9898310" lon="6.5000980">
        <ele>990.2</ele>
        <time>2022-07-22T09:18:47Z</time>
      </trkpt>
      <trkpt lat="46.9898740" lon="6.4998980">
        <ele>990.8</ele>
        <time>2022-07-22T09:18:53Z</time>
      </trkpt>
      <trkpt lat="46.9898870" lon="6.4998710">
        <ele>991.0</ele>
        <time>2022-07-22T09:18:54Z</time>
      </trkpt>
      <trkpt lat="46.9900230" lon="6.4996250">
        <ele>992.0</ele>
        <time>2022-07-22T09:19:03Z</time>
      </trkpt>
      <trkpt lat="46.9900560" lon="6.4995710">
        <ele>992.2</ele>
        <time>2022-07-22T09:19:05Z</time>
      </trkpt>
      <trkpt lat="46.9901510" lon="6.4994170">
        <ele>993.0</ele>
        <time>2022-07-22T09:19:11Z</time>
      </trkpt>
      <trkpt lat="46.9902170" lon="6.4993100">
        <ele>993.2</ele>
        <time>2022-07-22T09:19:15Z</time>
      </trkpt>
      <trkpt lat="46.9903010" lon="6.4991730">
        <ele>994.0</ele>
        <time>2022-07-22T09:19:20Z</time>
      </trkpt>
      <trkpt lat="46.9903520" lon="6.4990790">
        <ele>994.4</ele>
        <time>2022-07-22T09:19:23Z</time>
      </trkpt>
      <trkpt lat="46.9904580" lon="6.4988940">
        <ele>995.0</ele>
        <time>2022-07-22T09:19:29Z</time>
      </trkpt>
      <trkpt lat="46.9904780" lon="6.4988550">
        <ele>995.0</ele>
        <time>2022-07-22T09:19:30Z</time>
      </trkpt>
      <trkpt lat="46.9906680" lon="6.4985310">
        <ele>995.6</ele>
        <time>2022-07-22T09:19:39Z</time>
      </trkpt>
      <trkpt lat="46.9907450" lon="6.4983080">
        <ele>995.4</ele>
        <time>2022-07-22T09:19:44Z</time>
      </trkpt>
      <trkpt lat="46.9906780" lon="6.4981840">
        <ele>995.0</ele>
        <time>2022-07-22T09:19:48Z</time>
      </trkpt>
      <trkpt lat="46.9905260" lon="6.4980200">
        <ele>994.8</ele>
        <time>2022-07-22T09:19:56Z</time>
      </trkpt>
      <trkpt lat="46.9904110" lon="6.4978210">
        <ele>996.0</ele>
        <time>2022-07-22T09:20:04Z</time>
      </trkpt>
      <trkpt lat="46.9903650" lon="6.4977320">
        <ele>996.2</ele>
        <time>2022-07-22T09:20:07Z</time>
      </trkpt>
      <trkpt lat="46.9903150" lon="6.4976440">
        <ele>996.6</ele>
        <time>2022-07-22T09:20:10Z</time>
      </trkpt>
      <trkpt lat="46.9901630" lon="6.4974960">
        <ele>997.4</ele>
        <time>2022-07-22T09:20:17Z</time>
      </trkpt>
      <trkpt lat="46.9899620" lon="6.4973660">
        <ele>997.4</ele>
        <time>2022-07-22T09:20:24Z</time>
      </trkpt>
      <trkpt lat="46.9897300" lon="6.4971070">
        <ele>997.4</ele>
        <time>2022-07-22T09:20:31Z</time>
      </trkpt>
      <trkpt lat="46.9894360" lon="6.4966950">
        <ele>997.0</ele>
        <time>2022-07-22T09:20:39Z</time>
      </trkpt>
      <trkpt lat="46.9892170" lon="6.4963610">
        <ele>996.2</ele>
        <time>2022-07-22T09:20:45Z</time>
      </trkpt>
      <trkpt lat="46.9890800" lon="6.4961220">
        <ele>995.4</ele>
        <time>2022-07-22T09:20:49Z</time>
      </trkpt>
      <trkpt lat="46.9890130" lon="6.4960110">
        <ele>995.2</ele>
        <time>2022-07-22T09:20:51Z</time>
      </trkpt>
      <trkpt lat="46.9888510" lon="6.4957740">
        <ele>994.4</ele>
        <time>2022-07-22T09:20:56Z</time>
      </trkpt>
      <trkpt lat="46.9887190" lon="6.4956000">
        <ele>994.0</ele>
        <time>2022-07-22T09:21:00Z</time>
      </trkpt>
      <trkpt lat="46.9885200" lon="6.4953700">
        <ele>994.0</ele>
        <time>2022-07-22T09:21:05Z</time>
      </trkpt>
      <trkpt lat="46.9881650" lon="6.4949850">
        <ele>993.2</ele>
        <time>2022-07-22T09:21:12Z</time>
      </trkpt>
      <trkpt lat="46.9881080" lon="6.4949240">
        <ele>993.0</ele>
        <time>2022-07-22T09:21:13Z</time>
      </trkpt>
      <trkpt lat="46.9878150" lon="6.4945870">
        <ele>992.0</ele>
        <time>2022-07-22T09:21:18Z</time>
      </trkpt>
      <trkpt lat="46.9877520" lon="6.4945130">
        <ele>991.6</ele>
        <time>2022-07-22T09:21:19Z</time>
      </trkpt>
      <trkpt lat="46.9876190" lon="6.4943680">
        <ele>990.8</ele>
        <time>2022-07-22T09:21:21Z</time>
      </trkpt>
      <trkpt lat="46.9874150" lon="6.4941540">
        <ele>989.8</ele>
        <time>2022-07-22T09:21:24Z</time>
      </trkpt>
      <trkpt lat="46.9872840" lon="6.4940200">
        <ele>988.4</ele>
        <time>2022-07-22T09:21:26Z</time>
      </trkpt>
      <trkpt lat="46.9872190" lon="6.4939550">
        <ele>987.8</ele>
        <time>2022-07-22T09:21:27Z</time>
      </trkpt>
      <trkpt lat="46.9871530" lon="6.4938920">
        <ele>987.2</ele>
        <time>2022-07-22T09:21:28Z</time>
      </trkpt>
      <trkpt lat="46.9869370" lon="6.4937190">
        <ele>986.2</ele>
        <time>2022-07-22T09:21:31Z</time>
      </trkpt>
      <trkpt lat="46.9867830" lon="6.4936030">
        <ele>985.0</ele>
        <time>2022-07-22T09:21:33Z</time>
      </trkpt>
      <trkpt lat="46.9866260" lon="6.4934700">
        <ele>983.8</ele>
        <time>2022-07-22T09:21:35Z</time>
      </trkpt>
      <trkpt lat="46.9864690" lon="6.4933180">
        <ele>982.6</ele>
        <time>2022-07-22T09:21:37Z</time>
      </trkpt>
      <trkpt lat="46.9863920" lon="6.4932370">
        <ele>982.2</ele>
        <time>2022-07-22T09:21:38Z</time>
      </trkpt>
      <trkpt lat="46.9863160" lon="6.4931520">
        <ele>981.6</ele>
        <time>2022-07-22T09:21:39Z</time>
      </trkpt>
      <trkpt lat="46.9861620" lon="6.4929680">
        <ele>980.2</ele>
        <time>2022-07-22T09:21:41Z</time>
      </trkpt>
      <trkpt lat="46.9860060" lon="6.4927730">
        <ele>978.6</ele>
        <time>2022-07-22T09:21:43Z</time>
      </trkpt>
      <trkpt lat="46.9858500" lon="6.4925750">
        <ele>977.2</ele>
        <time>2022-07-22T09:21:45Z</time>
      </trkpt>
      <trkpt lat="46.9856990" lon="6.4923850">
        <ele>976.0</ele>
        <time>2022-07-22T09:21:47Z</time>
      </trkpt>
      <trkpt lat="46.9855570" lon="6.4922100">
        <ele>974.6</ele>
        <time>2022-07-22T09:21:49Z</time>
      </trkpt>
      <trkpt lat="46.9854120" lon="6.4920240">
        <ele>973.2</ele>
        <time>2022-07-22T09:21:51Z</time>
      </trkpt>
      <trkpt lat="46.9852640" lon="6.4918170">
        <ele>971.6</ele>
        <time>2022-07-22T09:21:53Z</time>
      </trkpt>
      <trkpt lat="46.9851290" lon="6.4915990">
        <ele>969.2</ele>
        <time>2022-07-22T09:21:55Z</time>
      </trkpt>
      <trkpt lat="46.9850650" lon="6.4914930">
        <ele>968.6</ele>
        <time>2022-07-22T09:21:56Z</time>
      </trkpt>
      <trkpt lat="46.9850040" lon="6.4913900">
        <ele>968.0</ele>
        <time>2022-07-22T09:21:57Z</time>
      </trkpt>
      <trkpt lat="46.9848460" lon="6.4911140">
        <ele>966.4</ele>
        <time>2022-07-22T09:22:00Z</time>
      </trkpt>
      <trkpt lat="46.9848050" lon="6.4910380">
        <ele>966.0</ele>
        <time>2022-07-22T09:22:01Z</time>
      </trkpt>
      <trkpt lat="46.9847330" lon="6.4909070">
        <ele>965.2</ele>
        <time>2022-07-22T09:22:03Z</time>
      </trkpt>
      <trkpt lat="46.9846970" lon="6.4908540">
        <ele>964.8</ele>
        <time>2022-07-22T09:22:04Z</time>
      </trkpt>
      <trkpt lat="46.9846590" lon="6.4908130">
        <ele>964.6</ele>
        <time>2022-07-22T09:22:05Z</time>
      </trkpt>
      <trkpt lat="46.9845550" lon="6.4907540">
        <ele>964.0</ele>
        <time>2022-07-22T09:22:08Z</time>
      </trkpt>
      <trkpt lat="46.9845270" lon="6.4907450">
        <ele>964.0</ele>
        <time>2022-07-22T09:22:09Z</time>
      </trkpt>
      <trkpt lat="46.9844130" lon="6.4907150">
        <ele>963.8</ele>
        <time>2022-07-22T09:22:15Z</time>
      </trkpt>
      <trkpt lat="46.9843060" lon="6.4907060">
        <ele>963.8</ele>
        <time>2022-07-22T09:22:22Z</time>
      </trkpt>
      <trkpt lat="46.9841670" lon="6.4906910">
        <ele>964.8</ele>
        <time>2022-07-22T09:22:31Z</time>
      </trkpt>
      <trkpt lat="46.9841360" lon="6.4906840">
        <ele>965.0</ele>
        <time>2022-07-22T09:22:33Z</time>
      </trkpt>
      <trkpt lat="46.9840370" lon="6.4906800">
        <ele>965.8</ele>
        <time>2022-07-22T09:22:39Z</time>
      </trkpt>
      <trkpt lat="46.9839740" lon="6.4906730">
        <ele>966.2</ele>
        <time>2022-07-22T09:22:42Z</time>
      </trkpt>
      <trkpt lat="46.9838730" lon="6.4906610">
        <ele>966.6</ele>
        <time>2022-07-22T09:22:46Z</time>
      </trkpt>
      <trkpt lat="46.9836930" lon="6.4906050">
        <ele>967.0</ele>
        <time>2022-07-22T09:22:53Z</time>
      </trkpt>
      <trkpt lat="46.9836680" lon="6.4905900">
        <ele>967.2</ele>
        <time>2022-07-22T09:22:54Z</time>
      </trkpt>
      <trkpt lat="46.9835070" lon="6.4905010">
        <ele>967.6</ele>
        <time>2022-07-22T09:23:00Z</time>
      </trkpt>
      <trkpt lat="46.9833470" lon="6.4904170">
        <ele>967.6</ele>
        <time>2022-07-22T09:23:07Z</time>
      </trkpt>
      <trkpt lat="46.9832380" lon="6.4903490">
        <ele>967.6</ele>
        <time>2022-07-22T09:23:12Z</time>
      </trkpt>
      <trkpt lat="46.9832210" lon="6.4903380">
        <ele>967.6</ele>
        <time>2022-07-22T09:23:13Z</time>
      </trkpt>
      <trkpt lat="46.9830920" lon="6.4902670">
        <ele>968.0</ele>
        <time>2022-07-22T09:23:20Z</time>
      </trkpt>
      <trkpt lat="46.9830390" lon="6.4902450">
        <ele>968.2</ele>
        <time>2022-07-22T09:23:23Z</time>
      </trkpt>
      <trkpt lat="46.9829270" lon="6.4902180">
        <ele>969.0</ele>
        <time>2022-07-22T09:23:28Z</time>
      </trkpt>
      <trkpt lat="46.9828810" lon="6.4902050">
        <ele>969.2</ele>
        <time>2022-07-22T09:23:30Z</time>
      </trkpt>
      <trkpt lat="46.9827720" lon="6.4901660">
        <ele>969.6</ele>
        <time>2022-07-22T09:23:36Z</time>
      </trkpt>
      <trkpt lat="46.9826850" lon="6.4901110">
        <ele>970.2</ele>
        <time>2022-07-22T09:23:42Z</time>
      </trkpt>
      <trkpt lat="46.9825750" lon="6.4900710">
        <ele>971.0</ele>
        <time>2022-07-22T09:23:48Z</time>
      </trkpt>
      <trkpt lat="46.9825080" lon="6.4900490">
        <ele>971.6</ele>
        <time>2022-07-22T09:23:52Z</time>
      </trkpt>
      <trkpt lat="46.9824550" lon="6.4900160">
        <ele>971.6</ele>
        <time>2022-07-22T09:23:55Z</time>
      </trkpt>
      <trkpt lat="46.9822460" lon="6.4899260">
        <ele>972.4</ele>
        <time>2022-07-22T09:24:05Z</time>
      </trkpt>
      <trkpt lat="46.9822290" lon="6.4899240">
        <ele>972.6</ele>
        <time>2022-07-22T09:24:06Z</time>
      </trkpt>
      <trkpt lat="46.9821440" lon="6.4899340">
        <ele>973.0</ele>
        <time>2022-07-22T09:24:11Z</time>
      </trkpt>
      <trkpt lat="46.9820710" lon="6.4899860">
        <ele>973.6</ele>
        <time>2022-07-22T09:24:16Z</time>
      </trkpt>
      <trkpt lat="46.9820390" lon="6.4900020">
        <ele>973.8</ele>
        <time>2022-07-22T09:24:19Z</time>
      </trkpt>
      <trkpt lat="46.9819960" lon="6.4900040">
        <ele>974.6</ele>
        <time>2022-07-22T09:24:23Z</time>
      </trkpt>
      <trkpt lat="46.9819460" lon="6.4899990">
        <ele>975.0</ele>
        <time>2022-07-22T09:24:26Z</time>
      </trkpt>
      <trkpt lat="46.9818560" lon="6.4899530">
        <ele>975.8</ele>
        <time>2022-07-22T09:24:31Z</time>
      </trkpt>
      <trkpt lat="46.9818240" lon="6.4899240">
        <ele>976.0</ele>
        <time>2022-07-22T09:24:33Z</time>
      </trkpt>
      <trkpt lat="46.9817310" lon="6.4898120">
        <ele>976.2</ele>
        <time>2022-07-22T09:24:39Z</time>
      </trkpt>
      <trkpt lat="46.9816310" lon="6.4897100">
        <ele>976.4</ele>
        <time>2022-07-22T09:24:44Z</time>
      </trkpt>
      <trkpt lat="46.9815090" lon="6.4895270">
        <ele>976.4</ele>
        <time>2022-07-22T09:24:51Z</time>
      </trkpt>
      <trkpt lat="46.9814090" lon="6.4893580">
        <ele>976.6</ele>
        <time>2022-07-22T09:24:58Z</time>
      </trkpt>
      <trkpt lat="46.9813570" lon="6.4892570">
        <ele>976.8</ele>
        <time>2022-07-22T09:25:03Z</time>
      </trkpt>
      <trkpt lat="46.9813420" lon="6.4892130">
        <ele>976.8</ele>
        <time>2022-07-22T09:25:05Z</time>
      </trkpt>
      <trkpt lat="46.9812900" lon="6.4891030">
        <ele>977.0</ele>
        <time>2022-07-22T09:25:11Z</time>
      </trkpt>
      <trkpt lat="46.9812340" lon="6.4890120">
        <ele>977.6</ele>
        <time>2022-07-22T09:25:17Z</time>
      </trkpt>
      <trkpt lat="46.9812210" lon="6.4889890">
        <ele>978.0</ele>
        <time>2022-07-22T09:25:18Z</time>
      </trkpt>
      <trkpt lat="46.9811850" lon="6.4889210">
        <ele>978.6</ele>
        <time>2022-07-22T09:25:22Z</time>
      </trkpt>
      <trkpt lat="46.9811720" lon="6.4889080">
        <ele>978.8</ele>
        <time>2022-07-22T09:25:23Z</time>
      </trkpt>
      <trkpt lat="46.9811650" lon="6.4888930">
        <ele>979.0</ele>
        <time>2022-07-22T09:25:24Z</time>
      </trkpt>
      <trkpt lat="46.9811090" lon="6.4888020">
        <ele>979.4</ele>
        <time>2022-07-22T09:25:30Z</time>
      </trkpt>
      <trkpt lat="46.9809160" lon="6.4885940">
        <ele>980.0</ele>
        <time>2022-07-22T09:25:41Z</time>
      </trkpt>
      <trkpt lat="46.9808970" lon="6.4885740">
        <ele>980.0</ele>
        <time>2022-07-22T09:25:42Z</time>
      </trkpt>
      <trkpt lat="46.9807290" lon="6.4883980">
        <ele>981.0</ele>
        <time>2022-07-22T09:25:50Z</time>
      </trkpt>
      <trkpt lat="46.9807110" lon="6.4883800">
        <ele>981.2</ele>
        <time>2022-07-22T09:25:51Z</time>
      </trkpt>
      <trkpt lat="46.9805420" lon="6.4882000">
        <ele>982.0</ele>
        <time>2022-07-22T09:25:59Z</time>
      </trkpt>
      <trkpt lat="46.9804920" lon="6.4881280">
        <ele>982.2</ele>
        <time>2022-07-22T09:26:02Z</time>
      </trkpt>
      <trkpt lat="46.9804140" lon="6.4879870">
        <ele>982.4</ele>
        <time>2022-07-22T09:26:08Z</time>
      </trkpt>
      <trkpt lat="46.9803530" lon="6.4878550">
        <ele>983.2</ele>
        <time>2022-07-22T09:26:13Z</time>
      </trkpt>
      <trkpt lat="46.9803050" lon="6.4877510">
        <ele>984.0</ele>
        <time>2022-07-22T09:26:17Z</time>
      </trkpt>
      <trkpt lat="46.9802610" lon="6.4876550">
        <ele>984.4</ele>
        <time>2022-07-22T09:26:20Z</time>
      </trkpt>
      <trkpt lat="46.9802120" lon="6.4875680">
        <ele>984.6</ele>
        <time>2022-07-22T09:26:23Z</time>
      </trkpt>
      <trkpt lat="46.9800960" lon="6.4873350">
        <ele>984.6</ele>
        <time>2022-07-22T09:26:29Z</time>
      </trkpt>
      <trkpt lat="46.9799290" lon="6.4870020">
        <ele>984.2</ele>
        <time>2022-07-22T09:26:37Z</time>
      </trkpt>
      <trkpt lat="46.9798080" lon="6.4867740">
        <ele>984.0</ele>
        <time>2022-07-22T09:26:43Z</time>
      </trkpt>
      <trkpt lat="46.9796310" lon="6.4865150">
        <ele>983.6</ele>
        <time>2022-07-22T09:26:50Z</time>
      </trkpt>
      <trkpt lat="46.9794800" lon="6.4862720">
        <ele>983.4</ele>
        <time>2022-07-22T09:26:56Z</time>
      </trkpt>
      <trkpt lat="46.9794530" lon="6.4862300">
        <ele>983.2</ele>
        <time>2022-07-22T09:26:57Z</time>
      </trkpt>
      <trkpt lat="46.9792460" lon="6.4859260">
        <ele>982.8</ele>
        <time>2022-07-22T09:27:04Z</time>
      </trkpt>
      <trkpt lat="46.9791250" lon="6.4857430">
        <ele>982.4</ele>
        <time>2022-07-22T09:27:09Z</time>
      </trkpt>
      <trkpt lat="46.9790230" lon="6.4856040">
        <ele>982.2</ele>
        <time>2022-07-22T09:27:15Z</time>
      </trkpt>
      <trkpt lat="46.9789040" lon="6.4854660">
        <ele>982.4</ele>
        <time>2022-07-22T09:27:21Z</time>
      </trkpt>
      <trkpt lat="46.9788250" lon="6.4853700">
        <ele>983.0</ele>
        <time>2022-07-22T09:27:26Z</time>
      </trkpt>
      <trkpt lat="46.9787890" lon="6.4853150">
        <ele>983.6</ele>
        <time>2022-07-22T09:27:29Z</time>
      </trkpt>
      <trkpt lat="46.9787340" lon="6.4852240">
        <ele>984.2</ele>
        <time>2022-07-22T09:27:33Z</time>
      </trkpt>
      <trkpt lat="46.9787040" lon="6.4851640">
        <ele>984.6</ele>
        <time>2022-07-22T09:27:37Z</time>
      </trkpt>
      <trkpt lat="46.9786960" lon="6.4851470">
        <ele>984.8</ele>
        <time>2022-07-22T09:27:38Z</time>
      </trkpt>
      <trkpt lat="46.9786260" lon="6.4849850">
        <ele>985.8</ele>
        <time>2022-07-22T09:27:45Z</time>
      </trkpt>
      <trkpt lat="46.9786170" lon="6.4849600">
        <ele>985.8</ele>
        <time>2022-07-22T09:27:46Z</time>
      </trkpt>
      <trkpt lat="46.9785450" lon="6.4848100">
        <ele>986.2</ele>
        <time>2022-07-22T09:27:52Z</time>
      </trkpt>
      <trkpt lat="46.9784290" lon="6.4846000">
        <ele>986.6</ele>
        <time>2022-07-22T09:28:00Z</time>
      </trkpt>
      <trkpt lat="46.9784030" lon="6.4845610">
        <ele>986.8</ele>
        <time>2022-07-22T09:28:02Z</time>
      </trkpt>
      <trkpt lat="46.9783920" lon="6.4845430">
        <ele>986.8</ele>
        <time>2022-07-22T09:28:03Z</time>
      </trkpt>
      <trkpt lat="46.9783760" lon="6.4845110">
        <ele>987.0</ele>
        <time>2022-07-22T09:28:05Z</time>
      </trkpt>
      <trkpt lat="46.9783020" lon="6.4843780">
        <ele>987.4</ele>
        <time>2022-07-22T09:28:10Z</time>
      </trkpt>
      <trkpt lat="46.9781660" lon="6.4841700">
        <ele>987.6</ele>
        <time>2022-07-22T09:28:16Z</time>
      </trkpt>
      <trkpt lat="46.9781020" lon="6.4840590">
        <ele>987.6</ele>
        <time>2022-07-22T09:28:21Z</time>
      </trkpt>
      <trkpt lat="46.9780980" lon="6.4840430">
        <ele>987.6</ele>
        <time>2022-07-22T09:28:22Z</time>
      </trkpt>
      <trkpt lat="46.9780610" lon="6.4839340">
        <ele>987.8</ele>
        <time>2022-07-22T09:28:29Z</time>
      </trkpt>
      <trkpt lat="46.9780280" lon="6.4838590">
        <ele>988.6</ele>
        <time>2022-07-22T09:28:35Z</time>
      </trkpt>
      <trkpt lat="46.9780220" lon="6.4838450">
        <ele>988.8</ele>
        <time>2022-07-22T09:28:36Z</time>
      </trkpt>
      <trkpt lat="46.9779390" lon="6.4837090">
        <ele>989.8</ele>
        <time>2022-07-22T09:28:42Z</time>
      </trkpt>
      <trkpt lat="46.9779180" lon="6.4836580">
        <ele>990.4</ele>
        <time>2022-07-22T09:28:44Z</time>
      </trkpt>
      <trkpt lat="46.9778770" lon="6.4835860">
        <ele>991.0</ele>
        <time>2022-07-22T09:28:47Z</time>
      </trkpt>
      <trkpt lat="46.9778340" lon="6.4835230">
        <ele>991.4</ele>
        <time>2022-07-22T09:28:50Z</time>
      </trkpt>
      <trkpt lat="46.9777460" lon="6.4834280">
        <ele>991.8</ele>
        <time>2022-07-22T09:28:55Z</time>
      </trkpt>
      <trkpt lat="46.9777200" lon="6.4834090">
        <ele>991.8</ele>
        <time>2022-07-22T09:28:56Z</time>
      </trkpt>
      <trkpt lat="46.9775920" lon="6.4833030">
        <ele>992.0</ele>
        <time>2022-07-22T09:29:02Z</time>
      </trkpt>
      <trkpt lat="46.9774180" lon="6.4831680">
        <ele>992.6</ele>
        <time>2022-07-22T09:29:10Z</time>
      </trkpt>
      <trkpt lat="46.9773020" lon="6.4830580">
        <ele>993.0</ele>
        <time>2022-07-22T09:29:16Z</time>
      </trkpt>
      <trkpt lat="46.9772820" lon="6.4830410">
        <ele>993.0</ele>
        <time>2022-07-22T09:29:17Z</time>
      </trkpt>
      <trkpt lat="46.9771380" lon="6.4829240">
        <ele>993.8</ele>
        <time>2022-07-22T09:29:24Z</time>
      </trkpt>
      <trkpt lat="46.9771020" lon="6.4828950">
        <ele>994.0</ele>
        <time>2022-07-22T09:29:26Z</time>
      </trkpt>
      <trkpt lat="46.9769800" lon="6.4828240">
        <ele>994.6</ele>
        <time>2022-07-22T09:29:33Z</time>
      </trkpt>
      <trkpt lat="46.9769350" lon="6.4827830">
        <ele>994.8</ele>
        <time>2022-07-22T09:29:36Z</time>
      </trkpt>
      <trkpt lat="46.9769050" lon="6.4827590">
        <ele>995.0</ele>
        <time>2022-07-22T09:29:38Z</time>
      </trkpt>
      <trkpt lat="46.9768710" lon="6.4827350">
        <ele>995.2</ele>
        <time>2022-07-22T09:29:40Z</time>
      </trkpt>
      <trkpt lat="46.9767880" lon="6.4826740">
        <ele>996.0</ele>
        <time>2022-07-22T09:29:45Z</time>
      </trkpt>
      <trkpt lat="46.9767730" lon="6.4826650">
        <ele>996.0</ele>
        <time>2022-07-22T09:29:46Z</time>
      </trkpt>
      <trkpt lat="46.9766490" lon="6.4825420">
        <ele>997.2</ele>
        <time>2022-07-22T09:29:54Z</time>
      </trkpt>
      <trkpt lat="46.9766390" lon="6.4825200">
        <ele>997.2</ele>
        <time>2022-07-22T09:29:55Z</time>
      </trkpt>
      <trkpt lat="46.9765660" lon="6.4823900">
        <ele>997.6</ele>
        <time>2022-07-22T09:30:01Z</time>
      </trkpt>
      <trkpt lat="46.9765140" lon="6.4822710">
        <ele>998.2</ele>
        <time>2022-07-22T09:30:06Z</time>
      </trkpt>
      <trkpt lat="46.9765060" lon="6.4822490">
        <ele>998.2</ele>
        <time>2022-07-22T09:30:07Z</time>
      </trkpt>
      <trkpt lat="46.9764440" lon="6.4821100">
        <ele>998.8</ele>
        <time>2022-07-22T09:30:13Z</time>
      </trkpt>
      <trkpt lat="46.9763970" lon="6.4820080">
        <ele>999.2</ele>
        <time>2022-07-22T09:30:17Z</time>
      </trkpt>
      <trkpt lat="46.9763500" lon="6.4818900">
        <ele>1000.0</ele>
        <time>2022-07-22T09:30:22Z</time>
      </trkpt>
      <trkpt lat="46.9762940" lon="6.4817570">
        <ele>1000.4</ele>
        <time>2022-07-22T09:30:28Z</time>
      </trkpt>
      <trkpt lat="46.9762300" lon="6.4816090">
        <ele>1000.8</ele>
        <time>2022-07-22T09:30:35Z</time>
      </trkpt>
      <trkpt lat="46.9761800" lon="6.4814970">
        <ele>1001.6</ele>
        <time>2022-07-22T09:30:40Z</time>
      </trkpt>
      <trkpt lat="46.9761570" lon="6.4814620">
        <ele>1002.0</ele>
        <time>2022-07-22T09:30:42Z</time>
      </trkpt>
      <trkpt lat="46.9760710" lon="6.4813510">
        <ele>1002.8</ele>
        <time>2022-07-22T09:30:47Z</time>
      </trkpt>
      <trkpt lat="46.9760520" lon="6.4813020">
        <ele>1002.8</ele>
        <time>2022-07-22T09:30:49Z</time>
      </trkpt>
      <trkpt lat="46.9759620" lon="6.4810910">
        <ele>1003.6</ele>
        <time>2022-07-22T09:30:58Z</time>
      </trkpt>
      <trkpt lat="46.9759360" lon="6.4810520">
        <ele>1003.8</ele>
        <time>2022-07-22T09:31:00Z</time>
      </trkpt>
      <trkpt lat="46.9758950" lon="6.4809680">
        <ele>1004.4</ele>
        <time>2022-07-22T09:31:04Z</time>
      </trkpt>
      <trkpt lat="46.9758810" lon="6.4809460">
        <ele>1004.6</ele>
        <time>2022-07-22T09:31:05Z</time>
      </trkpt>
      <trkpt lat="46.9758370" lon="6.4808780">
        <ele>1005.0</ele>
        <time>2022-07-22T09:31:08Z</time>
      </trkpt>
      <trkpt lat="46.9757780" lon="6.4807970">
        <ele>1005.6</ele>
        <time>2022-07-22T09:31:12Z</time>
      </trkpt>
      <trkpt lat="46.9757000" lon="6.4807320">
        <ele>1006.0</ele>
        <time>2022-07-22T09:31:15Z</time>
      </trkpt>
      <trkpt lat="46.9756020" lon="6.4806020">
        <ele>1006.4</ele>
        <time>2022-07-22T09:31:20Z</time>
      </trkpt>
      <trkpt lat="46.9755240" lon="6.4805100">
        <ele>1006.8</ele>
        <time>2022-07-22T09:31:24Z</time>
      </trkpt>
      <trkpt lat="46.9754840" lon="6.4804620">
        <ele>1007.0</ele>
        <time>2022-07-22T09:31:26Z</time>
      </trkpt>
      <trkpt lat="46.9753860" lon="6.4803040">
        <ele>1007.4</ele>
        <time>2022-07-22T09:31:32Z</time>
      </trkpt>
      <trkpt lat="46.9752910" lon="6.4801340">
        <ele>1008.0</ele>
        <time>2022-07-22T09:31:38Z</time>
      </trkpt>
      <trkpt lat="46.9752760" lon="6.4801090">
        <ele>1008.0</ele>
        <time>2022-07-22T09:31:39Z</time>
      </trkpt>
      <trkpt lat="46.9752000" lon="6.4799020">
        <ele>1008.4</ele>
        <time>2022-07-22T09:31:45Z</time>
      </trkpt>
      <trkpt lat="46.9751340" lon="6.4796670">
        <ele>1008.6</ele>
        <time>2022-07-22T09:31:52Z</time>
      </trkpt>
      <trkpt lat="46.9750940" lon="6.4795340">
        <ele>1009.0</ele>
        <time>2022-07-22T09:31:58Z</time>
      </trkpt>
      <trkpt lat="46.9750850" lon="6.4795130">
        <ele>1009.0</ele>
        <time>2022-07-22T09:31:59Z</time>
      </trkpt>
      <trkpt lat="46.9750430" lon="6.4794260">
        <ele>1009.0</ele>
        <time>2022-07-22T09:32:03Z</time>
      </trkpt>
      <trkpt lat="46.9750010" lon="6.4793400">
        <ele>1010.0</ele>
        <time>2022-07-22T09:32:07Z</time>
      </trkpt>
      <trkpt lat="46.9749670" lon="6.4792730">
        <ele>1010.4</ele>
        <time>2022-07-22T09:32:10Z</time>
      </trkpt>
      <trkpt lat="46.9749170" lon="6.4791530">
        <ele>1011.2</ele>
        <time>2022-07-22T09:32:15Z</time>
      </trkpt>
      <trkpt lat="46.9749030" lon="6.4791350">
        <ele>1011.2</ele>
        <time>2022-07-22T09:32:16Z</time>
      </trkpt>
      <trkpt lat="46.9748380" lon="6.4790040">
        <ele>1012.0</ele>
        <time>2022-07-22T09:32:23Z</time>
      </trkpt>
      <trkpt lat="46.9748300" lon="6.4789620">
        <ele>1012.2</ele>
        <time>2022-07-22T09:32:25Z</time>
      </trkpt>
      <trkpt lat="46.9747830" lon="6.4788810">
        <ele>1012.8</ele>
        <time>2022-07-22T09:32:29Z</time>
      </trkpt>
      <trkpt lat="46.9747070" lon="6.4787720">
        <ele>1013.2</ele>
        <time>2022-07-22T09:32:34Z</time>
      </trkpt>
      <trkpt lat="46.9746680" lon="6.4787020">
        <ele>1014.0</ele>
        <time>2022-07-22T09:32:37Z</time>
      </trkpt>
      <trkpt lat="46.9746460" lon="6.4786570">
        <ele>1014.2</ele>
        <time>2022-07-22T09:32:39Z</time>
      </trkpt>
      <trkpt lat="46.9746200" lon="6.4786060">
        <ele>1014.6</ele>
        <time>2022-07-22T09:32:41Z</time>
      </trkpt>
      <trkpt lat="46.9745790" lon="6.4785340">
        <ele>1014.8</ele>
        <time>2022-07-22T09:32:44Z</time>
      </trkpt>
      <trkpt lat="46.9745460" lon="6.4784640">
        <ele>1015.4</ele>
        <time>2022-07-22T09:32:47Z</time>
      </trkpt>
      <trkpt lat="46.9745080" lon="6.4783450">
        <ele>1015.8</ele>
        <time>2022-07-22T09:32:52Z</time>
      </trkpt>
      <trkpt lat="46.9744700" lon="6.4782370">
        <ele>1016.2</ele>
        <time>2022-07-22T09:32:57Z</time>
      </trkpt>
      <trkpt lat="46.9744610" lon="6.4782180">
        <ele>1016.2</ele>
        <time>2022-07-22T09:32:58Z</time>
      </trkpt>
      <trkpt lat="46.9743730" lon="6.4781170">
        <ele>1017.0</ele>
        <time>2022-07-22T09:33:05Z</time>
      </trkpt>
      <trkpt lat="46.9743590" lon="6.4781020">
        <ele>1017.4</ele>
        <time>2022-07-22T09:33:06Z</time>
      </trkpt>
      <trkpt lat="46.9742930" lon="6.4780170">
        <ele>1018.2</ele>
        <time>2022-07-22T09:33:11Z</time>
      </trkpt>
      <trkpt lat="46.9742700" lon="6.4779720">
        <ele>1018.6</ele>
        <time>2022-07-22T09:33:14Z</time>
      </trkpt>
      <trkpt lat="46.9742360" lon="6.4779210">
        <ele>1019.0</ele>
        <time>2022-07-22T09:33:18Z</time>
      </trkpt>
      <trkpt lat="46.9741780" lon="6.4778620">
        <ele>1019.6</ele>
        <time>2022-07-22T09:33:22Z</time>
      </trkpt>
      <trkpt lat="46.9741140" lon="6.4778190">
        <ele>1019.8</ele>
        <time>2022-07-22T09:33:25Z</time>
      </trkpt>
      <trkpt lat="46.9740050" lon="6.4777480">
        <ele>1020.4</ele>
        <time>2022-07-22T09:33:30Z</time>
      </trkpt>
      <trkpt lat="46.9739850" lon="6.4777350">
        <ele>1020.8</ele>
        <time>2022-07-22T09:33:31Z</time>
      </trkpt>
      <trkpt lat="46.9738470" lon="6.4776730">
        <ele>1021.6</ele>
        <time>2022-07-22T09:33:38Z</time>
      </trkpt>
      <trkpt lat="46.9738090" lon="6.4776520">
        <ele>1021.8</ele>
        <time>2022-07-22T09:33:40Z</time>
      </trkpt>
      <trkpt lat="46.9736760" lon="6.4775880">
        <ele>1022.8</ele>
        <time>2022-07-22T09:33:47Z</time>
      </trkpt>
      <trkpt lat="46.9735130" lon="6.4775280">
        <ele>1023.6</ele>
        <time>2022-07-22T09:33:55Z</time>
      </trkpt>
      <trkpt lat="46.9734960" lon="6.4775240">
        <ele>1023.8</ele>
        <time>2022-07-22T09:33:56Z</time>
      </trkpt>
      <trkpt lat="46.9734070" lon="6.4774790">
        <ele>1025.0</ele>
        <time>2022-07-22T09:34:02Z</time>
      </trkpt>
      <trkpt lat="46.9733130" lon="6.4774030">
        <ele>1025.6</ele>
        <time>2022-07-22T09:34:08Z</time>
      </trkpt>
      <trkpt lat="46.9732990" lon="6.4773930">
        <ele>1025.8</ele>
        <time>2022-07-22T09:34:09Z</time>
      </trkpt>
      <trkpt lat="46.9732270" lon="6.4772990">
        <ele>1026.8</ele>
        <time>2022-07-22T09:34:15Z</time>
      </trkpt>
      <trkpt lat="46.9731930" lon="6.4772200">
        <ele>1027.6</ele>
        <time>2022-07-22T09:34:21Z</time>
      </trkpt>
      <trkpt lat="46.9731650" lon="6.4771310">
        <ele>1028.0</ele>
        <time>2022-07-22T09:34:25Z</time>
      </trkpt>
      <trkpt lat="46.9731170" lon="6.4770860">
        <ele>1028.6</ele>
        <time>2022-07-22T09:34:28Z</time>
      </trkpt>
      <trkpt lat="46.9730780" lon="6.4769950">
        <ele>1029.0</ele>
        <time>2022-07-22T09:34:32Z</time>
      </trkpt>
      <trkpt lat="46.9730620" lon="6.4769470">
        <ele>1029.0</ele>
        <time>2022-07-22T09:34:34Z</time>
      </trkpt>
      <trkpt lat="46.9729850" lon="6.4768130">
        <ele>1029.8</ele>
        <time>2022-07-22T09:34:41Z</time>
      </trkpt>
      <trkpt lat="46.9729580" lon="6.4767830">
        <ele>1030.0</ele>
        <time>2022-07-22T09:34:43Z</time>
      </trkpt>
      <trkpt lat="46.9728610" lon="6.4766760">
        <ele>1030.6</ele>
        <time>2022-07-22T09:34:49Z</time>
      </trkpt>
      <trkpt lat="46.9727990" lon="6.4766190">
        <ele>1031.0</ele>
        <time>2022-07-22T09:34:53Z</time>
      </trkpt>
      <trkpt lat="46.9727530" lon="6.4765760">
        <ele>1031.4</ele>
        <time>2022-07-22T09:34:56Z</time>
      </trkpt>
      <trkpt lat="46.9726720" lon="6.4764800">
        <ele>1032.2</ele>
        <time>2022-07-22T09:35:01Z</time>
      </trkpt>
      <trkpt lat="46.9726450" lon="6.4764480">
        <ele>1032.4</ele>
        <time>2022-07-22T09:35:03Z</time>
      </trkpt>
      <trkpt lat="46.9726280" lon="6.4764190">
        <ele>1032.8</ele>
        <time>2022-07-22T09:35:05Z</time>
      </trkpt>
      <trkpt lat="46.9725860" lon="6.4763660">
        <ele>1033.2</ele>
        <time>2022-07-22T09:35:08Z</time>
      </trkpt>
      <trkpt lat="46.9725690" lon="6.4763550">
        <ele>1033.4</ele>
        <time>2022-07-22T09:35:09Z</time>
      </trkpt>
      <trkpt lat="46.9724660" lon="6.4762350">
        <ele>1034.2</ele>
        <time>2022-07-22T09:35:17Z</time>
      </trkpt>
      <trkpt lat="46.9723630" lon="6.4761440">
        <ele>1035.2</ele>
        <time>2022-07-22T09:35:23Z</time>
      </trkpt>
      <trkpt lat="46.9723260" lon="6.4760990">
        <ele>1035.6</ele>
        <time>2022-07-22T09:35:25Z</time>
      </trkpt>
      <trkpt lat="46.9722240" lon="6.4759960">
        <ele>1036.4</ele>
        <time>2022-07-22T09:35:31Z</time>
      </trkpt>
      <trkpt lat="46.9722030" lon="6.4759810">
        <ele>1036.6</ele>
        <time>2022-07-22T09:35:32Z</time>
      </trkpt>
      <trkpt lat="46.9720400" lon="6.4759140">
        <ele>1037.2</ele>
        <time>2022-07-22T09:35:39Z</time>
      </trkpt>
      <trkpt lat="46.9720180" lon="6.4759050">
        <ele>1037.4</ele>
        <time>2022-07-22T09:35:40Z</time>
      </trkpt>
      <trkpt lat="46.9718290" lon="6.4758420">
        <ele>1038.2</ele>
        <time>2022-07-22T09:35:49Z</time>
      </trkpt>
      <trkpt lat="46.9716750" lon="6.4758240">
        <ele>1038.8</ele>
        <time>2022-07-22T09:35:56Z</time>
      </trkpt>
      <trkpt lat="46.9715560" lon="6.4758080">
        <ele>1039.4</ele>
        <time>2022-07-22T09:36:01Z</time>
      </trkpt>
      <trkpt lat="46.9714910" lon="6.4757940">
        <ele>1039.6</ele>
        <time>2022-07-22T09:36:04Z</time>
      </trkpt>
      <trkpt lat="46.9713610" lon="6.4757490">
        <ele>1040.0</ele>
        <time>2022-07-22T09:36:11Z</time>
      </trkpt>
      <trkpt lat="46.9712930" lon="6.4757180">
        <ele>1040.2</ele>
        <time>2022-07-22T09:36:15Z</time>
      </trkpt>
      <trkpt lat="46.9712380" lon="6.4756890">
        <ele>1040.6</ele>
        <time>2022-07-22T09:36:18Z</time>
      </trkpt>
      <trkpt lat="46.9711170" lon="6.4756350">
        <ele>1041.2</ele>
        <time>2022-07-22T09:36:24Z</time>
      </trkpt>
      <trkpt lat="46.9710970" lon="6.4756230">
        <ele>1041.4</ele>
        <time>2022-07-22T09:36:25Z</time>
      </trkpt>
      <trkpt lat="46.9709960" lon="6.4755680">
        <ele>1042.2</ele>
        <time>2022-07-22T09:36:30Z</time>
      </trkpt>
      <trkpt lat="46.9709560" lon="6.4755310">
        <ele>1042.4</ele>
        <time>2022-07-22T09:36:32Z</time>
      </trkpt>
      <trkpt lat="46.9708490" lon="6.4754190">
        <ele>1043.0</ele>
        <time>2022-07-22T09:36:37Z</time>
      </trkpt>
      <trkpt lat="46.9708320" lon="6.4753970">
        <ele>1043.0</ele>
        <time>2022-07-22T09:36:38Z</time>
      </trkpt>
      <trkpt lat="46.9707200" lon="6.4752560">
        <ele>1043.8</ele>
        <time>2022-07-22T09:36:44Z</time>
      </trkpt>
      <trkpt lat="46.9706500" lon="6.4751740">
        <ele>1044.2</ele>
        <time>2022-07-22T09:36:48Z</time>
      </trkpt>
      <trkpt lat="46.9706370" lon="6.4751520">
        <ele>1044.2</ele>
        <time>2022-07-22T09:36:49Z</time>
      </trkpt>
      <trkpt lat="46.9705600" lon="6.4750080">
        <ele>1044.4</ele>
        <time>2022-07-22T09:36:55Z</time>
      </trkpt>
      <trkpt lat="46.9704400" lon="6.4748200">
        <ele>1044.8</ele>
        <time>2022-07-22T09:37:03Z</time>
      </trkpt>
      <trkpt lat="46.9704100" lon="6.4747630">
        <ele>1045.0</ele>
        <time>2022-07-22T09:37:05Z</time>
      </trkpt>
      <trkpt lat="46.9703320" lon="6.4746460">
        <ele>1045.6</ele>
        <time>2022-07-22T09:37:09Z</time>
      </trkpt>
      <trkpt lat="46.9702220" lon="6.4744650">
        <ele>1046.0</ele>
        <time>2022-07-22T09:37:15Z</time>
      </trkpt>
      <trkpt lat="46.9701110" lon="6.4742640">
        <ele>1047.0</ele>
        <time>2022-07-22T09:37:22Z</time>
      </trkpt>
      <trkpt lat="46.9700970" lon="6.4742400">
        <ele>1047.0</ele>
        <time>2022-07-22T09:37:23Z</time>
      </trkpt>
      <trkpt lat="46.9700270" lon="6.4741220">
        <ele>1047.8</ele>
        <time>2022-07-22T09:37:28Z</time>
      </trkpt>
      <trkpt lat="46.9699980" lon="6.4740720">
        <ele>1048.0</ele>
        <time>2022-07-22T09:37:30Z</time>
      </trkpt>
      <trkpt lat="46.9699080" lon="6.4739280">
        <ele>1048.8</ele>
        <time>2022-07-22T09:37:36Z</time>
      </trkpt>
      <trkpt lat="46.9698880" lon="6.4738850">
        <ele>1049.0</ele>
        <time>2022-07-22T09:37:38Z</time>
      </trkpt>
      <trkpt lat="46.9698710" lon="6.4738540">
        <ele>1049.4</ele>
        <time>2022-07-22T09:37:41Z</time>
      </trkpt>
      <trkpt lat="46.9698700" lon="6.4738530">
        <ele>1049.4</ele>
        <time>2022-07-22T09:37:42Z</time>
      </trkpt>
      <trkpt lat="46.9698310" lon="6.4737330">
        <ele>1050.4</ele>
        <time>2022-07-22T09:38:42Z</time>
      </trkpt>
      <trkpt lat="46.9698030" lon="6.4736670">
        <ele>1050.4</ele>
        <time>2022-07-22T09:38:45Z</time>
      </trkpt>
      <trkpt lat="46.9697120" lon="6.4735360">
        <ele>1050.6</ele>
        <time>2022-07-22T09:38:51Z</time>
      </trkpt>
      <trkpt lat="46.9696230" lon="6.4733830">
        <ele>1051.2</ele>
        <time>2022-07-22T09:38:58Z</time>
      </trkpt>
      <trkpt lat="46.9695980" lon="6.4733420">
        <ele>1051.6</ele>
        <time>2022-07-22T09:39:00Z</time>
      </trkpt>
      <trkpt lat="46.9695210" lon="6.4732130">
        <ele>1052.2</ele>
        <time>2022-07-22T09:39:07Z</time>
      </trkpt>
      <trkpt lat="46.9695090" lon="6.4731960">
        <ele>1052.2</ele>
        <time>2022-07-22T09:39:08Z</time>
      </trkpt>
      <trkpt lat="46.9694490" lon="6.4730810">
        <ele>1052.6</ele>
        <time>2022-07-22T09:39:14Z</time>
      </trkpt>
      <trkpt lat="46.9694190" lon="6.4730200">
        <ele>1053.2</ele>
        <time>2022-07-22T09:39:18Z</time>
      </trkpt>
      <trkpt lat="46.9694130" lon="6.4729890">
        <ele>1053.6</ele>
        <time>2022-07-22T09:39:20Z</time>
      </trkpt>
      <trkpt lat="46.9693790" lon="6.4728980">
        <ele>1054.2</ele>
        <time>2022-07-22T09:39:25Z</time>
      </trkpt>
      <trkpt lat="46.9693620" lon="6.4728630">
        <ele>1054.4</ele>
        <time>2022-07-22T09:39:27Z</time>
      </trkpt>
      <trkpt lat="46.9693170" lon="6.4727750">
        <ele>1055.2</ele>
        <time>2022-07-22T09:39:32Z</time>
      </trkpt>
      <trkpt lat="46.9693050" lon="6.4727510">
        <ele>1055.2</ele>
        <time>2022-07-22T09:39:33Z</time>
      </trkpt>
      <trkpt lat="46.9692700" lon="6.4726720">
        <ele>1055.8</ele>
        <time>2022-07-22T09:39:37Z</time>
      </trkpt>
      <trkpt lat="46.9692480" lon="6.4725900">
        <ele>1056.4</ele>
        <time>2022-07-22T09:39:41Z</time>
      </trkpt>
      <trkpt lat="46.9692260" lon="6.4725520">
        <ele>1056.6</ele>
        <time>2022-07-22T09:39:43Z</time>
      </trkpt>
      <trkpt lat="46.9691620" lon="6.4724330">
        <ele>1057.2</ele>
        <time>2022-07-22T09:39:49Z</time>
      </trkpt>
      <trkpt lat="46.9691510" lon="6.4724140">
        <ele>1057.4</ele>
        <time>2022-07-22T09:39:50Z</time>
      </trkpt>
      <trkpt lat="46.9690850" lon="6.4723230">
        <ele>1058.2</ele>
        <time>2022-07-22T09:39:55Z</time>
      </trkpt>
      <trkpt lat="46.9690600" lon="6.4722660">
        <ele>1058.4</ele>
        <time>2022-07-22T09:39:58Z</time>
      </trkpt>
      <trkpt lat="46.9690330" lon="6.4721940">
        <ele>1059.0</ele>
        <time>2022-07-22T09:40:01Z</time>
      </trkpt>
      <trkpt lat="46.9689950" lon="6.4720710">
        <ele>1059.6</ele>
        <time>2022-07-22T09:40:06Z</time>
      </trkpt>
      <trkpt lat="46.9689890" lon="6.4720490">
        <ele>1059.6</ele>
        <time>2022-07-22T09:40:07Z</time>
      </trkpt>
      <trkpt lat="46.9688940" lon="6.4718920">
        <ele>1060.6</ele>
        <time>2022-07-22T09:40:14Z</time>
      </trkpt>
      <trkpt lat="46.9687580" lon="6.4716990">
        <ele>1061.2</ele>
        <time>2022-07-22T09:40:21Z</time>
      </trkpt>
      <trkpt lat="46.9686360" lon="6.4715400">
        <ele>1061.6</ele>
        <time>2022-07-22T09:40:28Z</time>
      </trkpt>
      <trkpt lat="46.9684860" lon="6.4713510">
        <ele>1061.6</ele>
        <time>2022-07-22T09:40:36Z</time>
      </trkpt>
      <trkpt lat="46.9683690" lon="6.4711510">
        <ele>1061.6</ele>
        <time>2022-07-22T09:40:42Z</time>
      </trkpt>
      <trkpt lat="46.9681770" lon="6.4708590">
        <ele>1061.6</ele>
        <time>2022-07-22T09:40:51Z</time>
      </trkpt>
      <trkpt lat="46.9679790" lon="6.4705510">
        <ele>1061.6</ele>
        <time>2022-07-22T09:40:59Z</time>
      </trkpt>
      <trkpt lat="46.9677810" lon="6.4702550">
        <ele>1061.0</ele>
        <time>2022-07-22T09:41:06Z</time>
      </trkpt>
      <trkpt lat="46.9675240" lon="6.4698120">
        <ele>1060.6</ele>
        <time>2022-07-22T09:41:14Z</time>
      </trkpt>
      <trkpt lat="46.9672570" lon="6.4693120">
        <ele>1059.4</ele>
        <time>2022-07-22T09:41:22Z</time>
      </trkpt>
      <trkpt lat="46.9672270" lon="6.4692550">
        <ele>1059.2</ele>
        <time>2022-07-22T09:41:23Z</time>
      </trkpt>
      <trkpt lat="46.9670450" lon="6.4689120">
        <ele>1058.4</ele>
        <time>2022-07-22T09:41:29Z</time>
      </trkpt>
      <trkpt lat="46.9669250" lon="6.4687090">
        <ele>1058.2</ele>
        <time>2022-07-22T09:41:33Z</time>
      </trkpt>
      <trkpt lat="46.9668940" lon="6.4686660">
        <ele>1058.2</ele>
        <time>2022-07-22T09:41:34Z</time>
      </trkpt>
      <trkpt lat="46.9666930" lon="6.4683180">
        <ele>1057.8</ele>
        <time>2022-07-22T09:41:42Z</time>
      </trkpt>
      <trkpt lat="46.9666410" lon="6.4682500">
        <ele>1057.6</ele>
        <time>2022-07-22T09:41:46Z</time>
      </trkpt>
      <trkpt lat="46.9666420" lon="6.4682490">
        <ele>1057.4</ele>
        <time>2022-07-22T09:41:47Z</time>
      </trkpt>
      <trkpt lat="46.9666040" lon="6.4681100">
        <ele>1056.6</ele>
        <time>2022-07-22T09:42:16Z</time>
      </trkpt>
      <trkpt lat="46.9665770" lon="6.4680740">
        <ele>1056.6</ele>
        <time>2022-07-22T09:42:18Z</time>
      </trkpt>
      <trkpt lat="46.9664890" lon="6.4679340">
        <ele>1056.4</ele>
        <time>2022-07-22T09:42:23Z</time>
      </trkpt>
      <trkpt lat="46.9663350" lon="6.4677180">
        <ele>1056.4</ele>
        <time>2022-07-22T09:42:30Z</time>
      </trkpt>
      <trkpt lat="46.9661850" lon="6.4674760">
        <ele>1056.2</ele>
        <time>2022-07-22T09:42:36Z</time>
      </trkpt>
      <trkpt lat="46.9660800" lon="6.4672550">
        <ele>1055.8</ele>
        <time>2022-07-22T09:42:42Z</time>
      </trkpt>
      <trkpt lat="46.9660360" lon="6.4671550">
        <ele>1055.8</ele>
        <time>2022-07-22T09:42:45Z</time>
      </trkpt>
      <trkpt lat="46.9660080" lon="6.4670470">
        <ele>1055.6</ele>
        <time>2022-07-22T09:42:48Z</time>
      </trkpt>
      <trkpt lat="46.9659960" lon="6.4669980">
        <ele>1055.6</ele>
        <time>2022-07-22T09:42:49Z</time>
      </trkpt>
      <trkpt lat="46.9658940" lon="6.4667320">
        <ele>1055.6</ele>
        <time>2022-07-22T09:42:55Z</time>
      </trkpt>
      <trkpt lat="46.9657930" lon="6.4666210">
        <ele>1055.0</ele>
        <time>2022-07-22T09:43:01Z</time>
      </trkpt>
      <trkpt lat="46.9657630" lon="6.4666100">
        <ele>1054.6</ele>
        <time>2022-07-22T09:43:04Z</time>
      </trkpt>
      <trkpt lat="46.9657620" lon="6.4666090">
        <ele>1054.4</ele>
        <time>2022-07-22T09:43:05Z</time>
      </trkpt>
      <trkpt lat="46.9657000" lon="6.4664720">
        <ele>1054.2</ele>
        <time>2022-07-22T09:43:25Z</time>
      </trkpt>
      <trkpt lat="46.9656680" lon="6.4664020">
        <ele>1054.2</ele>
        <time>2022-07-22T09:43:28Z</time>
      </trkpt>
      <trkpt lat="46.9654950" lon="6.4661760">
        <ele>1054.4</ele>
        <time>2022-07-22T09:43:38Z</time>
      </trkpt>
      <trkpt lat="46.9653130" lon="6.4659530">
        <ele>1054.4</ele>
        <time>2022-07-22T09:43:48Z</time>
      </trkpt>
      <trkpt lat="46.9653060" lon="6.4659470">
        <ele>1054.4</ele>
        <time>2022-07-22T09:43:50Z</time>
      </trkpt>
      <trkpt lat="46.9652800" lon="6.4658830">
        <ele>1054.0</ele>
        <time>2022-07-22T09:44:03Z</time>
      </trkpt>
      <trkpt lat="46.9652660" lon="6.4658560">
        <ele>1054.0</ele>
        <time>2022-07-22T09:44:04Z</time>
      </trkpt>
      <trkpt lat="46.9651830" lon="6.4656300">
        <ele>1054.0</ele>
        <time>2022-07-22T09:44:11Z</time>
      </trkpt>
      <trkpt lat="46.9650950" lon="6.4653350">
        <ele>1054.0</ele>
        <time>2022-07-22T09:44:20Z</time>
      </trkpt>
      <trkpt lat="46.9650210" lon="6.4651050">
        <ele>1054.2</ele>
        <time>2022-07-22T09:44:28Z</time>
      </trkpt>
      <trkpt lat="46.9650030" lon="6.4650540">
        <ele>1054.4</ele>
        <time>2022-07-22T09:44:30Z</time>
      </trkpt>
      <trkpt lat="46.9649150" lon="6.4648690">
        <ele>1055.6</ele>
        <time>2022-07-22T09:44:38Z</time>
      </trkpt>
      <trkpt lat="46.9648970" lon="6.4648460">
        <ele>1055.6</ele>
        <time>2022-07-22T09:44:39Z</time>
      </trkpt>
      <trkpt lat="46.9647270" lon="6.4646460">
        <ele>1056.2</ele>
        <time>2022-07-22T09:44:47Z</time>
      </trkpt>
      <trkpt lat="46.9645490" lon="6.4644820">
        <ele>1056.2</ele>
        <time>2022-07-22T09:44:55Z</time>
      </trkpt>
      <trkpt lat="46.9644540" lon="6.4644050">
        <ele>1056.6</ele>
        <time>2022-07-22T09:45:01Z</time>
      </trkpt>
      <trkpt lat="46.9644280" lon="6.4643760">
        <ele>1056.6</ele>
        <time>2022-07-22T09:45:03Z</time>
      </trkpt>
      <trkpt lat="46.9643980" lon="6.4643140">
        <ele>1057.0</ele>
        <time>2022-07-22T09:45:06Z</time>
      </trkpt>
      <trkpt lat="46.9643460" lon="6.4641890">
        <ele>1057.8</ele>
        <time>2022-07-22T09:45:12Z</time>
      </trkpt>
      <trkpt lat="46.9643040" lon="6.4640960">
        <ele>1058.6</ele>
        <time>2022-07-22T09:45:17Z</time>
      </trkpt>
      <trkpt lat="46.9642940" lon="6.4640790">
        <ele>1058.8</ele>
        <time>2022-07-22T09:45:18Z</time>
      </trkpt>
      <trkpt lat="46.9642370" lon="6.4639760">
        <ele>1059.6</ele>
        <time>2022-07-22T09:45:24Z</time>
      </trkpt>
      <trkpt lat="46.9642230" lon="6.4639360">
        <ele>1059.8</ele>
        <time>2022-07-22T09:45:26Z</time>
      </trkpt>
      <trkpt lat="46.9642050" lon="6.4639000">
        <ele>1060.0</ele>
        <time>2022-07-22T09:45:28Z</time>
      </trkpt>
      <trkpt lat="46.9641960" lon="6.4638850">
        <ele>1060.0</ele>
        <time>2022-07-22T09:45:29Z</time>
      </trkpt>
      <trkpt lat="46.9641040" lon="6.4637810">
        <ele>1060.6</ele>
        <time>2022-07-22T09:45:36Z</time>
      </trkpt>
      <trkpt lat="46.9640930" lon="6.4637670">
        <ele>1060.8</ele>
        <time>2022-07-22T09:45:37Z</time>
      </trkpt>
      <trkpt lat="46.9640210" lon="6.4636770">
        <ele>1061.0</ele>
        <time>2022-07-22T09:45:43Z</time>
      </trkpt>
      <trkpt lat="46.9639110" lon="6.4635260">
        <ele>1061.2</ele>
        <time>2022-07-22T09:45:50Z</time>
      </trkpt>
      <trkpt lat="46.9638340" lon="6.4633790">
        <ele>1061.4</ele>
        <time>2022-07-22T09:45:56Z</time>
      </trkpt>
      <trkpt lat="46.9637680" lon="6.4632880">
        <ele>1061.6</ele>
        <time>2022-07-22T09:46:01Z</time>
      </trkpt>
      <trkpt lat="46.9637560" lon="6.4632620">
        <ele>1061.6</ele>
        <time>2022-07-22T09:46:02Z</time>
      </trkpt>
      <trkpt lat="46.9637170" lon="6.4631640">
        <ele>1061.8</ele>
        <time>2022-07-22T09:46:06Z</time>
      </trkpt>
      <trkpt lat="46.9636930" lon="6.4631090">
        <ele>1062.0</ele>
        <time>2022-07-22T09:46:08Z</time>
      </trkpt>
      <trkpt lat="46.9636770" lon="6.4630810">
        <ele>1062.0</ele>
        <time>2022-07-22T09:46:09Z</time>
      </trkpt>
      <trkpt lat="46.9636220" lon="6.4629420">
        <ele>1062.4</ele>
        <time>2022-07-22T09:46:15Z</time>
      </trkpt>
      <trkpt lat="46.9635630" lon="6.4628530">
        <ele>1063.0</ele>
        <time>2022-07-22T09:46:19Z</time>
      </trkpt>
      <trkpt lat="46.9635050" lon="6.4627620">
        <ele>1063.4</ele>
        <time>2022-07-22T09:46:23Z</time>
      </trkpt>
      <trkpt lat="46.9633940" lon="6.4625890">
        <ele>1064.0</ele>
        <time>2022-07-22T09:46:31Z</time>
      </trkpt>
      <trkpt lat="46.9633680" lon="6.4625520">
        <ele>1064.0</ele>
        <time>2022-07-22T09:46:33Z</time>
      </trkpt>
      <trkpt lat="46.9632920" lon="6.4624440">
        <ele>1064.6</ele>
        <time>2022-07-22T09:46:39Z</time>
      </trkpt>
      <trkpt lat="46.9632130" lon="6.4623400">
        <ele>1065.0</ele>
        <time>2022-07-22T09:46:45Z</time>
      </trkpt>
      <trkpt lat="46.9631840" lon="6.4622910">
        <ele>1065.6</ele>
        <time>2022-07-22T09:46:48Z</time>
      </trkpt>
      <trkpt lat="46.9631450" lon="6.4622230">
        <ele>1066.0</ele>
        <time>2022-07-22T09:46:52Z</time>
      </trkpt>
      <trkpt lat="46.9631020" lon="6.4621160">
        <ele>1067.0</ele>
        <time>2022-07-22T09:46:58Z</time>
      </trkpt>
      <trkpt lat="46.9630960" lon="6.4620970">
        <ele>1067.2</ele>
        <time>2022-07-22T09:46:59Z</time>
      </trkpt>
      <trkpt lat="46.9630620" lon="6.4620040">
        <ele>1068.0</ele>
        <time>2022-07-22T09:47:04Z</time>
      </trkpt>
      <trkpt lat="46.9630580" lon="6.4619950">
        <ele>1068.4</ele>
        <time>2022-07-22T09:47:05Z</time>
      </trkpt>
      <trkpt lat="46.9630550" lon="6.4619880">
        <ele>1068.6</ele>
        <time>2022-07-22T09:47:07Z</time>
      </trkpt>
      <trkpt lat="46.9630110" lon="6.4618890">
        <ele>1069.0</ele>
        <time>2022-07-22T09:47:43Z</time>
      </trkpt>
      <trkpt lat="46.9630000" lon="6.4618710">
        <ele>1069.0</ele>
        <time>2022-07-22T09:47:44Z</time>
      </trkpt>
      <trkpt lat="46.9628980" lon="6.4617180">
        <ele>1069.0</ele>
        <time>2022-07-22T09:47:51Z</time>
      </trkpt>
      <trkpt lat="46.9627210" lon="6.4614890">
        <ele>1069.4</ele>
        <time>2022-07-22T09:48:01Z</time>
      </trkpt>
      <trkpt lat="46.9625650" lon="6.4613040">
        <ele>1069.4</ele>
        <time>2022-07-22T09:48:10Z</time>
      </trkpt>
      <trkpt lat="46.9625080" lon="6.4612430">
        <ele>1069.6</ele>
        <time>2022-07-22T09:48:13Z</time>
      </trkpt>
      <trkpt lat="46.9624730" lon="6.4611500">
        <ele>1069.8</ele>
        <time>2022-07-22T09:48:17Z</time>
      </trkpt>
      <trkpt lat="46.9624360" lon="6.4609880">
        <ele>1070.0</ele>
        <time>2022-07-22T09:48:24Z</time>
      </trkpt>
      <trkpt lat="46.9623750" lon="6.4608660">
        <ele>1070.6</ele>
        <time>2022-07-22T09:48:30Z</time>
      </trkpt>
      <trkpt lat="46.9623250" lon="6.4607850">
        <ele>1071.0</ele>
        <time>2022-07-22T09:48:34Z</time>
      </trkpt>
      <trkpt lat="46.9623040" lon="6.4607670">
        <ele>1071.2</ele>
        <time>2022-07-22T09:48:38Z</time>
      </trkpt>
      <trkpt lat="46.9622790" lon="6.4606080">
        <ele>1071.6</ele>
        <time>2022-07-22T09:49:09Z</time>
      </trkpt>
      <trkpt lat="46.9622720" lon="6.4605530">
        <ele>1071.6</ele>
        <time>2022-07-22T09:49:11Z</time>
      </trkpt>
      <trkpt lat="46.9622500" lon="6.4604940">
        <ele>1071.6</ele>
        <time>2022-07-22T09:49:13Z</time>
      </trkpt>
      <trkpt lat="46.9622360" lon="6.4604630">
        <ele>1071.6</ele>
        <time>2022-07-22T09:49:14Z</time>
      </trkpt>
      <trkpt lat="46.9621010" lon="6.4602140">
        <ele>1071.6</ele>
        <time>2022-07-22T09:49:22Z</time>
      </trkpt>
      <trkpt lat="46.9619370" lon="6.4599630">
        <ele>1071.2</ele>
        <time>2022-07-22T09:49:30Z</time>
      </trkpt>
      <trkpt lat="46.9618410" lon="6.4598320">
        <ele>1071.2</ele>
        <time>2022-07-22T09:49:37Z</time>
      </trkpt>
      <trkpt lat="46.9617320" lon="6.4597100">
        <ele>1072.2</ele>
        <time>2022-07-22T09:49:46Z</time>
      </trkpt>
      <trkpt lat="46.9616920" lon="6.4596810">
        <ele>1072.8</ele>
        <time>2022-07-22T09:49:49Z</time>
      </trkpt>
      <trkpt lat="46.9615860" lon="6.4596180">
        <ele>1073.8</ele>
        <time>2022-07-22T09:49:56Z</time>
      </trkpt>
      <trkpt lat="46.9614500" lon="6.4595500">
        <ele>1075.0</ele>
        <time>2022-07-22T09:50:05Z</time>
      </trkpt>
      <trkpt lat="46.9613200" lon="6.4594660">
        <ele>1075.6</ele>
        <time>2022-07-22T09:50:13Z</time>
      </trkpt>
      <trkpt lat="46.9612230" lon="6.4594090">
        <ele>1076.0</ele>
        <time>2022-07-22T09:50:19Z</time>
      </trkpt>
      <trkpt lat="46.9611490" lon="6.4593390">
        <ele>1076.2</ele>
        <time>2022-07-22T09:50:23Z</time>
      </trkpt>
      <trkpt lat="46.9610040" lon="6.4592250">
        <ele>1076.2</ele>
        <time>2022-07-22T09:50:30Z</time>
      </trkpt>
      <trkpt lat="46.9610010" lon="6.4592220">
        <ele>1076.2</ele>
        <time>2022-07-22T09:50:31Z</time>
      </trkpt>
      <trkpt lat="46.9609590" lon="6.4590540">
        <ele>1074.2</ele>
        <time>2022-07-22T09:51:03Z</time>
      </trkpt>
      <trkpt lat="46.9609390" lon="6.4589800">
        <ele>1073.8</ele>
        <time>2022-07-22T09:51:06Z</time>
      </trkpt>
      <trkpt lat="46.9608630" lon="6.4587280">
        <ele>1073.4</ele>
        <time>2022-07-22T09:51:14Z</time>
      </trkpt>
      <trkpt lat="46.9608270" lon="6.4586220">
        <ele>1073.0</ele>
        <time>2022-07-22T09:51:17Z</time>
      </trkpt>
      <trkpt lat="46.9607640" lon="6.4584070">
        <ele>1072.6</ele>
        <time>2022-07-22T09:51:22Z</time>
      </trkpt>
      <trkpt lat="46.9606480" lon="6.4580590">
        <ele>1072.0</ele>
        <time>2022-07-22T09:51:29Z</time>
      </trkpt>
      <trkpt lat="46.9606330" lon="6.4580150">
        <ele>1071.8</ele>
        <time>2022-07-22T09:51:30Z</time>
      </trkpt>
      <trkpt lat="46.9605860" lon="6.4578400">
        <ele>1071.4</ele>
        <time>2022-07-22T09:51:33Z</time>
      </trkpt>
      <trkpt lat="46.9605730" lon="6.4577650">
        <ele>1071.2</ele>
        <time>2022-07-22T09:51:34Z</time>
      </trkpt>
      <trkpt lat="46.9605550" lon="6.4576930">
        <ele>1071.2</ele>
        <time>2022-07-22T09:51:35Z</time>
      </trkpt>
      <trkpt lat="46.9604970" lon="6.4575860">
        <ele>1071.0</ele>
        <time>2022-07-22T09:51:37Z</time>
      </trkpt>
      <trkpt lat="46.9604530" lon="6.4575520">
        <ele>1071.0</ele>
        <time>2022-07-22T09:51:38Z</time>
      </trkpt>
      <trkpt lat="46.9603530" lon="6.4575020">
        <ele>1070.6</ele>
        <time>2022-07-22T09:51:40Z</time>
      </trkpt>
      <trkpt lat="46.9603060" lon="6.4574840">
        <ele>1070.4</ele>
        <time>2022-07-22T09:51:41Z</time>
      </trkpt>
      <trkpt lat="46.9602110" lon="6.4574480">
        <ele>1069.6</ele>
        <time>2022-07-22T09:51:43Z</time>
      </trkpt>
      <trkpt lat="46.9600820" lon="6.4574020">
        <ele>1068.2</ele>
        <time>2022-07-22T09:51:46Z</time>
      </trkpt>
      <trkpt lat="46.9600040" lon="6.4573750">
        <ele>1067.6</ele>
        <time>2022-07-22T09:51:48Z</time>
      </trkpt>
      <trkpt lat="46.9598700" lon="6.4572610">
        <ele>1067.4</ele>
        <time>2022-07-22T09:51:53Z</time>
      </trkpt>
      <trkpt lat="46.9598090" lon="6.4572370">
        <ele>1067.2</ele>
        <time>2022-07-22T09:51:57Z</time>
      </trkpt>
      <trkpt lat="46.9597920" lon="6.4572480">
        <ele>1067.2</ele>
        <time>2022-07-22T09:51:58Z</time>
      </trkpt>
      <trkpt lat="46.9597730" lon="6.4572630">
        <ele>1067.0</ele>
        <time>2022-07-22T09:51:59Z</time>
      </trkpt>
      <trkpt lat="46.9596620" lon="6.4573180">
        <ele>1066.6</ele>
        <time>2022-07-22T09:52:04Z</time>
      </trkpt>
      <trkpt lat="46.9594930" lon="6.4572820">
        <ele>1066.0</ele>
        <time>2022-07-22T09:52:09Z</time>
      </trkpt>
      <trkpt lat="46.9594660" lon="6.4572610">
        <ele>1066.0</ele>
        <time>2022-07-22T09:52:10Z</time>
      </trkpt>
      <trkpt lat="46.9593720" lon="6.4571530">
        <ele>1065.6</ele>
        <time>2022-07-22T09:52:14Z</time>
      </trkpt>
      <trkpt lat="46.9592240" lon="6.4569400">
        <ele>1064.8</ele>
        <time>2022-07-22T09:52:18Z</time>
      </trkpt>
      <trkpt lat="46.9591060" lon="6.4567510">
        <ele>1063.0</ele>
        <time>2022-07-22T09:52:21Z</time>
      </trkpt>
      <trkpt lat="46.9589900" lon="6.4565490">
        <ele>1062.4</ele>
        <time>2022-07-22T09:52:24Z</time>
      </trkpt>
      <trkpt lat="46.9589160" lon="6.4564210">
        <ele>1061.8</ele>
        <time>2022-07-22T09:52:26Z</time>
      </trkpt>
      <trkpt lat="46.9588030" lon="6.4562290">
        <ele>1060.4</ele>
        <time>2022-07-22T09:52:29Z</time>
      </trkpt>
      <trkpt lat="46.9587690" lon="6.4561610">
        <ele>1059.8</ele>
        <time>2022-07-22T09:52:30Z</time>
      </trkpt>
      <trkpt lat="46.9587300" lon="6.4560940">
        <ele>1059.2</ele>
        <time>2022-07-22T09:52:31Z</time>
      </trkpt>
      <trkpt lat="46.9586080" lon="6.4558560">
        <ele>1058.0</ele>
        <time>2022-07-22T09:52:34Z</time>
      </trkpt>
      <trkpt lat="46.9585720" lon="6.4557620">
        <ele>1057.8</ele>
        <time>2022-07-22T09:52:35Z</time>
      </trkpt>
      <trkpt lat="46.9584990" lon="6.4555730">
        <ele>1056.8</ele>
        <time>2022-07-22T09:52:37Z</time>
      </trkpt>
      <trkpt lat="46.9583950" lon="6.4552920">
        <ele>1055.6</ele>
        <time>2022-07-22T09:52:40Z</time>
      </trkpt>
      <trkpt lat="46.9583250" lon="6.4550950">
        <ele>1054.0</ele>
        <time>2022-07-22T09:52:42Z</time>
      </trkpt>
      <trkpt lat="46.9582670" lon="6.4548950">
        <ele>1052.6</ele>
        <time>2022-07-22T09:52:44Z</time>
      </trkpt>
      <trkpt lat="46.9582170" lon="6.4546960">
        <ele>1051.4</ele>
        <time>2022-07-22T09:52:46Z</time>
      </trkpt>
      <trkpt lat="46.9581970" lon="6.4545970">
        <ele>1051.0</ele>
        <time>2022-07-22T09:52:47Z</time>
      </trkpt>
      <trkpt lat="46.9581630" lon="6.4543820">
        <ele>1050.0</ele>
        <time>2022-07-22T09:52:49Z</time>
      </trkpt>
      <trkpt lat="46.9581530" lon="6.4542660">
        <ele>1049.0</ele>
        <time>2022-07-22T09:52:50Z</time>
      </trkpt>
      <trkpt lat="46.9581480" lon="6.4541470">
        <ele>1048.2</ele>
        <time>2022-07-22T09:52:51Z</time>
      </trkpt>
      <trkpt lat="46.9581490" lon="6.4540310">
        <ele>1047.4</ele>
        <time>2022-07-22T09:52:52Z</time>
      </trkpt>
      <trkpt lat="46.9581600" lon="6.4539240">
        <ele>1046.6</ele>
        <time>2022-07-22T09:52:53Z</time>
      </trkpt>
      <trkpt lat="46.9581710" lon="6.4538220">
        <ele>1046.0</ele>
        <time>2022-07-22T09:52:54Z</time>
      </trkpt>
      <trkpt lat="46.9581820" lon="6.4537270">
        <ele>1045.4</ele>
        <time>2022-07-22T09:52:55Z</time>
      </trkpt>
      <trkpt lat="46.9581910" lon="6.4536360">
        <ele>1044.6</ele>
        <time>2022-07-22T09:52:56Z</time>
      </trkpt>
      <trkpt lat="46.9582110" lon="6.4534700">
        <ele>1043.2</ele>
        <time>2022-07-22T09:52:58Z</time>
      </trkpt>
      <trkpt lat="46.9582330" lon="6.4533180">
        <ele>1042.4</ele>
        <time>2022-07-22T09:53:00Z</time>
      </trkpt>
      <trkpt lat="46.9582450" lon="6.4532500">
        <ele>1042.2</ele>
        <time>2022-07-22T09:53:01Z</time>
      </trkpt>
      <trkpt lat="46.9583190" lon="6.4529450">
        <ele>1041.8</ele>
        <time>2022-07-22T09:53:06Z</time>
      </trkpt>
      <trkpt lat="46.9584090" lon="6.4526000">
        <ele>1041.8</ele>
        <time>2022-07-22T09:53:13Z</time>
      </trkpt>
      <trkpt lat="46.9585010" lon="6.4523030">
        <ele>1042.2</ele>
        <time>2022-07-22T09:53:21Z</time>
      </trkpt>
      <trkpt lat="46.9585610" lon="6.4520720">
        <ele>1043.0</ele>
        <time>2022-07-22T09:53:28Z</time>
      </trkpt>
      <trkpt lat="46.9585670" lon="6.4520440">
        <ele>1043.2</ele>
        <time>2022-07-22T09:53:29Z</time>
      </trkpt>
      <trkpt lat="46.9586070" lon="6.4518790">
        <ele>1044.2</ele>
        <time>2022-07-22T09:53:35Z</time>
      </trkpt>
      <trkpt lat="46.9586420" lon="6.4516730">
        <ele>1045.2</ele>
        <time>2022-07-22T09:53:42Z</time>
      </trkpt>
      <trkpt lat="46.9586470" lon="6.4516380">
        <ele>1045.4</ele>
        <time>2022-07-22T09:53:43Z</time>
      </trkpt>
      <trkpt lat="46.9587000" lon="6.4513710">
        <ele>1046.0</ele>
        <time>2022-07-22T09:53:50Z</time>
      </trkpt>
      <trkpt lat="46.9587750" lon="6.4510200">
        <ele>1046.0</ele>
        <time>2022-07-22T09:53:57Z</time>
      </trkpt>
      <trkpt lat="46.9588360" lon="6.4506910">
        <ele>1045.6</ele>
        <time>2022-07-22T09:54:03Z</time>
      </trkpt>
      <trkpt lat="46.9588810" lon="6.4504640">
        <ele>1044.2</ele>
        <time>2022-07-22T09:54:08Z</time>
      </trkpt>
      <trkpt lat="46.9588800" lon="6.4503720">
        <ele>1043.0</ele>
        <time>2022-07-22T09:54:11Z</time>
      </trkpt>
      <trkpt lat="46.9588650" lon="6.4503500">
        <ele>1042.6</ele>
        <time>2022-07-22T09:54:12Z</time>
      </trkpt>
      <trkpt lat="46.9587850" lon="6.4503460">
        <ele>1041.8</ele>
        <time>2022-07-22T09:54:15Z</time>
      </trkpt>
      <trkpt lat="46.9587500" lon="6.4503500">
        <ele>1041.4</ele>
        <time>2022-07-22T09:54:16Z</time>
      </trkpt>
      <trkpt lat="46.9586900" lon="6.4503670">
        <ele>1040.6</ele>
        <time>2022-07-22T09:54:18Z</time>
      </trkpt>
      <trkpt lat="46.9586150" lon="6.4503830">
        <ele>1040.0</ele>
        <time>2022-07-22T09:54:20Z</time>
      </trkpt>
      <trkpt lat="46.9584640" lon="6.4503620">
        <ele>1039.4</ele>
        <time>2022-07-22T09:54:23Z</time>
      </trkpt>
      <trkpt lat="46.9584100" lon="6.4503360">
        <ele>1039.4</ele>
        <time>2022-07-22T09:54:24Z</time>
      </trkpt>
      <trkpt lat="46.9583570" lon="6.4503050">
        <ele>1039.0</ele>
        <time>2022-07-22T09:54:25Z</time>
      </trkpt>
      <trkpt lat="46.9582540" lon="6.4502440">
        <ele>1038.2</ele>
        <time>2022-07-22T09:54:27Z</time>
      </trkpt>
      <trkpt lat="46.9580740" lon="6.4501290">
        <ele>1037.0</ele>
        <time>2022-07-22T09:54:31Z</time>
      </trkpt>
      <trkpt lat="46.9577070" lon="6.4498560">
        <ele>1036.4</ele>
        <time>2022-07-22T09:54:40Z</time>
      </trkpt>
      <trkpt lat="46.9573810" lon="6.4495500">
        <ele>1036.6</ele>
        <time>2022-07-22T09:54:48Z</time>
      </trkpt>
      <trkpt lat="46.9571130" lon="6.4493160">
        <ele>1036.6</ele>
        <time>2022-07-22T09:54:53Z</time>
      </trkpt>
      <trkpt lat="46.9568490" lon="6.4491600">
        <ele>1035.8</ele>
        <time>2022-07-22T09:54:57Z</time>
      </trkpt>
      <trkpt lat="46.9567040" lon="6.4490860">
        <ele>1035.2</ele>
        <time>2022-07-22T09:54:59Z</time>
      </trkpt>
      <trkpt lat="46.9565450" lon="6.4490170">
        <ele>1034.6</ele>
        <time>2022-07-22T09:55:01Z</time>
      </trkpt>
      <trkpt lat="46.9562160" lon="6.4488880">
        <ele>1033.6</ele>
        <time>2022-07-22T09:55:05Z</time>
      </trkpt>
      <trkpt lat="46.9560590" lon="6.4488310">
        <ele>1033.2</ele>
        <time>2022-07-22T09:55:07Z</time>
      </trkpt>
      <trkpt lat="46.9558490" lon="6.4487640">
        <ele>1032.4</ele>
        <time>2022-07-22T09:55:10Z</time>
      </trkpt>
      <trkpt lat="46.9557260" lon="6.4487410">
        <ele>1031.4</ele>
        <time>2022-07-22T09:55:12Z</time>
      </trkpt>
      <trkpt lat="46.9556680" lon="6.4487420">
        <ele>1030.8</ele>
        <time>2022-07-22T09:55:13Z</time>
      </trkpt>
      <trkpt lat="46.9555590" lon="6.4487790">
        <ele>1029.6</ele>
        <time>2022-07-22T09:55:15Z</time>
      </trkpt>
      <trkpt lat="46.9555090" lon="6.4488070">
        <ele>1029.2</ele>
        <time>2022-07-22T09:55:16Z</time>
      </trkpt>
      <trkpt lat="46.9553540" lon="6.4489770">
        <ele>1029.0</ele>
        <time>2022-07-22T09:55:20Z</time>
      </trkpt>
      <trkpt lat="46.9553030" lon="6.4490730">
        <ele>1029.0</ele>
        <time>2022-07-22T09:55:22Z</time>
      </trkpt>
      <trkpt lat="46.9552140" lon="6.4492390">
        <ele>1029.0</ele>
        <time>2022-07-22T09:55:26Z</time>
      </trkpt>
      <trkpt lat="46.9550550" lon="6.4494530">
        <ele>1029.8</ele>
        <time>2022-07-22T09:55:33Z</time>
      </trkpt>
      <trkpt lat="46.9549590" lon="6.4495230">
        <ele>1030.6</ele>
        <time>2022-07-22T09:55:37Z</time>
      </trkpt>
      <trkpt lat="46.9548360" lon="6.4495750">
        <ele>1031.4</ele>
        <time>2022-07-22T09:55:42Z</time>
      </trkpt>
      <trkpt lat="46.9548100" lon="6.4495810">
        <ele>1031.6</ele>
        <time>2022-07-22T09:55:43Z</time>
      </trkpt>
      <trkpt lat="46.9546250" lon="6.4496000">
        <ele>1032.8</ele>
        <time>2022-07-22T09:55:50Z</time>
      </trkpt>
      <trkpt lat="46.9545740" lon="6.4495940">
        <ele>1033.0</ele>
        <time>2022-07-22T09:55:52Z</time>
      </trkpt>
      <trkpt lat="46.9544340" lon="6.4495590">
        <ele>1033.8</ele>
        <time>2022-07-22T09:55:58Z</time>
      </trkpt>
      <trkpt lat="46.9543720" lon="6.4495270">
        <ele>1034.0</ele>
        <time>2022-07-22T09:56:01Z</time>
      </trkpt>
      <trkpt lat="46.9542240" lon="6.4494700">
        <ele>1034.8</ele>
        <time>2022-07-22T09:56:08Z</time>
      </trkpt>
      <trkpt lat="46.9541800" lon="6.4494570">
        <ele>1035.2</ele>
        <time>2022-07-22T09:56:10Z</time>
      </trkpt>
      <trkpt lat="46.9539810" lon="6.4494410">
        <ele>1035.8</ele>
        <time>2022-07-22T09:56:19Z</time>
      </trkpt>
      <trkpt lat="46.9539580" lon="6.4494420">
        <ele>1036.0</ele>
        <time>2022-07-22T09:56:20Z</time>
      </trkpt>
      <trkpt lat="46.9537530" lon="6.4494600">
        <ele>1037.0</ele>
        <time>2022-07-22T09:56:29Z</time>
      </trkpt>
      <trkpt lat="46.9535910" lon="6.4494750">
        <ele>1038.0</ele>
        <time>2022-07-22T09:56:36Z</time>
      </trkpt>
      <trkpt lat="46.9535690" lon="6.4494780">
        <ele>1038.2</ele>
        <time>2022-07-22T09:56:37Z</time>
      </trkpt>
      <trkpt lat="46.9534370" lon="6.4494830">
        <ele>1039.2</ele>
        <time>2022-07-22T09:56:43Z</time>
      </trkpt>
      <trkpt lat="46.9533580" lon="6.4494920">
        <ele>1039.6</ele>
        <time>2022-07-22T09:56:47Z</time>
      </trkpt>
      <trkpt lat="46.9532400" lon="6.4495090">
        <ele>1040.4</ele>
        <time>2022-07-22T09:56:53Z</time>
      </trkpt>
      <trkpt lat="46.9531780" lon="6.4495280">
        <ele>1040.6</ele>
        <time>2022-07-22T09:56:56Z</time>
      </trkpt>
      <trkpt lat="46.9530290" lon="6.4495850">
        <ele>1041.6</ele>
        <time>2022-07-22T09:57:03Z</time>
      </trkpt>
      <trkpt lat="46.9530080" lon="6.4495960">
        <ele>1041.6</ele>
        <time>2022-07-22T09:57:04Z</time>
      </trkpt>
      <trkpt lat="46.9528190" lon="6.4496730">
        <ele>1042.8</ele>
        <time>2022-07-22T09:57:12Z</time>
      </trkpt>
      <trkpt lat="46.9527910" lon="6.4496770">
        <ele>1042.8</ele>
        <time>2022-07-22T09:57:13Z</time>
      </trkpt>
      <trkpt lat="46.9525960" lon="6.4496490">
        <ele>1043.0</ele>
        <time>2022-07-22T09:57:19Z</time>
      </trkpt>
      <trkpt lat="46.9525590" lon="6.4496300">
        <ele>1043.0</ele>
        <time>2022-07-22T09:57:20Z</time>
      </trkpt>
      <trkpt lat="46.9524720" lon="6.4495720">
        <ele>1043.0</ele>
        <time>2022-07-22T09:57:23Z</time>
      </trkpt>
      <trkpt lat="46.9524120" lon="6.4495270">
        <ele>1042.6</ele>
        <time>2022-07-22T09:57:28Z</time>
      </trkpt>
      <trkpt lat="46.9524090" lon="6.4495280">
        <ele>1042.4</ele>
        <time>2022-07-22T09:57:30Z</time>
      </trkpt>
      <trkpt lat="46.9523450" lon="6.4493320">
        <ele>1040.8</ele>
        <time>2022-07-22T09:58:08Z</time>
      </trkpt>
      <trkpt lat="46.9523270" lon="6.4492990">
        <ele>1040.6</ele>
        <time>2022-07-22T09:58:09Z</time>
      </trkpt>
      <trkpt lat="46.9522260" lon="6.4491510">
        <ele>1040.6</ele>
        <time>2022-07-22T09:58:13Z</time>
      </trkpt>
      <trkpt lat="46.9521260" lon="6.4490190">
        <ele>1040.4</ele>
        <time>2022-07-22T09:58:16Z</time>
      </trkpt>
      <trkpt lat="46.9520870" lon="6.4489350">
        <ele>1040.0</ele>
        <time>2022-07-22T09:58:18Z</time>
      </trkpt>
      <trkpt lat="46.9520630" lon="6.4488620">
        <ele>1039.6</ele>
        <time>2022-07-22T09:58:20Z</time>
      </trkpt>
      <trkpt lat="46.9520360" lon="6.4487680">
        <ele>1039.0</ele>
        <time>2022-07-22T09:58:24Z</time>
      </trkpt>
      <trkpt lat="46.9520200" lon="6.4486890">
        <ele>1038.6</ele>
        <time>2022-07-22T09:58:27Z</time>
      </trkpt>
      <trkpt lat="46.9519700" lon="6.4485600">
        <ele>1038.2</ele>
        <time>2022-07-22T09:58:31Z</time>
      </trkpt>
      <trkpt lat="46.9518790" lon="6.4484270">
        <ele>1038.0</ele>
        <time>2022-07-22T09:58:35Z</time>
      </trkpt>
      <trkpt lat="46.9518060" lon="6.4483250">
        <ele>1037.4</ele>
        <time>2022-07-22T09:58:38Z</time>
      </trkpt>
      <trkpt lat="46.9517380" lon="6.4482350">
        <ele>1037.0</ele>
        <time>2022-07-22T09:58:41Z</time>
      </trkpt>
      <trkpt lat="46.9516750" lon="6.4481050">
        <ele>1036.6</ele>
        <time>2022-07-22T09:58:45Z</time>
      </trkpt>
      <trkpt lat="46.9516360" lon="6.4480350">
        <ele>1036.4</ele>
        <time>2022-07-22T09:58:47Z</time>
      </trkpt>
      <trkpt lat="46.9515030" lon="6.4477840">
        <ele>1036.4</ele>
        <time>2022-07-22T09:58:54Z</time>
      </trkpt>
      <trkpt lat="46.9513700" lon="6.4475200">
        <ele>1036.2</ele>
        <time>2022-07-22T09:59:00Z</time>
      </trkpt>
      <trkpt lat="46.9512760" lon="6.4473250">
        <ele>1035.6</ele>
        <time>2022-07-22T09:59:06Z</time>
      </trkpt>
      <trkpt lat="46.9512650" lon="6.4473000">
        <ele>1035.6</ele>
        <time>2022-07-22T09:59:07Z</time>
      </trkpt>
      <trkpt lat="46.9512500" lon="6.4472660">
        <ele>1035.4</ele>
        <time>2022-07-22T09:59:11Z</time>
      </trkpt>
      <trkpt lat="46.9512470" lon="6.4472460">
        <ele>1035.4</ele>
        <time>2022-07-22T09:59:14Z</time>
      </trkpt>
      <trkpt lat="46.9511380" lon="6.4470360">
        <ele>1034.6</ele>
        <time>2022-07-22T09:59:38Z</time>
      </trkpt>
      <trkpt lat="46.9511300" lon="6.4470020">
        <ele>1034.8</ele>
        <time>2022-07-22T09:59:39Z</time>
      </trkpt>
      <trkpt lat="46.9511200" lon="6.4469650">
        <ele>1034.8</ele>
        <time>2022-07-22T09:59:40Z</time>
      </trkpt>
      <trkpt lat="46.9510200" lon="6.4466620">
        <ele>1034.8</ele>
        <time>2022-07-22T09:59:48Z</time>
      </trkpt>
      <trkpt lat="46.9510230" lon="6.4465230">
        <ele>1034.8</ele>
        <time>2022-07-22T09:59:51Z</time>
      </trkpt>
      <trkpt lat="46.9510460" lon="6.4464790">
        <ele>1034.8</ele>
        <time>2022-07-22T09:59:52Z</time>
      </trkpt>
      <trkpt lat="46.9511670" lon="6.4462800">
        <ele>1035.0</ele>
        <time>2022-07-22T09:59:57Z</time>
      </trkpt>
      <trkpt lat="46.9511790" lon="6.4462200">
        <ele>1035.0</ele>
        <time>2022-07-22T09:59:58Z</time>
      </trkpt>
      <trkpt lat="46.9511730" lon="6.4460410">
        <ele>1035.0</ele>
        <time>2022-07-22T10:00:01Z</time>
      </trkpt>
      <trkpt lat="46.9510930" lon="6.4458290">
        <ele>1035.0</ele>
        <time>2022-07-22T10:00:06Z</time>
      </trkpt>
      <trkpt lat="46.9510110" lon="6.4456570">
        <ele>1035.2</ele>
        <time>2022-07-22T10:00:13Z</time>
      </trkpt>
      <trkpt lat="46.9509380" lon="6.4454930">
        <ele>1035.8</ele>
        <time>2022-07-22T10:00:20Z</time>
      </trkpt>
      <trkpt lat="46.9509140" lon="6.4454380">
        <ele>1036.2</ele>
        <time>2022-07-22T10:00:22Z</time>
      </trkpt>
      <trkpt lat="46.9508080" lon="6.4452190">
        <ele>1037.0</ele>
        <time>2022-07-22T10:00:28Z</time>
      </trkpt>
      <trkpt lat="46.9506660" lon="6.4448940">
        <ele>1037.0</ele>
        <time>2022-07-22T10:00:34Z</time>
      </trkpt>
      <trkpt lat="46.9504420" lon="6.4444180">
        <ele>1036.4</ele>
        <time>2022-07-22T10:00:41Z</time>
      </trkpt>
      <trkpt lat="46.9503330" lon="6.4441910">
        <ele>1035.8</ele>
        <time>2022-07-22T10:00:44Z</time>
      </trkpt>
      <trkpt lat="46.9501390" lon="6.4438050">
        <ele>1034.6</ele>
        <time>2022-07-22T10:00:49Z</time>
      </trkpt>
      <trkpt lat="46.9501040" lon="6.4437300">
        <ele>1034.4</ele>
        <time>2022-07-22T10:00:50Z</time>
      </trkpt>
      <trkpt lat="46.9499800" lon="6.4434470">
        <ele>1033.4</ele>
        <time>2022-07-22T10:00:54Z</time>
      </trkpt>
      <trkpt lat="46.9499560" lon="6.4433840">
        <ele>1033.2</ele>
        <time>2022-07-22T10:00:55Z</time>
      </trkpt>
      <trkpt lat="46.9499440" lon="6.4433270">
        <ele>1033.0</ele>
        <time>2022-07-22T10:00:56Z</time>
      </trkpt>
      <trkpt lat="46.9499520" lon="6.4432290">
        <ele>1032.4</ele>
        <time>2022-07-22T10:00:58Z</time>
      </trkpt>
      <trkpt lat="46.9499650" lon="6.4431830">
        <ele>1032.0</ele>
        <time>2022-07-22T10:00:59Z</time>
      </trkpt>
      <trkpt lat="46.9499830" lon="6.4431370">
        <ele>1031.8</ele>
        <time>2022-07-22T10:01:00Z</time>
      </trkpt>
      <trkpt lat="46.9500720" lon="6.4428120">
        <ele>1031.4</ele>
        <time>2022-07-22T10:01:06Z</time>
      </trkpt>
      <trkpt lat="46.9502070" lon="6.4425270">
        <ele>1031.4</ele>
        <time>2022-07-22T10:01:11Z</time>
      </trkpt>
      <trkpt lat="46.9502620" lon="6.4424190">
        <ele>1031.4</ele>
        <time>2022-07-22T10:01:13Z</time>
      </trkpt>
      <trkpt lat="46.9503650" lon="6.4422180">
        <ele>1031.0</ele>
        <time>2022-07-22T10:01:17Z</time>
      </trkpt>
      <trkpt lat="46.9505340" lon="6.4418580">
        <ele>1030.6</ele>
        <time>2022-07-22T10:01:23Z</time>
      </trkpt>
      <trkpt lat="46.9505740" lon="6.4418080">
        <ele>1030.6</ele>
        <time>2022-07-22T10:01:24Z</time>
      </trkpt>
      <trkpt lat="46.9506670" lon="6.4417510">
        <ele>1030.4</ele>
        <time>2022-07-22T10:01:26Z</time>
      </trkpt>
      <trkpt lat="46.9507610" lon="6.4417160">
        <ele>1030.2</ele>
        <time>2022-07-22T10:01:28Z</time>
      </trkpt>
      <trkpt lat="46.9508900" lon="6.4416410">
        <ele>1029.6</ele>
        <time>2022-07-22T10:01:31Z</time>
      </trkpt>
      <trkpt lat="46.9509290" lon="6.4416040">
        <ele>1029.4</ele>
        <time>2022-07-22T10:01:32Z</time>
      </trkpt>
      <trkpt lat="46.9509960" lon="6.4415070">
        <ele>1029.0</ele>
        <time>2022-07-22T10:01:34Z</time>
      </trkpt>
      <trkpt lat="46.9510310" lon="6.4413720">
        <ele>1028.8</ele>
        <time>2022-07-22T10:01:36Z</time>
      </trkpt>
      <trkpt lat="46.9510100" lon="6.4411340">
        <ele>1028.4</ele>
        <time>2022-07-22T10:01:39Z</time>
      </trkpt>
      <trkpt lat="46.9509990" lon="6.4410550">
        <ele>1028.4</ele>
        <time>2022-07-22T10:01:40Z</time>
      </trkpt>
      <trkpt lat="46.9509990" lon="6.4409750">
        <ele>1028.4</ele>
        <time>2022-07-22T10:01:41Z</time>
      </trkpt>
      <trkpt lat="46.9510290" lon="6.4408230">
        <ele>1028.2</ele>
        <time>2022-07-22T10:01:43Z</time>
      </trkpt>
      <trkpt lat="46.9510970" lon="6.4406140">
        <ele>1028.0</ele>
        <time>2022-07-22T10:01:46Z</time>
      </trkpt>
      <trkpt lat="46.9511650" lon="6.4404140">
        <ele>1027.0</ele>
        <time>2022-07-22T10:01:49Z</time>
      </trkpt>
      <trkpt lat="46.9511860" lon="6.4403490">
        <ele>1026.8</ele>
        <time>2022-07-22T10:01:50Z</time>
      </trkpt>
      <trkpt lat="46.9512530" lon="6.4400690">
        <ele>1026.2</ele>
        <time>2022-07-22T10:01:55Z</time>
      </trkpt>
      <trkpt lat="46.9512320" lon="6.4398580">
        <ele>1026.2</ele>
        <time>2022-07-22T10:02:00Z</time>
      </trkpt>
      <trkpt lat="46.9511800" lon="6.4396760">
        <ele>1026.6</ele>
        <time>2022-07-22T10:02:06Z</time>
      </trkpt>
      <trkpt lat="46.9511050" lon="6.4394190">
        <ele>1027.6</ele>
        <time>2022-07-22T10:02:13Z</time>
      </trkpt>
      <trkpt lat="46.9510080" lon="6.4391860">
        <ele>1027.8</ele>
        <time>2022-07-22T10:02:19Z</time>
      </trkpt>
      <trkpt lat="46.9509640" lon="6.4390670">
        <ele>1027.8</ele>
        <time>2022-07-22T10:02:24Z</time>
      </trkpt>
      <trkpt lat="46.9509630" lon="6.4390630">
        <ele>1027.6</ele>
        <time>2022-07-22T10:02:25Z</time>
      </trkpt>
      <trkpt lat="46.9508960" lon="6.4388400">
        <ele>1025.4</ele>
        <time>2022-07-22T10:03:01Z</time>
      </trkpt>
      <trkpt lat="46.9508860" lon="6.4387890">
        <ele>1025.4</ele>
        <time>2022-07-22T10:03:03Z</time>
      </trkpt>
      <trkpt lat="46.9508250" lon="6.4385290">
        <ele>1025.4</ele>
        <time>2022-07-22T10:03:10Z</time>
      </trkpt>
      <trkpt lat="46.9507320" lon="6.4382260">
        <ele>1025.6</ele>
        <time>2022-07-22T10:03:17Z</time>
      </trkpt>
      <trkpt lat="46.9506780" lon="6.4378940">
        <ele>1025.6</ele>
        <time>2022-07-22T10:03:24Z</time>
      </trkpt>
      <trkpt lat="46.9506700" lon="6.4375590">
        <ele>1025.4</ele>
        <time>2022-07-22T10:03:32Z</time>
      </trkpt>
      <trkpt lat="46.9506190" lon="6.4373510">
        <ele>1025.6</ele>
        <time>2022-07-22T10:03:41Z</time>
      </trkpt>
      <trkpt lat="46.9505810" lon="6.4372210">
        <ele>1026.4</ele>
        <time>2022-07-22T10:03:47Z</time>
      </trkpt>
      <trkpt lat="46.9505840" lon="6.4371360">
        <ele>1027.0</ele>
        <time>2022-07-22T10:03:52Z</time>
      </trkpt>
      <trkpt lat="46.9505870" lon="6.4371210">
        <ele>1027.2</ele>
        <time>2022-07-22T10:03:53Z</time>
      </trkpt>
      <trkpt lat="46.9505970" lon="6.4370760">
        <ele>1027.6</ele>
        <time>2022-07-22T10:03:56Z</time>
      </trkpt>
      <trkpt lat="46.9506050" lon="6.4370200">
        <ele>1028.0</ele>
        <time>2022-07-22T10:04:00Z</time>
      </trkpt>
      <trkpt lat="46.9506190" lon="6.4369520">
        <ele>1028.8</ele>
        <time>2022-07-22T10:04:05Z</time>
      </trkpt>
      <trkpt lat="46.9506260" lon="6.4369090">
        <ele>1029.2</ele>
        <time>2022-07-22T10:04:08Z</time>
      </trkpt>
      <trkpt lat="46.9506370" lon="6.4368690">
        <ele>1029.8</ele>
        <time>2022-07-22T10:04:11Z</time>
      </trkpt>
      <trkpt lat="46.9506480" lon="6.4367670">
        <ele>1030.6</ele>
        <time>2022-07-22T10:04:17Z</time>
      </trkpt>
      <trkpt lat="46.9506610" lon="6.4366880">
        <ele>1031.0</ele>
        <time>2022-07-22T10:04:22Z</time>
      </trkpt>
      <trkpt lat="46.9506660" lon="6.4366280">
        <ele>1031.4</ele>
        <time>2022-07-22T10:04:26Z</time>
      </trkpt>
      <trkpt lat="46.9506780" lon="6.4365340">
        <ele>1032.0</ele>
        <time>2022-07-22T10:04:32Z</time>
      </trkpt>
      <trkpt lat="46.9506820" lon="6.4364850">
        <ele>1032.6</ele>
        <time>2022-07-22T10:04:35Z</time>
      </trkpt>
      <trkpt lat="46.9506930" lon="6.4364080">
        <ele>1033.2</ele>
        <time>2022-07-22T10:04:40Z</time>
      </trkpt>
      <trkpt lat="46.9506990" lon="6.4363190">
        <ele>1033.6</ele>
        <time>2022-07-22T10:04:45Z</time>
      </trkpt>
      <trkpt lat="46.9507160" lon="6.4361650">
        <ele>1034.2</ele>
        <time>2022-07-22T10:04:54Z</time>
      </trkpt>
      <trkpt lat="46.9507190" lon="6.4361480">
        <ele>1034.4</ele>
        <time>2022-07-22T10:04:55Z</time>
      </trkpt>
      <trkpt lat="46.9507410" lon="6.4359910">
        <ele>1035.0</ele>
        <time>2022-07-22T10:05:04Z</time>
      </trkpt>
      <trkpt lat="46.9507500" lon="6.4359410">
        <ele>1035.2</ele>
        <time>2022-07-22T10:05:07Z</time>
      </trkpt>
      <trkpt lat="46.9507590" lon="6.4358500">
        <ele>1036.2</ele>
        <time>2022-07-22T10:05:13Z</time>
      </trkpt>
      <trkpt lat="46.9507620" lon="6.4358180">
        <ele>1036.4</ele>
        <time>2022-07-22T10:05:15Z</time>
      </trkpt>
      <trkpt lat="46.9507690" lon="6.4356750">
        <ele>1037.6</ele>
        <time>2022-07-22T10:05:23Z</time>
      </trkpt>
      <trkpt lat="46.9507710" lon="6.4356540">
        <ele>1037.6</ele>
        <time>2022-07-22T10:05:24Z</time>
      </trkpt>
      <trkpt lat="46.9507780" lon="6.4355430">
        <ele>1038.8</ele>
        <time>2022-07-22T10:05:29Z</time>
      </trkpt>
      <trkpt lat="46.9507910" lon="6.4354440">
        <ele>1039.0</ele>
        <time>2022-07-22T10:05:33Z</time>
      </trkpt>
      <trkpt lat="46.9508160" lon="6.4352000">
        <ele>1039.2</ele>
        <time>2022-07-22T10:05:41Z</time>
      </trkpt>
      <trkpt lat="46.9508300" lon="6.4350260">
        <ele>1039.8</ele>
        <time>2022-07-22T10:05:49Z</time>
      </trkpt>
      <trkpt lat="46.9508430" lon="6.4348630">
        <ele>1040.6</ele>
        <time>2022-07-22T10:05:58Z</time>
      </trkpt>
      <trkpt lat="46.9508450" lon="6.4348240">
        <ele>1040.8</ele>
        <time>2022-07-22T10:06:00Z</time>
      </trkpt>
      <trkpt lat="46.9508360" lon="6.4347140">
        <ele>1041.6</ele>
        <time>2022-07-22T10:06:06Z</time>
      </trkpt>
      <trkpt lat="46.9508270" lon="6.4346620">
        <ele>1041.8</ele>
        <time>2022-07-22T10:06:09Z</time>
      </trkpt>
      <trkpt lat="46.9508200" lon="6.4345810">
        <ele>1043.0</ele>
        <time>2022-07-22T10:06:14Z</time>
      </trkpt>
      <trkpt lat="46.9508240" lon="6.4344780">
        <ele>1044.2</ele>
        <time>2022-07-22T10:06:21Z</time>
      </trkpt>
      <trkpt lat="46.9508250" lon="6.4344780">
        <ele>1044.2</ele>
        <time>2022-07-22T10:06:22Z</time>
      </trkpt>
      <trkpt lat="46.9508240" lon="6.4344210">
        <ele>1044.8</ele>
        <time>2022-07-22T10:08:21Z</time>
      </trkpt>
      <trkpt lat="46.9508240" lon="6.4343320">
        <ele>1044.8</ele>
        <time>2022-07-22T10:08:24Z</time>
      </trkpt>
      <trkpt lat="46.9508330" lon="6.4340130">
        <ele>1044.4</ele>
        <time>2022-07-22T10:08:33Z</time>
      </trkpt>
      <trkpt lat="46.9508150" lon="6.4337490">
        <ele>1044.2</ele>
        <time>2022-07-22T10:08:40Z</time>
      </trkpt>
      <trkpt lat="46.9507610" lon="6.4335340">
        <ele>1044.2</ele>
        <time>2022-07-22T10:08:47Z</time>
      </trkpt>
      <trkpt lat="46.9506930" lon="6.4333790">
        <ele>1045.2</ele>
        <time>2022-07-22T10:08:55Z</time>
      </trkpt>
      <trkpt lat="46.9506860" lon="6.4333630">
        <ele>1045.4</ele>
        <time>2022-07-22T10:08:56Z</time>
      </trkpt>
      <trkpt lat="46.9506380" lon="6.4332640">
        <ele>1046.2</ele>
        <time>2022-07-22T10:09:03Z</time>
      </trkpt>
      <trkpt lat="46.9506310" lon="6.4332510">
        <ele>1046.4</ele>
        <time>2022-07-22T10:09:04Z</time>
      </trkpt>
      <trkpt lat="46.9505760" lon="6.4331460">
        <ele>1047.2</ele>
        <time>2022-07-22T10:09:12Z</time>
      </trkpt>
      <trkpt lat="46.9505290" lon="6.4330510">
        <ele>1048.4</ele>
        <time>2022-07-22T10:09:19Z</time>
      </trkpt>
      <trkpt lat="46.9505110" lon="6.4330260">
        <ele>1048.6</ele>
        <time>2022-07-22T10:09:21Z</time>
      </trkpt>
      <trkpt lat="46.9504330" lon="6.4328990">
        <ele>1049.2</ele>
        <time>2022-07-22T10:09:28Z</time>
      </trkpt>
      <trkpt lat="46.9503970" lon="6.4328340">
        <ele>1049.4</ele>
        <time>2022-07-22T10:09:31Z</time>
      </trkpt>
      <trkpt lat="46.9502770" lon="6.4326370">
        <ele>1050.4</ele>
        <time>2022-07-22T10:09:40Z</time>
      </trkpt>
      <trkpt lat="46.9501330" lon="6.4324250">
        <ele>1050.8</ele>
        <time>2022-07-22T10:09:51Z</time>
      </trkpt>
      <trkpt lat="46.9500780" lon="6.4323230">
        <ele>1051.6</ele>
        <time>2022-07-22T10:09:57Z</time>
      </trkpt>
      <trkpt lat="46.9500520" lon="6.4322670">
        <ele>1051.8</ele>
        <time>2022-07-22T10:10:00Z</time>
      </trkpt>
      <trkpt lat="46.9500470" lon="6.4322450">
        <ele>1052.0</ele>
        <time>2022-07-22T10:10:01Z</time>
      </trkpt>
      <trkpt lat="46.9500290" lon="6.4321620">
        <ele>1052.8</ele>
        <time>2022-07-22T10:10:05Z</time>
      </trkpt>
      <trkpt lat="46.9500290" lon="6.4321230">
        <ele>1053.2</ele>
        <time>2022-07-22T10:10:07Z</time>
      </trkpt>
      <trkpt lat="46.9500290" lon="6.4321020">
        <ele>1053.6</ele>
        <time>2022-07-22T10:10:09Z</time>
      </trkpt>
      <trkpt lat="46.9500290" lon="6.4321020">
        <ele>1053.8</ele>
        <time>2022-07-22T10:10:10Z</time>
      </trkpt>
      <trkpt lat="46.9500870" lon="6.4317490">
        <ele>1057.4</ele>
        <time>2022-07-22T10:11:08Z</time>
      </trkpt>
      <trkpt lat="46.9500920" lon="6.4317060">
        <ele>1057.4</ele>
        <time>2022-07-22T10:11:10Z</time>
      </trkpt>
      <trkpt lat="46.9500980" lon="6.4315350">
        <ele>1057.8</ele>
        <time>2022-07-22T10:11:18Z</time>
      </trkpt>
      <trkpt lat="46.9500980" lon="6.4314210">
        <ele>1058.4</ele>
        <time>2022-07-22T10:11:23Z</time>
      </trkpt>
      <trkpt lat="46.9501070" lon="6.4313840">
        <ele>1058.6</ele>
        <time>2022-07-22T10:11:25Z</time>
      </trkpt>
      <trkpt lat="46.9501130" lon="6.4312160">
        <ele>1059.4</ele>
        <time>2022-07-22T10:11:33Z</time>
      </trkpt>
      <trkpt lat="46.9501210" lon="6.4310960">
        <ele>1060.6</ele>
        <time>2022-07-22T10:11:39Z</time>
      </trkpt>
      <trkpt lat="46.9501230" lon="6.4310410">
        <ele>1060.8</ele>
        <time>2022-07-22T10:11:42Z</time>
      </trkpt>
      <trkpt lat="46.9501270" lon="6.4309260">
        <ele>1061.6</ele>
        <time>2022-07-22T10:11:48Z</time>
      </trkpt>
      <trkpt lat="46.9501280" lon="6.4309050">
        <ele>1061.6</ele>
        <time>2022-07-22T10:11:49Z</time>
      </trkpt>
      <trkpt lat="46.9501350" lon="6.4307190">
        <ele>1062.4</ele>
        <time>2022-07-22T10:11:56Z</time>
      </trkpt>
      <trkpt lat="46.9501350" lon="6.4306910">
        <ele>1062.6</ele>
        <time>2022-07-22T10:11:57Z</time>
      </trkpt>
      <trkpt lat="46.9501440" lon="6.4303810">
        <ele>1063.2</ele>
        <time>2022-07-22T10:12:07Z</time>
      </trkpt>
      <trkpt lat="46.9501460" lon="6.4302250">
        <ele>1063.6</ele>
        <time>2022-07-22T10:12:11Z</time>
      </trkpt>
      <trkpt lat="46.9501420" lon="6.4299930">
        <ele>1063.8</ele>
        <time>2022-07-22T10:12:17Z</time>
      </trkpt>
      <trkpt lat="46.9501520" lon="6.4297550">
        <ele>1064.0</ele>
        <time>2022-07-22T10:12:25Z</time>
      </trkpt>
      <trkpt lat="46.9501670" lon="6.4295500">
        <ele>1064.6</ele>
        <time>2022-07-22T10:12:33Z</time>
      </trkpt>
      <trkpt lat="46.9501840" lon="6.4293870">
        <ele>1065.6</ele>
        <time>2022-07-22T10:12:39Z</time>
      </trkpt>
      <trkpt lat="46.9501920" lon="6.4293410">
        <ele>1066.2</ele>
        <time>2022-07-22T10:12:41Z</time>
      </trkpt>
      <trkpt lat="46.9502060" lon="6.4291800">
        <ele>1067.0</ele>
        <time>2022-07-22T10:12:49Z</time>
      </trkpt>
      <trkpt lat="46.9502040" lon="6.4291590">
        <ele>1067.0</ele>
        <time>2022-07-22T10:12:50Z</time>
      </trkpt>
      <trkpt lat="46.9501430" lon="6.4290320">
        <ele>1067.6</ele>
        <time>2022-07-22T10:12:56Z</time>
      </trkpt>
      <trkpt lat="46.9500680" lon="6.4289280">
        <ele>1068.0</ele>
        <time>2022-07-22T10:13:00Z</time>
      </trkpt>
      <trkpt lat="46.9499970" lon="6.4288470">
        <ele>1068.2</ele>
        <time>2022-07-22T10:13:03Z</time>
      </trkpt>
      <trkpt lat="46.9498360" lon="6.4287240">
        <ele>1068.2</ele>
        <time>2022-07-22T10:13:10Z</time>
      </trkpt>
      <trkpt lat="46.9496530" lon="6.4286470">
        <ele>1068.2</ele>
        <time>2022-07-22T10:13:18Z</time>
      </trkpt>
      <trkpt lat="46.9494770" lon="6.4285810">
        <ele>1068.2</ele>
        <time>2022-07-22T10:13:23Z</time>
      </trkpt>
      <trkpt lat="46.9493000" lon="6.4283960">
        <ele>1068.2</ele>
        <time>2022-07-22T10:13:28Z</time>
      </trkpt>
      <trkpt lat="46.9492730" lon="6.4283490">
        <ele>1068.0</ele>
        <time>2022-07-22T10:13:29Z</time>
      </trkpt>
      <trkpt lat="46.9490920" lon="6.4280040">
        <ele>1067.0</ele>
        <time>2022-07-22T10:13:37Z</time>
      </trkpt>
      <trkpt lat="46.9488760" lon="6.4276230">
        <ele>1066.8</ele>
        <time>2022-07-22T10:13:45Z</time>
      </trkpt>
      <trkpt lat="46.9485480" lon="6.4272330">
        <ele>1066.4</ele>
        <time>2022-07-22T10:13:54Z</time>
      </trkpt>
      <trkpt lat="46.9482590" lon="6.4269630">
        <ele>1066.0</ele>
        <time>2022-07-22T10:14:00Z</time>
      </trkpt>
      <trkpt lat="46.9481520" lon="6.4268710">
        <ele>1065.8</ele>
        <time>2022-07-22T10:14:02Z</time>
      </trkpt>
      <trkpt lat="46.9479430" lon="6.4267110">
        <ele>1064.8</ele>
        <time>2022-07-22T10:14:06Z</time>
      </trkpt>
      <trkpt lat="46.9478850" lon="6.4266760">
        <ele>1064.6</ele>
        <time>2022-07-22T10:14:07Z</time>
      </trkpt>
      <trkpt lat="46.9476750" lon="6.4265750">
        <ele>1063.8</ele>
        <time>2022-07-22T10:14:10Z</time>
      </trkpt>
      <trkpt lat="46.9476010" lon="6.4265350">
        <ele>1063.2</ele>
        <time>2022-07-22T10:14:11Z</time>
      </trkpt>
      <trkpt lat="46.9475270" lon="6.4264860">
        <ele>1062.6</ele>
        <time>2022-07-22T10:14:12Z</time>
      </trkpt>
      <trkpt lat="46.9473790" lon="6.4263440">
        <ele>1061.4</ele>
        <time>2022-07-22T10:14:14Z</time>
      </trkpt>
      <trkpt lat="46.9473110" lon="6.4262530">
        <ele>1060.6</ele>
        <time>2022-07-22T10:14:15Z</time>
      </trkpt>
      <trkpt lat="46.9472510" lon="6.4261530">
        <ele>1060.0</ele>
        <time>2022-07-22T10:14:16Z</time>
      </trkpt>
      <trkpt lat="46.9471500" lon="6.4259110">
        <ele>1058.8</ele>
        <time>2022-07-22T10:14:18Z</time>
      </trkpt>
      <trkpt lat="46.9471030" lon="6.4257740">
        <ele>1058.0</ele>
        <time>2022-07-22T10:14:19Z</time>
      </trkpt>
      <trkpt lat="46.9470520" lon="6.4256410">
        <ele>1057.4</ele>
        <time>2022-07-22T10:14:20Z</time>
      </trkpt>
      <trkpt lat="46.9469320" lon="6.4253860">
        <ele>1055.8</ele>
        <time>2022-07-22T10:14:22Z</time>
      </trkpt>
      <trkpt lat="46.9468620" lon="6.4252610">
        <ele>1054.6</ele>
        <time>2022-07-22T10:14:23Z</time>
      </trkpt>
      <trkpt lat="46.9467890" lon="6.4251360">
        <ele>1053.0</ele>
        <time>2022-07-22T10:14:24Z</time>
      </trkpt>
      <trkpt lat="46.9467130" lon="6.4250110">
        <ele>1051.4</ele>
        <time>2022-07-22T10:14:25Z</time>
      </trkpt>
      <trkpt lat="46.9466390" lon="6.4248860">
        <ele>1050.2</ele>
        <time>2022-07-22T10:14:26Z</time>
      </trkpt>
      <trkpt lat="46.9464930" lon="6.4246440">
        <ele>1048.0</ele>
        <time>2022-07-22T10:14:28Z</time>
      </trkpt>
      <trkpt lat="46.9464200" lon="6.4245260">
        <ele>1046.8</ele>
        <time>2022-07-22T10:14:29Z</time>
      </trkpt>
      <trkpt lat="46.9463480" lon="6.4244090">
        <ele>1045.8</ele>
        <time>2022-07-22T10:14:30Z</time>
      </trkpt>
      <trkpt lat="46.9462810" lon="6.4242910">
        <ele>1044.4</ele>
        <time>2022-07-22T10:14:31Z</time>
      </trkpt>
      <trkpt lat="46.9462180" lon="6.4241710">
        <ele>1043.4</ele>
        <time>2022-07-22T10:14:32Z</time>
      </trkpt>
      <trkpt lat="46.9461010" lon="6.4239290">
        <ele>1041.0</ele>
        <time>2022-07-22T10:14:34Z</time>
      </trkpt>
      <trkpt lat="46.9459870" lon="6.4236950">
        <ele>1040.0</ele>
        <time>2022-07-22T10:14:36Z</time>
      </trkpt>
      <trkpt lat="46.9458730" lon="6.4234820">
        <ele>1039.0</ele>
        <time>2022-07-22T10:14:38Z</time>
      </trkpt>
      <trkpt lat="46.9457620" lon="6.4233000">
        <ele>1038.2</ele>
        <time>2022-07-22T10:14:40Z</time>
      </trkpt>
      <trkpt lat="46.9456560" lon="6.4231480">
        <ele>1037.6</ele>
        <time>2022-07-22T10:14:42Z</time>
      </trkpt>
      <trkpt lat="46.9455090" lon="6.4229500">
        <ele>1036.4</ele>
        <time>2022-07-22T10:14:45Z</time>
      </trkpt>
      <trkpt lat="46.9452290" lon="6.4225620">
        <ele>1035.8</ele>
        <time>2022-07-22T10:14:52Z</time>
      </trkpt>
      <trkpt lat="46.9449790" lon="6.4222200">
        <ele>1035.6</ele>
        <time>2022-07-22T10:14:58Z</time>
      </trkpt>
      <trkpt lat="46.9449410" lon="6.4221730">
        <ele>1035.6</ele>
        <time>2022-07-22T10:14:59Z</time>
      </trkpt>
      <trkpt lat="46.9448940" lon="6.4221140">
        <ele>1035.4</ele>
        <time>2022-07-22T10:15:01Z</time>
      </trkpt>
      <trkpt lat="46.9448800" lon="6.4220960">
        <ele>1035.2</ele>
        <time>2022-07-22T10:15:02Z</time>
      </trkpt>
      <trkpt lat="46.9448570" lon="6.4220480">
        <ele>1034.0</ele>
        <time>2022-07-22T10:15:05Z</time>
      </trkpt>
      <trkpt lat="46.9448540" lon="6.4220170">
        <ele>1033.2</ele>
        <time>2022-07-22T10:15:07Z</time>
      </trkpt>
      <trkpt lat="46.9448390" lon="6.4219890">
        <ele>1032.8</ele>
        <time>2022-07-22T10:15:09Z</time>
      </trkpt>
      <trkpt lat="46.9447980" lon="6.4219690">
        <ele>1032.2</ele>
        <time>2022-07-22T10:15:11Z</time>
      </trkpt>
      <trkpt lat="46.9447010" lon="6.4219930">
        <ele>1031.8</ele>
        <time>2022-07-22T10:15:14Z</time>
      </trkpt>
      <trkpt lat="46.9446650" lon="6.4220060">
        <ele>1031.8</ele>
        <time>2022-07-22T10:15:15Z</time>
      </trkpt>
      <trkpt lat="46.9446310" lon="6.4220200">
        <ele>1031.8</ele>
        <time>2022-07-22T10:15:16Z</time>
      </trkpt>
      <trkpt lat="46.9443400" lon="6.4221100">
        <ele>1031.8</ele>
        <time>2022-07-22T10:15:25Z</time>
      </trkpt>
      <trkpt lat="46.9440780" lon="6.4222230">
        <ele>1031.8</ele>
        <time>2022-07-22T10:15:34Z</time>
      </trkpt>
      <trkpt lat="46.9438600" lon="6.4223490">
        <ele>1032.2</ele>
        <time>2022-07-22T10:15:41Z</time>
      </trkpt>
      <trkpt lat="46.9435590" lon="6.4225210">
        <ele>1032.4</ele>
        <time>2022-07-22T10:15:47Z</time>
      </trkpt>
      <trkpt lat="46.9432250" lon="6.4227210">
        <ele>1031.8</ele>
        <time>2022-07-22T10:15:52Z</time>
      </trkpt>
      <trkpt lat="46.9429300" lon="6.4228730">
        <ele>1031.0</ele>
        <time>2022-07-22T10:15:56Z</time>
      </trkpt>
      <trkpt lat="46.9428460" lon="6.4228980">
        <ele>1030.6</ele>
        <time>2022-07-22T10:15:57Z</time>
      </trkpt>
      <trkpt lat="46.9426670" lon="6.4229450">
        <ele>1029.8</ele>
        <time>2022-07-22T10:15:59Z</time>
      </trkpt>
      <trkpt lat="46.9424820" lon="6.4229890">
        <ele>1028.6</ele>
        <time>2022-07-22T10:16:01Z</time>
      </trkpt>
      <trkpt lat="46.9422120" lon="6.4230470">
        <ele>1027.2</ele>
        <time>2022-07-22T10:16:04Z</time>
      </trkpt>
      <trkpt lat="46.9420410" lon="6.4230830">
        <ele>1026.0</ele>
        <time>2022-07-22T10:16:06Z</time>
      </trkpt>
      <trkpt lat="46.9417790" lon="6.4231340">
        <ele>1024.6</ele>
        <time>2022-07-22T10:16:09Z</time>
      </trkpt>
      <trkpt lat="46.9415960" lon="6.4231680">
        <ele>1023.6</ele>
        <time>2022-07-22T10:16:11Z</time>
      </trkpt>
      <trkpt lat="46.9414160" lon="6.4232060">
        <ele>1021.6</ele>
        <time>2022-07-22T10:16:13Z</time>
      </trkpt>
      <trkpt lat="46.9412370" lon="6.4232520">
        <ele>1020.4</ele>
        <time>2022-07-22T10:16:15Z</time>
      </trkpt>
      <trkpt lat="46.9409730" lon="6.4232910">
        <ele>1019.0</ele>
        <time>2022-07-22T10:16:18Z</time>
      </trkpt>
      <trkpt lat="46.9408880" lon="6.4232960">
        <ele>1018.4</ele>
        <time>2022-07-22T10:16:19Z</time>
      </trkpt>
      <trkpt lat="46.9408050" lon="6.4232950">
        <ele>1018.0</ele>
        <time>2022-07-22T10:16:20Z</time>
      </trkpt>
      <trkpt lat="46.9404960" lon="6.4232100">
        <ele>1016.4</ele>
        <time>2022-07-22T10:16:24Z</time>
      </trkpt>
      <trkpt lat="46.9402180" lon="6.4230720">
        <ele>1015.4</ele>
        <time>2022-07-22T10:16:28Z</time>
      </trkpt>
      <trkpt lat="46.9400100" lon="6.4229640">
        <ele>1014.8</ele>
        <time>2022-07-22T10:16:31Z</time>
      </trkpt>
      <trkpt lat="46.9399390" lon="6.4229220">
        <ele>1014.6</ele>
        <time>2022-07-22T10:16:32Z</time>
      </trkpt>
      <trkpt lat="46.9398670" lon="6.4228690">
        <ele>1014.4</ele>
        <time>2022-07-22T10:16:33Z</time>
      </trkpt>
      <trkpt lat="46.9398000" lon="6.4227980">
        <ele>1014.2</ele>
        <time>2022-07-22T10:16:34Z</time>
      </trkpt>
      <trkpt lat="46.9397370" lon="6.4227130">
        <ele>1014.2</ele>
        <time>2022-07-22T10:16:35Z</time>
      </trkpt>
      <trkpt lat="46.9396220" lon="6.4225190">
        <ele>1014.0</ele>
        <time>2022-07-22T10:16:37Z</time>
      </trkpt>
      <trkpt lat="46.9394650" lon="6.4222280">
        <ele>1012.8</ele>
        <time>2022-07-22T10:16:40Z</time>
      </trkpt>
      <trkpt lat="46.9394130" lon="6.4221330">
        <ele>1012.4</ele>
        <time>2022-07-22T10:16:41Z</time>
      </trkpt>
      <trkpt lat="46.9393630" lon="6.4220410">
        <ele>1011.8</ele>
        <time>2022-07-22T10:16:42Z</time>
      </trkpt>
      <trkpt lat="46.9392210" lon="6.4217780">
        <ele>1010.4</ele>
        <time>2022-07-22T10:16:45Z</time>
      </trkpt>
      <trkpt lat="46.9391350" lon="6.4216270">
        <ele>1009.6</ele>
        <time>2022-07-22T10:16:47Z</time>
      </trkpt>
      <trkpt lat="46.9390960" lon="6.4215590">
        <ele>1009.2</ele>
        <time>2022-07-22T10:16:48Z</time>
      </trkpt>
      <trkpt lat="46.9389950" lon="6.4213670">
        <ele>1008.0</ele>
        <time>2022-07-22T10:16:51Z</time>
      </trkpt>
      <trkpt lat="46.9389560" lon="6.4213090">
        <ele>1007.4</ele>
        <time>2022-07-22T10:16:52Z</time>
      </trkpt>
      <trkpt lat="46.9389090" lon="6.4212600">
        <ele>1006.8</ele>
        <time>2022-07-22T10:16:53Z</time>
      </trkpt>
      <trkpt lat="46.9388020" lon="6.4211840">
        <ele>1005.6</ele>
        <time>2022-07-22T10:16:55Z</time>
      </trkpt>
      <trkpt lat="46.9387490" lon="6.4211570">
        <ele>1005.0</ele>
        <time>2022-07-22T10:16:56Z</time>
      </trkpt>
      <trkpt lat="46.9386980" lon="6.4211350">
        <ele>1004.6</ele>
        <time>2022-07-22T10:16:57Z</time>
      </trkpt>
      <trkpt lat="46.9386490" lon="6.4211200">
        <ele>1004.2</ele>
        <time>2022-07-22T10:16:58Z</time>
      </trkpt>
      <trkpt lat="46.9386010" lon="6.4211130">
        <ele>1003.4</ele>
        <time>2022-07-22T10:16:59Z</time>
      </trkpt>
      <trkpt lat="46.9385070" lon="6.4211330">
        <ele>1002.8</ele>
        <time>2022-07-22T10:17:01Z</time>
      </trkpt>
      <trkpt lat="46.9383580" lon="6.4212410">
        <ele>1002.2</ele>
        <time>2022-07-22T10:17:04Z</time>
      </trkpt>
      <trkpt lat="46.9383030" lon="6.4212840">
        <ele>1002.0</ele>
        <time>2022-07-22T10:17:05Z</time>
      </trkpt>
      <trkpt lat="46.9380530" lon="6.4214560">
        <ele>1001.4</ele>
        <time>2022-07-22T10:17:10Z</time>
      </trkpt>
      <trkpt lat="46.9380100" lon="6.4214820">
        <ele>1001.2</ele>
        <time>2022-07-22T10:17:11Z</time>
      </trkpt>
      <trkpt lat="46.9378940" lon="6.4215550">
        <ele>1000.0</ele>
        <time>2022-07-22T10:17:14Z</time>
      </trkpt>
      <trkpt lat="46.9378240" lon="6.4215970">
        <ele>998.8</ele>
        <time>2022-07-22T10:17:16Z</time>
      </trkpt>
      <trkpt lat="46.9377550" lon="6.4216450">
        <ele>997.6</ele>
        <time>2022-07-22T10:17:18Z</time>
      </trkpt>
      <trkpt lat="46.9377190" lon="6.4216800">
        <ele>997.0</ele>
        <time>2022-07-22T10:17:19Z</time>
      </trkpt>
      <trkpt lat="46.9376820" lon="6.4217270">
        <ele>996.4</ele>
        <time>2022-07-22T10:17:20Z</time>
      </trkpt>
      <trkpt lat="46.9375990" lon="6.4218540">
        <ele>995.2</ele>
        <time>2022-07-22T10:17:22Z</time>
      </trkpt>
      <trkpt lat="46.9375100" lon="6.4219780">
        <ele>994.2</ele>
        <time>2022-07-22T10:17:24Z</time>
      </trkpt>
      <trkpt lat="46.9374150" lon="6.4220940">
        <ele>993.2</ele>
        <time>2022-07-22T10:17:26Z</time>
      </trkpt>
      <trkpt lat="46.9373260" lon="6.4222120">
        <ele>991.8</ele>
        <time>2022-07-22T10:17:28Z</time>
      </trkpt>
      <trkpt lat="46.9372070" lon="6.4223830">
        <ele>990.2</ele>
        <time>2022-07-22T10:17:31Z</time>
      </trkpt>
      <trkpt lat="46.9371370" lon="6.4224850">
        <ele>988.8</ele>
        <time>2022-07-22T10:17:33Z</time>
      </trkpt>
      <trkpt lat="46.9370780" lon="6.4225760">
        <ele>987.0</ele>
        <time>2022-07-22T10:17:35Z</time>
      </trkpt>
      <trkpt lat="46.9370290" lon="6.4226460">
        <ele>985.6</ele>
        <time>2022-07-22T10:17:37Z</time>
      </trkpt>
      <trkpt lat="46.9369810" lon="6.4227070">
        <ele>984.4</ele>
        <time>2022-07-22T10:17:39Z</time>
      </trkpt>
      <trkpt lat="46.9369540" lon="6.4227350">
        <ele>983.8</ele>
        <time>2022-07-22T10:17:40Z</time>
      </trkpt>
      <trkpt lat="46.9369190" lon="6.4227540">
        <ele>983.2</ele>
        <time>2022-07-22T10:17:41Z</time>
      </trkpt>
      <trkpt lat="46.9368820" lon="6.4227550">
        <ele>982.8</ele>
        <time>2022-07-22T10:17:42Z</time>
      </trkpt>
      <trkpt lat="46.9368470" lon="6.4227420">
        <ele>982.2</ele>
        <time>2022-07-22T10:17:43Z</time>
      </trkpt>
      <trkpt lat="46.9368170" lon="6.4227140">
        <ele>981.8</ele>
        <time>2022-07-22T10:17:44Z</time>
      </trkpt>
      <trkpt lat="46.9367380" lon="6.4226080">
        <ele>980.8</ele>
        <time>2022-07-22T10:17:47Z</time>
      </trkpt>
      <trkpt lat="46.9367120" lon="6.4225790">
        <ele>980.4</ele>
        <time>2022-07-22T10:17:48Z</time>
      </trkpt>
      <trkpt lat="46.9366290" lon="6.4224840">
        <ele>979.6</ele>
        <time>2022-07-22T10:17:51Z</time>
      </trkpt>
      <trkpt lat="46.9365410" lon="6.4223680">
        <ele>979.4</ele>
        <time>2022-07-22T10:17:54Z</time>
      </trkpt>
      <trkpt lat="46.9363040" lon="6.4220920">
        <ele>979.0</ele>
        <time>2022-07-22T10:18:00Z</time>
      </trkpt>
      <trkpt lat="46.9361780" lon="6.4219050">
        <ele>978.6</ele>
        <time>2022-07-22T10:18:03Z</time>
      </trkpt>
      <trkpt lat="46.9360480" lon="6.4216900">
        <ele>978.0</ele>
        <time>2022-07-22T10:18:06Z</time>
      </trkpt>
      <trkpt lat="46.9359620" lon="6.4215350">
        <ele>977.4</ele>
        <time>2022-07-22T10:18:08Z</time>
      </trkpt>
      <trkpt lat="46.9356840" lon="6.4210130">
        <ele>976.4</ele>
        <time>2022-07-22T10:18:15Z</time>
      </trkpt>
      <trkpt lat="46.9355460" lon="6.4207700">
        <ele>975.4</ele>
        <time>2022-07-22T10:18:19Z</time>
      </trkpt>
      <trkpt lat="46.9354470" lon="6.4206190">
        <ele>975.0</ele>
        <time>2022-07-22T10:18:22Z</time>
      </trkpt>
      <trkpt lat="46.9353160" lon="6.4204370">
        <ele>974.6</ele>
        <time>2022-07-22T10:18:27Z</time>
      </trkpt>
      <trkpt lat="46.9352360" lon="6.4203130">
        <ele>974.8</ele>
        <time>2022-07-22T10:18:33Z</time>
      </trkpt>
      <trkpt lat="46.9351040" lon="6.4200970">
        <ele>976.4</ele>
        <time>2022-07-22T10:18:44Z</time>
      </trkpt>
      <trkpt lat="46.9350710" lon="6.4200340">
        <ele>976.6</ele>
        <time>2022-07-22T10:18:47Z</time>
      </trkpt>
      <trkpt lat="46.9349950" lon="6.4199070">
        <ele>977.2</ele>
        <time>2022-07-22T10:18:53Z</time>
      </trkpt>
      <trkpt lat="46.9349420" lon="6.4198200">
        <ele>977.6</ele>
        <time>2022-07-22T10:18:57Z</time>
      </trkpt>
      <trkpt lat="46.9348680" lon="6.4196810">
        <ele>978.4</ele>
        <time>2022-07-22T10:19:03Z</time>
      </trkpt>
      <trkpt lat="46.9347610" lon="6.4194980">
        <ele>978.8</ele>
        <time>2022-07-22T10:19:11Z</time>
      </trkpt>
      <trkpt lat="46.9346920" lon="6.4193720">
        <ele>979.0</ele>
        <time>2022-07-22T10:19:16Z</time>
      </trkpt>
      <trkpt lat="46.9346470" lon="6.4192900">
        <ele>979.4</ele>
        <time>2022-07-22T10:19:19Z</time>
      </trkpt>
      <trkpt lat="46.9344960" lon="6.4190110">
        <ele>980.0</ele>
        <time>2022-07-22T10:19:28Z</time>
      </trkpt>
      <trkpt lat="46.9343790" lon="6.4188190">
        <ele>980.0</ele>
        <time>2022-07-22T10:19:34Z</time>
      </trkpt>
      <trkpt lat="46.9343420" lon="6.4187580">
        <ele>980.0</ele>
        <time>2022-07-22T10:19:36Z</time>
      </trkpt>
      <trkpt lat="46.9341460" lon="6.4184300">
        <ele>980.4</ele>
        <time>2022-07-22T10:19:46Z</time>
      </trkpt>
      <trkpt lat="46.9340030" lon="6.4181750">
        <ele>980.8</ele>
        <time>2022-07-22T10:19:53Z</time>
      </trkpt>
      <trkpt lat="46.9338490" lon="6.4178890">
        <ele>980.8</ele>
        <time>2022-07-22T10:20:00Z</time>
      </trkpt>
      <trkpt lat="46.9336800" lon="6.4175350">
        <ele>980.4</ele>
        <time>2022-07-22T10:20:06Z</time>
      </trkpt>
      <trkpt lat="46.9334680" lon="6.4170770">
        <ele>979.6</ele>
        <time>2022-07-22T10:20:12Z</time>
      </trkpt>
      <trkpt lat="46.9333590" lon="6.4168440">
        <ele>979.0</ele>
        <time>2022-07-22T10:20:15Z</time>
      </trkpt>
      <trkpt lat="46.9332360" lon="6.4165510">
        <ele>978.0</ele>
        <time>2022-07-22T10:20:19Z</time>
      </trkpt>
      <trkpt lat="46.9332100" lon="6.4164920">
        <ele>977.6</ele>
        <time>2022-07-22T10:20:20Z</time>
      </trkpt>
      <trkpt lat="46.9331740" lon="6.4164030">
        <ele>976.6</ele>
        <time>2022-07-22T10:20:22Z</time>
      </trkpt>
      <trkpt lat="46.9331630" lon="6.4163680">
        <ele>976.4</ele>
        <time>2022-07-22T10:20:23Z</time>
      </trkpt>
      <trkpt lat="46.9331430" lon="6.4162810">
        <ele>975.2</ele>
        <time>2022-07-22T10:20:26Z</time>
      </trkpt>
      <trkpt lat="46.9331130" lon="6.4161860">
        <ele>974.4</ele>
        <time>2022-07-22T10:20:29Z</time>
      </trkpt>
      <trkpt lat="46.9330870" lon="6.4161080">
        <ele>974.0</ele>
        <time>2022-07-22T10:20:31Z</time>
      </trkpt>
      <trkpt lat="46.9330140" lon="6.4159570">
        <ele>973.8</ele>
        <time>2022-07-22T10:20:36Z</time>
      </trkpt>
      <trkpt lat="46.9329910" lon="6.4158870">
        <ele>973.6</ele>
        <time>2022-07-22T10:20:40Z</time>
      </trkpt>
      <trkpt lat="46.9329450" lon="6.4156610">
        <ele>973.6</ele>
        <time>2022-07-22T10:20:46Z</time>
      </trkpt>
      <trkpt lat="46.9328890" lon="6.4153750">
        <ele>973.6</ele>
        <time>2022-07-22T10:20:54Z</time>
      </trkpt>
      <trkpt lat="46.9328240" lon="6.4151010">
        <ele>974.2</ele>
        <time>2022-07-22T10:21:02Z</time>
      </trkpt>
      <trkpt lat="46.9327200" lon="6.4148920">
        <ele>974.6</ele>
        <time>2022-07-22T10:21:08Z</time>
      </trkpt>
      <trkpt lat="46.9325980" lon="6.4146540">
        <ele>974.8</ele>
        <time>2022-07-22T10:21:14Z</time>
      </trkpt>
      <trkpt lat="46.9324120" lon="6.4143080">
        <ele>974.8</ele>
        <time>2022-07-22T10:21:23Z</time>
      </trkpt>
      <trkpt lat="46.9323740" lon="6.4142380">
        <ele>974.8</ele>
        <time>2022-07-22T10:21:25Z</time>
      </trkpt>
      <trkpt lat="46.9322390" lon="6.4139870">
        <ele>975.2</ele>
        <time>2022-07-22T10:21:33Z</time>
      </trkpt>
      <trkpt lat="46.9321090" lon="6.4137450">
        <ele>975.6</ele>
        <time>2022-07-22T10:21:42Z</time>
      </trkpt>
      <trkpt lat="46.9320960" lon="6.4137180">
        <ele>975.8</ele>
        <time>2022-07-22T10:21:43Z</time>
      </trkpt>
      <trkpt lat="46.9320040" lon="6.4135390">
        <ele>976.6</ele>
        <time>2022-07-22T10:21:50Z</time>
      </trkpt>
      <trkpt lat="46.9319790" lon="6.4134840">
        <ele>976.8</ele>
        <time>2022-07-22T10:21:52Z</time>
      </trkpt>
      <trkpt lat="46.9319100" lon="6.4133260">
        <ele>978.0</ele>
        <time>2022-07-22T10:21:58Z</time>
      </trkpt>
      <trkpt lat="46.9318430" lon="6.4131590">
        <ele>979.2</ele>
        <time>2022-07-22T10:22:04Z</time>
      </trkpt>
      <trkpt lat="46.9318010" lon="6.4130700">
        <ele>979.2</ele>
        <time>2022-07-22T10:22:07Z</time>
      </trkpt>
      <trkpt lat="46.9316830" lon="6.4128170">
        <ele>979.8</ele>
        <time>2022-07-22T10:22:15Z</time>
      </trkpt>
      <trkpt lat="46.9315350" lon="6.4125580">
        <ele>979.8</ele>
        <time>2022-07-22T10:22:23Z</time>
      </trkpt>
      <trkpt lat="46.9313630" lon="6.4122420">
        <ele>979.6</ele>
        <time>2022-07-22T10:22:30Z</time>
      </trkpt>
      <trkpt lat="46.9313360" lon="6.4121900">
        <ele>979.6</ele>
        <time>2022-07-22T10:22:31Z</time>
      </trkpt>
      <trkpt lat="46.9311620" lon="6.4118640">
        <ele>979.4</ele>
        <time>2022-07-22T10:22:37Z</time>
      </trkpt>
      <trkpt lat="46.9309300" lon="6.4114320">
        <ele>978.6</ele>
        <time>2022-07-22T10:22:45Z</time>
      </trkpt>
      <trkpt lat="46.9307470" lon="6.4110630">
        <ele>978.0</ele>
        <time>2022-07-22T10:22:52Z</time>
      </trkpt>
      <trkpt lat="46.9307230" lon="6.4110100">
        <ele>977.8</ele>
        <time>2022-07-22T10:22:53Z</time>
      </trkpt>
      <trkpt lat="46.9305720" lon="6.4107050">
        <ele>976.8</ele>
        <time>2022-07-22T10:22:59Z</time>
      </trkpt>
      <trkpt lat="46.9304410" lon="6.4103970">
        <ele>976.2</ele>
        <time>2022-07-22T10:23:05Z</time>
      </trkpt>
      <trkpt lat="46.9303110" lon="6.4101130">
        <ele>975.6</ele>
        <time>2022-07-22T10:23:11Z</time>
      </trkpt>
      <trkpt lat="46.9302740" lon="6.4100190">
        <ele>975.4</ele>
        <time>2022-07-22T10:23:13Z</time>
      </trkpt>
      <trkpt lat="46.9302000" lon="6.4098040">
        <ele>975.4</ele>
        <time>2022-07-22T10:23:19Z</time>
      </trkpt>
      <trkpt lat="46.9300870" lon="6.4095360">
        <ele>975.2</ele>
        <time>2022-07-22T10:23:26Z</time>
      </trkpt>
      <trkpt lat="46.9299690" lon="6.4092470">
        <ele>975.2</ele>
        <time>2022-07-22T10:23:34Z</time>
      </trkpt>
      <trkpt lat="46.9298500" lon="6.4089570">
        <ele>975.2</ele>
        <time>2022-07-22T10:23:41Z</time>
      </trkpt>
      <trkpt lat="46.9297090" lon="6.4086120">
        <ele>974.6</ele>
        <time>2022-07-22T10:23:48Z</time>
      </trkpt>
      <trkpt lat="46.9296370" lon="6.4084470">
        <ele>974.4</ele>
        <time>2022-07-22T10:23:51Z</time>
      </trkpt>
      <trkpt lat="46.9295010" lon="6.4081220">
        <ele>973.8</ele>
        <time>2022-07-22T10:23:57Z</time>
      </trkpt>
      <trkpt lat="46.9294340" lon="6.4079610">
        <ele>973.4</ele>
        <time>2022-07-22T10:24:00Z</time>
      </trkpt>
      <trkpt lat="46.9293510" lon="6.4077760">
        <ele>973.0</ele>
        <time>2022-07-22T10:24:03Z</time>
      </trkpt>
      <trkpt lat="46.9292420" lon="6.4075540">
        <ele>972.4</ele>
        <time>2022-07-22T10:24:06Z</time>
      </trkpt>
      <trkpt lat="46.9291640" lon="6.4073900">
        <ele>972.2</ele>
        <time>2022-07-22T10:24:08Z</time>
      </trkpt>
      <trkpt lat="46.9289980" lon="6.4070610">
        <ele>970.6</ele>
        <time>2022-07-22T10:24:12Z</time>
      </trkpt>
      <trkpt lat="46.9289170" lon="6.4068930">
        <ele>970.0</ele>
        <time>2022-07-22T10:24:14Z</time>
      </trkpt>
      <trkpt lat="46.9288350" lon="6.4067160">
        <ele>969.4</ele>
        <time>2022-07-22T10:24:16Z</time>
      </trkpt>
      <trkpt lat="46.9287390" lon="6.4065410">
        <ele>968.6</ele>
        <time>2022-07-22T10:24:18Z</time>
      </trkpt>
      <trkpt lat="46.9286910" lon="6.4064540">
        <ele>968.2</ele>
        <time>2022-07-22T10:24:19Z</time>
      </trkpt>
      <trkpt lat="46.9286460" lon="6.4063660">
        <ele>967.8</ele>
        <time>2022-07-22T10:24:20Z</time>
      </trkpt>
      <trkpt lat="46.9285170" lon="6.4061140">
        <ele>966.8</ele>
        <time>2022-07-22T10:24:23Z</time>
      </trkpt>
      <trkpt lat="46.9283810" lon="6.4058670">
        <ele>965.2</ele>
        <time>2022-07-22T10:24:26Z</time>
      </trkpt>
      <trkpt lat="46.9282400" lon="6.4056010">
        <ele>963.6</ele>
        <time>2022-07-22T10:24:29Z</time>
      </trkpt>
      <trkpt lat="46.9280750" lon="6.4053220">
        <ele>962.6</ele>
        <time>2022-07-22T10:24:32Z</time>
      </trkpt>
      <trkpt lat="46.9280240" lon="6.4052360">
        <ele>962.2</ele>
        <time>2022-07-22T10:24:33Z</time>
      </trkpt>
      <trkpt lat="46.9277660" lon="6.4047560">
        <ele>960.8</ele>
        <time>2022-07-22T10:24:38Z</time>
      </trkpt>
      <trkpt lat="46.9276170" lon="6.4044560">
        <ele>959.6</ele>
        <time>2022-07-22T10:24:41Z</time>
      </trkpt>
      <trkpt lat="46.9275200" lon="6.4042440">
        <ele>958.4</ele>
        <time>2022-07-22T10:24:43Z</time>
      </trkpt>
      <trkpt lat="46.9274220" lon="6.4040350">
        <ele>957.4</ele>
        <time>2022-07-22T10:24:45Z</time>
      </trkpt>
      <trkpt lat="46.9273280" lon="6.4038260">
        <ele>956.4</ele>
        <time>2022-07-22T10:24:47Z</time>
      </trkpt>
      <trkpt lat="46.9272780" lon="6.4037210">
        <ele>956.2</ele>
        <time>2022-07-22T10:24:48Z</time>
      </trkpt>
      <trkpt lat="46.9271340" lon="6.4034110">
        <ele>954.8</ele>
        <time>2022-07-22T10:24:51Z</time>
      </trkpt>
      <trkpt lat="46.9270470" lon="6.4032120">
        <ele>954.0</ele>
        <time>2022-07-22T10:24:53Z</time>
      </trkpt>
      <trkpt lat="46.9270010" lon="6.4031210">
        <ele>953.8</ele>
        <time>2022-07-22T10:24:54Z</time>
      </trkpt>
      <trkpt lat="46.9268910" lon="6.4028570">
        <ele>952.6</ele>
        <time>2022-07-22T10:24:57Z</time>
      </trkpt>
      <trkpt lat="46.9268560" lon="6.4027710">
        <ele>952.2</ele>
        <time>2022-07-22T10:24:58Z</time>
      </trkpt>
      <trkpt lat="46.9267810" lon="6.4026060">
        <ele>951.6</ele>
        <time>2022-07-22T10:25:00Z</time>
      </trkpt>
      <trkpt lat="46.9266500" lon="6.4023400">
        <ele>950.4</ele>
        <time>2022-07-22T10:25:03Z</time>
      </trkpt>
      <trkpt lat="46.9266060" lon="6.4022460">
        <ele>950.2</ele>
        <time>2022-07-22T10:25:04Z</time>
      </trkpt>
      <trkpt lat="46.9263670" lon="6.4017710">
        <ele>949.6</ele>
        <time>2022-07-22T10:25:09Z</time>
      </trkpt>
      <trkpt lat="46.9263170" lon="6.4016760">
        <ele>949.4</ele>
        <time>2022-07-22T10:25:10Z</time>
      </trkpt>
      <trkpt lat="46.9261860" lon="6.4013900">
        <ele>948.0</ele>
        <time>2022-07-22T10:25:13Z</time>
      </trkpt>
      <trkpt lat="46.9261020" lon="6.4012150">
        <ele>947.4</ele>
        <time>2022-07-22T10:25:15Z</time>
      </trkpt>
      <trkpt lat="46.9260280" lon="6.4010610">
        <ele>946.6</ele>
        <time>2022-07-22T10:25:17Z</time>
      </trkpt>
      <trkpt lat="46.9259360" lon="6.4008480">
        <ele>945.4</ele>
        <time>2022-07-22T10:25:20Z</time>
      </trkpt>
      <trkpt lat="46.9257820" lon="6.4005120">
        <ele>944.8</ele>
        <time>2022-07-22T10:25:25Z</time>
      </trkpt>
      <trkpt lat="46.9257250" lon="6.4003890">
        <ele>944.6</ele>
        <time>2022-07-22T10:25:27Z</time>
      </trkpt>
      <trkpt lat="46.9256510" lon="6.4002810">
        <ele>944.6</ele>
        <time>2022-07-22T10:25:29Z</time>
      </trkpt>
      <trkpt lat="46.9256050" lon="6.4002090">
        <ele>944.4</ele>
        <time>2022-07-22T10:25:30Z</time>
      </trkpt>
      <trkpt lat="46.9255590" lon="6.4001260">
        <ele>944.2</ele>
        <time>2022-07-22T10:25:31Z</time>
      </trkpt>
      <trkpt lat="46.9254620" lon="6.3998930">
        <ele>943.8</ele>
        <time>2022-07-22T10:25:34Z</time>
      </trkpt>
      <trkpt lat="46.9254460" lon="6.3998440">
        <ele>943.8</ele>
        <time>2022-07-22T10:25:35Z</time>
      </trkpt>
      <trkpt lat="46.9254160" lon="6.3997400">
        <ele>943.6</ele>
        <time>2022-07-22T10:25:38Z</time>
      </trkpt>
      <trkpt lat="46.9253310" lon="6.3995080">
        <ele>943.6</ele>
        <time>2022-07-22T10:25:45Z</time>
      </trkpt>
      <trkpt lat="46.9251900" lon="6.3992260">
        <ele>944.0</ele>
        <time>2022-07-22T10:25:52Z</time>
      </trkpt>
      <trkpt lat="46.9250350" lon="6.3989090">
        <ele>944.0</ele>
        <time>2022-07-22T10:25:59Z</time>
      </trkpt>
      <trkpt lat="46.9248680" lon="6.3985540">
        <ele>943.6</ele>
        <time>2022-07-22T10:26:06Z</time>
      </trkpt>
      <trkpt lat="46.9248220" lon="6.3984510">
        <ele>943.4</ele>
        <time>2022-07-22T10:26:08Z</time>
      </trkpt>
      <trkpt lat="46.9246930" lon="6.3981710">
        <ele>943.0</ele>
        <time>2022-07-22T10:26:13Z</time>
      </trkpt>
      <trkpt lat="46.9244910" lon="6.3977250">
        <ele>942.8</ele>
        <time>2022-07-22T10:26:22Z</time>
      </trkpt>
      <trkpt lat="46.9243380" lon="6.3973840">
        <ele>943.2</ele>
        <time>2022-07-22T10:26:29Z</time>
      </trkpt>
      <trkpt lat="46.9242210" lon="6.3971380">
        <ele>943.6</ele>
        <time>2022-07-22T10:26:36Z</time>
      </trkpt>
      <trkpt lat="46.9241430" lon="6.3969680">
        <ele>943.6</ele>
        <time>2022-07-22T10:26:42Z</time>
      </trkpt>
      <trkpt lat="46.9240560" lon="6.3967530">
        <ele>943.6</ele>
        <time>2022-07-22T10:26:47Z</time>
      </trkpt>
      <trkpt lat="46.9238940" lon="6.3964100">
        <ele>942.8</ele>
        <time>2022-07-22T10:26:54Z</time>
      </trkpt>
      <trkpt lat="46.9238280" lon="6.3962780">
        <ele>942.4</ele>
        <time>2022-07-22T10:26:57Z</time>
      </trkpt>
      <trkpt lat="46.9237190" lon="6.3960350">
        <ele>942.0</ele>
        <time>2022-07-22T10:27:02Z</time>
      </trkpt>
      <trkpt lat="46.9235930" lon="6.3957710">
        <ele>941.8</ele>
        <time>2022-07-22T10:27:07Z</time>
      </trkpt>
      <trkpt lat="46.9234600" lon="6.3954950">
        <ele>941.4</ele>
        <time>2022-07-22T10:27:11Z</time>
      </trkpt>
      <trkpt lat="46.9233870" lon="6.3953500">
        <ele>941.0</ele>
        <time>2022-07-22T10:27:13Z</time>
      </trkpt>
      <trkpt lat="46.9232780" lon="6.3951320">
        <ele>940.0</ele>
        <time>2022-07-22T10:27:16Z</time>
      </trkpt>
      <trkpt lat="46.9231560" lon="6.3949030">
        <ele>939.2</ele>
        <time>2022-07-22T10:27:19Z</time>
      </trkpt>
      <trkpt lat="46.9231180" lon="6.3948120">
        <ele>939.0</ele>
        <time>2022-07-22T10:27:20Z</time>
      </trkpt>
      <trkpt lat="46.9230080" lon="6.3945590">
        <ele>938.2</ele>
        <time>2022-07-22T10:27:23Z</time>
      </trkpt>
      <trkpt lat="46.9229750" lon="6.3944640">
        <ele>937.8</ele>
        <time>2022-07-22T10:27:24Z</time>
      </trkpt>
      <trkpt lat="46.9228320" lon="6.3941110">
        <ele>936.6</ele>
        <time>2022-07-22T10:27:28Z</time>
      </trkpt>
      <trkpt lat="46.9227160" lon="6.3938600">
        <ele>935.8</ele>
        <time>2022-07-22T10:27:31Z</time>
      </trkpt>
      <trkpt lat="46.9226460" lon="6.3937150">
        <ele>935.4</ele>
        <time>2022-07-22T10:27:33Z</time>
      </trkpt>
      <trkpt lat="46.9225890" lon="6.3935810">
        <ele>934.2</ele>
        <time>2022-07-22T10:27:35Z</time>
      </trkpt>
      <trkpt lat="46.9225650" lon="6.3935150">
        <ele>933.8</ele>
        <time>2022-07-22T10:27:36Z</time>
      </trkpt>
      <trkpt lat="46.9224800" lon="6.3932920">
        <ele>933.0</ele>
        <time>2022-07-22T10:27:39Z</time>
      </trkpt>
      <trkpt lat="46.9224430" lon="6.3932180">
        <ele>932.6</ele>
        <time>2022-07-22T10:27:40Z</time>
      </trkpt>
      <trkpt lat="46.9223250" lon="6.3929890">
        <ele>931.8</ele>
        <time>2022-07-22T10:27:43Z</time>
      </trkpt>
      <trkpt lat="46.9222590" lon="6.3928230">
        <ele>931.6</ele>
        <time>2022-07-22T10:27:45Z</time>
      </trkpt>
      <trkpt lat="46.9221320" lon="6.3925900">
        <ele>931.0</ele>
        <time>2022-07-22T10:27:48Z</time>
      </trkpt>
      <trkpt lat="46.9220850" lon="6.3925230">
        <ele>930.8</ele>
        <time>2022-07-22T10:27:49Z</time>
      </trkpt>
      <trkpt lat="46.9220470" lon="6.3924550">
        <ele>930.8</ele>
        <time>2022-07-22T10:27:50Z</time>
      </trkpt>
      <trkpt lat="46.9220140" lon="6.3923790">
        <ele>930.6</ele>
        <time>2022-07-22T10:27:51Z</time>
      </trkpt>
      <trkpt lat="46.9219520" lon="6.3922390">
        <ele>930.0</ele>
        <time>2022-07-22T10:27:53Z</time>
      </trkpt>
      <trkpt lat="46.9219190" lon="6.3921720">
        <ele>929.6</ele>
        <time>2022-07-22T10:27:54Z</time>
      </trkpt>
      <trkpt lat="46.9218320" lon="6.3919880">
        <ele>929.0</ele>
        <time>2022-07-22T10:27:57Z</time>
      </trkpt>
      <trkpt lat="46.9218110" lon="6.3919300">
        <ele>929.0</ele>
        <time>2022-07-22T10:27:58Z</time>
      </trkpt>
      <trkpt lat="46.9217040" lon="6.3917350">
        <ele>928.6</ele>
        <time>2022-07-22T10:28:02Z</time>
      </trkpt>
      <trkpt lat="46.9216650" lon="6.3916860">
        <ele>928.6</ele>
        <time>2022-07-22T10:28:03Z</time>
      </trkpt>
      <trkpt lat="46.9215220" lon="6.3914370">
        <ele>928.6</ele>
        <time>2022-07-22T10:28:07Z</time>
      </trkpt>
      <trkpt lat="46.9214830" lon="6.3913660">
        <ele>928.4</ele>
        <time>2022-07-22T10:28:08Z</time>
      </trkpt>
      <trkpt lat="46.9211980" lon="6.3909040">
        <ele>927.4</ele>
        <time>2022-07-22T10:28:14Z</time>
      </trkpt>
      <trkpt lat="46.9209460" lon="6.3904920">
        <ele>926.0</ele>
        <time>2022-07-22T10:28:18Z</time>
      </trkpt>
      <trkpt lat="46.9208920" lon="6.3904050">
        <ele>925.6</ele>
        <time>2022-07-22T10:28:19Z</time>
      </trkpt>
      <trkpt lat="46.9207060" lon="6.3901160">
        <ele>924.8</ele>
        <time>2022-07-22T10:28:22Z</time>
      </trkpt>
      <trkpt lat="46.9205850" lon="6.3899010">
        <ele>924.2</ele>
        <time>2022-07-22T10:28:24Z</time>
      </trkpt>
      <trkpt lat="46.9205330" lon="6.3897970">
        <ele>924.0</ele>
        <time>2022-07-22T10:28:25Z</time>
      </trkpt>
      <trkpt lat="46.9204490" lon="6.3895720">
        <ele>923.6</ele>
        <time>2022-07-22T10:28:27Z</time>
      </trkpt>
      <trkpt lat="46.9204120" lon="6.3894410">
        <ele>923.2</ele>
        <time>2022-07-22T10:28:28Z</time>
      </trkpt>
      <trkpt lat="46.9203400" lon="6.3892100">
        <ele>922.0</ele>
        <time>2022-07-22T10:28:30Z</time>
      </trkpt>
      <trkpt lat="46.9202440" lon="6.3888930">
        <ele>920.4</ele>
        <time>2022-07-22T10:28:33Z</time>
      </trkpt>
      <trkpt lat="46.9201870" lon="6.3886260">
        <ele>919.4</ele>
        <time>2022-07-22T10:28:36Z</time>
      </trkpt>
      <trkpt lat="46.9201600" lon="6.3884540">
        <ele>918.6</ele>
        <time>2022-07-22T10:28:38Z</time>
      </trkpt>
      <trkpt lat="46.9201470" lon="6.3883660">
        <ele>918.4</ele>
        <time>2022-07-22T10:28:39Z</time>
      </trkpt>
      <trkpt lat="46.9201280" lon="6.3882770">
        <ele>918.2</ele>
        <time>2022-07-22T10:28:40Z</time>
      </trkpt>
      <trkpt lat="46.9200610" lon="6.3881390">
        <ele>916.8</ele>
        <time>2022-07-22T10:28:42Z</time>
      </trkpt>
      <trkpt lat="46.9200190" lon="6.3880820">
        <ele>916.0</ele>
        <time>2022-07-22T10:28:43Z</time>
      </trkpt>
      <trkpt lat="46.9199640" lon="6.3880290">
        <ele>915.6</ele>
        <time>2022-07-22T10:28:44Z</time>
      </trkpt>
      <trkpt lat="46.9198380" lon="6.3879320">
        <ele>914.4</ele>
        <time>2022-07-22T10:28:46Z</time>
      </trkpt>
      <trkpt lat="46.9197590" lon="6.3878890">
        <ele>913.8</ele>
        <time>2022-07-22T10:28:47Z</time>
      </trkpt>
      <trkpt lat="46.9195920" lon="6.3878250">
        <ele>913.0</ele>
        <time>2022-07-22T10:28:49Z</time>
      </trkpt>
      <trkpt lat="46.9194250" lon="6.3877720">
        <ele>912.4</ele>
        <time>2022-07-22T10:28:51Z</time>
      </trkpt>
      <trkpt lat="46.9191870" lon="6.3877150">
        <ele>911.8</ele>
        <time>2022-07-22T10:28:54Z</time>
      </trkpt>
      <trkpt lat="46.9190630" lon="6.3876880">
        <ele>911.0</ele>
        <time>2022-07-22T10:28:56Z</time>
      </trkpt>
      <trkpt lat="46.9190090" lon="6.3876660">
        <ele>910.6</ele>
        <time>2022-07-22T10:28:57Z</time>
      </trkpt>
      <trkpt lat="46.9188880" lon="6.3876040">
        <ele>909.6</ele>
        <time>2022-07-22T10:28:59Z</time>
      </trkpt>
      <trkpt lat="46.9188310" lon="6.3875570">
        <ele>909.0</ele>
        <time>2022-07-22T10:29:00Z</time>
      </trkpt>
      <trkpt lat="46.9187670" lon="6.3875090">
        <ele>908.4</ele>
        <time>2022-07-22T10:29:01Z</time>
      </trkpt>
      <trkpt lat="46.9187060" lon="6.3874480">
        <ele>907.4</ele>
        <time>2022-07-22T10:29:02Z</time>
      </trkpt>
      <trkpt lat="46.9185960" lon="6.3873300">
        <ele>906.6</ele>
        <time>2022-07-22T10:29:04Z</time>
      </trkpt>
      <trkpt lat="46.9185350" lon="6.3872740">
        <ele>906.0</ele>
        <time>2022-07-22T10:29:05Z</time>
      </trkpt>
      <trkpt lat="46.9183420" lon="6.3870810">
        <ele>904.6</ele>
        <time>2022-07-22T10:29:08Z</time>
      </trkpt>
      <trkpt lat="46.9181530" lon="6.3869080">
        <ele>903.6</ele>
        <time>2022-07-22T10:29:11Z</time>
      </trkpt>
      <trkpt lat="46.9181030" lon="6.3868560">
        <ele>903.2</ele>
        <time>2022-07-22T10:29:12Z</time>
      </trkpt>
      <trkpt lat="46.9180530" lon="6.3868060">
        <ele>902.6</ele>
        <time>2022-07-22T10:29:13Z</time>
      </trkpt>
      <trkpt lat="46.9179070" lon="6.3866610">
        <ele>901.4</ele>
        <time>2022-07-22T10:29:16Z</time>
      </trkpt>
      <trkpt lat="46.9177920" lon="6.3865450">
        <ele>900.4</ele>
        <time>2022-07-22T10:29:18Z</time>
      </trkpt>
      <trkpt lat="46.9176730" lon="6.3864360">
        <ele>899.2</ele>
        <time>2022-07-22T10:29:20Z</time>
      </trkpt>
      <trkpt lat="46.9175440" lon="6.3863270">
        <ele>897.8</ele>
        <time>2022-07-22T10:29:22Z</time>
      </trkpt>
      <trkpt lat="46.9174850" lon="6.3862630">
        <ele>897.4</ele>
        <time>2022-07-22T10:29:23Z</time>
      </trkpt>
      <trkpt lat="46.9174200" lon="6.3861990">
        <ele>896.8</ele>
        <time>2022-07-22T10:29:24Z</time>
      </trkpt>
      <trkpt lat="46.9172010" lon="6.3859680">
        <ele>895.4</ele>
        <time>2022-07-22T10:29:27Z</time>
      </trkpt>
      <trkpt lat="46.9170370" lon="6.3858060">
        <ele>894.4</ele>
        <time>2022-07-22T10:29:29Z</time>
      </trkpt>
      <trkpt lat="46.9168680" lon="6.3856350">
        <ele>892.6</ele>
        <time>2022-07-22T10:29:31Z</time>
      </trkpt>
      <trkpt lat="46.9167840" lon="6.3855410">
        <ele>892.0</ele>
        <time>2022-07-22T10:29:32Z</time>
      </trkpt>
      <trkpt lat="46.9167040" lon="6.3854380">
        <ele>891.6</ele>
        <time>2022-07-22T10:29:33Z</time>
      </trkpt>
      <trkpt lat="46.9165390" lon="6.3852360">
        <ele>890.4</ele>
        <time>2022-07-22T10:29:35Z</time>
      </trkpt>
      <trkpt lat="46.9164470" lon="6.3851180">
        <ele>889.8</ele>
        <time>2022-07-22T10:29:36Z</time>
      </trkpt>
      <trkpt lat="46.9163710" lon="6.3849940">
        <ele>889.0</ele>
        <time>2022-07-22T10:29:37Z</time>
      </trkpt>
      <trkpt lat="46.9162520" lon="6.3847690">
        <ele>887.8</ele>
        <time>2022-07-22T10:29:39Z</time>
      </trkpt>
      <trkpt lat="46.9161950" lon="6.3846580">
        <ele>887.2</ele>
        <time>2022-07-22T10:29:40Z</time>
      </trkpt>
      <trkpt lat="46.9161430" lon="6.3845490">
        <ele>886.6</ele>
        <time>2022-07-22T10:29:41Z</time>
      </trkpt>
      <trkpt lat="46.9160420" lon="6.3843480">
        <ele>885.4</ele>
        <time>2022-07-22T10:29:43Z</time>
      </trkpt>
      <trkpt lat="46.9159550" lon="6.3841520">
        <ele>884.4</ele>
        <time>2022-07-22T10:29:45Z</time>
      </trkpt>
      <trkpt lat="46.9159130" lon="6.3840500">
        <ele>883.8</ele>
        <time>2022-07-22T10:29:46Z</time>
      </trkpt>
      <trkpt lat="46.9158530" lon="6.3839530">
        <ele>883.4</ele>
        <time>2022-07-22T10:29:47Z</time>
      </trkpt>
      <trkpt lat="46.9157340" lon="6.3837900">
        <ele>882.6</ele>
        <time>2022-07-22T10:29:49Z</time>
      </trkpt>
      <trkpt lat="46.9156630" lon="6.3837200">
        <ele>882.2</ele>
        <time>2022-07-22T10:29:50Z</time>
      </trkpt>
      <trkpt lat="46.9154220" lon="6.3835760">
        <ele>881.6</ele>
        <time>2022-07-22T10:29:53Z</time>
      </trkpt>
      <trkpt lat="46.9152480" lon="6.3834940">
        <ele>881.2</ele>
        <time>2022-07-22T10:29:55Z</time>
      </trkpt>
      <trkpt lat="46.9149180" lon="6.3833660">
        <ele>880.2</ele>
        <time>2022-07-22T10:29:59Z</time>
      </trkpt>
      <trkpt lat="46.9146080" lon="6.3832440">
        <ele>879.0</ele>
        <time>2022-07-22T10:30:03Z</time>
      </trkpt>
      <trkpt lat="46.9144520" lon="6.3831740">
        <ele>878.8</ele>
        <time>2022-07-22T10:30:05Z</time>
      </trkpt>
      <trkpt lat="46.9139730" lon="6.3829210">
        <ele>878.0</ele>
        <time>2022-07-22T10:30:11Z</time>
      </trkpt>
      <trkpt lat="46.9136240" lon="6.3826960">
        <ele>877.2</ele>
        <time>2022-07-22T10:30:16Z</time>
      </trkpt>
      <trkpt lat="46.9133350" lon="6.3823470">
        <ele>876.2</ele>
        <time>2022-07-22T10:30:21Z</time>
      </trkpt>
      <trkpt lat="46.9130820" lon="6.3819370">
        <ele>875.4</ele>
        <time>2022-07-22T10:30:26Z</time>
      </trkpt>
      <trkpt lat="46.9130350" lon="6.3818500">
        <ele>875.2</ele>
        <time>2022-07-22T10:30:27Z</time>
      </trkpt>
      <trkpt lat="46.9129000" lon="6.3815760">
        <ele>873.8</ele>
        <time>2022-07-22T10:30:30Z</time>
      </trkpt>
      <trkpt lat="46.9127610" lon="6.3812870">
        <ele>872.4</ele>
        <time>2022-07-22T10:30:33Z</time>
      </trkpt>
      <trkpt lat="46.9126130" lon="6.3810040">
        <ele>871.2</ele>
        <time>2022-07-22T10:30:36Z</time>
      </trkpt>
      <trkpt lat="46.9124580" lon="6.3807100">
        <ele>870.4</ele>
        <time>2022-07-22T10:30:39Z</time>
      </trkpt>
      <trkpt lat="46.9123980" lon="6.3806090">
        <ele>870.0</ele>
        <time>2022-07-22T10:30:40Z</time>
      </trkpt>
      <trkpt lat="46.9122110" lon="6.3803040">
        <ele>869.0</ele>
        <time>2022-07-22T10:30:43Z</time>
      </trkpt>
      <trkpt lat="46.9120100" lon="6.3799930">
        <ele>867.6</ele>
        <time>2022-07-22T10:30:46Z</time>
      </trkpt>
      <trkpt lat="46.9118000" lon="6.3796960">
        <ele>866.6</ele>
        <time>2022-07-22T10:30:49Z</time>
      </trkpt>
      <trkpt lat="46.9116680" lon="6.3794940">
        <ele>865.8</ele>
        <time>2022-07-22T10:30:51Z</time>
      </trkpt>
      <trkpt lat="46.9116010" lon="6.3794010">
        <ele>865.4</ele>
        <time>2022-07-22T10:30:52Z</time>
      </trkpt>
      <trkpt lat="46.9114130" lon="6.3791210">
        <ele>864.0</ele>
        <time>2022-07-22T10:30:55Z</time>
      </trkpt>
      <trkpt lat="46.9113590" lon="6.3790320">
        <ele>863.4</ele>
        <time>2022-07-22T10:30:56Z</time>
      </trkpt>
      <trkpt lat="46.9113040" lon="6.3789460">
        <ele>862.2</ele>
        <time>2022-07-22T10:30:57Z</time>
      </trkpt>
      <trkpt lat="46.9111500" lon="6.3786860">
        <ele>861.0</ele>
        <time>2022-07-22T10:31:00Z</time>
      </trkpt>
      <trkpt lat="46.9110600" lon="6.3785110">
        <ele>860.0</ele>
        <time>2022-07-22T10:31:02Z</time>
      </trkpt>
      <trkpt lat="46.9109460" lon="6.3782950">
        <ele>858.8</ele>
        <time>2022-07-22T10:31:05Z</time>
      </trkpt>
      <trkpt lat="46.9109130" lon="6.3782360">
        <ele>858.4</ele>
        <time>2022-07-22T10:31:06Z</time>
      </trkpt>
      <trkpt lat="46.9108550" lon="6.3781440">
        <ele>857.8</ele>
        <time>2022-07-22T10:31:08Z</time>
      </trkpt>
      <trkpt lat="46.9107780" lon="6.3780440">
        <ele>856.4</ele>
        <time>2022-07-22T10:31:11Z</time>
      </trkpt>
      <trkpt lat="46.9107190" lon="6.3779970">
        <ele>855.2</ele>
        <time>2022-07-22T10:31:13Z</time>
      </trkpt>
      <trkpt lat="46.9106670" lon="6.3779250">
        <ele>854.0</ele>
        <time>2022-07-22T10:31:15Z</time>
      </trkpt>
      <trkpt lat="46.9106400" lon="6.3778850">
        <ele>853.4</ele>
        <time>2022-07-22T10:31:16Z</time>
      </trkpt>
      <trkpt lat="46.9106130" lon="6.3778430">
        <ele>853.0</ele>
        <time>2022-07-22T10:31:17Z</time>
      </trkpt>
      <trkpt lat="46.9105180" lon="6.3777080">
        <ele>851.8</ele>
        <time>2022-07-22T10:31:20Z</time>
      </trkpt>
      <trkpt lat="46.9104140" lon="6.3775630">
        <ele>851.2</ele>
        <time>2022-07-22T10:31:23Z</time>
      </trkpt>
      <trkpt lat="46.9103020" lon="6.3774300">
        <ele>850.6</ele>
        <time>2022-07-22T10:31:26Z</time>
      </trkpt>
      <trkpt lat="46.9101210" lon="6.3771870">
        <ele>850.0</ele>
        <time>2022-07-22T10:31:31Z</time>
      </trkpt>
      <trkpt lat="46.9099830" lon="6.3770340">
        <ele>849.6</ele>
        <time>2022-07-22T10:31:35Z</time>
      </trkpt>
      <trkpt lat="46.9099160" lon="6.3769700">
        <ele>849.4</ele>
        <time>2022-07-22T10:31:37Z</time>
      </trkpt>
      <trkpt lat="46.9097450" lon="6.3768350">
        <ele>848.8</ele>
        <time>2022-07-22T10:31:42Z</time>
      </trkpt>
      <trkpt lat="46.9095860" lon="6.3767030">
        <ele>848.6</ele>
        <time>2022-07-22T10:31:46Z</time>
      </trkpt>
      <trkpt lat="46.9094510" lon="6.3765900">
        <ele>848.4</ele>
        <time>2022-07-22T10:31:49Z</time>
      </trkpt>
      <trkpt lat="46.9092230" lon="6.3763840">
        <ele>847.8</ele>
        <time>2022-07-22T10:31:54Z</time>
      </trkpt>
      <trkpt lat="46.9091540" lon="6.3763250">
        <ele>847.6</ele>
        <time>2022-07-22T10:31:56Z</time>
      </trkpt>
      <trkpt lat="46.9090310" lon="6.3762310">
        <ele>847.2</ele>
        <time>2022-07-22T10:32:00Z</time>
      </trkpt>
      <trkpt lat="46.9089770" lon="6.3762020">
        <ele>846.6</ele>
        <time>2022-07-22T10:32:02Z</time>
      </trkpt>
      <trkpt lat="46.9088710" lon="6.3761520">
        <ele>845.6</ele>
        <time>2022-07-22T10:32:06Z</time>
      </trkpt>
      <trkpt lat="46.9086060" lon="6.3759040">
        <ele>844.8</ele>
        <time>2022-07-22T10:32:15Z</time>
      </trkpt>
      <trkpt lat="46.9083930" lon="6.3756560">
        <ele>844.6</ele>
        <time>2022-07-22T10:32:22Z</time>
      </trkpt>
      <trkpt lat="46.9083300" lon="6.3755710">
        <ele>844.4</ele>
        <time>2022-07-22T10:32:24Z</time>
      </trkpt>
      <trkpt lat="46.9080590" lon="6.3751950">
        <ele>844.2</ele>
        <time>2022-07-22T10:32:33Z</time>
      </trkpt>
      <trkpt lat="46.9077640" lon="6.3747940">
        <ele>843.8</ele>
        <time>2022-07-22T10:32:42Z</time>
      </trkpt>
      <trkpt lat="46.9076580" lon="6.3746480">
        <ele>843.6</ele>
        <time>2022-07-22T10:32:45Z</time>
      </trkpt>
      <trkpt lat="46.9074040" lon="6.3743030">
        <ele>842.8</ele>
        <time>2022-07-22T10:32:52Z</time>
      </trkpt>
      <trkpt lat="46.9071600" lon="6.3739270">
        <ele>842.6</ele>
        <time>2022-07-22T10:32:59Z</time>
      </trkpt>
      <trkpt lat="46.9070610" lon="6.3737620">
        <ele>842.4</ele>
        <time>2022-07-22T10:33:02Z</time>
      </trkpt>
      <trkpt lat="46.9068620" lon="6.3734330">
        <ele>842.2</ele>
        <time>2022-07-22T10:33:08Z</time>
      </trkpt>
      <trkpt lat="46.9065830" lon="6.3729300">
        <ele>841.6</ele>
        <time>2022-07-22T10:33:17Z</time>
      </trkpt>
      <trkpt lat="46.9065200" lon="6.3728270">
        <ele>841.4</ele>
        <time>2022-07-22T10:33:19Z</time>
      </trkpt>
      <trkpt lat="46.9063780" lon="6.3725780">
        <ele>841.2</ele>
        <time>2022-07-22T10:33:24Z</time>
      </trkpt>
      <trkpt lat="46.9061730" lon="6.3721140">
        <ele>840.8</ele>
        <time>2022-07-22T10:33:32Z</time>
      </trkpt>
      <trkpt lat="46.9061210" lon="6.3718730">
        <ele>840.4</ele>
        <time>2022-07-22T10:33:36Z</time>
      </trkpt>
      <trkpt lat="46.9061020" lon="6.3717390">
        <ele>840.2</ele>
        <time>2022-07-22T10:33:38Z</time>
      </trkpt>
      <trkpt lat="46.9060360" lon="6.3712890">
        <ele>839.8</ele>
        <time>2022-07-22T10:33:45Z</time>
      </trkpt>
      <trkpt lat="46.9060250" lon="6.3712210">
        <ele>839.6</ele>
        <time>2022-07-22T10:33:46Z</time>
      </trkpt>
      <trkpt lat="46.9059650" lon="6.3708220">
        <ele>839.0</ele>
        <time>2022-07-22T10:33:52Z</time>
      </trkpt>
      <trkpt lat="46.9058870" lon="6.3703380">
        <ele>838.8</ele>
        <time>2022-07-22T10:33:59Z</time>
      </trkpt>
      <trkpt lat="46.9058770" lon="6.3702690">
        <ele>838.8</ele>
        <time>2022-07-22T10:34:00Z</time>
      </trkpt>
      <trkpt lat="46.9058390" lon="6.3699230">
        <ele>838.6</ele>
        <time>2022-07-22T10:34:05Z</time>
      </trkpt>
      <trkpt lat="46.9058300" lon="6.3694680">
        <ele>838.6</ele>
        <time>2022-07-22T10:34:11Z</time>
      </trkpt>
      <trkpt lat="46.9058280" lon="6.3693890">
        <ele>838.4</ele>
        <time>2022-07-22T10:34:12Z</time>
      </trkpt>
      <trkpt lat="46.9058030" lon="6.3687770">
        <ele>837.6</ele>
        <time>2022-07-22T10:34:20Z</time>
      </trkpt>
      <trkpt lat="46.9057990" lon="6.3687050">
        <ele>837.4</ele>
        <time>2022-07-22T10:34:21Z</time>
      </trkpt>
      <trkpt lat="46.9057700" lon="6.3680390">
        <ele>837.0</ele>
        <time>2022-07-22T10:34:30Z</time>
      </trkpt>
      <trkpt lat="46.9057320" lon="6.3674710">
        <ele>836.8</ele>
        <time>2022-07-22T10:34:37Z</time>
      </trkpt>
      <trkpt lat="46.9057000" lon="6.3668380">
        <ele>836.4</ele>
        <time>2022-07-22T10:34:45Z</time>
      </trkpt>
      <trkpt lat="46.9056830" lon="6.3664500">
        <ele>836.2</ele>
        <time>2022-07-22T10:34:50Z</time>
      </trkpt>
      <trkpt lat="46.9056990" lon="6.3662950">
        <ele>836.4</ele>
        <time>2022-07-22T10:34:52Z</time>
      </trkpt>
      <trkpt lat="46.9057100" lon="6.3662150">
        <ele>836.4</ele>
        <time>2022-07-22T10:34:53Z</time>
      </trkpt>
      <trkpt lat="46.9057860" lon="6.3656400">
        <ele>835.8</ele>
        <time>2022-07-22T10:35:00Z</time>
      </trkpt>
      <trkpt lat="46.9057970" lon="6.3655570">
        <ele>835.6</ele>
        <time>2022-07-22T10:35:01Z</time>
      </trkpt>
      <trkpt lat="46.9058380" lon="6.3650640">
        <ele>835.2</ele>
        <time>2022-07-22T10:35:07Z</time>
      </trkpt>
      <trkpt lat="46.9058480" lon="6.3646180">
        <ele>834.6</ele>
        <time>2022-07-22T10:35:12Z</time>
      </trkpt>
      <trkpt lat="46.9058480" lon="6.3645280">
        <ele>834.4</ele>
        <time>2022-07-22T10:35:13Z</time>
      </trkpt>
      <trkpt lat="46.9058030" lon="6.3640010">
        <ele>834.2</ele>
        <time>2022-07-22T10:35:19Z</time>
      </trkpt>
      <trkpt lat="46.9056390" lon="6.3634100">
        <ele>833.8</ele>
        <time>2022-07-22T10:35:26Z</time>
      </trkpt>
      <trkpt lat="46.9055310" lon="6.3630830">
        <ele>833.6</ele>
        <time>2022-07-22T10:35:30Z</time>
      </trkpt>
      <trkpt lat="46.9054360" lon="6.3627820">
        <ele>833.0</ele>
        <time>2022-07-22T10:35:34Z</time>
      </trkpt>
      <trkpt lat="46.9053470" lon="6.3624610">
        <ele>832.8</ele>
        <time>2022-07-22T10:35:39Z</time>
      </trkpt>
      <trkpt lat="46.9052670" lon="6.3621220">
        <ele>832.6</ele>
        <time>2022-07-22T10:35:44Z</time>
      </trkpt>
      <trkpt lat="46.9052560" lon="6.3620500">
        <ele>832.4</ele>
        <time>2022-07-22T10:35:45Z</time>
      </trkpt>
      <trkpt lat="46.9052480" lon="6.3619770">
        <ele>832.4</ele>
        <time>2022-07-22T10:35:46Z</time>
      </trkpt>
      <trkpt lat="46.9052510" lon="6.3616830">
        <ele>832.4</ele>
        <time>2022-07-22T10:35:50Z</time>
      </trkpt>
      <trkpt lat="46.9053450" lon="6.3612520">
        <ele>832.2</ele>
        <time>2022-07-22T10:35:56Z</time>
      </trkpt>
      <trkpt lat="46.9053890" lon="6.3611180">
        <ele>832.0</ele>
        <time>2022-07-22T10:35:58Z</time>
      </trkpt>
      <trkpt lat="46.9054810" lon="6.3608510">
        <ele>831.8</ele>
        <time>2022-07-22T10:36:02Z</time>
      </trkpt>
      <trkpt lat="46.9056080" lon="6.3603160">
        <ele>831.4</ele>
        <time>2022-07-22T10:36:09Z</time>
      </trkpt>
      <trkpt lat="46.9056210" lon="6.3602370">
        <ele>831.4</ele>
        <time>2022-07-22T10:36:10Z</time>
      </trkpt>
      <trkpt lat="46.9057390" lon="6.3597790">
        <ele>830.8</ele>
        <time>2022-07-22T10:36:16Z</time>
      </trkpt>
      <trkpt lat="46.9057510" lon="6.3596980">
        <ele>830.8</ele>
        <time>2022-07-22T10:36:17Z</time>
      </trkpt>
      <trkpt lat="46.9058120" lon="6.3592940">
        <ele>830.6</ele>
        <time>2022-07-22T10:36:22Z</time>
      </trkpt>
      <trkpt lat="46.9058440" lon="6.3590710">
        <ele>830.4</ele>
        <time>2022-07-22T10:36:25Z</time>
      </trkpt>
      <trkpt lat="46.9058740" lon="6.3588800">
        <ele>830.2</ele>
        <time>2022-07-22T10:36:28Z</time>
      </trkpt>
      <trkpt lat="46.9058970" lon="6.3587160">
        <ele>830.0</ele>
        <time>2022-07-22T10:36:31Z</time>
      </trkpt>
      <trkpt lat="46.9059060" lon="6.3583510">
        <ele>830.0</ele>
        <time>2022-07-22T10:36:38Z</time>
      </trkpt>
      <trkpt lat="46.9058360" lon="6.3579420">
        <ele>829.8</ele>
        <time>2022-07-22T10:36:45Z</time>
      </trkpt>
      <trkpt lat="46.9058340" lon="6.3578320">
        <ele>829.8</ele>
        <time>2022-07-22T10:36:49Z</time>
      </trkpt>
      <trkpt lat="46.9058310" lon="6.3578290">
        <ele>830.0</ele>
        <time>2022-07-22T10:36:50Z</time>
      </trkpt>
      <trkpt lat="46.9058400" lon="6.3577800">
        <ele>830.0</ele>
        <time>2022-07-22T10:37:14Z</time>
      </trkpt>
      <trkpt lat="46.9058660" lon="6.3577270">
        <ele>830.0</ele>
        <time>2022-07-22T10:37:16Z</time>
      </trkpt>
      <trkpt lat="46.9058800" lon="6.3576230">
        <ele>830.0</ele>
        <time>2022-07-22T10:37:19Z</time>
      </trkpt>
      <trkpt lat="46.9058660" lon="6.3575930">
        <ele>830.0</ele>
        <time>2022-07-22T10:37:20Z</time>
      </trkpt>
      <trkpt lat="46.9057540" lon="6.3575600">
        <ele>830.0</ele>
        <time>2022-07-22T10:37:24Z</time>
      </trkpt>
      <trkpt lat="46.9056860" lon="6.3575440">
        <ele>830.0</ele>
        <time>2022-07-22T10:37:26Z</time>
      </trkpt>
      <trkpt lat="46.9055660" lon="6.3575060">
        <ele>830.0</ele>
        <time>2022-07-22T10:37:29Z</time>
      </trkpt>
      <trkpt lat="46.9055220" lon="6.3574900">
        <ele>830.0</ele>
        <time>2022-07-22T10:37:30Z</time>
      </trkpt>
      <trkpt lat="46.9054340" lon="6.3574510">
        <ele>829.8</ele>
        <time>2022-07-22T10:37:32Z</time>
      </trkpt>
      <trkpt lat="46.9051940" lon="6.3573000">
        <ele>829.4</ele>
        <time>2022-07-22T10:37:38Z</time>
      </trkpt>
      <trkpt lat="46.9048780" lon="6.3570450">
        <ele>829.4</ele>
        <time>2022-07-22T10:37:47Z</time>
      </trkpt>
      <trkpt lat="46.9046120" lon="6.3567470">
        <ele>829.4</ele>
        <time>2022-07-22T10:37:55Z</time>
      </trkpt>
      <trkpt lat="46.9045260" lon="6.3565820">
        <ele>829.4</ele>
        <time>2022-07-22T10:37:59Z</time>
      </trkpt>
      <trkpt lat="46.9044910" lon="6.3565250">
        <ele>829.2</ele>
        <time>2022-07-22T10:38:03Z</time>
      </trkpt>
      <trkpt lat="46.9044900" lon="6.3565250">
        <ele>829.2</ele>
        <time>2022-07-22T10:38:04Z</time>
      </trkpt>
      <trkpt lat="46.9044830" lon="6.3564960">
        <ele>829.0</ele>
        <time>2022-07-22T10:38:12Z</time>
      </trkpt>
      <trkpt lat="46.9044830" lon="6.3564310">
        <ele>829.0</ele>
        <time>2022-07-22T10:38:14Z</time>
      </trkpt>
      <trkpt lat="46.9045300" lon="6.3562650">
        <ele>829.2</ele>
        <time>2022-07-22T10:38:18Z</time>
      </trkpt>
      <trkpt lat="46.9045660" lon="6.3561810">
        <ele>829.2</ele>
        <time>2022-07-22T10:38:20Z</time>
      </trkpt>
      <trkpt lat="46.9046790" lon="6.3558840">
        <ele>829.4</ele>
        <time>2022-07-22T10:38:27Z</time>
      </trkpt>
      <trkpt lat="46.9046730" lon="6.3557400">
        <ele>829.8</ele>
        <time>2022-07-22T10:38:31Z</time>
      </trkpt>
      <trkpt lat="46.9046010" lon="6.3556020">
        <ele>830.0</ele>
        <time>2022-07-22T10:38:37Z</time>
      </trkpt>
      <trkpt lat="46.9045730" lon="6.3555120">
        <ele>830.4</ele>
        <time>2022-07-22T10:38:41Z</time>
      </trkpt>
      <trkpt lat="46.9045540" lon="6.3554690">
        <ele>830.6</ele>
        <time>2022-07-22T10:38:43Z</time>
      </trkpt>
      <trkpt lat="46.9045470" lon="6.3554460">
        <ele>830.6</ele>
        <time>2022-07-22T10:38:46Z</time>
      </trkpt>
      <trkpt lat="46.9044180" lon="6.3552610">
        <ele>831.6</ele>
        <time>2022-07-22T10:48:37Z</time>
      </trkpt>
      <trkpt lat="46.9044060" lon="6.3552390">
        <ele>831.6</ele>
        <time>2022-07-22T10:48:38Z</time>
      </trkpt>
      <trkpt lat="46.9042990" lon="6.3551170">
        <ele>832.0</ele>
        <time>2022-07-22T10:48:45Z</time>
      </trkpt>
      <trkpt lat="46.9041860" lon="6.3550110">
        <ele>832.0</ele>
        <time>2022-07-22T10:48:52Z</time>
      </trkpt>
      <trkpt lat="46.9040710" lon="6.3548750">
        <ele>832.4</ele>
        <time>2022-07-22T10:49:00Z</time>
      </trkpt>
      <trkpt lat="46.9040320" lon="6.3547890">
        <ele>832.6</ele>
        <time>2022-07-22T10:49:04Z</time>
      </trkpt>
      <trkpt lat="46.9040090" lon="6.3547540">
        <ele>832.6</ele>
        <time>2022-07-22T10:49:06Z</time>
      </trkpt>
      <trkpt lat="46.9039160" lon="6.3546960">
        <ele>832.8</ele>
        <time>2022-07-22T10:49:13Z</time>
      </trkpt>
      <trkpt lat="46.9038760" lon="6.3546800">
        <ele>833.0</ele>
        <time>2022-07-22T10:49:16Z</time>
      </trkpt>
      <trkpt lat="46.9038380" lon="6.3546760">
        <ele>833.2</ele>
        <time>2022-07-22T10:49:19Z</time>
      </trkpt>
      <trkpt lat="46.9037910" lon="6.3547280">
        <ele>833.4</ele>
        <time>2022-07-22T10:49:25Z</time>
      </trkpt>
      <trkpt lat="46.9037780" lon="6.3547440">
        <ele>833.4</ele>
        <time>2022-07-22T10:49:26Z</time>
      </trkpt>
      <trkpt lat="46.9036850" lon="6.3549290">
        <ele>833.8</ele>
        <time>2022-07-22T10:49:34Z</time>
      </trkpt>
      <trkpt lat="46.9036410" lon="6.3549920">
        <ele>834.0</ele>
        <time>2022-07-22T10:49:37Z</time>
      </trkpt>
      <trkpt lat="46.9035740" lon="6.3550620">
        <ele>834.0</ele>
        <time>2022-07-22T10:49:41Z</time>
      </trkpt>
      <trkpt lat="46.9034800" lon="6.3551470">
        <ele>834.2</ele>
        <time>2022-07-22T10:49:47Z</time>
      </trkpt>
      <trkpt lat="46.9033740" lon="6.3551820">
        <ele>834.0</ele>
        <time>2022-07-22T10:49:54Z</time>
      </trkpt>
      <trkpt lat="46.9033470" lon="6.3552360">
        <ele>834.0</ele>
        <time>2022-07-22T10:49:59Z</time>
      </trkpt>
      <trkpt lat="46.9033260" lon="6.3552790">
        <ele>834.0</ele>
        <time>2022-07-22T10:50:02Z</time>
      </trkpt>
      <trkpt lat="46.9033240" lon="6.3553580">
        <ele>834.0</ele>
        <time>2022-07-22T10:50:06Z</time>
      </trkpt>
      <trkpt lat="46.9033760" lon="6.3553120">
        <ele>834.2</ele>
        <time>2022-07-22T10:50:12Z</time>
      </trkpt>
      <trkpt lat="46.9033860" lon="6.3552910">
        <ele>834.2</ele>
        <time>2022-07-22T10:50:13Z</time>
      </trkpt>
      <trkpt lat="46.9034710" lon="6.3551800">
        <ele>834.4</ele>
        <time>2022-07-22T10:50:19Z</time>
      </trkpt>
      <trkpt lat="46.9035590" lon="6.3550360">
        <ele>834.2</ele>
        <time>2022-07-22T10:50:26Z</time>
      </trkpt>
      <trkpt lat="46.9036460" lon="6.3548290">
        <ele>834.4</ele>
        <time>2022-07-22T10:50:33Z</time>
      </trkpt>
      <trkpt lat="46.9037500" lon="6.3545080">
        <ele>834.2</ele>
        <time>2022-07-22T10:50:41Z</time>
      </trkpt>
      <trkpt lat="46.9038470" lon="6.3543030">
        <ele>834.0</ele>
        <time>2022-07-22T10:50:47Z</time>
      </trkpt>
      <trkpt lat="46.9039410" lon="6.3541240">
        <ele>833.8</ele>
        <time>2022-07-22T10:50:53Z</time>
      </trkpt>
      <trkpt lat="46.9040230" lon="6.3539850">
        <ele>833.6</ele>
        <time>2022-07-22T10:50:58Z</time>
      </trkpt>
      <trkpt lat="46.9041040" lon="6.3537250">
        <ele>833.6</ele>
        <time>2022-07-22T10:51:05Z</time>
      </trkpt>
      <trkpt lat="46.9041270" lon="6.3536100">
        <ele>833.8</ele>
        <time>2022-07-22T10:51:10Z</time>
      </trkpt>
      <trkpt lat="46.9041260" lon="6.3536020">
        <ele>833.8</ele>
        <time>2022-07-22T10:51:11Z</time>
      </trkpt>
      <trkpt lat="46.9041900" lon="6.3550280">
        <ele>831.2</ele>
        <time>2022-07-22T11:18:18Z</time>
      </trkpt>
      <trkpt lat="46.9043130" lon="6.3551550">
        <ele>831.2</ele>
        <time>2022-07-22T11:18:23Z</time>
      </trkpt>
      <trkpt lat="46.9044990" lon="6.3553880">
        <ele>830.8</ele>
        <time>2022-07-22T11:18:30Z</time>
      </trkpt>
      <trkpt lat="46.9046100" lon="6.3556270">
        <ele>830.4</ele>
        <time>2022-07-22T11:18:35Z</time>
      </trkpt>
      <trkpt lat="46.9046200" lon="6.3556750">
        <ele>830.2</ele>
        <time>2022-07-22T11:18:36Z</time>
      </trkpt>
      <trkpt lat="46.9046150" lon="6.3557890">
        <ele>829.8</ele>
        <time>2022-07-22T11:18:39Z</time>
      </trkpt>
      <trkpt lat="46.9045610" lon="6.3559170">
        <ele>829.2</ele>
        <time>2022-07-22T11:18:43Z</time>
      </trkpt>
      <trkpt lat="46.9045410" lon="6.3559510">
        <ele>829.0</ele>
        <time>2022-07-22T11:18:44Z</time>
      </trkpt>
      <trkpt lat="46.9044180" lon="6.3562090">
        <ele>828.6</ele>
        <time>2022-07-22T11:18:51Z</time>
      </trkpt>
      <trkpt lat="46.9043380" lon="6.3564270">
        <ele>828.4</ele>
        <time>2022-07-22T11:18:56Z</time>
      </trkpt>
      <trkpt lat="46.9043760" lon="6.3565850">
        <ele>828.2</ele>
        <time>2022-07-22T11:18:59Z</time>
      </trkpt>
      <trkpt lat="46.9044040" lon="6.3566240">
        <ele>828.2</ele>
        <time>2022-07-22T11:19:00Z</time>
      </trkpt>
      <trkpt lat="46.9045110" lon="6.3567230">
        <ele>828.2</ele>
        <time>2022-07-22T11:19:03Z</time>
      </trkpt>
      <trkpt lat="46.9045840" lon="6.3568100">
        <ele>828.0</ele>
        <time>2022-07-22T11:19:05Z</time>
      </trkpt>
      <trkpt lat="46.9048830" lon="6.3571400">
        <ele>827.8</ele>
        <time>2022-07-22T11:19:14Z</time>
      </trkpt>
      <trkpt lat="46.9051820" lon="6.3574100">
        <ele>828.0</ele>
        <time>2022-07-22T11:19:23Z</time>
      </trkpt>
      <trkpt lat="46.9054420" lon="6.3575460">
        <ele>828.0</ele>
        <time>2022-07-22T11:19:30Z</time>
      </trkpt>
      <trkpt lat="46.9056720" lon="6.3576510">
        <ele>828.0</ele>
        <time>2022-07-22T11:19:37Z</time>
      </trkpt>
      <trkpt lat="46.9056990" lon="6.3578470">
        <ele>828.0</ele>
        <time>2022-07-22T11:19:41Z</time>
      </trkpt>
      <trkpt lat="46.9057180" lon="6.3580880">
        <ele>828.2</ele>
        <time>2022-07-22T11:19:45Z</time>
      </trkpt>
      <trkpt lat="46.9057270" lon="6.3581950">
        <ele>828.2</ele>
        <time>2022-07-22T11:19:47Z</time>
      </trkpt>
      <trkpt lat="46.9057610" lon="6.3585030">
        <ele>828.2</ele>
        <time>2022-07-22T11:19:53Z</time>
      </trkpt>
      <trkpt lat="46.9057670" lon="6.3586500">
        <ele>828.2</ele>
        <time>2022-07-22T11:19:58Z</time>
      </trkpt>
      <trkpt lat="46.9057600" lon="6.3589170">
        <ele>828.2</ele>
        <time>2022-07-22T11:20:03Z</time>
      </trkpt>
      <trkpt lat="46.9057300" lon="6.3593840">
        <ele>828.2</ele>
        <time>2022-07-22T11:20:11Z</time>
      </trkpt>
      <trkpt lat="46.9056120" lon="6.3598440">
        <ele>828.4</ele>
        <time>2022-07-22T11:20:19Z</time>
      </trkpt>
      <trkpt lat="46.9055420" lon="6.3602680">
        <ele>828.4</ele>
        <time>2022-07-22T11:20:27Z</time>
      </trkpt>
      <trkpt lat="46.9054850" lon="6.3605670">
        <ele>828.8</ele>
        <time>2022-07-22T11:20:33Z</time>
      </trkpt>
      <trkpt lat="46.9054040" lon="6.3608650">
        <ele>829.0</ele>
        <time>2022-07-22T11:20:39Z</time>
      </trkpt>
      <trkpt lat="46.9053130" lon="6.3612130">
        <ele>829.2</ele>
        <time>2022-07-22T11:20:46Z</time>
      </trkpt>
      <trkpt lat="46.9052710" lon="6.3613640">
        <ele>829.4</ele>
        <time>2022-07-22T11:20:49Z</time>
      </trkpt>
      <trkpt lat="46.9052110" lon="6.3616220">
        <ele>829.6</ele>
        <time>2022-07-22T11:20:54Z</time>
      </trkpt>
      <trkpt lat="46.9051770" lon="6.3619430">
        <ele>829.8</ele>
        <time>2022-07-22T11:21:00Z</time>
      </trkpt>
      <trkpt lat="46.9052170" lon="6.3622900">
        <ele>830.2</ele>
        <time>2022-07-22T11:21:06Z</time>
      </trkpt>
      <trkpt lat="46.9053480" lon="6.3627020">
        <ele>830.2</ele>
        <time>2022-07-22T11:21:14Z</time>
      </trkpt>
      <trkpt lat="46.9054670" lon="6.3630200">
        <ele>830.4</ele>
        <time>2022-07-22T11:21:20Z</time>
      </trkpt>
      <trkpt lat="46.9055040" lon="6.3631320">
        <ele>830.4</ele>
        <time>2022-07-22T11:21:22Z</time>
      </trkpt>
      <trkpt lat="46.9056450" lon="6.3636140">
        <ele>831.0</ele>
        <time>2022-07-22T11:21:31Z</time>
      </trkpt>
      <trkpt lat="46.9057560" lon="6.3640170">
        <ele>831.4</ele>
        <time>2022-07-22T11:21:39Z</time>
      </trkpt>
      <trkpt lat="46.9057700" lon="6.3640670">
        <ele>831.6</ele>
        <time>2022-07-22T11:21:40Z</time>
      </trkpt>
      <trkpt lat="46.9057840" lon="6.3642250">
        <ele>831.8</ele>
        <time>2022-07-22T11:21:43Z</time>
      </trkpt>
      <trkpt lat="46.9057960" lon="6.3644400">
        <ele>831.8</ele>
        <time>2022-07-22T11:21:47Z</time>
      </trkpt>
      <trkpt lat="46.9057960" lon="6.3647590">
        <ele>832.0</ele>
        <time>2022-07-22T11:21:53Z</time>
      </trkpt>
      <trkpt lat="46.9057770" lon="6.3652010">
        <ele>832.2</ele>
        <time>2022-07-22T11:22:01Z</time>
      </trkpt>
      <trkpt lat="46.9057340" lon="6.3655530">
        <ele>832.4</ele>
        <time>2022-07-22T11:22:08Z</time>
      </trkpt>
      <trkpt lat="46.9056930" lon="6.3658560">
        <ele>832.6</ele>
        <time>2022-07-22T11:22:14Z</time>
      </trkpt>
      <trkpt lat="46.9056840" lon="6.3659560">
        <ele>832.8</ele>
        <time>2022-07-22T11:22:16Z</time>
      </trkpt>
      <trkpt lat="46.9056340" lon="6.3663020">
        <ele>833.4</ele>
        <time>2022-07-22T11:22:23Z</time>
      </trkpt>
      <trkpt lat="46.9056250" lon="6.3664550">
        <ele>833.6</ele>
        <time>2022-07-22T11:22:26Z</time>
      </trkpt>
      <trkpt lat="46.9056240" lon="6.3665910">
        <ele>833.8</ele>
        <time>2022-07-22T11:22:29Z</time>
      </trkpt>
      <trkpt lat="46.9056350" lon="6.3669440">
        <ele>834.6</ele>
        <time>2022-07-22T11:22:36Z</time>
      </trkpt>
      <trkpt lat="46.9056400" lon="6.3670020">
        <ele>834.6</ele>
        <time>2022-07-22T11:22:37Z</time>
      </trkpt>
      <trkpt lat="46.9056600" lon="6.3673120">
        <ele>834.8</ele>
        <time>2022-07-22T11:22:42Z</time>
      </trkpt>
      <trkpt lat="46.9056820" lon="6.3676260">
        <ele>835.0</ele>
        <time>2022-07-22T11:22:47Z</time>
      </trkpt>
      <trkpt lat="46.9057020" lon="6.3679890">
        <ele>835.0</ele>
        <time>2022-07-22T11:22:53Z</time>
      </trkpt>
      <trkpt lat="46.9057230" lon="6.3684710">
        <ele>835.2</ele>
        <time>2022-07-22T11:23:01Z</time>
      </trkpt>
      <trkpt lat="46.9057420" lon="6.3690190">
        <ele>835.4</ele>
        <time>2022-07-22T11:23:10Z</time>
      </trkpt>
      <trkpt lat="46.9057580" lon="6.3693850">
        <ele>835.8</ele>
        <time>2022-07-22T11:23:16Z</time>
      </trkpt>
      <trkpt lat="46.9057640" lon="6.3695690">
        <ele>836.0</ele>
        <time>2022-07-22T11:23:19Z</time>
      </trkpt>
      <trkpt lat="46.9057880" lon="6.3700930">
        <ele>836.2</ele>
        <time>2022-07-22T11:23:28Z</time>
      </trkpt>
      <trkpt lat="46.9058120" lon="6.3703190">
        <ele>836.8</ele>
        <time>2022-07-22T11:23:32Z</time>
      </trkpt>
      <trkpt lat="46.9058600" lon="6.3706150">
        <ele>837.2</ele>
        <time>2022-07-22T11:23:37Z</time>
      </trkpt>
      <trkpt lat="46.9059380" lon="6.3710930">
        <ele>837.4</ele>
        <time>2022-07-22T11:23:45Z</time>
      </trkpt>
      <trkpt lat="46.9059590" lon="6.3712130">
        <ele>837.4</ele>
        <time>2022-07-22T11:23:47Z</time>
      </trkpt>
      <trkpt lat="46.9060410" lon="6.3717070">
        <ele>837.8</ele>
        <time>2022-07-22T11:23:55Z</time>
      </trkpt>
      <trkpt lat="46.9061630" lon="6.3722990">
        <ele>838.2</ele>
        <time>2022-07-22T11:24:05Z</time>
      </trkpt>
      <trkpt lat="46.9063500" lon="6.3726910">
        <ele>838.4</ele>
        <time>2022-07-22T11:24:13Z</time>
      </trkpt>
      <trkpt lat="46.9064240" lon="6.3728260">
        <ele>838.6</ele>
        <time>2022-07-22T11:24:16Z</time>
      </trkpt>
      <trkpt lat="46.9065570" lon="6.3730550">
        <ele>839.2</ele>
        <time>2022-07-22T11:24:21Z</time>
      </trkpt>
      <trkpt lat="46.9067490" lon="6.3733860">
        <ele>839.6</ele>
        <time>2022-07-22T11:24:28Z</time>
      </trkpt>
      <trkpt lat="46.9067770" lon="6.3734330">
        <ele>839.8</ele>
        <time>2022-07-22T11:24:29Z</time>
      </trkpt>
      <trkpt lat="46.9069870" lon="6.3737960">
        <ele>840.2</ele>
        <time>2022-07-22T11:24:37Z</time>
      </trkpt>
      <trkpt lat="46.9071730" lon="6.3741110">
        <ele>840.8</ele>
        <time>2022-07-22T11:24:44Z</time>
      </trkpt>
      <trkpt lat="46.9072290" lon="6.3741920">
        <ele>840.8</ele>
        <time>2022-07-22T11:24:46Z</time>
      </trkpt>
      <trkpt lat="46.9074970" lon="6.3745570">
        <ele>841.2</ele>
        <time>2022-07-22T11:24:55Z</time>
      </trkpt>
      <trkpt lat="46.9076440" lon="6.3747520">
        <ele>841.4</ele>
        <time>2022-07-22T11:25:00Z</time>
      </trkpt>
      <trkpt lat="46.9077590" lon="6.3749080">
        <ele>841.8</ele>
        <time>2022-07-22T11:25:04Z</time>
      </trkpt>
      <trkpt lat="46.9078160" lon="6.3749850">
        <ele>842.0</ele>
        <time>2022-07-22T11:25:06Z</time>
      </trkpt>
      <trkpt lat="46.9080130" lon="6.3752500">
        <ele>842.2</ele>
        <time>2022-07-22T11:25:13Z</time>
      </trkpt>
      <trkpt lat="46.9082150" lon="6.3755090">
        <ele>842.8</ele>
        <time>2022-07-22T11:25:20Z</time>
      </trkpt>
      <trkpt lat="46.9085310" lon="6.3759080">
        <ele>843.6</ele>
        <time>2022-07-22T11:25:31Z</time>
      </trkpt>
      <trkpt lat="46.9086270" lon="6.3760110">
        <ele>844.0</ele>
        <time>2022-07-22T11:25:34Z</time>
      </trkpt>
      <trkpt lat="46.9088000" lon="6.3762150">
        <ele>844.2</ele>
        <time>2022-07-22T11:25:40Z</time>
      </trkpt>
      <trkpt lat="46.9088700" lon="6.3764880">
        <ele>844.2</ele>
        <time>2022-07-22T11:25:45Z</time>
      </trkpt>
      <trkpt lat="46.9089310" lon="6.3768130">
        <ele>844.4</ele>
        <time>2022-07-22T11:25:52Z</time>
      </trkpt>
      <trkpt lat="46.9089120" lon="6.3770830">
        <ele>844.8</ele>
        <time>2022-07-22T11:25:58Z</time>
      </trkpt>
      <trkpt lat="46.9089040" lon="6.3771240">
        <ele>844.8</ele>
        <time>2022-07-22T11:25:59Z</time>
      </trkpt>
      <trkpt lat="46.9088340" lon="6.3773260">
        <ele>845.2</ele>
        <time>2022-07-22T11:26:05Z</time>
      </trkpt>
      <trkpt lat="46.9087680" lon="6.3774850">
        <ele>846.0</ele>
        <time>2022-07-22T11:26:11Z</time>
      </trkpt>
      <trkpt lat="46.9087390" lon="6.3775560">
        <ele>846.4</ele>
        <time>2022-07-22T11:26:14Z</time>
      </trkpt>
      <trkpt lat="46.9086670" lon="6.3776870">
        <ele>846.8</ele>
        <time>2022-07-22T11:26:21Z</time>
      </trkpt>
      <trkpt lat="46.9086510" lon="6.3777240">
        <ele>847.2</ele>
        <time>2022-07-22T11:26:23Z</time>
      </trkpt>
      <trkpt lat="46.9086140" lon="6.3778050">
        <ele>848.0</ele>
        <time>2022-07-22T11:26:29Z</time>
      </trkpt>
      <trkpt lat="46.9086000" lon="6.3778320">
        <ele>848.2</ele>
        <time>2022-07-22T11:26:31Z</time>
      </trkpt>
      <trkpt lat="46.9085740" lon="6.3778870">
        <ele>849.0</ele>
        <time>2022-07-22T11:26:35Z</time>
      </trkpt>
      <trkpt lat="46.9085560" lon="6.3779130">
        <ele>849.2</ele>
        <time>2022-07-22T11:26:37Z</time>
      </trkpt>
      <trkpt lat="46.9085470" lon="6.3779260">
        <ele>849.4</ele>
        <time>2022-07-22T11:26:38Z</time>
      </trkpt>
      <trkpt lat="46.9085410" lon="6.3779400">
        <ele>849.4</ele>
        <time>2022-07-22T11:26:39Z</time>
      </trkpt>
      <trkpt lat="46.9085080" lon="6.3780120">
        <ele>849.8</ele>
        <time>2022-07-22T11:26:44Z</time>
      </trkpt>
      <trkpt lat="46.9084690" lon="6.3780890">
        <ele>850.4</ele>
        <time>2022-07-22T11:26:49Z</time>
      </trkpt>
      <trkpt lat="46.9084270" lon="6.3781540">
        <ele>850.6</ele>
        <time>2022-07-22T11:26:53Z</time>
      </trkpt>
      <trkpt lat="46.9083720" lon="6.3782740">
        <ele>851.4</ele>
        <time>2022-07-22T11:27:00Z</time>
      </trkpt>
      <trkpt lat="46.9083670" lon="6.3782930">
        <ele>851.8</ele>
        <time>2022-07-22T11:27:01Z</time>
      </trkpt>
      <trkpt lat="46.9083360" lon="6.3783810">
        <ele>852.4</ele>
        <time>2022-07-22T11:27:06Z</time>
      </trkpt>
      <trkpt lat="46.9083090" lon="6.3784060">
        <ele>852.8</ele>
        <time>2022-07-22T11:27:08Z</time>
      </trkpt>
      <trkpt lat="46.9082580" lon="6.3784800">
        <ele>853.6</ele>
        <time>2022-07-22T11:27:13Z</time>
      </trkpt>
      <trkpt lat="46.9082370" lon="6.3785120">
        <ele>853.8</ele>
        <time>2022-07-22T11:27:15Z</time>
      </trkpt>
      <trkpt lat="46.9081760" lon="6.3785710">
        <ele>854.4</ele>
        <time>2022-07-22T11:27:22Z</time>
      </trkpt>
      <trkpt lat="46.9081740" lon="6.3785700">
        <ele>854.6</ele>
        <time>2022-07-22T11:27:23Z</time>
      </trkpt>
      <trkpt lat="46.9081320" lon="6.3786090">
        <ele>855.0</ele>
        <time>2022-07-22T11:27:45Z</time>
      </trkpt>
      <trkpt lat="46.9080960" lon="6.3786220">
        <ele>855.0</ele>
        <time>2022-07-22T11:27:47Z</time>
      </trkpt>
      <trkpt lat="46.9079830" lon="6.3786670">
        <ele>855.0</ele>
        <time>2022-07-22T11:27:53Z</time>
      </trkpt>
      <trkpt lat="46.9078140" lon="6.3786450">
        <ele>855.8</ele>
        <time>2022-07-22T11:28:01Z</time>
      </trkpt>
      <trkpt lat="46.9077690" lon="6.3786360">
        <ele>856.0</ele>
        <time>2022-07-22T11:28:03Z</time>
      </trkpt>
      <trkpt lat="46.9076620" lon="6.3786380">
        <ele>856.4</ele>
        <time>2022-07-22T11:28:08Z</time>
      </trkpt>
      <trkpt lat="46.9074840" lon="6.3786140">
        <ele>857.0</ele>
        <time>2022-07-22T11:28:16Z</time>
      </trkpt>
      <trkpt lat="46.9074450" lon="6.3786030">
        <ele>857.2</ele>
        <time>2022-07-22T11:28:18Z</time>
      </trkpt>
      <trkpt lat="46.9072740" lon="6.3785710">
        <ele>858.0</ele>
        <time>2022-07-22T11:28:26Z</time>
      </trkpt>
      <trkpt lat="46.9072340" lon="6.3785550">
        <ele>858.2</ele>
        <time>2022-07-22T11:28:28Z</time>
      </trkpt>
      <trkpt lat="46.9071120" lon="6.3785150">
        <ele>858.8</ele>
        <time>2022-07-22T11:28:34Z</time>
      </trkpt>
      <trkpt lat="46.9070330" lon="6.3784930">
        <ele>859.4</ele>
        <time>2022-07-22T11:28:38Z</time>
      </trkpt>
      <trkpt lat="46.9069360" lon="6.3784580">
        <ele>859.8</ele>
        <time>2022-07-22T11:28:43Z</time>
      </trkpt>
      <trkpt lat="46.9068040" lon="6.3783850">
        <ele>860.4</ele>
        <time>2022-07-22T11:28:50Z</time>
      </trkpt>
      <trkpt lat="46.9066890" lon="6.3782970">
        <ele>861.2</ele>
        <time>2022-07-22T11:28:57Z</time>
      </trkpt>
      <trkpt lat="46.9066550" lon="6.3782720">
        <ele>861.6</ele>
        <time>2022-07-22T11:28:59Z</time>
      </trkpt>
      <trkpt lat="46.9065780" lon="6.3782060">
        <ele>862.0</ele>
        <time>2022-07-22T11:29:03Z</time>
      </trkpt>
      <trkpt lat="46.9064760" lon="6.3781180">
        <ele>862.6</ele>
        <time>2022-07-22T11:29:08Z</time>
      </trkpt>
      <trkpt lat="46.9063970" lon="6.3780480">
        <ele>863.0</ele>
        <time>2022-07-22T11:29:12Z</time>
      </trkpt>
      <trkpt lat="46.9063240" lon="6.3779830">
        <ele>863.6</ele>
        <time>2022-07-22T11:29:16Z</time>
      </trkpt>
      <trkpt lat="46.9062390" lon="6.3778950">
        <ele>864.4</ele>
        <time>2022-07-22T11:29:21Z</time>
      </trkpt>
      <trkpt lat="46.9061830" lon="6.3778420">
        <ele>864.6</ele>
        <time>2022-07-22T11:29:24Z</time>
      </trkpt>
      <trkpt lat="46.9060760" lon="6.3777430">
        <ele>865.4</ele>
        <time>2022-07-22T11:29:30Z</time>
      </trkpt>
      <trkpt lat="46.9059060" lon="6.3775720">
        <ele>865.8</ele>
        <time>2022-07-22T11:29:39Z</time>
      </trkpt>
      <trkpt lat="46.9058870" lon="6.3775550">
        <ele>865.8</ele>
        <time>2022-07-22T11:29:40Z</time>
      </trkpt>
      <trkpt lat="46.9057250" lon="6.3773800">
        <ele>866.8</ele>
        <time>2022-07-22T11:29:50Z</time>
      </trkpt>
      <trkpt lat="46.9056100" lon="6.3772360">
        <ele>867.8</ele>
        <time>2022-07-22T11:29:57Z</time>
      </trkpt>
      <trkpt lat="46.9055940" lon="6.3772170">
        <ele>867.8</ele>
        <time>2022-07-22T11:29:58Z</time>
      </trkpt>
      <trkpt lat="46.9054730" lon="6.3770470">
        <ele>868.4</ele>
        <time>2022-07-22T11:30:06Z</time>
      </trkpt>
      <trkpt lat="46.9053340" lon="6.3768650">
        <ele>868.8</ele>
        <time>2022-07-22T11:30:15Z</time>
      </trkpt>
      <trkpt lat="46.9052980" lon="6.3768270">
        <ele>868.8</ele>
        <time>2022-07-22T11:30:17Z</time>
      </trkpt>
      <trkpt lat="46.9051810" lon="6.3767090">
        <ele>869.6</ele>
        <time>2022-07-22T11:30:24Z</time>
      </trkpt>
      <trkpt lat="46.9051290" lon="6.3766620">
        <ele>870.2</ele>
        <time>2022-07-22T11:30:27Z</time>
      </trkpt>
      <trkpt lat="46.9050380" lon="6.3765790">
        <ele>870.8</ele>
        <time>2022-07-22T11:30:32Z</time>
      </trkpt>
      <trkpt lat="46.9050020" lon="6.3765480">
        <ele>871.4</ele>
        <time>2022-07-22T11:30:34Z</time>
      </trkpt>
      <trkpt lat="46.9049050" lon="6.3764150">
        <ele>872.6</ele>
        <time>2022-07-22T11:30:40Z</time>
      </trkpt>
      <trkpt lat="46.9048420" lon="6.3761900">
        <ele>873.6</ele>
        <time>2022-07-22T11:30:47Z</time>
      </trkpt>
      <trkpt lat="46.9048380" lon="6.3761540">
        <ele>873.6</ele>
        <time>2022-07-22T11:30:48Z</time>
      </trkpt>
      <trkpt lat="46.9048100" lon="6.3758460">
        <ele>874.6</ele>
        <time>2022-07-22T11:30:57Z</time>
      </trkpt>
      <trkpt lat="46.9048060" lon="6.3758100">
        <ele>874.8</ele>
        <time>2022-07-22T11:30:58Z</time>
      </trkpt>
      <trkpt lat="46.9047930" lon="6.3757000">
        <ele>876.0</ele>
        <time>2022-07-22T11:31:01Z</time>
      </trkpt>
      <trkpt lat="46.9047650" lon="6.3754660">
        <ele>877.0</ele>
        <time>2022-07-22T11:31:06Z</time>
      </trkpt>
      <trkpt lat="46.9047030" lon="6.3749460">
        <ele>877.2</ele>
        <time>2022-07-22T11:31:15Z</time>
      </trkpt>
      <trkpt lat="46.9046410" lon="6.3744150">
        <ele>877.0</ele>
        <time>2022-07-22T11:31:22Z</time>
      </trkpt>
      <trkpt lat="46.9045950" lon="6.3740000">
        <ele>876.8</ele>
        <time>2022-07-22T11:31:28Z</time>
      </trkpt>
      <trkpt lat="46.9046190" lon="6.3739260">
        <ele>876.2</ele>
        <time>2022-07-22T11:31:32Z</time>
      </trkpt>
      <trkpt lat="46.9046290" lon="6.3739080">
        <ele>876.0</ele>
        <time>2022-07-22T11:31:33Z</time>
      </trkpt>
      <trkpt lat="46.9046740" lon="6.3737900">
        <ele>875.4</ele>
        <time>2022-07-22T11:31:37Z</time>
      </trkpt>
      <trkpt lat="46.9047090" lon="6.3736710">
        <ele>875.0</ele>
        <time>2022-07-22T11:31:40Z</time>
      </trkpt>
      <trkpt lat="46.9047460" lon="6.3734440">
        <ele>874.8</ele>
        <time>2022-07-22T11:31:45Z</time>
      </trkpt>
      <trkpt lat="46.9047480" lon="6.3730790">
        <ele>874.6</ele>
        <time>2022-07-22T11:31:50Z</time>
      </trkpt>
      <trkpt lat="46.9047810" lon="6.3725070">
        <ele>874.4</ele>
        <time>2022-07-22T11:31:55Z</time>
      </trkpt>
      <trkpt lat="46.9047990" lon="6.3723820">
        <ele>873.8</ele>
        <time>2022-07-22T11:31:56Z</time>
      </trkpt>
      <trkpt lat="46.9048320" lon="6.3721320">
        <ele>872.6</ele>
        <time>2022-07-22T11:31:58Z</time>
      </trkpt>
      <trkpt lat="46.9048310" lon="6.3718870">
        <ele>872.0</ele>
        <time>2022-07-22T11:32:00Z</time>
      </trkpt>
      <trkpt lat="46.9048180" lon="6.3717720">
        <ele>871.4</ele>
        <time>2022-07-22T11:32:01Z</time>
      </trkpt>
      <trkpt lat="46.9047750" lon="6.3715730">
        <ele>869.8</ele>
        <time>2022-07-22T11:32:03Z</time>
      </trkpt>
      <trkpt lat="46.9047540" lon="6.3714920">
        <ele>869.2</ele>
        <time>2022-07-22T11:32:04Z</time>
      </trkpt>
      <trkpt lat="46.9046870" lon="6.3712700">
        <ele>868.8</ele>
        <time>2022-07-22T11:32:08Z</time>
      </trkpt>
      <trkpt lat="46.9045520" lon="6.3709940">
        <ele>869.4</ele>
        <time>2022-07-22T11:32:16Z</time>
      </trkpt>
      <trkpt lat="46.9044690" lon="6.3710380">
        <ele>869.4</ele>
        <time>2022-07-22T11:32:19Z</time>
      </trkpt>
      <trkpt lat="46.9044480" lon="6.3710840">
        <ele>869.6</ele>
        <time>2022-07-22T11:32:20Z</time>
      </trkpt>
      <trkpt lat="46.9043750" lon="6.3712470">
        <ele>869.6</ele>
        <time>2022-07-22T11:32:23Z</time>
      </trkpt>
      <trkpt lat="46.9043390" lon="6.3713010">
        <ele>869.6</ele>
        <time>2022-07-22T11:32:24Z</time>
      </trkpt>
      <trkpt lat="46.9041370" lon="6.3714360">
        <ele>869.2</ele>
        <time>2022-07-22T11:32:28Z</time>
      </trkpt>
      <trkpt lat="46.9040150" lon="6.3714530">
        <ele>868.8</ele>
        <time>2022-07-22T11:32:30Z</time>
      </trkpt>
      <trkpt lat="46.9039520" lon="6.3714570">
        <ele>868.6</ele>
        <time>2022-07-22T11:32:31Z</time>
      </trkpt>
      <trkpt lat="46.9037550" lon="6.3714780">
        <ele>868.2</ele>
        <time>2022-07-22T11:32:34Z</time>
      </trkpt>
      <trkpt lat="46.9035620" lon="6.3714940">
        <ele>867.4</ele>
        <time>2022-07-22T11:32:37Z</time>
      </trkpt>
      <trkpt lat="46.9034590" lon="6.3715030">
        <ele>867.4</ele>
        <time>2022-07-22T11:32:39Z</time>
      </trkpt>
      <trkpt lat="46.9033220" lon="6.3715990">
        <ele>866.6</ele>
        <time>2022-07-22T11:32:43Z</time>
      </trkpt>
      <trkpt lat="46.9031740" lon="6.3719530">
        <ele>865.6</ele>
        <time>2022-07-22T11:32:50Z</time>
      </trkpt>
      <trkpt lat="46.9029800" lon="6.3724160">
        <ele>865.6</ele>
        <time>2022-07-22T11:32:59Z</time>
      </trkpt>
      <trkpt lat="46.9028260" lon="6.3727350">
        <ele>865.8</ele>
        <time>2022-07-22T11:33:06Z</time>
      </trkpt>
      <trkpt lat="46.9026600" lon="6.3730790">
        <ele>866.2</ele>
        <time>2022-07-22T11:33:15Z</time>
      </trkpt>
      <trkpt lat="46.9025890" lon="6.3732300">
        <ele>866.6</ele>
        <time>2022-07-22T11:33:20Z</time>
      </trkpt>
      <trkpt lat="46.9025790" lon="6.3732660">
        <ele>866.8</ele>
        <time>2022-07-22T11:33:21Z</time>
      </trkpt>
      <trkpt lat="46.9025430" lon="6.3735240">
        <ele>867.8</ele>
        <time>2022-07-22T11:33:28Z</time>
      </trkpt>
      <trkpt lat="46.9025360" lon="6.3735940">
        <ele>867.8</ele>
        <time>2022-07-22T11:33:30Z</time>
      </trkpt>
      <trkpt lat="46.9025210" lon="6.3737820">
        <ele>868.6</ele>
        <time>2022-07-22T11:33:36Z</time>
      </trkpt>
      <trkpt lat="46.9025070" lon="6.3739180">
        <ele>869.2</ele>
        <time>2022-07-22T11:33:41Z</time>
      </trkpt>
      <trkpt lat="46.9024840" lon="6.3740610">
        <ele>870.2</ele>
        <time>2022-07-22T11:33:47Z</time>
      </trkpt>
      <trkpt lat="46.9024430" lon="6.3742240">
        <ele>871.2</ele>
        <time>2022-07-22T11:33:54Z</time>
      </trkpt>
      <trkpt lat="46.9024200" lon="6.3742920">
        <ele>871.6</ele>
        <time>2022-07-22T11:33:57Z</time>
      </trkpt>
      <trkpt lat="46.9023900" lon="6.3744140">
        <ele>872.4</ele>
        <time>2022-07-22T11:34:02Z</time>
      </trkpt>
      <trkpt lat="46.9023650" lon="6.3745100">
        <ele>873.0</ele>
        <time>2022-07-22T11:34:06Z</time>
      </trkpt>
      <trkpt lat="46.9023490" lon="6.3745770">
        <ele>873.4</ele>
        <time>2022-07-22T11:34:09Z</time>
      </trkpt>
      <trkpt lat="46.9023170" lon="6.3747070">
        <ele>874.6</ele>
        <time>2022-07-22T11:34:15Z</time>
      </trkpt>
      <trkpt lat="46.9022920" lon="6.3748070">
        <ele>875.6</ele>
        <time>2022-07-22T11:34:20Z</time>
      </trkpt>
      <trkpt lat="46.9022790" lon="6.3748470">
        <ele>876.0</ele>
        <time>2022-07-22T11:34:22Z</time>
      </trkpt>
      <trkpt lat="46.9022400" lon="6.3749700">
        <ele>876.8</ele>
        <time>2022-07-22T11:34:28Z</time>
      </trkpt>
      <trkpt lat="46.9022280" lon="6.3750050">
        <ele>877.2</ele>
        <time>2022-07-22T11:34:30Z</time>
      </trkpt>
      <trkpt lat="46.9022040" lon="6.3751190">
        <ele>877.8</ele>
        <time>2022-07-22T11:34:35Z</time>
      </trkpt>
      <trkpt lat="46.9021860" lon="6.3751900">
        <ele>878.2</ele>
        <time>2022-07-22T11:34:38Z</time>
      </trkpt>
      <trkpt lat="46.9021450" lon="6.3753000">
        <ele>878.8</ele>
        <time>2022-07-22T11:34:43Z</time>
      </trkpt>
      <trkpt lat="46.9021210" lon="6.3753960">
        <ele>879.4</ele>
        <time>2022-07-22T11:34:47Z</time>
      </trkpt>
      <trkpt lat="46.9020970" lon="6.3754990">
        <ele>879.8</ele>
        <time>2022-07-22T11:34:51Z</time>
      </trkpt>
      <trkpt lat="46.9020500" lon="6.3757000">
        <ele>880.4</ele>
        <time>2022-07-22T11:34:59Z</time>
      </trkpt>
      <trkpt lat="46.9020180" lon="6.3758440">
        <ele>881.0</ele>
        <time>2022-07-22T11:35:05Z</time>
      </trkpt>
      <trkpt lat="46.9020100" lon="6.3758910">
        <ele>881.4</ele>
        <time>2022-07-22T11:35:07Z</time>
      </trkpt>
      <trkpt lat="46.9019910" lon="6.3760090">
        <ele>882.2</ele>
        <time>2022-07-22T11:35:12Z</time>
      </trkpt>
      <trkpt lat="46.9019630" lon="6.3761810">
        <ele>883.2</ele>
        <time>2022-07-22T11:35:19Z</time>
      </trkpt>
      <trkpt lat="46.9019590" lon="6.3762060">
        <ele>883.4</ele>
        <time>2022-07-22T11:35:20Z</time>
      </trkpt>
      <trkpt lat="46.9019270" lon="6.3764110">
        <ele>884.2</ele>
        <time>2022-07-22T11:35:28Z</time>
      </trkpt>
      <trkpt lat="46.9019240" lon="6.3764620">
        <ele>884.4</ele>
        <time>2022-07-22T11:35:30Z</time>
      </trkpt>
      <trkpt lat="46.9019040" lon="6.3766590">
        <ele>885.6</ele>
        <time>2022-07-22T11:35:38Z</time>
      </trkpt>
      <trkpt lat="46.9019020" lon="6.3766820">
        <ele>885.8</ele>
        <time>2022-07-22T11:35:39Z</time>
      </trkpt>
      <trkpt lat="46.9018770" lon="6.3768330">
        <ele>886.6</ele>
        <time>2022-07-22T11:35:46Z</time>
      </trkpt>
      <trkpt lat="46.9018520" lon="6.3769060">
        <ele>887.4</ele>
        <time>2022-07-22T11:35:50Z</time>
      </trkpt>
      <trkpt lat="46.9018350" lon="6.3769390">
        <ele>887.6</ele>
        <time>2022-07-22T11:35:52Z</time>
      </trkpt>
      <trkpt lat="46.9017620" lon="6.3770390">
        <ele>888.6</ele>
        <time>2022-07-22T11:35:59Z</time>
      </trkpt>
      <trkpt lat="46.9017510" lon="6.3770520">
        <ele>888.8</ele>
        <time>2022-07-22T11:36:00Z</time>
      </trkpt>
      <trkpt lat="46.9016650" lon="6.3771660">
        <ele>889.8</ele>
        <time>2022-07-22T11:36:08Z</time>
      </trkpt>
      <trkpt lat="46.9016540" lon="6.3771790">
        <ele>890.0</ele>
        <time>2022-07-22T11:36:09Z</time>
      </trkpt>
      <trkpt lat="46.9015630" lon="6.3772960">
        <ele>891.0</ele>
        <time>2022-07-22T11:36:17Z</time>
      </trkpt>
      <trkpt lat="46.9015520" lon="6.3773100">
        <ele>891.2</ele>
        <time>2022-07-22T11:36:18Z</time>
      </trkpt>
      <trkpt lat="46.9014930" lon="6.3773770">
        <ele>892.0</ele>
        <time>2022-07-22T11:36:23Z</time>
      </trkpt>
      <trkpt lat="46.9014360" lon="6.3774080">
        <ele>892.8</ele>
        <time>2022-07-22T11:36:27Z</time>
      </trkpt>
      <trkpt lat="46.9014110" lon="6.3774090">
        <ele>893.2</ele>
        <time>2022-07-22T11:36:29Z</time>
      </trkpt>
      <trkpt lat="46.9013440" lon="6.3773640">
        <ele>894.0</ele>
        <time>2022-07-22T11:36:34Z</time>
      </trkpt>
      <trkpt lat="46.9012800" lon="6.3772860">
        <ele>894.2</ele>
        <time>2022-07-22T11:36:37Z</time>
      </trkpt>
      <trkpt lat="46.9012530" lon="6.3772430">
        <ele>894.4</ele>
        <time>2022-07-22T11:36:38Z</time>
      </trkpt>
      <trkpt lat="46.9010590" lon="6.3769960">
        <ele>894.4</ele>
        <time>2022-07-22T11:36:43Z</time>
      </trkpt>
      <trkpt lat="46.9008680" lon="6.3768070">
        <ele>894.0</ele>
        <time>2022-07-22T11:36:47Z</time>
      </trkpt>
      <trkpt lat="46.9007680" lon="6.3767490">
        <ele>893.6</ele>
        <time>2022-07-22T11:36:49Z</time>
      </trkpt>
      <trkpt lat="46.9006820" lon="6.3767300">
        <ele>893.2</ele>
        <time>2022-07-22T11:36:51Z</time>
      </trkpt>
      <trkpt lat="46.9006460" lon="6.3767260">
        <ele>893.0</ele>
        <time>2022-07-22T11:36:52Z</time>
      </trkpt>
      <trkpt lat="46.9006100" lon="6.3767170">
        <ele>892.6</ele>
        <time>2022-07-22T11:36:53Z</time>
      </trkpt>
      <trkpt lat="46.9004850" lon="6.3766770">
        <ele>892.2</ele>
        <time>2022-07-22T11:36:56Z</time>
      </trkpt>
      <trkpt lat="46.9003780" lon="6.3766260">
        <ele>892.2</ele>
        <time>2022-07-22T11:36:58Z</time>
      </trkpt>
      <trkpt lat="46.9000380" lon="6.3763880">
        <ele>892.0</ele>
        <time>2022-07-22T11:37:04Z</time>
      </trkpt>
      <trkpt lat="46.8998970" lon="6.3762430">
        <ele>891.2</ele>
        <time>2022-07-22T11:37:07Z</time>
      </trkpt>
      <trkpt lat="46.8998660" lon="6.3761720">
        <ele>890.8</ele>
        <time>2022-07-22T11:37:08Z</time>
      </trkpt>
      <trkpt lat="46.8998150" lon="6.3759120">
        <ele>890.6</ele>
        <time>2022-07-22T11:37:11Z</time>
      </trkpt>
      <trkpt lat="46.8998010" lon="6.3758300">
        <ele>890.4</ele>
        <time>2022-07-22T11:37:12Z</time>
      </trkpt>
      <trkpt lat="46.8997540" lon="6.3756980">
        <ele>890.2</ele>
        <time>2022-07-22T11:37:14Z</time>
      </trkpt>
      <trkpt lat="46.8997040" lon="6.3756070">
        <ele>889.6</ele>
        <time>2022-07-22T11:37:16Z</time>
      </trkpt>
      <trkpt lat="46.8996470" lon="6.3755360">
        <ele>889.0</ele>
        <time>2022-07-22T11:37:18Z</time>
      </trkpt>
      <trkpt lat="46.8995920" lon="6.3754870">
        <ele>887.8</ele>
        <time>2022-07-22T11:37:20Z</time>
      </trkpt>
      <trkpt lat="46.8995700" lon="6.3754630">
        <ele>887.2</ele>
        <time>2022-07-22T11:37:21Z</time>
      </trkpt>
      <trkpt lat="46.8995490" lon="6.3754340">
        <ele>886.6</ele>
        <time>2022-07-22T11:37:22Z</time>
      </trkpt>
      <trkpt lat="46.8994950" lon="6.3753800">
        <ele>885.4</ele>
        <time>2022-07-22T11:37:24Z</time>
      </trkpt>
      <trkpt lat="46.8994670" lon="6.3753710">
        <ele>884.8</ele>
        <time>2022-07-22T11:37:25Z</time>
      </trkpt>
      <trkpt lat="46.8994400" lon="6.3753770">
        <ele>884.2</ele>
        <time>2022-07-22T11:37:26Z</time>
      </trkpt>
      <trkpt lat="46.8993650" lon="6.3753990">
        <ele>883.0</ele>
        <time>2022-07-22T11:37:29Z</time>
      </trkpt>
      <trkpt lat="46.8992980" lon="6.3754110">
        <ele>882.0</ele>
        <time>2022-07-22T11:37:31Z</time>
      </trkpt>
      <trkpt lat="46.8992620" lon="6.3754220">
        <ele>881.6</ele>
        <time>2022-07-22T11:37:32Z</time>
      </trkpt>
      <trkpt lat="46.8992210" lon="6.3754350">
        <ele>881.4</ele>
        <time>2022-07-22T11:37:33Z</time>
      </trkpt>
      <trkpt lat="46.8990960" lon="6.3754750">
        <ele>881.2</ele>
        <time>2022-07-22T11:37:36Z</time>
      </trkpt>
      <trkpt lat="46.8989690" lon="6.3754660">
        <ele>881.0</ele>
        <time>2022-07-22T11:37:40Z</time>
      </trkpt>
      <trkpt lat="46.8989290" lon="6.3753890">
        <ele>880.8</ele>
        <time>2022-07-22T11:37:44Z</time>
      </trkpt>
      <trkpt lat="46.8989240" lon="6.3753580">
        <ele>880.8</ele>
        <time>2022-07-22T11:37:46Z</time>
      </trkpt>
      <trkpt lat="46.8989320" lon="6.3752770">
        <ele>881.0</ele>
        <time>2022-07-22T11:37:51Z</time>
      </trkpt>
      <trkpt lat="46.8989400" lon="6.3752450">
        <ele>881.6</ele>
        <time>2022-07-22T11:37:55Z</time>
      </trkpt>
      <trkpt lat="46.8986900" lon="6.3748650">
        <ele>888.2</ele>
        <time>2022-07-22T11:39:14Z</time>
      </trkpt>
      <trkpt lat="46.8986780" lon="6.3748670">
        <ele>888.2</ele>
        <time>2022-07-22T11:39:15Z</time>
      </trkpt>
      <trkpt lat="46.8985620" lon="6.3748250">
        <ele>888.6</ele>
        <time>2022-07-22T11:39:24Z</time>
      </trkpt>
      <trkpt lat="46.8984950" lon="6.3748030">
        <ele>889.0</ele>
        <time>2022-07-22T11:39:29Z</time>
      </trkpt>
      <trkpt lat="46.8984510" lon="6.3747820">
        <ele>889.2</ele>
        <time>2022-07-22T11:39:32Z</time>
      </trkpt>
      <trkpt lat="46.8983820" lon="6.3747360">
        <ele>889.8</ele>
        <time>2022-07-22T11:39:37Z</time>
      </trkpt>
      <trkpt lat="46.8982690" lon="6.3746960">
        <ele>890.4</ele>
        <time>2022-07-22T11:39:45Z</time>
      </trkpt>
      <trkpt lat="46.8981940" lon="6.3746590">
        <ele>891.2</ele>
        <time>2022-07-22T11:39:52Z</time>
      </trkpt>
      <trkpt lat="46.8981310" lon="6.3746230">
        <ele>892.4</ele>
        <time>2022-07-22T11:40:00Z</time>
      </trkpt>
      <trkpt lat="46.8980890" lon="6.3745980">
        <ele>892.6</ele>
        <time>2022-07-22T11:40:03Z</time>
      </trkpt>
      <trkpt lat="46.8979740" lon="6.3745420">
        <ele>893.2</ele>
        <time>2022-07-22T11:40:11Z</time>
      </trkpt>
      <trkpt lat="46.8978770" lon="6.3745420">
        <ele>893.4</ele>
        <time>2022-07-22T11:40:17Z</time>
      </trkpt>
      <trkpt lat="46.8978630" lon="6.3745380">
        <ele>893.6</ele>
        <time>2022-07-22T11:40:18Z</time>
      </trkpt>
      <trkpt lat="46.8978430" lon="6.3745310">
        <ele>893.8</ele>
        <time>2022-07-22T11:40:20Z</time>
      </trkpt>
      <trkpt lat="46.8978090" lon="6.3744960">
        <ele>894.0</ele>
        <time>2022-07-22T11:40:23Z</time>
      </trkpt>
      <trkpt lat="46.8977740" lon="6.3744620">
        <ele>894.4</ele>
        <time>2022-07-22T11:40:27Z</time>
      </trkpt>
      <trkpt lat="46.8977560" lon="6.3744400">
        <ele>894.6</ele>
        <time>2022-07-22T11:40:29Z</time>
      </trkpt>
      <trkpt lat="46.8976550" lon="6.3743390">
        <ele>895.4</ele>
        <time>2022-07-22T11:40:37Z</time>
      </trkpt>
      <trkpt lat="46.8975830" lon="6.3743110">
        <ele>896.2</ele>
        <time>2022-07-22T11:40:42Z</time>
      </trkpt>
      <trkpt lat="46.8975510" lon="6.3742900">
        <ele>896.6</ele>
        <time>2022-07-22T11:40:44Z</time>
      </trkpt>
      <trkpt lat="46.8975300" lon="6.3742510">
        <ele>897.4</ele>
        <time>2022-07-22T11:40:48Z</time>
      </trkpt>
      <trkpt lat="46.8975310" lon="6.3742440">
        <ele>897.6</ele>
        <time>2022-07-22T11:40:49Z</time>
      </trkpt>
      <trkpt lat="46.8969150" lon="6.3738300">
        <ele>908.8</ele>
        <time>2022-07-22T11:42:33Z</time>
      </trkpt>
      <trkpt lat="46.8968770" lon="6.3737900">
        <ele>909.0</ele>
        <time>2022-07-22T11:42:36Z</time>
      </trkpt>
      <trkpt lat="46.8967600" lon="6.3736600">
        <ele>909.6</ele>
        <time>2022-07-22T11:42:45Z</time>
      </trkpt>
      <trkpt lat="46.8967230" lon="6.3736160">
        <ele>909.8</ele>
        <time>2022-07-22T11:42:48Z</time>
      </trkpt>
      <trkpt lat="46.8966870" lon="6.3735900">
        <ele>910.0</ele>
        <time>2022-07-22T11:42:51Z</time>
      </trkpt>
      <trkpt lat="46.8965890" lon="6.3735650">
        <ele>911.0</ele>
        <time>2022-07-22T11:42:58Z</time>
      </trkpt>
      <trkpt lat="46.8965730" lon="6.3735650">
        <ele>911.2</ele>
        <time>2022-07-22T11:42:59Z</time>
      </trkpt>
      <trkpt lat="46.8965310" lon="6.3735710">
        <ele>911.4</ele>
        <time>2022-07-22T11:43:04Z</time>
      </trkpt>
      <trkpt lat="46.8965000" lon="6.3734690">
        <ele>912.2</ele>
        <time>2022-07-22T11:43:54Z</time>
      </trkpt>
      <trkpt lat="46.8964680" lon="6.3732970">
        <ele>912.2</ele>
        <time>2022-07-22T11:43:58Z</time>
      </trkpt>
      <trkpt lat="46.8963350" lon="6.3731480">
        <ele>912.0</ele>
        <time>2022-07-22T11:44:02Z</time>
      </trkpt>
      <trkpt lat="46.8962900" lon="6.3731140">
        <ele>911.8</ele>
        <time>2022-07-22T11:44:03Z</time>
      </trkpt>
      <trkpt lat="46.8960360" lon="6.3729350">
        <ele>911.0</ele>
        <time>2022-07-22T11:44:08Z</time>
      </trkpt>
      <trkpt lat="46.8959350" lon="6.3728420">
        <ele>910.8</ele>
        <time>2022-07-22T11:44:10Z</time>
      </trkpt>
      <trkpt lat="46.8958420" lon="6.3727260">
        <ele>910.4</ele>
        <time>2022-07-22T11:44:12Z</time>
      </trkpt>
      <trkpt lat="46.8957530" lon="6.3725830">
        <ele>910.0</ele>
        <time>2022-07-22T11:44:14Z</time>
      </trkpt>
      <trkpt lat="46.8957080" lon="6.3725050">
        <ele>909.8</ele>
        <time>2022-07-22T11:44:15Z</time>
      </trkpt>
      <trkpt lat="46.8956160" lon="6.3723620">
        <ele>909.4</ele>
        <time>2022-07-22T11:44:17Z</time>
      </trkpt>
      <trkpt lat="46.8954490" lon="6.3721650">
        <ele>909.0</ele>
        <time>2022-07-22T11:44:20Z</time>
      </trkpt>
      <trkpt lat="46.8951820" lon="6.3719640">
        <ele>907.6</ele>
        <time>2022-07-22T11:44:24Z</time>
      </trkpt>
      <trkpt lat="46.8951060" lon="6.3719270">
        <ele>907.2</ele>
        <time>2022-07-22T11:44:25Z</time>
      </trkpt>
      <trkpt lat="46.8949400" lon="6.3718790">
        <ele>906.6</ele>
        <time>2022-07-22T11:44:27Z</time>
      </trkpt>
      <trkpt lat="46.8947610" lon="6.3718540">
        <ele>906.2</ele>
        <time>2022-07-22T11:44:29Z</time>
      </trkpt>
      <trkpt lat="46.8945750" lon="6.3718390">
        <ele>905.4</ele>
        <time>2022-07-22T11:44:31Z</time>
      </trkpt>
      <trkpt lat="46.8942800" lon="6.3718290">
        <ele>904.2</ele>
        <time>2022-07-22T11:44:34Z</time>
      </trkpt>
      <trkpt lat="46.8941800" lon="6.3718210">
        <ele>904.0</ele>
        <time>2022-07-22T11:44:35Z</time>
      </trkpt>
      <trkpt lat="46.8939810" lon="6.3718070">
        <ele>903.0</ele>
        <time>2022-07-22T11:44:37Z</time>
      </trkpt>
      <trkpt lat="46.8936790" lon="6.3717420">
        <ele>901.6</ele>
        <time>2022-07-22T11:44:40Z</time>
      </trkpt>
      <trkpt lat="46.8935820" lon="6.3716970">
        <ele>901.0</ele>
        <time>2022-07-22T11:44:41Z</time>
      </trkpt>
      <trkpt lat="46.8934910" lon="6.3716340">
        <ele>900.4</ele>
        <time>2022-07-22T11:44:42Z</time>
      </trkpt>
      <trkpt lat="46.8932270" lon="6.3714020">
        <ele>899.0</ele>
        <time>2022-07-22T11:44:45Z</time>
      </trkpt>
      <trkpt lat="46.8930490" lon="6.3712410">
        <ele>897.8</ele>
        <time>2022-07-22T11:44:47Z</time>
      </trkpt>
      <trkpt lat="46.8928700" lon="6.3710740">
        <ele>896.8</ele>
        <time>2022-07-22T11:44:49Z</time>
      </trkpt>
      <trkpt lat="46.8926930" lon="6.3709020">
        <ele>895.8</ele>
        <time>2022-07-22T11:44:51Z</time>
      </trkpt>
      <trkpt lat="46.8926060" lon="6.3708140">
        <ele>895.2</ele>
        <time>2022-07-22T11:44:52Z</time>
      </trkpt>
      <trkpt lat="46.8924260" lon="6.3706400">
        <ele>894.2</ele>
        <time>2022-07-22T11:44:54Z</time>
      </trkpt>
      <trkpt lat="46.8921540" lon="6.3703870">
        <ele>892.6</ele>
        <time>2022-07-22T11:44:57Z</time>
      </trkpt>
      <trkpt lat="46.8919710" lon="6.3702130">
        <ele>891.4</ele>
        <time>2022-07-22T11:44:59Z</time>
      </trkpt>
      <trkpt lat="46.8918800" lon="6.3701280">
        <ele>890.4</ele>
        <time>2022-07-22T11:45:00Z</time>
      </trkpt>
      <trkpt lat="46.8917140" lon="6.3699650">
        <ele>888.8</ele>
        <time>2022-07-22T11:45:02Z</time>
      </trkpt>
      <trkpt lat="46.8915650" lon="6.3698180">
        <ele>887.4</ele>
        <time>2022-07-22T11:45:04Z</time>
      </trkpt>
      <trkpt lat="46.8914970" lon="6.3697520">
        <ele>886.6</ele>
        <time>2022-07-22T11:45:05Z</time>
      </trkpt>
      <trkpt lat="46.8914360" lon="6.3696910">
        <ele>886.2</ele>
        <time>2022-07-22T11:45:06Z</time>
      </trkpt>
      <trkpt lat="46.8913290" lon="6.3695780">
        <ele>885.0</ele>
        <time>2022-07-22T11:45:08Z</time>
      </trkpt>
      <trkpt lat="46.8912850" lon="6.3695140">
        <ele>884.2</ele>
        <time>2022-07-22T11:45:09Z</time>
      </trkpt>
      <trkpt lat="46.8912490" lon="6.3694450">
        <ele>884.0</ele>
        <time>2022-07-22T11:45:10Z</time>
      </trkpt>
      <trkpt lat="46.8912160" lon="6.3692970">
        <ele>882.8</ele>
        <time>2022-07-22T11:45:12Z</time>
      </trkpt>
      <trkpt lat="46.8912560" lon="6.3691620">
        <ele>881.2</ele>
        <time>2022-07-22T11:45:14Z</time>
      </trkpt>
      <trkpt lat="46.8912990" lon="6.3691190">
        <ele>880.6</ele>
        <time>2022-07-22T11:45:15Z</time>
      </trkpt>
      <trkpt lat="46.8913470" lon="6.3690990">
        <ele>879.8</ele>
        <time>2022-07-22T11:45:16Z</time>
      </trkpt>
      <trkpt lat="46.8914260" lon="6.3690950">
        <ele>878.8</ele>
        <time>2022-07-22T11:45:18Z</time>
      </trkpt>
      <trkpt lat="46.8914580" lon="6.3691020">
        <ele>878.2</ele>
        <time>2022-07-22T11:45:19Z</time>
      </trkpt>
      <trkpt lat="46.8914840" lon="6.3691010">
        <ele>877.6</ele>
        <time>2022-07-22T11:45:20Z</time>
      </trkpt>
      <trkpt lat="46.8914950" lon="6.3690850">
        <ele>876.8</ele>
        <time>2022-07-22T11:45:21Z</time>
      </trkpt>
      <trkpt lat="46.8914900" lon="6.3690670">
        <ele>876.2</ele>
        <time>2022-07-22T11:45:22Z</time>
      </trkpt>
      <trkpt lat="46.8914650" lon="6.3690580">
        <ele>875.2</ele>
        <time>2022-07-22T11:45:24Z</time>
      </trkpt>
      <trkpt lat="46.8914490" lon="6.3690590">
        <ele>874.8</ele>
        <time>2022-07-22T11:45:25Z</time>
      </trkpt>
      <trkpt lat="46.8914170" lon="6.3690590">
        <ele>874.2</ele>
        <time>2022-07-22T11:45:27Z</time>
      </trkpt>
      <trkpt lat="46.8913100" lon="6.3690820">
        <ele>873.6</ele>
        <time>2022-07-22T11:45:34Z</time>
      </trkpt>
      <trkpt lat="46.8912220" lon="6.3692110">
        <ele>874.0</ele>
        <time>2022-07-22T11:45:41Z</time>
      </trkpt>
      <trkpt lat="46.8911410" lon="6.3692520">
        <ele>874.6</ele>
        <time>2022-07-22T11:45:47Z</time>
      </trkpt>
      <trkpt lat="46.8910540" lon="6.3692290">
        <ele>875.2</ele>
        <time>2022-07-22T11:45:55Z</time>
      </trkpt>
      <trkpt lat="46.8910420" lon="6.3692250">
        <ele>875.2</ele>
        <time>2022-07-22T11:45:56Z</time>
      </trkpt>
      <trkpt lat="46.8909970" lon="6.3692020">
        <ele>876.2</ele>
        <time>2022-07-22T11:46:00Z</time>
      </trkpt>
      <trkpt lat="46.8909750" lon="6.3691970">
        <ele>876.6</ele>
        <time>2022-07-22T11:46:02Z</time>
      </trkpt>
      <trkpt lat="46.8909280" lon="6.3691890">
        <ele>877.4</ele>
        <time>2022-07-22T11:46:06Z</time>
      </trkpt>
      <trkpt lat="46.8908890" lon="6.3691730">
        <ele>877.6</ele>
        <time>2022-07-22T11:46:09Z</time>
      </trkpt>
      <trkpt lat="46.8907970" lon="6.3691290">
        <ele>878.2</ele>
        <time>2022-07-22T11:46:15Z</time>
      </trkpt>
      <trkpt lat="46.8907830" lon="6.3691240">
        <ele>878.4</ele>
        <time>2022-07-22T11:46:16Z</time>
      </trkpt>
      <trkpt lat="46.8907250" lon="6.3690940">
        <ele>879.0</ele>
        <time>2022-07-22T11:46:20Z</time>
      </trkpt>
      <trkpt lat="46.8907020" lon="6.3690880">
        <ele>879.2</ele>
        <time>2022-07-22T11:46:22Z</time>
      </trkpt>
      <trkpt lat="46.8906730" lon="6.3691040">
        <ele>879.4</ele>
        <time>2022-07-22T11:46:25Z</time>
      </trkpt>
      <trkpt lat="46.8906640" lon="6.3691080">
        <ele>879.6</ele>
        <time>2022-07-22T11:46:26Z</time>
      </trkpt>
      <trkpt lat="46.8906160" lon="6.3691760">
        <ele>880.4</ele>
        <time>2022-07-22T11:46:33Z</time>
      </trkpt>
      <trkpt lat="46.8905700" lon="6.3692990">
        <ele>881.6</ele>
        <time>2022-07-22T11:46:42Z</time>
      </trkpt>
      <trkpt lat="46.8905430" lon="6.3693840">
        <ele>882.6</ele>
        <time>2022-07-22T11:46:49Z</time>
      </trkpt>
      <trkpt lat="46.8905370" lon="6.3693950">
        <ele>882.8</ele>
        <time>2022-07-22T11:46:50Z</time>
      </trkpt>
      <trkpt lat="46.8905190" lon="6.3694680">
        <ele>884.2</ele>
        <time>2022-07-22T11:46:56Z</time>
      </trkpt>
      <trkpt lat="46.8905060" lon="6.3695000">
        <ele>884.8</ele>
        <time>2022-07-22T11:46:59Z</time>
      </trkpt>
      <trkpt lat="46.8904830" lon="6.3695480">
        <ele>885.2</ele>
        <time>2022-07-22T11:47:04Z</time>
      </trkpt>
      <trkpt lat="46.8904310" lon="6.3696590">
        <ele>886.4</ele>
        <time>2022-07-22T11:47:12Z</time>
      </trkpt>
      <trkpt lat="46.8904030" lon="6.3697300">
        <ele>887.4</ele>
        <time>2022-07-22T11:47:18Z</time>
      </trkpt>
      <trkpt lat="46.8903960" lon="6.3697710">
        <ele>888.4</ele>
        <time>2022-07-22T11:47:22Z</time>
      </trkpt>
      <trkpt lat="46.8903940" lon="6.3697790">
        <ele>888.6</ele>
        <time>2022-07-22T11:47:23Z</time>
      </trkpt>
      <trkpt lat="46.8903890" lon="6.3698050">
        <ele>889.8</ele>
        <time>2022-07-22T11:47:26Z</time>
      </trkpt>
      <trkpt lat="46.8903540" lon="6.3698670">
        <ele>890.8</ele>
        <time>2022-07-22T11:47:34Z</time>
      </trkpt>
      <trkpt lat="46.8903520" lon="6.3698810">
        <ele>891.0</ele>
        <time>2022-07-22T11:47:36Z</time>
      </trkpt>
      <trkpt lat="46.8903270" lon="6.3699230">
        <ele>891.8</ele>
        <time>2022-07-22T11:47:43Z</time>
      </trkpt>
      <trkpt lat="46.8861100" lon="6.3703380">
        <ele>967.0</ele>
        <time>2022-07-22T11:56:44Z</time>
      </trkpt>
      <trkpt lat="46.8860740" lon="6.3703340">
        <ele>967.4</ele>
        <time>2022-07-22T11:56:46Z</time>
      </trkpt>
      <trkpt lat="46.8860430" lon="6.3703300">
        <ele>967.6</ele>
        <time>2022-07-22T11:56:48Z</time>
      </trkpt>
      <trkpt lat="46.8859900" lon="6.3703110">
        <ele>967.8</ele>
        <time>2022-07-22T11:56:52Z</time>
      </trkpt>
      <trkpt lat="46.8859680" lon="6.3703080">
        <ele>968.0</ele>
        <time>2022-07-22T11:56:54Z</time>
      </trkpt>
      <trkpt lat="46.8859070" lon="6.3703060">
        <ele>968.6</ele>
        <time>2022-07-22T11:56:59Z</time>
      </trkpt>
      <trkpt lat="46.8858410" lon="6.3703120">
        <ele>969.0</ele>
        <time>2022-07-22T11:57:03Z</time>
      </trkpt>
      <trkpt lat="46.8857900" lon="6.3703150">
        <ele>969.4</ele>
        <time>2022-07-22T11:57:06Z</time>
      </trkpt>
      <trkpt lat="46.8857290" lon="6.3703270">
        <ele>970.0</ele>
        <time>2022-07-22T11:57:10Z</time>
      </trkpt>
      <trkpt lat="46.8857170" lon="6.3703310">
        <ele>970.2</ele>
        <time>2022-07-22T11:57:11Z</time>
      </trkpt>
      <trkpt lat="46.8856070" lon="6.3703620">
        <ele>970.8</ele>
        <time>2022-07-22T11:57:18Z</time>
      </trkpt>
      <trkpt lat="46.8855680" lon="6.3703710">
        <ele>971.2</ele>
        <time>2022-07-22T11:57:21Z</time>
      </trkpt>
      <trkpt lat="46.8855070" lon="6.3703780">
        <ele>971.4</ele>
        <time>2022-07-22T11:57:25Z</time>
      </trkpt>
      <trkpt lat="46.8854650" lon="6.3703870">
        <ele>972.0</ele>
        <time>2022-07-22T11:57:28Z</time>
      </trkpt>
      <trkpt lat="46.8854100" lon="6.3703820">
        <ele>972.4</ele>
        <time>2022-07-22T11:57:32Z</time>
      </trkpt>
      <trkpt lat="46.8853430" lon="6.3703920">
        <ele>973.0</ele>
        <time>2022-07-22T11:57:36Z</time>
      </trkpt>
      <trkpt lat="46.8853090" lon="6.3703910">
        <ele>973.2</ele>
        <time>2022-07-22T11:57:38Z</time>
      </trkpt>
      <trkpt lat="46.8852130" lon="6.3704050">
        <ele>974.0</ele>
        <time>2022-07-22T11:57:44Z</time>
      </trkpt>
      <trkpt lat="46.8851940" lon="6.3704060">
        <ele>974.0</ele>
        <time>2022-07-22T11:57:46Z</time>
      </trkpt>
      <trkpt lat="46.8851330" lon="6.3703940">
        <ele>974.6</ele>
        <time>2022-07-22T11:57:51Z</time>
      </trkpt>
      <trkpt lat="46.8851010" lon="6.3703930">
        <ele>975.0</ele>
        <time>2022-07-22T11:57:54Z</time>
      </trkpt>
      <trkpt lat="46.8850070" lon="6.3704080">
        <ele>976.0</ele>
        <time>2022-07-22T11:58:03Z</time>
      </trkpt>
      <trkpt lat="46.8849990" lon="6.3704090">
        <ele>976.4</ele>
        <time>2022-07-22T11:58:05Z</time>
      </trkpt>
      <trkpt lat="46.8849760" lon="6.3704160">
        <ele>977.2</ele>
        <time>2022-07-22T11:58:09Z</time>
      </trkpt>
      <trkpt lat="46.8849370" lon="6.3704030">
        <ele>978.2</ele>
        <time>2022-07-22T11:58:15Z</time>
      </trkpt>
      <trkpt lat="46.8849270" lon="6.3704000">
        <ele>978.4</ele>
        <time>2022-07-22T11:58:16Z</time>
      </trkpt>
      <trkpt lat="46.8848800" lon="6.3703930">
        <ele>979.4</ele>
        <time>2022-07-22T11:58:24Z</time>
      </trkpt>
      <trkpt lat="46.8848370" lon="6.3703900">
        <ele>980.0</ele>
        <time>2022-07-22T11:58:29Z</time>
      </trkpt>
      <trkpt lat="46.8848180" lon="6.3703860">
        <ele>980.2</ele>
        <time>2022-07-22T11:58:31Z</time>
      </trkpt>
      <trkpt lat="46.8848040" lon="6.3703850">
        <ele>980.8</ele>
        <time>2022-07-22T11:58:35Z</time>
      </trkpt>
      <trkpt lat="46.8846570" lon="6.3703340">
        <ele>981.8</ele>
        <time>2022-07-22T12:00:06Z</time>
      </trkpt>
      <trkpt lat="46.8846420" lon="6.3703310">
        <ele>981.8</ele>
        <time>2022-07-22T12:00:07Z</time>
      </trkpt>
      <trkpt lat="46.8845360" lon="6.3703260">
        <ele>982.0</ele>
        <time>2022-07-22T12:00:12Z</time>
      </trkpt>
      <trkpt lat="46.8843660" lon="6.3702980">
        <ele>982.2</ele>
        <time>2022-07-22T12:00:19Z</time>
      </trkpt>
      <trkpt lat="46.8842520" lon="6.3703280">
        <ele>982.4</ele>
        <time>2022-07-22T12:00:25Z</time>
      </trkpt>
      <trkpt lat="46.8842330" lon="6.3703320">
        <ele>982.6</ele>
        <time>2022-07-22T12:00:26Z</time>
      </trkpt>
      <trkpt lat="46.8841980" lon="6.3703330">
        <ele>982.8</ele>
        <time>2022-07-22T12:00:28Z</time>
      </trkpt>
      <trkpt lat="46.8841650" lon="6.3703390">
        <ele>983.2</ele>
        <time>2022-07-22T12:00:30Z</time>
      </trkpt>
      <trkpt lat="46.8841010" lon="6.3703680">
        <ele>983.8</ele>
        <time>2022-07-22T12:00:34Z</time>
      </trkpt>
      <trkpt lat="46.8840860" lon="6.3703760">
        <ele>983.8</ele>
        <time>2022-07-22T12:00:35Z</time>
      </trkpt>
      <trkpt lat="46.8840720" lon="6.3703800">
        <ele>984.0</ele>
        <time>2022-07-22T12:00:36Z</time>
      </trkpt>
      <trkpt lat="46.8840560" lon="6.3703810">
        <ele>984.2</ele>
        <time>2022-07-22T12:00:37Z</time>
      </trkpt>
      <trkpt lat="46.8839610" lon="6.3704070">
        <ele>984.8</ele>
        <time>2022-07-22T12:00:42Z</time>
      </trkpt>
      <trkpt lat="46.8839420" lon="6.3704130">
        <ele>984.8</ele>
        <time>2022-07-22T12:00:43Z</time>
      </trkpt>
      <trkpt lat="46.8838530" lon="6.3704910">
        <ele>985.2</ele>
        <time>2022-07-22T12:00:49Z</time>
      </trkpt>
      <trkpt lat="46.8837660" lon="6.3705570">
        <ele>985.4</ele>
        <time>2022-07-22T12:00:55Z</time>
      </trkpt>
      <trkpt lat="46.8837460" lon="6.3705790">
        <ele>985.8</ele>
        <time>2022-07-22T12:00:57Z</time>
      </trkpt>
      <trkpt lat="46.8837110" lon="6.3706240">
        <ele>986.4</ele>
        <time>2022-07-22T12:01:01Z</time>
      </trkpt>
      <trkpt lat="46.8837000" lon="6.3706460">
        <ele>986.8</ele>
        <time>2022-07-22T12:01:03Z</time>
      </trkpt>
      <trkpt lat="46.8836700" lon="6.3707420">
        <ele>987.4</ele>
        <time>2022-07-22T12:01:09Z</time>
      </trkpt>
      <trkpt lat="46.8836520" lon="6.3707770">
        <ele>987.8</ele>
        <time>2022-07-22T12:01:12Z</time>
      </trkpt>
      <trkpt lat="46.8835960" lon="6.3709000">
        <ele>988.6</ele>
        <time>2022-07-22T12:01:21Z</time>
      </trkpt>
      <trkpt lat="46.8835940" lon="6.3709050">
        <ele>988.6</ele>
        <time>2022-07-22T12:01:22Z</time>
      </trkpt>
      <trkpt lat="46.8835920" lon="6.3709120">
        <ele>989.0</ele>
        <time>2022-07-22T12:01:24Z</time>
      </trkpt>
      <trkpt lat="46.8836220" lon="6.3724410">
        <ele>1010.0</ele>
        <time>2022-07-22T12:04:03Z</time>
      </trkpt>
      <trkpt lat="46.8835830" lon="6.3724540">
        <ele>1010.2</ele>
        <time>2022-07-22T12:04:05Z</time>
      </trkpt>
      <trkpt lat="46.8835260" lon="6.3724820">
        <ele>1010.8</ele>
        <time>2022-07-22T12:04:08Z</time>
      </trkpt>
      <trkpt lat="46.8835120" lon="6.3724930">
        <ele>1010.8</ele>
        <time>2022-07-22T12:04:09Z</time>
      </trkpt>
      <trkpt lat="46.8834850" lon="6.3725210">
        <ele>1011.0</ele>
        <time>2022-07-22T12:04:11Z</time>
      </trkpt>
      <trkpt lat="46.8834740" lon="6.3725370">
        <ele>1011.0</ele>
        <time>2022-07-22T12:04:12Z</time>
      </trkpt>
      <trkpt lat="46.8834220" lon="6.3726760">
        <ele>1011.4</ele>
        <time>2022-07-22T12:04:18Z</time>
      </trkpt>
      <trkpt lat="46.8833940" lon="6.3727810">
        <ele>1012.0</ele>
        <time>2022-07-22T12:04:22Z</time>
      </trkpt>
      <trkpt lat="46.8833720" lon="6.3728530">
        <ele>1012.6</ele>
        <time>2022-07-22T12:04:25Z</time>
      </trkpt>
      <trkpt lat="46.8833520" lon="6.3729260">
        <ele>1013.0</ele>
        <time>2022-07-22T12:04:28Z</time>
      </trkpt>
      <trkpt lat="46.8833390" lon="6.3729900">
        <ele>1013.4</ele>
        <time>2022-07-22T12:04:31Z</time>
      </trkpt>
      <trkpt lat="46.8833330" lon="6.3730440">
        <ele>1014.0</ele>
        <time>2022-07-22T12:04:33Z</time>
      </trkpt>
      <trkpt lat="46.8833250" lon="6.3730870">
        <ele>1014.2</ele>
        <time>2022-07-22T12:04:35Z</time>
      </trkpt>
      <trkpt lat="46.8832980" lon="6.3732150">
        <ele>1014.8</ele>
        <time>2022-07-22T12:04:41Z</time>
      </trkpt>
      <trkpt lat="46.8832940" lon="6.3732590">
        <ele>1015.2</ele>
        <time>2022-07-22T12:04:43Z</time>
      </trkpt>
      <trkpt lat="46.8832880" lon="6.3733470">
        <ele>1016.0</ele>
        <time>2022-07-22T12:04:47Z</time>
      </trkpt>
      <trkpt lat="46.8832870" lon="6.3733680">
        <ele>1016.0</ele>
        <time>2022-07-22T12:04:48Z</time>
      </trkpt>
      <trkpt lat="46.8832850" lon="6.3733890">
        <ele>1016.2</ele>
        <time>2022-07-22T12:04:49Z</time>
      </trkpt>
      <trkpt lat="46.8832780" lon="6.3735190">
        <ele>1017.2</ele>
        <time>2022-07-22T12:04:55Z</time>
      </trkpt>
      <trkpt lat="46.8832680" lon="6.3736080">
        <ele>1018.0</ele>
        <time>2022-07-22T12:04:59Z</time>
      </trkpt>
      <trkpt lat="46.8832530" lon="6.3736730">
        <ele>1018.4</ele>
        <time>2022-07-22T12:05:02Z</time>
      </trkpt>
      <trkpt lat="46.8832510" lon="6.3736930">
        <ele>1018.6</ele>
        <time>2022-07-22T12:05:03Z</time>
      </trkpt>
      <trkpt lat="46.8832260" lon="6.3738310">
        <ele>1019.4</ele>
        <time>2022-07-22T12:05:10Z</time>
      </trkpt>
      <trkpt lat="46.8832220" lon="6.3738740">
        <ele>1019.4</ele>
        <time>2022-07-22T12:05:12Z</time>
      </trkpt>
      <trkpt lat="46.8831990" lon="6.3740320">
        <ele>1019.6</ele>
        <time>2022-07-22T12:05:17Z</time>
      </trkpt>
      <trkpt lat="46.8831570" lon="6.3742690">
        <ele>1019.6</ele>
        <time>2022-07-22T12:05:22Z</time>
      </trkpt>
      <trkpt lat="46.8831060" lon="6.3744440">
        <ele>1019.4</ele>
        <time>2022-07-22T12:05:27Z</time>
      </trkpt>
      <trkpt lat="46.8830280" lon="6.3746230">
        <ele>1018.4</ele>
        <time>2022-07-22T12:05:33Z</time>
      </trkpt>
      <trkpt lat="46.8829960" lon="6.3747330">
        <ele>1017.0</ele>
        <time>2022-07-22T12:05:37Z</time>
      </trkpt>
      <trkpt lat="46.8829770" lon="6.3748100">
        <ele>1016.4</ele>
        <time>2022-07-22T12:05:39Z</time>
      </trkpt>
      <trkpt lat="46.8829300" lon="6.3749090">
        <ele>1015.8</ele>
        <time>2022-07-22T12:05:41Z</time>
      </trkpt>
      <trkpt lat="46.8828820" lon="6.3750130">
        <ele>1015.0</ele>
        <time>2022-07-22T12:05:43Z</time>
      </trkpt>
      <trkpt lat="46.8828680" lon="6.3751170">
        <ele>1014.6</ele>
        <time>2022-07-22T12:05:45Z</time>
      </trkpt>
      <trkpt lat="46.8828510" lon="6.3752020">
        <ele>1013.8</ele>
        <time>2022-07-22T12:05:47Z</time>
      </trkpt>
      <trkpt lat="46.8828390" lon="6.3752380">
        <ele>1013.2</ele>
        <time>2022-07-22T12:05:48Z</time>
      </trkpt>
      <trkpt lat="46.8828130" lon="6.3753570">
        <ele>1011.8</ele>
        <time>2022-07-22T12:05:51Z</time>
      </trkpt>
      <trkpt lat="46.8827980" lon="6.3754370">
        <ele>1011.6</ele>
        <time>2022-07-22T12:05:53Z</time>
      </trkpt>
      <trkpt lat="46.8827580" lon="6.3756180">
        <ele>1011.6</ele>
        <time>2022-07-22T12:05:59Z</time>
      </trkpt>
      <trkpt lat="46.8827100" lon="6.3757590">
        <ele>1012.2</ele>
        <time>2022-07-22T12:06:05Z</time>
      </trkpt>
      <trkpt lat="46.8826560" lon="6.3759130">
        <ele>1012.8</ele>
        <time>2022-07-22T12:06:11Z</time>
      </trkpt>
      <trkpt lat="46.8826520" lon="6.3759370">
        <ele>1013.0</ele>
        <time>2022-07-22T12:06:12Z</time>
      </trkpt>
      <trkpt lat="46.8825960" lon="6.3760740">
        <ele>1013.2</ele>
        <time>2022-07-22T12:06:18Z</time>
      </trkpt>
      <trkpt lat="46.8825630" lon="6.3761630">
        <ele>1013.8</ele>
        <time>2022-07-22T12:06:22Z</time>
      </trkpt>
      <trkpt lat="46.8825420" lon="6.3762020">
        <ele>1014.0</ele>
        <time>2022-07-22T12:06:24Z</time>
      </trkpt>
      <trkpt lat="46.8825090" lon="6.3763140">
        <ele>1014.8</ele>
        <time>2022-07-22T12:06:32Z</time>
      </trkpt>
      <trkpt lat="46.8825060" lon="6.3763450">
        <ele>1015.0</ele>
        <time>2022-07-22T12:06:34Z</time>
      </trkpt>
      <trkpt lat="46.8824530" lon="6.3764460">
        <ele>1016.2</ele>
        <time>2022-07-22T12:06:42Z</time>
      </trkpt>
      <trkpt lat="46.8824370" lon="6.3764700">
        <ele>1016.6</ele>
        <time>2022-07-22T12:06:44Z</time>
      </trkpt>
      <trkpt lat="46.8824120" lon="6.3765480">
        <ele>1017.4</ele>
        <time>2022-07-22T12:06:49Z</time>
      </trkpt>
      <trkpt lat="46.8823950" lon="6.3766510">
        <ele>1018.4</ele>
        <time>2022-07-22T12:06:55Z</time>
      </trkpt>
      <trkpt lat="46.8823870" lon="6.3766870">
        <ele>1018.6</ele>
        <time>2022-07-22T12:06:57Z</time>
      </trkpt>
      <trkpt lat="46.8823640" lon="6.3767830">
        <ele>1019.6</ele>
        <time>2022-07-22T12:07:03Z</time>
      </trkpt>
      <trkpt lat="46.8823580" lon="6.3768740">
        <ele>1020.6</ele>
        <time>2022-07-22T12:07:10Z</time>
      </trkpt>
      <trkpt lat="46.8823510" lon="6.3769320">
        <ele>1021.4</ele>
        <time>2022-07-22T12:07:14Z</time>
      </trkpt>
      <trkpt lat="46.8823380" lon="6.3769800">
        <ele>1022.6</ele>
        <time>2022-07-22T12:07:18Z</time>
      </trkpt>
      <trkpt lat="46.8823220" lon="6.3770530">
        <ele>1023.2</ele>
        <time>2022-07-22T12:07:23Z</time>
      </trkpt>
      <trkpt lat="46.8823100" lon="6.3770890">
        <ele>1023.6</ele>
        <time>2022-07-22T12:07:26Z</time>
      </trkpt>
      <trkpt lat="46.8822750" lon="6.3771780">
        <ele>1024.6</ele>
        <time>2022-07-22T12:07:33Z</time>
      </trkpt>
      <trkpt lat="46.8822690" lon="6.3771890">
        <ele>1024.8</ele>
        <time>2022-07-22T12:07:34Z</time>
      </trkpt>
      <trkpt lat="46.8822420" lon="6.3772400">
        <ele>1025.4</ele>
        <time>2022-07-22T12:07:38Z</time>
      </trkpt>
      <trkpt lat="46.8822260" lon="6.3772770">
        <ele>1025.6</ele>
        <time>2022-07-22T12:07:40Z</time>
      </trkpt>
      <trkpt lat="46.8821870" lon="6.3773910">
        <ele>1026.6</ele>
        <time>2022-07-22T12:07:47Z</time>
      </trkpt>
      <trkpt lat="46.8821720" lon="6.3774440">
        <ele>1027.4</ele>
        <time>2022-07-22T12:07:51Z</time>
      </trkpt>
      <trkpt lat="46.8821600" lon="6.3774780">
        <ele>1027.6</ele>
        <time>2022-07-22T12:07:53Z</time>
      </trkpt>
      <trkpt lat="46.8821350" lon="6.3775550">
        <ele>1028.8</ele>
        <time>2022-07-22T12:07:59Z</time>
      </trkpt>
      <trkpt lat="46.8821160" lon="6.3776060">
        <ele>1029.6</ele>
        <time>2022-07-22T12:08:03Z</time>
      </trkpt>
      <trkpt lat="46.8821120" lon="6.3776200">
        <ele>1029.8</ele>
        <time>2022-07-22T12:08:04Z</time>
      </trkpt>
      <trkpt lat="46.8821060" lon="6.3776810">
        <ele>1031.0</ele>
        <time>2022-07-22T12:08:09Z</time>
      </trkpt>
      <trkpt lat="46.8820920" lon="6.3777180">
        <ele>1032.0</ele>
        <time>2022-07-22T12:08:13Z</time>
      </trkpt>
      <trkpt lat="46.8820850" lon="6.3777330">
        <ele>1032.4</ele>
        <time>2022-07-22T12:08:15Z</time>
      </trkpt>
      <trkpt lat="46.8820790" lon="6.3777620">
        <ele>1033.2</ele>
        <time>2022-07-22T12:08:17Z</time>
      </trkpt>
      <trkpt lat="46.8820560" lon="6.3777940">
        <ele>1034.2</ele>
        <time>2022-07-22T12:08:21Z</time>
      </trkpt>
      <trkpt lat="46.8820310" lon="6.3778570">
        <ele>1035.0</ele>
        <time>2022-07-22T12:08:27Z</time>
      </trkpt>
      <trkpt lat="46.8819830" lon="6.3779110">
        <ele>1036.2</ele>
        <time>2022-07-22T12:08:33Z</time>
      </trkpt>
      <trkpt lat="46.8819440" lon="6.3779480">
        <ele>1037.0</ele>
        <time>2022-07-22T12:08:38Z</time>
      </trkpt>
      <trkpt lat="46.8819190" lon="6.3779790">
        <ele>1037.4</ele>
        <time>2022-07-22T12:08:41Z</time>
      </trkpt>
      <trkpt lat="46.8818550" lon="6.3780860">
        <ele>1038.2</ele>
        <time>2022-07-22T12:08:50Z</time>
      </trkpt>
      <trkpt lat="46.8818400" lon="6.3781080">
        <ele>1038.4</ele>
        <time>2022-07-22T12:08:52Z</time>
      </trkpt>
      <trkpt lat="46.8817860" lon="6.3781770">
        <ele>1039.4</ele>
        <time>2022-07-22T12:08:59Z</time>
      </trkpt>
      <trkpt lat="46.8817650" lon="6.3782100">
        <ele>1040.0</ele>
        <time>2022-07-22T12:09:02Z</time>
      </trkpt>
      <trkpt lat="46.8817460" lon="6.3782620">
        <ele>1040.4</ele>
        <time>2022-07-22T12:09:05Z</time>
      </trkpt>
      <trkpt lat="46.8817170" lon="6.3783720">
        <ele>1041.6</ele>
        <time>2022-07-22T12:09:11Z</time>
      </trkpt>
      <trkpt lat="46.8816980" lon="6.3784360">
        <ele>1042.6</ele>
        <time>2022-07-22T12:09:14Z</time>
      </trkpt>
      <trkpt lat="46.8816930" lon="6.3784530">
        <ele>1043.0</ele>
        <time>2022-07-22T12:09:15Z</time>
      </trkpt>
      <trkpt lat="46.8816940" lon="6.3785250">
        <ele>1043.6</ele>
        <time>2022-07-22T12:09:19Z</time>
      </trkpt>
      <trkpt lat="46.8817080" lon="6.3786310">
        <ele>1044.4</ele>
        <time>2022-07-22T12:09:26Z</time>
      </trkpt>
      <trkpt lat="46.8817270" lon="6.3787090">
        <ele>1044.6</ele>
        <time>2022-07-22T12:09:31Z</time>
      </trkpt>
      <trkpt lat="46.8817610" lon="6.3787920">
        <ele>1045.6</ele>
        <time>2022-07-22T12:09:38Z</time>
      </trkpt>
      <trkpt lat="46.8817690" lon="6.3788010">
        <ele>1045.8</ele>
        <time>2022-07-22T12:09:39Z</time>
      </trkpt>
      <trkpt lat="46.8817810" lon="6.3788720">
        <ele>1046.8</ele>
        <time>2022-07-22T12:09:45Z</time>
      </trkpt>
      <trkpt lat="46.8817800" lon="6.3789030">
        <ele>1047.2</ele>
        <time>2022-07-22T12:09:48Z</time>
      </trkpt>
      <trkpt lat="46.8817840" lon="6.3789630">
        <ele>1047.8</ele>
        <time>2022-07-22T12:09:53Z</time>
      </trkpt>
      <trkpt lat="46.8817850" lon="6.3790560">
        <ele>1048.6</ele>
        <time>2022-07-22T12:09:58Z</time>
      </trkpt>
      <trkpt lat="46.8817810" lon="6.3791100">
        <ele>1049.2</ele>
        <time>2022-07-22T12:10:00Z</time>
      </trkpt>
      <trkpt lat="46.8817930" lon="6.3791750">
        <ele>1049.8</ele>
        <time>2022-07-22T12:10:07Z</time>
      </trkpt>
      <trkpt lat="46.8817540" lon="6.3793160">
        <ele>1050.4</ele>
        <time>2022-07-22T12:10:38Z</time>
      </trkpt>
      <trkpt lat="46.8817560" lon="6.3793790">
        <ele>1050.4</ele>
        <time>2022-07-22T12:10:40Z</time>
      </trkpt>
      <trkpt lat="46.8817530" lon="6.3796530">
        <ele>1049.8</ele>
        <time>2022-07-22T12:10:46Z</time>
      </trkpt>
      <trkpt lat="46.8816680" lon="6.3799490">
        <ele>1049.8</ele>
        <time>2022-07-22T12:10:52Z</time>
      </trkpt>
      <trkpt lat="46.8815430" lon="6.3801170">
        <ele>1049.4</ele>
        <time>2022-07-22T12:10:57Z</time>
      </trkpt>
      <trkpt lat="46.8815080" lon="6.3801350">
        <ele>1049.4</ele>
        <time>2022-07-22T12:10:58Z</time>
      </trkpt>
      <trkpt lat="46.8813670" lon="6.3801600">
        <ele>1048.8</ele>
        <time>2022-07-22T12:11:02Z</time>
      </trkpt>
      <trkpt lat="46.8812080" lon="6.3800920">
        <ele>1048.6</ele>
        <time>2022-07-22T12:11:07Z</time>
      </trkpt>
      <trkpt lat="46.8811590" lon="6.3799930">
        <ele>1048.4</ele>
        <time>2022-07-22T12:11:10Z</time>
      </trkpt>
      <trkpt lat="46.8811330" lon="6.3799200">
        <ele>1048.2</ele>
        <time>2022-07-22T12:11:12Z</time>
      </trkpt>
      <trkpt lat="46.8810700" lon="6.3796900">
        <ele>1048.0</ele>
        <time>2022-07-22T12:11:18Z</time>
      </trkpt>
      <trkpt lat="46.8810390" lon="6.3795080">
        <ele>1048.0</ele>
        <time>2022-07-22T12:11:23Z</time>
      </trkpt>
      <trkpt lat="46.8809390" lon="6.3792370">
        <ele>1048.0</ele>
        <time>2022-07-22T12:11:28Z</time>
      </trkpt>
      <trkpt lat="46.8807860" lon="6.3789250">
        <ele>1047.2</ele>
        <time>2022-07-22T12:11:34Z</time>
      </trkpt>
      <trkpt lat="46.8807560" lon="6.3788880">
        <ele>1047.0</ele>
        <time>2022-07-22T12:11:35Z</time>
      </trkpt>
      <trkpt lat="46.8806090" lon="6.3787920">
        <ele>1046.8</ele>
        <time>2022-07-22T12:11:39Z</time>
      </trkpt>
      <trkpt lat="46.8803930" lon="6.3787290">
        <ele>1046.2</ele>
        <time>2022-07-22T12:11:43Z</time>
      </trkpt>
      <trkpt lat="46.8803330" lon="6.3787250">
        <ele>1046.0</ele>
        <time>2022-07-22T12:11:44Z</time>
      </trkpt>
      <trkpt lat="46.8802720" lon="6.3787250">
        <ele>1045.8</ele>
        <time>2022-07-22T12:11:45Z</time>
      </trkpt>
      <trkpt lat="46.8800780" lon="6.3787290">
        <ele>1045.2</ele>
        <time>2022-07-22T12:11:48Z</time>
      </trkpt>
      <trkpt lat="46.8799450" lon="6.3787340">
        <ele>1044.6</ele>
        <time>2022-07-22T12:11:50Z</time>
      </trkpt>
      <trkpt lat="46.8797370" lon="6.3787530">
        <ele>1044.0</ele>
        <time>2022-07-22T12:11:53Z</time>
      </trkpt>
      <trkpt lat="46.8796100" lon="6.3787560">
        <ele>1043.6</ele>
        <time>2022-07-22T12:11:55Z</time>
      </trkpt>
      <trkpt lat="46.8795540" lon="6.3787420">
        <ele>1043.2</ele>
        <time>2022-07-22T12:11:56Z</time>
      </trkpt>
      <trkpt lat="46.8794510" lon="6.3787410">
        <ele>1042.6</ele>
        <time>2022-07-22T12:11:58Z</time>
      </trkpt>
      <trkpt lat="46.8793600" lon="6.3787400">
        <ele>1041.6</ele>
        <time>2022-07-22T12:12:01Z</time>
      </trkpt>
      <trkpt lat="46.8793430" lon="6.3787380">
        <ele>1040.6</ele>
        <time>2022-07-22T12:12:04Z</time>
      </trkpt>
      <trkpt lat="46.8791950" lon="6.3787500">
        <ele>1036.8</ele>
        <time>2022-07-22T12:12:56Z</time>
      </trkpt>
      <trkpt lat="46.8791650" lon="6.3787490">
        <ele>1036.8</ele>
        <time>2022-07-22T12:12:57Z</time>
      </trkpt>
      <trkpt lat="46.8789300" lon="6.3787260">
        <ele>1036.6</ele>
        <time>2022-07-22T12:13:03Z</time>
      </trkpt>
      <trkpt lat="46.8788870" lon="6.3787000">
        <ele>1036.6</ele>
        <time>2022-07-22T12:13:04Z</time>
      </trkpt>
      <trkpt lat="46.8788000" lon="6.3786400">
        <ele>1036.2</ele>
        <time>2022-07-22T12:13:06Z</time>
      </trkpt>
      <trkpt lat="46.8787320" lon="6.3785960">
        <ele>1035.8</ele>
        <time>2022-07-22T12:13:08Z</time>
      </trkpt>
      <trkpt lat="46.8786180" lon="6.3785440">
        <ele>1034.8</ele>
        <time>2022-07-22T12:13:13Z</time>
      </trkpt>
      <trkpt lat="46.8786040" lon="6.3785370">
        <ele>1034.4</ele>
        <time>2022-07-22T12:13:14Z</time>
      </trkpt>
      <trkpt lat="46.8785870" lon="6.3785410">
        <ele>1033.6</ele>
        <time>2022-07-22T12:13:16Z</time>
      </trkpt>
      <trkpt lat="46.8783800" lon="6.3784800">
        <ele>1031.8</ele>
        <time>2022-07-22T12:13:53Z</time>
      </trkpt>
      <trkpt lat="46.8783180" lon="6.3784770">
        <ele>1031.6</ele>
        <time>2022-07-22T12:13:55Z</time>
      </trkpt>
      <trkpt lat="46.8781180" lon="6.3784770">
        <ele>1031.6</ele>
        <time>2022-07-22T12:14:00Z</time>
      </trkpt>
      <trkpt lat="46.8779350" lon="6.3784540">
        <ele>1031.0</ele>
        <time>2022-07-22T12:14:04Z</time>
      </trkpt>
      <trkpt lat="46.8778920" lon="6.3784440">
        <ele>1030.6</ele>
        <time>2022-07-22T12:14:05Z</time>
      </trkpt>
      <trkpt lat="46.8778450" lon="6.3784240">
        <ele>1030.6</ele>
        <time>2022-07-22T12:14:06Z</time>
      </trkpt>
      <trkpt lat="46.8776650" lon="6.3783220">
        <ele>1029.6</ele>
        <time>2022-07-22T12:14:10Z</time>
      </trkpt>
      <trkpt lat="46.8775630" lon="6.3782620">
        <ele>1029.2</ele>
        <time>2022-07-22T12:14:12Z</time>
      </trkpt>
      <trkpt lat="46.8773360" lon="6.3781640">
        <ele>1028.4</ele>
        <time>2022-07-22T12:14:16Z</time>
      </trkpt>
      <trkpt lat="46.8772180" lon="6.3781230">
        <ele>1028.0</ele>
        <time>2022-07-22T12:14:18Z</time>
      </trkpt>
      <trkpt lat="46.8770180" lon="6.3780590">
        <ele>1027.4</ele>
        <time>2022-07-22T12:14:21Z</time>
      </trkpt>
      <trkpt lat="46.8768130" lon="6.3779810">
        <ele>1026.4</ele>
        <time>2022-07-22T12:14:24Z</time>
      </trkpt>
      <trkpt lat="46.8766610" lon="6.3779290">
        <ele>1025.2</ele>
        <time>2022-07-22T12:14:27Z</time>
      </trkpt>
      <trkpt lat="46.8766270" lon="6.3779260">
        <ele>1025.0</ele>
        <time>2022-07-22T12:14:28Z</time>
      </trkpt>
      <trkpt lat="46.8765440" lon="6.3780270">
        <ele>1024.0</ele>
        <time>2022-07-22T12:14:31Z</time>
      </trkpt>
      <trkpt lat="46.8765260" lon="6.3780730">
        <ele>1023.8</ele>
        <time>2022-07-22T12:14:32Z</time>
      </trkpt>
      <trkpt lat="46.8765070" lon="6.3781820">
        <ele>1023.0</ele>
        <time>2022-07-22T12:14:35Z</time>
      </trkpt>
      <trkpt lat="46.8765000" lon="6.3781920">
        <ele>1022.8</ele>
        <time>2022-07-22T12:14:37Z</time>
      </trkpt>
      <trkpt lat="46.8764980" lon="6.3781920">
        <ele>1022.8</ele>
        <time>2022-07-22T12:14:38Z</time>
      </trkpt>
      <trkpt lat="46.8765230" lon="6.3782540">
        <ele>1022.2</ele>
        <time>2022-07-22T12:15:04Z</time>
      </trkpt>
      <trkpt lat="46.8765660" lon="6.3783120">
        <ele>1022.0</ele>
        <time>2022-07-22T12:15:08Z</time>
      </trkpt>
      <trkpt lat="46.8765870" lon="6.3783370">
        <ele>1022.2</ele>
        <time>2022-07-22T12:15:10Z</time>
      </trkpt>
      <trkpt lat="46.8766210" lon="6.3783900">
        <ele>1022.2</ele>
        <time>2022-07-22T12:15:13Z</time>
      </trkpt>
      <trkpt lat="46.8766530" lon="6.3784370">
        <ele>1022.0</ele>
        <time>2022-07-22T12:15:17Z</time>
      </trkpt>
      <trkpt lat="46.8767310" lon="6.3785660">
        <ele>1021.6</ele>
        <time>2022-07-22T12:15:22Z</time>
      </trkpt>
      <trkpt lat="46.8767460" lon="6.3786090">
        <ele>1021.2</ele>
        <time>2022-07-22T12:15:25Z</time>
      </trkpt>
      <trkpt lat="46.8767600" lon="6.3787010">
        <ele>1018.6</ele>
        <time>2022-07-22T12:15:58Z</time>
      </trkpt>
      <trkpt lat="46.8768030" lon="6.3789720">
        <ele>1018.6</ele>
        <time>2022-07-22T12:16:03Z</time>
      </trkpt>
      <trkpt lat="46.8768180" lon="6.3792730">
        <ele>1017.6</ele>
        <time>2022-07-22T12:16:08Z</time>
      </trkpt>
      <trkpt lat="46.8768190" lon="6.3793300">
        <ele>1017.4</ele>
        <time>2022-07-22T12:16:09Z</time>
      </trkpt>
      <trkpt lat="46.8768180" lon="6.3794420">
        <ele>1016.6</ele>
        <time>2022-07-22T12:16:11Z</time>
      </trkpt>
      <trkpt lat="46.8768210" lon="6.3796130">
        <ele>1015.6</ele>
        <time>2022-07-22T12:16:14Z</time>
      </trkpt>
      <trkpt lat="46.8768220" lon="6.3796590">
        <ele>1015.0</ele>
        <time>2022-07-22T12:16:15Z</time>
      </trkpt>
      <trkpt lat="46.8768220" lon="6.3797000">
        <ele>1014.4</ele>
        <time>2022-07-22T12:16:16Z</time>
      </trkpt>
      <trkpt lat="46.8768340" lon="6.3798160">
        <ele>1013.2</ele>
        <time>2022-07-22T12:16:19Z</time>
      </trkpt>
      <trkpt lat="46.8768370" lon="6.3799540">
        <ele>1012.0</ele>
        <time>2022-07-22T12:16:22Z</time>
      </trkpt>
      <trkpt lat="46.8768320" lon="6.3800990">
        <ele>1010.6</ele>
        <time>2022-07-22T12:16:25Z</time>
      </trkpt>
      <trkpt lat="46.8768130" lon="6.3802340">
        <ele>1009.2</ele>
        <time>2022-07-22T12:16:28Z</time>
      </trkpt>
      <trkpt lat="46.8768010" lon="6.3802730">
        <ele>1009.0</ele>
        <time>2022-07-22T12:16:29Z</time>
      </trkpt>
      <trkpt lat="46.8767530" lon="6.3803740">
        <ele>1008.0</ele>
        <time>2022-07-22T12:16:32Z</time>
      </trkpt>
      <trkpt lat="46.8767320" lon="6.3804090">
        <ele>1007.6</ele>
        <time>2022-07-22T12:16:33Z</time>
      </trkpt>
      <trkpt lat="46.8766750" lon="6.3804830">
        <ele>1007.0</ele>
        <time>2022-07-22T12:16:35Z</time>
      </trkpt>
      <trkpt lat="46.8766450" lon="6.3805150">
        <ele>1006.6</ele>
        <time>2022-07-22T12:16:36Z</time>
      </trkpt>
      <trkpt lat="46.8765020" lon="6.3806170">
        <ele>1005.2</ele>
        <time>2022-07-22T12:16:40Z</time>
      </trkpt>
      <trkpt lat="46.8764080" lon="6.3806370">
        <ele>1004.2</ele>
        <time>2022-07-22T12:16:43Z</time>
      </trkpt>
      <trkpt lat="46.8763440" lon="6.3806390">
        <ele>1003.4</ele>
        <time>2022-07-22T12:16:45Z</time>
      </trkpt>
      <trkpt lat="46.8763070" lon="6.3806370">
        <ele>1003.0</ele>
        <time>2022-07-22T12:16:46Z</time>
      </trkpt>
      <trkpt lat="46.8762270" lon="6.3806150">
        <ele>1001.6</ele>
        <time>2022-07-22T12:16:48Z</time>
      </trkpt>
      <trkpt lat="46.8761500" lon="6.3805770">
        <ele>1000.8</ele>
        <time>2022-07-22T12:16:50Z</time>
      </trkpt>
      <trkpt lat="46.8761190" lon="6.3805570">
        <ele>1000.6</ele>
        <time>2022-07-22T12:16:51Z</time>
      </trkpt>
      <trkpt lat="46.8760190" lon="6.3804510">
        <ele>999.4</ele>
        <time>2022-07-22T12:16:55Z</time>
      </trkpt>
      <trkpt lat="46.8759760" lon="6.3803700">
        <ele>998.4</ele>
        <time>2022-07-22T12:16:57Z</time>
      </trkpt>
      <trkpt lat="46.8759220" lon="6.3802260">
        <ele>997.2</ele>
        <time>2022-07-22T12:17:00Z</time>
      </trkpt>
      <trkpt lat="46.8759060" lon="6.3801780">
        <ele>996.8</ele>
        <time>2022-07-22T12:17:01Z</time>
      </trkpt>
      <trkpt lat="46.8758850" lon="6.3800770">
        <ele>996.2</ele>
        <time>2022-07-22T12:17:03Z</time>
      </trkpt>
      <trkpt lat="46.8758690" lon="6.3799160">
        <ele>994.8</ele>
        <time>2022-07-22T12:17:06Z</time>
      </trkpt>
      <trkpt lat="46.8758630" lon="6.3798550">
        <ele>994.6</ele>
        <time>2022-07-22T12:17:07Z</time>
      </trkpt>
      <trkpt lat="46.8758670" lon="6.3796780">
        <ele>993.6</ele>
        <time>2022-07-22T12:17:10Z</time>
      </trkpt>
      <trkpt lat="46.8758760" lon="6.3795520">
        <ele>993.2</ele>
        <time>2022-07-22T12:17:12Z</time>
      </trkpt>
      <trkpt lat="46.8758750" lon="6.3794890">
        <ele>993.0</ele>
        <time>2022-07-22T12:17:13Z</time>
      </trkpt>
      <trkpt lat="46.8758710" lon="6.3794290">
        <ele>992.6</ele>
        <time>2022-07-22T12:17:14Z</time>
      </trkpt>
      <trkpt lat="46.8758240" lon="6.3792110">
        <ele>991.6</ele>
        <time>2022-07-22T12:17:18Z</time>
      </trkpt>
      <trkpt lat="46.8758040" lon="6.3791650">
        <ele>991.6</ele>
        <time>2022-07-22T12:17:19Z</time>
      </trkpt>
      <trkpt lat="46.8757000" lon="6.3790480">
        <ele>990.8</ele>
        <time>2022-07-22T12:17:23Z</time>
      </trkpt>
      <trkpt lat="46.8756390" lon="6.3790170">
        <ele>990.4</ele>
        <time>2022-07-22T12:17:25Z</time>
      </trkpt>
      <trkpt lat="46.8754820" lon="6.3789720">
        <ele>989.4</ele>
        <time>2022-07-22T12:17:29Z</time>
      </trkpt>
      <trkpt lat="46.8754300" lon="6.3789690">
        <ele>989.4</ele>
        <time>2022-07-22T12:17:30Z</time>
      </trkpt>
      <trkpt lat="46.8752390" lon="6.3789370">
        <ele>988.2</ele>
        <time>2022-07-22T12:17:34Z</time>
      </trkpt>
      <trkpt lat="46.8750760" lon="6.3788700">
        <ele>987.0</ele>
        <time>2022-07-22T12:17:39Z</time>
      </trkpt>
      <trkpt lat="46.8750240" lon="6.3788440">
        <ele>985.8</ele>
        <time>2022-07-22T12:17:41Z</time>
      </trkpt>
      <trkpt lat="46.8749370" lon="6.3788140">
        <ele>984.8</ele>
        <time>2022-07-22T12:17:44Z</time>
      </trkpt>
      <trkpt lat="46.8748900" lon="6.3788040">
        <ele>984.0</ele>
        <time>2022-07-22T12:17:46Z</time>
      </trkpt>
      <trkpt lat="46.8748720" lon="6.3787990">
        <ele>983.6</ele>
        <time>2022-07-22T12:17:47Z</time>
      </trkpt>
      <trkpt lat="46.8747880" lon="6.3787980">
        <ele>982.2</ele>
        <time>2022-07-22T12:17:52Z</time>
      </trkpt>
      <trkpt lat="46.8747770" lon="6.3788030">
        <ele>982.0</ele>
        <time>2022-07-22T12:17:53Z</time>
      </trkpt>
      <trkpt lat="46.8747680" lon="6.3788060">
        <ele>981.6</ele>
        <time>2022-07-22T12:17:55Z</time>
      </trkpt>
      <trkpt lat="46.8746980" lon="6.3788190">
        <ele>979.6</ele>
        <time>2022-07-22T12:19:13Z</time>
      </trkpt>
      <trkpt lat="46.8746660" lon="6.3788360">
        <ele>979.6</ele>
        <time>2022-07-22T12:19:15Z</time>
      </trkpt>
      <trkpt lat="46.8745120" lon="6.3789010">
        <ele>979.6</ele>
        <time>2022-07-22T12:19:20Z</time>
      </trkpt>
      <trkpt lat="46.8743460" lon="6.3790000">
        <ele>979.4</ele>
        <time>2022-07-22T12:19:26Z</time>
      </trkpt>
      <trkpt lat="46.8743180" lon="6.3790710">
        <ele>978.6</ele>
        <time>2022-07-22T12:19:28Z</time>
      </trkpt>
      <trkpt lat="46.8743140" lon="6.3791120">
        <ele>977.6</ele>
        <time>2022-07-22T12:19:29Z</time>
      </trkpt>
      <trkpt lat="46.8743140" lon="6.3791560">
        <ele>977.0</ele>
        <time>2022-07-22T12:19:30Z</time>
      </trkpt>
      <trkpt lat="46.8743090" lon="6.3792630">
        <ele>976.4</ele>
        <time>2022-07-22T12:19:32Z</time>
      </trkpt>
      <trkpt lat="46.8743070" lon="6.3794660">
        <ele>975.2</ele>
        <time>2022-07-22T12:19:36Z</time>
      </trkpt>
      <trkpt lat="46.8743060" lon="6.3796040">
        <ele>973.8</ele>
        <time>2022-07-22T12:19:39Z</time>
      </trkpt>
      <trkpt lat="46.8743030" lon="6.3797110">
        <ele>972.6</ele>
        <time>2022-07-22T12:19:41Z</time>
      </trkpt>
      <trkpt lat="46.8742920" lon="6.3799320">
        <ele>971.2</ele>
        <time>2022-07-22T12:19:45Z</time>
      </trkpt>
      <trkpt lat="46.8742830" lon="6.3800680">
        <ele>970.4</ele>
        <time>2022-07-22T12:19:47Z</time>
      </trkpt>
      <trkpt lat="46.8742760" lon="6.3801420">
        <ele>970.0</ele>
        <time>2022-07-22T12:19:48Z</time>
      </trkpt>
      <trkpt lat="46.8742640" lon="6.3802730">
        <ele>969.6</ele>
        <time>2022-07-22T12:19:50Z</time>
      </trkpt>
      <trkpt lat="46.8742540" lon="6.3803850">
        <ele>969.0</ele>
        <time>2022-07-22T12:19:52Z</time>
      </trkpt>
      <trkpt lat="46.8742500" lon="6.3804310">
        <ele>968.6</ele>
        <time>2022-07-22T12:19:53Z</time>
      </trkpt>
      <trkpt lat="46.8742430" lon="6.3805330">
        <ele>967.4</ele>
        <time>2022-07-22T12:19:56Z</time>
      </trkpt>
      <trkpt lat="46.8742450" lon="6.3805650">
        <ele>966.6</ele>
        <time>2022-07-22T12:19:58Z</time>
      </trkpt>
      <trkpt lat="46.8742480" lon="6.3805680">
        <ele>965.8</ele>
        <time>2022-07-22T12:20:00Z</time>
      </trkpt>
      <trkpt lat="46.8742610" lon="6.3806590">
        <ele>964.0</ele>
        <time>2022-07-22T12:20:06Z</time>
      </trkpt>
      <trkpt lat="46.8742600" lon="6.3806930">
        <ele>963.8</ele>
        <time>2022-07-22T12:20:07Z</time>
      </trkpt>
      <trkpt lat="46.8742560" lon="6.3809130">
        <ele>963.2</ele>
        <time>2022-07-22T12:20:13Z</time>
      </trkpt>
      <trkpt lat="46.8742560" lon="6.3809880">
        <ele>962.8</ele>
        <time>2022-07-22T12:20:15Z</time>
      </trkpt>
      <trkpt lat="46.8742570" lon="6.3811490">
        <ele>961.6</ele>
        <time>2022-07-22T12:20:19Z</time>
      </trkpt>
      <trkpt lat="46.8742680" lon="6.3813020">
        <ele>960.2</ele>
        <time>2022-07-22T12:20:22Z</time>
      </trkpt>
      <trkpt lat="46.8742710" lon="6.3814710">
        <ele>959.6</ele>
        <time>2022-07-22T12:20:25Z</time>
      </trkpt>
      <trkpt lat="46.8742700" lon="6.3815220">
        <ele>959.4</ele>
        <time>2022-07-22T12:20:26Z</time>
      </trkpt>
      <trkpt lat="46.8742780" lon="6.3816170">
        <ele>958.0</ele>
        <time>2022-07-22T12:20:28Z</time>
      </trkpt>
      <trkpt lat="46.8742980" lon="6.3817460">
        <ele>956.8</ele>
        <time>2022-07-22T12:20:31Z</time>
      </trkpt>
      <trkpt lat="46.8743010" lon="6.3819550">
        <ele>955.8</ele>
        <time>2022-07-22T12:20:35Z</time>
      </trkpt>
      <trkpt lat="46.8742990" lon="6.3820500">
        <ele>955.0</ele>
        <time>2022-07-22T12:20:37Z</time>
      </trkpt>
      <trkpt lat="46.8743060" lon="6.3820800">
        <ele>954.6</ele>
        <time>2022-07-22T12:20:38Z</time>
      </trkpt>
      <trkpt lat="46.8743280" lon="6.3821940">
        <ele>953.4</ele>
        <time>2022-07-22T12:20:42Z</time>
      </trkpt>
      <trkpt lat="46.8743400" lon="6.3822710">
        <ele>952.2</ele>
        <time>2022-07-22T12:20:45Z</time>
      </trkpt>
      <trkpt lat="46.8743610" lon="6.3823710">
        <ele>951.2</ele>
        <time>2022-07-22T12:20:48Z</time>
      </trkpt>
      <trkpt lat="46.8743650" lon="6.3824100">
        <ele>951.0</ele>
        <time>2022-07-22T12:20:49Z</time>
      </trkpt>
      <trkpt lat="46.8744030" lon="6.3825790">
        <ele>950.0</ele>
        <time>2022-07-22T12:20:53Z</time>
      </trkpt>
      <trkpt lat="46.8744120" lon="6.3826240">
        <ele>949.8</ele>
        <time>2022-07-22T12:20:54Z</time>
      </trkpt>
      <trkpt lat="46.8744590" lon="6.3828180">
        <ele>948.8</ele>
        <time>2022-07-22T12:20:59Z</time>
      </trkpt>
      <trkpt lat="46.8744720" lon="6.3828800">
        <ele>947.4</ele>
        <time>2022-07-22T12:21:03Z</time>
      </trkpt>
      <trkpt lat="46.8743780" lon="6.3828890">
        <ele>945.0</ele>
        <time>2022-07-22T12:21:22Z</time>
      </trkpt>
      <trkpt lat="46.8743570" lon="6.3828380">
        <ele>944.8</ele>
        <time>2022-07-22T12:21:25Z</time>
      </trkpt>
      <trkpt lat="46.8742980" lon="6.3826880">
        <ele>944.6</ele>
        <time>2022-07-22T12:21:30Z</time>
      </trkpt>
      <trkpt lat="46.8742010" lon="6.3824990">
        <ele>944.2</ele>
        <time>2022-07-22T12:21:35Z</time>
      </trkpt>
      <trkpt lat="46.8741850" lon="6.3824730">
        <ele>944.0</ele>
        <time>2022-07-22T12:21:36Z</time>
      </trkpt>
      <trkpt lat="46.8741240" lon="6.3824010">
        <ele>943.0</ele>
        <time>2022-07-22T12:21:39Z</time>
      </trkpt>
      <trkpt lat="46.8740930" lon="6.3823670">
        <ele>942.6</ele>
        <time>2022-07-22T12:21:40Z</time>
      </trkpt>
      <trkpt lat="46.8740180" lon="6.3823010">
        <ele>942.0</ele>
        <time>2022-07-22T12:21:42Z</time>
      </trkpt>
      <trkpt lat="46.8739410" lon="6.3822170">
        <ele>941.0</ele>
        <time>2022-07-22T12:21:45Z</time>
      </trkpt>
      <trkpt lat="46.8739220" lon="6.3821890">
        <ele>940.6</ele>
        <time>2022-07-22T12:21:46Z</time>
      </trkpt>
      <trkpt lat="46.8738600" lon="6.3820660">
        <ele>939.6</ele>
        <time>2022-07-22T12:21:50Z</time>
      </trkpt>
      <trkpt lat="46.8738450" lon="6.3820350">
        <ele>939.4</ele>
        <time>2022-07-22T12:21:51Z</time>
      </trkpt>
      <trkpt lat="46.8738040" lon="6.3819250">
        <ele>938.4</ele>
        <time>2022-07-22T12:21:54Z</time>
      </trkpt>
      <trkpt lat="46.8737680" lon="6.3818320">
        <ele>937.4</ele>
        <time>2022-07-22T12:21:57Z</time>
      </trkpt>
      <trkpt lat="46.8737310" lon="6.3816880">
        <ele>936.4</ele>
        <time>2022-07-22T12:22:01Z</time>
      </trkpt>
      <trkpt lat="46.8737170" lon="6.3816080">
        <ele>935.6</ele>
        <time>2022-07-22T12:22:03Z</time>
      </trkpt>
      <trkpt lat="46.8737060" lon="6.3815690">
        <ele>935.2</ele>
        <time>2022-07-22T12:22:04Z</time>
      </trkpt>
      <trkpt lat="46.8736680" lon="6.3813600">
        <ele>934.4</ele>
        <time>2022-07-22T12:22:09Z</time>
      </trkpt>
      <trkpt lat="46.8736630" lon="6.3813120">
        <ele>934.0</ele>
        <time>2022-07-22T12:22:10Z</time>
      </trkpt>
      <trkpt lat="46.8736410" lon="6.3811480">
        <ele>933.0</ele>
        <time>2022-07-22T12:22:13Z</time>
      </trkpt>
      <trkpt lat="46.8736290" lon="6.3810880">
        <ele>932.8</ele>
        <time>2022-07-22T12:22:14Z</time>
      </trkpt>
      <trkpt lat="46.8736170" lon="6.3810300">
        <ele>932.4</ele>
        <time>2022-07-22T12:22:15Z</time>
      </trkpt>
      <trkpt lat="46.8735740" lon="6.3808470">
        <ele>931.6</ele>
        <time>2022-07-22T12:22:18Z</time>
      </trkpt>
      <trkpt lat="46.8735180" lon="6.3806430">
        <ele>930.4</ele>
        <time>2022-07-22T12:22:21Z</time>
      </trkpt>
      <trkpt lat="46.8735000" lon="6.3805690">
        <ele>930.0</ele>
        <time>2022-07-22T12:22:22Z</time>
      </trkpt>
      <trkpt lat="46.8734590" lon="6.3804240">
        <ele>929.4</ele>
        <time>2022-07-22T12:22:24Z</time>
      </trkpt>
      <trkpt lat="46.8734400" lon="6.3803620">
        <ele>928.8</ele>
        <time>2022-07-22T12:22:25Z</time>
      </trkpt>
      <trkpt lat="46.8734170" lon="6.3803060">
        <ele>928.2</ele>
        <time>2022-07-22T12:22:26Z</time>
      </trkpt>
      <trkpt lat="46.8734000" lon="6.3802510">
        <ele>927.8</ele>
        <time>2022-07-22T12:22:27Z</time>
      </trkpt>
      <trkpt lat="46.8733870" lon="6.3801960">
        <ele>927.2</ele>
        <time>2022-07-22T12:22:28Z</time>
      </trkpt>
      <trkpt lat="46.8733750" lon="6.3801450">
        <ele>926.8</ele>
        <time>2022-07-22T12:22:29Z</time>
      </trkpt>
      <trkpt lat="46.8733510" lon="6.3800590">
        <ele>926.0</ele>
        <time>2022-07-22T12:22:31Z</time>
      </trkpt>
      <trkpt lat="46.8733230" lon="6.3799890">
        <ele>925.2</ele>
        <time>2022-07-22T12:22:33Z</time>
      </trkpt>
      <trkpt lat="46.8733090" lon="6.3799700">
        <ele>924.8</ele>
        <time>2022-07-22T12:22:34Z</time>
      </trkpt>
      <trkpt lat="46.8732940" lon="6.3799630">
        <ele>924.4</ele>
        <time>2022-07-22T12:22:35Z</time>
      </trkpt>
      <trkpt lat="46.8732730" lon="6.3799860">
        <ele>923.6</ele>
        <time>2022-07-22T12:22:37Z</time>
      </trkpt>
      <trkpt lat="46.8732730" lon="6.3800940">
        <ele>922.4</ele>
        <time>2022-07-22T12:22:40Z</time>
      </trkpt>
      <trkpt lat="46.8732760" lon="6.3801230">
        <ele>922.0</ele>
        <time>2022-07-22T12:22:41Z</time>
      </trkpt>
      <trkpt lat="46.8732860" lon="6.3802420">
        <ele>921.4</ele>
        <time>2022-07-22T12:22:46Z</time>
      </trkpt>
      <trkpt lat="46.8733070" lon="6.3803970">
        <ele>920.4</ele>
        <time>2022-07-22T12:22:49Z</time>
      </trkpt>
      <trkpt lat="46.8733190" lon="6.3804640">
        <ele>919.8</ele>
        <time>2022-07-22T12:22:50Z</time>
      </trkpt>
      <trkpt lat="46.8733260" lon="6.3805440">
        <ele>919.6</ele>
        <time>2022-07-22T12:22:51Z</time>
      </trkpt>
      <trkpt lat="46.8733260" lon="6.3806230">
        <ele>919.2</ele>
        <time>2022-07-22T12:22:52Z</time>
      </trkpt>
      <trkpt lat="46.8733260" lon="6.3807570">
        <ele>918.6</ele>
        <time>2022-07-22T12:22:54Z</time>
      </trkpt>
      <trkpt lat="46.8733240" lon="6.3808710">
        <ele>918.0</ele>
        <time>2022-07-22T12:22:56Z</time>
      </trkpt>
      <trkpt lat="46.8733270" lon="6.3811040">
        <ele>916.8</ele>
        <time>2022-07-22T12:23:00Z</time>
      </trkpt>
      <trkpt lat="46.8733280" lon="6.3813140">
        <ele>915.6</ele>
        <time>2022-07-22T12:23:03Z</time>
      </trkpt>
      <trkpt lat="46.8733190" lon="6.3814470">
        <ele>914.6</ele>
        <time>2022-07-22T12:23:05Z</time>
      </trkpt>
      <trkpt lat="46.8733110" lon="6.3815060">
        <ele>914.2</ele>
        <time>2022-07-22T12:23:06Z</time>
      </trkpt>
      <trkpt lat="46.8732950" lon="6.3816790">
        <ele>913.2</ele>
        <time>2022-07-22T12:23:09Z</time>
      </trkpt>
      <trkpt lat="46.8732910" lon="6.3817450">
        <ele>912.6</ele>
        <time>2022-07-22T12:23:10Z</time>
      </trkpt>
      <trkpt lat="46.8732820" lon="6.3818160">
        <ele>911.8</ele>
        <time>2022-07-22T12:23:11Z</time>
      </trkpt>
      <trkpt lat="46.8732730" lon="6.3818880">
        <ele>911.2</ele>
        <time>2022-07-22T12:23:12Z</time>
      </trkpt>
      <trkpt lat="46.8732640" lon="6.3819550">
        <ele>910.8</ele>
        <time>2022-07-22T12:23:13Z</time>
      </trkpt>
      <trkpt lat="46.8732390" lon="6.3821260">
        <ele>909.4</ele>
        <time>2022-07-22T12:23:16Z</time>
      </trkpt>
      <trkpt lat="46.8732360" lon="6.3821930">
        <ele>909.0</ele>
        <time>2022-07-22T12:23:17Z</time>
      </trkpt>
      <trkpt lat="46.8732430" lon="6.3823240">
        <ele>908.2</ele>
        <time>2022-07-22T12:23:19Z</time>
      </trkpt>
      <trkpt lat="46.8732630" lon="6.3825180">
        <ele>907.2</ele>
        <time>2022-07-22T12:23:22Z</time>
      </trkpt>
      <trkpt lat="46.8732620" lon="6.3826600">
        <ele>906.2</ele>
        <time>2022-07-22T12:23:24Z</time>
      </trkpt>
      <trkpt lat="46.8732670" lon="6.3829040">
        <ele>905.2</ele>
        <time>2022-07-22T12:23:27Z</time>
      </trkpt>
      <trkpt lat="46.8732720" lon="6.3829840">
        <ele>904.6</ele>
        <time>2022-07-22T12:23:28Z</time>
      </trkpt>
      <trkpt lat="46.8732830" lon="6.3831360">
        <ele>903.6</ele>
        <time>2022-07-22T12:23:30Z</time>
      </trkpt>
      <trkpt lat="46.8733020" lon="6.3832630">
        <ele>903.0</ele>
        <time>2022-07-22T12:23:32Z</time>
      </trkpt>
      <trkpt lat="46.8733060" lon="6.3833480">
        <ele>902.4</ele>
        <time>2022-07-22T12:23:34Z</time>
      </trkpt>
      <trkpt lat="46.8732940" lon="6.3833630">
        <ele>901.6</ele>
        <time>2022-07-22T12:23:35Z</time>
      </trkpt>
      <trkpt lat="46.8732760" lon="6.3833640">
        <ele>901.2</ele>
        <time>2022-07-22T12:23:36Z</time>
      </trkpt>
      <trkpt lat="46.8732370" lon="6.3833220">
        <ele>900.0</ele>
        <time>2022-07-22T12:23:38Z</time>
      </trkpt>
      <trkpt lat="46.8732120" lon="6.3832510">
        <ele>898.8</ele>
        <time>2022-07-22T12:23:40Z</time>
      </trkpt>
      <trkpt lat="46.8731780" lon="6.3830960">
        <ele>897.6</ele>
        <time>2022-07-22T12:23:43Z</time>
      </trkpt>
      <trkpt lat="46.8731650" lon="6.3830290">
        <ele>897.4</ele>
        <time>2022-07-22T12:23:44Z</time>
      </trkpt>
      <trkpt lat="46.8731290" lon="6.3828910">
        <ele>897.0</ele>
        <time>2022-07-22T12:23:46Z</time>
      </trkpt>
      <trkpt lat="46.8730790" lon="6.3827520">
        <ele>896.2</ele>
        <time>2022-07-22T12:23:48Z</time>
      </trkpt>
      <trkpt lat="46.8730480" lon="6.3826810">
        <ele>896.0</ele>
        <time>2022-07-22T12:23:49Z</time>
      </trkpt>
      <trkpt lat="46.8729910" lon="6.3825580">
        <ele>895.2</ele>
        <time>2022-07-22T12:23:51Z</time>
      </trkpt>
      <trkpt lat="46.8729680" lon="6.3824940">
        <ele>894.2</ele>
        <time>2022-07-22T12:23:52Z</time>
      </trkpt>
      <trkpt lat="46.8729490" lon="6.3824330">
        <ele>893.6</ele>
        <time>2022-07-22T12:23:53Z</time>
      </trkpt>
      <trkpt lat="46.8729160" lon="6.3822850">
        <ele>892.8</ele>
        <time>2022-07-22T12:23:56Z</time>
      </trkpt>
      <trkpt lat="46.8729100" lon="6.3822350">
        <ele>892.4</ele>
        <time>2022-07-22T12:23:57Z</time>
      </trkpt>
      <trkpt lat="46.8728980" lon="6.3821160">
        <ele>891.4</ele>
        <time>2022-07-22T12:23:59Z</time>
      </trkpt>
      <trkpt lat="46.8728940" lon="6.3820490">
        <ele>890.8</ele>
        <time>2022-07-22T12:24:00Z</time>
      </trkpt>
      <trkpt lat="46.8728890" lon="6.3819740">
        <ele>890.2</ele>
        <time>2022-07-22T12:24:01Z</time>
      </trkpt>
      <trkpt lat="46.8728770" lon="6.3818150">
        <ele>889.2</ele>
        <time>2022-07-22T12:24:03Z</time>
      </trkpt>
      <trkpt lat="46.8728670" lon="6.3817460">
        <ele>888.8</ele>
        <time>2022-07-22T12:24:04Z</time>
      </trkpt>
      <trkpt lat="46.8728370" lon="6.3816410">
        <ele>888.0</ele>
        <time>2022-07-22T12:24:06Z</time>
      </trkpt>
      <trkpt lat="46.8728010" lon="6.3815140">
        <ele>886.6</ele>
        <time>2022-07-22T12:24:09Z</time>
      </trkpt>
      <trkpt lat="46.8727650" lon="6.3813720">
        <ele>885.2</ele>
        <time>2022-07-22T12:24:12Z</time>
      </trkpt>
      <trkpt lat="46.8727510" lon="6.3813200">
        <ele>884.4</ele>
        <time>2022-07-22T12:24:13Z</time>
      </trkpt>
      <trkpt lat="46.8727390" lon="6.3812740">
        <ele>883.8</ele>
        <time>2022-07-22T12:24:14Z</time>
      </trkpt>
      <trkpt lat="46.8727110" lon="6.3811790">
        <ele>882.8</ele>
        <time>2022-07-22T12:24:16Z</time>
      </trkpt>
      <trkpt lat="46.8726970" lon="6.3811320">
        <ele>882.2</ele>
        <time>2022-07-22T12:24:17Z</time>
      </trkpt>
      <trkpt lat="46.8726490" lon="6.3809770">
        <ele>881.6</ele>
        <time>2022-07-22T12:24:20Z</time>
      </trkpt>
      <trkpt lat="46.8726290" lon="6.3808920">
        <ele>880.6</ele>
        <time>2022-07-22T12:24:22Z</time>
      </trkpt>
      <trkpt lat="46.8726190" lon="6.3808470">
        <ele>880.2</ele>
        <time>2022-07-22T12:24:23Z</time>
      </trkpt>
      <trkpt lat="46.8725850" lon="6.3807470">
        <ele>879.8</ele>
        <time>2022-07-22T12:24:25Z</time>
      </trkpt>
      <trkpt lat="46.8725490" lon="6.3806290">
        <ele>879.4</ele>
        <time>2022-07-22T12:24:27Z</time>
      </trkpt>
      <trkpt lat="46.8725320" lon="6.3805780">
        <ele>878.8</ele>
        <time>2022-07-22T12:24:28Z</time>
      </trkpt>
      <trkpt lat="46.8724970" lon="6.3804570">
        <ele>877.4</ele>
        <time>2022-07-22T12:24:31Z</time>
      </trkpt>
      <trkpt lat="46.8724860" lon="6.3804280">
        <ele>877.2</ele>
        <time>2022-07-22T12:24:32Z</time>
      </trkpt>
      <trkpt lat="46.8724680" lon="6.3803700">
        <ele>876.4</ele>
        <time>2022-07-22T12:24:34Z</time>
      </trkpt>
      <trkpt lat="46.8724500" lon="6.3803160">
        <ele>875.2</ele>
        <time>2022-07-22T12:24:36Z</time>
      </trkpt>
      <trkpt lat="46.8724460" lon="6.3803020">
        <ele>874.8</ele>
        <time>2022-07-22T12:24:37Z</time>
      </trkpt>
      <trkpt lat="46.8724440" lon="6.3802990">
        <ele>874.2</ele>
        <time>2022-07-22T12:24:39Z</time>
      </trkpt>
      <trkpt lat="46.8721710" lon="6.3799640">
        <ele>869.0</ele>
        <time>2022-07-22T12:28:31Z</time>
      </trkpt>
      <trkpt lat="46.8721500" lon="6.3800010">
        <ele>869.0</ele>
        <time>2022-07-22T12:28:33Z</time>
      </trkpt>
      <trkpt lat="46.8721410" lon="6.3801580">
        <ele>869.2</ele>
        <time>2022-07-22T12:28:38Z</time>
      </trkpt>
      <trkpt lat="46.8721420" lon="6.3801920">
        <ele>869.2</ele>
        <time>2022-07-22T12:28:39Z</time>
      </trkpt>
      <trkpt lat="46.8721450" lon="6.3804500">
        <ele>869.2</ele>
        <time>2022-07-22T12:28:46Z</time>
      </trkpt>
      <trkpt lat="46.8721520" lon="6.3808260">
        <ele>869.4</ele>
        <time>2022-07-22T12:28:55Z</time>
      </trkpt>
      <trkpt lat="46.8721480" lon="6.3812100">
        <ele>869.6</ele>
        <time>2022-07-22T12:29:03Z</time>
      </trkpt>
      <trkpt lat="46.8721530" lon="6.3816050">
        <ele>869.8</ele>
        <time>2022-07-22T12:29:10Z</time>
      </trkpt>
      <trkpt lat="46.8721810" lon="6.3821230">
        <ele>869.8</ele>
        <time>2022-07-22T12:29:19Z</time>
      </trkpt>
      <trkpt lat="46.8722270" lon="6.3827520">
        <ele>869.8</ele>
        <time>2022-07-22T12:29:29Z</time>
      </trkpt>
      <trkpt lat="46.8722510" lon="6.3830880">
        <ele>868.2</ele>
        <time>2022-07-22T12:29:34Z</time>
      </trkpt>
      <trkpt lat="46.8722720" lon="6.3833540">
        <ele>867.6</ele>
        <time>2022-07-22T12:29:38Z</time>
      </trkpt>
      <trkpt lat="46.8722910" lon="6.3837980">
        <ele>867.4</ele>
        <time>2022-07-22T12:29:45Z</time>
      </trkpt>
      <trkpt lat="46.8723110" lon="6.3842610">
        <ele>867.8</ele>
        <time>2022-07-22T12:29:53Z</time>
      </trkpt>
      <trkpt lat="46.8723320" lon="6.3847680">
        <ele>868.0</ele>
        <time>2022-07-22T12:30:02Z</time>
      </trkpt>
      <trkpt lat="46.8723530" lon="6.3851900">
        <ele>868.4</ele>
        <time>2022-07-22T12:30:10Z</time>
      </trkpt>
      <trkpt lat="46.8723840" lon="6.3857250">
        <ele>869.0</ele>
        <time>2022-07-22T12:30:21Z</time>
      </trkpt>
      <trkpt lat="46.8724050" lon="6.3859580">
        <ele>869.4</ele>
        <time>2022-07-22T12:30:26Z</time>
      </trkpt>
      <trkpt lat="46.8724290" lon="6.3861760">
        <ele>869.8</ele>
        <time>2022-07-22T12:30:31Z</time>
      </trkpt>
      <trkpt lat="46.8724670" lon="6.3864610">
        <ele>870.4</ele>
        <time>2022-07-22T12:30:38Z</time>
      </trkpt>
      <trkpt lat="46.8724840" lon="6.3865820">
        <ele>871.0</ele>
        <time>2022-07-22T12:30:41Z</time>
      </trkpt>
      <trkpt lat="46.8725370" lon="6.3868670">
        <ele>871.6</ele>
        <time>2022-07-22T12:30:48Z</time>
      </trkpt>
      <trkpt lat="46.8725590" lon="6.3870020">
        <ele>871.6</ele>
        <time>2022-07-22T12:30:51Z</time>
      </trkpt>
      <trkpt lat="46.8726210" lon="6.3873890">
        <ele>871.6</ele>
        <time>2022-07-22T12:30:59Z</time>
      </trkpt>
      <trkpt lat="46.8726630" lon="6.3878790">
        <ele>871.6</ele>
        <time>2022-07-22T12:31:08Z</time>
      </trkpt>
      <trkpt lat="46.8726540" lon="6.3882930">
        <ele>872.0</ele>
        <time>2022-07-22T12:31:15Z</time>
      </trkpt>
      <trkpt lat="46.8726250" lon="6.3887080">
        <ele>872.4</ele>
        <time>2022-07-22T12:31:22Z</time>
      </trkpt>
      <trkpt lat="46.8725570" lon="6.3892630">
        <ele>872.4</ele>
        <time>2022-07-22T12:31:31Z</time>
      </trkpt>
      <trkpt lat="46.8724740" lon="6.3898500">
        <ele>872.6</ele>
        <time>2022-07-22T12:31:40Z</time>
      </trkpt>
      <trkpt lat="46.8724490" lon="6.3902800">
        <ele>872.8</ele>
        <time>2022-07-22T12:31:47Z</time>
      </trkpt>
      <trkpt lat="46.8724450" lon="6.3903400">
        <ele>872.8</ele>
        <time>2022-07-22T12:31:48Z</time>
      </trkpt>
      <trkpt lat="46.8724310" lon="6.3908040">
        <ele>873.2</ele>
        <time>2022-07-22T12:31:56Z</time>
      </trkpt>
      <trkpt lat="46.8724370" lon="6.3911080">
        <ele>873.8</ele>
        <time>2022-07-22T12:32:02Z</time>
      </trkpt>
      <trkpt lat="46.8724430" lon="6.3911560">
        <ele>874.0</ele>
        <time>2022-07-22T12:32:03Z</time>
      </trkpt>
      <trkpt lat="46.8724870" lon="6.3914450">
        <ele>875.0</ele>
        <time>2022-07-22T12:32:09Z</time>
      </trkpt>
      <trkpt lat="46.8725080" lon="6.3915410">
        <ele>875.2</ele>
        <time>2022-07-22T12:32:11Z</time>
      </trkpt>
      <trkpt lat="46.8726250" lon="6.3919770">
        <ele>875.4</ele>
        <time>2022-07-22T12:32:20Z</time>
      </trkpt>
      <trkpt lat="46.8727500" lon="6.3924440">
        <ele>875.4</ele>
        <time>2022-07-22T12:32:28Z</time>
      </trkpt>
      <trkpt lat="46.8727630" lon="6.3925050">
        <ele>875.4</ele>
        <time>2022-07-22T12:32:29Z</time>
      </trkpt>
      <trkpt lat="46.8728140" lon="6.3928050">
        <ele>875.0</ele>
        <time>2022-07-22T12:32:34Z</time>
      </trkpt>
      <trkpt lat="46.8728090" lon="6.3929260">
        <ele>874.8</ele>
        <time>2022-07-22T12:32:36Z</time>
      </trkpt>
      <trkpt lat="46.8727750" lon="6.3933550">
        <ele>874.6</ele>
        <time>2022-07-22T12:32:43Z</time>
      </trkpt>
      <trkpt lat="46.8728450" lon="6.3938240">
        <ele>874.8</ele>
        <time>2022-07-22T12:32:50Z</time>
      </trkpt>
      <trkpt lat="46.8729150" lon="6.3943210">
        <ele>874.4</ele>
        <time>2022-07-22T12:32:56Z</time>
      </trkpt>
      <trkpt lat="46.8729170" lon="6.3943910">
        <ele>874.4</ele>
        <time>2022-07-22T12:32:57Z</time>
      </trkpt>
      <trkpt lat="46.8728860" lon="6.3945120">
        <ele>874.2</ele>
        <time>2022-07-22T12:32:59Z</time>
      </trkpt>
      <trkpt lat="46.8728650" lon="6.3945700">
        <ele>874.0</ele>
        <time>2022-07-22T12:33:00Z</time>
      </trkpt>
      <trkpt lat="46.8727580" lon="6.3948990">
        <ele>873.0</ele>
        <time>2022-07-22T12:33:05Z</time>
      </trkpt>
      <trkpt lat="46.8727360" lon="6.3949730">
        <ele>872.6</ele>
        <time>2022-07-22T12:33:06Z</time>
      </trkpt>
      <trkpt lat="46.8725820" lon="6.3955230">
        <ele>872.0</ele>
        <time>2022-07-22T12:33:14Z</time>
      </trkpt>
      <trkpt lat="46.8724920" lon="6.3960270">
        <ele>871.6</ele>
        <time>2022-07-22T12:33:22Z</time>
      </trkpt>
      <trkpt lat="46.8724330" lon="6.3964490">
        <ele>871.4</ele>
        <time>2022-07-22T12:33:30Z</time>
      </trkpt>
      <trkpt lat="46.8723590" lon="6.3967880">
        <ele>871.6</ele>
        <time>2022-07-22T12:33:38Z</time>
      </trkpt>
      <trkpt lat="46.8722400" lon="6.3969980">
        <ele>872.6</ele>
        <time>2022-07-22T12:33:46Z</time>
      </trkpt>
      <trkpt lat="46.8721990" lon="6.3970570">
        <ele>873.0</ele>
        <time>2022-07-22T12:33:49Z</time>
      </trkpt>
      <trkpt lat="46.8721230" lon="6.3971380">
        <ele>873.6</ele>
        <time>2022-07-22T12:33:54Z</time>
      </trkpt>
      <trkpt lat="46.8720500" lon="6.3972130">
        <ele>874.2</ele>
        <time>2022-07-22T12:33:59Z</time>
      </trkpt>
      <trkpt lat="46.8719790" lon="6.3972890">
        <ele>875.2</ele>
        <time>2022-07-22T12:34:04Z</time>
      </trkpt>
      <trkpt lat="46.8719660" lon="6.3973060">
        <ele>875.4</ele>
        <time>2022-07-22T12:34:05Z</time>
      </trkpt>
      <trkpt lat="46.8718640" lon="6.3974410">
        <ele>876.2</ele>
        <time>2022-07-22T12:34:13Z</time>
      </trkpt>
      <trkpt lat="46.8718140" lon="6.3975180">
        <ele>876.4</ele>
        <time>2022-07-22T12:34:17Z</time>
      </trkpt>
      <trkpt lat="46.8717470" lon="6.3976670">
        <ele>877.4</ele>
        <time>2022-07-22T12:34:24Z</time>
      </trkpt>
      <trkpt lat="46.8717380" lon="6.3976880">
        <ele>877.4</ele>
        <time>2022-07-22T12:34:25Z</time>
      </trkpt>
      <trkpt lat="46.8716880" lon="6.3978390">
        <ele>878.4</ele>
        <time>2022-07-22T12:34:32Z</time>
      </trkpt>
      <trkpt lat="46.8716810" lon="6.3978600">
        <ele>878.6</ele>
        <time>2022-07-22T12:34:33Z</time>
      </trkpt>
      <trkpt lat="46.8716480" lon="6.3980190">
        <ele>879.2</ele>
        <time>2022-07-22T12:34:40Z</time>
      </trkpt>
      <trkpt lat="46.8716410" lon="6.3980600">
        <ele>879.8</ele>
        <time>2022-07-22T12:34:42Z</time>
      </trkpt>
      <trkpt lat="46.8716400" lon="6.3981430">
        <ele>880.4</ele>
        <time>2022-07-22T12:34:46Z</time>
      </trkpt>
      <trkpt lat="46.8716430" lon="6.3982070">
        <ele>880.8</ele>
        <time>2022-07-22T12:34:49Z</time>
      </trkpt>
      <trkpt lat="46.8716630" lon="6.3983120">
        <ele>881.4</ele>
        <time>2022-07-22T12:34:54Z</time>
      </trkpt>
      <trkpt lat="46.8716710" lon="6.3983540">
        <ele>881.4</ele>
        <time>2022-07-22T12:34:56Z</time>
      </trkpt>
      <trkpt lat="46.8716810" lon="6.3983920">
        <ele>881.8</ele>
        <time>2022-07-22T12:34:58Z</time>
      </trkpt>
      <trkpt lat="46.8717160" lon="6.3984590">
        <ele>882.4</ele>
        <time>2022-07-22T12:35:02Z</time>
      </trkpt>
      <trkpt lat="46.8717620" lon="6.3985190">
        <ele>882.8</ele>
        <time>2022-07-22T12:35:06Z</time>
      </trkpt>
      <trkpt lat="46.8717950" lon="6.3985660">
        <ele>883.2</ele>
        <time>2022-07-22T12:35:09Z</time>
      </trkpt>
      <trkpt lat="46.8718430" lon="6.3986370">
        <ele>883.8</ele>
        <time>2022-07-22T12:35:14Z</time>
      </trkpt>
      <trkpt lat="46.8718770" lon="6.3986800">
        <ele>884.2</ele>
        <time>2022-07-22T12:35:17Z</time>
      </trkpt>
      <trkpt lat="46.8719400" lon="6.3987450">
        <ele>884.8</ele>
        <time>2022-07-22T12:35:22Z</time>
      </trkpt>
      <trkpt lat="46.8719680" lon="6.3987760">
        <ele>885.0</ele>
        <time>2022-07-22T12:35:24Z</time>
      </trkpt>
      <trkpt lat="46.8720380" lon="6.3988570">
        <ele>885.8</ele>
        <time>2022-07-22T12:35:30Z</time>
      </trkpt>
      <trkpt lat="46.8720600" lon="6.3988870">
        <ele>886.2</ele>
        <time>2022-07-22T12:35:32Z</time>
      </trkpt>
      <trkpt lat="46.8721140" lon="6.3989460">
        <ele>887.0</ele>
        <time>2022-07-22T12:35:36Z</time>
      </trkpt>
      <trkpt lat="46.8721450" lon="6.3989920">
        <ele>887.4</ele>
        <time>2022-07-22T12:35:39Z</time>
      </trkpt>
      <trkpt lat="46.8722060" lon="6.3990900">
        <ele>888.0</ele>
        <time>2022-07-22T12:35:45Z</time>
      </trkpt>
      <trkpt lat="46.8722150" lon="6.3991090">
        <ele>888.0</ele>
        <time>2022-07-22T12:35:46Z</time>
      </trkpt>
      <trkpt lat="46.8723070" lon="6.3993040">
        <ele>889.0</ele>
        <time>2022-07-22T12:35:56Z</time>
      </trkpt>
      <trkpt lat="46.8723180" lon="6.3993230">
        <ele>889.0</ele>
        <time>2022-07-22T12:35:57Z</time>
      </trkpt>
      <trkpt lat="46.8723820" lon="6.3994660">
        <ele>889.6</ele>
        <time>2022-07-22T12:36:04Z</time>
      </trkpt>
      <trkpt lat="46.8724070" lon="6.3995190">
        <ele>890.2</ele>
        <time>2022-07-22T12:36:07Z</time>
      </trkpt>
      <trkpt lat="46.8724220" lon="6.3995970">
        <ele>890.8</ele>
        <time>2022-07-22T12:36:11Z</time>
      </trkpt>
      <trkpt lat="46.8724410" lon="6.3996640">
        <ele>891.4</ele>
        <time>2022-07-22T12:36:14Z</time>
      </trkpt>
      <trkpt lat="46.8724680" lon="6.3997750">
        <ele>892.2</ele>
        <time>2022-07-22T12:36:19Z</time>
      </trkpt>
      <trkpt lat="46.8724910" lon="6.3998410">
        <ele>892.4</ele>
        <time>2022-07-22T12:36:22Z</time>
      </trkpt>
      <trkpt lat="46.8725180" lon="6.3999230">
        <ele>892.8</ele>
        <time>2022-07-22T12:36:26Z</time>
      </trkpt>
      <trkpt lat="46.8725480" lon="6.4000260">
        <ele>893.6</ele>
        <time>2022-07-22T12:36:31Z</time>
      </trkpt>
      <trkpt lat="46.8725620" lon="6.4000950">
        <ele>893.8</ele>
        <time>2022-07-22T12:36:34Z</time>
      </trkpt>
      <trkpt lat="46.8725950" lon="6.4002370">
        <ele>894.6</ele>
        <time>2022-07-22T12:36:40Z</time>
      </trkpt>
      <trkpt lat="46.8726270" lon="6.4003740">
        <ele>895.6</ele>
        <time>2022-07-22T12:36:46Z</time>
      </trkpt>
      <trkpt lat="46.8726490" lon="6.4004640">
        <ele>896.0</ele>
        <time>2022-07-22T12:36:50Z</time>
      </trkpt>
      <trkpt lat="46.8726800" lon="6.4005980">
        <ele>896.6</ele>
        <time>2022-07-22T12:36:56Z</time>
      </trkpt>
      <trkpt lat="46.8726930" lon="6.4006650">
        <ele>897.0</ele>
        <time>2022-07-22T12:36:59Z</time>
      </trkpt>
      <trkpt lat="46.8727060" lon="6.4007520">
        <ele>897.6</ele>
        <time>2022-07-22T12:37:03Z</time>
      </trkpt>
      <trkpt lat="46.8727210" lon="6.4008440">
        <ele>898.2</ele>
        <time>2022-07-22T12:37:07Z</time>
      </trkpt>
      <trkpt lat="46.8727370" lon="6.4009580">
        <ele>898.8</ele>
        <time>2022-07-22T12:37:12Z</time>
      </trkpt>
      <trkpt lat="46.8727480" lon="6.4010310">
        <ele>899.2</ele>
        <time>2022-07-22T12:37:15Z</time>
      </trkpt>
      <trkpt lat="46.8727590" lon="6.4012000">
        <ele>900.0</ele>
        <time>2022-07-22T12:37:22Z</time>
      </trkpt>
      <trkpt lat="46.8727660" lon="6.4012730">
        <ele>900.4</ele>
        <time>2022-07-22T12:37:25Z</time>
      </trkpt>
      <trkpt lat="46.8727670" lon="6.4014500">
        <ele>901.4</ele>
        <time>2022-07-22T12:37:32Z</time>
      </trkpt>
      <trkpt lat="46.8727660" lon="6.4014750">
        <ele>901.6</ele>
        <time>2022-07-22T12:37:33Z</time>
      </trkpt>
      <trkpt lat="46.8727580" lon="6.4016470">
        <ele>902.4</ele>
        <time>2022-07-22T12:37:40Z</time>
      </trkpt>
      <trkpt lat="46.8727570" lon="6.4016700">
        <ele>902.6</ele>
        <time>2022-07-22T12:37:41Z</time>
      </trkpt>
      <trkpt lat="46.8727430" lon="6.4018810">
        <ele>903.4</ele>
        <time>2022-07-22T12:37:50Z</time>
      </trkpt>
      <trkpt lat="46.8727340" lon="6.4019760">
        <ele>903.6</ele>
        <time>2022-07-22T12:37:54Z</time>
      </trkpt>
      <trkpt lat="46.8727170" lon="6.4020640">
        <ele>903.8</ele>
        <time>2022-07-22T12:37:58Z</time>
      </trkpt>
      <trkpt lat="46.8726970" lon="6.4021960">
        <ele>904.8</ele>
        <time>2022-07-22T12:38:04Z</time>
      </trkpt>
      <trkpt lat="46.8726940" lon="6.4022180">
        <ele>905.0</ele>
        <time>2022-07-22T12:38:05Z</time>
      </trkpt>
      <trkpt lat="46.8726810" lon="6.4023330">
        <ele>906.0</ele>
        <time>2022-07-22T12:38:10Z</time>
      </trkpt>
      <trkpt lat="46.8726730" lon="6.4024020">
        <ele>906.6</ele>
        <time>2022-07-22T12:38:13Z</time>
      </trkpt>
      <trkpt lat="46.8726600" lon="6.4024490">
        <ele>907.0</ele>
        <time>2022-07-22T12:38:15Z</time>
      </trkpt>
      <trkpt lat="46.8726320" lon="6.4025900">
        <ele>907.8</ele>
        <time>2022-07-22T12:38:21Z</time>
      </trkpt>
      <trkpt lat="46.8726250" lon="6.4026130">
        <ele>908.2</ele>
        <time>2022-07-22T12:38:22Z</time>
      </trkpt>
      <trkpt lat="46.8726430" lon="6.4027440">
        <ele>909.2</ele>
        <time>2022-07-22T12:38:27Z</time>
      </trkpt>
      <trkpt lat="46.8726440" lon="6.4028190">
        <ele>909.8</ele>
        <time>2022-07-22T12:38:30Z</time>
      </trkpt>
      <trkpt lat="46.8726380" lon="6.4028670">
        <ele>910.4</ele>
        <time>2022-07-22T12:38:32Z</time>
      </trkpt>
      <trkpt lat="46.8726110" lon="6.4030280">
        <ele>911.4</ele>
        <time>2022-07-22T12:38:39Z</time>
      </trkpt>
      <trkpt lat="46.8726070" lon="6.4030510">
        <ele>911.4</ele>
        <time>2022-07-22T12:38:40Z</time>
      </trkpt>
      <trkpt lat="46.8725680" lon="6.4032460">
        <ele>912.4</ele>
        <time>2022-07-22T12:38:48Z</time>
      </trkpt>
      <trkpt lat="46.8725640" lon="6.4032700">
        <ele>912.6</ele>
        <time>2022-07-22T12:38:49Z</time>
      </trkpt>
      <trkpt lat="46.8725280" lon="6.4034370">
        <ele>913.4</ele>
        <time>2022-07-22T12:38:56Z</time>
      </trkpt>
      <trkpt lat="46.8725140" lon="6.4035070">
        <ele>913.8</ele>
        <time>2022-07-22T12:38:59Z</time>
      </trkpt>
      <trkpt lat="46.8724930" lon="6.4036020">
        <ele>914.6</ele>
        <time>2022-07-22T12:39:03Z</time>
      </trkpt>
      <trkpt lat="46.8724660" lon="6.4037190">
        <ele>915.2</ele>
        <time>2022-07-22T12:39:08Z</time>
      </trkpt>
      <trkpt lat="46.8724490" lon="6.4037870">
        <ele>915.6</ele>
        <time>2022-07-22T12:39:11Z</time>
      </trkpt>
      <trkpt lat="46.8724100" lon="6.4039520">
        <ele>916.4</ele>
        <time>2022-07-22T12:39:18Z</time>
      </trkpt>
      <trkpt lat="46.8723840" lon="6.4040240">
        <ele>916.8</ele>
        <time>2022-07-22T12:39:21Z</time>
      </trkpt>
      <trkpt lat="46.8723330" lon="6.4041430">
        <ele>917.2</ele>
        <time>2022-07-22T12:39:26Z</time>
      </trkpt>
      <trkpt lat="46.8722240" lon="6.4043640">
        <ele>917.8</ele>
        <time>2022-07-22T12:39:35Z</time>
      </trkpt>
      <trkpt lat="46.8722090" lon="6.4043910">
        <ele>917.8</ele>
        <time>2022-07-22T12:39:36Z</time>
      </trkpt>
      <trkpt lat="46.8720750" lon="6.4046590">
        <ele>918.4</ele>
        <time>2022-07-22T12:39:45Z</time>
      </trkpt>
      <trkpt lat="46.8719000" lon="6.4048980">
        <ele>918.6</ele>
        <time>2022-07-22T12:39:53Z</time>
      </trkpt>
      <trkpt lat="46.8716720" lon="6.4050540">
        <ele>918.6</ele>
        <time>2022-07-22T12:40:01Z</time>
      </trkpt>
      <trkpt lat="46.8713480" lon="6.4052280">
        <ele>918.8</ele>
        <time>2022-07-22T12:40:12Z</time>
      </trkpt>
      <trkpt lat="46.8712570" lon="6.4053410">
        <ele>919.0</ele>
        <time>2022-07-22T12:40:16Z</time>
      </trkpt>
      <trkpt lat="46.8712260" lon="6.4054210">
        <ele>919.2</ele>
        <time>2022-07-22T12:40:18Z</time>
      </trkpt>
      <trkpt lat="46.8712150" lon="6.4056850">
        <ele>919.4</ele>
        <time>2022-07-22T12:40:24Z</time>
      </trkpt>
      <trkpt lat="46.8713000" lon="6.4058990">
        <ele>920.0</ele>
        <time>2022-07-22T12:40:30Z</time>
      </trkpt>
      <trkpt lat="46.8713500" lon="6.4059920">
        <ele>920.2</ele>
        <time>2022-07-22T12:40:33Z</time>
      </trkpt>
      <trkpt lat="46.8714130" lon="6.4061180">
        <ele>920.4</ele>
        <time>2022-07-22T12:40:37Z</time>
      </trkpt>
      <trkpt lat="46.8714980" lon="6.4062810">
        <ele>921.4</ele>
        <time>2022-07-22T12:40:42Z</time>
      </trkpt>
      <trkpt lat="46.8715170" lon="6.4063130">
        <ele>921.6</ele>
        <time>2022-07-22T12:40:43Z</time>
      </trkpt>
      <trkpt lat="46.8716000" lon="6.4065090">
        <ele>922.4</ele>
        <time>2022-07-22T12:40:49Z</time>
      </trkpt>
      <trkpt lat="46.8716360" lon="6.4066020">
        <ele>922.6</ele>
        <time>2022-07-22T12:40:52Z</time>
      </trkpt>
      <trkpt lat="46.8716880" lon="6.4067190">
        <ele>923.4</ele>
        <time>2022-07-22T12:40:56Z</time>
      </trkpt>
      <trkpt lat="46.8717280" lon="6.4068350">
        <ele>924.0</ele>
        <time>2022-07-22T12:41:00Z</time>
      </trkpt>
      <trkpt lat="46.8717670" lon="6.4069200">
        <ele>924.4</ele>
        <time>2022-07-22T12:41:03Z</time>
      </trkpt>
      <trkpt lat="46.8718000" lon="6.4069970">
        <ele>924.6</ele>
        <time>2022-07-22T12:41:06Z</time>
      </trkpt>
      <trkpt lat="46.8718620" lon="6.4071580">
        <ele>925.4</ele>
        <time>2022-07-22T12:41:12Z</time>
      </trkpt>
      <trkpt lat="46.8718720" lon="6.4071860">
        <ele>925.6</ele>
        <time>2022-07-22T12:41:13Z</time>
      </trkpt>
      <trkpt lat="46.8719330" lon="6.4073530">
        <ele>926.6</ele>
        <time>2022-07-22T12:41:19Z</time>
      </trkpt>
      <trkpt lat="46.8719800" lon="6.4074540">
        <ele>927.0</ele>
        <time>2022-07-22T12:41:23Z</time>
      </trkpt>
      <trkpt lat="46.8720150" lon="6.4075270">
        <ele>927.6</ele>
        <time>2022-07-22T12:41:26Z</time>
      </trkpt>
      <trkpt lat="46.8720490" lon="6.4076010">
        <ele>927.8</ele>
        <time>2022-07-22T12:41:29Z</time>
      </trkpt>
      <trkpt lat="46.8721420" lon="6.4077480">
        <ele>928.6</ele>
        <time>2022-07-22T12:41:35Z</time>
      </trkpt>
      <trkpt lat="46.8721570" lon="6.4077740">
        <ele>928.6</ele>
        <time>2022-07-22T12:41:36Z</time>
      </trkpt>
      <trkpt lat="46.8722710" lon="6.4079560">
        <ele>929.6</ele>
        <time>2022-07-22T12:41:43Z</time>
      </trkpt>
      <trkpt lat="46.8724030" lon="6.4082220">
        <ele>930.4</ele>
        <time>2022-07-22T12:41:52Z</time>
      </trkpt>
      <trkpt lat="46.8724180" lon="6.4082510">
        <ele>930.8</ele>
        <time>2022-07-22T12:41:53Z</time>
      </trkpt>
      <trkpt lat="46.8725550" lon="6.4085010">
        <ele>931.6</ele>
        <time>2022-07-22T12:42:02Z</time>
      </trkpt>
      <trkpt lat="46.8725780" lon="6.4085570">
        <ele>931.8</ele>
        <time>2022-07-22T12:42:04Z</time>
      </trkpt>
      <trkpt lat="46.8726520" lon="6.4087250">
        <ele>932.4</ele>
        <time>2022-07-22T12:42:10Z</time>
      </trkpt>
      <trkpt lat="46.8727000" lon="6.4088300">
        <ele>933.0</ele>
        <time>2022-07-22T12:42:14Z</time>
      </trkpt>
      <trkpt lat="46.8727370" lon="6.4089400">
        <ele>933.4</ele>
        <time>2022-07-22T12:42:18Z</time>
      </trkpt>
      <trkpt lat="46.8727660" lon="6.4090280">
        <ele>934.0</ele>
        <time>2022-07-22T12:42:21Z</time>
      </trkpt>
      <trkpt lat="46.8728350" lon="6.4091750">
        <ele>934.6</ele>
        <time>2022-07-22T12:42:26Z</time>
      </trkpt>
      <trkpt lat="46.8728780" lon="6.4092550">
        <ele>934.8</ele>
        <time>2022-07-22T12:42:29Z</time>
      </trkpt>
      <trkpt lat="46.8729190" lon="6.4093410">
        <ele>935.2</ele>
        <time>2022-07-22T12:42:32Z</time>
      </trkpt>
      <trkpt lat="46.8730400" lon="6.4095990">
        <ele>936.0</ele>
        <time>2022-07-22T12:42:40Z</time>
      </trkpt>
      <trkpt lat="46.8730550" lon="6.4096330">
        <ele>936.0</ele>
        <time>2022-07-22T12:42:41Z</time>
      </trkpt>
      <trkpt lat="46.8732130" lon="6.4099790">
        <ele>936.8</ele>
        <time>2022-07-22T12:42:51Z</time>
      </trkpt>
      <trkpt lat="46.8732450" lon="6.4100510">
        <ele>937.0</ele>
        <time>2022-07-22T12:42:53Z</time>
      </trkpt>
      <trkpt lat="46.8732630" lon="6.4100860">
        <ele>937.2</ele>
        <time>2022-07-22T12:42:54Z</time>
      </trkpt>
      <trkpt lat="46.8733410" lon="6.4102650">
        <ele>937.4</ele>
        <time>2022-07-22T12:42:59Z</time>
      </trkpt>
      <trkpt lat="46.8734410" lon="6.4104590">
        <ele>938.2</ele>
        <time>2022-07-22T12:43:05Z</time>
      </trkpt>
      <trkpt lat="46.8734540" lon="6.4104910">
        <ele>938.2</ele>
        <time>2022-07-22T12:43:06Z</time>
      </trkpt>
      <trkpt lat="46.8735610" lon="6.4108090">
        <ele>938.8</ele>
        <time>2022-07-22T12:43:15Z</time>
      </trkpt>
      <trkpt lat="46.8736420" lon="6.4110210">
        <ele>939.2</ele>
        <time>2022-07-22T12:43:21Z</time>
      </trkpt>
      <trkpt lat="46.8736720" lon="6.4110880">
        <ele>939.2</ele>
        <time>2022-07-22T12:43:23Z</time>
      </trkpt>
      <trkpt lat="46.8737860" lon="6.4113390">
        <ele>940.2</ele>
        <time>2022-07-22T12:43:30Z</time>
      </trkpt>
      <trkpt lat="46.8738410" lon="6.4114490">
        <ele>940.4</ele>
        <time>2022-07-22T12:43:33Z</time>
      </trkpt>
      <trkpt lat="46.8739860" lon="6.4117830">
        <ele>941.2</ele>
        <time>2022-07-22T12:43:42Z</time>
      </trkpt>
      <trkpt lat="46.8740000" lon="6.4118210">
        <ele>941.2</ele>
        <time>2022-07-22T12:43:43Z</time>
      </trkpt>
      <trkpt lat="46.8741490" lon="6.4122620">
        <ele>942.2</ele>
        <time>2022-07-22T12:43:54Z</time>
      </trkpt>
      <trkpt lat="46.8741730" lon="6.4123480">
        <ele>942.4</ele>
        <time>2022-07-22T12:43:56Z</time>
      </trkpt>
      <trkpt lat="46.8742760" lon="6.4127180">
        <ele>943.0</ele>
        <time>2022-07-22T12:44:04Z</time>
      </trkpt>
      <trkpt lat="46.8743940" lon="6.4131590">
        <ele>943.2</ele>
        <time>2022-07-22T12:44:13Z</time>
      </trkpt>
      <trkpt lat="46.8745170" lon="6.4136030">
        <ele>943.4</ele>
        <time>2022-07-22T12:44:22Z</time>
      </trkpt>
      <trkpt lat="46.8745670" lon="6.4137520">
        <ele>943.4</ele>
        <time>2022-07-22T12:44:25Z</time>
      </trkpt>
      <trkpt lat="46.8747360" lon="6.4142530">
        <ele>943.6</ele>
        <time>2022-07-22T12:44:35Z</time>
      </trkpt>
      <trkpt lat="46.8748820" lon="6.4146530">
        <ele>943.4</ele>
        <time>2022-07-22T12:44:43Z</time>
      </trkpt>
      <trkpt lat="46.8750880" lon="6.4152500">
        <ele>943.6</ele>
        <time>2022-07-22T12:44:55Z</time>
      </trkpt>
      <trkpt lat="46.8752190" lon="6.4157060">
        <ele>943.8</ele>
        <time>2022-07-22T12:45:04Z</time>
      </trkpt>
      <trkpt lat="46.8753390" lon="6.4161900">
        <ele>944.0</ele>
        <time>2022-07-22T12:45:13Z</time>
      </trkpt>
      <trkpt lat="46.8754510" lon="6.4166590">
        <ele>943.8</ele>
        <time>2022-07-22T12:45:22Z</time>
      </trkpt>
      <trkpt lat="46.8755280" lon="6.4170070">
        <ele>943.8</ele>
        <time>2022-07-22T12:45:29Z</time>
      </trkpt>
      <trkpt lat="46.8755990" lon="6.4172660">
        <ele>944.0</ele>
        <time>2022-07-22T12:45:35Z</time>
      </trkpt>
      <trkpt lat="46.8756100" lon="6.4175220">
        <ele>944.6</ele>
        <time>2022-07-22T12:45:41Z</time>
      </trkpt>
      <trkpt lat="46.8755330" lon="6.4177620">
        <ele>945.4</ele>
        <time>2022-07-22T12:45:48Z</time>
      </trkpt>
      <trkpt lat="46.8755180" lon="6.4177900">
        <ele>945.6</ele>
        <time>2022-07-22T12:45:49Z</time>
      </trkpt>
      <trkpt lat="46.8754210" lon="6.4178790">
        <ele>946.8</ele>
        <time>2022-07-22T12:45:54Z</time>
      </trkpt>
      <trkpt lat="46.8753990" lon="6.4178940">
        <ele>946.8</ele>
        <time>2022-07-22T12:45:55Z</time>
      </trkpt>
      <trkpt lat="46.8752650" lon="6.4179290">
        <ele>947.6</ele>
        <time>2022-07-22T12:46:01Z</time>
      </trkpt>
      <trkpt lat="46.8752210" lon="6.4179300">
        <ele>947.8</ele>
        <time>2022-07-22T12:46:03Z</time>
      </trkpt>
      <trkpt lat="46.8751140" lon="6.4178790">
        <ele>948.4</ele>
        <time>2022-07-22T12:46:08Z</time>
      </trkpt>
      <trkpt lat="46.8750400" lon="6.4178260">
        <ele>949.0</ele>
        <time>2022-07-22T12:46:12Z</time>
      </trkpt>
      <trkpt lat="46.8750010" lon="6.4177710">
        <ele>949.2</ele>
        <time>2022-07-22T12:46:15Z</time>
      </trkpt>
      <trkpt lat="46.8749470" lon="6.4176630">
        <ele>950.0</ele>
        <time>2022-07-22T12:46:20Z</time>
      </trkpt>
      <trkpt lat="46.8749410" lon="6.4176420">
        <ele>950.2</ele>
        <time>2022-07-22T12:46:21Z</time>
      </trkpt>
      <trkpt lat="46.8749000" lon="6.4174900">
        <ele>951.0</ele>
        <time>2022-07-22T12:46:27Z</time>
      </trkpt>
      <trkpt lat="46.8748950" lon="6.4174660">
        <ele>951.2</ele>
        <time>2022-07-22T12:46:28Z</time>
      </trkpt>
      <trkpt lat="46.8748530" lon="6.4172930">
        <ele>952.0</ele>
        <time>2022-07-22T12:46:35Z</time>
      </trkpt>
      <trkpt lat="46.8748290" lon="6.4172530">
        <ele>952.2</ele>
        <time>2022-07-22T12:46:37Z</time>
      </trkpt>
      <trkpt lat="46.8747890" lon="6.4171410">
        <ele>952.8</ele>
        <time>2022-07-22T12:46:42Z</time>
      </trkpt>
      <trkpt lat="46.8747540" lon="6.4170080">
        <ele>953.2</ele>
        <time>2022-07-22T12:46:47Z</time>
      </trkpt>
      <trkpt lat="46.8747450" lon="6.4169810">
        <ele>953.4</ele>
        <time>2022-07-22T12:46:48Z</time>
      </trkpt>
      <trkpt lat="46.8746720" lon="6.4168110">
        <ele>954.0</ele>
        <time>2022-07-22T12:46:55Z</time>
      </trkpt>
      <trkpt lat="46.8746530" lon="6.4167660">
        <ele>954.4</ele>
        <time>2022-07-22T12:46:57Z</time>
      </trkpt>
      <trkpt lat="46.8745920" lon="6.4166070">
        <ele>955.6</ele>
        <time>2022-07-22T12:47:04Z</time>
      </trkpt>
      <trkpt lat="46.8744940" lon="6.4164180">
        <ele>956.6</ele>
        <time>2022-07-22T12:47:13Z</time>
      </trkpt>
      <trkpt lat="46.8744830" lon="6.4163980">
        <ele>956.8</ele>
        <time>2022-07-22T12:47:14Z</time>
      </trkpt>
      <trkpt lat="46.8744020" lon="6.4162510">
        <ele>957.8</ele>
        <time>2022-07-22T12:47:21Z</time>
      </trkpt>
      <trkpt lat="46.8743790" lon="6.4162070">
        <ele>958.0</ele>
        <time>2022-07-22T12:47:23Z</time>
      </trkpt>
      <trkpt lat="46.8743130" lon="6.4160830">
        <ele>959.0</ele>
        <time>2022-07-22T12:47:29Z</time>
      </trkpt>
      <trkpt lat="46.8742830" lon="6.4160210">
        <ele>959.2</ele>
        <time>2022-07-22T12:47:32Z</time>
      </trkpt>
      <trkpt lat="46.8742240" lon="6.4159020">
        <ele>960.2</ele>
        <time>2022-07-22T12:47:38Z</time>
      </trkpt>
      <trkpt lat="46.8742030" lon="6.4158550">
        <ele>960.6</ele>
        <time>2022-07-22T12:47:40Z</time>
      </trkpt>
      <trkpt lat="46.8741580" lon="6.4157710">
        <ele>961.2</ele>
        <time>2022-07-22T12:47:44Z</time>
      </trkpt>
      <trkpt lat="46.8741350" lon="6.4157320">
        <ele>961.6</ele>
        <time>2022-07-22T12:47:46Z</time>
      </trkpt>
      <trkpt lat="46.8740780" lon="6.4156390">
        <ele>962.2</ele>
        <time>2022-07-22T12:47:51Z</time>
      </trkpt>
      <trkpt lat="46.8740590" lon="6.4155980">
        <ele>962.4</ele>
        <time>2022-07-22T12:47:53Z</time>
      </trkpt>
      <trkpt lat="46.8739730" lon="6.4154290">
        <ele>963.4</ele>
        <time>2022-07-22T12:48:01Z</time>
      </trkpt>
      <trkpt lat="46.8739620" lon="6.4154080">
        <ele>963.4</ele>
        <time>2022-07-22T12:48:02Z</time>
      </trkpt>
      <trkpt lat="46.8738630" lon="6.4152400">
        <ele>964.4</ele>
        <time>2022-07-22T12:48:11Z</time>
      </trkpt>
      <trkpt lat="46.8737790" lon="6.4150810">
        <ele>965.6</ele>
        <time>2022-07-22T12:48:19Z</time>
      </trkpt>
      <trkpt lat="46.8737700" lon="6.4150600">
        <ele>965.8</ele>
        <time>2022-07-22T12:48:20Z</time>
      </trkpt>
      <trkpt lat="46.8736750" lon="6.4149040">
        <ele>966.6</ele>
        <time>2022-07-22T12:48:28Z</time>
      </trkpt>
      <trkpt lat="46.8735500" lon="6.4147230">
        <ele>967.6</ele>
        <time>2022-07-22T12:48:38Z</time>
      </trkpt>
      <trkpt lat="46.8734480" lon="6.4145860">
        <ele>968.6</ele>
        <time>2022-07-22T12:48:46Z</time>
      </trkpt>
      <trkpt lat="46.8734340" lon="6.4145710">
        <ele>968.8</ele>
        <time>2022-07-22T12:48:47Z</time>
      </trkpt>
      <trkpt lat="46.8733060" lon="6.4144010">
        <ele>969.6</ele>
        <time>2022-07-22T12:48:57Z</time>
      </trkpt>
      <trkpt lat="46.8732940" lon="6.4143820">
        <ele>969.8</ele>
        <time>2022-07-22T12:48:58Z</time>
      </trkpt>
      <trkpt lat="46.8731920" lon="6.4142530">
        <ele>970.6</ele>
        <time>2022-07-22T12:49:06Z</time>
      </trkpt>
      <trkpt lat="46.8731690" lon="6.4142210">
        <ele>970.8</ele>
        <time>2022-07-22T12:49:08Z</time>
      </trkpt>
      <trkpt lat="46.8730570" lon="6.4140820">
        <ele>971.8</ele>
        <time>2022-07-22T12:49:17Z</time>
      </trkpt>
      <trkpt lat="46.8729700" lon="6.4139630">
        <ele>972.8</ele>
        <time>2022-07-22T12:49:24Z</time>
      </trkpt>
      <trkpt lat="46.8729580" lon="6.4139490">
        <ele>973.0</ele>
        <time>2022-07-22T12:49:25Z</time>
      </trkpt>
      <trkpt lat="46.8728720" lon="6.4138300">
        <ele>974.0</ele>
        <time>2022-07-22T12:49:32Z</time>
      </trkpt>
      <trkpt lat="46.8728000" lon="6.4137450">
        <ele>974.8</ele>
        <time>2022-07-22T12:49:37Z</time>
      </trkpt>
      <trkpt lat="46.8727740" lon="6.4137120">
        <ele>975.0</ele>
        <time>2022-07-22T12:49:39Z</time>
      </trkpt>
      <trkpt lat="46.8726930" lon="6.4136180">
        <ele>975.6</ele>
        <time>2022-07-22T12:49:45Z</time>
      </trkpt>
      <trkpt lat="46.8726340" lon="6.4135630">
        <ele>976.0</ele>
        <time>2022-07-22T12:49:49Z</time>
      </trkpt>
      <trkpt lat="46.8725600" lon="6.4134950">
        <ele>977.0</ele>
        <time>2022-07-22T12:49:54Z</time>
      </trkpt>
      <trkpt lat="46.8725270" lon="6.4134720">
        <ele>977.0</ele>
        <time>2022-07-22T12:49:56Z</time>
      </trkpt>
      <trkpt lat="46.8724130" lon="6.4133890">
        <ele>978.0</ele>
        <time>2022-07-22T12:50:03Z</time>
      </trkpt>
      <trkpt lat="46.8723810" lon="6.4133650">
        <ele>978.2</ele>
        <time>2022-07-22T12:50:05Z</time>
      </trkpt>
      <trkpt lat="46.8722870" lon="6.4133000">
        <ele>979.2</ele>
        <time>2022-07-22T12:50:11Z</time>
      </trkpt>
      <trkpt lat="46.8722530" lon="6.4132750">
        <ele>979.4</ele>
        <time>2022-07-22T12:50:13Z</time>
      </trkpt>
      <trkpt lat="46.8721370" lon="6.4131930">
        <ele>980.2</ele>
        <time>2022-07-22T12:50:20Z</time>
      </trkpt>
      <trkpt lat="46.8720840" lon="6.4131620">
        <ele>980.6</ele>
        <time>2022-07-22T12:50:23Z</time>
      </trkpt>
      <trkpt lat="46.8720130" lon="6.4131100">
        <ele>981.4</ele>
        <time>2022-07-22T12:50:27Z</time>
      </trkpt>
      <trkpt lat="46.8719600" lon="6.4130720">
        <ele>981.6</ele>
        <time>2022-07-22T12:50:30Z</time>
      </trkpt>
      <trkpt lat="46.8718070" lon="6.4129900">
        <ele>982.6</ele>
        <time>2022-07-22T12:50:39Z</time>
      </trkpt>
      <trkpt lat="46.8717890" lon="6.4129860">
        <ele>982.8</ele>
        <time>2022-07-22T12:50:40Z</time>
      </trkpt>
      <trkpt lat="46.8716360" lon="6.4129960">
        <ele>983.4</ele>
        <time>2022-07-22T12:50:48Z</time>
      </trkpt>
      <trkpt lat="46.8716040" lon="6.4130140">
        <ele>983.8</ele>
        <time>2022-07-22T12:50:50Z</time>
      </trkpt>
      <trkpt lat="46.8715460" lon="6.4130670">
        <ele>984.0</ele>
        <time>2022-07-22T12:50:54Z</time>
      </trkpt>
      <trkpt lat="46.8714910" lon="6.4131340">
        <ele>984.6</ele>
        <time>2022-07-22T12:50:58Z</time>
      </trkpt>
      <trkpt lat="46.8714650" lon="6.4131740">
        <ele>984.8</ele>
        <time>2022-07-22T12:51:00Z</time>
      </trkpt>
      <trkpt lat="46.8714040" lon="6.4133520">
        <ele>985.4</ele>
        <time>2022-07-22T12:51:07Z</time>
      </trkpt>
      <trkpt lat="46.8713910" lon="6.4134290">
        <ele>985.8</ele>
        <time>2022-07-22T12:51:10Z</time>
      </trkpt>
      <trkpt lat="46.8713890" lon="6.4135680">
        <ele>986.2</ele>
        <time>2022-07-22T12:51:15Z</time>
      </trkpt>
      <trkpt lat="46.8714300" lon="6.4137540">
        <ele>986.8</ele>
        <time>2022-07-22T12:51:22Z</time>
      </trkpt>
      <trkpt lat="46.8714390" lon="6.4137790">
        <ele>987.0</ele>
        <time>2022-07-22T12:51:23Z</time>
      </trkpt>
      <trkpt lat="46.8714870" lon="6.4139020">
        <ele>987.6</ele>
        <time>2022-07-22T12:51:28Z</time>
      </trkpt>
      <trkpt lat="46.8715280" lon="6.4139960">
        <ele>988.0</ele>
        <time>2022-07-22T12:51:32Z</time>
      </trkpt>
      <trkpt lat="46.8715840" lon="6.4141020">
        <ele>988.6</ele>
        <time>2022-07-22T12:51:37Z</time>
      </trkpt>
      <trkpt lat="46.8716140" lon="6.4141640">
        <ele>989.0</ele>
        <time>2022-07-22T12:51:40Z</time>
      </trkpt>
      <trkpt lat="46.8716810" lon="6.4143090">
        <ele>989.6</ele>
        <time>2022-07-22T12:51:47Z</time>
      </trkpt>
      <trkpt lat="46.8717080" lon="6.4143730">
        <ele>990.0</ele>
        <time>2022-07-22T12:51:50Z</time>
      </trkpt>
      <trkpt lat="46.8717490" lon="6.4144850">
        <ele>990.6</ele>
        <time>2022-07-22T12:51:55Z</time>
      </trkpt>
      <trkpt lat="46.8717900" lon="6.4145960">
        <ele>991.0</ele>
        <time>2022-07-22T12:52:01Z</time>
      </trkpt>
      <trkpt lat="46.8717970" lon="6.4146160">
        <ele>991.2</ele>
        <time>2022-07-22T12:52:02Z</time>
      </trkpt>
      <trkpt lat="46.8718300" lon="6.4147460">
        <ele>992.2</ele>
        <time>2022-07-22T12:52:08Z</time>
      </trkpt>
      <trkpt lat="46.8718490" lon="6.4148340">
        <ele>993.0</ele>
        <time>2022-07-22T12:52:12Z</time>
      </trkpt>
      <trkpt lat="46.8718550" lon="6.4149010">
        <ele>993.2</ele>
        <time>2022-07-22T12:52:15Z</time>
      </trkpt>
      <trkpt lat="46.8718730" lon="6.4150170">
        <ele>993.8</ele>
        <time>2022-07-22T12:52:20Z</time>
      </trkpt>
      <trkpt lat="46.8718790" lon="6.4151260">
        <ele>994.4</ele>
        <time>2022-07-22T12:52:25Z</time>
      </trkpt>
      <trkpt lat="46.8718890" lon="6.4152150">
        <ele>994.6</ele>
        <time>2022-07-22T12:52:29Z</time>
      </trkpt>
      <trkpt lat="46.8719080" lon="6.4153900">
        <ele>995.4</ele>
        <time>2022-07-22T12:52:37Z</time>
      </trkpt>
      <trkpt lat="46.8719420" lon="6.4155560">
        <ele>996.2</ele>
        <time>2022-07-22T12:52:44Z</time>
      </trkpt>
      <trkpt lat="46.8719480" lon="6.4156020">
        <ele>996.4</ele>
        <time>2022-07-22T12:52:46Z</time>
      </trkpt>
      <trkpt lat="46.8719800" lon="6.4157570">
        <ele>997.0</ele>
        <time>2022-07-22T12:52:53Z</time>
      </trkpt>
      <trkpt lat="46.8719840" lon="6.4158190">
        <ele>997.4</ele>
        <time>2022-07-22T12:52:56Z</time>
      </trkpt>
      <trkpt lat="46.8720060" lon="6.4158970">
        <ele>998.0</ele>
        <time>2022-07-22T12:53:00Z</time>
      </trkpt>
      <trkpt lat="46.8720170" lon="6.4159700">
        <ele>998.6</ele>
        <time>2022-07-22T12:53:04Z</time>
      </trkpt>
      <trkpt lat="46.8720170" lon="6.4159860">
        <ele>998.6</ele>
        <time>2022-07-22T12:53:05Z</time>
      </trkpt>
      <trkpt lat="46.8720410" lon="6.4160950">
        <ele>999.2</ele>
        <time>2022-07-22T12:53:11Z</time>
      </trkpt>
      <trkpt lat="46.8720480" lon="6.4161120">
        <ele>999.2</ele>
        <time>2022-07-22T12:53:12Z</time>
      </trkpt>
      <trkpt lat="46.8720520" lon="6.4161280">
        <ele>999.4</ele>
        <time>2022-07-22T12:53:13Z</time>
      </trkpt>
      <trkpt lat="46.8720720" lon="6.4162060">
        <ele>1000.0</ele>
        <time>2022-07-22T12:53:17Z</time>
      </trkpt>
      <trkpt lat="46.8721080" lon="6.4163000">
        <ele>1000.6</ele>
        <time>2022-07-22T12:53:22Z</time>
      </trkpt>
      <trkpt lat="46.8721190" lon="6.4163390">
        <ele>1000.8</ele>
        <time>2022-07-22T12:53:24Z</time>
      </trkpt>
      <trkpt lat="46.8721710" lon="6.4164790">
        <ele>1001.6</ele>
        <time>2022-07-22T12:53:30Z</time>
      </trkpt>
      <trkpt lat="46.8721870" lon="6.4165190">
        <ele>1001.8</ele>
        <time>2022-07-22T12:53:32Z</time>
      </trkpt>
      <trkpt lat="46.8722240" lon="6.4166200">
        <ele>1002.4</ele>
        <time>2022-07-22T12:53:37Z</time>
      </trkpt>
      <trkpt lat="46.8722320" lon="6.4166400">
        <ele>1002.6</ele>
        <time>2022-07-22T12:53:38Z</time>
      </trkpt>
      <trkpt lat="46.8722680" lon="6.4167560">
        <ele>1003.4</ele>
        <time>2022-07-22T12:53:44Z</time>
      </trkpt>
      <trkpt lat="46.8722770" lon="6.4167720">
        <ele>1003.6</ele>
        <time>2022-07-22T12:53:45Z</time>
      </trkpt>
      <trkpt lat="46.8723150" lon="6.4168850">
        <ele>1004.2</ele>
        <time>2022-07-22T12:53:51Z</time>
      </trkpt>
      <trkpt lat="46.8723450" lon="6.4169660">
        <ele>1004.4</ele>
        <time>2022-07-22T12:53:55Z</time>
      </trkpt>
      <trkpt lat="46.8723490" lon="6.4170070">
        <ele>1004.4</ele>
        <time>2022-07-22T12:53:57Z</time>
      </trkpt>
      <trkpt lat="46.8724000" lon="6.4171460">
        <ele>1005.4</ele>
        <time>2022-07-22T12:54:04Z</time>
      </trkpt>
      <trkpt lat="46.8724360" lon="6.4172780">
        <ele>1006.4</ele>
        <time>2022-07-22T12:54:10Z</time>
      </trkpt>
      <trkpt lat="46.8724490" lon="6.4173220">
        <ele>1006.6</ele>
        <time>2022-07-22T12:54:12Z</time>
      </trkpt>
      <trkpt lat="46.8725010" lon="6.4174730">
        <ele>1007.4</ele>
        <time>2022-07-22T12:54:19Z</time>
      </trkpt>
      <trkpt lat="46.8725100" lon="6.4174990">
        <ele>1007.6</ele>
        <time>2022-07-22T12:54:20Z</time>
      </trkpt>
      <trkpt lat="46.8725570" lon="6.4176210">
        <ele>1008.2</ele>
        <time>2022-07-22T12:54:25Z</time>
      </trkpt>
      <trkpt lat="46.8725700" lon="6.4176590">
        <ele>1008.4</ele>
        <time>2022-07-22T12:54:27Z</time>
      </trkpt>
      <trkpt lat="46.8725970" lon="6.4177710">
        <ele>1008.8</ele>
        <time>2022-07-22T12:54:32Z</time>
      </trkpt>
      <trkpt lat="46.8726010" lon="6.4177900">
        <ele>1009.0</ele>
        <time>2022-07-22T12:54:33Z</time>
      </trkpt>
      <trkpt lat="46.8726220" lon="6.4178790">
        <ele>1009.2</ele>
        <time>2022-07-22T12:54:37Z</time>
      </trkpt>
      <trkpt lat="46.8726460" lon="6.4179530">
        <ele>1009.6</ele>
        <time>2022-07-22T12:54:40Z</time>
      </trkpt>
      <trkpt lat="46.8726790" lon="6.4180940">
        <ele>1010.4</ele>
        <time>2022-07-22T12:54:46Z</time>
      </trkpt>
      <trkpt lat="46.8726900" lon="6.4181360">
        <ele>1010.6</ele>
        <time>2022-07-22T12:54:48Z</time>
      </trkpt>
      <trkpt lat="46.8727190" lon="6.4182110">
        <ele>1011.0</ele>
        <time>2022-07-22T12:54:52Z</time>
      </trkpt>
      <trkpt lat="46.8727250" lon="6.4182510">
        <ele>1011.2</ele>
        <time>2022-07-22T12:54:54Z</time>
      </trkpt>
      <trkpt lat="46.8727380" lon="6.4182850">
        <ele>1011.4</ele>
        <time>2022-07-22T12:54:56Z</time>
      </trkpt>
      <trkpt lat="46.8727530" lon="6.4183370">
        <ele>1011.6</ele>
        <time>2022-07-22T12:54:59Z</time>
      </trkpt>
      <trkpt lat="46.8727570" lon="6.4183590">
        <ele>1012.0</ele>
        <time>2022-07-22T12:55:00Z</time>
      </trkpt>
      <trkpt lat="46.8727580" lon="6.4184250">
        <ele>1012.4</ele>
        <time>2022-07-22T12:55:03Z</time>
      </trkpt>
      <trkpt lat="46.8727830" lon="6.4185010">
        <ele>1012.8</ele>
        <time>2022-07-22T12:55:07Z</time>
      </trkpt>
      <trkpt lat="46.8728040" lon="6.4185540">
        <ele>1013.2</ele>
        <time>2022-07-22T12:55:10Z</time>
      </trkpt>
      <trkpt lat="46.8728140" lon="6.4185940">
        <ele>1013.6</ele>
        <time>2022-07-22T12:55:12Z</time>
      </trkpt>
      <trkpt lat="46.8728210" lon="6.4186330">
        <ele>1013.4</ele>
        <time>2022-07-22T12:55:14Z</time>
      </trkpt>
      <trkpt lat="46.8728730" lon="6.4187730">
        <ele>1014.2</ele>
        <time>2022-07-22T12:55:21Z</time>
      </trkpt>
      <trkpt lat="46.8728880" lon="6.4188200">
        <ele>1014.4</ele>
        <time>2022-07-22T12:55:23Z</time>
      </trkpt>
      <trkpt lat="46.8729060" lon="6.4188980">
        <ele>1014.8</ele>
        <time>2022-07-22T12:55:28Z</time>
      </trkpt>
      <trkpt lat="46.8730380" lon="6.4191120">
        <ele>1016.2</ele>
        <time>2022-07-22T12:57:46Z</time>
      </trkpt>
      <trkpt lat="46.8730540" lon="6.4191730">
        <ele>1016.2</ele>
        <time>2022-07-22T12:57:49Z</time>
      </trkpt>
      <trkpt lat="46.8730820" lon="6.4192730">
        <ele>1017.0</ele>
        <time>2022-07-22T12:57:54Z</time>
      </trkpt>
      <trkpt lat="46.8731140" lon="6.4193550">
        <ele>1017.2</ele>
        <time>2022-07-22T12:57:58Z</time>
      </trkpt>
      <trkpt lat="46.8731390" lon="6.4194360">
        <ele>1017.6</ele>
        <time>2022-07-22T12:58:02Z</time>
      </trkpt>
      <trkpt lat="46.8731690" lon="6.4195450">
        <ele>1018.2</ele>
        <time>2022-07-22T12:58:08Z</time>
      </trkpt>
      <trkpt lat="46.8731800" lon="6.4195840">
        <ele>1018.4</ele>
        <time>2022-07-22T12:58:10Z</time>
      </trkpt>
      <trkpt lat="46.8732040" lon="6.4197300">
        <ele>1019.2</ele>
        <time>2022-07-22T12:58:17Z</time>
      </trkpt>
      <trkpt lat="46.8732090" lon="6.4197530">
        <ele>1019.4</ele>
        <time>2022-07-22T12:58:18Z</time>
      </trkpt>
      <trkpt lat="46.8732430" lon="6.4199050">
        <ele>1020.0</ele>
        <time>2022-07-22T12:58:25Z</time>
      </trkpt>
      <trkpt lat="46.8732580" lon="6.4199930">
        <ele>1020.4</ele>
        <time>2022-07-22T12:58:29Z</time>
      </trkpt>
      <trkpt lat="46.8732720" lon="6.4201050">
        <ele>1020.8</ele>
        <time>2022-07-22T12:58:34Z</time>
      </trkpt>
      <trkpt lat="46.8732850" lon="6.4202590">
        <ele>1021.6</ele>
        <time>2022-07-22T12:58:41Z</time>
      </trkpt>
      <trkpt lat="46.8732870" lon="6.4202830">
        <ele>1021.6</ele>
        <time>2022-07-22T12:58:42Z</time>
      </trkpt>
      <trkpt lat="46.8733170" lon="6.4204620">
        <ele>1022.6</ele>
        <time>2022-07-22T12:58:50Z</time>
      </trkpt>
      <trkpt lat="46.8733220" lon="6.4204840">
        <ele>1022.6</ele>
        <time>2022-07-22T12:58:51Z</time>
      </trkpt>
      <trkpt lat="46.8733470" lon="6.4206580">
        <ele>1023.4</ele>
        <time>2022-07-22T12:58:59Z</time>
      </trkpt>
      <trkpt lat="46.8733620" lon="6.4207260">
        <ele>1023.6</ele>
        <time>2022-07-22T12:59:02Z</time>
      </trkpt>
      <trkpt lat="46.8734100" lon="6.4208850">
        <ele>1024.4</ele>
        <time>2022-07-22T12:59:10Z</time>
      </trkpt>
      <trkpt lat="46.8734350" lon="6.4209390">
        <ele>1024.8</ele>
        <time>2022-07-22T12:59:13Z</time>
      </trkpt>
      <trkpt lat="46.8734610" lon="6.4210270">
        <ele>1026.0</ele>
        <time>2022-07-22T12:59:18Z</time>
      </trkpt>
      <trkpt lat="46.8734660" lon="6.4210430">
        <ele>1026.0</ele>
        <time>2022-07-22T12:59:19Z</time>
      </trkpt>
      <trkpt lat="46.8734920" lon="6.4211590">
        <ele>1026.8</ele>
        <time>2022-07-22T12:59:26Z</time>
      </trkpt>
      <trkpt lat="46.8735060" lon="6.4211760">
        <ele>1027.0</ele>
        <time>2022-07-22T12:59:27Z</time>
      </trkpt>
      <trkpt lat="46.8735510" lon="6.4213020">
        <ele>1027.8</ele>
        <time>2022-07-22T12:59:34Z</time>
      </trkpt>
      <trkpt lat="46.8735530" lon="6.4213220">
        <ele>1028.0</ele>
        <time>2022-07-22T12:59:35Z</time>
      </trkpt>
      <trkpt lat="46.8735900" lon="6.4214580">
        <ele>1028.6</ele>
        <time>2022-07-22T12:59:42Z</time>
      </trkpt>
      <trkpt lat="46.8736090" lon="6.4215310">
        <ele>1029.0</ele>
        <time>2022-07-22T12:59:46Z</time>
      </trkpt>
      <trkpt lat="46.8736470" lon="6.4216130">
        <ele>1029.8</ele>
        <time>2022-07-22T12:59:50Z</time>
      </trkpt>
      <trkpt lat="46.8736790" lon="6.4217040">
        <ele>1030.2</ele>
        <time>2022-07-22T12:59:55Z</time>
      </trkpt>
      <trkpt lat="46.8737040" lon="6.4218040">
        <ele>1030.8</ele>
        <time>2022-07-22T13:00:00Z</time>
      </trkpt>
      <trkpt lat="46.8737310" lon="6.4219020">
        <ele>1031.2</ele>
        <time>2022-07-22T13:00:05Z</time>
      </trkpt>
      <trkpt lat="46.8737490" lon="6.4219540">
        <ele>1031.6</ele>
        <time>2022-07-22T13:00:08Z</time>
      </trkpt>
      <trkpt lat="46.8737760" lon="6.4220400">
        <ele>1032.4</ele>
        <time>2022-07-22T13:00:13Z</time>
      </trkpt>
      <trkpt lat="46.8737910" lon="6.4220940">
        <ele>1033.0</ele>
        <time>2022-07-22T13:00:16Z</time>
      </trkpt>
      <trkpt lat="46.8738060" lon="6.4221660">
        <ele>1033.4</ele>
        <time>2022-07-22T13:00:20Z</time>
      </trkpt>
      <trkpt lat="46.8738530" lon="6.4222410">
        <ele>1033.8</ele>
        <time>2022-07-22T13:00:24Z</time>
      </trkpt>
      <trkpt lat="46.8739010" lon="6.4223380">
        <ele>1034.6</ele>
        <time>2022-07-22T13:00:29Z</time>
      </trkpt>
      <trkpt lat="46.8739570" lon="6.4224100">
        <ele>1035.0</ele>
        <time>2022-07-22T13:00:33Z</time>
      </trkpt>
      <trkpt lat="46.8739880" lon="6.4224610">
        <ele>1035.6</ele>
        <time>2022-07-22T13:00:36Z</time>
      </trkpt>
      <trkpt lat="46.8739950" lon="6.4224780">
        <ele>1035.6</ele>
        <time>2022-07-22T13:00:37Z</time>
      </trkpt>
      <trkpt lat="46.8740150" lon="6.4225310">
        <ele>1036.0</ele>
        <time>2022-07-22T13:00:40Z</time>
      </trkpt>
      <trkpt lat="46.8740640" lon="6.4226510">
        <ele>1036.4</ele>
        <time>2022-07-22T13:00:47Z</time>
      </trkpt>
      <trkpt lat="46.8741200" lon="6.4228000">
        <ele>1037.4</ele>
        <time>2022-07-22T13:00:55Z</time>
      </trkpt>
      <trkpt lat="46.8741290" lon="6.4228200">
        <ele>1037.6</ele>
        <time>2022-07-22T13:00:56Z</time>
      </trkpt>
      <trkpt lat="46.8741770" lon="6.4229500">
        <ele>1038.6</ele>
        <time>2022-07-22T13:01:03Z</time>
      </trkpt>
      <trkpt lat="46.8741830" lon="6.4229700">
        <ele>1038.8</ele>
        <time>2022-07-22T13:01:04Z</time>
      </trkpt>
      <trkpt lat="46.8742320" lon="6.4231190">
        <ele>1039.8</ele>
        <time>2022-07-22T13:01:12Z</time>
      </trkpt>
      <trkpt lat="46.8742380" lon="6.4231380">
        <ele>1040.0</ele>
        <time>2022-07-22T13:01:13Z</time>
      </trkpt>
      <trkpt lat="46.8742770" lon="6.4232470">
        <ele>1040.8</ele>
        <time>2022-07-22T13:01:19Z</time>
      </trkpt>
      <trkpt lat="46.8742860" lon="6.4232660">
        <ele>1041.0</ele>
        <time>2022-07-22T13:01:20Z</time>
      </trkpt>
      <trkpt lat="46.8743460" lon="6.4233700">
        <ele>1042.0</ele>
        <time>2022-07-22T13:01:26Z</time>
      </trkpt>
      <trkpt lat="46.8743780" lon="6.4234430">
        <ele>1042.4</ele>
        <time>2022-07-22T13:01:30Z</time>
      </trkpt>
      <trkpt lat="46.8744270" lon="6.4235750">
        <ele>1043.0</ele>
        <time>2022-07-22T13:01:37Z</time>
      </trkpt>
      <trkpt lat="46.8744370" lon="6.4236150">
        <ele>1043.2</ele>
        <time>2022-07-22T13:01:39Z</time>
      </trkpt>
      <trkpt lat="46.8744760" lon="6.4237080">
        <ele>1044.0</ele>
        <time>2022-07-22T13:01:44Z</time>
      </trkpt>
      <trkpt lat="46.8745010" lon="6.4237720">
        <ele>1044.4</ele>
        <time>2022-07-22T13:01:47Z</time>
      </trkpt>
      <trkpt lat="46.8745470" lon="6.4238940">
        <ele>1045.2</ele>
        <time>2022-07-22T13:01:53Z</time>
      </trkpt>
      <trkpt lat="46.8745680" lon="6.4239320">
        <ele>1045.4</ele>
        <time>2022-07-22T13:01:55Z</time>
      </trkpt>
      <trkpt lat="46.8746190" lon="6.4240620">
        <ele>1046.2</ele>
        <time>2022-07-22T13:02:01Z</time>
      </trkpt>
      <trkpt lat="46.8746250" lon="6.4240850">
        <ele>1046.2</ele>
        <time>2022-07-22T13:02:02Z</time>
      </trkpt>
      <trkpt lat="46.8746890" lon="6.4242480">
        <ele>1047.0</ele>
        <time>2022-07-22T13:02:09Z</time>
      </trkpt>
      <trkpt lat="46.8747160" lon="6.4243170">
        <ele>1047.2</ele>
        <time>2022-07-22T13:02:12Z</time>
      </trkpt>
      <trkpt lat="46.8747510" lon="6.4244230">
        <ele>1047.6</ele>
        <time>2022-07-22T13:02:16Z</time>
      </trkpt>
      <trkpt lat="46.8748120" lon="6.4245890">
        <ele>1048.2</ele>
        <time>2022-07-22T13:02:23Z</time>
      </trkpt>
      <trkpt lat="46.8748920" lon="6.4248620">
        <ele>1049.0</ele>
        <time>2022-07-22T13:02:33Z</time>
      </trkpt>
      <trkpt lat="46.8749290" lon="6.4249570">
        <ele>1049.2</ele>
        <time>2022-07-22T13:02:36Z</time>
      </trkpt>
      <trkpt lat="46.8749830" lon="6.4251020">
        <ele>1049.6</ele>
        <time>2022-07-22T13:02:40Z</time>
      </trkpt>
      <trkpt lat="46.8751220" lon="6.4254670">
        <ele>1049.4</ele>
        <time>2022-07-22T13:02:48Z</time>
      </trkpt>
      <trkpt lat="46.8751510" lon="6.4255600">
        <ele>1049.4</ele>
        <time>2022-07-22T13:02:50Z</time>
      </trkpt>
      <trkpt lat="46.8751800" lon="6.4257480">
        <ele>1049.0</ele>
        <time>2022-07-22T13:02:54Z</time>
      </trkpt>
      <trkpt lat="46.8752070" lon="6.4259590">
        <ele>1048.8</ele>
        <time>2022-07-22T13:02:59Z</time>
      </trkpt>
      <trkpt lat="46.8752400" lon="6.4262890">
        <ele>1048.6</ele>
        <time>2022-07-22T13:03:06Z</time>
      </trkpt>
      <trkpt lat="46.8753150" lon="6.4266990">
        <ele>1048.6</ele>
        <time>2022-07-22T13:03:13Z</time>
      </trkpt>
      <trkpt lat="46.8754130" lon="6.4270340">
        <ele>1048.0</ele>
        <time>2022-07-22T13:03:18Z</time>
      </trkpt>
      <trkpt lat="46.8754640" lon="6.4272160">
        <ele>1047.8</ele>
        <time>2022-07-22T13:03:21Z</time>
      </trkpt>
      <trkpt lat="46.8756100" lon="6.4276230">
        <ele>1047.0</ele>
        <time>2022-07-22T13:03:28Z</time>
      </trkpt>
      <trkpt lat="46.8756260" lon="6.4276750">
        <ele>1047.0</ele>
        <time>2022-07-22T13:03:29Z</time>
      </trkpt>
      <trkpt lat="46.8757290" lon="6.4280350">
        <ele>1047.2</ele>
        <time>2022-07-22T13:03:37Z</time>
      </trkpt>
      <trkpt lat="46.8757970" lon="6.4283130">
        <ele>1047.8</ele>
        <time>2022-07-22T13:03:44Z</time>
      </trkpt>
      <trkpt lat="46.8758160" lon="6.4283850">
        <ele>1048.2</ele>
        <time>2022-07-22T13:03:46Z</time>
      </trkpt>
      <trkpt lat="46.8758610" lon="6.4285810">
        <ele>1048.6</ele>
        <time>2022-07-22T13:03:51Z</time>
      </trkpt>
      <trkpt lat="46.8759060" lon="6.4287630">
        <ele>1049.0</ele>
        <time>2022-07-22T13:03:56Z</time>
      </trkpt>
      <trkpt lat="46.8759360" lon="6.4288940">
        <ele>1049.6</ele>
        <time>2022-07-22T13:04:00Z</time>
      </trkpt>
      <trkpt lat="46.8759800" lon="6.4290320">
        <ele>1050.0</ele>
        <time>2022-07-22T13:04:04Z</time>
      </trkpt>
      <trkpt lat="46.8760270" lon="6.4291780">
        <ele>1050.6</ele>
        <time>2022-07-22T13:04:08Z</time>
      </trkpt>
      <trkpt lat="46.8760960" lon="6.4293440">
        <ele>1051.0</ele>
        <time>2022-07-22T13:04:13Z</time>
      </trkpt>
      <trkpt lat="46.8761270" lon="6.4294370">
        <ele>1051.2</ele>
        <time>2022-07-22T13:04:16Z</time>
      </trkpt>
      <trkpt lat="46.8761980" lon="6.4296330">
        <ele>1051.6</ele>
        <time>2022-07-22T13:04:22Z</time>
      </trkpt>
      <trkpt lat="46.8762380" lon="6.4297430">
        <ele>1052.0</ele>
        <time>2022-07-22T13:04:25Z</time>
      </trkpt>
      <trkpt lat="46.8763280" lon="6.4299580">
        <ele>1052.2</ele>
        <time>2022-07-22T13:04:31Z</time>
      </trkpt>
      <trkpt lat="46.8764650" lon="6.4303230">
        <ele>1052.8</ele>
        <time>2022-07-22T13:04:41Z</time>
      </trkpt>
      <trkpt lat="46.8765200" lon="6.4304690">
        <ele>1053.0</ele>
        <time>2022-07-22T13:04:45Z</time>
      </trkpt>
      <trkpt lat="46.8765840" lon="6.4306200">
        <ele>1053.0</ele>
        <time>2022-07-22T13:04:49Z</time>
      </trkpt>
      <trkpt lat="46.8767230" lon="6.4309650">
        <ele>1053.8</ele>
        <time>2022-07-22T13:04:58Z</time>
      </trkpt>
      <trkpt lat="46.8767670" lon="6.4310870">
        <ele>1053.8</ele>
        <time>2022-07-22T13:05:01Z</time>
      </trkpt>
      <trkpt lat="46.8768610" lon="6.4313280">
        <ele>1054.2</ele>
        <time>2022-07-22T13:05:07Z</time>
      </trkpt>
      <trkpt lat="46.8769640" lon="6.4316180">
        <ele>1054.6</ele>
        <time>2022-07-22T13:05:14Z</time>
      </trkpt>
      <trkpt lat="46.8770260" lon="6.4317660">
        <ele>1054.8</ele>
        <time>2022-07-22T13:05:18Z</time>
      </trkpt>
      <trkpt lat="46.8770900" lon="6.4318960">
        <ele>1055.0</ele>
        <time>2022-07-22T13:05:22Z</time>
      </trkpt>
      <trkpt lat="46.8772040" lon="6.4321860">
        <ele>1055.6</ele>
        <time>2022-07-22T13:05:30Z</time>
      </trkpt>
      <trkpt lat="46.8772150" lon="6.4322230">
        <ele>1055.8</ele>
        <time>2022-07-22T13:05:31Z</time>
      </trkpt>
      <trkpt lat="46.8772550" lon="6.4324680">
        <ele>1056.2</ele>
        <time>2022-07-22T13:05:37Z</time>
      </trkpt>
      <trkpt lat="46.8772100" lon="6.4327770">
        <ele>1056.6</ele>
        <time>2022-07-22T13:05:44Z</time>
      </trkpt>
      <trkpt lat="46.8771670" lon="6.4329030">
        <ele>1056.8</ele>
        <time>2022-07-22T13:05:47Z</time>
      </trkpt>
      <trkpt lat="46.8770800" lon="6.4330880">
        <ele>1056.8</ele>
        <time>2022-07-22T13:05:52Z</time>
      </trkpt>
      <trkpt lat="46.8769290" lon="6.4334450">
        <ele>1056.8</ele>
        <time>2022-07-22T13:06:00Z</time>
      </trkpt>
      <trkpt lat="46.8768110" lon="6.4337940">
        <ele>1056.8</ele>
        <time>2022-07-22T13:06:08Z</time>
      </trkpt>
      <trkpt lat="46.8767110" lon="6.4340050">
        <ele>1056.8</ele>
        <time>2022-07-22T13:06:15Z</time>
      </trkpt>
      <trkpt lat="46.8766070" lon="6.4340660">
        <ele>1057.4</ele>
        <time>2022-07-22T13:06:21Z</time>
      </trkpt>
      <trkpt lat="46.8765720" lon="6.4340740">
        <ele>1057.6</ele>
        <time>2022-07-22T13:06:23Z</time>
      </trkpt>
      <trkpt lat="46.8765030" lon="6.4340760">
        <ele>1058.2</ele>
        <time>2022-07-22T13:06:28Z</time>
      </trkpt>
      <trkpt lat="46.8764340" lon="6.4340580">
        <ele>1058.6</ele>
        <time>2022-07-22T13:06:33Z</time>
      </trkpt>
      <trkpt lat="46.8764100" lon="6.4340540">
        <ele>1059.2</ele>
        <time>2022-07-22T13:06:35Z</time>
      </trkpt>
      <trkpt lat="46.8763990" lon="6.4340480">
        <ele>1059.2</ele>
        <time>2022-07-22T13:06:36Z</time>
      </trkpt>
      <trkpt lat="46.8763470" lon="6.4340200">
        <ele>1059.6</ele>
        <time>2022-07-22T13:06:41Z</time>
      </trkpt>
      <trkpt lat="46.8763380" lon="6.4340160">
        <ele>1059.8</ele>
        <time>2022-07-22T13:06:42Z</time>
      </trkpt>
      <trkpt lat="46.8763030" lon="6.4339940">
        <ele>1060.6</ele>
        <time>2022-07-22T13:06:47Z</time>
      </trkpt>
      <trkpt lat="46.8762970" lon="6.4339840">
        <ele>1060.6</ele>
        <time>2022-07-22T13:06:48Z</time>
      </trkpt>
      <trkpt lat="46.8762310" lon="6.4339110">
        <ele>1061.6</ele>
        <time>2022-07-22T13:06:55Z</time>
      </trkpt>
      <trkpt lat="46.8762070" lon="6.4338760">
        <ele>1062.0</ele>
        <time>2022-07-22T13:06:58Z</time>
      </trkpt>
      <trkpt lat="46.8761790" lon="6.4338390">
        <ele>1062.6</ele>
        <time>2022-07-22T13:07:01Z</time>
      </trkpt>
      <trkpt lat="46.8761270" lon="6.4337420">
        <ele>1063.2</ele>
        <time>2022-07-22T13:07:10Z</time>
      </trkpt>
      <trkpt lat="46.8761130" lon="6.4337180">
        <ele>1063.6</ele>
        <time>2022-07-22T13:07:12Z</time>
      </trkpt>
      <trkpt lat="46.8760760" lon="6.4336570">
        <ele>1064.6</ele>
        <time>2022-07-22T13:07:18Z</time>
      </trkpt>
      <trkpt lat="46.8760390" lon="6.4335840">
        <ele>1065.4</ele>
        <time>2022-07-22T13:07:23Z</time>
      </trkpt>
      <trkpt lat="46.8760150" lon="6.4335450">
        <ele>1065.6</ele>
        <time>2022-07-22T13:07:26Z</time>
      </trkpt>
      <trkpt lat="46.8759550" lon="6.4334400">
        <ele>1066.6</ele>
        <time>2022-07-22T13:07:35Z</time>
      </trkpt>
      <trkpt lat="46.8759430" lon="6.4334220">
        <ele>1066.8</ele>
        <time>2022-07-22T13:07:37Z</time>
      </trkpt>
      <trkpt lat="46.8759120" lon="6.4333790">
        <ele>1067.6</ele>
        <time>2022-07-22T13:07:42Z</time>
      </trkpt>
      <trkpt lat="46.8758630" lon="6.4333220">
        <ele>1068.6</ele>
        <time>2022-07-22T13:07:49Z</time>
      </trkpt>
      <trkpt lat="46.8758530" lon="6.4333150">
        <ele>1068.6</ele>
        <time>2022-07-22T13:07:50Z</time>
      </trkpt>
      <trkpt lat="46.8757820" lon="6.4332410">
        <ele>1069.4</ele>
        <time>2022-07-22T13:07:58Z</time>
      </trkpt>
      <trkpt lat="46.8757580" lon="6.4332200">
        <ele>1069.8</ele>
        <time>2022-07-22T13:08:01Z</time>
      </trkpt>
      <trkpt lat="46.8757160" lon="6.4331740">
        <ele>1070.6</ele>
        <time>2022-07-22T13:08:06Z</time>
      </trkpt>
      <trkpt lat="46.8756690" lon="6.4331140">
        <ele>1071.2</ele>
        <time>2022-07-22T13:08:12Z</time>
      </trkpt>
      <trkpt lat="46.8756590" lon="6.4331070">
        <ele>1071.4</ele>
        <time>2022-07-22T13:08:13Z</time>
      </trkpt>
      <trkpt lat="46.8756000" lon="6.4330310">
        <ele>1072.4</ele>
        <time>2022-07-22T13:08:20Z</time>
      </trkpt>
      <trkpt lat="46.8755810" lon="6.4330060">
        <ele>1072.8</ele>
        <time>2022-07-22T13:08:23Z</time>
      </trkpt>
      <trkpt lat="46.8755490" lon="6.4329560">
        <ele>1073.6</ele>
        <time>2022-07-22T13:08:27Z</time>
      </trkpt>
      <trkpt lat="46.8754960" lon="6.4328760">
        <ele>1074.2</ele>
        <time>2022-07-22T13:08:34Z</time>
      </trkpt>
      <trkpt lat="46.8754830" lon="6.4328590">
        <ele>1074.6</ele>
        <time>2022-07-22T13:08:36Z</time>
      </trkpt>
      <trkpt lat="46.8754340" lon="6.4327810">
        <ele>1075.6</ele>
        <time>2022-07-22T13:08:43Z</time>
      </trkpt>
      <trkpt lat="46.8753640" lon="6.4326860">
        <ele>1076.6</ele>
        <time>2022-07-22T13:08:51Z</time>
      </trkpt>
      <trkpt lat="46.8753480" lon="6.4326670">
        <ele>1076.8</ele>
        <time>2022-07-22T13:08:53Z</time>
      </trkpt>
      <trkpt lat="46.8752890" lon="6.4325880">
        <ele>1077.4</ele>
        <time>2022-07-22T13:09:01Z</time>
      </trkpt>
      <trkpt lat="46.8752370" lon="6.4325360">
        <ele>1078.2</ele>
        <time>2022-07-22T13:09:07Z</time>
      </trkpt>
      <trkpt lat="46.8752260" lon="6.4325200">
        <ele>1078.6</ele>
        <time>2022-07-22T13:09:09Z</time>
      </trkpt>
      <trkpt lat="46.8751730" lon="6.4324640">
        <ele>1079.4</ele>
        <time>2022-07-22T13:09:16Z</time>
      </trkpt>
      <trkpt lat="46.8751620" lon="6.4324550">
        <ele>1079.6</ele>
        <time>2022-07-22T13:09:17Z</time>
      </trkpt>
      <trkpt lat="46.8750920" lon="6.4323980">
        <ele>1080.8</ele>
        <time>2022-07-22T13:09:25Z</time>
      </trkpt>
      <trkpt lat="46.8750670" lon="6.4323890">
        <ele>1081.0</ele>
        <time>2022-07-22T13:09:28Z</time>
      </trkpt>
      <trkpt lat="46.8750240" lon="6.4323670">
        <ele>1081.6</ele>
        <time>2022-07-22T13:09:34Z</time>
      </trkpt>
      <trkpt lat="46.8749800" lon="6.4323480">
        <ele>1082.4</ele>
        <time>2022-07-22T13:09:39Z</time>
      </trkpt>
      <trkpt lat="46.8749670" lon="6.4323370">
        <ele>1082.6</ele>
        <time>2022-07-22T13:09:41Z</time>
      </trkpt>
      <trkpt lat="46.8749070" lon="6.4323090">
        <ele>1083.6</ele>
        <time>2022-07-22T13:09:49Z</time>
      </trkpt>
      <trkpt lat="46.8748890" lon="6.4322960">
        <ele>1084.2</ele>
        <time>2022-07-22T13:09:52Z</time>
      </trkpt>
      <trkpt lat="46.8748690" lon="6.4322850">
        <ele>1084.4</ele>
        <time>2022-07-22T13:09:55Z</time>
      </trkpt>
      <trkpt lat="46.8726770" lon="6.4316800">
        <ele>1109.2</ele>
        <time>2022-07-22T13:23:22Z</time>
      </trkpt>
      <trkpt lat="46.8726390" lon="6.4316420">
        <ele>1109.2</ele>
        <time>2022-07-22T13:23:25Z</time>
      </trkpt>
      <trkpt lat="46.8725530" lon="6.4315770">
        <ele>1109.2</ele>
        <time>2022-07-22T13:23:31Z</time>
      </trkpt>
      <trkpt lat="46.8724100" lon="6.4314970">
        <ele>1109.6</ele>
        <time>2022-07-22T13:23:40Z</time>
      </trkpt>
      <trkpt lat="46.8723200" lon="6.4314060">
        <ele>1110.0</ele>
        <time>2022-07-22T13:23:46Z</time>
      </trkpt>
      <trkpt lat="46.8723030" lon="6.4313880">
        <ele>1110.0</ele>
        <time>2022-07-22T13:23:47Z</time>
      </trkpt>
      <trkpt lat="46.8722080" lon="6.4313100">
        <ele>1110.6</ele>
        <time>2022-07-22T13:23:52Z</time>
      </trkpt>
      <trkpt lat="46.8721180" lon="6.4311880">
        <ele>1110.4</ele>
        <time>2022-07-22T13:23:57Z</time>
      </trkpt>
      <trkpt lat="46.8720420" lon="6.4310220">
        <ele>1110.4</ele>
        <time>2022-07-22T13:24:02Z</time>
      </trkpt>
      <trkpt lat="46.8719770" lon="6.4307700">
        <ele>1110.2</ele>
        <time>2022-07-22T13:24:09Z</time>
      </trkpt>
      <trkpt lat="46.8719190" lon="6.4305040">
        <ele>1110.0</ele>
        <time>2022-07-22T13:24:16Z</time>
      </trkpt>
      <trkpt lat="46.8718900" lon="6.4303120">
        <ele>1109.8</ele>
        <time>2022-07-22T13:24:21Z</time>
      </trkpt>
      <trkpt lat="46.8718910" lon="6.4302830">
        <ele>1109.8</ele>
        <time>2022-07-22T13:24:22Z</time>
      </trkpt>
      <trkpt lat="46.8718830" lon="6.4301760">
        <ele>1110.0</ele>
        <time>2022-07-22T13:24:26Z</time>
      </trkpt>
      <trkpt lat="46.8718800" lon="6.4300250">
        <ele>1110.4</ele>
        <time>2022-07-22T13:24:33Z</time>
      </trkpt>
      <trkpt lat="46.8718810" lon="6.4298420">
        <ele>1110.6</ele>
        <time>2022-07-22T13:24:40Z</time>
      </trkpt>
      <trkpt lat="46.8718720" lon="6.4297800">
        <ele>1110.8</ele>
        <time>2022-07-22T13:24:42Z</time>
      </trkpt>
      <trkpt lat="46.8718470" lon="6.4296710">
        <ele>1111.2</ele>
        <time>2022-07-22T13:24:46Z</time>
      </trkpt>
      <trkpt lat="46.8718050" lon="6.4295220">
        <ele>1111.4</ele>
        <time>2022-07-22T13:24:52Z</time>
      </trkpt>
      <trkpt lat="46.8717780" lon="6.4294400">
        <ele>1111.8</ele>
        <time>2022-07-22T13:24:55Z</time>
      </trkpt>
      <trkpt lat="46.8717420" lon="6.4293140">
        <ele>1112.2</ele>
        <time>2022-07-22T13:24:59Z</time>
      </trkpt>
      <trkpt lat="46.8716300" lon="6.4291060">
        <ele>1112.4</ele>
        <time>2022-07-22T13:25:05Z</time>
      </trkpt>
      <trkpt lat="46.8715190" lon="6.4288850">
        <ele>1112.4</ele>
        <time>2022-07-22T13:25:12Z</time>
      </trkpt>
      <trkpt lat="46.8714230" lon="6.4286780">
        <ele>1112.4</ele>
        <time>2022-07-22T13:25:19Z</time>
      </trkpt>
      <trkpt lat="46.8713610" lon="6.4284150">
        <ele>1112.4</ele>
        <time>2022-07-22T13:25:25Z</time>
      </trkpt>
      <trkpt lat="46.8712360" lon="6.4280510">
        <ele>1112.4</ele>
        <time>2022-07-22T13:25:32Z</time>
      </trkpt>
      <trkpt lat="46.8710950" lon="6.4277010">
        <ele>1111.8</ele>
        <time>2022-07-22T13:25:40Z</time>
      </trkpt>
      <trkpt lat="46.8709620" lon="6.4274410">
        <ele>1111.6</ele>
        <time>2022-07-22T13:25:45Z</time>
      </trkpt>
      <trkpt lat="46.8709080" lon="6.4273180">
        <ele>1111.4</ele>
        <time>2022-07-22T13:25:47Z</time>
      </trkpt>
      <trkpt lat="46.8708360" lon="6.4271570">
        <ele>1111.0</ele>
        <time>2022-07-22T13:25:50Z</time>
      </trkpt>
      <trkpt lat="46.8707930" lon="6.4270690">
        <ele>1110.4</ele>
        <time>2022-07-22T13:25:52Z</time>
      </trkpt>
      <trkpt lat="46.8707270" lon="6.4269250">
        <ele>1110.2</ele>
        <time>2022-07-22T13:25:56Z</time>
      </trkpt>
      <trkpt lat="46.8706180" lon="6.4266950">
        <ele>1110.0</ele>
        <time>2022-07-22T13:26:01Z</time>
      </trkpt>
      <trkpt lat="46.8705400" lon="6.4265310">
        <ele>1109.8</ele>
        <time>2022-07-22T13:26:04Z</time>
      </trkpt>
      <trkpt lat="46.8704780" lon="6.4263320">
        <ele>1109.4</ele>
        <time>2022-07-22T13:26:07Z</time>
      </trkpt>
      <trkpt lat="46.8704220" lon="6.4261360">
        <ele>1108.6</ele>
        <time>2022-07-22T13:26:10Z</time>
      </trkpt>
      <trkpt lat="46.8703680" lon="6.4260190">
        <ele>1108.4</ele>
        <time>2022-07-22T13:26:12Z</time>
      </trkpt>
      <trkpt lat="46.8702690" lon="6.4258810">
        <ele>1107.8</ele>
        <time>2022-07-22T13:26:16Z</time>
      </trkpt>
      <trkpt lat="46.8701570" lon="6.4257700">
        <ele>1107.2</ele>
        <time>2022-07-22T13:26:22Z</time>
      </trkpt>
      <trkpt lat="46.8700560" lon="6.4256890">
        <ele>1107.4</ele>
        <time>2022-07-22T13:26:28Z</time>
      </trkpt>
      <trkpt lat="46.8699290" lon="6.4255690">
        <ele>1108.2</ele>
        <time>2022-07-22T13:26:36Z</time>
      </trkpt>
      <trkpt lat="46.8698260" lon="6.4255120">
        <ele>1109.0</ele>
        <time>2022-07-22T13:26:43Z</time>
      </trkpt>
      <trkpt lat="46.8698080" lon="6.4254970">
        <ele>1109.2</ele>
        <time>2022-07-22T13:26:45Z</time>
      </trkpt>
      <trkpt lat="46.8697640" lon="6.4254670">
        <ele>1109.4</ele>
        <time>2022-07-22T13:26:48Z</time>
      </trkpt>
      <trkpt lat="46.8697500" lon="6.4254590">
        <ele>1109.6</ele>
        <time>2022-07-22T13:26:49Z</time>
      </trkpt>
      <trkpt lat="46.8696850" lon="6.4254200">
        <ele>1110.0</ele>
        <time>2022-07-22T13:26:53Z</time>
      </trkpt>
      <trkpt lat="46.8696540" lon="6.4253940">
        <ele>1110.0</ele>
        <time>2022-07-22T13:26:55Z</time>
      </trkpt>
      <trkpt lat="46.8696220" lon="6.4253690">
        <ele>1110.2</ele>
        <time>2022-07-22T13:26:57Z</time>
      </trkpt>
      <trkpt lat="46.8695530" lon="6.4253030">
        <ele>1110.4</ele>
        <time>2022-07-22T13:27:01Z</time>
      </trkpt>
      <trkpt lat="46.8694510" lon="6.4251380">
        <ele>1110.4</ele>
        <time>2022-07-22T13:27:07Z</time>
      </trkpt>
      <trkpt lat="46.8693710" lon="6.4249760">
        <ele>1110.4</ele>
        <time>2022-07-22T13:27:12Z</time>
      </trkpt>
      <trkpt lat="46.8693280" lon="6.4248910">
        <ele>1109.6</ele>
        <time>2022-07-22T13:27:19Z</time>
      </trkpt>
      <trkpt lat="46.8692860" lon="6.4246880">
        <ele>1109.4</ele>
        <time>2022-07-22T13:27:25Z</time>
      </trkpt>
      <trkpt lat="46.8692490" lon="6.4244870">
        <ele>1109.4</ele>
        <time>2022-07-22T13:27:31Z</time>
      </trkpt>
      <trkpt lat="46.8691760" lon="6.4242460">
        <ele>1109.6</ele>
        <time>2022-07-22T13:27:38Z</time>
      </trkpt>
      <trkpt lat="46.8690440" lon="6.4240960">
        <ele>1109.6</ele>
        <time>2022-07-22T13:27:44Z</time>
      </trkpt>
      <trkpt lat="46.8689190" lon="6.4240610">
        <ele>1109.8</ele>
        <time>2022-07-22T13:27:50Z</time>
      </trkpt>
      <trkpt lat="46.8688280" lon="6.4240660">
        <ele>1110.4</ele>
        <time>2022-07-22T13:27:57Z</time>
      </trkpt>
      <trkpt lat="46.8687640" lon="6.4240810">
        <ele>1111.0</ele>
        <time>2022-07-22T13:28:03Z</time>
      </trkpt>
      <trkpt lat="46.8687300" lon="6.4240810">
        <ele>1111.6</ele>
        <time>2022-07-22T13:28:06Z</time>
      </trkpt>
      <trkpt lat="46.8686660" lon="6.4240780">
        <ele>1112.2</ele>
        <time>2022-07-22T13:28:11Z</time>
      </trkpt>
      <trkpt lat="46.8686420" lon="6.4240760">
        <ele>1112.6</ele>
        <time>2022-07-22T13:28:13Z</time>
      </trkpt>
      <trkpt lat="46.8685580" lon="6.4240710">
        <ele>1113.4</ele>
        <time>2022-07-22T13:28:20Z</time>
      </trkpt>
      <trkpt lat="46.8685230" lon="6.4240680">
        <ele>1113.6</ele>
        <time>2022-07-22T13:28:23Z</time>
      </trkpt>
      <trkpt lat="46.8684380" lon="6.4240670">
        <ele>1114.2</ele>
        <time>2022-07-22T13:28:30Z</time>
      </trkpt>
      <trkpt lat="46.8684250" lon="6.4240700">
        <ele>1114.4</ele>
        <time>2022-07-22T13:28:31Z</time>
      </trkpt>
      <trkpt lat="46.8683520" lon="6.4240940">
        <ele>1115.0</ele>
        <time>2022-07-22T13:28:38Z</time>
      </trkpt>
      <trkpt lat="46.8683300" lon="6.4241040">
        <ele>1115.4</ele>
        <time>2022-07-22T13:28:40Z</time>
      </trkpt>
      <trkpt lat="46.8682480" lon="6.4241660">
        <ele>1116.4</ele>
        <time>2022-07-22T13:28:48Z</time>
      </trkpt>
      <trkpt lat="46.8682390" lon="6.4241760">
        <ele>1116.6</ele>
        <time>2022-07-22T13:28:49Z</time>
      </trkpt>
      <trkpt lat="46.8682310" lon="6.4241860">
        <ele>1116.6</ele>
        <time>2022-07-22T13:28:50Z</time>
      </trkpt>
      <trkpt lat="46.8681580" lon="6.4242560">
        <ele>1117.2</ele>
        <time>2022-07-22T13:28:57Z</time>
      </trkpt>
      <trkpt lat="46.8680970" lon="6.4243210">
        <ele>1117.6</ele>
        <time>2022-07-22T13:29:03Z</time>
      </trkpt>
      <trkpt lat="46.8680780" lon="6.4243500">
        <ele>1117.8</ele>
        <time>2022-07-22T13:29:05Z</time>
      </trkpt>
      <trkpt lat="46.8680270" lon="6.4244680">
        <ele>1118.4</ele>
        <time>2022-07-22T13:29:12Z</time>
      </trkpt>
      <trkpt lat="46.8680180" lon="6.4244810">
        <ele>1118.6</ele>
        <time>2022-07-22T13:29:13Z</time>
      </trkpt>
      <trkpt lat="46.8679610" lon="6.4245640">
        <ele>1119.8</ele>
        <time>2022-07-22T13:29:19Z</time>
      </trkpt>
      <trkpt lat="46.8679530" lon="6.4245800">
        <ele>1119.8</ele>
        <time>2022-07-22T13:29:20Z</time>
      </trkpt>
      <trkpt lat="46.8678970" lon="6.4246600">
        <ele>1120.0</ele>
        <time>2022-07-22T13:29:27Z</time>
      </trkpt>
      <trkpt lat="46.8678660" lon="6.4247100">
        <ele>1120.6</ele>
        <time>2022-07-22T13:29:31Z</time>
      </trkpt>
      <trkpt lat="46.8678490" lon="6.4247290">
        <ele>1120.8</ele>
        <time>2022-07-22T13:29:33Z</time>
      </trkpt>
      <trkpt lat="46.8678200" lon="6.4247680">
        <ele>1121.6</ele>
        <time>2022-07-22T13:29:37Z</time>
      </trkpt>
      <trkpt lat="46.8677850" lon="6.4248080">
        <ele>1122.2</ele>
        <time>2022-07-22T13:29:41Z</time>
      </trkpt>
      <trkpt lat="46.8677470" lon="6.4248350">
        <ele>1122.6</ele>
        <time>2022-07-22T13:29:45Z</time>
      </trkpt>
      <trkpt lat="46.8677070" lon="6.4248700">
        <ele>1123.0</ele>
        <time>2022-07-22T13:29:49Z</time>
      </trkpt>
      <trkpt lat="46.8676600" lon="6.4249070">
        <ele>1123.6</ele>
        <time>2022-07-22T13:29:54Z</time>
      </trkpt>
      <trkpt lat="46.8676330" lon="6.4249350">
        <ele>1123.8</ele>
        <time>2022-07-22T13:29:57Z</time>
      </trkpt>
      <trkpt lat="46.8676240" lon="6.4249450">
        <ele>1124.0</ele>
        <time>2022-07-22T13:29:58Z</time>
      </trkpt>
      <trkpt lat="46.8675760" lon="6.4250060">
        <ele>1124.6</ele>
        <time>2022-07-22T13:30:04Z</time>
      </trkpt>
      <trkpt lat="46.8675600" lon="6.4250250">
        <ele>1125.0</ele>
        <time>2022-07-22T13:30:06Z</time>
      </trkpt>
      <trkpt lat="46.8675150" lon="6.4250580">
        <ele>1125.8</ele>
        <time>2022-07-22T13:30:11Z</time>
      </trkpt>
      <trkpt lat="46.8675070" lon="6.4250630">
        <ele>1125.8</ele>
        <time>2022-07-22T13:30:12Z</time>
      </trkpt>
      <trkpt lat="46.8674870" lon="6.4250760">
        <ele>1126.0</ele>
        <time>2022-07-22T13:30:14Z</time>
      </trkpt>
      <trkpt lat="46.8674270" lon="6.4251100">
        <ele>1126.4</ele>
        <time>2022-07-22T13:30:20Z</time>
      </trkpt>
      <trkpt lat="46.8673700" lon="6.4251400">
        <ele>1126.8</ele>
        <time>2022-07-22T13:30:26Z</time>
      </trkpt>
      <trkpt lat="46.8673490" lon="6.4251430">
        <ele>1127.0</ele>
        <time>2022-07-22T13:30:28Z</time>
      </trkpt>
      <trkpt lat="46.8672630" lon="6.4251590">
        <ele>1127.6</ele>
        <time>2022-07-22T13:30:35Z</time>
      </trkpt>
      <trkpt lat="46.8672640" lon="6.4251540">
        <ele>1127.6</ele>
        <time>2022-07-22T13:30:37Z</time>
      </trkpt>
      <trkpt lat="46.8671270" lon="6.4253570">
        <ele>1128.8</ele>
        <time>2022-07-22T13:31:42Z</time>
      </trkpt>
      <trkpt lat="46.8671140" lon="6.4253940">
        <ele>1128.8</ele>
        <time>2022-07-22T13:31:44Z</time>
      </trkpt>
      <trkpt lat="46.8670730" lon="6.4255130">
        <ele>1129.6</ele>
        <time>2022-07-22T13:31:51Z</time>
      </trkpt>
      <trkpt lat="46.8670590" lon="6.4255610">
        <ele>1129.8</ele>
        <time>2022-07-22T13:31:54Z</time>
      </trkpt>
      <trkpt lat="46.8670330" lon="6.4256340">
        <ele>1130.4</ele>
        <time>2022-07-22T13:31:59Z</time>
      </trkpt>
      <trkpt lat="46.8670190" lon="6.4256990">
        <ele>1131.0</ele>
        <time>2022-07-22T13:32:03Z</time>
      </trkpt>
      <trkpt lat="46.8670050" lon="6.4257490">
        <ele>1131.0</ele>
        <time>2022-07-22T13:32:06Z</time>
      </trkpt>
      <trkpt lat="46.8669850" lon="6.4258620">
        <ele>1132.0</ele>
        <time>2022-07-22T13:32:13Z</time>
      </trkpt>
      <trkpt lat="46.8669820" lon="6.4258790">
        <ele>1132.2</ele>
        <time>2022-07-22T13:32:14Z</time>
      </trkpt>
      <trkpt lat="46.8669600" lon="6.4260270">
        <ele>1132.8</ele>
        <time>2022-07-22T13:32:22Z</time>
      </trkpt>
      <trkpt lat="46.8669550" lon="6.4260800">
        <ele>1133.0</ele>
        <time>2022-07-22T13:32:25Z</time>
      </trkpt>
      <trkpt lat="46.8669530" lon="6.4261850">
        <ele>1133.6</ele>
        <time>2022-07-22T13:32:31Z</time>
      </trkpt>
      <trkpt lat="46.8669400" lon="6.4262930">
        <ele>1134.2</ele>
        <time>2022-07-22T13:32:37Z</time>
      </trkpt>
      <trkpt lat="46.8669300" lon="6.4263490">
        <ele>1134.4</ele>
        <time>2022-07-22T13:32:40Z</time>
      </trkpt>
      <trkpt lat="46.8668980" lon="6.4264740">
        <ele>1135.0</ele>
        <time>2022-07-22T13:32:47Z</time>
      </trkpt>
      <trkpt lat="46.8668840" lon="6.4265160">
        <ele>1135.4</ele>
        <time>2022-07-22T13:32:50Z</time>
      </trkpt>
      <trkpt lat="46.8668580" lon="6.4265830">
        <ele>1136.0</ele>
        <time>2022-07-22T13:32:55Z</time>
      </trkpt>
      <trkpt lat="46.8668330" lon="6.4266170">
        <ele>1136.2</ele>
        <time>2022-07-22T13:32:58Z</time>
      </trkpt>
      <trkpt lat="46.8667750" lon="6.4267570">
        <ele>1137.0</ele>
        <time>2022-07-22T13:33:07Z</time>
      </trkpt>
      <trkpt lat="46.8667690" lon="6.4267710">
        <ele>1137.2</ele>
        <time>2022-07-22T13:33:08Z</time>
      </trkpt>
      <trkpt lat="46.8667310" lon="6.4268940">
        <ele>1137.8</ele>
        <time>2022-07-22T13:33:16Z</time>
      </trkpt>
      <trkpt lat="46.8667250" lon="6.4269240">
        <ele>1138.0</ele>
        <time>2022-07-22T13:33:18Z</time>
      </trkpt>
      <trkpt lat="46.8666910" lon="6.4270500">
        <ele>1139.2</ele>
        <time>2022-07-22T13:33:26Z</time>
      </trkpt>
      <trkpt lat="46.8666820" lon="6.4270640">
        <ele>1139.2</ele>
        <time>2022-07-22T13:33:27Z</time>
      </trkpt>
      <trkpt lat="46.8666760" lon="6.4270790">
        <ele>1139.4</ele>
        <time>2022-07-22T13:33:28Z</time>
      </trkpt>
      <trkpt lat="46.8666440" lon="6.4271390">
        <ele>1140.0</ele>
        <time>2022-07-22T13:33:32Z</time>
      </trkpt>
      <trkpt lat="46.8666400" lon="6.4271570">
        <ele>1140.2</ele>
        <time>2022-07-22T13:33:33Z</time>
      </trkpt>
      <trkpt lat="46.8665920" lon="6.4273020">
        <ele>1141.4</ele>
        <time>2022-07-22T13:33:42Z</time>
      </trkpt>
      <trkpt lat="46.8665520" lon="6.4274290">
        <ele>1142.4</ele>
        <time>2022-07-22T13:33:49Z</time>
      </trkpt>
      <trkpt lat="46.8665450" lon="6.4274630">
        <ele>1142.8</ele>
        <time>2022-07-22T13:33:51Z</time>
      </trkpt>
      <trkpt lat="46.8665170" lon="6.4276160">
        <ele>1143.6</ele>
        <time>2022-07-22T13:33:59Z</time>
      </trkpt>
      <trkpt lat="46.8665150" lon="6.4276350">
        <ele>1143.6</ele>
        <time>2022-07-22T13:34:00Z</time>
      </trkpt>
      <trkpt lat="46.8664830" lon="6.4278040">
        <ele>1144.4</ele>
        <time>2022-07-22T13:34:09Z</time>
      </trkpt>
      <trkpt lat="46.8664760" lon="6.4278390">
        <ele>1144.6</ele>
        <time>2022-07-22T13:34:11Z</time>
      </trkpt>
      <trkpt lat="46.8664270" lon="6.4279840">
        <ele>1145.4</ele>
        <time>2022-07-22T13:34:19Z</time>
      </trkpt>
      <trkpt lat="46.8664130" lon="6.4280230">
        <ele>1145.6</ele>
        <time>2022-07-22T13:34:21Z</time>
      </trkpt>
      <trkpt lat="46.8663640" lon="6.4281480">
        <ele>1146.4</ele>
        <time>2022-07-22T13:34:28Z</time>
      </trkpt>
      <trkpt lat="46.8663480" lon="6.4281840">
        <ele>1146.6</ele>
        <time>2022-07-22T13:34:30Z</time>
      </trkpt>
      <trkpt lat="46.8663150" lon="6.4282940">
        <ele>1147.4</ele>
        <time>2022-07-22T13:34:36Z</time>
      </trkpt>
      <trkpt lat="46.8662930" lon="6.4283730">
        <ele>1147.6</ele>
        <time>2022-07-22T13:34:40Z</time>
      </trkpt>
      <trkpt lat="46.8662750" lon="6.4284260">
        <ele>1148.0</ele>
        <time>2022-07-22T13:34:43Z</time>
      </trkpt>
      <trkpt lat="46.8662710" lon="6.4284450">
        <ele>1148.0</ele>
        <time>2022-07-22T13:34:44Z</time>
      </trkpt>
      <trkpt lat="46.8662460" lon="6.4285310">
        <ele>1148.6</ele>
        <time>2022-07-22T13:34:49Z</time>
      </trkpt>
      <trkpt lat="46.8662410" lon="6.4285510">
        <ele>1148.6</ele>
        <time>2022-07-22T13:34:50Z</time>
      </trkpt>
      <trkpt lat="46.8662120" lon="6.4287010">
        <ele>1149.4</ele>
        <time>2022-07-22T13:34:57Z</time>
      </trkpt>
      <trkpt lat="46.8662080" lon="6.4287240">
        <ele>1149.6</ele>
        <time>2022-07-22T13:34:58Z</time>
      </trkpt>
      <trkpt lat="46.8661800" lon="6.4288600">
        <ele>1150.2</ele>
        <time>2022-07-22T13:35:04Z</time>
      </trkpt>
      <trkpt lat="46.8661560" lon="6.4289050">
        <ele>1150.8</ele>
        <time>2022-07-22T13:35:07Z</time>
      </trkpt>
      <trkpt lat="46.8661040" lon="6.4290000">
        <ele>1151.4</ele>
        <time>2022-07-22T13:35:13Z</time>
      </trkpt>
      <trkpt lat="46.8660680" lon="6.4290550">
        <ele>1151.6</ele>
        <time>2022-07-22T13:35:17Z</time>
      </trkpt>
      <trkpt lat="46.8660360" lon="6.4290910">
        <ele>1152.0</ele>
        <time>2022-07-22T13:35:20Z</time>
      </trkpt>
      <trkpt lat="46.8659800" lon="6.4291540">
        <ele>1152.8</ele>
        <time>2022-07-22T13:35:25Z</time>
      </trkpt>
      <trkpt lat="46.8659560" lon="6.4291700">
        <ele>1153.0</ele>
        <time>2022-07-22T13:35:27Z</time>
      </trkpt>
      <trkpt lat="46.8658780" lon="6.4292590">
        <ele>1153.6</ele>
        <time>2022-07-22T13:35:34Z</time>
      </trkpt>
      <trkpt lat="46.8658410" lon="6.4292800">
        <ele>1153.8</ele>
        <time>2022-07-22T13:35:37Z</time>
      </trkpt>
      <trkpt lat="46.8657470" lon="6.4293440">
        <ele>1154.8</ele>
        <time>2022-07-22T13:35:44Z</time>
      </trkpt>
      <trkpt lat="46.8657330" lon="6.4293480">
        <ele>1154.8</ele>
        <time>2022-07-22T13:35:45Z</time>
      </trkpt>
      <trkpt lat="46.8656330" lon="6.4293910">
        <ele>1155.4</ele>
        <time>2022-07-22T13:35:53Z</time>
      </trkpt>
      <trkpt lat="46.8655850" lon="6.4294050">
        <ele>1155.8</ele>
        <time>2022-07-22T13:35:57Z</time>
      </trkpt>
      <trkpt lat="46.8655250" lon="6.4294200">
        <ele>1156.6</ele>
        <time>2022-07-22T13:36:02Z</time>
      </trkpt>
      <trkpt lat="46.8654900" lon="6.4294280">
        <ele>1156.8</ele>
        <time>2022-07-22T13:36:05Z</time>
      </trkpt>
      <trkpt lat="46.8654170" lon="6.4294370">
        <ele>1157.4</ele>
        <time>2022-07-22T13:36:11Z</time>
      </trkpt>
      <trkpt lat="46.8653700" lon="6.4294680">
        <ele>1157.8</ele>
        <time>2022-07-22T13:36:16Z</time>
      </trkpt>
      <trkpt lat="46.8653480" lon="6.4294940">
        <ele>1158.0</ele>
        <time>2022-07-22T13:36:18Z</time>
      </trkpt>
      <trkpt lat="46.8652970" lon="6.4295580">
        <ele>1158.6</ele>
        <time>2022-07-22T13:36:24Z</time>
      </trkpt>
      <trkpt lat="46.8652460" lon="6.4295930">
        <ele>1159.0</ele>
        <time>2022-07-22T13:36:28Z</time>
      </trkpt>
      <trkpt lat="46.8652230" lon="6.4296100">
        <ele>1159.4</ele>
        <time>2022-07-22T13:36:30Z</time>
      </trkpt>
      <trkpt lat="46.8651800" lon="6.4296790">
        <ele>1160.2</ele>
        <time>2022-07-22T13:36:36Z</time>
      </trkpt>
      <trkpt lat="46.8651420" lon="6.4297120">
        <ele>1160.8</ele>
        <time>2022-07-22T13:36:41Z</time>
      </trkpt>
      <trkpt lat="46.8651320" lon="6.4297220">
        <ele>1161.0</ele>
        <time>2022-07-22T13:36:42Z</time>
      </trkpt>
      <trkpt lat="46.8651180" lon="6.4297340">
        <ele>1161.2</ele>
        <time>2022-07-22T13:36:44Z</time>
      </trkpt>
      <trkpt lat="46.8650610" lon="6.4297770">
        <ele>1162.0</ele>
        <time>2022-07-22T13:36:51Z</time>
      </trkpt>
      <trkpt lat="46.8650350" lon="6.4297800">
        <ele>1162.0</ele>
        <time>2022-07-22T13:36:53Z</time>
      </trkpt>
      <trkpt lat="46.8649360" lon="6.4297930">
        <ele>1163.0</ele>
        <time>2022-07-22T13:37:00Z</time>
      </trkpt>
      <trkpt lat="46.8648570" lon="6.4298110">
        <ele>1163.2</ele>
        <time>2022-07-22T13:37:05Z</time>
      </trkpt>
      <trkpt lat="46.8648280" lon="6.4298230">
        <ele>1163.6</ele>
        <time>2022-07-22T13:37:07Z</time>
      </trkpt>
      <trkpt lat="46.8647480" lon="6.4298660">
        <ele>1164.0</ele>
        <time>2022-07-22T13:37:13Z</time>
      </trkpt>
      <trkpt lat="46.8647000" lon="6.4298880">
        <ele>1164.2</ele>
        <time>2022-07-22T13:37:16Z</time>
      </trkpt>
      <trkpt lat="46.8646400" lon="6.4299040">
        <ele>1164.6</ele>
        <time>2022-07-22T13:37:20Z</time>
      </trkpt>
      <trkpt lat="46.8646350" lon="6.4299090">
        <ele>1164.6</ele>
        <time>2022-07-22T13:37:22Z</time>
      </trkpt>
      <trkpt lat="46.8644730" lon="6.4299510">
        <ele>1165.2</ele>
        <time>2022-07-22T13:38:06Z</time>
      </trkpt>
      <trkpt lat="46.8644540" lon="6.4299470">
        <ele>1165.2</ele>
        <time>2022-07-22T13:38:07Z</time>
      </trkpt>
      <trkpt lat="46.8643170" lon="6.4298700">
        <ele>1165.2</ele>
        <time>2022-07-22T13:38:13Z</time>
      </trkpt>
      <trkpt lat="46.8641470" lon="6.4297620">
        <ele>1164.6</ele>
        <time>2022-07-22T13:38:20Z</time>
      </trkpt>
      <trkpt lat="46.8640390" lon="6.4297220">
        <ele>1164.2</ele>
        <time>2022-07-22T13:38:24Z</time>
      </trkpt>
      <trkpt lat="46.8639620" lon="6.4296910">
        <ele>1164.2</ele>
        <time>2022-07-22T13:38:27Z</time>
      </trkpt>
      <trkpt lat="46.8637200" lon="6.4296100">
        <ele>1163.6</ele>
        <time>2022-07-22T13:38:36Z</time>
      </trkpt>
      <trkpt lat="46.8635490" lon="6.4295480">
        <ele>1163.4</ele>
        <time>2022-07-22T13:38:44Z</time>
      </trkpt>
      <trkpt lat="46.8634600" lon="6.4294560">
        <ele>1163.8</ele>
        <time>2022-07-22T13:38:51Z</time>
      </trkpt>
      <trkpt lat="46.8634000" lon="6.4293170">
        <ele>1164.6</ele>
        <time>2022-07-22T13:38:58Z</time>
      </trkpt>
      <trkpt lat="46.8633440" lon="6.4292130">
        <ele>1165.2</ele>
        <time>2022-07-22T13:39:05Z</time>
      </trkpt>
      <trkpt lat="46.8633340" lon="6.4291950">
        <ele>1165.4</ele>
        <time>2022-07-22T13:39:06Z</time>
      </trkpt>
      <trkpt lat="46.8632890" lon="6.4290950">
        <ele>1166.2</ele>
        <time>2022-07-22T13:39:12Z</time>
      </trkpt>
      <trkpt lat="46.8632680" lon="6.4290720">
        <ele>1166.4</ele>
        <time>2022-07-22T13:39:14Z</time>
      </trkpt>
      <trkpt lat="46.8631980" lon="6.4290150">
        <ele>1166.8</ele>
        <time>2022-07-22T13:39:19Z</time>
      </trkpt>
      <trkpt lat="46.8630780" lon="6.4289570">
        <ele>1167.0</ele>
        <time>2022-07-22T13:39:26Z</time>
      </trkpt>
      <trkpt lat="46.8629640" lon="6.4288650">
        <ele>1167.2</ele>
        <time>2022-07-22T13:39:33Z</time>
      </trkpt>
      <trkpt lat="46.8627740" lon="6.4287620">
        <ele>1167.4</ele>
        <time>2022-07-22T13:39:42Z</time>
      </trkpt>
      <trkpt lat="46.8626070" lon="6.4287090">
        <ele>1167.2</ele>
        <time>2022-07-22T13:39:48Z</time>
      </trkpt>
      <trkpt lat="46.8623950" lon="6.4287020">
        <ele>1166.4</ele>
        <time>2022-07-22T13:39:55Z</time>
      </trkpt>
      <trkpt lat="46.8623600" lon="6.4286960">
        <ele>1166.0</ele>
        <time>2022-07-22T13:40:01Z</time>
      </trkpt>
      <trkpt lat="46.8623050" lon="6.4286630">
        <ele>1165.6</ele>
        <time>2022-07-22T13:40:09Z</time>
      </trkpt>
      <trkpt lat="46.8622990" lon="6.4286580">
        <ele>1165.6</ele>
        <time>2022-07-22T13:40:12Z</time>
      </trkpt>
      <trkpt lat="46.8622210" lon="6.4287090">
        <ele>1165.8</ele>
        <time>2022-07-22T13:40:22Z</time>
      </trkpt>
      <trkpt lat="46.8621880" lon="6.4287470">
        <ele>1165.8</ele>
        <time>2022-07-22T13:40:24Z</time>
      </trkpt>
      <trkpt lat="46.8620110" lon="6.4288390">
        <ele>1165.8</ele>
        <time>2022-07-22T13:40:31Z</time>
      </trkpt>
      <trkpt lat="46.8617560" lon="6.4288940">
        <ele>1165.8</ele>
        <time>2022-07-22T13:40:40Z</time>
      </trkpt>
      <trkpt lat="46.8615640" lon="6.4289540">
        <ele>1165.8</ele>
        <time>2022-07-22T13:40:48Z</time>
      </trkpt>
      <trkpt lat="46.8614420" lon="6.4290500">
        <ele>1166.2</ele>
        <time>2022-07-22T13:40:55Z</time>
      </trkpt>
      <trkpt lat="46.8613590" lon="6.4291300">
        <ele>1167.0</ele>
        <time>2022-07-22T13:41:00Z</time>
      </trkpt>
      <trkpt lat="46.8613220" lon="6.4291730">
        <ele>1167.4</ele>
        <time>2022-07-22T13:41:02Z</time>
      </trkpt>
      <trkpt lat="46.8611610" lon="6.4293420">
        <ele>1167.8</ele>
        <time>2022-07-22T13:41:09Z</time>
      </trkpt>
      <trkpt lat="46.8609670" lon="6.4294470">
        <ele>1167.8</ele>
        <time>2022-07-22T13:41:15Z</time>
      </trkpt>
      <trkpt lat="46.8608580" lon="6.4293490">
        <ele>1167.6</ele>
        <time>2022-07-22T13:41:19Z</time>
      </trkpt>
      <trkpt lat="46.8608480" lon="6.4293220">
        <ele>1167.6</ele>
        <time>2022-07-22T13:41:20Z</time>
      </trkpt>
      <trkpt lat="46.8608180" lon="6.4291530">
        <ele>1167.6</ele>
        <time>2022-07-22T13:41:26Z</time>
      </trkpt>
      <trkpt lat="46.8608430" lon="6.4290190">
        <ele>1168.0</ele>
        <time>2022-07-22T13:41:32Z</time>
      </trkpt>
      <trkpt lat="46.8608450" lon="6.4290010">
        <ele>1168.2</ele>
        <time>2022-07-22T13:41:33Z</time>
      </trkpt>
      <trkpt lat="46.8608690" lon="6.4289170">
        <ele>1169.2</ele>
        <time>2022-07-22T13:41:39Z</time>
      </trkpt>
      <trkpt lat="46.8608920" lon="6.4288270">
        <ele>1170.2</ele>
        <time>2022-07-22T13:41:45Z</time>
      </trkpt>
      <trkpt lat="46.8608930" lon="6.4287940">
        <ele>1170.6</ele>
        <time>2022-07-22T13:41:47Z</time>
      </trkpt>
      <trkpt lat="46.8609020" lon="6.4287350">
        <ele>1171.4</ele>
        <time>2022-07-22T13:41:51Z</time>
      </trkpt>
      <trkpt lat="46.8609150" lon="6.4286680">
        <ele>1171.8</ele>
        <time>2022-07-22T13:41:55Z</time>
      </trkpt>
      <trkpt lat="46.8609200" lon="6.4286540">
        <ele>1171.8</ele>
        <time>2022-07-22T13:41:56Z</time>
      </trkpt>
      <trkpt lat="46.8609400" lon="6.4286140">
        <ele>1172.2</ele>
        <time>2022-07-22T13:41:59Z</time>
      </trkpt>
      <trkpt lat="46.8609670" lon="6.4285570">
        <ele>1172.6</ele>
        <time>2022-07-22T13:42:03Z</time>
      </trkpt>
      <trkpt lat="46.8609970" lon="6.4285240">
        <ele>1173.2</ele>
        <time>2022-07-22T13:42:06Z</time>
      </trkpt>
      <trkpt lat="46.8610440" lon="6.4284270">
        <ele>1174.2</ele>
        <time>2022-07-22T13:42:12Z</time>
      </trkpt>
      <trkpt lat="46.8610530" lon="6.4284100">
        <ele>1174.2</ele>
        <time>2022-07-22T13:42:13Z</time>
      </trkpt>
      <trkpt lat="46.8610900" lon="6.4282890">
        <ele>1174.8</ele>
        <time>2022-07-22T13:42:20Z</time>
      </trkpt>
      <trkpt lat="46.8611140" lon="6.4281910">
        <ele>1175.2</ele>
        <time>2022-07-22T13:42:25Z</time>
      </trkpt>
      <trkpt lat="46.8611120" lon="6.4281270">
        <ele>1175.4</ele>
        <time>2022-07-22T13:42:28Z</time>
      </trkpt>
      <trkpt lat="46.8611070" lon="6.4281050">
        <ele>1175.4</ele>
        <time>2022-07-22T13:42:29Z</time>
      </trkpt>
      <trkpt lat="46.8610590" lon="6.4280060">
        <ele>1175.6</ele>
        <time>2022-07-22T13:42:35Z</time>
      </trkpt>
      <trkpt lat="46.8609920" lon="6.4279820">
        <ele>1176.2</ele>
        <time>2022-07-22T13:42:40Z</time>
      </trkpt>
      <trkpt lat="46.8609770" lon="6.4279850">
        <ele>1176.4</ele>
        <time>2022-07-22T13:42:41Z</time>
      </trkpt>
      <trkpt lat="46.8609600" lon="6.4279890">
        <ele>1176.6</ele>
        <time>2022-07-22T13:42:42Z</time>
      </trkpt>
      <trkpt lat="46.8609020" lon="6.4280220">
        <ele>1177.6</ele>
        <time>2022-07-22T13:42:46Z</time>
      </trkpt>
      <trkpt lat="46.8608490" lon="6.4280640">
        <ele>1178.0</ele>
        <time>2022-07-22T13:42:50Z</time>
      </trkpt>
      <trkpt lat="46.8608040" lon="6.4281190">
        <ele>1178.4</ele>
        <time>2022-07-22T13:42:54Z</time>
      </trkpt>
      <trkpt lat="46.8607810" lon="6.4281430">
        <ele>1178.8</ele>
        <time>2022-07-22T13:42:56Z</time>
      </trkpt>
      <trkpt lat="46.8607100" lon="6.4282400">
        <ele>1179.6</ele>
        <time>2022-07-22T13:43:03Z</time>
      </trkpt>
      <trkpt lat="46.8606890" lon="6.4282700">
        <ele>1179.8</ele>
        <time>2022-07-22T13:43:05Z</time>
      </trkpt>
      <trkpt lat="46.8606170" lon="6.4283560">
        <ele>1180.2</ele>
        <time>2022-07-22T13:43:11Z</time>
      </trkpt>
      <trkpt lat="46.8605700" lon="6.4284130">
        <ele>1180.6</ele>
        <time>2022-07-22T13:43:15Z</time>
      </trkpt>
      <trkpt lat="46.8605260" lon="6.4284650">
        <ele>1180.8</ele>
        <time>2022-07-22T13:43:19Z</time>
      </trkpt>
      <trkpt lat="46.8604530" lon="6.4285160">
        <ele>1181.8</ele>
        <time>2022-07-22T13:43:25Z</time>
      </trkpt>
      <trkpt lat="46.8604000" lon="6.4285400">
        <ele>1182.6</ele>
        <time>2022-07-22T13:43:29Z</time>
      </trkpt>
      <trkpt lat="46.8603720" lon="6.4285400">
        <ele>1182.8</ele>
        <time>2022-07-22T13:43:31Z</time>
      </trkpt>
      <trkpt lat="46.8603130" lon="6.4284990">
        <ele>1184.0</ele>
        <time>2022-07-22T13:43:35Z</time>
      </trkpt>
      <trkpt lat="46.8602170" lon="6.4284120">
        <ele>1185.0</ele>
        <time>2022-07-22T13:43:41Z</time>
      </trkpt>
      <trkpt lat="46.8602050" lon="6.4283930">
        <ele>1185.2</ele>
        <time>2022-07-22T13:43:42Z</time>
      </trkpt>
      <trkpt lat="46.8600920" lon="6.4281850">
        <ele>1185.6</ele>
        <time>2022-07-22T13:43:50Z</time>
      </trkpt>
      <trkpt lat="46.8599680" lon="6.4279740">
        <ele>1185.6</ele>
        <time>2022-07-22T13:43:55Z</time>
      </trkpt>
      <trkpt lat="46.8598230" lon="6.4278630">
        <ele>1185.6</ele>
        <time>2022-07-22T13:43:59Z</time>
      </trkpt>
      <trkpt lat="46.8597730" lon="6.4278320">
        <ele>1184.8</ele>
        <time>2022-07-22T13:44:02Z</time>
      </trkpt>
      <trkpt lat="46.8597710" lon="6.4278300">
        <ele>1184.8</ele>
        <time>2022-07-22T13:44:03Z</time>
      </trkpt>
      <trkpt lat="46.8595660" lon="6.4279060">
        <ele>1184.4</ele>
        <time>2022-07-22T13:47:11Z</time>
      </trkpt>
      <trkpt lat="46.8595190" lon="6.4278760">
        <ele>1184.4</ele>
        <time>2022-07-22T13:47:14Z</time>
      </trkpt>
      <trkpt lat="46.8593820" lon="6.4277960">
        <ele>1184.4</ele>
        <time>2022-07-22T13:47:20Z</time>
      </trkpt>
      <trkpt lat="46.8591680" lon="6.4276960">
        <ele>1184.2</ele>
        <time>2022-07-22T13:47:27Z</time>
      </trkpt>
      <trkpt lat="46.8590110" lon="6.4276720">
        <ele>1183.8</ele>
        <time>2022-07-22T13:47:31Z</time>
      </trkpt>
      <trkpt lat="46.8589280" lon="6.4276940">
        <ele>1183.4</ele>
        <time>2022-07-22T13:47:33Z</time>
      </trkpt>
      <trkpt lat="46.8588360" lon="6.4277430">
        <ele>1182.8</ele>
        <time>2022-07-22T13:47:35Z</time>
      </trkpt>
      <trkpt lat="46.8587190" lon="6.4277970">
        <ele>1182.2</ele>
        <time>2022-07-22T13:47:37Z</time>
      </trkpt>
      <trkpt lat="46.8585360" lon="6.4278580">
        <ele>1181.0</ele>
        <time>2022-07-22T13:47:40Z</time>
      </trkpt>
      <trkpt lat="46.8584810" lon="6.4278880">
        <ele>1180.6</ele>
        <time>2022-07-22T13:47:41Z</time>
      </trkpt>
      <trkpt lat="46.8583410" lon="6.4279690">
        <ele>1179.6</ele>
        <time>2022-07-22T13:47:44Z</time>
      </trkpt>
      <trkpt lat="46.8582590" lon="6.4280070">
        <ele>1179.0</ele>
        <time>2022-07-22T13:47:46Z</time>
      </trkpt>
      <trkpt lat="46.8580990" lon="6.4280000">
        <ele>1178.8</ele>
        <time>2022-07-22T13:47:50Z</time>
      </trkpt>
      <trkpt lat="46.8580590" lon="6.4279800">
        <ele>1178.8</ele>
        <time>2022-07-22T13:47:51Z</time>
      </trkpt>
      <trkpt lat="46.8579100" lon="6.4279140">
        <ele>1178.6</ele>
        <time>2022-07-22T13:47:54Z</time>
      </trkpt>
      <trkpt lat="46.8577860" lon="6.4279130">
        <ele>1178.6</ele>
        <time>2022-07-22T13:47:56Z</time>
      </trkpt>
      <trkpt lat="46.8576190" lon="6.4279990">
        <ele>1178.6</ele>
        <time>2022-07-22T13:47:59Z</time>
      </trkpt>
      <trkpt lat="46.8575730" lon="6.4280530">
        <ele>1178.4</ele>
        <time>2022-07-22T13:48:00Z</time>
      </trkpt>
      <trkpt lat="46.8575240" lon="6.4281070">
        <ele>1178.0</ele>
        <time>2022-07-22T13:48:01Z</time>
      </trkpt>
      <trkpt lat="46.8574230" lon="6.4282160">
        <ele>1177.0</ele>
        <time>2022-07-22T13:48:03Z</time>
      </trkpt>
      <trkpt lat="46.8573290" lon="6.4282810">
        <ele>1175.6</ele>
        <time>2022-07-22T13:48:05Z</time>
      </trkpt>
      <trkpt lat="46.8572880" lon="6.4283060">
        <ele>1174.8</ele>
        <time>2022-07-22T13:48:06Z</time>
      </trkpt>
      <trkpt lat="46.8572540" lon="6.4283320">
        <ele>1174.6</ele>
        <time>2022-07-22T13:48:07Z</time>
      </trkpt>
      <trkpt lat="46.8571810" lon="6.4283700">
        <ele>1174.4</ele>
        <time>2022-07-22T13:48:09Z</time>
      </trkpt>
      <trkpt lat="46.8570040" lon="6.4285390">
        <ele>1174.2</ele>
        <time>2022-07-22T13:48:14Z</time>
      </trkpt>
      <trkpt lat="46.8569730" lon="6.4285930">
        <ele>1174.0</ele>
        <time>2022-07-22T13:48:15Z</time>
      </trkpt>
      <trkpt lat="46.8569350" lon="6.4286410">
        <ele>1174.0</ele>
        <time>2022-07-22T13:48:16Z</time>
      </trkpt>
      <trkpt lat="46.8567360" lon="6.4289010">
        <ele>1174.0</ele>
        <time>2022-07-22T13:48:21Z</time>
      </trkpt>
      <trkpt lat="46.8565430" lon="6.4291000">
        <ele>1173.4</ele>
        <time>2022-07-22T13:48:25Z</time>
      </trkpt>
      <trkpt lat="46.8564970" lon="6.4291300">
        <ele>1173.2</ele>
        <time>2022-07-22T13:48:26Z</time>
      </trkpt>
      <trkpt lat="46.8563720" lon="6.4291100">
        <ele>1172.8</ele>
        <time>2022-07-22T13:48:29Z</time>
      </trkpt>
      <trkpt lat="46.8562780" lon="6.4290230">
        <ele>1172.0</ele>
        <time>2022-07-22T13:48:32Z</time>
      </trkpt>
      <trkpt lat="46.8562470" lon="6.4289860">
        <ele>1171.4</ele>
        <time>2022-07-22T13:48:33Z</time>
      </trkpt>
      <trkpt lat="46.8562160" lon="6.4289440">
        <ele>1171.0</ele>
        <time>2022-07-22T13:48:34Z</time>
      </trkpt>
      <trkpt lat="46.8561810" lon="6.4289060">
        <ele>1170.8</ele>
        <time>2022-07-22T13:48:35Z</time>
      </trkpt>
      <trkpt lat="46.8560250" lon="6.4287850">
        <ele>1170.6</ele>
        <time>2022-07-22T13:48:39Z</time>
      </trkpt>
      <trkpt lat="46.8558440" lon="6.4286480">
        <ele>1169.6</ele>
        <time>2022-07-22T13:48:44Z</time>
      </trkpt>
      <trkpt lat="46.8557380" lon="6.4285660">
        <ele>1169.2</ele>
        <time>2022-07-22T13:48:47Z</time>
      </trkpt>
      <trkpt lat="46.8554960" lon="6.4283910">
        <ele>1168.6</ele>
        <time>2022-07-22T13:48:54Z</time>
      </trkpt>
      <trkpt lat="46.8553980" lon="6.4283200">
        <ele>1168.6</ele>
        <time>2022-07-22T13:48:57Z</time>
      </trkpt>
      <trkpt lat="46.8551400" lon="6.4281190">
        <ele>1168.4</ele>
        <time>2022-07-22T13:49:04Z</time>
      </trkpt>
      <trkpt lat="46.8548220" lon="6.4278700">
        <ele>1167.4</ele>
        <time>2022-07-22T13:49:11Z</time>
      </trkpt>
      <trkpt lat="46.8547780" lon="6.4278360">
        <ele>1167.2</ele>
        <time>2022-07-22T13:49:12Z</time>
      </trkpt>
      <trkpt lat="46.8546090" lon="6.4276990">
        <ele>1166.6</ele>
        <time>2022-07-22T13:49:16Z</time>
      </trkpt>
      <trkpt lat="46.8544690" lon="6.4275790">
        <ele>1166.2</ele>
        <time>2022-07-22T13:49:20Z</time>
      </trkpt>
      <trkpt lat="46.8542060" lon="6.4273830">
        <ele>1165.6</ele>
        <time>2022-07-22T13:49:27Z</time>
      </trkpt>
      <trkpt lat="46.8541580" lon="6.4273420">
        <ele>1165.6</ele>
        <time>2022-07-22T13:49:28Z</time>
      </trkpt>
      <trkpt lat="46.8539170" lon="6.4271720">
        <ele>1165.4</ele>
        <time>2022-07-22T13:49:32Z</time>
      </trkpt>
      <trkpt lat="46.8538500" lon="6.4271400">
        <ele>1165.4</ele>
        <time>2022-07-22T13:49:33Z</time>
      </trkpt>
      <trkpt lat="46.8537060" lon="6.4271000">
        <ele>1164.4</ele>
        <time>2022-07-22T13:49:35Z</time>
      </trkpt>
      <trkpt lat="46.8536300" lon="6.4270900">
        <ele>1163.8</ele>
        <time>2022-07-22T13:49:36Z</time>
      </trkpt>
      <trkpt lat="46.8535510" lon="6.4270850">
        <ele>1163.0</ele>
        <time>2022-07-22T13:49:37Z</time>
      </trkpt>
      <trkpt lat="46.8533860" lon="6.4270860">
        <ele>1162.0</ele>
        <time>2022-07-22T13:49:39Z</time>
      </trkpt>
      <trkpt lat="46.8532160" lon="6.4270830">
        <ele>1160.6</ele>
        <time>2022-07-22T13:49:41Z</time>
      </trkpt>
      <trkpt lat="46.8531340" lon="6.4270770">
        <ele>1160.2</ele>
        <time>2022-07-22T13:49:42Z</time>
      </trkpt>
      <trkpt lat="46.8529860" lon="6.4270620">
        <ele>1159.2</ele>
        <time>2022-07-22T13:49:44Z</time>
      </trkpt>
      <trkpt lat="46.8528560" lon="6.4270440">
        <ele>1158.2</ele>
        <time>2022-07-22T13:49:46Z</time>
      </trkpt>
      <trkpt lat="46.8527990" lon="6.4270350">
        <ele>1157.8</ele>
        <time>2022-07-22T13:49:47Z</time>
      </trkpt>
      <trkpt lat="46.8527060" lon="6.4270170">
        <ele>1157.0</ele>
        <time>2022-07-22T13:49:49Z</time>
      </trkpt>
      <trkpt lat="46.8526210" lon="6.4269980">
        <ele>1156.2</ele>
        <time>2022-07-22T13:49:51Z</time>
      </trkpt>
      <trkpt lat="46.8525760" lon="6.4269970">
        <ele>1156.0</ele>
        <time>2022-07-22T13:49:52Z</time>
      </trkpt>
      <trkpt lat="46.8523360" lon="6.4270280">
        <ele>1155.2</ele>
        <time>2022-07-22T13:49:57Z</time>
      </trkpt>
      <trkpt lat="46.8522370" lon="6.4270730">
        <ele>1154.8</ele>
        <time>2022-07-22T13:49:59Z</time>
      </trkpt>
      <trkpt lat="46.8520570" lon="6.4271820">
        <ele>1154.0</ele>
        <time>2022-07-22T13:50:03Z</time>
      </trkpt>
      <trkpt lat="46.8520190" lon="6.4271980">
        <ele>1153.6</ele>
        <time>2022-07-22T13:50:04Z</time>
      </trkpt>
      <trkpt lat="46.8519350" lon="6.4271840">
        <ele>1153.2</ele>
        <time>2022-07-22T13:50:07Z</time>
      </trkpt>
      <trkpt lat="46.8518960" lon="6.4271070">
        <ele>1153.2</ele>
        <time>2022-07-22T13:50:10Z</time>
      </trkpt>
      <trkpt lat="46.8518870" lon="6.4270740">
        <ele>1153.2</ele>
        <time>2022-07-22T13:50:11Z</time>
      </trkpt>
      <trkpt lat="46.8518350" lon="6.4268160">
        <ele>1153.4</ele>
        <time>2022-07-22T13:50:18Z</time>
      </trkpt>
      <trkpt lat="46.8518050" lon="6.4266540">
        <ele>1154.8</ele>
        <time>2022-07-22T13:50:24Z</time>
      </trkpt>
      <trkpt lat="46.8517940" lon="6.4266020">
        <ele>1154.8</ele>
        <time>2022-07-22T13:50:26Z</time>
      </trkpt>
      <trkpt lat="46.8517680" lon="6.4264350">
        <ele>1155.6</ele>
        <time>2022-07-22T13:50:33Z</time>
      </trkpt>
      <trkpt lat="46.8517130" lon="6.4262920">
        <ele>1156.4</ele>
        <time>2022-07-22T13:50:40Z</time>
      </trkpt>
      <trkpt lat="46.8516960" lon="6.4262450">
        <ele>1156.8</ele>
        <time>2022-07-22T13:50:42Z</time>
      </trkpt>
      <trkpt lat="46.8516330" lon="6.4261030">
        <ele>1157.6</ele>
        <time>2022-07-22T13:50:48Z</time>
      </trkpt>
      <trkpt lat="46.8516080" lon="6.4260540">
        <ele>1157.8</ele>
        <time>2022-07-22T13:50:50Z</time>
      </trkpt>
      <trkpt lat="46.8515550" lon="6.4258870">
        <ele>1158.2</ele>
        <time>2022-07-22T13:50:56Z</time>
      </trkpt>
      <trkpt lat="46.8515190" lon="6.4257470">
        <ele>1158.6</ele>
        <time>2022-07-22T13:51:01Z</time>
      </trkpt>
      <trkpt lat="46.8514960" lon="6.4256600">
        <ele>1158.8</ele>
        <time>2022-07-22T13:51:04Z</time>
      </trkpt>
      <trkpt lat="46.8514410" lon="6.4254400">
        <ele>1159.2</ele>
        <time>2022-07-22T13:51:12Z</time>
      </trkpt>
      <trkpt lat="46.8513930" lon="6.4251890">
        <ele>1159.6</ele>
        <time>2022-07-22T13:51:21Z</time>
      </trkpt>
      <trkpt lat="46.8513620" lon="6.4250720">
        <ele>1159.6</ele>
        <time>2022-07-22T13:51:25Z</time>
      </trkpt>
      <trkpt lat="46.8513340" lon="6.4249320">
        <ele>1159.8</ele>
        <time>2022-07-22T13:51:29Z</time>
      </trkpt>
      <trkpt lat="46.8512760" lon="6.4246470">
        <ele>1160.2</ele>
        <time>2022-07-22T13:51:36Z</time>
      </trkpt>
      <trkpt lat="46.8512010" lon="6.4243930">
        <ele>1160.2</ele>
        <time>2022-07-22T13:51:41Z</time>
      </trkpt>
      <trkpt lat="46.8511760" lon="6.4243410">
        <ele>1160.2</ele>
        <time>2022-07-22T13:51:42Z</time>
      </trkpt>
      <trkpt lat="46.8509760" lon="6.4240450">
        <ele>1159.8</ele>
        <time>2022-07-22T13:51:48Z</time>
      </trkpt>
      <trkpt lat="46.8506960" lon="6.4237030">
        <ele>1158.6</ele>
        <time>2022-07-22T13:51:55Z</time>
      </trkpt>
      <trkpt lat="46.8506460" lon="6.4236710">
        <ele>1158.6</ele>
        <time>2022-07-22T13:51:56Z</time>
      </trkpt>
      <trkpt lat="46.8504920" lon="6.4236110">
        <ele>1157.2</ele>
        <time>2022-07-22T13:51:59Z</time>
      </trkpt>
      <trkpt lat="46.8503780" lon="6.4235760">
        <ele>1156.6</ele>
        <time>2022-07-22T13:52:01Z</time>
      </trkpt>
      <trkpt lat="46.8503200" lon="6.4235510">
        <ele>1156.0</ele>
        <time>2022-07-22T13:52:02Z</time>
      </trkpt>
      <trkpt lat="46.8501580" lon="6.4234580">
        <ele>1154.8</ele>
        <time>2022-07-22T13:52:05Z</time>
      </trkpt>
      <trkpt lat="46.8500570" lon="6.4233790">
        <ele>1154.2</ele>
        <time>2022-07-22T13:52:07Z</time>
      </trkpt>
      <trkpt lat="46.8500060" lon="6.4233380">
        <ele>1153.8</ele>
        <time>2022-07-22T13:52:08Z</time>
      </trkpt>
      <trkpt lat="46.8498680" lon="6.4232070">
        <ele>1152.8</ele>
        <time>2022-07-22T13:52:11Z</time>
      </trkpt>
      <trkpt lat="46.8497800" lon="6.4231000">
        <ele>1151.8</ele>
        <time>2022-07-22T13:52:13Z</time>
      </trkpt>
      <trkpt lat="46.8497380" lon="6.4230380">
        <ele>1151.2</ele>
        <time>2022-07-22T13:52:14Z</time>
      </trkpt>
      <trkpt lat="46.8496120" lon="6.4227990">
        <ele>1149.8</ele>
        <time>2022-07-22T13:52:17Z</time>
      </trkpt>
      <trkpt lat="46.8495720" lon="6.4227070">
        <ele>1149.6</ele>
        <time>2022-07-22T13:52:18Z</time>
      </trkpt>
      <trkpt lat="46.8494310" lon="6.4223690">
        <ele>1148.8</ele>
        <time>2022-07-22T13:52:22Z</time>
      </trkpt>
      <trkpt lat="46.8494000" lon="6.4222860">
        <ele>1148.4</ele>
        <time>2022-07-22T13:52:23Z</time>
      </trkpt>
      <trkpt lat="46.8493350" lon="6.4221100">
        <ele>1147.6</ele>
        <time>2022-07-22T13:52:25Z</time>
      </trkpt>
      <trkpt lat="46.8493010" lon="6.4220280">
        <ele>1147.4</ele>
        <time>2022-07-22T13:52:26Z</time>
      </trkpt>
      <trkpt lat="46.8492190" lon="6.4218860">
        <ele>1145.8</ele>
        <time>2022-07-22T13:52:28Z</time>
      </trkpt>
      <trkpt lat="46.8491080" lon="6.4217690">
        <ele>1144.6</ele>
        <time>2022-07-22T13:52:30Z</time>
      </trkpt>
      <trkpt lat="46.8490430" lon="6.4217180">
        <ele>1144.0</ele>
        <time>2022-07-22T13:52:31Z</time>
      </trkpt>
      <trkpt lat="46.8489740" lon="6.4216670">
        <ele>1143.6</ele>
        <time>2022-07-22T13:52:32Z</time>
      </trkpt>
      <trkpt lat="46.8487810" lon="6.4215050">
        <ele>1142.2</ele>
        <time>2022-07-22T13:52:35Z</time>
      </trkpt>
      <trkpt lat="46.8486160" lon="6.4213450">
        <ele>1140.8</ele>
        <time>2022-07-22T13:52:38Z</time>
      </trkpt>
      <trkpt lat="46.8485110" lon="6.4212300">
        <ele>1139.4</ele>
        <time>2022-07-22T13:52:41Z</time>
      </trkpt>
      <trkpt lat="46.8484910" lon="6.4212090">
        <ele>1139.0</ele>
        <time>2022-07-22T13:52:42Z</time>
      </trkpt>
      <trkpt lat="46.8484760" lon="6.4211960">
        <ele>1138.2</ele>
        <time>2022-07-22T13:52:44Z</time>
      </trkpt>
      <trkpt lat="46.8484760" lon="6.4211970">
        <ele>1137.6</ele>
        <time>2022-07-22T13:52:45Z</time>
      </trkpt>
      <trkpt lat="46.8484510" lon="6.4211750">
        <ele>1134.2</ele>
        <time>2022-07-22T13:53:01Z</time>
      </trkpt>
      <trkpt lat="46.8483460" lon="6.4210620">
        <ele>1134.2</ele>
        <time>2022-07-22T13:53:06Z</time>
      </trkpt>
      <trkpt lat="46.8481670" lon="6.4208490">
        <ele>1133.8</ele>
        <time>2022-07-22T13:53:12Z</time>
      </trkpt>
      <trkpt lat="46.8480780" lon="6.4207190">
        <ele>1133.0</ele>
        <time>2022-07-22T13:53:15Z</time>
      </trkpt>
      <trkpt lat="46.8479730" lon="6.4205540">
        <ele>1132.2</ele>
        <time>2022-07-22T13:53:19Z</time>
      </trkpt>
      <trkpt lat="46.8479500" lon="6.4205140">
        <ele>1131.8</ele>
        <time>2022-07-22T13:53:20Z</time>
      </trkpt>
      <trkpt lat="46.8478130" lon="6.4202790">
        <ele>1130.8</ele>
        <time>2022-07-22T13:53:26Z</time>
      </trkpt>
      <trkpt lat="46.8477920" lon="6.4202450">
        <ele>1130.0</ele>
        <time>2022-07-22T13:53:27Z</time>
      </trkpt>
      <trkpt lat="46.8477710" lon="6.4202110">
        <ele>1129.6</ele>
        <time>2022-07-22T13:53:28Z</time>
      </trkpt>
      <trkpt lat="46.8476590" lon="6.4200470">
        <ele>1128.8</ele>
        <time>2022-07-22T13:53:34Z</time>
      </trkpt>
      <trkpt lat="46.8476450" lon="6.4200260">
        <ele>1128.8</ele>
        <time>2022-07-22T13:53:35Z</time>
      </trkpt>
      <trkpt lat="46.8475730" lon="6.4200000">
        <ele>1127.8</ele>
        <time>2022-07-22T13:53:40Z</time>
      </trkpt>
      <trkpt lat="46.8475710" lon="6.4199990">
        <ele>1127.6</ele>
        <time>2022-07-22T13:53:42Z</time>
      </trkpt>
      <trkpt lat="46.8475590" lon="6.4199220">
        <ele>1127.2</ele>
        <time>2022-07-22T13:53:53Z</time>
      </trkpt>
      <trkpt lat="46.8475390" lon="6.4198700">
        <ele>1127.2</ele>
        <time>2022-07-22T13:53:55Z</time>
      </trkpt>
      <trkpt lat="46.8474100" lon="6.4196460">
        <ele>1127.0</ele>
        <time>2022-07-22T13:54:02Z</time>
      </trkpt>
      <trkpt lat="46.8473660" lon="6.4195750">
        <ele>1126.6</ele>
        <time>2022-07-22T13:54:04Z</time>
      </trkpt>
      <trkpt lat="46.8471860" lon="6.4193110">
        <ele>1126.0</ele>
        <time>2022-07-22T13:54:11Z</time>
      </trkpt>
      <trkpt lat="46.8471000" lon="6.4191910">
        <ele>1125.6</ele>
        <time>2022-07-22T13:54:14Z</time>
      </trkpt>
      <trkpt lat="46.8470090" lon="6.4190510">
        <ele>1125.0</ele>
        <time>2022-07-22T13:54:17Z</time>
      </trkpt>
      <trkpt lat="46.8469480" lon="6.4189610">
        <ele>1124.6</ele>
        <time>2022-07-22T13:54:19Z</time>
      </trkpt>
      <trkpt lat="46.8468300" lon="6.4187840">
        <ele>1123.4</ele>
        <time>2022-07-22T13:54:23Z</time>
      </trkpt>
      <trkpt lat="46.8467770" lon="6.4187020">
        <ele>1122.4</ele>
        <time>2022-07-22T13:54:25Z</time>
      </trkpt>
      <trkpt lat="46.8466870" lon="6.4185790">
        <ele>1121.2</ele>
        <time>2022-07-22T13:54:29Z</time>
      </trkpt>
      <trkpt lat="46.8466500" lon="6.4185380">
        <ele>1120.8</ele>
        <time>2022-07-22T13:54:31Z</time>
      </trkpt>
      <trkpt lat="46.8465880" lon="6.4184780">
        <ele>1120.0</ele>
        <time>2022-07-22T13:54:34Z</time>
      </trkpt>
      <trkpt lat="46.8465170" lon="6.4184190">
        <ele>1119.2</ele>
        <time>2022-07-22T13:54:37Z</time>
      </trkpt>
      <trkpt lat="46.8464580" lon="6.4183860">
        <ele>1119.0</ele>
        <time>2022-07-22T13:54:39Z</time>
      </trkpt>
      <trkpt lat="46.8462810" lon="6.4182820">
        <ele>1118.4</ele>
        <time>2022-07-22T13:54:44Z</time>
      </trkpt>
      <trkpt lat="46.8461440" lon="6.4182060">
        <ele>1117.8</ele>
        <time>2022-07-22T13:54:47Z</time>
      </trkpt>
      <trkpt lat="46.8460390" lon="6.4181360">
        <ele>1117.4</ele>
        <time>2022-07-22T13:54:49Z</time>
      </trkpt>
      <trkpt lat="46.8459310" lon="6.4180430">
        <ele>1117.0</ele>
        <time>2022-07-22T13:54:51Z</time>
      </trkpt>
      <trkpt lat="46.8458780" lon="6.4179820">
        <ele>1116.8</ele>
        <time>2022-07-22T13:54:52Z</time>
      </trkpt>
      <trkpt lat="46.8458280" lon="6.4179090">
        <ele>1116.4</ele>
        <time>2022-07-22T13:54:53Z</time>
      </trkpt>
      <trkpt lat="46.8457830" lon="6.4178260">
        <ele>1115.6</ele>
        <time>2022-07-22T13:54:54Z</time>
      </trkpt>
      <trkpt lat="46.8456670" lon="6.4175300">
        <ele>1114.8</ele>
        <time>2022-07-22T13:54:57Z</time>
      </trkpt>
      <trkpt lat="46.8455250" lon="6.4171010">
        <ele>1113.4</ele>
        <time>2022-07-22T13:55:01Z</time>
      </trkpt>
      <trkpt lat="46.8453690" lon="6.4166890">
        <ele>1112.2</ele>
        <time>2022-07-22T13:55:05Z</time>
      </trkpt>
      <trkpt lat="46.8453300" lon="6.4165920">
        <ele>1111.8</ele>
        <time>2022-07-22T13:55:06Z</time>
      </trkpt>
      <trkpt lat="46.8452480" lon="6.4164040">
        <ele>1111.0</ele>
        <time>2022-07-22T13:55:08Z</time>
      </trkpt>
      <trkpt lat="46.8451610" lon="6.4162280">
        <ele>1110.0</ele>
        <time>2022-07-22T13:55:10Z</time>
      </trkpt>
      <trkpt lat="46.8450260" lon="6.4159800">
        <ele>1109.0</ele>
        <time>2022-07-22T13:55:13Z</time>
      </trkpt>
      <trkpt lat="46.8449780" lon="6.4159040">
        <ele>1108.6</ele>
        <time>2022-07-22T13:55:14Z</time>
      </trkpt>
      <trkpt lat="46.8448480" lon="6.4156740">
        <ele>1107.4</ele>
        <time>2022-07-22T13:55:17Z</time>
      </trkpt>
      <trkpt lat="46.8447900" lon="6.4155230">
        <ele>1107.0</ele>
        <time>2022-07-22T13:55:19Z</time>
      </trkpt>
      <trkpt lat="46.8447590" lon="6.4153800">
        <ele>1106.4</ele>
        <time>2022-07-22T13:55:21Z</time>
      </trkpt>
      <trkpt lat="46.8447520" lon="6.4153150">
        <ele>1106.2</ele>
        <time>2022-07-22T13:55:22Z</time>
      </trkpt>
      <trkpt lat="46.8447470" lon="6.4152550">
        <ele>1105.6</ele>
        <time>2022-07-22T13:55:23Z</time>
      </trkpt>
      <trkpt lat="46.8447430" lon="6.4152030">
        <ele>1105.2</ele>
        <time>2022-07-22T13:55:24Z</time>
      </trkpt>
      <trkpt lat="46.8447380" lon="6.4150650">
        <ele>1104.0</ele>
        <time>2022-07-22T13:55:27Z</time>
      </trkpt>
      <trkpt lat="46.8447350" lon="6.4149790">
        <ele>1103.0</ele>
        <time>2022-07-22T13:55:29Z</time>
      </trkpt>
      <trkpt lat="46.8447330" lon="6.4149390">
        <ele>1102.8</ele>
        <time>2022-07-22T13:55:30Z</time>
      </trkpt>
      <trkpt lat="46.8446980" lon="6.4148170">
        <ele>1102.2</ele>
        <time>2022-07-22T13:55:35Z</time>
      </trkpt>
      <trkpt lat="46.8446990" lon="6.4148200">
        <ele>1102.2</ele>
        <time>2022-07-22T13:55:37Z</time>
      </trkpt>
      <trkpt lat="46.8446460" lon="6.4149480">
        <ele>1103.2</ele>
        <time>2022-07-22T15:03:35Z</time>
      </trkpt>
      <trkpt lat="46.8446640" lon="6.4149190">
        <ele>1103.2</ele>
        <time>2022-07-22T15:03:37Z</time>
      </trkpt>
      <trkpt lat="46.8447370" lon="6.4148090">
        <ele>1103.0</ele>
        <time>2022-07-22T15:03:43Z</time>
      </trkpt>
      <trkpt lat="46.8447380" lon="6.4145930">
        <ele>1102.8</ele>
        <time>2022-07-22T15:03:49Z</time>
      </trkpt>
      <trkpt lat="46.8447250" lon="6.4141730">
        <ele>1102.4</ele>
        <time>2022-07-22T15:03:58Z</time>
      </trkpt>
      <trkpt lat="46.8447140" lon="6.4141210">
        <ele>1102.2</ele>
        <time>2022-07-22T15:03:59Z</time>
      </trkpt>
      <trkpt lat="46.8446170" lon="6.4138850">
        <ele>1101.6</ele>
        <time>2022-07-22T15:04:04Z</time>
      </trkpt>
      <trkpt lat="46.8444970" lon="6.4137060">
        <ele>1101.2</ele>
        <time>2022-07-22T15:04:08Z</time>
      </trkpt>
      <trkpt lat="46.8443870" lon="6.4135620">
        <ele>1100.6</ele>
        <time>2022-07-22T15:04:11Z</time>
      </trkpt>
      <trkpt lat="46.8441550" lon="6.4132660">
        <ele>1100.0</ele>
        <time>2022-07-22T15:04:16Z</time>
      </trkpt>
      <trkpt lat="46.8441050" lon="6.4132020">
        <ele>1099.8</ele>
        <time>2022-07-22T15:04:17Z</time>
      </trkpt>
      <trkpt lat="46.8438550" lon="6.4128720">
        <ele>1098.8</ele>
        <time>2022-07-22T15:04:22Z</time>
      </trkpt>
      <trkpt lat="46.8437080" lon="6.4126770">
        <ele>1098.4</ele>
        <time>2022-07-22T15:04:25Z</time>
      </trkpt>
      <trkpt lat="46.8435680" lon="6.4124930">
        <ele>1097.8</ele>
        <time>2022-07-22T15:04:28Z</time>
      </trkpt>
      <trkpt lat="46.8434380" lon="6.4123160">
        <ele>1096.6</ele>
        <time>2022-07-22T15:04:31Z</time>
      </trkpt>
      <trkpt lat="46.8433540" lon="6.4122070">
        <ele>1096.2</ele>
        <time>2022-07-22T15:04:33Z</time>
      </trkpt>
      <trkpt lat="46.8430820" lon="6.4118540">
        <ele>1095.2</ele>
        <time>2022-07-22T15:04:40Z</time>
      </trkpt>
      <trkpt lat="46.8429310" lon="6.4116680">
        <ele>1094.6</ele>
        <time>2022-07-22T15:04:44Z</time>
      </trkpt>
      <trkpt lat="46.8428920" lon="6.4116240">
        <ele>1094.2</ele>
        <time>2022-07-22T15:04:45Z</time>
      </trkpt>
      <trkpt lat="46.8426310" lon="6.4113760">
        <ele>1094.0</ele>
        <time>2022-07-22T15:04:52Z</time>
      </trkpt>
      <trkpt lat="46.8424120" lon="6.4111770">
        <ele>1094.0</ele>
        <time>2022-07-22T15:04:59Z</time>
      </trkpt>
      <trkpt lat="46.8421520" lon="6.4109090">
        <ele>1094.0</ele>
        <time>2022-07-22T15:05:06Z</time>
      </trkpt>
      <trkpt lat="46.8419150" lon="6.4106450">
        <ele>1093.4</ele>
        <time>2022-07-22T15:05:12Z</time>
      </trkpt>
      <trkpt lat="46.8418440" lon="6.4105640">
        <ele>1093.2</ele>
        <time>2022-07-22T15:05:14Z</time>
      </trkpt>
      <trkpt lat="46.8416720" lon="6.4103620">
        <ele>1092.4</ele>
        <time>2022-07-22T15:05:19Z</time>
      </trkpt>
      <trkpt lat="46.8414820" lon="6.4101550">
        <ele>1092.0</ele>
        <time>2022-07-22T15:05:24Z</time>
      </trkpt>
      <trkpt lat="46.8411130" lon="6.4097880">
        <ele>1091.4</ele>
        <time>2022-07-22T15:05:33Z</time>
      </trkpt>
      <trkpt lat="46.8410690" lon="6.4097430">
        <ele>1091.2</ele>
        <time>2022-07-22T15:05:34Z</time>
      </trkpt>
      <trkpt lat="46.8407550" lon="6.4094410">
        <ele>1090.2</ele>
        <time>2022-07-22T15:05:41Z</time>
      </trkpt>
      <trkpt lat="46.8406670" lon="6.4093520">
        <ele>1089.8</ele>
        <time>2022-07-22T15:05:43Z</time>
      </trkpt>
      <trkpt lat="46.8404460" lon="6.4091320">
        <ele>1089.0</ele>
        <time>2022-07-22T15:05:48Z</time>
      </trkpt>
      <trkpt lat="46.8402410" lon="6.4089380">
        <ele>1087.8</ele>
        <time>2022-07-22T15:05:53Z</time>
      </trkpt>
      <trkpt lat="46.8398210" lon="6.4085070">
        <ele>1087.2</ele>
        <time>2022-07-22T15:06:04Z</time>
      </trkpt>
      <trkpt lat="46.8397870" lon="6.4084710">
        <ele>1087.2</ele>
        <time>2022-07-22T15:06:05Z</time>
      </trkpt>
      <trkpt lat="46.8395300" lon="6.4082130">
        <ele>1087.0</ele>
        <time>2022-07-22T15:06:13Z</time>
      </trkpt>
      <trkpt lat="46.8392160" lon="6.4078930">
        <ele>1087.2</ele>
        <time>2022-07-22T15:06:22Z</time>
      </trkpt>
      <trkpt lat="46.8388200" lon="6.4075020">
        <ele>1086.6</ele>
        <time>2022-07-22T15:06:32Z</time>
      </trkpt>
      <trkpt lat="46.8383390" lon="6.4070220">
        <ele>1085.8</ele>
        <time>2022-07-22T15:06:44Z</time>
      </trkpt>
      <trkpt lat="46.8383040" lon="6.4069750">
        <ele>1085.6</ele>
        <time>2022-07-22T15:06:45Z</time>
      </trkpt>
      <trkpt lat="46.8382800" lon="6.4069160">
        <ele>1085.6</ele>
        <time>2022-07-22T15:06:46Z</time>
      </trkpt>
      <trkpt lat="46.8382740" lon="6.4068490">
        <ele>1085.4</ele>
        <time>2022-07-22T15:06:47Z</time>
      </trkpt>
      <trkpt lat="46.8383440" lon="6.4066350">
        <ele>1085.0</ele>
        <time>2022-07-22T15:06:50Z</time>
      </trkpt>
      <trkpt lat="46.8384330" lon="6.4064060">
        <ele>1084.6</ele>
        <time>2022-07-22T15:06:53Z</time>
      </trkpt>
      <trkpt lat="46.8385800" lon="6.4060160">
        <ele>1083.6</ele>
        <time>2022-07-22T15:06:58Z</time>
      </trkpt>
      <trkpt lat="46.8386120" lon="6.4059410">
        <ele>1083.6</ele>
        <time>2022-07-22T15:06:59Z</time>
      </trkpt>
      <trkpt lat="46.8387340" lon="6.4056480">
        <ele>1082.6</ele>
        <time>2022-07-22T15:07:03Z</time>
      </trkpt>
      <trkpt lat="46.8388060" lon="6.4054290">
        <ele>1081.8</ele>
        <time>2022-07-22T15:07:06Z</time>
      </trkpt>
      <trkpt lat="46.8388660" lon="6.4052100">
        <ele>1081.4</ele>
        <time>2022-07-22T15:07:09Z</time>
      </trkpt>
      <trkpt lat="46.8389720" lon="6.4048700">
        <ele>1080.8</ele>
        <time>2022-07-22T15:07:14Z</time>
      </trkpt>
      <trkpt lat="46.8391240" lon="6.4044260">
        <ele>1080.4</ele>
        <time>2022-07-22T15:07:20Z</time>
      </trkpt>
      <trkpt lat="46.8391450" lon="6.4043400">
        <ele>1080.4</ele>
        <time>2022-07-22T15:07:21Z</time>
      </trkpt>
      <trkpt lat="46.8391640" lon="6.4042500">
        <ele>1080.4</ele>
        <time>2022-07-22T15:07:22Z</time>
      </trkpt>
      <trkpt lat="46.8392380" lon="6.4036670">
        <ele>1079.2</ele>
        <time>2022-07-22T15:07:29Z</time>
      </trkpt>
      <trkpt lat="46.8392740" lon="6.4032080">
        <ele>1078.4</ele>
        <time>2022-07-22T15:07:36Z</time>
      </trkpt>
      <trkpt lat="46.8392850" lon="6.4030720">
        <ele>1078.2</ele>
        <time>2022-07-22T15:07:38Z</time>
      </trkpt>
      <trkpt lat="46.8393400" lon="6.4026300">
        <ele>1078.0</ele>
        <time>2022-07-22T15:07:44Z</time>
      </trkpt>
      <trkpt lat="46.8394650" lon="6.4021470">
        <ele>1077.0</ele>
        <time>2022-07-22T15:07:51Z</time>
      </trkpt>
      <trkpt lat="46.8396150" lon="6.4015950">
        <ele>1076.0</ele>
        <time>2022-07-22T15:07:59Z</time>
      </trkpt>
      <trkpt lat="46.8396680" lon="6.4013850">
        <ele>1075.4</ele>
        <time>2022-07-22T15:08:02Z</time>
      </trkpt>
      <trkpt lat="46.8397000" lon="6.4012440">
        <ele>1075.2</ele>
        <time>2022-07-22T15:08:04Z</time>
      </trkpt>
      <trkpt lat="46.8396950" lon="6.4011020">
        <ele>1075.2</ele>
        <time>2022-07-22T15:08:06Z</time>
      </trkpt>
      <trkpt lat="46.8395980" lon="6.4009750">
        <ele>1075.0</ele>
        <time>2022-07-22T15:08:09Z</time>
      </trkpt>
      <trkpt lat="46.8394480" lon="6.4009760">
        <ele>1074.6</ele>
        <time>2022-07-22T15:08:12Z</time>
      </trkpt>
      <trkpt lat="46.8393960" lon="6.4009830">
        <ele>1074.4</ele>
        <time>2022-07-22T15:08:13Z</time>
      </trkpt>
      <trkpt lat="46.8392920" lon="6.4009990">
        <ele>1074.0</ele>
        <time>2022-07-22T15:08:15Z</time>
      </trkpt>
      <trkpt lat="46.8391310" lon="6.4010260">
        <ele>1073.0</ele>
        <time>2022-07-22T15:08:18Z</time>
      </trkpt>
      <trkpt lat="46.8388580" lon="6.4010860">
        <ele>1072.4</ele>
        <time>2022-07-22T15:08:23Z</time>
      </trkpt>
      <trkpt lat="46.8384920" lon="6.4011480">
        <ele>1071.8</ele>
        <time>2022-07-22T15:08:30Z</time>
      </trkpt>
      <trkpt lat="46.8383370" lon="6.4011710">
        <ele>1071.8</ele>
        <time>2022-07-22T15:08:33Z</time>
      </trkpt>
      <trkpt lat="46.8378000" lon="6.4012640">
        <ele>1071.6</ele>
        <time>2022-07-22T15:08:43Z</time>
      </trkpt>
      <trkpt lat="46.8377470" lon="6.4012730">
        <ele>1071.4</ele>
        <time>2022-07-22T15:08:44Z</time>
      </trkpt>
      <trkpt lat="46.8373950" lon="6.4013270">
        <ele>1071.0</ele>
        <time>2022-07-22T15:08:51Z</time>
      </trkpt>
      <trkpt lat="46.8369130" lon="6.4014080">
        <ele>1071.0</ele>
        <time>2022-07-22T15:09:02Z</time>
      </trkpt>
      <trkpt lat="46.8365930" lon="6.4014590">
        <ele>1071.2</ele>
        <time>2022-07-22T15:09:10Z</time>
      </trkpt>
      <trkpt lat="46.8364350" lon="6.4014560">
        <ele>1071.4</ele>
        <time>2022-07-22T15:09:14Z</time>
      </trkpt>
      <trkpt lat="46.8363160" lon="6.4014180">
        <ele>1071.4</ele>
        <time>2022-07-22T15:09:17Z</time>
      </trkpt>
      <trkpt lat="46.8360490" lon="6.4013980">
        <ele>1071.8</ele>
        <time>2022-07-22T15:09:24Z</time>
      </trkpt>
      <trkpt lat="46.8357790" lon="6.4014360">
        <ele>1072.2</ele>
        <time>2022-07-22T15:09:32Z</time>
      </trkpt>
      <trkpt lat="46.8355740" lon="6.4015020">
        <ele>1072.2</ele>
        <time>2022-07-22T15:09:39Z</time>
      </trkpt>
      <trkpt lat="46.8354760" lon="6.4016260">
        <ele>1072.4</ele>
        <time>2022-07-22T15:09:44Z</time>
      </trkpt>
      <trkpt lat="46.8354500" lon="6.4016880">
        <ele>1072.6</ele>
        <time>2022-07-22T15:09:49Z</time>
      </trkpt>
      <trkpt lat="46.8353180" lon="6.4016680">
        <ele>1072.8</ele>
        <time>2022-07-22T15:12:07Z</time>
      </trkpt>
      <trkpt lat="46.8352740" lon="6.4016630">
        <ele>1072.8</ele>
        <time>2022-07-22T15:12:09Z</time>
      </trkpt>
      <trkpt lat="46.8351300" lon="6.4016740">
        <ele>1072.6</ele>
        <time>2022-07-22T15:12:15Z</time>
      </trkpt>
      <trkpt lat="46.8350320" lon="6.4016280">
        <ele>1072.6</ele>
        <time>2022-07-22T15:12:22Z</time>
      </trkpt>
      <trkpt lat="46.8350310" lon="6.4016130">
        <ele>1072.6</ele>
        <time>2022-07-22T15:12:23Z</time>
      </trkpt>
      <trkpt lat="46.8350490" lon="6.4015010">
        <ele>1072.6</ele>
        <time>2022-07-22T15:12:27Z</time>
      </trkpt>
      <trkpt lat="46.8350570" lon="6.4014630">
        <ele>1072.8</ele>
        <time>2022-07-22T15:12:28Z</time>
      </trkpt>
      <trkpt lat="46.8350410" lon="6.4012770">
        <ele>1072.8</ele>
        <time>2022-07-22T15:12:32Z</time>
      </trkpt>
      <trkpt lat="46.8349210" lon="6.4011500">
        <ele>1072.8</ele>
        <time>2022-07-22T15:12:36Z</time>
      </trkpt>
      <trkpt lat="46.8347060" lon="6.4009800">
        <ele>1072.6</ele>
        <time>2022-07-22T15:12:44Z</time>
      </trkpt>
      <trkpt lat="46.8345150" lon="6.4008160">
        <ele>1072.6</ele>
        <time>2022-07-22T15:12:52Z</time>
      </trkpt>
      <trkpt lat="46.8344320" lon="6.4006450">
        <ele>1072.8</ele>
        <time>2022-07-22T15:12:59Z</time>
      </trkpt>
      <trkpt lat="46.8344240" lon="6.4005920">
        <ele>1073.2</ele>
        <time>2022-07-22T15:13:01Z</time>
      </trkpt>
      <trkpt lat="46.8344350" lon="6.4004560">
        <ele>1074.0</ele>
        <time>2022-07-22T15:13:06Z</time>
      </trkpt>
      <trkpt lat="46.8344420" lon="6.4004040">
        <ele>1074.2</ele>
        <time>2022-07-22T15:13:08Z</time>
      </trkpt>
      <trkpt lat="46.8344550" lon="6.4001840">
        <ele>1075.2</ele>
        <time>2022-07-22T15:13:15Z</time>
      </trkpt>
      <trkpt lat="46.8344550" lon="6.4001160">
        <ele>1075.4</ele>
        <time>2022-07-22T15:13:17Z</time>
      </trkpt>
      <trkpt lat="46.8344460" lon="6.3998710">
        <ele>1075.8</ele>
        <time>2022-07-22T15:13:24Z</time>
      </trkpt>
      <trkpt lat="46.8344190" lon="6.3996260">
        <ele>1076.4</ele>
        <time>2022-07-22T15:13:31Z</time>
      </trkpt>
      <trkpt lat="46.8344120" lon="6.3995880">
        <ele>1076.6</ele>
        <time>2022-07-22T15:13:32Z</time>
      </trkpt>
      <trkpt lat="46.8343660" lon="6.3993860">
        <ele>1077.2</ele>
        <time>2022-07-22T15:13:38Z</time>
      </trkpt>
      <trkpt lat="46.8343390" lon="6.3992900">
        <ele>1077.4</ele>
        <time>2022-07-22T15:13:41Z</time>
      </trkpt>
      <trkpt lat="46.8342780" lon="6.3990630">
        <ele>1077.8</ele>
        <time>2022-07-22T15:13:48Z</time>
      </trkpt>
      <trkpt lat="46.8341870" lon="6.3986570">
        <ele>1078.6</ele>
        <time>2022-07-22T15:14:00Z</time>
      </trkpt>
      <trkpt lat="46.8340790" lon="6.3983860">
        <ele>1079.2</ele>
        <time>2022-07-22T15:14:09Z</time>
      </trkpt>
      <trkpt lat="46.8339230" lon="6.3982340">
        <ele>1079.8</ele>
        <time>2022-07-22T15:14:16Z</time>
      </trkpt>
      <trkpt lat="46.8336960" lon="6.3980790">
        <ele>1079.8</ele>
        <time>2022-07-22T15:14:23Z</time>
      </trkpt>
      <trkpt lat="46.8333630" lon="6.3978460">
        <ele>1079.6</ele>
        <time>2022-07-22T15:14:31Z</time>
      </trkpt>
      <trkpt lat="46.8330420" lon="6.3976030">
        <ele>1079.2</ele>
        <time>2022-07-22T15:14:37Z</time>
      </trkpt>
      <trkpt lat="46.8328820" lon="6.3974180">
        <ele>1078.4</ele>
        <time>2022-07-22T15:14:40Z</time>
      </trkpt>
      <trkpt lat="46.8327850" lon="6.3972750">
        <ele>1078.2</ele>
        <time>2022-07-22T15:14:42Z</time>
      </trkpt>
      <trkpt lat="46.8326480" lon="6.3970470">
        <ele>1077.4</ele>
        <time>2022-07-22T15:14:45Z</time>
      </trkpt>
      <trkpt lat="46.8324870" lon="6.3967500">
        <ele>1076.8</ele>
        <time>2022-07-22T15:14:49Z</time>
      </trkpt>
      <trkpt lat="46.8323810" lon="6.3965520">
        <ele>1076.4</ele>
        <time>2022-07-22T15:14:52Z</time>
      </trkpt>
      <trkpt lat="46.8322580" lon="6.3963170">
        <ele>1075.8</ele>
        <time>2022-07-22T15:14:56Z</time>
      </trkpt>
      <trkpt lat="46.8320900" lon="6.3959940">
        <ele>1075.8</ele>
        <time>2022-07-22T15:15:03Z</time>
      </trkpt>
      <trkpt lat="46.8318690" lon="6.3955830">
        <ele>1076.2</ele>
        <time>2022-07-22T15:15:12Z</time>
      </trkpt>
      <trkpt lat="46.8315750" lon="6.3950470">
        <ele>1076.4</ele>
        <time>2022-07-22T15:15:24Z</time>
      </trkpt>
      <trkpt lat="46.8312940" lon="6.3945240">
        <ele>1076.6</ele>
        <time>2022-07-22T15:15:35Z</time>
      </trkpt>
      <trkpt lat="46.8310480" lon="6.3940560">
        <ele>1076.4</ele>
        <time>2022-07-22T15:15:44Z</time>
      </trkpt>
      <trkpt lat="46.8308040" lon="6.3935780">
        <ele>1076.0</ele>
        <time>2022-07-22T15:15:53Z</time>
      </trkpt>
      <trkpt lat="46.8305660" lon="6.3932810">
        <ele>1076.0</ele>
        <time>2022-07-22T15:16:01Z</time>
      </trkpt>
      <trkpt lat="46.8302890" lon="6.3930580">
        <ele>1076.2</ele>
        <time>2022-07-22T15:16:09Z</time>
      </trkpt>
      <trkpt lat="46.8299800" lon="6.3928070">
        <ele>1076.4</ele>
        <time>2022-07-22T15:16:18Z</time>
      </trkpt>
      <trkpt lat="46.8297550" lon="6.3925640">
        <ele>1076.6</ele>
        <time>2022-07-22T15:16:25Z</time>
      </trkpt>
      <trkpt lat="46.8296810" lon="6.3922610">
        <ele>1076.6</ele>
        <time>2022-07-22T15:16:31Z</time>
      </trkpt>
      <trkpt lat="46.8296410" lon="6.3919000">
        <ele>1076.8</ele>
        <time>2022-07-22T15:16:39Z</time>
      </trkpt>
      <trkpt lat="46.8296380" lon="6.3916060">
        <ele>1077.8</ele>
        <time>2022-07-22T15:16:46Z</time>
      </trkpt>
      <trkpt lat="46.8296450" lon="6.3914930">
        <ele>1078.2</ele>
        <time>2022-07-22T15:16:49Z</time>
      </trkpt>
      <trkpt lat="46.8296880" lon="6.3912250">
        <ele>1078.8</ele>
        <time>2022-07-22T15:16:56Z</time>
      </trkpt>
      <trkpt lat="46.8297130" lon="6.3911040">
        <ele>1079.4</ele>
        <time>2022-07-22T15:16:59Z</time>
      </trkpt>
      <trkpt lat="46.8297820" lon="6.3908460">
        <ele>1079.8</ele>
        <time>2022-07-22T15:17:06Z</time>
      </trkpt>
      <trkpt lat="46.8298180" lon="6.3907350">
        <ele>1080.0</ele>
        <time>2022-07-22T15:17:09Z</time>
      </trkpt>
      <trkpt lat="46.8299170" lon="6.3904160">
        <ele>1080.8</ele>
        <time>2022-07-22T15:17:18Z</time>
      </trkpt>
      <trkpt lat="46.8299530" lon="6.3902660">
        <ele>1081.0</ele>
        <time>2022-07-22T15:17:22Z</time>
      </trkpt>
      <trkpt lat="46.8299920" lon="6.3900740">
        <ele>1081.0</ele>
        <time>2022-07-22T15:17:26Z</time>
      </trkpt>
      <trkpt lat="46.8300860" lon="6.3896510">
        <ele>1081.0</ele>
        <time>2022-07-22T15:17:34Z</time>
      </trkpt>
      <trkpt lat="46.8301680" lon="6.3893330">
        <ele>1081.2</ele>
        <time>2022-07-22T15:17:42Z</time>
      </trkpt>
      <trkpt lat="46.8302180" lon="6.3890940">
        <ele>1081.4</ele>
        <time>2022-07-22T15:17:47Z</time>
      </trkpt>
      <trkpt lat="46.8303130" lon="6.3887410">
        <ele>1081.6</ele>
        <time>2022-07-22T15:17:52Z</time>
      </trkpt>
      <trkpt lat="46.8304430" lon="6.3883150">
        <ele>1080.6</ele>
        <time>2022-07-22T15:17:58Z</time>
      </trkpt>
      <trkpt lat="46.8305190" lon="6.3880790">
        <ele>1079.8</ele>
        <time>2022-07-22T15:18:02Z</time>
      </trkpt>
      <trkpt lat="46.8306220" lon="6.3878090">
        <ele>1079.6</ele>
        <time>2022-07-22T15:18:07Z</time>
      </trkpt>
      <trkpt lat="46.8307730" lon="6.3874540">
        <ele>1079.6</ele>
        <time>2022-07-22T15:18:13Z</time>
      </trkpt>
      <trkpt lat="46.8309540" lon="6.3869780">
        <ele>1079.4</ele>
        <time>2022-07-22T15:18:19Z</time>
      </trkpt>
      <trkpt lat="46.8310260" lon="6.3867370">
        <ele>1078.6</ele>
        <time>2022-07-22T15:18:22Z</time>
      </trkpt>
      <trkpt lat="46.8310520" lon="6.3865770">
        <ele>1077.8</ele>
        <time>2022-07-22T15:18:24Z</time>
      </trkpt>
      <trkpt lat="46.8310560" lon="6.3864960">
        <ele>1077.6</ele>
        <time>2022-07-22T15:18:25Z</time>
      </trkpt>
      <trkpt lat="46.8310470" lon="6.3863430">
        <ele>1077.0</ele>
        <time>2022-07-22T15:18:27Z</time>
      </trkpt>
      <trkpt lat="46.8310410" lon="6.3862700">
        <ele>1076.8</ele>
        <time>2022-07-22T15:18:28Z</time>
      </trkpt>
      <trkpt lat="46.8310330" lon="6.3862000">
        <ele>1076.6</ele>
        <time>2022-07-22T15:18:29Z</time>
      </trkpt>
      <trkpt lat="46.8309350" lon="6.3856790">
        <ele>1075.8</ele>
        <time>2022-07-22T15:18:37Z</time>
      </trkpt>
      <trkpt lat="46.8308490" lon="6.3855320">
        <ele>1075.8</ele>
        <time>2022-07-22T15:18:41Z</time>
      </trkpt>
      <trkpt lat="46.8307300" lon="6.3854490">
        <ele>1075.8</ele>
        <time>2022-07-22T15:18:47Z</time>
      </trkpt>
      <trkpt lat="46.8306370" lon="6.3853660">
        <ele>1076.2</ele>
        <time>2022-07-22T15:18:53Z</time>
      </trkpt>
      <trkpt lat="46.8305110" lon="6.3852620">
        <ele>1077.0</ele>
        <time>2022-07-22T15:18:59Z</time>
      </trkpt>
      <trkpt lat="46.8304130" lon="6.3851520">
        <ele>1077.2</ele>
        <time>2022-07-22T15:19:05Z</time>
      </trkpt>
      <trkpt lat="46.8302950" lon="6.3850040">
        <ele>1077.6</ele>
        <time>2022-07-22T15:19:11Z</time>
      </trkpt>
      <trkpt lat="46.8301780" lon="6.3848720">
        <ele>1077.8</ele>
        <time>2022-07-22T15:19:17Z</time>
      </trkpt>
      <trkpt lat="46.8300900" lon="6.3847490">
        <ele>1078.8</ele>
        <time>2022-07-22T15:19:22Z</time>
      </trkpt>
      <trkpt lat="46.8300700" lon="6.3847270">
        <ele>1078.8</ele>
        <time>2022-07-22T15:19:23Z</time>
      </trkpt>
      <trkpt lat="46.8299770" lon="6.3845930">
        <ele>1079.8</ele>
        <time>2022-07-22T15:19:29Z</time>
      </trkpt>
      <trkpt lat="46.8299520" lon="6.3845800">
        <ele>1079.8</ele>
        <time>2022-07-22T15:19:30Z</time>
      </trkpt>
      <trkpt lat="46.8298500" lon="6.3844530">
        <ele>1080.6</ele>
        <time>2022-07-22T15:19:37Z</time>
      </trkpt>
      <trkpt lat="46.8298020" lon="6.3844280">
        <ele>1080.8</ele>
        <time>2022-07-22T15:19:39Z</time>
      </trkpt>
      <trkpt lat="46.8297300" lon="6.3843750">
        <ele>1081.2</ele>
        <time>2022-07-22T15:19:43Z</time>
      </trkpt>
      <trkpt lat="46.8296400" lon="6.3842890">
        <ele>1081.4</ele>
        <time>2022-07-22T15:19:49Z</time>
      </trkpt>
      <trkpt lat="46.8296040" lon="6.3842660">
        <ele>1081.6</ele>
        <time>2022-07-22T15:19:51Z</time>
      </trkpt>
      <trkpt lat="46.8295450" lon="6.3842180">
        <ele>1082.0</ele>
        <time>2022-07-22T15:19:55Z</time>
      </trkpt>
      <trkpt lat="46.8295070" lon="6.3841140">
        <ele>1082.8</ele>
        <time>2022-07-22T15:20:00Z</time>
      </trkpt>
      <trkpt lat="46.8294060" lon="6.3840330">
        <ele>1083.6</ele>
        <time>2022-07-22T15:20:07Z</time>
      </trkpt>
      <trkpt lat="46.8293900" lon="6.3840100">
        <ele>1083.8</ele>
        <time>2022-07-22T15:20:08Z</time>
      </trkpt>
      <trkpt lat="46.8292690" lon="6.3839130">
        <ele>1084.6</ele>
        <time>2022-07-22T15:20:14Z</time>
      </trkpt>
      <trkpt lat="46.8291810" lon="6.3838560">
        <ele>1084.8</ele>
        <time>2022-07-22T15:20:18Z</time>
      </trkpt>
      <trkpt lat="46.8291190" lon="6.3838290">
        <ele>1085.0</ele>
        <time>2022-07-22T15:20:21Z</time>
      </trkpt>
      <trkpt lat="46.8290100" lon="6.3837190">
        <ele>1085.2</ele>
        <time>2022-07-22T15:20:28Z</time>
      </trkpt>
      <trkpt lat="46.8289640" lon="6.3836760">
        <ele>1085.8</ele>
        <time>2022-07-22T15:20:31Z</time>
      </trkpt>
      <trkpt lat="46.8289280" lon="6.3835890">
        <ele>1086.0</ele>
        <time>2022-07-22T15:20:34Z</time>
      </trkpt>
      <trkpt lat="46.8288540" lon="6.3835230">
        <ele>1086.4</ele>
        <time>2022-07-22T15:20:38Z</time>
      </trkpt>
      <trkpt lat="46.8288250" lon="6.3834920">
        <ele>1086.4</ele>
        <time>2022-07-22T15:20:40Z</time>
      </trkpt>
      <trkpt lat="46.8287890" lon="6.3834760">
        <ele>1086.8</ele>
        <time>2022-07-22T15:20:42Z</time>
      </trkpt>
      <trkpt lat="46.8286800" lon="6.3834320">
        <ele>1087.2</ele>
        <time>2022-07-22T15:20:47Z</time>
      </trkpt>
      <trkpt lat="46.8285770" lon="6.3833320">
        <ele>1087.8</ele>
        <time>2022-07-22T15:20:52Z</time>
      </trkpt>
      <trkpt lat="46.8285320" lon="6.3832800">
        <ele>1087.8</ele>
        <time>2022-07-22T15:20:54Z</time>
      </trkpt>
      <trkpt lat="46.8284310" lon="6.3831700">
        <ele>1088.2</ele>
        <time>2022-07-22T15:20:59Z</time>
      </trkpt>
      <trkpt lat="46.8283020" lon="6.3830480">
        <ele>1088.6</ele>
        <time>2022-07-22T15:21:06Z</time>
      </trkpt>
      <trkpt lat="46.8281660" lon="6.3829250">
        <ele>1088.6</ele>
        <time>2022-07-22T15:21:13Z</time>
      </trkpt>
      <trkpt lat="46.8280060" lon="6.3827570">
        <ele>1088.2</ele>
        <time>2022-07-22T15:21:18Z</time>
      </trkpt>
      <trkpt lat="46.8277520" lon="6.3824480">
        <ele>1087.0</ele>
        <time>2022-07-22T15:21:25Z</time>
      </trkpt>
      <trkpt lat="46.8276430" lon="6.3823260">
        <ele>1086.6</ele>
        <time>2022-07-22T15:21:28Z</time>
      </trkpt>
      <trkpt lat="46.8275970" lon="6.3822440">
        <ele>1086.4</ele>
        <time>2022-07-22T15:21:30Z</time>
      </trkpt>
      <trkpt lat="46.8275940" lon="6.3820840">
        <ele>1085.6</ele>
        <time>2022-07-22T15:21:34Z</time>
      </trkpt>
      <trkpt lat="46.8275930" lon="6.3820470">
        <ele>1085.6</ele>
        <time>2022-07-22T15:21:35Z</time>
      </trkpt>
      <trkpt lat="46.8275910" lon="6.3819810">
        <ele>1085.4</ele>
        <time>2022-07-22T15:21:37Z</time>
      </trkpt>
      <trkpt lat="46.8276150" lon="6.3818550">
        <ele>1085.0</ele>
        <time>2022-07-22T15:21:40Z</time>
      </trkpt>
      <trkpt lat="46.8276400" lon="6.3816750">
        <ele>1084.8</ele>
        <time>2022-07-22T15:21:45Z</time>
      </trkpt>
      <trkpt lat="46.8276740" lon="6.3815000">
        <ele>1084.4</ele>
        <time>2022-07-22T15:21:49Z</time>
      </trkpt>
      <trkpt lat="46.8276800" lon="6.3814450">
        <ele>1084.4</ele>
        <time>2022-07-22T15:21:50Z</time>
      </trkpt>
      <trkpt lat="46.8277100" lon="6.3811910">
        <ele>1084.0</ele>
        <time>2022-07-22T15:21:55Z</time>
      </trkpt>
      <trkpt lat="46.8277570" lon="6.3809720">
        <ele>1083.4</ele>
        <time>2022-07-22T15:21:59Z</time>
      </trkpt>
      <trkpt lat="46.8277360" lon="6.3808000">
        <ele>1082.6</ele>
        <time>2022-07-22T15:22:03Z</time>
      </trkpt>
      <trkpt lat="46.8277350" lon="6.3807130">
        <ele>1082.2</ele>
        <time>2022-07-22T15:22:05Z</time>
      </trkpt>
      <trkpt lat="46.8277390" lon="6.3806120">
        <ele>1081.2</ele>
        <time>2022-07-22T15:22:08Z</time>
      </trkpt>
      <trkpt lat="46.8277350" lon="6.3805890">
        <ele>1080.8</ele>
        <time>2022-07-22T15:22:09Z</time>
      </trkpt>
      <trkpt lat="46.8277440" lon="6.3804320">
        <ele>1080.0</ele>
        <time>2022-07-22T15:22:13Z</time>
      </trkpt>
      <trkpt lat="46.8277640" lon="6.3802830">
        <ele>1079.0</ele>
        <time>2022-07-22T15:22:17Z</time>
      </trkpt>
      <trkpt lat="46.8277740" lon="6.3802350">
        <ele>1078.4</ele>
        <time>2022-07-22T15:22:18Z</time>
      </trkpt>
      <trkpt lat="46.8277720" lon="6.3801890">
        <ele>1078.2</ele>
        <time>2022-07-22T15:22:19Z</time>
      </trkpt>
      <trkpt lat="46.8277880" lon="6.3800280">
        <ele>1077.4</ele>
        <time>2022-07-22T15:22:22Z</time>
      </trkpt>
      <trkpt lat="46.8278020" lon="6.3799430">
        <ele>1076.6</ele>
        <time>2022-07-22T15:22:24Z</time>
      </trkpt>
      <trkpt lat="46.8278040" lon="6.3799000">
        <ele>1076.2</ele>
        <time>2022-07-22T15:22:25Z</time>
      </trkpt>
      <trkpt lat="46.8278310" lon="6.3797760">
        <ele>1075.2</ele>
        <time>2022-07-22T15:22:28Z</time>
      </trkpt>
      <trkpt lat="46.8278410" lon="6.3797300">
        <ele>1075.0</ele>
        <time>2022-07-22T15:22:29Z</time>
      </trkpt>
      <trkpt lat="46.8278590" lon="6.3795020">
        <ele>1073.8</ele>
        <time>2022-07-22T15:22:34Z</time>
      </trkpt>
      <trkpt lat="46.8279120" lon="6.3793230">
        <ele>1072.4</ele>
        <time>2022-07-22T15:22:39Z</time>
      </trkpt>
      <trkpt lat="46.8279810" lon="6.3791710">
        <ele>1071.4</ele>
        <time>2022-07-22T15:22:44Z</time>
      </trkpt>
      <trkpt lat="46.8279840" lon="6.3791500">
        <ele>1071.0</ele>
        <time>2022-07-22T15:22:45Z</time>
      </trkpt>
      <trkpt lat="46.8279770" lon="6.3790750">
        <ele>1070.2</ele>
        <time>2022-07-22T15:22:48Z</time>
      </trkpt>
      <trkpt lat="46.8279710" lon="6.3790440">
        <ele>1070.0</ele>
        <time>2022-07-22T15:22:49Z</time>
      </trkpt>
      <trkpt lat="46.8279550" lon="6.3789630">
        <ele>1069.2</ele>
        <time>2022-07-22T15:22:54Z</time>
      </trkpt>
      <trkpt lat="46.8279510" lon="6.3789540">
        <ele>1068.6</ele>
        <time>2022-07-22T15:22:55Z</time>
      </trkpt>
      <trkpt lat="46.8277620" lon="6.3784230">
        <ele>1069.6</ele>
        <time>2022-07-22T15:23:33Z</time>
      </trkpt>
      <trkpt lat="46.8277460" lon="6.3783490">
        <ele>1069.6</ele>
        <time>2022-07-22T15:23:35Z</time>
      </trkpt>
      <trkpt lat="46.8276740" lon="6.3782240">
        <ele>1069.2</ele>
        <time>2022-07-22T15:23:40Z</time>
      </trkpt>
      <trkpt lat="46.8275850" lon="6.3781360">
        <ele>1067.8</ele>
        <time>2022-07-22T15:23:45Z</time>
      </trkpt>
      <trkpt lat="46.8274870" lon="6.3780200">
        <ele>1067.4</ele>
        <time>2022-07-22T15:23:51Z</time>
      </trkpt>
      <trkpt lat="46.8273840" lon="6.3779130">
        <ele>1067.4</ele>
        <time>2022-07-22T15:23:57Z</time>
      </trkpt>
      <trkpt lat="46.8272620" lon="6.3777850">
        <ele>1067.6</ele>
        <time>2022-07-22T15:24:03Z</time>
      </trkpt>
      <trkpt lat="46.8271390" lon="6.3776440">
        <ele>1067.6</ele>
        <time>2022-07-22T15:24:08Z</time>
      </trkpt>
      <trkpt lat="46.8269970" lon="6.3774830">
        <ele>1067.8</ele>
        <time>2022-07-22T15:24:13Z</time>
      </trkpt>
      <trkpt lat="46.8268800" lon="6.3773330">
        <ele>1067.8</ele>
        <time>2022-07-22T15:24:18Z</time>
      </trkpt>
      <trkpt lat="46.8267930" lon="6.3770130">
        <ele>1068.0</ele>
        <time>2022-07-22T15:24:25Z</time>
      </trkpt>
      <trkpt lat="46.8267780" lon="6.3768630">
        <ele>1067.8</ele>
        <time>2022-07-22T15:24:30Z</time>
      </trkpt>
      <trkpt lat="46.8267680" lon="6.3768440">
        <ele>1067.6</ele>
        <time>2022-07-22T15:24:33Z</time>
      </trkpt>
      <trkpt lat="46.8264490" lon="6.3766760">
        <ele>1068.0</ele>
        <time>2022-07-22T15:25:01Z</time>
      </trkpt>
      <trkpt lat="46.8264210" lon="6.3766730">
        <ele>1068.2</ele>
        <time>2022-07-22T15:25:02Z</time>
      </trkpt>
      <trkpt lat="46.8263980" lon="6.3766600">
        <ele>1068.2</ele>
        <time>2022-07-22T15:25:03Z</time>
      </trkpt>
      <trkpt lat="46.8263080" lon="6.3765730">
        <ele>1068.4</ele>
        <time>2022-07-22T15:25:08Z</time>
      </trkpt>
      <trkpt lat="46.8262600" lon="6.3765490">
        <ele>1068.4</ele>
        <time>2022-07-22T15:25:10Z</time>
      </trkpt>
      <trkpt lat="46.8261910" lon="6.3765440">
        <ele>1068.4</ele>
        <time>2022-07-22T15:25:12Z</time>
      </trkpt>
      <trkpt lat="46.8261640" lon="6.3765420">
        <ele>1068.4</ele>
        <time>2022-07-22T15:25:13Z</time>
      </trkpt>
      <trkpt lat="46.8260790" lon="6.3765240">
        <ele>1068.4</ele>
        <time>2022-07-22T15:25:17Z</time>
      </trkpt>
      <trkpt lat="46.8260200" lon="6.3765010">
        <ele>1068.4</ele>
        <time>2022-07-22T15:25:20Z</time>
      </trkpt>
      <trkpt lat="46.8258710" lon="6.3764420">
        <ele>1068.6</ele>
        <time>2022-07-22T15:25:26Z</time>
      </trkpt>
      <trkpt lat="46.8258190" lon="6.3764070">
        <ele>1068.8</ele>
        <time>2022-07-22T15:25:29Z</time>
      </trkpt>
      <trkpt lat="46.8257490" lon="6.3763550">
        <ele>1068.8</ele>
        <time>2022-07-22T15:25:33Z</time>
      </trkpt>
      <trkpt lat="46.8256410" lon="6.3762290">
        <ele>1069.0</ele>
        <time>2022-07-22T15:25:39Z</time>
      </trkpt>
      <trkpt lat="46.8255440" lon="6.3761130">
        <ele>1069.0</ele>
        <time>2022-07-22T15:25:46Z</time>
      </trkpt>
      <trkpt lat="46.8254750" lon="6.3760170">
        <ele>1068.6</ele>
        <time>2022-07-22T15:25:51Z</time>
      </trkpt>
      <trkpt lat="46.8254080" lon="6.3759160">
        <ele>1068.2</ele>
        <time>2022-07-22T15:25:54Z</time>
      </trkpt>
      <trkpt lat="46.8253730" lon="6.3758600">
        <ele>1068.2</ele>
        <time>2022-07-22T15:25:55Z</time>
      </trkpt>
      <trkpt lat="46.8253300" lon="6.3756820">
        <ele>1067.6</ele>
        <time>2022-07-22T15:25:59Z</time>
      </trkpt>
      <trkpt lat="46.8253230" lon="6.3756620">
        <ele>1067.2</ele>
        <time>2022-07-22T15:26:00Z</time>
      </trkpt>
      <trkpt lat="46.8252550" lon="6.3756060">
        <ele>1066.0</ele>
        <time>2022-07-22T15:26:03Z</time>
      </trkpt>
      <trkpt lat="46.8252240" lon="6.3755620">
        <ele>1065.8</ele>
        <time>2022-07-22T15:26:04Z</time>
      </trkpt>
      <trkpt lat="46.8251220" lon="6.3753970">
        <ele>1064.8</ele>
        <time>2022-07-22T15:26:07Z</time>
      </trkpt>
      <trkpt lat="46.8250830" lon="6.3752530">
        <ele>1064.4</ele>
        <time>2022-07-22T15:26:09Z</time>
      </trkpt>
      <trkpt lat="46.8250460" lon="6.3751190">
        <ele>1063.6</ele>
        <time>2022-07-22T15:26:12Z</time>
      </trkpt>
      <trkpt lat="46.8250350" lon="6.3750810">
        <ele>1063.0</ele>
        <time>2022-07-22T15:26:13Z</time>
      </trkpt>
      <trkpt lat="46.8250270" lon="6.3750500">
        <ele>1062.4</ele>
        <time>2022-07-22T15:26:14Z</time>
      </trkpt>
      <trkpt lat="46.8250030" lon="6.3749850">
        <ele>1061.2</ele>
        <time>2022-07-22T15:26:16Z</time>
      </trkpt>
      <trkpt lat="46.8249820" lon="6.3749000">
        <ele>1060.0</ele>
        <time>2022-07-22T15:26:18Z</time>
      </trkpt>
      <trkpt lat="46.8249990" lon="6.3747990">
        <ele>1059.8</ele>
        <time>2022-07-22T15:26:19Z</time>
      </trkpt>
      <trkpt lat="46.8249330" lon="6.3746110">
        <ele>1059.0</ele>
        <time>2022-07-22T15:26:23Z</time>
      </trkpt>
      <trkpt lat="46.8249080" lon="6.3745700">
        <ele>1058.8</ele>
        <time>2022-07-22T15:26:24Z</time>
      </trkpt>
      <trkpt lat="46.8248370" lon="6.3744980">
        <ele>1057.6</ele>
        <time>2022-07-22T15:26:27Z</time>
      </trkpt>
      <trkpt lat="46.8247930" lon="6.3744420">
        <ele>1056.8</ele>
        <time>2022-07-22T15:26:29Z</time>
      </trkpt>
      <trkpt lat="46.8247770" lon="6.3744160">
        <ele>1056.4</ele>
        <time>2022-07-22T15:26:30Z</time>
      </trkpt>
      <trkpt lat="46.8246890" lon="6.3742980">
        <ele>1055.0</ele>
        <time>2022-07-22T15:26:34Z</time>
      </trkpt>
      <trkpt lat="46.8246220" lon="6.3742180">
        <ele>1054.6</ele>
        <time>2022-07-22T15:26:36Z</time>
      </trkpt>
      <trkpt lat="46.8245870" lon="6.3740900">
        <ele>1053.6</ele>
        <time>2022-07-22T15:26:38Z</time>
      </trkpt>
      <trkpt lat="46.8245160" lon="6.3738900">
        <ele>1052.4</ele>
        <time>2022-07-22T15:26:41Z</time>
      </trkpt>
      <trkpt lat="46.8244580" lon="6.3738290">
        <ele>1051.8</ele>
        <time>2022-07-22T15:26:43Z</time>
      </trkpt>
      <trkpt lat="46.8244330" lon="6.3737800">
        <ele>1051.6</ele>
        <time>2022-07-22T15:26:44Z</time>
      </trkpt>
      <trkpt lat="46.8243900" lon="6.3737800">
        <ele>1051.2</ele>
        <time>2022-07-22T15:26:45Z</time>
      </trkpt>
      <trkpt lat="46.8243530" lon="6.3737860">
        <ele>1050.6</ele>
        <time>2022-07-22T15:26:46Z</time>
      </trkpt>
      <trkpt lat="46.8243190" lon="6.3738050">
        <ele>1049.8</ele>
        <time>2022-07-22T15:26:47Z</time>
      </trkpt>
      <trkpt lat="46.8241960" lon="6.3738480">
        <ele>1048.8</ele>
        <time>2022-07-22T15:26:50Z</time>
      </trkpt>
      <trkpt lat="46.8241090" lon="6.3739000">
        <ele>1047.8</ele>
        <time>2022-07-22T15:26:53Z</time>
      </trkpt>
      <trkpt lat="46.8240600" lon="6.3739310">
        <ele>1047.4</ele>
        <time>2022-07-22T15:26:55Z</time>
      </trkpt>
      <trkpt lat="46.8240050" lon="6.3739700">
        <ele>1047.2</ele>
        <time>2022-07-22T15:26:58Z</time>
      </trkpt>
      <trkpt lat="46.8239160" lon="6.3739920">
        <ele>1047.2</ele>
        <time>2022-07-22T15:27:04Z</time>
      </trkpt>
      <trkpt lat="46.8238350" lon="6.3740070">
        <ele>1048.2</ele>
        <time>2022-07-22T15:27:10Z</time>
      </trkpt>
      <trkpt lat="46.8238040" lon="6.3740070">
        <ele>1048.4</ele>
        <time>2022-07-22T15:27:12Z</time>
      </trkpt>
      <trkpt lat="46.8237940" lon="6.3740110">
        <ele>1048.4</ele>
        <time>2022-07-22T15:27:13Z</time>
      </trkpt>
      <trkpt lat="46.8237600" lon="6.3740200">
        <ele>1048.6</ele>
        <time>2022-07-22T15:27:15Z</time>
      </trkpt>
      <trkpt lat="46.8236900" lon="6.3740480">
        <ele>1049.4</ele>
        <time>2022-07-22T15:27:21Z</time>
      </trkpt>
      <trkpt lat="46.8236100" lon="6.3740760">
        <ele>1050.0</ele>
        <time>2022-07-22T15:27:25Z</time>
      </trkpt>
      <trkpt lat="46.8235370" lon="6.3740910">
        <ele>1050.4</ele>
        <time>2022-07-22T15:27:30Z</time>
      </trkpt>
      <trkpt lat="46.8234130" lon="6.3741190">
        <ele>1051.2</ele>
        <time>2022-07-22T15:27:38Z</time>
      </trkpt>
      <trkpt lat="46.8233990" lon="6.3741150">
        <ele>1051.2</ele>
        <time>2022-07-22T15:27:39Z</time>
      </trkpt>
      <trkpt lat="46.8232580" lon="6.3741190">
        <ele>1052.4</ele>
        <time>2022-07-22T15:27:47Z</time>
      </trkpt>
      <trkpt lat="46.8231620" lon="6.3741070">
        <ele>1052.4</ele>
        <time>2022-07-22T15:27:52Z</time>
      </trkpt>
      <trkpt lat="46.8230240" lon="6.3741430">
        <ele>1052.4</ele>
        <time>2022-07-22T15:27:57Z</time>
      </trkpt>
      <trkpt lat="46.8228820" lon="6.3741800">
        <ele>1052.2</ele>
        <time>2022-07-22T15:28:02Z</time>
      </trkpt>
      <trkpt lat="46.8227590" lon="6.3741940">
        <ele>1052.0</ele>
        <time>2022-07-22T15:28:08Z</time>
      </trkpt>
      <trkpt lat="46.8226130" lon="6.3742330">
        <ele>1052.0</ele>
        <time>2022-07-22T15:28:14Z</time>
      </trkpt>
      <trkpt lat="46.8225730" lon="6.3742410">
        <ele>1052.2</ele>
        <time>2022-07-22T15:28:16Z</time>
      </trkpt>
      <trkpt lat="46.8224990" lon="6.3742390">
        <ele>1052.8</ele>
        <time>2022-07-22T15:28:20Z</time>
      </trkpt>
      <trkpt lat="46.8223370" lon="6.3742440">
        <ele>1053.0</ele>
        <time>2022-07-22T15:28:25Z</time>
      </trkpt>
      <trkpt lat="46.8221530" lon="6.3742330">
        <ele>1053.0</ele>
        <time>2022-07-22T15:28:29Z</time>
      </trkpt>
      <trkpt lat="46.8219560" lon="6.3742420">
        <ele>1052.8</ele>
        <time>2022-07-22T15:28:34Z</time>
      </trkpt>
      <trkpt lat="46.8218570" lon="6.3742820">
        <ele>1052.6</ele>
        <time>2022-07-22T15:28:39Z</time>
      </trkpt>
      <trkpt lat="46.8217650" lon="6.3743240">
        <ele>1052.8</ele>
        <time>2022-07-22T15:28:46Z</time>
      </trkpt>
      <trkpt lat="46.8217330" lon="6.3743440">
        <ele>1053.2</ele>
        <time>2022-07-22T15:28:49Z</time>
      </trkpt>
      <trkpt lat="46.8216870" lon="6.3743640">
        <ele>1053.8</ele>
        <time>2022-07-22T15:28:53Z</time>
      </trkpt>
      <trkpt lat="46.8216420" lon="6.3743860">
        <ele>1054.4</ele>
        <time>2022-07-22T15:28:56Z</time>
      </trkpt>
      <trkpt lat="46.8215750" lon="6.3743980">
        <ele>1055.4</ele>
        <time>2022-07-22T15:29:01Z</time>
      </trkpt>
      <trkpt lat="46.8215620" lon="6.3744000">
        <ele>1055.4</ele>
        <time>2022-07-22T15:29:02Z</time>
      </trkpt>
      <trkpt lat="46.8214520" lon="6.3744570">
        <ele>1056.6</ele>
        <time>2022-07-22T15:29:10Z</time>
      </trkpt>
      <trkpt lat="46.8214080" lon="6.3744910">
        <ele>1056.8</ele>
        <time>2022-07-22T15:29:13Z</time>
      </trkpt>
      <trkpt lat="46.8213530" lon="6.3745410">
        <ele>1057.0</ele>
        <time>2022-07-22T15:29:17Z</time>
      </trkpt>
      <trkpt lat="46.8212930" lon="6.3745900">
        <ele>1057.6</ele>
        <time>2022-07-22T15:29:22Z</time>
      </trkpt>
      <trkpt lat="46.8212710" lon="6.3746110">
        <ele>1058.0</ele>
        <time>2022-07-22T15:29:24Z</time>
      </trkpt>
      <trkpt lat="46.8212070" lon="6.3746770">
        <ele>1058.6</ele>
        <time>2022-07-22T15:29:30Z</time>
      </trkpt>
      <trkpt lat="46.8211200" lon="6.3747900">
        <ele>1059.0</ele>
        <time>2022-07-22T15:29:36Z</time>
      </trkpt>
      <trkpt lat="46.8210510" lon="6.3748850">
        <ele>1059.6</ele>
        <time>2022-07-22T15:29:42Z</time>
      </trkpt>
      <trkpt lat="46.8210450" lon="6.3749330">
        <ele>1059.8</ele>
        <time>2022-07-22T15:29:45Z</time>
      </trkpt>
      <trkpt lat="46.8209870" lon="6.3750720">
        <ele>1060.8</ele>
        <time>2022-07-22T15:29:52Z</time>
      </trkpt>
      <trkpt lat="46.8209340" lon="6.3751830">
        <ele>1061.6</ele>
        <time>2022-07-22T15:29:57Z</time>
      </trkpt>
      <trkpt lat="46.8209190" lon="6.3752050">
        <ele>1061.8</ele>
        <time>2022-07-22T15:29:58Z</time>
      </trkpt>
      <trkpt lat="46.8208990" lon="6.3752440">
        <ele>1062.0</ele>
        <time>2022-07-22T15:30:00Z</time>
      </trkpt>
      <trkpt lat="46.8208770" lon="6.3752820">
        <ele>1062.2</ele>
        <time>2022-07-22T15:30:02Z</time>
      </trkpt>
      <trkpt lat="46.8208560" lon="6.3753300">
        <ele>1062.6</ele>
        <time>2022-07-22T15:30:05Z</time>
      </trkpt>
      <trkpt lat="46.8208400" lon="6.3753780">
        <ele>1062.8</ele>
        <time>2022-07-22T15:30:08Z</time>
      </trkpt>
      <trkpt lat="46.8207810" lon="6.3754810">
        <ele>1062.8</ele>
        <time>2022-07-22T15:30:13Z</time>
      </trkpt>
      <trkpt lat="46.8206670" lon="6.3756300">
        <ele>1063.2</ele>
        <time>2022-07-22T15:30:21Z</time>
      </trkpt>
      <trkpt lat="46.8206360" lon="6.3756740">
        <ele>1063.6</ele>
        <time>2022-07-22T15:30:24Z</time>
      </trkpt>
      <trkpt lat="46.8205910" lon="6.3757430">
        <ele>1064.2</ele>
        <time>2022-07-22T15:30:28Z</time>
      </trkpt>
      <trkpt lat="46.8205670" lon="6.3757870">
        <ele>1064.8</ele>
        <time>2022-07-22T15:30:31Z</time>
      </trkpt>
      <trkpt lat="46.8205500" lon="6.3758250">
        <ele>1064.8</ele>
        <time>2022-07-22T15:30:33Z</time>
      </trkpt>
      <trkpt lat="46.8205420" lon="6.3758440">
        <ele>1065.0</ele>
        <time>2022-07-22T15:30:34Z</time>
      </trkpt>
      <trkpt lat="46.8205150" lon="6.3758870">
        <ele>1065.4</ele>
        <time>2022-07-22T15:30:37Z</time>
      </trkpt>
      <trkpt lat="46.8204870" lon="6.3759290">
        <ele>1065.8</ele>
        <time>2022-07-22T15:30:40Z</time>
      </trkpt>
      <trkpt lat="46.8204390" lon="6.3760070">
        <ele>1066.8</ele>
        <time>2022-07-22T15:30:47Z</time>
      </trkpt>
      <trkpt lat="46.8203880" lon="6.3761020">
        <ele>1067.8</ele>
        <time>2022-07-22T15:30:54Z</time>
      </trkpt>
      <trkpt lat="46.8203700" lon="6.3761410">
        <ele>1068.2</ele>
        <time>2022-07-22T15:30:56Z</time>
      </trkpt>
      <trkpt lat="46.8203030" lon="6.3762500">
        <ele>1068.4</ele>
        <time>2022-07-22T15:31:05Z</time>
      </trkpt>
      <trkpt lat="46.8203000" lon="6.3762520">
        <ele>1068.6</ele>
        <time>2022-07-22T15:31:07Z</time>
      </trkpt>
      <trkpt lat="46.8202400" lon="6.3765110">
        <ele>1069.0</ele>
        <time>2022-07-22T15:31:50Z</time>
      </trkpt>
      <trkpt lat="46.8202150" lon="6.3765360">
        <ele>1069.2</ele>
        <time>2022-07-22T15:31:52Z</time>
      </trkpt>
      <trkpt lat="46.8201140" lon="6.3765790">
        <ele>1069.8</ele>
        <time>2022-07-22T15:31:58Z</time>
      </trkpt>
      <trkpt lat="46.8200530" lon="6.3765670">
        <ele>1070.0</ele>
        <time>2022-07-22T15:32:02Z</time>
      </trkpt>
      <trkpt lat="46.8200240" lon="6.3765550">
        <ele>1070.4</ele>
        <time>2022-07-22T15:32:04Z</time>
      </trkpt>
      <trkpt lat="46.8199770" lon="6.3765140">
        <ele>1071.4</ele>
        <time>2022-07-22T15:32:08Z</time>
      </trkpt>
      <trkpt lat="46.8199280" lon="6.3764660">
        <ele>1072.0</ele>
        <time>2022-07-22T15:32:12Z</time>
      </trkpt>
      <trkpt lat="46.8198740" lon="6.3764190">
        <ele>1072.4</ele>
        <time>2022-07-22T15:32:16Z</time>
      </trkpt>
      <trkpt lat="46.8198280" lon="6.3763650">
        <ele>1072.6</ele>
        <time>2022-07-22T15:32:20Z</time>
      </trkpt>
      <trkpt lat="46.8198180" lon="6.3761770">
        <ele>1073.2</ele>
        <time>2022-07-22T15:32:28Z</time>
      </trkpt>
      <trkpt lat="46.8198200" lon="6.3761490">
        <ele>1073.4</ele>
        <time>2022-07-22T15:32:29Z</time>
      </trkpt>
      <trkpt lat="46.8198140" lon="6.3759830">
        <ele>1073.8</ele>
        <time>2022-07-22T15:32:35Z</time>
      </trkpt>
      <trkpt lat="46.8198020" lon="6.3757820">
        <ele>1074.4</ele>
        <time>2022-07-22T15:32:41Z</time>
      </trkpt>
      <trkpt lat="46.8197970" lon="6.3757450">
        <ele>1074.6</ele>
        <time>2022-07-22T15:32:42Z</time>
      </trkpt>
      <trkpt lat="46.8197610" lon="6.3755760">
        <ele>1074.6</ele>
        <time>2022-07-22T15:32:47Z</time>
      </trkpt>
      <trkpt lat="46.8197410" lon="6.3753750">
        <ele>1074.8</ele>
        <time>2022-07-22T15:32:53Z</time>
      </trkpt>
      <trkpt lat="46.8197380" lon="6.3751810">
        <ele>1074.8</ele>
        <time>2022-07-22T15:32:59Z</time>
      </trkpt>
      <trkpt lat="46.8197320" lon="6.3750170">
        <ele>1075.4</ele>
        <time>2022-07-22T15:33:06Z</time>
      </trkpt>
      <trkpt lat="46.8197240" lon="6.3749940">
        <ele>1075.8</ele>
        <time>2022-07-22T15:33:07Z</time>
      </trkpt>
      <trkpt lat="46.8197160" lon="6.3749120">
        <ele>1076.4</ele>
        <time>2022-07-22T15:33:10Z</time>
      </trkpt>
      <trkpt lat="46.8196970" lon="6.3748350">
        <ele>1076.8</ele>
        <time>2022-07-22T15:33:13Z</time>
      </trkpt>
      <trkpt lat="46.8196190" lon="6.3745490">
        <ele>1077.0</ele>
        <time>2022-07-22T15:33:19Z</time>
      </trkpt>
      <trkpt lat="46.8195440" lon="6.3743090">
        <ele>1077.0</ele>
        <time>2022-07-22T15:33:23Z</time>
      </trkpt>
      <trkpt lat="46.8194890" lon="6.3741920">
        <ele>1077.0</ele>
        <time>2022-07-22T15:33:25Z</time>
      </trkpt>
      <trkpt lat="46.8193520" lon="6.3739780">
        <ele>1076.4</ele>
        <time>2022-07-22T15:33:29Z</time>
      </trkpt>
      <trkpt lat="46.8193150" lon="6.3739240">
        <ele>1076.2</ele>
        <time>2022-07-22T15:33:30Z</time>
      </trkpt>
      <trkpt lat="46.8191290" lon="6.3737770">
        <ele>1075.8</ele>
        <time>2022-07-22T15:33:34Z</time>
      </trkpt>
      <trkpt lat="46.8189420" lon="6.3736820">
        <ele>1075.0</ele>
        <time>2022-07-22T15:33:38Z</time>
      </trkpt>
      <trkpt lat="46.8188530" lon="6.3736370">
        <ele>1074.8</ele>
        <time>2022-07-22T15:33:40Z</time>
      </trkpt>
      <trkpt lat="46.8186170" lon="6.3735270">
        <ele>1074.4</ele>
        <time>2022-07-22T15:33:45Z</time>
      </trkpt>
      <trkpt lat="46.8184260" lon="6.3734420">
        <ele>1074.4</ele>
        <time>2022-07-22T15:33:49Z</time>
      </trkpt>
      <trkpt lat="46.8183800" lon="6.3734240">
        <ele>1074.2</ele>
        <time>2022-07-22T15:33:50Z</time>
      </trkpt>
      <trkpt lat="46.8183390" lon="6.3734010">
        <ele>1074.2</ele>
        <time>2022-07-22T15:33:51Z</time>
      </trkpt>
      <trkpt lat="46.8182050" lon="6.3733410">
        <ele>1074.2</ele>
        <time>2022-07-22T15:33:54Z</time>
      </trkpt>
      <trkpt lat="46.8181670" lon="6.3733290">
        <ele>1074.2</ele>
        <time>2022-07-22T15:33:55Z</time>
      </trkpt>
      <trkpt lat="46.8179300" lon="6.3732250">
        <ele>1074.2</ele>
        <time>2022-07-22T15:34:02Z</time>
      </trkpt>
      <trkpt lat="46.8178150" lon="6.3731960">
        <ele>1074.4</ele>
        <time>2022-07-22T15:34:07Z</time>
      </trkpt>
      <trkpt lat="46.8177170" lon="6.3731670">
        <ele>1075.2</ele>
        <time>2022-07-22T15:34:13Z</time>
      </trkpt>
      <trkpt lat="46.8176290" lon="6.3731740">
        <ele>1075.8</ele>
        <time>2022-07-22T15:34:17Z</time>
      </trkpt>
      <trkpt lat="46.8175640" lon="6.3731790">
        <ele>1076.4</ele>
        <time>2022-07-22T15:34:20Z</time>
      </trkpt>
      <trkpt lat="46.8174870" lon="6.3731910">
        <ele>1077.0</ele>
        <time>2022-07-22T15:34:23Z</time>
      </trkpt>
      <trkpt lat="46.8174040" lon="6.3731890">
        <ele>1077.8</ele>
        <time>2022-07-22T15:34:27Z</time>
      </trkpt>
      <trkpt lat="46.8173610" lon="6.3731950">
        <ele>1078.0</ele>
        <time>2022-07-22T15:34:29Z</time>
      </trkpt>
      <trkpt lat="46.8172720" lon="6.3731860">
        <ele>1078.2</ele>
        <time>2022-07-22T15:34:33Z</time>
      </trkpt>
      <trkpt lat="46.8171390" lon="6.3731240">
        <ele>1078.4</ele>
        <time>2022-07-22T15:34:38Z</time>
      </trkpt>
      <trkpt lat="46.8169630" lon="6.3730880">
        <ele>1078.4</ele>
        <time>2022-07-22T15:34:43Z</time>
      </trkpt>
      <trkpt lat="46.8167800" lon="6.3730630">
        <ele>1078.4</ele>
        <time>2022-07-22T15:34:47Z</time>
      </trkpt>
      <trkpt lat="46.8167240" lon="6.3730650">
        <ele>1078.4</ele>
        <time>2022-07-22T15:34:48Z</time>
      </trkpt>
      <trkpt lat="46.8164740" lon="6.3730660">
        <ele>1078.0</ele>
        <time>2022-07-22T15:34:53Z</time>
      </trkpt>
      <trkpt lat="46.8164260" lon="6.3730680">
        <ele>1077.8</ele>
        <time>2022-07-22T15:34:54Z</time>
      </trkpt>
      <trkpt lat="46.8161670" lon="6.3730960">
        <ele>1076.8</ele>
        <time>2022-07-22T15:34:59Z</time>
      </trkpt>
      <trkpt lat="46.8158290" lon="6.3732050">
        <ele>1075.8</ele>
        <time>2022-07-22T15:35:05Z</time>
      </trkpt>
      <trkpt lat="46.8155250" lon="6.3732970">
        <ele>1075.4</ele>
        <time>2022-07-22T15:35:11Z</time>
      </trkpt>
      <trkpt lat="46.8152560" lon="6.3733850">
        <ele>1075.4</ele>
        <time>2022-07-22T15:35:17Z</time>
      </trkpt>
      <trkpt lat="46.8150680" lon="6.3734070">
        <ele>1075.2</ele>
        <time>2022-07-22T15:35:22Z</time>
      </trkpt>
      <trkpt lat="46.8148440" lon="6.3734170">
        <ele>1075.4</ele>
        <time>2022-07-22T15:35:27Z</time>
      </trkpt>
      <trkpt lat="46.8144820" lon="6.3734120">
        <ele>1075.2</ele>
        <time>2022-07-22T15:35:34Z</time>
      </trkpt>
      <trkpt lat="46.8143330" lon="6.3733970">
        <ele>1074.4</ele>
        <time>2022-07-22T15:35:37Z</time>
      </trkpt>
      <trkpt lat="46.8141260" lon="6.3733580">
        <ele>1073.6</ele>
        <time>2022-07-22T15:35:41Z</time>
      </trkpt>
      <trkpt lat="46.8140720" lon="6.3733440">
        <ele>1073.4</ele>
        <time>2022-07-22T15:35:42Z</time>
      </trkpt>
      <trkpt lat="46.8137450" lon="6.3732220">
        <ele>1072.6</ele>
        <time>2022-07-22T15:35:48Z</time>
      </trkpt>
      <trkpt lat="46.8136920" lon="6.3731830">
        <ele>1072.4</ele>
        <time>2022-07-22T15:35:49Z</time>
      </trkpt>
      <trkpt lat="46.8134170" lon="6.3729210">
        <ele>1071.4</ele>
        <time>2022-07-22T15:35:55Z</time>
      </trkpt>
      <trkpt lat="46.8131640" lon="6.3726560">
        <ele>1070.4</ele>
        <time>2022-07-22T15:36:00Z</time>
      </trkpt>
      <trkpt lat="46.8131130" lon="6.3726020">
        <ele>1070.4</ele>
        <time>2022-07-22T15:36:01Z</time>
      </trkpt>
      <trkpt lat="46.8127530" lon="6.3722270">
        <ele>1069.6</ele>
        <time>2022-07-22T15:36:09Z</time>
      </trkpt>
      <trkpt lat="46.8125680" lon="6.3720340">
        <ele>1069.6</ele>
        <time>2022-07-22T15:36:15Z</time>
      </trkpt>
      <trkpt lat="46.8123180" lon="6.3717570">
        <ele>1070.8</ele>
        <time>2022-07-22T15:36:24Z</time>
      </trkpt>
      <trkpt lat="46.8120330" lon="6.3714610">
        <ele>1071.0</ele>
        <time>2022-07-22T15:36:32Z</time>
      </trkpt>
      <trkpt lat="46.8116960" lon="6.3712650">
        <ele>1071.2</ele>
        <time>2022-07-22T15:36:40Z</time>
      </trkpt>
      <trkpt lat="46.8111570" lon="6.3710620">
        <ele>1070.8</ele>
        <time>2022-07-22T15:36:51Z</time>
      </trkpt>
      <trkpt lat="46.8107430" lon="6.3709370">
        <ele>1070.4</ele>
        <time>2022-07-22T15:36:58Z</time>
      </trkpt>
      <trkpt lat="46.8104370" lon="6.3708830">
        <ele>1069.4</ele>
        <time>2022-07-22T15:37:02Z</time>
      </trkpt>
      <trkpt lat="46.8103530" lon="6.3708600">
        <ele>1069.2</ele>
        <time>2022-07-22T15:37:03Z</time>
      </trkpt>
      <trkpt lat="46.8100820" lon="6.3707650">
        <ele>1068.2</ele>
        <time>2022-07-22T15:37:06Z</time>
      </trkpt>
      <trkpt lat="46.8099050" lon="6.3706680">
        <ele>1067.6</ele>
        <time>2022-07-22T15:37:08Z</time>
      </trkpt>
      <trkpt lat="46.8097350" lon="6.3705760">
        <ele>1066.8</ele>
        <time>2022-07-22T15:37:10Z</time>
      </trkpt>
      <trkpt lat="46.8095090" lon="6.3704720">
        <ele>1065.4</ele>
        <time>2022-07-22T15:37:13Z</time>
      </trkpt>
      <trkpt lat="46.8093100" lon="6.3704080">
        <ele>1063.8</ele>
        <time>2022-07-22T15:37:16Z</time>
      </trkpt>
      <trkpt lat="46.8091790" lon="6.3703720">
        <ele>1063.4</ele>
        <time>2022-07-22T15:37:18Z</time>
      </trkpt>
      <trkpt lat="46.8088360" lon="6.3702780">
        <ele>1063.0</ele>
        <time>2022-07-22T15:37:23Z</time>
      </trkpt>
      <trkpt lat="46.8087150" lon="6.3702400">
        <ele>1062.8</ele>
        <time>2022-07-22T15:37:25Z</time>
      </trkpt>
      <trkpt lat="46.8085310" lon="6.3702110">
        <ele>1062.4</ele>
        <time>2022-07-22T15:37:28Z</time>
      </trkpt>
      <trkpt lat="46.8084800" lon="6.3701950">
        <ele>1062.2</ele>
        <time>2022-07-22T15:37:29Z</time>
      </trkpt>
      <trkpt lat="46.8083690" lon="6.3701450">
        <ele>1062.2</ele>
        <time>2022-07-22T15:37:31Z</time>
      </trkpt>
      <trkpt lat="46.8082750" lon="6.3700970">
        <ele>1062.0</ele>
        <time>2022-07-22T15:37:33Z</time>
      </trkpt>
      <trkpt lat="46.8081890" lon="6.3700450">
        <ele>1062.0</ele>
        <time>2022-07-22T15:37:35Z</time>
      </trkpt>
      <trkpt lat="46.8079550" lon="6.3698940">
        <ele>1062.2</ele>
        <time>2022-07-22T15:37:40Z</time>
      </trkpt>
      <trkpt lat="46.8078620" lon="6.3698190">
        <ele>1062.2</ele>
        <time>2022-07-22T15:37:42Z</time>
      </trkpt>
      <trkpt lat="46.8077280" lon="6.3697040">
        <ele>1062.0</ele>
        <time>2022-07-22T15:37:45Z</time>
      </trkpt>
      <trkpt lat="46.8075420" lon="6.3695950">
        <ele>1062.2</ele>
        <time>2022-07-22T15:37:50Z</time>
      </trkpt>
      <trkpt lat="46.8072960" lon="6.3695510">
        <ele>1062.8</ele>
        <time>2022-07-22T15:37:57Z</time>
      </trkpt>
      <trkpt lat="46.8071010" lon="6.3695760">
        <ele>1064.0</ele>
        <time>2022-07-22T15:38:02Z</time>
      </trkpt>
      <trkpt lat="46.8069440" lon="6.3696110">
        <ele>1064.4</ele>
        <time>2022-07-22T15:38:06Z</time>
      </trkpt>
      <trkpt lat="46.8066650" lon="6.3696780">
        <ele>1064.8</ele>
        <time>2022-07-22T15:38:14Z</time>
      </trkpt>
      <trkpt lat="46.8065990" lon="6.3696700">
        <ele>1065.0</ele>
        <time>2022-07-22T15:38:16Z</time>
      </trkpt>
      <trkpt lat="46.8064590" lon="6.3696380">
        <ele>1065.2</ele>
        <time>2022-07-22T15:38:20Z</time>
      </trkpt>
      <trkpt lat="46.8062290" lon="6.3696580">
        <ele>1065.2</ele>
        <time>2022-07-22T15:38:26Z</time>
      </trkpt>
      <trkpt lat="46.8060380" lon="6.3697880">
        <ele>1065.4</ele>
        <time>2022-07-22T15:38:31Z</time>
      </trkpt>
      <trkpt lat="46.8058780" lon="6.3699260">
        <ele>1065.4</ele>
        <time>2022-07-22T15:38:36Z</time>
      </trkpt>
      <trkpt lat="46.8056240" lon="6.3701920">
        <ele>1065.6</ele>
        <time>2022-07-22T15:38:43Z</time>
      </trkpt>
      <trkpt lat="46.8055790" lon="6.3702230">
        <ele>1065.6</ele>
        <time>2022-07-22T15:38:44Z</time>
      </trkpt>
      <trkpt lat="46.8054060" lon="6.3703100">
        <ele>1065.6</ele>
        <time>2022-07-22T15:38:48Z</time>
      </trkpt>
      <trkpt lat="46.8053550" lon="6.3703270">
        <ele>1065.6</ele>
        <time>2022-07-22T15:38:49Z</time>
      </trkpt>
      <trkpt lat="46.8050180" lon="6.3704400">
        <ele>1065.6</ele>
        <time>2022-07-22T15:38:54Z</time>
      </trkpt>
      <trkpt lat="46.8046730" lon="6.3706280">
        <ele>1064.4</ele>
        <time>2022-07-22T15:38:58Z</time>
      </trkpt>
      <trkpt lat="46.8045760" lon="6.3706640">
        <ele>1063.4</ele>
        <time>2022-07-22T15:38:59Z</time>
      </trkpt>
      <trkpt lat="46.8043310" lon="6.3706810">
        <ele>1062.2</ele>
        <time>2022-07-22T15:39:01Z</time>
      </trkpt>
      <trkpt lat="46.8041070" lon="6.3706890">
        <ele>1060.6</ele>
        <time>2022-07-22T15:39:03Z</time>
      </trkpt>
      <trkpt lat="46.8038880" lon="6.3706790">
        <ele>1059.0</ele>
        <time>2022-07-22T15:39:05Z</time>
      </trkpt>
      <trkpt lat="46.8036660" lon="6.3706350">
        <ele>1057.4</ele>
        <time>2022-07-22T15:39:07Z</time>
      </trkpt>
      <trkpt lat="46.8034650" lon="6.3705280">
        <ele>1056.2</ele>
        <time>2022-07-22T15:39:09Z</time>
      </trkpt>
      <trkpt lat="46.8033710" lon="6.3704550">
        <ele>1055.4</ele>
        <time>2022-07-22T15:39:10Z</time>
      </trkpt>
      <trkpt lat="46.8032760" lon="6.3703810">
        <ele>1054.6</ele>
        <time>2022-07-22T15:39:11Z</time>
      </trkpt>
      <trkpt lat="46.8031780" lon="6.3703180">
        <ele>1053.8</ele>
        <time>2022-07-22T15:39:12Z</time>
      </trkpt>
      <trkpt lat="46.8030750" lon="6.3702730">
        <ele>1053.0</ele>
        <time>2022-07-22T15:39:13Z</time>
      </trkpt>
      <trkpt lat="46.8029730" lon="6.3702430">
        <ele>1052.4</ele>
        <time>2022-07-22T15:39:14Z</time>
      </trkpt>
      <trkpt lat="46.8028680" lon="6.3702340">
        <ele>1051.8</ele>
        <time>2022-07-22T15:39:15Z</time>
      </trkpt>
      <trkpt lat="46.8026620" lon="6.3702440">
        <ele>1050.4</ele>
        <time>2022-07-22T15:39:17Z</time>
      </trkpt>
      <trkpt lat="46.8025580" lon="6.3702520">
        <ele>1049.8</ele>
        <time>2022-07-22T15:39:18Z</time>
      </trkpt>
      <trkpt lat="46.8023510" lon="6.3702610">
        <ele>1049.0</ele>
        <time>2022-07-22T15:39:20Z</time>
      </trkpt>
      <trkpt lat="46.8021440" lon="6.3702580">
        <ele>1048.2</ele>
        <time>2022-07-22T15:39:22Z</time>
      </trkpt>
      <trkpt lat="46.8018440" lon="6.3702160">
        <ele>1046.8</ele>
        <time>2022-07-22T15:39:25Z</time>
      </trkpt>
      <trkpt lat="46.8015580" lon="6.3701360">
        <ele>1045.4</ele>
        <time>2022-07-22T15:39:28Z</time>
      </trkpt>
      <trkpt lat="46.8011860" lon="6.3700020">
        <ele>1044.2</ele>
        <time>2022-07-22T15:39:32Z</time>
      </trkpt>
      <trkpt lat="46.8008270" lon="6.3698580">
        <ele>1043.0</ele>
        <time>2022-07-22T15:39:36Z</time>
      </trkpt>
      <trkpt lat="46.8005000" lon="6.3697220">
        <ele>1041.8</ele>
        <time>2022-07-22T15:39:40Z</time>
      </trkpt>
      <trkpt lat="46.8001350" lon="6.3695880">
        <ele>1040.8</ele>
        <time>2022-07-22T15:39:45Z</time>
      </trkpt>
      <trkpt lat="46.7998520" lon="6.3695040">
        <ele>1040.6</ele>
        <time>2022-07-22T15:39:49Z</time>
      </trkpt>
      <trkpt lat="46.7996460" lon="6.3694750">
        <ele>1040.4</ele>
        <time>2022-07-22T15:39:52Z</time>
      </trkpt>
      <trkpt lat="46.7995060" lon="6.3695190">
        <ele>1040.4</ele>
        <time>2022-07-22T15:39:54Z</time>
      </trkpt>
      <trkpt lat="46.7993160" lon="6.3697250">
        <ele>1040.2</ele>
        <time>2022-07-22T15:39:57Z</time>
      </trkpt>
      <trkpt lat="46.7992590" lon="6.3698160">
        <ele>1040.2</ele>
        <time>2022-07-22T15:39:58Z</time>
      </trkpt>
      <trkpt lat="46.7990330" lon="6.3701970">
        <ele>1039.6</ele>
        <time>2022-07-22T15:40:02Z</time>
      </trkpt>
      <trkpt lat="46.7988710" lon="6.3704620">
        <ele>1038.6</ele>
        <time>2022-07-22T15:40:05Z</time>
      </trkpt>
      <trkpt lat="46.7986940" lon="6.3706760">
        <ele>1037.4</ele>
        <time>2022-07-22T15:40:08Z</time>
      </trkpt>
      <trkpt lat="46.7985630" lon="6.3707900">
        <ele>1037.0</ele>
        <time>2022-07-22T15:40:10Z</time>
      </trkpt>
      <trkpt lat="46.7983080" lon="6.3709870">
        <ele>1036.6</ele>
        <time>2022-07-22T15:40:14Z</time>
      </trkpt>
      <trkpt lat="46.7981400" lon="6.3711330">
        <ele>1036.2</ele>
        <time>2022-07-22T15:40:17Z</time>
      </trkpt>
      <trkpt lat="46.7978890" lon="6.3714090">
        <ele>1035.8</ele>
        <time>2022-07-22T15:40:22Z</time>
      </trkpt>
      <trkpt lat="46.7978290" lon="6.3714540">
        <ele>1035.8</ele>
        <time>2022-07-22T15:40:23Z</time>
      </trkpt>
      <trkpt lat="46.7976990" lon="6.3715260">
        <ele>1035.6</ele>
        <time>2022-07-22T15:40:25Z</time>
      </trkpt>
      <trkpt lat="46.7972950" lon="6.3717280">
        <ele>1035.4</ele>
        <time>2022-07-22T15:40:31Z</time>
      </trkpt>
      <trkpt lat="46.7969390" lon="6.3718780">
        <ele>1034.8</ele>
        <time>2022-07-22T15:40:37Z</time>
      </trkpt>
      <trkpt lat="46.7968870" lon="6.3718990">
        <ele>1034.8</ele>
        <time>2022-07-22T15:40:38Z</time>
      </trkpt>
      <trkpt lat="46.7968120" lon="6.3719840">
        <ele>1034.6</ele>
        <time>2022-07-22T15:40:40Z</time>
      </trkpt>
      <trkpt lat="46.7967870" lon="6.3721800">
        <ele>1034.2</ele>
        <time>2022-07-22T15:40:43Z</time>
      </trkpt>
      <trkpt lat="46.7967940" lon="6.3722500">
        <ele>1034.2</ele>
        <time>2022-07-22T15:40:44Z</time>
      </trkpt>
      <trkpt lat="46.7968260" lon="6.3726270">
        <ele>1034.2</ele>
        <time>2022-07-22T15:40:50Z</time>
      </trkpt>
      <trkpt lat="46.7968190" lon="6.3729050">
        <ele>1034.6</ele>
        <time>2022-07-22T15:40:56Z</time>
      </trkpt>
      <trkpt lat="46.7967560" lon="6.3730260">
        <ele>1035.4</ele>
        <time>2022-07-22T15:41:01Z</time>
      </trkpt>
      <trkpt lat="46.7966920" lon="6.3730690">
        <ele>1035.8</ele>
        <time>2022-07-22T15:41:04Z</time>
      </trkpt>
      <trkpt lat="46.7965830" lon="6.3731310">
        <ele>1036.6</ele>
        <time>2022-07-22T15:41:09Z</time>
      </trkpt>
      <trkpt lat="46.7964740" lon="6.3731470">
        <ele>1037.2</ele>
        <time>2022-07-22T15:41:13Z</time>
      </trkpt>
      <trkpt lat="46.7964150" lon="6.3731780">
        <ele>1037.4</ele>
        <time>2022-07-22T15:41:15Z</time>
      </trkpt>
      <trkpt lat="46.7962260" lon="6.3733530">
        <ele>1037.6</ele>
        <time>2022-07-22T15:41:22Z</time>
      </trkpt>
      <trkpt lat="46.7961190" lon="6.3734940">
        <ele>1037.8</ele>
        <time>2022-07-22T15:41:28Z</time>
      </trkpt>
      <trkpt lat="46.7960880" lon="6.3735780">
        <ele>1038.2</ele>
        <time>2022-07-22T15:41:32Z</time>
      </trkpt>
      <trkpt lat="46.7960740" lon="6.3736090">
        <ele>1038.6</ele>
        <time>2022-07-22T15:41:34Z</time>
      </trkpt>
      <trkpt lat="46.7960200" lon="6.3736520">
        <ele>1039.4</ele>
        <time>2022-07-22T15:41:38Z</time>
      </trkpt>
      <trkpt lat="46.7959870" lon="6.3736830">
        <ele>1039.8</ele>
        <time>2022-07-22T15:41:40Z</time>
      </trkpt>
      <trkpt lat="46.7959060" lon="6.3738450">
        <ele>1040.0</ele>
        <time>2022-07-22T15:41:47Z</time>
      </trkpt>
      <trkpt lat="46.7959060" lon="6.3738560">
        <ele>1040.0</ele>
        <time>2022-07-22T15:41:49Z</time>
      </trkpt>
      <trkpt lat="46.7959180" lon="6.3742510">
        <ele>1042.0</ele>
        <time>2022-07-22T15:42:33Z</time>
      </trkpt>
      <trkpt lat="46.7959150" lon="6.3742670">
        <ele>1042.0</ele>
        <time>2022-07-22T15:42:34Z</time>
      </trkpt>
      <trkpt lat="46.7959060" lon="6.3744310">
        <ele>1043.0</ele>
        <time>2022-07-22T15:42:43Z</time>
      </trkpt>
      <trkpt lat="46.7959030" lon="6.3744900">
        <ele>1043.2</ele>
        <time>2022-07-22T15:42:47Z</time>
      </trkpt>
      <trkpt lat="46.7959060" lon="6.3745620">
        <ele>1043.8</ele>
        <time>2022-07-22T15:42:52Z</time>
      </trkpt>
      <trkpt lat="46.7959110" lon="6.3746150">
        <ele>1044.2</ele>
        <time>2022-07-22T15:42:56Z</time>
      </trkpt>
      <trkpt lat="46.7959160" lon="6.3746690">
        <ele>1045.2</ele>
        <time>2022-07-22T15:43:01Z</time>
      </trkpt>
      <trkpt lat="46.7959200" lon="6.3746960">
        <ele>1045.2</ele>
        <time>2022-07-22T15:43:03Z</time>
      </trkpt>
      <trkpt lat="46.7959250" lon="6.3747710">
        <ele>1046.2</ele>
        <time>2022-07-22T15:43:09Z</time>
      </trkpt>
      <trkpt lat="46.7959300" lon="6.3747960">
        <ele>1046.4</ele>
        <time>2022-07-22T15:43:11Z</time>
      </trkpt>
      <trkpt lat="46.7959370" lon="6.3748750">
        <ele>1047.4</ele>
        <time>2022-07-22T15:43:17Z</time>
      </trkpt>
      <trkpt lat="46.7959400" lon="6.3748860">
        <ele>1047.6</ele>
        <time>2022-07-22T15:43:18Z</time>
      </trkpt>
      <trkpt lat="46.7959390" lon="6.3749550">
        <ele>1048.6</ele>
        <time>2022-07-22T15:43:23Z</time>
      </trkpt>
      <trkpt lat="46.7959400" lon="6.3750230">
        <ele>1049.4</ele>
        <time>2022-07-22T15:43:28Z</time>
      </trkpt>
      <trkpt lat="46.7959340" lon="6.3750560">
        <ele>1049.8</ele>
        <time>2022-07-22T15:43:31Z</time>
      </trkpt>
      <trkpt lat="46.7959310" lon="6.3750680">
        <ele>1050.0</ele>
        <time>2022-07-22T15:43:32Z</time>
      </trkpt>
      <trkpt lat="46.7959370" lon="6.3751330">
        <ele>1051.0</ele>
        <time>2022-07-22T15:43:37Z</time>
      </trkpt>
      <trkpt lat="46.7959410" lon="6.3751660">
        <ele>1051.2</ele>
        <time>2022-07-22T15:43:40Z</time>
      </trkpt>
      <trkpt lat="46.7959450" lon="6.3752200">
        <ele>1052.2</ele>
        <time>2022-07-22T15:43:45Z</time>
      </trkpt>
      <trkpt lat="46.7959440" lon="6.3752570">
        <ele>1052.8</ele>
        <time>2022-07-22T15:43:48Z</time>
      </trkpt>
      <trkpt lat="46.7959430" lon="6.3752710">
        <ele>1053.0</ele>
        <time>2022-07-22T15:43:49Z</time>
      </trkpt>
      <trkpt lat="46.7959400" lon="6.3752860">
        <ele>1053.2</ele>
        <time>2022-07-22T15:43:50Z</time>
      </trkpt>
      <trkpt lat="46.7959330" lon="6.3753250">
        <ele>1053.6</ele>
        <time>2022-07-22T15:43:53Z</time>
      </trkpt>
      <trkpt lat="46.7959320" lon="6.3753360">
        <ele>1053.8</ele>
        <time>2022-07-22T15:43:55Z</time>
      </trkpt>
      <trkpt lat="46.7959320" lon="6.3753380">
        <ele>1054.0</ele>
        <time>2022-07-22T15:43:56Z</time>
      </trkpt>
      <trkpt lat="46.7957750" lon="6.3757320">
        <ele>1060.2</ele>
        <time>2022-07-22T15:45:10Z</time>
      </trkpt>
      <trkpt lat="46.7957220" lon="6.3757500">
        <ele>1060.2</ele>
        <time>2022-07-22T15:45:13Z</time>
      </trkpt>
      <trkpt lat="46.7956370" lon="6.3757800">
        <ele>1060.2</ele>
        <time>2022-07-22T15:45:18Z</time>
      </trkpt>
      <trkpt lat="46.7955130" lon="6.3758160">
        <ele>1061.0</ele>
        <time>2022-07-22T15:45:24Z</time>
      </trkpt>
      <trkpt lat="46.7954350" lon="6.3758240">
        <ele>1061.2</ele>
        <time>2022-07-22T15:45:27Z</time>
      </trkpt>
      <trkpt lat="46.7953620" lon="6.3758310">
        <ele>1061.4</ele>
        <time>2022-07-22T15:45:30Z</time>
      </trkpt>
      <trkpt lat="46.7951700" lon="6.3757950">
        <ele>1061.4</ele>
        <time>2022-07-22T15:45:37Z</time>
      </trkpt>
      <trkpt lat="46.7949610" lon="6.3757700">
        <ele>1061.6</ele>
        <time>2022-07-22T15:45:43Z</time>
      </trkpt>
      <trkpt lat="46.7947430" lon="6.3757180">
        <ele>1061.2</ele>
        <time>2022-07-22T15:45:48Z</time>
      </trkpt>
      <trkpt lat="46.7945120" lon="6.3756400">
        <ele>1060.8</ele>
        <time>2022-07-22T15:45:53Z</time>
      </trkpt>
      <trkpt lat="46.7944140" lon="6.3756270">
        <ele>1060.4</ele>
        <time>2022-07-22T15:45:55Z</time>
      </trkpt>
      <trkpt lat="46.7943350" lon="6.3756210">
        <ele>1059.8</ele>
        <time>2022-07-22T15:45:57Z</time>
      </trkpt>
      <trkpt lat="46.7942440" lon="6.3756280">
        <ele>1059.4</ele>
        <time>2022-07-22T15:45:59Z</time>
      </trkpt>
      <trkpt lat="46.7940580" lon="6.3756630">
        <ele>1059.0</ele>
        <time>2022-07-22T15:46:04Z</time>
      </trkpt>
      <trkpt lat="46.7939330" lon="6.3757060">
        <ele>1059.0</ele>
        <time>2022-07-22T15:46:10Z</time>
      </trkpt>
      <trkpt lat="46.7937910" lon="6.3757230">
        <ele>1060.2</ele>
        <time>2022-07-22T15:46:16Z</time>
      </trkpt>
      <trkpt lat="46.7936650" lon="6.3757410">
        <ele>1060.6</ele>
        <time>2022-07-22T15:46:23Z</time>
      </trkpt>
      <trkpt lat="46.7936450" lon="6.3757410">
        <ele>1061.0</ele>
        <time>2022-07-22T15:46:25Z</time>
      </trkpt>
      <trkpt lat="46.7936310" lon="6.3757500">
        <ele>1061.2</ele>
        <time>2022-07-22T15:46:26Z</time>
      </trkpt>
      <trkpt lat="46.7935990" lon="6.3757700">
        <ele>1061.6</ele>
        <time>2022-07-22T15:46:29Z</time>
      </trkpt>
      <trkpt lat="46.7935300" lon="6.3758080">
        <ele>1062.0</ele>
        <time>2022-07-22T15:46:34Z</time>
      </trkpt>
      <trkpt lat="46.7935140" lon="6.3758020">
        <ele>1062.4</ele>
        <time>2022-07-22T15:46:35Z</time>
      </trkpt>
      <trkpt lat="46.7934870" lon="6.3757970">
        <ele>1062.8</ele>
        <time>2022-07-22T15:46:37Z</time>
      </trkpt>
      <trkpt lat="46.7934500" lon="6.3757990">
        <ele>1063.2</ele>
        <time>2022-07-22T15:46:39Z</time>
      </trkpt>
      <trkpt lat="46.7933790" lon="6.3758070">
        <ele>1064.0</ele>
        <time>2022-07-22T15:46:42Z</time>
      </trkpt>
      <trkpt lat="46.7933230" lon="6.3757910">
        <ele>1064.2</ele>
        <time>2022-07-22T15:46:44Z</time>
      </trkpt>
      <trkpt lat="46.7932190" lon="6.3757510">
        <ele>1064.4</ele>
        <time>2022-07-22T15:46:47Z</time>
      </trkpt>
      <trkpt lat="46.7929520" lon="6.3756620">
        <ele>1064.4</ele>
        <time>2022-07-22T15:46:52Z</time>
      </trkpt>
      <trkpt lat="46.7926470" lon="6.3755540">
        <ele>1064.0</ele>
        <time>2022-07-22T15:46:56Z</time>
      </trkpt>
      <trkpt lat="46.7922310" lon="6.3754190">
        <ele>1063.0</ele>
        <time>2022-07-22T15:47:01Z</time>
      </trkpt>
      <trkpt lat="46.7919810" lon="6.3753550">
        <ele>1061.6</ele>
        <time>2022-07-22T15:47:04Z</time>
      </trkpt>
      <trkpt lat="46.7917330" lon="6.3752940">
        <ele>1060.2</ele>
        <time>2022-07-22T15:47:07Z</time>
      </trkpt>
      <trkpt lat="46.7915780" lon="6.3752590">
        <ele>1059.2</ele>
        <time>2022-07-22T15:47:09Z</time>
      </trkpt>
      <trkpt lat="46.7914470" lon="6.3752040">
        <ele>1057.8</ele>
        <time>2022-07-22T15:47:11Z</time>
      </trkpt>
      <trkpt lat="46.7913380" lon="6.3751540">
        <ele>1057.0</ele>
        <time>2022-07-22T15:47:13Z</time>
      </trkpt>
      <trkpt lat="46.7912900" lon="6.3751280">
        <ele>1055.8</ele>
        <time>2022-07-22T15:47:14Z</time>
      </trkpt>
      <trkpt lat="46.7911970" lon="6.3750890">
        <ele>1054.4</ele>
        <time>2022-07-22T15:47:16Z</time>
      </trkpt>
      <trkpt lat="46.7911020" lon="6.3750690">
        <ele>1053.0</ele>
        <time>2022-07-22T15:47:18Z</time>
      </trkpt>
      <trkpt lat="46.7910150" lon="6.3750670">
        <ele>1051.8</ele>
        <time>2022-07-22T15:47:20Z</time>
      </trkpt>
      <trkpt lat="46.7909810" lon="6.3750780">
        <ele>1051.4</ele>
        <time>2022-07-22T15:47:21Z</time>
      </trkpt>
      <trkpt lat="46.7909410" lon="6.3751020">
        <ele>1050.8</ele>
        <time>2022-07-22T15:47:23Z</time>
      </trkpt>
      <trkpt lat="46.7909050" lon="6.3751220">
        <ele>1050.6</ele>
        <time>2022-07-22T15:47:25Z</time>
      </trkpt>
      <trkpt lat="46.7907870" lon="6.3751500">
        <ele>1050.6</ele>
        <time>2022-07-22T15:47:32Z</time>
      </trkpt>
      <trkpt lat="46.7906850" lon="6.3751640">
        <ele>1051.8</ele>
        <time>2022-07-22T15:47:39Z</time>
      </trkpt>
      <trkpt lat="46.7906720" lon="6.3751660">
        <ele>1052.0</ele>
        <time>2022-07-22T15:47:40Z</time>
      </trkpt>
      <trkpt lat="46.7906220" lon="6.3751780">
        <ele>1053.0</ele>
        <time>2022-07-22T15:47:44Z</time>
      </trkpt>
      <trkpt lat="46.7905730" lon="6.3751910">
        <ele>1053.8</ele>
        <time>2022-07-22T15:47:48Z</time>
      </trkpt>
      <trkpt lat="46.7905490" lon="6.3752020">
        <ele>1054.2</ele>
        <time>2022-07-22T15:47:50Z</time>
      </trkpt>
      <trkpt lat="46.7904780" lon="6.3752260">
        <ele>1055.2</ele>
        <time>2022-07-22T15:47:56Z</time>
      </trkpt>
      <trkpt lat="46.7904590" lon="6.3752330">
        <ele>1055.6</ele>
        <time>2022-07-22T15:47:58Z</time>
      </trkpt>
      <trkpt lat="46.7904360" lon="6.3752410">
        <ele>1055.8</ele>
        <time>2022-07-22T15:48:00Z</time>
      </trkpt>
      <trkpt lat="46.7903950" lon="6.3752420">
        <ele>1056.2</ele>
        <time>2022-07-22T15:48:03Z</time>
      </trkpt>
      <trkpt lat="46.7903810" lon="6.3752400">
        <ele>1056.4</ele>
        <time>2022-07-22T15:48:04Z</time>
      </trkpt>
      <trkpt lat="46.7903570" lon="6.3752420">
        <ele>1056.8</ele>
        <time>2022-07-22T15:48:06Z</time>
      </trkpt>
      <trkpt lat="46.7903320" lon="6.3752400">
        <ele>1057.4</ele>
        <time>2022-07-22T15:48:09Z</time>
      </trkpt>
      <trkpt lat="46.7903110" lon="6.3752420">
        <ele>1057.6</ele>
        <time>2022-07-22T15:48:11Z</time>
      </trkpt>
      <trkpt lat="46.7902630" lon="6.3752490">
        <ele>1058.4</ele>
        <time>2022-07-22T15:48:16Z</time>
      </trkpt>
      <trkpt lat="46.7902410" lon="6.3752510">
        <ele>1058.6</ele>
        <time>2022-07-22T15:48:18Z</time>
      </trkpt>
      <trkpt lat="46.7901680" lon="6.3752700">
        <ele>1059.4</ele>
        <time>2022-07-22T15:48:24Z</time>
      </trkpt>
      <trkpt lat="46.7901410" lon="6.3752730">
        <ele>1059.6</ele>
        <time>2022-07-22T15:48:26Z</time>
      </trkpt>
      <trkpt lat="46.7900450" lon="6.3752820">
        <ele>1060.4</ele>
        <time>2022-07-22T15:48:33Z</time>
      </trkpt>
      <trkpt lat="46.7900310" lon="6.3752850">
        <ele>1060.6</ele>
        <time>2022-07-22T15:48:34Z</time>
      </trkpt>
      <trkpt lat="46.7899340" lon="6.3753180">
        <ele>1061.2</ele>
        <time>2022-07-22T15:48:41Z</time>
      </trkpt>
      <trkpt lat="46.7899060" lon="6.3753310">
        <ele>1061.4</ele>
        <time>2022-07-22T15:48:43Z</time>
      </trkpt>
      <trkpt lat="46.7898320" lon="6.3753790">
        <ele>1062.0</ele>
        <time>2022-07-22T15:48:48Z</time>
      </trkpt>
      <trkpt lat="46.7897550" lon="6.3754410">
        <ele>1062.6</ele>
        <time>2022-07-22T15:48:53Z</time>
      </trkpt>
      <trkpt lat="46.7896940" lon="6.3754960">
        <ele>1063.2</ele>
        <time>2022-07-22T15:48:57Z</time>
      </trkpt>
      <trkpt lat="46.7896640" lon="6.3755250">
        <ele>1063.6</ele>
        <time>2022-07-22T15:48:59Z</time>
      </trkpt>
      <trkpt lat="46.7896210" lon="6.3755680">
        <ele>1064.0</ele>
        <time>2022-07-22T15:49:02Z</time>
      </trkpt>
      <trkpt lat="46.7896030" lon="6.3755750">
        <ele>1064.2</ele>
        <time>2022-07-22T15:49:03Z</time>
      </trkpt>
      <trkpt lat="46.7895510" lon="6.3755940">
        <ele>1064.8</ele>
        <time>2022-07-22T15:49:06Z</time>
      </trkpt>
      <trkpt lat="46.7894850" lon="6.3756020">
        <ele>1065.2</ele>
        <time>2022-07-22T15:49:10Z</time>
      </trkpt>
      <trkpt lat="46.7894790" lon="6.3756040">
        <ele>1065.6</ele>
        <time>2022-07-22T15:49:12Z</time>
      </trkpt>
      <trkpt lat="46.7893570" lon="6.3756010">
        <ele>1066.0</ele>
        <time>2022-07-22T15:49:34Z</time>
      </trkpt>
      <trkpt lat="46.7893370" lon="6.3755990">
        <ele>1066.0</ele>
        <time>2022-07-22T15:49:35Z</time>
      </trkpt>
      <trkpt lat="46.7892040" lon="6.3756020">
        <ele>1065.6</ele>
        <time>2022-07-22T15:49:40Z</time>
      </trkpt>
      <trkpt lat="46.7890070" lon="6.3755670">
        <ele>1065.0</ele>
        <time>2022-07-22T15:49:45Z</time>
      </trkpt>
      <trkpt lat="46.7889510" lon="6.3755590">
        <ele>1064.8</ele>
        <time>2022-07-22T15:49:46Z</time>
      </trkpt>
      <trkpt lat="46.7887520" lon="6.3755720">
        <ele>1064.6</ele>
        <time>2022-07-22T15:49:49Z</time>
      </trkpt>
      <trkpt lat="46.7885110" lon="6.3756240">
        <ele>1063.8</ele>
        <time>2022-07-22T15:49:53Z</time>
      </trkpt>
      <trkpt lat="46.7884540" lon="6.3756470">
        <ele>1063.2</ele>
        <time>2022-07-22T15:49:54Z</time>
      </trkpt>
      <trkpt lat="46.7883970" lon="6.3756700">
        <ele>1062.6</ele>
        <time>2022-07-22T15:49:55Z</time>
      </trkpt>
      <trkpt lat="46.7882020" lon="6.3757420">
        <ele>1061.6</ele>
        <time>2022-07-22T15:49:59Z</time>
      </trkpt>
      <trkpt lat="46.7881630" lon="6.3757550">
        <ele>1061.4</ele>
        <time>2022-07-22T15:50:00Z</time>
      </trkpt>
      <trkpt lat="46.7880530" lon="6.3757740">
        <ele>1061.2</ele>
        <time>2022-07-22T15:50:04Z</time>
      </trkpt>
      <trkpt lat="46.7880440" lon="6.3757740">
        <ele>1061.2</ele>
        <time>2022-07-22T15:50:07Z</time>
      </trkpt>
      <trkpt lat="46.7879130" lon="6.3757150">
        <ele>1060.8</ele>
        <time>2022-07-22T15:50:30Z</time>
      </trkpt>
      <trkpt lat="46.7878030" lon="6.3756480">
        <ele>1060.6</ele>
        <time>2022-07-22T15:50:34Z</time>
      </trkpt>
      <trkpt lat="46.7877640" lon="6.3756320">
        <ele>1060.4</ele>
        <time>2022-07-22T15:50:35Z</time>
      </trkpt>
      <trkpt lat="46.7877230" lon="6.3756150">
        <ele>1060.4</ele>
        <time>2022-07-22T15:50:36Z</time>
      </trkpt>
      <trkpt lat="46.7875700" lon="6.3756270">
        <ele>1059.2</ele>
        <time>2022-07-22T15:50:40Z</time>
      </trkpt>
      <trkpt lat="46.7874830" lon="6.3756680">
        <ele>1057.8</ele>
        <time>2022-07-22T15:50:43Z</time>
      </trkpt>
      <trkpt lat="46.7874480" lon="6.3756930">
        <ele>1057.0</ele>
        <time>2022-07-22T15:50:45Z</time>
      </trkpt>
      <trkpt lat="46.7874140" lon="6.3757130">
        <ele>1056.8</ele>
        <time>2022-07-22T15:50:47Z</time>
      </trkpt>
      <trkpt lat="46.7873290" lon="6.3757510">
        <ele>1056.6</ele>
        <time>2022-07-22T15:50:52Z</time>
      </trkpt>
      <trkpt lat="46.7871470" lon="6.3758130">
        <ele>1057.6</ele>
        <time>2022-07-22T15:51:01Z</time>
      </trkpt>
      <trkpt lat="46.7869720" lon="6.3758740">
        <ele>1058.0</ele>
        <time>2022-07-22T15:51:10Z</time>
      </trkpt>
      <trkpt lat="46.7868860" lon="6.3759120">
        <ele>1058.6</ele>
        <time>2022-07-22T15:51:17Z</time>
      </trkpt>
      <trkpt lat="46.7868290" lon="6.3759320">
        <ele>1059.0</ele>
        <time>2022-07-22T15:51:22Z</time>
      </trkpt>
      <trkpt lat="46.7867870" lon="6.3759710">
        <ele>1059.6</ele>
        <time>2022-07-22T15:51:26Z</time>
      </trkpt>
      <trkpt lat="46.7867590" lon="6.3760070">
        <ele>1060.0</ele>
        <time>2022-07-22T15:51:29Z</time>
      </trkpt>
      <trkpt lat="46.7867240" lon="6.3760450">
        <ele>1060.4</ele>
        <time>2022-07-22T15:51:33Z</time>
      </trkpt>
      <trkpt lat="46.7866940" lon="6.3760740">
        <ele>1061.0</ele>
        <time>2022-07-22T15:51:37Z</time>
      </trkpt>
      <trkpt lat="46.7866610" lon="6.3761020">
        <ele>1061.6</ele>
        <time>2022-07-22T15:51:41Z</time>
      </trkpt>
      <trkpt lat="46.7866280" lon="6.3761280">
        <ele>1062.0</ele>
        <time>2022-07-22T15:51:45Z</time>
      </trkpt>
      <trkpt lat="46.7865630" lon="6.3761870">
        <ele>1063.2</ele>
        <time>2022-07-22T15:51:53Z</time>
      </trkpt>
      <trkpt lat="46.7865550" lon="6.3761960">
        <ele>1063.4</ele>
        <time>2022-07-22T15:51:54Z</time>
      </trkpt>
      <trkpt lat="46.7864980" lon="6.3762520">
        <ele>1064.2</ele>
        <time>2022-07-22T15:52:00Z</time>
      </trkpt>
      <trkpt lat="46.7864430" lon="6.3763000">
        <ele>1065.2</ele>
        <time>2022-07-22T15:52:07Z</time>
      </trkpt>
      <trkpt lat="46.7864290" lon="6.3763110">
        <ele>1065.4</ele>
        <time>2022-07-22T15:52:09Z</time>
      </trkpt>
      <trkpt lat="46.7863690" lon="6.3763570">
        <ele>1066.6</ele>
        <time>2022-07-22T15:52:16Z</time>
      </trkpt>
      <trkpt lat="46.7863420" lon="6.3763620">
        <ele>1067.2</ele>
        <time>2022-07-22T15:52:20Z</time>
      </trkpt>
      <trkpt lat="46.7863170" lon="6.3763630">
        <ele>1067.6</ele>
        <time>2022-07-22T15:52:22Z</time>
      </trkpt>
      <trkpt lat="46.7863060" lon="6.3763630">
        <ele>1067.8</ele>
        <time>2022-07-22T15:52:23Z</time>
      </trkpt>
      <trkpt lat="46.7862440" lon="6.3763910">
        <ele>1069.0</ele>
        <time>2022-07-22T15:52:28Z</time>
      </trkpt>
      <trkpt lat="46.7862170" lon="6.3764030">
        <ele>1069.2</ele>
        <time>2022-07-22T15:52:30Z</time>
      </trkpt>
      <trkpt lat="46.7861030" lon="6.3764650">
        <ele>1070.0</ele>
        <time>2022-07-22T15:52:39Z</time>
      </trkpt>
      <trkpt lat="46.7860760" lon="6.3764730">
        <ele>1070.2</ele>
        <time>2022-07-22T15:52:42Z</time>
      </trkpt>
      <trkpt lat="46.7859570" lon="6.3764890">
        <ele>1070.8</ele>
        <time>2022-07-22T15:52:51Z</time>
      </trkpt>
      <trkpt lat="46.7859400" lon="6.3764890">
        <ele>1071.0</ele>
        <time>2022-07-22T15:52:52Z</time>
      </trkpt>
      <trkpt lat="46.7858420" lon="6.3764640">
        <ele>1071.4</ele>
        <time>2022-07-22T15:52:57Z</time>
      </trkpt>
      <trkpt lat="46.7856750" lon="6.3764000">
        <ele>1071.4</ele>
        <time>2022-07-22T15:53:02Z</time>
      </trkpt>
      <trkpt lat="46.7855850" lon="6.3763840">
        <ele>1071.4</ele>
        <time>2022-07-22T15:53:04Z</time>
      </trkpt>
      <trkpt lat="46.7854760" lon="6.3763770">
        <ele>1071.4</ele>
        <time>2022-07-22T15:53:06Z</time>
      </trkpt>
      <trkpt lat="46.7851860" lon="6.3763640">
        <ele>1070.4</ele>
        <time>2022-07-22T15:53:12Z</time>
      </trkpt>
      <trkpt lat="46.7849590" lon="6.3763660">
        <ele>1069.8</ele>
        <time>2022-07-22T15:53:17Z</time>
      </trkpt>
      <trkpt lat="46.7848580" lon="6.3763740">
        <ele>1069.6</ele>
        <time>2022-07-22T15:53:19Z</time>
      </trkpt>
      <trkpt lat="46.7845610" lon="6.3763770">
        <ele>1069.2</ele>
        <time>2022-07-22T15:53:25Z</time>
      </trkpt>
      <trkpt lat="46.7843520" lon="6.3763400">
        <ele>1068.6</ele>
        <time>2022-07-22T15:53:29Z</time>
      </trkpt>
      <trkpt lat="46.7842290" lon="6.3763110">
        <ele>1068.4</ele>
        <time>2022-07-22T15:53:31Z</time>
      </trkpt>
      <trkpt lat="46.7840550" lon="6.3762520">
        <ele>1068.0</ele>
        <time>2022-07-22T15:53:34Z</time>
      </trkpt>
      <trkpt lat="46.7840030" lon="6.3762390">
        <ele>1067.8</ele>
        <time>2022-07-22T15:53:35Z</time>
      </trkpt>
      <trkpt lat="46.7839540" lon="6.3762210">
        <ele>1067.4</ele>
        <time>2022-07-22T15:53:36Z</time>
      </trkpt>
      <trkpt lat="46.7839070" lon="6.3761990">
        <ele>1066.8</ele>
        <time>2022-07-22T15:53:37Z</time>
      </trkpt>
      <trkpt lat="46.7838590" lon="6.3761740">
        <ele>1066.2</ele>
        <time>2022-07-22T15:53:38Z</time>
      </trkpt>
      <trkpt lat="46.7836970" lon="6.3761070">
        <ele>1065.4</ele>
        <time>2022-07-22T15:53:41Z</time>
      </trkpt>
      <trkpt lat="46.7836430" lon="6.3760800">
        <ele>1065.2</ele>
        <time>2022-07-22T15:53:42Z</time>
      </trkpt>
      <trkpt lat="46.7834310" lon="6.3760010">
        <ele>1064.8</ele>
        <time>2022-07-22T15:53:46Z</time>
      </trkpt>
      <trkpt lat="46.7832960" lon="6.3759840">
        <ele>1064.0</ele>
        <time>2022-07-22T15:53:49Z</time>
      </trkpt>
      <trkpt lat="46.7831630" lon="6.3759740">
        <ele>1063.2</ele>
        <time>2022-07-22T15:53:52Z</time>
      </trkpt>
      <trkpt lat="46.7830210" lon="6.3759900">
        <ele>1062.8</ele>
        <time>2022-07-22T15:53:55Z</time>
      </trkpt>
      <trkpt lat="46.7828860" lon="6.3759830">
        <ele>1062.4</ele>
        <time>2022-07-22T15:53:58Z</time>
      </trkpt>
      <trkpt lat="46.7826140" lon="6.3759190">
        <ele>1061.8</ele>
        <time>2022-07-22T15:54:04Z</time>
      </trkpt>
      <trkpt lat="46.7825750" lon="6.3759070">
        <ele>1061.8</ele>
        <time>2022-07-22T15:54:05Z</time>
      </trkpt>
      <trkpt lat="46.7823020" lon="6.3758310">
        <ele>1061.2</ele>
        <time>2022-07-22T15:54:11Z</time>
      </trkpt>
      <trkpt lat="46.7819880" lon="6.3757370">
        <ele>1061.0</ele>
        <time>2022-07-22T15:54:16Z</time>
      </trkpt>
      <trkpt lat="46.7818650" lon="6.3756800">
        <ele>1060.8</ele>
        <time>2022-07-22T15:54:18Z</time>
      </trkpt>
      <trkpt lat="46.7818030" lon="6.3756630">
        <ele>1060.4</ele>
        <time>2022-07-22T15:54:19Z</time>
      </trkpt>
      <trkpt lat="46.7817440" lon="6.3756540">
        <ele>1060.2</ele>
        <time>2022-07-22T15:54:20Z</time>
      </trkpt>
      <trkpt lat="46.7816250" lon="6.3756390">
        <ele>1059.6</ele>
        <time>2022-07-22T15:54:22Z</time>
      </trkpt>
      <trkpt lat="46.7814180" lon="6.3756120">
        <ele>1058.8</ele>
        <time>2022-07-22T15:54:25Z</time>
      </trkpt>
      <trkpt lat="46.7813490" lon="6.3756020">
        <ele>1058.4</ele>
        <time>2022-07-22T15:54:26Z</time>
      </trkpt>
      <trkpt lat="46.7809830" lon="6.3755890">
        <ele>1057.2</ele>
        <time>2022-07-22T15:54:31Z</time>
      </trkpt>
      <trkpt lat="46.7807740" lon="6.3755960">
        <ele>1056.0</ele>
        <time>2022-07-22T15:54:34Z</time>
      </trkpt>
      <trkpt lat="46.7806460" lon="6.3756010">
        <ele>1054.6</ele>
        <time>2022-07-22T15:54:36Z</time>
      </trkpt>
      <trkpt lat="46.7805890" lon="6.3756040">
        <ele>1054.0</ele>
        <time>2022-07-22T15:54:37Z</time>
      </trkpt>
      <trkpt lat="46.7805230" lon="6.3756300">
        <ele>1053.4</ele>
        <time>2022-07-22T15:54:38Z</time>
      </trkpt>
      <trkpt lat="46.7804520" lon="6.3756620">
        <ele>1053.2</ele>
        <time>2022-07-22T15:54:39Z</time>
      </trkpt>
      <trkpt lat="46.7803970" lon="6.3757110">
        <ele>1052.8</ele>
        <time>2022-07-22T15:54:40Z</time>
      </trkpt>
      <trkpt lat="46.7803100" lon="6.3758210">
        <ele>1052.0</ele>
        <time>2022-07-22T15:54:42Z</time>
      </trkpt>
      <trkpt lat="46.7802790" lon="6.3758850">
        <ele>1051.8</ele>
        <time>2022-07-22T15:54:43Z</time>
      </trkpt>
      <trkpt lat="46.7802530" lon="6.3759320">
        <ele>1051.8</ele>
        <time>2022-07-22T15:54:44Z</time>
      </trkpt>
      <trkpt lat="46.7801730" lon="6.3760280">
        <ele>1051.2</ele>
        <time>2022-07-22T15:54:47Z</time>
      </trkpt>
      <trkpt lat="46.7801650" lon="6.3760360">
        <ele>1051.0</ele>
        <time>2022-07-22T15:54:48Z</time>
      </trkpt>
      <trkpt lat="46.7801610" lon="6.3760410">
        <ele>1051.0</ele>
        <time>2022-07-22T15:54:49Z</time>
      </trkpt>
      <trkpt lat="46.7800820" lon="6.3760670">
        <ele>1050.6</ele>
        <time>2022-07-22T15:57:06Z</time>
      </trkpt>
      <trkpt lat="46.7800300" lon="6.3760420">
        <ele>1050.6</ele>
        <time>2022-07-22T15:57:08Z</time>
      </trkpt>
      <trkpt lat="46.7799430" lon="6.3760190">
        <ele>1050.4</ele>
        <time>2022-07-22T15:57:10Z</time>
      </trkpt>
      <trkpt lat="46.7798170" lon="6.3760200">
        <ele>1050.4</ele>
        <time>2022-07-22T15:57:12Z</time>
      </trkpt>
      <trkpt lat="46.7796780" lon="6.3760270">
        <ele>1050.4</ele>
        <time>2022-07-22T15:57:14Z</time>
      </trkpt>
      <trkpt lat="46.7796110" lon="6.3760170">
        <ele>1050.4</ele>
        <time>2022-07-22T15:57:15Z</time>
      </trkpt>
      <trkpt lat="46.7794800" lon="6.3759780">
        <ele>1049.8</ele>
        <time>2022-07-22T15:57:17Z</time>
      </trkpt>
      <trkpt lat="46.7793540" lon="6.3759370">
        <ele>1048.8</ele>
        <time>2022-07-22T15:57:19Z</time>
      </trkpt>
      <trkpt lat="46.7791690" lon="6.3759040">
        <ele>1047.6</ele>
        <time>2022-07-22T15:57:22Z</time>
      </trkpt>
      <trkpt lat="46.7791090" lon="6.3759090">
        <ele>1047.4</ele>
        <time>2022-07-22T15:57:23Z</time>
      </trkpt>
      <trkpt lat="46.7789290" lon="6.3759920">
        <ele>1047.0</ele>
        <time>2022-07-22T15:57:26Z</time>
      </trkpt>
      <trkpt lat="46.7788660" lon="6.3760350">
        <ele>1046.8</ele>
        <time>2022-07-22T15:57:27Z</time>
      </trkpt>
      <trkpt lat="46.7786690" lon="6.3761830">
        <ele>1046.6</ele>
        <time>2022-07-22T15:57:30Z</time>
      </trkpt>
      <trkpt lat="46.7784750" lon="6.3763330">
        <ele>1046.0</ele>
        <time>2022-07-22T15:57:33Z</time>
      </trkpt>
      <trkpt lat="46.7783620" lon="6.3764200">
        <ele>1045.2</ele>
        <time>2022-07-22T15:57:35Z</time>
      </trkpt>
      <trkpt lat="46.7782130" lon="6.3765400">
        <ele>1043.8</ele>
        <time>2022-07-22T15:57:38Z</time>
      </trkpt>
      <trkpt lat="46.7781080" lon="6.3766430">
        <ele>1042.6</ele>
        <time>2022-07-22T15:57:40Z</time>
      </trkpt>
      <trkpt lat="46.7779910" lon="6.3767680">
        <ele>1041.4</ele>
        <time>2022-07-22T15:57:42Z</time>
      </trkpt>
      <trkpt lat="46.7779310" lon="6.3768290">
        <ele>1040.8</ele>
        <time>2022-07-22T15:57:43Z</time>
      </trkpt>
      <trkpt lat="46.7778710" lon="6.3768800">
        <ele>1040.4</ele>
        <time>2022-07-22T15:57:44Z</time>
      </trkpt>
      <trkpt lat="46.7778100" lon="6.3769210">
        <ele>1039.8</ele>
        <time>2022-07-22T15:57:45Z</time>
      </trkpt>
      <trkpt lat="46.7776810" lon="6.3769890">
        <ele>1039.0</ele>
        <time>2022-07-22T15:57:47Z</time>
      </trkpt>
      <trkpt lat="46.7776120" lon="6.3770240">
        <ele>1038.6</ele>
        <time>2022-07-22T15:57:48Z</time>
      </trkpt>
      <trkpt lat="46.7773790" lon="6.3771580">
        <ele>1037.4</ele>
        <time>2022-07-22T15:57:51Z</time>
      </trkpt>
      <trkpt lat="46.7772940" lon="6.3772140">
        <ele>1036.8</ele>
        <time>2022-07-22T15:57:52Z</time>
      </trkpt>
      <trkpt lat="46.7772060" lon="6.3772760">
        <ele>1036.0</ele>
        <time>2022-07-22T15:57:53Z</time>
      </trkpt>
      <trkpt lat="46.7770250" lon="6.3773970">
        <ele>1035.2</ele>
        <time>2022-07-22T15:57:55Z</time>
      </trkpt>
      <trkpt lat="46.7768330" lon="6.3774990">
        <ele>1033.6</ele>
        <time>2022-07-22T15:57:57Z</time>
      </trkpt>
      <trkpt lat="46.7766410" lon="6.3775830">
        <ele>1032.6</ele>
        <time>2022-07-22T15:57:59Z</time>
      </trkpt>
      <trkpt lat="46.7764550" lon="6.3776820">
        <ele>1031.4</ele>
        <time>2022-07-22T15:58:01Z</time>
      </trkpt>
      <trkpt lat="46.7763600" lon="6.3777420">
        <ele>1030.6</ele>
        <time>2022-07-22T15:58:02Z</time>
      </trkpt>
      <trkpt lat="46.7762630" lon="6.3778030">
        <ele>1029.8</ele>
        <time>2022-07-22T15:58:03Z</time>
      </trkpt>
      <trkpt lat="46.7760600" lon="6.3779170">
        <ele>1028.4</ele>
        <time>2022-07-22T15:58:05Z</time>
      </trkpt>
      <trkpt lat="46.7758620" lon="6.3780070">
        <ele>1026.8</ele>
        <time>2022-07-22T15:58:07Z</time>
      </trkpt>
      <trkpt lat="46.7756820" lon="6.3780840">
        <ele>1025.2</ele>
        <time>2022-07-22T15:58:09Z</time>
      </trkpt>
      <trkpt lat="46.7755210" lon="6.3781500">
        <ele>1023.8</ele>
        <time>2022-07-22T15:58:11Z</time>
      </trkpt>
      <trkpt lat="46.7753700" lon="6.3782230">
        <ele>1022.0</ele>
        <time>2022-07-22T15:58:13Z</time>
      </trkpt>
      <trkpt lat="46.7752990" lon="6.3782640">
        <ele>1020.8</ele>
        <time>2022-07-22T15:58:14Z</time>
      </trkpt>
      <trkpt lat="46.7752310" lon="6.3782970">
        <ele>1019.6</ele>
        <time>2022-07-22T15:58:15Z</time>
      </trkpt>
      <trkpt lat="46.7751650" lon="6.3783260">
        <ele>1018.4</ele>
        <time>2022-07-22T15:58:16Z</time>
      </trkpt>
      <trkpt lat="46.7751020" lon="6.3783390">
        <ele>1017.0</ele>
        <time>2022-07-22T15:58:17Z</time>
      </trkpt>
      <trkpt lat="46.7750410" lon="6.3783320">
        <ele>1016.0</ele>
        <time>2022-07-22T15:58:18Z</time>
      </trkpt>
      <trkpt lat="46.7749850" lon="6.3782950">
        <ele>1015.0</ele>
        <time>2022-07-22T15:58:19Z</time>
      </trkpt>
      <trkpt lat="46.7749410" lon="6.3782320">
        <ele>1014.0</ele>
        <time>2022-07-22T15:58:20Z</time>
      </trkpt>
      <trkpt lat="46.7749050" lon="6.3781410">
        <ele>1013.2</ele>
        <time>2022-07-22T15:58:21Z</time>
      </trkpt>
      <trkpt lat="46.7748690" lon="6.3780390">
        <ele>1012.4</ele>
        <time>2022-07-22T15:58:22Z</time>
      </trkpt>
      <trkpt lat="46.7748350" lon="6.3779410">
        <ele>1011.6</ele>
        <time>2022-07-22T15:58:23Z</time>
      </trkpt>
      <trkpt lat="46.7748040" lon="6.3778490">
        <ele>1011.0</ele>
        <time>2022-07-22T15:58:24Z</time>
      </trkpt>
      <trkpt lat="46.7747750" lon="6.3777610">
        <ele>1010.4</ele>
        <time>2022-07-22T15:58:25Z</time>
      </trkpt>
      <trkpt lat="46.7747480" lon="6.3776780">
        <ele>1008.8</ele>
        <time>2022-07-22T15:58:26Z</time>
      </trkpt>
      <trkpt lat="46.7747030" lon="6.3775310">
        <ele>1007.6</ele>
        <time>2022-07-22T15:58:28Z</time>
      </trkpt>
      <trkpt lat="46.7746870" lon="6.3774660">
        <ele>1007.0</ele>
        <time>2022-07-22T15:58:29Z</time>
      </trkpt>
      <trkpt lat="46.7746770" lon="6.3774120">
        <ele>1006.4</ele>
        <time>2022-07-22T15:58:30Z</time>
      </trkpt>
      <trkpt lat="46.7746690" lon="6.3773280">
        <ele>1004.6</ele>
        <time>2022-07-22T15:58:32Z</time>
      </trkpt>
      <trkpt lat="46.7746660" lon="6.3772950">
        <ele>1003.8</ele>
        <time>2022-07-22T15:58:33Z</time>
      </trkpt>
      <trkpt lat="46.7746630" lon="6.3772660">
        <ele>1003.2</ele>
        <time>2022-07-22T15:58:34Z</time>
      </trkpt>
      <trkpt lat="46.7746540" lon="6.3772230">
        <ele>1001.8</ele>
        <time>2022-07-22T15:58:36Z</time>
      </trkpt>
      <trkpt lat="46.7746550" lon="6.3772190">
        <ele>1000.8</ele>
        <time>2022-07-22T15:58:38Z</time>
      </trkpt>
      <trkpt lat="46.7745980" lon="6.3771770">
        <ele>998.6</ele>
        <time>2022-07-22T15:59:02Z</time>
      </trkpt>
      <trkpt lat="46.7745470" lon="6.3771870">
        <ele>998.6</ele>
        <time>2022-07-22T15:59:05Z</time>
      </trkpt>
      <trkpt lat="46.7744020" lon="6.3772980">
        <ele>998.6</ele>
        <time>2022-07-22T15:59:11Z</time>
      </trkpt>
      <trkpt lat="46.7742910" lon="6.3773670">
        <ele>998.8</ele>
        <time>2022-07-22T15:59:15Z</time>
      </trkpt>
      <trkpt lat="46.7742640" lon="6.3773540">
        <ele>998.8</ele>
        <time>2022-07-22T15:59:16Z</time>
      </trkpt>
      <trkpt lat="46.7741690" lon="6.3771800">
        <ele>999.0</ele>
        <time>2022-07-22T15:59:21Z</time>
      </trkpt>
      <trkpt lat="46.7741570" lon="6.3771380">
        <ele>999.0</ele>
        <time>2022-07-22T15:59:22Z</time>
      </trkpt>
      <trkpt lat="46.7741100" lon="6.3769090">
        <ele>999.0</ele>
        <time>2022-07-22T15:59:28Z</time>
      </trkpt>
      <trkpt lat="46.7741140" lon="6.3768740">
        <ele>999.2</ele>
        <time>2022-07-22T15:59:29Z</time>
      </trkpt>
      <trkpt lat="46.7741630" lon="6.3767200">
        <ele>1000.0</ele>
        <time>2022-07-22T15:59:35Z</time>
      </trkpt>
      <trkpt lat="46.7742700" lon="6.3765860">
        <ele>1001.0</ele>
        <time>2022-07-22T15:59:42Z</time>
      </trkpt>
      <trkpt lat="46.7742850" lon="6.3765690">
        <ele>1001.2</ele>
        <time>2022-07-22T15:59:43Z</time>
      </trkpt>
      <trkpt lat="46.7744090" lon="6.3764150">
        <ele>1002.0</ele>
        <time>2022-07-22T15:59:51Z</time>
      </trkpt>
      <trkpt lat="46.7744250" lon="6.3763990">
        <ele>1002.0</ele>
        <time>2022-07-22T15:59:52Z</time>
      </trkpt>
      <trkpt lat="46.7745380" lon="6.3762630">
        <ele>1003.2</ele>
        <time>2022-07-22T16:00:00Z</time>
      </trkpt>
      <trkpt lat="46.7746500" lon="6.3761490">
        <ele>1004.4</ele>
        <time>2022-07-22T16:00:08Z</time>
      </trkpt>
      <trkpt lat="46.7746620" lon="6.3761320">
        <ele>1004.4</ele>
        <time>2022-07-22T16:00:09Z</time>
      </trkpt>
      <trkpt lat="46.7747720" lon="6.3759840">
        <ele>1005.2</ele>
        <time>2022-07-22T16:00:18Z</time>
      </trkpt>
      <trkpt lat="46.7747840" lon="6.3759640">
        <ele>1005.4</ele>
        <time>2022-07-22T16:00:19Z</time>
      </trkpt>
      <trkpt lat="46.7748520" lon="6.3758580">
        <ele>1006.4</ele>
        <time>2022-07-22T16:00:25Z</time>
      </trkpt>
      <trkpt lat="46.7748750" lon="6.3758280">
        <ele>1006.6</ele>
        <time>2022-07-22T16:00:27Z</time>
      </trkpt>
      <trkpt lat="46.7749240" lon="6.3757320">
        <ele>1007.0</ele>
        <time>2022-07-22T16:00:32Z</time>
      </trkpt>
      <trkpt lat="46.7749810" lon="6.3756150">
        <ele>1007.6</ele>
        <time>2022-07-22T16:00:38Z</time>
      </trkpt>
      <trkpt lat="46.7749900" lon="6.3755970">
        <ele>1007.8</ele>
        <time>2022-07-22T16:00:39Z</time>
      </trkpt>
      <trkpt lat="46.7750540" lon="6.3754520">
        <ele>1008.8</ele>
        <time>2022-07-22T16:00:46Z</time>
      </trkpt>
      <trkpt lat="46.7750610" lon="6.3754290">
        <ele>1008.8</ele>
        <time>2022-07-22T16:00:47Z</time>
      </trkpt>
      <trkpt lat="46.7750980" lon="6.3753340">
        <ele>1009.2</ele>
        <time>2022-07-22T16:00:52Z</time>
      </trkpt>
      <trkpt lat="46.7751130" lon="6.3752960">
        <ele>1009.6</ele>
        <time>2022-07-22T16:00:54Z</time>
      </trkpt>
      <trkpt lat="46.7751260" lon="6.3752540">
        <ele>1009.8</ele>
        <time>2022-07-22T16:00:56Z</time>
      </trkpt>
      <trkpt lat="46.7751620" lon="6.3751730">
        <ele>1010.0</ele>
        <time>2022-07-22T16:01:00Z</time>
      </trkpt>
      <trkpt lat="46.7752470" lon="6.3750090">
        <ele>1011.0</ele>
        <time>2022-07-22T16:01:08Z</time>
      </trkpt>
      <trkpt lat="46.7753230" lon="6.3748730">
        <ele>1012.0</ele>
        <time>2022-07-22T16:01:15Z</time>
      </trkpt>
      <trkpt lat="46.7753310" lon="6.3748520">
        <ele>1012.2</ele>
        <time>2022-07-22T16:01:16Z</time>
      </trkpt>
      <trkpt lat="46.7753830" lon="6.3746590">
        <ele>1013.2</ele>
        <time>2022-07-22T16:01:24Z</time>
      </trkpt>
      <trkpt lat="46.7753740" lon="6.3744780">
        <ele>1014.4</ele>
        <time>2022-07-22T16:01:32Z</time>
      </trkpt>
      <trkpt lat="46.7753590" lon="6.3744320">
        <ele>1014.6</ele>
        <time>2022-07-22T16:01:34Z</time>
      </trkpt>
      <trkpt lat="46.7752600" lon="6.3742660">
        <ele>1015.4</ele>
        <time>2022-07-22T16:01:42Z</time>
      </trkpt>
      <trkpt lat="46.7752210" lon="6.3742300">
        <ele>1015.6</ele>
        <time>2022-07-22T16:01:44Z</time>
      </trkpt>
      <trkpt lat="46.7750340" lon="6.3741170">
        <ele>1016.4</ele>
        <time>2022-07-22T16:01:52Z</time>
      </trkpt>
      <trkpt lat="46.7749540" lon="6.3740950">
        <ele>1016.6</ele>
        <time>2022-07-22T16:01:55Z</time>
      </trkpt>
      <trkpt lat="46.7748280" lon="6.3740720">
        <ele>1017.0</ele>
        <time>2022-07-22T16:02:00Z</time>
      </trkpt>
      <trkpt lat="46.7746190" lon="6.3740280">
        <ele>1017.2</ele>
        <time>2022-07-22T16:02:07Z</time>
      </trkpt>
      <trkpt lat="46.7743870" lon="6.3739280">
        <ele>1017.4</ele>
        <time>2022-07-22T16:02:15Z</time>
      </trkpt>
      <trkpt lat="46.7742170" lon="6.3738180">
        <ele>1018.0</ele>
        <time>2022-07-22T16:02:21Z</time>
      </trkpt>
      <trkpt lat="46.7741630" lon="6.3737780">
        <ele>1018.0</ele>
        <time>2022-07-22T16:02:23Z</time>
      </trkpt>
      <trkpt lat="46.7739900" lon="6.3736360">
        <ele>1018.6</ele>
        <time>2022-07-22T16:02:30Z</time>
      </trkpt>
      <trkpt lat="46.7738110" lon="6.3735080">
        <ele>1019.0</ele>
        <time>2022-07-22T16:02:37Z</time>
      </trkpt>
      <trkpt lat="46.7737570" lon="6.3734740">
        <ele>1019.2</ele>
        <time>2022-07-22T16:02:39Z</time>
      </trkpt>
      <trkpt lat="46.7736290" lon="6.3733780">
        <ele>1019.4</ele>
        <time>2022-07-22T16:02:44Z</time>
      </trkpt>
      <trkpt lat="46.7734210" lon="6.3732280">
        <ele>1020.0</ele>
        <time>2022-07-22T16:02:52Z</time>
      </trkpt>
      <trkpt lat="46.7731220" lon="6.3730720">
        <ele>1020.4</ele>
        <time>2022-07-22T16:03:03Z</time>
      </trkpt>
      <trkpt lat="46.7730470" lon="6.3730260">
        <ele>1020.4</ele>
        <time>2022-07-22T16:03:06Z</time>
      </trkpt>
      <trkpt lat="46.7729520" lon="6.3729510">
        <ele>1020.8</ele>
        <time>2022-07-22T16:03:10Z</time>
      </trkpt>
      <trkpt lat="46.7727750" lon="6.3728600">
        <ele>1020.8</ele>
        <time>2022-07-22T16:03:15Z</time>
      </trkpt>
      <trkpt lat="46.7725200" lon="6.3727970">
        <ele>1020.4</ele>
        <time>2022-07-22T16:03:22Z</time>
      </trkpt>
      <trkpt lat="46.7723650" lon="6.3726950">
        <ele>1020.4</ele>
        <time>2022-07-22T16:03:28Z</time>
      </trkpt>
      <trkpt lat="46.7723470" lon="6.3724890">
        <ele>1020.4</ele>
        <time>2022-07-22T16:03:32Z</time>
      </trkpt>
      <trkpt lat="46.7723940" lon="6.3721680">
        <ele>1020.6</ele>
        <time>2022-07-22T16:03:38Z</time>
      </trkpt>
      <trkpt lat="46.7724390" lon="6.3718710">
        <ele>1020.6</ele>
        <time>2022-07-22T16:03:44Z</time>
      </trkpt>
      <trkpt lat="46.7724940" lon="6.3716110">
        <ele>1020.8</ele>
        <time>2022-07-22T16:03:50Z</time>
      </trkpt>
      <trkpt lat="46.7725280" lon="6.3713860">
        <ele>1021.0</ele>
        <time>2022-07-22T16:03:55Z</time>
      </trkpt>
      <trkpt lat="46.7725760" lon="6.3710490">
        <ele>1021.0</ele>
        <time>2022-07-22T16:04:00Z</time>
      </trkpt>
      <trkpt lat="46.7725440" lon="6.3707450">
        <ele>1020.8</ele>
        <time>2022-07-22T16:04:05Z</time>
      </trkpt>
      <trkpt lat="46.7724880" lon="6.3705530">
        <ele>1020.6</ele>
        <time>2022-07-22T16:04:10Z</time>
      </trkpt>
      <trkpt lat="46.7724190" lon="6.3703950">
        <ele>1020.6</ele>
        <time>2022-07-22T16:04:16Z</time>
      </trkpt>
      <trkpt lat="46.7724200" lon="6.3703840">
        <ele>1020.8</ele>
        <time>2022-07-22T16:04:18Z</time>
      </trkpt>
      <trkpt lat="46.7723130" lon="6.3702400">
        <ele>1021.0</ele>
        <time>2022-07-22T16:04:56Z</time>
      </trkpt>
      <trkpt lat="46.7722880" lon="6.3702240">
        <ele>1021.0</ele>
        <time>2022-07-22T16:04:57Z</time>
      </trkpt>
      <trkpt lat="46.7721240" lon="6.3700800">
        <ele>1021.0</ele>
        <time>2022-07-22T16:05:02Z</time>
      </trkpt>
      <trkpt lat="46.7718970" lon="6.3698170">
        <ele>1020.4</ele>
        <time>2022-07-22T16:05:08Z</time>
      </trkpt>
      <trkpt lat="46.7717950" lon="6.3696440">
        <ele>1020.0</ele>
        <time>2022-07-22T16:05:11Z</time>
      </trkpt>
      <trkpt lat="46.7717090" lon="6.3694820">
        <ele>1019.6</ele>
        <time>2022-07-22T16:05:14Z</time>
      </trkpt>
      <trkpt lat="46.7715780" lon="6.3693080">
        <ele>1018.8</ele>
        <time>2022-07-22T16:05:18Z</time>
      </trkpt>
      <trkpt lat="46.7715040" lon="6.3692220">
        <ele>1018.6</ele>
        <time>2022-07-22T16:05:20Z</time>
      </trkpt>
      <trkpt lat="46.7712730" lon="6.3689360">
        <ele>1018.4</ele>
        <time>2022-07-22T16:05:27Z</time>
      </trkpt>
      <trkpt lat="46.7710830" lon="6.3687610">
        <ele>1018.4</ele>
        <time>2022-07-22T16:05:33Z</time>
      </trkpt>
      <trkpt lat="46.7709720" lon="6.3686800">
        <ele>1018.6</ele>
        <time>2022-07-22T16:05:36Z</time>
      </trkpt>
      <trkpt lat="46.7708920" lon="6.3685690">
        <ele>1018.6</ele>
        <time>2022-07-22T16:05:39Z</time>
      </trkpt>
      <trkpt lat="46.7707610" lon="6.3683840">
        <ele>1019.0</ele>
        <time>2022-07-22T16:05:45Z</time>
      </trkpt>
      <trkpt lat="46.7705930" lon="6.3681530">
        <ele>1020.0</ele>
        <time>2022-07-22T16:05:53Z</time>
      </trkpt>
      <trkpt lat="46.7705770" lon="6.3681290">
        <ele>1020.0</ele>
        <time>2022-07-22T16:05:54Z</time>
      </trkpt>
      <trkpt lat="46.7704930" lon="6.3679850">
        <ele>1020.6</ele>
        <time>2022-07-22T16:06:00Z</time>
      </trkpt>
      <trkpt lat="46.7704090" lon="6.3678310">
        <ele>1021.2</ele>
        <time>2022-07-22T16:06:04Z</time>
      </trkpt>
      <trkpt lat="46.7703850" lon="6.3677880">
        <ele>1021.2</ele>
        <time>2022-07-22T16:06:05Z</time>
      </trkpt>
      <trkpt lat="46.7702250" lon="6.3675540">
        <ele>1021.4</ele>
        <time>2022-07-22T16:06:12Z</time>
      </trkpt>
      <trkpt lat="46.7701140" lon="6.3674040">
        <ele>1021.6</ele>
        <time>2022-07-22T16:06:18Z</time>
      </trkpt>
      <trkpt lat="46.7700120" lon="6.3672610">
        <ele>1022.2</ele>
        <time>2022-07-22T16:06:24Z</time>
      </trkpt>
      <trkpt lat="46.7699370" lon="6.3671470">
        <ele>1023.0</ele>
        <time>2022-07-22T16:06:29Z</time>
      </trkpt>
      <trkpt lat="46.7699170" lon="6.3671070">
        <ele>1023.4</ele>
        <time>2022-07-22T16:06:31Z</time>
      </trkpt>
      <trkpt lat="46.7698610" lon="6.3669910">
        <ele>1024.0</ele>
        <time>2022-07-22T16:06:36Z</time>
      </trkpt>
      <trkpt lat="46.7698220" lon="6.3669140">
        <ele>1024.4</ele>
        <time>2022-07-22T16:06:39Z</time>
      </trkpt>
      <trkpt lat="46.7697720" lon="6.3668800">
        <ele>1025.2</ele>
        <time>2022-07-22T16:06:42Z</time>
      </trkpt>
      <trkpt lat="46.7696350" lon="6.3668630">
        <ele>1025.8</ele>
        <time>2022-07-22T16:06:49Z</time>
      </trkpt>
      <trkpt lat="46.7696130" lon="6.3668600">
        <ele>1026.0</ele>
        <time>2022-07-22T16:06:50Z</time>
      </trkpt>
      <trkpt lat="46.7694080" lon="6.3668180">
        <ele>1026.8</ele>
        <time>2022-07-22T16:06:57Z</time>
      </trkpt>
      <trkpt lat="46.7693760" lon="6.3668150">
        <ele>1026.8</ele>
        <time>2022-07-22T16:06:58Z</time>
      </trkpt>
      <trkpt lat="46.7692210" lon="6.3667840">
        <ele>1027.0</ele>
        <time>2022-07-22T16:07:03Z</time>
      </trkpt>
      <trkpt lat="46.7691730" lon="6.3666000">
        <ele>1027.2</ele>
        <time>2022-07-22T16:07:07Z</time>
      </trkpt>
      <trkpt lat="46.7691430" lon="6.3663670">
        <ele>1027.4</ele>
        <time>2022-07-22T16:07:12Z</time>
      </trkpt>
      <trkpt lat="46.7691380" lon="6.3663230">
        <ele>1027.4</ele>
        <time>2022-07-22T16:07:13Z</time>
      </trkpt>
      <trkpt lat="46.7691320" lon="6.3659710">
        <ele>1028.0</ele>
        <time>2022-07-22T16:07:20Z</time>
      </trkpt>
      <trkpt lat="46.7691360" lon="6.3659180">
        <ele>1028.0</ele>
        <time>2022-07-22T16:07:21Z</time>
      </trkpt>
      <trkpt lat="46.7691900" lon="6.3655290">
        <ele>1028.2</ele>
        <time>2022-07-22T16:07:29Z</time>
      </trkpt>
      <trkpt lat="46.7692220" lon="6.3651810">
        <ele>1028.8</ele>
        <time>2022-07-22T16:07:36Z</time>
      </trkpt>
      <trkpt lat="46.7691770" lon="6.3650600">
        <ele>1029.0</ele>
        <time>2022-07-22T16:07:40Z</time>
      </trkpt>
      <trkpt lat="46.7691680" lon="6.3650420">
        <ele>1029.2</ele>
        <time>2022-07-22T16:07:41Z</time>
      </trkpt>
      <trkpt lat="46.7690920" lon="6.3649390">
        <ele>1030.2</ele>
        <time>2022-07-22T16:07:48Z</time>
      </trkpt>
      <trkpt lat="46.7690790" lon="6.3649180">
        <ele>1030.4</ele>
        <time>2022-07-22T16:07:49Z</time>
      </trkpt>
      <trkpt lat="46.7690440" lon="6.3648450">
        <ele>1031.2</ele>
        <time>2022-07-22T16:07:52Z</time>
      </trkpt>
      <trkpt lat="46.7690070" lon="6.3647460">
        <ele>1031.8</ele>
        <time>2022-07-22T16:07:56Z</time>
      </trkpt>
      <trkpt lat="46.7689710" lon="6.3646230">
        <ele>1032.2</ele>
        <time>2022-07-22T16:08:01Z</time>
      </trkpt>
      <trkpt lat="46.7689470" lon="6.3645430">
        <ele>1032.6</ele>
        <time>2022-07-22T16:08:04Z</time>
      </trkpt>
      <trkpt lat="46.7688900" lon="6.3643880">
        <ele>1033.2</ele>
        <time>2022-07-22T16:08:12Z</time>
      </trkpt>
      <trkpt lat="46.7688860" lon="6.3643810">
        <ele>1033.4</ele>
        <time>2022-07-22T16:08:14Z</time>
      </trkpt>
      <trkpt lat="46.7689040" lon="6.3642670">
        <ele>1034.2</ele>
        <time>2022-07-22T16:08:48Z</time>
      </trkpt>
      <trkpt lat="46.7689020" lon="6.3642070">
        <ele>1034.2</ele>
        <time>2022-07-22T16:08:50Z</time>
      </trkpt>
      <trkpt lat="46.7688770" lon="6.3639910">
        <ele>1034.6</ele>
        <time>2022-07-22T16:08:55Z</time>
      </trkpt>
      <trkpt lat="46.7688510" lon="6.3638060">
        <ele>1034.6</ele>
        <time>2022-07-22T16:08:58Z</time>
      </trkpt>
      <trkpt lat="46.7688460" lon="6.3636540">
        <ele>1034.6</ele>
        <time>2022-07-22T16:09:00Z</time>
      </trkpt>
      <trkpt lat="46.7688720" lon="6.3631350">
        <ele>1034.0</ele>
        <time>2022-07-22T16:09:06Z</time>
      </trkpt>
      <trkpt lat="46.7688820" lon="6.3629690">
        <ele>1033.4</ele>
        <time>2022-07-22T16:09:08Z</time>
      </trkpt>
      <trkpt lat="46.7689080" lon="6.3626180">
        <ele>1032.4</ele>
        <time>2022-07-22T16:09:12Z</time>
      </trkpt>
      <trkpt lat="46.7689240" lon="6.3619910">
        <ele>1032.0</ele>
        <time>2022-07-22T16:09:18Z</time>
      </trkpt>
      <trkpt lat="46.7689250" lon="6.3617710">
        <ele>1031.6</ele>
        <time>2022-07-22T16:09:20Z</time>
      </trkpt>
      <trkpt lat="46.7689790" lon="6.3614290">
        <ele>1031.0</ele>
        <time>2022-07-22T16:09:23Z</time>
      </trkpt>
      <trkpt lat="46.7690180" lon="6.3612250">
        <ele>1030.2</ele>
        <time>2022-07-22T16:09:25Z</time>
      </trkpt>
      <trkpt lat="46.7690130" lon="6.3610160">
        <ele>1029.0</ele>
        <time>2022-07-22T16:09:27Z</time>
      </trkpt>
      <trkpt lat="46.7689740" lon="6.3608100">
        <ele>1027.4</ele>
        <time>2022-07-22T16:09:29Z</time>
      </trkpt>
      <trkpt lat="46.7689610" lon="6.3606990">
        <ele>1026.6</ele>
        <time>2022-07-22T16:09:30Z</time>
      </trkpt>
      <trkpt lat="46.7689620" lon="6.3605820">
        <ele>1026.0</ele>
        <time>2022-07-22T16:09:31Z</time>
      </trkpt>
      <trkpt lat="46.7689810" lon="6.3603340">
        <ele>1024.4</ele>
        <time>2022-07-22T16:09:33Z</time>
      </trkpt>
      <trkpt lat="46.7690000" lon="6.3600770">
        <ele>1022.8</ele>
        <time>2022-07-22T16:09:35Z</time>
      </trkpt>
      <trkpt lat="46.7690080" lon="6.3599590">
        <ele>1022.0</ele>
        <time>2022-07-22T16:09:36Z</time>
      </trkpt>
      <trkpt lat="46.7690160" lon="6.3598490">
        <ele>1021.6</ele>
        <time>2022-07-22T16:09:37Z</time>
      </trkpt>
      <trkpt lat="46.7690330" lon="6.3596630">
        <ele>1020.2</ele>
        <time>2022-07-22T16:09:39Z</time>
      </trkpt>
      <trkpt lat="46.7690380" lon="6.3595840">
        <ele>1019.8</ele>
        <time>2022-07-22T16:09:40Z</time>
      </trkpt>
      <trkpt lat="46.7690420" lon="6.3594350">
        <ele>1018.6</ele>
        <time>2022-07-22T16:09:42Z</time>
      </trkpt>
      <trkpt lat="46.7690370" lon="6.3592860">
        <ele>1017.6</ele>
        <time>2022-07-22T16:09:44Z</time>
      </trkpt>
      <trkpt lat="46.7690260" lon="6.3591420">
        <ele>1016.4</ele>
        <time>2022-07-22T16:09:46Z</time>
      </trkpt>
      <trkpt lat="46.7690080" lon="6.3589950">
        <ele>1015.0</ele>
        <time>2022-07-22T16:09:48Z</time>
      </trkpt>
      <trkpt lat="46.7689930" lon="6.3588460">
        <ele>1013.8</ele>
        <time>2022-07-22T16:09:50Z</time>
      </trkpt>
      <trkpt lat="46.7689740" lon="6.3586840">
        <ele>1013.2</ele>
        <time>2022-07-22T16:09:52Z</time>
      </trkpt>
      <trkpt lat="46.7689540" lon="6.3585020">
        <ele>1012.8</ele>
        <time>2022-07-22T16:09:54Z</time>
      </trkpt>
      <trkpt lat="46.7689070" lon="6.3581270">
        <ele>1011.8</ele>
        <time>2022-07-22T16:09:58Z</time>
      </trkpt>
      <trkpt lat="46.7688980" lon="6.3580460">
        <ele>1011.6</ele>
        <time>2022-07-22T16:09:59Z</time>
      </trkpt>
      <trkpt lat="46.7688610" lon="6.3578030">
        <ele>1010.4</ele>
        <time>2022-07-22T16:10:02Z</time>
      </trkpt>
      <trkpt lat="46.7688300" lon="6.3576490">
        <ele>1009.8</ele>
        <time>2022-07-22T16:10:04Z</time>
      </trkpt>
      <trkpt lat="46.7688030" lon="6.3575050">
        <ele>1009.4</ele>
        <time>2022-07-22T16:10:06Z</time>
      </trkpt>
      <trkpt lat="46.7687590" lon="6.3571870">
        <ele>1008.6</ele>
        <time>2022-07-22T16:10:11Z</time>
      </trkpt>
      <trkpt lat="46.7687510" lon="6.3571340">
        <ele>1008.4</ele>
        <time>2022-07-22T16:10:12Z</time>
      </trkpt>
      <trkpt lat="46.7687450" lon="6.3569680">
        <ele>1008.2</ele>
        <time>2022-07-22T16:10:16Z</time>
      </trkpt>
      <trkpt lat="46.7687570" lon="6.3567930">
        <ele>1008.0</ele>
        <time>2022-07-22T16:10:22Z</time>
      </trkpt>
      <trkpt lat="46.7688280" lon="6.3567530">
        <ele>1007.8</ele>
        <time>2022-07-22T16:10:27Z</time>
      </trkpt>
      <trkpt lat="46.7688270" lon="6.3566090">
        <ele>1007.8</ele>
        <time>2022-07-22T16:10:32Z</time>
      </trkpt>
      <trkpt lat="46.7688430" lon="6.3565170">
        <ele>1007.4</ele>
        <time>2022-07-22T16:10:35Z</time>
      </trkpt>
      <trkpt lat="46.7688790" lon="6.3564560">
        <ele>1007.4</ele>
        <time>2022-07-22T16:10:37Z</time>
      </trkpt>
      <trkpt lat="46.7690210" lon="6.3562930">
        <ele>1006.8</ele>
        <time>2022-07-22T16:10:43Z</time>
      </trkpt>
      <trkpt lat="46.7691190" lon="6.3561450">
        <ele>1006.4</ele>
        <time>2022-07-22T16:10:48Z</time>
      </trkpt>
      <trkpt lat="46.7691530" lon="6.3560910">
        <ele>1006.2</ele>
        <time>2022-07-22T16:10:50Z</time>
      </trkpt>
      <trkpt lat="46.7692720" lon="6.3559190">
        <ele>1005.8</ele>
        <time>2022-07-22T16:10:58Z</time>
      </trkpt>
      <trkpt lat="46.7693680" lon="6.3557950">
        <ele>1005.8</ele>
        <time>2022-07-22T16:11:05Z</time>
      </trkpt>
      <trkpt lat="46.7694910" lon="6.3556320">
        <ele>1006.0</ele>
        <time>2022-07-22T16:11:11Z</time>
      </trkpt>
      <trkpt lat="46.7696800" lon="6.3554310">
        <ele>1005.8</ele>
        <time>2022-07-22T16:11:17Z</time>
      </trkpt>
      <trkpt lat="46.7697740" lon="6.3553460">
        <ele>1005.6</ele>
        <time>2022-07-22T16:11:20Z</time>
      </trkpt>
      <trkpt lat="46.7698510" lon="6.3552560">
        <ele>1005.0</ele>
        <time>2022-07-22T16:11:23Z</time>
      </trkpt>
      <trkpt lat="46.7698670" lon="6.3552160">
        <ele>1004.6</ele>
        <time>2022-07-22T16:11:24Z</time>
      </trkpt>
      <trkpt lat="46.7699260" lon="6.3550540">
        <ele>1003.6</ele>
        <time>2022-07-22T16:11:28Z</time>
      </trkpt>
      <trkpt lat="46.7699570" lon="6.3549700">
        <ele>1003.2</ele>
        <time>2022-07-22T16:11:30Z</time>
      </trkpt>
      <trkpt lat="46.7700510" lon="6.3548500">
        <ele>1002.4</ele>
        <time>2022-07-22T16:11:34Z</time>
      </trkpt>
      <trkpt lat="46.7701080" lon="6.3548290">
        <ele>1002.0</ele>
        <time>2022-07-22T16:11:37Z</time>
      </trkpt>
      <trkpt lat="46.7701210" lon="6.3548420">
        <ele>1002.0</ele>
        <time>2022-07-22T16:11:38Z</time>
      </trkpt>
      <trkpt lat="46.7701710" lon="6.3549330">
        <ele>1001.4</ele>
        <time>2022-07-22T16:11:42Z</time>
      </trkpt>
      <trkpt lat="46.7701950" lon="6.3549830">
        <ele>1001.2</ele>
        <time>2022-07-22T16:11:44Z</time>
      </trkpt>
      <trkpt lat="46.7702050" lon="6.3550160">
        <ele>1001.0</ele>
        <time>2022-07-22T16:11:47Z</time>
      </trkpt>
      <trkpt lat="46.7701850" lon="6.3551220">
        <ele>1001.2</ele>
        <time>2022-07-22T16:16:23Z</time>
      </trkpt>
      <trkpt lat="46.7703390" lon="6.3550680">
        <ele>1001.2</ele>
        <time>2022-07-22T16:16:29Z</time>
      </trkpt>
      <trkpt lat="46.7705430" lon="6.3549870">
        <ele>1001.0</ele>
        <time>2022-07-22T16:16:35Z</time>
      </trkpt>
      <trkpt lat="46.7707230" lon="6.3548730">
        <ele>1000.2</ele>
        <time>2022-07-22T16:16:40Z</time>
      </trkpt>
      <trkpt lat="46.7707490" lon="6.3548490">
        <ele>1000.0</ele>
        <time>2022-07-22T16:16:41Z</time>
      </trkpt>
      <trkpt lat="46.7708030" lon="6.3547830">
        <ele>999.0</ele>
        <time>2022-07-22T16:16:44Z</time>
      </trkpt>
      <trkpt lat="46.7708480" lon="6.3547100">
        <ele>998.4</ele>
        <time>2022-07-22T16:16:46Z</time>
      </trkpt>
      <trkpt lat="46.7708710" lon="6.3546590">
        <ele>998.2</ele>
        <time>2022-07-22T16:16:47Z</time>
      </trkpt>
      <trkpt lat="46.7709030" lon="6.3545340">
        <ele>997.8</ele>
        <time>2022-07-22T16:16:49Z</time>
      </trkpt>
      <trkpt lat="46.7709160" lon="6.3544630">
        <ele>997.4</ele>
        <time>2022-07-22T16:16:50Z</time>
      </trkpt>
      <trkpt lat="46.7709240" lon="6.3543920">
        <ele>997.2</ele>
        <time>2022-07-22T16:16:51Z</time>
      </trkpt>
      <trkpt lat="46.7709120" lon="6.3541000">
        <ele>996.6</ele>
        <time>2022-07-22T16:16:55Z</time>
      </trkpt>
      <trkpt lat="46.7709020" lon="6.3539640">
        <ele>995.6</ele>
        <time>2022-07-22T16:16:57Z</time>
      </trkpt>
      <trkpt lat="46.7708750" lon="6.3537790">
        <ele>995.2</ele>
        <time>2022-07-22T16:17:00Z</time>
      </trkpt>
      <trkpt lat="46.7708450" lon="6.3536770">
        <ele>995.0</ele>
        <time>2022-07-22T16:17:02Z</time>
      </trkpt>
      <trkpt lat="46.7707920" lon="6.3535840">
        <ele>995.0</ele>
        <time>2022-07-22T16:17:05Z</time>
      </trkpt>
      <trkpt lat="46.7707590" lon="6.3535390">
        <ele>995.0</ele>
        <time>2022-07-22T16:17:07Z</time>
      </trkpt>
      <trkpt lat="46.7706140" lon="6.3533970">
        <ele>995.2</ele>
        <time>2022-07-22T16:17:14Z</time>
      </trkpt>
      <trkpt lat="46.7704510" lon="6.3532260">
        <ele>996.4</ele>
        <time>2022-07-22T16:17:22Z</time>
      </trkpt>
      <trkpt lat="46.7704060" lon="6.3531460">
        <ele>996.8</ele>
        <time>2022-07-22T16:17:25Z</time>
      </trkpt>
      <trkpt lat="46.7703420" lon="6.3530440">
        <ele>997.2</ele>
        <time>2022-07-22T16:17:29Z</time>
      </trkpt>
      <trkpt lat="46.7702180" lon="6.3528800">
        <ele>997.8</ele>
        <time>2022-07-22T16:17:36Z</time>
      </trkpt>
      <trkpt lat="46.7701820" lon="6.3528350">
        <ele>998.0</ele>
        <time>2022-07-22T16:17:38Z</time>
      </trkpt>
      <trkpt lat="46.7700180" lon="6.3525880">
        <ele>998.8</ele>
        <time>2022-07-22T16:17:48Z</time>
      </trkpt>
      <trkpt lat="46.7699500" lon="6.3524790">
        <ele>999.2</ele>
        <time>2022-07-22T16:17:52Z</time>
      </trkpt>
      <trkpt lat="46.7698740" lon="6.3523710">
        <ele>999.4</ele>
        <time>2022-07-22T16:17:56Z</time>
      </trkpt>
      <trkpt lat="46.7696890" lon="6.3520660">
        <ele>1000.0</ele>
        <time>2022-07-22T16:18:06Z</time>
      </trkpt>
      <trkpt lat="46.7696710" lon="6.3520340">
        <ele>1000.2</ele>
        <time>2022-07-22T16:18:07Z</time>
      </trkpt>
      <trkpt lat="46.7695340" lon="6.3518000">
        <ele>1000.8</ele>
        <time>2022-07-22T16:18:15Z</time>
      </trkpt>
      <trkpt lat="46.7694240" lon="6.3516520">
        <ele>1001.2</ele>
        <time>2022-07-22T16:18:21Z</time>
      </trkpt>
      <trkpt lat="46.7693850" lon="6.3516140">
        <ele>1001.6</ele>
        <time>2022-07-22T16:18:23Z</time>
      </trkpt>
      <trkpt lat="46.7691950" lon="6.3515140">
        <ele>1002.2</ele>
        <time>2022-07-22T16:18:31Z</time>
      </trkpt>
      <trkpt lat="46.7689080" lon="6.3515230">
        <ele>1002.6</ele>
        <time>2022-07-22T16:18:41Z</time>
      </trkpt>
      <trkpt lat="46.7686640" lon="6.3515660">
        <ele>1003.0</ele>
        <time>2022-07-22T16:18:49Z</time>
      </trkpt>
      <trkpt lat="46.7683660" lon="6.3515940">
        <ele>1003.4</ele>
        <time>2022-07-22T16:18:59Z</time>
      </trkpt>
      <trkpt lat="46.7683370" lon="6.3515990">
        <ele>1003.4</ele>
        <time>2022-07-22T16:19:00Z</time>
      </trkpt>
      <trkpt lat="46.7681480" lon="6.3516070">
        <ele>1003.8</ele>
        <time>2022-07-22T16:19:07Z</time>
      </trkpt>
      <trkpt lat="46.7679280" lon="6.3515370">
        <ele>1004.6</ele>
        <time>2022-07-22T16:19:15Z</time>
      </trkpt>
      <trkpt lat="46.7679040" lon="6.3515270">
        <ele>1004.6</ele>
        <time>2022-07-22T16:19:16Z</time>
      </trkpt>
      <trkpt lat="46.7678550" lon="6.3515040">
        <ele>1005.0</ele>
        <time>2022-07-22T16:19:18Z</time>
      </trkpt>
      <trkpt lat="46.7676380" lon="6.3513740">
        <ele>1005.8</ele>
        <time>2022-07-22T16:19:27Z</time>
      </trkpt>
      <trkpt lat="46.7676130" lon="6.3513550">
        <ele>1005.8</ele>
        <time>2022-07-22T16:19:28Z</time>
      </trkpt>
      <trkpt lat="46.7674100" lon="6.3512220">
        <ele>1006.6</ele>
        <time>2022-07-22T16:19:36Z</time>
      </trkpt>
      <trkpt lat="46.7673220" lon="6.3511510">
        <ele>1007.0</ele>
        <time>2022-07-22T16:19:40Z</time>
      </trkpt>
      <trkpt lat="46.7672180" lon="6.3510620">
        <ele>1007.4</ele>
        <time>2022-07-22T16:19:45Z</time>
      </trkpt>
      <trkpt lat="46.7671020" lon="6.3509360">
        <ele>1008.0</ele>
        <time>2022-07-22T16:19:51Z</time>
      </trkpt>
      <trkpt lat="46.7670820" lon="6.3509100">
        <ele>1008.2</ele>
        <time>2022-07-22T16:19:52Z</time>
      </trkpt>
      <trkpt lat="46.7669630" lon="6.3507350">
        <ele>1009.0</ele>
        <time>2022-07-22T16:19:58Z</time>
      </trkpt>
      <trkpt lat="46.7669450" lon="6.3507020">
        <ele>1009.2</ele>
        <time>2022-07-22T16:19:59Z</time>
      </trkpt>
      <trkpt lat="46.7668080" lon="6.3504290">
        <ele>1009.8</ele>
        <time>2022-07-22T16:20:07Z</time>
      </trkpt>
      <trkpt lat="46.7667080" lon="6.3502100">
        <ele>1010.4</ele>
        <time>2022-07-22T16:20:13Z</time>
      </trkpt>
      <trkpt lat="46.7666430" lon="6.3500620">
        <ele>1010.4</ele>
        <time>2022-07-22T16:20:17Z</time>
      </trkpt>
      <trkpt lat="46.7664870" lon="6.3497120">
        <ele>1011.2</ele>
        <time>2022-07-22T16:20:26Z</time>
      </trkpt>
      <trkpt lat="46.7664350" lon="6.3495930">
        <ele>1011.4</ele>
        <time>2022-07-22T16:20:29Z</time>
      </trkpt>
      <trkpt lat="46.7662730" lon="6.3492270">
        <ele>1011.8</ele>
        <time>2022-07-22T16:20:38Z</time>
      </trkpt>
      <trkpt lat="46.7661460" lon="6.3489230">
        <ele>1012.2</ele>
        <time>2022-07-22T16:20:45Z</time>
      </trkpt>
      <trkpt lat="46.7659660" lon="6.3485320">
        <ele>1012.6</ele>
        <time>2022-07-22T16:20:54Z</time>
      </trkpt>
      <trkpt lat="46.7659000" lon="6.3484010">
        <ele>1012.6</ele>
        <time>2022-07-22T16:20:57Z</time>
      </trkpt>
      <trkpt lat="46.7657130" lon="6.3480120">
        <ele>1012.8</ele>
        <time>2022-07-22T16:21:06Z</time>
      </trkpt>
      <trkpt lat="46.7654980" lon="6.3476000">
        <ele>1013.2</ele>
        <time>2022-07-22T16:21:16Z</time>
      </trkpt>
      <trkpt lat="46.7653770" lon="6.3472560">
        <ele>1013.6</ele>
        <time>2022-07-22T16:21:23Z</time>
      </trkpt>
      <trkpt lat="46.7652900" lon="6.3468350">
        <ele>1013.6</ele>
        <time>2022-07-22T16:21:30Z</time>
      </trkpt>
      <trkpt lat="46.7651240" lon="6.3462810">
        <ele>1013.2</ele>
        <time>2022-07-22T16:21:39Z</time>
      </trkpt>
      <trkpt lat="46.7650070" lon="6.3459810">
        <ele>1013.2</ele>
        <time>2022-07-22T16:21:45Z</time>
      </trkpt>
      <trkpt lat="46.7648870" lon="6.3456720">
        <ele>1013.2</ele>
        <time>2022-07-22T16:21:52Z</time>
      </trkpt>
      <trkpt lat="46.7648070" lon="6.3453740">
        <ele>1013.0</ele>
        <time>2022-07-22T16:21:58Z</time>
      </trkpt>
      <trkpt lat="46.7647980" lon="6.3453150">
        <ele>1013.0</ele>
        <time>2022-07-22T16:21:59Z</time>
      </trkpt>
      <trkpt lat="46.7647620" lon="6.3448380">
        <ele>1012.4</ele>
        <time>2022-07-22T16:22:06Z</time>
      </trkpt>
      <trkpt lat="46.7647760" lon="6.3445430">
        <ele>1012.0</ele>
        <time>2022-07-22T16:22:10Z</time>
      </trkpt>
      <trkpt lat="46.7647850" lon="6.3444790">
        <ele>1011.8</ele>
        <time>2022-07-22T16:22:11Z</time>
      </trkpt>
      <trkpt lat="46.7647930" lon="6.3444190">
        <ele>1011.6</ele>
        <time>2022-07-22T16:22:12Z</time>
      </trkpt>
      <trkpt lat="46.7648080" lon="6.3442280">
        <ele>1011.4</ele>
        <time>2022-07-22T16:22:15Z</time>
      </trkpt>
      <trkpt lat="46.7647930" lon="6.3440780">
        <ele>1011.0</ele>
        <time>2022-07-22T16:22:17Z</time>
      </trkpt>
      <trkpt lat="46.7647660" lon="6.3439320">
        <ele>1010.8</ele>
        <time>2022-07-22T16:22:19Z</time>
      </trkpt>
      <trkpt lat="46.7646920" lon="6.3435860">
        <ele>1010.2</ele>
        <time>2022-07-22T16:22:24Z</time>
      </trkpt>
      <trkpt lat="46.7646360" lon="6.3432690">
        <ele>1010.0</ele>
        <time>2022-07-22T16:22:30Z</time>
      </trkpt>
      <trkpt lat="46.7645580" lon="6.3428780">
        <ele>1011.0</ele>
        <time>2022-07-22T16:22:38Z</time>
      </trkpt>
      <trkpt lat="46.7645190" lon="6.3425190">
        <ele>1011.4</ele>
        <time>2022-07-22T16:22:44Z</time>
      </trkpt>
      <trkpt lat="46.7644700" lon="6.3421180">
        <ele>1011.4</ele>
        <time>2022-07-22T16:22:50Z</time>
      </trkpt>
      <trkpt lat="46.7644010" lon="6.3417340">
        <ele>1011.2</ele>
        <time>2022-07-22T16:22:56Z</time>
      </trkpt>
      <trkpt lat="46.7643840" lon="6.3416750">
        <ele>1011.2</ele>
        <time>2022-07-22T16:22:57Z</time>
      </trkpt>
      <trkpt lat="46.7642660" lon="6.3412670">
        <ele>1010.4</ele>
        <time>2022-07-22T16:23:04Z</time>
      </trkpt>
      <trkpt lat="46.7641490" lon="6.3409070">
        <ele>1010.0</ele>
        <time>2022-07-22T16:23:10Z</time>
      </trkpt>
      <trkpt lat="46.7640350" lon="6.3406490">
        <ele>1010.0</ele>
        <time>2022-07-22T16:23:14Z</time>
      </trkpt>
      <trkpt lat="46.7639480" lon="6.3404630">
        <ele>1009.8</ele>
        <time>2022-07-22T16:23:17Z</time>
      </trkpt>
      <trkpt lat="46.7638130" lon="6.3401780">
        <ele>1009.0</ele>
        <time>2022-07-22T16:23:22Z</time>
      </trkpt>
      <trkpt lat="46.7637230" lon="6.3399480">
        <ele>1008.8</ele>
        <time>2022-07-22T16:23:26Z</time>
      </trkpt>
      <trkpt lat="46.7635440" lon="6.3394870">
        <ele>1008.8</ele>
        <time>2022-07-22T16:23:34Z</time>
      </trkpt>
      <trkpt lat="46.7633520" lon="6.3390780">
        <ele>1008.4</ele>
        <time>2022-07-22T16:23:41Z</time>
      </trkpt>
      <trkpt lat="46.7632860" lon="6.3389290">
        <ele>1007.6</ele>
        <time>2022-07-22T16:23:43Z</time>
      </trkpt>
      <trkpt lat="46.7631850" lon="6.3386350">
        <ele>1006.6</ele>
        <time>2022-07-22T16:23:46Z</time>
      </trkpt>
      <trkpt lat="46.7630360" lon="6.3381330">
        <ele>1005.4</ele>
        <time>2022-07-22T16:23:50Z</time>
      </trkpt>
      <trkpt lat="46.7629990" lon="6.3380070">
        <ele>1005.2</ele>
        <time>2022-07-22T16:23:51Z</time>
      </trkpt>
      <trkpt lat="46.7629330" lon="6.3377730">
        <ele>1004.2</ele>
        <time>2022-07-22T16:23:53Z</time>
      </trkpt>
      <trkpt lat="46.7628620" lon="6.3375540">
        <ele>1002.8</ele>
        <time>2022-07-22T16:23:55Z</time>
      </trkpt>
      <trkpt lat="46.7627880" lon="6.3373360">
        <ele>1001.4</ele>
        <time>2022-07-22T16:23:57Z</time>
      </trkpt>
      <trkpt lat="46.7627140" lon="6.3370900">
        <ele>1000.0</ele>
        <time>2022-07-22T16:23:59Z</time>
      </trkpt>
      <trkpt lat="46.7626410" lon="6.3368330">
        <ele>998.8</ele>
        <time>2022-07-22T16:24:01Z</time>
      </trkpt>
      <trkpt lat="46.7626080" lon="6.3367130">
        <ele>998.2</ele>
        <time>2022-07-22T16:24:02Z</time>
      </trkpt>
      <trkpt lat="46.7625750" lon="6.3365980">
        <ele>997.6</ele>
        <time>2022-07-22T16:24:03Z</time>
      </trkpt>
      <trkpt lat="46.7625140" lon="6.3363770">
        <ele>996.4</ele>
        <time>2022-07-22T16:24:05Z</time>
      </trkpt>
      <trkpt lat="46.7624700" lon="6.3361910">
        <ele>995.0</ele>
        <time>2022-07-22T16:24:07Z</time>
      </trkpt>
      <trkpt lat="46.7624530" lon="6.3361100">
        <ele>994.0</ele>
        <time>2022-07-22T16:24:08Z</time>
      </trkpt>
      <trkpt lat="46.7624400" lon="6.3360390">
        <ele>992.8</ele>
        <time>2022-07-22T16:24:09Z</time>
      </trkpt>
      <trkpt lat="46.7624280" lon="6.3359740">
        <ele>991.4</ele>
        <time>2022-07-22T16:24:10Z</time>
      </trkpt>
      <trkpt lat="46.7624170" lon="6.3359160">
        <ele>989.8</ele>
        <time>2022-07-22T16:24:11Z</time>
      </trkpt>
      <trkpt lat="46.7624060" lon="6.3358660">
        <ele>988.6</ele>
        <time>2022-07-22T16:24:12Z</time>
      </trkpt>
      <trkpt lat="46.7623940" lon="6.3358180">
        <ele>986.6</ele>
        <time>2022-07-22T16:24:13Z</time>
      </trkpt>
      <trkpt lat="46.7623600" lon="6.3357390">
        <ele>985.0</ele>
        <time>2022-07-22T16:24:15Z</time>
      </trkpt>
      <trkpt lat="46.7623340" lon="6.3357020">
        <ele>984.4</ele>
        <time>2022-07-22T16:24:16Z</time>
      </trkpt>
      <trkpt lat="46.7622760" lon="6.3356140">
        <ele>983.8</ele>
        <time>2022-07-22T16:24:18Z</time>
      </trkpt>
      <trkpt lat="46.7622240" lon="6.3354920">
        <ele>983.2</ele>
        <time>2022-07-22T16:24:20Z</time>
      </trkpt>
      <trkpt lat="46.7620540" lon="6.3349580">
        <ele>982.6</ele>
        <time>2022-07-22T16:24:27Z</time>
      </trkpt>
      <trkpt lat="46.7618360" lon="6.3343980">
        <ele>981.2</ele>
        <time>2022-07-22T16:24:34Z</time>
      </trkpt>
      <trkpt lat="46.7617990" lon="6.3343240">
        <ele>981.0</ele>
        <time>2022-07-22T16:24:35Z</time>
      </trkpt>
      <trkpt lat="46.7616390" lon="6.3340790">
        <ele>980.4</ele>
        <time>2022-07-22T16:24:39Z</time>
      </trkpt>
      <trkpt lat="46.7615920" lon="6.3340220">
        <ele>980.2</ele>
        <time>2022-07-22T16:24:40Z</time>
      </trkpt>
      <trkpt lat="46.7614880" lon="6.3339070">
        <ele>979.2</ele>
        <time>2022-07-22T16:24:43Z</time>
      </trkpt>
      <trkpt lat="46.7614690" lon="6.3338820">
        <ele>978.6</ele>
        <time>2022-07-22T16:24:44Z</time>
      </trkpt>
      <trkpt lat="46.7614590" lon="6.3338700">
        <ele>978.2</ele>
        <time>2022-07-22T16:24:45Z</time>
      </trkpt>
      <trkpt lat="46.7614560" lon="6.3338690">
        <ele>977.6</ele>
        <time>2022-07-22T16:24:46Z</time>
      </trkpt>
      <trkpt lat="46.7614550" lon="6.3338690">
        <ele>976.8</ele>
        <time>2022-07-22T16:24:47Z</time>
      </trkpt>
      <trkpt lat="46.7613510" lon="6.3336660">
        <ele>973.6</ele>
        <time>2022-07-22T16:25:10Z</time>
      </trkpt>
      <trkpt lat="46.7613350" lon="6.3336220">
        <ele>973.8</ele>
        <time>2022-07-22T16:25:11Z</time>
      </trkpt>
      <trkpt lat="46.7612500" lon="6.3333680">
        <ele>973.6</ele>
        <time>2022-07-22T16:25:15Z</time>
      </trkpt>
      <trkpt lat="46.7611310" lon="6.3329990">
        <ele>972.8</ele>
        <time>2022-07-22T16:25:20Z</time>
      </trkpt>
      <trkpt lat="46.7610860" lon="6.3328530">
        <ele>972.4</ele>
        <time>2022-07-22T16:25:22Z</time>
      </trkpt>
      <trkpt lat="46.7610600" lon="6.3327860">
        <ele>972.2</ele>
        <time>2022-07-22T16:25:23Z</time>
      </trkpt>
      <trkpt lat="46.7609850" lon="6.3327070">
        <ele>971.6</ele>
        <time>2022-07-22T16:25:25Z</time>
      </trkpt>
      <trkpt lat="46.7609190" lon="6.3326770">
        <ele>971.4</ele>
        <time>2022-07-22T16:25:27Z</time>
      </trkpt>
      <trkpt lat="46.7608360" lon="6.3326540">
        <ele>971.4</ele>
        <time>2022-07-22T16:25:30Z</time>
      </trkpt>
      <trkpt lat="46.7606450" lon="6.3325700">
        <ele>971.8</ele>
        <time>2022-07-22T16:25:37Z</time>
      </trkpt>
      <trkpt lat="46.7604490" lon="6.3323820">
        <ele>972.2</ele>
        <time>2022-07-22T16:25:44Z</time>
      </trkpt>
      <trkpt lat="46.7602390" lon="6.3321310">
        <ele>972.4</ele>
        <time>2022-07-22T16:25:50Z</time>
      </trkpt>
      <trkpt lat="46.7600150" lon="6.3318110">
        <ele>971.6</ele>
        <time>2022-07-22T16:25:56Z</time>
      </trkpt>
      <trkpt lat="46.7598210" lon="6.3315950">
        <ele>970.4</ele>
        <time>2022-07-22T16:26:00Z</time>
      </trkpt>
      <trkpt lat="46.7597820" lon="6.3315500">
        <ele>970.0</ele>
        <time>2022-07-22T16:26:01Z</time>
      </trkpt>
      <trkpt lat="46.7597460" lon="6.3315090">
        <ele>969.2</ele>
        <time>2022-07-22T16:26:02Z</time>
      </trkpt>
      <trkpt lat="46.7596820" lon="6.3314230">
        <ele>967.6</ele>
        <time>2022-07-22T16:26:04Z</time>
      </trkpt>
      <trkpt lat="46.7596530" lon="6.3313750">
        <ele>966.8</ele>
        <time>2022-07-22T16:26:05Z</time>
      </trkpt>
      <trkpt lat="46.7596260" lon="6.3313240">
        <ele>965.8</ele>
        <time>2022-07-22T16:26:06Z</time>
      </trkpt>
      <trkpt lat="46.7595980" lon="6.3312730">
        <ele>964.6</ele>
        <time>2022-07-22T16:26:07Z</time>
      </trkpt>
      <trkpt lat="46.7595410" lon="6.3311610">
        <ele>962.6</ele>
        <time>2022-07-22T16:26:09Z</time>
      </trkpt>
      <trkpt lat="46.7593920" lon="6.3308580">
        <ele>961.8</ele>
        <time>2022-07-22T16:26:14Z</time>
      </trkpt>
      <trkpt lat="46.7592920" lon="6.3306650">
        <ele>961.6</ele>
        <time>2022-07-22T16:26:17Z</time>
      </trkpt>
      <trkpt lat="46.7590660" lon="6.3302150">
        <ele>961.0</ele>
        <time>2022-07-22T16:26:24Z</time>
      </trkpt>
      <trkpt lat="46.7588360" lon="6.3297760">
        <ele>961.0</ele>
        <time>2022-07-22T16:26:32Z</time>
      </trkpt>
      <trkpt lat="46.7585410" lon="6.3291990">
        <ele>961.0</ele>
        <time>2022-07-22T16:26:43Z</time>
      </trkpt>
      <trkpt lat="46.7582900" lon="6.3286950">
        <ele>960.8</ele>
        <time>2022-07-22T16:26:52Z</time>
      </trkpt>
      <trkpt lat="46.7579720" lon="6.3280270">
        <ele>960.0</ele>
        <time>2022-07-22T16:27:03Z</time>
      </trkpt>
      <trkpt lat="46.7579430" lon="6.3279630">
        <ele>959.8</ele>
        <time>2022-07-22T16:27:04Z</time>
      </trkpt>
      <trkpt lat="46.7576960" lon="6.3274360">
        <ele>958.8</ele>
        <time>2022-07-22T16:27:12Z</time>
      </trkpt>
      <trkpt lat="46.7576030" lon="6.3272350">
        <ele>958.4</ele>
        <time>2022-07-22T16:27:15Z</time>
      </trkpt>
      <trkpt lat="46.7575420" lon="6.3271010">
        <ele>957.8</ele>
        <time>2022-07-22T16:27:17Z</time>
      </trkpt>
      <trkpt lat="46.7573220" lon="6.3266450">
        <ele>957.2</ele>
        <time>2022-07-22T16:27:24Z</time>
      </trkpt>
      <trkpt lat="46.7571680" lon="6.3263230">
        <ele>956.8</ele>
        <time>2022-07-22T16:27:29Z</time>
      </trkpt>
      <trkpt lat="46.7569510" lon="6.3258550">
        <ele>956.2</ele>
        <time>2022-07-22T16:27:36Z</time>
      </trkpt>
      <trkpt lat="46.7568630" lon="6.3256650">
        <ele>956.0</ele>
        <time>2022-07-22T16:27:39Z</time>
      </trkpt>
      <trkpt lat="46.7566560" lon="6.3252150">
        <ele>955.4</ele>
        <time>2022-07-22T16:27:46Z</time>
      </trkpt>
      <trkpt lat="46.7565110" lon="6.3249030">
        <ele>954.8</ele>
        <time>2022-07-22T16:27:51Z</time>
      </trkpt>
      <trkpt lat="46.7563390" lon="6.3245390">
        <ele>953.6</ele>
        <time>2022-07-22T16:27:57Z</time>
      </trkpt>
      <trkpt lat="46.7562270" lon="6.3242830">
        <ele>952.8</ele>
        <time>2022-07-22T16:28:02Z</time>
      </trkpt>
      <trkpt lat="46.7561750" lon="6.3241680">
        <ele>952.6</ele>
        <time>2022-07-22T16:28:04Z</time>
      </trkpt>
      <trkpt lat="46.7559400" lon="6.3236790">
        <ele>951.8</ele>
        <time>2022-07-22T16:28:12Z</time>
      </trkpt>
      <trkpt lat="46.7556780" lon="6.3231030">
        <ele>950.6</ele>
        <time>2022-07-22T16:28:20Z</time>
      </trkpt>
      <trkpt lat="46.7554500" lon="6.3225850">
        <ele>949.6</ele>
        <time>2022-07-22T16:28:26Z</time>
      </trkpt>
      <trkpt lat="46.7553670" lon="6.3224040">
        <ele>949.0</ele>
        <time>2022-07-22T16:28:28Z</time>
      </trkpt>
      <trkpt lat="46.7552850" lon="6.3222320">
        <ele>948.4</ele>
        <time>2022-07-22T16:28:30Z</time>
      </trkpt>
      <trkpt lat="46.7550800" lon="6.3218400">
        <ele>947.8</ele>
        <time>2022-07-22T16:28:35Z</time>
      </trkpt>
      <trkpt lat="46.7550340" lon="6.3217630">
        <ele>947.2</ele>
        <time>2022-07-22T16:28:36Z</time>
      </trkpt>
      <trkpt lat="46.7548340" lon="6.3214450">
        <ele>946.0</ele>
        <time>2022-07-22T16:28:40Z</time>
      </trkpt>
      <trkpt lat="46.7547370" lon="6.3212650">
        <ele>945.4</ele>
        <time>2022-07-22T16:28:42Z</time>
      </trkpt>
      <trkpt lat="46.7546910" lon="6.3211710">
        <ele>945.0</ele>
        <time>2022-07-22T16:28:43Z</time>
      </trkpt>
      <trkpt lat="46.7545270" lon="6.3207770">
        <ele>944.0</ele>
        <time>2022-07-22T16:28:47Z</time>
      </trkpt>
      <trkpt lat="46.7544940" lon="6.3206640">
        <ele>943.6</ele>
        <time>2022-07-22T16:28:48Z</time>
      </trkpt>
      <trkpt lat="46.7544330" lon="6.3202900">
        <ele>942.6</ele>
        <time>2022-07-22T16:28:51Z</time>
      </trkpt>
      <trkpt lat="46.7544190" lon="6.3201580">
        <ele>942.2</ele>
        <time>2022-07-22T16:28:52Z</time>
      </trkpt>
      <trkpt lat="46.7543930" lon="6.3198950">
        <ele>941.4</ele>
        <time>2022-07-22T16:28:54Z</time>
      </trkpt>
      <trkpt lat="46.7543290" lon="6.3195060">
        <ele>940.2</ele>
        <time>2022-07-22T16:28:57Z</time>
      </trkpt>
      <trkpt lat="46.7542970" lon="6.3193840">
        <ele>940.0</ele>
        <time>2022-07-22T16:28:58Z</time>
      </trkpt>
      <trkpt lat="46.7542370" lon="6.3191690">
        <ele>939.0</ele>
        <time>2022-07-22T16:29:00Z</time>
      </trkpt>
      <trkpt lat="46.7541770" lon="6.3189710">
        <ele>938.0</ele>
        <time>2022-07-22T16:29:02Z</time>
      </trkpt>
      <trkpt lat="46.7541480" lon="6.3188740">
        <ele>937.8</ele>
        <time>2022-07-22T16:29:03Z</time>
      </trkpt>
      <trkpt lat="46.7540960" lon="6.3186720">
        <ele>936.6</ele>
        <time>2022-07-22T16:29:05Z</time>
      </trkpt>
      <trkpt lat="46.7540430" lon="6.3184760">
        <ele>935.6</ele>
        <time>2022-07-22T16:29:07Z</time>
      </trkpt>
      <trkpt lat="46.7540200" lon="6.3183830">
        <ele>935.2</ele>
        <time>2022-07-22T16:29:08Z</time>
      </trkpt>
      <trkpt lat="46.7539540" lon="6.3181110">
        <ele>934.0</ele>
        <time>2022-07-22T16:29:11Z</time>
      </trkpt>
      <trkpt lat="46.7539320" lon="6.3180380">
        <ele>933.8</ele>
        <time>2022-07-22T16:29:12Z</time>
      </trkpt>
      <trkpt lat="46.7539110" lon="6.3179790">
        <ele>933.6</ele>
        <time>2022-07-22T16:29:13Z</time>
      </trkpt>
      <trkpt lat="46.7538560" lon="6.3178120">
        <ele>933.0</ele>
        <time>2022-07-22T16:29:16Z</time>
      </trkpt>
      <trkpt lat="46.7538340" lon="6.3176880">
        <ele>931.6</ele>
        <time>2022-07-22T16:29:19Z</time>
      </trkpt>
      <trkpt lat="46.7538420" lon="6.3176030">
        <ele>930.4</ele>
        <time>2022-07-22T16:29:22Z</time>
      </trkpt>
      <trkpt lat="46.7538740" lon="6.3175240">
        <ele>929.8</ele>
        <time>2022-07-22T16:29:24Z</time>
      </trkpt>
      <trkpt lat="46.7539210" lon="6.3174520">
        <ele>929.4</ele>
        <time>2022-07-22T16:29:26Z</time>
      </trkpt>
      <trkpt lat="46.7540130" lon="6.3173250">
        <ele>928.4</ele>
        <time>2022-07-22T16:29:29Z</time>
      </trkpt>
      <trkpt lat="46.7540470" lon="6.3172880">
        <ele>928.2</ele>
        <time>2022-07-22T16:29:30Z</time>
      </trkpt>
      <trkpt lat="46.7542100" lon="6.3171040">
        <ele>926.8</ele>
        <time>2022-07-22T16:29:35Z</time>
      </trkpt>
      <trkpt lat="46.7543370" lon="6.3169730">
        <ele>926.0</ele>
        <time>2022-07-22T16:29:40Z</time>
      </trkpt>
      <trkpt lat="46.7543490" lon="6.3169580">
        <ele>925.8</ele>
        <time>2022-07-22T16:29:41Z</time>
      </trkpt>
      <trkpt lat="46.7543640" lon="6.3169380">
        <ele>924.8</ele>
        <time>2022-07-22T16:29:44Z</time>
      </trkpt>
      <trkpt lat="46.7543640" lon="6.3169390">
        <ele>924.6</ele>
        <time>2022-07-22T16:29:45Z</time>
      </trkpt>
      <trkpt lat="46.7543770" lon="6.3169030">
        <ele>923.0</ele>
        <time>2022-07-22T16:29:57Z</time>
      </trkpt>
      <trkpt lat="46.7543590" lon="6.3167740">
        <ele>923.0</ele>
        <time>2022-07-22T16:30:02Z</time>
      </trkpt>
      <trkpt lat="46.7543560" lon="6.3167440">
        <ele>923.0</ele>
        <time>2022-07-22T16:30:03Z</time>
      </trkpt>
      <trkpt lat="46.7543590" lon="6.3167180">
        <ele>923.0</ele>
        <time>2022-07-22T16:30:04Z</time>
      </trkpt>
      <trkpt lat="46.7543780" lon="6.3166710">
        <ele>923.0</ele>
        <time>2022-07-22T16:30:08Z</time>
      </trkpt>
      <trkpt lat="46.7543290" lon="6.3166620">
        <ele>923.0</ele>
        <time>2022-07-22T16:31:41Z</time>
      </trkpt>
      <trkpt lat="46.7543050" lon="6.3166090">
        <ele>923.0</ele>
        <time>2022-07-22T16:31:43Z</time>
      </trkpt>
      <trkpt lat="46.7541990" lon="6.3163160">
        <ele>923.2</ele>
        <time>2022-07-22T16:31:51Z</time>
      </trkpt>
      <trkpt lat="46.7540790" lon="6.3160150">
        <ele>923.2</ele>
        <time>2022-07-22T16:31:58Z</time>
      </trkpt>
      <trkpt lat="46.7539440" lon="6.3156670">
        <ele>922.8</ele>
        <time>2022-07-22T16:32:05Z</time>
      </trkpt>
      <trkpt lat="46.7538390" lon="6.3154410">
        <ele>922.6</ele>
        <time>2022-07-22T16:32:09Z</time>
      </trkpt>
      <trkpt lat="46.7537530" lon="6.3152610">
        <ele>922.4</ele>
        <time>2022-07-22T16:32:12Z</time>
      </trkpt>
      <trkpt lat="46.7535000" lon="6.3147350">
        <ele>921.8</ele>
        <time>2022-07-22T16:32:20Z</time>
      </trkpt>
      <trkpt lat="46.7534460" lon="6.3145890">
        <ele>921.6</ele>
        <time>2022-07-22T16:32:22Z</time>
      </trkpt>
      <trkpt lat="46.7533090" lon="6.3141900">
        <ele>921.0</ele>
        <time>2022-07-22T16:32:27Z</time>
      </trkpt>
      <trkpt lat="46.7532460" lon="6.3140240">
        <ele>920.6</ele>
        <time>2022-07-22T16:32:29Z</time>
      </trkpt>
      <trkpt lat="46.7531010" lon="6.3136870">
        <ele>920.0</ele>
        <time>2022-07-22T16:32:33Z</time>
      </trkpt>
      <trkpt lat="46.7530190" lon="6.3135190">
        <ele>919.6</ele>
        <time>2022-07-22T16:32:35Z</time>
      </trkpt>
      <trkpt lat="46.7528730" lon="6.3131700">
        <ele>918.4</ele>
        <time>2022-07-22T16:32:39Z</time>
      </trkpt>
      <trkpt lat="46.7528440" lon="6.3130800">
        <ele>918.0</ele>
        <time>2022-07-22T16:32:40Z</time>
      </trkpt>
      <trkpt lat="46.7527280" lon="6.3126400">
        <ele>917.2</ele>
        <time>2022-07-22T16:32:45Z</time>
      </trkpt>
      <trkpt lat="46.7526950" lon="6.3124670">
        <ele>917.0</ele>
        <time>2022-07-22T16:32:47Z</time>
      </trkpt>
      <trkpt lat="46.7524960" lon="6.3117340">
        <ele>916.2</ele>
        <time>2022-07-22T16:32:56Z</time>
      </trkpt>
      <trkpt lat="46.7524660" lon="6.3116570">
        <ele>916.2</ele>
        <time>2022-07-22T16:32:57Z</time>
      </trkpt>
      <trkpt lat="46.7521830" lon="6.3110280">
        <ele>916.0</ele>
        <time>2022-07-22T16:33:06Z</time>
      </trkpt>
      <trkpt lat="46.7519840" lon="6.3106890">
        <ele>916.0</ele>
        <time>2022-07-22T16:33:13Z</time>
      </trkpt>
      <trkpt lat="46.7517780" lon="6.3104550">
        <ele>916.6</ele>
        <time>2022-07-22T16:33:20Z</time>
      </trkpt>
      <trkpt lat="46.7515390" lon="6.3102150">
        <ele>917.4</ele>
        <time>2022-07-22T16:33:28Z</time>
      </trkpt>
      <trkpt lat="46.7514920" lon="6.3101520">
        <ele>917.4</ele>
        <time>2022-07-22T16:33:30Z</time>
      </trkpt>
      <trkpt lat="46.7513870" lon="6.3100760">
        <ele>917.8</ele>
        <time>2022-07-22T16:33:34Z</time>
      </trkpt>
      <trkpt lat="46.7512480" lon="6.3100040">
        <ele>918.4</ele>
        <time>2022-07-22T16:33:41Z</time>
      </trkpt>
      <trkpt lat="46.7512180" lon="6.3099700">
        <ele>918.6</ele>
        <time>2022-07-22T16:33:43Z</time>
      </trkpt>
      <trkpt lat="46.7511560" lon="6.3098910">
        <ele>919.4</ele>
        <time>2022-07-22T16:33:47Z</time>
      </trkpt>
      <trkpt lat="46.7510590" lon="6.3098450">
        <ele>919.8</ele>
        <time>2022-07-22T16:33:52Z</time>
      </trkpt>
      <trkpt lat="46.7510410" lon="6.3098400">
        <ele>919.8</ele>
        <time>2022-07-22T16:33:53Z</time>
      </trkpt>
      <trkpt lat="46.7509260" lon="6.3097790">
        <ele>920.6</ele>
        <time>2022-07-22T16:34:00Z</time>
      </trkpt>
      <trkpt lat="46.7509100" lon="6.3097740">
        <ele>920.8</ele>
        <time>2022-07-22T16:34:01Z</time>
      </trkpt>
      <trkpt lat="46.7508760" lon="6.3097710">
        <ele>921.2</ele>
        <time>2022-07-22T16:34:05Z</time>
      </trkpt>
      <trkpt lat="46.7508070" lon="6.3097400">
        <ele>921.8</ele>
        <time>2022-07-22T16:34:10Z</time>
      </trkpt>
      <trkpt lat="46.7507700" lon="6.3097210">
        <ele>922.0</ele>
        <time>2022-07-22T16:34:12Z</time>
      </trkpt>
      <trkpt lat="46.7506750" lon="6.3096530">
        <ele>922.6</ele>
        <time>2022-07-22T16:34:17Z</time>
      </trkpt>
      <trkpt lat="46.7506510" lon="6.3096240">
        <ele>922.8</ele>
        <time>2022-07-22T16:34:19Z</time>
      </trkpt>
      <trkpt lat="46.7506350" lon="6.3096090">
        <ele>922.8</ele>
        <time>2022-07-22T16:34:20Z</time>
      </trkpt>
      <trkpt lat="46.7505670" lon="6.3095540">
        <ele>923.8</ele>
        <time>2022-07-22T16:34:25Z</time>
      </trkpt>
      <trkpt lat="46.7505250" lon="6.3095090">
        <ele>924.2</ele>
        <time>2022-07-22T16:34:28Z</time>
      </trkpt>
      <trkpt lat="46.7504650" lon="6.3094480">
        <ele>924.6</ele>
        <time>2022-07-22T16:34:32Z</time>
      </trkpt>
      <trkpt lat="46.7503200" lon="6.3093250">
        <ele>925.2</ele>
        <time>2022-07-22T16:34:39Z</time>
      </trkpt>
      <trkpt lat="46.7502970" lon="6.3093030">
        <ele>925.4</ele>
        <time>2022-07-22T16:34:40Z</time>
      </trkpt>
      <trkpt lat="46.7501160" lon="6.3091260">
        <ele>926.2</ele>
        <time>2022-07-22T16:34:48Z</time>
      </trkpt>
      <trkpt lat="46.7500910" lon="6.3091060">
        <ele>926.4</ele>
        <time>2022-07-22T16:34:49Z</time>
      </trkpt>
      <trkpt lat="46.7498890" lon="6.3089240">
        <ele>927.2</ele>
        <time>2022-07-22T16:34:58Z</time>
      </trkpt>
      <trkpt lat="46.7497920" lon="6.3088100">
        <ele>927.6</ele>
        <time>2022-07-22T16:35:03Z</time>
      </trkpt>
      <trkpt lat="46.7496750" lon="6.3086550">
        <ele>928.0</ele>
        <time>2022-07-22T16:35:09Z</time>
      </trkpt>
      <trkpt lat="46.7494970" lon="6.3083740">
        <ele>928.2</ele>
        <time>2022-07-22T16:35:18Z</time>
      </trkpt>
      <trkpt lat="46.7493840" lon="6.3081630">
        <ele>928.2</ele>
        <time>2022-07-22T16:35:23Z</time>
      </trkpt>
      <trkpt lat="46.7493340" lon="6.3080610">
        <ele>928.2</ele>
        <time>2022-07-22T16:35:25Z</time>
      </trkpt>
      <trkpt lat="46.7491470" lon="6.3076620">
        <ele>927.8</ele>
        <time>2022-07-22T16:35:31Z</time>
      </trkpt>
      <trkpt lat="46.7488780" lon="6.3072260">
        <ele>926.8</ele>
        <time>2022-07-22T16:35:37Z</time>
      </trkpt>
      <trkpt lat="46.7487700" lon="6.3071020">
        <ele>926.4</ele>
        <time>2022-07-22T16:35:39Z</time>
      </trkpt>
      <trkpt lat="46.7484600" lon="6.3067790">
        <ele>925.4</ele>
        <time>2022-07-22T16:35:45Z</time>
      </trkpt>
      <trkpt lat="46.7482180" lon="6.3064850">
        <ele>924.4</ele>
        <time>2022-07-22T16:35:51Z</time>
      </trkpt>
      <trkpt lat="46.7479540" lon="6.3061340">
        <ele>924.2</ele>
        <time>2022-07-22T16:35:59Z</time>
      </trkpt>
      <trkpt lat="46.7477730" lon="6.3058370">
        <ele>924.2</ele>
        <time>2022-07-22T16:36:06Z</time>
      </trkpt>
      <trkpt lat="46.7476210" lon="6.3055550">
        <ele>924.2</ele>
        <time>2022-07-22T16:36:13Z</time>
      </trkpt>
      <trkpt lat="46.7474770" lon="6.3052350">
        <ele>924.2</ele>
        <time>2022-07-22T16:36:19Z</time>
      </trkpt>
      <trkpt lat="46.7473480" lon="6.3050980">
        <ele>924.2</ele>
        <time>2022-07-22T16:36:23Z</time>
      </trkpt>
      <trkpt lat="46.7472990" lon="6.3050890">
        <ele>924.0</ele>
        <time>2022-07-22T16:36:25Z</time>
      </trkpt>
      <trkpt lat="46.7472300" lon="6.3050840">
        <ele>924.0</ele>
        <time>2022-07-22T16:36:28Z</time>
      </trkpt>
      <trkpt lat="46.7470040" lon="6.3050690">
        <ele>924.4</ele>
        <time>2022-07-22T16:36:38Z</time>
      </trkpt>
      <trkpt lat="46.7468090" lon="6.3050420">
        <ele>925.4</ele>
        <time>2022-07-22T16:36:47Z</time>
      </trkpt>
      <trkpt lat="46.7467610" lon="6.3050280">
        <ele>925.8</ele>
        <time>2022-07-22T16:36:50Z</time>
      </trkpt>
      <trkpt lat="46.7466980" lon="6.3049950">
        <ele>926.2</ele>
        <time>2022-07-22T16:36:54Z</time>
      </trkpt>
      <trkpt lat="46.7466030" lon="6.3049370">
        <ele>926.8</ele>
        <time>2022-07-22T16:37:00Z</time>
      </trkpt>
      <trkpt lat="46.7465650" lon="6.3049160">
        <ele>927.0</ele>
        <time>2022-07-22T16:37:02Z</time>
      </trkpt>
      <trkpt lat="46.7464620" lon="6.3048500">
        <ele>927.6</ele>
        <time>2022-07-22T16:37:08Z</time>
      </trkpt>
      <trkpt lat="46.7464410" lon="6.3048220">
        <ele>927.8</ele>
        <time>2022-07-22T16:37:10Z</time>
      </trkpt>
      <trkpt lat="46.7464220" lon="6.3047910">
        <ele>928.0</ele>
        <time>2022-07-22T16:37:12Z</time>
      </trkpt>
      <trkpt lat="46.7463990" lon="6.3047580">
        <ele>928.2</ele>
        <time>2022-07-22T16:37:14Z</time>
      </trkpt>
      <trkpt lat="46.7463420" lon="6.3046730">
        <ele>928.8</ele>
        <time>2022-07-22T16:37:19Z</time>
      </trkpt>
      <trkpt lat="46.7463330" lon="6.3046490">
        <ele>928.8</ele>
        <time>2022-07-22T16:37:20Z</time>
      </trkpt>
      <trkpt lat="46.7462710" lon="6.3045460">
        <ele>929.6</ele>
        <time>2022-07-22T16:37:26Z</time>
      </trkpt>
      <trkpt lat="46.7462510" lon="6.3045130">
        <ele>929.8</ele>
        <time>2022-07-22T16:37:28Z</time>
      </trkpt>
      <trkpt lat="46.7462300" lon="6.3044790">
        <ele>930.0</ele>
        <time>2022-07-22T16:37:30Z</time>
      </trkpt>
      <trkpt lat="46.7462090" lon="6.3044450">
        <ele>930.2</ele>
        <time>2022-07-22T16:37:32Z</time>
      </trkpt>
      <trkpt lat="46.7461640" lon="6.3043430">
        <ele>930.8</ele>
        <time>2022-07-22T16:37:37Z</time>
      </trkpt>
      <trkpt lat="46.7461580" lon="6.3043210">
        <ele>931.0</ele>
        <time>2022-07-22T16:37:38Z</time>
      </trkpt>
      <trkpt lat="46.7461430" lon="6.3042850">
        <ele>931.2</ele>
        <time>2022-07-22T16:37:40Z</time>
      </trkpt>
      <trkpt lat="46.7460750" lon="6.3041550">
        <ele>932.0</ele>
        <time>2022-07-22T16:37:47Z</time>
      </trkpt>
      <trkpt lat="46.7460640" lon="6.3041350">
        <ele>932.0</ele>
        <time>2022-07-22T16:37:48Z</time>
      </trkpt>
      <trkpt lat="46.7459900" lon="6.3040140">
        <ele>933.0</ele>
        <time>2022-07-22T16:37:55Z</time>
      </trkpt>
      <trkpt lat="46.7459780" lon="6.3040020">
        <ele>933.0</ele>
        <time>2022-07-22T16:37:56Z</time>
      </trkpt>
      <trkpt lat="46.7458800" lon="6.3038930">
        <ele>933.8</ele>
        <time>2022-07-22T16:38:04Z</time>
      </trkpt>
      <trkpt lat="46.7458660" lon="6.3038770">
        <ele>934.0</ele>
        <time>2022-07-22T16:38:05Z</time>
      </trkpt>
      <trkpt lat="46.7458160" lon="6.3038150">
        <ele>934.4</ele>
        <time>2022-07-22T16:38:09Z</time>
      </trkpt>
      <trkpt lat="46.7457610" lon="6.3037440">
        <ele>935.0</ele>
        <time>2022-07-22T16:38:14Z</time>
      </trkpt>
      <trkpt lat="46.7457470" lon="6.3037340">
        <ele>935.2</ele>
        <time>2022-07-22T16:38:15Z</time>
      </trkpt>
      <trkpt lat="46.7456780" lon="6.3036620">
        <ele>936.0</ele>
        <time>2022-07-22T16:38:21Z</time>
      </trkpt>
      <trkpt lat="46.7456660" lon="6.3036510">
        <ele>936.0</ele>
        <time>2022-07-22T16:38:22Z</time>
      </trkpt>
      <trkpt lat="46.7455920" lon="6.3035740">
        <ele>937.0</ele>
        <time>2022-07-22T16:38:29Z</time>
      </trkpt>
      <trkpt lat="46.7455840" lon="6.3035610">
        <ele>937.2</ele>
        <time>2022-07-22T16:38:30Z</time>
      </trkpt>
      <trkpt lat="46.7455370" lon="6.3035370">
        <ele>937.6</ele>
        <time>2022-07-22T16:38:35Z</time>
      </trkpt>
      <trkpt lat="46.7454850" lon="6.3034880">
        <ele>938.0</ele>
        <time>2022-07-22T16:38:41Z</time>
      </trkpt>
      <trkpt lat="46.7454820" lon="6.3034770">
        <ele>938.2</ele>
        <time>2022-07-22T16:38:42Z</time>
      </trkpt>
      <trkpt lat="46.7454290" lon="6.3034240">
        <ele>939.0</ele>
        <time>2022-07-22T16:38:49Z</time>
      </trkpt>
      <trkpt lat="46.7454230" lon="6.3034210">
        <ele>939.4</ele>
        <time>2022-07-22T16:38:50Z</time>
      </trkpt>
      <trkpt lat="46.7453690" lon="6.3033800">
        <ele>940.4</ele>
        <time>2022-07-22T16:38:56Z</time>
      </trkpt>
      <trkpt lat="46.7453130" lon="6.3033350">
        <ele>941.2</ele>
        <time>2022-07-22T16:39:02Z</time>
      </trkpt>
      <trkpt lat="46.7453060" lon="6.3033290">
        <ele>941.4</ele>
        <time>2022-07-22T16:39:03Z</time>
      </trkpt>
      <trkpt lat="46.7452350" lon="6.3032840">
        <ele>942.2</ele>
        <time>2022-07-22T16:39:10Z</time>
      </trkpt>
      <trkpt lat="46.7452050" lon="6.3032760">
        <ele>942.4</ele>
        <time>2022-07-22T16:39:13Z</time>
      </trkpt>
      <trkpt lat="46.7451640" lon="6.3032700">
        <ele>943.0</ele>
        <time>2022-07-22T16:39:17Z</time>
      </trkpt>
      <trkpt lat="46.7451350" lon="6.3032730">
        <ele>943.6</ele>
        <time>2022-07-22T16:39:20Z</time>
      </trkpt>
      <trkpt lat="46.7450880" lon="6.3032740">
        <ele>944.6</ele>
        <time>2022-07-22T16:39:25Z</time>
      </trkpt>
      <trkpt lat="46.7450280" lon="6.3033140">
        <ele>945.8</ele>
        <time>2022-07-22T16:39:33Z</time>
      </trkpt>
      <trkpt lat="46.7450010" lon="6.3033550">
        <ele>946.2</ele>
        <time>2022-07-22T16:39:37Z</time>
      </trkpt>
      <trkpt lat="46.7449670" lon="6.3034270">
        <ele>946.8</ele>
        <time>2022-07-22T16:39:43Z</time>
      </trkpt>
      <trkpt lat="46.7449570" lon="6.3034840">
        <ele>947.4</ele>
        <time>2022-07-22T16:39:47Z</time>
      </trkpt>
      <trkpt lat="46.7449570" lon="6.3034960">
        <ele>947.6</ele>
        <time>2022-07-22T16:39:48Z</time>
      </trkpt>
      <trkpt lat="46.7449590" lon="6.3035430">
        <ele>948.0</ele>
        <time>2022-07-22T16:39:51Z</time>
      </trkpt>
      <trkpt lat="46.7449630" lon="6.3036840">
        <ele>948.6</ele>
        <time>2022-07-22T16:40:00Z</time>
      </trkpt>
      <trkpt lat="46.7449640" lon="6.3036970">
        <ele>948.8</ele>
        <time>2022-07-22T16:40:01Z</time>
      </trkpt>
      <trkpt lat="46.7449560" lon="6.3038630">
        <ele>949.8</ele>
        <time>2022-07-22T16:40:11Z</time>
      </trkpt>
      <trkpt lat="46.7449550" lon="6.3038790">
        <ele>949.8</ele>
        <time>2022-07-22T16:40:12Z</time>
      </trkpt>
      <trkpt lat="46.7449040" lon="6.3040270">
        <ele>950.6</ele>
        <time>2022-07-22T16:40:20Z</time>
      </trkpt>
      <trkpt lat="46.7448570" lon="6.3041230">
        <ele>950.8</ele>
        <time>2022-07-22T16:40:26Z</time>
      </trkpt>
      <trkpt lat="46.7448500" lon="6.3041380">
        <ele>951.0</ele>
        <time>2022-07-22T16:40:27Z</time>
      </trkpt>
      <trkpt lat="46.7447930" lon="6.3042390">
        <ele>951.6</ele>
        <time>2022-07-22T16:40:34Z</time>
      </trkpt>
      <trkpt lat="46.7447820" lon="6.3042710">
        <ele>951.8</ele>
        <time>2022-07-22T16:40:36Z</time>
      </trkpt>
      <trkpt lat="46.7447780" lon="6.3042890">
        <ele>952.0</ele>
        <time>2022-07-22T16:40:37Z</time>
      </trkpt>
      <trkpt lat="46.7447660" lon="6.3043340">
        <ele>952.4</ele>
        <time>2022-07-22T16:40:40Z</time>
      </trkpt>
      <trkpt lat="46.7447320" lon="6.3043990">
        <ele>953.2</ele>
        <time>2022-07-22T16:40:45Z</time>
      </trkpt>
      <trkpt lat="46.7447290" lon="6.3044190">
        <ele>953.2</ele>
        <time>2022-07-22T16:40:46Z</time>
      </trkpt>
      <trkpt lat="46.7447250" lon="6.3044360">
        <ele>953.4</ele>
        <time>2022-07-22T16:40:47Z</time>
      </trkpt>
      <trkpt lat="46.7446940" lon="6.3045290">
        <ele>954.2</ele>
        <time>2022-07-22T16:40:53Z</time>
      </trkpt>
      <trkpt lat="46.7446870" lon="6.3045390">
        <ele>954.2</ele>
        <time>2022-07-22T16:40:54Z</time>
      </trkpt>
      <trkpt lat="46.7446320" lon="6.3046260">
        <ele>954.8</ele>
        <time>2022-07-22T16:41:01Z</time>
      </trkpt>
      <trkpt lat="46.7446160" lon="6.3046660">
        <ele>955.2</ele>
        <time>2022-07-22T16:41:04Z</time>
      </trkpt>
      <trkpt lat="46.7445820" lon="6.3047590">
        <ele>956.0</ele>
        <time>2022-07-22T16:41:10Z</time>
      </trkpt>
      <trkpt lat="46.7445720" lon="6.3047900">
        <ele>956.2</ele>
        <time>2022-07-22T16:41:12Z</time>
      </trkpt>
      <trkpt lat="46.7445350" lon="6.3049020">
        <ele>957.0</ele>
        <time>2022-07-22T16:41:19Z</time>
      </trkpt>
      <trkpt lat="46.7445320" lon="6.3049160">
        <ele>957.0</ele>
        <time>2022-07-22T16:41:20Z</time>
      </trkpt>
      <trkpt lat="46.7444900" lon="6.3050210">
        <ele>957.8</ele>
        <time>2022-07-22T16:41:27Z</time>
      </trkpt>
      <trkpt lat="46.7444660" lon="6.3050630">
        <ele>958.2</ele>
        <time>2022-07-22T16:41:30Z</time>
      </trkpt>
      <trkpt lat="46.7444350" lon="6.3051260">
        <ele>958.6</ele>
        <time>2022-07-22T16:41:35Z</time>
      </trkpt>
      <trkpt lat="46.7444010" lon="6.3052270">
        <ele>959.2</ele>
        <time>2022-07-22T16:41:43Z</time>
      </trkpt>
      <trkpt lat="46.7443780" lon="6.3053360">
        <ele>960.0</ele>
        <time>2022-07-22T16:41:52Z</time>
      </trkpt>
      <trkpt lat="46.7443700" lon="6.3053790">
        <ele>960.2</ele>
        <time>2022-07-22T16:41:55Z</time>
      </trkpt>
      <trkpt lat="46.7443560" lon="6.3054600">
        <ele>961.0</ele>
        <time>2022-07-22T16:42:01Z</time>
      </trkpt>
      <trkpt lat="46.7443470" lon="6.3054840">
        <ele>961.0</ele>
        <time>2022-07-22T16:42:03Z</time>
      </trkpt>
      <trkpt lat="46.7443450" lon="6.3055450">
        <ele>961.8</ele>
        <time>2022-07-22T16:42:08Z</time>
      </trkpt>
      <trkpt lat="46.7443450" lon="6.3055860">
        <ele>962.0</ele>
        <time>2022-07-22T16:42:11Z</time>
      </trkpt>
      <trkpt lat="46.7443310" lon="6.3056700">
        <ele>962.8</ele>
        <time>2022-07-22T16:42:17Z</time>
      </trkpt>
      <trkpt lat="46.7443250" lon="6.3057250">
        <ele>963.2</ele>
        <time>2022-07-22T16:42:21Z</time>
      </trkpt>
      <trkpt lat="46.7443200" lon="6.3057670">
        <ele>963.4</ele>
        <time>2022-07-22T16:42:24Z</time>
      </trkpt>
      <trkpt lat="46.7443010" lon="6.3058780">
        <ele>964.0</ele>
        <time>2022-07-22T16:42:32Z</time>
      </trkpt>
      <trkpt lat="46.7442930" lon="6.3058870">
        <ele>964.2</ele>
        <time>2022-07-22T16:42:33Z</time>
      </trkpt>
      <trkpt lat="46.7442570" lon="6.3059560">
        <ele>964.8</ele>
        <time>2022-07-22T16:42:39Z</time>
      </trkpt>
      <trkpt lat="46.7442370" lon="6.3059850">
        <ele>965.2</ele>
        <time>2022-07-22T16:42:42Z</time>
      </trkpt>
      <trkpt lat="46.7441980" lon="6.3060080">
        <ele>965.8</ele>
        <time>2022-07-22T16:42:46Z</time>
      </trkpt>
      <trkpt lat="46.7441530" lon="6.3060070">
        <ele>966.2</ele>
        <time>2022-07-22T16:42:50Z</time>
      </trkpt>
      <trkpt lat="46.7441240" lon="6.3060050">
        <ele>966.4</ele>
        <time>2022-07-22T16:42:53Z</time>
      </trkpt>
      <trkpt lat="46.7440700" lon="6.3060110">
        <ele>967.0</ele>
        <time>2022-07-22T16:42:58Z</time>
      </trkpt>
      <trkpt lat="46.7440400" lon="6.3060150">
        <ele>967.4</ele>
        <time>2022-07-22T16:43:01Z</time>
      </trkpt>
      <trkpt lat="46.7440300" lon="6.3060140">
        <ele>967.4</ele>
        <time>2022-07-22T16:43:02Z</time>
      </trkpt>
      <trkpt lat="46.7439770" lon="6.3059990">
        <ele>968.4</ele>
        <time>2022-07-22T16:43:09Z</time>
      </trkpt>
      <trkpt lat="46.7438460" lon="6.3059730">
        <ele>968.8</ele>
        <time>2022-07-22T16:44:20Z</time>
      </trkpt>
      <trkpt lat="46.7437990" lon="6.3059690">
        <ele>968.8</ele>
        <time>2022-07-22T16:44:23Z</time>
      </trkpt>
      <trkpt lat="46.7436760" lon="6.3059330">
        <ele>969.6</ele>
        <time>2022-07-22T16:44:31Z</time>
      </trkpt>
      <trkpt lat="46.7436450" lon="6.3059240">
        <ele>969.8</ele>
        <time>2022-07-22T16:44:33Z</time>
      </trkpt>
      <trkpt lat="46.7435820" lon="6.3059090">
        <ele>970.4</ele>
        <time>2022-07-22T16:44:38Z</time>
      </trkpt>
      <trkpt lat="46.7434870" lon="6.3059070">
        <ele>971.0</ele>
        <time>2022-07-22T16:44:45Z</time>
      </trkpt>
      <trkpt lat="46.7434020" lon="6.3058760">
        <ele>972.0</ele>
        <time>2022-07-22T16:44:54Z</time>
      </trkpt>
      <trkpt lat="46.7433930" lon="6.3058740">
        <ele>972.0</ele>
        <time>2022-07-22T16:44:55Z</time>
      </trkpt>
      <trkpt lat="46.7433360" lon="6.3058880">
        <ele>972.6</ele>
        <time>2022-07-22T16:45:01Z</time>
      </trkpt>
      <trkpt lat="46.7432780" lon="6.3059060">
        <ele>973.2</ele>
        <time>2022-07-22T16:45:06Z</time>
      </trkpt>
      <trkpt lat="46.7432140" lon="6.3059110">
        <ele>974.2</ele>
        <time>2022-07-22T16:45:13Z</time>
      </trkpt>
      <trkpt lat="46.7431580" lon="6.3059310">
        <ele>975.2</ele>
        <time>2022-07-22T16:45:20Z</time>
      </trkpt>
      <trkpt lat="46.7431420" lon="6.3059430">
        <ele>975.6</ele>
        <time>2022-07-22T16:45:22Z</time>
      </trkpt>
      <trkpt lat="46.7431170" lon="6.3059620">
        <ele>976.2</ele>
        <time>2022-07-22T16:45:27Z</time>
      </trkpt>
      <trkpt lat="46.7431130" lon="6.3059640">
        <ele>976.4</ele>
        <time>2022-07-22T16:45:28Z</time>
      </trkpt>
      <trkpt lat="46.7431650" lon="6.3059500">
        <ele>977.6</ele>
        <time>2022-07-22T16:45:56Z</time>
      </trkpt>
      <trkpt lat="46.7431820" lon="6.3059450">
        <ele>977.6</ele>
        <time>2022-07-22T16:45:57Z</time>
      </trkpt>
      <trkpt lat="46.7432400" lon="6.3059180">
        <ele>977.2</ele>
        <time>2022-07-22T16:46:03Z</time>
      </trkpt>
      <trkpt lat="46.7432720" lon="6.3058980">
        <ele>976.0</ele>
        <time>2022-07-22T16:46:06Z</time>
      </trkpt>
      <trkpt lat="46.7432740" lon="6.3058770">
        <ele>975.2</ele>
        <time>2022-07-22T16:46:08Z</time>
      </trkpt>
      <trkpt lat="46.7432640" lon="6.3058650">
        <ele>975.0</ele>
        <time>2022-07-22T16:46:09Z</time>
      </trkpt>
      <trkpt lat="46.7432490" lon="6.3058570">
        <ele>974.8</ele>
        <time>2022-07-22T16:46:10Z</time>
      </trkpt>
      <trkpt lat="46.7432260" lon="6.3058550">
        <ele>974.6</ele>
        <time>2022-07-22T16:46:12Z</time>
      </trkpt>
      <trkpt lat="46.7432000" lon="6.3058580">
        <ele>974.2</ele>
        <time>2022-07-22T16:46:14Z</time>
      </trkpt>
      <trkpt lat="46.7430700" lon="6.3058570">
        <ele>974.2</ele>
        <time>2022-07-22T16:46:23Z</time>
      </trkpt>
      <trkpt lat="46.7429620" lon="6.3058310">
        <ele>974.6</ele>
        <time>2022-07-22T16:46:30Z</time>
      </trkpt>
      <trkpt lat="46.7428520" lon="6.3058010">
        <ele>974.8</ele>
        <time>2022-07-22T16:46:37Z</time>
      </trkpt>
      <trkpt lat="46.7427810" lon="6.3057600">
        <ele>975.2</ele>
        <time>2022-07-22T16:46:43Z</time>
      </trkpt>
      <trkpt lat="46.7427740" lon="6.3057620">
        <ele>975.2</ele>
        <time>2022-07-22T16:46:45Z</time>
      </trkpt>
      <trkpt lat="46.7426990" lon="6.3055350">
        <ele>976.2</ele>
        <time>2022-07-22T16:47:18Z</time>
      </trkpt>
      <trkpt lat="46.7426970" lon="6.3055130">
        <ele>976.2</ele>
        <time>2022-07-22T16:47:19Z</time>
      </trkpt>
      <trkpt lat="46.7426740" lon="6.3053570">
        <ele>977.2</ele>
        <time>2022-07-22T16:47:28Z</time>
      </trkpt>
      <trkpt lat="46.7426690" lon="6.3053230">
        <ele>977.4</ele>
        <time>2022-07-22T16:47:30Z</time>
      </trkpt>
      <trkpt lat="46.7426480" lon="6.3052240">
        <ele>978.6</ele>
        <time>2022-07-22T16:47:36Z</time>
      </trkpt>
      <trkpt lat="46.7426310" lon="6.3051390">
        <ele>979.6</ele>
        <time>2022-07-22T16:47:42Z</time>
      </trkpt>
      <trkpt lat="46.7426230" lon="6.3051030">
        <ele>980.0</ele>
        <time>2022-07-22T16:47:44Z</time>
      </trkpt>
      <trkpt lat="46.7425880" lon="6.3049550">
        <ele>980.8</ele>
        <time>2022-07-22T16:47:52Z</time>
      </trkpt>
      <trkpt lat="46.7425570" lon="6.3047790">
        <ele>981.8</ele>
        <time>2022-07-22T16:48:01Z</time>
      </trkpt>
      <trkpt lat="46.7425300" lon="6.3046200">
        <ele>982.4</ele>
        <time>2022-07-22T16:48:09Z</time>
      </trkpt>
      <trkpt lat="46.7425010" lon="6.3045290">
        <ele>982.8</ele>
        <time>2022-07-22T16:48:14Z</time>
      </trkpt>
      <trkpt lat="46.7424740" lon="6.3044490">
        <ele>983.4</ele>
        <time>2022-07-22T16:48:19Z</time>
      </trkpt>
      <trkpt lat="46.7424310" lon="6.3043760">
        <ele>984.0</ele>
        <time>2022-07-22T16:48:25Z</time>
      </trkpt>
      <trkpt lat="46.7424160" lon="6.3043720">
        <ele>984.0</ele>
        <time>2022-07-22T16:48:26Z</time>
      </trkpt>
      <trkpt lat="46.7423560" lon="6.3044140">
        <ele>984.2</ele>
        <time>2022-07-22T16:48:30Z</time>
      </trkpt>
      <trkpt lat="46.7423410" lon="6.3044280">
        <ele>984.2</ele>
        <time>2022-07-22T16:48:31Z</time>
      </trkpt>
      <trkpt lat="46.7422140" lon="6.3045130">
        <ele>985.0</ele>
        <time>2022-07-22T16:48:39Z</time>
      </trkpt>
      <trkpt lat="46.7421960" lon="6.3045200">
        <ele>985.2</ele>
        <time>2022-07-22T16:48:40Z</time>
      </trkpt>
      <trkpt lat="46.7420780" lon="6.3045080">
        <ele>985.6</ele>
        <time>2022-07-22T16:48:47Z</time>
      </trkpt>
      <trkpt lat="46.7419680" lon="6.3044120">
        <ele>986.2</ele>
        <time>2022-07-22T16:48:54Z</time>
      </trkpt>
      <trkpt lat="46.7418530" lon="6.3041910">
        <ele>987.2</ele>
        <time>2022-07-22T16:49:03Z</time>
      </trkpt>
      <trkpt lat="46.7418430" lon="6.3041660">
        <ele>987.2</ele>
        <time>2022-07-22T16:49:04Z</time>
      </trkpt>
      <trkpt lat="46.7417670" lon="6.3039720">
        <ele>988.0</ele>
        <time>2022-07-22T16:49:12Z</time>
      </trkpt>
      <trkpt lat="46.7417480" lon="6.3039200">
        <ele>988.2</ele>
        <time>2022-07-22T16:49:14Z</time>
      </trkpt>
      <trkpt lat="46.7416960" lon="6.3037160">
        <ele>988.8</ele>
        <time>2022-07-22T16:49:21Z</time>
      </trkpt>
      <trkpt lat="46.7416410" lon="6.3034560">
        <ele>989.2</ele>
        <time>2022-07-22T16:49:29Z</time>
      </trkpt>
      <trkpt lat="46.7416290" lon="6.3033900">
        <ele>989.6</ele>
        <time>2022-07-22T16:49:31Z</time>
      </trkpt>
      <trkpt lat="46.7415560" lon="6.3030840">
        <ele>990.2</ele>
        <time>2022-07-22T16:49:40Z</time>
      </trkpt>
      <trkpt lat="46.7414790" lon="6.3029230">
        <ele>990.2</ele>
        <time>2022-07-22T16:49:45Z</time>
      </trkpt>
      <trkpt lat="46.7414430" lon="6.3028700">
        <ele>990.4</ele>
        <time>2022-07-22T16:49:47Z</time>
      </trkpt>
      <trkpt lat="46.7413120" lon="6.3026920">
        <ele>990.8</ele>
        <time>2022-07-22T16:49:56Z</time>
      </trkpt>
      <trkpt lat="46.7412590" lon="6.3026250">
        <ele>991.8</ele>
        <time>2022-07-22T16:50:00Z</time>
      </trkpt>
      <trkpt lat="46.7412060" lon="6.3025620">
        <ele>992.4</ele>
        <time>2022-07-22T16:50:04Z</time>
      </trkpt>
      <trkpt lat="46.7411860" lon="6.3025300">
        <ele>992.8</ele>
        <time>2022-07-22T16:50:06Z</time>
      </trkpt>
      <trkpt lat="46.7411470" lon="6.3024760">
        <ele>993.2</ele>
        <time>2022-07-22T16:50:10Z</time>
      </trkpt>
      <trkpt lat="46.7411300" lon="6.3024450">
        <ele>993.6</ele>
        <time>2022-07-22T16:50:12Z</time>
      </trkpt>
      <trkpt lat="46.7410990" lon="6.3024070">
        <ele>993.8</ele>
        <time>2022-07-22T16:50:15Z</time>
      </trkpt>
      <trkpt lat="46.7410670" lon="6.3023590">
        <ele>994.2</ele>
        <time>2022-07-22T16:50:19Z</time>
      </trkpt>
      <trkpt lat="46.7410400" lon="6.3023210">
        <ele>994.6</ele>
        <time>2022-07-22T16:50:22Z</time>
      </trkpt>
      <trkpt lat="46.7410170" lon="6.3022950">
        <ele>995.0</ele>
        <time>2022-07-22T16:50:24Z</time>
      </trkpt>
      <trkpt lat="46.7410040" lon="6.3022790">
        <ele>995.0</ele>
        <time>2022-07-22T16:50:25Z</time>
      </trkpt>
      <trkpt lat="46.7409180" lon="6.3022070">
        <ele>996.0</ele>
        <time>2022-07-22T16:50:30Z</time>
      </trkpt>
      <trkpt lat="46.7408660" lon="6.3021690">
        <ele>996.6</ele>
        <time>2022-07-22T16:50:33Z</time>
      </trkpt>
      <trkpt lat="46.7408110" lon="6.3021330">
        <ele>997.0</ele>
        <time>2022-07-22T16:50:36Z</time>
      </trkpt>
      <trkpt lat="46.7407190" lon="6.3021010">
        <ele>997.4</ele>
        <time>2022-07-22T16:50:41Z</time>
      </trkpt>
      <trkpt lat="46.7405890" lon="6.3020860">
        <ele>997.8</ele>
        <time>2022-07-22T16:50:50Z</time>
      </trkpt>
      <trkpt lat="46.7405760" lon="6.3020880">
        <ele>998.0</ele>
        <time>2022-07-22T16:50:51Z</time>
      </trkpt>
      <trkpt lat="46.7405060" lon="6.3021480">
        <ele>998.8</ele>
        <time>2022-07-22T16:50:56Z</time>
      </trkpt>
      <trkpt lat="46.7404810" lon="6.3021920">
        <ele>999.2</ele>
        <time>2022-07-22T16:50:58Z</time>
      </trkpt>
      <trkpt lat="46.7404450" lon="6.3022930">
        <ele>999.4</ele>
        <time>2022-07-22T16:51:02Z</time>
      </trkpt>
      <trkpt lat="46.7403690" lon="6.3025010">
        <ele>1000.2</ele>
        <time>2022-07-22T16:51:10Z</time>
      </trkpt>
      <trkpt lat="46.7403350" lon="6.3025610">
        <ele>1000.4</ele>
        <time>2022-07-22T16:51:13Z</time>
      </trkpt>
      <trkpt lat="46.7402840" lon="6.3026100">
        <ele>1000.6</ele>
        <time>2022-07-22T16:51:17Z</time>
      </trkpt>
      <trkpt lat="46.7401710" lon="6.3026080">
        <ele>1001.4</ele>
        <time>2022-07-22T16:51:25Z</time>
      </trkpt>
      <trkpt lat="46.7400800" lon="6.3025490">
        <ele>1002.6</ele>
        <time>2022-07-22T16:51:33Z</time>
      </trkpt>
      <trkpt lat="46.7400030" lon="6.3024840">
        <ele>1003.4</ele>
        <time>2022-07-22T16:51:40Z</time>
      </trkpt>
      <trkpt lat="46.7399920" lon="6.3024750">
        <ele>1003.6</ele>
        <time>2022-07-22T16:51:41Z</time>
      </trkpt>
      <trkpt lat="46.7399080" lon="6.3024120">
        <ele>1004.8</ele>
        <time>2022-07-22T16:51:49Z</time>
      </trkpt>
      <trkpt lat="46.7398140" lon="6.3023590">
        <ele>1005.6</ele>
        <time>2022-07-22T16:51:57Z</time>
      </trkpt>
      <trkpt lat="46.7397900" lon="6.3023490">
        <ele>1005.8</ele>
        <time>2022-07-22T16:51:59Z</time>
      </trkpt>
      <trkpt lat="46.7397030" lon="6.3022990">
        <ele>1006.8</ele>
        <time>2022-07-22T16:52:06Z</time>
      </trkpt>
      <trkpt lat="46.7396750" lon="6.3022850">
        <ele>1007.0</ele>
        <time>2022-07-22T16:52:08Z</time>
      </trkpt>
      <trkpt lat="46.7395490" lon="6.3022140">
        <ele>1007.8</ele>
        <time>2022-07-22T16:52:17Z</time>
      </trkpt>
      <trkpt lat="46.7395360" lon="6.3022070">
        <ele>1007.8</ele>
        <time>2022-07-22T16:52:18Z</time>
      </trkpt>
      <trkpt lat="46.7394570" lon="6.3021470">
        <ele>1008.4</ele>
        <time>2022-07-22T16:52:24Z</time>
      </trkpt>
      <trkpt lat="46.7394430" lon="6.3021430">
        <ele>1008.6</ele>
        <time>2022-07-22T16:52:25Z</time>
      </trkpt>
      <trkpt lat="46.7393660" lon="6.3020990">
        <ele>1009.0</ele>
        <time>2022-07-22T16:52:30Z</time>
      </trkpt>
      <trkpt lat="46.7393110" lon="6.3020640">
        <ele>1009.4</ele>
        <time>2022-07-22T16:52:34Z</time>
      </trkpt>
      <trkpt lat="46.7392170" lon="6.3020020">
        <ele>1010.2</ele>
        <time>2022-07-22T16:52:40Z</time>
      </trkpt>
      <trkpt lat="46.7391850" lon="6.3019820">
        <ele>1010.4</ele>
        <time>2022-07-22T16:52:42Z</time>
      </trkpt>
      <trkpt lat="46.7390690" lon="6.3019140">
        <ele>1011.2</ele>
        <time>2022-07-22T16:52:50Z</time>
      </trkpt>
      <trkpt lat="46.7390540" lon="6.3019060">
        <ele>1011.4</ele>
        <time>2022-07-22T16:52:51Z</time>
      </trkpt>
      <trkpt lat="46.7389320" lon="6.3018530">
        <ele>1012.2</ele>
        <time>2022-07-22T16:52:59Z</time>
      </trkpt>
      <trkpt lat="46.7389170" lon="6.3018460">
        <ele>1012.2</ele>
        <time>2022-07-22T16:53:00Z</time>
      </trkpt>
      <trkpt lat="46.7387980" lon="6.3018180">
        <ele>1013.2</ele>
        <time>2022-07-22T16:53:08Z</time>
      </trkpt>
      <trkpt lat="46.7387830" lon="6.3018160">
        <ele>1013.4</ele>
        <time>2022-07-22T16:53:09Z</time>
      </trkpt>
      <trkpt lat="46.7386360" lon="6.3018240">
        <ele>1014.2</ele>
        <time>2022-07-22T16:53:18Z</time>
      </trkpt>
      <trkpt lat="46.7386010" lon="6.3018270">
        <ele>1014.4</ele>
        <time>2022-07-22T16:53:20Z</time>
      </trkpt>
      <trkpt lat="46.7384670" lon="6.3018460">
        <ele>1015.2</ele>
        <time>2022-07-22T16:53:28Z</time>
      </trkpt>
      <trkpt lat="46.7384120" lon="6.3018640">
        <ele>1015.4</ele>
        <time>2022-07-22T16:53:32Z</time>
      </trkpt>
      <trkpt lat="46.7383470" lon="6.3018930">
        <ele>1016.2</ele>
        <time>2022-07-22T16:53:37Z</time>
      </trkpt>
      <trkpt lat="46.7383220" lon="6.3019060">
        <ele>1016.6</ele>
        <time>2022-07-22T16:53:39Z</time>
      </trkpt>
      <trkpt lat="46.7382720" lon="6.3019340">
        <ele>1017.2</ele>
        <time>2022-07-22T16:53:43Z</time>
      </trkpt>
      <trkpt lat="46.7382360" lon="6.3019540">
        <ele>1017.6</ele>
        <time>2022-07-22T16:53:46Z</time>
      </trkpt>
      <trkpt lat="46.7381770" lon="6.3019940">
        <ele>1018.2</ele>
        <time>2022-07-22T16:53:51Z</time>
      </trkpt>
      <trkpt lat="46.7381390" lon="6.3020160">
        <ele>1018.6</ele>
        <time>2022-07-22T16:53:54Z</time>
      </trkpt>
      <trkpt lat="46.7380790" lon="6.3020510">
        <ele>1019.4</ele>
        <time>2022-07-22T16:53:59Z</time>
      </trkpt>
      <trkpt lat="46.7380320" lon="6.3020690">
        <ele>1019.8</ele>
        <time>2022-07-22T16:54:03Z</time>
      </trkpt>
      <trkpt lat="46.7380030" lon="6.3020770">
        <ele>1020.0</ele>
        <time>2022-07-22T16:54:06Z</time>
      </trkpt>
      <trkpt lat="46.7379850" lon="6.3020740">
        <ele>1020.0</ele>
        <time>2022-07-22T16:54:08Z</time>
      </trkpt>
      <trkpt lat="46.7379500" lon="6.3020450">
        <ele>1020.4</ele>
        <time>2022-07-22T16:54:12Z</time>
      </trkpt>
      <trkpt lat="46.7379400" lon="6.3020360">
        <ele>1020.6</ele>
        <time>2022-07-22T16:54:13Z</time>
      </trkpt>
      <trkpt lat="46.7378530" lon="6.3019720">
        <ele>1021.4</ele>
        <time>2022-07-22T16:54:21Z</time>
      </trkpt>
      <trkpt lat="46.7378330" lon="6.3019610">
        <ele>1021.6</ele>
        <time>2022-07-22T16:54:23Z</time>
      </trkpt>
      <trkpt lat="46.7378020" lon="6.3019370">
        <ele>1022.2</ele>
        <time>2022-07-22T16:54:27Z</time>
      </trkpt>
      <trkpt lat="46.7377890" lon="6.3019250">
        <ele>1022.6</ele>
        <time>2022-07-22T16:54:30Z</time>
      </trkpt>
      <trkpt lat="46.7377790" lon="6.3019110">
        <ele>1023.0</ele>
        <time>2022-07-22T16:54:33Z</time>
      </trkpt>
      <trkpt lat="46.7377300" lon="6.3018200">
        <ele>1024.0</ele>
        <time>2022-07-22T16:54:59Z</time>
      </trkpt>
      <trkpt lat="46.7376090" lon="6.3016580">
        <ele>1024.2</ele>
        <time>2022-07-22T16:55:08Z</time>
      </trkpt>
      <trkpt lat="46.7375530" lon="6.3015780">
        <ele>1024.0</ele>
        <time>2022-07-22T16:55:13Z</time>
      </trkpt>
      <trkpt lat="46.7375060" lon="6.3014500">
        <ele>1024.8</ele>
        <time>2022-07-22T16:55:19Z</time>
      </trkpt>
      <trkpt lat="46.7375010" lon="6.3014320">
        <ele>1025.0</ele>
        <time>2022-07-22T16:55:20Z</time>
      </trkpt>
      <trkpt lat="46.7374710" lon="6.3013530">
        <ele>1025.4</ele>
        <time>2022-07-22T16:55:26Z</time>
      </trkpt>
      <trkpt lat="46.7374440" lon="6.3013060">
        <ele>1025.6</ele>
        <time>2022-07-22T16:55:30Z</time>
      </trkpt>
      <trkpt lat="46.7374190" lon="6.3012670">
        <ele>1025.6</ele>
        <time>2022-07-22T16:55:33Z</time>
      </trkpt>
      <trkpt lat="46.7374070" lon="6.3012320">
        <ele>1025.8</ele>
        <time>2022-07-22T16:55:35Z</time>
      </trkpt>
      <trkpt lat="46.7374020" lon="6.3012160">
        <ele>1026.0</ele>
        <time>2022-07-22T16:55:36Z</time>
      </trkpt>
      <trkpt lat="46.7373790" lon="6.3011590">
        <ele>1026.6</ele>
        <time>2022-07-22T16:55:40Z</time>
      </trkpt>
      <trkpt lat="46.7373470" lon="6.3011100">
        <ele>1026.8</ele>
        <time>2022-07-22T16:55:43Z</time>
      </trkpt>
      <trkpt lat="46.7372990" lon="6.3010500">
        <ele>1027.4</ele>
        <time>2022-07-22T16:55:48Z</time>
      </trkpt>
      <trkpt lat="46.7372670" lon="6.3009950">
        <ele>1028.2</ele>
        <time>2022-07-22T16:55:52Z</time>
      </trkpt>
      <trkpt lat="46.7372370" lon="6.3009300">
        <ele>1028.6</ele>
        <time>2022-07-22T16:55:55Z</time>
      </trkpt>
      <trkpt lat="46.7372060" lon="6.3008530">
        <ele>1029.2</ele>
        <time>2022-07-22T16:56:00Z</time>
      </trkpt>
      <trkpt lat="46.7371950" lon="6.3008240">
        <ele>1029.4</ele>
        <time>2022-07-22T16:56:02Z</time>
      </trkpt>
      <trkpt lat="46.7371260" lon="6.3007090">
        <ele>1030.0</ele>
        <time>2022-07-22T16:56:09Z</time>
      </trkpt>
      <trkpt lat="46.7371020" lon="6.3006640">
        <ele>1030.0</ele>
        <time>2022-07-22T16:56:12Z</time>
      </trkpt>
      <trkpt lat="46.7370600" lon="6.3005690">
        <ele>1030.6</ele>
        <time>2022-07-22T16:56:17Z</time>
      </trkpt>
      <trkpt lat="46.7369610" lon="6.3003690">
        <ele>1030.6</ele>
        <time>2022-07-22T16:56:25Z</time>
      </trkpt>
      <trkpt lat="46.7368570" lon="6.3001680">
        <ele>1030.8</ele>
        <time>2022-07-22T16:56:32Z</time>
      </trkpt>
      <trkpt lat="46.7368290" lon="6.3000380">
        <ele>1031.4</ele>
        <time>2022-07-22T16:56:38Z</time>
      </trkpt>
      <trkpt lat="46.7367960" lon="6.2999070">
        <ele>1031.8</ele>
        <time>2022-07-22T16:56:45Z</time>
      </trkpt>
      <trkpt lat="46.7367910" lon="6.2998840">
        <ele>1031.8</ele>
        <time>2022-07-22T16:56:46Z</time>
      </trkpt>
      <trkpt lat="46.7367460" lon="6.2997580">
        <ele>1032.2</ele>
        <time>2022-07-22T16:56:51Z</time>
      </trkpt>
      <trkpt lat="46.7366720" lon="6.2995570">
        <ele>1032.4</ele>
        <time>2022-07-22T16:56:59Z</time>
      </trkpt>
      <trkpt lat="46.7366250" lon="6.2993360">
        <ele>1032.6</ele>
        <time>2022-07-22T16:57:06Z</time>
      </trkpt>
      <trkpt lat="46.7365640" lon="6.2991360">
        <ele>1032.6</ele>
        <time>2022-07-22T16:57:12Z</time>
      </trkpt>
      <trkpt lat="46.7364730" lon="6.2988590">
        <ele>1032.0</ele>
        <time>2022-07-22T16:57:19Z</time>
      </trkpt>
      <trkpt lat="46.7364040" lon="6.2985660">
        <ele>1030.8</ele>
        <time>2022-07-22T16:57:26Z</time>
      </trkpt>
      <trkpt lat="46.7363910" lon="6.2985160">
        <ele>1030.6</ele>
        <time>2022-07-22T16:57:27Z</time>
      </trkpt>
      <trkpt lat="46.7363430" lon="6.2983120">
        <ele>1029.2</ele>
        <time>2022-07-22T16:57:31Z</time>
      </trkpt>
      <trkpt lat="46.7363310" lon="6.2982680">
        <ele>1029.0</ele>
        <time>2022-07-22T16:57:32Z</time>
      </trkpt>
      <trkpt lat="46.7363020" lon="6.2980710">
        <ele>1028.0</ele>
        <time>2022-07-22T16:57:36Z</time>
      </trkpt>
      <trkpt lat="46.7362920" lon="6.2980130">
        <ele>1027.8</ele>
        <time>2022-07-22T16:57:37Z</time>
      </trkpt>
      <trkpt lat="46.7362700" lon="6.2979400">
        <ele>1027.4</ele>
        <time>2022-07-22T16:57:38Z</time>
      </trkpt>
      <trkpt lat="46.7362300" lon="6.2977910">
        <ele>1026.8</ele>
        <time>2022-07-22T16:57:41Z</time>
      </trkpt>
      <trkpt lat="46.7362210" lon="6.2977310">
        <ele>1026.0</ele>
        <time>2022-07-22T16:57:44Z</time>
      </trkpt>
      <trkpt lat="46.7361310" lon="6.2974110">
        <ele>1024.0</ele>
        <time>2022-07-22T16:58:33Z</time>
      </trkpt>
      <trkpt lat="46.7360910" lon="6.2971710">
        <ele>1023.8</ele>
        <time>2022-07-22T16:58:38Z</time>
      </trkpt>
      <trkpt lat="46.7360360" lon="6.2969980">
        <ele>1023.0</ele>
        <time>2022-07-22T16:58:43Z</time>
      </trkpt>
      <trkpt lat="46.7360190" lon="6.2968630">
        <ele>1022.0</ele>
        <time>2022-07-22T16:58:46Z</time>
      </trkpt>
      <trkpt lat="46.7359730" lon="6.2967080">
        <ele>1021.2</ele>
        <time>2022-07-22T16:58:49Z</time>
      </trkpt>
      <trkpt lat="46.7359050" lon="6.2965480">
        <ele>1020.8</ele>
        <time>2022-07-22T16:58:54Z</time>
      </trkpt>
      <trkpt lat="46.7358560" lon="6.2964640">
        <ele>1020.6</ele>
        <time>2022-07-22T16:58:58Z</time>
      </trkpt>
      <trkpt lat="46.7358190" lon="6.2964300">
        <ele>1020.6</ele>
        <time>2022-07-22T16:59:00Z</time>
      </trkpt>
      <trkpt lat="46.7356780" lon="6.2962100">
        <ele>1020.6</ele>
        <time>2022-07-22T16:59:07Z</time>
      </trkpt>
      <trkpt lat="46.7355930" lon="6.2959240">
        <ele>1020.6</ele>
        <time>2022-07-22T16:59:12Z</time>
      </trkpt>
      <trkpt lat="46.7355630" lon="6.2958320">
        <ele>1020.6</ele>
        <time>2022-07-22T16:59:13Z</time>
      </trkpt>
      <trkpt lat="46.7354670" lon="6.2955840">
        <ele>1020.4</ele>
        <time>2022-07-22T16:59:16Z</time>
      </trkpt>
      <trkpt lat="46.7354130" lon="6.2954660">
        <ele>1019.8</ele>
        <time>2022-07-22T16:59:18Z</time>
      </trkpt>
      <trkpt lat="46.7353750" lon="6.2953830">
        <ele>1019.0</ele>
        <time>2022-07-22T16:59:20Z</time>
      </trkpt>
      <trkpt lat="46.7353490" lon="6.2953150">
        <ele>1018.6</ele>
        <time>2022-07-22T16:59:22Z</time>
      </trkpt>
      <trkpt lat="46.7353440" lon="6.2952880">
        <ele>1018.2</ele>
        <time>2022-07-22T16:59:23Z</time>
      </trkpt>
      <trkpt lat="46.7353320" lon="6.2951980">
        <ele>1017.0</ele>
        <time>2022-07-22T16:59:26Z</time>
      </trkpt>
      <trkpt lat="46.7353190" lon="6.2951240">
        <ele>1016.0</ele>
        <time>2022-07-22T16:59:28Z</time>
      </trkpt>
      <trkpt lat="46.7352940" lon="6.2949730">
        <ele>1015.2</ele>
        <time>2022-07-22T16:59:31Z</time>
      </trkpt>
      <trkpt lat="46.7352800" lon="6.2948450">
        <ele>1014.8</ele>
        <time>2022-07-22T16:59:33Z</time>
      </trkpt>
      <trkpt lat="46.7352770" lon="6.2947720">
        <ele>1014.8</ele>
        <time>2022-07-22T16:59:34Z</time>
      </trkpt>
      <trkpt lat="46.7352810" lon="6.2946140">
        <ele>1014.4</ele>
        <time>2022-07-22T16:59:36Z</time>
      </trkpt>
      <trkpt lat="46.7353180" lon="6.2942840">
        <ele>1013.4</ele>
        <time>2022-07-22T16:59:40Z</time>
      </trkpt>
      <trkpt lat="46.7353500" lon="6.2941310">
        <ele>1012.8</ele>
        <time>2022-07-22T16:59:42Z</time>
      </trkpt>
      <trkpt lat="46.7353630" lon="6.2940270">
        <ele>1012.4</ele>
        <time>2022-07-22T16:59:44Z</time>
      </trkpt>
      <trkpt lat="46.7353650" lon="6.2939960">
        <ele>1011.8</ele>
        <time>2022-07-22T16:59:45Z</time>
      </trkpt>
      <trkpt lat="46.7353680" lon="6.2939520">
        <ele>1011.2</ele>
        <time>2022-07-22T16:59:47Z</time>
      </trkpt>
      <trkpt lat="46.7353550" lon="6.2939200">
        <ele>1010.8</ele>
        <time>2022-07-22T16:59:49Z</time>
      </trkpt>
      <trkpt lat="46.7353430" lon="6.2939160">
        <ele>1010.6</ele>
        <time>2022-07-22T16:59:50Z</time>
      </trkpt>
      <trkpt lat="46.7353210" lon="6.2939340">
        <ele>1010.2</ele>
        <time>2022-07-22T16:59:52Z</time>
      </trkpt>
      <trkpt lat="46.7352870" lon="6.2939730">
        <ele>1010.0</ele>
        <time>2022-07-22T16:59:55Z</time>
      </trkpt>
      <trkpt lat="46.7352290" lon="6.2940420">
        <ele>1010.2</ele>
        <time>2022-07-22T17:00:01Z</time>
      </trkpt>
      <trkpt lat="46.7351530" lon="6.2940970">
        <ele>1010.8</ele>
        <time>2022-07-22T17:00:08Z</time>
      </trkpt>
      <trkpt lat="46.7351220" lon="6.2941250">
        <ele>1011.4</ele>
        <time>2022-07-22T17:00:11Z</time>
      </trkpt>
      <trkpt lat="46.7350660" lon="6.2941490">
        <ele>1012.0</ele>
        <time>2022-07-22T17:00:16Z</time>
      </trkpt>
      <trkpt lat="46.7350140" lon="6.2941660">
        <ele>1012.4</ele>
        <time>2022-07-22T17:00:21Z</time>
      </trkpt>
      <trkpt lat="46.7349830" lon="6.2941640">
        <ele>1012.8</ele>
        <time>2022-07-22T17:00:25Z</time>
      </trkpt>
      <trkpt lat="46.7349260" lon="6.2941580">
        <ele>1013.4</ele>
        <time>2022-07-22T17:00:30Z</time>
      </trkpt>
      <trkpt lat="46.7348820" lon="6.2941610">
        <ele>1013.8</ele>
        <time>2022-07-22T17:00:34Z</time>
      </trkpt>
      <trkpt lat="46.7348340" lon="6.2941370">
        <ele>1014.2</ele>
        <time>2022-07-22T17:00:39Z</time>
      </trkpt>
      <trkpt lat="46.7348150" lon="6.2941220">
        <ele>1014.6</ele>
        <time>2022-07-22T17:00:41Z</time>
      </trkpt>
      <trkpt lat="46.7347580" lon="6.2940640">
        <ele>1015.4</ele>
        <time>2022-07-22T17:00:47Z</time>
      </trkpt>
      <trkpt lat="46.7347150" lon="6.2939720">
        <ele>1016.2</ele>
        <time>2022-07-22T17:00:56Z</time>
      </trkpt>
      <trkpt lat="46.7347020" lon="6.2939460">
        <ele>1016.4</ele>
        <time>2022-07-22T17:00:59Z</time>
      </trkpt>
      <trkpt lat="46.7346770" lon="6.2939040">
        <ele>1017.0</ele>
        <time>2022-07-22T17:01:04Z</time>
      </trkpt>
      <trkpt lat="46.7346580" lon="6.2938390">
        <ele>1017.4</ele>
        <time>2022-07-22T17:01:09Z</time>
      </trkpt>
      <trkpt lat="46.7346480" lon="6.2938150">
        <ele>1017.6</ele>
        <time>2022-07-22T17:01:11Z</time>
      </trkpt>
      <trkpt lat="46.7346300" lon="6.2937690">
        <ele>1018.4</ele>
        <time>2022-07-22T17:01:15Z</time>
      </trkpt>
      <trkpt lat="46.7345990" lon="6.2937160">
        <ele>1019.0</ele>
        <time>2022-07-22T17:01:20Z</time>
      </trkpt>
      <trkpt lat="46.7345890" lon="6.2937030">
        <ele>1019.2</ele>
        <time>2022-07-22T17:01:21Z</time>
      </trkpt>
      <trkpt lat="46.7345810" lon="6.2936750">
        <ele>1019.4</ele>
        <time>2022-07-22T17:01:23Z</time>
      </trkpt>
      <trkpt lat="46.7345750" lon="6.2936620">
        <ele>1019.6</ele>
        <time>2022-07-22T17:01:24Z</time>
      </trkpt>
      <trkpt lat="46.7345600" lon="6.2936380">
        <ele>1019.8</ele>
        <time>2022-07-22T17:01:26Z</time>
      </trkpt>
      <trkpt lat="46.7345350" lon="6.2935700">
        <ele>1020.0</ele>
        <time>2022-07-22T17:01:31Z</time>
      </trkpt>
      <trkpt lat="46.7345170" lon="6.2935370">
        <ele>1020.2</ele>
        <time>2022-07-22T17:01:33Z</time>
      </trkpt>
      <trkpt lat="46.7344560" lon="6.2934200">
        <ele>1021.2</ele>
        <time>2022-07-22T17:01:42Z</time>
      </trkpt>
      <trkpt lat="46.7344100" lon="6.2932870">
        <ele>1022.4</ele>
        <time>2022-07-22T17:01:52Z</time>
      </trkpt>
      <trkpt lat="46.7343870" lon="6.2932490">
        <ele>1022.4</ele>
        <time>2022-07-22T17:01:55Z</time>
      </trkpt>
      <trkpt lat="46.7343350" lon="6.2931540">
        <ele>1023.2</ele>
        <time>2022-07-22T17:02:03Z</time>
      </trkpt>
      <trkpt lat="46.7342960" lon="6.2930910">
        <ele>1023.6</ele>
        <time>2022-07-22T17:02:08Z</time>
      </trkpt>
      <trkpt lat="46.7342600" lon="6.2930250">
        <ele>1024.2</ele>
        <time>2022-07-22T17:02:12Z</time>
      </trkpt>
      <trkpt lat="46.7341900" lon="6.2928860">
        <ele>1025.0</ele>
        <time>2022-07-22T17:02:21Z</time>
      </trkpt>
      <trkpt lat="46.7341750" lon="6.2928590">
        <ele>1025.2</ele>
        <time>2022-07-22T17:02:23Z</time>
      </trkpt>
      <trkpt lat="46.7341210" lon="6.2927260">
        <ele>1026.2</ele>
        <time>2022-07-22T17:02:31Z</time>
      </trkpt>
      <trkpt lat="46.7341040" lon="6.2926920">
        <ele>1026.6</ele>
        <time>2022-07-22T17:02:33Z</time>
      </trkpt>
      <trkpt lat="46.7340360" lon="6.2925640">
        <ele>1027.2</ele>
        <time>2022-07-22T17:02:41Z</time>
      </trkpt>
      <trkpt lat="46.7340090" lon="6.2924550">
        <ele>1027.8</ele>
        <time>2022-07-22T17:02:47Z</time>
      </trkpt>
      <trkpt lat="46.7339960" lon="6.2923990">
        <ele>1028.2</ele>
        <time>2022-07-22T17:02:50Z</time>
      </trkpt>
      <trkpt lat="46.7339420" lon="6.2922200">
        <ele>1029.0</ele>
        <time>2022-07-22T17:03:00Z</time>
      </trkpt>
      <trkpt lat="46.7338860" lon="6.2920780">
        <ele>1030.0</ele>
        <time>2022-07-22T17:03:10Z</time>
      </trkpt>
      <trkpt lat="46.7338620" lon="6.2920030">
        <ele>1030.4</ele>
        <time>2022-07-22T17:03:14Z</time>
      </trkpt>
      <trkpt lat="46.7338390" lon="6.2918820">
        <ele>1031.0</ele>
        <time>2022-07-22T17:03:20Z</time>
      </trkpt>
      <trkpt lat="46.7338060" lon="6.2917960">
        <ele>1031.4</ele>
        <time>2022-07-22T17:03:25Z</time>
      </trkpt>
      <trkpt lat="46.7337580" lon="6.2917010">
        <ele>1031.8</ele>
        <time>2022-07-22T17:03:31Z</time>
      </trkpt>
      <trkpt lat="46.7336860" lon="6.2915480">
        <ele>1033.0</ele>
        <time>2022-07-22T17:03:40Z</time>
      </trkpt>
      <trkpt lat="46.7336760" lon="6.2915310">
        <ele>1033.0</ele>
        <time>2022-07-22T17:03:41Z</time>
      </trkpt>
      <trkpt lat="46.7336020" lon="6.2914090">
        <ele>1033.8</ele>
        <time>2022-07-22T17:03:49Z</time>
      </trkpt>
      <trkpt lat="46.7335930" lon="6.2913930">
        <ele>1033.8</ele>
        <time>2022-07-22T17:03:50Z</time>
      </trkpt>
      <trkpt lat="46.7335170" lon="6.2912740">
        <ele>1034.4</ele>
        <time>2022-07-22T17:03:58Z</time>
      </trkpt>
      <trkpt lat="46.7334740" lon="6.2911900">
        <ele>1034.8</ele>
        <time>2022-07-22T17:04:03Z</time>
      </trkpt>
      <trkpt lat="46.7334470" lon="6.2911460">
        <ele>1035.0</ele>
        <time>2022-07-22T17:04:06Z</time>
      </trkpt>
      <trkpt lat="46.7333720" lon="6.2910320">
        <ele>1035.8</ele>
        <time>2022-07-22T17:04:14Z</time>
      </trkpt>
      <trkpt lat="46.7333470" lon="6.2910090">
        <ele>1036.0</ele>
        <time>2022-07-22T17:04:16Z</time>
      </trkpt>
      <trkpt lat="46.7332780" lon="6.2909140">
        <ele>1036.8</ele>
        <time>2022-07-22T17:04:23Z</time>
      </trkpt>
      <trkpt lat="46.7332040" lon="6.2908330">
        <ele>1037.6</ele>
        <time>2022-07-22T17:04:31Z</time>
      </trkpt>
      <trkpt lat="46.7331730" lon="6.2907950">
        <ele>1037.8</ele>
        <time>2022-07-22T17:04:34Z</time>
      </trkpt>
      <trkpt lat="46.7331150" lon="6.2907290">
        <ele>1038.4</ele>
        <time>2022-07-22T17:04:40Z</time>
      </trkpt>
      <trkpt lat="46.7330740" lon="6.2906900">
        <ele>1038.8</ele>
        <time>2022-07-22T17:04:44Z</time>
      </trkpt>
      <trkpt lat="46.7330270" lon="6.2906570">
        <ele>1039.0</ele>
        <time>2022-07-22T17:04:48Z</time>
      </trkpt>
      <trkpt lat="46.7329500" lon="6.2905640">
        <ele>1039.6</ele>
        <time>2022-07-22T17:04:56Z</time>
      </trkpt>
      <trkpt lat="46.7328940" lon="6.2904860">
        <ele>1040.2</ele>
        <time>2022-07-22T17:05:03Z</time>
      </trkpt>
      <trkpt lat="46.7328650" lon="6.2904620">
        <ele>1040.6</ele>
        <time>2022-07-22T17:05:06Z</time>
      </trkpt>
      <trkpt lat="46.7328170" lon="6.2903990">
        <ele>1041.4</ele>
        <time>2022-07-22T17:05:11Z</time>
      </trkpt>
      <trkpt lat="46.7327720" lon="6.2903480">
        <ele>1041.6</ele>
        <time>2022-07-22T17:05:16Z</time>
      </trkpt>
      <trkpt lat="46.7327550" lon="6.2903100">
        <ele>1041.8</ele>
        <time>2022-07-22T17:05:19Z</time>
      </trkpt>
      <trkpt lat="46.7327010" lon="6.2902310">
        <ele>1042.6</ele>
        <time>2022-07-22T17:05:25Z</time>
      </trkpt>
      <trkpt lat="46.7326520" lon="6.2901860">
        <ele>1043.0</ele>
        <time>2022-07-22T17:05:29Z</time>
      </trkpt>
      <trkpt lat="46.7325970" lon="6.2901200">
        <ele>1043.6</ele>
        <time>2022-07-22T17:05:34Z</time>
      </trkpt>
      <trkpt lat="46.7325690" lon="6.2900990">
        <ele>1044.2</ele>
        <time>2022-07-22T17:05:36Z</time>
      </trkpt>
      <trkpt lat="46.7325260" lon="6.2900600">
        <ele>1044.8</ele>
        <time>2022-07-22T17:05:40Z</time>
      </trkpt>
      <trkpt lat="46.7325090" lon="6.2900370">
        <ele>1045.0</ele>
        <time>2022-07-22T17:05:42Z</time>
      </trkpt>
      <trkpt lat="46.7324360" lon="6.2899510">
        <ele>1045.6</ele>
        <time>2022-07-22T17:05:50Z</time>
      </trkpt>
      <trkpt lat="46.7324250" lon="6.2899410">
        <ele>1045.6</ele>
        <time>2022-07-22T17:05:51Z</time>
      </trkpt>
      <trkpt lat="46.7323630" lon="6.2898810">
        <ele>1046.4</ele>
        <time>2022-07-22T17:05:57Z</time>
      </trkpt>
      <trkpt lat="46.7323370" lon="6.2898540">
        <ele>1046.6</ele>
        <time>2022-07-22T17:06:00Z</time>
      </trkpt>
      <trkpt lat="46.7322930" lon="6.2898140">
        <ele>1047.0</ele>
        <time>2022-07-22T17:06:05Z</time>
      </trkpt>
      <trkpt lat="46.7322570" lon="6.2897860">
        <ele>1047.6</ele>
        <time>2022-07-22T17:06:08Z</time>
      </trkpt>
      <trkpt lat="46.7321550" lon="6.2897240">
        <ele>1048.2</ele>
        <time>2022-07-22T17:06:15Z</time>
      </trkpt>
      <trkpt lat="46.7321170" lon="6.2897050">
        <ele>1048.6</ele>
        <time>2022-07-22T17:06:18Z</time>
      </trkpt>
      <trkpt lat="46.7320500" lon="6.2896750">
        <ele>1049.0</ele>
        <time>2022-07-22T17:06:23Z</time>
      </trkpt>
      <trkpt lat="46.7319490" lon="6.2896430">
        <ele>1049.6</ele>
        <time>2022-07-22T17:06:31Z</time>
      </trkpt>
      <trkpt lat="46.7319370" lon="6.2896400">
        <ele>1049.6</ele>
        <time>2022-07-22T17:06:32Z</time>
      </trkpt>
      <trkpt lat="46.7318550" lon="6.2896380">
        <ele>1050.6</ele>
        <time>2022-07-22T17:06:39Z</time>
      </trkpt>
      <trkpt lat="46.7318310" lon="6.2896380">
        <ele>1050.8</ele>
        <time>2022-07-22T17:06:41Z</time>
      </trkpt>
      <trkpt lat="46.7317590" lon="6.2896400">
        <ele>1051.4</ele>
        <time>2022-07-22T17:06:48Z</time>
      </trkpt>
      <trkpt lat="46.7317490" lon="6.2896450">
        <ele>1051.6</ele>
        <time>2022-07-22T17:06:49Z</time>
      </trkpt>
      <trkpt lat="46.7316790" lon="6.2896880">
        <ele>1052.4</ele>
        <time>2022-07-22T17:06:56Z</time>
      </trkpt>
      <trkpt lat="46.7316690" lon="6.2896970">
        <ele>1052.6</ele>
        <time>2022-07-22T17:06:57Z</time>
      </trkpt>
      <trkpt lat="46.7316280" lon="6.2897450">
        <ele>1053.2</ele>
        <time>2022-07-22T17:07:02Z</time>
      </trkpt>
      <trkpt lat="46.7316010" lon="6.2897760">
        <ele>1053.6</ele>
        <time>2022-07-22T17:07:05Z</time>
      </trkpt>
      <trkpt lat="46.7315790" lon="6.2898130">
        <ele>1054.0</ele>
        <time>2022-07-22T17:07:08Z</time>
      </trkpt>
      <trkpt lat="46.7315720" lon="6.2898240">
        <ele>1054.0</ele>
        <time>2022-07-22T17:07:09Z</time>
      </trkpt>
      <trkpt lat="46.7315440" lon="6.2899040">
        <ele>1054.4</ele>
        <time>2022-07-22T17:07:14Z</time>
      </trkpt>
      <trkpt lat="46.7315230" lon="6.2899470">
        <ele>1054.8</ele>
        <time>2022-07-22T17:07:17Z</time>
      </trkpt>
      <trkpt lat="46.7314740" lon="6.2900400">
        <ele>1055.4</ele>
        <time>2022-07-22T17:07:24Z</time>
      </trkpt>
      <trkpt lat="46.7314460" lon="6.2900960">
        <ele>1055.8</ele>
        <time>2022-07-22T17:07:28Z</time>
      </trkpt>
      <trkpt lat="46.7314200" lon="6.2901250">
        <ele>1056.0</ele>
        <time>2022-07-22T17:07:31Z</time>
      </trkpt>
      <trkpt lat="46.7313850" lon="6.2901640">
        <ele>1056.6</ele>
        <time>2022-07-22T17:07:35Z</time>
      </trkpt>
      <trkpt lat="46.7313760" lon="6.2901870">
        <ele>1056.8</ele>
        <time>2022-07-22T17:07:37Z</time>
      </trkpt>
      <trkpt lat="46.7313470" lon="6.2902760">
        <ele>1057.6</ele>
        <time>2022-07-22T17:07:44Z</time>
      </trkpt>
      <trkpt lat="46.7313010" lon="6.2903440">
        <ele>1058.2</ele>
        <time>2022-07-22T17:07:50Z</time>
      </trkpt>
      <trkpt lat="46.7312690" lon="6.2904070">
        <ele>1058.6</ele>
        <time>2022-07-22T17:07:55Z</time>
      </trkpt>
      <trkpt lat="46.7312590" lon="6.2904200">
        <ele>1058.8</ele>
        <time>2022-07-22T17:07:56Z</time>
      </trkpt>
      <trkpt lat="46.7312530" lon="6.2904380">
        <ele>1058.8</ele>
        <time>2022-07-22T17:07:57Z</time>
      </trkpt>
      <trkpt lat="46.7312110" lon="6.2905110">
        <ele>1059.4</ele>
        <time>2022-07-22T17:08:02Z</time>
      </trkpt>
      <trkpt lat="46.7312000" lon="6.2905240">
        <ele>1059.6</ele>
        <time>2022-07-22T17:08:03Z</time>
      </trkpt>
      <trkpt lat="46.7311590" lon="6.2905780">
        <ele>1060.0</ele>
        <time>2022-07-22T17:08:08Z</time>
      </trkpt>
      <trkpt lat="46.7311440" lon="6.2906000">
        <ele>1060.2</ele>
        <time>2022-07-22T17:08:10Z</time>
      </trkpt>
      <trkpt lat="46.7311270" lon="6.2906330">
        <ele>1060.6</ele>
        <time>2022-07-22T17:08:12Z</time>
      </trkpt>
      <trkpt lat="46.7311120" lon="6.2906790">
        <ele>1060.8</ele>
        <time>2022-07-22T17:08:15Z</time>
      </trkpt>
      <trkpt lat="46.7311030" lon="6.2906940">
        <ele>1061.0</ele>
        <time>2022-07-22T17:08:16Z</time>
      </trkpt>
      <trkpt lat="46.7310710" lon="6.2907230">
        <ele>1061.4</ele>
        <time>2022-07-22T17:08:21Z</time>
      </trkpt>
      <trkpt lat="46.7308720" lon="6.2909010">
        <ele>1062.8</ele>
        <time>2022-07-22T17:09:00Z</time>
      </trkpt>
      <trkpt lat="46.7308310" lon="6.2909300">
        <ele>1063.4</ele>
        <time>2022-07-22T17:09:03Z</time>
      </trkpt>
      <trkpt lat="46.7307800" lon="6.2909600">
        <ele>1064.0</ele>
        <time>2022-07-22T17:09:07Z</time>
      </trkpt>
      <trkpt lat="46.7307440" lon="6.2909710">
        <ele>1064.4</ele>
        <time>2022-07-22T17:09:10Z</time>
      </trkpt>
      <trkpt lat="46.7306920" lon="6.2909740">
        <ele>1065.0</ele>
        <time>2022-07-22T17:09:15Z</time>
      </trkpt>
      <trkpt lat="46.7306530" lon="6.2909800">
        <ele>1065.6</ele>
        <time>2022-07-22T17:09:18Z</time>
      </trkpt>
      <trkpt lat="46.7306120" lon="6.2909860">
        <ele>1065.8</ele>
        <time>2022-07-22T17:09:21Z</time>
      </trkpt>
      <trkpt lat="46.7305440" lon="6.2910130">
        <ele>1066.6</ele>
        <time>2022-07-22T17:09:27Z</time>
      </trkpt>
      <trkpt lat="46.7305220" lon="6.2910180">
        <ele>1066.8</ele>
        <time>2022-07-22T17:09:29Z</time>
      </trkpt>
      <trkpt lat="46.7304420" lon="6.2910290">
        <ele>1068.0</ele>
        <time>2022-07-22T17:09:35Z</time>
      </trkpt>
      <trkpt lat="46.7304300" lon="6.2910260">
        <ele>1068.0</ele>
        <time>2022-07-22T17:09:36Z</time>
      </trkpt>
      <trkpt lat="46.7303460" lon="6.2910300">
        <ele>1068.8</ele>
        <time>2022-07-22T17:09:43Z</time>
      </trkpt>
      <trkpt lat="46.7303350" lon="6.2910310">
        <ele>1068.8</ele>
        <time>2022-07-22T17:09:44Z</time>
      </trkpt>
      <trkpt lat="46.7302410" lon="6.2910410">
        <ele>1069.8</ele>
        <time>2022-07-22T17:09:52Z</time>
      </trkpt>
      <trkpt lat="46.7302300" lon="6.2910400">
        <ele>1070.0</ele>
        <time>2022-07-22T17:09:53Z</time>
      </trkpt>
      <trkpt lat="46.7301350" lon="6.2910440">
        <ele>1071.0</ele>
        <time>2022-07-22T17:10:01Z</time>
      </trkpt>
      <trkpt lat="46.7300880" lon="6.2910420">
        <ele>1071.4</ele>
        <time>2022-07-22T17:10:05Z</time>
      </trkpt>
      <trkpt lat="46.7300500" lon="6.2910290">
        <ele>1071.8</ele>
        <time>2022-07-22T17:10:08Z</time>
      </trkpt>
      <trkpt lat="46.7299910" lon="6.2910150">
        <ele>1071.8</ele>
        <time>2022-07-22T17:10:13Z</time>
      </trkpt>
      <trkpt lat="46.7299660" lon="6.2910090">
        <ele>1072.2</ele>
        <time>2022-07-22T17:10:15Z</time>
      </trkpt>
      <trkpt lat="46.7298730" lon="6.2909790">
        <ele>1073.0</ele>
        <time>2022-07-22T17:10:22Z</time>
      </trkpt>
      <trkpt lat="46.7298610" lon="6.2909750">
        <ele>1073.0</ele>
        <time>2022-07-22T17:10:23Z</time>
      </trkpt>
      <trkpt lat="46.7297660" lon="6.2909570">
        <ele>1074.0</ele>
        <time>2022-07-22T17:10:30Z</time>
      </trkpt>
      <trkpt lat="46.7297540" lon="6.2909590">
        <ele>1074.0</ele>
        <time>2022-07-22T17:10:31Z</time>
      </trkpt>
      <trkpt lat="46.7296710" lon="6.2909390">
        <ele>1074.4</ele>
        <time>2022-07-22T17:10:38Z</time>
      </trkpt>
      <trkpt lat="46.7296080" lon="6.2909280">
        <ele>1074.8</ele>
        <time>2022-07-22T17:10:42Z</time>
      </trkpt>
      <trkpt lat="46.7295040" lon="6.2909080">
        <ele>1075.8</ele>
        <time>2022-07-22T17:10:49Z</time>
      </trkpt>
      <trkpt lat="46.7294740" lon="6.2909040">
        <ele>1076.0</ele>
        <time>2022-07-22T17:10:51Z</time>
      </trkpt>
      <trkpt lat="46.7293910" lon="6.2908790">
        <ele>1076.6</ele>
        <time>2022-07-22T17:10:57Z</time>
      </trkpt>
      <trkpt lat="46.7293630" lon="6.2908730">
        <ele>1077.0</ele>
        <time>2022-07-22T17:10:59Z</time>
      </trkpt>
      <trkpt lat="46.7292510" lon="6.2908670">
        <ele>1077.8</ele>
        <time>2022-07-22T17:11:07Z</time>
      </trkpt>
      <trkpt lat="46.7291680" lon="6.2908560">
        <ele>1078.0</ele>
        <time>2022-07-22T17:11:12Z</time>
      </trkpt>
      <trkpt lat="46.7291390" lon="6.2908580">
        <ele>1078.2</ele>
        <time>2022-07-22T17:11:14Z</time>
      </trkpt>
      <trkpt lat="46.7290390" lon="6.2908660">
        <ele>1079.0</ele>
        <time>2022-07-22T17:11:20Z</time>
      </trkpt>
      <trkpt lat="46.7289830" lon="6.2908740">
        <ele>1079.2</ele>
        <time>2022-07-22T17:11:23Z</time>
      </trkpt>
      <trkpt lat="46.7289050" lon="6.2908760">
        <ele>1080.0</ele>
        <time>2022-07-22T17:11:28Z</time>
      </trkpt>
      <trkpt lat="46.7288750" lon="6.2908850">
        <ele>1080.0</ele>
        <time>2022-07-22T17:11:30Z</time>
      </trkpt>
      <trkpt lat="46.7287500" lon="6.2908910">
        <ele>1080.4</ele>
        <time>2022-07-22T17:11:38Z</time>
      </trkpt>
      <trkpt lat="46.7286680" lon="6.2908930">
        <ele>1080.8</ele>
        <time>2022-07-22T17:11:43Z</time>
      </trkpt>
      <trkpt lat="46.7286190" lon="6.2909060">
        <ele>1081.2</ele>
        <time>2022-07-22T17:11:46Z</time>
      </trkpt>
      <trkpt lat="46.7285060" lon="6.2909260">
        <ele>1081.8</ele>
        <time>2022-07-22T17:11:53Z</time>
      </trkpt>
      <trkpt lat="46.7283740" lon="6.2909280">
        <ele>1082.8</ele>
        <time>2022-07-22T17:12:01Z</time>
      </trkpt>
      <trkpt lat="46.7283430" lon="6.2909340">
        <ele>1083.0</ele>
        <time>2022-07-22T17:12:03Z</time>
      </trkpt>
      <trkpt lat="46.7282200" lon="6.2909500">
        <ele>1083.6</ele>
        <time>2022-07-22T17:12:11Z</time>
      </trkpt>
      <trkpt lat="46.7281910" lon="6.2909470">
        <ele>1083.8</ele>
        <time>2022-07-22T17:12:13Z</time>
      </trkpt>
      <trkpt lat="46.7280860" lon="6.2909460">
        <ele>1084.4</ele>
        <time>2022-07-22T17:12:20Z</time>
      </trkpt>
      <trkpt lat="46.7280230" lon="6.2909430">
        <ele>1084.8</ele>
        <time>2022-07-22T17:12:24Z</time>
      </trkpt>
      <trkpt lat="46.7279240" lon="6.2909300">
        <ele>1085.4</ele>
        <time>2022-07-22T17:12:30Z</time>
      </trkpt>
      <trkpt lat="46.7278940" lon="6.2909310">
        <ele>1085.8</ele>
        <time>2022-07-22T17:12:32Z</time>
      </trkpt>
      <trkpt lat="46.7278330" lon="6.2909460">
        <ele>1086.0</ele>
        <time>2022-07-22T17:12:37Z</time>
      </trkpt>
      <trkpt lat="46.7277630" lon="6.2909820">
        <ele>1086.4</ele>
        <time>2022-07-22T17:12:44Z</time>
      </trkpt>
      <trkpt lat="46.7276480" lon="6.2910310">
        <ele>1086.6</ele>
        <time>2022-07-22T17:12:51Z</time>
      </trkpt>
      <trkpt lat="46.7275140" lon="6.2911210">
        <ele>1086.6</ele>
        <time>2022-07-22T17:12:57Z</time>
      </trkpt>
      <trkpt lat="46.7274110" lon="6.2911750">
        <ele>1086.6</ele>
        <time>2022-07-22T17:13:01Z</time>
      </trkpt>
      <trkpt lat="46.7273620" lon="6.2911900">
        <ele>1086.6</ele>
        <time>2022-07-22T17:13:03Z</time>
      </trkpt>
      <trkpt lat="46.7271760" lon="6.2911990">
        <ele>1087.0</ele>
        <time>2022-07-22T17:13:10Z</time>
      </trkpt>
      <trkpt lat="46.7269880" lon="6.2911130">
        <ele>1087.0</ele>
        <time>2022-07-22T17:13:17Z</time>
      </trkpt>
      <trkpt lat="46.7268650" lon="6.2909470">
        <ele>1087.2</ele>
        <time>2022-07-22T17:13:23Z</time>
      </trkpt>
      <trkpt lat="46.7268230" lon="6.2907240">
        <ele>1087.2</ele>
        <time>2022-07-22T17:13:29Z</time>
      </trkpt>
      <trkpt lat="46.7268510" lon="6.2904700">
        <ele>1087.0</ele>
        <time>2022-07-22T17:13:33Z</time>
      </trkpt>
      <trkpt lat="46.7268650" lon="6.2904040">
        <ele>1086.8</ele>
        <time>2022-07-22T17:13:34Z</time>
      </trkpt>
      <trkpt lat="46.7269040" lon="6.2902690">
        <ele>1086.8</ele>
        <time>2022-07-22T17:13:36Z</time>
      </trkpt>
      <trkpt lat="46.7270000" lon="6.2900930">
        <ele>1086.0</ele>
        <time>2022-07-22T17:13:39Z</time>
      </trkpt>
      <trkpt lat="46.7270710" lon="6.2899960">
        <ele>1085.6</ele>
        <time>2022-07-22T17:13:41Z</time>
      </trkpt>
      <trkpt lat="46.7272180" lon="6.2898000">
        <ele>1085.2</ele>
        <time>2022-07-22T17:13:45Z</time>
      </trkpt>
      <trkpt lat="46.7273450" lon="6.2896320">
        <ele>1085.0</ele>
        <time>2022-07-22T17:13:49Z</time>
      </trkpt>
      <trkpt lat="46.7273810" lon="6.2895820">
        <ele>1084.6</ele>
        <time>2022-07-22T17:13:53Z</time>
      </trkpt>
      <trkpt lat="46.7273900" lon="6.2895570">
        <ele>1083.8</ele>
        <time>2022-07-22T17:13:56Z</time>
      </trkpt>
      <trkpt lat="46.7273640" lon="6.2895680">
        <ele>1083.6</ele>
        <time>2022-07-22T17:13:59Z</time>
      </trkpt>
      <trkpt lat="46.7273560" lon="6.2895840">
        <ele>1083.4</ele>
        <time>2022-07-22T17:14:04Z</time>
      </trkpt>
      <trkpt lat="46.7274530" lon="6.2895230">
        <ele>1083.2</ele>
        <time>2022-07-22T17:14:24Z</time>
      </trkpt>
      <trkpt lat="46.7274690" lon="6.2895110">
        <ele>1083.2</ele>
        <time>2022-07-22T17:14:25Z</time>
      </trkpt>
      <trkpt lat="46.7275670" lon="6.2894990">
        <ele>1083.2</ele>
        <time>2022-07-22T17:14:30Z</time>
      </trkpt>
      <trkpt lat="46.7277020" lon="6.2895510">
        <ele>1083.2</ele>
        <time>2022-07-22T17:14:36Z</time>
      </trkpt>
      <trkpt lat="46.7278190" lon="6.2895720">
        <ele>1083.2</ele>
        <time>2022-07-22T17:14:42Z</time>
      </trkpt>
      <trkpt lat="46.7279600" lon="6.2895010">
        <ele>1084.0</ele>
        <time>2022-07-22T17:14:48Z</time>
      </trkpt>
      <trkpt lat="46.7281300" lon="6.2893220">
        <ele>1084.4</ele>
        <time>2022-07-22T17:14:54Z</time>
      </trkpt>
      <trkpt lat="46.7281790" lon="6.2892440">
        <ele>1084.4</ele>
        <time>2022-07-22T17:14:56Z</time>
      </trkpt>
      <trkpt lat="46.7282320" lon="6.2891510">
        <ele>1084.4</ele>
        <time>2022-07-22T17:14:58Z</time>
      </trkpt>
      <trkpt lat="46.7282830" lon="6.2890500">
        <ele>1084.4</ele>
        <time>2022-07-22T17:15:00Z</time>
      </trkpt>
      <trkpt lat="46.7284180" lon="6.2887790">
        <ele>1083.8</ele>
        <time>2022-07-22T17:15:06Z</time>
      </trkpt>
      <trkpt lat="46.7284990" lon="6.2885950">
        <ele>1083.2</ele>
        <time>2022-07-22T17:15:10Z</time>
      </trkpt>
      <trkpt lat="46.7285400" lon="6.2884220">
        <ele>1083.0</ele>
        <time>2022-07-22T17:15:13Z</time>
      </trkpt>
      <trkpt lat="46.7285940" lon="6.2879990">
        <ele>1082.6</ele>
        <time>2022-07-22T17:15:20Z</time>
      </trkpt>
      <trkpt lat="46.7286900" lon="6.2875370">
        <ele>1082.2</ele>
        <time>2022-07-22T17:15:27Z</time>
      </trkpt>
      <trkpt lat="46.7287610" lon="6.2872380">
        <ele>1082.0</ele>
        <time>2022-07-22T17:15:31Z</time>
      </trkpt>
      <trkpt lat="46.7288100" lon="6.2870110">
        <ele>1081.6</ele>
        <time>2022-07-22T17:15:34Z</time>
      </trkpt>
      <trkpt lat="46.7289160" lon="6.2865760">
        <ele>1081.0</ele>
        <time>2022-07-22T17:15:40Z</time>
      </trkpt>
      <trkpt lat="46.7289460" lon="6.2864350">
        <ele>1080.8</ele>
        <time>2022-07-22T17:15:42Z</time>
      </trkpt>
      <trkpt lat="46.7290210" lon="6.2859460">
        <ele>1080.4</ele>
        <time>2022-07-22T17:15:49Z</time>
      </trkpt>
      <trkpt lat="46.7290340" lon="6.2855400">
        <ele>1080.4</ele>
        <time>2022-07-22T17:15:56Z</time>
      </trkpt>
      <trkpt lat="46.7290080" lon="6.2851950">
        <ele>1080.8</ele>
        <time>2022-07-22T17:16:03Z</time>
      </trkpt>
      <trkpt lat="46.7289740" lon="6.2849240">
        <ele>1081.0</ele>
        <time>2022-07-22T17:16:10Z</time>
      </trkpt>
      <trkpt lat="46.7289480" lon="6.2847540">
        <ele>1081.4</ele>
        <time>2022-07-22T17:16:15Z</time>
      </trkpt>
      <trkpt lat="46.7289150" lon="6.2846480">
        <ele>1081.8</ele>
        <time>2022-07-22T17:16:18Z</time>
      </trkpt>
      <trkpt lat="46.7288540" lon="6.2844580">
        <ele>1082.0</ele>
        <time>2022-07-22T17:16:23Z</time>
      </trkpt>
      <trkpt lat="46.7287820" lon="6.2841580">
        <ele>1082.6</ele>
        <time>2022-07-22T17:16:31Z</time>
      </trkpt>
      <trkpt lat="46.7287750" lon="6.2841220">
        <ele>1082.6</ele>
        <time>2022-07-22T17:16:32Z</time>
      </trkpt>
      <trkpt lat="46.7287760" lon="6.2839310">
        <ele>1083.0</ele>
        <time>2022-07-22T17:16:38Z</time>
      </trkpt>
      <trkpt lat="46.7287990" lon="6.2837330">
        <ele>1083.6</ele>
        <time>2022-07-22T17:16:44Z</time>
      </trkpt>
      <trkpt lat="46.7288420" lon="6.2834890">
        <ele>1084.4</ele>
        <time>2022-07-22T17:16:51Z</time>
      </trkpt>
      <trkpt lat="46.7288490" lon="6.2833780">
        <ele>1084.6</ele>
        <time>2022-07-22T17:16:54Z</time>
      </trkpt>
      <trkpt lat="46.7288530" lon="6.2832160">
        <ele>1084.8</ele>
        <time>2022-07-22T17:16:58Z</time>
      </trkpt>
      <trkpt lat="46.7288400" lon="6.2829300">
        <ele>1085.2</ele>
        <time>2022-07-22T17:17:05Z</time>
      </trkpt>
      <trkpt lat="46.7288160" lon="6.2826250">
        <ele>1085.4</ele>
        <time>2022-07-22T17:17:12Z</time>
      </trkpt>
      <trkpt lat="46.7288020" lon="6.2822860">
        <ele>1085.4</ele>
        <time>2022-07-22T17:17:20Z</time>
      </trkpt>
      <trkpt lat="46.7288590" lon="6.2820150">
        <ele>1085.4</ele>
        <time>2022-07-22T17:17:25Z</time>
      </trkpt>
      <trkpt lat="46.7290180" lon="6.2816700">
        <ele>1084.6</ele>
        <time>2022-07-22T17:17:31Z</time>
      </trkpt>
      <trkpt lat="46.7290820" lon="6.2815060">
        <ele>1084.6</ele>
        <time>2022-07-22T17:17:34Z</time>
      </trkpt>
      <trkpt lat="46.7291230" lon="6.2813260">
        <ele>1084.4</ele>
        <time>2022-07-22T17:17:37Z</time>
      </trkpt>
      <trkpt lat="46.7291810" lon="6.2809960">
        <ele>1084.0</ele>
        <time>2022-07-22T17:17:42Z</time>
      </trkpt>
      <trkpt lat="46.7292040" lon="6.2808440">
        <ele>1084.0</ele>
        <time>2022-07-22T17:17:44Z</time>
      </trkpt>
      <trkpt lat="46.7292600" lon="6.2805610">
        <ele>1083.4</ele>
        <time>2022-07-22T17:17:48Z</time>
      </trkpt>
      <trkpt lat="46.7293010" lon="6.2804150">
        <ele>1082.8</ele>
        <time>2022-07-22T17:17:50Z</time>
      </trkpt>
      <trkpt lat="46.7293230" lon="6.2803340">
        <ele>1082.8</ele>
        <time>2022-07-22T17:17:51Z</time>
      </trkpt>
      <trkpt lat="46.7294440" lon="6.2799160">
        <ele>1082.2</ele>
        <time>2022-07-22T17:17:57Z</time>
      </trkpt>
      <trkpt lat="46.7294880" lon="6.2797750">
        <ele>1081.8</ele>
        <time>2022-07-22T17:18:01Z</time>
      </trkpt>
      <trkpt lat="46.7294890" lon="6.2797440">
        <ele>1081.6</ele>
        <time>2022-07-22T17:18:03Z</time>
      </trkpt>
      <trkpt lat="46.7294920" lon="6.2797120">
        <ele>1081.4</ele>
        <time>2022-07-22T17:18:06Z</time>
      </trkpt>
      <trkpt lat="46.7295010" lon="6.2796070">
        <ele>1080.8</ele>
        <time>2022-07-22T17:18:16Z</time>
      </trkpt>
      <trkpt lat="46.7294870" lon="6.2794760">
        <ele>1080.8</ele>
        <time>2022-07-22T17:18:22Z</time>
      </trkpt>
      <trkpt lat="46.7294580" lon="6.2792270">
        <ele>1081.2</ele>
        <time>2022-07-22T17:18:31Z</time>
      </trkpt>
      <trkpt lat="46.7294410" lon="6.2790860">
        <ele>1081.4</ele>
        <time>2022-07-22T17:18:36Z</time>
      </trkpt>
      <trkpt lat="46.7294220" lon="6.2789870">
        <ele>1081.4</ele>
        <time>2022-07-22T17:18:40Z</time>
      </trkpt>
      <trkpt lat="46.7294060" lon="6.2789610">
        <ele>1081.4</ele>
        <time>2022-07-22T17:18:42Z</time>
      </trkpt>
      <trkpt lat="46.7294080" lon="6.2789520">
        <ele>1081.4</ele>
        <time>2022-07-22T17:18:43Z</time>
      </trkpt>
      <trkpt lat="46.7293650" lon="6.2787240">
        <ele>1081.2</ele>
        <time>2022-07-22T17:19:15Z</time>
      </trkpt>
      <trkpt lat="46.7293550" lon="6.2786590">
        <ele>1081.2</ele>
        <time>2022-07-22T17:19:17Z</time>
      </trkpt>
      <trkpt lat="46.7293080" lon="6.2785260">
        <ele>1081.2</ele>
        <time>2022-07-22T17:19:21Z</time>
      </trkpt>
      <trkpt lat="46.7292880" lon="6.2784610">
        <ele>1081.2</ele>
        <time>2022-07-22T17:19:23Z</time>
      </trkpt>
      <trkpt lat="46.7291920" lon="6.2782090">
        <ele>1081.8</ele>
        <time>2022-07-22T17:19:32Z</time>
      </trkpt>
      <trkpt lat="46.7290850" lon="6.2779590">
        <ele>1082.2</ele>
        <time>2022-07-22T17:19:41Z</time>
      </trkpt>
      <trkpt lat="46.7290730" lon="6.2779320">
        <ele>1082.4</ele>
        <time>2022-07-22T17:19:42Z</time>
      </trkpt>
      <trkpt lat="46.7289840" lon="6.2777250">
        <ele>1082.8</ele>
        <time>2022-07-22T17:19:50Z</time>
      </trkpt>
      <trkpt lat="46.7288920" lon="6.2775270">
        <ele>1082.8</ele>
        <time>2022-07-22T17:19:58Z</time>
      </trkpt>
      <trkpt lat="46.7287380" lon="6.2772630">
        <ele>1083.0</ele>
        <time>2022-07-22T17:20:09Z</time>
      </trkpt>
      <trkpt lat="46.7286610" lon="6.2771320">
        <ele>1083.4</ele>
        <time>2022-07-22T17:20:15Z</time>
      </trkpt>
      <trkpt lat="46.7286230" lon="6.2770720">
        <ele>1083.4</ele>
        <time>2022-07-22T17:20:18Z</time>
      </trkpt>
      <trkpt lat="46.7285060" lon="6.2768700">
        <ele>1083.8</ele>
        <time>2022-07-22T17:20:28Z</time>
      </trkpt>
      <trkpt lat="46.7284030" lon="6.2767090">
        <ele>1083.8</ele>
        <time>2022-07-22T17:20:36Z</time>
      </trkpt>
      <trkpt lat="46.7282770" lon="6.2765230">
        <ele>1084.2</ele>
        <time>2022-07-22T17:20:45Z</time>
      </trkpt>
      <trkpt lat="46.7281750" lon="6.2763680">
        <ele>1084.4</ele>
        <time>2022-07-22T17:20:53Z</time>
      </trkpt>
      <trkpt lat="46.7280690" lon="6.2761970">
        <ele>1084.4</ele>
        <time>2022-07-22T17:21:01Z</time>
      </trkpt>
      <trkpt lat="46.7279730" lon="6.2760740">
        <ele>1084.0</ele>
        <time>2022-07-22T17:21:08Z</time>
      </trkpt>
      <trkpt lat="46.7279320" lon="6.2760410">
        <ele>1083.8</ele>
        <time>2022-07-22T17:21:12Z</time>
      </trkpt>
      <trkpt lat="46.7278330" lon="6.2759380">
        <ele>1083.6</ele>
        <time>2022-07-22T17:21:31Z</time>
      </trkpt>
      <trkpt lat="46.7277450" lon="6.2758110">
        <ele>1083.4</ele>
        <time>2022-07-22T17:21:35Z</time>
      </trkpt>
      <trkpt lat="46.7277110" lon="6.2757770">
        <ele>1083.4</ele>
        <time>2022-07-22T17:21:36Z</time>
      </trkpt>
      <trkpt lat="46.7276050" lon="6.2757020">
        <ele>1083.0</ele>
        <time>2022-07-22T17:21:39Z</time>
      </trkpt>
      <trkpt lat="46.7275210" lon="6.2756390">
        <ele>1082.4</ele>
        <time>2022-07-22T17:21:44Z</time>
      </trkpt>
      <trkpt lat="46.7274630" lon="6.2755950">
        <ele>1082.4</ele>
        <time>2022-07-22T17:21:51Z</time>
      </trkpt>
      <trkpt lat="46.7273460" lon="6.2754800">
        <ele>1083.6</ele>
        <time>2022-07-22T17:22:16Z</time>
      </trkpt>
      <trkpt lat="46.7273010" lon="6.2754460">
        <ele>1083.6</ele>
        <time>2022-07-22T17:22:19Z</time>
      </trkpt>
      <trkpt lat="46.7271980" lon="6.2753620">
        <ele>1083.6</ele>
        <time>2022-07-22T17:22:25Z</time>
      </trkpt>
      <trkpt lat="46.7270150" lon="6.2752450">
        <ele>1084.0</ele>
        <time>2022-07-22T17:22:34Z</time>
      </trkpt>
      <trkpt lat="46.7269350" lon="6.2752110">
        <ele>1084.2</ele>
        <time>2022-07-22T17:22:38Z</time>
      </trkpt>
      <trkpt lat="46.7268260" lon="6.2751630">
        <ele>1084.4</ele>
        <time>2022-07-22T17:22:44Z</time>
      </trkpt>
      <trkpt lat="46.7266900" lon="6.2750760">
        <ele>1085.2</ele>
        <time>2022-07-22T17:22:53Z</time>
      </trkpt>
      <trkpt lat="46.7266770" lon="6.2750680">
        <ele>1085.2</ele>
        <time>2022-07-22T17:22:54Z</time>
      </trkpt>
      <trkpt lat="46.7265950" lon="6.2749690">
        <ele>1085.6</ele>
        <time>2022-07-22T17:23:00Z</time>
      </trkpt>
      <trkpt lat="46.7264890" lon="6.2747830">
        <ele>1086.0</ele>
        <time>2022-07-22T17:23:07Z</time>
      </trkpt>
      <trkpt lat="46.7264200" lon="6.2746880">
        <ele>1086.2</ele>
        <time>2022-07-22T17:23:11Z</time>
      </trkpt>
      <trkpt lat="46.7264020" lon="6.2746590">
        <ele>1086.2</ele>
        <time>2022-07-22T17:23:12Z</time>
      </trkpt>
      <trkpt lat="46.7263230" lon="6.2744640">
        <ele>1086.4</ele>
        <time>2022-07-22T17:23:18Z</time>
      </trkpt>
      <trkpt lat="46.7262950" lon="6.2743120">
        <ele>1086.4</ele>
        <time>2022-07-22T17:23:24Z</time>
      </trkpt>
      <trkpt lat="46.7262330" lon="6.2741120">
        <ele>1087.0</ele>
        <time>2022-07-22T17:23:31Z</time>
      </trkpt>
      <trkpt lat="46.7262210" lon="6.2740860">
        <ele>1087.0</ele>
        <time>2022-07-22T17:23:32Z</time>
      </trkpt>
      <trkpt lat="46.7261970" lon="6.2740430">
        <ele>1087.2</ele>
        <time>2022-07-22T17:23:36Z</time>
      </trkpt>
      <trkpt lat="46.7261610" lon="6.2739050">
        <ele>1087.0</ele>
        <time>2022-07-22T17:24:00Z</time>
      </trkpt>
      <trkpt lat="46.7261780" lon="6.2738450">
        <ele>1087.0</ele>
        <time>2022-07-22T17:24:02Z</time>
      </trkpt>
      <trkpt lat="46.7262130" lon="6.2736230">
        <ele>1086.8</ele>
        <time>2022-07-22T17:24:07Z</time>
      </trkpt>
      <trkpt lat="46.7262600" lon="6.2732940">
        <ele>1086.4</ele>
        <time>2022-07-22T17:24:14Z</time>
      </trkpt>
      <trkpt lat="46.7262650" lon="6.2732640">
        <ele>1085.8</ele>
        <time>2022-07-22T17:24:17Z</time>
      </trkpt>
      <trkpt lat="46.7262730" lon="6.2732440">
        <ele>1084.8</ele>
        <time>2022-07-22T17:24:20Z</time>
      </trkpt>
      <trkpt lat="46.7262840" lon="6.2732210">
        <ele>1084.4</ele>
        <time>2022-07-22T17:24:22Z</time>
      </trkpt>
      <trkpt lat="46.7262900" lon="6.2731910">
        <ele>1084.0</ele>
        <time>2022-07-22T17:24:26Z</time>
      </trkpt>
      <trkpt lat="46.7262670" lon="6.2731550">
        <ele>1083.8</ele>
        <time>2022-07-22T17:24:33Z</time>
      </trkpt>
      <trkpt lat="46.7262650" lon="6.2730570">
        <ele>1083.6</ele>
        <time>2022-07-22T17:24:48Z</time>
      </trkpt>
      <trkpt lat="46.7262530" lon="6.2729820">
        <ele>1083.8</ele>
        <time>2022-07-22T17:24:51Z</time>
      </trkpt>
      <trkpt lat="46.7262200" lon="6.2727730">
        <ele>1083.8</ele>
        <time>2022-07-22T17:24:57Z</time>
      </trkpt>
      <trkpt lat="46.7261840" lon="6.2724510">
        <ele>1083.8</ele>
        <time>2022-07-22T17:25:03Z</time>
      </trkpt>
      <trkpt lat="46.7261620" lon="6.2721970">
        <ele>1083.2</ele>
        <time>2022-07-22T17:25:06Z</time>
      </trkpt>
      <trkpt lat="46.7261600" lon="6.2721060">
        <ele>1083.2</ele>
        <time>2022-07-22T17:25:07Z</time>
      </trkpt>
      <trkpt lat="46.7261620" lon="6.2720100">
        <ele>1082.8</ele>
        <time>2022-07-22T17:25:08Z</time>
      </trkpt>
      <trkpt lat="46.7261680" lon="6.2717210">
        <ele>1082.0</ele>
        <time>2022-07-22T17:25:11Z</time>
      </trkpt>
      <trkpt lat="46.7262070" lon="6.2715480">
        <ele>1081.4</ele>
        <time>2022-07-22T17:25:13Z</time>
      </trkpt>
      <trkpt lat="46.7262800" lon="6.2714020">
        <ele>1081.0</ele>
        <time>2022-07-22T17:25:15Z</time>
      </trkpt>
      <trkpt lat="46.7263570" lon="6.2712750">
        <ele>1080.8</ele>
        <time>2022-07-22T17:25:17Z</time>
      </trkpt>
      <trkpt lat="46.7263860" lon="6.2712200">
        <ele>1080.4</ele>
        <time>2022-07-22T17:25:18Z</time>
      </trkpt>
      <trkpt lat="46.7264270" lon="6.2711170">
        <ele>1080.0</ele>
        <time>2022-07-22T17:25:20Z</time>
      </trkpt>
      <trkpt lat="46.7264400" lon="6.2710600">
        <ele>1079.8</ele>
        <time>2022-07-22T17:25:21Z</time>
      </trkpt>
      <trkpt lat="46.7264430" lon="6.2708650">
        <ele>1078.8</ele>
        <time>2022-07-22T17:25:24Z</time>
      </trkpt>
      <trkpt lat="46.7264360" lon="6.2708030">
        <ele>1078.2</ele>
        <time>2022-07-22T17:25:25Z</time>
      </trkpt>
      <trkpt lat="46.7264340" lon="6.2707480">
        <ele>1077.6</ele>
        <time>2022-07-22T17:25:26Z</time>
      </trkpt>
      <trkpt lat="46.7264630" lon="6.2705850">
        <ele>1076.2</ele>
        <time>2022-07-22T17:25:29Z</time>
      </trkpt>
      <trkpt lat="46.7265490" lon="6.2702910">
        <ele>1075.0</ele>
        <time>2022-07-22T17:25:34Z</time>
      </trkpt>
      <trkpt lat="46.7265670" lon="6.2702330">
        <ele>1074.4</ele>
        <time>2022-07-22T17:25:35Z</time>
      </trkpt>
      <trkpt lat="46.7266110" lon="6.2700810">
        <ele>1073.8</ele>
        <time>2022-07-22T17:25:38Z</time>
      </trkpt>
      <trkpt lat="46.7266440" lon="6.2699400">
        <ele>1073.4</ele>
        <time>2022-07-22T17:25:41Z</time>
      </trkpt>
      <trkpt lat="46.7266620" lon="6.2697810">
        <ele>1073.2</ele>
        <time>2022-07-22T17:25:45Z</time>
      </trkpt>
      <trkpt lat="46.7266590" lon="6.2697330">
        <ele>1073.2</ele>
        <time>2022-07-22T17:25:46Z</time>
      </trkpt>
      <trkpt lat="46.7266810" lon="6.2695370">
        <ele>1073.0</ele>
        <time>2022-07-22T17:25:49Z</time>
      </trkpt>
      <trkpt lat="46.7266820" lon="6.2694630">
        <ele>1073.0</ele>
        <time>2022-07-22T17:25:50Z</time>
      </trkpt>
      <trkpt lat="46.7266750" lon="6.2693900">
        <ele>1072.8</ele>
        <time>2022-07-22T17:25:51Z</time>
      </trkpt>
      <trkpt lat="46.7266110" lon="6.2692110">
        <ele>1072.2</ele>
        <time>2022-07-22T17:25:54Z</time>
      </trkpt>
      <trkpt lat="46.7265870" lon="6.2691540">
        <ele>1071.6</ele>
        <time>2022-07-22T17:25:55Z</time>
      </trkpt>
      <trkpt lat="46.7265140" lon="6.2689960">
        <ele>1070.0</ele>
        <time>2022-07-22T17:25:58Z</time>
      </trkpt>
      <trkpt lat="46.7264570" lon="6.2688310">
        <ele>1069.2</ele>
        <time>2022-07-22T17:26:01Z</time>
      </trkpt>
      <trkpt lat="46.7264350" lon="6.2687730">
        <ele>1069.0</ele>
        <time>2022-07-22T17:26:02Z</time>
      </trkpt>
      <trkpt lat="46.7263230" lon="6.2685110">
        <ele>1068.8</ele>
        <time>2022-07-22T17:26:07Z</time>
      </trkpt>
      <trkpt lat="46.7262010" lon="6.2682410">
        <ele>1068.4</ele>
        <time>2022-07-22T17:26:12Z</time>
      </trkpt>
      <trkpt lat="46.7260860" lon="6.2680150">
        <ele>1067.8</ele>
        <time>2022-07-22T17:26:17Z</time>
      </trkpt>
      <trkpt lat="46.7260650" lon="6.2679660">
        <ele>1067.8</ele>
        <time>2022-07-22T17:26:18Z</time>
      </trkpt>
      <trkpt lat="46.7259060" lon="6.2676060">
        <ele>1067.2</ele>
        <time>2022-07-22T17:26:25Z</time>
      </trkpt>
      <trkpt lat="46.7257900" lon="6.2673630">
        <ele>1066.8</ele>
        <time>2022-07-22T17:26:31Z</time>
      </trkpt>
      <trkpt lat="46.7257800" lon="6.2673310">
        <ele>1066.6</ele>
        <time>2022-07-22T17:26:32Z</time>
      </trkpt>
      <trkpt lat="46.7257080" lon="6.2671470">
        <ele>1066.4</ele>
        <time>2022-07-22T17:26:37Z</time>
      </trkpt>
      <trkpt lat="46.7256170" lon="6.2669380">
        <ele>1066.2</ele>
        <time>2022-07-22T17:26:42Z</time>
      </trkpt>
      <trkpt lat="46.7255560" lon="6.2667930">
        <ele>1065.8</ele>
        <time>2022-07-22T17:26:47Z</time>
      </trkpt>
      <trkpt lat="46.7255430" lon="6.2667420">
        <ele>1065.6</ele>
        <time>2022-07-22T17:26:50Z</time>
      </trkpt>
      <trkpt lat="46.7255080" lon="6.2666270">
        <ele>1064.6</ele>
        <time>2022-07-22T17:26:53Z</time>
      </trkpt>
      <trkpt lat="46.7254940" lon="6.2665160">
        <ele>1064.2</ele>
        <time>2022-07-22T17:26:55Z</time>
      </trkpt>
      <trkpt lat="46.7254950" lon="6.2664510">
        <ele>1063.8</ele>
        <time>2022-07-22T17:26:56Z</time>
      </trkpt>
      <trkpt lat="46.7255050" lon="6.2663940">
        <ele>1063.6</ele>
        <time>2022-07-22T17:26:57Z</time>
      </trkpt>
      <trkpt lat="46.7255520" lon="6.2662640">
        <ele>1063.0</ele>
        <time>2022-07-22T17:27:00Z</time>
      </trkpt>
      <trkpt lat="46.7255730" lon="6.2661990">
        <ele>1061.0</ele>
        <time>2022-07-22T17:27:02Z</time>
      </trkpt>
      <trkpt lat="46.7255930" lon="6.2661330">
        <ele>1060.0</ele>
        <time>2022-07-22T17:27:04Z</time>
      </trkpt>
      <trkpt lat="46.7256100" lon="6.2660560">
        <ele>1059.4</ele>
        <time>2022-07-22T17:27:06Z</time>
      </trkpt>
      <trkpt lat="46.7256170" lon="6.2660210">
        <ele>1059.2</ele>
        <time>2022-07-22T17:27:07Z</time>
      </trkpt>
      <trkpt lat="46.7256430" lon="6.2659070">
        <ele>1059.0</ele>
        <time>2022-07-22T17:27:10Z</time>
      </trkpt>
      <trkpt lat="46.7256670" lon="6.2658350">
        <ele>1058.6</ele>
        <time>2022-07-22T17:27:12Z</time>
      </trkpt>
      <trkpt lat="46.7256930" lon="6.2656010">
        <ele>1058.0</ele>
        <time>2022-07-22T17:27:17Z</time>
      </trkpt>
      <trkpt lat="46.7256730" lon="6.2653900">
        <ele>1057.6</ele>
        <time>2022-07-22T17:27:22Z</time>
      </trkpt>
      <trkpt lat="46.7256680" lon="6.2651210">
        <ele>1057.2</ele>
        <time>2022-07-22T17:27:28Z</time>
      </trkpt>
      <trkpt lat="46.7256790" lon="6.2649950">
        <ele>1056.8</ele>
        <time>2022-07-22T17:27:30Z</time>
      </trkpt>
      <trkpt lat="46.7256890" lon="6.2649240">
        <ele>1056.6</ele>
        <time>2022-07-22T17:27:31Z</time>
      </trkpt>
      <trkpt lat="46.7257170" lon="6.2647990">
        <ele>1056.2</ele>
        <time>2022-07-22T17:27:33Z</time>
      </trkpt>
      <trkpt lat="46.7257290" lon="6.2647290">
        <ele>1056.0</ele>
        <time>2022-07-22T17:27:34Z</time>
      </trkpt>
      <trkpt lat="46.7257590" lon="6.2645880">
        <ele>1055.6</ele>
        <time>2022-07-22T17:27:36Z</time>
      </trkpt>
      <trkpt lat="46.7257840" lon="6.2644420">
        <ele>1055.2</ele>
        <time>2022-07-22T17:27:38Z</time>
      </trkpt>
      <trkpt lat="46.7258090" lon="6.2643010">
        <ele>1054.8</ele>
        <time>2022-07-22T17:27:40Z</time>
      </trkpt>
      <trkpt lat="46.7258120" lon="6.2642230">
        <ele>1054.4</ele>
        <time>2022-07-22T17:27:41Z</time>
      </trkpt>
      <trkpt lat="46.7257930" lon="6.2640770">
        <ele>1054.0</ele>
        <time>2022-07-22T17:27:43Z</time>
      </trkpt>
      <trkpt lat="46.7257520" lon="6.2639580">
        <ele>1053.4</ele>
        <time>2022-07-22T17:27:45Z</time>
      </trkpt>
      <trkpt lat="46.7257020" lon="6.2638710">
        <ele>1052.8</ele>
        <time>2022-07-22T17:27:47Z</time>
      </trkpt>
      <trkpt lat="46.7256580" lon="6.2638070">
        <ele>1052.4</ele>
        <time>2022-07-22T17:27:49Z</time>
      </trkpt>
      <trkpt lat="46.7256040" lon="6.2637160">
        <ele>1052.2</ele>
        <time>2022-07-22T17:27:52Z</time>
      </trkpt>
      <trkpt lat="46.7255240" lon="6.2635820">
        <ele>1052.2</ele>
        <time>2022-07-22T17:27:58Z</time>
      </trkpt>
      <trkpt lat="46.7254380" lon="6.2634340">
        <ele>1052.8</ele>
        <time>2022-07-22T17:28:05Z</time>
      </trkpt>
      <trkpt lat="46.7254140" lon="6.2633970">
        <ele>1053.2</ele>
        <time>2022-07-22T17:28:07Z</time>
      </trkpt>
      <trkpt lat="46.7253570" lon="6.2633100">
        <ele>1053.8</ele>
        <time>2022-07-22T17:28:12Z</time>
      </trkpt>
      <trkpt lat="46.7253010" lon="6.2632220">
        <ele>1054.4</ele>
        <time>2022-07-22T17:28:17Z</time>
      </trkpt>
      <trkpt lat="46.7252680" lon="6.2631750">
        <ele>1054.8</ele>
        <time>2022-07-22T17:28:20Z</time>
      </trkpt>
      <trkpt lat="46.7251800" lon="6.2630700">
        <ele>1055.4</ele>
        <time>2022-07-22T17:28:27Z</time>
      </trkpt>
      <trkpt lat="46.7251230" lon="6.2629850">
        <ele>1056.4</ele>
        <time>2022-07-22T17:28:32Z</time>
      </trkpt>
      <trkpt lat="46.7250970" lon="6.2629430">
        <ele>1056.6</ele>
        <time>2022-07-22T17:28:34Z</time>
      </trkpt>
      <trkpt lat="46.7250320" lon="6.2628290">
        <ele>1057.2</ele>
        <time>2022-07-22T17:28:40Z</time>
      </trkpt>
      <trkpt lat="46.7249980" lon="6.2627700">
        <ele>1057.4</ele>
        <time>2022-07-22T17:28:43Z</time>
      </trkpt>
      <trkpt lat="46.7249340" lon="6.2626510">
        <ele>1058.2</ele>
        <time>2022-07-22T17:28:49Z</time>
      </trkpt>
      <trkpt lat="46.7248980" lon="6.2625880">
        <ele>1058.4</ele>
        <time>2022-07-22T17:28:52Z</time>
      </trkpt>
      <trkpt lat="46.7248100" lon="6.2624240">
        <ele>1059.0</ele>
        <time>2022-07-22T17:29:00Z</time>
      </trkpt>
      <trkpt lat="46.7247250" lon="6.2622830">
        <ele>1059.8</ele>
        <time>2022-07-22T17:29:07Z</time>
      </trkpt>
      <trkpt lat="46.7246700" lon="6.2621790">
        <ele>1060.2</ele>
        <time>2022-07-22T17:29:12Z</time>
      </trkpt>
      <trkpt lat="46.7246460" lon="6.2621390">
        <ele>1060.4</ele>
        <time>2022-07-22T17:29:14Z</time>
      </trkpt>
      <trkpt lat="46.7245740" lon="6.2619910">
        <ele>1061.2</ele>
        <time>2022-07-22T17:29:21Z</time>
      </trkpt>
      <trkpt lat="46.7245280" lon="6.2618990">
        <ele>1061.6</ele>
        <time>2022-07-22T17:29:26Z</time>
      </trkpt>
      <trkpt lat="46.7244980" lon="6.2618380">
        <ele>1062.2</ele>
        <time>2022-07-22T17:29:29Z</time>
      </trkpt>
      <trkpt lat="46.7244560" lon="6.2617530">
        <ele>1062.6</ele>
        <time>2022-07-22T17:29:33Z</time>
      </trkpt>
      <trkpt lat="46.7244070" lon="6.2616830">
        <ele>1063.2</ele>
        <time>2022-07-22T17:29:37Z</time>
      </trkpt>
      <trkpt lat="46.7243470" lon="6.2616060">
        <ele>1063.6</ele>
        <time>2022-07-22T17:29:42Z</time>
      </trkpt>
      <trkpt lat="46.7242910" lon="6.2615180">
        <ele>1064.2</ele>
        <time>2022-07-22T17:29:47Z</time>
      </trkpt>
      <trkpt lat="46.7242660" lon="6.2614890">
        <ele>1064.4</ele>
        <time>2022-07-22T17:29:49Z</time>
      </trkpt>
      <trkpt lat="46.7241660" lon="6.2614000">
        <ele>1065.2</ele>
        <time>2022-07-22T17:29:57Z</time>
      </trkpt>
      <trkpt lat="46.7241530" lon="6.2613880">
        <ele>1065.6</ele>
        <time>2022-07-22T17:29:58Z</time>
      </trkpt>
      <trkpt lat="46.7240880" lon="6.2613280">
        <ele>1066.0</ele>
        <time>2022-07-22T17:30:02Z</time>
      </trkpt>
      <trkpt lat="46.7240430" lon="6.2612660">
        <ele>1066.4</ele>
        <time>2022-07-22T17:30:06Z</time>
      </trkpt>
      <trkpt lat="46.7240130" lon="6.2612380">
        <ele>1066.8</ele>
        <time>2022-07-22T17:30:08Z</time>
      </trkpt>
      <trkpt lat="46.7239460" lon="6.2611720">
        <ele>1067.6</ele>
        <time>2022-07-22T17:30:13Z</time>
      </trkpt>
      <trkpt lat="46.7239330" lon="6.2611630">
        <ele>1067.6</ele>
        <time>2022-07-22T17:30:14Z</time>
      </trkpt>
      <trkpt lat="46.7238250" lon="6.2610820">
        <ele>1068.4</ele>
        <time>2022-07-22T17:30:21Z</time>
      </trkpt>
      <trkpt lat="46.7237890" lon="6.2610660">
        <ele>1068.6</ele>
        <time>2022-07-22T17:30:23Z</time>
      </trkpt>
      <trkpt lat="46.7236770" lon="6.2610090">
        <ele>1069.4</ele>
        <time>2022-07-22T17:30:29Z</time>
      </trkpt>
      <trkpt lat="46.7236400" lon="6.2609910">
        <ele>1069.6</ele>
        <time>2022-07-22T17:30:31Z</time>
      </trkpt>
      <trkpt lat="46.7235240" lon="6.2609650">
        <ele>1070.4</ele>
        <time>2022-07-22T17:30:37Z</time>
      </trkpt>
      <trkpt lat="46.7234770" lon="6.2609550">
        <ele>1070.8</ele>
        <time>2022-07-22T17:30:40Z</time>
      </trkpt>
      <trkpt lat="46.7234080" lon="6.2609270">
        <ele>1071.2</ele>
        <time>2022-07-22T17:30:44Z</time>
      </trkpt>
      <trkpt lat="46.7233260" lon="6.2608970">
        <ele>1071.8</ele>
        <time>2022-07-22T17:30:49Z</time>
      </trkpt>
      <trkpt lat="46.7233010" lon="6.2608820">
        <ele>1072.0</ele>
        <time>2022-07-22T17:30:51Z</time>
      </trkpt>
      <trkpt lat="46.7231870" lon="6.2608340">
        <ele>1073.0</ele>
        <time>2022-07-22T17:30:57Z</time>
      </trkpt>
      <trkpt lat="46.7230960" lon="6.2607550">
        <ele>1073.4</ele>
        <time>2022-07-22T17:31:04Z</time>
      </trkpt>
      <trkpt lat="46.7230530" lon="6.2607130">
        <ele>1073.8</ele>
        <time>2022-07-22T17:31:07Z</time>
      </trkpt>
      <trkpt lat="46.7229520" lon="6.2606390">
        <ele>1074.8</ele>
        <time>2022-07-22T17:31:14Z</time>
      </trkpt>
      <trkpt lat="46.7228400" lon="6.2605720">
        <ele>1076.0</ele>
        <time>2022-07-22T17:31:21Z</time>
      </trkpt>
      <trkpt lat="46.7227170" lon="6.2604990">
        <ele>1076.8</ele>
        <time>2022-07-22T17:31:28Z</time>
      </trkpt>
      <trkpt lat="46.7227020" lon="6.2604880">
        <ele>1077.0</ele>
        <time>2022-07-22T17:31:29Z</time>
      </trkpt>
      <trkpt lat="46.7226230" lon="6.2604290">
        <ele>1077.6</ele>
        <time>2022-07-22T17:31:34Z</time>
      </trkpt>
      <trkpt lat="46.7225650" lon="6.2604080">
        <ele>1078.0</ele>
        <time>2022-07-22T17:31:37Z</time>
      </trkpt>
      <trkpt lat="46.7225180" lon="6.2603850">
        <ele>1078.4</ele>
        <time>2022-07-22T17:31:40Z</time>
      </trkpt>
      <trkpt lat="46.7223870" lon="6.2603250">
        <ele>1079.0</ele>
        <time>2022-07-22T17:31:47Z</time>
      </trkpt>
      <trkpt lat="46.7223680" lon="6.2603190">
        <ele>1079.2</ele>
        <time>2022-07-22T17:31:48Z</time>
      </trkpt>
      <trkpt lat="46.7222300" lon="6.2602480">
        <ele>1079.8</ele>
        <time>2022-07-22T17:31:56Z</time>
      </trkpt>
      <trkpt lat="46.7222000" lon="6.2602330">
        <ele>1080.0</ele>
        <time>2022-07-22T17:31:58Z</time>
      </trkpt>
      <trkpt lat="46.7221050" lon="6.2601780">
        <ele>1080.8</ele>
        <time>2022-07-22T17:32:04Z</time>
      </trkpt>
      <trkpt lat="46.7220320" lon="6.2601060">
        <ele>1081.0</ele>
        <time>2022-07-22T17:32:09Z</time>
      </trkpt>
      <trkpt lat="46.7220030" lon="6.2600790">
        <ele>1081.0</ele>
        <time>2022-07-22T17:32:11Z</time>
      </trkpt>
      <trkpt lat="46.7219170" lon="6.2599890">
        <ele>1081.8</ele>
        <time>2022-07-22T17:32:17Z</time>
      </trkpt>
      <trkpt lat="46.7219050" lon="6.2599710">
        <ele>1082.0</ele>
        <time>2022-07-22T17:32:18Z</time>
      </trkpt>
      <trkpt lat="46.7218010" lon="6.2598590">
        <ele>1082.6</ele>
        <time>2022-07-22T17:32:25Z</time>
      </trkpt>
      <trkpt lat="46.7217420" lon="6.2597900">
        <ele>1083.0</ele>
        <time>2022-07-22T17:32:29Z</time>
      </trkpt>
      <trkpt lat="46.7216810" lon="6.2597140">
        <ele>1083.4</ele>
        <time>2022-07-22T17:32:33Z</time>
      </trkpt>
      <trkpt lat="46.7216320" lon="6.2596530">
        <ele>1084.0</ele>
        <time>2022-07-22T17:32:37Z</time>
      </trkpt>
      <trkpt lat="46.7216080" lon="6.2596140">
        <ele>1084.2</ele>
        <time>2022-07-22T17:32:39Z</time>
      </trkpt>
      <trkpt lat="46.7215370" lon="6.2595060">
        <ele>1085.2</ele>
        <time>2022-07-22T17:32:45Z</time>
      </trkpt>
      <trkpt lat="46.7215260" lon="6.2594860">
        <ele>1085.2</ele>
        <time>2022-07-22T17:32:46Z</time>
      </trkpt>
      <trkpt lat="46.7214470" lon="6.2593490">
        <ele>1086.2</ele>
        <time>2022-07-22T17:32:53Z</time>
      </trkpt>
      <trkpt lat="46.7213750" lon="6.2591870">
        <ele>1087.2</ele>
        <time>2022-07-22T17:33:01Z</time>
      </trkpt>
      <trkpt lat="46.7213260" lon="6.2590440">
        <ele>1088.0</ele>
        <time>2022-07-22T17:33:07Z</time>
      </trkpt>
      <trkpt lat="46.7213000" lon="6.2588430">
        <ele>1088.2</ele>
        <time>2022-07-22T17:33:14Z</time>
      </trkpt>
      <trkpt lat="46.7212330" lon="6.2585790">
        <ele>1088.2</ele>
        <time>2022-07-22T17:33:20Z</time>
      </trkpt>
      <trkpt lat="46.7211430" lon="6.2584280">
        <ele>1088.0</ele>
        <time>2022-07-22T17:33:23Z</time>
      </trkpt>
      <trkpt lat="46.7210560" lon="6.2583340">
        <ele>1087.4</ele>
        <time>2022-07-22T17:33:25Z</time>
      </trkpt>
      <trkpt lat="46.7208930" lon="6.2581230">
        <ele>1086.2</ele>
        <time>2022-07-22T17:33:29Z</time>
      </trkpt>
      <trkpt lat="46.7208500" lon="6.2580550">
        <ele>1085.8</ele>
        <time>2022-07-22T17:33:30Z</time>
      </trkpt>
      <trkpt lat="46.7207070" lon="6.2578310">
        <ele>1084.8</ele>
        <time>2022-07-22T17:33:33Z</time>
      </trkpt>
      <trkpt lat="46.7206140" lon="6.2576720">
        <ele>1084.0</ele>
        <time>2022-07-22T17:33:35Z</time>
      </trkpt>
      <trkpt lat="46.7205700" lon="6.2575920">
        <ele>1083.8</ele>
        <time>2022-07-22T17:33:36Z</time>
      </trkpt>
      <trkpt lat="46.7203940" lon="6.2571890">
        <ele>1082.6</ele>
        <time>2022-07-22T17:33:40Z</time>
      </trkpt>
      <trkpt lat="46.7202770" lon="6.2568940">
        <ele>1081.4</ele>
        <time>2022-07-22T17:33:43Z</time>
      </trkpt>
      <trkpt lat="46.7202090" lon="6.2567010">
        <ele>1080.2</ele>
        <time>2022-07-22T17:33:45Z</time>
      </trkpt>
      <trkpt lat="46.7201470" lon="6.2565170">
        <ele>1079.0</ele>
        <time>2022-07-22T17:33:47Z</time>
      </trkpt>
      <trkpt lat="46.7201290" lon="6.2564330">
        <ele>1078.4</ele>
        <time>2022-07-22T17:33:48Z</time>
      </trkpt>
      <trkpt lat="46.7201200" lon="6.2563530">
        <ele>1077.8</ele>
        <time>2022-07-22T17:33:49Z</time>
      </trkpt>
      <trkpt lat="46.7201220" lon="6.2562610">
        <ele>1077.4</ele>
        <time>2022-07-22T17:33:50Z</time>
      </trkpt>
      <trkpt lat="46.7201380" lon="6.2560750">
        <ele>1075.4</ele>
        <time>2022-07-22T17:33:52Z</time>
      </trkpt>
      <trkpt lat="46.7201450" lon="6.2559150">
        <ele>1073.8</ele>
        <time>2022-07-22T17:33:54Z</time>
      </trkpt>
      <trkpt lat="46.7201430" lon="6.2558390">
        <ele>1073.0</ele>
        <time>2022-07-22T17:33:55Z</time>
      </trkpt>
      <trkpt lat="46.7201400" lon="6.2557570">
        <ele>1072.6</ele>
        <time>2022-07-22T17:33:56Z</time>
      </trkpt>
      <trkpt lat="46.7201130" lon="6.2555830">
        <ele>1071.8</ele>
        <time>2022-07-22T17:33:58Z</time>
      </trkpt>
      <trkpt lat="46.7200890" lon="6.2554920">
        <ele>1071.4</ele>
        <time>2022-07-22T17:33:59Z</time>
      </trkpt>
      <trkpt lat="46.7200140" lon="6.2552370">
        <ele>1069.8</ele>
        <time>2022-07-22T17:34:02Z</time>
      </trkpt>
      <trkpt lat="46.7199540" lon="6.2549700">
        <ele>1068.6</ele>
        <time>2022-07-22T17:34:05Z</time>
      </trkpt>
      <trkpt lat="46.7199180" lon="6.2547590">
        <ele>1067.2</ele>
        <time>2022-07-22T17:34:07Z</time>
      </trkpt>
      <trkpt lat="46.7198710" lon="6.2544420">
        <ele>1066.0</ele>
        <time>2022-07-22T17:34:10Z</time>
      </trkpt>
      <trkpt lat="46.7198490" lon="6.2543280">
        <ele>1065.2</ele>
        <time>2022-07-22T17:34:11Z</time>
      </trkpt>
      <trkpt lat="46.7198210" lon="6.2542150">
        <ele>1064.8</ele>
        <time>2022-07-22T17:34:12Z</time>
      </trkpt>
      <trkpt lat="46.7197200" lon="6.2538680">
        <ele>1063.8</ele>
        <time>2022-07-22T17:34:15Z</time>
      </trkpt>
      <trkpt lat="46.7196830" lon="6.2537560">
        <ele>1063.4</ele>
        <time>2022-07-22T17:34:16Z</time>
      </trkpt>
      <trkpt lat="46.7196120" lon="6.2535380">
        <ele>1062.8</ele>
        <time>2022-07-22T17:34:18Z</time>
      </trkpt>
      <trkpt lat="46.7195350" lon="6.2533420">
        <ele>1061.6</ele>
        <time>2022-07-22T17:34:20Z</time>
      </trkpt>
      <trkpt lat="46.7194520" lon="6.2531480">
        <ele>1059.8</ele>
        <time>2022-07-22T17:34:22Z</time>
      </trkpt>
      <trkpt lat="46.7193640" lon="6.2529300">
        <ele>1058.4</ele>
        <time>2022-07-22T17:34:24Z</time>
      </trkpt>
      <trkpt lat="46.7192700" lon="6.2527070">
        <ele>1057.2</ele>
        <time>2022-07-22T17:34:26Z</time>
      </trkpt>
      <trkpt lat="46.7192240" lon="6.2526080">
        <ele>1056.4</ele>
        <time>2022-07-22T17:34:27Z</time>
      </trkpt>
      <trkpt lat="46.7191840" lon="6.2525220">
        <ele>1055.8</ele>
        <time>2022-07-22T17:34:28Z</time>
      </trkpt>
      <trkpt lat="46.7191140" lon="6.2523870">
        <ele>1054.8</ele>
        <time>2022-07-22T17:34:30Z</time>
      </trkpt>
      <trkpt lat="46.7190830" lon="6.2523330">
        <ele>1054.2</ele>
        <time>2022-07-22T17:34:31Z</time>
      </trkpt>
      <trkpt lat="46.7190510" lon="6.2522820">
        <ele>1053.6</ele>
        <time>2022-07-22T17:34:32Z</time>
      </trkpt>
      <trkpt lat="46.7190200" lon="6.2522290">
        <ele>1053.0</ele>
        <time>2022-07-22T17:34:33Z</time>
      </trkpt>
      <trkpt lat="46.7189960" lon="6.2521700">
        <ele>1052.2</ele>
        <time>2022-07-22T17:34:34Z</time>
      </trkpt>
      <trkpt lat="46.7189540" lon="6.2520370">
        <ele>1050.8</ele>
        <time>2022-07-22T17:34:36Z</time>
      </trkpt>
      <trkpt lat="46.7189240" lon="6.2519570">
        <ele>1049.6</ele>
        <time>2022-07-22T17:34:38Z</time>
      </trkpt>
      <trkpt lat="46.7189240" lon="6.2519490">
        <ele>1049.0</ele>
        <time>2022-07-22T17:34:39Z</time>
      </trkpt>
      <trkpt lat="46.7189240" lon="6.2519500">
        <ele>1048.2</ele>
        <time>2022-07-22T17:34:41Z</time>
      </trkpt>
      <trkpt lat="46.7189070" lon="6.2518440">
        <ele>1045.6</ele>
        <time>2022-07-22T17:34:52Z</time>
      </trkpt>
      <trkpt lat="46.7188890" lon="6.2517900">
        <ele>1045.6</ele>
        <time>2022-07-22T17:34:54Z</time>
      </trkpt>
      <trkpt lat="46.7187970" lon="6.2515780">
        <ele>1045.6</ele>
        <time>2022-07-22T17:35:02Z</time>
      </trkpt>
      <trkpt lat="46.7187320" lon="6.2514630">
        <ele>1046.0</ele>
        <time>2022-07-22T17:35:09Z</time>
      </trkpt>
      <trkpt lat="46.7187010" lon="6.2514300">
        <ele>1046.6</ele>
        <time>2022-07-22T17:35:12Z</time>
      </trkpt>
      <trkpt lat="46.7186740" lon="6.2513800">
        <ele>1047.4</ele>
        <time>2022-07-22T17:35:16Z</time>
      </trkpt>
      <trkpt lat="46.7186670" lon="6.2513710">
        <ele>1047.6</ele>
        <time>2022-07-22T17:35:17Z</time>
      </trkpt>
      <trkpt lat="46.7186300" lon="6.2513250">
        <ele>1048.8</ele>
        <time>2022-07-22T17:35:22Z</time>
      </trkpt>
      <trkpt lat="46.7186200" lon="6.2512980">
        <ele>1049.0</ele>
        <time>2022-07-22T17:35:24Z</time>
      </trkpt>
      <trkpt lat="46.7185880" lon="6.2512420">
        <ele>1049.8</ele>
        <time>2022-07-22T17:35:29Z</time>
      </trkpt>
      <trkpt lat="46.7185810" lon="6.2512330">
        <ele>1050.0</ele>
        <time>2022-07-22T17:35:30Z</time>
      </trkpt>
      <trkpt lat="46.7185380" lon="6.2511550">
        <ele>1051.0</ele>
        <time>2022-07-22T17:35:37Z</time>
      </trkpt>
      <trkpt lat="46.7184950" lon="6.2511100">
        <ele>1051.4</ele>
        <time>2022-07-22T17:35:42Z</time>
      </trkpt>
      <trkpt lat="46.7184620" lon="6.2510670">
        <ele>1052.0</ele>
        <time>2022-07-22T17:35:45Z</time>
      </trkpt>
      <trkpt lat="46.7183930" lon="6.2509990">
        <ele>1052.8</ele>
        <time>2022-07-22T17:35:50Z</time>
      </trkpt>
      <trkpt lat="46.7183780" lon="6.2509830">
        <ele>1053.0</ele>
        <time>2022-07-22T17:35:51Z</time>
      </trkpt>
      <trkpt lat="46.7182660" lon="6.2508440">
        <ele>1053.8</ele>
        <time>2022-07-22T17:35:58Z</time>
      </trkpt>
      <trkpt lat="46.7182200" lon="6.2507830">
        <ele>1054.0</ele>
        <time>2022-07-22T17:36:01Z</time>
      </trkpt>
      <trkpt lat="46.7181640" lon="6.2506910">
        <ele>1054.0</ele>
        <time>2022-07-22T17:36:05Z</time>
      </trkpt>
      <trkpt lat="46.7180570" lon="6.2505660">
        <ele>1054.2</ele>
        <time>2022-07-22T17:36:11Z</time>
      </trkpt>
      <trkpt lat="46.7179430" lon="6.2504550">
        <ele>1055.0</ele>
        <time>2022-07-22T17:36:17Z</time>
      </trkpt>
      <trkpt lat="46.7179160" lon="6.2504260">
        <ele>1055.0</ele>
        <time>2022-07-22T17:36:19Z</time>
      </trkpt>
      <trkpt lat="46.7178050" lon="6.2503090">
        <ele>1055.8</ele>
        <time>2022-07-22T17:36:28Z</time>
      </trkpt>
      <trkpt lat="46.7177980" lon="6.2502960">
        <ele>1056.0</ele>
        <time>2022-07-22T17:36:29Z</time>
      </trkpt>
      <trkpt lat="46.7177480" lon="6.2502290">
        <ele>1057.0</ele>
        <time>2022-07-22T17:36:35Z</time>
      </trkpt>
      <trkpt lat="46.7177320" lon="6.2502050">
        <ele>1057.2</ele>
        <time>2022-07-22T17:36:37Z</time>
      </trkpt>
      <trkpt lat="46.7176860" lon="6.2501470">
        <ele>1057.8</ele>
        <time>2022-07-22T17:36:43Z</time>
      </trkpt>
      <trkpt lat="46.7176690" lon="6.2501290">
        <ele>1058.2</ele>
        <time>2022-07-22T17:36:45Z</time>
      </trkpt>
      <trkpt lat="46.7176430" lon="6.2500920">
        <ele>1058.8</ele>
        <time>2022-07-22T17:36:48Z</time>
      </trkpt>
      <trkpt lat="46.7176270" lon="6.2500710">
        <ele>1058.8</ele>
        <time>2022-07-22T17:36:50Z</time>
      </trkpt>
      <trkpt lat="46.7176180" lon="6.2500650">
        <ele>1059.0</ele>
        <time>2022-07-22T17:36:51Z</time>
      </trkpt>
      <trkpt lat="46.7175630" lon="6.2500200">
        <ele>1059.8</ele>
        <time>2022-07-22T17:36:57Z</time>
      </trkpt>
      <trkpt lat="46.7175390" lon="6.2499990">
        <ele>1060.2</ele>
        <time>2022-07-22T17:36:59Z</time>
      </trkpt>
      <trkpt lat="46.7175280" lon="6.2499890">
        <ele>1060.2</ele>
        <time>2022-07-22T17:37:00Z</time>
      </trkpt>
      <trkpt lat="46.7174860" lon="6.2499460">
        <ele>1060.8</ele>
        <time>2022-07-22T17:37:04Z</time>
      </trkpt>
      <trkpt lat="46.7174490" lon="6.2499200">
        <ele>1061.2</ele>
        <time>2022-07-22T17:37:07Z</time>
      </trkpt>
      <trkpt lat="46.7173960" lon="6.2498840">
        <ele>1061.6</ele>
        <time>2022-07-22T17:37:12Z</time>
      </trkpt>
      <trkpt lat="46.7173570" lon="6.2498570">
        <ele>1062.2</ele>
        <time>2022-07-22T17:37:16Z</time>
      </trkpt>
      <trkpt lat="46.7173210" lon="6.2498400">
        <ele>1062.6</ele>
        <time>2022-07-22T17:37:19Z</time>
      </trkpt>
      <trkpt lat="46.7172740" lon="6.2498130">
        <ele>1063.4</ele>
        <time>2022-07-22T17:37:24Z</time>
      </trkpt>
      <trkpt lat="46.7172320" lon="6.2497720">
        <ele>1063.8</ele>
        <time>2022-07-22T17:37:28Z</time>
      </trkpt>
      <trkpt lat="46.7171870" lon="6.2497160">
        <ele>1064.4</ele>
        <time>2022-07-22T17:37:32Z</time>
      </trkpt>
      <trkpt lat="46.7171740" lon="6.2497020">
        <ele>1064.6</ele>
        <time>2022-07-22T17:37:33Z</time>
      </trkpt>
      <trkpt lat="46.7171030" lon="6.2496330">
        <ele>1065.4</ele>
        <time>2022-07-22T17:37:39Z</time>
      </trkpt>
      <trkpt lat="46.7170010" lon="6.2495260">
        <ele>1066.0</ele>
        <time>2022-07-22T17:37:47Z</time>
      </trkpt>
      <trkpt lat="46.7169320" lon="6.2494500">
        <ele>1066.4</ele>
        <time>2022-07-22T17:37:53Z</time>
      </trkpt>
      <trkpt lat="46.7169210" lon="6.2494380">
        <ele>1066.6</ele>
        <time>2022-07-22T17:37:54Z</time>
      </trkpt>
      <trkpt lat="46.7168300" lon="6.2493280">
        <ele>1067.4</ele>
        <time>2022-07-22T17:38:02Z</time>
      </trkpt>
      <trkpt lat="46.7168170" lon="6.2493160">
        <ele>1067.6</ele>
        <time>2022-07-22T17:38:03Z</time>
      </trkpt>
      <trkpt lat="46.7167350" lon="6.2492270">
        <ele>1068.2</ele>
        <time>2022-07-22T17:38:09Z</time>
      </trkpt>
      <trkpt lat="46.7166970" lon="6.2491880">
        <ele>1068.6</ele>
        <time>2022-07-22T17:38:12Z</time>
      </trkpt>
      <trkpt lat="46.7166270" lon="6.2491200">
        <ele>1069.4</ele>
        <time>2022-07-22T17:38:17Z</time>
      </trkpt>
      <trkpt lat="46.7166130" lon="6.2491090">
        <ele>1069.6</ele>
        <time>2022-07-22T17:38:18Z</time>
      </trkpt>
      <trkpt lat="46.7165380" lon="6.2490130">
        <ele>1070.6</ele>
        <time>2022-07-22T17:38:25Z</time>
      </trkpt>
      <trkpt lat="46.7165260" lon="6.2490000">
        <ele>1070.8</ele>
        <time>2022-07-22T17:38:26Z</time>
      </trkpt>
      <trkpt lat="46.7164580" lon="6.2489220">
        <ele>1071.6</ele>
        <time>2022-07-22T17:38:32Z</time>
      </trkpt>
      <trkpt lat="46.7164360" lon="6.2488950">
        <ele>1071.6</ele>
        <time>2022-07-22T17:38:34Z</time>
      </trkpt>
      <trkpt lat="46.7163840" lon="6.2488330">
        <ele>1072.2</ele>
        <time>2022-07-22T17:38:38Z</time>
      </trkpt>
      <trkpt lat="46.7163410" lon="6.2487830">
        <ele>1072.8</ele>
        <time>2022-07-22T17:38:42Z</time>
      </trkpt>
      <trkpt lat="46.7163050" lon="6.2487430">
        <ele>1073.6</ele>
        <time>2022-07-22T17:38:45Z</time>
      </trkpt>
      <trkpt lat="46.7162730" lon="6.2486980">
        <ele>1074.0</ele>
        <time>2022-07-22T17:38:48Z</time>
      </trkpt>
      <trkpt lat="46.7162210" lon="6.2486490">
        <ele>1074.4</ele>
        <time>2022-07-22T17:38:52Z</time>
      </trkpt>
      <trkpt lat="46.7161650" lon="6.2486010">
        <ele>1075.0</ele>
        <time>2022-07-22T17:38:57Z</time>
      </trkpt>
      <trkpt lat="46.7161420" lon="6.2485730">
        <ele>1075.2</ele>
        <time>2022-07-22T17:38:59Z</time>
      </trkpt>
      <trkpt lat="46.7160300" lon="6.2484730">
        <ele>1076.0</ele>
        <time>2022-07-22T17:39:06Z</time>
      </trkpt>
      <trkpt lat="46.7159340" lon="6.2483660">
        <ele>1076.8</ele>
        <time>2022-07-22T17:39:13Z</time>
      </trkpt>
      <trkpt lat="46.7159030" lon="6.2483210">
        <ele>1077.0</ele>
        <time>2022-07-22T17:39:16Z</time>
      </trkpt>
      <trkpt lat="46.7158550" lon="6.2482630">
        <ele>1077.2</ele>
        <time>2022-07-22T17:39:19Z</time>
      </trkpt>
      <trkpt lat="46.7157270" lon="6.2481110">
        <ele>1077.6</ele>
        <time>2022-07-22T17:39:26Z</time>
      </trkpt>
      <trkpt lat="46.7156020" lon="6.2479450">
        <ele>1078.0</ele>
        <time>2022-07-22T17:39:34Z</time>
      </trkpt>
      <trkpt lat="46.7155790" lon="6.2479230">
        <ele>1078.2</ele>
        <time>2022-07-22T17:39:35Z</time>
      </trkpt>
      <trkpt lat="46.7154990" lon="6.2478120">
        <ele>1078.6</ele>
        <time>2022-07-22T17:39:40Z</time>
      </trkpt>
      <trkpt lat="46.7154020" lon="6.2475530">
        <ele>1078.8</ele>
        <time>2022-07-22T17:39:47Z</time>
      </trkpt>
      <trkpt lat="46.7153210" lon="6.2473580">
        <ele>1078.6</ele>
        <time>2022-07-22T17:39:52Z</time>
      </trkpt>
      <trkpt lat="46.7151910" lon="6.2471110">
        <ele>1078.4</ele>
        <time>2022-07-22T17:39:58Z</time>
      </trkpt>
      <trkpt lat="46.7150710" lon="6.2469180">
        <ele>1078.4</ele>
        <time>2022-07-22T17:40:04Z</time>
      </trkpt>
      <trkpt lat="46.7149600" lon="6.2466700">
        <ele>1078.6</ele>
        <time>2022-07-22T17:40:12Z</time>
      </trkpt>
      <trkpt lat="46.7149110" lon="6.2465440">
        <ele>1079.2</ele>
        <time>2022-07-22T17:40:16Z</time>
      </trkpt>
      <trkpt lat="46.7148830" lon="6.2464760">
        <ele>1079.4</ele>
        <time>2022-07-22T17:40:18Z</time>
      </trkpt>
      <trkpt lat="46.7147870" lon="6.2461740">
        <ele>1080.2</ele>
        <time>2022-07-22T17:40:27Z</time>
      </trkpt>
      <trkpt lat="46.7147060" lon="6.2459890">
        <ele>1081.2</ele>
        <time>2022-07-22T17:40:34Z</time>
      </trkpt>
      <trkpt lat="46.7146320" lon="6.2459120">
        <ele>1081.6</ele>
        <time>2022-07-22T17:40:39Z</time>
      </trkpt>
      <trkpt lat="46.7145540" lon="6.2458530">
        <ele>1082.2</ele>
        <time>2022-07-22T17:40:45Z</time>
      </trkpt>
      <trkpt lat="46.7145490" lon="6.2458480">
        <ele>1082.4</ele>
        <time>2022-07-22T17:40:47Z</time>
      </trkpt>
      <trkpt lat="46.7146080" lon="6.2459010">
        <ele>1083.0</ele>
        <time>2022-07-22T17:41:04Z</time>
      </trkpt>
      <trkpt lat="46.7146250" lon="6.2459230">
        <ele>1083.0</ele>
        <time>2022-07-22T17:41:05Z</time>
      </trkpt>
      <trkpt lat="46.7146860" lon="6.2459050">
        <ele>1082.8</ele>
        <time>2022-07-22T17:41:09Z</time>
      </trkpt>
      <trkpt lat="46.7146730" lon="6.2458020">
        <ele>1082.6</ele>
        <time>2022-07-22T17:41:12Z</time>
      </trkpt>
      <trkpt lat="46.7146640" lon="6.2457680">
        <ele>1082.6</ele>
        <time>2022-07-22T17:41:13Z</time>
      </trkpt>
      <trkpt lat="46.7146250" lon="6.2456260">
        <ele>1082.0</ele>
        <time>2022-07-22T17:41:19Z</time>
      </trkpt>
      <trkpt lat="46.7146190" lon="6.2456030">
        <ele>1081.8</ele>
        <time>2022-07-22T17:41:20Z</time>
      </trkpt>
      <trkpt lat="46.7145730" lon="6.2454650">
        <ele>1081.6</ele>
        <time>2022-07-22T17:41:25Z</time>
      </trkpt>
      <trkpt lat="46.7144840" lon="6.2452820">
        <ele>1081.4</ele>
        <time>2022-07-22T17:41:31Z</time>
      </trkpt>
      <trkpt lat="46.7143890" lon="6.2451680">
        <ele>1081.2</ele>
        <time>2022-07-22T17:41:36Z</time>
      </trkpt>
      <trkpt lat="46.7142730" lon="6.2450730">
        <ele>1081.0</ele>
        <time>2022-07-22T17:41:42Z</time>
      </trkpt>
      <trkpt lat="46.7141690" lon="6.2449440">
        <ele>1081.0</ele>
        <time>2022-07-22T17:41:47Z</time>
      </trkpt>
      <trkpt lat="46.7140500" lon="6.2448100">
        <ele>1081.0</ele>
        <time>2022-07-22T17:41:53Z</time>
      </trkpt>
      <trkpt lat="46.7139640" lon="6.2447250">
        <ele>1081.2</ele>
        <time>2022-07-22T17:41:58Z</time>
      </trkpt>
      <trkpt lat="46.7138460" lon="6.2446600">
        <ele>1081.6</ele>
        <time>2022-07-22T17:42:03Z</time>
      </trkpt>
      <trkpt lat="46.7137060" lon="6.2446340">
        <ele>1081.6</ele>
        <time>2022-07-22T17:42:08Z</time>
      </trkpt>
      <trkpt lat="46.7135250" lon="6.2446070">
        <ele>1081.6</ele>
        <time>2022-07-22T17:42:14Z</time>
      </trkpt>
      <trkpt lat="46.7133820" lon="6.2445970">
        <ele>1081.4</ele>
        <time>2022-07-22T17:42:19Z</time>
      </trkpt>
      <trkpt lat="46.7133630" lon="6.2446030">
        <ele>1081.2</ele>
        <time>2022-07-22T17:42:22Z</time>
      </trkpt>
      <trkpt lat="46.7132780" lon="6.2446030">
        <ele>1079.8</ele>
        <time>2022-07-22T17:42:28Z</time>
      </trkpt>
      <trkpt lat="46.7132580" lon="6.2446050">
        <ele>1079.8</ele>
        <time>2022-07-22T17:42:29Z</time>
      </trkpt>
      <trkpt lat="46.7130900" lon="6.2446240">
        <ele>1079.6</ele>
        <time>2022-07-22T17:42:34Z</time>
      </trkpt>
      <trkpt lat="46.7130280" lon="6.2446090">
        <ele>1079.4</ele>
        <time>2022-07-22T17:42:35Z</time>
      </trkpt>
      <trkpt lat="46.7128730" lon="6.2445440">
        <ele>1078.8</ele>
        <time>2022-07-22T17:42:38Z</time>
      </trkpt>
      <trkpt lat="46.7127750" lon="6.2444730">
        <ele>1077.6</ele>
        <time>2022-07-22T17:42:41Z</time>
      </trkpt>
      <trkpt lat="46.7127580" lon="6.2444600">
        <ele>1077.4</ele>
        <time>2022-07-22T17:42:42Z</time>
      </trkpt>
      <trkpt lat="46.7126760" lon="6.2443880">
        <ele>1077.2</ele>
        <time>2022-07-22T17:42:49Z</time>
      </trkpt>
      <trkpt lat="46.7126700" lon="6.2442820">
        <ele>1078.6</ele>
        <time>2022-07-22T17:42:57Z</time>
      </trkpt>
      <trkpt lat="46.7126740" lon="6.2442700">
        <ele>1078.8</ele>
        <time>2022-07-22T17:42:58Z</time>
      </trkpt>
      <trkpt lat="46.7127140" lon="6.2442150">
        <ele>1079.8</ele>
        <time>2022-07-22T17:43:04Z</time>
      </trkpt>
      <trkpt lat="46.7127500" lon="6.2441750">
        <ele>1081.0</ele>
        <time>2022-07-22T17:43:08Z</time>
      </trkpt>
      <trkpt lat="46.7127760" lon="6.2441240">
        <ele>1081.4</ele>
        <time>2022-07-22T17:43:11Z</time>
      </trkpt>
      <trkpt lat="46.7127800" lon="6.2441050">
        <ele>1081.4</ele>
        <time>2022-07-22T17:43:12Z</time>
      </trkpt>
      <trkpt lat="46.7128120" lon="6.2440190">
        <ele>1081.8</ele>
        <time>2022-07-22T17:43:16Z</time>
      </trkpt>
      <trkpt lat="46.7128150" lon="6.2439950">
        <ele>1082.0</ele>
        <time>2022-07-22T17:43:17Z</time>
      </trkpt>
      <trkpt lat="46.7128060" lon="6.2439140">
        <ele>1082.0</ele>
        <time>2022-07-22T17:43:20Z</time>
      </trkpt>
      <trkpt lat="46.7127960" lon="6.2438900">
        <ele>1082.0</ele>
        <time>2022-07-22T17:43:21Z</time>
      </trkpt>
      <trkpt lat="46.7127400" lon="6.2438030">
        <ele>1082.4</ele>
        <time>2022-07-22T17:43:26Z</time>
      </trkpt>
      <trkpt lat="46.7126780" lon="6.2437610">
        <ele>1083.0</ele>
        <time>2022-07-22T17:43:32Z</time>
      </trkpt>
      <trkpt lat="46.7126690" lon="6.2437530">
        <ele>1083.2</ele>
        <time>2022-07-22T17:43:33Z</time>
      </trkpt>
      <trkpt lat="46.7125950" lon="6.2436910">
        <ele>1084.2</ele>
        <time>2022-07-22T17:43:39Z</time>
      </trkpt>
      <trkpt lat="46.7125820" lon="6.2436690">
        <ele>1084.2</ele>
        <time>2022-07-22T17:43:40Z</time>
      </trkpt>
      <trkpt lat="46.7125070" lon="6.2435500">
        <ele>1084.8</ele>
        <time>2022-07-22T17:43:45Z</time>
      </trkpt>
      <trkpt lat="46.7124600" lon="6.2434120">
        <ele>1085.0</ele>
        <time>2022-07-22T17:43:51Z</time>
      </trkpt>
      <trkpt lat="46.7124490" lon="6.2433420">
        <ele>1085.2</ele>
        <time>2022-07-22T17:43:54Z</time>
      </trkpt>
      <trkpt lat="46.7124530" lon="6.2432640">
        <ele>1085.4</ele>
        <time>2022-07-22T17:43:57Z</time>
      </trkpt>
      <trkpt lat="46.7124640" lon="6.2432230">
        <ele>1085.6</ele>
        <time>2022-07-22T17:43:59Z</time>
      </trkpt>
      <trkpt lat="46.7124760" lon="6.2431500">
        <ele>1085.8</ele>
        <time>2022-07-22T17:44:02Z</time>
      </trkpt>
      <trkpt lat="46.7124280" lon="6.2430100">
        <ele>1086.2</ele>
        <time>2022-07-22T17:44:07Z</time>
      </trkpt>
      <trkpt lat="46.7124160" lon="6.2429810">
        <ele>1086.2</ele>
        <time>2022-07-22T17:44:08Z</time>
      </trkpt>
      <trkpt lat="46.7124080" lon="6.2429550">
        <ele>1086.4</ele>
        <time>2022-07-22T17:44:09Z</time>
      </trkpt>
      <trkpt lat="46.7123910" lon="6.2429110">
        <ele>1086.6</ele>
        <time>2022-07-22T17:44:11Z</time>
      </trkpt>
      <trkpt lat="46.7123730" lon="6.2428690">
        <ele>1086.6</ele>
        <time>2022-07-22T17:44:13Z</time>
      </trkpt>
      <trkpt lat="46.7123550" lon="6.2428050">
        <ele>1087.0</ele>
        <time>2022-07-22T17:44:16Z</time>
      </trkpt>
      <trkpt lat="46.7123370" lon="6.2427540">
        <ele>1087.4</ele>
        <time>2022-07-22T17:44:19Z</time>
      </trkpt>
      <trkpt lat="46.7123370" lon="6.2427330">
        <ele>1087.4</ele>
        <time>2022-07-22T17:44:20Z</time>
      </trkpt>
      <trkpt lat="46.7123070" lon="6.2425520">
        <ele>1088.2</ele>
        <time>2022-07-22T17:44:28Z</time>
      </trkpt>
      <trkpt lat="46.7123020" lon="6.2425010">
        <ele>1088.4</ele>
        <time>2022-07-22T17:44:30Z</time>
      </trkpt>
      <trkpt lat="46.7122780" lon="6.2423810">
        <ele>1088.8</ele>
        <time>2022-07-22T17:44:35Z</time>
      </trkpt>
      <trkpt lat="46.7122450" lon="6.2422380">
        <ele>1089.8</ele>
        <time>2022-07-22T17:44:41Z</time>
      </trkpt>
      <trkpt lat="46.7122450" lon="6.2422220">
        <ele>1089.8</ele>
        <time>2022-07-22T17:44:42Z</time>
      </trkpt>
      <trkpt lat="46.7122470" lon="6.2421520">
        <ele>1090.8</ele>
        <time>2022-07-22T17:44:48Z</time>
      </trkpt>
      <trkpt lat="46.7121430" lon="6.2417700">
        <ele>1094.6</ele>
        <time>2022-07-22T17:48:32Z</time>
      </trkpt>
      <trkpt lat="46.7121250" lon="6.2417030">
        <ele>1094.8</ele>
        <time>2022-07-22T17:48:35Z</time>
      </trkpt>
      <trkpt lat="46.7120500" lon="6.2415320">
        <ele>1095.2</ele>
        <time>2022-07-22T17:48:42Z</time>
      </trkpt>
      <trkpt lat="46.7119830" lon="6.2413630">
        <ele>1095.4</ele>
        <time>2022-07-22T17:48:49Z</time>
      </trkpt>
      <trkpt lat="46.7119210" lon="6.2411920">
        <ele>1095.6</ele>
        <time>2022-07-22T17:48:55Z</time>
      </trkpt>
      <trkpt lat="46.7117950" lon="6.2409470">
        <ele>1095.6</ele>
        <time>2022-07-22T17:49:03Z</time>
      </trkpt>
      <trkpt lat="46.7116950" lon="6.2407300">
        <ele>1095.6</ele>
        <time>2022-07-22T17:49:10Z</time>
      </trkpt>
      <trkpt lat="46.7115850" lon="6.2405110">
        <ele>1095.6</ele>
        <time>2022-07-22T17:49:16Z</time>
      </trkpt>
      <trkpt lat="46.7115170" lon="6.2402940">
        <ele>1095.4</ele>
        <time>2022-07-22T17:49:20Z</time>
      </trkpt>
      <trkpt lat="46.7114920" lon="6.2402250">
        <ele>1095.4</ele>
        <time>2022-07-22T17:49:21Z</time>
      </trkpt>
      <trkpt lat="46.7114660" lon="6.2401520">
        <ele>1095.4</ele>
        <time>2022-07-22T17:49:22Z</time>
      </trkpt>
      <trkpt lat="46.7113350" lon="6.2399200">
        <ele>1094.4</ele>
        <time>2022-07-22T17:49:26Z</time>
      </trkpt>
      <trkpt lat="46.7112800" lon="6.2398410">
        <ele>1093.4</ele>
        <time>2022-07-22T17:49:28Z</time>
      </trkpt>
      <trkpt lat="46.7112110" lon="6.2397590">
        <ele>1092.6</ele>
        <time>2022-07-22T17:49:31Z</time>
      </trkpt>
      <trkpt lat="46.7112010" lon="6.2396140">
        <ele>1092.2</ele>
        <time>2022-07-22T17:49:34Z</time>
      </trkpt>
      <trkpt lat="46.7112270" lon="6.2394720">
        <ele>1092.2</ele>
        <time>2022-07-22T17:49:36Z</time>
      </trkpt>
      <trkpt lat="46.7112650" lon="6.2393250">
        <ele>1092.2</ele>
        <time>2022-07-22T17:49:38Z</time>
      </trkpt>
      <trkpt lat="46.7112890" lon="6.2392520">
        <ele>1092.2</ele>
        <time>2022-07-22T17:49:39Z</time>
      </trkpt>
      <trkpt lat="46.7113440" lon="6.2391020">
        <ele>1091.8</ele>
        <time>2022-07-22T17:49:41Z</time>
      </trkpt>
      <trkpt lat="46.7113950" lon="6.2389640">
        <ele>1091.4</ele>
        <time>2022-07-22T17:49:43Z</time>
      </trkpt>
      <trkpt lat="46.7114190" lon="6.2388950">
        <ele>1091.2</ele>
        <time>2022-07-22T17:49:44Z</time>
      </trkpt>
      <trkpt lat="46.7114690" lon="6.2386810">
        <ele>1090.0</ele>
        <time>2022-07-22T17:49:47Z</time>
      </trkpt>
      <trkpt lat="46.7114780" lon="6.2385420">
        <ele>1089.0</ele>
        <time>2022-07-22T17:49:49Z</time>
      </trkpt>
      <trkpt lat="46.7114800" lon="6.2384730">
        <ele>1088.4</ele>
        <time>2022-07-22T17:49:50Z</time>
      </trkpt>
      <trkpt lat="46.7114880" lon="6.2382350">
        <ele>1087.2</ele>
        <time>2022-07-22T17:49:53Z</time>
      </trkpt>
      <trkpt lat="46.7114930" lon="6.2379870">
        <ele>1085.8</ele>
        <time>2022-07-22T17:49:56Z</time>
      </trkpt>
      <trkpt lat="46.7115130" lon="6.2378000">
        <ele>1085.0</ele>
        <time>2022-07-22T17:49:58Z</time>
      </trkpt>
      <trkpt lat="46.7115310" lon="6.2377000">
        <ele>1084.6</ele>
        <time>2022-07-22T17:49:59Z</time>
      </trkpt>
      <trkpt lat="46.7115520" lon="6.2375880">
        <ele>1084.0</ele>
        <time>2022-07-22T17:50:00Z</time>
      </trkpt>
      <trkpt lat="46.7115820" lon="6.2374860">
        <ele>1083.6</ele>
        <time>2022-07-22T17:50:01Z</time>
      </trkpt>
      <trkpt lat="46.7116470" lon="6.2373050">
        <ele>1082.6</ele>
        <time>2022-07-22T17:50:03Z</time>
      </trkpt>
      <trkpt lat="46.7117040" lon="6.2371320">
        <ele>1081.6</ele>
        <time>2022-07-22T17:50:05Z</time>
      </trkpt>
      <trkpt lat="46.7117280" lon="6.2370530">
        <ele>1081.4</ele>
        <time>2022-07-22T17:50:06Z</time>
      </trkpt>
      <trkpt lat="46.7117450" lon="6.2369760">
        <ele>1081.0</ele>
        <time>2022-07-22T17:50:07Z</time>
      </trkpt>
      <trkpt lat="46.7117610" lon="6.2367650">
        <ele>1079.8</ele>
        <time>2022-07-22T17:50:09Z</time>
      </trkpt>
      <trkpt lat="46.7117470" lon="6.2365170">
        <ele>1078.6</ele>
        <time>2022-07-22T17:50:11Z</time>
      </trkpt>
      <trkpt lat="46.7117270" lon="6.2363830">
        <ele>1078.0</ele>
        <time>2022-07-22T17:50:12Z</time>
      </trkpt>
      <trkpt lat="46.7117020" lon="6.2362470">
        <ele>1077.4</ele>
        <time>2022-07-22T17:50:13Z</time>
      </trkpt>
      <trkpt lat="46.7116470" lon="6.2359880">
        <ele>1076.4</ele>
        <time>2022-07-22T17:50:15Z</time>
      </trkpt>
      <trkpt lat="46.7115510" lon="6.2355940">
        <ele>1074.8</ele>
        <time>2022-07-22T17:50:18Z</time>
      </trkpt>
      <trkpt lat="46.7115220" lon="6.2354660">
        <ele>1074.4</ele>
        <time>2022-07-22T17:50:19Z</time>
      </trkpt>
      <trkpt lat="46.7114950" lon="6.2353410">
        <ele>1073.8</ele>
        <time>2022-07-22T17:50:20Z</time>
      </trkpt>
      <trkpt lat="46.7114450" lon="6.2350950">
        <ele>1072.4</ele>
        <time>2022-07-22T17:50:22Z</time>
      </trkpt>
      <trkpt lat="46.7114180" lon="6.2349750">
        <ele>1071.0</ele>
        <time>2022-07-22T17:50:23Z</time>
      </trkpt>
      <trkpt lat="46.7113560" lon="6.2347330">
        <ele>1069.2</ele>
        <time>2022-07-22T17:50:25Z</time>
      </trkpt>
      <trkpt lat="46.7113220" lon="6.2346230">
        <ele>1068.6</ele>
        <time>2022-07-22T17:50:26Z</time>
      </trkpt>
      <trkpt lat="46.7112810" lon="6.2345020">
        <ele>1067.6</ele>
        <time>2022-07-22T17:50:27Z</time>
      </trkpt>
      <trkpt lat="46.7111900" lon="6.2342880">
        <ele>1066.0</ele>
        <time>2022-07-22T17:50:29Z</time>
      </trkpt>
      <trkpt lat="46.7111410" lon="6.2341910">
        <ele>1065.4</ele>
        <time>2022-07-22T17:50:30Z</time>
      </trkpt>
      <trkpt lat="46.7110870" lon="6.2341050">
        <ele>1064.6</ele>
        <time>2022-07-22T17:50:31Z</time>
      </trkpt>
      <trkpt lat="46.7109830" lon="6.2339240">
        <ele>1063.2</ele>
        <time>2022-07-22T17:50:33Z</time>
      </trkpt>
      <trkpt lat="46.7109240" lon="6.2337100">
        <ele>1061.8</ele>
        <time>2022-07-22T17:50:35Z</time>
      </trkpt>
      <trkpt lat="46.7109120" lon="6.2334690">
        <ele>1060.6</ele>
        <time>2022-07-22T17:50:37Z</time>
      </trkpt>
      <trkpt lat="46.7109220" lon="6.2333470">
        <ele>1060.0</ele>
        <time>2022-07-22T17:50:38Z</time>
      </trkpt>
      <trkpt lat="46.7109330" lon="6.2332190">
        <ele>1059.4</ele>
        <time>2022-07-22T17:50:39Z</time>
      </trkpt>
      <trkpt lat="46.7109610" lon="6.2329760">
        <ele>1057.8</ele>
        <time>2022-07-22T17:50:41Z</time>
      </trkpt>
      <trkpt lat="46.7109770" lon="6.2327510">
        <ele>1056.4</ele>
        <time>2022-07-22T17:50:43Z</time>
      </trkpt>
      <trkpt lat="46.7109760" lon="6.2325200">
        <ele>1055.0</ele>
        <time>2022-07-22T17:50:45Z</time>
      </trkpt>
      <trkpt lat="46.7109810" lon="6.2322950">
        <ele>1053.6</ele>
        <time>2022-07-22T17:50:47Z</time>
      </trkpt>
      <trkpt lat="46.7109820" lon="6.2321840">
        <ele>1052.8</ele>
        <time>2022-07-22T17:50:48Z</time>
      </trkpt>
      <trkpt lat="46.7109850" lon="6.2320820">
        <ele>1052.0</ele>
        <time>2022-07-22T17:50:49Z</time>
      </trkpt>
      <trkpt lat="46.7110000" lon="6.2319050">
        <ele>1049.8</ele>
        <time>2022-07-22T17:50:51Z</time>
      </trkpt>
      <trkpt lat="46.7110090" lon="6.2318120">
        <ele>1049.0</ele>
        <time>2022-07-22T17:50:52Z</time>
      </trkpt>
      <trkpt lat="46.7110170" lon="6.2317210">
        <ele>1048.2</ele>
        <time>2022-07-22T17:50:53Z</time>
      </trkpt>
      <trkpt lat="46.7110340" lon="6.2315260">
        <ele>1047.0</ele>
        <time>2022-07-22T17:50:55Z</time>
      </trkpt>
      <trkpt lat="46.7110340" lon="6.2314230">
        <ele>1046.0</ele>
        <time>2022-07-22T17:50:56Z</time>
      </trkpt>
      <trkpt lat="46.7110340" lon="6.2313150">
        <ele>1045.2</ele>
        <time>2022-07-22T17:50:57Z</time>
      </trkpt>
      <trkpt lat="46.7110200" lon="6.2310650">
        <ele>1044.0</ele>
        <time>2022-07-22T17:50:59Z</time>
      </trkpt>
      <trkpt lat="46.7110050" lon="6.2307970">
        <ele>1043.0</ele>
        <time>2022-07-22T17:51:01Z</time>
      </trkpt>
      <trkpt lat="46.7109990" lon="6.2306570">
        <ele>1042.6</ele>
        <time>2022-07-22T17:51:02Z</time>
      </trkpt>
      <trkpt lat="46.7109590" lon="6.2302580">
        <ele>1041.0</ele>
        <time>2022-07-22T17:51:05Z</time>
      </trkpt>
      <trkpt lat="46.7109380" lon="6.2300160">
        <ele>1039.6</ele>
        <time>2022-07-22T17:51:07Z</time>
      </trkpt>
      <trkpt lat="46.7109180" lon="6.2297980">
        <ele>1038.0</ele>
        <time>2022-07-22T17:51:09Z</time>
      </trkpt>
      <trkpt lat="46.7108820" lon="6.2295890">
        <ele>1036.2</ele>
        <time>2022-07-22T17:51:11Z</time>
      </trkpt>
      <trkpt lat="46.7108160" lon="6.2293620">
        <ele>1034.6</ele>
        <time>2022-07-22T17:51:13Z</time>
      </trkpt>
      <trkpt lat="46.7107410" lon="6.2291520">
        <ele>1033.0</ele>
        <time>2022-07-22T17:51:15Z</time>
      </trkpt>
      <trkpt lat="46.7106890" lon="6.2289860">
        <ele>1031.2</ele>
        <time>2022-07-22T17:51:17Z</time>
      </trkpt>
      <trkpt lat="46.7106850" lon="6.2289220">
        <ele>1030.4</ele>
        <time>2022-07-22T17:51:18Z</time>
      </trkpt>
      <trkpt lat="46.7106890" lon="6.2288720">
        <ele>1029.6</ele>
        <time>2022-07-22T17:51:19Z</time>
      </trkpt>
      <trkpt lat="46.7107070" lon="6.2287770">
        <ele>1027.8</ele>
        <time>2022-07-22T17:51:21Z</time>
      </trkpt>
      <trkpt lat="46.7107090" lon="6.2287410">
        <ele>1027.2</ele>
        <time>2022-07-22T17:51:22Z</time>
      </trkpt>
      <trkpt lat="46.7107070" lon="6.2287150">
        <ele>1026.4</ele>
        <time>2022-07-22T17:51:23Z</time>
      </trkpt>
      <trkpt lat="46.7107030" lon="6.2286580">
        <ele>1025.0</ele>
        <time>2022-07-22T17:51:25Z</time>
      </trkpt>
      <trkpt lat="46.7107010" lon="6.2286180">
        <ele>1024.2</ele>
        <time>2022-07-22T17:51:26Z</time>
      </trkpt>
      <trkpt lat="46.7106960" lon="6.2285700">
        <ele>1023.6</ele>
        <time>2022-07-22T17:51:27Z</time>
      </trkpt>
      <trkpt lat="46.7106620" lon="6.2284150">
        <ele>1022.2</ele>
        <time>2022-07-22T17:51:30Z</time>
      </trkpt>
      <trkpt lat="46.7106460" lon="6.2283510">
        <ele>1022.0</ele>
        <time>2022-07-22T17:51:31Z</time>
      </trkpt>
      <trkpt lat="46.7105670" lon="6.2280380">
        <ele>1021.2</ele>
        <time>2022-07-22T17:51:35Z</time>
      </trkpt>
      <trkpt lat="46.7105460" lon="6.2279530">
        <ele>1021.0</ele>
        <time>2022-07-22T17:51:36Z</time>
      </trkpt>
      <trkpt lat="46.7104590" lon="6.2276100">
        <ele>1020.4</ele>
        <time>2022-07-22T17:51:40Z</time>
      </trkpt>
      <trkpt lat="46.7104430" lon="6.2275230">
        <ele>1020.0</ele>
        <time>2022-07-22T17:51:41Z</time>
      </trkpt>
      <trkpt lat="46.7104270" lon="6.2274380">
        <ele>1019.8</ele>
        <time>2022-07-22T17:51:42Z</time>
      </trkpt>
      <trkpt lat="46.7103980" lon="6.2272680">
        <ele>1019.0</ele>
        <time>2022-07-22T17:51:44Z</time>
      </trkpt>
      <trkpt lat="46.7103320" lon="6.2270160">
        <ele>1018.4</ele>
        <time>2022-07-22T17:51:47Z</time>
      </trkpt>
      <trkpt lat="46.7102740" lon="6.2268630">
        <ele>1018.0</ele>
        <time>2022-07-22T17:51:49Z</time>
      </trkpt>
      <trkpt lat="46.7101720" lon="6.2266220">
        <ele>1017.2</ele>
        <time>2022-07-22T17:51:52Z</time>
      </trkpt>
      <trkpt lat="46.7100990" lon="6.2264540">
        <ele>1017.0</ele>
        <time>2022-07-22T17:51:54Z</time>
      </trkpt>
      <trkpt lat="46.7099560" lon="6.2261290">
        <ele>1016.2</ele>
        <time>2022-07-22T17:51:58Z</time>
      </trkpt>
      <trkpt lat="46.7099130" lon="6.2260620">
        <ele>1015.8</ele>
        <time>2022-07-22T17:51:59Z</time>
      </trkpt>
      <trkpt lat="46.7098660" lon="6.2260000">
        <ele>1015.6</ele>
        <time>2022-07-22T17:52:00Z</time>
      </trkpt>
      <trkpt lat="46.7097190" lon="6.2258090">
        <ele>1014.8</ele>
        <time>2022-07-22T17:52:03Z</time>
      </trkpt>
      <trkpt lat="46.7096030" lon="6.2255260">
        <ele>1013.6</ele>
        <time>2022-07-22T17:52:07Z</time>
      </trkpt>
      <trkpt lat="46.7095630" lon="6.2253940">
        <ele>1013.4</ele>
        <time>2022-07-22T17:52:11Z</time>
      </trkpt>
      <trkpt lat="46.7095520" lon="6.2253550">
        <ele>1013.4</ele>
        <time>2022-07-22T17:52:13Z</time>
      </trkpt>
      <trkpt lat="46.7095430" lon="6.2252450">
        <ele>1014.6</ele>
        <time>2022-07-22T17:52:19Z</time>
      </trkpt>
      <trkpt lat="46.7095350" lon="6.2251900">
        <ele>1015.0</ele>
        <time>2022-07-22T17:52:22Z</time>
      </trkpt>
      <trkpt lat="46.7095250" lon="6.2251300">
        <ele>1015.2</ele>
        <time>2022-07-22T17:52:25Z</time>
      </trkpt>
      <trkpt lat="46.7095210" lon="6.2251110">
        <ele>1015.4</ele>
        <time>2022-07-22T17:52:26Z</time>
      </trkpt>
      <trkpt lat="46.7095070" lon="6.2249920">
        <ele>1015.8</ele>
        <time>2022-07-22T17:52:33Z</time>
      </trkpt>
      <trkpt lat="46.7095080" lon="6.2249750">
        <ele>1016.0</ele>
        <time>2022-07-22T17:52:34Z</time>
      </trkpt>
      <trkpt lat="46.7095330" lon="6.2248580">
        <ele>1016.8</ele>
        <time>2022-07-22T17:52:41Z</time>
      </trkpt>
      <trkpt lat="46.7095250" lon="6.2248280">
        <ele>1017.0</ele>
        <time>2022-07-22T17:52:43Z</time>
      </trkpt>
      <trkpt lat="46.7095000" lon="6.2247660">
        <ele>1017.4</ele>
        <time>2022-07-22T17:52:47Z</time>
      </trkpt>
      <trkpt lat="46.7094850" lon="6.2247470">
        <ele>1017.6</ele>
        <time>2022-07-22T17:52:49Z</time>
      </trkpt>
      <trkpt lat="46.7094480" lon="6.2247010">
        <ele>1017.8</ele>
        <time>2022-07-22T17:52:53Z</time>
      </trkpt>
      <trkpt lat="46.7094340" lon="6.2246780">
        <ele>1017.8</ele>
        <time>2022-07-22T17:52:55Z</time>
      </trkpt>
      <trkpt lat="46.7094160" lon="6.2246070">
        <ele>1018.4</ele>
        <time>2022-07-22T17:53:00Z</time>
      </trkpt>
      <trkpt lat="46.7093960" lon="6.2245590">
        <ele>1018.6</ele>
        <time>2022-07-22T17:53:04Z</time>
      </trkpt>
      <trkpt lat="46.7093620" lon="6.2245010">
        <ele>1019.0</ele>
        <time>2022-07-22T17:53:08Z</time>
      </trkpt>
      <trkpt lat="46.7093090" lon="6.2243820">
        <ele>1019.6</ele>
        <time>2022-07-22T17:53:16Z</time>
      </trkpt>
      <trkpt lat="46.7093050" lon="6.2243710">
        <ele>1019.6</ele>
        <time>2022-07-22T17:53:17Z</time>
      </trkpt>
      <trkpt lat="46.7092680" lon="6.2242400">
        <ele>1020.0</ele>
        <time>2022-07-22T17:53:24Z</time>
      </trkpt>
      <trkpt lat="46.7092460" lon="6.2240420">
        <ele>1020.6</ele>
        <time>2022-07-22T17:53:32Z</time>
      </trkpt>
      <trkpt lat="46.7092760" lon="6.2238070">
        <ele>1020.6</ele>
        <time>2022-07-22T17:53:37Z</time>
      </trkpt>
      <trkpt lat="46.7092820" lon="6.2237350">
        <ele>1020.6</ele>
        <time>2022-07-22T17:53:38Z</time>
      </trkpt>
      <trkpt lat="46.7092920" lon="6.2235710">
        <ele>1020.6</ele>
        <time>2022-07-22T17:53:40Z</time>
      </trkpt>
      <trkpt lat="46.7092880" lon="6.2234870">
        <ele>1020.6</ele>
        <time>2022-07-22T17:53:41Z</time>
      </trkpt>
      <trkpt lat="46.7092410" lon="6.2232390">
        <ele>1020.0</ele>
        <time>2022-07-22T17:53:44Z</time>
      </trkpt>
      <trkpt lat="46.7092110" lon="6.2230560">
        <ele>1019.6</ele>
        <time>2022-07-22T17:53:46Z</time>
      </trkpt>
      <trkpt lat="46.7092080" lon="6.2229660">
        <ele>1019.2</ele>
        <time>2022-07-22T17:53:47Z</time>
      </trkpt>
      <trkpt lat="46.7092100" lon="6.2228720">
        <ele>1018.8</ele>
        <time>2022-07-22T17:53:48Z</time>
      </trkpt>
      <trkpt lat="46.7092180" lon="6.2226010">
        <ele>1017.6</ele>
        <time>2022-07-22T17:53:51Z</time>
      </trkpt>
      <trkpt lat="46.7092300" lon="6.2224260">
        <ele>1016.4</ele>
        <time>2022-07-22T17:53:53Z</time>
      </trkpt>
      <trkpt lat="46.7092350" lon="6.2223300">
        <ele>1016.4</ele>
        <time>2022-07-22T17:53:54Z</time>
      </trkpt>
      <trkpt lat="46.7092340" lon="6.2221050">
        <ele>1016.0</ele>
        <time>2022-07-22T17:53:56Z</time>
      </trkpt>
      <trkpt lat="46.7092310" lon="6.2219900">
        <ele>1015.8</ele>
        <time>2022-07-22T17:53:57Z</time>
      </trkpt>
      <trkpt lat="46.7092130" lon="6.2217800">
        <ele>1015.0</ele>
        <time>2022-07-22T17:53:59Z</time>
      </trkpt>
      <trkpt lat="46.7091910" lon="6.2216900">
        <ele>1014.4</ele>
        <time>2022-07-22T17:54:00Z</time>
      </trkpt>
      <trkpt lat="46.7091630" lon="6.2216100">
        <ele>1014.0</ele>
        <time>2022-07-22T17:54:01Z</time>
      </trkpt>
      <trkpt lat="46.7091010" lon="6.2214780">
        <ele>1012.6</ele>
        <time>2022-07-22T17:54:03Z</time>
      </trkpt>
      <trkpt lat="46.7090370" lon="6.2213430">
        <ele>1011.0</ele>
        <time>2022-07-22T17:54:05Z</time>
      </trkpt>
      <trkpt lat="46.7090150" lon="6.2212650">
        <ele>1010.2</ele>
        <time>2022-07-22T17:54:06Z</time>
      </trkpt>
      <trkpt lat="46.7089910" lon="6.2211710">
        <ele>1009.6</ele>
        <time>2022-07-22T17:54:07Z</time>
      </trkpt>
      <trkpt lat="46.7089370" lon="6.2209530">
        <ele>1008.2</ele>
        <time>2022-07-22T17:54:09Z</time>
      </trkpt>
      <trkpt lat="46.7088990" lon="6.2208230">
        <ele>1007.6</ele>
        <time>2022-07-22T17:54:10Z</time>
      </trkpt>
      <trkpt lat="46.7088640" lon="6.2207150">
        <ele>1007.2</ele>
        <time>2022-07-22T17:54:11Z</time>
      </trkpt>
      <trkpt lat="46.7087670" lon="6.2204040">
        <ele>1005.2</ele>
        <time>2022-07-22T17:54:14Z</time>
      </trkpt>
      <trkpt lat="46.7087320" lon="6.2203110">
        <ele>1004.4</ele>
        <time>2022-07-22T17:54:15Z</time>
      </trkpt>
      <trkpt lat="46.7087020" lon="6.2202290">
        <ele>1003.8</ele>
        <time>2022-07-22T17:54:16Z</time>
      </trkpt>
      <trkpt lat="46.7086440" lon="6.2201040">
        <ele>1002.8</ele>
        <time>2022-07-22T17:54:18Z</time>
      </trkpt>
      <trkpt lat="46.7086170" lon="6.2200540">
        <ele>1002.4</ele>
        <time>2022-07-22T17:54:19Z</time>
      </trkpt>
      <trkpt lat="46.7084390" lon="6.2196380">
        <ele>1002.0</ele>
        <time>2022-07-22T17:54:27Z</time>
      </trkpt>
      <trkpt lat="46.7083280" lon="6.2193040">
        <ele>1001.8</ele>
        <time>2022-07-22T17:54:34Z</time>
      </trkpt>
      <trkpt lat="46.7082810" lon="6.2191700">
        <ele>1001.8</ele>
        <time>2022-07-22T17:54:37Z</time>
      </trkpt>
      <trkpt lat="46.7082400" lon="6.2190570">
        <ele>1001.8</ele>
        <time>2022-07-22T17:54:40Z</time>
      </trkpt>
      <trkpt lat="46.7081740" lon="6.2188210">
        <ele>1002.0</ele>
        <time>2022-07-22T17:54:46Z</time>
      </trkpt>
      <trkpt lat="46.7081200" lon="6.2186490">
        <ele>1002.0</ele>
        <time>2022-07-22T17:54:51Z</time>
      </trkpt>
      <trkpt lat="46.7080850" lon="6.2185040">
        <ele>1002.0</ele>
        <time>2022-07-22T17:54:54Z</time>
      </trkpt>
      <trkpt lat="46.7080580" lon="6.2184420">
        <ele>1002.0</ele>
        <time>2022-07-22T17:54:55Z</time>
      </trkpt>
      <trkpt lat="46.7079120" lon="6.2181300">
        <ele>1002.0</ele>
        <time>2022-07-22T17:55:00Z</time>
      </trkpt>
      <trkpt lat="46.7078990" lon="6.2180000">
        <ele>1001.0</ele>
        <time>2022-07-22T17:55:04Z</time>
      </trkpt>
      <trkpt lat="46.7078990" lon="6.2179390">
        <ele>1000.8</ele>
        <time>2022-07-22T17:55:06Z</time>
      </trkpt>
      <trkpt lat="46.7079220" lon="6.2178320">
        <ele>1000.4</ele>
        <time>2022-07-22T17:55:10Z</time>
      </trkpt>
      <trkpt lat="46.7079320" lon="6.2177790">
        <ele>1000.0</ele>
        <time>2022-07-22T17:55:12Z</time>
      </trkpt>
      <trkpt lat="46.7079400" lon="6.2176760">
        <ele>998.8</ele>
        <time>2022-07-22T17:55:15Z</time>
      </trkpt>
      <trkpt lat="46.7079380" lon="6.2174960">
        <ele>997.8</ele>
        <time>2022-07-22T17:55:18Z</time>
      </trkpt>
      <trkpt lat="46.7079220" lon="6.2174160">
        <ele>997.6</ele>
        <time>2022-07-22T17:55:19Z</time>
      </trkpt>
      <trkpt lat="46.7078440" lon="6.2171710">
        <ele>996.6</ele>
        <time>2022-07-22T17:55:22Z</time>
      </trkpt>
      <trkpt lat="46.7078260" lon="6.2170780">
        <ele>996.2</ele>
        <time>2022-07-22T17:55:23Z</time>
      </trkpt>
      <trkpt lat="46.7078000" lon="6.2167860">
        <ele>995.2</ele>
        <time>2022-07-22T17:55:26Z</time>
      </trkpt>
      <trkpt lat="46.7077770" lon="6.2166270">
        <ele>994.4</ele>
        <time>2022-07-22T17:55:28Z</time>
      </trkpt>
      <trkpt lat="46.7077620" lon="6.2165610">
        <ele>994.0</ele>
        <time>2022-07-22T17:55:29Z</time>
      </trkpt>
      <trkpt lat="46.7076910" lon="6.2162460">
        <ele>992.8</ele>
        <time>2022-07-22T17:55:33Z</time>
      </trkpt>
      <trkpt lat="46.7076370" lon="6.2159530">
        <ele>991.6</ele>
        <time>2022-07-22T17:55:36Z</time>
      </trkpt>
      <trkpt lat="46.7076060" lon="6.2157340">
        <ele>991.0</ele>
        <time>2022-07-22T17:55:38Z</time>
      </trkpt>
      <trkpt lat="46.7075950" lon="6.2156180">
        <ele>990.6</ele>
        <time>2022-07-22T17:55:39Z</time>
      </trkpt>
      <trkpt lat="46.7075690" lon="6.2152370">
        <ele>989.4</ele>
        <time>2022-07-22T17:55:42Z</time>
      </trkpt>
      <trkpt lat="46.7075610" lon="6.2151060">
        <ele>989.2</ele>
        <time>2022-07-22T17:55:43Z</time>
      </trkpt>
      <trkpt lat="46.7075310" lon="6.2147030">
        <ele>988.0</ele>
        <time>2022-07-22T17:55:46Z</time>
      </trkpt>
      <trkpt lat="46.7074880" lon="6.2142940">
        <ele>987.0</ele>
        <time>2022-07-22T17:55:49Z</time>
      </trkpt>
      <trkpt lat="46.7074370" lon="6.2139160">
        <ele>985.6</ele>
        <time>2022-07-22T17:55:52Z</time>
      </trkpt>
      <trkpt lat="46.7074060" lon="6.2136540">
        <ele>984.4</ele>
        <time>2022-07-22T17:55:54Z</time>
      </trkpt>
      <trkpt lat="46.7073740" lon="6.2133650">
        <ele>982.6</ele>
        <time>2022-07-22T17:55:56Z</time>
      </trkpt>
      <trkpt lat="46.7073550" lon="6.2132190">
        <ele>981.6</ele>
        <time>2022-07-22T17:55:57Z</time>
      </trkpt>
      <trkpt lat="46.7073310" lon="6.2130740">
        <ele>980.6</ele>
        <time>2022-07-22T17:55:58Z</time>
      </trkpt>
      <trkpt lat="46.7072840" lon="6.2128080">
        <ele>979.2</ele>
        <time>2022-07-22T17:56:00Z</time>
      </trkpt>
      <trkpt lat="46.7072590" lon="6.2126820">
        <ele>978.6</ele>
        <time>2022-07-22T17:56:01Z</time>
      </trkpt>
      <trkpt lat="46.7072390" lon="6.2125620">
        <ele>978.0</ele>
        <time>2022-07-22T17:56:02Z</time>
      </trkpt>
      <trkpt lat="46.7071900" lon="6.2123370">
        <ele>977.0</ele>
        <time>2022-07-22T17:56:04Z</time>
      </trkpt>
      <trkpt lat="46.7071410" lon="6.2121270">
        <ele>975.8</ele>
        <time>2022-07-22T17:56:06Z</time>
      </trkpt>
      <trkpt lat="46.7070920" lon="6.2119540">
        <ele>974.8</ele>
        <time>2022-07-22T17:56:08Z</time>
      </trkpt>
      <trkpt lat="46.7070570" lon="6.2118230">
        <ele>973.6</ele>
        <time>2022-07-22T17:56:10Z</time>
      </trkpt>
      <trkpt lat="46.7070500" lon="6.2117670">
        <ele>972.4</ele>
        <time>2022-07-22T17:56:11Z</time>
      </trkpt>
      <trkpt lat="46.7070890" lon="6.2116650">
        <ele>971.2</ele>
        <time>2022-07-22T17:56:13Z</time>
      </trkpt>
      <trkpt lat="46.7071850" lon="6.2115900">
        <ele>969.8</ele>
        <time>2022-07-22T17:56:15Z</time>
      </trkpt>
      <trkpt lat="46.7072410" lon="6.2115670">
        <ele>969.0</ele>
        <time>2022-07-22T17:56:16Z</time>
      </trkpt>
      <trkpt lat="46.7073020" lon="6.2115510">
        <ele>968.4</ele>
        <time>2022-07-22T17:56:17Z</time>
      </trkpt>
      <trkpt lat="46.7074430" lon="6.2115150">
        <ele>967.4</ele>
        <time>2022-07-22T17:56:19Z</time>
      </trkpt>
      <trkpt lat="46.7075180" lon="6.2114900">
        <ele>967.0</ele>
        <time>2022-07-22T17:56:20Z</time>
      </trkpt>
      <trkpt lat="46.7077170" lon="6.2113930">
        <ele>966.0</ele>
        <time>2022-07-22T17:56:23Z</time>
      </trkpt>
      <trkpt lat="46.7078370" lon="6.2113260">
        <ele>965.6</ele>
        <time>2022-07-22T17:56:25Z</time>
      </trkpt>
      <trkpt lat="46.7079450" lon="6.2112440">
        <ele>964.8</ele>
        <time>2022-07-22T17:56:27Z</time>
      </trkpt>
      <trkpt lat="46.7080560" lon="6.2111460">
        <ele>963.6</ele>
        <time>2022-07-22T17:56:29Z</time>
      </trkpt>
      <trkpt lat="46.7081080" lon="6.2110950">
        <ele>962.8</ele>
        <time>2022-07-22T17:56:30Z</time>
      </trkpt>
      <trkpt lat="46.7081570" lon="6.2110440">
        <ele>962.0</ele>
        <time>2022-07-22T17:56:31Z</time>
      </trkpt>
      <trkpt lat="46.7082430" lon="6.2109490">
        <ele>960.8</ele>
        <time>2022-07-22T17:56:33Z</time>
      </trkpt>
      <trkpt lat="46.7083040" lon="6.2108750">
        <ele>959.2</ele>
        <time>2022-07-22T17:56:35Z</time>
      </trkpt>
      <trkpt lat="46.7083380" lon="6.2108140">
        <ele>957.8</ele>
        <time>2022-07-22T17:56:37Z</time>
      </trkpt>
      <trkpt lat="46.7083440" lon="6.2107550">
        <ele>956.6</ele>
        <time>2022-07-22T17:56:39Z</time>
      </trkpt>
      <trkpt lat="46.7083380" lon="6.2107260">
        <ele>955.2</ele>
        <time>2022-07-22T17:56:40Z</time>
      </trkpt>
      <trkpt lat="46.7083020" lon="6.2106770">
        <ele>953.8</ele>
        <time>2022-07-22T17:56:42Z</time>
      </trkpt>
      <trkpt lat="46.7082730" lon="6.2106620">
        <ele>953.4</ele>
        <time>2022-07-22T17:56:43Z</time>
      </trkpt>
      <trkpt lat="46.7082410" lon="6.2106510">
        <ele>953.0</ele>
        <time>2022-07-22T17:56:44Z</time>
      </trkpt>
      <trkpt lat="46.7081090" lon="6.2105870">
        <ele>951.8</ele>
        <time>2022-07-22T17:56:48Z</time>
      </trkpt>
      <trkpt lat="46.7080390" lon="6.2105380">
        <ele>951.4</ele>
        <time>2022-07-22T17:56:50Z</time>
      </trkpt>
      <trkpt lat="46.7077890" lon="6.2103190">
        <ele>950.8</ele>
        <time>2022-07-22T17:56:57Z</time>
      </trkpt>
      <trkpt lat="46.7077590" lon="6.2102790">
        <ele>950.8</ele>
        <time>2022-07-22T17:56:58Z</time>
      </trkpt>
      <trkpt lat="46.7075820" lon="6.2100290">
        <ele>950.4</ele>
        <time>2022-07-22T17:57:05Z</time>
      </trkpt>
      <trkpt lat="46.7073990" lon="6.2097690">
        <ele>950.2</ele>
        <time>2022-07-22T17:57:13Z</time>
      </trkpt>
      <trkpt lat="46.7072050" lon="6.2095350">
        <ele>950.0</ele>
        <time>2022-07-22T17:57:20Z</time>
      </trkpt>
      <trkpt lat="46.7070860" lon="6.2093600">
        <ele>949.6</ele>
        <time>2022-07-22T17:57:26Z</time>
      </trkpt>
      <trkpt lat="46.7070750" lon="6.2093310">
        <ele>949.6</ele>
        <time>2022-07-22T17:57:27Z</time>
      </trkpt>
      <trkpt lat="46.7070740" lon="6.2092280">
        <ele>949.4</ele>
        <time>2022-07-22T17:57:30Z</time>
      </trkpt>
      <trkpt lat="46.7070680" lon="6.2091650">
        <ele>949.0</ele>
        <time>2022-07-22T17:57:34Z</time>
      </trkpt>
      <trkpt lat="46.7070670" lon="6.2091620">
        <ele>949.0</ele>
        <time>2022-07-22T17:57:35Z</time>
      </trkpt>
      <trkpt lat="46.7071510" lon="6.2090830">
        <ele>948.6</ele>
        <time>2022-07-22T17:57:51Z</time>
      </trkpt>
      <trkpt lat="46.7072150" lon="6.2090390">
        <ele>948.4</ele>
        <time>2022-07-22T17:57:54Z</time>
      </trkpt>
      <trkpt lat="46.7072260" lon="6.2088890">
        <ele>948.4</ele>
        <time>2022-07-22T17:57:59Z</time>
      </trkpt>
      <trkpt lat="46.7071520" lon="6.2087650">
        <ele>948.4</ele>
        <time>2022-07-22T17:58:03Z</time>
      </trkpt>
      <trkpt lat="46.7071050" lon="6.2087080">
        <ele>948.2</ele>
        <time>2022-07-22T17:58:05Z</time>
      </trkpt>
      <trkpt lat="46.7069460" lon="6.2085790">
        <ele>947.8</ele>
        <time>2022-07-22T17:58:11Z</time>
      </trkpt>
      <trkpt lat="46.7068670" lon="6.2085280">
        <ele>947.4</ele>
        <time>2022-07-22T17:58:15Z</time>
      </trkpt>
      <trkpt lat="46.7068220" lon="6.2085220">
        <ele>947.2</ele>
        <time>2022-07-22T17:58:17Z</time>
      </trkpt>
      <trkpt lat="46.7067080" lon="6.2084450">
        <ele>946.8</ele>
        <time>2022-07-22T17:58:22Z</time>
      </trkpt>
      <trkpt lat="46.7066170" lon="6.2083090">
        <ele>946.4</ele>
        <time>2022-07-22T17:58:26Z</time>
      </trkpt>
      <trkpt lat="46.7065540" lon="6.2081920">
        <ele>946.2</ele>
        <time>2022-07-22T17:58:29Z</time>
      </trkpt>
      <trkpt lat="46.7064190" lon="6.2079800">
        <ele>945.6</ele>
        <time>2022-07-22T17:58:35Z</time>
      </trkpt>
      <trkpt lat="46.7063820" lon="6.2079320">
        <ele>945.6</ele>
        <time>2022-07-22T17:58:37Z</time>
      </trkpt>
      <trkpt lat="46.7063300" lon="6.2079150">
        <ele>945.6</ele>
        <time>2022-07-22T17:58:40Z</time>
      </trkpt>
      <trkpt lat="46.7062510" lon="6.2079760">
        <ele>945.2</ele>
        <time>2022-07-22T17:58:45Z</time>
      </trkpt>
      <trkpt lat="46.7061840" lon="6.2079070">
        <ele>945.0</ele>
        <time>2022-07-22T17:58:50Z</time>
      </trkpt>
      <trkpt lat="46.7061990" lon="6.2077610">
        <ele>945.0</ele>
        <time>2022-07-22T17:58:55Z</time>
      </trkpt>
      <trkpt lat="46.7062030" lon="6.2076530">
        <ele>945.0</ele>
        <time>2022-07-22T17:59:00Z</time>
      </trkpt>
      <trkpt lat="46.7062080" lon="6.2076230">
        <ele>944.8</ele>
        <time>2022-07-22T17:59:04Z</time>
      </trkpt>
      <trkpt lat="46.7061960" lon="6.2076990">
        <ele>944.6</ele>
        <time>2022-07-22T17:59:53Z</time>
      </trkpt>
      <trkpt lat="46.7061810" lon="6.2077700">
        <ele>944.6</ele>
        <time>2022-07-22T17:59:57Z</time>
      </trkpt>
      <trkpt lat="46.7061810" lon="6.2077710">
        <ele>944.6</ele>
        <time>2022-07-22T17:59:58Z</time>
      </trkpt>
      <trkpt lat="46.7069180" lon="6.2073950">
        <ele>936.0</ele>
        <time>2022-07-23T09:33:05Z</time>
      </trkpt>
      <trkpt lat="46.7069850" lon="6.2073360">
        <ele>935.8</ele>
        <time>2022-07-23T09:33:10Z</time>
      </trkpt>
      <trkpt lat="46.7071330" lon="6.2071370">
        <ele>935.8</ele>
        <time>2022-07-23T09:33:16Z</time>
      </trkpt>
      <trkpt lat="46.7072390" lon="6.2069600">
        <ele>935.4</ele>
        <time>2022-07-23T09:33:22Z</time>
      </trkpt>
      <trkpt lat="46.7073590" lon="6.2066820">
        <ele>935.0</ele>
        <time>2022-07-23T09:33:29Z</time>
      </trkpt>
      <trkpt lat="46.7075150" lon="6.2064060">
        <ele>935.0</ele>
        <time>2022-07-23T09:33:35Z</time>
      </trkpt>
      <trkpt lat="46.7078440" lon="6.2059280">
        <ele>935.0</ele>
        <time>2022-07-23T09:33:45Z</time>
      </trkpt>
      <trkpt lat="46.7079740" lon="6.2055790">
        <ele>935.0</ele>
        <time>2022-07-23T09:33:51Z</time>
      </trkpt>
      <trkpt lat="46.7080460" lon="6.2051180">
        <ele>935.2</ele>
        <time>2022-07-23T09:33:58Z</time>
      </trkpt>
      <trkpt lat="46.7081320" lon="6.2045530">
        <ele>935.2</ele>
        <time>2022-07-23T09:34:08Z</time>
      </trkpt>
      <trkpt lat="46.7081320" lon="6.2043560">
        <ele>935.2</ele>
        <time>2022-07-23T09:34:14Z</time>
      </trkpt>
      <trkpt lat="46.7081450" lon="6.2040290">
        <ele>935.0</ele>
        <time>2022-07-23T09:34:23Z</time>
      </trkpt>
      <trkpt lat="46.7081470" lon="6.2036450">
        <ele>935.2</ele>
        <time>2022-07-23T09:34:31Z</time>
      </trkpt>
      <trkpt lat="46.7081140" lon="6.2032260">
        <ele>935.2</ele>
        <time>2022-07-23T09:34:40Z</time>
      </trkpt>
      <trkpt lat="46.7081040" lon="6.2028110">
        <ele>934.8</ele>
        <time>2022-07-23T09:34:46Z</time>
      </trkpt>
      <trkpt lat="46.7081140" lon="6.2026350">
        <ele>934.6</ele>
        <time>2022-07-23T09:34:49Z</time>
      </trkpt>
      <trkpt lat="46.7082030" lon="6.2022080">
        <ele>934.2</ele>
        <time>2022-07-23T09:34:57Z</time>
      </trkpt>
      <trkpt lat="46.7083170" lon="6.2018370">
        <ele>934.4</ele>
        <time>2022-07-23T09:35:05Z</time>
      </trkpt>
      <trkpt lat="46.7083600" lon="6.2012700">
        <ele>934.4</ele>
        <time>2022-07-23T09:35:15Z</time>
      </trkpt>
      <trkpt lat="46.7084300" lon="6.2010770">
        <ele>934.4</ele>
        <time>2022-07-23T09:35:19Z</time>
      </trkpt>
      <trkpt lat="46.7084600" lon="6.2010460">
        <ele>934.4</ele>
        <time>2022-07-23T09:35:20Z</time>
      </trkpt>
      <trkpt lat="46.7087120" lon="6.2007700">
        <ele>934.4</ele>
        <time>2022-07-23T09:35:29Z</time>
      </trkpt>
      <trkpt lat="46.7088410" lon="6.2005560">
        <ele>934.6</ele>
        <time>2022-07-23T09:35:35Z</time>
      </trkpt>
      <trkpt lat="46.7090340" lon="6.2003050">
        <ele>934.6</ele>
        <time>2022-07-23T09:35:43Z</time>
      </trkpt>
      <trkpt lat="46.7091950" lon="6.2001100">
        <ele>934.8</ele>
        <time>2022-07-23T09:35:51Z</time>
      </trkpt>
      <trkpt lat="46.7093800" lon="6.1998850">
        <ele>935.8</ele>
        <time>2022-07-23T09:36:01Z</time>
      </trkpt>
      <trkpt lat="46.7094330" lon="6.1998210">
        <ele>936.0</ele>
        <time>2022-07-23T09:36:04Z</time>
      </trkpt>
      <trkpt lat="46.7096090" lon="6.1996190">
        <ele>937.2</ele>
        <time>2022-07-23T09:36:13Z</time>
      </trkpt>
      <trkpt lat="46.7097180" lon="6.1994900">
        <ele>937.8</ele>
        <time>2022-07-23T09:36:19Z</time>
      </trkpt>
      <trkpt lat="46.7097780" lon="6.1994520">
        <ele>938.2</ele>
        <time>2022-07-23T09:36:22Z</time>
      </trkpt>
      <trkpt lat="46.7098350" lon="6.1994480">
        <ele>938.6</ele>
        <time>2022-07-23T09:36:25Z</time>
      </trkpt>
      <trkpt lat="46.7099630" lon="6.1994720">
        <ele>939.2</ele>
        <time>2022-07-23T09:36:32Z</time>
      </trkpt>
      <trkpt lat="46.7100790" lon="6.1994060">
        <ele>940.4</ele>
        <time>2022-07-23T09:36:38Z</time>
      </trkpt>
      <trkpt lat="46.7100970" lon="6.1993840">
        <ele>940.6</ele>
        <time>2022-07-23T09:36:39Z</time>
      </trkpt>
      <trkpt lat="46.7102880" lon="6.1991330">
        <ele>941.2</ele>
        <time>2022-07-23T09:36:48Z</time>
      </trkpt>
      <trkpt lat="46.7104270" lon="6.1991030">
        <ele>941.2</ele>
        <time>2022-07-23T09:36:53Z</time>
      </trkpt>
      <trkpt lat="46.7106300" lon="6.1991510">
        <ele>941.2</ele>
        <time>2022-07-23T09:37:01Z</time>
      </trkpt>
      <trkpt lat="46.7107410" lon="6.1990840">
        <ele>941.2</ele>
        <time>2022-07-23T09:37:06Z</time>
      </trkpt>
      <trkpt lat="46.7108120" lon="6.1989820">
        <ele>941.4</ele>
        <time>2022-07-23T09:37:11Z</time>
      </trkpt>
      <trkpt lat="46.7108210" lon="6.1989660">
        <ele>941.6</ele>
        <time>2022-07-23T09:37:12Z</time>
      </trkpt>
      <trkpt lat="46.7108240" lon="6.1989420">
        <ele>941.6</ele>
        <time>2022-07-23T09:37:13Z</time>
      </trkpt>
      <trkpt lat="46.7107950" lon="6.1988300">
        <ele>941.6</ele>
        <time>2022-07-23T09:37:16Z</time>
      </trkpt>
      <trkpt lat="46.7107760" lon="6.1987880">
        <ele>941.6</ele>
        <time>2022-07-23T09:37:17Z</time>
      </trkpt>
      <trkpt lat="46.7106320" lon="6.1984590">
        <ele>941.6</ele>
        <time>2022-07-23T09:37:24Z</time>
      </trkpt>
      <trkpt lat="46.7104640" lon="6.1981020">
        <ele>941.6</ele>
        <time>2022-07-23T09:37:31Z</time>
      </trkpt>
      <trkpt lat="46.7104130" lon="6.1979930">
        <ele>941.6</ele>
        <time>2022-07-23T09:37:33Z</time>
      </trkpt>
      <trkpt lat="46.7102260" lon="6.1975920">
        <ele>941.0</ele>
        <time>2022-07-23T09:37:40Z</time>
      </trkpt>
      <trkpt lat="46.7100820" lon="6.1971420">
        <ele>940.4</ele>
        <time>2022-07-23T09:37:46Z</time>
      </trkpt>
      <trkpt lat="46.7100630" lon="6.1970640">
        <ele>940.4</ele>
        <time>2022-07-23T09:37:47Z</time>
      </trkpt>
      <trkpt lat="46.7100130" lon="6.1967420">
        <ele>939.8</ele>
        <time>2022-07-23T09:37:51Z</time>
      </trkpt>
      <trkpt lat="46.7100090" lon="6.1966610">
        <ele>939.6</ele>
        <time>2022-07-23T09:37:52Z</time>
      </trkpt>
      <trkpt lat="46.7100100" lon="6.1965790">
        <ele>939.6</ele>
        <time>2022-07-23T09:37:53Z</time>
      </trkpt>
      <trkpt lat="46.7100140" lon="6.1963300">
        <ele>939.4</ele>
        <time>2022-07-23T09:37:56Z</time>
      </trkpt>
      <trkpt lat="46.7100070" lon="6.1962440">
        <ele>939.2</ele>
        <time>2022-07-23T09:37:57Z</time>
      </trkpt>
      <trkpt lat="46.7099860" lon="6.1959790">
        <ele>939.0</ele>
        <time>2022-07-23T09:38:00Z</time>
      </trkpt>
      <trkpt lat="46.7100070" lon="6.1957950">
        <ele>938.8</ele>
        <time>2022-07-23T09:38:02Z</time>
      </trkpt>
      <trkpt lat="46.7100480" lon="6.1956140">
        <ele>938.8</ele>
        <time>2022-07-23T09:38:04Z</time>
      </trkpt>
      <trkpt lat="46.7101160" lon="6.1954510">
        <ele>938.6</ele>
        <time>2022-07-23T09:38:06Z</time>
      </trkpt>
      <trkpt lat="46.7102550" lon="6.1952610">
        <ele>938.4</ele>
        <time>2022-07-23T09:38:09Z</time>
      </trkpt>
      <trkpt lat="46.7103000" lon="6.1952070">
        <ele>938.2</ele>
        <time>2022-07-23T09:38:10Z</time>
      </trkpt>
      <trkpt lat="46.7104270" lon="6.1950560">
        <ele>937.4</ele>
        <time>2022-07-23T09:38:13Z</time>
      </trkpt>
      <trkpt lat="46.7106150" lon="6.1948430">
        <ele>937.0</ele>
        <time>2022-07-23T09:38:18Z</time>
      </trkpt>
      <trkpt lat="46.7107420" lon="6.1946540">
        <ele>937.0</ele>
        <time>2022-07-23T09:38:23Z</time>
      </trkpt>
      <trkpt lat="46.7107710" lon="6.1944080">
        <ele>937.4</ele>
        <time>2022-07-23T09:38:28Z</time>
      </trkpt>
      <trkpt lat="46.7107520" lon="6.1941770">
        <ele>938.2</ele>
        <time>2022-07-23T09:38:32Z</time>
      </trkpt>
      <trkpt lat="46.7107390" lon="6.1941100">
        <ele>938.2</ele>
        <time>2022-07-23T09:38:33Z</time>
      </trkpt>
      <trkpt lat="46.7107110" lon="6.1939710">
        <ele>938.4</ele>
        <time>2022-07-23T09:38:35Z</time>
      </trkpt>
      <trkpt lat="46.7106610" lon="6.1936420">
        <ele>938.4</ele>
        <time>2022-07-23T09:38:39Z</time>
      </trkpt>
      <trkpt lat="46.7105660" lon="6.1931400">
        <ele>937.8</ele>
        <time>2022-07-23T09:38:45Z</time>
      </trkpt>
      <trkpt lat="46.7105180" lon="6.1928520">
        <ele>937.2</ele>
        <time>2022-07-23T09:38:49Z</time>
      </trkpt>
      <trkpt lat="46.7105080" lon="6.1927340">
        <ele>936.8</ele>
        <time>2022-07-23T09:38:51Z</time>
      </trkpt>
      <trkpt lat="46.7105070" lon="6.1926600">
        <ele>936.2</ele>
        <time>2022-07-23T09:38:53Z</time>
      </trkpt>
      <trkpt lat="46.7105140" lon="6.1926320">
        <ele>935.6</ele>
        <time>2022-07-23T09:38:55Z</time>
      </trkpt>
      <trkpt lat="46.7105240" lon="6.1926220">
        <ele>935.4</ele>
        <time>2022-07-23T09:38:57Z</time>
      </trkpt>
      <trkpt lat="46.7105210" lon="6.1925630">
        <ele>935.0</ele>
        <time>2022-07-23T09:39:05Z</time>
      </trkpt>
      <trkpt lat="46.7105110" lon="6.1925300">
        <ele>935.0</ele>
        <time>2022-07-23T09:39:06Z</time>
      </trkpt>
      <trkpt lat="46.7104480" lon="6.1924220">
        <ele>935.0</ele>
        <time>2022-07-23T09:39:10Z</time>
      </trkpt>
      <trkpt lat="46.7102490" lon="6.1922140">
        <ele>935.0</ele>
        <time>2022-07-23T09:39:17Z</time>
      </trkpt>
      <trkpt lat="46.7101070" lon="6.1920690">
        <ele>935.0</ele>
        <time>2022-07-23T09:39:23Z</time>
      </trkpt>
      <trkpt lat="46.7100950" lon="6.1920360">
        <ele>935.0</ele>
        <time>2022-07-23T09:39:27Z</time>
      </trkpt>
      <trkpt lat="46.7100930" lon="6.1920330">
        <ele>935.0</ele>
        <time>2022-07-23T09:39:28Z</time>
      </trkpt>
      <trkpt lat="46.7101550" lon="6.1920980">
        <ele>933.0</ele>
        <time>2022-07-23T09:59:41Z</time>
      </trkpt>
      <trkpt lat="46.7101930" lon="6.1921570">
        <ele>933.0</ele>
        <time>2022-07-23T09:59:43Z</time>
      </trkpt>
      <trkpt lat="46.7103670" lon="6.1923680">
        <ele>933.0</ele>
        <time>2022-07-23T09:59:49Z</time>
      </trkpt>
      <trkpt lat="46.7104670" lon="6.1925680">
        <ele>933.2</ele>
        <time>2022-07-23T09:59:54Z</time>
      </trkpt>
      <trkpt lat="46.7105330" lon="6.1928770">
        <ele>933.2</ele>
        <time>2022-07-23T10:00:01Z</time>
      </trkpt>
      <trkpt lat="46.7105760" lon="6.1931370">
        <ele>933.2</ele>
        <time>2022-07-23T10:00:06Z</time>
      </trkpt>
      <trkpt lat="46.7106150" lon="6.1934810">
        <ele>933.2</ele>
        <time>2022-07-23T10:00:13Z</time>
      </trkpt>
      <trkpt lat="46.7106600" lon="6.1938100">
        <ele>933.4</ele>
        <time>2022-07-23T10:00:20Z</time>
      </trkpt>
      <trkpt lat="46.7106900" lon="6.1940160">
        <ele>933.8</ele>
        <time>2022-07-23T10:00:25Z</time>
      </trkpt>
      <trkpt lat="46.7106960" lon="6.1940600">
        <ele>934.0</ele>
        <time>2022-07-23T10:00:26Z</time>
      </trkpt>
      <trkpt lat="46.7107400" lon="6.1943110">
        <ele>935.0</ele>
        <time>2022-07-23T10:00:32Z</time>
      </trkpt>
      <trkpt lat="46.7107040" lon="6.1945770">
        <ele>935.6</ele>
        <time>2022-07-23T10:00:38Z</time>
      </trkpt>
      <trkpt lat="46.7106430" lon="6.1947090">
        <ele>936.2</ele>
        <time>2022-07-23T10:00:41Z</time>
      </trkpt>
      <trkpt lat="46.7105550" lon="6.1948370">
        <ele>936.2</ele>
        <time>2022-07-23T10:00:44Z</time>
      </trkpt>
      <trkpt lat="46.7102790" lon="6.1951580">
        <ele>936.2</ele>
        <time>2022-07-23T10:00:51Z</time>
      </trkpt>
      <trkpt lat="46.7100520" lon="6.1954810">
        <ele>935.4</ele>
        <time>2022-07-23T10:00:57Z</time>
      </trkpt>
      <trkpt lat="46.7100280" lon="6.1955430">
        <ele>935.4</ele>
        <time>2022-07-23T10:00:58Z</time>
      </trkpt>
      <trkpt lat="46.7099900" lon="6.1956610">
        <ele>935.0</ele>
        <time>2022-07-23T10:01:00Z</time>
      </trkpt>
      <trkpt lat="46.7099460" lon="6.1958820">
        <ele>935.0</ele>
        <time>2022-07-23T10:01:04Z</time>
      </trkpt>
      <trkpt lat="46.7099530" lon="6.1962440">
        <ele>935.2</ele>
        <time>2022-07-23T10:01:11Z</time>
      </trkpt>
      <trkpt lat="46.7099620" lon="6.1963450">
        <ele>935.4</ele>
        <time>2022-07-23T10:01:13Z</time>
      </trkpt>
      <trkpt lat="46.7099670" lon="6.1966470">
        <ele>935.8</ele>
        <time>2022-07-23T10:01:19Z</time>
      </trkpt>
      <trkpt lat="46.7099700" lon="6.1968510">
        <ele>936.2</ele>
        <time>2022-07-23T10:01:23Z</time>
      </trkpt>
      <trkpt lat="46.7099850" lon="6.1969520">
        <ele>936.6</ele>
        <time>2022-07-23T10:01:25Z</time>
      </trkpt>
      <trkpt lat="46.7100880" lon="6.1972990">
        <ele>937.2</ele>
        <time>2022-07-23T10:01:32Z</time>
      </trkpt>
      <trkpt lat="46.7101380" lon="6.1974390">
        <ele>937.2</ele>
        <time>2022-07-23T10:01:35Z</time>
      </trkpt>
      <trkpt lat="46.7102100" lon="6.1976190">
        <ele>937.4</ele>
        <time>2022-07-23T10:01:39Z</time>
      </trkpt>
      <trkpt lat="46.7104010" lon="6.1979960">
        <ele>938.2</ele>
        <time>2022-07-23T10:01:48Z</time>
      </trkpt>
      <trkpt lat="46.7104210" lon="6.1980400">
        <ele>938.4</ele>
        <time>2022-07-23T10:01:49Z</time>
      </trkpt>
      <trkpt lat="46.7105620" lon="6.1983440">
        <ele>939.2</ele>
        <time>2022-07-23T10:01:56Z</time>
      </trkpt>
      <trkpt lat="46.7107100" lon="6.1986550">
        <ele>939.4</ele>
        <time>2022-07-23T10:02:03Z</time>
      </trkpt>
      <trkpt lat="46.7107490" lon="6.1987400">
        <ele>939.6</ele>
        <time>2022-07-23T10:02:05Z</time>
      </trkpt>
      <trkpt lat="46.7108200" lon="6.1989190">
        <ele>939.8</ele>
        <time>2022-07-23T10:02:10Z</time>
      </trkpt>
      <trkpt lat="46.7108160" lon="6.1989460">
        <ele>940.0</ele>
        <time>2022-07-23T10:02:11Z</time>
      </trkpt>
      <trkpt lat="46.7107810" lon="6.1989910">
        <ele>940.4</ele>
        <time>2022-07-23T10:02:14Z</time>
      </trkpt>
      <trkpt lat="46.7107410" lon="6.1990380">
        <ele>940.4</ele>
        <time>2022-07-23T10:02:17Z</time>
      </trkpt>
      <trkpt lat="46.7105830" lon="6.1991300">
        <ele>940.4</ele>
        <time>2022-07-23T10:02:24Z</time>
      </trkpt>
      <trkpt lat="46.7104160" lon="6.1990720">
        <ele>940.2</ele>
        <time>2022-07-23T10:02:29Z</time>
      </trkpt>
      <trkpt lat="46.7103740" lon="6.1990590">
        <ele>940.2</ele>
        <time>2022-07-23T10:02:31Z</time>
      </trkpt>
      <trkpt lat="46.7103190" lon="6.1990880">
        <ele>940.0</ele>
        <time>2022-07-23T10:02:33Z</time>
      </trkpt>
      <trkpt lat="46.7101660" lon="6.1992620">
        <ele>939.4</ele>
        <time>2022-07-23T10:02:39Z</time>
      </trkpt>
      <trkpt lat="46.7100010" lon="6.1994430">
        <ele>939.4</ele>
        <time>2022-07-23T10:02:45Z</time>
      </trkpt>
      <trkpt lat="46.7099220" lon="6.1994460">
        <ele>939.4</ele>
        <time>2022-07-23T10:02:47Z</time>
      </trkpt>
      <trkpt lat="46.7098380" lon="6.1994200">
        <ele>939.4</ele>
        <time>2022-07-23T10:02:49Z</time>
      </trkpt>
      <trkpt lat="46.7097300" lon="6.1994560">
        <ele>939.4</ele>
        <time>2022-07-23T10:02:52Z</time>
      </trkpt>
      <trkpt lat="46.7096730" lon="6.1995070">
        <ele>939.4</ele>
        <time>2022-07-23T10:02:54Z</time>
      </trkpt>
      <trkpt lat="46.7096160" lon="6.1995790">
        <ele>938.6</ele>
        <time>2022-07-23T10:02:57Z</time>
      </trkpt>
      <trkpt lat="46.7095950" lon="6.1996070">
        <ele>938.4</ele>
        <time>2022-07-23T10:02:58Z</time>
      </trkpt>
      <trkpt lat="46.7095110" lon="6.1997110">
        <ele>937.4</ele>
        <time>2022-07-23T10:03:01Z</time>
      </trkpt>
      <trkpt lat="46.7094810" lon="6.1997480">
        <ele>937.2</ele>
        <time>2022-07-23T10:03:02Z</time>
      </trkpt>
      <trkpt lat="46.7092750" lon="6.2000100">
        <ele>936.2</ele>
        <time>2022-07-23T10:03:08Z</time>
      </trkpt>
      <trkpt lat="46.7092350" lon="6.2000570">
        <ele>936.0</ele>
        <time>2022-07-23T10:03:09Z</time>
      </trkpt>
      <trkpt lat="46.7090260" lon="6.2003190">
        <ele>935.6</ele>
        <time>2022-07-23T10:03:14Z</time>
      </trkpt>
      <trkpt lat="46.7089370" lon="6.2004300">
        <ele>935.0</ele>
        <time>2022-07-23T10:03:16Z</time>
      </trkpt>
      <trkpt lat="46.7088940" lon="6.2004850">
        <ele>934.8</ele>
        <time>2022-07-23T10:03:17Z</time>
      </trkpt>
      <trkpt lat="46.7087840" lon="6.2006320">
        <ele>934.4</ele>
        <time>2022-07-23T10:03:20Z</time>
      </trkpt>
      <trkpt lat="46.7087290" lon="6.2007320">
        <ele>934.2</ele>
        <time>2022-07-23T10:03:22Z</time>
      </trkpt>
      <trkpt lat="46.7087010" lon="6.2007770">
        <ele>933.8</ele>
        <time>2022-07-23T10:03:23Z</time>
      </trkpt>
      <trkpt lat="46.7085970" lon="6.2009160">
        <ele>932.8</ele>
        <time>2022-07-23T10:03:27Z</time>
      </trkpt>
      <trkpt lat="46.7085680" lon="6.2009470">
        <ele>932.6</ele>
        <time>2022-07-23T10:03:28Z</time>
      </trkpt>
      <trkpt lat="46.7084730" lon="6.2010450">
        <ele>932.6</ele>
        <time>2022-07-23T10:03:31Z</time>
      </trkpt>
      <trkpt lat="46.7084010" lon="6.2011140">
        <ele>932.4</ele>
        <time>2022-07-23T10:03:33Z</time>
      </trkpt>
      <trkpt lat="46.7083720" lon="6.2011600">
        <ele>932.4</ele>
        <time>2022-07-23T10:03:34Z</time>
      </trkpt>
      <trkpt lat="46.7083390" lon="6.2013410">
        <ele>932.4</ele>
        <time>2022-07-23T10:03:37Z</time>
      </trkpt>
      <trkpt lat="46.7083070" lon="6.2018170">
        <ele>932.4</ele>
        <time>2022-07-23T10:03:45Z</time>
      </trkpt>
      <trkpt lat="46.7082620" lon="6.2020850">
        <ele>932.4</ele>
        <time>2022-07-23T10:03:50Z</time>
      </trkpt>
      <trkpt lat="46.7081590" lon="6.2023440">
        <ele>932.4</ele>
        <time>2022-07-23T10:03:55Z</time>
      </trkpt>
      <trkpt lat="46.7081340" lon="6.2024650">
        <ele>932.2</ele>
        <time>2022-07-23T10:03:57Z</time>
      </trkpt>
      <trkpt lat="46.7081010" lon="6.2029500">
        <ele>932.2</ele>
        <time>2022-07-23T10:04:05Z</time>
      </trkpt>
      <trkpt lat="46.7081250" lon="6.2033900">
        <ele>932.4</ele>
        <time>2022-07-23T10:04:13Z</time>
      </trkpt>
      <trkpt lat="46.7081440" lon="6.2038390">
        <ele>933.0</ele>
        <time>2022-07-23T10:04:22Z</time>
      </trkpt>
      <trkpt lat="46.7081330" lon="6.2043170">
        <ele>933.4</ele>
        <time>2022-07-23T10:04:30Z</time>
      </trkpt>
      <trkpt lat="46.7081160" lon="6.2046460">
        <ele>933.4</ele>
        <time>2022-07-23T10:04:35Z</time>
      </trkpt>
      <trkpt lat="46.7081000" lon="6.2047610">
        <ele>933.4</ele>
        <time>2022-07-23T10:04:37Z</time>
      </trkpt>
      <trkpt lat="46.7080760" lon="6.2049390">
        <ele>933.4</ele>
        <time>2022-07-23T10:04:40Z</time>
      </trkpt>
      <trkpt lat="46.7080210" lon="6.2052720">
        <ele>933.4</ele>
        <time>2022-07-23T10:04:46Z</time>
      </trkpt>
      <trkpt lat="46.7079550" lon="6.2056560">
        <ele>933.4</ele>
        <time>2022-07-23T10:04:52Z</time>
      </trkpt>
      <trkpt lat="46.7079190" lon="6.2057740">
        <ele>933.4</ele>
        <time>2022-07-23T10:04:54Z</time>
      </trkpt>
      <trkpt lat="46.7077920" lon="6.2060370">
        <ele>933.4</ele>
        <time>2022-07-23T10:04:59Z</time>
      </trkpt>
      <trkpt lat="46.7075390" lon="6.2064270">
        <ele>933.4</ele>
        <time>2022-07-23T10:05:07Z</time>
      </trkpt>
      <trkpt lat="46.7073500" lon="6.2067340">
        <ele>933.2</ele>
        <time>2022-07-23T10:05:14Z</time>
      </trkpt>
      <trkpt lat="46.7072210" lon="6.2070300">
        <ele>933.2</ele>
        <time>2022-07-23T10:05:20Z</time>
      </trkpt>
      <trkpt lat="46.7071900" lon="6.2070760">
        <ele>933.2</ele>
        <time>2022-07-23T10:05:21Z</time>
      </trkpt>
      <trkpt lat="46.7071050" lon="6.2071940">
        <ele>933.2</ele>
        <time>2022-07-23T10:05:24Z</time>
      </trkpt>
      <trkpt lat="46.7070570" lon="6.2072690">
        <ele>933.2</ele>
        <time>2022-07-23T10:05:26Z</time>
      </trkpt>
      <trkpt lat="46.7069300" lon="6.2074270">
        <ele>933.2</ele>
        <time>2022-07-23T10:05:32Z</time>
      </trkpt>
      <trkpt lat="46.7067970" lon="6.2075390">
        <ele>933.4</ele>
        <time>2022-07-23T10:05:37Z</time>
      </trkpt>
      <trkpt lat="46.7066480" lon="6.2074970">
        <ele>933.6</ele>
        <time>2022-07-23T10:05:41Z</time>
      </trkpt>
      <trkpt lat="46.7065800" lon="6.2074710">
        <ele>933.8</ele>
        <time>2022-07-23T10:05:43Z</time>
      </trkpt>
      <trkpt lat="46.7064430" lon="6.2074310">
        <ele>934.2</ele>
        <time>2022-07-23T10:05:47Z</time>
      </trkpt>
      <trkpt lat="46.7064020" lon="6.2074310">
        <ele>934.2</ele>
        <time>2022-07-23T10:05:48Z</time>
      </trkpt>
      <trkpt lat="46.7062700" lon="6.2074400">
        <ele>934.2</ele>
        <time>2022-07-23T10:05:51Z</time>
      </trkpt>
      <trkpt lat="46.7061210" lon="6.2075480">
        <ele>934.4</ele>
        <time>2022-07-23T10:05:55Z</time>
      </trkpt>
      <trkpt lat="46.7060880" lon="6.2075710">
        <ele>934.4</ele>
        <time>2022-07-23T10:05:56Z</time>
      </trkpt>
      <trkpt lat="46.7059460" lon="6.2076880">
        <ele>934.4</ele>
        <time>2022-07-23T10:06:01Z</time>
      </trkpt>
      <trkpt lat="46.7059170" lon="6.2076830">
        <ele>934.4</ele>
        <time>2022-07-23T10:06:02Z</time>
      </trkpt>
      <trkpt lat="46.7058600" lon="6.2076360">
        <ele>934.6</ele>
        <time>2022-07-23T10:06:04Z</time>
      </trkpt>
      <trkpt lat="46.7058090" lon="6.2075650">
        <ele>934.8</ele>
        <time>2022-07-23T10:06:06Z</time>
      </trkpt>
      <trkpt lat="46.7057430" lon="6.2074320">
        <ele>934.8</ele>
        <time>2022-07-23T10:06:09Z</time>
      </trkpt>
      <trkpt lat="46.7057250" lon="6.2073840">
        <ele>934.8</ele>
        <time>2022-07-23T10:06:10Z</time>
      </trkpt>
      <trkpt lat="46.7056270" lon="6.2070330">
        <ele>935.0</ele>
        <time>2022-07-23T10:06:17Z</time>
      </trkpt>
      <trkpt lat="46.7055420" lon="6.2067480">
        <ele>935.0</ele>
        <time>2022-07-23T10:06:23Z</time>
      </trkpt>
      <trkpt lat="46.7055290" lon="6.2067100">
        <ele>935.0</ele>
        <time>2022-07-23T10:06:24Z</time>
      </trkpt>
      <trkpt lat="46.7054580" lon="6.2064890">
        <ele>935.2</ele>
        <time>2022-07-23T10:06:31Z</time>
      </trkpt>
      <trkpt lat="46.7054380" lon="6.2063820">
        <ele>935.8</ele>
        <time>2022-07-23T10:06:34Z</time>
      </trkpt>
      <trkpt lat="46.7054030" lon="6.2062180">
        <ele>936.6</ele>
        <time>2022-07-23T10:06:38Z</time>
      </trkpt>
      <trkpt lat="46.7053930" lon="6.2061720">
        <ele>936.8</ele>
        <time>2022-07-23T10:06:39Z</time>
      </trkpt>
      <trkpt lat="46.7053470" lon="6.2059060">
        <ele>937.4</ele>
        <time>2022-07-23T10:06:44Z</time>
      </trkpt>
      <trkpt lat="46.7053350" lon="6.2058420">
        <ele>937.4</ele>
        <time>2022-07-23T10:06:45Z</time>
      </trkpt>
      <trkpt lat="46.7053030" lon="6.2057040">
        <ele>937.4</ele>
        <time>2022-07-23T10:06:47Z</time>
      </trkpt>
      <trkpt lat="46.7052370" lon="6.2055180">
        <ele>937.4</ele>
        <time>2022-07-23T10:06:50Z</time>
      </trkpt>
      <trkpt lat="46.7051600" lon="6.2053060">
        <ele>937.0</ele>
        <time>2022-07-23T10:06:55Z</time>
      </trkpt>
      <trkpt lat="46.7050860" lon="6.2049660">
        <ele>936.4</ele>
        <time>2022-07-23T10:07:02Z</time>
      </trkpt>
      <trkpt lat="46.7049900" lon="6.2046690">
        <ele>936.4</ele>
        <time>2022-07-23T10:07:07Z</time>
      </trkpt>
      <trkpt lat="46.7049290" lon="6.2044850">
        <ele>936.4</ele>
        <time>2022-07-23T10:07:10Z</time>
      </trkpt>
      <trkpt lat="46.7048790" lon="6.2043190">
        <ele>936.2</ele>
        <time>2022-07-23T10:07:13Z</time>
      </trkpt>
      <trkpt lat="46.7048400" lon="6.2040420">
        <ele>935.6</ele>
        <time>2022-07-23T10:07:18Z</time>
      </trkpt>
      <trkpt lat="46.7047610" lon="6.2037870">
        <ele>935.6</ele>
        <time>2022-07-23T10:07:23Z</time>
      </trkpt>
      <trkpt lat="46.7046130" lon="6.2035620">
        <ele>935.6</ele>
        <time>2022-07-23T10:07:29Z</time>
      </trkpt>
      <trkpt lat="46.7044500" lon="6.2032820">
        <ele>935.8</ele>
        <time>2022-07-23T10:07:35Z</time>
      </trkpt>
      <trkpt lat="46.7043910" lon="6.2030970">
        <ele>935.8</ele>
        <time>2022-07-23T10:07:38Z</time>
      </trkpt>
      <trkpt lat="46.7043660" lon="6.2029940">
        <ele>935.8</ele>
        <time>2022-07-23T10:07:40Z</time>
      </trkpt>
      <trkpt lat="46.7042980" lon="6.2027560">
        <ele>935.6</ele>
        <time>2022-07-23T10:07:47Z</time>
      </trkpt>
      <trkpt lat="46.7042180" lon="6.2024460">
        <ele>935.4</ele>
        <time>2022-07-23T10:07:54Z</time>
      </trkpt>
      <trkpt lat="46.7041290" lon="6.2021460">
        <ele>935.4</ele>
        <time>2022-07-23T10:08:01Z</time>
      </trkpt>
      <trkpt lat="46.7040670" lon="6.2018570">
        <ele>935.4</ele>
        <time>2022-07-23T10:08:08Z</time>
      </trkpt>
      <trkpt lat="46.7039910" lon="6.2015670">
        <ele>935.6</ele>
        <time>2022-07-23T10:08:15Z</time>
      </trkpt>
      <trkpt lat="46.7038910" lon="6.2012660">
        <ele>936.0</ele>
        <time>2022-07-23T10:08:22Z</time>
      </trkpt>
      <trkpt lat="46.7038150" lon="6.2010230">
        <ele>936.0</ele>
        <time>2022-07-23T10:08:27Z</time>
      </trkpt>
      <trkpt lat="46.7037240" lon="6.2006990">
        <ele>936.0</ele>
        <time>2022-07-23T10:08:34Z</time>
      </trkpt>
      <trkpt lat="46.7036680" lon="6.2004160">
        <ele>936.0</ele>
        <time>2022-07-23T10:08:39Z</time>
      </trkpt>
      <trkpt lat="46.7036540" lon="6.2003510">
        <ele>936.0</ele>
        <time>2022-07-23T10:08:40Z</time>
      </trkpt>
      <trkpt lat="46.7035500" lon="6.2000580">
        <ele>936.0</ele>
        <time>2022-07-23T10:08:45Z</time>
      </trkpt>
      <trkpt lat="46.7035330" lon="6.2000010">
        <ele>936.0</ele>
        <time>2022-07-23T10:08:46Z</time>
      </trkpt>
      <trkpt lat="46.7033950" lon="6.1995690">
        <ele>935.2</ele>
        <time>2022-07-23T10:08:54Z</time>
      </trkpt>
      <trkpt lat="46.7033320" lon="6.1994120">
        <ele>935.2</ele>
        <time>2022-07-23T10:08:57Z</time>
      </trkpt>
      <trkpt lat="46.7032940" lon="6.1993030">
        <ele>935.2</ele>
        <time>2022-07-23T10:08:59Z</time>
      </trkpt>
      <trkpt lat="46.7032510" lon="6.1991980">
        <ele>935.2</ele>
        <time>2022-07-23T10:09:01Z</time>
      </trkpt>
      <trkpt lat="46.7030790" lon="6.1987540">
        <ele>935.2</ele>
        <time>2022-07-23T10:09:09Z</time>
      </trkpt>
      <trkpt lat="46.7030290" lon="6.1986490">
        <ele>935.2</ele>
        <time>2022-07-23T10:09:11Z</time>
      </trkpt>
      <trkpt lat="46.7029670" lon="6.1984810">
        <ele>935.2</ele>
        <time>2022-07-23T10:09:14Z</time>
      </trkpt>
      <trkpt lat="46.7029460" lon="6.1984270">
        <ele>935.2</ele>
        <time>2022-07-23T10:09:15Z</time>
      </trkpt>
      <trkpt lat="46.7028660" lon="6.1982110">
        <ele>935.2</ele>
        <time>2022-07-23T10:09:19Z</time>
      </trkpt>
      <trkpt lat="46.7028470" lon="6.1981540">
        <ele>935.2</ele>
        <time>2022-07-23T10:09:20Z</time>
      </trkpt>
      <trkpt lat="46.7026850" lon="6.1976810">
        <ele>935.2</ele>
        <time>2022-07-23T10:09:29Z</time>
      </trkpt>
      <trkpt lat="46.7025660" lon="6.1973380">
        <ele>935.2</ele>
        <time>2022-07-23T10:09:36Z</time>
      </trkpt>
      <trkpt lat="46.7023900" lon="6.1968780">
        <ele>935.8</ele>
        <time>2022-07-23T10:09:46Z</time>
      </trkpt>
      <trkpt lat="46.7022490" lon="6.1965530">
        <ele>936.2</ele>
        <time>2022-07-23T10:09:54Z</time>
      </trkpt>
      <trkpt lat="46.7021940" lon="6.1964370">
        <ele>936.8</ele>
        <time>2022-07-23T10:09:57Z</time>
      </trkpt>
      <trkpt lat="46.7021110" lon="6.1962900">
        <ele>937.2</ele>
        <time>2022-07-23T10:10:01Z</time>
      </trkpt>
      <trkpt lat="46.7019410" lon="6.1959610">
        <ele>937.8</ele>
        <time>2022-07-23T10:10:09Z</time>
      </trkpt>
      <trkpt lat="46.7017760" lon="6.1955540">
        <ele>938.6</ele>
        <time>2022-07-23T10:10:18Z</time>
      </trkpt>
      <trkpt lat="46.7016760" lon="6.1953020">
        <ele>938.8</ele>
        <time>2022-07-23T10:10:24Z</time>
      </trkpt>
      <trkpt lat="46.7016470" lon="6.1952240">
        <ele>939.0</ele>
        <time>2022-07-23T10:10:26Z</time>
      </trkpt>
      <trkpt lat="46.7014790" lon="6.1948280">
        <ele>939.8</ele>
        <time>2022-07-23T10:10:36Z</time>
      </trkpt>
      <trkpt lat="46.7013880" lon="6.1946040">
        <ele>940.0</ele>
        <time>2022-07-23T10:10:42Z</time>
      </trkpt>
      <trkpt lat="46.7012640" lon="6.1943100">
        <ele>940.0</ele>
        <time>2022-07-23T10:10:49Z</time>
      </trkpt>
      <trkpt lat="46.7011070" lon="6.1940260">
        <ele>940.4</ele>
        <time>2022-07-23T10:10:57Z</time>
      </trkpt>
      <trkpt lat="46.7009930" lon="6.1938180">
        <ele>940.6</ele>
        <time>2022-07-23T10:11:04Z</time>
      </trkpt>
      <trkpt lat="46.7008890" lon="6.1936370">
        <ele>940.8</ele>
        <time>2022-07-23T10:11:09Z</time>
      </trkpt>
      <trkpt lat="46.7008650" lon="6.1935920">
        <ele>940.8</ele>
        <time>2022-07-23T10:11:10Z</time>
      </trkpt>
      <trkpt lat="46.7007650" lon="6.1933150">
        <ele>940.8</ele>
        <time>2022-07-23T10:11:16Z</time>
      </trkpt>
      <trkpt lat="46.7007200" lon="6.1929720">
        <ele>940.8</ele>
        <time>2022-07-23T10:11:22Z</time>
      </trkpt>
      <trkpt lat="46.7006280" lon="6.1925440">
        <ele>940.8</ele>
        <time>2022-07-23T10:11:29Z</time>
      </trkpt>
      <trkpt lat="46.7006130" lon="6.1924840">
        <ele>940.6</ele>
        <time>2022-07-23T10:11:30Z</time>
      </trkpt>
      <trkpt lat="46.7005290" lon="6.1922510">
        <ele>940.4</ele>
        <time>2022-07-23T10:11:34Z</time>
      </trkpt>
      <trkpt lat="46.7003960" lon="6.1918590">
        <ele>939.8</ele>
        <time>2022-07-23T10:11:41Z</time>
      </trkpt>
      <trkpt lat="46.7002860" lon="6.1915690">
        <ele>939.8</ele>
        <time>2022-07-23T10:11:46Z</time>
      </trkpt>
      <trkpt lat="46.7002270" lon="6.1914520">
        <ele>939.8</ele>
        <time>2022-07-23T10:11:48Z</time>
      </trkpt>
      <trkpt lat="46.7000550" lon="6.1910790">
        <ele>939.8</ele>
        <time>2022-07-23T10:11:55Z</time>
      </trkpt>
      <trkpt lat="46.6998890" lon="6.1907080">
        <ele>940.2</ele>
        <time>2022-07-23T10:12:03Z</time>
      </trkpt>
      <trkpt lat="46.6997530" lon="6.1904120">
        <ele>940.6</ele>
        <time>2022-07-23T10:12:09Z</time>
      </trkpt>
      <trkpt lat="46.6996160" lon="6.1900630">
        <ele>940.6</ele>
        <time>2022-07-23T10:12:16Z</time>
      </trkpt>
      <trkpt lat="46.6994370" lon="6.1896790">
        <ele>940.6</ele>
        <time>2022-07-23T10:12:24Z</time>
      </trkpt>
      <trkpt lat="46.6992480" lon="6.1893240">
        <ele>940.8</ele>
        <time>2022-07-23T10:12:32Z</time>
      </trkpt>
      <trkpt lat="46.6991260" lon="6.1892120">
        <ele>941.0</ele>
        <time>2022-07-23T10:12:37Z</time>
      </trkpt>
      <trkpt lat="46.6990290" lon="6.1890940">
        <ele>941.6</ele>
        <time>2022-07-23T10:12:41Z</time>
      </trkpt>
      <trkpt lat="46.6989880" lon="6.1890390">
        <ele>941.8</ele>
        <time>2022-07-23T10:12:43Z</time>
      </trkpt>
      <trkpt lat="46.6988400" lon="6.1888660">
        <ele>942.6</ele>
        <time>2022-07-23T10:12:49Z</time>
      </trkpt>
      <trkpt lat="46.6985250" lon="6.1886360">
        <ele>943.2</ele>
        <time>2022-07-23T10:12:59Z</time>
      </trkpt>
      <trkpt lat="46.6983320" lon="6.1884500">
        <ele>943.4</ele>
        <time>2022-07-23T10:13:05Z</time>
      </trkpt>
      <trkpt lat="46.6981320" lon="6.1882100">
        <ele>943.4</ele>
        <time>2022-07-23T10:13:12Z</time>
      </trkpt>
      <trkpt lat="46.6979380" lon="6.1879980">
        <ele>943.4</ele>
        <time>2022-07-23T10:13:19Z</time>
      </trkpt>
      <trkpt lat="46.6978040" lon="6.1878950">
        <ele>943.6</ele>
        <time>2022-07-23T10:13:23Z</time>
      </trkpt>
      <trkpt lat="46.6977670" lon="6.1878690">
        <ele>943.6</ele>
        <time>2022-07-23T10:13:24Z</time>
      </trkpt>
      <trkpt lat="46.6975710" lon="6.1876940">
        <ele>944.2</ele>
        <time>2022-07-23T10:13:30Z</time>
      </trkpt>
      <trkpt lat="46.6973630" lon="6.1873970">
        <ele>944.4</ele>
        <time>2022-07-23T10:13:37Z</time>
      </trkpt>
      <trkpt lat="46.6973400" lon="6.1873430">
        <ele>944.4</ele>
        <time>2022-07-23T10:13:38Z</time>
      </trkpt>
      <trkpt lat="46.6973140" lon="6.1872940">
        <ele>944.4</ele>
        <time>2022-07-23T10:13:39Z</time>
      </trkpt>
      <trkpt lat="46.6972890" lon="6.1872440">
        <ele>944.4</ele>
        <time>2022-07-23T10:13:40Z</time>
      </trkpt>
      <trkpt lat="46.6971960" lon="6.1870540">
        <ele>944.2</ele>
        <time>2022-07-23T10:13:44Z</time>
      </trkpt>
      <trkpt lat="46.6970490" lon="6.1868070">
        <ele>944.4</ele>
        <time>2022-07-23T10:13:50Z</time>
      </trkpt>
      <trkpt lat="46.6969200" lon="6.1866580">
        <ele>944.6</ele>
        <time>2022-07-23T10:13:55Z</time>
      </trkpt>
      <trkpt lat="46.6968450" lon="6.1865630">
        <ele>944.8</ele>
        <time>2022-07-23T10:13:58Z</time>
      </trkpt>
      <trkpt lat="46.6966930" lon="6.1863830">
        <ele>945.2</ele>
        <time>2022-07-23T10:14:04Z</time>
      </trkpt>
      <trkpt lat="46.6966180" lon="6.1863340">
        <ele>945.4</ele>
        <time>2022-07-23T10:14:07Z</time>
      </trkpt>
      <trkpt lat="46.6965840" lon="6.1863110">
        <ele>945.8</ele>
        <time>2022-07-23T10:14:09Z</time>
      </trkpt>
      <trkpt lat="46.6965090" lon="6.1861920">
        <ele>946.2</ele>
        <time>2022-07-23T10:14:14Z</time>
      </trkpt>
      <trkpt lat="46.6962970" lon="6.1860360">
        <ele>946.2</ele>
        <time>2022-07-23T10:14:21Z</time>
      </trkpt>
      <trkpt lat="46.6961850" lon="6.1859780">
        <ele>946.0</ele>
        <time>2022-07-23T10:14:24Z</time>
      </trkpt>
      <trkpt lat="46.6960800" lon="6.1859140">
        <ele>945.8</ele>
        <time>2022-07-23T10:14:27Z</time>
      </trkpt>
      <trkpt lat="46.6958630" lon="6.1857830">
        <ele>945.2</ele>
        <time>2022-07-23T10:14:34Z</time>
      </trkpt>
      <trkpt lat="46.6956690" lon="6.1857350">
        <ele>945.0</ele>
        <time>2022-07-23T10:14:40Z</time>
      </trkpt>
      <trkpt lat="46.6954640" lon="6.1856720">
        <ele>945.2</ele>
        <time>2022-07-23T10:14:47Z</time>
      </trkpt>
      <trkpt lat="46.6952960" lon="6.1855680">
        <ele>946.0</ele>
        <time>2022-07-23T10:14:53Z</time>
      </trkpt>
      <trkpt lat="46.6951880" lon="6.1854750">
        <ele>946.4</ele>
        <time>2022-07-23T10:14:57Z</time>
      </trkpt>
      <trkpt lat="46.6951290" lon="6.1854310">
        <ele>946.4</ele>
        <time>2022-07-23T10:14:59Z</time>
      </trkpt>
      <trkpt lat="46.6949560" lon="6.1853350">
        <ele>946.8</ele>
        <time>2022-07-23T10:15:04Z</time>
      </trkpt>
      <trkpt lat="46.6947360" lon="6.1851940">
        <ele>946.8</ele>
        <time>2022-07-23T10:15:10Z</time>
      </trkpt>
      <trkpt lat="46.6946840" lon="6.1850310">
        <ele>946.8</ele>
        <time>2022-07-23T10:15:14Z</time>
      </trkpt>
      <trkpt lat="46.6946960" lon="6.1847960">
        <ele>947.0</ele>
        <time>2022-07-23T10:15:20Z</time>
      </trkpt>
      <trkpt lat="46.6947960" lon="6.1846220">
        <ele>946.8</ele>
        <time>2022-07-23T10:15:25Z</time>
      </trkpt>
      <trkpt lat="46.6949580" lon="6.1845110">
        <ele>946.8</ele>
        <time>2022-07-23T10:15:30Z</time>
      </trkpt>
      <trkpt lat="46.6950660" lon="6.1844100">
        <ele>946.8</ele>
        <time>2022-07-23T10:15:35Z</time>
      </trkpt>
      <trkpt lat="46.6951790" lon="6.1843370">
        <ele>946.8</ele>
        <time>2022-07-23T10:15:41Z</time>
      </trkpt>
      <trkpt lat="46.6952720" lon="6.1842560">
        <ele>947.2</ele>
        <time>2022-07-23T10:15:46Z</time>
      </trkpt>
      <trkpt lat="46.6953880" lon="6.1840690">
        <ele>948.2</ele>
        <time>2022-07-23T10:15:52Z</time>
      </trkpt>
      <trkpt lat="46.6954010" lon="6.1840390">
        <ele>948.4</ele>
        <time>2022-07-23T10:15:53Z</time>
      </trkpt>
      <trkpt lat="46.6955060" lon="6.1838250">
        <ele>949.0</ele>
        <time>2022-07-23T10:15:59Z</time>
      </trkpt>
      <trkpt lat="46.6955300" lon="6.1837290">
        <ele>949.4</ele>
        <time>2022-07-23T10:16:01Z</time>
      </trkpt>
      <trkpt lat="46.6955410" lon="6.1836000">
        <ele>949.4</ele>
        <time>2022-07-23T10:16:04Z</time>
      </trkpt>
      <trkpt lat="46.6955270" lon="6.1833510">
        <ele>949.6</ele>
        <time>2022-07-23T10:16:10Z</time>
      </trkpt>
      <trkpt lat="46.6954810" lon="6.1831460">
        <ele>949.8</ele>
        <time>2022-07-23T10:16:16Z</time>
      </trkpt>
      <trkpt lat="46.6954400" lon="6.1829660">
        <ele>950.2</ele>
        <time>2022-07-23T10:16:22Z</time>
      </trkpt>
      <trkpt lat="46.6954370" lon="6.1829280">
        <ele>950.4</ele>
        <time>2022-07-23T10:16:23Z</time>
      </trkpt>
      <trkpt lat="46.6954280" lon="6.1828300">
        <ele>950.6</ele>
        <time>2022-07-23T10:16:26Z</time>
      </trkpt>
      <trkpt lat="46.6954290" lon="6.1828020">
        <ele>950.8</ele>
        <time>2022-07-23T10:16:27Z</time>
      </trkpt>
      <trkpt lat="46.6954320" lon="6.1825990">
        <ele>951.4</ele>
        <time>2022-07-23T10:16:31Z</time>
      </trkpt>
      <trkpt lat="46.6954350" lon="6.1825440">
        <ele>951.6</ele>
        <time>2022-07-23T10:16:32Z</time>
      </trkpt>
      <trkpt lat="46.6954690" lon="6.1822520">
        <ele>952.0</ele>
        <time>2022-07-23T10:16:38Z</time>
      </trkpt>
      <trkpt lat="46.6954510" lon="6.1820060">
        <ele>952.0</ele>
        <time>2022-07-23T10:16:43Z</time>
      </trkpt>
      <trkpt lat="46.6953690" lon="6.1817650">
        <ele>952.0</ele>
        <time>2022-07-23T10:16:49Z</time>
      </trkpt>
      <trkpt lat="46.6953280" lon="6.1816010">
        <ele>952.2</ele>
        <time>2022-07-23T10:16:52Z</time>
      </trkpt>
      <trkpt lat="46.6952940" lon="6.1815320">
        <ele>952.4</ele>
        <time>2022-07-23T10:16:53Z</time>
      </trkpt>
      <trkpt lat="46.6951760" lon="6.1813510">
        <ele>952.4</ele>
        <time>2022-07-23T10:16:57Z</time>
      </trkpt>
      <trkpt lat="46.6950280" lon="6.1811600">
        <ele>952.0</ele>
        <time>2022-07-23T10:17:04Z</time>
      </trkpt>
      <trkpt lat="46.6949370" lon="6.1810640">
        <ele>952.2</ele>
        <time>2022-07-23T10:17:11Z</time>
      </trkpt>
      <trkpt lat="46.6948850" lon="6.1809960">
        <ele>952.4</ele>
        <time>2022-07-23T10:17:15Z</time>
      </trkpt>
      <trkpt lat="46.6948590" lon="6.1809740">
        <ele>952.8</ele>
        <time>2022-07-23T10:17:17Z</time>
      </trkpt>
      <trkpt lat="46.6948460" lon="6.1809630">
        <ele>953.0</ele>
        <time>2022-07-23T10:17:18Z</time>
      </trkpt>
      <trkpt lat="46.6948010" lon="6.1809290">
        <ele>953.8</ele>
        <time>2022-07-23T10:17:21Z</time>
      </trkpt>
      <trkpt lat="46.6947490" lon="6.1808870">
        <ele>954.2</ele>
        <time>2022-07-23T10:17:25Z</time>
      </trkpt>
      <trkpt lat="46.6947020" lon="6.1808700">
        <ele>954.6</ele>
        <time>2022-07-23T10:17:28Z</time>
      </trkpt>
      <trkpt lat="46.6946470" lon="6.1808410">
        <ele>955.8</ele>
        <time>2022-07-23T10:17:32Z</time>
      </trkpt>
      <trkpt lat="46.6945900" lon="6.1808180">
        <ele>956.0</ele>
        <time>2022-07-23T10:17:35Z</time>
      </trkpt>
      <trkpt lat="46.6945590" lon="6.1808110">
        <ele>956.6</ele>
        <time>2022-07-23T10:17:37Z</time>
      </trkpt>
      <trkpt lat="46.6945460" lon="6.1807980">
        <ele>956.8</ele>
        <time>2022-07-23T10:17:38Z</time>
      </trkpt>
      <trkpt lat="46.6944770" lon="6.1807430">
        <ele>957.4</ele>
        <time>2022-07-23T10:17:44Z</time>
      </trkpt>
      <trkpt lat="46.6944600" lon="6.1807290">
        <ele>957.6</ele>
        <time>2022-07-23T10:17:45Z</time>
      </trkpt>
      <trkpt lat="46.6943970" lon="6.1807090">
        <ele>958.0</ele>
        <time>2022-07-23T10:17:48Z</time>
      </trkpt>
      <trkpt lat="46.6943100" lon="6.1806690">
        <ele>958.6</ele>
        <time>2022-07-23T10:17:53Z</time>
      </trkpt>
      <trkpt lat="46.6942500" lon="6.1806640">
        <ele>959.0</ele>
        <time>2022-07-23T10:17:57Z</time>
      </trkpt>
      <trkpt lat="46.6941950" lon="6.1806380">
        <ele>960.0</ele>
        <time>2022-07-23T10:18:01Z</time>
      </trkpt>
      <trkpt lat="46.6941820" lon="6.1806310">
        <ele>960.2</ele>
        <time>2022-07-23T10:18:02Z</time>
      </trkpt>
      <trkpt lat="46.6941350" lon="6.1805900">
        <ele>961.2</ele>
        <time>2022-07-23T10:18:07Z</time>
      </trkpt>
      <trkpt lat="46.6941030" lon="6.1805740">
        <ele>961.8</ele>
        <time>2022-07-23T10:18:10Z</time>
      </trkpt>
      <trkpt lat="46.6940830" lon="6.1805600">
        <ele>962.2</ele>
        <time>2022-07-23T10:18:12Z</time>
      </trkpt>
      <trkpt lat="46.6940360" lon="6.1805220">
        <ele>963.4</ele>
        <time>2022-07-23T10:18:16Z</time>
      </trkpt>
      <trkpt lat="46.6939520" lon="6.1804270">
        <ele>964.4</ele>
        <time>2022-07-23T10:18:21Z</time>
      </trkpt>
      <trkpt lat="46.6938440" lon="6.1803200">
        <ele>965.2</ele>
        <time>2022-07-23T10:18:27Z</time>
      </trkpt>
      <trkpt lat="46.6937990" lon="6.1802730">
        <ele>965.4</ele>
        <time>2022-07-23T10:18:30Z</time>
      </trkpt>
      <trkpt lat="46.6936880" lon="6.1801650">
        <ele>965.8</ele>
        <time>2022-07-23T10:18:35Z</time>
      </trkpt>
      <trkpt lat="46.6935610" lon="6.1800260">
        <ele>966.4</ele>
        <time>2022-07-23T10:18:41Z</time>
      </trkpt>
      <trkpt lat="46.6934170" lon="6.1798570">
        <ele>966.6</ele>
        <time>2022-07-23T10:18:46Z</time>
      </trkpt>
      <trkpt lat="46.6932390" lon="6.1795840">
        <ele>966.6</ele>
        <time>2022-07-23T10:18:53Z</time>
      </trkpt>
      <trkpt lat="46.6931000" lon="6.1793660">
        <ele>966.6</ele>
        <time>2022-07-23T10:18:59Z</time>
      </trkpt>
      <trkpt lat="46.6929390" lon="6.1791780">
        <ele>966.6</ele>
        <time>2022-07-23T10:19:05Z</time>
      </trkpt>
      <trkpt lat="46.6928390" lon="6.1790640">
        <ele>967.0</ele>
        <time>2022-07-23T10:19:10Z</time>
      </trkpt>
      <trkpt lat="46.6927700" lon="6.1790070">
        <ele>967.2</ele>
        <time>2022-07-23T10:19:13Z</time>
      </trkpt>
      <trkpt lat="46.6927250" lon="6.1789730">
        <ele>967.6</ele>
        <time>2022-07-23T10:19:16Z</time>
      </trkpt>
      <trkpt lat="46.6926930" lon="6.1788070">
        <ele>968.0</ele>
        <time>2022-07-23T10:19:21Z</time>
      </trkpt>
      <trkpt lat="46.6926970" lon="6.1787640">
        <ele>968.2</ele>
        <time>2022-07-23T10:19:22Z</time>
      </trkpt>
      <trkpt lat="46.6926900" lon="6.1785780">
        <ele>968.6</ele>
        <time>2022-07-23T10:19:25Z</time>
      </trkpt>
      <trkpt lat="46.6927510" lon="6.1784150">
        <ele>968.8</ele>
        <time>2022-07-23T10:19:29Z</time>
      </trkpt>
      <trkpt lat="46.6929050" lon="6.1783120">
        <ele>968.6</ele>
        <time>2022-07-23T10:19:34Z</time>
      </trkpt>
      <trkpt lat="46.6930760" lon="6.1781710">
        <ele>968.6</ele>
        <time>2022-07-23T10:19:40Z</time>
      </trkpt>
      <trkpt lat="46.6931590" lon="6.1779450">
        <ele>969.0</ele>
        <time>2022-07-23T10:19:45Z</time>
      </trkpt>
      <trkpt lat="46.6931710" lon="6.1778590">
        <ele>969.2</ele>
        <time>2022-07-23T10:19:47Z</time>
      </trkpt>
      <trkpt lat="46.6931770" lon="6.1776990">
        <ele>969.8</ele>
        <time>2022-07-23T10:19:51Z</time>
      </trkpt>
      <trkpt lat="46.6931670" lon="6.1774090">
        <ele>970.2</ele>
        <time>2022-07-23T10:19:58Z</time>
      </trkpt>
      <trkpt lat="46.6931670" lon="6.1773720">
        <ele>970.0</ele>
        <time>2022-07-23T10:19:59Z</time>
      </trkpt>
      <trkpt lat="46.6932160" lon="6.1771940">
        <ele>971.0</ele>
        <time>2022-07-23T10:20:05Z</time>
      </trkpt>
      <trkpt lat="46.6932400" lon="6.1771770">
        <ele>971.2</ele>
        <time>2022-07-23T10:20:08Z</time>
      </trkpt>
      <trkpt lat="46.6932790" lon="6.1771880">
        <ele>971.6</ele>
        <time>2022-07-23T10:20:10Z</time>
      </trkpt>
      <trkpt lat="46.6933870" lon="6.1771950">
        <ele>972.2</ele>
        <time>2022-07-23T10:20:13Z</time>
      </trkpt>
      <trkpt lat="46.6934190" lon="6.1772040">
        <ele>972.2</ele>
        <time>2022-07-23T10:20:14Z</time>
      </trkpt>
      <trkpt lat="46.6935790" lon="6.1772010">
        <ele>972.4</ele>
        <time>2022-07-23T10:20:19Z</time>
      </trkpt>
      <trkpt lat="46.6937110" lon="6.1771830">
        <ele>972.6</ele>
        <time>2022-07-23T10:20:24Z</time>
      </trkpt>
      <trkpt lat="46.6938540" lon="6.1771940">
        <ele>973.2</ele>
        <time>2022-07-23T10:20:30Z</time>
      </trkpt>
      <trkpt lat="46.6940300" lon="6.1772310">
        <ele>974.0</ele>
        <time>2022-07-23T10:20:35Z</time>
      </trkpt>
      <trkpt lat="46.6940600" lon="6.1772310">
        <ele>974.2</ele>
        <time>2022-07-23T10:20:36Z</time>
      </trkpt>
      <trkpt lat="46.6941820" lon="6.1772450">
        <ele>974.8</ele>
        <time>2022-07-23T10:20:41Z</time>
      </trkpt>
      <trkpt lat="46.6942860" lon="6.1772390">
        <ele>975.2</ele>
        <time>2022-07-23T10:20:44Z</time>
      </trkpt>
      <trkpt lat="46.6943380" lon="6.1772340">
        <ele>975.4</ele>
        <time>2022-07-23T10:20:45Z</time>
      </trkpt>
      <trkpt lat="46.6945360" lon="6.1771560">
        <ele>975.4</ele>
        <time>2022-07-23T10:20:49Z</time>
      </trkpt>
      <trkpt lat="46.6945760" lon="6.1771120">
        <ele>975.4</ele>
        <time>2022-07-23T10:20:50Z</time>
      </trkpt>
      <trkpt lat="46.6946780" lon="6.1768880">
        <ele>975.4</ele>
        <time>2022-07-23T10:20:54Z</time>
      </trkpt>
      <trkpt lat="46.6947300" lon="6.1766930">
        <ele>975.2</ele>
        <time>2022-07-23T10:20:57Z</time>
      </trkpt>
      <trkpt lat="46.6947790" lon="6.1764200">
        <ele>975.0</ele>
        <time>2022-07-23T10:21:01Z</time>
      </trkpt>
      <trkpt lat="46.6947710" lon="6.1760680">
        <ele>974.8</ele>
        <time>2022-07-23T10:21:06Z</time>
      </trkpt>
      <trkpt lat="46.6947660" lon="6.1759910">
        <ele>974.6</ele>
        <time>2022-07-23T10:21:07Z</time>
      </trkpt>
      <trkpt lat="46.6947600" lon="6.1757680">
        <ele>974.2</ele>
        <time>2022-07-23T10:21:10Z</time>
      </trkpt>
      <trkpt lat="46.6947570" lon="6.1757260">
        <ele>974.0</ele>
        <time>2022-07-23T10:21:11Z</time>
      </trkpt>
      <trkpt lat="46.6947640" lon="6.1756450">
        <ele>973.4</ele>
        <time>2022-07-23T10:21:15Z</time>
      </trkpt>
      <trkpt lat="46.6947560" lon="6.1756340">
        <ele>973.2</ele>
        <time>2022-07-23T10:21:16Z</time>
      </trkpt>
      <trkpt lat="46.6947460" lon="6.1756300">
        <ele>973.0</ele>
        <time>2022-07-23T10:21:17Z</time>
      </trkpt>
      <trkpt lat="46.6947440" lon="6.1756640">
        <ele>971.8</ele>
        <time>2022-07-23T10:21:20Z</time>
      </trkpt>
      <trkpt lat="46.6947340" lon="6.1757540">
        <ele>971.2</ele>
        <time>2022-07-23T10:21:26Z</time>
      </trkpt>
      <trkpt lat="46.6946870" lon="6.1757240">
        <ele>971.2</ele>
        <time>2022-07-23T10:21:30Z</time>
      </trkpt>
      <trkpt lat="46.6946470" lon="6.1756420">
        <ele>971.0</ele>
        <time>2022-07-23T10:21:33Z</time>
      </trkpt>
      <trkpt lat="46.6946100" lon="6.1755760">
        <ele>971.2</ele>
        <time>2022-07-23T10:21:35Z</time>
      </trkpt>
      <trkpt lat="46.6944940" lon="6.1753350">
        <ele>971.6</ele>
        <time>2022-07-23T10:21:41Z</time>
      </trkpt>
      <trkpt lat="46.6944450" lon="6.1751760">
        <ele>971.6</ele>
        <time>2022-07-23T10:21:44Z</time>
      </trkpt>
      <trkpt lat="46.6943940" lon="6.1749590">
        <ele>971.6</ele>
        <time>2022-07-23T10:21:48Z</time>
      </trkpt>
      <trkpt lat="46.6943140" lon="6.1746770">
        <ele>971.6</ele>
        <time>2022-07-23T10:21:54Z</time>
      </trkpt>
      <trkpt lat="46.6942150" lon="6.1744310">
        <ele>971.6</ele>
        <time>2022-07-23T10:22:00Z</time>
      </trkpt>
      <trkpt lat="46.6941240" lon="6.1742390">
        <ele>972.0</ele>
        <time>2022-07-23T10:22:06Z</time>
      </trkpt>
      <trkpt lat="46.6940440" lon="6.1741190">
        <ele>972.6</ele>
        <time>2022-07-23T10:22:12Z</time>
      </trkpt>
      <trkpt lat="46.6940320" lon="6.1741090">
        <ele>972.8</ele>
        <time>2022-07-23T10:22:13Z</time>
      </trkpt>
      <trkpt lat="46.6939970" lon="6.1740690">
        <ele>973.4</ele>
        <time>2022-07-23T10:22:16Z</time>
      </trkpt>
      <trkpt lat="46.6939670" lon="6.1740480">
        <ele>974.0</ele>
        <time>2022-07-23T10:22:18Z</time>
      </trkpt>
      <trkpt lat="46.6939420" lon="6.1740290">
        <ele>974.4</ele>
        <time>2022-07-23T10:22:20Z</time>
      </trkpt>
      <trkpt lat="46.6939130" lon="6.1739920">
        <ele>975.0</ele>
        <time>2022-07-23T10:22:23Z</time>
      </trkpt>
      <trkpt lat="46.6938900" lon="6.1739530">
        <ele>976.0</ele>
        <time>2022-07-23T10:22:27Z</time>
      </trkpt>
      <trkpt lat="46.6938490" lon="6.1739070">
        <ele>977.0</ele>
        <time>2022-07-23T10:22:33Z</time>
      </trkpt>
      <trkpt lat="46.6938250" lon="6.1738790">
        <ele>977.6</ele>
        <time>2022-07-23T10:22:37Z</time>
      </trkpt>
      <trkpt lat="46.6938110" lon="6.1738660">
        <ele>978.0</ele>
        <time>2022-07-23T10:22:39Z</time>
      </trkpt>
      <trkpt lat="46.6937230" lon="6.1738080">
        <ele>979.0</ele>
        <time>2022-07-23T10:22:46Z</time>
      </trkpt>
      <trkpt lat="46.6936780" lon="6.1737730">
        <ele>979.6</ele>
        <time>2022-07-23T10:22:50Z</time>
      </trkpt>
      <trkpt lat="46.6936300" lon="6.1737530">
        <ele>980.4</ele>
        <time>2022-07-23T10:22:54Z</time>
      </trkpt>
      <trkpt lat="46.6935520" lon="6.1737320">
        <ele>981.4</ele>
        <time>2022-07-23T10:23:02Z</time>
      </trkpt>
      <trkpt lat="46.6935420" lon="6.1737290">
        <ele>981.6</ele>
        <time>2022-07-23T10:23:03Z</time>
      </trkpt>
      <trkpt lat="46.6934830" lon="6.1737010">
        <ele>982.6</ele>
        <time>2022-07-23T10:23:09Z</time>
      </trkpt>
      <trkpt lat="46.6934320" lon="6.1736600">
        <ele>983.6</ele>
        <time>2022-07-23T10:23:15Z</time>
      </trkpt>
      <trkpt lat="46.6933870" lon="6.1736090">
        <ele>984.6</ele>
        <time>2022-07-23T10:23:22Z</time>
      </trkpt>
      <trkpt lat="46.6933540" lon="6.1735670">
        <ele>985.4</ele>
        <time>2022-07-23T10:23:26Z</time>
      </trkpt>
      <trkpt lat="46.6933360" lon="6.1735460">
        <ele>985.8</ele>
        <time>2022-07-23T10:23:29Z</time>
      </trkpt>
      <trkpt lat="46.6932930" lon="6.1735010">
        <ele>986.8</ele>
        <time>2022-07-23T10:23:35Z</time>
      </trkpt>
      <trkpt lat="46.6932850" lon="6.1734850">
        <ele>987.2</ele>
        <time>2022-07-23T10:23:37Z</time>
      </trkpt>
      <trkpt lat="46.6932520" lon="6.1734350">
        <ele>988.0</ele>
        <time>2022-07-23T10:23:43Z</time>
      </trkpt>
      <trkpt lat="46.6932120" lon="6.1733780">
        <ele>989.0</ele>
        <time>2022-07-23T10:23:48Z</time>
      </trkpt>
      <trkpt lat="46.6931920" lon="6.1733430">
        <ele>989.8</ele>
        <time>2022-07-23T10:23:51Z</time>
      </trkpt>
      <trkpt lat="46.6931860" lon="6.1733330">
        <ele>990.0</ele>
        <time>2022-07-23T10:23:52Z</time>
      </trkpt>
      <trkpt lat="46.6931160" lon="6.1732500">
        <ele>991.2</ele>
        <time>2022-07-23T10:23:59Z</time>
      </trkpt>
      <trkpt lat="46.6930620" lon="6.1731630">
        <ele>992.4</ele>
        <time>2022-07-23T10:24:05Z</time>
      </trkpt>
      <trkpt lat="46.6930540" lon="6.1731490">
        <ele>992.4</ele>
        <time>2022-07-23T10:24:06Z</time>
      </trkpt>
      <trkpt lat="46.6930120" lon="6.1730790">
        <ele>993.6</ele>
        <time>2022-07-23T10:24:11Z</time>
      </trkpt>
      <trkpt lat="46.6929640" lon="6.1730090">
        <ele>994.4</ele>
        <time>2022-07-23T10:24:17Z</time>
      </trkpt>
      <trkpt lat="46.6929390" lon="6.1729870">
        <ele>995.0</ele>
        <time>2022-07-23T10:24:19Z</time>
      </trkpt>
      <trkpt lat="46.6929120" lon="6.1729670">
        <ele>995.6</ele>
        <time>2022-07-23T10:24:21Z</time>
      </trkpt>
      <trkpt lat="46.6928420" lon="6.1728590">
        <ele>996.4</ele>
        <time>2022-07-23T10:24:27Z</time>
      </trkpt>
      <trkpt lat="46.6928180" lon="6.1728310">
        <ele>997.0</ele>
        <time>2022-07-23T10:24:29Z</time>
      </trkpt>
      <trkpt lat="46.6927000" lon="6.1726560">
        <ele>997.6</ele>
        <time>2022-07-23T10:24:38Z</time>
      </trkpt>
      <trkpt lat="46.6926840" lon="6.1726360">
        <ele>997.6</ele>
        <time>2022-07-23T10:24:39Z</time>
      </trkpt>
      <trkpt lat="46.6925960" lon="6.1725310">
        <ele>998.2</ele>
        <time>2022-07-23T10:24:46Z</time>
      </trkpt>
      <trkpt lat="46.6925430" lon="6.1724680">
        <ele>998.8</ele>
        <time>2022-07-23T10:24:50Z</time>
      </trkpt>
      <trkpt lat="46.6925200" lon="6.1724390">
        <ele>999.0</ele>
        <time>2022-07-23T10:24:52Z</time>
      </trkpt>
      <trkpt lat="46.6924630" lon="6.1723710">
        <ele>1000.0</ele>
        <time>2022-07-23T10:24:56Z</time>
      </trkpt>
      <trkpt lat="46.6924410" lon="6.1723210">
        <ele>1000.2</ele>
        <time>2022-07-23T10:24:58Z</time>
      </trkpt>
      <trkpt lat="46.6923340" lon="6.1721270">
        <ele>1000.8</ele>
        <time>2022-07-23T10:25:03Z</time>
      </trkpt>
      <trkpt lat="46.6921980" lon="6.1717760">
        <ele>1000.8</ele>
        <time>2022-07-23T10:25:09Z</time>
      </trkpt>
      <trkpt lat="46.6920620" lon="6.1715390">
        <ele>1000.2</ele>
        <time>2022-07-23T10:25:14Z</time>
      </trkpt>
      <trkpt lat="46.6920180" lon="6.1714590">
        <ele>999.8</ele>
        <time>2022-07-23T10:25:16Z</time>
      </trkpt>
      <trkpt lat="46.6919310" lon="6.1712840">
        <ele>999.4</ele>
        <time>2022-07-23T10:25:20Z</time>
      </trkpt>
      <trkpt lat="46.6917140" lon="6.1708990">
        <ele>999.0</ele>
        <time>2022-07-23T10:25:26Z</time>
      </trkpt>
      <trkpt lat="46.6914790" lon="6.1705270">
        <ele>998.8</ele>
        <time>2022-07-23T10:25:31Z</time>
      </trkpt>
      <trkpt lat="46.6914320" lon="6.1704570">
        <ele>998.4</ele>
        <time>2022-07-23T10:25:32Z</time>
      </trkpt>
      <trkpt lat="46.6912890" lon="6.1702530">
        <ele>997.4</ele>
        <time>2022-07-23T10:25:35Z</time>
      </trkpt>
      <trkpt lat="46.6912010" lon="6.1701200">
        <ele>996.6</ele>
        <time>2022-07-23T10:25:37Z</time>
      </trkpt>
      <trkpt lat="46.6911480" lon="6.1700580">
        <ele>996.4</ele>
        <time>2022-07-23T10:25:38Z</time>
      </trkpt>
      <trkpt lat="46.6909720" lon="6.1698680">
        <ele>995.8</ele>
        <time>2022-07-23T10:25:42Z</time>
      </trkpt>
      <trkpt lat="46.6908410" lon="6.1697180">
        <ele>995.6</ele>
        <time>2022-07-23T10:25:47Z</time>
      </trkpt>
      <trkpt lat="46.6907370" lon="6.1696010">
        <ele>996.4</ele>
        <time>2022-07-23T10:25:52Z</time>
      </trkpt>
      <trkpt lat="46.6906650" lon="6.1695200">
        <ele>997.4</ele>
        <time>2022-07-23T10:25:56Z</time>
      </trkpt>
      <trkpt lat="46.6906340" lon="6.1694780">
        <ele>998.0</ele>
        <time>2022-07-23T10:25:58Z</time>
      </trkpt>
      <trkpt lat="46.6906020" lon="6.1694360">
        <ele>998.4</ele>
        <time>2022-07-23T10:26:00Z</time>
      </trkpt>
      <trkpt lat="46.6905360" lon="6.1693200">
        <ele>999.2</ele>
        <time>2022-07-23T10:26:05Z</time>
      </trkpt>
      <trkpt lat="46.6905240" lon="6.1692930">
        <ele>999.4</ele>
        <time>2022-07-23T10:26:06Z</time>
      </trkpt>
      <trkpt lat="46.6904590" lon="6.1691320">
        <ele>1000.0</ele>
        <time>2022-07-23T10:26:12Z</time>
      </trkpt>
      <trkpt lat="46.6903780" lon="6.1690300">
        <ele>1000.4</ele>
        <time>2022-07-23T10:26:17Z</time>
      </trkpt>
      <trkpt lat="46.6903500" lon="6.1689850">
        <ele>1000.6</ele>
        <time>2022-07-23T10:26:19Z</time>
      </trkpt>
      <trkpt lat="46.6902550" lon="6.1688740">
        <ele>1001.4</ele>
        <time>2022-07-23T10:26:25Z</time>
      </trkpt>
      <trkpt lat="46.6902350" lon="6.1688460">
        <ele>1002.0</ele>
        <time>2022-07-23T10:26:27Z</time>
      </trkpt>
      <trkpt lat="46.6902000" lon="6.1687960">
        <ele>1002.4</ele>
        <time>2022-07-23T10:26:30Z</time>
      </trkpt>
      <trkpt lat="46.6901510" lon="6.1687300">
        <ele>1003.2</ele>
        <time>2022-07-23T10:26:34Z</time>
      </trkpt>
      <trkpt lat="46.6901300" lon="6.1686980">
        <ele>1003.6</ele>
        <time>2022-07-23T10:26:36Z</time>
      </trkpt>
      <trkpt lat="46.6900980" lon="6.1686370">
        <ele>1004.2</ele>
        <time>2022-07-23T10:26:40Z</time>
      </trkpt>
      <trkpt lat="46.6900910" lon="6.1686190">
        <ele>1004.4</ele>
        <time>2022-07-23T10:26:41Z</time>
      </trkpt>
      <trkpt lat="46.6900810" lon="6.1686060">
        <ele>1004.4</ele>
        <time>2022-07-23T10:26:42Z</time>
      </trkpt>
      <trkpt lat="46.6900580" lon="6.1685840">
        <ele>1004.8</ele>
        <time>2022-07-23T10:26:44Z</time>
      </trkpt>
      <trkpt lat="46.6900010" lon="6.1685330">
        <ele>1005.2</ele>
        <time>2022-07-23T10:26:48Z</time>
      </trkpt>
      <trkpt lat="46.6899610" lon="6.1684870">
        <ele>1005.8</ele>
        <time>2022-07-23T10:26:51Z</time>
      </trkpt>
      <trkpt lat="46.6899220" lon="6.1684380">
        <ele>1006.2</ele>
        <time>2022-07-23T10:26:55Z</time>
      </trkpt>
      <trkpt lat="46.6898730" lon="6.1683760">
        <ele>1006.8</ele>
        <time>2022-07-23T10:26:59Z</time>
      </trkpt>
      <trkpt lat="46.6898520" lon="6.1683460">
        <ele>1007.2</ele>
        <time>2022-07-23T10:27:01Z</time>
      </trkpt>
      <trkpt lat="46.6898240" lon="6.1682890">
        <ele>1007.6</ele>
        <time>2022-07-23T10:27:04Z</time>
      </trkpt>
      <trkpt lat="46.6898120" lon="6.1682680">
        <ele>1007.8</ele>
        <time>2022-07-23T10:27:05Z</time>
      </trkpt>
      <trkpt lat="46.6897800" lon="6.1681890">
        <ele>1008.4</ele>
        <time>2022-07-23T10:27:08Z</time>
      </trkpt>
      <trkpt lat="46.6897510" lon="6.1680670">
        <ele>1008.8</ele>
        <time>2022-07-23T10:27:12Z</time>
      </trkpt>
      <trkpt lat="46.6897430" lon="6.1679770">
        <ele>1008.8</ele>
        <time>2022-07-23T10:27:14Z</time>
      </trkpt>
      <trkpt lat="46.6897360" lon="6.1678080">
        <ele>1008.8</ele>
        <time>2022-07-23T10:27:17Z</time>
      </trkpt>
      <trkpt lat="46.6897080" lon="6.1676780">
        <ele>1008.8</ele>
        <time>2022-07-23T10:27:19Z</time>
      </trkpt>
      <trkpt lat="46.6896420" lon="6.1675000">
        <ele>1008.8</ele>
        <time>2022-07-23T10:27:23Z</time>
      </trkpt>
      <trkpt lat="46.6895560" lon="6.1672680">
        <ele>1007.8</ele>
        <time>2022-07-23T10:27:29Z</time>
      </trkpt>
      <trkpt lat="46.6894890" lon="6.1670100">
        <ele>1008.0</ele>
        <time>2022-07-23T10:27:36Z</time>
      </trkpt>
      <trkpt lat="46.6894300" lon="6.1668160">
        <ele>1008.4</ele>
        <time>2022-07-23T10:27:41Z</time>
      </trkpt>
      <trkpt lat="46.6893440" lon="6.1665710">
        <ele>1008.6</ele>
        <time>2022-07-23T10:27:46Z</time>
      </trkpt>
      <trkpt lat="46.6892850" lon="6.1663690">
        <ele>1008.6</ele>
        <time>2022-07-23T10:27:50Z</time>
      </trkpt>
      <trkpt lat="46.6892110" lon="6.1661020">
        <ele>1007.2</ele>
        <time>2022-07-23T10:27:55Z</time>
      </trkpt>
      <trkpt lat="46.6891630" lon="6.1659510">
        <ele>1006.2</ele>
        <time>2022-07-23T10:27:58Z</time>
      </trkpt>
      <trkpt lat="46.6891510" lon="6.1658880">
        <ele>1006.0</ele>
        <time>2022-07-23T10:27:59Z</time>
      </trkpt>
      <trkpt lat="46.6891230" lon="6.1657620">
        <ele>1005.0</ele>
        <time>2022-07-23T10:28:01Z</time>
      </trkpt>
      <trkpt lat="46.6890620" lon="6.1656110">
        <ele>1004.2</ele>
        <time>2022-07-23T10:28:04Z</time>
      </trkpt>
      <trkpt lat="46.6890460" lon="6.1655720">
        <ele>1003.8</ele>
        <time>2022-07-23T10:28:05Z</time>
      </trkpt>
      <trkpt lat="46.6890090" lon="6.1654740">
        <ele>1002.8</ele>
        <time>2022-07-23T10:28:08Z</time>
      </trkpt>
      <trkpt lat="46.6889960" lon="6.1654350">
        <ele>1002.4</ele>
        <time>2022-07-23T10:28:09Z</time>
      </trkpt>
      <trkpt lat="46.6889600" lon="6.1653600">
        <ele>1001.2</ele>
        <time>2022-07-23T10:28:11Z</time>
      </trkpt>
      <trkpt lat="46.6889210" lon="6.1653000">
        <ele>999.8</ele>
        <time>2022-07-23T10:28:13Z</time>
      </trkpt>
      <trkpt lat="46.6889030" lon="6.1652630">
        <ele>999.6</ele>
        <time>2022-07-23T10:28:14Z</time>
      </trkpt>
      <trkpt lat="46.6888180" lon="6.1651070">
        <ele>998.6</ele>
        <time>2022-07-23T10:28:18Z</time>
      </trkpt>
      <trkpt lat="46.6887930" lon="6.1650550">
        <ele>998.6</ele>
        <time>2022-07-23T10:28:19Z</time>
      </trkpt>
      <trkpt lat="46.6886810" lon="6.1647950">
        <ele>998.0</ele>
        <time>2022-07-23T10:28:25Z</time>
      </trkpt>
      <trkpt lat="46.6886380" lon="6.1645750">
        <ele>998.0</ele>
        <time>2022-07-23T10:28:31Z</time>
      </trkpt>
      <trkpt lat="46.6885400" lon="6.1643410">
        <ele>997.8</ele>
        <time>2022-07-23T10:28:35Z</time>
      </trkpt>
      <trkpt lat="46.6885190" lon="6.1642780">
        <ele>997.8</ele>
        <time>2022-07-23T10:28:36Z</time>
      </trkpt>
      <trkpt lat="46.6884130" lon="6.1640380">
        <ele>997.6</ele>
        <time>2022-07-23T10:28:39Z</time>
      </trkpt>
      <trkpt lat="46.6883330" lon="6.1638380">
        <ele>997.0</ele>
        <time>2022-07-23T10:28:42Z</time>
      </trkpt>
      <trkpt lat="46.6883090" lon="6.1637880">
        <ele>996.8</ele>
        <time>2022-07-23T10:28:43Z</time>
      </trkpt>
      <trkpt lat="46.6882590" lon="6.1636220">
        <ele>995.8</ele>
        <time>2022-07-23T10:28:47Z</time>
      </trkpt>
      <trkpt lat="46.6882200" lon="6.1634910">
        <ele>994.4</ele>
        <time>2022-07-23T10:28:50Z</time>
      </trkpt>
      <trkpt lat="46.6881980" lon="6.1633800">
        <ele>993.8</ele>
        <time>2022-07-23T10:28:52Z</time>
      </trkpt>
      <trkpt lat="46.6882060" lon="6.1633010">
        <ele>993.6</ele>
        <time>2022-07-23T10:28:53Z</time>
      </trkpt>
      <trkpt lat="46.6882100" lon="6.1632250">
        <ele>993.4</ele>
        <time>2022-07-23T10:28:54Z</time>
      </trkpt>
      <trkpt lat="46.6881970" lon="6.1630610">
        <ele>992.8</ele>
        <time>2022-07-23T10:28:56Z</time>
      </trkpt>
      <trkpt lat="46.6881570" lon="6.1628750">
        <ele>992.2</ele>
        <time>2022-07-23T10:28:58Z</time>
      </trkpt>
      <trkpt lat="46.6881310" lon="6.1627800">
        <ele>991.8</ele>
        <time>2022-07-23T10:28:59Z</time>
      </trkpt>
      <trkpt lat="46.6881050" lon="6.1626870">
        <ele>991.2</ele>
        <time>2022-07-23T10:29:00Z</time>
      </trkpt>
      <trkpt lat="46.6880530" lon="6.1625190">
        <ele>990.4</ele>
        <time>2022-07-23T10:29:02Z</time>
      </trkpt>
      <trkpt lat="46.6879860" lon="6.1623320">
        <ele>989.4</ele>
        <time>2022-07-23T10:29:04Z</time>
      </trkpt>
      <trkpt lat="46.6879470" lon="6.1622450">
        <ele>989.0</ele>
        <time>2022-07-23T10:29:05Z</time>
      </trkpt>
      <trkpt lat="46.6878570" lon="6.1621050">
        <ele>987.8</ele>
        <time>2022-07-23T10:29:07Z</time>
      </trkpt>
      <trkpt lat="46.6878100" lon="6.1620480">
        <ele>987.4</ele>
        <time>2022-07-23T10:29:08Z</time>
      </trkpt>
      <trkpt lat="46.6877370" lon="6.1619430">
        <ele>987.0</ele>
        <time>2022-07-23T10:29:10Z</time>
      </trkpt>
      <trkpt lat="46.6877030" lon="6.1618640">
        <ele>986.0</ele>
        <time>2022-07-23T10:29:11Z</time>
      </trkpt>
      <trkpt lat="46.6876540" lon="6.1616890">
        <ele>984.8</ele>
        <time>2022-07-23T10:29:13Z</time>
      </trkpt>
      <trkpt lat="46.6876390" lon="6.1612820">
        <ele>983.6</ele>
        <time>2022-07-23T10:29:17Z</time>
      </trkpt>
      <trkpt lat="46.6876340" lon="6.1608220">
        <ele>982.6</ele>
        <time>2022-07-23T10:29:21Z</time>
      </trkpt>
      <trkpt lat="46.6876280" lon="6.1605750">
        <ele>981.0</ele>
        <time>2022-07-23T10:29:23Z</time>
      </trkpt>
      <trkpt lat="46.6876340" lon="6.1604570">
        <ele>980.2</ele>
        <time>2022-07-23T10:29:24Z</time>
      </trkpt>
      <trkpt lat="46.6876380" lon="6.1603410">
        <ele>979.2</ele>
        <time>2022-07-23T10:29:25Z</time>
      </trkpt>
      <trkpt lat="46.6876330" lon="6.1602320">
        <ele>977.8</ele>
        <time>2022-07-23T10:29:26Z</time>
      </trkpt>
      <trkpt lat="46.6876260" lon="6.1601270">
        <ele>976.6</ele>
        <time>2022-07-23T10:29:27Z</time>
      </trkpt>
      <trkpt lat="46.6876050" lon="6.1599330">
        <ele>974.8</ele>
        <time>2022-07-23T10:29:29Z</time>
      </trkpt>
      <trkpt lat="46.6875410" lon="6.1597350">
        <ele>973.0</ele>
        <time>2022-07-23T10:29:31Z</time>
      </trkpt>
      <trkpt lat="46.6874670" lon="6.1595610">
        <ele>972.0</ele>
        <time>2022-07-23T10:29:33Z</time>
      </trkpt>
      <trkpt lat="46.6874150" lon="6.1593740">
        <ele>971.0</ele>
        <time>2022-07-23T10:29:35Z</time>
      </trkpt>
      <trkpt lat="46.6872910" lon="6.1589790">
        <ele>970.0</ele>
        <time>2022-07-23T10:29:39Z</time>
      </trkpt>
      <trkpt lat="46.6872520" lon="6.1587690">
        <ele>969.8</ele>
        <time>2022-07-23T10:29:41Z</time>
      </trkpt>
      <trkpt lat="46.6872400" lon="6.1584840">
        <ele>969.4</ele>
        <time>2022-07-23T10:29:44Z</time>
      </trkpt>
      <trkpt lat="46.6872750" lon="6.1583350">
        <ele>968.8</ele>
        <time>2022-07-23T10:29:46Z</time>
      </trkpt>
      <trkpt lat="46.6873270" lon="6.1582310">
        <ele>968.6</ele>
        <time>2022-07-23T10:29:48Z</time>
      </trkpt>
      <trkpt lat="46.6873740" lon="6.1581390">
        <ele>968.6</ele>
        <time>2022-07-23T10:29:50Z</time>
      </trkpt>
      <trkpt lat="46.6874220" lon="6.1580260">
        <ele>968.6</ele>
        <time>2022-07-23T10:29:52Z</time>
      </trkpt>
      <trkpt lat="46.6874440" lon="6.1579630">
        <ele>968.6</ele>
        <time>2022-07-23T10:29:53Z</time>
      </trkpt>
      <trkpt lat="46.6875060" lon="6.1577700">
        <ele>968.6</ele>
        <time>2022-07-23T10:29:56Z</time>
      </trkpt>
      <trkpt lat="46.6875310" lon="6.1576430">
        <ele>968.8</ele>
        <time>2022-07-23T10:29:58Z</time>
      </trkpt>
      <trkpt lat="46.6874920" lon="6.1574210">
        <ele>968.8</ele>
        <time>2022-07-23T10:30:02Z</time>
      </trkpt>
      <trkpt lat="46.6873790" lon="6.1572600">
        <ele>969.0</ele>
        <time>2022-07-23T10:30:06Z</time>
      </trkpt>
      <trkpt lat="46.6873360" lon="6.1571840">
        <ele>969.0</ele>
        <time>2022-07-23T10:30:08Z</time>
      </trkpt>
      <trkpt lat="46.6873450" lon="6.1570270">
        <ele>969.0</ele>
        <time>2022-07-23T10:30:12Z</time>
      </trkpt>
      <trkpt lat="46.6873800" lon="6.1568980">
        <ele>969.0</ele>
        <time>2022-07-23T10:30:15Z</time>
      </trkpt>
      <trkpt lat="46.6873590" lon="6.1568140">
        <ele>969.2</ele>
        <time>2022-07-23T10:30:17Z</time>
      </trkpt>
      <trkpt lat="46.6873110" lon="6.1567230">
        <ele>969.2</ele>
        <time>2022-07-23T10:30:20Z</time>
      </trkpt>
      <trkpt lat="46.6872540" lon="6.1566210">
        <ele>969.4</ele>
        <time>2022-07-23T10:30:23Z</time>
      </trkpt>
      <trkpt lat="46.6871580" lon="6.1564410">
        <ele>969.4</ele>
        <time>2022-07-23T10:30:28Z</time>
      </trkpt>
      <trkpt lat="46.6870590" lon="6.1561620">
        <ele>969.0</ele>
        <time>2022-07-23T10:30:35Z</time>
      </trkpt>
      <trkpt lat="46.6869620" lon="6.1557830">
        <ele>969.0</ele>
        <time>2022-07-23T10:30:44Z</time>
      </trkpt>
      <trkpt lat="46.6869020" lon="6.1554890">
        <ele>969.2</ele>
        <time>2022-07-23T10:30:51Z</time>
      </trkpt>
      <trkpt lat="46.6868650" lon="6.1550930">
        <ele>969.6</ele>
        <time>2022-07-23T10:31:01Z</time>
      </trkpt>
      <trkpt lat="46.6868560" lon="6.1550170">
        <ele>969.6</ele>
        <time>2022-07-23T10:31:03Z</time>
      </trkpt>
      <trkpt lat="46.6868220" lon="6.1548220">
        <ele>970.0</ele>
        <time>2022-07-23T10:31:08Z</time>
      </trkpt>
      <trkpt lat="46.6867650" lon="6.1544970">
        <ele>970.6</ele>
        <time>2022-07-23T10:31:16Z</time>
      </trkpt>
      <trkpt lat="46.6867530" lon="6.1544130">
        <ele>970.8</ele>
        <time>2022-07-23T10:31:18Z</time>
      </trkpt>
      <trkpt lat="46.6866780" lon="6.1540200">
        <ele>970.8</ele>
        <time>2022-07-23T10:31:27Z</time>
      </trkpt>
      <trkpt lat="46.6865840" lon="6.1537230">
        <ele>970.6</ele>
        <time>2022-07-23T10:31:35Z</time>
      </trkpt>
      <trkpt lat="46.6865200" lon="6.1535010">
        <ele>970.8</ele>
        <time>2022-07-23T10:31:42Z</time>
      </trkpt>
      <trkpt lat="46.6864570" lon="6.1532790">
        <ele>971.8</ele>
        <time>2022-07-23T10:31:48Z</time>
      </trkpt>
      <trkpt lat="46.6864320" lon="6.1532020">
        <ele>972.0</ele>
        <time>2022-07-23T10:31:50Z</time>
      </trkpt>
      <trkpt lat="46.6863420" lon="6.1529210">
        <ele>972.6</ele>
        <time>2022-07-23T10:31:59Z</time>
      </trkpt>
      <trkpt lat="46.6863290" lon="6.1528720">
        <ele>972.6</ele>
        <time>2022-07-23T10:32:03Z</time>
      </trkpt>
      <trkpt lat="46.6863300" lon="6.1528470">
        <ele>972.2</ele>
        <time>2022-07-23T10:32:21Z</time>
      </trkpt>
      <trkpt lat="46.6862950" lon="6.1527040">
        <ele>972.4</ele>
        <time>2022-07-23T10:32:25Z</time>
      </trkpt>
      <trkpt lat="46.6861870" lon="6.1523850">
        <ele>972.4</ele>
        <time>2022-07-23T10:32:32Z</time>
      </trkpt>
      <trkpt lat="46.6860920" lon="6.1520400">
        <ele>972.4</ele>
        <time>2022-07-23T10:32:40Z</time>
      </trkpt>
      <trkpt lat="46.6860290" lon="6.1517190">
        <ele>972.8</ele>
        <time>2022-07-23T10:32:48Z</time>
      </trkpt>
      <trkpt lat="46.6860050" lon="6.1515540">
        <ele>973.0</ele>
        <time>2022-07-23T10:32:52Z</time>
      </trkpt>
      <trkpt lat="46.6859870" lon="6.1514530">
        <ele>973.4</ele>
        <time>2022-07-23T10:32:54Z</time>
      </trkpt>
      <trkpt lat="46.6859010" lon="6.1511020">
        <ele>974.0</ele>
        <time>2022-07-23T10:33:01Z</time>
      </trkpt>
      <trkpt lat="46.6858790" lon="6.1510010">
        <ele>974.0</ele>
        <time>2022-07-23T10:33:03Z</time>
      </trkpt>
      <trkpt lat="46.6857780" lon="6.1505680">
        <ele>973.8</ele>
        <time>2022-07-23T10:33:12Z</time>
      </trkpt>
      <trkpt lat="46.6857160" lon="6.1502500">
        <ele>974.0</ele>
        <time>2022-07-23T10:33:19Z</time>
      </trkpt>
      <trkpt lat="46.6857050" lon="6.1502050">
        <ele>973.8</ele>
        <time>2022-07-23T10:33:23Z</time>
      </trkpt>
      <trkpt lat="46.6856320" lon="6.1500510">
        <ele>973.6</ele>
        <time>2022-07-23T10:34:24Z</time>
      </trkpt>
      <trkpt lat="46.6856000" lon="6.1500020">
        <ele>973.6</ele>
        <time>2022-07-23T10:34:26Z</time>
      </trkpt>
      <trkpt lat="46.6854800" lon="6.1498060">
        <ele>973.6</ele>
        <time>2022-07-23T10:34:32Z</time>
      </trkpt>
      <trkpt lat="46.6853270" lon="6.1495120">
        <ele>973.6</ele>
        <time>2022-07-23T10:34:40Z</time>
      </trkpt>
      <trkpt lat="46.6852180" lon="6.1491950">
        <ele>973.8</ele>
        <time>2022-07-23T10:34:48Z</time>
      </trkpt>
      <trkpt lat="46.6851370" lon="6.1489330">
        <ele>974.6</ele>
        <time>2022-07-23T10:34:56Z</time>
      </trkpt>
      <trkpt lat="46.6850960" lon="6.1488040">
        <ele>975.0</ele>
        <time>2022-07-23T10:35:00Z</time>
      </trkpt>
      <trkpt lat="46.6850390" lon="6.1486010">
        <ele>975.6</ele>
        <time>2022-07-23T10:35:06Z</time>
      </trkpt>
      <trkpt lat="46.6849850" lon="6.1484380">
        <ele>976.0</ele>
        <time>2022-07-23T10:35:10Z</time>
      </trkpt>
      <trkpt lat="46.6849350" lon="6.1483190">
        <ele>976.2</ele>
        <time>2022-07-23T10:35:13Z</time>
      </trkpt>
      <trkpt lat="46.6849060" lon="6.1482390">
        <ele>976.2</ele>
        <time>2022-07-23T10:35:17Z</time>
      </trkpt>
      <trkpt lat="46.6849060" lon="6.1482390">
        <ele>976.2</ele>
        <time>2022-07-23T10:35:18Z</time>
      </trkpt>
      <trkpt lat="46.6849300" lon="6.1483290">
        <ele>976.2</ele>
        <time>2022-07-23T10:36:09Z</time>
      </trkpt>
      <trkpt lat="46.6849580" lon="6.1483880">
        <ele>976.2</ele>
        <time>2022-07-23T10:36:11Z</time>
      </trkpt>
      <trkpt lat="46.6850320" lon="6.1486090">
        <ele>976.2</ele>
        <time>2022-07-23T10:36:17Z</time>
      </trkpt>
      <trkpt lat="46.6850420" lon="6.1486480">
        <ele>976.2</ele>
        <time>2022-07-23T10:36:18Z</time>
      </trkpt>
      <trkpt lat="46.6851090" lon="6.1488620">
        <ele>976.2</ele>
        <time>2022-07-23T10:36:24Z</time>
      </trkpt>
      <trkpt lat="46.6851770" lon="6.1490660">
        <ele>976.2</ele>
        <time>2022-07-23T10:36:30Z</time>
      </trkpt>
      <trkpt lat="46.6852430" lon="6.1492820">
        <ele>975.8</ele>
        <time>2022-07-23T10:36:35Z</time>
      </trkpt>
      <trkpt lat="46.6853980" lon="6.1496810">
        <ele>974.8</ele>
        <time>2022-07-23T10:36:43Z</time>
      </trkpt>
      <trkpt lat="46.6854210" lon="6.1497270">
        <ele>974.8</ele>
        <time>2022-07-23T10:36:44Z</time>
      </trkpt>
      <trkpt lat="46.6855740" lon="6.1499870">
        <ele>974.0</ele>
        <time>2022-07-23T10:36:50Z</time>
      </trkpt>
      <trkpt lat="46.6855990" lon="6.1500260">
        <ele>973.6</ele>
        <time>2022-07-23T10:36:51Z</time>
      </trkpt>
      <trkpt lat="46.6856840" lon="6.1501850">
        <ele>973.2</ele>
        <time>2022-07-23T10:36:57Z</time>
      </trkpt>
      <trkpt lat="46.6856980" lon="6.1502140">
        <ele>973.2</ele>
        <time>2022-07-23T10:37:03Z</time>
      </trkpt>
      <trkpt lat="46.6857040" lon="6.1502750">
        <ele>973.6</ele>
        <time>2022-07-23T10:38:24Z</time>
      </trkpt>
      <trkpt lat="46.6857160" lon="6.1503480">
        <ele>973.6</ele>
        <time>2022-07-23T10:38:26Z</time>
      </trkpt>
      <trkpt lat="46.6857820" lon="6.1506910">
        <ele>973.2</ele>
        <time>2022-07-23T10:38:35Z</time>
      </trkpt>
      <trkpt lat="46.6858810" lon="6.1510740">
        <ele>973.0</ele>
        <time>2022-07-23T10:38:43Z</time>
      </trkpt>
      <trkpt lat="46.6859470" lon="6.1513190">
        <ele>973.0</ele>
        <time>2022-07-23T10:38:49Z</time>
      </trkpt>
      <trkpt lat="46.6859460" lon="6.1513200">
        <ele>973.0</ele>
        <time>2022-07-23T10:38:50Z</time>
      </trkpt>
      <trkpt lat="46.6859290" lon="6.1511970">
        <ele>972.8</ele>
        <time>2022-07-23T10:41:39Z</time>
      </trkpt>
      <trkpt lat="46.6859100" lon="6.1511300">
        <ele>972.8</ele>
        <time>2022-07-23T10:41:41Z</time>
      </trkpt>
      <trkpt lat="46.6858440" lon="6.1508500">
        <ele>972.8</ele>
        <time>2022-07-23T10:41:47Z</time>
      </trkpt>
      <trkpt lat="46.6857780" lon="6.1505610">
        <ele>973.0</ele>
        <time>2022-07-23T10:41:53Z</time>
      </trkpt>
      <trkpt lat="46.6857210" lon="6.1502480">
        <ele>973.0</ele>
        <time>2022-07-23T10:42:00Z</time>
      </trkpt>
      <trkpt lat="46.6857090" lon="6.1502200">
        <ele>973.2</ele>
        <time>2022-07-23T10:42:03Z</time>
      </trkpt>
      <trkpt lat="46.6857090" lon="6.1502650">
        <ele>973.4</ele>
        <time>2022-07-23T10:44:07Z</time>
      </trkpt>
      <trkpt lat="46.6857390" lon="6.1504780">
        <ele>973.2</ele>
        <time>2022-07-23T10:44:13Z</time>
      </trkpt>
      <trkpt lat="46.6858100" lon="6.1507970">
        <ele>973.2</ele>
        <time>2022-07-23T10:44:20Z</time>
      </trkpt>
      <trkpt lat="46.6859190" lon="6.1512300">
        <ele>973.2</ele>
        <time>2022-07-23T10:44:29Z</time>
      </trkpt>
      <trkpt lat="46.6859950" lon="6.1516180">
        <ele>973.2</ele>
        <time>2022-07-23T10:44:37Z</time>
      </trkpt>
      <trkpt lat="46.6860470" lon="6.1519620">
        <ele>973.2</ele>
        <time>2022-07-23T10:44:43Z</time>
      </trkpt>
      <trkpt lat="46.6861750" lon="6.1524150">
        <ele>973.0</ele>
        <time>2022-07-23T10:44:50Z</time>
      </trkpt>
      <trkpt lat="46.6862910" lon="6.1527680">
        <ele>972.2</ele>
        <time>2022-07-23T10:44:56Z</time>
      </trkpt>
      <trkpt lat="46.6863230" lon="6.1528870">
        <ele>972.0</ele>
        <time>2022-07-23T10:44:58Z</time>
      </trkpt>
      <trkpt lat="46.6864850" lon="6.1534020">
        <ele>971.8</ele>
        <time>2022-07-23T10:45:07Z</time>
      </trkpt>
      <trkpt lat="46.6866180" lon="6.1538480">
        <ele>971.8</ele>
        <time>2022-07-23T10:45:14Z</time>
      </trkpt>
      <trkpt lat="46.6867520" lon="6.1543930">
        <ele>971.6</ele>
        <time>2022-07-23T10:45:21Z</time>
      </trkpt>
      <trkpt lat="46.6867740" lon="6.1545440">
        <ele>971.0</ele>
        <time>2022-07-23T10:45:23Z</time>
      </trkpt>
      <trkpt lat="46.6868680" lon="6.1550530">
        <ele>970.2</ele>
        <time>2022-07-23T10:45:30Z</time>
      </trkpt>
      <trkpt lat="46.6869110" lon="6.1555690">
        <ele>970.0</ele>
        <time>2022-07-23T10:45:37Z</time>
      </trkpt>
      <trkpt lat="46.6869210" lon="6.1556430">
        <ele>970.0</ele>
        <time>2022-07-23T10:45:38Z</time>
      </trkpt>
      <trkpt lat="46.6870420" lon="6.1561340">
        <ele>969.6</ele>
        <time>2022-07-23T10:45:45Z</time>
      </trkpt>
      <trkpt lat="46.6870930" lon="6.1563250">
        <ele>969.0</ele>
        <time>2022-07-23T10:45:48Z</time>
      </trkpt>
      <trkpt lat="46.6871640" lon="6.1564870">
        <ele>968.8</ele>
        <time>2022-07-23T10:45:51Z</time>
      </trkpt>
      <trkpt lat="46.6872680" lon="6.1566840">
        <ele>968.4</ele>
        <time>2022-07-23T10:45:56Z</time>
      </trkpt>
      <trkpt lat="46.6873930" lon="6.1569410">
        <ele>968.2</ele>
        <time>2022-07-23T10:46:04Z</time>
      </trkpt>
      <trkpt lat="46.6874050" lon="6.1570170">
        <ele>968.4</ele>
        <time>2022-07-23T10:46:08Z</time>
      </trkpt>
      <trkpt lat="46.6874060" lon="6.1570220">
        <ele>968.4</ele>
        <time>2022-07-23T10:46:09Z</time>
      </trkpt>
      <trkpt lat="46.6873350" lon="6.1569280">
        <ele>967.6</ele>
        <time>2022-07-23T11:06:42Z</time>
      </trkpt>
      <trkpt lat="46.6873210" lon="6.1568810">
        <ele>967.6</ele>
        <time>2022-07-23T11:06:44Z</time>
      </trkpt>
      <trkpt lat="46.6872940" lon="6.1568290">
        <ele>967.6</ele>
        <time>2022-07-23T11:06:46Z</time>
      </trkpt>
      <trkpt lat="46.6872120" lon="6.1566750">
        <ele>967.6</ele>
        <time>2022-07-23T11:06:51Z</time>
      </trkpt>
      <trkpt lat="46.6870860" lon="6.1564060">
        <ele>967.2</ele>
        <time>2022-07-23T11:07:00Z</time>
      </trkpt>
      <trkpt lat="46.6870620" lon="6.1563370">
        <ele>967.2</ele>
        <time>2022-07-23T11:07:05Z</time>
      </trkpt>
      <trkpt lat="46.6870070" lon="6.1561600">
        <ele>966.4</ele>
        <time>2022-07-23T11:08:00Z</time>
      </trkpt>
      <trkpt lat="46.6869940" lon="6.1560950">
        <ele>966.6</ele>
        <time>2022-07-23T11:08:02Z</time>
      </trkpt>
      <trkpt lat="46.6869210" lon="6.1557750">
        <ele>967.0</ele>
        <time>2022-07-23T11:08:11Z</time>
      </trkpt>
      <trkpt lat="46.6868760" lon="6.1554800">
        <ele>967.6</ele>
        <time>2022-07-23T11:08:20Z</time>
      </trkpt>
      <trkpt lat="46.6868650" lon="6.1552080">
        <ele>967.8</ele>
        <time>2022-07-23T11:08:29Z</time>
      </trkpt>
      <trkpt lat="46.6868310" lon="6.1548860">
        <ele>968.4</ele>
        <time>2022-07-23T11:08:40Z</time>
      </trkpt>
      <trkpt lat="46.6868240" lon="6.1548560">
        <ele>968.4</ele>
        <time>2022-07-23T11:08:41Z</time>
      </trkpt>
      <trkpt lat="46.6867730" lon="6.1545920">
        <ele>968.6</ele>
        <time>2022-07-23T11:08:49Z</time>
      </trkpt>
      <trkpt lat="46.6867300" lon="6.1542930">
        <ele>968.6</ele>
        <time>2022-07-23T11:08:58Z</time>
      </trkpt>
      <trkpt lat="46.6866670" lon="6.1539920">
        <ele>968.8</ele>
        <time>2022-07-23T11:09:08Z</time>
      </trkpt>
      <trkpt lat="46.6866330" lon="6.1539100">
        <ele>969.4</ele>
        <time>2022-07-23T11:09:14Z</time>
      </trkpt>
      <trkpt lat="46.6865880" lon="6.1538070">
        <ele>968.8</ele>
        <time>2022-07-23T12:03:08Z</time>
      </trkpt>
      <trkpt lat="46.6865710" lon="6.1537550">
        <ele>968.8</ele>
        <time>2022-07-23T12:03:10Z</time>
      </trkpt>
      <trkpt lat="46.6865180" lon="6.1535610">
        <ele>968.8</ele>
        <time>2022-07-23T12:03:18Z</time>
      </trkpt>
      <trkpt lat="46.6864370" lon="6.1532830">
        <ele>969.2</ele>
        <time>2022-07-23T12:03:26Z</time>
      </trkpt>
      <trkpt lat="46.6864030" lon="6.1531780">
        <ele>969.8</ele>
        <time>2022-07-23T12:03:29Z</time>
      </trkpt>
      <trkpt lat="46.6863350" lon="6.1529530">
        <ele>970.2</ele>
        <time>2022-07-23T12:03:35Z</time>
      </trkpt>
      <trkpt lat="46.6862270" lon="6.1525800">
        <ele>970.2</ele>
        <time>2022-07-23T12:03:45Z</time>
      </trkpt>
      <trkpt lat="46.6861280" lon="6.1522670">
        <ele>970.2</ele>
        <time>2022-07-23T12:03:54Z</time>
      </trkpt>
      <trkpt lat="46.6860460" lon="6.1519650">
        <ele>970.4</ele>
        <time>2022-07-23T12:04:03Z</time>
      </trkpt>
      <trkpt lat="46.6859980" lon="6.1516770">
        <ele>970.8</ele>
        <time>2022-07-23T12:04:12Z</time>
      </trkpt>
      <trkpt lat="46.6859940" lon="6.1516380">
        <ele>971.0</ele>
        <time>2022-07-23T12:04:13Z</time>
      </trkpt>
      <trkpt lat="46.6859550" lon="6.1513870">
        <ele>971.8</ele>
        <time>2022-07-23T12:04:18Z</time>
      </trkpt>
      <trkpt lat="46.6859350" lon="6.1512920">
        <ele>972.0</ele>
        <time>2022-07-23T12:04:20Z</time>
      </trkpt>
      <trkpt lat="46.6858730" lon="6.1510540">
        <ele>972.0</ele>
        <time>2022-07-23T12:04:26Z</time>
      </trkpt>
      <trkpt lat="46.6857770" lon="6.1506860">
        <ele>971.8</ele>
        <time>2022-07-23T12:04:35Z</time>
      </trkpt>
      <trkpt lat="46.6857110" lon="6.1503490">
        <ele>971.8</ele>
        <time>2022-07-23T12:04:43Z</time>
      </trkpt>
      <trkpt lat="46.6856870" lon="6.1501670">
        <ele>971.8</ele>
        <time>2022-07-23T12:04:48Z</time>
      </trkpt>
      <trkpt lat="46.6855920" lon="6.1499640">
        <ele>971.8</ele>
        <time>2022-07-23T12:04:54Z</time>
      </trkpt>
      <trkpt lat="46.6854610" lon="6.1497670">
        <ele>971.6</ele>
        <time>2022-07-23T12:05:01Z</time>
      </trkpt>
      <trkpt lat="46.6853470" lon="6.1495920">
        <ele>971.8</ele>
        <time>2022-07-23T12:05:07Z</time>
      </trkpt>
      <trkpt lat="46.6852240" lon="6.1492760">
        <ele>972.0</ele>
        <time>2022-07-23T12:05:16Z</time>
      </trkpt>
      <trkpt lat="46.6851250" lon="6.1489850">
        <ele>972.6</ele>
        <time>2022-07-23T12:05:25Z</time>
      </trkpt>
      <trkpt lat="46.6851050" lon="6.1489180">
        <ele>972.6</ele>
        <time>2022-07-23T12:05:27Z</time>
      </trkpt>
      <trkpt lat="46.6850340" lon="6.1486540">
        <ele>973.8</ele>
        <time>2022-07-23T12:05:35Z</time>
      </trkpt>
      <trkpt lat="46.6849430" lon="6.1484170">
        <ele>974.4</ele>
        <time>2022-07-23T12:05:41Z</time>
      </trkpt>
      <trkpt lat="46.6847970" lon="6.1480960">
        <ele>974.6</ele>
        <time>2022-07-23T12:05:50Z</time>
      </trkpt>
      <trkpt lat="46.6846750" lon="6.1477830">
        <ele>974.8</ele>
        <time>2022-07-23T12:05:58Z</time>
      </trkpt>
      <trkpt lat="46.6846520" lon="6.1476750">
        <ele>974.8</ele>
        <time>2022-07-23T12:06:02Z</time>
      </trkpt>
      <trkpt lat="46.6846530" lon="6.1476710">
        <ele>974.8</ele>
        <time>2022-07-23T12:06:03Z</time>
      </trkpt>
      <trkpt lat="46.6846070" lon="6.1475310">
        <ele>974.4</ele>
        <time>2022-07-23T12:06:20Z</time>
      </trkpt>
      <trkpt lat="46.6845910" lon="6.1474770">
        <ele>974.4</ele>
        <time>2022-07-23T12:06:22Z</time>
      </trkpt>
      <trkpt lat="46.6845090" lon="6.1472160">
        <ele>974.6</ele>
        <time>2022-07-23T12:06:30Z</time>
      </trkpt>
      <trkpt lat="46.6844370" lon="6.1470060">
        <ele>974.8</ele>
        <time>2022-07-23T12:06:36Z</time>
      </trkpt>
      <trkpt lat="46.6844020" lon="6.1468960">
        <ele>975.0</ele>
        <time>2022-07-23T12:06:39Z</time>
      </trkpt>
      <trkpt lat="46.6843240" lon="6.1466190">
        <ele>975.2</ele>
        <time>2022-07-23T12:06:46Z</time>
      </trkpt>
      <trkpt lat="46.6842510" lon="6.1464060">
        <ele>975.6</ele>
        <time>2022-07-23T12:06:53Z</time>
      </trkpt>
      <trkpt lat="46.6842000" lon="6.1462920">
        <ele>975.8</ele>
        <time>2022-07-23T12:06:57Z</time>
      </trkpt>
      <trkpt lat="46.6841600" lon="6.1461720">
        <ele>976.0</ele>
        <time>2022-07-23T12:07:01Z</time>
      </trkpt>
      <trkpt lat="46.6840860" lon="6.1458890">
        <ele>976.6</ele>
        <time>2022-07-23T12:07:10Z</time>
      </trkpt>
      <trkpt lat="46.6840400" lon="6.1457180">
        <ele>977.0</ele>
        <time>2022-07-23T12:07:15Z</time>
      </trkpt>
      <trkpt lat="46.6840010" lon="6.1455820">
        <ele>977.0</ele>
        <time>2022-07-23T12:07:19Z</time>
      </trkpt>
      <trkpt lat="46.6839330" lon="6.1453350">
        <ele>977.0</ele>
        <time>2022-07-23T12:07:26Z</time>
      </trkpt>
      <trkpt lat="46.6838330" lon="6.1450350">
        <ele>977.0</ele>
        <time>2022-07-23T12:07:35Z</time>
      </trkpt>
      <trkpt lat="46.6837670" lon="6.1447560">
        <ele>977.2</ele>
        <time>2022-07-23T12:07:43Z</time>
      </trkpt>
      <trkpt lat="46.6836880" lon="6.1444410">
        <ele>977.8</ele>
        <time>2022-07-23T12:07:52Z</time>
      </trkpt>
      <trkpt lat="46.6836110" lon="6.1441430">
        <ele>978.0</ele>
        <time>2022-07-23T12:08:00Z</time>
      </trkpt>
      <trkpt lat="46.6835340" lon="6.1439030">
        <ele>978.2</ele>
        <time>2022-07-23T12:08:08Z</time>
      </trkpt>
      <trkpt lat="46.6834780" lon="6.1436600">
        <ele>978.2</ele>
        <time>2022-07-23T12:08:16Z</time>
      </trkpt>
      <trkpt lat="46.6834500" lon="6.1434150">
        <ele>978.6</ele>
        <time>2022-07-23T12:08:25Z</time>
      </trkpt>
      <trkpt lat="46.6834490" lon="6.1433900">
        <ele>979.0</ele>
        <time>2022-07-23T12:08:26Z</time>
      </trkpt>
      <trkpt lat="46.6834410" lon="6.1432880">
        <ele>980.0</ele>
        <time>2022-07-23T12:08:30Z</time>
      </trkpt>
      <trkpt lat="46.6834310" lon="6.1431740">
        <ele>981.0</ele>
        <time>2022-07-23T12:08:35Z</time>
      </trkpt>
      <trkpt lat="46.6834280" lon="6.1431530">
        <ele>981.2</ele>
        <time>2022-07-23T12:08:36Z</time>
      </trkpt>
      <trkpt lat="46.6834200" lon="6.1430710">
        <ele>982.4</ele>
        <time>2022-07-23T12:08:40Z</time>
      </trkpt>
      <trkpt lat="46.6834070" lon="6.1429910">
        <ele>983.4</ele>
        <time>2022-07-23T12:08:44Z</time>
      </trkpt>
      <trkpt lat="46.6834000" lon="6.1429320">
        <ele>984.0</ele>
        <time>2022-07-23T12:08:47Z</time>
      </trkpt>
      <trkpt lat="46.6834000" lon="6.1428950">
        <ele>984.4</ele>
        <time>2022-07-23T12:08:49Z</time>
      </trkpt>
      <trkpt lat="46.6833840" lon="6.1427660">
        <ele>985.6</ele>
        <time>2022-07-23T12:08:56Z</time>
      </trkpt>
      <trkpt lat="46.6833790" lon="6.1427460">
        <ele>985.8</ele>
        <time>2022-07-23T12:08:57Z</time>
      </trkpt>
      <trkpt lat="46.6833660" lon="6.1426810">
        <ele>986.8</ele>
        <time>2022-07-23T12:09:00Z</time>
      </trkpt>
      <trkpt lat="46.6833470" lon="6.1425980">
        <ele>987.4</ele>
        <time>2022-07-23T12:09:04Z</time>
      </trkpt>
      <trkpt lat="46.6833370" lon="6.1425600">
        <ele>987.8</ele>
        <time>2022-07-23T12:09:06Z</time>
      </trkpt>
      <trkpt lat="46.6833110" lon="6.1424480">
        <ele>988.8</ele>
        <time>2022-07-23T12:09:12Z</time>
      </trkpt>
      <trkpt lat="46.6832970" lon="6.1423850">
        <ele>989.4</ele>
        <time>2022-07-23T12:09:15Z</time>
      </trkpt>
      <trkpt lat="46.6832830" lon="6.1423220">
        <ele>990.0</ele>
        <time>2022-07-23T12:09:18Z</time>
      </trkpt>
      <trkpt lat="46.6832510" lon="6.1422150">
        <ele>990.8</ele>
        <time>2022-07-23T12:09:23Z</time>
      </trkpt>
      <trkpt lat="46.6832440" lon="6.1421890">
        <ele>991.0</ele>
        <time>2022-07-23T12:09:24Z</time>
      </trkpt>
      <trkpt lat="46.6832090" lon="6.1420300">
        <ele>992.0</ele>
        <time>2022-07-23T12:09:30Z</time>
      </trkpt>
      <trkpt lat="46.6832080" lon="6.1420030">
        <ele>992.2</ele>
        <time>2022-07-23T12:09:31Z</time>
      </trkpt>
      <trkpt lat="46.6831830" lon="6.1418090">
        <ele>992.8</ele>
        <time>2022-07-23T12:09:38Z</time>
      </trkpt>
      <trkpt lat="46.6831730" lon="6.1417190">
        <ele>993.4</ele>
        <time>2022-07-23T12:09:41Z</time>
      </trkpt>
      <trkpt lat="46.6831660" lon="6.1416400">
        <ele>993.4</ele>
        <time>2022-07-23T12:09:44Z</time>
      </trkpt>
      <trkpt lat="46.6831870" lon="6.1414900">
        <ele>993.8</ele>
        <time>2022-07-23T12:09:51Z</time>
      </trkpt>
      <trkpt lat="46.6831840" lon="6.1414790">
        <ele>994.0</ele>
        <time>2022-07-23T12:09:53Z</time>
      </trkpt>
      <trkpt lat="46.6832390" lon="6.1413190">
        <ele>995.4</ele>
        <time>2022-07-23T12:10:21Z</time>
      </trkpt>
      <trkpt lat="46.6832340" lon="6.1412930">
        <ele>995.4</ele>
        <time>2022-07-23T12:10:22Z</time>
      </trkpt>
      <trkpt lat="46.6831740" lon="6.1410540">
        <ele>995.6</ele>
        <time>2022-07-23T12:10:31Z</time>
      </trkpt>
      <trkpt lat="46.6831120" lon="6.1407950">
        <ele>996.2</ele>
        <time>2022-07-23T12:10:39Z</time>
      </trkpt>
      <trkpt lat="46.6830980" lon="6.1406800">
        <ele>996.4</ele>
        <time>2022-07-23T12:10:43Z</time>
      </trkpt>
      <trkpt lat="46.6830810" lon="6.1405010">
        <ele>996.4</ele>
        <time>2022-07-23T12:10:48Z</time>
      </trkpt>
      <trkpt lat="46.6830470" lon="6.1401730">
        <ele>996.8</ele>
        <time>2022-07-23T12:10:57Z</time>
      </trkpt>
      <trkpt lat="46.6829650" lon="6.1398240">
        <ele>996.8</ele>
        <time>2022-07-23T12:11:06Z</time>
      </trkpt>
      <trkpt lat="46.6828280" lon="6.1394650">
        <ele>996.8</ele>
        <time>2022-07-23T12:11:13Z</time>
      </trkpt>
      <trkpt lat="46.6826720" lon="6.1391410">
        <ele>996.4</ele>
        <time>2022-07-23T12:11:21Z</time>
      </trkpt>
      <trkpt lat="46.6825700" lon="6.1388670">
        <ele>996.8</ele>
        <time>2022-07-23T12:11:29Z</time>
      </trkpt>
      <trkpt lat="46.6825220" lon="6.1386340">
        <ele>997.8</ele>
        <time>2022-07-23T12:11:35Z</time>
      </trkpt>
      <trkpt lat="46.6825040" lon="6.1385430">
        <ele>998.6</ele>
        <time>2022-07-23T12:11:37Z</time>
      </trkpt>
      <trkpt lat="46.6824940" lon="6.1384940">
        <ele>999.0</ele>
        <time>2022-07-23T12:11:38Z</time>
      </trkpt>
      <trkpt lat="46.6823930" lon="6.1380970">
        <ele>999.4</ele>
        <time>2022-07-23T12:11:46Z</time>
      </trkpt>
      <trkpt lat="46.6822530" lon="6.1377000">
        <ele>999.4</ele>
        <time>2022-07-23T12:11:54Z</time>
      </trkpt>
      <trkpt lat="46.6821740" lon="6.1375570">
        <ele>998.8</ele>
        <time>2022-07-23T12:11:57Z</time>
      </trkpt>
      <trkpt lat="46.6820910" lon="6.1374660">
        <ele>998.8</ele>
        <time>2022-07-23T12:11:59Z</time>
      </trkpt>
      <trkpt lat="46.6819530" lon="6.1373310">
        <ele>998.4</ele>
        <time>2022-07-23T12:12:02Z</time>
      </trkpt>
      <trkpt lat="46.6818740" lon="6.1372220">
        <ele>998.0</ele>
        <time>2022-07-23T12:12:04Z</time>
      </trkpt>
      <trkpt lat="46.6818010" lon="6.1370980">
        <ele>997.6</ele>
        <time>2022-07-23T12:12:06Z</time>
      </trkpt>
      <trkpt lat="46.6816880" lon="6.1369040">
        <ele>997.0</ele>
        <time>2022-07-23T12:12:09Z</time>
      </trkpt>
      <trkpt lat="46.6815240" lon="6.1366260">
        <ele>995.8</ele>
        <time>2022-07-23T12:12:13Z</time>
      </trkpt>
      <trkpt lat="46.6814780" lon="6.1365460">
        <ele>995.4</ele>
        <time>2022-07-23T12:12:14Z</time>
      </trkpt>
      <trkpt lat="46.6813440" lon="6.1363020">
        <ele>994.6</ele>
        <time>2022-07-23T12:12:17Z</time>
      </trkpt>
      <trkpt lat="46.6812360" lon="6.1360770">
        <ele>993.6</ele>
        <time>2022-07-23T12:12:20Z</time>
      </trkpt>
      <trkpt lat="46.6811410" lon="6.1358440">
        <ele>992.6</ele>
        <time>2022-07-23T12:12:23Z</time>
      </trkpt>
      <trkpt lat="46.6811130" lon="6.1357640">
        <ele>992.2</ele>
        <time>2022-07-23T12:12:24Z</time>
      </trkpt>
      <trkpt lat="46.6810920" lon="6.1356840">
        <ele>991.2</ele>
        <time>2022-07-23T12:12:25Z</time>
      </trkpt>
      <trkpt lat="46.6810720" lon="6.1356040">
        <ele>990.4</ele>
        <time>2022-07-23T12:12:26Z</time>
      </trkpt>
      <trkpt lat="46.6810510" lon="6.1355240">
        <ele>989.8</ele>
        <time>2022-07-23T12:12:27Z</time>
      </trkpt>
      <trkpt lat="46.6809670" lon="6.1352880">
        <ele>988.6</ele>
        <time>2022-07-23T12:12:30Z</time>
      </trkpt>
      <trkpt lat="46.6809090" lon="6.1351320">
        <ele>988.0</ele>
        <time>2022-07-23T12:12:32Z</time>
      </trkpt>
      <trkpt lat="46.6808560" lon="6.1349790">
        <ele>987.2</ele>
        <time>2022-07-23T12:12:34Z</time>
      </trkpt>
      <trkpt lat="46.6808390" lon="6.1348980">
        <ele>987.0</ele>
        <time>2022-07-23T12:12:35Z</time>
      </trkpt>
      <trkpt lat="46.6808520" lon="6.1347380">
        <ele>986.6</ele>
        <time>2022-07-23T12:12:37Z</time>
      </trkpt>
      <trkpt lat="46.6809010" lon="6.1345800">
        <ele>986.2</ele>
        <time>2022-07-23T12:12:39Z</time>
      </trkpt>
      <trkpt lat="46.6809190" lon="6.1345000">
        <ele>986.0</ele>
        <time>2022-07-23T12:12:40Z</time>
      </trkpt>
      <trkpt lat="46.6809220" lon="6.1344290">
        <ele>986.0</ele>
        <time>2022-07-23T12:12:41Z</time>
      </trkpt>
      <trkpt lat="46.6808520" lon="6.1342730">
        <ele>985.8</ele>
        <time>2022-07-23T12:12:44Z</time>
      </trkpt>
      <trkpt lat="46.6807690" lon="6.1342170">
        <ele>985.6</ele>
        <time>2022-07-23T12:12:46Z</time>
      </trkpt>
      <trkpt lat="46.6806450" lon="6.1341460">
        <ele>985.2</ele>
        <time>2022-07-23T12:12:49Z</time>
      </trkpt>
      <trkpt lat="46.6805710" lon="6.1340970">
        <ele>985.0</ele>
        <time>2022-07-23T12:12:51Z</time>
      </trkpt>
      <trkpt lat="46.6803660" lon="6.1339530">
        <ele>985.0</ele>
        <time>2022-07-23T12:12:57Z</time>
      </trkpt>
      <trkpt lat="46.6801180" lon="6.1337490">
        <ele>985.6</ele>
        <time>2022-07-23T12:13:04Z</time>
      </trkpt>
      <trkpt lat="46.6798300" lon="6.1334560">
        <ele>985.6</ele>
        <time>2022-07-23T12:13:11Z</time>
      </trkpt>
      <trkpt lat="46.6796280" lon="6.1331680">
        <ele>985.6</ele>
        <time>2022-07-23T12:13:16Z</time>
      </trkpt>
      <trkpt lat="46.6794910" lon="6.1331620">
        <ele>985.0</ele>
        <time>2022-07-23T12:13:19Z</time>
      </trkpt>
      <trkpt lat="46.6793390" lon="6.1333010">
        <ele>984.6</ele>
        <time>2022-07-23T12:13:22Z</time>
      </trkpt>
      <trkpt lat="46.6792900" lon="6.1333530">
        <ele>984.0</ele>
        <time>2022-07-23T12:13:23Z</time>
      </trkpt>
      <trkpt lat="46.6792410" lon="6.1334080">
        <ele>983.8</ele>
        <time>2022-07-23T12:13:24Z</time>
      </trkpt>
      <trkpt lat="46.6790900" lon="6.1336590">
        <ele>983.4</ele>
        <time>2022-07-23T12:13:28Z</time>
      </trkpt>
      <trkpt lat="46.6788870" lon="6.1340810">
        <ele>982.8</ele>
        <time>2022-07-23T12:13:35Z</time>
      </trkpt>
      <trkpt lat="46.6788580" lon="6.1341370">
        <ele>982.8</ele>
        <time>2022-07-23T12:13:36Z</time>
      </trkpt>
      <trkpt lat="46.6786830" lon="6.1345000">
        <ele>982.8</ele>
        <time>2022-07-23T12:13:43Z</time>
      </trkpt>
      <trkpt lat="46.6786210" lon="6.1346500">
        <ele>983.0</ele>
        <time>2022-07-23T12:13:46Z</time>
      </trkpt>
      <trkpt lat="46.6785590" lon="6.1348030">
        <ele>983.4</ele>
        <time>2022-07-23T12:13:49Z</time>
      </trkpt>
      <trkpt lat="46.6784940" lon="6.1349460">
        <ele>983.8</ele>
        <time>2022-07-23T12:13:52Z</time>
      </trkpt>
      <trkpt lat="46.6783900" lon="6.1351790">
        <ele>984.4</ele>
        <time>2022-07-23T12:13:57Z</time>
      </trkpt>
      <trkpt lat="46.6782260" lon="6.1355480">
        <ele>984.8</ele>
        <time>2022-07-23T12:14:05Z</time>
      </trkpt>
      <trkpt lat="46.6782060" lon="6.1355970">
        <ele>985.0</ele>
        <time>2022-07-23T12:14:06Z</time>
      </trkpt>
      <trkpt lat="46.6780550" lon="6.1359740">
        <ele>985.4</ele>
        <time>2022-07-23T12:14:13Z</time>
      </trkpt>
      <trkpt lat="46.6779330" lon="6.1362770">
        <ele>985.6</ele>
        <time>2022-07-23T12:14:18Z</time>
      </trkpt>
      <trkpt lat="46.6778180" lon="6.1365680">
        <ele>985.8</ele>
        <time>2022-07-23T12:14:23Z</time>
      </trkpt>
      <trkpt lat="46.6776200" lon="6.1369830">
        <ele>986.2</ele>
        <time>2022-07-23T12:14:31Z</time>
      </trkpt>
      <trkpt lat="46.6774080" lon="6.1373650">
        <ele>986.8</ele>
        <time>2022-07-23T12:14:39Z</time>
      </trkpt>
      <trkpt lat="46.6771880" lon="6.1377260">
        <ele>987.4</ele>
        <time>2022-07-23T12:14:47Z</time>
      </trkpt>
      <trkpt lat="46.6771040" lon="6.1378550">
        <ele>988.0</ele>
        <time>2022-07-23T12:14:50Z</time>
      </trkpt>
      <trkpt lat="46.6769870" lon="6.1380280">
        <ele>988.4</ele>
        <time>2022-07-23T12:14:54Z</time>
      </trkpt>
      <trkpt lat="46.6767930" lon="6.1382510">
        <ele>989.0</ele>
        <time>2022-07-23T12:15:00Z</time>
      </trkpt>
      <trkpt lat="46.6767540" lon="6.1382790">
        <ele>989.0</ele>
        <time>2022-07-23T12:15:01Z</time>
      </trkpt>
      <trkpt lat="46.6767140" lon="6.1383020">
        <ele>989.2</ele>
        <time>2022-07-23T12:15:02Z</time>
      </trkpt>
      <trkpt lat="46.6765900" lon="6.1383390">
        <ele>989.4</ele>
        <time>2022-07-23T12:15:05Z</time>
      </trkpt>
      <trkpt lat="46.6765050" lon="6.1383510">
        <ele>989.6</ele>
        <time>2022-07-23T12:15:07Z</time>
      </trkpt>
      <trkpt lat="46.6762160" lon="6.1383020">
        <ele>989.8</ele>
        <time>2022-07-23T12:15:14Z</time>
      </trkpt>
      <trkpt lat="46.6761510" lon="6.1382870">
        <ele>990.2</ele>
        <time>2022-07-23T12:15:16Z</time>
      </trkpt>
      <trkpt lat="46.6760940" lon="6.1383060">
        <ele>990.4</ele>
        <time>2022-07-23T12:15:18Z</time>
      </trkpt>
      <trkpt lat="46.6759800" lon="6.1382990">
        <ele>991.2</ele>
        <time>2022-07-23T12:15:22Z</time>
      </trkpt>
      <trkpt lat="46.6759520" lon="6.1382790">
        <ele>991.4</ele>
        <time>2022-07-23T12:15:23Z</time>
      </trkpt>
      <trkpt lat="46.6757540" lon="6.1381220">
        <ele>992.4</ele>
        <time>2022-07-23T12:15:29Z</time>
      </trkpt>
      <trkpt lat="46.6756190" lon="6.1380050">
        <ele>993.4</ele>
        <time>2022-07-23T12:15:33Z</time>
      </trkpt>
      <trkpt lat="46.6755100" lon="6.1379050">
        <ele>993.6</ele>
        <time>2022-07-23T12:15:36Z</time>
      </trkpt>
      <trkpt lat="46.6753180" lon="6.1377330">
        <ele>994.0</ele>
        <time>2022-07-23T12:15:42Z</time>
      </trkpt>
      <trkpt lat="46.6751240" lon="6.1376000">
        <ele>995.0</ele>
        <time>2022-07-23T12:15:48Z</time>
      </trkpt>
      <trkpt lat="46.6750910" lon="6.1375880">
        <ele>995.2</ele>
        <time>2022-07-23T12:15:49Z</time>
      </trkpt>
      <trkpt lat="46.6748640" lon="6.1375490">
        <ele>995.8</ele>
        <time>2022-07-23T12:15:55Z</time>
      </trkpt>
      <trkpt lat="46.6747790" lon="6.1375570">
        <ele>996.0</ele>
        <time>2022-07-23T12:15:57Z</time>
      </trkpt>
      <trkpt lat="46.6746990" lon="6.1375830">
        <ele>996.0</ele>
        <time>2022-07-23T12:15:59Z</time>
      </trkpt>
      <trkpt lat="46.6746210" lon="6.1376160">
        <ele>996.0</ele>
        <time>2022-07-23T12:16:01Z</time>
      </trkpt>
      <trkpt lat="46.6744400" lon="6.1377110">
        <ele>996.4</ele>
        <time>2022-07-23T12:16:07Z</time>
      </trkpt>
      <trkpt lat="46.6743880" lon="6.1377020">
        <ele>996.4</ele>
        <time>2022-07-23T12:16:09Z</time>
      </trkpt>
      <trkpt lat="46.6743760" lon="6.1376850">
        <ele>996.6</ele>
        <time>2022-07-23T12:16:10Z</time>
      </trkpt>
      <trkpt lat="46.6743700" lon="6.1376750">
        <ele>996.8</ele>
        <time>2022-07-23T12:16:13Z</time>
      </trkpt>
      <trkpt lat="46.6743660" lon="6.1376350">
        <ele>997.0</ele>
        <time>2022-07-23T12:16:19Z</time>
      </trkpt>
      <trkpt lat="46.6742980" lon="6.1375190">
        <ele>997.0</ele>
        <time>2022-07-23T12:16:23Z</time>
      </trkpt>
      <trkpt lat="46.6742050" lon="6.1372420">
        <ele>997.2</ele>
        <time>2022-07-23T12:16:29Z</time>
      </trkpt>
      <trkpt lat="46.6740820" lon="6.1367820">
        <ele>997.4</ele>
        <time>2022-07-23T12:16:38Z</time>
      </trkpt>
      <trkpt lat="46.6740130" lon="6.1364670">
        <ele>998.0</ele>
        <time>2022-07-23T12:16:44Z</time>
      </trkpt>
      <trkpt lat="46.6740000" lon="6.1364150">
        <ele>998.2</ele>
        <time>2022-07-23T12:16:45Z</time>
      </trkpt>
      <trkpt lat="46.6739060" lon="6.1360380">
        <ele>999.2</ele>
        <time>2022-07-23T12:16:52Z</time>
      </trkpt>
      <trkpt lat="46.6738780" lon="6.1359200">
        <ele>999.4</ele>
        <time>2022-07-23T12:16:54Z</time>
      </trkpt>
      <trkpt lat="46.6737780" lon="6.1354890">
        <ele>1000.0</ele>
        <time>2022-07-23T12:17:01Z</time>
      </trkpt>
      <trkpt lat="46.6736590" lon="6.1350680">
        <ele>1000.2</ele>
        <time>2022-07-23T12:17:08Z</time>
      </trkpt>
      <trkpt lat="46.6736390" lon="6.1350100">
        <ele>1000.2</ele>
        <time>2022-07-23T12:17:09Z</time>
      </trkpt>
      <trkpt lat="46.6734940" lon="6.1346820">
        <ele>1000.8</ele>
        <time>2022-07-23T12:17:15Z</time>
      </trkpt>
      <trkpt lat="46.6732980" lon="6.1342600">
        <ele>1001.2</ele>
        <time>2022-07-23T12:17:23Z</time>
      </trkpt>
      <trkpt lat="46.6732550" lon="6.1341550">
        <ele>1001.4</ele>
        <time>2022-07-23T12:17:25Z</time>
      </trkpt>
      <trkpt lat="46.6731310" lon="6.1338560">
        <ele>1001.8</ele>
        <time>2022-07-23T12:17:31Z</time>
      </trkpt>
      <trkpt lat="46.6730440" lon="6.1336610">
        <ele>1002.4</ele>
        <time>2022-07-23T12:17:36Z</time>
      </trkpt>
      <trkpt lat="46.6730150" lon="6.1335970">
        <ele>1002.6</ele>
        <time>2022-07-23T12:17:38Z</time>
      </trkpt>
      <trkpt lat="46.6728790" lon="6.1332200">
        <ele>1003.4</ele>
        <time>2022-07-23T12:17:48Z</time>
      </trkpt>
      <trkpt lat="46.6728500" lon="6.1331370">
        <ele>1003.4</ele>
        <time>2022-07-23T12:17:50Z</time>
      </trkpt>
      <trkpt lat="46.6727560" lon="6.1328390">
        <ele>1003.8</ele>
        <time>2022-07-23T12:17:57Z</time>
      </trkpt>
      <trkpt lat="46.6726140" lon="6.1323820">
        <ele>1004.4</ele>
        <time>2022-07-23T12:18:07Z</time>
      </trkpt>
      <trkpt lat="46.6725940" lon="6.1323420">
        <ele>1004.6</ele>
        <time>2022-07-23T12:18:08Z</time>
      </trkpt>
      <trkpt lat="46.6724490" lon="6.1321620">
        <ele>1005.0</ele>
        <time>2022-07-23T12:18:14Z</time>
      </trkpt>
      <trkpt lat="46.6723030" lon="6.1320560">
        <ele>1005.6</ele>
        <time>2022-07-23T12:18:19Z</time>
      </trkpt>
      <trkpt lat="46.6721700" lon="6.1319920">
        <ele>1006.0</ele>
        <time>2022-07-23T12:18:23Z</time>
      </trkpt>
      <trkpt lat="46.6719770" lon="6.1319140">
        <ele>1006.6</ele>
        <time>2022-07-23T12:18:29Z</time>
      </trkpt>
      <trkpt lat="46.6718110" lon="6.1318300">
        <ele>1006.8</ele>
        <time>2022-07-23T12:18:34Z</time>
      </trkpt>
      <trkpt lat="46.6715410" lon="6.1316370">
        <ele>1007.8</ele>
        <time>2022-07-23T12:18:42Z</time>
      </trkpt>
      <trkpt lat="46.6715100" lon="6.1316070">
        <ele>1007.8</ele>
        <time>2022-07-23T12:18:43Z</time>
      </trkpt>
      <trkpt lat="46.6712940" lon="6.1313760">
        <ele>1008.6</ele>
        <time>2022-07-23T12:18:51Z</time>
      </trkpt>
      <trkpt lat="46.6712710" lon="6.1313500">
        <ele>1008.8</ele>
        <time>2022-07-23T12:18:52Z</time>
      </trkpt>
      <trkpt lat="46.6711350" lon="6.1311980">
        <ele>1009.8</ele>
        <time>2022-07-23T12:18:58Z</time>
      </trkpt>
      <trkpt lat="46.6710970" lon="6.1311560">
        <ele>1010.6</ele>
        <time>2022-07-23T12:19:02Z</time>
      </trkpt>
      <trkpt lat="46.6710160" lon="6.1310720">
        <ele>1011.6</ele>
        <time>2022-07-23T12:20:30Z</time>
      </trkpt>
      <trkpt lat="46.6709790" lon="6.1310410">
        <ele>1011.6</ele>
        <time>2022-07-23T12:20:32Z</time>
      </trkpt>
      <trkpt lat="46.6708390" lon="6.1308480">
        <ele>1011.8</ele>
        <time>2022-07-23T12:20:40Z</time>
      </trkpt>
      <trkpt lat="46.6708290" lon="6.1308330">
        <ele>1011.8</ele>
        <time>2022-07-23T12:20:43Z</time>
      </trkpt>
      <trkpt lat="46.6707570" lon="6.1308080">
        <ele>1011.6</ele>
        <time>2022-07-23T12:32:07Z</time>
      </trkpt>
      <trkpt lat="46.6706320" lon="6.1306650">
        <ele>1011.6</ele>
        <time>2022-07-23T12:32:14Z</time>
      </trkpt>
      <trkpt lat="46.6704480" lon="6.1304470">
        <ele>1011.6</ele>
        <time>2022-07-23T12:32:22Z</time>
      </trkpt>
      <trkpt lat="46.6703170" lon="6.1303220">
        <ele>1012.0</ele>
        <time>2022-07-23T12:32:28Z</time>
      </trkpt>
      <trkpt lat="46.6701890" lon="6.1302130">
        <ele>1012.4</ele>
        <time>2022-07-23T12:32:34Z</time>
      </trkpt>
      <trkpt lat="46.6701700" lon="6.1301980">
        <ele>1012.6</ele>
        <time>2022-07-23T12:32:35Z</time>
      </trkpt>
      <trkpt lat="46.6700930" lon="6.1301530">
        <ele>1013.4</ele>
        <time>2022-07-23T12:32:40Z</time>
      </trkpt>
      <trkpt lat="46.6700780" lon="6.1301470">
        <ele>1013.6</ele>
        <time>2022-07-23T12:32:41Z</time>
      </trkpt>
      <trkpt lat="46.6699750" lon="6.1300860">
        <ele>1014.4</ele>
        <time>2022-07-23T12:32:48Z</time>
      </trkpt>
      <trkpt lat="46.6699400" lon="6.1300650">
        <ele>1014.8</ele>
        <time>2022-07-23T12:32:50Z</time>
      </trkpt>
      <trkpt lat="46.6698260" lon="6.1300150">
        <ele>1015.8</ele>
        <time>2022-07-23T12:32:57Z</time>
      </trkpt>
      <trkpt lat="46.6698120" lon="6.1300070">
        <ele>1015.8</ele>
        <time>2022-07-23T12:32:58Z</time>
      </trkpt>
      <trkpt lat="46.6697130" lon="6.1299320">
        <ele>1017.0</ele>
        <time>2022-07-23T12:33:05Z</time>
      </trkpt>
      <trkpt lat="46.6696870" lon="6.1299060">
        <ele>1017.4</ele>
        <time>2022-07-23T12:33:07Z</time>
      </trkpt>
      <trkpt lat="46.6696200" lon="6.1298340">
        <ele>1018.2</ele>
        <time>2022-07-23T12:33:12Z</time>
      </trkpt>
      <trkpt lat="46.6695830" lon="6.1297880">
        <ele>1019.0</ele>
        <time>2022-07-23T12:33:15Z</time>
      </trkpt>
      <trkpt lat="46.6695610" lon="6.1297610">
        <ele>1019.4</ele>
        <time>2022-07-23T12:33:17Z</time>
      </trkpt>
      <trkpt lat="46.6695140" lon="6.1296780">
        <ele>1020.2</ele>
        <time>2022-07-23T12:33:22Z</time>
      </trkpt>
      <trkpt lat="46.6695050" lon="6.1296630">
        <ele>1020.4</ele>
        <time>2022-07-23T12:33:23Z</time>
      </trkpt>
      <trkpt lat="46.6694560" lon="6.1295640">
        <ele>1021.6</ele>
        <time>2022-07-23T12:33:29Z</time>
      </trkpt>
      <trkpt lat="46.6694410" lon="6.1295300">
        <ele>1022.0</ele>
        <time>2022-07-23T12:33:31Z</time>
      </trkpt>
      <trkpt lat="46.6694170" lon="6.1294840">
        <ele>1022.8</ele>
        <time>2022-07-23T12:33:34Z</time>
      </trkpt>
      <trkpt lat="46.6693780" lon="6.1294050">
        <ele>1023.4</ele>
        <time>2022-07-23T12:33:39Z</time>
      </trkpt>
      <trkpt lat="46.6693610" lon="6.1293680">
        <ele>1024.0</ele>
        <time>2022-07-23T12:33:41Z</time>
      </trkpt>
      <trkpt lat="46.6693410" lon="6.1293250">
        <ele>1025.0</ele>
        <time>2022-07-23T12:33:46Z</time>
      </trkpt>
      <trkpt lat="46.6693000" lon="6.1292360">
        <ele>1027.4</ele>
        <time>2022-07-23T12:41:55Z</time>
      </trkpt>
      <trkpt lat="46.6692710" lon="6.1291950">
        <ele>1027.6</ele>
        <time>2022-07-23T12:41:58Z</time>
      </trkpt>
      <trkpt lat="46.6691930" lon="6.1290640">
        <ele>1028.6</ele>
        <time>2022-07-23T12:42:06Z</time>
      </trkpt>
      <trkpt lat="46.6691270" lon="6.1289920">
        <ele>1029.8</ele>
        <time>2022-07-23T12:42:12Z</time>
      </trkpt>
      <trkpt lat="46.6691090" lon="6.1289710">
        <ele>1030.2</ele>
        <time>2022-07-23T12:42:14Z</time>
      </trkpt>
      <trkpt lat="46.6690840" lon="6.1289400">
        <ele>1030.8</ele>
        <time>2022-07-23T12:42:17Z</time>
      </trkpt>
      <trkpt lat="46.6690470" lon="6.1288960">
        <ele>1032.0</ele>
        <time>2022-07-23T12:42:22Z</time>
      </trkpt>
      <trkpt lat="46.6690390" lon="6.1288900">
        <ele>1032.2</ele>
        <time>2022-07-23T12:42:23Z</time>
      </trkpt>
      <trkpt lat="46.6689980" lon="6.1288440">
        <ele>1033.0</ele>
        <time>2022-07-23T12:42:28Z</time>
      </trkpt>
      <trkpt lat="46.6689720" lon="6.1288230">
        <ele>1033.4</ele>
        <time>2022-07-23T12:42:31Z</time>
      </trkpt>
      <trkpt lat="46.6689600" lon="6.1288000">
        <ele>1034.0</ele>
        <time>2022-07-23T12:42:33Z</time>
      </trkpt>
      <trkpt lat="46.6689260" lon="6.1287410">
        <ele>1035.0</ele>
        <time>2022-07-23T12:42:38Z</time>
      </trkpt>
      <trkpt lat="46.6689170" lon="6.1287320">
        <ele>1035.0</ele>
        <time>2022-07-23T12:42:39Z</time>
      </trkpt>
      <trkpt lat="46.6688790" lon="6.1286800">
        <ele>1036.4</ele>
        <time>2022-07-23T12:42:45Z</time>
      </trkpt>
      <trkpt lat="46.6688730" lon="6.1286720">
        <ele>1036.4</ele>
        <time>2022-07-23T12:42:46Z</time>
      </trkpt>
      <trkpt lat="46.6688450" lon="6.1286340">
        <ele>1037.4</ele>
        <time>2022-07-23T12:42:50Z</time>
      </trkpt>
      <trkpt lat="46.6688140" lon="6.1285930">
        <ele>1038.0</ele>
        <time>2022-07-23T12:42:54Z</time>
      </trkpt>
      <trkpt lat="46.6687920" lon="6.1285590">
        <ele>1038.4</ele>
        <time>2022-07-23T12:42:57Z</time>
      </trkpt>
      <trkpt lat="46.6687650" lon="6.1285110">
        <ele>1039.4</ele>
        <time>2022-07-23T12:43:01Z</time>
      </trkpt>
      <trkpt lat="46.6687580" lon="6.1284980">
        <ele>1039.6</ele>
        <time>2022-07-23T12:43:02Z</time>
      </trkpt>
      <trkpt lat="46.6687180" lon="6.1284140">
        <ele>1040.4</ele>
        <time>2022-07-23T12:43:08Z</time>
      </trkpt>
      <trkpt lat="46.6687000" lon="6.1283900">
        <ele>1040.6</ele>
        <time>2022-07-23T12:43:10Z</time>
      </trkpt>
      <trkpt lat="46.6686580" lon="6.1283160">
        <ele>1041.2</ele>
        <time>2022-07-23T12:43:15Z</time>
      </trkpt>
      <trkpt lat="46.6686460" lon="6.1282840">
        <ele>1041.6</ele>
        <time>2022-07-23T12:43:17Z</time>
      </trkpt>
      <trkpt lat="46.6686110" lon="6.1282050">
        <ele>1042.4</ele>
        <time>2022-07-23T12:43:22Z</time>
      </trkpt>
      <trkpt lat="46.6685940" lon="6.1281750">
        <ele>1042.6</ele>
        <time>2022-07-23T12:43:24Z</time>
      </trkpt>
      <trkpt lat="46.6685490" lon="6.1280880">
        <ele>1043.6</ele>
        <time>2022-07-23T12:43:30Z</time>
      </trkpt>
      <trkpt lat="46.6685400" lon="6.1280710">
        <ele>1043.8</ele>
        <time>2022-07-23T12:43:31Z</time>
      </trkpt>
      <trkpt lat="46.6684860" lon="6.1279720">
        <ele>1045.0</ele>
        <time>2022-07-23T12:43:37Z</time>
      </trkpt>
      <trkpt lat="46.6684790" lon="6.1279510">
        <ele>1045.0</ele>
        <time>2022-07-23T12:43:38Z</time>
      </trkpt>
      <trkpt lat="46.6684250" lon="6.1278320">
        <ele>1046.0</ele>
        <time>2022-07-23T12:43:44Z</time>
      </trkpt>
      <trkpt lat="46.6684010" lon="6.1277890">
        <ele>1046.4</ele>
        <time>2022-07-23T12:43:46Z</time>
      </trkpt>
      <trkpt lat="46.6683260" lon="6.1276520">
        <ele>1046.8</ele>
        <time>2022-07-23T12:43:53Z</time>
      </trkpt>
      <trkpt lat="46.6682620" lon="6.1275130">
        <ele>1048.0</ele>
        <time>2022-07-23T12:44:00Z</time>
      </trkpt>
      <trkpt lat="46.6682360" lon="6.1274580">
        <ele>1048.2</ele>
        <time>2022-07-23T12:44:03Z</time>
      </trkpt>
      <trkpt lat="46.6681640" lon="6.1273120">
        <ele>1048.8</ele>
        <time>2022-07-23T12:44:11Z</time>
      </trkpt>
      <trkpt lat="46.6681520" lon="6.1272910">
        <ele>1049.0</ele>
        <time>2022-07-23T12:44:12Z</time>
      </trkpt>
      <trkpt lat="46.6681480" lon="6.1272680">
        <ele>1049.0</ele>
        <time>2022-07-23T12:44:15Z</time>
      </trkpt>
      <trkpt lat="46.6680940" lon="6.1272060">
        <ele>1049.0</ele>
        <time>2022-07-23T12:44:31Z</time>
      </trkpt>
      <trkpt lat="46.6680650" lon="6.1271450">
        <ele>1049.0</ele>
        <time>2022-07-23T12:44:34Z</time>
      </trkpt>
      <trkpt lat="46.6679630" lon="6.1270070">
        <ele>1049.0</ele>
        <time>2022-07-23T12:44:41Z</time>
      </trkpt>
      <trkpt lat="46.6678520" lon="6.1268790">
        <ele>1049.0</ele>
        <time>2022-07-23T12:44:47Z</time>
      </trkpt>
      <trkpt lat="46.6676970" lon="6.1266630">
        <ele>1048.8</ele>
        <time>2022-07-23T12:44:52Z</time>
      </trkpt>
      <trkpt lat="46.6675380" lon="6.1264210">
        <ele>1048.0</ele>
        <time>2022-07-23T12:44:58Z</time>
      </trkpt>
      <trkpt lat="46.6675140" lon="6.1263830">
        <ele>1047.6</ele>
        <time>2022-07-23T12:45:00Z</time>
      </trkpt>
      <trkpt lat="46.6674220" lon="6.1262920">
        <ele>1047.2</ele>
        <time>2022-07-23T12:45:05Z</time>
      </trkpt>
      <trkpt lat="46.6672890" lon="6.1261570">
        <ele>1047.0</ele>
        <time>2022-07-23T12:45:12Z</time>
      </trkpt>
      <trkpt lat="46.6671830" lon="6.1260620">
        <ele>1046.8</ele>
        <time>2022-07-23T12:45:19Z</time>
      </trkpt>
      <trkpt lat="46.6670560" lon="6.1259500">
        <ele>1047.2</ele>
        <time>2022-07-23T12:45:27Z</time>
      </trkpt>
      <trkpt lat="46.6669810" lon="6.1258170">
        <ele>1047.4</ele>
        <time>2022-07-23T12:45:32Z</time>
      </trkpt>
      <trkpt lat="46.6669000" lon="6.1255630">
        <ele>1047.8</ele>
        <time>2022-07-23T12:45:39Z</time>
      </trkpt>
      <trkpt lat="46.6668130" lon="6.1252880">
        <ele>1047.8</ele>
        <time>2022-07-23T12:45:45Z</time>
      </trkpt>
      <trkpt lat="46.6667010" lon="6.1248930">
        <ele>1046.8</ele>
        <time>2022-07-23T12:45:51Z</time>
      </trkpt>
      <trkpt lat="46.6666050" lon="6.1245960">
        <ele>1046.2</ele>
        <time>2022-07-23T12:45:55Z</time>
      </trkpt>
      <trkpt lat="46.6665550" lon="6.1244490">
        <ele>1045.6</ele>
        <time>2022-07-23T12:45:57Z</time>
      </trkpt>
      <trkpt lat="46.6664930" lon="6.1242410">
        <ele>1045.0</ele>
        <time>2022-07-23T12:46:00Z</time>
      </trkpt>
      <trkpt lat="46.6664200" lon="6.1239770">
        <ele>1044.2</ele>
        <time>2022-07-23T12:46:04Z</time>
      </trkpt>
      <trkpt lat="46.6663980" lon="6.1239140">
        <ele>1044.2</ele>
        <time>2022-07-23T12:46:05Z</time>
      </trkpt>
      <trkpt lat="46.6663740" lon="6.1238460">
        <ele>1044.0</ele>
        <time>2022-07-23T12:46:06Z</time>
      </trkpt>
      <trkpt lat="46.6662980" lon="6.1236450">
        <ele>1043.6</ele>
        <time>2022-07-23T12:46:09Z</time>
      </trkpt>
      <trkpt lat="46.6661870" lon="6.1233470">
        <ele>1043.0</ele>
        <time>2022-07-23T12:46:13Z</time>
      </trkpt>
      <trkpt lat="46.6661440" lon="6.1231990">
        <ele>1042.6</ele>
        <time>2022-07-23T12:46:15Z</time>
      </trkpt>
      <trkpt lat="46.6660630" lon="6.1229730">
        <ele>1041.8</ele>
        <time>2022-07-23T12:46:18Z</time>
      </trkpt>
      <trkpt lat="46.6660030" lon="6.1228130">
        <ele>1041.2</ele>
        <time>2022-07-23T12:46:20Z</time>
      </trkpt>
      <trkpt lat="46.6658730" lon="6.1224660">
        <ele>1040.6</ele>
        <time>2022-07-23T12:46:24Z</time>
      </trkpt>
      <trkpt lat="46.6658110" lon="6.1222980">
        <ele>1040.0</ele>
        <time>2022-07-23T12:46:26Z</time>
      </trkpt>
      <trkpt lat="46.6657210" lon="6.1220420">
        <ele>1039.4</ele>
        <time>2022-07-23T12:46:29Z</time>
      </trkpt>
      <trkpt lat="46.6656370" lon="6.1217920">
        <ele>1038.4</ele>
        <time>2022-07-23T12:46:32Z</time>
      </trkpt>
      <trkpt lat="46.6656100" lon="6.1217080">
        <ele>1038.0</ele>
        <time>2022-07-23T12:46:33Z</time>
      </trkpt>
      <trkpt lat="46.6654570" lon="6.1213340">
        <ele>1037.0</ele>
        <time>2022-07-23T12:46:38Z</time>
      </trkpt>
      <trkpt lat="46.6654260" lon="6.1212660">
        <ele>1036.8</ele>
        <time>2022-07-23T12:46:39Z</time>
      </trkpt>
      <trkpt lat="46.6653690" lon="6.1211260">
        <ele>1036.2</ele>
        <time>2022-07-23T12:46:41Z</time>
      </trkpt>
      <trkpt lat="46.6653290" lon="6.1210020">
        <ele>1036.0</ele>
        <time>2022-07-23T12:46:43Z</time>
      </trkpt>
      <trkpt lat="46.6653230" lon="6.1209260">
        <ele>1035.8</ele>
        <time>2022-07-23T12:46:44Z</time>
      </trkpt>
      <trkpt lat="46.6653420" lon="6.1207140">
        <ele>1035.2</ele>
        <time>2022-07-23T12:46:47Z</time>
      </trkpt>
      <trkpt lat="46.6653500" lon="6.1206570">
        <ele>1035.0</ele>
        <time>2022-07-23T12:46:48Z</time>
      </trkpt>
      <trkpt lat="46.6653750" lon="6.1205350">
        <ele>1034.6</ele>
        <time>2022-07-23T12:46:51Z</time>
      </trkpt>
      <trkpt lat="46.6653660" lon="6.1205180">
        <ele>1034.4</ele>
        <time>2022-07-23T12:46:52Z</time>
      </trkpt>
      <trkpt lat="46.6653570" lon="6.1203740">
        <ele>1034.4</ele>
        <time>2022-07-23T12:46:59Z</time>
      </trkpt>
      <trkpt lat="46.6653220" lon="6.1201620">
        <ele>1035.0</ele>
        <time>2022-07-23T12:47:05Z</time>
      </trkpt>
      <trkpt lat="46.6652800" lon="6.1199000">
        <ele>1035.2</ele>
        <time>2022-07-23T12:47:13Z</time>
      </trkpt>
      <trkpt lat="46.6652380" lon="6.1196980">
        <ele>1035.4</ele>
        <time>2022-07-23T12:47:20Z</time>
      </trkpt>
      <trkpt lat="46.6652220" lon="6.1195950">
        <ele>1035.4</ele>
        <time>2022-07-23T12:47:23Z</time>
      </trkpt>
      <trkpt lat="46.6651820" lon="6.1193690">
        <ele>1035.8</ele>
        <time>2022-07-23T12:47:29Z</time>
      </trkpt>
      <trkpt lat="46.6651190" lon="6.1190250">
        <ele>1035.8</ele>
        <time>2022-07-23T12:47:37Z</time>
      </trkpt>
      <trkpt lat="46.6650700" lon="6.1187620">
        <ele>1035.2</ele>
        <time>2022-07-23T12:47:44Z</time>
      </trkpt>
      <trkpt lat="46.6649950" lon="6.1185060">
        <ele>1034.8</ele>
        <time>2022-07-23T12:47:51Z</time>
      </trkpt>
      <trkpt lat="46.6648860" lon="6.1181880">
        <ele>1034.4</ele>
        <time>2022-07-23T12:47:58Z</time>
      </trkpt>
      <trkpt lat="46.6648630" lon="6.1181400">
        <ele>1034.2</ele>
        <time>2022-07-23T12:47:59Z</time>
      </trkpt>
      <trkpt lat="46.6647980" lon="6.1179930">
        <ele>1033.8</ele>
        <time>2022-07-23T12:48:02Z</time>
      </trkpt>
      <trkpt lat="46.6647320" lon="6.1178110">
        <ele>1033.4</ele>
        <time>2022-07-23T12:48:07Z</time>
      </trkpt>
      <trkpt lat="46.6646790" lon="6.1176990">
        <ele>1033.2</ele>
        <time>2022-07-23T12:48:11Z</time>
      </trkpt>
      <trkpt lat="46.6646230" lon="6.1176240">
        <ele>1033.0</ele>
        <time>2022-07-23T12:48:14Z</time>
      </trkpt>
      <trkpt lat="46.6644670" lon="6.1174570">
        <ele>1032.6</ele>
        <time>2022-07-23T12:48:22Z</time>
      </trkpt>
      <trkpt lat="46.6643350" lon="6.1173310">
        <ele>1033.0</ele>
        <time>2022-07-23T12:48:29Z</time>
      </trkpt>
      <trkpt lat="46.6642090" lon="6.1171820">
        <ele>1034.0</ele>
        <time>2022-07-23T12:48:38Z</time>
      </trkpt>
      <trkpt lat="46.6641180" lon="6.1170760">
        <ele>1034.6</ele>
        <time>2022-07-23T12:48:44Z</time>
      </trkpt>
      <trkpt lat="46.6640590" lon="6.1169890">
        <ele>1035.0</ele>
        <time>2022-07-23T12:48:48Z</time>
      </trkpt>
      <trkpt lat="46.6640250" lon="6.1169250">
        <ele>1035.4</ele>
        <time>2022-07-23T12:48:51Z</time>
      </trkpt>
      <trkpt lat="46.6639920" lon="6.1168810">
        <ele>1035.6</ele>
        <time>2022-07-23T12:48:54Z</time>
      </trkpt>
      <trkpt lat="46.6639500" lon="6.1168830">
        <ele>1035.6</ele>
        <time>2022-07-23T12:48:57Z</time>
      </trkpt>
      <trkpt lat="46.6639370" lon="6.1169010">
        <ele>1035.6</ele>
        <time>2022-07-23T12:48:59Z</time>
      </trkpt>
      <trkpt lat="46.6639100" lon="6.1169610">
        <ele>1035.8</ele>
        <time>2022-07-23T12:49:04Z</time>
      </trkpt>
      <trkpt lat="46.6639080" lon="6.1169660">
        <ele>1035.8</ele>
        <time>2022-07-23T12:49:05Z</time>
      </trkpt>
      <trkpt lat="46.6639100" lon="6.1169670">
        <ele>1035.8</ele>
        <time>2022-07-23T12:49:06Z</time>
      </trkpt>
      <trkpt lat="46.6638660" lon="6.1170010">
        <ele>1036.2</ele>
        <time>2022-07-23T12:49:12Z</time>
      </trkpt>
      <trkpt lat="46.6638360" lon="6.1170330">
        <ele>1036.2</ele>
        <time>2022-07-23T12:49:14Z</time>
      </trkpt>
      <trkpt lat="46.6637560" lon="6.1171210">
        <ele>1036.8</ele>
        <time>2022-07-23T12:49:21Z</time>
      </trkpt>
      <trkpt lat="46.6636710" lon="6.1172080">
        <ele>1038.0</ele>
        <time>2022-07-23T12:49:29Z</time>
      </trkpt>
      <trkpt lat="46.6636490" lon="6.1172320">
        <ele>1038.4</ele>
        <time>2022-07-23T12:49:31Z</time>
      </trkpt>
      <trkpt lat="46.6635970" lon="6.1172820">
        <ele>1039.0</ele>
        <time>2022-07-23T12:49:36Z</time>
      </trkpt>
      <trkpt lat="46.6635500" lon="6.1173360">
        <ele>1039.8</ele>
        <time>2022-07-23T12:49:41Z</time>
      </trkpt>
      <trkpt lat="46.6635410" lon="6.1173480">
        <ele>1040.0</ele>
        <time>2022-07-23T12:49:42Z</time>
      </trkpt>
      <trkpt lat="46.6634730" lon="6.1174170">
        <ele>1041.0</ele>
        <time>2022-07-23T12:49:49Z</time>
      </trkpt>
      <trkpt lat="46.6634700" lon="6.1174210">
        <ele>1041.0</ele>
        <time>2022-07-23T12:49:51Z</time>
      </trkpt>
      <trkpt lat="46.6634560" lon="6.1174460">
        <ele>1041.8</ele>
        <time>2022-07-23T12:50:31Z</time>
      </trkpt>
      <trkpt lat="46.6634390" lon="6.1174560">
        <ele>1041.8</ele>
        <time>2022-07-23T12:50:32Z</time>
      </trkpt>
      <trkpt lat="46.6634210" lon="6.1174640">
        <ele>1041.8</ele>
        <time>2022-07-23T12:50:33Z</time>
      </trkpt>
      <trkpt lat="46.6633180" lon="6.1175330">
        <ele>1041.8</ele>
        <time>2022-07-23T12:50:39Z</time>
      </trkpt>
      <trkpt lat="46.6631780" lon="6.1175860">
        <ele>1043.0</ele>
        <time>2022-07-23T12:50:47Z</time>
      </trkpt>
      <trkpt lat="46.6631140" lon="6.1175920">
        <ele>1044.0</ele>
        <time>2022-07-23T12:50:52Z</time>
      </trkpt>
      <trkpt lat="46.6630770" lon="6.1175990">
        <ele>1044.6</ele>
        <time>2022-07-23T12:50:55Z</time>
      </trkpt>
      <trkpt lat="46.6630530" lon="6.1175980">
        <ele>1045.0</ele>
        <time>2022-07-23T12:50:57Z</time>
      </trkpt>
      <trkpt lat="46.6629660" lon="6.1175830">
        <ele>1046.0</ele>
        <time>2022-07-23T12:51:03Z</time>
      </trkpt>
      <trkpt lat="46.6629530" lon="6.1175790">
        <ele>1046.0</ele>
        <time>2022-07-23T12:51:04Z</time>
      </trkpt>
      <trkpt lat="46.6628510" lon="6.1175690">
        <ele>1047.0</ele>
        <time>2022-07-23T12:51:11Z</time>
      </trkpt>
      <trkpt lat="46.6628360" lon="6.1175680">
        <ele>1047.2</ele>
        <time>2022-07-23T12:51:12Z</time>
      </trkpt>
      <trkpt lat="46.6627350" lon="6.1175710">
        <ele>1048.2</ele>
        <time>2022-07-23T12:51:19Z</time>
      </trkpt>
      <trkpt lat="46.6627200" lon="6.1175680">
        <ele>1048.4</ele>
        <time>2022-07-23T12:51:20Z</time>
      </trkpt>
      <trkpt lat="46.6626400" lon="6.1175570">
        <ele>1049.4</ele>
        <time>2022-07-23T12:51:25Z</time>
      </trkpt>
      <trkpt lat="46.6625920" lon="6.1175470">
        <ele>1049.6</ele>
        <time>2022-07-23T12:51:28Z</time>
      </trkpt>
      <trkpt lat="46.6625140" lon="6.1174950">
        <ele>1050.4</ele>
        <time>2022-07-23T12:51:33Z</time>
      </trkpt>
      <trkpt lat="46.6624680" lon="6.1174620">
        <ele>1051.0</ele>
        <time>2022-07-23T12:51:36Z</time>
      </trkpt>
      <trkpt lat="46.6624520" lon="6.1174500">
        <ele>1051.0</ele>
        <time>2022-07-23T12:51:37Z</time>
      </trkpt>
      <trkpt lat="46.6623330" lon="6.1173490">
        <ele>1051.4</ele>
        <time>2022-07-23T12:51:43Z</time>
      </trkpt>
      <trkpt lat="46.6623070" lon="6.1173290">
        <ele>1051.6</ele>
        <time>2022-07-23T12:51:44Z</time>
      </trkpt>
      <trkpt lat="46.6621780" lon="6.1171780">
        <ele>1051.8</ele>
        <time>2022-07-23T12:51:50Z</time>
      </trkpt>
      <trkpt lat="46.6621360" lon="6.1171230">
        <ele>1051.8</ele>
        <time>2022-07-23T12:51:54Z</time>
      </trkpt>
      <trkpt lat="46.6621190" lon="6.1170970">
        <ele>1051.8</ele>
        <time>2022-07-23T12:51:56Z</time>
      </trkpt>
      <trkpt lat="46.6620950" lon="6.1170250">
        <ele>1051.8</ele>
        <time>2022-07-23T12:51:59Z</time>
      </trkpt>
      <trkpt lat="46.6620820" lon="6.1169750">
        <ele>1051.8</ele>
        <time>2022-07-23T12:52:01Z</time>
      </trkpt>
      <trkpt lat="46.6620420" lon="6.1168000">
        <ele>1051.2</ele>
        <time>2022-07-23T12:52:08Z</time>
      </trkpt>
      <trkpt lat="46.6620240" lon="6.1166600">
        <ele>1050.2</ele>
        <time>2022-07-23T12:52:13Z</time>
      </trkpt>
      <trkpt lat="46.6620270" lon="6.1164700">
        <ele>1049.2</ele>
        <time>2022-07-23T12:52:18Z</time>
      </trkpt>
      <trkpt lat="46.6620280" lon="6.1164340">
        <ele>1049.0</ele>
        <time>2022-07-23T12:52:19Z</time>
      </trkpt>
      <trkpt lat="46.6620320" lon="6.1162820">
        <ele>1047.8</ele>
        <time>2022-07-23T12:52:24Z</time>
      </trkpt>
      <trkpt lat="46.6620290" lon="6.1161890">
        <ele>1046.8</ele>
        <time>2022-07-23T12:52:29Z</time>
      </trkpt>
      <trkpt lat="46.6620300" lon="6.1161700">
        <ele>1046.8</ele>
        <time>2022-07-23T12:52:30Z</time>
      </trkpt>
      <trkpt lat="46.6620430" lon="6.1160410">
        <ele>1045.6</ele>
        <time>2022-07-23T12:52:35Z</time>
      </trkpt>
      <trkpt lat="46.6620480" lon="6.1159140">
        <ele>1044.4</ele>
        <time>2022-07-23T12:52:40Z</time>
      </trkpt>
      <trkpt lat="46.6620480" lon="6.1158940">
        <ele>1044.2</ele>
        <time>2022-07-23T12:52:41Z</time>
      </trkpt>
      <trkpt lat="46.6620500" lon="6.1158770">
        <ele>1043.8</ele>
        <time>2022-07-23T12:52:42Z</time>
      </trkpt>
      <trkpt lat="46.6620560" lon="6.1158540">
        <ele>1043.2</ele>
        <time>2022-07-23T12:52:44Z</time>
      </trkpt>
      <trkpt lat="46.6620550" lon="6.1158470">
        <ele>1043.0</ele>
        <time>2022-07-23T12:52:46Z</time>
      </trkpt>
      <trkpt lat="46.6621630" lon="6.1154460">
        <ele>1038.4</ele>
        <time>2022-07-23T12:53:44Z</time>
      </trkpt>
      <trkpt lat="46.6621790" lon="6.1153720">
        <ele>1038.4</ele>
        <time>2022-07-23T12:53:46Z</time>
      </trkpt>
      <trkpt lat="46.6621870" lon="6.1152230">
        <ele>1038.2</ele>
        <time>2022-07-23T12:53:51Z</time>
      </trkpt>
      <trkpt lat="46.6621950" lon="6.1151540">
        <ele>1037.2</ele>
        <time>2022-07-23T12:53:55Z</time>
      </trkpt>
      <trkpt lat="46.6621860" lon="6.1150500">
        <ele>1035.2</ele>
        <time>2022-07-23T12:54:08Z</time>
      </trkpt>
      <trkpt lat="46.6621720" lon="6.1149800">
        <ele>1035.0</ele>
        <time>2022-07-23T12:54:12Z</time>
      </trkpt>
      <trkpt lat="46.6621740" lon="6.1149760">
        <ele>1035.0</ele>
        <time>2022-07-23T12:54:13Z</time>
      </trkpt>
      <trkpt lat="46.6621750" lon="6.1148410">
        <ele>1033.8</ele>
        <time>2022-07-23T12:54:38Z</time>
      </trkpt>
      <trkpt lat="46.6621680" lon="6.1147460">
        <ele>1033.8</ele>
        <time>2022-07-23T12:54:40Z</time>
      </trkpt>
      <trkpt lat="46.6620960" lon="6.1145680">
        <ele>1033.2</ele>
        <time>2022-07-23T12:54:44Z</time>
      </trkpt>
      <trkpt lat="46.6620140" lon="6.1143960">
        <ele>1032.4</ele>
        <time>2022-07-23T12:54:49Z</time>
      </trkpt>
      <trkpt lat="46.6619560" lon="6.1142030">
        <ele>1032.4</ele>
        <time>2022-07-23T12:54:55Z</time>
      </trkpt>
      <trkpt lat="46.6619350" lon="6.1140630">
        <ele>1032.4</ele>
        <time>2022-07-23T12:54:59Z</time>
      </trkpt>
      <trkpt lat="46.6619190" lon="6.1140220">
        <ele>1032.4</ele>
        <time>2022-07-23T12:55:00Z</time>
      </trkpt>
      <trkpt lat="46.6618460" lon="6.1137450">
        <ele>1032.4</ele>
        <time>2022-07-23T12:55:06Z</time>
      </trkpt>
      <trkpt lat="46.6618150" lon="6.1135790">
        <ele>1032.4</ele>
        <time>2022-07-23T12:55:11Z</time>
      </trkpt>
      <trkpt lat="46.6617620" lon="6.1133950">
        <ele>1032.4</ele>
        <time>2022-07-23T12:55:18Z</time>
      </trkpt>
      <trkpt lat="46.6617570" lon="6.1133510">
        <ele>1032.4</ele>
        <time>2022-07-23T12:55:20Z</time>
      </trkpt>
      <trkpt lat="46.6617340" lon="6.1132570">
        <ele>1032.8</ele>
        <time>2022-07-23T12:55:25Z</time>
      </trkpt>
      <trkpt lat="46.6617240" lon="6.1131900">
        <ele>1033.2</ele>
        <time>2022-07-23T12:55:28Z</time>
      </trkpt>
      <trkpt lat="46.6617120" lon="6.1131290">
        <ele>1033.4</ele>
        <time>2022-07-23T12:55:31Z</time>
      </trkpt>
      <trkpt lat="46.6616970" lon="6.1130150">
        <ele>1034.4</ele>
        <time>2022-07-23T12:55:37Z</time>
      </trkpt>
      <trkpt lat="46.6616870" lon="6.1129700">
        <ele>1034.8</ele>
        <time>2022-07-23T12:55:39Z</time>
      </trkpt>
      <trkpt lat="46.6616840" lon="6.1129060">
        <ele>1035.6</ele>
        <time>2022-07-23T12:55:42Z</time>
      </trkpt>
      <trkpt lat="46.6616680" lon="6.1128430">
        <ele>1036.2</ele>
        <time>2022-07-23T12:55:45Z</time>
      </trkpt>
      <trkpt lat="46.6616560" lon="6.1127670">
        <ele>1036.8</ele>
        <time>2022-07-23T12:55:48Z</time>
      </trkpt>
      <trkpt lat="46.6616390" lon="6.1126220">
        <ele>1037.6</ele>
        <time>2022-07-23T12:55:54Z</time>
      </trkpt>
      <trkpt lat="46.6616290" lon="6.1125810">
        <ele>1037.8</ele>
        <time>2022-07-23T12:55:56Z</time>
      </trkpt>
      <trkpt lat="46.6615990" lon="6.1124690">
        <ele>1038.2</ele>
        <time>2022-07-23T12:56:02Z</time>
      </trkpt>
      <trkpt lat="46.6615820" lon="6.1123880">
        <ele>1038.8</ele>
        <time>2022-07-23T12:56:06Z</time>
      </trkpt>
      <trkpt lat="46.6615650" lon="6.1123150">
        <ele>1039.4</ele>
        <time>2022-07-23T12:56:10Z</time>
      </trkpt>
      <trkpt lat="46.6615490" lon="6.1122770">
        <ele>1039.8</ele>
        <time>2022-07-23T12:56:12Z</time>
      </trkpt>
      <trkpt lat="46.6615210" lon="6.1121690">
        <ele>1040.6</ele>
        <time>2022-07-23T12:56:17Z</time>
      </trkpt>
      <trkpt lat="46.6615060" lon="6.1121410">
        <ele>1040.8</ele>
        <time>2022-07-23T12:56:19Z</time>
      </trkpt>
      <trkpt lat="46.6614710" lon="6.1121040">
        <ele>1041.2</ele>
        <time>2022-07-23T12:56:23Z</time>
      </trkpt>
      <trkpt lat="46.6614280" lon="6.1119970">
        <ele>1041.8</ele>
        <time>2022-07-23T12:56:29Z</time>
      </trkpt>
      <trkpt lat="46.6613950" lon="6.1119140">
        <ele>1042.6</ele>
        <time>2022-07-23T12:56:35Z</time>
      </trkpt>
      <trkpt lat="46.6613750" lon="6.1118510">
        <ele>1043.0</ele>
        <time>2022-07-23T12:56:38Z</time>
      </trkpt>
      <trkpt lat="46.6613610" lon="6.1117830">
        <ele>1043.4</ele>
        <time>2022-07-23T12:56:42Z</time>
      </trkpt>
      <trkpt lat="46.6613570" lon="6.1117670">
        <ele>1043.6</ele>
        <time>2022-07-23T12:56:43Z</time>
      </trkpt>
      <trkpt lat="46.6613430" lon="6.1117300">
        <ele>1043.8</ele>
        <time>2022-07-23T12:56:45Z</time>
      </trkpt>
      <trkpt lat="46.6613300" lon="6.1116820">
        <ele>1044.0</ele>
        <time>2022-07-23T12:56:47Z</time>
      </trkpt>
      <trkpt lat="46.6612760" lon="6.1115780">
        <ele>1045.0</ele>
        <time>2022-07-23T12:56:53Z</time>
      </trkpt>
      <trkpt lat="46.6612710" lon="6.1115630">
        <ele>1045.2</ele>
        <time>2022-07-23T12:56:54Z</time>
      </trkpt>
      <trkpt lat="46.6612260" lon="6.1114610">
        <ele>1045.6</ele>
        <time>2022-07-23T12:57:00Z</time>
      </trkpt>
      <trkpt lat="46.6612110" lon="6.1114220">
        <ele>1045.8</ele>
        <time>2022-07-23T12:57:02Z</time>
      </trkpt>
      <trkpt lat="46.6611740" lon="6.1113460">
        <ele>1046.6</ele>
        <time>2022-07-23T12:57:07Z</time>
      </trkpt>
      <trkpt lat="46.6611580" lon="6.1113070">
        <ele>1047.0</ele>
        <time>2022-07-23T12:57:09Z</time>
      </trkpt>
      <trkpt lat="46.6611350" lon="6.1112330">
        <ele>1047.4</ele>
        <time>2022-07-23T12:57:13Z</time>
      </trkpt>
      <trkpt lat="46.6610510" lon="6.1110360">
        <ele>1048.0</ele>
        <time>2022-07-23T12:57:21Z</time>
      </trkpt>
      <trkpt lat="46.6610470" lon="6.1110090">
        <ele>1048.0</ele>
        <time>2022-07-23T12:57:22Z</time>
      </trkpt>
      <trkpt lat="46.6609990" lon="6.1108850">
        <ele>1048.0</ele>
        <time>2022-07-23T12:57:27Z</time>
      </trkpt>
      <trkpt lat="46.6609190" lon="6.1107340">
        <ele>1048.0</ele>
        <time>2022-07-23T12:57:34Z</time>
      </trkpt>
      <trkpt lat="46.6608310" lon="6.1106420">
        <ele>1048.4</ele>
        <time>2022-07-23T12:57:39Z</time>
      </trkpt>
      <trkpt lat="46.6607770" lon="6.1104710">
        <ele>1048.8</ele>
        <time>2022-07-23T12:57:44Z</time>
      </trkpt>
      <trkpt lat="46.6607250" lon="6.1103120">
        <ele>1049.4</ele>
        <time>2022-07-23T12:57:51Z</time>
      </trkpt>
      <trkpt lat="46.6607040" lon="6.1102040">
        <ele>1050.0</ele>
        <time>2022-07-23T12:57:55Z</time>
      </trkpt>
      <trkpt lat="46.6606960" lon="6.1101590">
        <ele>1050.4</ele>
        <time>2022-07-23T12:57:57Z</time>
      </trkpt>
      <trkpt lat="46.6606450" lon="6.1100580">
        <ele>1051.0</ele>
        <time>2022-07-23T12:58:02Z</time>
      </trkpt>
      <trkpt lat="46.6606320" lon="6.1100350">
        <ele>1051.2</ele>
        <time>2022-07-23T12:58:03Z</time>
      </trkpt>
      <trkpt lat="46.6605780" lon="6.1099170">
        <ele>1052.0</ele>
        <time>2022-07-23T12:58:08Z</time>
      </trkpt>
      <trkpt lat="46.6605510" lon="6.1098710">
        <ele>1052.2</ele>
        <time>2022-07-23T12:58:10Z</time>
      </trkpt>
      <trkpt lat="46.6604450" lon="6.1097290">
        <ele>1052.4</ele>
        <time>2022-07-23T12:58:16Z</time>
      </trkpt>
      <trkpt lat="46.6602600" lon="6.1095850">
        <ele>1052.2</ele>
        <time>2022-07-23T12:58:24Z</time>
      </trkpt>
      <trkpt lat="46.6601490" lon="6.1094910">
        <ele>1052.0</ele>
        <time>2022-07-23T12:58:30Z</time>
      </trkpt>
      <trkpt lat="46.6600620" lon="6.1094300">
        <ele>1052.2</ele>
        <time>2022-07-23T12:58:36Z</time>
      </trkpt>
      <trkpt lat="46.6599900" lon="6.1093020">
        <ele>1052.8</ele>
        <time>2022-07-23T12:58:43Z</time>
      </trkpt>
      <trkpt lat="46.6599680" lon="6.1092650">
        <ele>1052.8</ele>
        <time>2022-07-23T12:58:47Z</time>
      </trkpt>
      <trkpt lat="46.6597790" lon="6.1089810">
        <ele>1054.2</ele>
        <time>2022-07-23T12:59:09Z</time>
      </trkpt>
      <trkpt lat="46.6596860" lon="6.1088060">
        <ele>1054.8</ele>
        <time>2022-07-23T12:59:15Z</time>
      </trkpt>
      <trkpt lat="46.6594860" lon="6.1084320">
        <ele>1054.8</ele>
        <time>2022-07-23T12:59:21Z</time>
      </trkpt>
      <trkpt lat="46.6593870" lon="6.1082270">
        <ele>1053.6</ele>
        <time>2022-07-23T12:59:25Z</time>
      </trkpt>
      <trkpt lat="46.6593720" lon="6.1081960">
        <ele>1053.2</ele>
        <time>2022-07-23T12:59:26Z</time>
      </trkpt>
      <trkpt lat="46.6593360" lon="6.1081110">
        <ele>1052.2</ele>
        <time>2022-07-23T12:59:29Z</time>
      </trkpt>
      <trkpt lat="46.6593200" lon="6.1080800">
        <ele>1052.0</ele>
        <time>2022-07-23T12:59:30Z</time>
      </trkpt>
      <trkpt lat="46.6592510" lon="6.1078940">
        <ele>1052.0</ele>
        <time>2022-07-23T12:59:37Z</time>
      </trkpt>
      <trkpt lat="46.6592370" lon="6.1078660">
        <ele>1052.0</ele>
        <time>2022-07-23T12:59:38Z</time>
      </trkpt>
      <trkpt lat="46.6592130" lon="6.1077670">
        <ele>1052.4</ele>
        <time>2022-07-23T12:59:41Z</time>
      </trkpt>
      <trkpt lat="46.6591740" lon="6.1076890">
        <ele>1052.4</ele>
        <time>2022-07-23T12:59:44Z</time>
      </trkpt>
      <trkpt lat="46.6591380" lon="6.1076030">
        <ele>1052.6</ele>
        <time>2022-07-23T12:59:47Z</time>
      </trkpt>
      <trkpt lat="46.6590410" lon="6.1074280">
        <ele>1052.6</ele>
        <time>2022-07-23T12:59:53Z</time>
      </trkpt>
      <trkpt lat="46.6589750" lon="6.1072540">
        <ele>1052.8</ele>
        <time>2022-07-23T13:00:00Z</time>
      </trkpt>
      <trkpt lat="46.6589710" lon="6.1072310">
        <ele>1053.0</ele>
        <time>2022-07-23T13:00:01Z</time>
      </trkpt>
      <trkpt lat="46.6589670" lon="6.1072080">
        <ele>1053.4</ele>
        <time>2022-07-23T13:00:02Z</time>
      </trkpt>
      <trkpt lat="46.6589090" lon="6.1070620">
        <ele>1054.0</ele>
        <time>2022-07-23T13:00:07Z</time>
      </trkpt>
      <trkpt lat="46.6587850" lon="6.1068730">
        <ele>1054.2</ele>
        <time>2022-07-23T13:00:13Z</time>
      </trkpt>
      <trkpt lat="46.6586220" lon="6.1066230">
        <ele>1054.0</ele>
        <time>2022-07-23T13:00:20Z</time>
      </trkpt>
      <trkpt lat="46.6585360" lon="6.1064180">
        <ele>1053.6</ele>
        <time>2022-07-23T13:00:26Z</time>
      </trkpt>
      <trkpt lat="46.6584640" lon="6.1062100">
        <ele>1053.4</ele>
        <time>2022-07-23T13:00:31Z</time>
      </trkpt>
      <trkpt lat="46.6583300" lon="6.1060270">
        <ele>1053.4</ele>
        <time>2022-07-23T13:00:37Z</time>
      </trkpt>
      <trkpt lat="46.6582950" lon="6.1058240">
        <ele>1053.4</ele>
        <time>2022-07-23T13:00:42Z</time>
      </trkpt>
      <trkpt lat="46.6582700" lon="6.1057760">
        <ele>1053.4</ele>
        <time>2022-07-23T13:00:45Z</time>
      </trkpt>
      <trkpt lat="46.6582470" lon="6.1057700">
        <ele>1053.4</ele>
        <time>2022-07-23T13:00:47Z</time>
      </trkpt>
      <trkpt lat="46.6582290" lon="6.1057660">
        <ele>1053.4</ele>
        <time>2022-07-23T13:00:50Z</time>
      </trkpt>
      <trkpt lat="46.6583040" lon="6.1057450">
        <ele>1053.8</ele>
        <time>2022-07-23T13:01:03Z</time>
      </trkpt>
      <trkpt lat="46.6583280" lon="6.1057400">
        <ele>1053.8</ele>
        <time>2022-07-23T13:01:04Z</time>
      </trkpt>
      <trkpt lat="46.6585280" lon="6.1056460">
        <ele>1053.6</ele>
        <time>2022-07-23T13:01:10Z</time>
      </trkpt>
      <trkpt lat="46.6587680" lon="6.1054750">
        <ele>1053.4</ele>
        <time>2022-07-23T13:01:15Z</time>
      </trkpt>
      <trkpt lat="46.6588190" lon="6.1054490">
        <ele>1053.2</ele>
        <time>2022-07-23T13:01:16Z</time>
      </trkpt>
      <trkpt lat="46.6589810" lon="6.1054300">
        <ele>1052.8</ele>
        <time>2022-07-23T13:01:19Z</time>
      </trkpt>
      <trkpt lat="46.6591780" lon="6.1055090">
        <ele>1052.0</ele>
        <time>2022-07-23T13:01:23Z</time>
      </trkpt>
      <trkpt lat="46.6592180" lon="6.1055240">
        <ele>1051.6</ele>
        <time>2022-07-23T13:01:24Z</time>
      </trkpt>
      <trkpt lat="46.6592920" lon="6.1055100">
        <ele>1051.0</ele>
        <time>2022-07-23T13:01:26Z</time>
      </trkpt>
      <trkpt lat="46.6593220" lon="6.1054890">
        <ele>1050.6</ele>
        <time>2022-07-23T13:01:27Z</time>
      </trkpt>
      <trkpt lat="46.6593780" lon="6.1054090">
        <ele>1049.6</ele>
        <time>2022-07-23T13:01:29Z</time>
      </trkpt>
      <trkpt lat="46.6594020" lon="6.1052820">
        <ele>1049.4</ele>
        <time>2022-07-23T13:01:31Z</time>
      </trkpt>
      <trkpt lat="46.6594060" lon="6.1052160">
        <ele>1049.0</ele>
        <time>2022-07-23T13:01:32Z</time>
      </trkpt>
      <trkpt lat="46.6594030" lon="6.1050880">
        <ele>1048.6</ele>
        <time>2022-07-23T13:01:34Z</time>
      </trkpt>
      <trkpt lat="46.6594000" lon="6.1049480">
        <ele>1048.0</ele>
        <time>2022-07-23T13:01:36Z</time>
      </trkpt>
      <trkpt lat="46.6593940" lon="6.1048680">
        <ele>1047.6</ele>
        <time>2022-07-23T13:01:37Z</time>
      </trkpt>
      <trkpt lat="46.6593600" lon="6.1045820">
        <ele>1046.6</ele>
        <time>2022-07-23T13:01:40Z</time>
      </trkpt>
      <trkpt lat="46.6593170" lon="6.1042650">
        <ele>1045.2</ele>
        <time>2022-07-23T13:01:43Z</time>
      </trkpt>
      <trkpt lat="46.6592850" lon="6.1039490">
        <ele>1044.0</ele>
        <time>2022-07-23T13:01:46Z</time>
      </trkpt>
      <trkpt lat="46.6592610" lon="6.1037600">
        <ele>1043.0</ele>
        <time>2022-07-23T13:01:48Z</time>
      </trkpt>
      <trkpt lat="46.6592430" lon="6.1036690">
        <ele>1042.4</ele>
        <time>2022-07-23T13:01:49Z</time>
      </trkpt>
      <trkpt lat="46.6592000" lon="6.1034850">
        <ele>1041.4</ele>
        <time>2022-07-23T13:01:51Z</time>
      </trkpt>
      <trkpt lat="46.6591560" lon="6.1033010">
        <ele>1040.4</ele>
        <time>2022-07-23T13:01:53Z</time>
      </trkpt>
      <trkpt lat="46.6591020" lon="6.1031140">
        <ele>1038.8</ele>
        <time>2022-07-23T13:01:55Z</time>
      </trkpt>
      <trkpt lat="46.6590800" lon="6.1030180">
        <ele>1038.0</ele>
        <time>2022-07-23T13:01:56Z</time>
      </trkpt>
      <trkpt lat="46.6590640" lon="6.1029180">
        <ele>1037.4</ele>
        <time>2022-07-23T13:01:57Z</time>
      </trkpt>
      <trkpt lat="46.6590360" lon="6.1027090">
        <ele>1035.4</ele>
        <time>2022-07-23T13:01:59Z</time>
      </trkpt>
      <trkpt lat="46.6590120" lon="6.1025180">
        <ele>1033.6</ele>
        <time>2022-07-23T13:02:01Z</time>
      </trkpt>
      <trkpt lat="46.6590040" lon="6.1024350">
        <ele>1032.8</ele>
        <time>2022-07-23T13:02:02Z</time>
      </trkpt>
      <trkpt lat="46.6590040" lon="6.1023620">
        <ele>1031.8</ele>
        <time>2022-07-23T13:02:03Z</time>
      </trkpt>
      <trkpt lat="46.6590110" lon="6.1022940">
        <ele>1031.0</ele>
        <time>2022-07-23T13:02:04Z</time>
      </trkpt>
      <trkpt lat="46.6590260" lon="6.1022320">
        <ele>1029.8</ele>
        <time>2022-07-23T13:02:05Z</time>
      </trkpt>
      <trkpt lat="46.6590580" lon="6.1021800">
        <ele>1028.8</ele>
        <time>2022-07-23T13:02:06Z</time>
      </trkpt>
      <trkpt lat="46.6591040" lon="6.1021470">
        <ele>1027.6</ele>
        <time>2022-07-23T13:02:07Z</time>
      </trkpt>
      <trkpt lat="46.6591530" lon="6.1021360">
        <ele>1026.6</ele>
        <time>2022-07-23T13:02:08Z</time>
      </trkpt>
      <trkpt lat="46.6592090" lon="6.1021390">
        <ele>1025.8</ele>
        <time>2022-07-23T13:02:09Z</time>
      </trkpt>
      <trkpt lat="46.6592690" lon="6.1021380">
        <ele>1024.8</ele>
        <time>2022-07-23T13:02:10Z</time>
      </trkpt>
      <trkpt lat="46.6593880" lon="6.1021410">
        <ele>1023.0</ele>
        <time>2022-07-23T13:02:12Z</time>
      </trkpt>
      <trkpt lat="46.6595050" lon="6.1021390">
        <ele>1022.0</ele>
        <time>2022-07-23T13:02:14Z</time>
      </trkpt>
      <trkpt lat="46.6595630" lon="6.1021280">
        <ele>1021.6</ele>
        <time>2022-07-23T13:02:15Z</time>
      </trkpt>
      <trkpt lat="46.6597120" lon="6.1020580">
        <ele>1020.8</ele>
        <time>2022-07-23T13:02:18Z</time>
      </trkpt>
      <trkpt lat="46.6597880" lon="6.1019930">
        <ele>1020.8</ele>
        <time>2022-07-23T13:02:20Z</time>
      </trkpt>
      <trkpt lat="46.6599710" lon="6.1018340">
        <ele>1020.6</ele>
        <time>2022-07-23T13:02:25Z</time>
      </trkpt>
      <trkpt lat="46.6600780" lon="6.1017820">
        <ele>1020.6</ele>
        <time>2022-07-23T13:02:27Z</time>
      </trkpt>
      <trkpt lat="46.6604980" lon="6.1015860">
        <ele>1019.8</ele>
        <time>2022-07-23T13:02:34Z</time>
      </trkpt>
      <trkpt lat="46.6606920" lon="6.1014750">
        <ele>1018.8</ele>
        <time>2022-07-23T13:02:38Z</time>
      </trkpt>
      <trkpt lat="46.6607300" lon="6.1014490">
        <ele>1018.8</ele>
        <time>2022-07-23T13:02:39Z</time>
      </trkpt>
      <trkpt lat="46.6608730" lon="6.1013470">
        <ele>1018.6</ele>
        <time>2022-07-23T13:02:44Z</time>
      </trkpt>
      <trkpt lat="46.6609620" lon="6.1012770">
        <ele>1018.6</ele>
        <time>2022-07-23T13:02:48Z</time>
      </trkpt>
      <trkpt lat="46.6609800" lon="6.1012040">
        <ele>1018.6</ele>
        <time>2022-07-23T13:02:50Z</time>
      </trkpt>
      <trkpt lat="46.6609750" lon="6.1010810">
        <ele>1018.6</ele>
        <time>2022-07-23T13:02:53Z</time>
      </trkpt>
      <trkpt lat="46.6609630" lon="6.1010090">
        <ele>1018.4</ele>
        <time>2022-07-23T13:02:55Z</time>
      </trkpt>
      <trkpt lat="46.6609280" lon="6.1008560">
        <ele>1018.2</ele>
        <time>2022-07-23T13:03:00Z</time>
      </trkpt>
      <trkpt lat="46.6608460" lon="6.1005980">
        <ele>1018.6</ele>
        <time>2022-07-23T13:03:09Z</time>
      </trkpt>
      <trkpt lat="46.6607990" lon="6.1004530">
        <ele>1019.6</ele>
        <time>2022-07-23T13:03:16Z</time>
      </trkpt>
      <trkpt lat="46.6607800" lon="6.1003940">
        <ele>1020.0</ele>
        <time>2022-07-23T13:03:19Z</time>
      </trkpt>
      <trkpt lat="46.6607520" lon="6.1003100">
        <ele>1020.6</ele>
        <time>2022-07-23T13:03:23Z</time>
      </trkpt>
      <trkpt lat="46.6607250" lon="6.1002020">
        <ele>1021.2</ele>
        <time>2022-07-23T13:03:27Z</time>
      </trkpt>
      <trkpt lat="46.6607070" lon="6.1001220">
        <ele>1021.6</ele>
        <time>2022-07-23T13:03:30Z</time>
      </trkpt>
      <trkpt lat="46.6606830" lon="6.1000250">
        <ele>1022.2</ele>
        <time>2022-07-23T13:03:36Z</time>
      </trkpt>
      <trkpt lat="46.6605960" lon="6.0997080">
        <ele>1023.4</ele>
        <time>2022-07-23T13:16:36Z</time>
      </trkpt>
      <trkpt lat="46.6605750" lon="6.0996460">
        <ele>1023.4</ele>
        <time>2022-07-23T13:16:38Z</time>
      </trkpt>
      <trkpt lat="46.6604790" lon="6.0993960">
        <ele>1023.4</ele>
        <time>2022-07-23T13:16:47Z</time>
      </trkpt>
      <trkpt lat="46.6603930" lon="6.0991630">
        <ele>1023.6</ele>
        <time>2022-07-23T13:16:55Z</time>
      </trkpt>
      <trkpt lat="46.6603150" lon="6.0989430">
        <ele>1024.0</ele>
        <time>2022-07-23T13:17:03Z</time>
      </trkpt>
      <trkpt lat="46.6602070" lon="6.0986770">
        <ele>1024.4</ele>
        <time>2022-07-23T13:17:12Z</time>
      </trkpt>
      <trkpt lat="46.6601490" lon="6.0985410">
        <ele>1024.6</ele>
        <time>2022-07-23T13:17:17Z</time>
      </trkpt>
      <trkpt lat="46.6600490" lon="6.0983570">
        <ele>1024.6</ele>
        <time>2022-07-23T13:17:24Z</time>
      </trkpt>
      <trkpt lat="46.6599440" lon="6.0981270">
        <ele>1025.2</ele>
        <time>2022-07-23T13:17:32Z</time>
      </trkpt>
      <trkpt lat="46.6599220" lon="6.0980710">
        <ele>1025.2</ele>
        <time>2022-07-23T13:17:34Z</time>
      </trkpt>
      <trkpt lat="46.6598620" lon="6.0978960">
        <ele>1025.6</ele>
        <time>2022-07-23T13:17:41Z</time>
      </trkpt>
      <trkpt lat="46.6598040" lon="6.0977410">
        <ele>1026.2</ele>
        <time>2022-07-23T13:17:47Z</time>
      </trkpt>
      <trkpt lat="46.6597900" lon="6.0977140">
        <ele>1026.2</ele>
        <time>2022-07-23T13:17:48Z</time>
      </trkpt>
      <trkpt lat="46.6596960" lon="6.0975720">
        <ele>1026.8</ele>
        <time>2022-07-23T13:17:54Z</time>
      </trkpt>
      <trkpt lat="46.6595450" lon="6.0974180">
        <ele>1027.0</ele>
        <time>2022-07-23T13:18:01Z</time>
      </trkpt>
      <trkpt lat="46.6595100" lon="6.0973750">
        <ele>1027.2</ele>
        <time>2022-07-23T13:18:03Z</time>
      </trkpt>
      <trkpt lat="46.6594340" lon="6.0972300">
        <ele>1027.4</ele>
        <time>2022-07-23T13:18:08Z</time>
      </trkpt>
      <trkpt lat="46.6593690" lon="6.0970770">
        <ele>1027.8</ele>
        <time>2022-07-23T13:18:15Z</time>
      </trkpt>
      <trkpt lat="46.6592930" lon="6.0968990">
        <ele>1028.4</ele>
        <time>2022-07-23T13:18:22Z</time>
      </trkpt>
      <trkpt lat="46.6592830" lon="6.0968740">
        <ele>1028.4</ele>
        <time>2022-07-23T13:18:23Z</time>
      </trkpt>
      <trkpt lat="46.6592080" lon="6.0967270">
        <ele>1029.0</ele>
        <time>2022-07-23T13:18:30Z</time>
      </trkpt>
      <trkpt lat="46.6591370" lon="6.0966100">
        <ele>1029.6</ele>
        <time>2022-07-23T13:18:36Z</time>
      </trkpt>
      <trkpt lat="46.6591260" lon="6.0965910">
        <ele>1029.8</ele>
        <time>2022-07-23T13:18:37Z</time>
      </trkpt>
      <trkpt lat="46.6590590" lon="6.0964440">
        <ele>1030.2</ele>
        <time>2022-07-23T13:18:43Z</time>
      </trkpt>
      <trkpt lat="46.6589890" lon="6.0962870">
        <ele>1030.2</ele>
        <time>2022-07-23T13:18:48Z</time>
      </trkpt>
      <trkpt lat="46.6588890" lon="6.0961560">
        <ele>1030.2</ele>
        <time>2022-07-23T13:18:54Z</time>
      </trkpt>
      <trkpt lat="46.6587310" lon="6.0959840">
        <ele>1029.8</ele>
        <time>2022-07-23T13:19:03Z</time>
      </trkpt>
      <trkpt lat="46.6586030" lon="6.0957570">
        <ele>1029.8</ele>
        <time>2022-07-23T13:19:09Z</time>
      </trkpt>
      <trkpt lat="46.6585340" lon="6.0955870">
        <ele>1029.6</ele>
        <time>2022-07-23T13:19:12Z</time>
      </trkpt>
      <trkpt lat="46.6584620" lon="6.0953960">
        <ele>1029.2</ele>
        <time>2022-07-23T13:19:15Z</time>
      </trkpt>
      <trkpt lat="46.6583460" lon="6.0951220">
        <ele>1028.4</ele>
        <time>2022-07-23T13:19:19Z</time>
      </trkpt>
      <trkpt lat="46.6583070" lon="6.0950580">
        <ele>1028.2</ele>
        <time>2022-07-23T13:19:20Z</time>
      </trkpt>
      <trkpt lat="46.6582680" lon="6.0949980">
        <ele>1027.8</ele>
        <time>2022-07-23T13:19:21Z</time>
      </trkpt>
      <trkpt lat="46.6581830" lon="6.0948610">
        <ele>1027.2</ele>
        <time>2022-07-23T13:19:23Z</time>
      </trkpt>
      <trkpt lat="46.6580390" lon="6.0946320">
        <ele>1026.6</ele>
        <time>2022-07-23T13:19:26Z</time>
      </trkpt>
      <trkpt lat="46.6579410" lon="6.0944700">
        <ele>1026.2</ele>
        <time>2022-07-23T13:19:28Z</time>
      </trkpt>
      <trkpt lat="46.6577910" lon="6.0942140">
        <ele>1025.0</ele>
        <time>2022-07-23T13:19:31Z</time>
      </trkpt>
      <trkpt lat="46.6577410" lon="6.0941290">
        <ele>1024.4</ele>
        <time>2022-07-23T13:19:32Z</time>
      </trkpt>
      <trkpt lat="46.6576410" lon="6.0939560">
        <ele>1023.6</ele>
        <time>2022-07-23T13:19:34Z</time>
      </trkpt>
      <trkpt lat="46.6575600" lon="6.0937850">
        <ele>1022.6</ele>
        <time>2022-07-23T13:19:36Z</time>
      </trkpt>
      <trkpt lat="46.6574930" lon="6.0936420">
        <ele>1022.2</ele>
        <time>2022-07-23T13:19:38Z</time>
      </trkpt>
      <trkpt lat="46.6574320" lon="6.0935100">
        <ele>1021.4</ele>
        <time>2022-07-23T13:19:40Z</time>
      </trkpt>
      <trkpt lat="46.6573430" lon="6.0933450">
        <ele>1021.0</ele>
        <time>2022-07-23T13:19:43Z</time>
      </trkpt>
      <trkpt lat="46.6573100" lon="6.0932970">
        <ele>1021.0</ele>
        <time>2022-07-23T13:19:46Z</time>
      </trkpt>
      <trkpt lat="46.6573060" lon="6.0932950">
        <ele>1020.8</ele>
        <time>2022-07-23T13:19:47Z</time>
      </trkpt>
      <trkpt lat="46.6572210" lon="6.0932200">
        <ele>1021.8</ele>
        <time>2022-07-23T13:31:07Z</time>
      </trkpt>
      <trkpt lat="46.6571890" lon="6.0931870">
        <ele>1021.8</ele>
        <time>2022-07-23T13:31:10Z</time>
      </trkpt>
      <trkpt lat="46.6571310" lon="6.0930880">
        <ele>1022.0</ele>
        <time>2022-07-23T13:31:16Z</time>
      </trkpt>
      <trkpt lat="46.6570650" lon="6.0929230">
        <ele>1022.6</ele>
        <time>2022-07-23T13:31:22Z</time>
      </trkpt>
      <trkpt lat="46.6569490" lon="6.0927080">
        <ele>1022.6</ele>
        <time>2022-07-23T13:31:29Z</time>
      </trkpt>
      <trkpt lat="46.6568770" lon="6.0925960">
        <ele>1022.6</ele>
        <time>2022-07-23T13:31:34Z</time>
      </trkpt>
      <trkpt lat="46.6567520" lon="6.0924380">
        <ele>1022.6</ele>
        <time>2022-07-23T13:31:39Z</time>
      </trkpt>
      <trkpt lat="46.6565200" lon="6.0922070">
        <ele>1022.2</ele>
        <time>2022-07-23T13:31:45Z</time>
      </trkpt>
      <trkpt lat="46.6563950" lon="6.0920660">
        <ele>1021.8</ele>
        <time>2022-07-23T13:31:48Z</time>
      </trkpt>
      <trkpt lat="46.6562900" lon="6.0918790">
        <ele>1021.2</ele>
        <time>2022-07-23T13:31:51Z</time>
      </trkpt>
      <trkpt lat="46.6562610" lon="6.0918140">
        <ele>1021.2</ele>
        <time>2022-07-23T13:31:52Z</time>
      </trkpt>
      <trkpt lat="46.6561720" lon="6.0915810">
        <ele>1020.8</ele>
        <time>2022-07-23T13:31:56Z</time>
      </trkpt>
      <trkpt lat="46.6561520" lon="6.0915280">
        <ele>1020.8</ele>
        <time>2022-07-23T13:31:57Z</time>
      </trkpt>
      <trkpt lat="46.6560280" lon="6.0911850">
        <ele>1020.8</ele>
        <time>2022-07-23T13:32:04Z</time>
      </trkpt>
      <trkpt lat="46.6558860" lon="6.0909250">
        <ele>1020.8</ele>
        <time>2022-07-23T13:32:12Z</time>
      </trkpt>
      <trkpt lat="46.6557820" lon="6.0907500">
        <ele>1021.0</ele>
        <time>2022-07-23T13:32:19Z</time>
      </trkpt>
      <trkpt lat="46.6557720" lon="6.0907450">
        <ele>1021.0</ele>
        <time>2022-07-23T13:32:22Z</time>
      </trkpt>
      <trkpt lat="46.6557450" lon="6.0906750">
        <ele>1021.0</ele>
        <time>2022-07-23T13:32:59Z</time>
      </trkpt>
      <trkpt lat="46.6557360" lon="6.0906490">
        <ele>1021.0</ele>
        <time>2022-07-23T13:33:00Z</time>
      </trkpt>
      <trkpt lat="46.6556540" lon="6.0904700">
        <ele>1021.0</ele>
        <time>2022-07-23T13:33:05Z</time>
      </trkpt>
      <trkpt lat="46.6555340" lon="6.0902360">
        <ele>1021.2</ele>
        <time>2022-07-23T13:33:11Z</time>
      </trkpt>
      <trkpt lat="46.6553410" lon="6.0898830">
        <ele>1021.2</ele>
        <time>2022-07-23T13:33:19Z</time>
      </trkpt>
      <trkpt lat="46.6551610" lon="6.0895150">
        <ele>1020.6</ele>
        <time>2022-07-23T13:33:25Z</time>
      </trkpt>
      <trkpt lat="46.6549800" lon="6.0891620">
        <ele>1019.8</ele>
        <time>2022-07-23T13:33:31Z</time>
      </trkpt>
      <trkpt lat="46.6548550" lon="6.0888740">
        <ele>1019.0</ele>
        <time>2022-07-23T13:33:36Z</time>
      </trkpt>
      <trkpt lat="46.6547050" lon="6.0886070">
        <ele>1018.6</ele>
        <time>2022-07-23T13:33:40Z</time>
      </trkpt>
      <trkpt lat="46.6546560" lon="6.0885360">
        <ele>1018.4</ele>
        <time>2022-07-23T13:33:41Z</time>
      </trkpt>
      <trkpt lat="46.6543940" lon="6.0881740">
        <ele>1017.6</ele>
        <time>2022-07-23T13:33:46Z</time>
      </trkpt>
      <trkpt lat="46.6543430" lon="6.0880860">
        <ele>1017.4</ele>
        <time>2022-07-23T13:33:47Z</time>
      </trkpt>
      <trkpt lat="46.6542330" lon="6.0877840">
        <ele>1016.4</ele>
        <time>2022-07-23T13:33:50Z</time>
      </trkpt>
      <trkpt lat="46.6540740" lon="6.0874440">
        <ele>1015.0</ele>
        <time>2022-07-23T13:33:54Z</time>
      </trkpt>
      <trkpt lat="46.6539900" lon="6.0872480">
        <ele>1013.8</ele>
        <time>2022-07-23T13:33:57Z</time>
      </trkpt>
      <trkpt lat="46.6539400" lon="6.0871050">
        <ele>1013.2</ele>
        <time>2022-07-23T13:33:59Z</time>
      </trkpt>
      <trkpt lat="46.6538670" lon="6.0868800">
        <ele>1012.4</ele>
        <time>2022-07-23T13:34:02Z</time>
      </trkpt>
      <trkpt lat="46.6537770" lon="6.0866440">
        <ele>1011.0</ele>
        <time>2022-07-23T13:34:05Z</time>
      </trkpt>
      <trkpt lat="46.6536720" lon="6.0864160">
        <ele>1010.0</ele>
        <time>2022-07-23T13:34:08Z</time>
      </trkpt>
      <trkpt lat="46.6535790" lon="6.0862920">
        <ele>1009.2</ele>
        <time>2022-07-23T13:34:10Z</time>
      </trkpt>
      <trkpt lat="46.6535250" lon="6.0862410">
        <ele>1008.8</ele>
        <time>2022-07-23T13:34:11Z</time>
      </trkpt>
      <trkpt lat="46.6534650" lon="6.0862030">
        <ele>1007.6</ele>
        <time>2022-07-23T13:34:12Z</time>
      </trkpt>
      <trkpt lat="46.6533250" lon="6.0861770">
        <ele>1006.6</ele>
        <time>2022-07-23T13:34:14Z</time>
      </trkpt>
      <trkpt lat="46.6531640" lon="6.0861990">
        <ele>1005.6</ele>
        <time>2022-07-23T13:34:16Z</time>
      </trkpt>
      <trkpt lat="46.6530750" lon="6.0861990">
        <ele>1005.0</ele>
        <time>2022-07-23T13:34:17Z</time>
      </trkpt>
      <trkpt lat="46.6529880" lon="6.0861700">
        <ele>1004.4</ele>
        <time>2022-07-23T13:34:18Z</time>
      </trkpt>
      <trkpt lat="46.6529060" lon="6.0861200">
        <ele>1004.0</ele>
        <time>2022-07-23T13:34:19Z</time>
      </trkpt>
      <trkpt lat="46.6527700" lon="6.0860090">
        <ele>1003.0</ele>
        <time>2022-07-23T13:34:21Z</time>
      </trkpt>
      <trkpt lat="46.6527120" lon="6.0859500">
        <ele>1002.4</ele>
        <time>2022-07-23T13:34:22Z</time>
      </trkpt>
      <trkpt lat="46.6526670" lon="6.0858850">
        <ele>1001.8</ele>
        <time>2022-07-23T13:34:23Z</time>
      </trkpt>
      <trkpt lat="46.6526360" lon="6.0858130">
        <ele>1001.0</ele>
        <time>2022-07-23T13:34:24Z</time>
      </trkpt>
      <trkpt lat="46.6526140" lon="6.0857390">
        <ele>1000.2</ele>
        <time>2022-07-23T13:34:25Z</time>
      </trkpt>
      <trkpt lat="46.6525950" lon="6.0856710">
        <ele>999.4</ele>
        <time>2022-07-23T13:34:26Z</time>
      </trkpt>
      <trkpt lat="46.6525770" lon="6.0856070">
        <ele>998.8</ele>
        <time>2022-07-23T13:34:27Z</time>
      </trkpt>
      <trkpt lat="46.6525470" lon="6.0854910">
        <ele>998.0</ele>
        <time>2022-07-23T13:34:29Z</time>
      </trkpt>
      <trkpt lat="46.6524770" lon="6.0851980">
        <ele>997.8</ele>
        <time>2022-07-23T13:34:35Z</time>
      </trkpt>
      <trkpt lat="46.6524410" lon="6.0850440">
        <ele>998.2</ele>
        <time>2022-07-23T13:34:41Z</time>
      </trkpt>
      <trkpt lat="46.6524160" lon="6.0849430">
        <ele>998.4</ele>
        <time>2022-07-23T13:34:48Z</time>
      </trkpt>
      <trkpt lat="46.6524140" lon="6.0849270">
        <ele>998.4</ele>
        <time>2022-07-23T13:34:49Z</time>
      </trkpt>
      <trkpt lat="46.6524020" lon="6.0848320">
        <ele>999.0</ele>
        <time>2022-07-23T13:34:54Z</time>
      </trkpt>
      <trkpt lat="46.6523710" lon="6.0846830">
        <ele>999.6</ele>
        <time>2022-07-23T13:35:02Z</time>
      </trkpt>
      <trkpt lat="46.6523610" lon="6.0846450">
        <ele>999.8</ele>
        <time>2022-07-23T13:35:04Z</time>
      </trkpt>
      <trkpt lat="46.6523030" lon="6.0845150">
        <ele>1000.4</ele>
        <time>2022-07-23T13:35:11Z</time>
      </trkpt>
      <trkpt lat="46.6522480" lon="6.0844700">
        <ele>1000.8</ele>
        <time>2022-07-23T13:35:15Z</time>
      </trkpt>
      <trkpt lat="46.6521980" lon="6.0844560">
        <ele>1001.4</ele>
        <time>2022-07-23T13:35:18Z</time>
      </trkpt>
      <trkpt lat="46.6521350" lon="6.0844780">
        <ele>1002.0</ele>
        <time>2022-07-23T13:35:22Z</time>
      </trkpt>
      <trkpt lat="46.6520840" lon="6.0845170">
        <ele>1002.4</ele>
        <time>2022-07-23T13:35:26Z</time>
      </trkpt>
      <trkpt lat="46.6520510" lon="6.0845600">
        <ele>1003.0</ele>
        <time>2022-07-23T13:35:29Z</time>
      </trkpt>
      <trkpt lat="46.6520130" lon="6.0846180">
        <ele>1003.6</ele>
        <time>2022-07-23T13:35:33Z</time>
      </trkpt>
      <trkpt lat="46.6519830" lon="6.0846670">
        <ele>1004.2</ele>
        <time>2022-07-23T13:35:36Z</time>
      </trkpt>
      <trkpt lat="46.6519190" lon="6.0847680">
        <ele>1004.6</ele>
        <time>2022-07-23T13:35:42Z</time>
      </trkpt>
      <trkpt lat="46.6518850" lon="6.0848210">
        <ele>1005.2</ele>
        <time>2022-07-23T13:35:45Z</time>
      </trkpt>
      <trkpt lat="46.6518230" lon="6.0849330">
        <ele>1006.0</ele>
        <time>2022-07-23T13:35:51Z</time>
      </trkpt>
      <trkpt lat="46.6518010" lon="6.0849700">
        <ele>1006.4</ele>
        <time>2022-07-23T13:35:53Z</time>
      </trkpt>
      <trkpt lat="46.6517150" lon="6.0851070">
        <ele>1007.2</ele>
        <time>2022-07-23T13:36:00Z</time>
      </trkpt>
      <trkpt lat="46.6516710" lon="6.0851550">
        <ele>1007.4</ele>
        <time>2022-07-23T13:36:03Z</time>
      </trkpt>
      <trkpt lat="46.6515950" lon="6.0851700">
        <ele>1007.6</ele>
        <time>2022-07-23T13:36:06Z</time>
      </trkpt>
      <trkpt lat="46.6515260" lon="6.0851320">
        <ele>1007.6</ele>
        <time>2022-07-23T13:36:08Z</time>
      </trkpt>
      <trkpt lat="46.6514920" lon="6.0850920">
        <ele>1007.6</ele>
        <time>2022-07-23T13:36:09Z</time>
      </trkpt>
      <trkpt lat="46.6513650" lon="6.0848410">
        <ele>1007.6</ele>
        <time>2022-07-23T13:36:13Z</time>
      </trkpt>
      <trkpt lat="46.6513380" lon="6.0847590">
        <ele>1007.6</ele>
        <time>2022-07-23T13:36:14Z</time>
      </trkpt>
      <trkpt lat="46.6512870" lon="6.0845860">
        <ele>1007.2</ele>
        <time>2022-07-23T13:36:16Z</time>
      </trkpt>
      <trkpt lat="46.6512550" lon="6.0844220">
        <ele>1006.6</ele>
        <time>2022-07-23T13:36:18Z</time>
      </trkpt>
      <trkpt lat="46.6512480" lon="6.0843720">
        <ele>1006.2</ele>
        <time>2022-07-23T13:36:19Z</time>
      </trkpt>
      <trkpt lat="46.6512370" lon="6.0843180">
        <ele>1005.4</ele>
        <time>2022-07-23T13:36:21Z</time>
      </trkpt>
      <trkpt lat="46.6512300" lon="6.0843200">
        <ele>1005.2</ele>
        <time>2022-07-23T13:36:22Z</time>
      </trkpt>
      <trkpt lat="46.6512310" lon="6.0843490">
        <ele>1004.2</ele>
        <time>2022-07-23T13:36:25Z</time>
      </trkpt>
      <trkpt lat="46.6512330" lon="6.0843500">
        <ele>1004.0</ele>
        <time>2022-07-23T13:36:26Z</time>
      </trkpt>
      <trkpt lat="46.6512670" lon="6.0845280">
        <ele>1002.6</ele>
        <time>2022-07-23T13:36:51Z</time>
      </trkpt>
      <trkpt lat="46.6512760" lon="6.0845780">
        <ele>1002.6</ele>
        <time>2022-07-23T13:36:53Z</time>
      </trkpt>
      <trkpt lat="46.6513260" lon="6.0847530">
        <ele>1003.0</ele>
        <time>2022-07-23T13:37:00Z</time>
      </trkpt>
      <trkpt lat="46.6514040" lon="6.0849620">
        <ele>1003.6</ele>
        <time>2022-07-23T13:37:08Z</time>
      </trkpt>
      <trkpt lat="46.6514270" lon="6.0850120">
        <ele>1004.0</ele>
        <time>2022-07-23T13:37:10Z</time>
      </trkpt>
      <trkpt lat="46.6515400" lon="6.0851630">
        <ele>1004.6</ele>
        <time>2022-07-23T13:37:18Z</time>
      </trkpt>
      <trkpt lat="46.6515560" lon="6.0851770">
        <ele>1004.8</ele>
        <time>2022-07-23T13:37:19Z</time>
      </trkpt>
      <trkpt lat="46.6515910" lon="6.0852450">
        <ele>1005.4</ele>
        <time>2022-07-23T13:37:23Z</time>
      </trkpt>
      <trkpt lat="46.6515900" lon="6.0852600">
        <ele>1005.6</ele>
        <time>2022-07-23T13:37:24Z</time>
      </trkpt>
      <trkpt lat="46.6515750" lon="6.0852890">
        <ele>1006.0</ele>
        <time>2022-07-23T13:37:26Z</time>
      </trkpt>
      <trkpt lat="46.6515180" lon="6.0853870">
        <ele>1006.4</ele>
        <time>2022-07-23T13:37:30Z</time>
      </trkpt>
      <trkpt lat="46.6514910" lon="6.0854260">
        <ele>1006.4</ele>
        <time>2022-07-23T13:37:31Z</time>
      </trkpt>
      <trkpt lat="46.6513760" lon="6.0855860">
        <ele>1006.4</ele>
        <time>2022-07-23T13:37:34Z</time>
      </trkpt>
      <trkpt lat="46.6510890" lon="6.0859200">
        <ele>1006.4</ele>
        <time>2022-07-23T13:37:39Z</time>
      </trkpt>
      <trkpt lat="46.6508580" lon="6.0862100">
        <ele>1004.8</ele>
        <time>2022-07-23T13:37:43Z</time>
      </trkpt>
      <trkpt lat="46.6508120" lon="6.0862640">
        <ele>1004.2</ele>
        <time>2022-07-23T13:37:44Z</time>
      </trkpt>
      <trkpt lat="46.6507490" lon="6.0863460">
        <ele>1003.4</ele>
        <time>2022-07-23T13:37:46Z</time>
      </trkpt>
      <trkpt lat="46.6507180" lon="6.0864080">
        <ele>1002.4</ele>
        <time>2022-07-23T13:37:48Z</time>
      </trkpt>
      <trkpt lat="46.6506930" lon="6.0864870">
        <ele>1001.2</ele>
        <time>2022-07-23T13:37:51Z</time>
      </trkpt>
      <trkpt lat="46.6506940" lon="6.0865450">
        <ele>1001.2</ele>
        <time>2022-07-23T13:37:53Z</time>
      </trkpt>
      <trkpt lat="46.6507030" lon="6.0867930">
        <ele>1001.6</ele>
        <time>2022-07-23T13:38:01Z</time>
      </trkpt>
      <trkpt lat="46.6507050" lon="6.0869290">
        <ele>1002.2</ele>
        <time>2022-07-23T13:38:08Z</time>
      </trkpt>
      <trkpt lat="46.6506820" lon="6.0870420">
        <ele>1002.2</ele>
        <time>2022-07-23T13:38:16Z</time>
      </trkpt>
      <trkpt lat="46.6506730" lon="6.0870620">
        <ele>1002.4</ele>
        <time>2022-07-23T13:38:17Z</time>
      </trkpt>
      <trkpt lat="46.6506530" lon="6.0871030">
        <ele>1002.4</ele>
        <time>2022-07-23T13:38:19Z</time>
      </trkpt>
      <trkpt lat="46.6505900" lon="6.0871700">
        <ele>1002.6</ele>
        <time>2022-07-23T13:38:25Z</time>
      </trkpt>
      <trkpt lat="46.6505340" lon="6.0872090">
        <ele>1003.4</ele>
        <time>2022-07-23T13:38:30Z</time>
      </trkpt>
      <trkpt lat="46.6505180" lon="6.0872240">
        <ele>1003.6</ele>
        <time>2022-07-23T13:38:32Z</time>
      </trkpt>
      <trkpt lat="46.6504730" lon="6.0872360">
        <ele>1004.4</ele>
        <time>2022-07-23T13:38:36Z</time>
      </trkpt>
      <trkpt lat="46.6504330" lon="6.0872370">
        <ele>1005.0</ele>
        <time>2022-07-23T13:38:40Z</time>
      </trkpt>
      <trkpt lat="46.6503950" lon="6.0872220">
        <ele>1005.6</ele>
        <time>2022-07-23T13:38:44Z</time>
      </trkpt>
      <trkpt lat="46.6503730" lon="6.0871970">
        <ele>1006.0</ele>
        <time>2022-07-23T13:38:47Z</time>
      </trkpt>
      <trkpt lat="46.6503140" lon="6.0871030">
        <ele>1006.6</ele>
        <time>2022-07-23T13:38:55Z</time>
      </trkpt>
      <trkpt lat="46.6503030" lon="6.0870720">
        <ele>1007.0</ele>
        <time>2022-07-23T13:38:57Z</time>
      </trkpt>
      <trkpt lat="46.6502950" lon="6.0870370">
        <ele>1007.4</ele>
        <time>2022-07-23T13:38:59Z</time>
      </trkpt>
      <trkpt lat="46.6502910" lon="6.0870200">
        <ele>1007.4</ele>
        <time>2022-07-23T13:39:00Z</time>
      </trkpt>
      <trkpt lat="46.6502820" lon="6.0869630">
        <ele>1008.0</ele>
        <time>2022-07-23T13:39:03Z</time>
      </trkpt>
      <trkpt lat="46.6502700" lon="6.0868400">
        <ele>1008.4</ele>
        <time>2022-07-23T13:39:09Z</time>
      </trkpt>
      <trkpt lat="46.6502370" lon="6.0867150">
        <ele>1008.6</ele>
        <time>2022-07-23T13:39:14Z</time>
      </trkpt>
      <trkpt lat="46.6502010" lon="6.0865880">
        <ele>1008.6</ele>
        <time>2022-07-23T13:39:20Z</time>
      </trkpt>
      <trkpt lat="46.6501500" lon="6.0864900">
        <ele>1008.8</ele>
        <time>2022-07-23T13:39:26Z</time>
      </trkpt>
      <trkpt lat="46.6501270" lon="6.0864330">
        <ele>1009.0</ele>
        <time>2022-07-23T13:39:29Z</time>
      </trkpt>
      <trkpt lat="46.6500980" lon="6.0863270">
        <ele>1009.2</ele>
        <time>2022-07-23T13:39:33Z</time>
      </trkpt>
      <trkpt lat="46.6500370" lon="6.0861020">
        <ele>1009.2</ele>
        <time>2022-07-23T13:39:40Z</time>
      </trkpt>
      <trkpt lat="46.6500000" lon="6.0859290">
        <ele>1009.0</ele>
        <time>2022-07-23T13:39:46Z</time>
      </trkpt>
      <trkpt lat="46.6499670" lon="6.0858330">
        <ele>1008.6</ele>
        <time>2022-07-23T13:39:52Z</time>
      </trkpt>
      <trkpt lat="46.6499220" lon="6.0856790">
        <ele>1008.2</ele>
        <time>2022-07-23T13:39:59Z</time>
      </trkpt>
      <trkpt lat="46.6498750" lon="6.0855330">
        <ele>1007.6</ele>
        <time>2022-07-23T13:40:04Z</time>
      </trkpt>
      <trkpt lat="46.6498580" lon="6.0854830">
        <ele>1007.6</ele>
        <time>2022-07-23T13:40:06Z</time>
      </trkpt>
      <trkpt lat="46.6498540" lon="6.0854350">
        <ele>1007.6</ele>
        <time>2022-07-23T13:40:11Z</time>
      </trkpt>
      <trkpt lat="46.6498560" lon="6.0854170">
        <ele>1007.6</ele>
        <time>2022-07-23T13:40:12Z</time>
      </trkpt>
      <trkpt lat="46.6498510" lon="6.0853810">
        <ele>1007.6</ele>
        <time>2022-07-23T13:40:16Z</time>
      </trkpt>
      <trkpt lat="46.6498130" lon="6.0852810">
        <ele>1007.8</ele>
        <time>2022-07-23T13:40:34Z</time>
      </trkpt>
      <trkpt lat="46.6497650" lon="6.0851600">
        <ele>1007.8</ele>
        <time>2022-07-23T13:40:38Z</time>
      </trkpt>
      <trkpt lat="46.6496650" lon="6.0850400">
        <ele>1007.8</ele>
        <time>2022-07-23T13:40:42Z</time>
      </trkpt>
      <trkpt lat="46.6496010" lon="6.0850450">
        <ele>1007.4</ele>
        <time>2022-07-23T13:40:46Z</time>
      </trkpt>
      <trkpt lat="46.6495680" lon="6.0850460">
        <ele>1005.8</ele>
        <time>2022-07-23T13:40:54Z</time>
      </trkpt>
      <trkpt lat="46.6495360" lon="6.0850470">
        <ele>1005.6</ele>
        <time>2022-07-23T13:40:55Z</time>
      </trkpt>
      <trkpt lat="46.6493920" lon="6.0851030">
        <ele>1005.6</ele>
        <time>2022-07-23T13:40:59Z</time>
      </trkpt>
      <trkpt lat="46.6492800" lon="6.0852140">
        <ele>1005.0</ele>
        <time>2022-07-23T13:41:03Z</time>
      </trkpt>
      <trkpt lat="46.6492750" lon="6.0852190">
        <ele>1004.6</ele>
        <time>2022-07-23T13:41:04Z</time>
      </trkpt>
      <trkpt lat="46.6492470" lon="6.0852420">
        <ele>1003.0</ele>
        <time>2022-07-23T13:41:08Z</time>
      </trkpt>
      <trkpt lat="46.6492390" lon="6.0852520">
        <ele>1002.4</ele>
        <time>2022-07-23T13:41:09Z</time>
      </trkpt>
      <trkpt lat="46.6492360" lon="6.0852590">
        <ele>1002.0</ele>
        <time>2022-07-23T13:41:10Z</time>
      </trkpt>
      <trkpt lat="46.6492340" lon="6.0852600">
        <ele>1001.6</ele>
        <time>2022-07-23T13:41:11Z</time>
      </trkpt>
      <trkpt lat="46.6491690" lon="6.0853090">
        <ele>1000.8</ele>
        <time>2022-07-23T13:41:19Z</time>
      </trkpt>
      <trkpt lat="46.6490460" lon="6.0854340">
        <ele>1000.8</ele>
        <time>2022-07-23T13:41:26Z</time>
      </trkpt>
      <trkpt lat="46.6489530" lon="6.0855310">
        <ele>1001.2</ele>
        <time>2022-07-23T13:41:33Z</time>
      </trkpt>
      <trkpt lat="46.6488190" lon="6.0856740">
        <ele>1001.4</ele>
        <time>2022-07-23T13:41:41Z</time>
      </trkpt>
      <trkpt lat="46.6487900" lon="6.0856790">
        <ele>1001.4</ele>
        <time>2022-07-23T13:41:45Z</time>
      </trkpt>
      <trkpt lat="46.6487770" lon="6.0856750">
        <ele>1001.6</ele>
        <time>2022-07-23T13:41:48Z</time>
      </trkpt>
      <trkpt lat="46.6483840" lon="6.0854240">
        <ele>1004.8</ele>
        <time>2022-07-23T13:42:39Z</time>
      </trkpt>
      <trkpt lat="46.6483540" lon="6.0854080">
        <ele>1005.0</ele>
        <time>2022-07-23T13:42:41Z</time>
      </trkpt>
      <trkpt lat="46.6482260" lon="6.0853190">
        <ele>1005.2</ele>
        <time>2022-07-23T13:42:49Z</time>
      </trkpt>
      <trkpt lat="46.6481140" lon="6.0851940">
        <ele>1005.4</ele>
        <time>2022-07-23T13:42:57Z</time>
      </trkpt>
      <trkpt lat="46.6480800" lon="6.0851250">
        <ele>1005.8</ele>
        <time>2022-07-23T13:43:03Z</time>
      </trkpt>
      <trkpt lat="46.6480740" lon="6.0851140">
        <ele>1006.0</ele>
        <time>2022-07-23T13:43:04Z</time>
      </trkpt>
      <trkpt lat="46.6479880" lon="6.0850270">
        <ele>1007.0</ele>
        <time>2022-07-23T13:43:10Z</time>
      </trkpt>
      <trkpt lat="46.6478630" lon="6.0848710">
        <ele>1007.4</ele>
        <time>2022-07-23T13:43:20Z</time>
      </trkpt>
      <trkpt lat="46.6478060" lon="6.0847940">
        <ele>1008.0</ele>
        <time>2022-07-23T13:43:25Z</time>
      </trkpt>
      <trkpt lat="46.6477630" lon="6.0847390">
        <ele>1008.2</ele>
        <time>2022-07-23T13:43:29Z</time>
      </trkpt>
      <trkpt lat="46.6476580" lon="6.0846030">
        <ele>1008.8</ele>
        <time>2022-07-23T13:43:39Z</time>
      </trkpt>
      <trkpt lat="46.6476370" lon="6.0845740">
        <ele>1009.0</ele>
        <time>2022-07-23T13:43:41Z</time>
      </trkpt>
      <trkpt lat="46.6475680" lon="6.0844940">
        <ele>1009.6</ele>
        <time>2022-07-23T13:43:48Z</time>
      </trkpt>
      <trkpt lat="46.6475350" lon="6.0844580">
        <ele>1010.2</ele>
        <time>2022-07-23T13:43:51Z</time>
      </trkpt>
      <trkpt lat="46.6474540" lon="6.0843760">
        <ele>1010.8</ele>
        <time>2022-07-23T13:43:58Z</time>
      </trkpt>
      <trkpt lat="46.6474430" lon="6.0843660">
        <ele>1011.0</ele>
        <time>2022-07-23T13:43:59Z</time>
      </trkpt>
      <trkpt lat="46.6473390" lon="6.0842770">
        <ele>1011.6</ele>
        <time>2022-07-23T13:44:08Z</time>
      </trkpt>
      <trkpt lat="46.6472940" lon="6.0842390">
        <ele>1012.0</ele>
        <time>2022-07-23T13:44:12Z</time>
      </trkpt>
      <trkpt lat="46.6472220" lon="6.0841970">
        <ele>1012.6</ele>
        <time>2022-07-23T13:44:18Z</time>
      </trkpt>
      <trkpt lat="46.6471860" lon="6.0841720">
        <ele>1013.2</ele>
        <time>2022-07-23T13:44:21Z</time>
      </trkpt>
      <trkpt lat="46.6471390" lon="6.0841470">
        <ele>1013.6</ele>
        <time>2022-07-23T13:44:25Z</time>
      </trkpt>
      <trkpt lat="46.6471210" lon="6.0841290">
        <ele>1013.8</ele>
        <time>2022-07-23T13:44:27Z</time>
      </trkpt>
      <trkpt lat="46.6471020" lon="6.0841090">
        <ele>1014.0</ele>
        <time>2022-07-23T13:44:29Z</time>
      </trkpt>
      <trkpt lat="46.6470910" lon="6.0840960">
        <ele>1014.0</ele>
        <time>2022-07-23T13:44:30Z</time>
      </trkpt>
      <trkpt lat="46.6470360" lon="6.0840280">
        <ele>1014.4</ele>
        <time>2022-07-23T13:44:34Z</time>
      </trkpt>
      <trkpt lat="46.6469410" lon="6.0839020">
        <ele>1014.6</ele>
        <time>2022-07-23T13:44:40Z</time>
      </trkpt>
      <trkpt lat="46.6468530" lon="6.0837430">
        <ele>1014.8</ele>
        <time>2022-07-23T13:44:47Z</time>
      </trkpt>
      <trkpt lat="46.6468030" lon="6.0836640">
        <ele>1015.0</ele>
        <time>2022-07-23T13:44:52Z</time>
      </trkpt>
      <trkpt lat="46.6467790" lon="6.0836260">
        <ele>1015.2</ele>
        <time>2022-07-23T13:44:54Z</time>
      </trkpt>
      <trkpt lat="46.6466600" lon="6.0834600">
        <ele>1016.0</ele>
        <time>2022-07-23T13:45:02Z</time>
      </trkpt>
      <trkpt lat="46.6466440" lon="6.0834390">
        <ele>1016.2</ele>
        <time>2022-07-23T13:45:03Z</time>
      </trkpt>
      <trkpt lat="46.6465320" lon="6.0833050">
        <ele>1016.4</ele>
        <time>2022-07-23T13:45:10Z</time>
      </trkpt>
      <trkpt lat="46.6464020" lon="6.0831880">
        <ele>1017.0</ele>
        <time>2022-07-23T13:45:17Z</time>
      </trkpt>
      <trkpt lat="46.6463420" lon="6.0831500">
        <ele>1017.2</ele>
        <time>2022-07-23T13:45:20Z</time>
      </trkpt>
      <trkpt lat="46.6462330" lon="6.0830480">
        <ele>1017.4</ele>
        <time>2022-07-23T13:45:26Z</time>
      </trkpt>
      <trkpt lat="46.6460740" lon="6.0828720">
        <ele>1017.4</ele>
        <time>2022-07-23T13:45:33Z</time>
      </trkpt>
      <trkpt lat="46.6459770" lon="6.0827720">
        <ele>1017.2</ele>
        <time>2022-07-23T13:45:39Z</time>
      </trkpt>
      <trkpt lat="46.6459130" lon="6.0827090">
        <ele>1017.4</ele>
        <time>2022-07-23T13:45:45Z</time>
      </trkpt>
      <trkpt lat="46.6458310" lon="6.0825860">
        <ele>1017.6</ele>
        <time>2022-07-23T13:45:50Z</time>
      </trkpt>
      <trkpt lat="46.6458040" lon="6.0825450">
        <ele>1017.6</ele>
        <time>2022-07-23T13:45:51Z</time>
      </trkpt>
      <trkpt lat="46.6457050" lon="6.0824080">
        <ele>1017.6</ele>
        <time>2022-07-23T13:45:54Z</time>
      </trkpt>
      <trkpt lat="46.6456740" lon="6.0823550">
        <ele>1017.6</ele>
        <time>2022-07-23T13:45:55Z</time>
      </trkpt>
      <trkpt lat="46.6454520" lon="6.0820070">
        <ele>1016.4</ele>
        <time>2022-07-23T13:46:02Z</time>
      </trkpt>
      <trkpt lat="46.6453870" lon="6.0819010">
        <ele>1015.8</ele>
        <time>2022-07-23T13:46:05Z</time>
      </trkpt>
      <trkpt lat="46.6453780" lon="6.0818850">
        <ele>1015.6</ele>
        <time>2022-07-23T13:46:06Z</time>
      </trkpt>
      <trkpt lat="46.6453740" lon="6.0818760">
        <ele>1014.8</ele>
        <time>2022-07-23T13:46:08Z</time>
      </trkpt>
      <trkpt lat="46.6453340" lon="6.0817510">
        <ele>1010.0</ele>
        <time>2022-07-23T13:46:29Z</time>
      </trkpt>
      <trkpt lat="46.6453210" lon="6.0817440">
        <ele>1010.0</ele>
        <time>2022-07-23T13:46:30Z</time>
      </trkpt>
      <trkpt lat="46.6452750" lon="6.0817280">
        <ele>1009.8</ele>
        <time>2022-07-23T13:46:34Z</time>
      </trkpt>
      <trkpt lat="46.6452390" lon="6.0817080">
        <ele>1009.8</ele>
        <time>2022-07-23T13:46:37Z</time>
      </trkpt>
      <trkpt lat="46.6451300" lon="6.0816400">
        <ele>1009.8</ele>
        <time>2022-07-23T13:46:43Z</time>
      </trkpt>
      <trkpt lat="46.6448590" lon="6.0814760">
        <ele>1009.8</ele>
        <time>2022-07-23T13:46:54Z</time>
      </trkpt>
      <trkpt lat="46.6446320" lon="6.0813150">
        <ele>1009.8</ele>
        <time>2022-07-23T13:47:03Z</time>
      </trkpt>
      <trkpt lat="46.6444240" lon="6.0811570">
        <ele>1009.8</ele>
        <time>2022-07-23T13:47:11Z</time>
      </trkpt>
      <trkpt lat="46.6441880" lon="6.0809820">
        <ele>1010.2</ele>
        <time>2022-07-23T13:47:20Z</time>
      </trkpt>
      <trkpt lat="46.6440460" lon="6.0808220">
        <ele>1010.2</ele>
        <time>2022-07-23T13:47:26Z</time>
      </trkpt>
      <trkpt lat="46.6438780" lon="6.0805740">
        <ele>1010.4</ele>
        <time>2022-07-23T13:47:34Z</time>
      </trkpt>
      <trkpt lat="46.6437660" lon="6.0803760">
        <ele>1010.4</ele>
        <time>2022-07-23T13:47:40Z</time>
      </trkpt>
      <trkpt lat="46.6436090" lon="6.0800730">
        <ele>1010.4</ele>
        <time>2022-07-23T13:47:49Z</time>
      </trkpt>
      <trkpt lat="46.6434810" lon="6.0798340">
        <ele>1010.6</ele>
        <time>2022-07-23T13:47:56Z</time>
      </trkpt>
      <trkpt lat="46.6434320" lon="6.0797370">
        <ele>1010.6</ele>
        <time>2022-07-23T13:47:59Z</time>
      </trkpt>
      <trkpt lat="46.6433440" lon="6.0795720">
        <ele>1010.8</ele>
        <time>2022-07-23T13:48:04Z</time>
      </trkpt>
      <trkpt lat="46.6432180" lon="6.0794040">
        <ele>1011.0</ele>
        <time>2022-07-23T13:48:10Z</time>
      </trkpt>
      <trkpt lat="46.6430960" lon="6.0792390">
        <ele>1011.4</ele>
        <time>2022-07-23T13:48:16Z</time>
      </trkpt>
      <trkpt lat="46.6429260" lon="6.0790360">
        <ele>1011.6</ele>
        <time>2022-07-23T13:48:24Z</time>
      </trkpt>
      <trkpt lat="46.6428680" lon="6.0789680">
        <ele>1011.6</ele>
        <time>2022-07-23T13:48:27Z</time>
      </trkpt>
      <trkpt lat="46.6428330" lon="6.0789110">
        <ele>1011.8</ele>
        <time>2022-07-23T13:48:29Z</time>
      </trkpt>
      <trkpt lat="46.6427140" lon="6.0787000">
        <ele>1012.0</ele>
        <time>2022-07-23T13:48:35Z</time>
      </trkpt>
      <trkpt lat="46.6426270" lon="6.0785020">
        <ele>1012.2</ele>
        <time>2022-07-23T13:48:40Z</time>
      </trkpt>
      <trkpt lat="46.6425540" lon="6.0782690">
        <ele>1012.0</ele>
        <time>2022-07-23T13:48:46Z</time>
      </trkpt>
      <trkpt lat="46.6424750" lon="6.0780400">
        <ele>1012.0</ele>
        <time>2022-07-23T13:48:52Z</time>
      </trkpt>
      <trkpt lat="46.6423440" lon="6.0777870">
        <ele>1012.2</ele>
        <time>2022-07-23T13:48:59Z</time>
      </trkpt>
      <trkpt lat="46.6422500" lon="6.0775990">
        <ele>1012.2</ele>
        <time>2022-07-23T13:49:04Z</time>
      </trkpt>
      <trkpt lat="46.6421640" lon="6.0773450">
        <ele>1012.0</ele>
        <time>2022-07-23T13:49:11Z</time>
      </trkpt>
      <trkpt lat="46.6420750" lon="6.0771290">
        <ele>1011.8</ele>
        <time>2022-07-23T13:49:17Z</time>
      </trkpt>
      <trkpt lat="46.6419760" lon="6.0769090">
        <ele>1012.0</ele>
        <time>2022-07-23T13:49:23Z</time>
      </trkpt>
      <trkpt lat="46.6417980" lon="6.0766190">
        <ele>1012.2</ele>
        <time>2022-07-23T13:49:31Z</time>
      </trkpt>
      <trkpt lat="46.6416640" lon="6.0764400">
        <ele>1012.4</ele>
        <time>2022-07-23T13:49:37Z</time>
      </trkpt>
      <trkpt lat="46.6415280" lon="6.0762810">
        <ele>1012.2</ele>
        <time>2022-07-23T13:49:44Z</time>
      </trkpt>
      <trkpt lat="46.6414100" lon="6.0761510">
        <ele>1012.6</ele>
        <time>2022-07-23T13:49:50Z</time>
      </trkpt>
      <trkpt lat="46.6412930" lon="6.0760180">
        <ele>1012.8</ele>
        <time>2022-07-23T13:49:56Z</time>
      </trkpt>
      <trkpt lat="46.6411050" lon="6.0757980">
        <ele>1013.0</ele>
        <time>2022-07-23T13:50:04Z</time>
      </trkpt>
      <trkpt lat="46.6409930" lon="6.0756620">
        <ele>1013.2</ele>
        <time>2022-07-23T13:50:09Z</time>
      </trkpt>
      <trkpt lat="46.6409230" lon="6.0755880">
        <ele>1013.4</ele>
        <time>2022-07-23T13:50:12Z</time>
      </trkpt>
      <trkpt lat="46.6407500" lon="6.0754400">
        <ele>1013.6</ele>
        <time>2022-07-23T13:50:18Z</time>
      </trkpt>
      <trkpt lat="46.6405590" lon="6.0752880">
        <ele>1013.8</ele>
        <time>2022-07-23T13:50:25Z</time>
      </trkpt>
      <trkpt lat="46.6403750" lon="6.0751600">
        <ele>1014.2</ele>
        <time>2022-07-23T13:50:32Z</time>
      </trkpt>
      <trkpt lat="46.6403450" lon="6.0751410">
        <ele>1014.4</ele>
        <time>2022-07-23T13:50:33Z</time>
      </trkpt>
      <trkpt lat="46.6402040" lon="6.0750270">
        <ele>1014.8</ele>
        <time>2022-07-23T13:50:38Z</time>
      </trkpt>
      <trkpt lat="46.6400060" lon="6.0748840">
        <ele>1015.0</ele>
        <time>2022-07-23T13:50:44Z</time>
      </trkpt>
      <trkpt lat="46.6397470" lon="6.0747640">
        <ele>1015.0</ele>
        <time>2022-07-23T13:50:52Z</time>
      </trkpt>
      <trkpt lat="46.6395650" lon="6.0747990">
        <ele>1015.0</ele>
        <time>2022-07-23T13:50:58Z</time>
      </trkpt>
      <trkpt lat="46.6394750" lon="6.0748920">
        <ele>1015.2</ele>
        <time>2022-07-23T13:51:02Z</time>
      </trkpt>
      <trkpt lat="46.6394280" lon="6.0749490">
        <ele>1015.4</ele>
        <time>2022-07-23T13:51:04Z</time>
      </trkpt>
      <trkpt lat="46.6392610" lon="6.0751600">
        <ele>1015.4</ele>
        <time>2022-07-23T13:51:10Z</time>
      </trkpt>
      <trkpt lat="46.6392200" lon="6.0751940">
        <ele>1015.4</ele>
        <time>2022-07-23T13:51:11Z</time>
      </trkpt>
      <trkpt lat="46.6390560" lon="6.0752220">
        <ele>1015.4</ele>
        <time>2022-07-23T13:51:14Z</time>
      </trkpt>
      <trkpt lat="46.6389150" lon="6.0751400">
        <ele>1015.4</ele>
        <time>2022-07-23T13:51:17Z</time>
      </trkpt>
      <trkpt lat="46.6388760" lon="6.0751020">
        <ele>1015.4</ele>
        <time>2022-07-23T13:51:18Z</time>
      </trkpt>
      <trkpt lat="46.6388350" lon="6.0750530">
        <ele>1015.2</ele>
        <time>2022-07-23T13:51:19Z</time>
      </trkpt>
      <trkpt lat="46.6387670" lon="6.0749550">
        <ele>1014.8</ele>
        <time>2022-07-23T13:51:21Z</time>
      </trkpt>
      <trkpt lat="46.6387420" lon="6.0749070">
        <ele>1014.6</ele>
        <time>2022-07-23T13:51:22Z</time>
      </trkpt>
      <trkpt lat="46.6386440" lon="6.0746880">
        <ele>1014.4</ele>
        <time>2022-07-23T13:51:28Z</time>
      </trkpt>
      <trkpt lat="46.6385860" lon="6.0745100">
        <ele>1014.8</ele>
        <time>2022-07-23T13:51:34Z</time>
      </trkpt>
      <trkpt lat="46.6385510" lon="6.0743490">
        <ele>1015.6</ele>
        <time>2022-07-23T13:51:40Z</time>
      </trkpt>
      <trkpt lat="46.6385270" lon="6.0742710">
        <ele>1016.0</ele>
        <time>2022-07-23T13:51:43Z</time>
      </trkpt>
      <trkpt lat="46.6385050" lon="6.0741640">
        <ele>1016.6</ele>
        <time>2022-07-23T13:51:47Z</time>
      </trkpt>
      <trkpt lat="46.6384760" lon="6.0740790">
        <ele>1017.0</ele>
        <time>2022-07-23T13:51:50Z</time>
      </trkpt>
      <trkpt lat="46.6384540" lon="6.0740110">
        <ele>1017.4</ele>
        <time>2022-07-23T13:51:53Z</time>
      </trkpt>
      <trkpt lat="46.6384520" lon="6.0739880">
        <ele>1017.6</ele>
        <time>2022-07-23T13:51:54Z</time>
      </trkpt>
      <trkpt lat="46.6384450" lon="6.0739370">
        <ele>1017.8</ele>
        <time>2022-07-23T13:51:57Z</time>
      </trkpt>
      <trkpt lat="46.6384350" lon="6.0739260">
        <ele>1017.8</ele>
        <time>2022-07-23T13:51:58Z</time>
      </trkpt>
      <trkpt lat="46.6384280" lon="6.0739150">
        <ele>1018.0</ele>
        <time>2022-07-23T13:51:59Z</time>
      </trkpt>
      <trkpt lat="46.6383640" lon="6.0738460">
        <ele>1018.8</ele>
        <time>2022-07-23T13:52:04Z</time>
      </trkpt>
      <trkpt lat="46.6382970" lon="6.0737450">
        <ele>1019.2</ele>
        <time>2022-07-23T13:52:09Z</time>
      </trkpt>
      <trkpt lat="46.6382710" lon="6.0736800">
        <ele>1019.4</ele>
        <time>2022-07-23T13:52:12Z</time>
      </trkpt>
      <trkpt lat="46.6382360" lon="6.0735510">
        <ele>1020.0</ele>
        <time>2022-07-23T13:52:18Z</time>
      </trkpt>
      <trkpt lat="46.6382320" lon="6.0735320">
        <ele>1020.2</ele>
        <time>2022-07-23T13:52:19Z</time>
      </trkpt>
      <trkpt lat="46.6382350" lon="6.0734880">
        <ele>1020.2</ele>
        <time>2022-07-23T13:52:21Z</time>
      </trkpt>
      <trkpt lat="46.6382460" lon="6.0734410">
        <ele>1020.4</ele>
        <time>2022-07-23T13:52:23Z</time>
      </trkpt>
      <trkpt lat="46.6382820" lon="6.0732980">
        <ele>1021.2</ele>
        <time>2022-07-23T13:52:29Z</time>
      </trkpt>
      <trkpt lat="46.6382890" lon="6.0732750">
        <ele>1021.4</ele>
        <time>2022-07-23T13:52:30Z</time>
      </trkpt>
      <trkpt lat="46.6383390" lon="6.0731370">
        <ele>1022.0</ele>
        <time>2022-07-23T13:52:35Z</time>
      </trkpt>
      <trkpt lat="46.6383530" lon="6.0730500">
        <ele>1022.0</ele>
        <time>2022-07-23T13:52:38Z</time>
      </trkpt>
      <trkpt lat="46.6383610" lon="6.0730250">
        <ele>1022.2</ele>
        <time>2022-07-23T13:52:39Z</time>
      </trkpt>
      <trkpt lat="46.6383780" lon="6.0729270">
        <ele>1023.0</ele>
        <time>2022-07-23T13:52:43Z</time>
      </trkpt>
      <trkpt lat="46.6383750" lon="6.0728440">
        <ele>1023.6</ele>
        <time>2022-07-23T13:52:46Z</time>
      </trkpt>
      <trkpt lat="46.6383550" lon="6.0727590">
        <ele>1024.0</ele>
        <time>2022-07-23T13:52:49Z</time>
      </trkpt>
      <trkpt lat="46.6383490" lon="6.0727320">
        <ele>1024.2</ele>
        <time>2022-07-23T13:52:50Z</time>
      </trkpt>
      <trkpt lat="46.6383320" lon="6.0726530">
        <ele>1024.4</ele>
        <time>2022-07-23T13:52:53Z</time>
      </trkpt>
      <trkpt lat="46.6382760" lon="6.0724810">
        <ele>1024.8</ele>
        <time>2022-07-23T13:53:00Z</time>
      </trkpt>
      <trkpt lat="46.6382390" lon="6.0723840">
        <ele>1025.2</ele>
        <time>2022-07-23T13:53:04Z</time>
      </trkpt>
      <trkpt lat="46.6382150" lon="6.0723350">
        <ele>1025.4</ele>
        <time>2022-07-23T13:53:06Z</time>
      </trkpt>
      <trkpt lat="46.6381300" lon="6.0722210">
        <ele>1026.4</ele>
        <time>2022-07-23T13:53:12Z</time>
      </trkpt>
      <trkpt lat="46.6380380" lon="6.0720920">
        <ele>1026.8</ele>
        <time>2022-07-23T13:53:18Z</time>
      </trkpt>
      <trkpt lat="46.6379960" lon="6.0719180">
        <ele>1027.2</ele>
        <time>2022-07-23T13:53:24Z</time>
      </trkpt>
      <trkpt lat="46.6379800" lon="6.0717750">
        <ele>1027.4</ele>
        <time>2022-07-23T13:53:30Z</time>
      </trkpt>
      <trkpt lat="46.6379780" lon="6.0717500">
        <ele>1027.4</ele>
        <time>2022-07-23T13:53:31Z</time>
      </trkpt>
      <trkpt lat="46.6379240" lon="6.0716240">
        <ele>1028.0</ele>
        <time>2022-07-23T13:53:37Z</time>
      </trkpt>
      <trkpt lat="46.6378930" lon="6.0715620">
        <ele>1028.4</ele>
        <time>2022-07-23T13:53:40Z</time>
      </trkpt>
      <trkpt lat="46.6378530" lon="6.0715000">
        <ele>1028.6</ele>
        <time>2022-07-23T13:53:43Z</time>
      </trkpt>
      <trkpt lat="46.6377770" lon="6.0714090">
        <ele>1029.0</ele>
        <time>2022-07-23T13:53:48Z</time>
      </trkpt>
      <trkpt lat="46.6376750" lon="6.0713470">
        <ele>1029.6</ele>
        <time>2022-07-23T13:53:53Z</time>
      </trkpt>
      <trkpt lat="46.6376370" lon="6.0713390">
        <ele>1029.8</ele>
        <time>2022-07-23T13:53:55Z</time>
      </trkpt>
      <trkpt lat="46.6375390" lon="6.0712870">
        <ele>1030.6</ele>
        <time>2022-07-23T13:54:01Z</time>
      </trkpt>
      <trkpt lat="46.6375250" lon="6.0712730">
        <ele>1030.8</ele>
        <time>2022-07-23T13:54:02Z</time>
      </trkpt>
      <trkpt lat="46.6374700" lon="6.0711810">
        <ele>1031.6</ele>
        <time>2022-07-23T13:54:08Z</time>
      </trkpt>
      <trkpt lat="46.6374520" lon="6.0711460">
        <ele>1031.6</ele>
        <time>2022-07-23T13:54:10Z</time>
      </trkpt>
      <trkpt lat="46.6374170" lon="6.0710500">
        <ele>1032.2</ele>
        <time>2022-07-23T13:54:14Z</time>
      </trkpt>
      <trkpt lat="46.6373910" lon="6.0709820">
        <ele>1032.8</ele>
        <time>2022-07-23T13:54:17Z</time>
      </trkpt>
      <trkpt lat="46.6373510" lon="6.0709260">
        <ele>1033.2</ele>
        <time>2022-07-23T13:54:20Z</time>
      </trkpt>
      <trkpt lat="46.6372340" lon="6.0708830">
        <ele>1033.8</ele>
        <time>2022-07-23T13:54:26Z</time>
      </trkpt>
      <trkpt lat="46.6370940" lon="6.0709390">
        <ele>1034.8</ele>
        <time>2022-07-23T13:54:34Z</time>
      </trkpt>
      <trkpt lat="46.6370090" lon="6.0710150">
        <ele>1035.8</ele>
        <time>2022-07-23T13:54:42Z</time>
      </trkpt>
      <trkpt lat="46.6369970" lon="6.0710290">
        <ele>1036.0</ele>
        <time>2022-07-23T13:54:43Z</time>
      </trkpt>
      <trkpt lat="46.6368980" lon="6.0710990">
        <ele>1036.8</ele>
        <time>2022-07-23T13:54:50Z</time>
      </trkpt>
      <trkpt lat="46.6368760" lon="6.0711020">
        <ele>1037.2</ele>
        <time>2022-07-23T13:54:52Z</time>
      </trkpt>
      <trkpt lat="46.6367800" lon="6.0711260">
        <ele>1037.8</ele>
        <time>2022-07-23T13:54:58Z</time>
      </trkpt>
      <trkpt lat="46.6367000" lon="6.0711280">
        <ele>1038.2</ele>
        <time>2022-07-23T13:55:03Z</time>
      </trkpt>
      <trkpt lat="46.6366850" lon="6.0711270">
        <ele>1038.4</ele>
        <time>2022-07-23T13:55:04Z</time>
      </trkpt>
      <trkpt lat="46.6365860" lon="6.0711190">
        <ele>1039.2</ele>
        <time>2022-07-23T13:55:11Z</time>
      </trkpt>
      <trkpt lat="46.6364970" lon="6.0711590">
        <ele>1040.2</ele>
        <time>2022-07-23T13:55:17Z</time>
      </trkpt>
      <trkpt lat="46.6364690" lon="6.0711780">
        <ele>1040.2</ele>
        <time>2022-07-23T13:55:19Z</time>
      </trkpt>
      <trkpt lat="46.6364020" lon="6.0712600">
        <ele>1041.0</ele>
        <time>2022-07-23T13:55:25Z</time>
      </trkpt>
      <trkpt lat="46.6363920" lon="6.0712750">
        <ele>1041.2</ele>
        <time>2022-07-23T13:55:26Z</time>
      </trkpt>
      <trkpt lat="46.6363310" lon="6.0713650">
        <ele>1041.8</ele>
        <time>2022-07-23T13:55:32Z</time>
      </trkpt>
      <trkpt lat="46.6363260" lon="6.0714340">
        <ele>1042.2</ele>
        <time>2022-07-23T13:55:35Z</time>
      </trkpt>
      <trkpt lat="46.6363000" lon="6.0715000">
        <ele>1042.6</ele>
        <time>2022-07-23T13:55:39Z</time>
      </trkpt>
      <trkpt lat="46.6362520" lon="6.0715990">
        <ele>1043.4</ele>
        <time>2022-07-23T13:55:45Z</time>
      </trkpt>
      <trkpt lat="46.6362150" lon="6.0716630">
        <ele>1043.8</ele>
        <time>2022-07-23T13:55:49Z</time>
      </trkpt>
      <trkpt lat="46.6361820" lon="6.0717250">
        <ele>1044.4</ele>
        <time>2022-07-23T13:55:53Z</time>
      </trkpt>
      <trkpt lat="46.6361280" lon="6.0717910">
        <ele>1045.0</ele>
        <time>2022-07-23T13:55:58Z</time>
      </trkpt>
      <trkpt lat="46.6360960" lon="6.0718260">
        <ele>1045.4</ele>
        <time>2022-07-23T13:56:01Z</time>
      </trkpt>
      <trkpt lat="46.6360490" lon="6.0718790">
        <ele>1046.0</ele>
        <time>2022-07-23T13:56:06Z</time>
      </trkpt>
      <trkpt lat="46.6359970" lon="6.0719270">
        <ele>1046.6</ele>
        <time>2022-07-23T13:56:11Z</time>
      </trkpt>
      <trkpt lat="46.6359620" lon="6.0719580">
        <ele>1046.6</ele>
        <time>2022-07-23T13:56:14Z</time>
      </trkpt>
      <trkpt lat="46.6358880" lon="6.0719930">
        <ele>1047.4</ele>
        <time>2022-07-23T13:56:20Z</time>
      </trkpt>
      <trkpt lat="46.6358760" lon="6.0719980">
        <ele>1047.4</ele>
        <time>2022-07-23T13:56:21Z</time>
      </trkpt>
      <trkpt lat="46.6358430" lon="6.0720160">
        <ele>1047.6</ele>
        <time>2022-07-23T13:56:25Z</time>
      </trkpt>
      <trkpt lat="46.6357790" lon="6.0720180">
        <ele>1048.0</ele>
        <time>2022-07-23T13:56:30Z</time>
      </trkpt>
      <trkpt lat="46.6356630" lon="6.0719560">
        <ele>1048.2</ele>
        <time>2022-07-23T13:56:35Z</time>
      </trkpt>
      <trkpt lat="46.6355810" lon="6.0718380">
        <ele>1048.2</ele>
        <time>2022-07-23T13:56:40Z</time>
      </trkpt>
      <trkpt lat="46.6355530" lon="6.0717880">
        <ele>1048.4</ele>
        <time>2022-07-23T13:56:42Z</time>
      </trkpt>
      <trkpt lat="46.6354880" lon="6.0716410">
        <ele>1049.0</ele>
        <time>2022-07-23T13:56:49Z</time>
      </trkpt>
      <trkpt lat="46.6354760" lon="6.0716250">
        <ele>1049.2</ele>
        <time>2022-07-23T13:56:52Z</time>
      </trkpt>
      <trkpt lat="46.6352840" lon="6.0714370">
        <ele>1051.0</ele>
        <time>2022-07-23T14:08:39Z</time>
      </trkpt>
      <trkpt lat="46.6352690" lon="6.0714360">
        <ele>1051.0</ele>
        <time>2022-07-23T14:08:40Z</time>
      </trkpt>
      <trkpt lat="46.6351420" lon="6.0714410">
        <ele>1051.2</ele>
        <time>2022-07-23T14:08:47Z</time>
      </trkpt>
      <trkpt lat="46.6350980" lon="6.0714450">
        <ele>1051.4</ele>
        <time>2022-07-23T14:08:49Z</time>
      </trkpt>
      <trkpt lat="46.6350020" lon="6.0714650">
        <ele>1051.8</ele>
        <time>2022-07-23T14:08:54Z</time>
      </trkpt>
      <trkpt lat="46.6348970" lon="6.0714850">
        <ele>1052.0</ele>
        <time>2022-07-23T14:08:59Z</time>
      </trkpt>
      <trkpt lat="46.6347970" lon="6.0715040">
        <ele>1052.4</ele>
        <time>2022-07-23T14:09:03Z</time>
      </trkpt>
      <trkpt lat="46.6345440" lon="6.0715530">
        <ele>1052.8</ele>
        <time>2022-07-23T14:09:12Z</time>
      </trkpt>
      <trkpt lat="46.6343430" lon="6.0715430">
        <ele>1053.0</ele>
        <time>2022-07-23T14:09:18Z</time>
      </trkpt>
      <trkpt lat="46.6343110" lon="6.0715300">
        <ele>1053.2</ele>
        <time>2022-07-23T14:09:19Z</time>
      </trkpt>
      <trkpt lat="46.6341850" lon="6.0714070">
        <ele>1053.2</ele>
        <time>2022-07-23T14:09:24Z</time>
      </trkpt>
      <trkpt lat="46.6341530" lon="6.0712580">
        <ele>1053.4</ele>
        <time>2022-07-23T14:09:27Z</time>
      </trkpt>
      <trkpt lat="46.6341450" lon="6.0711950">
        <ele>1053.4</ele>
        <time>2022-07-23T14:09:28Z</time>
      </trkpt>
      <trkpt lat="46.6341160" lon="6.0710550">
        <ele>1053.4</ele>
        <time>2022-07-23T14:09:30Z</time>
      </trkpt>
      <trkpt lat="46.6340540" lon="6.0709270">
        <ele>1053.2</ele>
        <time>2022-07-23T14:09:32Z</time>
      </trkpt>
      <trkpt lat="46.6338230" lon="6.0707570">
        <ele>1053.2</ele>
        <time>2022-07-23T14:09:36Z</time>
      </trkpt>
      <trkpt lat="46.6337620" lon="6.0707090">
        <ele>1053.0</ele>
        <time>2022-07-23T14:09:37Z</time>
      </trkpt>
      <trkpt lat="46.6336630" lon="6.0705800">
        <ele>1052.4</ele>
        <time>2022-07-23T14:09:39Z</time>
      </trkpt>
      <trkpt lat="46.6335780" lon="6.0704440">
        <ele>1051.8</ele>
        <time>2022-07-23T14:09:41Z</time>
      </trkpt>
      <trkpt lat="46.6334780" lon="6.0702390">
        <ele>1050.4</ele>
        <time>2022-07-23T14:09:44Z</time>
      </trkpt>
      <trkpt lat="46.6333750" lon="6.0700200">
        <ele>1049.4</ele>
        <time>2022-07-23T14:09:47Z</time>
      </trkpt>
      <trkpt lat="46.6333360" lon="6.0699450">
        <ele>1049.2</ele>
        <time>2022-07-23T14:09:48Z</time>
      </trkpt>
      <trkpt lat="46.6332520" lon="6.0697840">
        <ele>1048.4</ele>
        <time>2022-07-23T14:09:50Z</time>
      </trkpt>
      <trkpt lat="46.6331820" lon="6.0695900">
        <ele>1048.2</ele>
        <time>2022-07-23T14:09:52Z</time>
      </trkpt>
      <trkpt lat="46.6331540" lon="6.0693670">
        <ele>1048.0</ele>
        <time>2022-07-23T14:09:54Z</time>
      </trkpt>
      <trkpt lat="46.6331530" lon="6.0691500">
        <ele>1047.6</ele>
        <time>2022-07-23T14:09:56Z</time>
      </trkpt>
      <trkpt lat="46.6331500" lon="6.0689790">
        <ele>1047.0</ele>
        <time>2022-07-23T14:09:58Z</time>
      </trkpt>
      <trkpt lat="46.6331520" lon="6.0689080">
        <ele>1046.6</ele>
        <time>2022-07-23T14:09:59Z</time>
      </trkpt>
      <trkpt lat="46.6331570" lon="6.0686750">
        <ele>1045.2</ele>
        <time>2022-07-23T14:10:02Z</time>
      </trkpt>
      <trkpt lat="46.6331350" lon="6.0685120">
        <ele>1044.2</ele>
        <time>2022-07-23T14:10:04Z</time>
      </trkpt>
      <trkpt lat="46.6330890" lon="6.0683620">
        <ele>1042.8</ele>
        <time>2022-07-23T14:10:06Z</time>
      </trkpt>
      <trkpt lat="46.6330300" lon="6.0682250">
        <ele>1041.8</ele>
        <time>2022-07-23T14:10:08Z</time>
      </trkpt>
      <trkpt lat="46.6329070" lon="6.0680760">
        <ele>1040.8</ele>
        <time>2022-07-23T14:10:11Z</time>
      </trkpt>
      <trkpt lat="46.6328630" lon="6.0680430">
        <ele>1040.4</ele>
        <time>2022-07-23T14:10:12Z</time>
      </trkpt>
      <trkpt lat="46.6328130" lon="6.0680180">
        <ele>1039.8</ele>
        <time>2022-07-23T14:10:13Z</time>
      </trkpt>
      <trkpt lat="46.6327060" lon="6.0679970">
        <ele>1039.2</ele>
        <time>2022-07-23T14:10:15Z</time>
      </trkpt>
      <trkpt lat="46.6326510" lon="6.0679910">
        <ele>1038.8</ele>
        <time>2022-07-23T14:10:16Z</time>
      </trkpt>
      <trkpt lat="46.6325930" lon="6.0679830">
        <ele>1038.6</ele>
        <time>2022-07-23T14:10:17Z</time>
      </trkpt>
      <trkpt lat="46.6324790" lon="6.0679550">
        <ele>1037.8</ele>
        <time>2022-07-23T14:10:19Z</time>
      </trkpt>
      <trkpt lat="46.6324250" lon="6.0679270">
        <ele>1037.4</ele>
        <time>2022-07-23T14:10:20Z</time>
      </trkpt>
      <trkpt lat="46.6323720" lon="6.0678940">
        <ele>1037.0</ele>
        <time>2022-07-23T14:10:21Z</time>
      </trkpt>
      <trkpt lat="46.6321830" lon="6.0677430">
        <ele>1036.0</ele>
        <time>2022-07-23T14:10:25Z</time>
      </trkpt>
      <trkpt lat="46.6321380" lon="6.0677010">
        <ele>1035.6</ele>
        <time>2022-07-23T14:10:26Z</time>
      </trkpt>
      <trkpt lat="46.6320530" lon="6.0676220">
        <ele>1034.8</ele>
        <time>2022-07-23T14:10:28Z</time>
      </trkpt>
      <trkpt lat="46.6319810" lon="6.0675440">
        <ele>1034.0</ele>
        <time>2022-07-23T14:10:30Z</time>
      </trkpt>
      <trkpt lat="46.6319410" lon="6.0675150">
        <ele>1033.8</ele>
        <time>2022-07-23T14:10:31Z</time>
      </trkpt>
      <trkpt lat="46.6318960" lon="6.0674900">
        <ele>1033.6</ele>
        <time>2022-07-23T14:10:32Z</time>
      </trkpt>
      <trkpt lat="46.6318490" lon="6.0674700">
        <ele>1033.2</ele>
        <time>2022-07-23T14:10:33Z</time>
      </trkpt>
      <trkpt lat="46.6316990" lon="6.0674470">
        <ele>1032.6</ele>
        <time>2022-07-23T14:10:36Z</time>
      </trkpt>
      <trkpt lat="46.6316500" lon="6.0674350">
        <ele>1032.6</ele>
        <time>2022-07-23T14:10:37Z</time>
      </trkpt>
      <trkpt lat="46.6314850" lon="6.0673680">
        <ele>1032.4</ele>
        <time>2022-07-23T14:10:41Z</time>
      </trkpt>
      <trkpt lat="46.6313840" lon="6.0672850">
        <ele>1032.4</ele>
        <time>2022-07-23T14:10:45Z</time>
      </trkpt>
      <trkpt lat="46.6312050" lon="6.0672590">
        <ele>1032.6</ele>
        <time>2022-07-23T14:10:51Z</time>
      </trkpt>
      <trkpt lat="46.6309660" lon="6.0672620">
        <ele>1033.2</ele>
        <time>2022-07-23T14:10:58Z</time>
      </trkpt>
      <trkpt lat="46.6308190" lon="6.0672050">
        <ele>1033.4</ele>
        <time>2022-07-23T14:11:03Z</time>
      </trkpt>
      <trkpt lat="46.6307710" lon="6.0671580">
        <ele>1033.6</ele>
        <time>2022-07-23T14:11:05Z</time>
      </trkpt>
      <trkpt lat="46.6307090" lon="6.0670320">
        <ele>1034.0</ele>
        <time>2022-07-23T14:11:09Z</time>
      </trkpt>
      <trkpt lat="46.6306820" lon="6.0668690">
        <ele>1034.2</ele>
        <time>2022-07-23T14:11:14Z</time>
      </trkpt>
      <trkpt lat="46.6306620" lon="6.0668210">
        <ele>1034.4</ele>
        <time>2022-07-23T14:11:16Z</time>
      </trkpt>
      <trkpt lat="46.6306110" lon="6.0666980">
        <ele>1034.6</ele>
        <time>2022-07-23T14:11:20Z</time>
      </trkpt>
      <trkpt lat="46.6305430" lon="6.0665740">
        <ele>1035.0</ele>
        <time>2022-07-23T14:11:24Z</time>
      </trkpt>
      <trkpt lat="46.6305110" lon="6.0665140">
        <ele>1035.4</ele>
        <time>2022-07-23T14:11:26Z</time>
      </trkpt>
      <trkpt lat="46.6304080" lon="6.0663530">
        <ele>1036.2</ele>
        <time>2022-07-23T14:11:31Z</time>
      </trkpt>
      <trkpt lat="46.6302530" lon="6.0662040">
        <ele>1036.2</ele>
        <time>2022-07-23T14:11:35Z</time>
      </trkpt>
      <trkpt lat="46.6300490" lon="6.0662460">
        <ele>1036.2</ele>
        <time>2022-07-23T14:11:39Z</time>
      </trkpt>
      <trkpt lat="46.6299460" lon="6.0663430">
        <ele>1036.0</ele>
        <time>2022-07-23T14:11:41Z</time>
      </trkpt>
      <trkpt lat="46.6298460" lon="6.0664520">
        <ele>1035.8</ele>
        <time>2022-07-23T14:11:43Z</time>
      </trkpt>
      <trkpt lat="46.6296680" lon="6.0666540">
        <ele>1035.0</ele>
        <time>2022-07-23T14:11:47Z</time>
      </trkpt>
      <trkpt lat="46.6296210" lon="6.0666940">
        <ele>1034.4</ele>
        <time>2022-07-23T14:11:48Z</time>
      </trkpt>
      <trkpt lat="46.6295780" lon="6.0667330">
        <ele>1034.0</ele>
        <time>2022-07-23T14:11:49Z</time>
      </trkpt>
      <trkpt lat="46.6294610" lon="6.0668460">
        <ele>1033.2</ele>
        <time>2022-07-23T14:11:52Z</time>
      </trkpt>
      <trkpt lat="46.6294300" lon="6.0668870">
        <ele>1033.2</ele>
        <time>2022-07-23T14:11:53Z</time>
      </trkpt>
      <trkpt lat="46.6293540" lon="6.0669420">
        <ele>1033.0</ele>
        <time>2022-07-23T14:11:55Z</time>
      </trkpt>
      <trkpt lat="46.6292140" lon="6.0670660">
        <ele>1033.0</ele>
        <time>2022-07-23T14:11:59Z</time>
      </trkpt>
      <trkpt lat="46.6289880" lon="6.0671250">
        <ele>1033.2</ele>
        <time>2022-07-23T14:12:05Z</time>
      </trkpt>
      <trkpt lat="46.6288280" lon="6.0670700">
        <ele>1033.2</ele>
        <time>2022-07-23T14:12:09Z</time>
      </trkpt>
      <trkpt lat="46.6287930" lon="6.0670320">
        <ele>1033.2</ele>
        <time>2022-07-23T14:12:10Z</time>
      </trkpt>
      <trkpt lat="46.6286610" lon="6.0668450">
        <ele>1033.2</ele>
        <time>2022-07-23T14:12:14Z</time>
      </trkpt>
      <trkpt lat="46.6286060" lon="6.0667380">
        <ele>1033.2</ele>
        <time>2022-07-23T14:12:16Z</time>
      </trkpt>
      <trkpt lat="46.6285110" lon="6.0665720">
        <ele>1032.8</ele>
        <time>2022-07-23T14:12:19Z</time>
      </trkpt>
      <trkpt lat="46.6284130" lon="6.0664770">
        <ele>1032.6</ele>
        <time>2022-07-23T14:12:21Z</time>
      </trkpt>
      <trkpt lat="46.6283060" lon="6.0663950">
        <ele>1032.2</ele>
        <time>2022-07-23T14:12:23Z</time>
      </trkpt>
      <trkpt lat="46.6282520" lon="6.0663580">
        <ele>1031.8</ele>
        <time>2022-07-23T14:12:24Z</time>
      </trkpt>
      <trkpt lat="46.6280900" lon="6.0662200">
        <ele>1030.6</ele>
        <time>2022-07-23T14:12:27Z</time>
      </trkpt>
      <trkpt lat="46.6278890" lon="6.0660390">
        <ele>1029.0</ele>
        <time>2022-07-23T14:12:31Z</time>
      </trkpt>
      <trkpt lat="46.6278460" lon="6.0660050">
        <ele>1028.8</ele>
        <time>2022-07-23T14:12:32Z</time>
      </trkpt>
      <trkpt lat="46.6277020" lon="6.0658770">
        <ele>1028.0</ele>
        <time>2022-07-23T14:12:36Z</time>
      </trkpt>
      <trkpt lat="46.6276700" lon="6.0658530">
        <ele>1028.0</ele>
        <time>2022-07-23T14:12:37Z</time>
      </trkpt>
      <trkpt lat="46.6274100" lon="6.0657050">
        <ele>1028.2</ele>
        <time>2022-07-23T14:12:45Z</time>
      </trkpt>
      <trkpt lat="46.6272200" lon="6.0655810">
        <ele>1028.2</ele>
        <time>2022-07-23T14:12:51Z</time>
      </trkpt>
      <trkpt lat="46.6270720" lon="6.0654280">
        <ele>1028.2</ele>
        <time>2022-07-23T14:12:57Z</time>
      </trkpt>
      <trkpt lat="46.6269560" lon="6.0653290">
        <ele>1028.2</ele>
        <time>2022-07-23T14:13:02Z</time>
      </trkpt>
      <trkpt lat="46.6267990" lon="6.0651940">
        <ele>1028.6</ele>
        <time>2022-07-23T14:13:08Z</time>
      </trkpt>
      <trkpt lat="46.6266910" lon="6.0651550">
        <ele>1029.0</ele>
        <time>2022-07-23T14:13:11Z</time>
      </trkpt>
      <trkpt lat="46.6266490" lon="6.0651400">
        <ele>1029.0</ele>
        <time>2022-07-23T14:13:12Z</time>
      </trkpt>
      <trkpt lat="46.6265100" lon="6.0651030">
        <ele>1029.2</ele>
        <time>2022-07-23T14:13:15Z</time>
      </trkpt>
      <trkpt lat="46.6264120" lon="6.0650640">
        <ele>1029.0</ele>
        <time>2022-07-23T14:13:17Z</time>
      </trkpt>
      <trkpt lat="46.6261690" lon="6.0649170">
        <ele>1029.0</ele>
        <time>2022-07-23T14:13:23Z</time>
      </trkpt>
      <trkpt lat="46.6260390" lon="6.0647490">
        <ele>1028.8</ele>
        <time>2022-07-23T14:13:28Z</time>
      </trkpt>
      <trkpt lat="46.6258990" lon="6.0645410">
        <ele>1028.6</ele>
        <time>2022-07-23T14:13:33Z</time>
      </trkpt>
      <trkpt lat="46.6258790" lon="6.0645000">
        <ele>1028.6</ele>
        <time>2022-07-23T14:13:34Z</time>
      </trkpt>
      <trkpt lat="46.6258450" lon="6.0643210">
        <ele>1028.2</ele>
        <time>2022-07-23T14:13:37Z</time>
      </trkpt>
      <trkpt lat="46.6258460" lon="6.0642470">
        <ele>1027.4</ele>
        <time>2022-07-23T14:13:38Z</time>
      </trkpt>
      <trkpt lat="46.6258330" lon="6.0640770">
        <ele>1026.8</ele>
        <time>2022-07-23T14:13:40Z</time>
      </trkpt>
      <trkpt lat="46.6258160" lon="6.0639880">
        <ele>1026.4</ele>
        <time>2022-07-23T14:13:41Z</time>
      </trkpt>
      <trkpt lat="46.6256940" lon="6.0637870">
        <ele>1025.8</ele>
        <time>2022-07-23T14:13:44Z</time>
      </trkpt>
      <trkpt lat="46.6256260" lon="6.0637270">
        <ele>1025.2</ele>
        <time>2022-07-23T14:13:46Z</time>
      </trkpt>
      <trkpt lat="46.6255630" lon="6.0636700">
        <ele>1024.2</ele>
        <time>2022-07-23T14:13:48Z</time>
      </trkpt>
      <trkpt lat="46.6255280" lon="6.0636480">
        <ele>1023.8</ele>
        <time>2022-07-23T14:13:49Z</time>
      </trkpt>
      <trkpt lat="46.6254170" lon="6.0636300">
        <ele>1022.6</ele>
        <time>2022-07-23T14:13:52Z</time>
      </trkpt>
      <trkpt lat="46.6252460" lon="6.0637600">
        <ele>1021.6</ele>
        <time>2022-07-23T14:13:56Z</time>
      </trkpt>
      <trkpt lat="46.6251900" lon="6.0637990">
        <ele>1021.4</ele>
        <time>2022-07-23T14:13:57Z</time>
      </trkpt>
      <trkpt lat="46.6250070" lon="6.0639100">
        <ele>1020.0</ele>
        <time>2022-07-23T14:14:00Z</time>
      </trkpt>
      <trkpt lat="46.6247330" lon="6.0640180">
        <ele>1018.8</ele>
        <time>2022-07-23T14:14:04Z</time>
      </trkpt>
      <trkpt lat="46.6246570" lon="6.0640330">
        <ele>1018.2</ele>
        <time>2022-07-23T14:14:05Z</time>
      </trkpt>
      <trkpt lat="46.6245810" lon="6.0640450">
        <ele>1017.6</ele>
        <time>2022-07-23T14:14:06Z</time>
      </trkpt>
      <trkpt lat="46.6243540" lon="6.0640790">
        <ele>1016.6</ele>
        <time>2022-07-23T14:14:09Z</time>
      </trkpt>
      <trkpt lat="46.6242840" lon="6.0641090">
        <ele>1016.2</ele>
        <time>2022-07-23T14:14:10Z</time>
      </trkpt>
      <trkpt lat="46.6241630" lon="6.0642070">
        <ele>1015.4</ele>
        <time>2022-07-23T14:14:12Z</time>
      </trkpt>
      <trkpt lat="46.6240630" lon="6.0643360">
        <ele>1014.4</ele>
        <time>2022-07-23T14:14:14Z</time>
      </trkpt>
      <trkpt lat="46.6240200" lon="6.0644120">
        <ele>1014.2</ele>
        <time>2022-07-23T14:14:15Z</time>
      </trkpt>
      <trkpt lat="46.6239260" lon="6.0646820">
        <ele>1013.6</ele>
        <time>2022-07-23T14:14:18Z</time>
      </trkpt>
      <trkpt lat="46.6239000" lon="6.0647740">
        <ele>1013.4</ele>
        <time>2022-07-23T14:14:19Z</time>
      </trkpt>
      <trkpt lat="46.6238350" lon="6.0649540">
        <ele>1012.8</ele>
        <time>2022-07-23T14:14:21Z</time>
      </trkpt>
      <trkpt lat="46.6237590" lon="6.0651360">
        <ele>1011.8</ele>
        <time>2022-07-23T14:14:23Z</time>
      </trkpt>
      <trkpt lat="46.6237170" lon="6.0652330">
        <ele>1011.4</ele>
        <time>2022-07-23T14:14:24Z</time>
      </trkpt>
      <trkpt lat="46.6236340" lon="6.0654140">
        <ele>1010.6</ele>
        <time>2022-07-23T14:14:26Z</time>
      </trkpt>
      <trkpt lat="46.6235160" lon="6.0656240">
        <ele>1009.8</ele>
        <time>2022-07-23T14:14:29Z</time>
      </trkpt>
      <trkpt lat="46.6234770" lon="6.0656670">
        <ele>1009.4</ele>
        <time>2022-07-23T14:14:30Z</time>
      </trkpt>
      <trkpt lat="46.6233000" lon="6.0657980">
        <ele>1009.2</ele>
        <time>2022-07-23T14:14:35Z</time>
      </trkpt>
      <trkpt lat="46.6230660" lon="6.0659060">
        <ele>1009.8</ele>
        <time>2022-07-23T14:14:43Z</time>
      </trkpt>
      <trkpt lat="46.6229790" lon="6.0659600">
        <ele>1010.4</ele>
        <time>2022-07-23T14:14:46Z</time>
      </trkpt>
      <trkpt lat="46.6229250" lon="6.0660030">
        <ele>1010.6</ele>
        <time>2022-07-23T14:14:48Z</time>
      </trkpt>
      <trkpt lat="46.6228380" lon="6.0660930">
        <ele>1011.4</ele>
        <time>2022-07-23T14:14:52Z</time>
      </trkpt>
      <trkpt lat="46.6228060" lon="6.0661290">
        <ele>1011.6</ele>
        <time>2022-07-23T14:14:54Z</time>
      </trkpt>
      <trkpt lat="46.6227070" lon="6.0662870">
        <ele>1012.4</ele>
        <time>2022-07-23T14:15:01Z</time>
      </trkpt>
      <trkpt lat="46.6226240" lon="6.0664230">
        <ele>1013.6</ele>
        <time>2022-07-23T14:15:06Z</time>
      </trkpt>
      <trkpt lat="46.6225820" lon="6.0664760">
        <ele>1014.2</ele>
        <time>2022-07-23T14:15:08Z</time>
      </trkpt>
      <trkpt lat="46.6225070" lon="6.0665660">
        <ele>1014.4</ele>
        <time>2022-07-23T14:15:11Z</time>
      </trkpt>
      <trkpt lat="46.6224370" lon="6.0666250">
        <ele>1014.8</ele>
        <time>2022-07-23T14:15:13Z</time>
      </trkpt>
      <trkpt lat="46.6222160" lon="6.0668810">
        <ele>1014.8</ele>
        <time>2022-07-23T14:15:20Z</time>
      </trkpt>
      <trkpt lat="46.6221000" lon="6.0670480">
        <ele>1014.8</ele>
        <time>2022-07-23T14:15:25Z</time>
      </trkpt>
      <trkpt lat="46.6219500" lon="6.0671890">
        <ele>1014.8</ele>
        <time>2022-07-23T14:15:31Z</time>
      </trkpt>
      <trkpt lat="46.6218040" lon="6.0672610">
        <ele>1015.4</ele>
        <time>2022-07-23T14:15:36Z</time>
      </trkpt>
      <trkpt lat="46.6217770" lon="6.0672720">
        <ele>1015.6</ele>
        <time>2022-07-23T14:15:37Z</time>
      </trkpt>
      <trkpt lat="46.6215880" lon="6.0673120">
        <ele>1016.0</ele>
        <time>2022-07-23T14:15:44Z</time>
      </trkpt>
      <trkpt lat="46.6215090" lon="6.0673320">
        <ele>1016.4</ele>
        <time>2022-07-23T14:15:47Z</time>
      </trkpt>
      <trkpt lat="46.6214220" lon="6.0673880">
        <ele>1016.6</ele>
        <time>2022-07-23T14:15:51Z</time>
      </trkpt>
      <trkpt lat="46.6213210" lon="6.0674580">
        <ele>1017.2</ele>
        <time>2022-07-23T14:15:57Z</time>
      </trkpt>
      <trkpt lat="46.6213050" lon="6.0674680">
        <ele>1017.4</ele>
        <time>2022-07-23T14:15:58Z</time>
      </trkpt>
      <trkpt lat="46.6211990" lon="6.0675080">
        <ele>1018.6</ele>
        <time>2022-07-23T14:16:04Z</time>
      </trkpt>
      <trkpt lat="46.6211110" lon="6.0675390">
        <ele>1019.4</ele>
        <time>2022-07-23T14:16:08Z</time>
      </trkpt>
      <trkpt lat="46.6210880" lon="6.0675430">
        <ele>1019.6</ele>
        <time>2022-07-23T14:16:09Z</time>
      </trkpt>
      <trkpt lat="46.6209980" lon="6.0675710">
        <ele>1020.6</ele>
        <time>2022-07-23T14:16:14Z</time>
      </trkpt>
      <trkpt lat="46.6209870" lon="6.0675820">
        <ele>1020.8</ele>
        <time>2022-07-23T14:16:15Z</time>
      </trkpt>
      <trkpt lat="46.6209360" lon="6.0676810">
        <ele>1021.6</ele>
        <time>2022-07-23T14:16:20Z</time>
      </trkpt>
      <trkpt lat="46.6209060" lon="6.0677130">
        <ele>1022.0</ele>
        <time>2022-07-23T14:16:22Z</time>
      </trkpt>
      <trkpt lat="46.6208500" lon="6.0677860">
        <ele>1022.6</ele>
        <time>2022-07-23T14:16:26Z</time>
      </trkpt>
      <trkpt lat="46.6208430" lon="6.0678110">
        <ele>1023.0</ele>
        <time>2022-07-23T14:16:27Z</time>
      </trkpt>
      <trkpt lat="46.6208280" lon="6.0678310">
        <ele>1023.2</ele>
        <time>2022-07-23T14:16:28Z</time>
      </trkpt>
      <trkpt lat="46.6207660" lon="6.0679050">
        <ele>1023.8</ele>
        <time>2022-07-23T14:16:32Z</time>
      </trkpt>
      <trkpt lat="46.6207070" lon="6.0679450">
        <ele>1024.6</ele>
        <time>2022-07-23T14:16:36Z</time>
      </trkpt>
      <trkpt lat="46.6206910" lon="6.0679590">
        <ele>1024.6</ele>
        <time>2022-07-23T14:16:37Z</time>
      </trkpt>
      <trkpt lat="46.6206080" lon="6.0680630">
        <ele>1025.4</ele>
        <time>2022-07-23T14:16:43Z</time>
      </trkpt>
      <trkpt lat="46.6205880" lon="6.0681070">
        <ele>1025.8</ele>
        <time>2022-07-23T14:16:45Z</time>
      </trkpt>
      <trkpt lat="46.6205420" lon="6.0682100">
        <ele>1026.4</ele>
        <time>2022-07-23T14:16:49Z</time>
      </trkpt>
      <trkpt lat="46.6205180" lon="6.0682520">
        <ele>1026.8</ele>
        <time>2022-07-23T14:16:51Z</time>
      </trkpt>
      <trkpt lat="46.6204810" lon="6.0683800">
        <ele>1027.4</ele>
        <time>2022-07-23T14:16:56Z</time>
      </trkpt>
      <trkpt lat="46.6204520" lon="6.0684510">
        <ele>1027.6</ele>
        <time>2022-07-23T14:16:59Z</time>
      </trkpt>
      <trkpt lat="46.6204020" lon="6.0685380">
        <ele>1028.8</ele>
        <time>2022-07-23T14:17:03Z</time>
      </trkpt>
      <trkpt lat="46.6203390" lon="6.0687190">
        <ele>1029.8</ele>
        <time>2022-07-23T14:17:10Z</time>
      </trkpt>
      <trkpt lat="46.6203280" lon="6.0687370">
        <ele>1029.8</ele>
        <time>2022-07-23T14:17:11Z</time>
      </trkpt>
      <trkpt lat="46.6202960" lon="6.0689040">
        <ele>1030.6</ele>
        <time>2022-07-23T14:17:18Z</time>
      </trkpt>
      <trkpt lat="46.6202760" lon="6.0691290">
        <ele>1031.6</ele>
        <time>2022-07-23T14:17:26Z</time>
      </trkpt>
      <trkpt lat="46.6202720" lon="6.0691580">
        <ele>1031.8</ele>
        <time>2022-07-23T14:17:27Z</time>
      </trkpt>
      <trkpt lat="46.6202530" lon="6.0692830">
        <ele>1032.4</ele>
        <time>2022-07-23T14:17:31Z</time>
      </trkpt>
      <trkpt lat="46.6202470" lon="6.0693120">
        <ele>1032.8</ele>
        <time>2022-07-23T14:17:32Z</time>
      </trkpt>
      <trkpt lat="46.6201900" lon="6.0695120">
        <ele>1033.6</ele>
        <time>2022-07-23T14:17:39Z</time>
      </trkpt>
      <trkpt lat="46.6201700" lon="6.0695690">
        <ele>1033.8</ele>
        <time>2022-07-23T14:17:41Z</time>
      </trkpt>
      <trkpt lat="46.6200870" lon="6.0696710">
        <ele>1034.4</ele>
        <time>2022-07-23T14:17:46Z</time>
      </trkpt>
      <trkpt lat="46.6200400" lon="6.0697310">
        <ele>1034.6</ele>
        <time>2022-07-23T14:17:49Z</time>
      </trkpt>
      <trkpt lat="46.6199970" lon="6.0698000">
        <ele>1035.0</ele>
        <time>2022-07-23T14:17:52Z</time>
      </trkpt>
      <trkpt lat="46.6199350" lon="6.0699410">
        <ele>1035.8</ele>
        <time>2022-07-23T14:17:57Z</time>
      </trkpt>
      <trkpt lat="46.6199230" lon="6.0699710">
        <ele>1035.8</ele>
        <time>2022-07-23T14:17:58Z</time>
      </trkpt>
      <trkpt lat="46.6198390" lon="6.0700830">
        <ele>1036.8</ele>
        <time>2022-07-23T14:18:03Z</time>
      </trkpt>
      <trkpt lat="46.6198230" lon="6.0701030">
        <ele>1037.0</ele>
        <time>2022-07-23T14:18:04Z</time>
      </trkpt>
      <trkpt lat="46.6197330" lon="6.0702380">
        <ele>1037.2</ele>
        <time>2022-07-23T14:18:10Z</time>
      </trkpt>
      <trkpt lat="46.6196820" lon="6.0702850">
        <ele>1037.6</ele>
        <time>2022-07-23T14:18:13Z</time>
      </trkpt>
      <trkpt lat="46.6196270" lon="6.0703320">
        <ele>1038.2</ele>
        <time>2022-07-23T14:18:16Z</time>
      </trkpt>
      <trkpt lat="46.6195480" lon="6.0704360">
        <ele>1038.8</ele>
        <time>2022-07-23T14:18:21Z</time>
      </trkpt>
      <trkpt lat="46.6194670" lon="6.0705750">
        <ele>1039.6</ele>
        <time>2022-07-23T14:18:27Z</time>
      </trkpt>
      <trkpt lat="46.6194340" lon="6.0706250">
        <ele>1039.8</ele>
        <time>2022-07-23T14:18:29Z</time>
      </trkpt>
      <trkpt lat="46.6193410" lon="6.0708190">
        <ele>1040.8</ele>
        <time>2022-07-23T14:18:36Z</time>
      </trkpt>
      <trkpt lat="46.6192530" lon="6.0710110">
        <ele>1042.0</ele>
        <time>2022-07-23T14:18:43Z</time>
      </trkpt>
      <trkpt lat="46.6192270" lon="6.0710610">
        <ele>1042.2</ele>
        <time>2022-07-23T14:18:45Z</time>
      </trkpt>
      <trkpt lat="46.6191650" lon="6.0711470">
        <ele>1043.0</ele>
        <time>2022-07-23T14:18:49Z</time>
      </trkpt>
      <trkpt lat="46.6191340" lon="6.0711870">
        <ele>1043.2</ele>
        <time>2022-07-23T14:18:51Z</time>
      </trkpt>
      <trkpt lat="46.6190840" lon="6.0712810">
        <ele>1044.0</ele>
        <time>2022-07-23T14:18:55Z</time>
      </trkpt>
      <trkpt lat="46.6190520" lon="6.0713260">
        <ele>1044.4</ele>
        <time>2022-07-23T14:18:57Z</time>
      </trkpt>
      <trkpt lat="46.6189840" lon="6.0714110">
        <ele>1045.2</ele>
        <time>2022-07-23T14:19:01Z</time>
      </trkpt>
      <trkpt lat="46.6189470" lon="6.0714490">
        <ele>1045.4</ele>
        <time>2022-07-23T14:19:03Z</time>
      </trkpt>
      <trkpt lat="46.6188650" lon="6.0715520">
        <ele>1046.0</ele>
        <time>2022-07-23T14:19:08Z</time>
      </trkpt>
      <trkpt lat="46.6188280" lon="6.0715930">
        <ele>1046.2</ele>
        <time>2022-07-23T14:19:10Z</time>
      </trkpt>
      <trkpt lat="46.6187280" lon="6.0717290">
        <ele>1047.0</ele>
        <time>2022-07-23T14:19:16Z</time>
      </trkpt>
      <trkpt lat="46.6187120" lon="6.0717510">
        <ele>1047.2</ele>
        <time>2022-07-23T14:19:17Z</time>
      </trkpt>
      <trkpt lat="46.6186150" lon="6.0718300">
        <ele>1047.8</ele>
        <time>2022-07-23T14:19:22Z</time>
      </trkpt>
      <trkpt lat="46.6185730" lon="6.0718590">
        <ele>1048.2</ele>
        <time>2022-07-23T14:19:24Z</time>
      </trkpt>
      <trkpt lat="46.6184820" lon="6.0719670">
        <ele>1049.2</ele>
        <time>2022-07-23T14:19:29Z</time>
      </trkpt>
      <trkpt lat="46.6183610" lon="6.0721270">
        <ele>1050.2</ele>
        <time>2022-07-23T14:19:36Z</time>
      </trkpt>
      <trkpt lat="46.6183430" lon="6.0721410">
        <ele>1050.4</ele>
        <time>2022-07-23T14:19:37Z</time>
      </trkpt>
      <trkpt lat="46.6182430" lon="6.0722020">
        <ele>1051.4</ele>
        <time>2022-07-23T14:19:42Z</time>
      </trkpt>
      <trkpt lat="46.6181950" lon="6.0722200">
        <ele>1051.6</ele>
        <time>2022-07-23T14:19:44Z</time>
      </trkpt>
      <trkpt lat="46.6180790" lon="6.0722440">
        <ele>1052.4</ele>
        <time>2022-07-23T14:19:49Z</time>
      </trkpt>
      <trkpt lat="46.6180250" lon="6.0722340">
        <ele>1052.8</ele>
        <time>2022-07-23T14:19:51Z</time>
      </trkpt>
      <trkpt lat="46.6178900" lon="6.0721480">
        <ele>1053.2</ele>
        <time>2022-07-23T14:19:57Z</time>
      </trkpt>
      <trkpt lat="46.6178680" lon="6.0721340">
        <ele>1053.6</ele>
        <time>2022-07-23T14:19:58Z</time>
      </trkpt>
      <trkpt lat="46.6177600" lon="6.0721000">
        <ele>1054.0</ele>
        <time>2022-07-23T14:20:03Z</time>
      </trkpt>
      <trkpt lat="46.6177180" lon="6.0721020">
        <ele>1054.4</ele>
        <time>2022-07-23T14:20:05Z</time>
      </trkpt>
      <trkpt lat="46.6176370" lon="6.0721090">
        <ele>1055.0</ele>
        <time>2022-07-23T14:20:09Z</time>
      </trkpt>
      <trkpt lat="46.6175970" lon="6.0721130">
        <ele>1055.4</ele>
        <time>2022-07-23T14:20:11Z</time>
      </trkpt>
      <trkpt lat="46.6175030" lon="6.0721170">
        <ele>1056.2</ele>
        <time>2022-07-23T14:20:16Z</time>
      </trkpt>
      <trkpt lat="46.6174830" lon="6.0721180">
        <ele>1056.6</ele>
        <time>2022-07-23T14:20:17Z</time>
      </trkpt>
      <trkpt lat="46.6173750" lon="6.0720980">
        <ele>1057.4</ele>
        <time>2022-07-23T14:20:22Z</time>
      </trkpt>
      <trkpt lat="46.6173550" lon="6.0720970">
        <ele>1057.6</ele>
        <time>2022-07-23T14:20:23Z</time>
      </trkpt>
      <trkpt lat="46.6172990" lon="6.0720940">
        <ele>1058.2</ele>
        <time>2022-07-23T14:20:26Z</time>
      </trkpt>
      <trkpt lat="46.6172640" lon="6.0720910">
        <ele>1058.4</ele>
        <time>2022-07-23T14:20:28Z</time>
      </trkpt>
      <trkpt lat="46.6172470" lon="6.0720880">
        <ele>1058.6</ele>
        <time>2022-07-23T14:20:29Z</time>
      </trkpt>
      <trkpt lat="46.6171780" lon="6.0720950">
        <ele>1059.6</ele>
        <time>2022-07-23T14:20:33Z</time>
      </trkpt>
      <trkpt lat="46.6171140" lon="6.0720990">
        <ele>1060.2</ele>
        <time>2022-07-23T14:20:36Z</time>
      </trkpt>
      <trkpt lat="46.6170690" lon="6.0721040">
        <ele>1060.6</ele>
        <time>2022-07-23T14:20:38Z</time>
      </trkpt>
      <trkpt lat="46.6169480" lon="6.0721180">
        <ele>1061.4</ele>
        <time>2022-07-23T14:20:43Z</time>
      </trkpt>
      <trkpt lat="46.6168700" lon="6.0721340">
        <ele>1061.6</ele>
        <time>2022-07-23T14:20:46Z</time>
      </trkpt>
      <trkpt lat="46.6167650" lon="6.0721890">
        <ele>1062.0</ele>
        <time>2022-07-23T14:20:50Z</time>
      </trkpt>
      <trkpt lat="46.6165810" lon="6.0723140">
        <ele>1062.2</ele>
        <time>2022-07-23T14:20:56Z</time>
      </trkpt>
      <trkpt lat="46.6164350" lon="6.0724480">
        <ele>1062.2</ele>
        <time>2022-07-23T14:21:02Z</time>
      </trkpt>
      <trkpt lat="46.6164130" lon="6.0724800">
        <ele>1062.2</ele>
        <time>2022-07-23T14:21:04Z</time>
      </trkpt>
      <trkpt lat="46.6163990" lon="6.0724920">
        <ele>1062.2</ele>
        <time>2022-07-23T14:21:06Z</time>
      </trkpt>
      <trkpt lat="46.6163450" lon="6.0725470">
        <ele>1062.0</ele>
        <time>2022-07-23T14:21:15Z</time>
      </trkpt>
      <trkpt lat="46.6162100" lon="6.0726750">
        <ele>1062.2</ele>
        <time>2022-07-23T14:21:22Z</time>
      </trkpt>
      <trkpt lat="46.6161210" lon="6.0727350">
        <ele>1062.4</ele>
        <time>2022-07-23T14:21:25Z</time>
      </trkpt>
      <trkpt lat="46.6160200" lon="6.0728050">
        <ele>1062.4</ele>
        <time>2022-07-23T14:21:28Z</time>
      </trkpt>
      <trkpt lat="46.6157680" lon="6.0729640">
        <ele>1062.6</ele>
        <time>2022-07-23T14:21:34Z</time>
      </trkpt>
      <trkpt lat="46.6157300" lon="6.0730050">
        <ele>1062.6</ele>
        <time>2022-07-23T14:21:35Z</time>
      </trkpt>
      <trkpt lat="46.6155210" lon="6.0733100">
        <ele>1062.2</ele>
        <time>2022-07-23T14:21:41Z</time>
      </trkpt>
      <trkpt lat="46.6154890" lon="6.0733690">
        <ele>1062.2</ele>
        <time>2022-07-23T14:21:42Z</time>
      </trkpt>
      <trkpt lat="46.6153300" lon="6.0736180">
        <ele>1061.6</ele>
        <time>2022-07-23T14:21:46Z</time>
      </trkpt>
      <trkpt lat="46.6152840" lon="6.0736870">
        <ele>1061.2</ele>
        <time>2022-07-23T14:21:47Z</time>
      </trkpt>
      <trkpt lat="46.6150730" lon="6.0739750">
        <ele>1060.6</ele>
        <time>2022-07-23T14:21:51Z</time>
      </trkpt>
      <trkpt lat="46.6148920" lon="6.0741990">
        <ele>1060.0</ele>
        <time>2022-07-23T14:21:54Z</time>
      </trkpt>
      <trkpt lat="46.6147790" lon="6.0743390">
        <ele>1059.4</ele>
        <time>2022-07-23T14:21:56Z</time>
      </trkpt>
      <trkpt lat="46.6147260" lon="6.0744200">
        <ele>1058.8</ele>
        <time>2022-07-23T14:21:57Z</time>
      </trkpt>
      <trkpt lat="46.6145780" lon="6.0746890">
        <ele>1057.6</ele>
        <time>2022-07-23T14:22:00Z</time>
      </trkpt>
      <trkpt lat="46.6145320" lon="6.0747810">
        <ele>1057.4</ele>
        <time>2022-07-23T14:22:01Z</time>
      </trkpt>
      <trkpt lat="46.6144470" lon="6.0749640">
        <ele>1056.6</ele>
        <time>2022-07-23T14:22:03Z</time>
      </trkpt>
      <trkpt lat="46.6143720" lon="6.0751530">
        <ele>1056.0</ele>
        <time>2022-07-23T14:22:05Z</time>
      </trkpt>
      <trkpt lat="46.6143350" lon="6.0752470">
        <ele>1055.6</ele>
        <time>2022-07-23T14:22:06Z</time>
      </trkpt>
      <trkpt lat="46.6142630" lon="6.0754260">
        <ele>1054.4</ele>
        <time>2022-07-23T14:22:08Z</time>
      </trkpt>
      <trkpt lat="46.6142060" lon="6.0755990">
        <ele>1053.8</ele>
        <time>2022-07-23T14:22:10Z</time>
      </trkpt>
      <trkpt lat="46.6141860" lon="6.0756840">
        <ele>1053.8</ele>
        <time>2022-07-23T14:22:11Z</time>
      </trkpt>
      <trkpt lat="46.6141470" lon="6.0758420">
        <ele>1053.4</ele>
        <time>2022-07-23T14:22:13Z</time>
      </trkpt>
      <trkpt lat="46.6140450" lon="6.0761240">
        <ele>1052.8</ele>
        <time>2022-07-23T14:22:17Z</time>
      </trkpt>
      <trkpt lat="46.6138840" lon="6.0764680">
        <ele>1052.8</ele>
        <time>2022-07-23T14:22:23Z</time>
      </trkpt>
      <trkpt lat="46.6138400" lon="6.0765770">
        <ele>1052.8</ele>
        <time>2022-07-23T14:22:25Z</time>
      </trkpt>
      <trkpt lat="46.6137530" lon="6.0767220">
        <ele>1052.8</ele>
        <time>2022-07-23T14:22:28Z</time>
      </trkpt>
      <trkpt lat="46.6137190" lon="6.0767650">
        <ele>1052.8</ele>
        <time>2022-07-23T14:22:29Z</time>
      </trkpt>
      <trkpt lat="46.6135420" lon="6.0770330">
        <ele>1052.6</ele>
        <time>2022-07-23T14:22:35Z</time>
      </trkpt>
      <trkpt lat="46.6133990" lon="6.0772690">
        <ele>1052.6</ele>
        <time>2022-07-23T14:22:41Z</time>
      </trkpt>
      <trkpt lat="46.6133950" lon="6.0772780">
        <ele>1052.6</ele>
        <time>2022-07-23T14:22:43Z</time>
      </trkpt>
      <trkpt lat="46.6133220" lon="6.0773530">
        <ele>1053.6</ele>
        <time>2022-07-23T14:23:58Z</time>
      </trkpt>
      <trkpt lat="46.6133080" lon="6.0773770">
        <ele>1053.6</ele>
        <time>2022-07-23T14:23:59Z</time>
      </trkpt>
      <trkpt lat="46.6132030" lon="6.0775730">
        <ele>1053.6</ele>
        <time>2022-07-23T14:24:05Z</time>
      </trkpt>
      <trkpt lat="46.6131860" lon="6.0776090">
        <ele>1053.6</ele>
        <time>2022-07-23T14:24:06Z</time>
      </trkpt>
      <trkpt lat="46.6130130" lon="6.0779440">
        <ele>1053.8</ele>
        <time>2022-07-23T14:24:15Z</time>
      </trkpt>
      <trkpt lat="46.6128910" lon="6.0782110">
        <ele>1054.0</ele>
        <time>2022-07-23T14:24:22Z</time>
      </trkpt>
      <trkpt lat="46.6128230" lon="6.0785530">
        <ele>1054.0</ele>
        <time>2022-07-23T14:24:29Z</time>
      </trkpt>
      <trkpt lat="46.6127820" lon="6.0788970">
        <ele>1054.0</ele>
        <time>2022-07-23T14:24:35Z</time>
      </trkpt>
      <trkpt lat="46.6127610" lon="6.0790680">
        <ele>1054.0</ele>
        <time>2022-07-23T14:24:38Z</time>
      </trkpt>
      <trkpt lat="46.6127110" lon="6.0792520">
        <ele>1054.0</ele>
        <time>2022-07-23T14:24:41Z</time>
      </trkpt>
      <trkpt lat="46.6126470" lon="6.0794260">
        <ele>1053.8</ele>
        <time>2022-07-23T14:24:44Z</time>
      </trkpt>
      <trkpt lat="46.6125470" lon="6.0796300">
        <ele>1053.8</ele>
        <time>2022-07-23T14:24:48Z</time>
      </trkpt>
      <trkpt lat="46.6124540" lon="6.0797740">
        <ele>1053.8</ele>
        <time>2022-07-23T14:24:51Z</time>
      </trkpt>
      <trkpt lat="46.6123740" lon="6.0799260">
        <ele>1053.6</ele>
        <time>2022-07-23T14:24:54Z</time>
      </trkpt>
      <trkpt lat="46.6123510" lon="6.0799800">
        <ele>1053.6</ele>
        <time>2022-07-23T14:24:55Z</time>
      </trkpt>
      <trkpt lat="46.6122540" lon="6.0801920">
        <ele>1053.6</ele>
        <time>2022-07-23T14:24:59Z</time>
      </trkpt>
      <trkpt lat="46.6122140" lon="6.0803110">
        <ele>1053.6</ele>
        <time>2022-07-23T14:25:01Z</time>
      </trkpt>
      <trkpt lat="46.6121720" lon="6.0805050">
        <ele>1053.4</ele>
        <time>2022-07-23T14:25:04Z</time>
      </trkpt>
      <trkpt lat="46.6121540" lon="6.0806550">
        <ele>1053.2</ele>
        <time>2022-07-23T14:25:06Z</time>
      </trkpt>
      <trkpt lat="46.6121400" lon="6.0809000">
        <ele>1053.0</ele>
        <time>2022-07-23T14:25:09Z</time>
      </trkpt>
      <trkpt lat="46.6121450" lon="6.0810610">
        <ele>1052.8</ele>
        <time>2022-07-23T14:25:11Z</time>
      </trkpt>
      <trkpt lat="46.6121550" lon="6.0812320">
        <ele>1052.4</ele>
        <time>2022-07-23T14:25:13Z</time>
      </trkpt>
      <trkpt lat="46.6121680" lon="6.0815570">
        <ele>1051.8</ele>
        <time>2022-07-23T14:25:17Z</time>
      </trkpt>
      <trkpt lat="46.6121350" lon="6.0817990">
        <ele>1051.2</ele>
        <time>2022-07-23T14:25:21Z</time>
      </trkpt>
      <trkpt lat="46.6121180" lon="6.0818420">
        <ele>1051.0</ele>
        <time>2022-07-23T14:25:22Z</time>
      </trkpt>
      <trkpt lat="46.6119950" lon="6.0821090">
        <ele>1050.8</ele>
        <time>2022-07-23T14:25:29Z</time>
      </trkpt>
      <trkpt lat="46.6118940" lon="6.0824670">
        <ele>1052.2</ele>
        <time>2022-07-23T14:25:37Z</time>
      </trkpt>
      <trkpt lat="46.6117550" lon="6.0827410">
        <ele>1052.6</ele>
        <time>2022-07-23T14:25:44Z</time>
      </trkpt>
      <trkpt lat="46.6116050" lon="6.0829650">
        <ele>1053.2</ele>
        <time>2022-07-23T14:25:50Z</time>
      </trkpt>
      <trkpt lat="46.6115780" lon="6.0830040">
        <ele>1053.2</ele>
        <time>2022-07-23T14:25:51Z</time>
      </trkpt>
      <trkpt lat="46.6113340" lon="6.0833820">
        <ele>1053.4</ele>
        <time>2022-07-23T14:26:00Z</time>
      </trkpt>
      <trkpt lat="46.6111020" lon="6.0837210">
        <ele>1053.2</ele>
        <time>2022-07-23T14:26:07Z</time>
      </trkpt>
      <trkpt lat="46.6108450" lon="6.0842060">
        <ele>1052.2</ele>
        <time>2022-07-23T14:26:15Z</time>
      </trkpt>
      <trkpt lat="46.6108100" lon="6.0842690">
        <ele>1051.8</ele>
        <time>2022-07-23T14:26:16Z</time>
      </trkpt>
      <trkpt lat="46.6106100" lon="6.0845380">
        <ele>1051.4</ele>
        <time>2022-07-23T14:26:21Z</time>
      </trkpt>
      <trkpt lat="46.6105320" lon="6.0846390">
        <ele>1051.2</ele>
        <time>2022-07-23T14:26:23Z</time>
      </trkpt>
      <trkpt lat="46.6105040" lon="6.0847010">
        <ele>1051.0</ele>
        <time>2022-07-23T14:26:24Z</time>
      </trkpt>
      <trkpt lat="46.6104800" lon="6.0847720">
        <ele>1050.8</ele>
        <time>2022-07-23T14:26:25Z</time>
      </trkpt>
      <trkpt lat="46.6103260" lon="6.0851580">
        <ele>1050.6</ele>
        <time>2022-07-23T14:26:30Z</time>
      </trkpt>
      <trkpt lat="46.6102340" lon="6.0852900">
        <ele>1050.2</ele>
        <time>2022-07-23T14:26:32Z</time>
      </trkpt>
      <trkpt lat="46.6101380" lon="6.0854190">
        <ele>1049.8</ele>
        <time>2022-07-23T14:26:34Z</time>
      </trkpt>
      <trkpt lat="46.6100420" lon="6.0855470">
        <ele>1049.4</ele>
        <time>2022-07-23T14:26:36Z</time>
      </trkpt>
      <trkpt lat="46.6099910" lon="6.0855980">
        <ele>1049.0</ele>
        <time>2022-07-23T14:26:37Z</time>
      </trkpt>
      <trkpt lat="46.6099380" lon="6.0856400">
        <ele>1048.8</ele>
        <time>2022-07-23T14:26:38Z</time>
      </trkpt>
      <trkpt lat="46.6097940" lon="6.0857220">
        <ele>1047.8</ele>
        <time>2022-07-23T14:26:41Z</time>
      </trkpt>
      <trkpt lat="46.6097490" lon="6.0857360">
        <ele>1047.4</ele>
        <time>2022-07-23T14:26:42Z</time>
      </trkpt>
      <trkpt lat="46.6095820" lon="6.0857680">
        <ele>1046.4</ele>
        <time>2022-07-23T14:26:46Z</time>
      </trkpt>
      <trkpt lat="46.6095040" lon="6.0857950">
        <ele>1046.4</ele>
        <time>2022-07-23T14:26:48Z</time>
      </trkpt>
      <trkpt lat="46.6092920" lon="6.0859410">
        <ele>1046.6</ele>
        <time>2022-07-23T14:26:54Z</time>
      </trkpt>
      <trkpt lat="46.6090030" lon="6.0861360">
        <ele>1047.6</ele>
        <time>2022-07-23T14:27:03Z</time>
      </trkpt>
      <trkpt lat="46.6087130" lon="6.0863150">
        <ele>1047.8</ele>
        <time>2022-07-23T14:27:12Z</time>
      </trkpt>
      <trkpt lat="46.6083580" lon="6.0865860">
        <ele>1048.2</ele>
        <time>2022-07-23T14:27:23Z</time>
      </trkpt>
      <trkpt lat="46.6081850" lon="6.0867490">
        <ele>1048.4</ele>
        <time>2022-07-23T14:27:30Z</time>
      </trkpt>
      <trkpt lat="46.6081390" lon="6.0867900">
        <ele>1048.8</ele>
        <time>2022-07-23T14:27:32Z</time>
      </trkpt>
      <trkpt lat="46.6080330" lon="6.0868660">
        <ele>1049.2</ele>
        <time>2022-07-23T14:27:36Z</time>
      </trkpt>
      <trkpt lat="46.6078810" lon="6.0869640">
        <ele>1049.8</ele>
        <time>2022-07-23T14:27:40Z</time>
      </trkpt>
      <trkpt lat="46.6078390" lon="6.0870070">
        <ele>1049.8</ele>
        <time>2022-07-23T14:27:41Z</time>
      </trkpt>
      <trkpt lat="46.6076280" lon="6.0873070">
        <ele>1049.8</ele>
        <time>2022-07-23T14:27:46Z</time>
      </trkpt>
      <trkpt lat="46.6073860" lon="6.0878070">
        <ele>1048.6</ele>
        <time>2022-07-23T14:27:53Z</time>
      </trkpt>
      <trkpt lat="46.6073620" lon="6.0878740">
        <ele>1048.2</ele>
        <time>2022-07-23T14:27:54Z</time>
      </trkpt>
      <trkpt lat="46.6072660" lon="6.0882210">
        <ele>1047.6</ele>
        <time>2022-07-23T14:27:59Z</time>
      </trkpt>
      <trkpt lat="46.6072520" lon="6.0882890">
        <ele>1047.6</ele>
        <time>2022-07-23T14:28:00Z</time>
      </trkpt>
      <trkpt lat="46.6071450" lon="6.0886800">
        <ele>1047.4</ele>
        <time>2022-07-23T14:28:06Z</time>
      </trkpt>
      <trkpt lat="46.6069760" lon="6.0890850">
        <ele>1047.4</ele>
        <time>2022-07-23T14:28:13Z</time>
      </trkpt>
      <trkpt lat="46.6067040" lon="6.0896150">
        <ele>1047.4</ele>
        <time>2022-07-23T14:28:23Z</time>
      </trkpt>
      <trkpt lat="46.6064250" lon="6.0901640">
        <ele>1047.6</ele>
        <time>2022-07-23T14:28:33Z</time>
      </trkpt>
      <trkpt lat="46.6061490" lon="6.0905420">
        <ele>1047.4</ele>
        <time>2022-07-23T14:28:41Z</time>
      </trkpt>
      <trkpt lat="46.6058770" lon="6.0907770">
        <ele>1047.4</ele>
        <time>2022-07-23T14:28:48Z</time>
      </trkpt>
      <trkpt lat="46.6058060" lon="6.0908460">
        <ele>1047.4</ele>
        <time>2022-07-23T14:28:50Z</time>
      </trkpt>
      <trkpt lat="46.6054160" lon="6.0912470">
        <ele>1048.0</ele>
        <time>2022-07-23T14:29:01Z</time>
      </trkpt>
      <trkpt lat="46.6052950" lon="6.0913230">
        <ele>1048.0</ele>
        <time>2022-07-23T14:29:04Z</time>
      </trkpt>
      <trkpt lat="46.6051210" lon="6.0913780">
        <ele>1048.2</ele>
        <time>2022-07-23T14:29:08Z</time>
      </trkpt>
      <trkpt lat="46.6047050" lon="6.0914610">
        <ele>1048.8</ele>
        <time>2022-07-23T14:29:18Z</time>
      </trkpt>
      <trkpt lat="46.6045740" lon="6.0914880">
        <ele>1049.2</ele>
        <time>2022-07-23T14:29:21Z</time>
      </trkpt>
      <trkpt lat="46.6042170" lon="6.0915380">
        <ele>1049.6</ele>
        <time>2022-07-23T14:29:29Z</time>
      </trkpt>
      <trkpt lat="46.6036660" lon="6.0915760">
        <ele>1050.0</ele>
        <time>2022-07-23T14:29:41Z</time>
      </trkpt>
      <trkpt lat="46.6032340" lon="6.0915880">
        <ele>1050.0</ele>
        <time>2022-07-23T14:29:51Z</time>
      </trkpt>
      <trkpt lat="46.6030350" lon="6.0916580">
        <ele>1050.4</ele>
        <time>2022-07-23T14:29:56Z</time>
      </trkpt>
      <trkpt lat="46.6029550" lon="6.0917080">
        <ele>1050.8</ele>
        <time>2022-07-23T14:29:58Z</time>
      </trkpt>
      <trkpt lat="46.6026260" lon="6.0919450">
        <ele>1051.0</ele>
        <time>2022-07-23T14:30:07Z</time>
      </trkpt>
      <trkpt lat="46.6022630" lon="6.0922050">
        <ele>1050.8</ele>
        <time>2022-07-23T14:30:16Z</time>
      </trkpt>
      <trkpt lat="46.6019750" lon="6.0924820">
        <ele>1050.4</ele>
        <time>2022-07-23T14:30:22Z</time>
      </trkpt>
      <trkpt lat="46.6015800" lon="6.0929010">
        <ele>1049.6</ele>
        <time>2022-07-23T14:30:29Z</time>
      </trkpt>
      <trkpt lat="46.6013210" lon="6.0931740">
        <ele>1048.6</ele>
        <time>2022-07-23T14:30:34Z</time>
      </trkpt>
      <trkpt lat="46.6012410" lon="6.0932550">
        <ele>1048.4</ele>
        <time>2022-07-23T14:30:36Z</time>
      </trkpt>
      <trkpt lat="46.6010210" lon="6.0934790">
        <ele>1048.0</ele>
        <time>2022-07-23T14:30:43Z</time>
      </trkpt>
      <trkpt lat="46.6008370" lon="6.0936760">
        <ele>1048.0</ele>
        <time>2022-07-23T14:30:49Z</time>
      </trkpt>
      <trkpt lat="46.6005160" lon="6.0940170">
        <ele>1049.0</ele>
        <time>2022-07-23T14:30:59Z</time>
      </trkpt>
      <trkpt lat="46.6002420" lon="6.0942730">
        <ele>1049.6</ele>
        <time>2022-07-23T14:31:08Z</time>
      </trkpt>
      <trkpt lat="46.6001840" lon="6.0943180">
        <ele>1049.8</ele>
        <time>2022-07-23T14:31:10Z</time>
      </trkpt>
      <trkpt lat="46.6000310" lon="6.0944150">
        <ele>1051.0</ele>
        <time>2022-07-23T14:31:15Z</time>
      </trkpt>
      <trkpt lat="46.5999750" lon="6.0944560">
        <ele>1051.2</ele>
        <time>2022-07-23T14:31:17Z</time>
      </trkpt>
      <trkpt lat="46.5998400" lon="6.0945600">
        <ele>1052.0</ele>
        <time>2022-07-23T14:31:22Z</time>
      </trkpt>
      <trkpt lat="46.5997030" lon="6.0946840">
        <ele>1053.0</ele>
        <time>2022-07-23T14:31:27Z</time>
      </trkpt>
      <trkpt lat="46.5996750" lon="6.0947130">
        <ele>1053.2</ele>
        <time>2022-07-23T14:31:28Z</time>
      </trkpt>
      <trkpt lat="46.5995270" lon="6.0949260">
        <ele>1054.2</ele>
        <time>2022-07-23T14:31:34Z</time>
      </trkpt>
      <trkpt lat="46.5994630" lon="6.0950560">
        <ele>1054.4</ele>
        <time>2022-07-23T14:31:37Z</time>
      </trkpt>
      <trkpt lat="46.5993740" lon="6.0952930">
        <ele>1054.6</ele>
        <time>2022-07-23T14:31:42Z</time>
      </trkpt>
      <trkpt lat="46.5991670" lon="6.0958770">
        <ele>1055.4</ele>
        <time>2022-07-23T14:31:54Z</time>
      </trkpt>
      <trkpt lat="46.5990290" lon="6.0962500">
        <ele>1055.4</ele>
        <time>2022-07-23T14:32:02Z</time>
      </trkpt>
      <trkpt lat="46.5990030" lon="6.0963250">
        <ele>1055.6</ele>
        <time>2022-07-23T14:32:04Z</time>
      </trkpt>
      <trkpt lat="46.5989910" lon="6.0963980">
        <ele>1055.6</ele>
        <time>2022-07-23T14:32:07Z</time>
      </trkpt>
      <trkpt lat="46.5989900" lon="6.0964040">
        <ele>1055.8</ele>
        <time>2022-07-23T14:32:09Z</time>
      </trkpt>
      <trkpt lat="46.5989590" lon="6.0964490">
        <ele>1055.8</ele>
        <time>2022-07-23T14:32:33Z</time>
      </trkpt>
      <trkpt lat="46.5989420" lon="6.0964740">
        <ele>1055.8</ele>
        <time>2022-07-23T14:32:34Z</time>
      </trkpt>
      <trkpt lat="46.5988220" lon="6.0967590">
        <ele>1055.8</ele>
        <time>2022-07-23T14:32:42Z</time>
      </trkpt>
      <trkpt lat="46.5986180" lon="6.0972770">
        <ele>1056.4</ele>
        <time>2022-07-23T14:32:53Z</time>
      </trkpt>
      <trkpt lat="46.5984310" lon="6.0977540">
        <ele>1056.4</ele>
        <time>2022-07-23T14:33:02Z</time>
      </trkpt>
      <trkpt lat="46.5982150" lon="6.0982900">
        <ele>1056.6</ele>
        <time>2022-07-23T14:33:12Z</time>
      </trkpt>
      <trkpt lat="46.5981120" lon="6.0985530">
        <ele>1056.8</ele>
        <time>2022-07-23T14:33:17Z</time>
      </trkpt>
      <trkpt lat="46.5980050" lon="6.0988060">
        <ele>1057.0</ele>
        <time>2022-07-23T14:33:22Z</time>
      </trkpt>
      <trkpt lat="46.5978090" lon="6.0993240">
        <ele>1057.6</ele>
        <time>2022-07-23T14:33:32Z</time>
      </trkpt>
      <trkpt lat="46.5977610" lon="6.0994500">
        <ele>1057.8</ele>
        <time>2022-07-23T14:33:35Z</time>
      </trkpt>
      <trkpt lat="46.5976360" lon="6.0997800">
        <ele>1059.0</ele>
        <time>2022-07-23T14:33:43Z</time>
      </trkpt>
      <trkpt lat="46.5975530" lon="6.1000700">
        <ele>1060.2</ele>
        <time>2022-07-23T14:33:50Z</time>
      </trkpt>
      <trkpt lat="46.5975280" lon="6.1001870">
        <ele>1060.8</ele>
        <time>2022-07-23T14:33:53Z</time>
      </trkpt>
      <trkpt lat="46.5975130" lon="6.1002660">
        <ele>1061.4</ele>
        <time>2022-07-23T14:33:55Z</time>
      </trkpt>
      <trkpt lat="46.5974740" lon="6.1005220">
        <ele>1062.6</ele>
        <time>2022-07-23T14:34:01Z</time>
      </trkpt>
      <trkpt lat="46.5974570" lon="6.1006080">
        <ele>1062.8</ele>
        <time>2022-07-23T14:34:03Z</time>
      </trkpt>
      <trkpt lat="46.5973610" lon="6.1010800">
        <ele>1063.6</ele>
        <time>2022-07-23T14:34:14Z</time>
      </trkpt>
      <trkpt lat="46.5973380" lon="6.1012320">
        <ele>1063.8</ele>
        <time>2022-07-23T14:34:17Z</time>
      </trkpt>
      <trkpt lat="46.5972880" lon="6.1015770">
        <ele>1064.4</ele>
        <time>2022-07-23T14:34:24Z</time>
      </trkpt>
      <trkpt lat="46.5972370" lon="6.1019220">
        <ele>1065.0</ele>
        <time>2022-07-23T14:34:31Z</time>
      </trkpt>
      <trkpt lat="46.5972210" lon="6.1020190">
        <ele>1065.2</ele>
        <time>2022-07-23T14:34:33Z</time>
      </trkpt>
      <trkpt lat="46.5971700" lon="6.1023310">
        <ele>1066.0</ele>
        <time>2022-07-23T14:34:40Z</time>
      </trkpt>
      <trkpt lat="46.5971400" lon="6.1024970">
        <ele>1066.6</ele>
        <time>2022-07-23T14:34:44Z</time>
      </trkpt>
      <trkpt lat="46.5971180" lon="6.1026250">
        <ele>1067.0</ele>
        <time>2022-07-23T14:34:47Z</time>
      </trkpt>
      <trkpt lat="46.5970650" lon="6.1028810">
        <ele>1068.2</ele>
        <time>2022-07-23T14:34:53Z</time>
      </trkpt>
      <trkpt lat="46.5970430" lon="6.1030120">
        <ele>1068.6</ele>
        <time>2022-07-23T14:34:56Z</time>
      </trkpt>
      <trkpt lat="46.5970050" lon="6.1032280">
        <ele>1069.2</ele>
        <time>2022-07-23T14:35:01Z</time>
      </trkpt>
      <trkpt lat="46.5969650" lon="6.1034920">
        <ele>1070.2</ele>
        <time>2022-07-23T14:35:07Z</time>
      </trkpt>
      <trkpt lat="46.5969580" lon="6.1035380">
        <ele>1070.4</ele>
        <time>2022-07-23T14:35:08Z</time>
      </trkpt>
      <trkpt lat="46.5968990" lon="6.1040130">
        <ele>1071.4</ele>
        <time>2022-07-23T14:35:18Z</time>
      </trkpt>
      <trkpt lat="46.5968930" lon="6.1040630">
        <ele>1071.4</ele>
        <time>2022-07-23T14:35:19Z</time>
      </trkpt>
      <trkpt lat="46.5968370" lon="6.1044430">
        <ele>1072.0</ele>
        <time>2022-07-23T14:35:26Z</time>
      </trkpt>
      <trkpt lat="46.5967370" lon="6.1049180">
        <ele>1072.2</ele>
        <time>2022-07-23T14:35:35Z</time>
      </trkpt>
      <trkpt lat="46.5966250" lon="6.1053380">
        <ele>1072.0</ele>
        <time>2022-07-23T14:35:41Z</time>
      </trkpt>
      <trkpt lat="46.5964550" lon="6.1059960">
        <ele>1071.4</ele>
        <time>2022-07-23T14:35:48Z</time>
      </trkpt>
      <trkpt lat="46.5963980" lon="6.1063020">
        <ele>1070.6</ele>
        <time>2022-07-23T14:35:51Z</time>
      </trkpt>
      <trkpt lat="46.5963870" lon="6.1065010">
        <ele>1070.0</ele>
        <time>2022-07-23T14:35:53Z</time>
      </trkpt>
      <trkpt lat="46.5963900" lon="6.1066860">
        <ele>1069.4</ele>
        <time>2022-07-23T14:35:55Z</time>
      </trkpt>
      <trkpt lat="46.5963960" lon="6.1069320">
        <ele>1069.0</ele>
        <time>2022-07-23T14:35:58Z</time>
      </trkpt>
      <trkpt lat="46.5964370" lon="6.1075670">
        <ele>1068.8</ele>
        <time>2022-07-23T14:36:06Z</time>
      </trkpt>
      <trkpt lat="46.5964600" lon="6.1081750">
        <ele>1068.6</ele>
        <time>2022-07-23T14:36:13Z</time>
      </trkpt>
      <trkpt lat="46.5964540" lon="6.1084440">
        <ele>1068.4</ele>
        <time>2022-07-23T14:36:16Z</time>
      </trkpt>
      <trkpt lat="46.5964680" lon="6.1089400">
        <ele>1068.2</ele>
        <time>2022-07-23T14:36:21Z</time>
      </trkpt>
      <trkpt lat="46.5964920" lon="6.1093950">
        <ele>1067.4</ele>
        <time>2022-07-23T14:36:25Z</time>
      </trkpt>
      <trkpt lat="46.5965050" lon="6.1098510">
        <ele>1066.4</ele>
        <time>2022-07-23T14:36:29Z</time>
      </trkpt>
      <trkpt lat="46.5964950" lon="6.1099600">
        <ele>1066.0</ele>
        <time>2022-07-23T14:36:30Z</time>
      </trkpt>
      <trkpt lat="46.5964500" lon="6.1101570">
        <ele>1065.4</ele>
        <time>2022-07-23T14:36:32Z</time>
      </trkpt>
      <trkpt lat="46.5963800" lon="6.1103230">
        <ele>1064.4</ele>
        <time>2022-07-23T14:36:34Z</time>
      </trkpt>
      <trkpt lat="46.5963480" lon="6.1103980">
        <ele>1064.2</ele>
        <time>2022-07-23T14:36:35Z</time>
      </trkpt>
      <trkpt lat="46.5963250" lon="6.1104770">
        <ele>1064.2</ele>
        <time>2022-07-23T14:36:36Z</time>
      </trkpt>
      <trkpt lat="46.5963520" lon="6.1106830">
        <ele>1064.2</ele>
        <time>2022-07-23T14:36:39Z</time>
      </trkpt>
      <trkpt lat="46.5964410" lon="6.1108510">
        <ele>1064.2</ele>
        <time>2022-07-23T14:36:42Z</time>
      </trkpt>
      <trkpt lat="46.5965720" lon="6.1110720">
        <ele>1064.4</ele>
        <time>2022-07-23T14:36:46Z</time>
      </trkpt>
      <trkpt lat="46.5968650" lon="6.1116050">
        <ele>1065.2</ele>
        <time>2022-07-23T14:36:56Z</time>
      </trkpt>
      <trkpt lat="46.5969860" lon="6.1118960">
        <ele>1065.6</ele>
        <time>2022-07-23T14:37:02Z</time>
      </trkpt>
      <trkpt lat="46.5970860" lon="6.1121950">
        <ele>1066.6</ele>
        <time>2022-07-23T14:37:10Z</time>
      </trkpt>
      <trkpt lat="46.5971680" lon="6.1124660">
        <ele>1067.8</ele>
        <time>2022-07-23T14:37:18Z</time>
      </trkpt>
      <trkpt lat="46.5971770" lon="6.1124960">
        <ele>1068.0</ele>
        <time>2022-07-23T14:37:19Z</time>
      </trkpt>
      <trkpt lat="46.5972180" lon="6.1126490">
        <ele>1068.8</ele>
        <time>2022-07-23T14:37:24Z</time>
      </trkpt>
      <trkpt lat="46.5972520" lon="6.1127680">
        <ele>1069.4</ele>
        <time>2022-07-23T14:37:28Z</time>
      </trkpt>
      <trkpt lat="46.5972750" lon="6.1128940">
        <ele>1070.0</ele>
        <time>2022-07-23T14:37:32Z</time>
      </trkpt>
      <trkpt lat="46.5972920" lon="6.1129500">
        <ele>1070.4</ele>
        <time>2022-07-23T14:37:34Z</time>
      </trkpt>
      <trkpt lat="46.5973150" lon="6.1130970">
        <ele>1071.4</ele>
        <time>2022-07-23T14:37:39Z</time>
      </trkpt>
      <trkpt lat="46.5973390" lon="6.1131890">
        <ele>1072.0</ele>
        <time>2022-07-23T14:37:42Z</time>
      </trkpt>
      <trkpt lat="46.5973640" lon="6.1132480">
        <ele>1072.4</ele>
        <time>2022-07-23T14:37:44Z</time>
      </trkpt>
      <trkpt lat="46.5974420" lon="6.1133840">
        <ele>1073.6</ele>
        <time>2022-07-23T14:37:49Z</time>
      </trkpt>
      <trkpt lat="46.5975730" lon="6.1135670">
        <ele>1074.4</ele>
        <time>2022-07-23T14:37:56Z</time>
      </trkpt>
      <trkpt lat="46.5976270" lon="6.1136180">
        <ele>1074.8</ele>
        <time>2022-07-23T14:37:58Z</time>
      </trkpt>
      <trkpt lat="46.5977900" lon="6.1137910">
        <ele>1075.4</ele>
        <time>2022-07-23T14:38:05Z</time>
      </trkpt>
      <trkpt lat="46.5978490" lon="6.1138710">
        <ele>1075.8</ele>
        <time>2022-07-23T14:38:08Z</time>
      </trkpt>
      <trkpt lat="46.5979280" lon="6.1140270">
        <ele>1076.6</ele>
        <time>2022-07-23T14:38:13Z</time>
      </trkpt>
      <trkpt lat="46.5979450" lon="6.1140610">
        <ele>1076.8</ele>
        <time>2022-07-23T14:38:14Z</time>
      </trkpt>
      <trkpt lat="46.5980140" lon="6.1142320">
        <ele>1077.4</ele>
        <time>2022-07-23T14:38:19Z</time>
      </trkpt>
      <trkpt lat="46.5980400" lon="6.1142940">
        <ele>1077.6</ele>
        <time>2022-07-23T14:38:23Z</time>
      </trkpt>
      <trkpt lat="46.5980440" lon="6.1142950">
        <ele>1077.6</ele>
        <time>2022-07-23T14:38:24Z</time>
      </trkpt>
      <trkpt lat="46.5980200" lon="6.1142040">
        <ele>1077.0</ele>
        <time>2022-07-23T14:38:47Z</time>
      </trkpt>
      <trkpt lat="46.5979890" lon="6.1141480">
        <ele>1077.0</ele>
        <time>2022-07-23T14:38:49Z</time>
      </trkpt>
      <trkpt lat="46.5978220" lon="6.1138550">
        <ele>1077.2</ele>
        <time>2022-07-23T14:38:58Z</time>
      </trkpt>
      <trkpt lat="46.5977300" lon="6.1136960">
        <ele>1077.2</ele>
        <time>2022-07-23T14:39:05Z</time>
      </trkpt>
      <trkpt lat="46.5977300" lon="6.1136960">
        <ele>1077.2</ele>
        <time>2022-07-23T14:39:06Z</time>
      </trkpt>
      <trkpt lat="46.5977700" lon="6.1138110">
        <ele>1076.4</ele>
        <time>2022-07-23T14:42:17Z</time>
      </trkpt>
      <trkpt lat="46.5978040" lon="6.1138460">
        <ele>1076.4</ele>
        <time>2022-07-23T14:42:19Z</time>
      </trkpt>
      <trkpt lat="46.5978590" lon="6.1139440">
        <ele>1076.6</ele>
        <time>2022-07-23T14:42:23Z</time>
      </trkpt>
      <trkpt lat="46.5978860" lon="6.1140120">
        <ele>1076.8</ele>
        <time>2022-07-23T14:42:25Z</time>
      </trkpt>
      <trkpt lat="46.5979750" lon="6.1143240">
        <ele>1077.4</ele>
        <time>2022-07-23T14:42:33Z</time>
      </trkpt>
      <trkpt lat="46.5980760" lon="6.1145900">
        <ele>1077.6</ele>
        <time>2022-07-23T14:42:39Z</time>
      </trkpt>
      <trkpt lat="46.5982010" lon="6.1149420">
        <ele>1077.4</ele>
        <time>2022-07-23T14:42:47Z</time>
      </trkpt>
      <trkpt lat="46.5982770" lon="6.1151910">
        <ele>1077.2</ele>
        <time>2022-07-23T14:42:54Z</time>
      </trkpt>
      <trkpt lat="46.5983660" lon="6.1153980">
        <ele>1077.0</ele>
        <time>2022-07-23T14:42:59Z</time>
      </trkpt>
      <trkpt lat="46.5984530" lon="6.1155090">
        <ele>1076.8</ele>
        <time>2022-07-23T14:43:03Z</time>
      </trkpt>
      <trkpt lat="46.5984760" lon="6.1155140">
        <ele>1076.6</ele>
        <time>2022-07-23T14:43:04Z</time>
      </trkpt>
      <trkpt lat="46.5984990" lon="6.1155040">
        <ele>1076.4</ele>
        <time>2022-07-23T14:43:05Z</time>
      </trkpt>
      <trkpt lat="46.5985480" lon="6.1154610">
        <ele>1076.0</ele>
        <time>2022-07-23T14:43:07Z</time>
      </trkpt>
      <trkpt lat="46.5986180" lon="6.1153940">
        <ele>1075.4</ele>
        <time>2022-07-23T14:43:10Z</time>
      </trkpt>
      <trkpt lat="46.5986860" lon="6.1153130">
        <ele>1075.2</ele>
        <time>2022-07-23T14:43:14Z</time>
      </trkpt>
      <trkpt lat="46.5987670" lon="6.1152000">
        <ele>1075.2</ele>
        <time>2022-07-23T14:43:19Z</time>
      </trkpt>
      <trkpt lat="46.5989210" lon="6.1150430">
        <ele>1075.6</ele>
        <time>2022-07-23T14:43:26Z</time>
      </trkpt>
      <trkpt lat="46.5991150" lon="6.1149000">
        <ele>1076.4</ele>
        <time>2022-07-23T14:43:34Z</time>
      </trkpt>
      <trkpt lat="46.5992880" lon="6.1148230">
        <ele>1076.6</ele>
        <time>2022-07-23T14:43:39Z</time>
      </trkpt>
      <trkpt lat="46.5995630" lon="6.1146500">
        <ele>1076.6</ele>
        <time>2022-07-23T14:43:45Z</time>
      </trkpt>
      <trkpt lat="46.5998380" lon="6.1145230">
        <ele>1076.0</ele>
        <time>2022-07-23T14:43:50Z</time>
      </trkpt>
      <trkpt lat="46.5999030" lon="6.1145160">
        <ele>1075.8</ele>
        <time>2022-07-23T14:43:51Z</time>
      </trkpt>
      <trkpt lat="46.5999680" lon="6.1145210">
        <ele>1075.6</ele>
        <time>2022-07-23T14:43:52Z</time>
      </trkpt>
      <trkpt lat="46.6002410" lon="6.1145810">
        <ele>1075.0</ele>
        <time>2022-07-23T14:43:56Z</time>
      </trkpt>
      <trkpt lat="46.6004570" lon="6.1146340">
        <ele>1074.6</ele>
        <time>2022-07-23T14:43:59Z</time>
      </trkpt>
      <trkpt lat="46.6006600" lon="6.1146530">
        <ele>1073.2</ele>
        <time>2022-07-23T14:44:02Z</time>
      </trkpt>
      <trkpt lat="46.6007210" lon="6.1146520">
        <ele>1073.0</ele>
        <time>2022-07-23T14:44:03Z</time>
      </trkpt>
      <trkpt lat="46.6008770" lon="6.1146220">
        <ele>1072.2</ele>
        <time>2022-07-23T14:44:06Z</time>
      </trkpt>
      <trkpt lat="46.6009230" lon="6.1146030">
        <ele>1072.2</ele>
        <time>2022-07-23T14:44:07Z</time>
      </trkpt>
      <trkpt lat="46.6009640" lon="6.1145850">
        <ele>1072.0</ele>
        <time>2022-07-23T14:44:08Z</time>
      </trkpt>
      <trkpt lat="46.6012650" lon="6.1144480">
        <ele>1072.0</ele>
        <time>2022-07-23T14:44:16Z</time>
      </trkpt>
      <trkpt lat="46.6014820" lon="6.1143170">
        <ele>1073.0</ele>
        <time>2022-07-23T14:44:23Z</time>
      </trkpt>
      <trkpt lat="46.6015340" lon="6.1142880">
        <ele>1073.2</ele>
        <time>2022-07-23T14:44:25Z</time>
      </trkpt>
      <trkpt lat="46.6016170" lon="6.1142030">
        <ele>1073.6</ele>
        <time>2022-07-23T14:44:29Z</time>
      </trkpt>
      <trkpt lat="46.6016880" lon="6.1141320">
        <ele>1074.4</ele>
        <time>2022-07-23T14:44:32Z</time>
      </trkpt>
      <trkpt lat="46.6017880" lon="6.1140030">
        <ele>1074.8</ele>
        <time>2022-07-23T14:44:36Z</time>
      </trkpt>
      <trkpt lat="46.6019500" lon="6.1137200">
        <ele>1074.8</ele>
        <time>2022-07-23T14:44:44Z</time>
      </trkpt>
      <trkpt lat="46.6020280" lon="6.1135390">
        <ele>1074.8</ele>
        <time>2022-07-23T14:44:49Z</time>
      </trkpt>
      <trkpt lat="46.6021160" lon="6.1134340">
        <ele>1074.6</ele>
        <time>2022-07-23T14:44:55Z</time>
      </trkpt>
      <trkpt lat="46.6021320" lon="6.1133830">
        <ele>1074.4</ele>
        <time>2022-07-23T14:45:00Z</time>
      </trkpt>
      <trkpt lat="46.6021310" lon="6.1133780">
        <ele>1074.4</ele>
        <time>2022-07-23T14:45:01Z</time>
      </trkpt>
      <trkpt lat="46.6021150" lon="6.1136330">
        <ele>1074.6</ele>
        <time>2022-07-23T14:52:56Z</time>
      </trkpt>
      <trkpt lat="46.6021090" lon="6.1136540">
        <ele>1074.6</ele>
        <time>2022-07-23T14:52:58Z</time>
      </trkpt>
      <trkpt lat="46.6020710" lon="6.1137260">
        <ele>1074.6</ele>
        <time>2022-07-23T14:53:01Z</time>
      </trkpt>
      <trkpt lat="46.6020320" lon="6.1137830">
        <ele>1074.6</ele>
        <time>2022-07-23T14:53:03Z</time>
      </trkpt>
      <trkpt lat="46.6018450" lon="6.1140420">
        <ele>1074.2</ele>
        <time>2022-07-23T14:53:11Z</time>
      </trkpt>
      <trkpt lat="46.6016210" lon="6.1142710">
        <ele>1074.2</ele>
        <time>2022-07-23T14:53:19Z</time>
      </trkpt>
      <trkpt lat="46.6014000" lon="6.1143790">
        <ele>1074.4</ele>
        <time>2022-07-23T14:53:25Z</time>
      </trkpt>
      <trkpt lat="46.6010770" lon="6.1145430">
        <ele>1074.4</ele>
        <time>2022-07-23T14:53:31Z</time>
      </trkpt>
      <trkpt lat="46.6008950" lon="6.1146100">
        <ele>1074.0</ele>
        <time>2022-07-23T14:53:34Z</time>
      </trkpt>
      <trkpt lat="46.6006280" lon="6.1146580">
        <ele>1073.2</ele>
        <time>2022-07-23T14:53:38Z</time>
      </trkpt>
      <trkpt lat="46.6004940" lon="6.1146500">
        <ele>1072.8</ele>
        <time>2022-07-23T14:53:40Z</time>
      </trkpt>
      <trkpt lat="46.6003130" lon="6.1146080">
        <ele>1072.2</ele>
        <time>2022-07-23T14:53:43Z</time>
      </trkpt>
      <trkpt lat="46.6000990" lon="6.1145050">
        <ele>1071.8</ele>
        <time>2022-07-23T14:53:48Z</time>
      </trkpt>
      <trkpt lat="46.5998680" lon="6.1144630">
        <ele>1071.6</ele>
        <time>2022-07-23T14:53:54Z</time>
      </trkpt>
      <trkpt lat="46.5996680" lon="6.1145610">
        <ele>1072.2</ele>
        <time>2022-07-23T14:54:00Z</time>
      </trkpt>
      <trkpt lat="46.5995760" lon="6.1146240">
        <ele>1072.8</ele>
        <time>2022-07-23T14:54:03Z</time>
      </trkpt>
      <trkpt lat="46.5993990" lon="6.1147340">
        <ele>1074.0</ele>
        <time>2022-07-23T14:54:09Z</time>
      </trkpt>
      <trkpt lat="46.5993710" lon="6.1147480">
        <ele>1074.2</ele>
        <time>2022-07-23T14:54:10Z</time>
      </trkpt>
      <trkpt lat="46.5991900" lon="6.1148340">
        <ele>1075.4</ele>
        <time>2022-07-23T14:54:17Z</time>
      </trkpt>
      <trkpt lat="46.5990160" lon="6.1149210">
        <ele>1076.2</ele>
        <time>2022-07-23T14:54:24Z</time>
      </trkpt>
      <trkpt lat="46.5989330" lon="6.1149750">
        <ele>1076.4</ele>
        <time>2022-07-23T14:54:27Z</time>
      </trkpt>
      <trkpt lat="46.5988260" lon="6.1150770">
        <ele>1076.6</ele>
        <time>2022-07-23T14:54:31Z</time>
      </trkpt>
      <trkpt lat="46.5986410" lon="6.1152890">
        <ele>1076.6</ele>
        <time>2022-07-23T14:54:37Z</time>
      </trkpt>
      <trkpt lat="46.5985110" lon="6.1154750">
        <ele>1076.4</ele>
        <time>2022-07-23T14:54:42Z</time>
      </trkpt>
      <trkpt lat="46.5984790" lon="6.1155060">
        <ele>1076.2</ele>
        <time>2022-07-23T14:54:44Z</time>
      </trkpt>
      <trkpt lat="46.5984460" lon="6.1154890">
        <ele>1075.8</ele>
        <time>2022-07-23T14:54:46Z</time>
      </trkpt>
      <trkpt lat="46.5984060" lon="6.1154170">
        <ele>1075.6</ele>
        <time>2022-07-23T14:54:49Z</time>
      </trkpt>
      <trkpt lat="46.5983950" lon="6.1153830">
        <ele>1075.6</ele>
        <time>2022-07-23T14:54:50Z</time>
      </trkpt>
      <trkpt lat="46.5983840" lon="6.1153490">
        <ele>1075.6</ele>
        <time>2022-07-23T14:54:51Z</time>
      </trkpt>
      <trkpt lat="46.5982960" lon="6.1151200">
        <ele>1075.6</ele>
        <time>2022-07-23T14:54:58Z</time>
      </trkpt>
      <trkpt lat="46.5982560" lon="6.1150310">
        <ele>1076.6</ele>
        <time>2022-07-23T14:55:01Z</time>
      </trkpt>
      <trkpt lat="46.5981890" lon="6.1148600">
        <ele>1077.6</ele>
        <time>2022-07-23T14:55:06Z</time>
      </trkpt>
      <trkpt lat="46.5981000" lon="6.1145960">
        <ele>1078.2</ele>
        <time>2022-07-23T14:55:13Z</time>
      </trkpt>
      <trkpt lat="46.5980130" lon="6.1143680">
        <ele>1078.4</ele>
        <time>2022-07-23T14:55:19Z</time>
      </trkpt>
      <trkpt lat="46.5980070" lon="6.1143220">
        <ele>1078.4</ele>
        <time>2022-07-23T14:55:20Z</time>
      </trkpt>
      <trkpt lat="46.5979630" lon="6.1141380">
        <ele>1078.4</ele>
        <time>2022-07-23T14:55:24Z</time>
      </trkpt>
      <trkpt lat="46.5978870" lon="6.1139550">
        <ele>1078.6</ele>
        <time>2022-07-23T14:55:29Z</time>
      </trkpt>
      <trkpt lat="46.5978190" lon="6.1138540">
        <ele>1078.6</ele>
        <time>2022-07-23T14:55:32Z</time>
      </trkpt>
      <trkpt lat="46.5977340" lon="6.1137300">
        <ele>1078.6</ele>
        <time>2022-07-23T14:55:37Z</time>
      </trkpt>
      <trkpt lat="46.5977340" lon="6.1137300">
        <ele>1078.6</ele>
        <time>2022-07-23T14:55:39Z</time>
      </trkpt>
      <trkpt lat="46.5977990" lon="6.1138380">
        <ele>1078.2</ele>
        <time>2022-07-23T14:56:07Z</time>
      </trkpt>
      <trkpt lat="46.5978140" lon="6.1138530">
        <ele>1078.2</ele>
        <time>2022-07-23T14:56:08Z</time>
      </trkpt>
      <trkpt lat="46.5978830" lon="6.1139960">
        <ele>1078.4</ele>
        <time>2022-07-23T14:56:13Z</time>
      </trkpt>
      <trkpt lat="46.5979690" lon="6.1142550">
        <ele>1078.6</ele>
        <time>2022-07-23T14:56:20Z</time>
      </trkpt>
      <trkpt lat="46.5979920" lon="6.1143480">
        <ele>1079.0</ele>
        <time>2022-07-23T14:56:24Z</time>
      </trkpt>
      <trkpt lat="46.5979920" lon="6.1143480">
        <ele>1079.0</ele>
        <time>2022-07-23T14:56:25Z</time>
      </trkpt>
      <trkpt lat="46.5980160" lon="6.1144050">
        <ele>1079.0</ele>
        <time>2022-07-23T14:56:33Z</time>
      </trkpt>
      <trkpt lat="46.5980280" lon="6.1144730">
        <ele>1079.0</ele>
        <time>2022-07-23T14:56:36Z</time>
      </trkpt>
      <trkpt lat="46.5980720" lon="6.1146120">
        <ele>1078.8</ele>
        <time>2022-07-23T14:56:42Z</time>
      </trkpt>
      <trkpt lat="46.5981670" lon="6.1148970">
        <ele>1078.8</ele>
        <time>2022-07-23T14:56:51Z</time>
      </trkpt>
      <trkpt lat="46.5982660" lon="6.1152320">
        <ele>1078.6</ele>
        <time>2022-07-23T14:56:58Z</time>
      </trkpt>
      <trkpt lat="46.5983530" lon="6.1155430">
        <ele>1078.4</ele>
        <time>2022-07-23T14:57:05Z</time>
      </trkpt>
      <trkpt lat="46.5983630" lon="6.1155730">
        <ele>1077.6</ele>
        <time>2022-07-23T14:57:08Z</time>
      </trkpt>
      <trkpt lat="46.5983640" lon="6.1155760">
        <ele>1077.4</ele>
        <time>2022-07-23T14:57:09Z</time>
      </trkpt>
      <trkpt lat="46.5983080" lon="6.1153440">
        <ele>1075.4</ele>
        <time>2022-07-23T15:52:10Z</time>
      </trkpt>
      <trkpt lat="46.5982840" lon="6.1152860">
        <ele>1075.4</ele>
        <time>2022-07-23T15:52:12Z</time>
      </trkpt>
      <trkpt lat="46.5981970" lon="6.1150670">
        <ele>1076.0</ele>
        <time>2022-07-23T15:52:20Z</time>
      </trkpt>
      <trkpt lat="46.5981650" lon="6.1149730">
        <ele>1076.4</ele>
        <time>2022-07-23T15:52:23Z</time>
      </trkpt>
      <trkpt lat="46.5981240" lon="6.1148350">
        <ele>1077.0</ele>
        <time>2022-07-23T15:52:27Z</time>
      </trkpt>
      <trkpt lat="46.5980430" lon="6.1146200">
        <ele>1077.6</ele>
        <time>2022-07-23T15:52:33Z</time>
      </trkpt>
      <trkpt lat="46.5980140" lon="6.1145540">
        <ele>1077.6</ele>
        <time>2022-07-23T15:52:35Z</time>
      </trkpt>
      <trkpt lat="46.5979830" lon="6.1144680">
        <ele>1077.6</ele>
        <time>2022-07-23T15:52:40Z</time>
      </trkpt>
      <trkpt lat="46.5979810" lon="6.1144620">
        <ele>1077.6</ele>
        <time>2022-07-23T15:52:41Z</time>
      </trkpt>
      <trkpt lat="46.5979820" lon="6.1142960">
        <ele>1077.8</ele>
        <time>2022-07-23T15:52:50Z</time>
      </trkpt>
      <trkpt lat="46.5979660" lon="6.1142280">
        <ele>1077.8</ele>
        <time>2022-07-23T15:52:52Z</time>
      </trkpt>
      <trkpt lat="46.5978530" lon="6.1139460">
        <ele>1077.8</ele>
        <time>2022-07-23T15:53:00Z</time>
      </trkpt>
      <trkpt lat="46.5977630" lon="6.1137740">
        <ele>1078.0</ele>
        <time>2022-07-23T15:53:05Z</time>
      </trkpt>
      <trkpt lat="46.5976550" lon="6.1136340">
        <ele>1078.0</ele>
        <time>2022-07-23T15:53:09Z</time>
      </trkpt>
      <trkpt lat="46.5975600" lon="6.1135130">
        <ele>1078.0</ele>
        <time>2022-07-23T15:53:12Z</time>
      </trkpt>
      <trkpt lat="46.5974630" lon="6.1133860">
        <ele>1077.8</ele>
        <time>2022-07-23T15:53:15Z</time>
      </trkpt>
      <trkpt lat="46.5973020" lon="6.1131340">
        <ele>1077.2</ele>
        <time>2022-07-23T15:53:20Z</time>
      </trkpt>
      <trkpt lat="46.5972590" lon="6.1129000">
        <ele>1076.6</ele>
        <time>2022-07-23T15:53:23Z</time>
      </trkpt>
      <trkpt lat="46.5972410" lon="6.1128040">
        <ele>1076.6</ele>
        <time>2022-07-23T15:53:24Z</time>
      </trkpt>
      <trkpt lat="46.5972170" lon="6.1127050">
        <ele>1076.4</ele>
        <time>2022-07-23T15:53:25Z</time>
      </trkpt>
      <trkpt lat="46.5971620" lon="6.1124890">
        <ele>1076.0</ele>
        <time>2022-07-23T15:53:27Z</time>
      </trkpt>
      <trkpt lat="46.5970680" lon="6.1121370">
        <ele>1075.2</ele>
        <time>2022-07-23T15:53:30Z</time>
      </trkpt>
      <trkpt lat="46.5969610" lon="6.1117720">
        <ele>1074.0</ele>
        <time>2022-07-23T15:53:33Z</time>
      </trkpt>
      <trkpt lat="46.5969200" lon="6.1116530">
        <ele>1073.8</ele>
        <time>2022-07-23T15:53:34Z</time>
      </trkpt>
      <trkpt lat="46.5968740" lon="6.1115360">
        <ele>1073.0</ele>
        <time>2022-07-23T15:53:35Z</time>
      </trkpt>
      <trkpt lat="46.5967780" lon="6.1113160">
        <ele>1072.0</ele>
        <time>2022-07-23T15:53:37Z</time>
      </trkpt>
      <trkpt lat="46.5966730" lon="6.1111190">
        <ele>1070.8</ele>
        <time>2022-07-23T15:53:39Z</time>
      </trkpt>
      <trkpt lat="46.5965660" lon="6.1109360">
        <ele>1069.6</ele>
        <time>2022-07-23T15:53:41Z</time>
      </trkpt>
      <trkpt lat="46.5964020" lon="6.1106840">
        <ele>1068.4</ele>
        <time>2022-07-23T15:53:44Z</time>
      </trkpt>
      <trkpt lat="46.5962930" lon="6.1105290">
        <ele>1067.8</ele>
        <time>2022-07-23T15:53:46Z</time>
      </trkpt>
      <trkpt lat="46.5961810" lon="6.1103870">
        <ele>1067.4</ele>
        <time>2022-07-23T15:53:48Z</time>
      </trkpt>
      <trkpt lat="46.5959640" lon="6.1101470">
        <ele>1066.6</ele>
        <time>2022-07-23T15:53:52Z</time>
      </trkpt>
      <trkpt lat="46.5959140" lon="6.1100900">
        <ele>1066.4</ele>
        <time>2022-07-23T15:53:53Z</time>
      </trkpt>
      <trkpt lat="46.5955820" lon="6.1097440">
        <ele>1066.2</ele>
        <time>2022-07-23T15:54:00Z</time>
      </trkpt>
      <trkpt lat="46.5952120" lon="6.1093590">
        <ele>1066.2</ele>
        <time>2022-07-23T15:54:09Z</time>
      </trkpt>
      <trkpt lat="46.5949730" lon="6.1091160">
        <ele>1066.6</ele>
        <time>2022-07-23T15:54:16Z</time>
      </trkpt>
      <trkpt lat="46.5948060" lon="6.1089300">
        <ele>1067.2</ele>
        <time>2022-07-23T15:54:23Z</time>
      </trkpt>
      <trkpt lat="46.5947660" lon="6.1088860">
        <ele>1067.6</ele>
        <time>2022-07-23T15:54:25Z</time>
      </trkpt>
      <trkpt lat="46.5946570" lon="6.1087460">
        <ele>1068.6</ele>
        <time>2022-07-23T15:54:31Z</time>
      </trkpt>
      <trkpt lat="46.5945520" lon="6.1085870">
        <ele>1069.8</ele>
        <time>2022-07-23T15:54:37Z</time>
      </trkpt>
      <trkpt lat="46.5944920" lon="6.1084880">
        <ele>1070.2</ele>
        <time>2022-07-23T15:54:40Z</time>
      </trkpt>
      <trkpt lat="46.5944110" lon="6.1083510">
        <ele>1070.8</ele>
        <time>2022-07-23T15:54:44Z</time>
      </trkpt>
      <trkpt lat="46.5942700" lon="6.1081210">
        <ele>1071.2</ele>
        <time>2022-07-23T15:54:51Z</time>
      </trkpt>
      <trkpt lat="46.5940990" lon="6.1078630">
        <ele>1071.6</ele>
        <time>2022-07-23T15:54:59Z</time>
      </trkpt>
      <trkpt lat="46.5940320" lon="6.1077670">
        <ele>1071.8</ele>
        <time>2022-07-23T15:55:02Z</time>
      </trkpt>
      <trkpt lat="46.5938550" lon="6.1075520">
        <ele>1072.2</ele>
        <time>2022-07-23T15:55:09Z</time>
      </trkpt>
      <trkpt lat="46.5935690" lon="6.1072650">
        <ele>1072.6</ele>
        <time>2022-07-23T15:55:20Z</time>
      </trkpt>
      <trkpt lat="46.5935190" lon="6.1072260">
        <ele>1072.8</ele>
        <time>2022-07-23T15:55:22Z</time>
      </trkpt>
      <trkpt lat="46.5933210" lon="6.1070760">
        <ele>1074.0</ele>
        <time>2022-07-23T15:55:31Z</time>
      </trkpt>
      <trkpt lat="46.5931110" lon="6.1069260">
        <ele>1075.2</ele>
        <time>2022-07-23T15:55:41Z</time>
      </trkpt>
      <trkpt lat="46.5930490" lon="6.1068780">
        <ele>1075.6</ele>
        <time>2022-07-23T15:55:44Z</time>
      </trkpt>
      <trkpt lat="46.5929880" lon="6.1068310">
        <ele>1076.2</ele>
        <time>2022-07-23T15:55:47Z</time>
      </trkpt>
      <trkpt lat="46.5928610" lon="6.1067420">
        <ele>1076.8</ele>
        <time>2022-07-23T15:55:53Z</time>
      </trkpt>
      <trkpt lat="46.5927940" lon="6.1066960">
        <ele>1077.6</ele>
        <time>2022-07-23T15:55:56Z</time>
      </trkpt>
      <trkpt lat="46.5926130" lon="6.1065650">
        <ele>1078.8</ele>
        <time>2022-07-23T15:56:04Z</time>
      </trkpt>
      <trkpt lat="46.5923570" lon="6.1063830">
        <ele>1079.8</ele>
        <time>2022-07-23T15:56:14Z</time>
      </trkpt>
      <trkpt lat="46.5922800" lon="6.1063250">
        <ele>1080.4</ele>
        <time>2022-07-23T15:56:17Z</time>
      </trkpt>
      <trkpt lat="46.5920860" lon="6.1061850">
        <ele>1081.0</ele>
        <time>2022-07-23T15:56:24Z</time>
      </trkpt>
      <trkpt lat="46.5919680" lon="6.1061010">
        <ele>1081.4</ele>
        <time>2022-07-23T15:56:28Z</time>
      </trkpt>
      <trkpt lat="46.5916600" lon="6.1058780">
        <ele>1082.0</ele>
        <time>2022-07-23T15:56:38Z</time>
      </trkpt>
      <trkpt lat="46.5916270" lon="6.1058540">
        <ele>1082.0</ele>
        <time>2022-07-23T15:56:39Z</time>
      </trkpt>
      <trkpt lat="46.5913650" lon="6.1056780">
        <ele>1082.4</ele>
        <time>2022-07-23T15:56:46Z</time>
      </trkpt>
      <trkpt lat="46.5909190" lon="6.1054290">
        <ele>1082.0</ele>
        <time>2022-07-23T15:56:56Z</time>
      </trkpt>
      <trkpt lat="46.5905430" lon="6.1052220">
        <ele>1081.6</ele>
        <time>2022-07-23T15:57:05Z</time>
      </trkpt>
      <trkpt lat="46.5902190" lon="6.1049810">
        <ele>1082.4</ele>
        <time>2022-07-23T15:57:15Z</time>
      </trkpt>
      <trkpt lat="46.5901110" lon="6.1048770">
        <ele>1083.0</ele>
        <time>2022-07-23T15:57:19Z</time>
      </trkpt>
      <trkpt lat="46.5899990" lon="6.1047720">
        <ele>1083.8</ele>
        <time>2022-07-23T15:57:23Z</time>
      </trkpt>
      <trkpt lat="46.5899420" lon="6.1047150">
        <ele>1084.2</ele>
        <time>2022-07-23T15:57:25Z</time>
      </trkpt>
      <trkpt lat="46.5897120" lon="6.1044910">
        <ele>1085.2</ele>
        <time>2022-07-23T15:57:33Z</time>
      </trkpt>
      <trkpt lat="46.5896300" lon="6.1044090">
        <ele>1085.4</ele>
        <time>2022-07-23T15:57:36Z</time>
      </trkpt>
      <trkpt lat="46.5894300" lon="6.1042300">
        <ele>1086.2</ele>
        <time>2022-07-23T15:57:43Z</time>
      </trkpt>
      <trkpt lat="46.5893660" lon="6.1041870">
        <ele>1086.6</ele>
        <time>2022-07-23T15:57:45Z</time>
      </trkpt>
      <trkpt lat="46.5892410" lon="6.1041060">
        <ele>1086.8</ele>
        <time>2022-07-23T15:57:49Z</time>
      </trkpt>
      <trkpt lat="46.5890020" lon="6.1040150">
        <ele>1087.6</ele>
        <time>2022-07-23T15:57:56Z</time>
      </trkpt>
      <trkpt lat="46.5888480" lon="6.1039630">
        <ele>1087.8</ele>
        <time>2022-07-23T15:58:00Z</time>
      </trkpt>
      <trkpt lat="46.5883760" lon="6.1037950">
        <ele>1087.8</ele>
        <time>2022-07-23T15:58:11Z</time>
      </trkpt>
      <trkpt lat="46.5880590" lon="6.1036520">
        <ele>1087.8</ele>
        <time>2022-07-23T15:58:19Z</time>
      </trkpt>
      <trkpt lat="46.5878510" lon="6.1035120">
        <ele>1088.4</ele>
        <time>2022-07-23T15:58:27Z</time>
      </trkpt>
      <trkpt lat="46.5878090" lon="6.1034800">
        <ele>1088.8</ele>
        <time>2022-07-23T15:58:29Z</time>
      </trkpt>
      <trkpt lat="46.5877170" lon="6.1034010">
        <ele>1089.8</ele>
        <time>2022-07-23T15:58:34Z</time>
      </trkpt>
      <trkpt lat="46.5876950" lon="6.1033840">
        <ele>1090.0</ele>
        <time>2022-07-23T15:58:35Z</time>
      </trkpt>
      <trkpt lat="46.5875500" lon="6.1032650">
        <ele>1091.0</ele>
        <time>2022-07-23T15:58:42Z</time>
      </trkpt>
      <trkpt lat="46.5874620" lon="6.1031900">
        <ele>1091.6</ele>
        <time>2022-07-23T15:58:46Z</time>
      </trkpt>
      <trkpt lat="46.5873960" lon="6.1031310">
        <ele>1092.0</ele>
        <time>2022-07-23T15:58:49Z</time>
      </trkpt>
      <trkpt lat="46.5872560" lon="6.1029940">
        <ele>1093.2</ele>
        <time>2022-07-23T15:58:55Z</time>
      </trkpt>
      <trkpt lat="46.5872070" lon="6.1029520">
        <ele>1093.2</ele>
        <time>2022-07-23T15:58:57Z</time>
      </trkpt>
      <trkpt lat="46.5870810" lon="6.1028520">
        <ele>1094.2</ele>
        <time>2022-07-23T15:59:02Z</time>
      </trkpt>
      <trkpt lat="46.5869340" lon="6.1027260">
        <ele>1095.0</ele>
        <time>2022-07-23T15:59:08Z</time>
      </trkpt>
      <trkpt lat="46.5869100" lon="6.1027040">
        <ele>1095.2</ele>
        <time>2022-07-23T15:59:09Z</time>
      </trkpt>
      <trkpt lat="46.5866620" lon="6.1024460">
        <ele>1096.4</ele>
        <time>2022-07-23T15:59:19Z</time>
      </trkpt>
      <trkpt lat="46.5864710" lon="6.1021060">
        <ele>1097.4</ele>
        <time>2022-07-23T15:59:28Z</time>
      </trkpt>
      <trkpt lat="46.5864530" lon="6.1020650">
        <ele>1097.4</ele>
        <time>2022-07-23T15:59:29Z</time>
      </trkpt>
      <trkpt lat="46.5863370" lon="6.1017700">
        <ele>1097.8</ele>
        <time>2022-07-23T15:59:36Z</time>
      </trkpt>
      <trkpt lat="46.5862360" lon="6.1016470">
        <ele>1098.4</ele>
        <time>2022-07-23T15:59:40Z</time>
      </trkpt>
      <trkpt lat="46.5862010" lon="6.1016450">
        <ele>1098.4</ele>
        <time>2022-07-23T15:59:41Z</time>
      </trkpt>
      <trkpt lat="46.5861150" lon="6.1017000">
        <ele>1098.8</ele>
        <time>2022-07-23T15:59:44Z</time>
      </trkpt>
      <trkpt lat="46.5860100" lon="6.1018720">
        <ele>1099.4</ele>
        <time>2022-07-23T15:59:49Z</time>
      </trkpt>
      <trkpt lat="46.5859520" lon="6.1019830">
        <ele>1099.8</ele>
        <time>2022-07-23T15:59:52Z</time>
      </trkpt>
      <trkpt lat="46.5858380" lon="6.1021920">
        <ele>1100.4</ele>
        <time>2022-07-23T15:59:58Z</time>
      </trkpt>
      <trkpt lat="46.5857650" lon="6.1023240">
        <ele>1101.0</ele>
        <time>2022-07-23T16:00:02Z</time>
      </trkpt>
      <trkpt lat="46.5856890" lon="6.1024580">
        <ele>1101.6</ele>
        <time>2022-07-23T16:00:06Z</time>
      </trkpt>
      <trkpt lat="46.5855760" lon="6.1026720">
        <ele>1102.4</ele>
        <time>2022-07-23T16:00:12Z</time>
      </trkpt>
      <trkpt lat="46.5855190" lon="6.1027740">
        <ele>1102.8</ele>
        <time>2022-07-23T16:00:15Z</time>
      </trkpt>
      <trkpt lat="46.5854100" lon="6.1029700">
        <ele>1103.4</ele>
        <time>2022-07-23T16:00:21Z</time>
      </trkpt>
      <trkpt lat="46.5853730" lon="6.1030350">
        <ele>1103.8</ele>
        <time>2022-07-23T16:00:23Z</time>
      </trkpt>
      <trkpt lat="46.5852540" lon="6.1032380">
        <ele>1104.8</ele>
        <time>2022-07-23T16:00:30Z</time>
      </trkpt>
      <trkpt lat="46.5851590" lon="6.1033820">
        <ele>1106.0</ele>
        <time>2022-07-23T16:00:35Z</time>
      </trkpt>
      <trkpt lat="46.5850530" lon="6.1035130">
        <ele>1106.8</ele>
        <time>2022-07-23T16:00:40Z</time>
      </trkpt>
      <trkpt lat="46.5849860" lon="6.1035800">
        <ele>1107.0</ele>
        <time>2022-07-23T16:00:43Z</time>
      </trkpt>
      <trkpt lat="46.5848130" lon="6.1037170">
        <ele>1107.8</ele>
        <time>2022-07-23T16:00:50Z</time>
      </trkpt>
      <trkpt lat="46.5847580" lon="6.1037500">
        <ele>1108.0</ele>
        <time>2022-07-23T16:00:52Z</time>
      </trkpt>
      <trkpt lat="46.5845830" lon="6.1038640">
        <ele>1108.8</ele>
        <time>2022-07-23T16:00:58Z</time>
      </trkpt>
      <trkpt lat="46.5844580" lon="6.1039660">
        <ele>1109.0</ele>
        <time>2022-07-23T16:01:02Z</time>
      </trkpt>
      <trkpt lat="46.5843990" lon="6.1040380">
        <ele>1109.2</ele>
        <time>2022-07-23T16:01:04Z</time>
      </trkpt>
      <trkpt lat="46.5842470" lon="6.1043770">
        <ele>1109.2</ele>
        <time>2022-07-23T16:01:11Z</time>
      </trkpt>
      <trkpt lat="46.5842100" lon="6.1046910">
        <ele>1109.4</ele>
        <time>2022-07-23T16:01:17Z</time>
      </trkpt>
      <trkpt lat="46.5841900" lon="6.1050510">
        <ele>1109.8</ele>
        <time>2022-07-23T16:01:24Z</time>
      </trkpt>
      <trkpt lat="46.5841800" lon="6.1051530">
        <ele>1110.2</ele>
        <time>2022-07-23T16:01:26Z</time>
      </trkpt>
      <trkpt lat="46.5841100" lon="6.1056180">
        <ele>1111.0</ele>
        <time>2022-07-23T16:01:35Z</time>
      </trkpt>
      <trkpt lat="46.5841000" lon="6.1056690">
        <ele>1111.2</ele>
        <time>2022-07-23T16:01:36Z</time>
      </trkpt>
      <trkpt lat="46.5839320" lon="6.1063740">
        <ele>1112.2</ele>
        <time>2022-07-23T16:01:50Z</time>
      </trkpt>
      <trkpt lat="46.5839030" lon="6.1064660">
        <ele>1112.2</ele>
        <time>2022-07-23T16:01:52Z</time>
      </trkpt>
      <trkpt lat="46.5838300" lon="6.1066150">
        <ele>1112.2</ele>
        <time>2022-07-23T16:01:56Z</time>
      </trkpt>
      <trkpt lat="46.5836690" lon="6.1068570">
        <ele>1112.2</ele>
        <time>2022-07-23T16:02:03Z</time>
      </trkpt>
      <trkpt lat="46.5834640" lon="6.1070670">
        <ele>1112.2</ele>
        <time>2022-07-23T16:02:09Z</time>
      </trkpt>
      <trkpt lat="46.5830990" lon="6.1073170">
        <ele>1112.0</ele>
        <time>2022-07-23T16:02:17Z</time>
      </trkpt>
      <trkpt lat="46.5827670" lon="6.1074550">
        <ele>1111.8</ele>
        <time>2022-07-23T16:02:25Z</time>
      </trkpt>
      <trkpt lat="46.5824140" lon="6.1074780">
        <ele>1112.2</ele>
        <time>2022-07-23T16:02:34Z</time>
      </trkpt>
      <trkpt lat="46.5821880" lon="6.1073620">
        <ele>1112.8</ele>
        <time>2022-07-23T16:02:41Z</time>
      </trkpt>
      <trkpt lat="46.5821000" lon="6.1072970">
        <ele>1113.2</ele>
        <time>2022-07-23T16:02:44Z</time>
      </trkpt>
      <trkpt lat="46.5819660" lon="6.1071810">
        <ele>1114.2</ele>
        <time>2022-07-23T16:02:49Z</time>
      </trkpt>
      <trkpt lat="46.5817480" lon="6.1069930">
        <ele>1115.0</ele>
        <time>2022-07-23T16:02:56Z</time>
      </trkpt>
      <trkpt lat="46.5815410" lon="6.1067630">
        <ele>1115.0</ele>
        <time>2022-07-23T16:03:01Z</time>
      </trkpt>
      <trkpt lat="46.5812300" lon="6.1063920">
        <ele>1114.6</ele>
        <time>2022-07-23T16:03:07Z</time>
      </trkpt>
      <trkpt lat="46.5808420" lon="6.1059340">
        <ele>1113.2</ele>
        <time>2022-07-23T16:03:13Z</time>
      </trkpt>
      <trkpt lat="46.5806430" lon="6.1057200">
        <ele>1112.0</ele>
        <time>2022-07-23T16:03:16Z</time>
      </trkpt>
      <trkpt lat="46.5805780" lon="6.1056690">
        <ele>1111.6</ele>
        <time>2022-07-23T16:03:17Z</time>
      </trkpt>
      <trkpt lat="46.5805120" lon="6.1056280">
        <ele>1111.2</ele>
        <time>2022-07-23T16:03:18Z</time>
      </trkpt>
      <trkpt lat="46.5804450" lon="6.1055970">
        <ele>1110.8</ele>
        <time>2022-07-23T16:03:19Z</time>
      </trkpt>
      <trkpt lat="46.5801920" lon="6.1055180">
        <ele>1110.0</ele>
        <time>2022-07-23T16:03:23Z</time>
      </trkpt>
      <trkpt lat="46.5798060" lon="6.1054640">
        <ele>1110.0</ele>
        <time>2022-07-23T16:03:30Z</time>
      </trkpt>
      <trkpt lat="46.5796360" lon="6.1054640">
        <ele>1110.4</ele>
        <time>2022-07-23T16:03:35Z</time>
      </trkpt>
      <trkpt lat="46.5794510" lon="6.1054850">
        <ele>1112.0</ele>
        <time>2022-07-23T16:03:42Z</time>
      </trkpt>
      <trkpt lat="46.5794210" lon="6.1054910">
        <ele>1112.2</ele>
        <time>2022-07-23T16:03:43Z</time>
      </trkpt>
      <trkpt lat="46.5793910" lon="6.1054950">
        <ele>1112.8</ele>
        <time>2022-07-23T16:03:44Z</time>
      </trkpt>
      <trkpt lat="46.5793630" lon="6.1054970">
        <ele>1113.0</ele>
        <time>2022-07-23T16:03:45Z</time>
      </trkpt>
      <trkpt lat="46.5791670" lon="6.1055260">
        <ele>1114.0</ele>
        <time>2022-07-23T16:03:52Z</time>
      </trkpt>
      <trkpt lat="46.5789840" lon="6.1055890">
        <ele>1115.2</ele>
        <time>2022-07-23T16:03:59Z</time>
      </trkpt>
      <trkpt lat="46.5787950" lon="6.1056740">
        <ele>1116.2</ele>
        <time>2022-07-23T16:04:06Z</time>
      </trkpt>
      <trkpt lat="46.5787710" lon="6.1056870">
        <ele>1116.2</ele>
        <time>2022-07-23T16:04:07Z</time>
      </trkpt>
      <trkpt lat="46.5785950" lon="6.1057550">
        <ele>1116.6</ele>
        <time>2022-07-23T16:04:13Z</time>
      </trkpt>
      <trkpt lat="46.5784700" lon="6.1057610">
        <ele>1117.2</ele>
        <time>2022-07-23T16:04:17Z</time>
      </trkpt>
      <trkpt lat="46.5784380" lon="6.1057590">
        <ele>1117.2</ele>
        <time>2022-07-23T16:04:18Z</time>
      </trkpt>
      <trkpt lat="46.5782380" lon="6.1057100">
        <ele>1117.8</ele>
        <time>2022-07-23T16:04:25Z</time>
      </trkpt>
      <trkpt lat="46.5781130" lon="6.1056710">
        <ele>1118.4</ele>
        <time>2022-07-23T16:04:30Z</time>
      </trkpt>
      <trkpt lat="46.5780680" lon="6.1056530">
        <ele>1118.6</ele>
        <time>2022-07-23T16:04:32Z</time>
      </trkpt>
      <trkpt lat="46.5779730" lon="6.1056020">
        <ele>1119.4</ele>
        <time>2022-07-23T16:04:37Z</time>
      </trkpt>
      <trkpt lat="46.5779330" lon="6.1055780">
        <ele>1119.8</ele>
        <time>2022-07-23T16:04:39Z</time>
      </trkpt>
      <trkpt lat="46.5778640" lon="6.1055280">
        <ele>1120.6</ele>
        <time>2022-07-23T16:04:42Z</time>
      </trkpt>
      <trkpt lat="46.5777720" lon="6.1054240">
        <ele>1121.4</ele>
        <time>2022-07-23T16:04:47Z</time>
      </trkpt>
      <trkpt lat="46.5777550" lon="6.1054000">
        <ele>1121.6</ele>
        <time>2022-07-23T16:04:48Z</time>
      </trkpt>
      <trkpt lat="46.5776130" lon="6.1051790">
        <ele>1122.6</ele>
        <time>2022-07-23T16:04:56Z</time>
      </trkpt>
      <trkpt lat="46.5775940" lon="6.1051490">
        <ele>1122.8</ele>
        <time>2022-07-23T16:04:57Z</time>
      </trkpt>
      <trkpt lat="46.5774650" lon="6.1049640">
        <ele>1123.6</ele>
        <time>2022-07-23T16:05:03Z</time>
      </trkpt>
      <trkpt lat="46.5774460" lon="6.1049350">
        <ele>1123.8</ele>
        <time>2022-07-23T16:05:04Z</time>
      </trkpt>
      <trkpt lat="46.5773400" lon="6.1047870">
        <ele>1124.0</ele>
        <time>2022-07-23T16:05:09Z</time>
      </trkpt>
      <trkpt lat="46.5772200" lon="6.1046160">
        <ele>1124.8</ele>
        <time>2022-07-23T16:05:14Z</time>
      </trkpt>
      <trkpt lat="46.5771670" lon="6.1045400">
        <ele>1125.0</ele>
        <time>2022-07-23T16:05:16Z</time>
      </trkpt>
      <trkpt lat="46.5770170" lon="6.1042950">
        <ele>1125.4</ele>
        <time>2022-07-23T16:05:23Z</time>
      </trkpt>
      <trkpt lat="46.5768930" lon="6.1040840">
        <ele>1125.8</ele>
        <time>2022-07-23T16:05:29Z</time>
      </trkpt>
      <trkpt lat="46.5768360" lon="6.1039970">
        <ele>1126.2</ele>
        <time>2022-07-23T16:05:32Z</time>
      </trkpt>
      <trkpt lat="46.5766770" lon="6.1037830">
        <ele>1126.6</ele>
        <time>2022-07-23T16:05:38Z</time>
      </trkpt>
      <trkpt lat="46.5766070" lon="6.1036910">
        <ele>1126.6</ele>
        <time>2022-07-23T16:05:40Z</time>
      </trkpt>
      <trkpt lat="46.5765030" lon="6.1035310">
        <ele>1126.6</ele>
        <time>2022-07-23T16:05:43Z</time>
      </trkpt>
      <trkpt lat="46.5762780" lon="6.1032970">
        <ele>1126.2</ele>
        <time>2022-07-23T16:05:48Z</time>
      </trkpt>
      <trkpt lat="46.5759490" lon="6.1030790">
        <ele>1125.0</ele>
        <time>2022-07-23T16:05:54Z</time>
      </trkpt>
      <trkpt lat="46.5758900" lon="6.1030380">
        <ele>1124.8</ele>
        <time>2022-07-23T16:05:55Z</time>
      </trkpt>
      <trkpt lat="46.5756650" lon="6.1028410">
        <ele>1123.4</ele>
        <time>2022-07-23T16:05:59Z</time>
      </trkpt>
      <trkpt lat="46.5755730" lon="6.1027560">
        <ele>1122.4</ele>
        <time>2022-07-23T16:06:01Z</time>
      </trkpt>
      <trkpt lat="46.5755340" lon="6.1027100">
        <ele>1122.0</ele>
        <time>2022-07-23T16:06:02Z</time>
      </trkpt>
      <trkpt lat="46.5754740" lon="6.1026170">
        <ele>1121.4</ele>
        <time>2022-07-23T16:06:04Z</time>
      </trkpt>
      <trkpt lat="46.5754470" lon="6.1025710">
        <ele>1121.2</ele>
        <time>2022-07-23T16:06:05Z</time>
      </trkpt>
      <trkpt lat="46.5753640" lon="6.1023850">
        <ele>1121.0</ele>
        <time>2022-07-23T16:06:09Z</time>
      </trkpt>
      <trkpt lat="46.5753530" lon="6.1023370">
        <ele>1121.0</ele>
        <time>2022-07-23T16:06:10Z</time>
      </trkpt>
      <trkpt lat="46.5753090" lon="6.1020460">
        <ele>1121.4</ele>
        <time>2022-07-23T16:06:17Z</time>
      </trkpt>
      <trkpt lat="46.5752900" lon="6.1018400">
        <ele>1122.2</ele>
        <time>2022-07-23T16:06:21Z</time>
      </trkpt>
      <trkpt lat="46.5752640" lon="6.1017230">
        <ele>1122.8</ele>
        <time>2022-07-23T16:06:23Z</time>
      </trkpt>
      <trkpt lat="46.5752230" lon="6.1016010">
        <ele>1123.4</ele>
        <time>2022-07-23T16:06:25Z</time>
      </trkpt>
      <trkpt lat="46.5751510" lon="6.1013820">
        <ele>1123.4</ele>
        <time>2022-07-23T16:06:28Z</time>
      </trkpt>
      <trkpt lat="46.5751120" lon="6.1012170">
        <ele>1123.4</ele>
        <time>2022-07-23T16:06:30Z</time>
      </trkpt>
      <trkpt lat="46.5751070" lon="6.1010460">
        <ele>1123.4</ele>
        <time>2022-07-23T16:06:32Z</time>
      </trkpt>
      <trkpt lat="46.5751780" lon="6.1008050">
        <ele>1123.2</ele>
        <time>2022-07-23T16:06:35Z</time>
      </trkpt>
      <trkpt lat="46.5752110" lon="6.1005540">
        <ele>1122.2</ele>
        <time>2022-07-23T16:06:38Z</time>
      </trkpt>
      <trkpt lat="46.5751500" lon="6.1002860">
        <ele>1121.6</ele>
        <time>2022-07-23T16:06:41Z</time>
      </trkpt>
      <trkpt lat="46.5751230" lon="6.1001930">
        <ele>1121.6</ele>
        <time>2022-07-23T16:06:42Z</time>
      </trkpt>
      <trkpt lat="46.5750710" lon="6.1000070">
        <ele>1121.2</ele>
        <time>2022-07-23T16:06:44Z</time>
      </trkpt>
      <trkpt lat="46.5749090" lon="6.0994680">
        <ele>1119.8</ele>
        <time>2022-07-23T16:06:50Z</time>
      </trkpt>
      <trkpt lat="46.5748860" lon="6.0993930">
        <ele>1119.4</ele>
        <time>2022-07-23T16:06:51Z</time>
      </trkpt>
      <trkpt lat="46.5748370" lon="6.0992480">
        <ele>1118.6</ele>
        <time>2022-07-23T16:06:53Z</time>
      </trkpt>
      <trkpt lat="46.5748140" lon="6.0991720">
        <ele>1118.2</ele>
        <time>2022-07-23T16:06:54Z</time>
      </trkpt>
      <trkpt lat="46.5747810" lon="6.0990110">
        <ele>1117.2</ele>
        <time>2022-07-23T16:06:56Z</time>
      </trkpt>
      <trkpt lat="46.5747690" lon="6.0989300">
        <ele>1116.6</ele>
        <time>2022-07-23T16:06:57Z</time>
      </trkpt>
      <trkpt lat="46.5747550" lon="6.0987710">
        <ele>1116.0</ele>
        <time>2022-07-23T16:06:59Z</time>
      </trkpt>
      <trkpt lat="46.5747550" lon="6.0986930">
        <ele>1115.6</ele>
        <time>2022-07-23T16:07:00Z</time>
      </trkpt>
      <trkpt lat="46.5747700" lon="6.0984660">
        <ele>1114.8</ele>
        <time>2022-07-23T16:07:03Z</time>
      </trkpt>
      <trkpt lat="46.5747700" lon="6.0983230">
        <ele>1114.6</ele>
        <time>2022-07-23T16:07:05Z</time>
      </trkpt>
      <trkpt lat="46.5747170" lon="6.0981200">
        <ele>1114.0</ele>
        <time>2022-07-23T16:07:08Z</time>
      </trkpt>
      <trkpt lat="46.5745790" lon="6.0979740">
        <ele>1113.6</ele>
        <time>2022-07-23T16:07:11Z</time>
      </trkpt>
      <trkpt lat="46.5745190" lon="6.0979400">
        <ele>1113.6</ele>
        <time>2022-07-23T16:07:12Z</time>
      </trkpt>
      <trkpt lat="46.5743280" lon="6.0978550">
        <ele>1113.2</ele>
        <time>2022-07-23T16:07:15Z</time>
      </trkpt>
      <trkpt lat="46.5740720" lon="6.0977350">
        <ele>1112.6</ele>
        <time>2022-07-23T16:07:19Z</time>
      </trkpt>
      <trkpt lat="46.5738000" lon="6.0976330">
        <ele>1111.8</ele>
        <time>2022-07-23T16:07:23Z</time>
      </trkpt>
      <trkpt lat="46.5736490" lon="6.0975960">
        <ele>1111.2</ele>
        <time>2022-07-23T16:07:25Z</time>
      </trkpt>
      <trkpt lat="46.5734250" lon="6.0975400">
        <ele>1110.0</ele>
        <time>2022-07-23T16:07:28Z</time>
      </trkpt>
      <trkpt lat="46.5732050" lon="6.0974860">
        <ele>1109.2</ele>
        <time>2022-07-23T16:07:31Z</time>
      </trkpt>
      <trkpt lat="46.5731350" lon="6.0974640">
        <ele>1109.0</ele>
        <time>2022-07-23T16:07:32Z</time>
      </trkpt>
      <trkpt lat="46.5730250" lon="6.0973760">
        <ele>1108.2</ele>
        <time>2022-07-23T16:07:34Z</time>
      </trkpt>
      <trkpt lat="46.5729600" lon="6.0972460">
        <ele>1107.6</ele>
        <time>2022-07-23T16:07:36Z</time>
      </trkpt>
      <trkpt lat="46.5729180" lon="6.0970910">
        <ele>1106.6</ele>
        <time>2022-07-23T16:07:38Z</time>
      </trkpt>
      <trkpt lat="46.5728980" lon="6.0970080">
        <ele>1106.4</ele>
        <time>2022-07-23T16:07:39Z</time>
      </trkpt>
      <trkpt lat="46.5728730" lon="6.0969270">
        <ele>1106.2</ele>
        <time>2022-07-23T16:07:40Z</time>
      </trkpt>
      <trkpt lat="46.5727830" lon="6.0967060">
        <ele>1106.0</ele>
        <time>2022-07-23T16:07:43Z</time>
      </trkpt>
      <trkpt lat="46.5727230" lon="6.0965270">
        <ele>1105.8</ele>
        <time>2022-07-23T16:07:47Z</time>
      </trkpt>
      <trkpt lat="46.5727170" lon="6.0965110">
        <ele>1105.4</ele>
        <time>2022-07-23T16:07:48Z</time>
      </trkpt>
      <trkpt lat="46.5727150" lon="6.0965130">
        <ele>1105.0</ele>
        <time>2022-07-23T16:07:51Z</time>
      </trkpt>
      <trkpt lat="46.5727530" lon="6.0966020">
        <ele>1104.2</ele>
        <time>2022-07-23T16:07:58Z</time>
      </trkpt>
      <trkpt lat="46.5727790" lon="6.0966670">
        <ele>1104.0</ele>
        <time>2022-07-23T16:08:00Z</time>
      </trkpt>
      <trkpt lat="46.5728910" lon="6.0969550">
        <ele>1104.0</ele>
        <time>2022-07-23T16:08:07Z</time>
      </trkpt>
      <trkpt lat="46.5729640" lon="6.0972230">
        <ele>1104.0</ele>
        <time>2022-07-23T16:08:14Z</time>
      </trkpt>
      <trkpt lat="46.5730880" lon="6.0974590">
        <ele>1105.0</ele>
        <time>2022-07-23T16:08:21Z</time>
      </trkpt>
      <trkpt lat="46.5731260" lon="6.0974890">
        <ele>1105.0</ele>
        <time>2022-07-23T16:08:24Z</time>
      </trkpt>
      <trkpt lat="46.5731300" lon="6.0974870">
        <ele>1105.0</ele>
        <time>2022-07-23T16:08:25Z</time>
      </trkpt>
      <trkpt lat="46.5730960" lon="6.0974430">
        <ele>1104.8</ele>
        <time>2022-07-23T16:08:34Z</time>
      </trkpt>
      <trkpt lat="46.5730730" lon="6.0974190">
        <ele>1104.8</ele>
        <time>2022-07-23T16:08:35Z</time>
      </trkpt>
      <trkpt lat="46.5729650" lon="6.0971830">
        <ele>1104.8</ele>
        <time>2022-07-23T16:08:41Z</time>
      </trkpt>
      <trkpt lat="46.5729030" lon="6.0969320">
        <ele>1104.8</ele>
        <time>2022-07-23T16:08:45Z</time>
      </trkpt>
      <trkpt lat="46.5728570" lon="6.0968050">
        <ele>1104.8</ele>
        <time>2022-07-23T16:08:47Z</time>
      </trkpt>
      <trkpt lat="46.5727190" lon="6.0964440">
        <ele>1104.8</ele>
        <time>2022-07-23T16:08:53Z</time>
      </trkpt>
      <trkpt lat="46.5727040" lon="6.0963890">
        <ele>1104.6</ele>
        <time>2022-07-23T16:08:54Z</time>
      </trkpt>
      <trkpt lat="46.5725600" lon="6.0960260">
        <ele>1103.8</ele>
        <time>2022-07-23T16:09:01Z</time>
      </trkpt>
      <trkpt lat="46.5723590" lon="6.0955810">
        <ele>1103.2</ele>
        <time>2022-07-23T16:09:08Z</time>
      </trkpt>
      <trkpt lat="46.5722330" lon="6.0952810">
        <ele>1102.8</ele>
        <time>2022-07-23T16:09:12Z</time>
      </trkpt>
      <trkpt lat="46.5721660" lon="6.0950410">
        <ele>1102.2</ele>
        <time>2022-07-23T16:09:15Z</time>
      </trkpt>
      <trkpt lat="46.5721400" lon="6.0949620">
        <ele>1102.0</ele>
        <time>2022-07-23T16:09:16Z</time>
      </trkpt>
      <trkpt lat="46.5721050" lon="6.0948850">
        <ele>1101.6</ele>
        <time>2022-07-23T16:09:17Z</time>
      </trkpt>
      <trkpt lat="46.5720230" lon="6.0947270">
        <ele>1101.0</ele>
        <time>2022-07-23T16:09:19Z</time>
      </trkpt>
      <trkpt lat="46.5719190" lon="6.0945700">
        <ele>1100.8</ele>
        <time>2022-07-23T16:09:21Z</time>
      </trkpt>
      <trkpt lat="46.5717880" lon="6.0944310">
        <ele>1100.6</ele>
        <time>2022-07-23T16:09:23Z</time>
      </trkpt>
      <trkpt lat="46.5714190" lon="6.0940560">
        <ele>1099.4</ele>
        <time>2022-07-23T16:09:28Z</time>
      </trkpt>
      <trkpt lat="46.5713520" lon="6.0939710">
        <ele>1098.6</ele>
        <time>2022-07-23T16:09:29Z</time>
      </trkpt>
      <trkpt lat="46.5712860" lon="6.0938850">
        <ele>1098.0</ele>
        <time>2022-07-23T16:09:30Z</time>
      </trkpt>
      <trkpt lat="46.5711530" lon="6.0937160">
        <ele>1096.4</ele>
        <time>2022-07-23T16:09:32Z</time>
      </trkpt>
      <trkpt lat="46.5710170" lon="6.0935490">
        <ele>1094.0</ele>
        <time>2022-07-23T16:09:34Z</time>
      </trkpt>
      <trkpt lat="46.5708840" lon="6.0933820">
        <ele>1092.8</ele>
        <time>2022-07-23T16:09:36Z</time>
      </trkpt>
      <trkpt lat="46.5707550" lon="6.0932230">
        <ele>1091.4</ele>
        <time>2022-07-23T16:09:38Z</time>
      </trkpt>
      <trkpt lat="46.5705630" lon="6.0929970">
        <ele>1090.4</ele>
        <time>2022-07-23T16:09:41Z</time>
      </trkpt>
      <trkpt lat="46.5703990" lon="6.0927790">
        <ele>1089.6</ele>
        <time>2022-07-23T16:09:44Z</time>
      </trkpt>
      <trkpt lat="46.5703530" lon="6.0927060">
        <ele>1089.4</ele>
        <time>2022-07-23T16:09:45Z</time>
      </trkpt>
      <trkpt lat="46.5701880" lon="6.0924720">
        <ele>1088.8</ele>
        <time>2022-07-23T16:09:49Z</time>
      </trkpt>
      <trkpt lat="46.5701490" lon="6.0924330">
        <ele>1088.6</ele>
        <time>2022-07-23T16:09:50Z</time>
      </trkpt>
      <trkpt lat="46.5699820" lon="6.0923120">
        <ele>1088.6</ele>
        <time>2022-07-23T16:09:54Z</time>
      </trkpt>
      <trkpt lat="46.5697190" lon="6.0921820">
        <ele>1089.0</ele>
        <time>2022-07-23T16:10:00Z</time>
      </trkpt>
      <trkpt lat="46.5695040" lon="6.0920890">
        <ele>1090.4</ele>
        <time>2022-07-23T16:10:05Z</time>
      </trkpt>
      <trkpt lat="46.5694570" lon="6.0920690">
        <ele>1090.8</ele>
        <time>2022-07-23T16:10:06Z</time>
      </trkpt>
      <trkpt lat="46.5691930" lon="6.0919320">
        <ele>1091.0</ele>
        <time>2022-07-23T16:10:12Z</time>
      </trkpt>
      <trkpt lat="46.5691180" lon="6.0918690">
        <ele>1091.0</ele>
        <time>2022-07-23T16:10:14Z</time>
      </trkpt>
      <trkpt lat="46.5689810" lon="6.0917220">
        <ele>1090.8</ele>
        <time>2022-07-23T16:10:18Z</time>
      </trkpt>
      <trkpt lat="46.5687790" lon="6.0914030">
        <ele>1090.6</ele>
        <time>2022-07-23T16:10:26Z</time>
      </trkpt>
      <trkpt lat="46.5686580" lon="6.0912030">
        <ele>1091.6</ele>
        <time>2022-07-23T16:10:33Z</time>
      </trkpt>
      <trkpt lat="46.5685710" lon="6.0910330">
        <ele>1092.6</ele>
        <time>2022-07-23T16:10:39Z</time>
      </trkpt>
      <trkpt lat="46.5684770" lon="6.0908410">
        <ele>1093.6</ele>
        <time>2022-07-23T16:10:44Z</time>
      </trkpt>
      <trkpt lat="46.5683010" lon="6.0904180">
        <ele>1094.0</ele>
        <time>2022-07-23T16:10:52Z</time>
      </trkpt>
      <trkpt lat="46.5682320" lon="6.0902570">
        <ele>1093.8</ele>
        <time>2022-07-23T16:10:55Z</time>
      </trkpt>
      <trkpt lat="46.5681720" lon="6.0900960">
        <ele>1093.6</ele>
        <time>2022-07-23T16:10:58Z</time>
      </trkpt>
      <trkpt lat="46.5681550" lon="6.0900370">
        <ele>1093.6</ele>
        <time>2022-07-23T16:10:59Z</time>
      </trkpt>
      <trkpt lat="46.5680500" lon="6.0896890">
        <ele>1093.6</ele>
        <time>2022-07-23T16:11:05Z</time>
      </trkpt>
      <trkpt lat="46.5679100" lon="6.0893610">
        <ele>1093.4</ele>
        <time>2022-07-23T16:11:11Z</time>
      </trkpt>
      <trkpt lat="46.5678760" lon="6.0893130">
        <ele>1093.4</ele>
        <time>2022-07-23T16:11:12Z</time>
      </trkpt>
      <trkpt lat="46.5676030" lon="6.0890380">
        <ele>1093.0</ele>
        <time>2022-07-23T16:11:19Z</time>
      </trkpt>
      <trkpt lat="46.5674690" lon="6.0887980">
        <ele>1092.6</ele>
        <time>2022-07-23T16:11:23Z</time>
      </trkpt>
      <trkpt lat="46.5674110" lon="6.0886520">
        <ele>1092.6</ele>
        <time>2022-07-23T16:11:25Z</time>
      </trkpt>
      <trkpt lat="46.5672330" lon="6.0881630">
        <ele>1091.6</ele>
        <time>2022-07-23T16:11:31Z</time>
      </trkpt>
      <trkpt lat="46.5671700" lon="6.0879890">
        <ele>1091.2</ele>
        <time>2022-07-23T16:11:33Z</time>
      </trkpt>
      <trkpt lat="46.5670820" lon="6.0877260">
        <ele>1090.4</ele>
        <time>2022-07-23T16:11:36Z</time>
      </trkpt>
      <trkpt lat="46.5669650" lon="6.0873630">
        <ele>1089.4</ele>
        <time>2022-07-23T16:11:40Z</time>
      </trkpt>
      <trkpt lat="46.5669400" lon="6.0872740">
        <ele>1089.2</ele>
        <time>2022-07-23T16:11:41Z</time>
      </trkpt>
      <trkpt lat="46.5669080" lon="6.0871920">
        <ele>1089.0</ele>
        <time>2022-07-23T16:11:42Z</time>
      </trkpt>
      <trkpt lat="46.5668430" lon="6.0870340">
        <ele>1088.6</ele>
        <time>2022-07-23T16:11:44Z</time>
      </trkpt>
      <trkpt lat="46.5667850" lon="6.0868740">
        <ele>1088.2</ele>
        <time>2022-07-23T16:11:46Z</time>
      </trkpt>
      <trkpt lat="46.5666610" lon="6.0865740">
        <ele>1087.2</ele>
        <time>2022-07-23T16:11:50Z</time>
      </trkpt>
      <trkpt lat="46.5666300" lon="6.0865020">
        <ele>1086.8</ele>
        <time>2022-07-23T16:11:51Z</time>
      </trkpt>
      <trkpt lat="46.5664680" lon="6.0860920">
        <ele>1086.2</ele>
        <time>2022-07-23T16:11:57Z</time>
      </trkpt>
      <trkpt lat="46.5664400" lon="6.0860320">
        <ele>1086.2</ele>
        <time>2022-07-23T16:11:58Z</time>
      </trkpt>
      <trkpt lat="46.5662460" lon="6.0856060">
        <ele>1086.0</ele>
        <time>2022-07-23T16:12:06Z</time>
      </trkpt>
      <trkpt lat="46.5661020" lon="6.0851640">
        <ele>1086.8</ele>
        <time>2022-07-23T16:12:15Z</time>
      </trkpt>
      <trkpt lat="46.5660640" lon="6.0849680">
        <ele>1087.2</ele>
        <time>2022-07-23T16:12:19Z</time>
      </trkpt>
      <trkpt lat="46.5660370" lon="6.0847770">
        <ele>1087.4</ele>
        <time>2022-07-23T16:12:23Z</time>
      </trkpt>
      <trkpt lat="46.5660230" lon="6.0845500">
        <ele>1088.2</ele>
        <time>2022-07-23T16:12:28Z</time>
      </trkpt>
      <trkpt lat="46.5660240" lon="6.0845060">
        <ele>1088.4</ele>
        <time>2022-07-23T16:12:29Z</time>
      </trkpt>
      <trkpt lat="46.5660280" lon="6.0844130">
        <ele>1088.8</ele>
        <time>2022-07-23T16:12:31Z</time>
      </trkpt>
      <trkpt lat="46.5660530" lon="6.0842150">
        <ele>1089.4</ele>
        <time>2022-07-23T16:12:35Z</time>
      </trkpt>
      <trkpt lat="46.5660790" lon="6.0841170">
        <ele>1089.6</ele>
        <time>2022-07-23T16:12:37Z</time>
      </trkpt>
      <trkpt lat="46.5661950" lon="6.0837620">
        <ele>1089.8</ele>
        <time>2022-07-23T16:12:43Z</time>
      </trkpt>
      <trkpt lat="46.5663840" lon="6.0833010">
        <ele>1089.4</ele>
        <time>2022-07-23T16:12:50Z</time>
      </trkpt>
      <trkpt lat="46.5666000" lon="6.0827660">
        <ele>1088.2</ele>
        <time>2022-07-23T16:12:57Z</time>
      </trkpt>
      <trkpt lat="46.5667620" lon="6.0822880">
        <ele>1087.0</ele>
        <time>2022-07-23T16:13:03Z</time>
      </trkpt>
      <trkpt lat="46.5668350" lon="6.0820570">
        <ele>1086.4</ele>
        <time>2022-07-23T16:13:06Z</time>
      </trkpt>
      <trkpt lat="46.5669140" lon="6.0818270">
        <ele>1085.8</ele>
        <time>2022-07-23T16:13:09Z</time>
      </trkpt>
      <trkpt lat="46.5670210" lon="6.0815820">
        <ele>1085.4</ele>
        <time>2022-07-23T16:13:12Z</time>
      </trkpt>
      <trkpt lat="46.5671440" lon="6.0813300">
        <ele>1085.0</ele>
        <time>2022-07-23T16:13:15Z</time>
      </trkpt>
      <trkpt lat="46.5672720" lon="6.0810020">
        <ele>1084.0</ele>
        <time>2022-07-23T16:13:19Z</time>
      </trkpt>
      <trkpt lat="46.5672910" lon="6.0809290">
        <ele>1083.6</ele>
        <time>2022-07-23T16:13:20Z</time>
      </trkpt>
      <trkpt lat="46.5673200" lon="6.0807250">
        <ele>1082.4</ele>
        <time>2022-07-23T16:13:23Z</time>
      </trkpt>
      <trkpt lat="46.5673390" lon="6.0804270">
        <ele>1081.6</ele>
        <time>2022-07-23T16:13:28Z</time>
      </trkpt>
      <trkpt lat="46.5673270" lon="6.0803070">
        <ele>1081.6</ele>
        <time>2022-07-23T16:13:30Z</time>
      </trkpt>
      <trkpt lat="46.5672280" lon="6.0800570">
        <ele>1081.8</ele>
        <time>2022-07-23T16:13:35Z</time>
      </trkpt>
      <trkpt lat="46.5672000" lon="6.0800170">
        <ele>1082.0</ele>
        <time>2022-07-23T16:13:36Z</time>
      </trkpt>
      <trkpt lat="46.5670030" lon="6.0797220">
        <ele>1083.2</ele>
        <time>2022-07-23T16:13:44Z</time>
      </trkpt>
      <trkpt lat="46.5669800" lon="6.0796910">
        <ele>1083.4</ele>
        <time>2022-07-23T16:13:45Z</time>
      </trkpt>
      <trkpt lat="46.5668890" lon="6.0796130">
        <ele>1084.0</ele>
        <time>2022-07-23T16:13:49Z</time>
      </trkpt>
      <trkpt lat="46.5668650" lon="6.0796200">
        <ele>1084.0</ele>
        <time>2022-07-23T16:13:50Z</time>
      </trkpt>
      <trkpt lat="46.5667640" lon="6.0797040">
        <ele>1084.6</ele>
        <time>2022-07-23T16:13:54Z</time>
      </trkpt>
      <trkpt lat="46.5667370" lon="6.0797380">
        <ele>1084.6</ele>
        <time>2022-07-23T16:13:55Z</time>
      </trkpt>
      <trkpt lat="46.5665390" lon="6.0799500">
        <ele>1084.8</ele>
        <time>2022-07-23T16:14:01Z</time>
      </trkpt>
      <trkpt lat="46.5663940" lon="6.0800400">
        <ele>1084.8</ele>
        <time>2022-07-23T16:14:04Z</time>
      </trkpt>
      <trkpt lat="46.5662760" lon="6.0800420">
        <ele>1084.8</ele>
        <time>2022-07-23T16:14:06Z</time>
      </trkpt>
      <trkpt lat="46.5661110" lon="6.0798840">
        <ele>1084.6</ele>
        <time>2022-07-23T16:14:09Z</time>
      </trkpt>
      <trkpt lat="46.5660280" lon="6.0796960">
        <ele>1084.2</ele>
        <time>2022-07-23T16:14:11Z</time>
      </trkpt>
      <trkpt lat="46.5659450" lon="6.0794820">
        <ele>1083.6</ele>
        <time>2022-07-23T16:14:13Z</time>
      </trkpt>
      <trkpt lat="46.5658990" lon="6.0793680">
        <ele>1083.4</ele>
        <time>2022-07-23T16:14:14Z</time>
      </trkpt>
      <trkpt lat="46.5656770" lon="6.0789140">
        <ele>1082.2</ele>
        <time>2022-07-23T16:14:18Z</time>
      </trkpt>
      <trkpt lat="46.5655160" lon="6.0786250">
        <ele>1080.8</ele>
        <time>2022-07-23T16:14:21Z</time>
      </trkpt>
      <trkpt lat="46.5654510" lon="6.0785370">
        <ele>1080.2</ele>
        <time>2022-07-23T16:14:22Z</time>
      </trkpt>
      <trkpt lat="46.5653680" lon="6.0784760">
        <ele>1079.8</ele>
        <time>2022-07-23T16:14:23Z</time>
      </trkpt>
      <trkpt lat="46.5651690" lon="6.0784400">
        <ele>1077.6</ele>
        <time>2022-07-23T16:14:25Z</time>
      </trkpt>
      <trkpt lat="46.5650650" lon="6.0784540">
        <ele>1077.0</ele>
        <time>2022-07-23T16:14:26Z</time>
      </trkpt>
      <trkpt lat="46.5649640" lon="6.0784850">
        <ele>1076.4</ele>
        <time>2022-07-23T16:14:27Z</time>
      </trkpt>
      <trkpt lat="46.5648650" lon="6.0785280">
        <ele>1075.8</ele>
        <time>2022-07-23T16:14:28Z</time>
      </trkpt>
      <trkpt lat="46.5646630" lon="6.0786100">
        <ele>1074.4</ele>
        <time>2022-07-23T16:14:30Z</time>
      </trkpt>
      <trkpt lat="46.5644450" lon="6.0786560">
        <ele>1072.8</ele>
        <time>2022-07-23T16:14:32Z</time>
      </trkpt>
      <trkpt lat="46.5643370" lon="6.0786590">
        <ele>1072.0</ele>
        <time>2022-07-23T16:14:33Z</time>
      </trkpt>
      <trkpt lat="46.5642340" lon="6.0786440">
        <ele>1071.4</ele>
        <time>2022-07-23T16:14:34Z</time>
      </trkpt>
      <trkpt lat="46.5640460" lon="6.0785700">
        <ele>1070.2</ele>
        <time>2022-07-23T16:14:36Z</time>
      </trkpt>
      <trkpt lat="46.5639600" lon="6.0785250">
        <ele>1069.6</ele>
        <time>2022-07-23T16:14:37Z</time>
      </trkpt>
      <trkpt lat="46.5638060" lon="6.0784390">
        <ele>1068.6</ele>
        <time>2022-07-23T16:14:39Z</time>
      </trkpt>
      <trkpt lat="46.5636060" lon="6.0783200">
        <ele>1067.6</ele>
        <time>2022-07-23T16:14:42Z</time>
      </trkpt>
      <trkpt lat="46.5634410" lon="6.0781880">
        <ele>1067.4</ele>
        <time>2022-07-23T16:14:45Z</time>
      </trkpt>
      <trkpt lat="46.5633620" lon="6.0780970">
        <ele>1067.4</ele>
        <time>2022-07-23T16:14:47Z</time>
      </trkpt>
      <trkpt lat="46.5632450" lon="6.0778390">
        <ele>1067.8</ele>
        <time>2022-07-23T16:14:52Z</time>
      </trkpt>
      <trkpt lat="46.5632120" lon="6.0777290">
        <ele>1068.8</ele>
        <time>2022-07-23T16:14:54Z</time>
      </trkpt>
      <trkpt lat="46.5631540" lon="6.0774740">
        <ele>1069.8</ele>
        <time>2022-07-23T16:14:59Z</time>
      </trkpt>
      <trkpt lat="46.5631460" lon="6.0774220">
        <ele>1070.0</ele>
        <time>2022-07-23T16:15:00Z</time>
      </trkpt>
      <trkpt lat="46.5630790" lon="6.0771180">
        <ele>1071.0</ele>
        <time>2022-07-23T16:15:06Z</time>
      </trkpt>
      <trkpt lat="46.5630440" lon="6.0769720">
        <ele>1071.4</ele>
        <time>2022-07-23T16:15:09Z</time>
      </trkpt>
      <trkpt lat="46.5629990" lon="6.0766370">
        <ele>1071.8</ele>
        <time>2022-07-23T16:15:15Z</time>
      </trkpt>
      <trkpt lat="46.5630020" lon="6.0765740">
        <ele>1071.8</ele>
        <time>2022-07-23T16:15:16Z</time>
      </trkpt>
      <trkpt lat="46.5630180" lon="6.0764370">
        <ele>1072.0</ele>
        <time>2022-07-23T16:15:18Z</time>
      </trkpt>
      <trkpt lat="46.5630700" lon="6.0762210">
        <ele>1072.0</ele>
        <time>2022-07-23T16:15:21Z</time>
      </trkpt>
      <trkpt lat="46.5632550" lon="6.0758160">
        <ele>1071.0</ele>
        <time>2022-07-23T16:15:28Z</time>
      </trkpt>
      <trkpt lat="46.5633370" lon="6.0756420">
        <ele>1070.0</ele>
        <time>2022-07-23T16:15:32Z</time>
      </trkpt>
      <trkpt lat="46.5633390" lon="6.0756010">
        <ele>1069.8</ele>
        <time>2022-07-23T16:15:33Z</time>
      </trkpt>
      <trkpt lat="46.5632820" lon="6.0755230">
        <ele>1069.4</ele>
        <time>2022-07-23T16:15:36Z</time>
      </trkpt>
      <trkpt lat="46.5632560" lon="6.0755110">
        <ele>1069.4</ele>
        <time>2022-07-23T16:15:37Z</time>
      </trkpt>
      <trkpt lat="46.5631280" lon="6.0754660">
        <ele>1069.2</ele>
        <time>2022-07-23T16:15:43Z</time>
      </trkpt>
      <trkpt lat="46.5629590" lon="6.0755120">
        <ele>1070.6</ele>
        <time>2022-07-23T16:15:51Z</time>
      </trkpt>
      <trkpt lat="46.5629400" lon="6.0755270">
        <ele>1071.2</ele>
        <time>2022-07-23T16:15:52Z</time>
      </trkpt>
      <trkpt lat="46.5628870" lon="6.0755930">
        <ele>1072.2</ele>
        <time>2022-07-23T16:15:55Z</time>
      </trkpt>
      <trkpt lat="46.5628460" lon="6.0756670">
        <ele>1072.8</ele>
        <time>2022-07-23T16:15:58Z</time>
      </trkpt>
      <trkpt lat="46.5627990" lon="6.0757450">
        <ele>1073.2</ele>
        <time>2022-07-23T16:16:01Z</time>
      </trkpt>
      <trkpt lat="46.5627370" lon="6.0758580">
        <ele>1073.8</ele>
        <time>2022-07-23T16:16:05Z</time>
      </trkpt>
      <trkpt lat="46.5626970" lon="6.0759430">
        <ele>1074.2</ele>
        <time>2022-07-23T16:16:08Z</time>
      </trkpt>
      <trkpt lat="46.5626540" lon="6.0760520">
        <ele>1075.0</ele>
        <time>2022-07-23T16:16:12Z</time>
      </trkpt>
      <trkpt lat="46.5626330" lon="6.0761070">
        <ele>1075.2</ele>
        <time>2022-07-23T16:16:14Z</time>
      </trkpt>
      <trkpt lat="46.5625950" lon="6.0762320">
        <ele>1076.4</ele>
        <time>2022-07-23T16:16:19Z</time>
      </trkpt>
      <trkpt lat="46.5625780" lon="6.0762860">
        <ele>1076.8</ele>
        <time>2022-07-23T16:16:21Z</time>
      </trkpt>
      <trkpt lat="46.5625480" lon="6.0763980">
        <ele>1077.4</ele>
        <time>2022-07-23T16:16:25Z</time>
      </trkpt>
      <trkpt lat="46.5625020" lon="6.0765950">
        <ele>1078.4</ele>
        <time>2022-07-23T16:16:32Z</time>
      </trkpt>
      <trkpt lat="46.5624570" lon="6.0767680">
        <ele>1079.6</ele>
        <time>2022-07-23T16:16:38Z</time>
      </trkpt>
      <trkpt lat="46.5624360" lon="6.0768500">
        <ele>1080.0</ele>
        <time>2022-07-23T16:16:41Z</time>
      </trkpt>
      <trkpt lat="46.5624150" lon="6.0769280">
        <ele>1080.8</ele>
        <time>2022-07-23T16:16:44Z</time>
      </trkpt>
      <trkpt lat="46.5623700" lon="6.0770790">
        <ele>1081.8</ele>
        <time>2022-07-23T16:16:50Z</time>
      </trkpt>
      <trkpt lat="46.5623520" lon="6.0771580">
        <ele>1082.4</ele>
        <time>2022-07-23T16:16:53Z</time>
      </trkpt>
      <trkpt lat="46.5623360" lon="6.0772370">
        <ele>1083.0</ele>
        <time>2022-07-23T16:16:56Z</time>
      </trkpt>
      <trkpt lat="46.5623020" lon="6.0773960">
        <ele>1084.2</ele>
        <time>2022-07-23T16:17:02Z</time>
      </trkpt>
      <trkpt lat="46.5622910" lon="6.0774500">
        <ele>1084.6</ele>
        <time>2022-07-23T16:17:04Z</time>
      </trkpt>
      <trkpt lat="46.5622570" lon="6.0775760">
        <ele>1085.2</ele>
        <time>2022-07-23T16:17:09Z</time>
      </trkpt>
      <trkpt lat="46.5622290" lon="6.0777050">
        <ele>1086.0</ele>
        <time>2022-07-23T16:17:14Z</time>
      </trkpt>
      <trkpt lat="46.5622230" lon="6.0777300">
        <ele>1086.2</ele>
        <time>2022-07-23T16:17:15Z</time>
      </trkpt>
      <trkpt lat="46.5621790" lon="6.0778840">
        <ele>1087.2</ele>
        <time>2022-07-23T16:17:21Z</time>
      </trkpt>
      <trkpt lat="46.5621430" lon="6.0779730">
        <ele>1087.8</ele>
        <time>2022-07-23T16:17:25Z</time>
      </trkpt>
      <trkpt lat="46.5621090" lon="6.0780590">
        <ele>1088.4</ele>
        <time>2022-07-23T16:17:29Z</time>
      </trkpt>
      <trkpt lat="46.5620880" lon="6.0781300">
        <ele>1089.0</ele>
        <time>2022-07-23T16:17:32Z</time>
      </trkpt>
      <trkpt lat="46.5620690" lon="6.0781960">
        <ele>1089.6</ele>
        <time>2022-07-23T16:17:35Z</time>
      </trkpt>
      <trkpt lat="46.5620590" lon="6.0782550">
        <ele>1090.0</ele>
        <time>2022-07-23T16:17:38Z</time>
      </trkpt>
      <trkpt lat="46.5620310" lon="6.0783450">
        <ele>1090.6</ele>
        <time>2022-07-23T16:17:42Z</time>
      </trkpt>
      <trkpt lat="46.5620110" lon="6.0783920">
        <ele>1090.8</ele>
        <time>2022-07-23T16:17:44Z</time>
      </trkpt>
      <trkpt lat="46.5619920" lon="6.0784660">
        <ele>1091.4</ele>
        <time>2022-07-23T16:17:47Z</time>
      </trkpt>
      <trkpt lat="46.5619710" lon="6.0785330">
        <ele>1092.2</ele>
        <time>2022-07-23T16:17:50Z</time>
      </trkpt>
      <trkpt lat="46.5619640" lon="6.0785560">
        <ele>1092.6</ele>
        <time>2022-07-23T16:17:51Z</time>
      </trkpt>
      <trkpt lat="46.5619110" lon="6.0786990">
        <ele>1093.4</ele>
        <time>2022-07-23T16:17:57Z</time>
      </trkpt>
      <trkpt lat="46.5619030" lon="6.0787210">
        <ele>1093.6</ele>
        <time>2022-07-23T16:17:58Z</time>
      </trkpt>
      <trkpt lat="46.5618530" lon="6.0788160">
        <ele>1094.4</ele>
        <time>2022-07-23T16:18:03Z</time>
      </trkpt>
      <trkpt lat="46.5618340" lon="6.0788490">
        <ele>1094.6</ele>
        <time>2022-07-23T16:18:05Z</time>
      </trkpt>
      <trkpt lat="46.5617810" lon="6.0789300">
        <ele>1095.4</ele>
        <time>2022-07-23T16:18:09Z</time>
      </trkpt>
      <trkpt lat="46.5617510" lon="6.0789730">
        <ele>1095.8</ele>
        <time>2022-07-23T16:18:11Z</time>
      </trkpt>
      <trkpt lat="46.5616980" lon="6.0790500">
        <ele>1096.2</ele>
        <time>2022-07-23T16:18:15Z</time>
      </trkpt>
      <trkpt lat="46.5616620" lon="6.0791010">
        <ele>1097.2</ele>
        <time>2022-07-23T16:18:18Z</time>
      </trkpt>
      <trkpt lat="46.5616020" lon="6.0791790">
        <ele>1097.8</ele>
        <time>2022-07-23T16:18:22Z</time>
      </trkpt>
      <trkpt lat="46.5615660" lon="6.0792470">
        <ele>1098.2</ele>
        <time>2022-07-23T16:18:25Z</time>
      </trkpt>
      <trkpt lat="46.5615160" lon="6.0793440">
        <ele>1098.6</ele>
        <time>2022-07-23T16:18:29Z</time>
      </trkpt>
      <trkpt lat="46.5614770" lon="6.0794460">
        <ele>1099.4</ele>
        <time>2022-07-23T16:18:33Z</time>
      </trkpt>
      <trkpt lat="46.5614580" lon="6.0794990">
        <ele>1099.8</ele>
        <time>2022-07-23T16:18:35Z</time>
      </trkpt>
      <trkpt lat="46.5614300" lon="6.0796120">
        <ele>1100.4</ele>
        <time>2022-07-23T16:18:39Z</time>
      </trkpt>
      <trkpt lat="46.5614130" lon="6.0796990">
        <ele>1100.8</ele>
        <time>2022-07-23T16:18:42Z</time>
      </trkpt>
      <trkpt lat="46.5614130" lon="6.0798210">
        <ele>1101.6</ele>
        <time>2022-07-23T16:18:46Z</time>
      </trkpt>
      <trkpt lat="46.5613980" lon="6.0799570">
        <ele>1102.4</ele>
        <time>2022-07-23T16:18:51Z</time>
      </trkpt>
      <trkpt lat="46.5613890" lon="6.0800080">
        <ele>1102.6</ele>
        <time>2022-07-23T16:18:53Z</time>
      </trkpt>
      <trkpt lat="46.5613790" lon="6.0801710">
        <ele>1103.6</ele>
        <time>2022-07-23T16:18:59Z</time>
      </trkpt>
      <trkpt lat="46.5613780" lon="6.0801970">
        <ele>1103.8</ele>
        <time>2022-07-23T16:19:00Z</time>
      </trkpt>
      <trkpt lat="46.5613760" lon="6.0803580">
        <ele>1104.6</ele>
        <time>2022-07-23T16:19:06Z</time>
      </trkpt>
      <trkpt lat="46.5613860" lon="6.0804900">
        <ele>1105.4</ele>
        <time>2022-07-23T16:19:11Z</time>
      </trkpt>
      <trkpt lat="46.5613870" lon="6.0805160">
        <ele>1105.6</ele>
        <time>2022-07-23T16:19:12Z</time>
      </trkpt>
      <trkpt lat="46.5614010" lon="6.0807120">
        <ele>1106.8</ele>
        <time>2022-07-23T16:19:19Z</time>
      </trkpt>
      <trkpt lat="46.5614040" lon="6.0807400">
        <ele>1106.8</ele>
        <time>2022-07-23T16:19:20Z</time>
      </trkpt>
      <trkpt lat="46.5614160" lon="6.0809290">
        <ele>1107.8</ele>
        <time>2022-07-23T16:19:27Z</time>
      </trkpt>
      <trkpt lat="46.5614180" lon="6.0810080">
        <ele>1108.0</ele>
        <time>2022-07-23T16:19:30Z</time>
      </trkpt>
      <trkpt lat="46.5614280" lon="6.0811110">
        <ele>1108.8</ele>
        <time>2022-07-23T16:19:34Z</time>
      </trkpt>
      <trkpt lat="46.5614260" lon="6.0811970">
        <ele>1109.6</ele>
        <time>2022-07-23T16:19:37Z</time>
      </trkpt>
      <trkpt lat="46.5614250" lon="6.0812790">
        <ele>1110.0</ele>
        <time>2022-07-23T16:19:40Z</time>
      </trkpt>
      <trkpt lat="46.5614370" lon="6.0814180">
        <ele>1111.0</ele>
        <time>2022-07-23T16:19:45Z</time>
      </trkpt>
      <trkpt lat="46.5614390" lon="6.0814470">
        <ele>1111.2</ele>
        <time>2022-07-23T16:19:46Z</time>
      </trkpt>
      <trkpt lat="46.5614490" lon="6.0815840">
        <ele>1112.0</ele>
        <time>2022-07-23T16:19:51Z</time>
      </trkpt>
      <trkpt lat="46.5614550" lon="6.0816730">
        <ele>1112.6</ele>
        <time>2022-07-23T16:19:54Z</time>
      </trkpt>
      <trkpt lat="46.5614680" lon="6.0817570">
        <ele>1113.0</ele>
        <time>2022-07-23T16:19:57Z</time>
      </trkpt>
      <trkpt lat="46.5614700" lon="6.0817830">
        <ele>1113.2</ele>
        <time>2022-07-23T16:19:58Z</time>
      </trkpt>
      <trkpt lat="46.5614660" lon="6.0818330">
        <ele>1113.6</ele>
        <time>2022-07-23T16:20:00Z</time>
      </trkpt>
      <trkpt lat="46.5614660" lon="6.0819350">
        <ele>1114.4</ele>
        <time>2022-07-23T16:20:04Z</time>
      </trkpt>
      <trkpt lat="46.5614650" lon="6.0820060">
        <ele>1114.6</ele>
        <time>2022-07-23T16:20:07Z</time>
      </trkpt>
      <trkpt lat="46.5614590" lon="6.0820780">
        <ele>1115.2</ele>
        <time>2022-07-23T16:20:10Z</time>
      </trkpt>
      <trkpt lat="46.5614470" lon="6.0821880">
        <ele>1116.0</ele>
        <time>2022-07-23T16:20:14Z</time>
      </trkpt>
      <trkpt lat="46.5614450" lon="6.0822160">
        <ele>1116.2</ele>
        <time>2022-07-23T16:20:15Z</time>
      </trkpt>
      <trkpt lat="46.5614300" lon="6.0823720">
        <ele>1117.2</ele>
        <time>2022-07-23T16:20:21Z</time>
      </trkpt>
      <trkpt lat="46.5614260" lon="6.0823970">
        <ele>1117.4</ele>
        <time>2022-07-23T16:20:22Z</time>
      </trkpt>
      <trkpt lat="46.5614100" lon="6.0825500">
        <ele>1118.2</ele>
        <time>2022-07-23T16:20:28Z</time>
      </trkpt>
      <trkpt lat="46.5613920" lon="6.0826060">
        <ele>1118.6</ele>
        <time>2022-07-23T16:20:30Z</time>
      </trkpt>
      <trkpt lat="46.5613740" lon="6.0826760">
        <ele>1119.2</ele>
        <time>2022-07-23T16:20:33Z</time>
      </trkpt>
      <trkpt lat="46.5613520" lon="6.0828240">
        <ele>1120.4</ele>
        <time>2022-07-23T16:20:39Z</time>
      </trkpt>
      <trkpt lat="46.5613520" lon="6.0828520">
        <ele>1120.6</ele>
        <time>2022-07-23T16:20:40Z</time>
      </trkpt>
      <trkpt lat="46.5613660" lon="6.0829580">
        <ele>1121.6</ele>
        <time>2022-07-23T16:20:44Z</time>
      </trkpt>
      <trkpt lat="46.5613890" lon="6.0830770">
        <ele>1122.4</ele>
        <time>2022-07-23T16:20:48Z</time>
      </trkpt>
      <trkpt lat="46.5613940" lon="6.0831390">
        <ele>1122.6</ele>
        <time>2022-07-23T16:20:50Z</time>
      </trkpt>
      <trkpt lat="46.5614030" lon="6.0832490">
        <ele>1123.2</ele>
        <time>2022-07-23T16:20:54Z</time>
      </trkpt>
      <trkpt lat="46.5614160" lon="6.0833180">
        <ele>1123.8</ele>
        <time>2022-07-23T16:20:57Z</time>
      </trkpt>
      <trkpt lat="46.5614440" lon="6.0834160">
        <ele>1124.4</ele>
        <time>2022-07-23T16:21:01Z</time>
      </trkpt>
      <trkpt lat="46.5614620" lon="6.0835010">
        <ele>1124.8</ele>
        <time>2022-07-23T16:21:04Z</time>
      </trkpt>
      <trkpt lat="46.5614900" lon="6.0836130">
        <ele>1125.6</ele>
        <time>2022-07-23T16:21:08Z</time>
      </trkpt>
      <trkpt lat="46.5614940" lon="6.0836710">
        <ele>1125.8</ele>
        <time>2022-07-23T16:21:10Z</time>
      </trkpt>
      <trkpt lat="46.5614940" lon="6.0837930">
        <ele>1126.6</ele>
        <time>2022-07-23T16:21:14Z</time>
      </trkpt>
      <trkpt lat="46.5614960" lon="6.0838570">
        <ele>1126.8</ele>
        <time>2022-07-23T16:21:16Z</time>
      </trkpt>
      <trkpt lat="46.5614810" lon="6.0839420">
        <ele>1127.0</ele>
        <time>2022-07-23T16:21:19Z</time>
      </trkpt>
      <trkpt lat="46.5614700" lon="6.0840540">
        <ele>1127.6</ele>
        <time>2022-07-23T16:21:23Z</time>
      </trkpt>
      <trkpt lat="46.5614550" lon="6.0841300">
        <ele>1128.2</ele>
        <time>2022-07-23T16:21:26Z</time>
      </trkpt>
      <trkpt lat="46.5614420" lon="6.0842050">
        <ele>1128.8</ele>
        <time>2022-07-23T16:21:29Z</time>
      </trkpt>
      <trkpt lat="46.5614280" lon="6.0842490">
        <ele>1129.0</ele>
        <time>2022-07-23T16:21:31Z</time>
      </trkpt>
      <trkpt lat="46.5613990" lon="6.0843400">
        <ele>1129.8</ele>
        <time>2022-07-23T16:21:35Z</time>
      </trkpt>
      <trkpt lat="46.5613840" lon="6.0843860">
        <ele>1130.0</ele>
        <time>2022-07-23T16:21:37Z</time>
      </trkpt>
      <trkpt lat="46.5613620" lon="6.0844630">
        <ele>1131.0</ele>
        <time>2022-07-23T16:21:41Z</time>
      </trkpt>
      <trkpt lat="46.5613450" lon="6.0845120">
        <ele>1131.4</ele>
        <time>2022-07-23T16:21:43Z</time>
      </trkpt>
      <trkpt lat="46.5612990" lon="6.0846310">
        <ele>1132.0</ele>
        <time>2022-07-23T16:21:48Z</time>
      </trkpt>
      <trkpt lat="46.5612890" lon="6.0846560">
        <ele>1132.2</ele>
        <time>2022-07-23T16:21:49Z</time>
      </trkpt>
      <trkpt lat="46.5612760" lon="6.0847030">
        <ele>1132.6</ele>
        <time>2022-07-23T16:21:51Z</time>
      </trkpt>
      <trkpt lat="46.5612560" lon="6.0847470">
        <ele>1133.0</ele>
        <time>2022-07-23T16:21:53Z</time>
      </trkpt>
      <trkpt lat="46.5612490" lon="6.0847670">
        <ele>1133.4</ele>
        <time>2022-07-23T16:21:54Z</time>
      </trkpt>
      <trkpt lat="46.5611960" lon="6.0848560">
        <ele>1134.2</ele>
        <time>2022-07-23T16:21:58Z</time>
      </trkpt>
      <trkpt lat="46.5611900" lon="6.0849100">
        <ele>1134.6</ele>
        <time>2022-07-23T16:22:00Z</time>
      </trkpt>
      <trkpt lat="46.5611940" lon="6.0849340">
        <ele>1134.8</ele>
        <time>2022-07-23T16:22:01Z</time>
      </trkpt>
      <trkpt lat="46.5611940" lon="6.0849590">
        <ele>1134.8</ele>
        <time>2022-07-23T16:22:02Z</time>
      </trkpt>
      <trkpt lat="46.5611910" lon="6.0850000">
        <ele>1135.2</ele>
        <time>2022-07-23T16:22:04Z</time>
      </trkpt>
      <trkpt lat="46.5611880" lon="6.0850210">
        <ele>1135.4</ele>
        <time>2022-07-23T16:22:05Z</time>
      </trkpt>
      <trkpt lat="46.5611450" lon="6.0851330">
        <ele>1136.4</ele>
        <time>2022-07-23T16:22:10Z</time>
      </trkpt>
      <trkpt lat="46.5611070" lon="6.0851780">
        <ele>1136.8</ele>
        <time>2022-07-23T16:22:12Z</time>
      </trkpt>
      <trkpt lat="46.5610330" lon="6.0852600">
        <ele>1137.6</ele>
        <time>2022-07-23T16:22:16Z</time>
      </trkpt>
      <trkpt lat="46.5610010" lon="6.0852840">
        <ele>1137.8</ele>
        <time>2022-07-23T16:22:18Z</time>
      </trkpt>
      <trkpt lat="46.5609020" lon="6.0853600">
        <ele>1138.6</ele>
        <time>2022-07-23T16:22:24Z</time>
      </trkpt>
      <trkpt lat="46.5608820" lon="6.0853700">
        <ele>1138.6</ele>
        <time>2022-07-23T16:22:25Z</time>
      </trkpt>
      <trkpt lat="46.5607460" lon="6.0854120">
        <ele>1139.4</ele>
        <time>2022-07-23T16:22:31Z</time>
      </trkpt>
      <trkpt lat="46.5607280" lon="6.0854060">
        <ele>1139.6</ele>
        <time>2022-07-23T16:22:32Z</time>
      </trkpt>
      <trkpt lat="46.5607120" lon="6.0854050">
        <ele>1139.6</ele>
        <time>2022-07-23T16:22:33Z</time>
      </trkpt>
      <trkpt lat="46.5606590" lon="6.0853780">
        <ele>1140.0</ele>
        <time>2022-07-23T16:22:36Z</time>
      </trkpt>
      <trkpt lat="46.5605860" lon="6.0853350">
        <ele>1140.6</ele>
        <time>2022-07-23T16:22:40Z</time>
      </trkpt>
      <trkpt lat="46.5605110" lon="6.0852980">
        <ele>1141.0</ele>
        <time>2022-07-23T16:22:44Z</time>
      </trkpt>
      <trkpt lat="46.5603920" lon="6.0852250">
        <ele>1141.6</ele>
        <time>2022-07-23T16:22:50Z</time>
      </trkpt>
      <trkpt lat="46.5603710" lon="6.0852040">
        <ele>1141.8</ele>
        <time>2022-07-23T16:22:51Z</time>
      </trkpt>
      <trkpt lat="46.5602340" lon="6.0850790">
        <ele>1142.8</ele>
        <time>2022-07-23T16:22:57Z</time>
      </trkpt>
      <trkpt lat="46.5602180" lon="6.0850610">
        <ele>1143.0</ele>
        <time>2022-07-23T16:22:58Z</time>
      </trkpt>
      <trkpt lat="46.5601330" lon="6.0849800">
        <ele>1143.8</ele>
        <time>2022-07-23T16:23:04Z</time>
      </trkpt>
      <trkpt lat="46.5601190" lon="6.0849700">
        <ele>1144.0</ele>
        <time>2022-07-23T16:23:05Z</time>
      </trkpt>
      <trkpt lat="46.5600620" lon="6.0849410">
        <ele>1144.8</ele>
        <time>2022-07-23T16:23:09Z</time>
      </trkpt>
      <trkpt lat="46.5600350" lon="6.0849310">
        <ele>1145.0</ele>
        <time>2022-07-23T16:23:11Z</time>
      </trkpt>
      <trkpt lat="46.5600110" lon="6.0849330">
        <ele>1145.2</ele>
        <time>2022-07-23T16:23:12Z</time>
      </trkpt>
      <trkpt lat="46.5599230" lon="6.0849450">
        <ele>1146.0</ele>
        <time>2022-07-23T16:23:16Z</time>
      </trkpt>
      <trkpt lat="46.5598900" lon="6.0849540">
        <ele>1146.2</ele>
        <time>2022-07-23T16:23:18Z</time>
      </trkpt>
      <trkpt lat="46.5598240" lon="6.0849550">
        <ele>1147.0</ele>
        <time>2022-07-23T16:23:22Z</time>
      </trkpt>
      <trkpt lat="46.5597680" lon="6.0849510">
        <ele>1147.4</ele>
        <time>2022-07-23T16:23:26Z</time>
      </trkpt>
      <trkpt lat="46.5597020" lon="6.0849240">
        <ele>1148.2</ele>
        <time>2022-07-23T16:23:30Z</time>
      </trkpt>
      <trkpt lat="46.5596690" lon="6.0849040">
        <ele>1148.4</ele>
        <time>2022-07-23T16:23:32Z</time>
      </trkpt>
      <trkpt lat="46.5595960" lon="6.0848630">
        <ele>1149.2</ele>
        <time>2022-07-23T16:23:37Z</time>
      </trkpt>
      <trkpt lat="46.5595830" lon="6.0848520">
        <ele>1149.2</ele>
        <time>2022-07-23T16:23:38Z</time>
      </trkpt>
      <trkpt lat="46.5595040" lon="6.0847830">
        <ele>1150.0</ele>
        <time>2022-07-23T16:23:43Z</time>
      </trkpt>
      <trkpt lat="46.5594660" lon="6.0847530">
        <ele>1150.4</ele>
        <time>2022-07-23T16:23:45Z</time>
      </trkpt>
      <trkpt lat="46.5593960" lon="6.0847050">
        <ele>1151.0</ele>
        <time>2022-07-23T16:23:49Z</time>
      </trkpt>
      <trkpt lat="46.5593570" lon="6.0846770">
        <ele>1151.6</ele>
        <time>2022-07-23T16:23:52Z</time>
      </trkpt>
      <trkpt lat="46.5593000" lon="6.0846310">
        <ele>1152.2</ele>
        <time>2022-07-23T16:23:56Z</time>
      </trkpt>
      <trkpt lat="46.5592650" lon="6.0846080">
        <ele>1152.4</ele>
        <time>2022-07-23T16:23:58Z</time>
      </trkpt>
      <trkpt lat="46.5591530" lon="6.0845660">
        <ele>1153.0</ele>
        <time>2022-07-23T16:24:03Z</time>
      </trkpt>
      <trkpt lat="46.5591270" lon="6.0845560">
        <ele>1153.2</ele>
        <time>2022-07-23T16:24:04Z</time>
      </trkpt>
      <trkpt lat="46.5590670" lon="6.0845120">
        <ele>1154.2</ele>
        <time>2022-07-23T16:24:07Z</time>
      </trkpt>
      <trkpt lat="46.5590170" lon="6.0844760">
        <ele>1154.8</ele>
        <time>2022-07-23T16:24:10Z</time>
      </trkpt>
      <trkpt lat="46.5589500" lon="6.0844210">
        <ele>1155.2</ele>
        <time>2022-07-23T16:24:14Z</time>
      </trkpt>
      <trkpt lat="46.5588240" lon="6.0843560">
        <ele>1155.8</ele>
        <time>2022-07-23T16:24:18Z</time>
      </trkpt>
      <trkpt lat="46.5587870" lon="6.0843120">
        <ele>1156.4</ele>
        <time>2022-07-23T16:24:21Z</time>
      </trkpt>
      <trkpt lat="46.5587390" lon="6.0842480">
        <ele>1157.2</ele>
        <time>2022-07-23T16:24:25Z</time>
      </trkpt>
      <trkpt lat="46.5587290" lon="6.0842350">
        <ele>1157.4</ele>
        <time>2022-07-23T16:24:26Z</time>
      </trkpt>
      <trkpt lat="46.5586520" lon="6.0841440">
        <ele>1158.4</ele>
        <time>2022-07-23T16:24:32Z</time>
      </trkpt>
      <trkpt lat="46.5586370" lon="6.0841280">
        <ele>1158.4</ele>
        <time>2022-07-23T16:24:33Z</time>
      </trkpt>
      <trkpt lat="46.5585670" lon="6.0840670">
        <ele>1159.2</ele>
        <time>2022-07-23T16:24:38Z</time>
      </trkpt>
      <trkpt lat="46.5584470" lon="6.0839960">
        <ele>1160.2</ele>
        <time>2022-07-23T16:24:44Z</time>
      </trkpt>
      <trkpt lat="46.5584220" lon="6.0839880">
        <ele>1160.4</ele>
        <time>2022-07-23T16:24:45Z</time>
      </trkpt>
      <trkpt lat="46.5583230" lon="6.0839650">
        <ele>1161.4</ele>
        <time>2022-07-23T16:24:51Z</time>
      </trkpt>
      <trkpt lat="46.5582350" lon="6.0839490">
        <ele>1162.4</ele>
        <time>2022-07-23T16:24:56Z</time>
      </trkpt>
      <trkpt lat="46.5581920" lon="6.0839430">
        <ele>1162.6</ele>
        <time>2022-07-23T16:24:59Z</time>
      </trkpt>
      <trkpt lat="46.5581250" lon="6.0839350">
        <ele>1163.4</ele>
        <time>2022-07-23T16:25:03Z</time>
      </trkpt>
      <trkpt lat="46.5580940" lon="6.0839290">
        <ele>1163.8</ele>
        <time>2022-07-23T16:25:05Z</time>
      </trkpt>
      <trkpt lat="46.5580540" lon="6.0839300">
        <ele>1164.6</ele>
        <time>2022-07-23T16:25:08Z</time>
      </trkpt>
      <trkpt lat="46.5579840" lon="6.0839390">
        <ele>1165.2</ele>
        <time>2022-07-23T16:25:13Z</time>
      </trkpt>
      <trkpt lat="46.5579410" lon="6.0839430">
        <ele>1165.6</ele>
        <time>2022-07-23T16:25:16Z</time>
      </trkpt>
      <trkpt lat="46.5578560" lon="6.0839340">
        <ele>1166.4</ele>
        <time>2022-07-23T16:25:21Z</time>
      </trkpt>
      <trkpt lat="46.5578080" lon="6.0839270">
        <ele>1166.8</ele>
        <time>2022-07-23T16:25:24Z</time>
      </trkpt>
      <trkpt lat="46.5577940" lon="6.0839210">
        <ele>1167.2</ele>
        <time>2022-07-23T16:25:25Z</time>
      </trkpt>
      <trkpt lat="46.5577580" lon="6.0838990">
        <ele>1167.6</ele>
        <time>2022-07-23T16:25:27Z</time>
      </trkpt>
      <trkpt lat="46.5577290" lon="6.0838760">
        <ele>1168.0</ele>
        <time>2022-07-23T16:25:29Z</time>
      </trkpt>
      <trkpt lat="46.5576370" lon="6.0838180">
        <ele>1168.6</ele>
        <time>2022-07-23T16:25:34Z</time>
      </trkpt>
      <trkpt lat="46.5576250" lon="6.0838090">
        <ele>1168.8</ele>
        <time>2022-07-23T16:25:35Z</time>
      </trkpt>
      <trkpt lat="46.5575330" lon="6.0837590">
        <ele>1169.8</ele>
        <time>2022-07-23T16:25:40Z</time>
      </trkpt>
      <trkpt lat="46.5574980" lon="6.0837350">
        <ele>1170.2</ele>
        <time>2022-07-23T16:25:42Z</time>
      </trkpt>
      <trkpt lat="46.5574160" lon="6.0837140">
        <ele>1171.0</ele>
        <time>2022-07-23T16:25:46Z</time>
      </trkpt>
      <trkpt lat="46.5573660" lon="6.0837110">
        <ele>1171.4</ele>
        <time>2022-07-23T16:25:48Z</time>
      </trkpt>
      <trkpt lat="46.5572930" lon="6.0837220">
        <ele>1171.8</ele>
        <time>2022-07-23T16:25:51Z</time>
      </trkpt>
      <trkpt lat="46.5572450" lon="6.0837610">
        <ele>1172.2</ele>
        <time>2022-07-23T16:25:54Z</time>
      </trkpt>
      <trkpt lat="46.5571920" lon="6.0839240">
        <ele>1173.0</ele>
        <time>2022-07-23T16:26:01Z</time>
      </trkpt>
      <trkpt lat="46.5572200" lon="6.0840420">
        <ele>1174.0</ele>
        <time>2022-07-23T16:26:06Z</time>
      </trkpt>
      <trkpt lat="46.5572380" lon="6.0840790">
        <ele>1174.6</ele>
        <time>2022-07-23T16:26:08Z</time>
      </trkpt>
      <trkpt lat="46.5572720" lon="6.0841130">
        <ele>1175.2</ele>
        <time>2022-07-23T16:26:11Z</time>
      </trkpt>
      <trkpt lat="46.5572950" lon="6.0841290">
        <ele>1175.6</ele>
        <time>2022-07-23T16:26:13Z</time>
      </trkpt>
      <trkpt lat="46.5573330" lon="6.0841360">
        <ele>1176.2</ele>
        <time>2022-07-23T16:26:16Z</time>
      </trkpt>
      <trkpt lat="46.5573760" lon="6.0841490">
        <ele>1176.6</ele>
        <time>2022-07-23T16:26:19Z</time>
      </trkpt>
      <trkpt lat="46.5574780" lon="6.0841650">
        <ele>1177.0</ele>
        <time>2022-07-23T16:26:24Z</time>
      </trkpt>
      <trkpt lat="46.5575220" lon="6.0841700">
        <ele>1177.4</ele>
        <time>2022-07-23T16:26:26Z</time>
      </trkpt>
      <trkpt lat="46.5576080" lon="6.0842040">
        <ele>1177.8</ele>
        <time>2022-07-23T16:26:31Z</time>
      </trkpt>
      <trkpt lat="46.5576410" lon="6.0842270">
        <ele>1178.2</ele>
        <time>2022-07-23T16:26:33Z</time>
      </trkpt>
      <trkpt lat="46.5577450" lon="6.0843130">
        <ele>1178.6</ele>
        <time>2022-07-23T16:26:38Z</time>
      </trkpt>
      <trkpt lat="46.5578490" lon="6.0844780">
        <ele>1178.8</ele>
        <time>2022-07-23T16:26:45Z</time>
      </trkpt>
      <trkpt lat="46.5578590" lon="6.0845090">
        <ele>1179.0</ele>
        <time>2022-07-23T16:26:46Z</time>
      </trkpt>
      <trkpt lat="46.5578620" lon="6.0846590">
        <ele>1179.4</ele>
        <time>2022-07-23T16:26:51Z</time>
      </trkpt>
      <trkpt lat="46.5578160" lon="6.0847250">
        <ele>1180.0</ele>
        <time>2022-07-23T16:26:56Z</time>
      </trkpt>
      <trkpt lat="46.5578110" lon="6.0847260">
        <ele>1180.2</ele>
        <time>2022-07-23T16:26:57Z</time>
      </trkpt>
      <trkpt lat="46.5578050" lon="6.0847270">
        <ele>1180.4</ele>
        <time>2022-07-23T16:26:58Z</time>
      </trkpt>
      <trkpt lat="46.5577710" lon="6.0847370">
        <ele>1181.2</ele>
        <time>2022-07-23T16:27:01Z</time>
      </trkpt>
      <trkpt lat="46.5577550" lon="6.0847390">
        <ele>1181.4</ele>
        <time>2022-07-23T16:27:02Z</time>
      </trkpt>
      <trkpt lat="46.5577230" lon="6.0847420">
        <ele>1181.8</ele>
        <time>2022-07-23T16:27:04Z</time>
      </trkpt>
      <trkpt lat="46.5576700" lon="6.0847410">
        <ele>1182.4</ele>
        <time>2022-07-23T16:27:07Z</time>
      </trkpt>
      <trkpt lat="46.5576050" lon="6.0847300">
        <ele>1183.2</ele>
        <time>2022-07-23T16:27:12Z</time>
      </trkpt>
      <trkpt lat="46.5575930" lon="6.0847280">
        <ele>1183.4</ele>
        <time>2022-07-23T16:27:13Z</time>
      </trkpt>
      <trkpt lat="46.5575140" lon="6.0846990">
        <ele>1184.2</ele>
        <time>2022-07-23T16:27:18Z</time>
      </trkpt>
      <trkpt lat="46.5575030" lon="6.0846910">
        <ele>1184.4</ele>
        <time>2022-07-23T16:27:19Z</time>
      </trkpt>
      <trkpt lat="46.5574890" lon="6.0846900">
        <ele>1184.6</ele>
        <time>2022-07-23T16:27:20Z</time>
      </trkpt>
      <trkpt lat="46.5574460" lon="6.0846720">
        <ele>1185.2</ele>
        <time>2022-07-23T16:27:23Z</time>
      </trkpt>
      <trkpt lat="46.5574320" lon="6.0846680">
        <ele>1185.4</ele>
        <time>2022-07-23T16:27:24Z</time>
      </trkpt>
      <trkpt lat="46.5573390" lon="6.0846460">
        <ele>1186.2</ele>
        <time>2022-07-23T16:27:30Z</time>
      </trkpt>
      <trkpt lat="46.5573240" lon="6.0846380">
        <ele>1186.6</ele>
        <time>2022-07-23T16:27:31Z</time>
      </trkpt>
      <trkpt lat="46.5572240" lon="6.0845810">
        <ele>1187.4</ele>
        <time>2022-07-23T16:27:38Z</time>
      </trkpt>
      <trkpt lat="46.5572130" lon="6.0845730">
        <ele>1187.6</ele>
        <time>2022-07-23T16:27:39Z</time>
      </trkpt>
      <trkpt lat="46.5571440" lon="6.0844810">
        <ele>1188.4</ele>
        <time>2022-07-23T16:27:45Z</time>
      </trkpt>
      <trkpt lat="46.5571340" lon="6.0844710">
        <ele>1188.6</ele>
        <time>2022-07-23T16:27:46Z</time>
      </trkpt>
      <trkpt lat="46.5570620" lon="6.0844090">
        <ele>1189.4</ele>
        <time>2022-07-23T16:27:52Z</time>
      </trkpt>
      <trkpt lat="46.5570470" lon="6.0844000">
        <ele>1189.6</ele>
        <time>2022-07-23T16:27:53Z</time>
      </trkpt>
      <trkpt lat="46.5569100" lon="6.0843290">
        <ele>1190.6</ele>
        <time>2022-07-23T16:27:59Z</time>
      </trkpt>
      <trkpt lat="46.5568900" lon="6.0843190">
        <ele>1190.8</ele>
        <time>2022-07-23T16:28:00Z</time>
      </trkpt>
      <trkpt lat="46.5568320" lon="6.0842850">
        <ele>1191.6</ele>
        <time>2022-07-23T16:28:04Z</time>
      </trkpt>
      <trkpt lat="46.5567850" lon="6.0842580">
        <ele>1192.2</ele>
        <time>2022-07-23T16:28:07Z</time>
      </trkpt>
      <trkpt lat="46.5567330" lon="6.0842390">
        <ele>1192.8</ele>
        <time>2022-07-23T16:28:10Z</time>
      </trkpt>
      <trkpt lat="46.5566490" lon="6.0842110">
        <ele>1193.6</ele>
        <time>2022-07-23T16:28:15Z</time>
      </trkpt>
      <trkpt lat="46.5566160" lon="6.0842000">
        <ele>1194.0</ele>
        <time>2022-07-23T16:28:17Z</time>
      </trkpt>
      <trkpt lat="46.5565170" lon="6.0841810">
        <ele>1194.8</ele>
        <time>2022-07-23T16:28:22Z</time>
      </trkpt>
      <trkpt lat="46.5565030" lon="6.0841820">
        <ele>1195.0</ele>
        <time>2022-07-23T16:28:23Z</time>
      </trkpt>
      <trkpt lat="46.5563990" lon="6.0841610">
        <ele>1196.2</ele>
        <time>2022-07-23T16:28:29Z</time>
      </trkpt>
      <trkpt lat="46.5562870" lon="6.0841110">
        <ele>1197.2</ele>
        <time>2022-07-23T16:28:36Z</time>
      </trkpt>
      <trkpt lat="46.5562750" lon="6.0841020">
        <ele>1197.2</ele>
        <time>2022-07-23T16:28:37Z</time>
      </trkpt>
      <trkpt lat="46.5561790" lon="6.0840310">
        <ele>1198.4</ele>
        <time>2022-07-23T16:28:43Z</time>
      </trkpt>
      <trkpt lat="46.5560760" lon="6.0839780">
        <ele>1199.4</ele>
        <time>2022-07-23T16:28:49Z</time>
      </trkpt>
      <trkpt lat="46.5560400" lon="6.0839650">
        <ele>1199.6</ele>
        <time>2022-07-23T16:28:51Z</time>
      </trkpt>
      <trkpt lat="46.5559270" lon="6.0839870">
        <ele>1200.4</ele>
        <time>2022-07-23T16:28:57Z</time>
      </trkpt>
      <trkpt lat="46.5558920" lon="6.0840060">
        <ele>1200.8</ele>
        <time>2022-07-23T16:28:59Z</time>
      </trkpt>
      <trkpt lat="46.5558500" lon="6.0840360">
        <ele>1201.4</ele>
        <time>2022-07-23T16:29:02Z</time>
      </trkpt>
      <trkpt lat="46.5558070" lon="6.0840820">
        <ele>1202.4</ele>
        <time>2022-07-23T16:29:06Z</time>
      </trkpt>
      <trkpt lat="46.5557960" lon="6.0840960">
        <ele>1202.6</ele>
        <time>2022-07-23T16:29:07Z</time>
      </trkpt>
      <trkpt lat="46.5557340" lon="6.0841830">
        <ele>1203.6</ele>
        <time>2022-07-23T16:29:12Z</time>
      </trkpt>
      <trkpt lat="46.5556920" lon="6.0842380">
        <ele>1204.2</ele>
        <time>2022-07-23T16:29:15Z</time>
      </trkpt>
      <trkpt lat="46.5556440" lon="6.0843300">
        <ele>1204.8</ele>
        <time>2022-07-23T16:29:19Z</time>
      </trkpt>
      <trkpt lat="46.5556260" lon="6.0843770">
        <ele>1205.2</ele>
        <time>2022-07-23T16:29:21Z</time>
      </trkpt>
      <trkpt lat="46.5555590" lon="6.0845380">
        <ele>1205.8</ele>
        <time>2022-07-23T16:29:27Z</time>
      </trkpt>
      <trkpt lat="46.5555130" lon="6.0846590">
        <ele>1206.6</ele>
        <time>2022-07-23T16:29:32Z</time>
      </trkpt>
      <trkpt lat="46.5554910" lon="6.0846960">
        <ele>1207.0</ele>
        <time>2022-07-23T16:29:34Z</time>
      </trkpt>
      <trkpt lat="46.5554750" lon="6.0847420">
        <ele>1207.2</ele>
        <time>2022-07-23T16:29:36Z</time>
      </trkpt>
      <trkpt lat="46.5554160" lon="6.0848630">
        <ele>1208.0</ele>
        <time>2022-07-23T16:29:42Z</time>
      </trkpt>
      <trkpt lat="46.5552910" lon="6.0850080">
        <ele>1208.6</ele>
        <time>2022-07-23T16:29:49Z</time>
      </trkpt>
      <trkpt lat="46.5551370" lon="6.0850790">
        <ele>1208.8</ele>
        <time>2022-07-23T16:29:55Z</time>
      </trkpt>
      <trkpt lat="46.5550650" lon="6.0851070">
        <ele>1208.8</ele>
        <time>2022-07-23T16:29:57Z</time>
      </trkpt>
      <trkpt lat="46.5549290" lon="6.0851420">
        <ele>1208.8</ele>
        <time>2022-07-23T16:30:01Z</time>
      </trkpt>
      <trkpt lat="46.5547160" lon="6.0852480">
        <ele>1209.2</ele>
        <time>2022-07-23T16:30:07Z</time>
      </trkpt>
      <trkpt lat="46.5545640" lon="6.0853950">
        <ele>1209.2</ele>
        <time>2022-07-23T16:30:13Z</time>
      </trkpt>
      <trkpt lat="46.5544430" lon="6.0855200">
        <ele>1209.4</ele>
        <time>2022-07-23T16:30:19Z</time>
      </trkpt>
      <trkpt lat="46.5543150" lon="6.0857240">
        <ele>1209.4</ele>
        <time>2022-07-23T16:30:26Z</time>
      </trkpt>
      <trkpt lat="46.5542280" lon="6.0859740">
        <ele>1209.6</ele>
        <time>2022-07-23T16:30:34Z</time>
      </trkpt>
      <trkpt lat="46.5541070" lon="6.0862330">
        <ele>1209.6</ele>
        <time>2022-07-23T16:30:42Z</time>
      </trkpt>
      <trkpt lat="46.5540220" lon="6.0864200">
        <ele>1209.8</ele>
        <time>2022-07-23T16:30:48Z</time>
      </trkpt>
      <trkpt lat="46.5540040" lon="6.0864470">
        <ele>1210.0</ele>
        <time>2022-07-23T16:30:49Z</time>
      </trkpt>
      <trkpt lat="46.5539010" lon="6.0865930">
        <ele>1210.2</ele>
        <time>2022-07-23T16:30:55Z</time>
      </trkpt>
      <trkpt lat="46.5537490" lon="6.0867720">
        <ele>1210.4</ele>
        <time>2022-07-23T16:31:01Z</time>
      </trkpt>
      <trkpt lat="46.5535690" lon="6.0870140">
        <ele>1210.4</ele>
        <time>2022-07-23T16:31:07Z</time>
      </trkpt>
      <trkpt lat="46.5533620" lon="6.0871220">
        <ele>1210.2</ele>
        <time>2022-07-23T16:31:11Z</time>
      </trkpt>
      <trkpt lat="46.5531120" lon="6.0871280">
        <ele>1209.8</ele>
        <time>2022-07-23T16:31:15Z</time>
      </trkpt>
      <trkpt lat="46.5529840" lon="6.0871700">
        <ele>1209.2</ele>
        <time>2022-07-23T16:31:17Z</time>
      </trkpt>
      <trkpt lat="46.5529150" lon="6.0872030">
        <ele>1209.2</ele>
        <time>2022-07-23T16:31:18Z</time>
      </trkpt>
      <trkpt lat="46.5528480" lon="6.0872430">
        <ele>1209.0</ele>
        <time>2022-07-23T16:31:19Z</time>
      </trkpt>
      <trkpt lat="46.5526550" lon="6.0873780">
        <ele>1208.0</ele>
        <time>2022-07-23T16:31:22Z</time>
      </trkpt>
      <trkpt lat="46.5525000" lon="6.0875090">
        <ele>1206.2</ele>
        <time>2022-07-23T16:31:25Z</time>
      </trkpt>
      <trkpt lat="46.5523120" lon="6.0876480">
        <ele>1205.0</ele>
        <time>2022-07-23T16:31:29Z</time>
      </trkpt>
      <trkpt lat="46.5522230" lon="6.0876980">
        <ele>1205.0</ele>
        <time>2022-07-23T16:31:31Z</time>
      </trkpt>
      <trkpt lat="46.5519560" lon="6.0877800">
        <ele>1205.0</ele>
        <time>2022-07-23T16:31:38Z</time>
      </trkpt>
      <trkpt lat="46.5517400" lon="6.0877620">
        <ele>1205.2</ele>
        <time>2022-07-23T16:31:43Z</time>
      </trkpt>
      <trkpt lat="46.5515370" lon="6.0877250">
        <ele>1205.2</ele>
        <time>2022-07-23T16:31:47Z</time>
      </trkpt>
      <trkpt lat="46.5514970" lon="6.0877340">
        <ele>1205.2</ele>
        <time>2022-07-23T16:31:48Z</time>
      </trkpt>
      <trkpt lat="46.5514090" lon="6.0877740">
        <ele>1205.0</ele>
        <time>2022-07-23T16:31:50Z</time>
      </trkpt>
      <trkpt lat="46.5513180" lon="6.0878530">
        <ele>1205.0</ele>
        <time>2022-07-23T16:31:52Z</time>
      </trkpt>
      <trkpt lat="46.5511090" lon="6.0881070">
        <ele>1204.4</ele>
        <time>2022-07-23T16:31:57Z</time>
      </trkpt>
      <trkpt lat="46.5510620" lon="6.0881490">
        <ele>1204.4</ele>
        <time>2022-07-23T16:31:58Z</time>
      </trkpt>
      <trkpt lat="46.5509180" lon="6.0882050">
        <ele>1204.2</ele>
        <time>2022-07-23T16:32:01Z</time>
      </trkpt>
      <trkpt lat="46.5505820" lon="6.0882570">
        <ele>1204.0</ele>
        <time>2022-07-23T16:32:08Z</time>
      </trkpt>
      <trkpt lat="46.5503950" lon="6.0883050">
        <ele>1203.8</ele>
        <time>2022-07-23T16:32:12Z</time>
      </trkpt>
      <trkpt lat="46.5503220" lon="6.0883380">
        <ele>1203.8</ele>
        <time>2022-07-23T16:32:14Z</time>
      </trkpt>
      <trkpt lat="46.5501800" lon="6.0884520">
        <ele>1204.0</ele>
        <time>2022-07-23T16:32:20Z</time>
      </trkpt>
      <trkpt lat="46.5500180" lon="6.0885930">
        <ele>1206.0</ele>
        <time>2022-07-23T16:32:27Z</time>
      </trkpt>
      <trkpt lat="46.5499060" lon="6.0887390">
        <ele>1206.6</ele>
        <time>2022-07-23T16:32:32Z</time>
      </trkpt>
      <trkpt lat="46.5497860" lon="6.0888810">
        <ele>1206.8</ele>
        <time>2022-07-23T16:32:37Z</time>
      </trkpt>
      <trkpt lat="46.5497380" lon="6.0889400">
        <ele>1206.8</ele>
        <time>2022-07-23T16:32:39Z</time>
      </trkpt>
      <trkpt lat="46.5496260" lon="6.0890850">
        <ele>1207.6</ele>
        <time>2022-07-23T16:32:44Z</time>
      </trkpt>
      <trkpt lat="46.5495680" lon="6.0891530">
        <ele>1208.0</ele>
        <time>2022-07-23T16:32:47Z</time>
      </trkpt>
      <trkpt lat="46.5495220" lon="6.0891940">
        <ele>1208.2</ele>
        <time>2022-07-23T16:32:49Z</time>
      </trkpt>
      <trkpt lat="46.5493860" lon="6.0893320">
        <ele>1208.8</ele>
        <time>2022-07-23T16:32:56Z</time>
      </trkpt>
      <trkpt lat="46.5492920" lon="6.0894140">
        <ele>1209.0</ele>
        <time>2022-07-23T16:33:02Z</time>
      </trkpt>
      <trkpt lat="46.5492780" lon="6.0894260">
        <ele>1209.2</ele>
        <time>2022-07-23T16:33:03Z</time>
      </trkpt>
      <trkpt lat="46.5492450" lon="6.0894500">
        <ele>1209.6</ele>
        <time>2022-07-23T16:33:05Z</time>
      </trkpt>
      <trkpt lat="46.5492010" lon="6.0894850">
        <ele>1210.2</ele>
        <time>2022-07-23T16:33:08Z</time>
      </trkpt>
      <trkpt lat="46.5491310" lon="6.0895650">
        <ele>1211.2</ele>
        <time>2022-07-23T16:33:14Z</time>
      </trkpt>
      <trkpt lat="46.5491140" lon="6.0895820">
        <ele>1211.4</ele>
        <time>2022-07-23T16:33:15Z</time>
      </trkpt>
      <trkpt lat="46.5490510" lon="6.0896680">
        <ele>1212.4</ele>
        <time>2022-07-23T16:33:19Z</time>
      </trkpt>
      <trkpt lat="46.5490050" lon="6.0897330">
        <ele>1213.2</ele>
        <time>2022-07-23T16:33:22Z</time>
      </trkpt>
      <trkpt lat="46.5489710" lon="6.0897740">
        <ele>1213.4</ele>
        <time>2022-07-23T16:33:23Z</time>
      </trkpt>
      <trkpt lat="46.5488480" lon="6.0899400">
        <ele>1214.2</ele>
        <time>2022-07-23T16:33:28Z</time>
      </trkpt>
      <trkpt lat="46.5488320" lon="6.0899640">
        <ele>1214.4</ele>
        <time>2022-07-23T16:33:29Z</time>
      </trkpt>
      <trkpt lat="46.5487500" lon="6.0900780">
        <ele>1215.4</ele>
        <time>2022-07-23T16:33:33Z</time>
      </trkpt>
      <trkpt lat="46.5486900" lon="6.0901520">
        <ele>1216.0</ele>
        <time>2022-07-23T16:33:36Z</time>
      </trkpt>
      <trkpt lat="46.5486370" lon="6.0902080">
        <ele>1216.4</ele>
        <time>2022-07-23T16:33:38Z</time>
      </trkpt>
      <trkpt lat="46.5485390" lon="6.0903400">
        <ele>1217.6</ele>
        <time>2022-07-23T16:33:43Z</time>
      </trkpt>
      <trkpt lat="46.5484420" lon="6.0904900">
        <ele>1218.6</ele>
        <time>2022-07-23T16:33:48Z</time>
      </trkpt>
      <trkpt lat="46.5484080" lon="6.0905440">
        <ele>1218.8</ele>
        <time>2022-07-23T16:33:50Z</time>
      </trkpt>
      <trkpt lat="46.5483020" lon="6.0906900">
        <ele>1219.6</ele>
        <time>2022-07-23T16:33:55Z</time>
      </trkpt>
      <trkpt lat="46.5482790" lon="6.0907180">
        <ele>1219.6</ele>
        <time>2022-07-23T16:33:56Z</time>
      </trkpt>
      <trkpt lat="46.5481440" lon="6.0908580">
        <ele>1220.4</ele>
        <time>2022-07-23T16:34:02Z</time>
      </trkpt>
      <trkpt lat="46.5480800" lon="6.0909050">
        <ele>1220.6</ele>
        <time>2022-07-23T16:34:05Z</time>
      </trkpt>
      <trkpt lat="46.5479930" lon="6.0909710">
        <ele>1221.2</ele>
        <time>2022-07-23T16:34:09Z</time>
      </trkpt>
      <trkpt lat="46.5479300" lon="6.0910180">
        <ele>1221.8</ele>
        <time>2022-07-23T16:34:12Z</time>
      </trkpt>
      <trkpt lat="46.5478610" lon="6.0910730">
        <ele>1222.4</ele>
        <time>2022-07-23T16:34:16Z</time>
      </trkpt>
      <trkpt lat="46.5478400" lon="6.0910880">
        <ele>1222.6</ele>
        <time>2022-07-23T16:34:17Z</time>
      </trkpt>
      <trkpt lat="46.5477740" lon="6.0911380">
        <ele>1223.6</ele>
        <time>2022-07-23T16:34:21Z</time>
      </trkpt>
      <trkpt lat="46.5477470" lon="6.0911530">
        <ele>1223.8</ele>
        <time>2022-07-23T16:34:22Z</time>
      </trkpt>
      <trkpt lat="46.5476790" lon="6.0912000">
        <ele>1224.6</ele>
        <time>2022-07-23T16:34:26Z</time>
      </trkpt>
      <trkpt lat="46.5476590" lon="6.0912120">
        <ele>1224.8</ele>
        <time>2022-07-23T16:34:27Z</time>
      </trkpt>
      <trkpt lat="46.5475410" lon="6.0913020">
        <ele>1225.8</ele>
        <time>2022-07-23T16:34:33Z</time>
      </trkpt>
      <trkpt lat="46.5475020" lon="6.0913300">
        <ele>1226.2</ele>
        <time>2022-07-23T16:34:35Z</time>
      </trkpt>
      <trkpt lat="46.5473970" lon="6.0913700">
        <ele>1227.0</ele>
        <time>2022-07-23T16:34:39Z</time>
      </trkpt>
      <trkpt lat="46.5472910" lon="6.0914260">
        <ele>1227.6</ele>
        <time>2022-07-23T16:34:42Z</time>
      </trkpt>
      <trkpt lat="46.5472720" lon="6.0914410">
        <ele>1227.8</ele>
        <time>2022-07-23T16:34:43Z</time>
      </trkpt>
      <trkpt lat="46.5471740" lon="6.0915730">
        <ele>1228.6</ele>
        <time>2022-07-23T16:34:48Z</time>
      </trkpt>
      <trkpt lat="46.5471580" lon="6.0916080">
        <ele>1229.0</ele>
        <time>2022-07-23T16:34:49Z</time>
      </trkpt>
      <trkpt lat="46.5471100" lon="6.0917540">
        <ele>1230.0</ele>
        <time>2022-07-23T16:34:54Z</time>
      </trkpt>
      <trkpt lat="46.5470680" lon="6.0919200">
        <ele>1230.4</ele>
        <time>2022-07-23T16:34:59Z</time>
      </trkpt>
      <trkpt lat="46.5469860" lon="6.0921310">
        <ele>1230.8</ele>
        <time>2022-07-23T16:35:04Z</time>
      </trkpt>
      <trkpt lat="46.5469470" lon="6.0921970">
        <ele>1230.8</ele>
        <time>2022-07-23T16:35:09Z</time>
      </trkpt>
      <trkpt lat="46.5469430" lon="6.0922030">
        <ele>1230.8</ele>
        <time>2022-07-23T16:35:11Z</time>
      </trkpt>
      <trkpt lat="46.5468270" lon="6.0922860">
        <ele>1230.0</ele>
        <time>2022-07-23T16:37:04Z</time>
      </trkpt>
      <trkpt lat="46.5467810" lon="6.0923280">
        <ele>1229.8</ele>
        <time>2022-07-23T16:37:06Z</time>
      </trkpt>
      <trkpt lat="46.5466580" lon="6.0924280">
        <ele>1229.8</ele>
        <time>2022-07-23T16:37:09Z</time>
      </trkpt>
      <trkpt lat="46.5466090" lon="6.0924600">
        <ele>1229.8</ele>
        <time>2022-07-23T16:37:10Z</time>
      </trkpt>
      <trkpt lat="46.5463010" lon="6.0927260">
        <ele>1229.0</ele>
        <time>2022-07-23T16:37:16Z</time>
      </trkpt>
      <trkpt lat="46.5462590" lon="6.0927890">
        <ele>1228.6</ele>
        <time>2022-07-23T16:37:17Z</time>
      </trkpt>
      <trkpt lat="46.5461720" lon="6.0930370">
        <ele>1227.2</ele>
        <time>2022-07-23T16:37:20Z</time>
      </trkpt>
      <trkpt lat="46.5461360" lon="6.0933490">
        <ele>1225.8</ele>
        <time>2022-07-23T16:37:23Z</time>
      </trkpt>
      <trkpt lat="46.5461260" lon="6.0934570">
        <ele>1225.2</ele>
        <time>2022-07-23T16:37:24Z</time>
      </trkpt>
      <trkpt lat="46.5461150" lon="6.0935630">
        <ele>1224.6</ele>
        <time>2022-07-23T16:37:25Z</time>
      </trkpt>
      <trkpt lat="46.5460900" lon="6.0936620">
        <ele>1224.0</ele>
        <time>2022-07-23T16:37:26Z</time>
      </trkpt>
      <trkpt lat="46.5460090" lon="6.0938320">
        <ele>1223.2</ele>
        <time>2022-07-23T16:37:28Z</time>
      </trkpt>
      <trkpt lat="46.5458850" lon="6.0939480">
        <ele>1221.8</ele>
        <time>2022-07-23T16:37:30Z</time>
      </trkpt>
      <trkpt lat="46.5458100" lon="6.0939890">
        <ele>1221.2</ele>
        <time>2022-07-23T16:37:31Z</time>
      </trkpt>
      <trkpt lat="46.5457420" lon="6.0940180">
        <ele>1220.2</ele>
        <time>2022-07-23T16:37:32Z</time>
      </trkpt>
      <trkpt lat="46.5456780" lon="6.0940470">
        <ele>1219.4</ele>
        <time>2022-07-23T16:37:33Z</time>
      </trkpt>
      <trkpt lat="46.5456140" lon="6.0940750">
        <ele>1218.6</ele>
        <time>2022-07-23T16:37:34Z</time>
      </trkpt>
      <trkpt lat="46.5455540" lon="6.0941070">
        <ele>1217.8</ele>
        <time>2022-07-23T16:37:35Z</time>
      </trkpt>
      <trkpt lat="46.5454910" lon="6.0941390">
        <ele>1217.0</ele>
        <time>2022-07-23T16:37:36Z</time>
      </trkpt>
      <trkpt lat="46.5453570" lon="6.0942160">
        <ele>1215.6</ele>
        <time>2022-07-23T16:37:38Z</time>
      </trkpt>
      <trkpt lat="46.5452340" lon="6.0942830">
        <ele>1214.4</ele>
        <time>2022-07-23T16:37:40Z</time>
      </trkpt>
      <trkpt lat="46.5451350" lon="6.0943290">
        <ele>1213.0</ele>
        <time>2022-07-23T16:37:42Z</time>
      </trkpt>
      <trkpt lat="46.5450710" lon="6.0943510">
        <ele>1211.4</ele>
        <time>2022-07-23T16:37:44Z</time>
      </trkpt>
      <trkpt lat="46.5450520" lon="6.0943670">
        <ele>1210.2</ele>
        <time>2022-07-23T16:37:45Z</time>
      </trkpt>
      <trkpt lat="46.5450510" lon="6.0944010">
        <ele>1209.0</ele>
        <time>2022-07-23T16:37:47Z</time>
      </trkpt>
      <trkpt lat="46.5450790" lon="6.0944020">
        <ele>1208.0</ele>
        <time>2022-07-23T16:37:49Z</time>
      </trkpt>
      <trkpt lat="46.5451140" lon="6.0943870">
        <ele>1207.4</ele>
        <time>2022-07-23T16:37:51Z</time>
      </trkpt>
      <trkpt lat="46.5451760" lon="6.0943810">
        <ele>1207.0</ele>
        <time>2022-07-23T16:37:57Z</time>
      </trkpt>
      <trkpt lat="46.5452490" lon="6.0943740">
        <ele>1207.2</ele>
        <time>2022-07-23T16:38:05Z</time>
      </trkpt>
      <trkpt lat="46.5452950" lon="6.0943900">
        <ele>1207.2</ele>
        <time>2022-07-23T16:38:07Z</time>
      </trkpt>
      <trkpt lat="46.5454170" lon="6.0944790">
        <ele>1207.4</ele>
        <time>2022-07-23T16:38:12Z</time>
      </trkpt>
      <trkpt lat="46.5455630" lon="6.0947240">
        <ele>1207.6</ele>
        <time>2022-07-23T16:38:18Z</time>
      </trkpt>
      <trkpt lat="46.5456610" lon="6.0950730">
        <ele>1207.2</ele>
        <time>2022-07-23T16:38:24Z</time>
      </trkpt>
      <trkpt lat="46.5456510" lon="6.0953010">
        <ele>1206.8</ele>
        <time>2022-07-23T16:38:27Z</time>
      </trkpt>
      <trkpt lat="46.5456420" lon="6.0953880">
        <ele>1206.8</ele>
        <time>2022-07-23T16:38:28Z</time>
      </trkpt>
      <trkpt lat="46.5456050" lon="6.0958710">
        <ele>1205.8</ele>
        <time>2022-07-23T16:38:33Z</time>
      </trkpt>
      <trkpt lat="46.5455970" lon="6.0963260">
        <ele>1204.6</ele>
        <time>2022-07-23T16:38:38Z</time>
      </trkpt>
      <trkpt lat="46.5455970" lon="6.0964070">
        <ele>1204.2</ele>
        <time>2022-07-23T16:38:39Z</time>
      </trkpt>
      <trkpt lat="46.5455900" lon="6.0965710">
        <ele>1203.0</ele>
        <time>2022-07-23T16:38:41Z</time>
      </trkpt>
      <trkpt lat="46.5455790" lon="6.0966500">
        <ele>1202.8</ele>
        <time>2022-07-23T16:38:42Z</time>
      </trkpt>
      <trkpt lat="46.5455500" lon="6.0968090">
        <ele>1202.6</ele>
        <time>2022-07-23T16:38:44Z</time>
      </trkpt>
      <trkpt lat="46.5455110" lon="6.0970570">
        <ele>1202.4</ele>
        <time>2022-07-23T16:38:47Z</time>
      </trkpt>
      <trkpt lat="46.5454950" lon="6.0972190">
        <ele>1202.2</ele>
        <time>2022-07-23T16:38:49Z</time>
      </trkpt>
      <trkpt lat="46.5454850" lon="6.0972880">
        <ele>1202.2</ele>
        <time>2022-07-23T16:38:50Z</time>
      </trkpt>
      <trkpt lat="46.5454780" lon="6.0973490">
        <ele>1202.0</ele>
        <time>2022-07-23T16:38:51Z</time>
      </trkpt>
      <trkpt lat="46.5454590" lon="6.0974570">
        <ele>1201.8</ele>
        <time>2022-07-23T16:38:53Z</time>
      </trkpt>
      <trkpt lat="46.5453800" lon="6.0977970">
        <ele>1201.4</ele>
        <time>2022-07-23T16:38:59Z</time>
      </trkpt>
      <trkpt lat="46.5453410" lon="6.0979380">
        <ele>1201.2</ele>
        <time>2022-07-23T16:39:01Z</time>
      </trkpt>
      <trkpt lat="46.5452540" lon="6.0981350">
        <ele>1201.2</ele>
        <time>2022-07-23T16:39:04Z</time>
      </trkpt>
      <trkpt lat="46.5451830" lon="6.0982480">
        <ele>1200.8</ele>
        <time>2022-07-23T16:39:06Z</time>
      </trkpt>
      <trkpt lat="46.5450800" lon="6.0984170">
        <ele>1200.2</ele>
        <time>2022-07-23T16:39:09Z</time>
      </trkpt>
      <trkpt lat="46.5450480" lon="6.0984830">
        <ele>1199.6</ele>
        <time>2022-07-23T16:39:10Z</time>
      </trkpt>
      <trkpt lat="46.5449270" lon="6.0987980">
        <ele>1199.2</ele>
        <time>2022-07-23T16:39:14Z</time>
      </trkpt>
      <trkpt lat="46.5448810" lon="6.0988720">
        <ele>1199.0</ele>
        <time>2022-07-23T16:39:15Z</time>
      </trkpt>
      <trkpt lat="46.5446870" lon="6.0990420">
        <ele>1199.0</ele>
        <time>2022-07-23T16:39:18Z</time>
      </trkpt>
      <trkpt lat="46.5446110" lon="6.0990810">
        <ele>1198.8</ele>
        <time>2022-07-23T16:39:19Z</time>
      </trkpt>
      <trkpt lat="46.5445350" lon="6.0991190">
        <ele>1198.4</ele>
        <time>2022-07-23T16:39:20Z</time>
      </trkpt>
      <trkpt lat="46.5443380" lon="6.0992600">
        <ele>1197.6</ele>
        <time>2022-07-23T16:39:23Z</time>
      </trkpt>
      <trkpt lat="46.5442900" lon="6.0993270">
        <ele>1197.0</ele>
        <time>2022-07-23T16:39:24Z</time>
      </trkpt>
      <trkpt lat="46.5442290" lon="6.0994880">
        <ele>1196.2</ele>
        <time>2022-07-23T16:39:26Z</time>
      </trkpt>
      <trkpt lat="46.5442100" lon="6.0995710">
        <ele>1195.8</ele>
        <time>2022-07-23T16:39:27Z</time>
      </trkpt>
      <trkpt lat="46.5441930" lon="6.0996490">
        <ele>1195.8</ele>
        <time>2022-07-23T16:39:28Z</time>
      </trkpt>
      <trkpt lat="46.5441550" lon="6.0997870">
        <ele>1195.2</ele>
        <time>2022-07-23T16:39:30Z</time>
      </trkpt>
      <trkpt lat="46.5441330" lon="6.0998490">
        <ele>1195.2</ele>
        <time>2022-07-23T16:39:31Z</time>
      </trkpt>
      <trkpt lat="46.5439700" lon="6.1001960">
        <ele>1194.8</ele>
        <time>2022-07-23T16:39:37Z</time>
      </trkpt>
      <trkpt lat="46.5438020" lon="6.1004470">
        <ele>1195.2</ele>
        <time>2022-07-23T16:39:43Z</time>
      </trkpt>
      <trkpt lat="46.5435750" lon="6.1006330">
        <ele>1195.2</ele>
        <time>2022-07-23T16:39:48Z</time>
      </trkpt>
      <trkpt lat="46.5432970" lon="6.1008610">
        <ele>1195.0</ele>
        <time>2022-07-23T16:39:53Z</time>
      </trkpt>
      <trkpt lat="46.5432430" lon="6.1009250">
        <ele>1195.0</ele>
        <time>2022-07-23T16:39:54Z</time>
      </trkpt>
      <trkpt lat="46.5431350" lon="6.1010270">
        <ele>1194.4</ele>
        <time>2022-07-23T16:39:56Z</time>
      </trkpt>
      <trkpt lat="46.5430460" lon="6.1010980">
        <ele>1193.2</ele>
        <time>2022-07-23T16:39:58Z</time>
      </trkpt>
      <trkpt lat="46.5428730" lon="6.1011790">
        <ele>1192.0</ele>
        <time>2022-07-23T16:40:01Z</time>
      </trkpt>
      <trkpt lat="46.5427970" lon="6.1012130">
        <ele>1191.6</ele>
        <time>2022-07-23T16:40:02Z</time>
      </trkpt>
      <trkpt lat="46.5426320" lon="6.1012840">
        <ele>1190.6</ele>
        <time>2022-07-23T16:40:04Z</time>
      </trkpt>
      <trkpt lat="46.5424600" lon="6.1013570">
        <ele>1189.4</ele>
        <time>2022-07-23T16:40:06Z</time>
      </trkpt>
      <trkpt lat="46.5423730" lon="6.1013920">
        <ele>1189.0</ele>
        <time>2022-07-23T16:40:07Z</time>
      </trkpt>
      <trkpt lat="46.5422940" lon="6.1014240">
        <ele>1187.6</ele>
        <time>2022-07-23T16:40:08Z</time>
      </trkpt>
      <trkpt lat="46.5421480" lon="6.1014910">
        <ele>1186.2</ele>
        <time>2022-07-23T16:40:10Z</time>
      </trkpt>
      <trkpt lat="46.5420160" lon="6.1015620">
        <ele>1185.2</ele>
        <time>2022-07-23T16:40:12Z</time>
      </trkpt>
      <trkpt lat="46.5418890" lon="6.1016380">
        <ele>1184.2</ele>
        <time>2022-07-23T16:40:14Z</time>
      </trkpt>
      <trkpt lat="46.5417180" lon="6.1017320">
        <ele>1183.2</ele>
        <time>2022-07-23T16:40:17Z</time>
      </trkpt>
      <trkpt lat="46.5416170" lon="6.1017720">
        <ele>1183.0</ele>
        <time>2022-07-23T16:40:19Z</time>
      </trkpt>
      <trkpt lat="46.5413990" lon="6.1018290">
        <ele>1183.0</ele>
        <time>2022-07-23T16:40:23Z</time>
      </trkpt>
      <trkpt lat="46.5412660" lon="6.1018710">
        <ele>1182.8</ele>
        <time>2022-07-23T16:40:25Z</time>
      </trkpt>
      <trkpt lat="46.5410480" lon="6.1019440">
        <ele>1182.6</ele>
        <time>2022-07-23T16:40:28Z</time>
      </trkpt>
      <trkpt lat="46.5407940" lon="6.1020200">
        <ele>1182.4</ele>
        <time>2022-07-23T16:40:32Z</time>
      </trkpt>
      <trkpt lat="46.5406700" lon="6.1020380">
        <ele>1182.8</ele>
        <time>2022-07-23T16:40:36Z</time>
      </trkpt>
      <trkpt lat="46.5405310" lon="6.1021120">
        <ele>1183.0</ele>
        <time>2022-07-23T16:40:42Z</time>
      </trkpt>
      <trkpt lat="46.5404170" lon="6.1021340">
        <ele>1184.0</ele>
        <time>2022-07-23T16:40:47Z</time>
      </trkpt>
      <trkpt lat="46.5402690" lon="6.1021980">
        <ele>1185.0</ele>
        <time>2022-07-23T16:40:53Z</time>
      </trkpt>
      <trkpt lat="46.5402440" lon="6.1022090">
        <ele>1185.0</ele>
        <time>2022-07-23T16:40:54Z</time>
      </trkpt>
      <trkpt lat="46.5400940" lon="6.1022740">
        <ele>1185.6</ele>
        <time>2022-07-23T16:41:01Z</time>
      </trkpt>
      <trkpt lat="46.5400200" lon="6.1023010">
        <ele>1186.0</ele>
        <time>2022-07-23T16:41:05Z</time>
      </trkpt>
      <trkpt lat="46.5399370" lon="6.1023350">
        <ele>1186.6</ele>
        <time>2022-07-23T16:41:09Z</time>
      </trkpt>
      <trkpt lat="46.5398550" lon="6.1023730">
        <ele>1187.0</ele>
        <time>2022-07-23T16:41:13Z</time>
      </trkpt>
      <trkpt lat="46.5397850" lon="6.1024110">
        <ele>1187.6</ele>
        <time>2022-07-23T16:41:17Z</time>
      </trkpt>
      <trkpt lat="46.5397290" lon="6.1024350">
        <ele>1188.0</ele>
        <time>2022-07-23T16:41:20Z</time>
      </trkpt>
      <trkpt lat="46.5396160" lon="6.1024610">
        <ele>1189.0</ele>
        <time>2022-07-23T16:41:26Z</time>
      </trkpt>
      <trkpt lat="46.5395950" lon="6.1024660">
        <ele>1189.2</ele>
        <time>2022-07-23T16:41:27Z</time>
      </trkpt>
      <trkpt lat="46.5394770" lon="6.1024460">
        <ele>1189.8</ele>
        <time>2022-07-23T16:41:32Z</time>
      </trkpt>
      <trkpt lat="46.5394240" lon="6.1024230">
        <ele>1190.2</ele>
        <time>2022-07-23T16:41:34Z</time>
      </trkpt>
      <trkpt lat="46.5393150" lon="6.1023640">
        <ele>1190.6</ele>
        <time>2022-07-23T16:41:38Z</time>
      </trkpt>
      <trkpt lat="46.5391240" lon="6.1022140">
        <ele>1190.8</ele>
        <time>2022-07-23T16:41:45Z</time>
      </trkpt>
      <trkpt lat="46.5388690" lon="6.1021220">
        <ele>1190.8</ele>
        <time>2022-07-23T16:41:52Z</time>
      </trkpt>
      <trkpt lat="46.5387240" lon="6.1021000">
        <ele>1191.0</ele>
        <time>2022-07-23T16:41:58Z</time>
      </trkpt>
      <trkpt lat="46.5386230" lon="6.1020680">
        <ele>1191.0</ele>
        <time>2022-07-23T16:42:03Z</time>
      </trkpt>
      <trkpt lat="46.5386040" lon="6.1020520">
        <ele>1191.0</ele>
        <time>2022-07-23T16:42:04Z</time>
      </trkpt>
      <trkpt lat="46.5385410" lon="6.1019940">
        <ele>1192.0</ele>
        <time>2022-07-23T16:42:08Z</time>
      </trkpt>
      <trkpt lat="46.5385070" lon="6.1019510">
        <ele>1192.4</ele>
        <time>2022-07-23T16:42:10Z</time>
      </trkpt>
      <trkpt lat="46.5384090" lon="6.1018030">
        <ele>1193.0</ele>
        <time>2022-07-23T16:42:16Z</time>
      </trkpt>
      <trkpt lat="46.5382630" lon="6.1016410">
        <ele>1193.8</ele>
        <time>2022-07-23T16:42:23Z</time>
      </trkpt>
      <trkpt lat="46.5380530" lon="6.1014800">
        <ele>1193.8</ele>
        <time>2022-07-23T16:42:30Z</time>
      </trkpt>
      <trkpt lat="46.5379360" lon="6.1014450">
        <ele>1193.8</ele>
        <time>2022-07-23T16:42:33Z</time>
      </trkpt>
      <trkpt lat="46.5378340" lon="6.1014470">
        <ele>1193.8</ele>
        <time>2022-07-23T16:42:35Z</time>
      </trkpt>
      <trkpt lat="46.5375090" lon="6.1014960">
        <ele>1193.8</ele>
        <time>2022-07-23T16:42:40Z</time>
      </trkpt>
      <trkpt lat="46.5372420" lon="6.1015560">
        <ele>1192.6</ele>
        <time>2022-07-23T16:42:45Z</time>
      </trkpt>
      <trkpt lat="46.5370280" lon="6.1016350">
        <ele>1192.2</ele>
        <time>2022-07-23T16:42:51Z</time>
      </trkpt>
      <trkpt lat="46.5368160" lon="6.1017310">
        <ele>1192.8</ele>
        <time>2022-07-23T16:42:59Z</time>
      </trkpt>
      <trkpt lat="46.5366690" lon="6.1018090">
        <ele>1194.2</ele>
        <time>2022-07-23T16:43:05Z</time>
      </trkpt>
      <trkpt lat="46.5366410" lon="6.1018220">
        <ele>1194.4</ele>
        <time>2022-07-23T16:43:06Z</time>
      </trkpt>
      <trkpt lat="46.5364410" lon="6.1018240">
        <ele>1194.8</ele>
        <time>2022-07-23T16:43:12Z</time>
      </trkpt>
      <trkpt lat="46.5361930" lon="6.1017760">
        <ele>1195.0</ele>
        <time>2022-07-23T16:43:19Z</time>
      </trkpt>
      <trkpt lat="46.5360770" lon="6.1016960">
        <ele>1195.0</ele>
        <time>2022-07-23T16:43:25Z</time>
      </trkpt>
      <trkpt lat="46.5359900" lon="6.1015620">
        <ele>1195.4</ele>
        <time>2022-07-23T16:43:31Z</time>
      </trkpt>
      <trkpt lat="46.5359190" lon="6.1014600">
        <ele>1196.4</ele>
        <time>2022-07-23T16:43:36Z</time>
      </trkpt>
      <trkpt lat="46.5359080" lon="6.1014370">
        <ele>1196.4</ele>
        <time>2022-07-23T16:43:37Z</time>
      </trkpt>
      <trkpt lat="46.5358570" lon="6.1013290">
        <ele>1197.0</ele>
        <time>2022-07-23T16:43:42Z</time>
      </trkpt>
      <trkpt lat="46.5358060" lon="6.1012230">
        <ele>1197.4</ele>
        <time>2022-07-23T16:43:47Z</time>
      </trkpt>
      <trkpt lat="46.5357930" lon="6.1012020">
        <ele>1197.6</ele>
        <time>2022-07-23T16:43:48Z</time>
      </trkpt>
      <trkpt lat="46.5357150" lon="6.1010870">
        <ele>1198.4</ele>
        <time>2022-07-23T16:43:53Z</time>
      </trkpt>
      <trkpt lat="46.5356980" lon="6.1010630">
        <ele>1198.6</ele>
        <time>2022-07-23T16:43:54Z</time>
      </trkpt>
      <trkpt lat="46.5355780" lon="6.1009180">
        <ele>1199.4</ele>
        <time>2022-07-23T16:44:01Z</time>
      </trkpt>
      <trkpt lat="46.5355560" lon="6.1008990">
        <ele>1199.6</ele>
        <time>2022-07-23T16:44:02Z</time>
      </trkpt>
      <trkpt lat="46.5354780" lon="6.1008450">
        <ele>1200.0</ele>
        <time>2022-07-23T16:44:06Z</time>
      </trkpt>
      <trkpt lat="46.5353920" lon="6.1007970">
        <ele>1200.6</ele>
        <time>2022-07-23T16:44:10Z</time>
      </trkpt>
      <trkpt lat="46.5353280" lon="6.1007710">
        <ele>1201.4</ele>
        <time>2022-07-23T16:44:13Z</time>
      </trkpt>
      <trkpt lat="46.5352810" lon="6.1007580">
        <ele>1201.8</ele>
        <time>2022-07-23T16:44:15Z</time>
      </trkpt>
      <trkpt lat="46.5351920" lon="6.1007390">
        <ele>1202.2</ele>
        <time>2022-07-23T16:44:19Z</time>
      </trkpt>
      <trkpt lat="46.5351280" lon="6.1007360">
        <ele>1202.6</ele>
        <time>2022-07-23T16:44:22Z</time>
      </trkpt>
      <trkpt lat="46.5350260" lon="6.1007430">
        <ele>1203.6</ele>
        <time>2022-07-23T16:44:27Z</time>
      </trkpt>
      <trkpt lat="46.5349840" lon="6.1007570">
        <ele>1203.8</ele>
        <time>2022-07-23T16:44:29Z</time>
      </trkpt>
      <trkpt lat="46.5348850" lon="6.1007800">
        <ele>1204.4</ele>
        <time>2022-07-23T16:44:34Z</time>
      </trkpt>
      <trkpt lat="46.5348220" lon="6.1007910">
        <ele>1204.8</ele>
        <time>2022-07-23T16:44:37Z</time>
      </trkpt>
      <trkpt lat="46.5347060" lon="6.1008160">
        <ele>1205.6</ele>
        <time>2022-07-23T16:44:42Z</time>
      </trkpt>
      <trkpt lat="46.5346560" lon="6.1008210">
        <ele>1205.8</ele>
        <time>2022-07-23T16:44:44Z</time>
      </trkpt>
      <trkpt lat="46.5345450" lon="6.1008290">
        <ele>1206.4</ele>
        <time>2022-07-23T16:44:48Z</time>
      </trkpt>
      <trkpt lat="46.5343800" lon="6.1008470">
        <ele>1206.6</ele>
        <time>2022-07-23T16:44:54Z</time>
      </trkpt>
      <trkpt lat="46.5342000" lon="6.1007740">
        <ele>1206.6</ele>
        <time>2022-07-23T16:45:00Z</time>
      </trkpt>
      <trkpt lat="46.5340810" lon="6.1006670">
        <ele>1206.4</ele>
        <time>2022-07-23T16:45:05Z</time>
      </trkpt>
      <trkpt lat="46.5340460" lon="6.1006360">
        <ele>1206.2</ele>
        <time>2022-07-23T16:45:06Z</time>
      </trkpt>
      <trkpt lat="46.5339380" lon="6.1005080">
        <ele>1206.0</ele>
        <time>2022-07-23T16:45:09Z</time>
      </trkpt>
      <trkpt lat="46.5337630" lon="6.1001900">
        <ele>1205.4</ele>
        <time>2022-07-23T16:45:15Z</time>
      </trkpt>
      <trkpt lat="46.5336320" lon="6.0999110">
        <ele>1205.0</ele>
        <time>2022-07-23T16:45:20Z</time>
      </trkpt>
      <trkpt lat="46.5333800" lon="6.0994400">
        <ele>1205.0</ele>
        <time>2022-07-23T16:45:28Z</time>
      </trkpt>
      <trkpt lat="46.5333550" lon="6.0993840">
        <ele>1204.8</ele>
        <time>2022-07-23T16:45:29Z</time>
      </trkpt>
      <trkpt lat="46.5332820" lon="6.0992350">
        <ele>1204.8</ele>
        <time>2022-07-23T16:45:32Z</time>
      </trkpt>
      <trkpt lat="46.5331900" lon="6.0990820">
        <ele>1204.8</ele>
        <time>2022-07-23T16:45:37Z</time>
      </trkpt>
      <trkpt lat="46.5330970" lon="6.0989190">
        <ele>1205.6</ele>
        <time>2022-07-23T16:45:42Z</time>
      </trkpt>
      <trkpt lat="46.5330050" lon="6.0987480">
        <ele>1206.6</ele>
        <time>2022-07-23T16:45:47Z</time>
      </trkpt>
      <trkpt lat="46.5329850" lon="6.0987160">
        <ele>1206.8</ele>
        <time>2022-07-23T16:45:48Z</time>
      </trkpt>
      <trkpt lat="46.5329010" lon="6.0985960">
        <ele>1207.6</ele>
        <time>2022-07-23T16:45:52Z</time>
      </trkpt>
      <trkpt lat="46.5328260" lon="6.0984830">
        <ele>1208.0</ele>
        <time>2022-07-23T16:45:55Z</time>
      </trkpt>
      <trkpt lat="46.5327180" lon="6.0982920">
        <ele>1208.6</ele>
        <time>2022-07-23T16:46:00Z</time>
      </trkpt>
      <trkpt lat="46.5326820" lon="6.0982150">
        <ele>1208.8</ele>
        <time>2022-07-23T16:46:02Z</time>
      </trkpt>
      <trkpt lat="46.5325660" lon="6.0979590">
        <ele>1209.0</ele>
        <time>2022-07-23T16:46:09Z</time>
      </trkpt>
      <trkpt lat="46.5324970" lon="6.0978140">
        <ele>1209.4</ele>
        <time>2022-07-23T16:46:13Z</time>
      </trkpt>
      <trkpt lat="46.5324390" lon="6.0977170">
        <ele>1209.8</ele>
        <time>2022-07-23T16:46:16Z</time>
      </trkpt>
      <trkpt lat="46.5323460" lon="6.0975570">
        <ele>1210.4</ele>
        <time>2022-07-23T16:46:21Z</time>
      </trkpt>
      <trkpt lat="46.5322990" lon="6.0974570">
        <ele>1210.8</ele>
        <time>2022-07-23T16:46:24Z</time>
      </trkpt>
      <trkpt lat="46.5322330" lon="6.0973180">
        <ele>1211.6</ele>
        <time>2022-07-23T16:46:28Z</time>
      </trkpt>
      <trkpt lat="46.5321980" lon="6.0972140">
        <ele>1212.2</ele>
        <time>2022-07-23T16:46:31Z</time>
      </trkpt>
      <trkpt lat="46.5321380" lon="6.0971180">
        <ele>1212.6</ele>
        <time>2022-07-23T16:46:34Z</time>
      </trkpt>
      <trkpt lat="46.5320730" lon="6.0970070">
        <ele>1212.6</ele>
        <time>2022-07-23T16:46:38Z</time>
      </trkpt>
      <trkpt lat="46.5320050" lon="6.0968760">
        <ele>1213.0</ele>
        <time>2022-07-23T16:46:43Z</time>
      </trkpt>
      <trkpt lat="46.5319620" lon="6.0968040">
        <ele>1213.6</ele>
        <time>2022-07-23T16:46:46Z</time>
      </trkpt>
      <trkpt lat="46.5319320" lon="6.0967500">
        <ele>1214.0</ele>
        <time>2022-07-23T16:46:48Z</time>
      </trkpt>
      <trkpt lat="46.5318460" lon="6.0966270">
        <ele>1214.6</ele>
        <time>2022-07-23T16:46:52Z</time>
      </trkpt>
      <trkpt lat="46.5318030" lon="6.0965620">
        <ele>1215.0</ele>
        <time>2022-07-23T16:46:54Z</time>
      </trkpt>
      <trkpt lat="46.5317310" lon="6.0964400">
        <ele>1215.6</ele>
        <time>2022-07-23T16:46:58Z</time>
      </trkpt>
      <trkpt lat="46.5317070" lon="6.0964030">
        <ele>1215.8</ele>
        <time>2022-07-23T16:46:59Z</time>
      </trkpt>
      <trkpt lat="46.5315650" lon="6.0961910">
        <ele>1216.2</ele>
        <time>2022-07-23T16:47:05Z</time>
      </trkpt>
      <trkpt lat="46.5314320" lon="6.0960170">
        <ele>1216.4</ele>
        <time>2022-07-23T16:47:11Z</time>
      </trkpt>
      <trkpt lat="46.5314110" lon="6.0959910">
        <ele>1216.6</ele>
        <time>2022-07-23T16:47:12Z</time>
      </trkpt>
      <trkpt lat="46.5313050" lon="6.0958460">
        <ele>1217.2</ele>
        <time>2022-07-23T16:47:17Z</time>
      </trkpt>
      <trkpt lat="46.5312480" lon="6.0957490">
        <ele>1217.8</ele>
        <time>2022-07-23T16:47:20Z</time>
      </trkpt>
      <trkpt lat="46.5311590" lon="6.0956290">
        <ele>1218.2</ele>
        <time>2022-07-23T16:47:24Z</time>
      </trkpt>
      <trkpt lat="46.5310650" lon="6.0955180">
        <ele>1218.6</ele>
        <time>2022-07-23T16:47:29Z</time>
      </trkpt>
      <trkpt lat="46.5310350" lon="6.0954960">
        <ele>1218.8</ele>
        <time>2022-07-23T16:47:30Z</time>
      </trkpt>
      <trkpt lat="46.5309060" lon="6.0953670">
        <ele>1219.4</ele>
        <time>2022-07-23T16:47:36Z</time>
      </trkpt>
      <trkpt lat="46.5308850" lon="6.0953400">
        <ele>1219.8</ele>
        <time>2022-07-23T16:47:37Z</time>
      </trkpt>
      <trkpt lat="46.5307880" lon="6.0952030">
        <ele>1220.6</ele>
        <time>2022-07-23T16:47:42Z</time>
      </trkpt>
      <trkpt lat="46.5307500" lon="6.0951490">
        <ele>1220.8</ele>
        <time>2022-07-23T16:47:44Z</time>
      </trkpt>
      <trkpt lat="46.5306680" lon="6.0950500">
        <ele>1221.4</ele>
        <time>2022-07-23T16:47:49Z</time>
      </trkpt>
      <trkpt lat="46.5305920" lon="6.0949900">
        <ele>1221.8</ele>
        <time>2022-07-23T16:47:53Z</time>
      </trkpt>
      <trkpt lat="46.5305580" lon="6.0949580">
        <ele>1222.0</ele>
        <time>2022-07-23T16:47:55Z</time>
      </trkpt>
      <trkpt lat="46.5304740" lon="6.0948500">
        <ele>1222.6</ele>
        <time>2022-07-23T16:48:01Z</time>
      </trkpt>
      <trkpt lat="46.5304610" lon="6.0948370">
        <ele>1222.8</ele>
        <time>2022-07-23T16:48:02Z</time>
      </trkpt>
      <trkpt lat="46.5303310" lon="6.0947540">
        <ele>1223.8</ele>
        <time>2022-07-23T16:48:08Z</time>
      </trkpt>
      <trkpt lat="46.5303160" lon="6.0947360">
        <ele>1224.0</ele>
        <time>2022-07-23T16:48:09Z</time>
      </trkpt>
      <trkpt lat="46.5302430" lon="6.0946570">
        <ele>1225.0</ele>
        <time>2022-07-23T16:48:15Z</time>
      </trkpt>
      <trkpt lat="46.5301620" lon="6.0945930">
        <ele>1226.0</ele>
        <time>2022-07-23T16:48:19Z</time>
      </trkpt>
      <trkpt lat="46.5301280" lon="6.0945550">
        <ele>1226.4</ele>
        <time>2022-07-23T16:48:21Z</time>
      </trkpt>
      <trkpt lat="46.5300700" lon="6.0945020">
        <ele>1227.0</ele>
        <time>2022-07-23T16:48:24Z</time>
      </trkpt>
      <trkpt lat="46.5300330" lon="6.0944710">
        <ele>1227.4</ele>
        <time>2022-07-23T16:48:26Z</time>
      </trkpt>
      <trkpt lat="46.5298990" lon="6.0943720">
        <ele>1228.4</ele>
        <time>2022-07-23T16:48:32Z</time>
      </trkpt>
      <trkpt lat="46.5298800" lon="6.0943550">
        <ele>1228.4</ele>
        <time>2022-07-23T16:48:33Z</time>
      </trkpt>
      <trkpt lat="46.5297850" lon="6.0942630">
        <ele>1229.2</ele>
        <time>2022-07-23T16:48:39Z</time>
      </trkpt>
      <trkpt lat="46.5297680" lon="6.0942480">
        <ele>1229.2</ele>
        <time>2022-07-23T16:48:40Z</time>
      </trkpt>
      <trkpt lat="46.5296660" lon="6.0941310">
        <ele>1230.0</ele>
        <time>2022-07-23T16:48:46Z</time>
      </trkpt>
      <trkpt lat="46.5296130" lon="6.0940770">
        <ele>1230.2</ele>
        <time>2022-07-23T16:48:49Z</time>
      </trkpt>
      <trkpt lat="46.5295590" lon="6.0940090">
        <ele>1230.6</ele>
        <time>2022-07-23T16:48:53Z</time>
      </trkpt>
      <trkpt lat="46.5295030" lon="6.0939440">
        <ele>1231.2</ele>
        <time>2022-07-23T16:48:57Z</time>
      </trkpt>
      <trkpt lat="46.5294580" lon="6.0938890">
        <ele>1231.8</ele>
        <time>2022-07-23T16:49:01Z</time>
      </trkpt>
      <trkpt lat="46.5294070" lon="6.0938320">
        <ele>1232.4</ele>
        <time>2022-07-23T16:49:05Z</time>
      </trkpt>
      <trkpt lat="46.5293510" lon="6.0937860">
        <ele>1232.8</ele>
        <time>2022-07-23T16:49:08Z</time>
      </trkpt>
      <trkpt lat="46.5292790" lon="6.0937370">
        <ele>1233.4</ele>
        <time>2022-07-23T16:49:12Z</time>
      </trkpt>
      <trkpt lat="46.5292410" lon="6.0937100">
        <ele>1233.6</ele>
        <time>2022-07-23T16:49:14Z</time>
      </trkpt>
      <trkpt lat="46.5291760" lon="6.0936650">
        <ele>1234.2</ele>
        <time>2022-07-23T16:49:18Z</time>
      </trkpt>
      <trkpt lat="46.5291410" lon="6.0936530">
        <ele>1234.4</ele>
        <time>2022-07-23T16:49:20Z</time>
      </trkpt>
      <trkpt lat="46.5290600" lon="6.0936280">
        <ele>1235.4</ele>
        <time>2022-07-23T16:49:25Z</time>
      </trkpt>
      <trkpt lat="46.5290470" lon="6.0936200">
        <ele>1235.6</ele>
        <time>2022-07-23T16:49:26Z</time>
      </trkpt>
      <trkpt lat="46.5289780" lon="6.0935810">
        <ele>1236.6</ele>
        <time>2022-07-23T16:49:31Z</time>
      </trkpt>
      <trkpt lat="46.5289730" lon="6.0935760">
        <ele>1236.6</ele>
        <time>2022-07-23T16:49:32Z</time>
      </trkpt>
      <trkpt lat="46.5289680" lon="6.0935660">
        <ele>1236.6</ele>
        <time>2022-07-23T16:49:34Z</time>
      </trkpt>
      <trkpt lat="46.5289130" lon="6.0934420">
        <ele>1236.6</ele>
        <time>2022-07-23T16:49:42Z</time>
      </trkpt>
      <trkpt lat="46.5288980" lon="6.0934060">
        <ele>1236.6</ele>
        <time>2022-07-23T16:49:44Z</time>
      </trkpt>
      <trkpt lat="46.5288440" lon="6.0932820">
        <ele>1236.4</ele>
        <time>2022-07-23T16:49:49Z</time>
      </trkpt>
      <trkpt lat="46.5287590" lon="6.0930350">
        <ele>1236.0</ele>
        <time>2022-07-23T16:49:54Z</time>
      </trkpt>
      <trkpt lat="46.5286850" lon="6.0928140">
        <ele>1235.6</ele>
        <time>2022-07-23T16:49:57Z</time>
      </trkpt>
      <trkpt lat="46.5286570" lon="6.0927290">
        <ele>1235.4</ele>
        <time>2022-07-23T16:49:58Z</time>
      </trkpt>
      <trkpt lat="46.5285200" lon="6.0923430">
        <ele>1234.2</ele>
        <time>2022-07-23T16:50:02Z</time>
      </trkpt>
      <trkpt lat="46.5284720" lon="6.0922410">
        <ele>1234.0</ele>
        <time>2022-07-23T16:50:03Z</time>
      </trkpt>
      <trkpt lat="46.5283770" lon="6.0920440">
        <ele>1233.2</ele>
        <time>2022-07-23T16:50:05Z</time>
      </trkpt>
      <trkpt lat="46.5282260" lon="6.0917800">
        <ele>1232.2</ele>
        <time>2022-07-23T16:50:08Z</time>
      </trkpt>
      <trkpt lat="46.5281680" lon="6.0916990">
        <ele>1231.8</ele>
        <time>2022-07-23T16:50:09Z</time>
      </trkpt>
      <trkpt lat="46.5280620" lon="6.0915440">
        <ele>1230.8</ele>
        <time>2022-07-23T16:50:11Z</time>
      </trkpt>
      <trkpt lat="46.5279260" lon="6.0913310">
        <ele>1229.6</ele>
        <time>2022-07-23T16:50:14Z</time>
      </trkpt>
      <trkpt lat="46.5276820" lon="6.0909920">
        <ele>1228.6</ele>
        <time>2022-07-23T16:50:20Z</time>
      </trkpt>
      <trkpt lat="46.5276380" lon="6.0909530">
        <ele>1228.6</ele>
        <time>2022-07-23T16:50:21Z</time>
      </trkpt>
      <trkpt lat="46.5273800" lon="6.0907600">
        <ele>1228.4</ele>
        <time>2022-07-23T16:50:26Z</time>
      </trkpt>
      <trkpt lat="46.5271520" lon="6.0905030">
        <ele>1228.0</ele>
        <time>2022-07-23T16:50:30Z</time>
      </trkpt>
      <trkpt lat="46.5269720" lon="6.0902460">
        <ele>1227.4</ele>
        <time>2022-07-23T16:50:33Z</time>
      </trkpt>
      <trkpt lat="46.5268480" lon="6.0900820">
        <ele>1226.6</ele>
        <time>2022-07-23T16:50:35Z</time>
      </trkpt>
      <trkpt lat="46.5267880" lon="6.0900100">
        <ele>1226.2</ele>
        <time>2022-07-23T16:50:36Z</time>
      </trkpt>
      <trkpt lat="46.5266770" lon="6.0898720">
        <ele>1225.0</ele>
        <time>2022-07-23T16:50:38Z</time>
      </trkpt>
      <trkpt lat="46.5265750" lon="6.0897530">
        <ele>1224.0</ele>
        <time>2022-07-23T16:50:40Z</time>
      </trkpt>
      <trkpt lat="46.5265300" lon="6.0896900">
        <ele>1223.4</ele>
        <time>2022-07-23T16:50:41Z</time>
      </trkpt>
      <trkpt lat="46.5264900" lon="6.0896220">
        <ele>1222.6</ele>
        <time>2022-07-23T16:50:42Z</time>
      </trkpt>
      <trkpt lat="46.5264560" lon="6.0895470">
        <ele>1221.8</ele>
        <time>2022-07-23T16:50:43Z</time>
      </trkpt>
      <trkpt lat="46.5263910" lon="6.0893860">
        <ele>1220.2</ele>
        <time>2022-07-23T16:50:45Z</time>
      </trkpt>
      <trkpt lat="46.5264010" lon="6.0892300">
        <ele>1218.6</ele>
        <time>2022-07-23T16:50:47Z</time>
      </trkpt>
      <trkpt lat="46.5264290" lon="6.0891630">
        <ele>1218.0</ele>
        <time>2022-07-23T16:50:48Z</time>
      </trkpt>
      <trkpt lat="46.5264660" lon="6.0891050">
        <ele>1217.4</ele>
        <time>2022-07-23T16:50:49Z</time>
      </trkpt>
      <trkpt lat="46.5265040" lon="6.0890560">
        <ele>1216.8</ele>
        <time>2022-07-23T16:50:50Z</time>
      </trkpt>
      <trkpt lat="46.5265350" lon="6.0890140">
        <ele>1216.2</ele>
        <time>2022-07-23T16:50:51Z</time>
      </trkpt>
      <trkpt lat="46.5265640" lon="6.0889870">
        <ele>1215.6</ele>
        <time>2022-07-23T16:50:52Z</time>
      </trkpt>
      <trkpt lat="46.5265880" lon="6.0889670">
        <ele>1214.8</ele>
        <time>2022-07-23T16:50:53Z</time>
      </trkpt>
      <trkpt lat="46.5266500" lon="6.0889140">
        <ele>1213.8</ele>
        <time>2022-07-23T16:50:57Z</time>
      </trkpt>
      <trkpt lat="46.5266480" lon="6.0888760">
        <ele>1213.4</ele>
        <time>2022-07-23T16:51:01Z</time>
      </trkpt>
      <trkpt lat="46.5266410" lon="6.0888730">
        <ele>1213.2</ele>
        <time>2022-07-23T16:51:02Z</time>
      </trkpt>
      <trkpt lat="46.5266110" lon="6.0888950">
        <ele>1213.0</ele>
        <time>2022-07-23T16:51:05Z</time>
      </trkpt>
      <trkpt lat="46.5265500" lon="6.0889410">
        <ele>1213.0</ele>
        <time>2022-07-23T16:51:09Z</time>
      </trkpt>
      <trkpt lat="46.5264120" lon="6.0890960">
        <ele>1213.0</ele>
        <time>2022-07-23T16:51:15Z</time>
      </trkpt>
      <trkpt lat="46.5262670" lon="6.0892180">
        <ele>1213.2</ele>
        <time>2022-07-23T16:51:21Z</time>
      </trkpt>
      <trkpt lat="46.5260880" lon="6.0891930">
        <ele>1213.8</ele>
        <time>2022-07-23T16:51:28Z</time>
      </trkpt>
      <trkpt lat="46.5259580" lon="6.0891290">
        <ele>1214.6</ele>
        <time>2022-07-23T16:51:34Z</time>
      </trkpt>
      <trkpt lat="46.5259380" lon="6.0891140">
        <ele>1214.8</ele>
        <time>2022-07-23T16:51:35Z</time>
      </trkpt>
      <trkpt lat="46.5258320" lon="6.0890470">
        <ele>1215.4</ele>
        <time>2022-07-23T16:51:40Z</time>
      </trkpt>
      <trkpt lat="46.5257690" lon="6.0889670">
        <ele>1215.6</ele>
        <time>2022-07-23T16:51:43Z</time>
      </trkpt>
      <trkpt lat="46.5257040" lon="6.0888710">
        <ele>1216.0</ele>
        <time>2022-07-23T16:51:46Z</time>
      </trkpt>
      <trkpt lat="46.5255480" lon="6.0886150">
        <ele>1216.4</ele>
        <time>2022-07-23T16:51:53Z</time>
      </trkpt>
      <trkpt lat="46.5254430" lon="6.0884710">
        <ele>1216.4</ele>
        <time>2022-07-23T16:51:57Z</time>
      </trkpt>
      <trkpt lat="46.5253450" lon="6.0883680">
        <ele>1216.6</ele>
        <time>2022-07-23T16:52:00Z</time>
      </trkpt>
      <trkpt lat="46.5251470" lon="6.0881260">
        <ele>1216.6</ele>
        <time>2022-07-23T16:52:06Z</time>
      </trkpt>
      <trkpt lat="46.5249670" lon="6.0879030">
        <ele>1216.6</ele>
        <time>2022-07-23T16:52:12Z</time>
      </trkpt>
      <trkpt lat="46.5248580" lon="6.0877710">
        <ele>1216.6</ele>
        <time>2022-07-23T16:52:18Z</time>
      </trkpt>
      <trkpt lat="46.5247770" lon="6.0876250">
        <ele>1217.4</ele>
        <time>2022-07-23T16:52:23Z</time>
      </trkpt>
      <trkpt lat="46.5247640" lon="6.0875970">
        <ele>1217.8</ele>
        <time>2022-07-23T16:52:24Z</time>
      </trkpt>
      <trkpt lat="46.5247010" lon="6.0874990">
        <ele>1218.4</ele>
        <time>2022-07-23T16:52:28Z</time>
      </trkpt>
      <trkpt lat="46.5246820" lon="6.0874600">
        <ele>1218.8</ele>
        <time>2022-07-23T16:52:30Z</time>
      </trkpt>
      <trkpt lat="46.5246280" lon="6.0873650">
        <ele>1219.6</ele>
        <time>2022-07-23T16:52:34Z</time>
      </trkpt>
      <trkpt lat="46.5246030" lon="6.0873240">
        <ele>1220.0</ele>
        <time>2022-07-23T16:52:36Z</time>
      </trkpt>
      <trkpt lat="46.5245690" lon="6.0872570">
        <ele>1220.8</ele>
        <time>2022-07-23T16:52:39Z</time>
      </trkpt>
      <trkpt lat="46.5245300" lon="6.0871810">
        <ele>1221.2</ele>
        <time>2022-07-23T16:52:42Z</time>
      </trkpt>
      <trkpt lat="46.5244940" lon="6.0871020">
        <ele>1221.8</ele>
        <time>2022-07-23T16:52:45Z</time>
      </trkpt>
      <trkpt lat="46.5244690" lon="6.0870170">
        <ele>1222.2</ele>
        <time>2022-07-23T16:52:48Z</time>
      </trkpt>
      <trkpt lat="46.5244400" lon="6.0869000">
        <ele>1223.0</ele>
        <time>2022-07-23T16:52:52Z</time>
      </trkpt>
      <trkpt lat="46.5244170" lon="6.0868320">
        <ele>1223.2</ele>
        <time>2022-07-23T16:52:54Z</time>
      </trkpt>
      <trkpt lat="46.5243030" lon="6.0865780">
        <ele>1223.6</ele>
        <time>2022-07-23T16:53:00Z</time>
      </trkpt>
      <trkpt lat="46.5242190" lon="6.0864050">
        <ele>1223.8</ele>
        <time>2022-07-23T16:53:05Z</time>
      </trkpt>
      <trkpt lat="46.5241490" lon="6.0863100">
        <ele>1224.0</ele>
        <time>2022-07-23T16:53:09Z</time>
      </trkpt>
      <trkpt lat="46.5241230" lon="6.0862700">
        <ele>1224.2</ele>
        <time>2022-07-23T16:53:11Z</time>
      </trkpt>
      <trkpt lat="46.5240390" lon="6.0861570">
        <ele>1225.0</ele>
        <time>2022-07-23T16:53:16Z</time>
      </trkpt>
      <trkpt lat="46.5240050" lon="6.0860940">
        <ele>1225.2</ele>
        <time>2022-07-23T16:53:18Z</time>
      </trkpt>
      <trkpt lat="46.5238550" lon="6.0858970">
        <ele>1225.6</ele>
        <time>2022-07-23T16:53:24Z</time>
      </trkpt>
      <trkpt lat="46.5236440" lon="6.0856590">
        <ele>1225.6</ele>
        <time>2022-07-23T16:53:29Z</time>
      </trkpt>
      <trkpt lat="46.5234510" lon="6.0853800">
        <ele>1225.6</ele>
        <time>2022-07-23T16:53:35Z</time>
      </trkpt>
      <trkpt lat="46.5232680" lon="6.0851380">
        <ele>1224.8</ele>
        <time>2022-07-23T16:53:40Z</time>
      </trkpt>
      <trkpt lat="46.5232290" lon="6.0850810">
        <ele>1224.6</ele>
        <time>2022-07-23T16:53:41Z</time>
      </trkpt>
      <trkpt lat="46.5231250" lon="6.0848900">
        <ele>1224.2</ele>
        <time>2022-07-23T16:53:44Z</time>
      </trkpt>
      <trkpt lat="46.5230490" lon="6.0847550">
        <ele>1224.2</ele>
        <time>2022-07-23T16:53:46Z</time>
      </trkpt>
      <trkpt lat="46.5229390" lon="6.0845870">
        <ele>1223.8</ele>
        <time>2022-07-23T16:53:49Z</time>
      </trkpt>
      <trkpt lat="46.5227930" lon="6.0843890">
        <ele>1223.8</ele>
        <time>2022-07-23T16:53:53Z</time>
      </trkpt>
      <trkpt lat="46.5225940" lon="6.0841670">
        <ele>1224.0</ele>
        <time>2022-07-23T16:53:59Z</time>
      </trkpt>
      <trkpt lat="46.5223710" lon="6.0838030">
        <ele>1224.4</ele>
        <time>2022-07-23T16:54:06Z</time>
      </trkpt>
      <trkpt lat="46.5222840" lon="6.0836830">
        <ele>1224.4</ele>
        <time>2022-07-23T16:54:08Z</time>
      </trkpt>
      <trkpt lat="46.5221260" lon="6.0835290">
        <ele>1224.4</ele>
        <time>2022-07-23T16:54:11Z</time>
      </trkpt>
      <trkpt lat="46.5217530" lon="6.0832610">
        <ele>1223.6</ele>
        <time>2022-07-23T16:54:17Z</time>
      </trkpt>
      <trkpt lat="46.5216500" lon="6.0831540">
        <ele>1223.0</ele>
        <time>2022-07-23T16:54:19Z</time>
      </trkpt>
      <trkpt lat="46.5216060" lon="6.0830870">
        <ele>1222.8</ele>
        <time>2022-07-23T16:54:20Z</time>
      </trkpt>
      <trkpt lat="46.5215660" lon="6.0830170">
        <ele>1222.4</ele>
        <time>2022-07-23T16:54:21Z</time>
      </trkpt>
      <trkpt lat="46.5214980" lon="6.0828470">
        <ele>1221.4</ele>
        <time>2022-07-23T16:54:23Z</time>
      </trkpt>
      <trkpt lat="46.5214640" lon="6.0827530">
        <ele>1221.0</ele>
        <time>2022-07-23T16:54:24Z</time>
      </trkpt>
      <trkpt lat="46.5214180" lon="6.0826610">
        <ele>1220.8</ele>
        <time>2022-07-23T16:54:25Z</time>
      </trkpt>
      <trkpt lat="46.5213750" lon="6.0825740">
        <ele>1220.6</ele>
        <time>2022-07-23T16:54:26Z</time>
      </trkpt>
      <trkpt lat="46.5212430" lon="6.0823870">
        <ele>1220.4</ele>
        <time>2022-07-23T16:54:29Z</time>
      </trkpt>
      <trkpt lat="46.5211960" lon="6.0823450">
        <ele>1220.2</ele>
        <time>2022-07-23T16:54:30Z</time>
      </trkpt>
      <trkpt lat="46.5210130" lon="6.0822280">
        <ele>1219.4</ele>
        <time>2022-07-23T16:54:33Z</time>
      </trkpt>
      <trkpt lat="46.5209490" lon="6.0821950">
        <ele>1218.8</ele>
        <time>2022-07-23T16:54:34Z</time>
      </trkpt>
      <trkpt lat="46.5208920" lon="6.0821490">
        <ele>1218.2</ele>
        <time>2022-07-23T16:54:35Z</time>
      </trkpt>
      <trkpt lat="46.5207820" lon="6.0820390">
        <ele>1217.2</ele>
        <time>2022-07-23T16:54:37Z</time>
      </trkpt>
      <trkpt lat="46.5207290" lon="6.0819700">
        <ele>1216.8</ele>
        <time>2022-07-23T16:54:38Z</time>
      </trkpt>
      <trkpt lat="46.5206290" lon="6.0818200">
        <ele>1216.2</ele>
        <time>2022-07-23T16:54:40Z</time>
      </trkpt>
      <trkpt lat="46.5204980" lon="6.0816040">
        <ele>1215.2</ele>
        <time>2022-07-23T16:54:43Z</time>
      </trkpt>
      <trkpt lat="46.5204620" lon="6.0815450">
        <ele>1214.8</ele>
        <time>2022-07-23T16:54:44Z</time>
      </trkpt>
      <trkpt lat="46.5204060" lon="6.0814380">
        <ele>1214.4</ele>
        <time>2022-07-23T16:54:46Z</time>
      </trkpt>
      <trkpt lat="46.5203860" lon="6.0813810">
        <ele>1213.8</ele>
        <time>2022-07-23T16:54:47Z</time>
      </trkpt>
      <trkpt lat="46.5202760" lon="6.0810030">
        <ele>1213.2</ele>
        <time>2022-07-23T16:54:53Z</time>
      </trkpt>
      <trkpt lat="46.5202180" lon="6.0808860">
        <ele>1213.0</ele>
        <time>2022-07-23T16:54:55Z</time>
      </trkpt>
      <trkpt lat="46.5201260" lon="6.0807480">
        <ele>1213.0</ele>
        <time>2022-07-23T16:54:58Z</time>
      </trkpt>
      <trkpt lat="46.5199370" lon="6.0805080">
        <ele>1213.2</ele>
        <time>2022-07-23T16:55:04Z</time>
      </trkpt>
      <trkpt lat="46.5197400" lon="6.0802550">
        <ele>1213.6</ele>
        <time>2022-07-23T16:55:10Z</time>
      </trkpt>
      <trkpt lat="46.5195370" lon="6.0799410">
        <ele>1213.6</ele>
        <time>2022-07-23T16:55:16Z</time>
      </trkpt>
      <trkpt lat="46.5193290" lon="6.0795580">
        <ele>1213.2</ele>
        <time>2022-07-23T16:55:23Z</time>
      </trkpt>
      <trkpt lat="46.5191000" lon="6.0792150">
        <ele>1213.0</ele>
        <time>2022-07-23T16:55:30Z</time>
      </trkpt>
      <trkpt lat="46.5189840" lon="6.0790310">
        <ele>1213.2</ele>
        <time>2022-07-23T16:55:36Z</time>
      </trkpt>
      <trkpt lat="46.5189120" lon="6.0788950">
        <ele>1214.6</ele>
        <time>2022-07-23T16:55:41Z</time>
      </trkpt>
      <trkpt lat="46.5188720" lon="6.0788160">
        <ele>1215.4</ele>
        <time>2022-07-23T16:55:44Z</time>
      </trkpt>
      <trkpt lat="46.5188610" lon="6.0787890">
        <ele>1215.6</ele>
        <time>2022-07-23T16:55:45Z</time>
      </trkpt>
      <trkpt lat="46.5188540" lon="6.0787560">
        <ele>1216.2</ele>
        <time>2022-07-23T16:55:46Z</time>
      </trkpt>
      <trkpt lat="46.5188480" lon="6.0786940">
        <ele>1216.8</ele>
        <time>2022-07-23T16:55:48Z</time>
      </trkpt>
      <trkpt lat="46.5188430" lon="6.0786640">
        <ele>1216.8</ele>
        <time>2022-07-23T16:55:49Z</time>
      </trkpt>
      <trkpt lat="46.5188150" lon="6.0785160">
        <ele>1217.6</ele>
        <time>2022-07-23T16:55:54Z</time>
      </trkpt>
      <trkpt lat="46.5187740" lon="6.0783630">
        <ele>1218.4</ele>
        <time>2022-07-23T16:55:59Z</time>
      </trkpt>
      <trkpt lat="46.5187460" lon="6.0783010">
        <ele>1218.6</ele>
        <time>2022-07-23T16:56:01Z</time>
      </trkpt>
      <trkpt lat="46.5187010" lon="6.0782290">
        <ele>1219.0</ele>
        <time>2022-07-23T16:56:04Z</time>
      </trkpt>
      <trkpt lat="46.5186560" lon="6.0781880">
        <ele>1219.2</ele>
        <time>2022-07-23T16:56:07Z</time>
      </trkpt>
      <trkpt lat="46.5185910" lon="6.0781620">
        <ele>1219.6</ele>
        <time>2022-07-23T16:56:10Z</time>
      </trkpt>
      <trkpt lat="46.5184700" lon="6.0781660">
        <ele>1220.6</ele>
        <time>2022-07-23T16:56:15Z</time>
      </trkpt>
      <trkpt lat="46.5184480" lon="6.0781800">
        <ele>1220.8</ele>
        <time>2022-07-23T16:56:16Z</time>
      </trkpt>
      <trkpt lat="46.5183370" lon="6.0783330">
        <ele>1221.2</ele>
        <time>2022-07-23T16:56:22Z</time>
      </trkpt>
      <trkpt lat="46.5182570" lon="6.0785020">
        <ele>1221.8</ele>
        <time>2022-07-23T16:56:28Z</time>
      </trkpt>
      <trkpt lat="46.5182510" lon="6.0785300">
        <ele>1222.0</ele>
        <time>2022-07-23T16:56:29Z</time>
      </trkpt>
      <trkpt lat="46.5181890" lon="6.0786810">
        <ele>1223.0</ele>
        <time>2022-07-23T16:56:35Z</time>
      </trkpt>
      <trkpt lat="46.5181740" lon="6.0786990">
        <ele>1223.0</ele>
        <time>2022-07-23T16:56:36Z</time>
      </trkpt>
      <trkpt lat="46.5180040" lon="6.0788380">
        <ele>1224.0</ele>
        <time>2022-07-23T16:56:43Z</time>
      </trkpt>
      <trkpt lat="46.5179000" lon="6.0788750">
        <ele>1224.6</ele>
        <time>2022-07-23T16:56:48Z</time>
      </trkpt>
      <trkpt lat="46.5177920" lon="6.0788540">
        <ele>1225.2</ele>
        <time>2022-07-23T16:56:52Z</time>
      </trkpt>
      <trkpt lat="46.5177150" lon="6.0788360">
        <ele>1225.8</ele>
        <time>2022-07-23T16:56:55Z</time>
      </trkpt>
      <trkpt lat="46.5176660" lon="6.0788150">
        <ele>1226.2</ele>
        <time>2022-07-23T16:56:57Z</time>
      </trkpt>
      <trkpt lat="46.5175580" lon="6.0787590">
        <ele>1226.8</ele>
        <time>2022-07-23T16:57:02Z</time>
      </trkpt>
      <trkpt lat="46.5174520" lon="6.0787060">
        <ele>1227.2</ele>
        <time>2022-07-23T16:57:07Z</time>
      </trkpt>
      <trkpt lat="46.5174100" lon="6.0786860">
        <ele>1227.4</ele>
        <time>2022-07-23T16:57:09Z</time>
      </trkpt>
      <trkpt lat="46.5173070" lon="6.0786520">
        <ele>1227.8</ele>
        <time>2022-07-23T16:57:14Z</time>
      </trkpt>
      <trkpt lat="46.5172650" lon="6.0786330">
        <ele>1228.0</ele>
        <time>2022-07-23T16:57:16Z</time>
      </trkpt>
      <trkpt lat="46.5171550" lon="6.0785820">
        <ele>1229.0</ele>
        <time>2022-07-23T16:57:22Z</time>
      </trkpt>
      <trkpt lat="46.5171400" lon="6.0785690">
        <ele>1229.2</ele>
        <time>2022-07-23T16:57:23Z</time>
      </trkpt>
      <trkpt lat="46.5170450" lon="6.0785070">
        <ele>1230.4</ele>
        <time>2022-07-23T16:57:29Z</time>
      </trkpt>
      <trkpt lat="46.5169590" lon="6.0784460">
        <ele>1231.4</ele>
        <time>2022-07-23T16:57:35Z</time>
      </trkpt>
      <trkpt lat="46.5169450" lon="6.0784340">
        <ele>1231.6</ele>
        <time>2022-07-23T16:57:36Z</time>
      </trkpt>
      <trkpt lat="46.5168890" lon="6.0783810">
        <ele>1232.6</ele>
        <time>2022-07-23T16:57:40Z</time>
      </trkpt>
      <trkpt lat="46.5168350" lon="6.0783260">
        <ele>1233.6</ele>
        <time>2022-07-23T16:57:44Z</time>
      </trkpt>
      <trkpt lat="46.5167670" lon="6.0782650">
        <ele>1234.8</ele>
        <time>2022-07-23T16:57:49Z</time>
      </trkpt>
      <trkpt lat="46.5167090" lon="6.0782340">
        <ele>1235.0</ele>
        <time>2022-07-23T16:57:51Z</time>
      </trkpt>
      <trkpt lat="46.5166160" lon="6.0781790">
        <ele>1235.6</ele>
        <time>2022-07-23T16:57:56Z</time>
      </trkpt>
      <trkpt lat="46.5165670" lon="6.0781690">
        <ele>1235.8</ele>
        <time>2022-07-23T16:57:58Z</time>
      </trkpt>
      <trkpt lat="46.5164740" lon="6.0781320">
        <ele>1236.6</ele>
        <time>2022-07-23T16:58:03Z</time>
      </trkpt>
      <trkpt lat="46.5164570" lon="6.0781200">
        <ele>1236.8</ele>
        <time>2022-07-23T16:58:04Z</time>
      </trkpt>
      <trkpt lat="46.5163790" lon="6.0780900">
        <ele>1237.6</ele>
        <time>2022-07-23T16:58:09Z</time>
      </trkpt>
      <trkpt lat="46.5163630" lon="6.0780830">
        <ele>1237.8</ele>
        <time>2022-07-23T16:58:10Z</time>
      </trkpt>
      <trkpt lat="46.5163040" lon="6.0780690">
        <ele>1239.0</ele>
        <time>2022-07-23T16:58:14Z</time>
      </trkpt>
      <trkpt lat="46.5162740" lon="6.0780740">
        <ele>1239.4</ele>
        <time>2022-07-23T16:58:16Z</time>
      </trkpt>
      <trkpt lat="46.5162420" lon="6.0780880">
        <ele>1240.0</ele>
        <time>2022-07-23T16:58:18Z</time>
      </trkpt>
      <trkpt lat="46.5161820" lon="6.0781620">
        <ele>1240.8</ele>
        <time>2022-07-23T16:58:23Z</time>
      </trkpt>
      <trkpt lat="46.5161640" lon="6.0781990">
        <ele>1241.0</ele>
        <time>2022-07-23T16:58:25Z</time>
      </trkpt>
      <trkpt lat="46.5161530" lon="6.0782640">
        <ele>1241.4</ele>
        <time>2022-07-23T16:58:28Z</time>
      </trkpt>
      <trkpt lat="46.5161430" lon="6.0783500">
        <ele>1242.2</ele>
        <time>2022-07-23T16:58:32Z</time>
      </trkpt>
      <trkpt lat="46.5161420" lon="6.0784240">
        <ele>1242.6</ele>
        <time>2022-07-23T16:58:35Z</time>
      </trkpt>
      <trkpt lat="46.5161440" lon="6.0784770">
        <ele>1243.2</ele>
        <time>2022-07-23T16:58:37Z</time>
      </trkpt>
      <trkpt lat="46.5161370" lon="6.0786580">
        <ele>1244.2</ele>
        <time>2022-07-23T16:58:43Z</time>
      </trkpt>
      <trkpt lat="46.5160930" lon="6.0788590">
        <ele>1245.0</ele>
        <time>2022-07-23T16:58:50Z</time>
      </trkpt>
      <trkpt lat="46.5160760" lon="6.0789170">
        <ele>1245.2</ele>
        <time>2022-07-23T16:58:52Z</time>
      </trkpt>
      <trkpt lat="46.5160200" lon="6.0790500">
        <ele>1245.8</ele>
        <time>2022-07-23T16:58:57Z</time>
      </trkpt>
      <trkpt lat="46.5159890" lon="6.0791310">
        <ele>1246.4</ele>
        <time>2022-07-23T16:59:00Z</time>
      </trkpt>
      <trkpt lat="46.5159590" lon="6.0792240">
        <ele>1246.8</ele>
        <time>2022-07-23T16:59:03Z</time>
      </trkpt>
      <trkpt lat="46.5159170" lon="6.0793510">
        <ele>1247.4</ele>
        <time>2022-07-23T16:59:07Z</time>
      </trkpt>
      <trkpt lat="46.5158770" lon="6.0794310">
        <ele>1247.6</ele>
        <time>2022-07-23T16:59:10Z</time>
      </trkpt>
      <trkpt lat="46.5157310" lon="6.0796640">
        <ele>1248.4</ele>
        <time>2022-07-23T16:59:18Z</time>
      </trkpt>
      <trkpt lat="46.5157080" lon="6.0796930">
        <ele>1248.4</ele>
        <time>2022-07-23T16:59:19Z</time>
      </trkpt>
      <trkpt lat="46.5155840" lon="6.0797840">
        <ele>1248.8</ele>
        <time>2022-07-23T16:59:24Z</time>
      </trkpt>
      <trkpt lat="46.5154080" lon="6.0797740">
        <ele>1248.8</ele>
        <time>2022-07-23T16:59:31Z</time>
      </trkpt>
      <trkpt lat="46.5152770" lon="6.0796730">
        <ele>1249.2</ele>
        <time>2022-07-23T16:59:36Z</time>
      </trkpt>
      <trkpt lat="46.5150560" lon="6.0794490">
        <ele>1249.2</ele>
        <time>2022-07-23T16:59:40Z</time>
      </trkpt>
      <trkpt lat="46.5148830" lon="6.0792790">
        <ele>1248.6</ele>
        <time>2022-07-23T16:59:46Z</time>
      </trkpt>
      <trkpt lat="46.5147350" lon="6.0791340">
        <ele>1248.2</ele>
        <time>2022-07-23T16:59:52Z</time>
      </trkpt>
      <trkpt lat="46.5145940" lon="6.0789560">
        <ele>1249.0</ele>
        <time>2022-07-23T16:59:58Z</time>
      </trkpt>
      <trkpt lat="46.5144990" lon="6.0788300">
        <ele>1249.6</ele>
        <time>2022-07-23T17:00:03Z</time>
      </trkpt>
      <trkpt lat="46.5144100" lon="6.0787580">
        <ele>1249.8</ele>
        <time>2022-07-23T17:00:05Z</time>
      </trkpt>
      <trkpt lat="46.5141760" lon="6.0785880">
        <ele>1250.4</ele>
        <time>2022-07-23T17:00:12Z</time>
      </trkpt>
      <trkpt lat="46.5141040" lon="6.0785300">
        <ele>1250.6</ele>
        <time>2022-07-23T17:00:14Z</time>
      </trkpt>
      <trkpt lat="46.5139710" lon="6.0783210">
        <ele>1250.6</ele>
        <time>2022-07-23T17:00:18Z</time>
      </trkpt>
      <trkpt lat="46.5138420" lon="6.0779760">
        <ele>1251.4</ele>
        <time>2022-07-23T17:00:25Z</time>
      </trkpt>
      <trkpt lat="46.5138210" lon="6.0779250">
        <ele>1251.6</ele>
        <time>2022-07-23T17:00:26Z</time>
      </trkpt>
      <trkpt lat="46.5137540" lon="6.0777630">
        <ele>1252.0</ele>
        <time>2022-07-23T17:00:29Z</time>
      </trkpt>
      <trkpt lat="46.5137260" lon="6.0777100">
        <ele>1252.2</ele>
        <time>2022-07-23T17:00:30Z</time>
      </trkpt>
      <trkpt lat="46.5136580" lon="6.0775960">
        <ele>1252.6</ele>
        <time>2022-07-23T17:00:32Z</time>
      </trkpt>
      <trkpt lat="46.5135050" lon="6.0773830">
        <ele>1252.8</ele>
        <time>2022-07-23T17:00:36Z</time>
      </trkpt>
      <trkpt lat="46.5132830" lon="6.0770480">
        <ele>1252.6</ele>
        <time>2022-07-23T17:00:42Z</time>
      </trkpt>
      <trkpt lat="46.5132550" lon="6.0769800">
        <ele>1252.6</ele>
        <time>2022-07-23T17:00:43Z</time>
      </trkpt>
      <trkpt lat="46.5131680" lon="6.0767900">
        <ele>1252.4</ele>
        <time>2022-07-23T17:00:46Z</time>
      </trkpt>
      <trkpt lat="46.5130970" lon="6.0766120">
        <ele>1252.4</ele>
        <time>2022-07-23T17:00:49Z</time>
      </trkpt>
      <trkpt lat="46.5130290" lon="6.0764430">
        <ele>1252.4</ele>
        <time>2022-07-23T17:00:52Z</time>
      </trkpt>
      <trkpt lat="46.5128680" lon="6.0762770">
        <ele>1252.6</ele>
        <time>2022-07-23T17:00:56Z</time>
      </trkpt>
      <trkpt lat="46.5128150" lon="6.0762640">
        <ele>1252.6</ele>
        <time>2022-07-23T17:00:57Z</time>
      </trkpt>
      <trkpt lat="46.5126920" lon="6.0762590">
        <ele>1252.6</ele>
        <time>2022-07-23T17:00:59Z</time>
      </trkpt>
      <trkpt lat="46.5126260" lon="6.0762590">
        <ele>1252.6</ele>
        <time>2022-07-23T17:01:00Z</time>
      </trkpt>
      <trkpt lat="46.5125600" lon="6.0762510">
        <ele>1252.6</ele>
        <time>2022-07-23T17:01:01Z</time>
      </trkpt>
      <trkpt lat="46.5123790" lon="6.0761590">
        <ele>1252.6</ele>
        <time>2022-07-23T17:01:04Z</time>
      </trkpt>
      <trkpt lat="46.5122230" lon="6.0759690">
        <ele>1252.2</ele>
        <time>2022-07-23T17:01:08Z</time>
      </trkpt>
      <trkpt lat="46.5122000" lon="6.0759190">
        <ele>1252.0</ele>
        <time>2022-07-23T17:01:09Z</time>
      </trkpt>
      <trkpt lat="46.5121460" lon="6.0757170">
        <ele>1252.0</ele>
        <time>2022-07-23T17:01:13Z</time>
      </trkpt>
      <trkpt lat="46.5120820" lon="6.0754300">
        <ele>1252.2</ele>
        <time>2022-07-23T17:01:18Z</time>
      </trkpt>
      <trkpt lat="46.5119860" lon="6.0751330">
        <ele>1252.6</ele>
        <time>2022-07-23T17:01:24Z</time>
      </trkpt>
      <trkpt lat="46.5118810" lon="6.0749020">
        <ele>1253.4</ele>
        <time>2022-07-23T17:01:31Z</time>
      </trkpt>
      <trkpt lat="46.5118650" lon="6.0748770">
        <ele>1253.6</ele>
        <time>2022-07-23T17:01:32Z</time>
      </trkpt>
      <trkpt lat="46.5117720" lon="6.0747370">
        <ele>1255.0</ele>
        <time>2022-07-23T17:01:37Z</time>
      </trkpt>
      <trkpt lat="46.5116220" lon="6.0744850">
        <ele>1256.0</ele>
        <time>2022-07-23T17:01:44Z</time>
      </trkpt>
      <trkpt lat="46.5116000" lon="6.0744500">
        <ele>1256.0</ele>
        <time>2022-07-23T17:01:45Z</time>
      </trkpt>
      <trkpt lat="46.5114300" lon="6.0741730">
        <ele>1256.2</ele>
        <time>2022-07-23T17:01:52Z</time>
      </trkpt>
      <trkpt lat="46.5112220" lon="6.0739040">
        <ele>1255.8</ele>
        <time>2022-07-23T17:01:57Z</time>
      </trkpt>
      <trkpt lat="46.5109730" lon="6.0735650">
        <ele>1255.4</ele>
        <time>2022-07-23T17:02:01Z</time>
      </trkpt>
      <trkpt lat="46.5108280" lon="6.0733590">
        <ele>1254.8</ele>
        <time>2022-07-23T17:02:03Z</time>
      </trkpt>
      <trkpt lat="46.5105960" lon="6.0730400">
        <ele>1252.8</ele>
        <time>2022-07-23T17:02:06Z</time>
      </trkpt>
      <trkpt lat="46.5105230" lon="6.0729190">
        <ele>1251.8</ele>
        <time>2022-07-23T17:02:07Z</time>
      </trkpt>
      <trkpt lat="46.5104450" lon="6.0727930">
        <ele>1250.8</ele>
        <time>2022-07-23T17:02:08Z</time>
      </trkpt>
      <trkpt lat="46.5103690" lon="6.0726550">
        <ele>1249.8</ele>
        <time>2022-07-23T17:02:09Z</time>
      </trkpt>
      <trkpt lat="46.5102270" lon="6.0723820">
        <ele>1248.0</ele>
        <time>2022-07-23T17:02:11Z</time>
      </trkpt>
      <trkpt lat="46.5101600" lon="6.0722510">
        <ele>1247.2</ele>
        <time>2022-07-23T17:02:12Z</time>
      </trkpt>
      <trkpt lat="46.5100970" lon="6.0721290">
        <ele>1246.4</ele>
        <time>2022-07-23T17:02:13Z</time>
      </trkpt>
      <trkpt lat="46.5099740" lon="6.0718970">
        <ele>1245.0</ele>
        <time>2022-07-23T17:02:15Z</time>
      </trkpt>
      <trkpt lat="46.5099220" lon="6.0717910">
        <ele>1243.8</ele>
        <time>2022-07-23T17:02:16Z</time>
      </trkpt>
      <trkpt lat="46.5098760" lon="6.0716840">
        <ele>1242.6</ele>
        <time>2022-07-23T17:02:17Z</time>
      </trkpt>
      <trkpt lat="46.5098280" lon="6.0715790">
        <ele>1241.2</ele>
        <time>2022-07-23T17:02:18Z</time>
      </trkpt>
      <trkpt lat="46.5097890" lon="6.0714730">
        <ele>1240.2</ele>
        <time>2022-07-23T17:02:19Z</time>
      </trkpt>
      <trkpt lat="46.5097500" lon="6.0713640">
        <ele>1239.2</ele>
        <time>2022-07-23T17:02:20Z</time>
      </trkpt>
      <trkpt lat="46.5097140" lon="6.0712520">
        <ele>1238.6</ele>
        <time>2022-07-23T17:02:21Z</time>
      </trkpt>
      <trkpt lat="46.5096840" lon="6.0711310">
        <ele>1238.0</ele>
        <time>2022-07-23T17:02:22Z</time>
      </trkpt>
      <trkpt lat="46.5096520" lon="6.0710120">
        <ele>1237.4</ele>
        <time>2022-07-23T17:02:23Z</time>
      </trkpt>
      <trkpt lat="46.5094890" lon="6.0706040">
        <ele>1236.0</ele>
        <time>2022-07-23T17:02:27Z</time>
      </trkpt>
      <trkpt lat="46.5094490" lon="6.0705420">
        <ele>1235.6</ele>
        <time>2022-07-23T17:02:28Z</time>
      </trkpt>
      <trkpt lat="46.5093850" lon="6.0704620">
        <ele>1234.6</ele>
        <time>2022-07-23T17:02:30Z</time>
      </trkpt>
      <trkpt lat="46.5092410" lon="6.0703840">
        <ele>1234.0</ele>
        <time>2022-07-23T17:02:35Z</time>
      </trkpt>
      <trkpt lat="46.5090400" lon="6.0703060">
        <ele>1234.2</ele>
        <time>2022-07-23T17:02:41Z</time>
      </trkpt>
      <trkpt lat="46.5090050" lon="6.0702790">
        <ele>1234.2</ele>
        <time>2022-07-23T17:02:42Z</time>
      </trkpt>
      <trkpt lat="46.5088380" lon="6.0701430">
        <ele>1234.2</ele>
        <time>2022-07-23T17:02:46Z</time>
      </trkpt>
      <trkpt lat="46.5085720" lon="6.0699180">
        <ele>1234.2</ele>
        <time>2022-07-23T17:02:51Z</time>
      </trkpt>
      <trkpt lat="46.5084680" lon="6.0698040">
        <ele>1234.0</ele>
        <time>2022-07-23T17:02:53Z</time>
      </trkpt>
      <trkpt lat="46.5083730" lon="6.0696820">
        <ele>1233.6</ele>
        <time>2022-07-23T17:02:55Z</time>
      </trkpt>
      <trkpt lat="46.5082260" lon="6.0694750">
        <ele>1232.6</ele>
        <time>2022-07-23T17:02:58Z</time>
      </trkpt>
      <trkpt lat="46.5081780" lon="6.0693990">
        <ele>1232.0</ele>
        <time>2022-07-23T17:02:59Z</time>
      </trkpt>
      <trkpt lat="46.5080270" lon="6.0691500">
        <ele>1230.8</ele>
        <time>2022-07-23T17:03:02Z</time>
      </trkpt>
      <trkpt lat="46.5079730" lon="6.0690600">
        <ele>1230.4</ele>
        <time>2022-07-23T17:03:03Z</time>
      </trkpt>
      <trkpt lat="46.5078640" lon="6.0688830">
        <ele>1229.4</ele>
        <time>2022-07-23T17:03:05Z</time>
      </trkpt>
      <trkpt lat="46.5076580" lon="6.0684600">
        <ele>1228.2</ele>
        <time>2022-07-23T17:03:09Z</time>
      </trkpt>
      <trkpt lat="46.5075670" lon="6.0682200">
        <ele>1227.0</ele>
        <time>2022-07-23T17:03:11Z</time>
      </trkpt>
      <trkpt lat="46.5074700" lon="6.0679960">
        <ele>1226.0</ele>
        <time>2022-07-23T17:03:13Z</time>
      </trkpt>
      <trkpt lat="46.5073350" lon="6.0676700">
        <ele>1224.6</ele>
        <time>2022-07-23T17:03:16Z</time>
      </trkpt>
      <trkpt lat="46.5072570" lon="6.0674670">
        <ele>1223.4</ele>
        <time>2022-07-23T17:03:18Z</time>
      </trkpt>
      <trkpt lat="46.5072240" lon="6.0673680">
        <ele>1223.2</ele>
        <time>2022-07-23T17:03:19Z</time>
      </trkpt>
      <trkpt lat="46.5071190" lon="6.0668780">
        <ele>1222.6</ele>
        <time>2022-07-23T17:03:24Z</time>
      </trkpt>
      <trkpt lat="46.5070950" lon="6.0667870">
        <ele>1222.6</ele>
        <time>2022-07-23T17:03:25Z</time>
      </trkpt>
      <trkpt lat="46.5069960" lon="6.0665570">
        <ele>1222.6</ele>
        <time>2022-07-23T17:03:28Z</time>
      </trkpt>
      <trkpt lat="46.5067540" lon="6.0661830">
        <ele>1222.4</ele>
        <time>2022-07-23T17:03:34Z</time>
      </trkpt>
      <trkpt lat="46.5067130" lon="6.0661290">
        <ele>1222.4</ele>
        <time>2022-07-23T17:03:35Z</time>
      </trkpt>
      <trkpt lat="46.5066350" lon="6.0660150">
        <ele>1222.4</ele>
        <time>2022-07-23T17:03:37Z</time>
      </trkpt>
      <trkpt lat="46.5065200" lon="6.0658140">
        <ele>1222.4</ele>
        <time>2022-07-23T17:03:40Z</time>
      </trkpt>
      <trkpt lat="46.5064920" lon="6.0657450">
        <ele>1222.4</ele>
        <time>2022-07-23T17:03:41Z</time>
      </trkpt>
      <trkpt lat="46.5064120" lon="6.0654820">
        <ele>1222.4</ele>
        <time>2022-07-23T17:03:45Z</time>
      </trkpt>
      <trkpt lat="46.5064000" lon="6.0654150">
        <ele>1222.2</ele>
        <time>2022-07-23T17:03:46Z</time>
      </trkpt>
      <trkpt lat="46.5063460" lon="6.0652150">
        <ele>1222.2</ele>
        <time>2022-07-23T17:03:49Z</time>
      </trkpt>
      <trkpt lat="46.5063140" lon="6.0651490">
        <ele>1222.0</ele>
        <time>2022-07-23T17:03:50Z</time>
      </trkpt>
      <trkpt lat="46.5061550" lon="6.0649330">
        <ele>1222.0</ele>
        <time>2022-07-23T17:03:54Z</time>
      </trkpt>
      <trkpt lat="46.5061170" lon="6.0648860">
        <ele>1221.8</ele>
        <time>2022-07-23T17:03:55Z</time>
      </trkpt>
      <trkpt lat="46.5060170" lon="6.0647240">
        <ele>1221.8</ele>
        <time>2022-07-23T17:03:58Z</time>
      </trkpt>
      <trkpt lat="46.5059550" lon="6.0645980">
        <ele>1221.6</ele>
        <time>2022-07-23T17:04:00Z</time>
      </trkpt>
      <trkpt lat="46.5059200" lon="6.0645390">
        <ele>1221.6</ele>
        <time>2022-07-23T17:04:01Z</time>
      </trkpt>
      <trkpt lat="46.5058300" lon="6.0643770">
        <ele>1221.4</ele>
        <time>2022-07-23T17:04:04Z</time>
      </trkpt>
      <trkpt lat="46.5057990" lon="6.0643290">
        <ele>1221.4</ele>
        <time>2022-07-23T17:04:05Z</time>
      </trkpt>
      <trkpt lat="46.5055720" lon="6.0639430">
        <ele>1221.4</ele>
        <time>2022-07-23T17:04:13Z</time>
      </trkpt>
      <trkpt lat="46.5054340" lon="6.0637060">
        <ele>1221.6</ele>
        <time>2022-07-23T17:04:18Z</time>
      </trkpt>
      <trkpt lat="46.5051400" lon="6.0635610">
        <ele>1221.6</ele>
        <time>2022-07-23T17:04:21Z</time>
      </trkpt>
      <trkpt lat="46.5047390" lon="6.0634660">
        <ele>1221.0</ele>
        <time>2022-07-23T17:04:26Z</time>
      </trkpt>
      <trkpt lat="46.5046050" lon="6.0634260">
        <ele>1220.0</ele>
        <time>2022-07-23T17:04:28Z</time>
      </trkpt>
      <trkpt lat="46.5044850" lon="6.0633790">
        <ele>1218.8</ele>
        <time>2022-07-23T17:04:30Z</time>
      </trkpt>
      <trkpt lat="46.5043730" lon="6.0633490">
        <ele>1217.6</ele>
        <time>2022-07-23T17:04:32Z</time>
      </trkpt>
      <trkpt lat="46.5041210" lon="6.0634160">
        <ele>1217.4</ele>
        <time>2022-07-23T17:04:37Z</time>
      </trkpt>
      <trkpt lat="46.5039890" lon="6.0636320">
        <ele>1217.2</ele>
        <time>2022-07-23T17:04:41Z</time>
      </trkpt>
      <trkpt lat="46.5039290" lon="6.0637530">
        <ele>1217.2</ele>
        <time>2022-07-23T17:04:43Z</time>
      </trkpt>
      <trkpt lat="46.5037840" lon="6.0638860">
        <ele>1217.2</ele>
        <time>2022-07-23T17:04:46Z</time>
      </trkpt>
      <trkpt lat="46.5035820" lon="6.0638810">
        <ele>1217.2</ele>
        <time>2022-07-23T17:04:49Z</time>
      </trkpt>
      <trkpt lat="46.5035050" lon="6.0638600">
        <ele>1217.2</ele>
        <time>2022-07-23T17:04:50Z</time>
      </trkpt>
      <trkpt lat="46.5032020" lon="6.0638490">
        <ele>1216.8</ele>
        <time>2022-07-23T17:04:54Z</time>
      </trkpt>
      <trkpt lat="46.5031690" lon="6.0638640">
        <ele>1216.6</ele>
        <time>2022-07-23T17:04:55Z</time>
      </trkpt>
      <trkpt lat="46.5031370" lon="6.0638780">
        <ele>1216.4</ele>
        <time>2022-07-23T17:04:56Z</time>
      </trkpt>
      <trkpt lat="46.5029630" lon="6.0640500">
        <ele>1215.8</ele>
        <time>2022-07-23T17:04:58Z</time>
      </trkpt>
      <trkpt lat="46.5029270" lon="6.0641130">
        <ele>1215.2</ele>
        <time>2022-07-23T17:04:59Z</time>
      </trkpt>
      <trkpt lat="46.5028600" lon="6.0642220">
        <ele>1214.2</ele>
        <time>2022-07-23T17:05:01Z</time>
      </trkpt>
      <trkpt lat="46.5028260" lon="6.0642510">
        <ele>1213.0</ele>
        <time>2022-07-23T17:05:02Z</time>
      </trkpt>
      <trkpt lat="46.5027650" lon="6.0642510">
        <ele>1211.8</ele>
        <time>2022-07-23T17:05:04Z</time>
      </trkpt>
      <trkpt lat="46.5027140" lon="6.0641570">
        <ele>1210.6</ele>
        <time>2022-07-23T17:05:07Z</time>
      </trkpt>
      <trkpt lat="46.5026980" lon="6.0641130">
        <ele>1210.6</ele>
        <time>2022-07-23T17:05:08Z</time>
      </trkpt>
      <trkpt lat="46.5026190" lon="6.0639000">
        <ele>1210.4</ele>
        <time>2022-07-23T17:05:12Z</time>
      </trkpt>
      <trkpt lat="46.5025980" lon="6.0638390">
        <ele>1210.4</ele>
        <time>2022-07-23T17:05:13Z</time>
      </trkpt>
      <trkpt lat="46.5024060" lon="6.0633410">
        <ele>1210.2</ele>
        <time>2022-07-23T17:05:21Z</time>
      </trkpt>
      <trkpt lat="46.5022080" lon="6.0629200">
        <ele>1209.4</ele>
        <time>2022-07-23T17:05:29Z</time>
      </trkpt>
      <trkpt lat="46.5020930" lon="6.0626640">
        <ele>1208.8</ele>
        <time>2022-07-23T17:05:34Z</time>
      </trkpt>
      <trkpt lat="46.5020260" lon="6.0625140">
        <ele>1208.8</ele>
        <time>2022-07-23T17:05:39Z</time>
      </trkpt>
      <trkpt lat="46.5019700" lon="6.0623660">
        <ele>1209.0</ele>
        <time>2022-07-23T17:05:45Z</time>
      </trkpt>
      <trkpt lat="46.5019540" lon="6.0623250">
        <ele>1209.4</ele>
        <time>2022-07-23T17:05:49Z</time>
      </trkpt>
      <trkpt lat="46.5018930" lon="6.0620820">
        <ele>1211.4</ele>
        <time>2022-07-23T17:06:24Z</time>
      </trkpt>
      <trkpt lat="46.5018820" lon="6.0620640">
        <ele>1211.6</ele>
        <time>2022-07-23T17:06:25Z</time>
      </trkpt>
      <trkpt lat="46.5017940" lon="6.0618800">
        <ele>1211.8</ele>
        <time>2022-07-23T17:06:31Z</time>
      </trkpt>
      <trkpt lat="46.5017100" lon="6.0616900">
        <ele>1212.0</ele>
        <time>2022-07-23T17:06:38Z</time>
      </trkpt>
      <trkpt lat="46.5016930" lon="6.0616590">
        <ele>1212.4</ele>
        <time>2022-07-23T17:06:39Z</time>
      </trkpt>
      <trkpt lat="46.5015760" lon="6.0614880">
        <ele>1213.2</ele>
        <time>2022-07-23T17:06:45Z</time>
      </trkpt>
      <trkpt lat="46.5015550" lon="6.0614600">
        <ele>1213.4</ele>
        <time>2022-07-23T17:06:46Z</time>
      </trkpt>
      <trkpt lat="46.5014260" lon="6.0612380">
        <ele>1213.8</ele>
        <time>2022-07-23T17:06:52Z</time>
      </trkpt>
      <trkpt lat="46.5012070" lon="6.0608590">
        <ele>1213.6</ele>
        <time>2022-07-23T17:07:00Z</time>
      </trkpt>
      <trkpt lat="46.5010600" lon="6.0606400">
        <ele>1213.2</ele>
        <time>2022-07-23T17:07:05Z</time>
      </trkpt>
      <trkpt lat="46.5010300" lon="6.0605860">
        <ele>1213.2</ele>
        <time>2022-07-23T17:07:06Z</time>
      </trkpt>
      <trkpt lat="46.5008950" lon="6.0603540">
        <ele>1213.0</ele>
        <time>2022-07-23T17:07:10Z</time>
      </trkpt>
      <trkpt lat="46.5008620" lon="6.0602860">
        <ele>1212.8</ele>
        <time>2022-07-23T17:07:11Z</time>
      </trkpt>
      <trkpt lat="46.5007690" lon="6.0600740">
        <ele>1212.2</ele>
        <time>2022-07-23T17:07:14Z</time>
      </trkpt>
      <trkpt lat="46.5007020" lon="6.0599210">
        <ele>1211.8</ele>
        <time>2022-07-23T17:07:16Z</time>
      </trkpt>
      <trkpt lat="46.5006310" lon="6.0597760">
        <ele>1211.2</ele>
        <time>2022-07-23T17:07:18Z</time>
      </trkpt>
      <trkpt lat="46.5004980" lon="6.0595150">
        <ele>1210.2</ele>
        <time>2022-07-23T17:07:22Z</time>
      </trkpt>
      <trkpt lat="46.5004630" lon="6.0594590">
        <ele>1210.0</ele>
        <time>2022-07-23T17:07:23Z</time>
      </trkpt>
      <trkpt lat="46.5003900" lon="6.0593610">
        <ele>1209.4</ele>
        <time>2022-07-23T17:07:25Z</time>
      </trkpt>
      <trkpt lat="46.5003080" lon="6.0592780">
        <ele>1209.0</ele>
        <time>2022-07-23T17:07:27Z</time>
      </trkpt>
      <trkpt lat="46.5001480" lon="6.0590950">
        <ele>1208.4</ele>
        <time>2022-07-23T17:07:31Z</time>
      </trkpt>
      <trkpt lat="46.5001040" lon="6.0590170">
        <ele>1208.2</ele>
        <time>2022-07-23T17:07:32Z</time>
      </trkpt>
      <trkpt lat="46.5000560" lon="6.0589250">
        <ele>1207.8</ele>
        <time>2022-07-23T17:07:33Z</time>
      </trkpt>
      <trkpt lat="46.4999490" lon="6.0585910">
        <ele>1206.8</ele>
        <time>2022-07-23T17:07:36Z</time>
      </trkpt>
      <trkpt lat="46.4999040" lon="6.0584900">
        <ele>1206.2</ele>
        <time>2022-07-23T17:07:37Z</time>
      </trkpt>
      <trkpt lat="46.4997900" lon="6.0583020">
        <ele>1205.2</ele>
        <time>2022-07-23T17:07:39Z</time>
      </trkpt>
      <trkpt lat="46.4997280" lon="6.0582160">
        <ele>1204.4</ele>
        <time>2022-07-23T17:07:40Z</time>
      </trkpt>
      <trkpt lat="46.4996650" lon="6.0581320">
        <ele>1203.8</ele>
        <time>2022-07-23T17:07:41Z</time>
      </trkpt>
      <trkpt lat="46.4995510" lon="6.0579820">
        <ele>1202.4</ele>
        <time>2022-07-23T17:07:43Z</time>
      </trkpt>
      <trkpt lat="46.4994400" lon="6.0578500">
        <ele>1201.0</ele>
        <time>2022-07-23T17:07:45Z</time>
      </trkpt>
      <trkpt lat="46.4993120" lon="6.0577330">
        <ele>1200.0</ele>
        <time>2022-07-23T17:07:47Z</time>
      </trkpt>
      <trkpt lat="46.4990990" lon="6.0575810">
        <ele>1198.6</ele>
        <time>2022-07-23T17:07:50Z</time>
      </trkpt>
      <trkpt lat="46.4988680" lon="6.0574070">
        <ele>1197.0</ele>
        <time>2022-07-23T17:07:53Z</time>
      </trkpt>
      <trkpt lat="46.4987110" lon="6.0572880">
        <ele>1196.0</ele>
        <time>2022-07-23T17:07:55Z</time>
      </trkpt>
      <trkpt lat="46.4986400" lon="6.0572310">
        <ele>1195.4</ele>
        <time>2022-07-23T17:07:56Z</time>
      </trkpt>
      <trkpt lat="46.4985710" lon="6.0571770">
        <ele>1194.4</ele>
        <time>2022-07-23T17:07:57Z</time>
      </trkpt>
      <trkpt lat="46.4984310" lon="6.0570510">
        <ele>1193.2</ele>
        <time>2022-07-23T17:07:59Z</time>
      </trkpt>
      <trkpt lat="46.4983550" lon="6.0569890">
        <ele>1192.6</ele>
        <time>2022-07-23T17:08:00Z</time>
      </trkpt>
      <trkpt lat="46.4982800" lon="6.0569340">
        <ele>1192.0</ele>
        <time>2022-07-23T17:08:01Z</time>
      </trkpt>
      <trkpt lat="46.4981480" lon="6.0568500">
        <ele>1190.6</ele>
        <time>2022-07-23T17:08:03Z</time>
      </trkpt>
      <trkpt lat="46.4980900" lon="6.0568180">
        <ele>1190.0</ele>
        <time>2022-07-23T17:08:04Z</time>
      </trkpt>
      <trkpt lat="46.4980390" lon="6.0567900">
        <ele>1189.4</ele>
        <time>2022-07-23T17:08:05Z</time>
      </trkpt>
      <trkpt lat="46.4979360" lon="6.0567440">
        <ele>1187.4</ele>
        <time>2022-07-23T17:08:07Z</time>
      </trkpt>
      <trkpt lat="46.4978780" lon="6.0567320">
        <ele>1186.8</ele>
        <time>2022-07-23T17:08:08Z</time>
      </trkpt>
      <trkpt lat="46.4978260" lon="6.0567320">
        <ele>1186.6</ele>
        <time>2022-07-23T17:08:09Z</time>
      </trkpt>
      <trkpt lat="46.4977790" lon="6.0567410">
        <ele>1186.4</ele>
        <time>2022-07-23T17:08:10Z</time>
      </trkpt>
      <trkpt lat="46.4977000" lon="6.0567550">
        <ele>1186.2</ele>
        <time>2022-07-23T17:08:12Z</time>
      </trkpt>
      <trkpt lat="46.4976670" lon="6.0567620">
        <ele>1186.2</ele>
        <time>2022-07-23T17:08:13Z</time>
      </trkpt>
      <trkpt lat="46.4974570" lon="6.0568180">
        <ele>1186.6</ele>
        <time>2022-07-23T17:08:20Z</time>
      </trkpt>
      <trkpt lat="46.4973400" lon="6.0568400">
        <ele>1187.6</ele>
        <time>2022-07-23T17:08:24Z</time>
      </trkpt>
      <trkpt lat="46.4972570" lon="6.0568770">
        <ele>1188.4</ele>
        <time>2022-07-23T17:08:27Z</time>
      </trkpt>
      <trkpt lat="46.4970640" lon="6.0570190">
        <ele>1188.6</ele>
        <time>2022-07-23T17:08:32Z</time>
      </trkpt>
      <trkpt lat="46.4967440" lon="6.0572100">
        <ele>1188.6</ele>
        <time>2022-07-23T17:08:38Z</time>
      </trkpt>
      <trkpt lat="46.4966880" lon="6.0572280">
        <ele>1188.4</ele>
        <time>2022-07-23T17:08:39Z</time>
      </trkpt>
      <trkpt lat="46.4965710" lon="6.0572020">
        <ele>1187.6</ele>
        <time>2022-07-23T17:08:41Z</time>
      </trkpt>
      <trkpt lat="46.4965290" lon="6.0571660">
        <ele>1187.2</ele>
        <time>2022-07-23T17:08:42Z</time>
      </trkpt>
      <trkpt lat="46.4964510" lon="6.0570420">
        <ele>1186.6</ele>
        <time>2022-07-23T17:08:45Z</time>
      </trkpt>
      <trkpt lat="46.4964340" lon="6.0570020">
        <ele>1186.6</ele>
        <time>2022-07-23T17:08:46Z</time>
      </trkpt>
      <trkpt lat="46.4963430" lon="6.0568540">
        <ele>1186.6</ele>
        <time>2022-07-23T17:08:51Z</time>
      </trkpt>
      <trkpt lat="46.4962200" lon="6.0566790">
        <ele>1186.6</ele>
        <time>2022-07-23T17:08:56Z</time>
      </trkpt>
      <trkpt lat="46.4959130" lon="6.0564490">
        <ele>1186.6</ele>
        <time>2022-07-23T17:09:02Z</time>
      </trkpt>
      <trkpt lat="46.4956450" lon="6.0563030">
        <ele>1185.8</ele>
        <time>2022-07-23T17:09:06Z</time>
      </trkpt>
      <trkpt lat="46.4955790" lon="6.0562760">
        <ele>1185.6</ele>
        <time>2022-07-23T17:09:07Z</time>
      </trkpt>
      <trkpt lat="46.4955170" lon="6.0562460">
        <ele>1185.2</ele>
        <time>2022-07-23T17:09:08Z</time>
      </trkpt>
      <trkpt lat="46.4954670" lon="6.0561880">
        <ele>1185.0</ele>
        <time>2022-07-23T17:09:09Z</time>
      </trkpt>
      <trkpt lat="46.4954140" lon="6.0561160">
        <ele>1184.4</ele>
        <time>2022-07-23T17:09:10Z</time>
      </trkpt>
      <trkpt lat="46.4953550" lon="6.0560410">
        <ele>1184.0</ele>
        <time>2022-07-23T17:09:11Z</time>
      </trkpt>
      <trkpt lat="46.4952990" lon="6.0559610">
        <ele>1183.4</ele>
        <time>2022-07-23T17:09:12Z</time>
      </trkpt>
      <trkpt lat="46.4950290" lon="6.0555360">
        <ele>1182.0</ele>
        <time>2022-07-23T17:09:17Z</time>
      </trkpt>
      <trkpt lat="46.4949510" lon="6.0553780">
        <ele>1180.6</ele>
        <time>2022-07-23T17:09:19Z</time>
      </trkpt>
      <trkpt lat="46.4949150" lon="6.0553100">
        <ele>1180.2</ele>
        <time>2022-07-23T17:09:20Z</time>
      </trkpt>
      <trkpt lat="46.4948690" lon="6.0552560">
        <ele>1179.8</ele>
        <time>2022-07-23T17:09:21Z</time>
      </trkpt>
      <trkpt lat="46.4948190" lon="6.0552220">
        <ele>1179.4</ele>
        <time>2022-07-23T17:09:22Z</time>
      </trkpt>
      <trkpt lat="46.4947250" lon="6.0552000">
        <ele>1177.8</ele>
        <time>2022-07-23T17:09:24Z</time>
      </trkpt>
      <trkpt lat="46.4946400" lon="6.0552130">
        <ele>1176.2</ele>
        <time>2022-07-23T17:09:26Z</time>
      </trkpt>
      <trkpt lat="46.4945940" lon="6.0552260">
        <ele>1175.6</ele>
        <time>2022-07-23T17:09:27Z</time>
      </trkpt>
      <trkpt lat="46.4945480" lon="6.0552390">
        <ele>1175.0</ele>
        <time>2022-07-23T17:09:28Z</time>
      </trkpt>
      <trkpt lat="46.4945050" lon="6.0552460">
        <ele>1174.6</ele>
        <time>2022-07-23T17:09:29Z</time>
      </trkpt>
      <trkpt lat="46.4944290" lon="6.0552540">
        <ele>1173.8</ele>
        <time>2022-07-23T17:09:31Z</time>
      </trkpt>
      <trkpt lat="46.4943630" lon="6.0552330">
        <ele>1173.0</ele>
        <time>2022-07-23T17:09:33Z</time>
      </trkpt>
      <trkpt lat="46.4943380" lon="6.0552130">
        <ele>1172.4</ele>
        <time>2022-07-23T17:09:34Z</time>
      </trkpt>
      <trkpt lat="46.4943000" lon="6.0551690">
        <ele>1171.2</ele>
        <time>2022-07-23T17:09:36Z</time>
      </trkpt>
      <trkpt lat="46.4942640" lon="6.0551330">
        <ele>1170.0</ele>
        <time>2022-07-23T17:09:38Z</time>
      </trkpt>
      <trkpt lat="46.4941640" lon="6.0550290">
        <ele>1169.0</ele>
        <time>2022-07-23T17:09:45Z</time>
      </trkpt>
      <trkpt lat="46.4941610" lon="6.0550280">
        <ele>1169.0</ele>
        <time>2022-07-23T17:09:46Z</time>
      </trkpt>
      <trkpt lat="46.4941360" lon="6.0549980">
        <ele>1168.4</ele>
        <time>2022-07-23T17:10:47Z</time>
      </trkpt>
      <trkpt lat="46.4940940" lon="6.0549450">
        <ele>1168.4</ele>
        <time>2022-07-23T17:10:49Z</time>
      </trkpt>
      <trkpt lat="46.4940600" lon="6.0549110">
        <ele>1168.4</ele>
        <time>2022-07-23T17:10:50Z</time>
      </trkpt>
      <trkpt lat="46.4939650" lon="6.0548300">
        <ele>1168.2</ele>
        <time>2022-07-23T17:10:52Z</time>
      </trkpt>
      <trkpt lat="46.4937470" lon="6.0546420">
        <ele>1168.2</ele>
        <time>2022-07-23T17:10:56Z</time>
      </trkpt>
      <trkpt lat="46.4936260" lon="6.0545290">
        <ele>1166.8</ele>
        <time>2022-07-23T17:10:59Z</time>
      </trkpt>
      <trkpt lat="46.4935920" lon="6.0544800">
        <ele>1166.0</ele>
        <time>2022-07-23T17:11:00Z</time>
      </trkpt>
      <trkpt lat="46.4935600" lon="6.0544280">
        <ele>1165.0</ele>
        <time>2022-07-23T17:11:01Z</time>
      </trkpt>
      <trkpt lat="46.4934990" lon="6.0543180">
        <ele>1163.4</ele>
        <time>2022-07-23T17:11:03Z</time>
      </trkpt>
      <trkpt lat="46.4934750" lon="6.0542570">
        <ele>1162.6</ele>
        <time>2022-07-23T17:11:04Z</time>
      </trkpt>
      <trkpt lat="46.4934540" lon="6.0542020">
        <ele>1162.2</ele>
        <time>2022-07-23T17:11:05Z</time>
      </trkpt>
      <trkpt lat="46.4934370" lon="6.0541600">
        <ele>1162.2</ele>
        <time>2022-07-23T17:11:06Z</time>
      </trkpt>
      <trkpt lat="46.4934140" lon="6.0541230">
        <ele>1161.6</ele>
        <time>2022-07-23T17:11:09Z</time>
      </trkpt>
      <trkpt lat="46.4934120" lon="6.0541210">
        <ele>1161.4</ele>
        <time>2022-07-23T17:11:10Z</time>
      </trkpt>
      <trkpt lat="46.4933280" lon="6.0539900">
        <ele>1158.8</ele>
        <time>2022-07-23T17:11:26Z</time>
      </trkpt>
      <trkpt lat="46.4933050" lon="6.0539630">
        <ele>1158.6</ele>
        <time>2022-07-23T17:11:29Z</time>
      </trkpt>
      <trkpt lat="46.4932810" lon="6.0539240">
        <ele>1157.6</ele>
        <time>2022-07-23T17:11:34Z</time>
      </trkpt>
      <trkpt lat="46.4932680" lon="6.0539070">
        <ele>1156.6</ele>
        <time>2022-07-23T17:11:37Z</time>
      </trkpt>
      <trkpt lat="46.4932630" lon="6.0538970">
        <ele>1156.4</ele>
        <time>2022-07-23T17:11:38Z</time>
      </trkpt>
      <trkpt lat="46.4932350" lon="6.0538470">
        <ele>1155.4</ele>
        <time>2022-07-23T17:11:43Z</time>
      </trkpt>
      <trkpt lat="46.4932090" lon="6.0537870">
        <ele>1154.6</ele>
        <time>2022-07-23T17:11:46Z</time>
      </trkpt>
      <trkpt lat="46.4931820" lon="6.0537570">
        <ele>1154.4</ele>
        <time>2022-07-23T17:11:48Z</time>
      </trkpt>
      <trkpt lat="46.4931530" lon="6.0537270">
        <ele>1153.4</ele>
        <time>2022-07-23T17:11:51Z</time>
      </trkpt>
      <trkpt lat="46.4931430" lon="6.0537240">
        <ele>1152.8</ele>
        <time>2022-07-23T17:11:52Z</time>
      </trkpt>
      <trkpt lat="46.4931010" lon="6.0536950">
        <ele>1152.0</ele>
        <time>2022-07-23T17:11:58Z</time>
      </trkpt>
      <trkpt lat="46.4930860" lon="6.0536720">
        <ele>1151.8</ele>
        <time>2022-07-23T17:12:00Z</time>
      </trkpt>
      <trkpt lat="46.4930220" lon="6.0535800">
        <ele>1151.2</ele>
        <time>2022-07-23T17:12:08Z</time>
      </trkpt>
      <trkpt lat="46.4930160" lon="6.0535650">
        <ele>1150.8</ele>
        <time>2022-07-23T17:12:10Z</time>
      </trkpt>
      <trkpt lat="46.4929800" lon="6.0535130">
        <ele>1149.6</ele>
        <time>2022-07-23T17:12:14Z</time>
      </trkpt>
      <trkpt lat="46.4929680" lon="6.0534980">
        <ele>1149.4</ele>
        <time>2022-07-23T17:12:15Z</time>
      </trkpt>
      <trkpt lat="46.4929220" lon="6.0534500">
        <ele>1148.6</ele>
        <time>2022-07-23T17:12:19Z</time>
      </trkpt>
      <trkpt lat="46.4928720" lon="6.0533930">
        <ele>1147.8</ele>
        <time>2022-07-23T17:12:23Z</time>
      </trkpt>
      <trkpt lat="46.4928630" lon="6.0533740">
        <ele>1147.4</ele>
        <time>2022-07-23T17:12:24Z</time>
      </trkpt>
      <trkpt lat="46.4928440" lon="6.0533270">
        <ele>1146.4</ele>
        <time>2022-07-23T17:12:27Z</time>
      </trkpt>
      <trkpt lat="46.4928440" lon="6.0533190">
        <ele>1146.0</ele>
        <time>2022-07-23T17:12:28Z</time>
      </trkpt>
      <trkpt lat="46.4928330" lon="6.0532060">
        <ele>1143.6</ele>
        <time>2022-07-23T17:12:50Z</time>
      </trkpt>
      <trkpt lat="46.4928660" lon="6.0530550">
        <ele>1143.4</ele>
        <time>2022-07-23T17:12:53Z</time>
      </trkpt>
      <trkpt lat="46.4929300" lon="6.0529430">
        <ele>1143.4</ele>
        <time>2022-07-23T17:12:57Z</time>
      </trkpt>
      <trkpt lat="46.4929320" lon="6.0529280">
        <ele>1142.8</ele>
        <time>2022-07-23T17:12:59Z</time>
      </trkpt>
      <trkpt lat="46.4928670" lon="6.0525330">
        <ele>1145.4</ele>
        <time>2022-07-23T17:13:34Z</time>
      </trkpt>
      <trkpt lat="46.4928580" lon="6.0525110">
        <ele>1145.4</ele>
        <time>2022-07-23T17:13:35Z</time>
      </trkpt>
      <trkpt lat="46.4928150" lon="6.0524340">
        <ele>1145.6</ele>
        <time>2022-07-23T17:13:41Z</time>
      </trkpt>
      <trkpt lat="46.4928060" lon="6.0524210">
        <ele>1145.6</ele>
        <time>2022-07-23T17:13:43Z</time>
      </trkpt>
      <trkpt lat="46.4927820" lon="6.0523210">
        <ele>1145.6</ele>
        <time>2022-07-23T17:13:50Z</time>
      </trkpt>
      <trkpt lat="46.4927740" lon="6.0522740">
        <ele>1145.6</ele>
        <time>2022-07-23T17:13:52Z</time>
      </trkpt>
      <trkpt lat="46.4927350" lon="6.0521170">
        <ele>1145.4</ele>
        <time>2022-07-23T17:13:56Z</time>
      </trkpt>
      <trkpt lat="46.4926550" lon="6.0519020">
        <ele>1145.2</ele>
        <time>2022-07-23T17:13:59Z</time>
      </trkpt>
      <trkpt lat="46.4926310" lon="6.0518380">
        <ele>1145.0</ele>
        <time>2022-07-23T17:14:00Z</time>
      </trkpt>
      <trkpt lat="46.4925770" lon="6.0517050">
        <ele>1144.2</ele>
        <time>2022-07-23T17:14:03Z</time>
      </trkpt>
      <trkpt lat="46.4925550" lon="6.0516780">
        <ele>1143.8</ele>
        <time>2022-07-23T17:14:04Z</time>
      </trkpt>
      <trkpt lat="46.4925100" lon="6.0516500">
        <ele>1142.8</ele>
        <time>2022-07-23T17:14:06Z</time>
      </trkpt>
      <trkpt lat="46.4924240" lon="6.0516340">
        <ele>1141.8</ele>
        <time>2022-07-23T17:14:09Z</time>
      </trkpt>
      <trkpt lat="46.4923270" lon="6.0515980">
        <ele>1141.0</ele>
        <time>2022-07-23T17:14:13Z</time>
      </trkpt>
      <trkpt lat="46.4923240" lon="6.0515940">
        <ele>1140.8</ele>
        <time>2022-07-23T17:14:14Z</time>
      </trkpt>
      <trkpt lat="46.4922150" lon="6.0515860">
        <ele>1138.6</ele>
        <time>2022-07-23T17:14:23Z</time>
      </trkpt>
      <trkpt lat="46.4921710" lon="6.0515950">
        <ele>1138.6</ele>
        <time>2022-07-23T17:14:25Z</time>
      </trkpt>
      <trkpt lat="46.4920350" lon="6.0516940">
        <ele>1138.4</ele>
        <time>2022-07-23T17:14:31Z</time>
      </trkpt>
      <trkpt lat="46.4919430" lon="6.0517720">
        <ele>1138.2</ele>
        <time>2022-07-23T17:14:37Z</time>
      </trkpt>
      <trkpt lat="46.4918980" lon="6.0517840">
        <ele>1137.4</ele>
        <time>2022-07-23T17:14:43Z</time>
      </trkpt>
      <trkpt lat="46.4918810" lon="6.0517880">
        <ele>1136.4</ele>
        <time>2022-07-23T17:14:46Z</time>
      </trkpt>
      <trkpt lat="46.4918460" lon="6.0517870">
        <ele>1135.8</ele>
        <time>2022-07-23T17:14:49Z</time>
      </trkpt>
      <trkpt lat="46.4918090" lon="6.0517900">
        <ele>1135.4</ele>
        <time>2022-07-23T17:14:52Z</time>
      </trkpt>
      <trkpt lat="46.4917760" lon="6.0517960">
        <ele>1135.2</ele>
        <time>2022-07-23T17:14:55Z</time>
      </trkpt>
      <trkpt lat="46.4917550" lon="6.0518030">
        <ele>1134.0</ele>
        <time>2022-07-23T17:14:59Z</time>
      </trkpt>
      <trkpt lat="46.4916860" lon="6.0518020">
        <ele>1133.4</ele>
        <time>2022-07-23T17:15:02Z</time>
      </trkpt>
      <trkpt lat="46.4916150" lon="6.0518090">
        <ele>1133.0</ele>
        <time>2022-07-23T17:15:04Z</time>
      </trkpt>
      <trkpt lat="46.4915410" lon="6.0518240">
        <ele>1132.4</ele>
        <time>2022-07-23T17:15:06Z</time>
      </trkpt>
      <trkpt lat="46.4914220" lon="6.0518980">
        <ele>1132.0</ele>
        <time>2022-07-23T17:15:11Z</time>
      </trkpt>
      <trkpt lat="46.4914080" lon="6.0519180">
        <ele>1131.8</ele>
        <time>2022-07-23T17:15:12Z</time>
      </trkpt>
      <trkpt lat="46.4913480" lon="6.0520090">
        <ele>1130.8</ele>
        <time>2022-07-23T17:15:15Z</time>
      </trkpt>
      <trkpt lat="46.4913160" lon="6.0520500">
        <ele>1130.6</ele>
        <time>2022-07-23T17:15:16Z</time>
      </trkpt>
      <trkpt lat="46.4911910" lon="6.0521920">
        <ele>1129.6</ele>
        <time>2022-07-23T17:15:20Z</time>
      </trkpt>
      <trkpt lat="46.4911680" lon="6.0522160">
        <ele>1129.2</ele>
        <time>2022-07-23T17:15:21Z</time>
      </trkpt>
      <trkpt lat="46.4910950" lon="6.0522970">
        <ele>1128.2</ele>
        <time>2022-07-23T17:15:24Z</time>
      </trkpt>
      <trkpt lat="46.4910440" lon="6.0523490">
        <ele>1127.6</ele>
        <time>2022-07-23T17:15:26Z</time>
      </trkpt>
      <trkpt lat="46.4909860" lon="6.0524410">
        <ele>1127.2</ele>
        <time>2022-07-23T17:15:29Z</time>
      </trkpt>
      <trkpt lat="46.4909390" lon="6.0525090">
        <ele>1126.6</ele>
        <time>2022-07-23T17:15:32Z</time>
      </trkpt>
      <trkpt lat="46.4909200" lon="6.0525360">
        <ele>1126.2</ele>
        <time>2022-07-23T17:15:34Z</time>
      </trkpt>
      <trkpt lat="46.4909000" lon="6.0525570">
        <ele>1124.8</ele>
        <time>2022-07-23T17:15:37Z</time>
      </trkpt>
      <trkpt lat="46.4908680" lon="6.0526580">
        <ele>1123.2</ele>
        <time>2022-07-23T17:15:42Z</time>
      </trkpt>
      <trkpt lat="46.4908630" lon="6.0526780">
        <ele>1123.0</ele>
        <time>2022-07-23T17:15:43Z</time>
      </trkpt>
      <trkpt lat="46.4908530" lon="6.0527420">
        <ele>1122.2</ele>
        <time>2022-07-23T17:15:48Z</time>
      </trkpt>
      <trkpt lat="46.4908350" lon="6.0527710">
        <ele>1121.6</ele>
        <time>2022-07-23T17:15:50Z</time>
      </trkpt>
      <trkpt lat="46.4908220" lon="6.0527930">
        <ele>1120.8</ele>
        <time>2022-07-23T17:15:52Z</time>
      </trkpt>
      <trkpt lat="46.4908130" lon="6.0528040">
        <ele>1120.4</ele>
        <time>2022-07-23T17:15:53Z</time>
      </trkpt>
      <trkpt lat="46.4903890" lon="6.0528190">
        <ele>1112.2</ele>
        <time>2022-07-23T17:16:45Z</time>
      </trkpt>
      <trkpt lat="46.4903670" lon="6.0528080">
        <ele>1111.8</ele>
        <time>2022-07-23T17:16:46Z</time>
      </trkpt>
      <trkpt lat="46.4902750" lon="6.0527340">
        <ele>1111.4</ele>
        <time>2022-07-23T17:16:51Z</time>
      </trkpt>
      <trkpt lat="46.4902350" lon="6.0526710">
        <ele>1111.2</ele>
        <time>2022-07-23T17:16:53Z</time>
      </trkpt>
      <trkpt lat="46.4901700" lon="6.0525520">
        <ele>1111.0</ele>
        <time>2022-07-23T17:16:56Z</time>
      </trkpt>
      <trkpt lat="46.4900950" lon="6.0523910">
        <ele>1110.0</ele>
        <time>2022-07-23T17:17:02Z</time>
      </trkpt>
      <trkpt lat="46.4900830" lon="6.0523740">
        <ele>1108.8</ele>
        <time>2022-07-23T17:17:04Z</time>
      </trkpt>
      <trkpt lat="46.4900700" lon="6.0523510">
        <ele>1107.6</ele>
        <time>2022-07-23T17:17:07Z</time>
      </trkpt>
      <trkpt lat="46.4900610" lon="6.0523470">
        <ele>1106.8</ele>
        <time>2022-07-23T17:17:09Z</time>
      </trkpt>
      <trkpt lat="46.4899810" lon="6.0522000">
        <ele>1103.6</ele>
        <time>2022-07-23T17:17:28Z</time>
      </trkpt>
      <trkpt lat="46.4899300" lon="6.0521840">
        <ele>1103.0</ele>
        <time>2022-07-23T17:17:31Z</time>
      </trkpt>
      <trkpt lat="46.4898610" lon="6.0521640">
        <ele>1102.6</ele>
        <time>2022-07-23T17:17:36Z</time>
      </trkpt>
      <trkpt lat="46.4898390" lon="6.0521630">
        <ele>1102.0</ele>
        <time>2022-07-23T17:17:38Z</time>
      </trkpt>
      <trkpt lat="46.4898090" lon="6.0521670">
        <ele>1100.8</ele>
        <time>2022-07-23T17:17:40Z</time>
      </trkpt>
      <trkpt lat="46.4897470" lon="6.0521730">
        <ele>1099.8</ele>
        <time>2022-07-23T17:17:43Z</time>
      </trkpt>
      <trkpt lat="46.4897320" lon="6.0521710">
        <ele>1099.4</ele>
        <time>2022-07-23T17:17:44Z</time>
      </trkpt>
      <trkpt lat="46.4897070" lon="6.0521560">
        <ele>1098.8</ele>
        <time>2022-07-23T17:17:47Z</time>
      </trkpt>
      <trkpt lat="46.4896730" lon="6.0521320">
        <ele>1097.8</ele>
        <time>2022-07-23T17:17:50Z</time>
      </trkpt>
      <trkpt lat="46.4896650" lon="6.0521280">
        <ele>1097.6</ele>
        <time>2022-07-23T17:17:51Z</time>
      </trkpt>
      <trkpt lat="46.4896440" lon="6.0520960">
        <ele>1096.6</ele>
        <time>2022-07-23T17:17:55Z</time>
      </trkpt>
      <trkpt lat="46.4896390" lon="6.0520750">
        <ele>1095.6</ele>
        <time>2022-07-23T17:17:58Z</time>
      </trkpt>
      <trkpt lat="46.4890520" lon="6.0512860">
        <ele>1073.2</ele>
        <time>2022-07-23T17:21:18Z</time>
      </trkpt>
      <trkpt lat="46.4890220" lon="6.0512640">
        <ele>1072.6</ele>
        <time>2022-07-23T17:21:21Z</time>
      </trkpt>
      <trkpt lat="46.4890160" lon="6.0512600">
        <ele>1072.0</ele>
        <time>2022-07-23T17:21:24Z</time>
      </trkpt>
      <trkpt lat="46.4889630" lon="6.0513140">
        <ele>1070.8</ele>
        <time>2022-07-23T17:22:15Z</time>
      </trkpt>
      <trkpt lat="46.4889410" lon="6.0513330">
        <ele>1070.8</ele>
        <time>2022-07-23T17:22:16Z</time>
      </trkpt>
      <trkpt lat="46.4888250" lon="6.0515520">
        <ele>1070.6</ele>
        <time>2022-07-23T17:22:21Z</time>
      </trkpt>
      <trkpt lat="46.4887890" lon="6.0519250">
        <ele>1070.6</ele>
        <time>2022-07-23T17:22:25Z</time>
      </trkpt>
      <trkpt lat="46.4887920" lon="6.0520260">
        <ele>1070.4</ele>
        <time>2022-07-23T17:22:26Z</time>
      </trkpt>
      <trkpt lat="46.4888150" lon="6.0524160">
        <ele>1069.6</ele>
        <time>2022-07-23T17:22:30Z</time>
      </trkpt>
      <trkpt lat="46.4888280" lon="6.0525980">
        <ele>1068.0</ele>
        <time>2022-07-23T17:22:32Z</time>
      </trkpt>
      <trkpt lat="46.4888430" lon="6.0528420">
        <ele>1066.8</ele>
        <time>2022-07-23T17:22:35Z</time>
      </trkpt>
      <trkpt lat="46.4888300" lon="6.0530530">
        <ele>1066.6</ele>
        <time>2022-07-23T17:22:38Z</time>
      </trkpt>
      <trkpt lat="46.4887580" lon="6.0534090">
        <ele>1066.6</ele>
        <time>2022-07-23T17:22:44Z</time>
      </trkpt>
      <trkpt lat="46.4886710" lon="6.0537030">
        <ele>1067.2</ele>
        <time>2022-07-23T17:22:51Z</time>
      </trkpt>
      <trkpt lat="46.4886110" lon="6.0539340">
        <ele>1067.8</ele>
        <time>2022-07-23T17:22:57Z</time>
      </trkpt>
      <trkpt lat="46.4885960" lon="6.0540120">
        <ele>1068.0</ele>
        <time>2022-07-23T17:22:59Z</time>
      </trkpt>
      <trkpt lat="46.4885290" lon="6.0543520">
        <ele>1068.8</ele>
        <time>2022-07-23T17:23:08Z</time>
      </trkpt>
      <trkpt lat="46.4885200" lon="6.0543900">
        <ele>1069.2</ele>
        <time>2022-07-23T17:23:09Z</time>
      </trkpt>
      <trkpt lat="46.4884600" lon="6.0545990">
        <ele>1069.8</ele>
        <time>2022-07-23T17:23:15Z</time>
      </trkpt>
      <trkpt lat="46.4884330" lon="6.0546670">
        <ele>1070.2</ele>
        <time>2022-07-23T17:23:17Z</time>
      </trkpt>
      <trkpt lat="46.4883600" lon="6.0548290">
        <ele>1071.0</ele>
        <time>2022-07-23T17:23:22Z</time>
      </trkpt>
      <trkpt lat="46.4883330" lon="6.0548910">
        <ele>1071.2</ele>
        <time>2022-07-23T17:23:24Z</time>
      </trkpt>
      <trkpt lat="46.4882870" lon="6.0550350">
        <ele>1071.8</ele>
        <time>2022-07-23T17:23:28Z</time>
      </trkpt>
      <trkpt lat="46.4882920" lon="6.0552550">
        <ele>1072.2</ele>
        <time>2022-07-23T17:23:33Z</time>
      </trkpt>
      <trkpt lat="46.4883030" lon="6.0552970">
        <ele>1072.4</ele>
        <time>2022-07-23T17:23:34Z</time>
      </trkpt>
      <trkpt lat="46.4884190" lon="6.0555720">
        <ele>1073.2</ele>
        <time>2022-07-23T17:23:41Z</time>
      </trkpt>
      <trkpt lat="46.4884510" lon="6.0556520">
        <ele>1073.4</ele>
        <time>2022-07-23T17:23:43Z</time>
      </trkpt>
      <trkpt lat="46.4885350" lon="6.0558960">
        <ele>1073.8</ele>
        <time>2022-07-23T17:23:49Z</time>
      </trkpt>
      <trkpt lat="46.4885930" lon="6.0561150">
        <ele>1074.4</ele>
        <time>2022-07-23T17:23:54Z</time>
      </trkpt>
      <trkpt lat="46.4886450" lon="6.0563410">
        <ele>1074.6</ele>
        <time>2022-07-23T17:24:00Z</time>
      </trkpt>
      <trkpt lat="46.4887290" lon="6.0567710">
        <ele>1075.2</ele>
        <time>2022-07-23T17:24:08Z</time>
      </trkpt>
      <trkpt lat="46.4887080" lon="6.0570480">
        <ele>1075.2</ele>
        <time>2022-07-23T17:24:14Z</time>
      </trkpt>
      <trkpt lat="46.4886790" lon="6.0571450">
        <ele>1074.8</ele>
        <time>2022-07-23T17:24:19Z</time>
      </trkpt>
      <trkpt lat="46.4886450" lon="6.0572610">
        <ele>1074.6</ele>
        <time>2022-07-23T17:24:23Z</time>
      </trkpt>
      <trkpt lat="46.4886050" lon="6.0576120">
        <ele>1074.4</ele>
        <time>2022-07-23T17:24:32Z</time>
      </trkpt>
      <trkpt lat="46.4886260" lon="6.0579600">
        <ele>1075.8</ele>
        <time>2022-07-23T17:24:40Z</time>
      </trkpt>
      <trkpt lat="46.4886770" lon="6.0583860">
        <ele>1076.4</ele>
        <time>2022-07-23T17:24:49Z</time>
      </trkpt>
      <trkpt lat="46.4887120" lon="6.0586800">
        <ele>1076.8</ele>
        <time>2022-07-23T17:24:56Z</time>
      </trkpt>
      <trkpt lat="46.4887110" lon="6.0587220">
        <ele>1077.0</ele>
        <time>2022-07-23T17:24:57Z</time>
      </trkpt>
      <trkpt lat="46.4886720" lon="6.0589880">
        <ele>1077.6</ele>
        <time>2022-07-23T17:25:02Z</time>
      </trkpt>
      <trkpt lat="46.4886360" lon="6.0591170">
        <ele>1077.8</ele>
        <time>2022-07-23T17:25:04Z</time>
      </trkpt>
      <trkpt lat="46.4885380" lon="6.0593620">
        <ele>1077.8</ele>
        <time>2022-07-23T17:25:08Z</time>
      </trkpt>
      <trkpt lat="46.4883540" lon="6.0597050">
        <ele>1077.6</ele>
        <time>2022-07-23T17:25:15Z</time>
      </trkpt>
      <trkpt lat="46.4882680" lon="6.0599770">
        <ele>1077.6</ele>
        <time>2022-07-23T17:25:21Z</time>
      </trkpt>
      <trkpt lat="46.4882040" lon="6.0601900">
        <ele>1078.0</ele>
        <time>2022-07-23T17:25:25Z</time>
      </trkpt>
      <trkpt lat="46.4881600" lon="6.0603200">
        <ele>1078.2</ele>
        <time>2022-07-23T17:25:27Z</time>
      </trkpt>
      <trkpt lat="46.4881420" lon="6.0603980">
        <ele>1078.2</ele>
        <time>2022-07-23T17:25:28Z</time>
      </trkpt>
      <trkpt lat="46.4880960" lon="6.0606530">
        <ele>1078.2</ele>
        <time>2022-07-23T17:25:31Z</time>
      </trkpt>
      <trkpt lat="46.4880290" lon="6.0611530">
        <ele>1077.6</ele>
        <time>2022-07-23T17:25:37Z</time>
      </trkpt>
      <trkpt lat="46.4880140" lon="6.0614020">
        <ele>1077.2</ele>
        <time>2022-07-23T17:25:40Z</time>
      </trkpt>
      <trkpt lat="46.4879710" lon="6.0618420">
        <ele>1076.8</ele>
        <time>2022-07-23T17:25:46Z</time>
      </trkpt>
      <trkpt lat="46.4878850" lon="6.0621770">
        <ele>1077.0</ele>
        <time>2022-07-23T17:25:53Z</time>
      </trkpt>
      <trkpt lat="46.4878180" lon="6.0624160">
        <ele>1078.2</ele>
        <time>2022-07-23T17:25:59Z</time>
      </trkpt>
      <trkpt lat="46.4877860" lon="6.0625250">
        <ele>1078.8</ele>
        <time>2022-07-23T17:26:02Z</time>
      </trkpt>
      <trkpt lat="46.4877640" lon="6.0625980">
        <ele>1079.2</ele>
        <time>2022-07-23T17:26:04Z</time>
      </trkpt>
      <trkpt lat="46.4877090" lon="6.0627920">
        <ele>1080.4</ele>
        <time>2022-07-23T17:26:09Z</time>
      </trkpt>
      <trkpt lat="46.4876940" lon="6.0628330">
        <ele>1080.6</ele>
        <time>2022-07-23T17:26:10Z</time>
      </trkpt>
      <trkpt lat="46.4875950" lon="6.0632100">
        <ele>1081.4</ele>
        <time>2022-07-23T17:26:18Z</time>
      </trkpt>
      <trkpt lat="46.4874720" lon="6.0635630">
        <ele>1082.0</ele>
        <time>2022-07-23T17:26:26Z</time>
      </trkpt>
      <trkpt lat="46.4873720" lon="6.0638510">
        <ele>1082.6</ele>
        <time>2022-07-23T17:26:34Z</time>
      </trkpt>
      <trkpt lat="46.4873610" lon="6.0638870">
        <ele>1082.8</ele>
        <time>2022-07-23T17:26:35Z</time>
      </trkpt>
      <trkpt lat="46.4873210" lon="6.0640280">
        <ele>1084.0</ele>
        <time>2022-07-23T17:26:40Z</time>
      </trkpt>
      <trkpt lat="46.4872930" lon="6.0641230">
        <ele>1084.2</ele>
        <time>2022-07-23T17:26:43Z</time>
      </trkpt>
      <trkpt lat="46.4872470" lon="6.0642620">
        <ele>1085.0</ele>
        <time>2022-07-23T17:26:47Z</time>
      </trkpt>
      <trkpt lat="46.4872310" lon="6.0643200">
        <ele>1085.4</ele>
        <time>2022-07-23T17:26:50Z</time>
      </trkpt>
      <trkpt lat="46.4872120" lon="6.0644130">
        <ele>1086.4</ele>
        <time>2022-07-23T17:26:54Z</time>
      </trkpt>
      <trkpt lat="46.4871840" lon="6.0644760">
        <ele>1087.0</ele>
        <time>2022-07-23T17:26:57Z</time>
      </trkpt>
      <trkpt lat="46.4871550" lon="6.0645350">
        <ele>1087.8</ele>
        <time>2022-07-23T17:27:00Z</time>
      </trkpt>
      <trkpt lat="46.4870820" lon="6.0646330">
        <ele>1088.4</ele>
        <time>2022-07-23T17:27:05Z</time>
      </trkpt>
      <trkpt lat="46.4870500" lon="6.0646580">
        <ele>1088.8</ele>
        <time>2022-07-23T17:27:07Z</time>
      </trkpt>
      <trkpt lat="46.4869800" lon="6.0647230">
        <ele>1090.0</ele>
        <time>2022-07-23T17:27:12Z</time>
      </trkpt>
      <trkpt lat="46.4869160" lon="6.0647710">
        <ele>1091.0</ele>
        <time>2022-07-23T17:27:16Z</time>
      </trkpt>
      <trkpt lat="46.4868270" lon="6.0648220">
        <ele>1091.6</ele>
        <time>2022-07-23T17:27:21Z</time>
      </trkpt>
      <trkpt lat="46.4867920" lon="6.0648380">
        <ele>1092.2</ele>
        <time>2022-07-23T17:27:23Z</time>
      </trkpt>
      <trkpt lat="46.4866700" lon="6.0649140">
        <ele>1093.2</ele>
        <time>2022-07-23T17:27:30Z</time>
      </trkpt>
      <trkpt lat="46.4866370" lon="6.0649430">
        <ele>1093.4</ele>
        <time>2022-07-23T17:27:32Z</time>
      </trkpt>
      <trkpt lat="46.4865420" lon="6.0650380">
        <ele>1094.8</ele>
        <time>2022-07-23T17:27:39Z</time>
      </trkpt>
      <trkpt lat="46.4865270" lon="6.0650630">
        <ele>1094.8</ele>
        <time>2022-07-23T17:27:40Z</time>
      </trkpt>
      <trkpt lat="46.4864540" lon="6.0652620">
        <ele>1095.4</ele>
        <time>2022-07-23T17:27:45Z</time>
      </trkpt>
      <trkpt lat="46.4864250" lon="6.0653420">
        <ele>1095.8</ele>
        <time>2022-07-23T17:27:48Z</time>
      </trkpt>
      <trkpt lat="46.4864100" lon="6.0654410">
        <ele>1096.4</ele>
        <time>2022-07-23T17:27:52Z</time>
      </trkpt>
      <trkpt lat="46.4864120" lon="6.0655500">
        <ele>1097.0</ele>
        <time>2022-07-23T17:27:56Z</time>
      </trkpt>
      <trkpt lat="46.4864340" lon="6.0657400">
        <ele>1098.0</ele>
        <time>2022-07-23T17:28:02Z</time>
      </trkpt>
      <trkpt lat="46.4864410" lon="6.0659560">
        <ele>1099.0</ele>
        <time>2022-07-23T17:28:08Z</time>
      </trkpt>
      <trkpt lat="46.4864370" lon="6.0659920">
        <ele>1099.2</ele>
        <time>2022-07-23T17:28:09Z</time>
      </trkpt>
      <trkpt lat="46.4863870" lon="6.0661800">
        <ele>1099.6</ele>
        <time>2022-07-23T17:28:15Z</time>
      </trkpt>
      <trkpt lat="46.4863290" lon="6.0663570">
        <ele>1100.4</ele>
        <time>2022-07-23T17:28:21Z</time>
      </trkpt>
      <trkpt lat="46.4863000" lon="6.0664080">
        <ele>1101.0</ele>
        <time>2022-07-23T17:28:23Z</time>
      </trkpt>
      <trkpt lat="46.4862860" lon="6.0664320">
        <ele>1101.6</ele>
        <time>2022-07-23T17:28:25Z</time>
      </trkpt>
      <trkpt lat="46.4861670" lon="6.0666780">
        <ele>1102.8</ele>
        <time>2022-07-23T17:28:33Z</time>
      </trkpt>
      <trkpt lat="46.4861070" lon="6.0669160">
        <ele>1103.8</ele>
        <time>2022-07-23T17:28:40Z</time>
      </trkpt>
      <trkpt lat="46.4861030" lon="6.0669530">
        <ele>1104.0</ele>
        <time>2022-07-23T17:28:41Z</time>
      </trkpt>
      <trkpt lat="46.4860570" lon="6.0672120">
        <ele>1104.8</ele>
        <time>2022-07-23T17:28:48Z</time>
      </trkpt>
      <trkpt lat="46.4860480" lon="6.0672510">
        <ele>1105.0</ele>
        <time>2022-07-23T17:28:50Z</time>
      </trkpt>
      <trkpt lat="46.4859650" lon="6.0674850">
        <ele>1105.8</ele>
        <time>2022-07-23T17:28:57Z</time>
      </trkpt>
      <trkpt lat="46.4859170" lon="6.0675840">
        <ele>1106.2</ele>
        <time>2022-07-23T17:29:01Z</time>
      </trkpt>
      <trkpt lat="46.4858800" lon="6.0676390">
        <ele>1106.6</ele>
        <time>2022-07-23T17:29:03Z</time>
      </trkpt>
      <trkpt lat="46.4858480" lon="6.0676680">
        <ele>1107.4</ele>
        <time>2022-07-23T17:29:06Z</time>
      </trkpt>
      <trkpt lat="46.4858310" lon="6.0676780">
        <ele>1107.6</ele>
        <time>2022-07-23T17:29:07Z</time>
      </trkpt>
      <trkpt lat="46.4857620" lon="6.0676270">
        <ele>1108.2</ele>
        <time>2022-07-23T17:29:10Z</time>
      </trkpt>
      <trkpt lat="46.4857540" lon="6.0676040">
        <ele>1108.4</ele>
        <time>2022-07-23T17:29:11Z</time>
      </trkpt>
      <trkpt lat="46.4857470" lon="6.0675780">
        <ele>1108.6</ele>
        <time>2022-07-23T17:29:12Z</time>
      </trkpt>
      <trkpt lat="46.4857160" lon="6.0674480">
        <ele>1109.0</ele>
        <time>2022-07-23T17:29:16Z</time>
      </trkpt>
      <trkpt lat="46.4857090" lon="6.0673470">
        <ele>1109.8</ele>
        <time>2022-07-23T17:29:19Z</time>
      </trkpt>
      <trkpt lat="46.4856900" lon="6.0672430">
        <ele>1110.4</ele>
        <time>2022-07-23T17:29:22Z</time>
      </trkpt>
      <trkpt lat="46.4856510" lon="6.0670280">
        <ele>1110.8</ele>
        <time>2022-07-23T17:29:29Z</time>
      </trkpt>
      <trkpt lat="46.4856470" lon="6.0669970">
        <ele>1111.0</ele>
        <time>2022-07-23T17:29:30Z</time>
      </trkpt>
      <trkpt lat="46.4856160" lon="6.0668670">
        <ele>1112.0</ele>
        <time>2022-07-23T17:29:37Z</time>
      </trkpt>
      <trkpt lat="46.4856040" lon="6.0668240">
        <ele>1112.6</ele>
        <time>2022-07-23T17:29:56Z</time>
      </trkpt>
      <trkpt lat="46.4855740" lon="6.0667300">
        <ele>1112.6</ele>
        <time>2022-07-23T17:29:58Z</time>
      </trkpt>
      <trkpt lat="46.4854750" lon="6.0664430">
        <ele>1112.8</ele>
        <time>2022-07-23T17:30:06Z</time>
      </trkpt>
      <trkpt lat="46.4853940" lon="6.0662120">
        <ele>1113.0</ele>
        <time>2022-07-23T17:30:13Z</time>
      </trkpt>
      <trkpt lat="46.4853140" lon="6.0659510">
        <ele>1113.4</ele>
        <time>2022-07-23T17:30:20Z</time>
      </trkpt>
      <trkpt lat="46.4852620" lon="6.0658040">
        <ele>1114.0</ele>
        <time>2022-07-23T17:30:25Z</time>
      </trkpt>
      <trkpt lat="46.4852460" lon="6.0657490">
        <ele>1114.2</ele>
        <time>2022-07-23T17:30:27Z</time>
      </trkpt>
      <trkpt lat="46.4851720" lon="6.0655180">
        <ele>1115.0</ele>
        <time>2022-07-23T17:30:35Z</time>
      </trkpt>
      <trkpt lat="46.4851620" lon="6.0654900">
        <ele>1115.2</ele>
        <time>2022-07-23T17:30:37Z</time>
      </trkpt>
      <trkpt lat="46.4850770" lon="6.0652680">
        <ele>1115.8</ele>
        <time>2022-07-23T17:30:44Z</time>
      </trkpt>
      <trkpt lat="46.4850290" lon="6.0651540">
        <ele>1116.4</ele>
        <time>2022-07-23T17:30:48Z</time>
      </trkpt>
      <trkpt lat="46.4849600" lon="6.0649750">
        <ele>1116.8</ele>
        <time>2022-07-23T17:30:54Z</time>
      </trkpt>
      <trkpt lat="46.4848940" lon="6.0647250">
        <ele>1117.2</ele>
        <time>2022-07-23T17:31:00Z</time>
      </trkpt>
      <trkpt lat="46.4847870" lon="6.0643330">
        <ele>1117.2</ele>
        <time>2022-07-23T17:31:06Z</time>
      </trkpt>
      <trkpt lat="46.4846500" lon="6.0639760">
        <ele>1116.2</ele>
        <time>2022-07-23T17:31:12Z</time>
      </trkpt>
      <trkpt lat="46.4845460" lon="6.0637240">
        <ele>1115.8</ele>
        <time>2022-07-23T17:31:18Z</time>
      </trkpt>
      <trkpt lat="46.4844300" lon="6.0635190">
        <ele>1116.2</ele>
        <time>2022-07-23T17:31:26Z</time>
      </trkpt>
      <trkpt lat="46.4844220" lon="6.0634890">
        <ele>1116.2</ele>
        <time>2022-07-23T17:31:31Z</time>
      </trkpt>
      <trkpt lat="46.4843790" lon="6.0633890">
        <ele>1116.4</ele>
        <time>2022-07-23T17:31:38Z</time>
      </trkpt>
      <trkpt lat="46.4843130" lon="6.0632150">
        <ele>1116.4</ele>
        <time>2022-07-23T17:31:44Z</time>
      </trkpt>
      <trkpt lat="46.4842450" lon="6.0629990">
        <ele>1116.4</ele>
        <time>2022-07-23T17:31:49Z</time>
      </trkpt>
      <trkpt lat="46.4841500" lon="6.0627170">
        <ele>1116.4</ele>
        <time>2022-07-23T17:31:56Z</time>
      </trkpt>
      <trkpt lat="46.4840700" lon="6.0624030">
        <ele>1116.6</ele>
        <time>2022-07-23T17:32:02Z</time>
      </trkpt>
      <trkpt lat="46.4840310" lon="6.0620770">
        <ele>1116.4</ele>
        <time>2022-07-23T17:32:07Z</time>
      </trkpt>
      <trkpt lat="46.4840070" lon="6.0617990">
        <ele>1115.6</ele>
        <time>2022-07-23T17:32:12Z</time>
      </trkpt>
      <trkpt lat="46.4839960" lon="6.0617550">
        <ele>1115.2</ele>
        <time>2022-07-23T17:32:13Z</time>
      </trkpt>
      <trkpt lat="46.4839770" lon="6.0617020">
        <ele>1114.2</ele>
        <time>2022-07-23T17:32:15Z</time>
      </trkpt>
      <trkpt lat="46.4839450" lon="6.0616510">
        <ele>1114.0</ele>
        <time>2022-07-23T17:32:18Z</time>
      </trkpt>
      <trkpt lat="46.4839440" lon="6.0616450">
        <ele>1113.6</ele>
        <time>2022-07-23T17:32:21Z</time>
      </trkpt>
      <trkpt lat="46.4838800" lon="6.0615950">
        <ele>1113.2</ele>
        <time>2022-07-23T17:32:40Z</time>
      </trkpt>
      <trkpt lat="46.4838630" lon="6.0615720">
        <ele>1113.2</ele>
        <time>2022-07-23T17:32:42Z</time>
      </trkpt>
      <trkpt lat="46.4838150" lon="6.0614870">
        <ele>1112.2</ele>
        <time>2022-07-23T17:32:49Z</time>
      </trkpt>
      <trkpt lat="46.4837850" lon="6.0614400">
        <ele>1111.0</ele>
        <time>2022-07-23T17:32:53Z</time>
      </trkpt>
      <trkpt lat="46.4837560" lon="6.0614100">
        <ele>1110.0</ele>
        <time>2022-07-23T17:32:56Z</time>
      </trkpt>
      <trkpt lat="46.4837470" lon="6.0613980">
        <ele>1109.8</ele>
        <time>2022-07-23T17:32:57Z</time>
      </trkpt>
      <trkpt lat="46.4837290" lon="6.0613470">
        <ele>1109.0</ele>
        <time>2022-07-23T17:33:00Z</time>
      </trkpt>
      <trkpt lat="46.4836970" lon="6.0612900">
        <ele>1107.6</ele>
        <time>2022-07-23T17:33:04Z</time>
      </trkpt>
      <trkpt lat="46.4836640" lon="6.0612610">
        <ele>1106.6</ele>
        <time>2022-07-23T17:33:07Z</time>
      </trkpt>
      <trkpt lat="46.4836560" lon="6.0612600">
        <ele>1106.0</ele>
        <time>2022-07-23T17:33:09Z</time>
      </trkpt>
      <trkpt lat="46.4836300" lon="6.0612350">
        <ele>1104.8</ele>
        <time>2022-07-23T17:33:13Z</time>
      </trkpt>
      <trkpt lat="46.4835600" lon="6.0611680">
        <ele>1103.8</ele>
        <time>2022-07-23T17:33:18Z</time>
      </trkpt>
      <trkpt lat="46.4835590" lon="6.0611640">
        <ele>1103.6</ele>
        <time>2022-07-23T17:33:19Z</time>
      </trkpt>
      <trkpt lat="46.4835570" lon="6.0611620">
        <ele>1103.6</ele>
        <time>2022-07-23T17:33:20Z</time>
      </trkpt>
      <trkpt lat="46.4835100" lon="6.0611790">
        <ele>1101.8</ele>
        <time>2022-07-23T17:33:39Z</time>
      </trkpt>
      <trkpt lat="46.4834820" lon="6.0611980">
        <ele>1101.8</ele>
        <time>2022-07-23T17:33:41Z</time>
      </trkpt>
      <trkpt lat="46.4834530" lon="6.0611950">
        <ele>1101.8</ele>
        <time>2022-07-23T17:33:46Z</time>
      </trkpt>
      <trkpt lat="46.4834740" lon="6.0611650">
        <ele>1101.8</ele>
        <time>2022-07-23T17:33:50Z</time>
      </trkpt>
      <trkpt lat="46.4835110" lon="6.0611400">
        <ele>1101.8</ele>
        <time>2022-07-23T17:33:52Z</time>
      </trkpt>
      <trkpt lat="46.4835460" lon="6.0610180">
        <ele>1101.8</ele>
        <time>2022-07-23T17:33:55Z</time>
      </trkpt>
      <trkpt lat="46.4834680" lon="6.0607900">
        <ele>1101.6</ele>
        <time>2022-07-23T17:33:59Z</time>
      </trkpt>
      <trkpt lat="46.4834450" lon="6.0606900">
        <ele>1101.6</ele>
        <time>2022-07-23T17:34:04Z</time>
      </trkpt>
      <trkpt lat="46.4834500" lon="6.0606840">
        <ele>1101.4</ele>
        <time>2022-07-23T17:34:07Z</time>
      </trkpt>
      <trkpt lat="46.4834540" lon="6.0606160">
        <ele>1101.4</ele>
        <time>2022-07-23T17:34:09Z</time>
      </trkpt>
      <trkpt lat="46.4834550" lon="6.0605830">
        <ele>1101.4</ele>
        <time>2022-07-23T17:34:10Z</time>
      </trkpt>
      <trkpt lat="46.4834720" lon="6.0605290">
        <ele>1101.4</ele>
        <time>2022-07-23T17:34:12Z</time>
      </trkpt>
      <trkpt lat="46.4834960" lon="6.0604910">
        <ele>1101.4</ele>
        <time>2022-07-23T17:34:15Z</time>
      </trkpt>
      <trkpt lat="46.4836320" lon="6.0603000">
        <ele>1101.4</ele>
        <time>2022-07-23T17:34:21Z</time>
      </trkpt>
      <trkpt lat="46.4836620" lon="6.0601980">
        <ele>1101.2</ele>
        <time>2022-07-23T17:34:26Z</time>
      </trkpt>
      <trkpt lat="46.4836610" lon="6.0601970">
        <ele>1101.2</ele>
        <time>2022-07-23T17:34:27Z</time>
      </trkpt>
      <trkpt lat="46.4836480" lon="6.0601500">
        <ele>1100.4</ele>
        <time>2022-07-23T17:35:17Z</time>
      </trkpt>
      <trkpt lat="46.4836370" lon="6.0601040">
        <ele>1100.4</ele>
        <time>2022-07-23T17:35:19Z</time>
      </trkpt>
      <trkpt lat="46.4836220" lon="6.0600730">
        <ele>1100.4</ele>
        <time>2022-07-23T17:35:21Z</time>
      </trkpt>
      <trkpt lat="46.4835680" lon="6.0599860">
        <ele>1100.6</ele>
        <time>2022-07-23T17:35:26Z</time>
      </trkpt>
      <trkpt lat="46.4835450" lon="6.0599400">
        <ele>1100.6</ele>
        <time>2022-07-23T17:35:28Z</time>
      </trkpt>
      <trkpt lat="46.4835020" lon="6.0598500">
        <ele>1101.4</ele>
        <time>2022-07-23T17:35:32Z</time>
      </trkpt>
      <trkpt lat="46.4834910" lon="6.0598290">
        <ele>1101.6</ele>
        <time>2022-07-23T17:35:33Z</time>
      </trkpt>
      <trkpt lat="46.4834310" lon="6.0597370">
        <ele>1102.8</ele>
        <time>2022-07-23T17:35:39Z</time>
      </trkpt>
      <trkpt lat="46.4833710" lon="6.0596710">
        <ele>1103.8</ele>
        <time>2022-07-23T17:35:46Z</time>
      </trkpt>
      <trkpt lat="46.4833630" lon="6.0596610">
        <ele>1104.0</ele>
        <time>2022-07-23T17:35:47Z</time>
      </trkpt>
      <trkpt lat="46.4833160" lon="6.0596100">
        <ele>1104.8</ele>
        <time>2022-07-23T17:35:52Z</time>
      </trkpt>
      <trkpt lat="46.4833070" lon="6.0595980">
        <ele>1105.0</ele>
        <time>2022-07-23T17:35:53Z</time>
      </trkpt>
      <trkpt lat="46.4832630" lon="6.0595530">
        <ele>1106.0</ele>
        <time>2022-07-23T17:35:58Z</time>
      </trkpt>
      <trkpt lat="46.4832490" lon="6.0595290">
        <ele>1106.2</ele>
        <time>2022-07-23T17:36:00Z</time>
      </trkpt>
      <trkpt lat="46.4832090" lon="6.0594630">
        <ele>1107.4</ele>
        <time>2022-07-23T17:36:06Z</time>
      </trkpt>
      <trkpt lat="46.4832010" lon="6.0594540">
        <ele>1107.6</ele>
        <time>2022-07-23T17:36:07Z</time>
      </trkpt>
      <trkpt lat="46.4831420" lon="6.0594020">
        <ele>1108.4</ele>
        <time>2022-07-23T17:36:14Z</time>
      </trkpt>
      <trkpt lat="46.4831200" lon="6.0593820">
        <ele>1109.0</ele>
        <time>2022-07-23T17:36:16Z</time>
      </trkpt>
      <trkpt lat="46.4830800" lon="6.0593450">
        <ele>1109.6</ele>
        <time>2022-07-23T17:36:20Z</time>
      </trkpt>
      <trkpt lat="46.4830180" lon="6.0592870">
        <ele>1110.6</ele>
        <time>2022-07-23T17:36:26Z</time>
      </trkpt>
      <trkpt lat="46.4829640" lon="6.0591570">
        <ele>1111.8</ele>
        <time>2022-07-23T17:36:32Z</time>
      </trkpt>
      <trkpt lat="46.4829580" lon="6.0591330">
        <ele>1112.0</ele>
        <time>2022-07-23T17:36:33Z</time>
      </trkpt>
      <trkpt lat="46.4829500" lon="6.0590820">
        <ele>1112.4</ele>
        <time>2022-07-23T17:36:35Z</time>
      </trkpt>
      <trkpt lat="46.4829360" lon="6.0589550">
        <ele>1112.6</ele>
        <time>2022-07-23T17:36:39Z</time>
      </trkpt>
      <trkpt lat="46.4829260" lon="6.0587910">
        <ele>1113.0</ele>
        <time>2022-07-23T17:36:43Z</time>
      </trkpt>
      <trkpt lat="46.4829110" lon="6.0586660">
        <ele>1113.2</ele>
        <time>2022-07-23T17:36:46Z</time>
      </trkpt>
      <trkpt lat="46.4828770" lon="6.0583460">
        <ele>1113.2</ele>
        <time>2022-07-23T17:36:54Z</time>
      </trkpt>
      <trkpt lat="46.4828060" lon="6.0581120">
        <ele>1113.4</ele>
        <time>2022-07-23T17:37:01Z</time>
      </trkpt>
      <trkpt lat="46.4827640" lon="6.0578980">
        <ele>1114.4</ele>
        <time>2022-07-23T17:37:08Z</time>
      </trkpt>
      <trkpt lat="46.4827630" lon="6.0578630">
        <ele>1114.6</ele>
        <time>2022-07-23T17:37:09Z</time>
      </trkpt>
      <trkpt lat="46.4827370" lon="6.0576680">
        <ele>1115.2</ele>
        <time>2022-07-23T17:37:15Z</time>
      </trkpt>
      <trkpt lat="46.4827130" lon="6.0575060">
        <ele>1115.4</ele>
        <time>2022-07-23T17:37:21Z</time>
      </trkpt>
      <trkpt lat="46.4827150" lon="6.0574770">
        <ele>1115.4</ele>
        <time>2022-07-23T17:37:22Z</time>
      </trkpt>
      <trkpt lat="46.4827600" lon="6.0572990">
        <ele>1115.6</ele>
        <time>2022-07-23T17:37:26Z</time>
      </trkpt>
      <trkpt lat="46.4829110" lon="6.0569340">
        <ele>1115.6</ele>
        <time>2022-07-23T17:37:32Z</time>
      </trkpt>
      <trkpt lat="46.4829600" lon="6.0567920">
        <ele>1114.8</ele>
        <time>2022-07-23T17:37:37Z</time>
      </trkpt>
      <trkpt lat="46.4829720" lon="6.0567600">
        <ele>1114.8</ele>
        <time>2022-07-23T17:37:41Z</time>
      </trkpt>
      <trkpt lat="46.4830130" lon="6.0566810">
        <ele>1114.8</ele>
        <time>2022-07-23T17:38:17Z</time>
      </trkpt>
      <trkpt lat="46.4831190" lon="6.0565510">
        <ele>1114.6</ele>
        <time>2022-07-23T17:38:23Z</time>
      </trkpt>
      <trkpt lat="46.4832220" lon="6.0563890">
        <ele>1114.6</ele>
        <time>2022-07-23T17:38:27Z</time>
      </trkpt>
      <trkpt lat="46.4832460" lon="6.0562970">
        <ele>1114.4</ele>
        <time>2022-07-23T17:38:29Z</time>
      </trkpt>
      <trkpt lat="46.4832460" lon="6.0562720">
        <ele>1114.4</ele>
        <time>2022-07-23T17:38:30Z</time>
      </trkpt>
      <trkpt lat="46.4832510" lon="6.0561760">
        <ele>1113.4</ele>
        <time>2022-07-23T17:38:35Z</time>
      </trkpt>
      <trkpt lat="46.4832590" lon="6.0561430">
        <ele>1112.8</ele>
        <time>2022-07-23T17:38:38Z</time>
      </trkpt>
      <trkpt lat="46.4832860" lon="6.0561080">
        <ele>1112.4</ele>
        <time>2022-07-23T17:38:41Z</time>
      </trkpt>
      <trkpt lat="46.4832870" lon="6.0561070">
        <ele>1112.2</ele>
        <time>2022-07-23T17:38:42Z</time>
      </trkpt>
      <trkpt lat="46.4833840" lon="6.0560690">
        <ele>1110.0</ele>
        <time>2022-07-23T17:39:08Z</time>
      </trkpt>
      <trkpt lat="46.4834330" lon="6.0560240">
        <ele>1109.6</ele>
        <time>2022-07-23T17:39:14Z</time>
      </trkpt>
      <trkpt lat="46.4834440" lon="6.0560190">
        <ele>1108.8</ele>
        <time>2022-07-23T17:39:17Z</time>
      </trkpt>
      <trkpt lat="46.4835070" lon="6.0560700">
        <ele>1107.4</ele>
        <time>2022-07-23T17:39:25Z</time>
      </trkpt>
      <trkpt lat="46.4835280" lon="6.0560890">
        <ele>1107.4</ele>
        <time>2022-07-23T17:39:26Z</time>
      </trkpt>
      <trkpt lat="46.4836660" lon="6.0561810">
        <ele>1107.2</ele>
        <time>2022-07-23T17:39:31Z</time>
      </trkpt>
      <trkpt lat="46.4836880" lon="6.0561710">
        <ele>1107.0</ele>
        <time>2022-07-23T17:39:33Z</time>
      </trkpt>
      <trkpt lat="46.4837090" lon="6.0561090">
        <ele>1107.0</ele>
        <time>2022-07-23T17:39:35Z</time>
      </trkpt>
      <trkpt lat="46.4836640" lon="6.0559090">
        <ele>1106.6</ele>
        <time>2022-07-23T17:39:39Z</time>
      </trkpt>
      <trkpt lat="46.4835420" lon="6.0557570">
        <ele>1106.0</ele>
        <time>2022-07-23T17:39:41Z</time>
      </trkpt>
      <trkpt lat="46.4834470" lon="6.0556620">
        <ele>1106.0</ele>
        <time>2022-07-23T17:39:43Z</time>
      </trkpt>
      <trkpt lat="46.4834020" lon="6.0556210">
        <ele>1105.8</ele>
        <time>2022-07-23T17:39:44Z</time>
      </trkpt>
      <trkpt lat="46.4833640" lon="6.0555840">
        <ele>1105.4</ele>
        <time>2022-07-23T17:39:45Z</time>
      </trkpt>
      <trkpt lat="46.4832570" lon="6.0554810">
        <ele>1104.2</ele>
        <time>2022-07-23T17:39:49Z</time>
      </trkpt>
      <trkpt lat="46.4832340" lon="6.0554320">
        <ele>1103.6</ele>
        <time>2022-07-23T17:39:51Z</time>
      </trkpt>
      <trkpt lat="46.4832200" lon="6.0553700">
        <ele>1102.8</ele>
        <time>2022-07-23T17:39:54Z</time>
      </trkpt>
      <trkpt lat="46.4832200" lon="6.0553700">
        <ele>1102.6</ele>
        <time>2022-07-23T17:39:55Z</time>
      </trkpt>
      <trkpt lat="46.4832510" lon="6.0552150">
        <ele>1101.6</ele>
        <time>2022-07-23T17:39:58Z</time>
      </trkpt>
      <trkpt lat="46.4832530" lon="6.0551530">
        <ele>1101.4</ele>
        <time>2022-07-23T17:39:59Z</time>
      </trkpt>
      <trkpt lat="46.4831970" lon="6.0549190">
        <ele>1100.4</ele>
        <time>2022-07-23T17:40:02Z</time>
      </trkpt>
      <trkpt lat="46.4831690" lon="6.0548390">
        <ele>1100.0</ele>
        <time>2022-07-23T17:40:03Z</time>
      </trkpt>
      <trkpt lat="46.4830790" lon="6.0546180">
        <ele>1099.2</ele>
        <time>2022-07-23T17:40:06Z</time>
      </trkpt>
      <trkpt lat="46.4830190" lon="6.0545240">
        <ele>1098.4</ele>
        <time>2022-07-23T17:40:08Z</time>
      </trkpt>
      <trkpt lat="46.4829910" lon="6.0544890">
        <ele>1097.8</ele>
        <time>2022-07-23T17:40:09Z</time>
      </trkpt>
      <trkpt lat="46.4829180" lon="6.0544080">
        <ele>1096.8</ele>
        <time>2022-07-23T17:40:12Z</time>
      </trkpt>
      <trkpt lat="46.4827930" lon="6.0541790">
        <ele>1096.8</ele>
        <time>2022-07-23T17:40:18Z</time>
      </trkpt>
      <trkpt lat="46.4827590" lon="6.0539670">
        <ele>1096.8</ele>
        <time>2022-07-23T17:40:23Z</time>
      </trkpt>
      <trkpt lat="46.4827760" lon="6.0537830">
        <ele>1096.6</ele>
        <time>2022-07-23T17:40:29Z</time>
      </trkpt>
      <trkpt lat="46.4827900" lon="6.0537040">
        <ele>1096.0</ele>
        <time>2022-07-23T17:40:33Z</time>
      </trkpt>
      <trkpt lat="46.4827940" lon="6.0536920">
        <ele>1095.4</ele>
        <time>2022-07-23T17:40:37Z</time>
      </trkpt>
      <trkpt lat="46.4828910" lon="6.0530840">
        <ele>1089.0</ele>
        <time>2022-07-23T17:41:29Z</time>
      </trkpt>
      <trkpt lat="46.4829000" lon="6.0530460">
        <ele>1088.8</ele>
        <time>2022-07-23T17:41:30Z</time>
      </trkpt>
      <trkpt lat="46.4829730" lon="6.0528530">
        <ele>1088.6</ele>
        <time>2022-07-23T17:41:34Z</time>
      </trkpt>
      <trkpt lat="46.4830410" lon="6.0526650">
        <ele>1088.2</ele>
        <time>2022-07-23T17:41:39Z</time>
      </trkpt>
      <trkpt lat="46.4830490" lon="6.0526170">
        <ele>1087.8</ele>
        <time>2022-07-23T17:41:40Z</time>
      </trkpt>
      <trkpt lat="46.4830760" lon="6.0524460">
        <ele>1086.4</ele>
        <time>2022-07-23T17:41:43Z</time>
      </trkpt>
      <trkpt lat="46.4830800" lon="6.0523890">
        <ele>1086.0</ele>
        <time>2022-07-23T17:41:44Z</time>
      </trkpt>
      <trkpt lat="46.4830930" lon="6.0522840">
        <ele>1085.0</ele>
        <time>2022-07-23T17:41:46Z</time>
      </trkpt>
      <trkpt lat="46.4830880" lon="6.0521260">
        <ele>1083.8</ele>
        <time>2022-07-23T17:41:49Z</time>
      </trkpt>
      <trkpt lat="46.4830880" lon="6.0521260">
        <ele>1083.4</ele>
        <time>2022-07-23T17:41:50Z</time>
      </trkpt>
      <trkpt lat="46.4830600" lon="6.0520100">
        <ele>1082.4</ele>
        <time>2022-07-23T17:41:52Z</time>
      </trkpt>
      <trkpt lat="46.4830470" lon="6.0519910">
        <ele>1082.0</ele>
        <time>2022-07-23T17:41:53Z</time>
      </trkpt>
      <trkpt lat="46.4830300" lon="6.0519680">
        <ele>1080.2</ele>
        <time>2022-07-23T17:41:55Z</time>
      </trkpt>
      <trkpt lat="46.4830270" lon="6.0519620">
        <ele>1079.0</ele>
        <time>2022-07-23T17:41:57Z</time>
      </trkpt>
      <trkpt lat="46.4830150" lon="6.0519150">
        <ele>1078.0</ele>
        <time>2022-07-23T17:42:01Z</time>
      </trkpt>
      <trkpt lat="46.4829990" lon="6.0518570">
        <ele>1077.8</ele>
        <time>2022-07-23T17:42:04Z</time>
      </trkpt>
      <trkpt lat="46.4829640" lon="6.0517090">
        <ele>1077.0</ele>
        <time>2022-07-23T17:42:12Z</time>
      </trkpt>
      <trkpt lat="46.4829640" lon="6.0517090">
        <ele>1076.8</ele>
        <time>2022-07-23T17:42:13Z</time>
      </trkpt>
      <trkpt lat="46.4829460" lon="6.0516330">
        <ele>1075.8</ele>
        <time>2022-07-23T17:42:18Z</time>
      </trkpt>
      <trkpt lat="46.4829390" lon="6.0516040">
        <ele>1075.4</ele>
        <time>2022-07-23T17:42:20Z</time>
      </trkpt>
      <trkpt lat="46.4829250" lon="6.0515410">
        <ele>1074.4</ele>
        <time>2022-07-23T17:42:24Z</time>
      </trkpt>
      <trkpt lat="46.4829180" lon="6.0514820">
        <ele>1073.4</ele>
        <time>2022-07-23T17:42:29Z</time>
      </trkpt>
      <trkpt lat="46.4829040" lon="6.0514520">
        <ele>1072.4</ele>
        <time>2022-07-23T17:42:34Z</time>
      </trkpt>
      <trkpt lat="46.4828940" lon="6.0514190">
        <ele>1072.0</ele>
        <time>2022-07-23T17:42:36Z</time>
      </trkpt>
      <trkpt lat="46.4828690" lon="6.0513560">
        <ele>1071.2</ele>
        <time>2022-07-23T17:42:39Z</time>
      </trkpt>
      <trkpt lat="46.4828400" lon="6.0512890">
        <ele>1070.6</ele>
        <time>2022-07-23T17:42:42Z</time>
      </trkpt>
      <trkpt lat="46.4827250" lon="6.0511180">
        <ele>1070.2</ele>
        <time>2022-07-23T17:42:51Z</time>
      </trkpt>
      <trkpt lat="46.4826370" lon="6.0509600">
        <ele>1069.6</ele>
        <time>2022-07-23T17:42:57Z</time>
      </trkpt>
      <trkpt lat="46.4826150" lon="6.0509140">
        <ele>1069.4</ele>
        <time>2022-07-23T17:43:01Z</time>
      </trkpt>
      <trkpt lat="46.4825730" lon="6.0507170">
        <ele>1069.0</ele>
        <time>2022-07-23T17:43:16Z</time>
      </trkpt>
      <trkpt lat="46.4825650" lon="6.0506850">
        <ele>1068.6</ele>
        <time>2022-07-23T17:43:19Z</time>
      </trkpt>
      <trkpt lat="46.4825400" lon="6.0506160">
        <ele>1068.0</ele>
        <time>2022-07-23T17:43:23Z</time>
      </trkpt>
      <trkpt lat="46.4825230" lon="6.0505850">
        <ele>1067.8</ele>
        <time>2022-07-23T17:43:24Z</time>
      </trkpt>
      <trkpt lat="46.4825040" lon="6.0505440">
        <ele>1067.6</ele>
        <time>2022-07-23T17:43:25Z</time>
      </trkpt>
      <trkpt lat="46.4823620" lon="6.0502240">
        <ele>1067.2</ele>
        <time>2022-07-23T17:43:30Z</time>
      </trkpt>
      <trkpt lat="46.4822400" lon="6.0500810">
        <ele>1066.8</ele>
        <time>2022-07-23T17:43:34Z</time>
      </trkpt>
      <trkpt lat="46.4821980" lon="6.0500580">
        <ele>1066.8</ele>
        <time>2022-07-23T17:43:35Z</time>
      </trkpt>
      <trkpt lat="46.4821050" lon="6.0499980">
        <ele>1065.0</ele>
        <time>2022-07-23T17:43:38Z</time>
      </trkpt>
      <trkpt lat="46.4820740" lon="6.0499650">
        <ele>1063.8</ele>
        <time>2022-07-23T17:43:40Z</time>
      </trkpt>
      <trkpt lat="46.4820570" lon="6.0499190">
        <ele>1063.2</ele>
        <time>2022-07-23T17:43:42Z</time>
      </trkpt>
      <trkpt lat="46.4820520" lon="6.0499080">
        <ele>1062.6</ele>
        <time>2022-07-23T17:43:43Z</time>
      </trkpt>
      <trkpt lat="46.4820450" lon="6.0499020">
        <ele>1062.2</ele>
        <time>2022-07-23T17:43:45Z</time>
      </trkpt>
      <trkpt lat="46.4819770" lon="6.0498180">
        <ele>1060.8</ele>
        <time>2022-07-23T17:44:23Z</time>
      </trkpt>
      <trkpt lat="46.4818970" lon="6.0497550">
        <ele>1060.6</ele>
        <time>2022-07-23T17:44:28Z</time>
      </trkpt>
      <trkpt lat="46.4818870" lon="6.0497500">
        <ele>1060.4</ele>
        <time>2022-07-23T17:44:29Z</time>
      </trkpt>
      <trkpt lat="46.4818440" lon="6.0497380">
        <ele>1059.6</ele>
        <time>2022-07-23T17:44:34Z</time>
      </trkpt>
      <trkpt lat="46.4818140" lon="6.0497070">
        <ele>1059.2</ele>
        <time>2022-07-23T17:44:35Z</time>
      </trkpt>
      <trkpt lat="46.4817850" lon="6.0496790">
        <ele>1058.6</ele>
        <time>2022-07-23T17:44:38Z</time>
      </trkpt>
      <trkpt lat="46.4817640" lon="6.0496520">
        <ele>1058.0</ele>
        <time>2022-07-23T17:44:40Z</time>
      </trkpt>
      <trkpt lat="46.4817170" lon="6.0496030">
        <ele>1057.4</ele>
        <time>2022-07-23T17:44:44Z</time>
      </trkpt>
      <trkpt lat="46.4816830" lon="6.0495610">
        <ele>1057.0</ele>
        <time>2022-07-23T17:44:46Z</time>
      </trkpt>
      <trkpt lat="46.4815980" lon="6.0494530">
        <ele>1056.2</ele>
        <time>2022-07-23T17:44:50Z</time>
      </trkpt>
      <trkpt lat="46.4815010" lon="6.0493240">
        <ele>1055.8</ele>
        <time>2022-07-23T17:44:55Z</time>
      </trkpt>
      <trkpt lat="46.4814930" lon="6.0493130">
        <ele>1055.2</ele>
        <time>2022-07-23T17:44:57Z</time>
      </trkpt>
      <trkpt lat="46.4814910" lon="6.0493070">
        <ele>1054.8</ele>
        <time>2022-07-23T17:44:58Z</time>
      </trkpt>
      <trkpt lat="46.4813770" lon="6.0491430">
        <ele>1052.8</ele>
        <time>2022-07-23T17:45:44Z</time>
      </trkpt>
      <trkpt lat="46.4813480" lon="6.0491080">
        <ele>1052.8</ele>
        <time>2022-07-23T17:45:46Z</time>
      </trkpt>
      <trkpt lat="46.4813250" lon="6.0490740">
        <ele>1052.8</ele>
        <time>2022-07-23T17:45:48Z</time>
      </trkpt>
      <trkpt lat="46.4812890" lon="6.0490310">
        <ele>1052.8</ele>
        <time>2022-07-23T17:45:51Z</time>
      </trkpt>
      <trkpt lat="46.4812330" lon="6.0489530">
        <ele>1053.0</ele>
        <time>2022-07-23T17:45:55Z</time>
      </trkpt>
      <trkpt lat="46.4811820" lon="6.0488840">
        <ele>1053.0</ele>
        <time>2022-07-23T17:45:58Z</time>
      </trkpt>
      <trkpt lat="46.4810620" lon="6.0487620">
        <ele>1053.0</ele>
        <time>2022-07-23T17:46:03Z</time>
      </trkpt>
      <trkpt lat="46.4809410" lon="6.0486910">
        <ele>1052.8</ele>
        <time>2022-07-23T17:46:08Z</time>
      </trkpt>
      <trkpt lat="46.4808020" lon="6.0485920">
        <ele>1052.6</ele>
        <time>2022-07-23T17:46:13Z</time>
      </trkpt>
      <trkpt lat="46.4806140" lon="6.0484430">
        <ele>1052.4</ele>
        <time>2022-07-23T17:46:19Z</time>
      </trkpt>
      <trkpt lat="46.4804240" lon="6.0483460">
        <ele>1052.0</ele>
        <time>2022-07-23T17:46:25Z</time>
      </trkpt>
      <trkpt lat="46.4803930" lon="6.0483200">
        <ele>1051.8</ele>
        <time>2022-07-23T17:46:26Z</time>
      </trkpt>
      <trkpt lat="46.4802420" lon="6.0482030">
        <ele>1051.6</ele>
        <time>2022-07-23T17:46:31Z</time>
      </trkpt>
      <trkpt lat="46.4800630" lon="6.0480170">
        <ele>1051.4</ele>
        <time>2022-07-23T17:46:36Z</time>
      </trkpt>
      <trkpt lat="46.4799560" lon="6.0479000">
        <ele>1050.8</ele>
        <time>2022-07-23T17:46:39Z</time>
      </trkpt>
      <trkpt lat="46.4798980" lon="6.0477960">
        <ele>1050.6</ele>
        <time>2022-07-23T17:46:41Z</time>
      </trkpt>
      <trkpt lat="46.4797780" lon="6.0474630">
        <ele>1049.6</ele>
        <time>2022-07-23T17:46:46Z</time>
      </trkpt>
      <trkpt lat="46.4797360" lon="6.0472510">
        <ele>1048.4</ele>
        <time>2022-07-23T17:46:49Z</time>
      </trkpt>
      <trkpt lat="46.4796820" lon="6.0471360">
        <ele>1047.6</ele>
        <time>2022-07-23T17:46:51Z</time>
      </trkpt>
      <trkpt lat="46.4796520" lon="6.0470850">
        <ele>1047.2</ele>
        <time>2022-07-23T17:46:52Z</time>
      </trkpt>
      <trkpt lat="46.4795530" lon="6.0469460">
        <ele>1045.8</ele>
        <time>2022-07-23T17:46:55Z</time>
      </trkpt>
      <trkpt lat="46.4794790" lon="6.0468800">
        <ele>1045.2</ele>
        <time>2022-07-23T17:46:57Z</time>
      </trkpt>
      <trkpt lat="46.4794120" lon="6.0468320">
        <ele>1044.6</ele>
        <time>2022-07-23T17:46:59Z</time>
      </trkpt>
      <trkpt lat="46.4793000" lon="6.0467790">
        <ele>1043.6</ele>
        <time>2022-07-23T17:47:02Z</time>
      </trkpt>
      <trkpt lat="46.4791840" lon="6.0467930">
        <ele>1042.2</ele>
        <time>2022-07-23T17:47:05Z</time>
      </trkpt>
      <trkpt lat="46.4790690" lon="6.0468320">
        <ele>1041.0</ele>
        <time>2022-07-23T17:47:08Z</time>
      </trkpt>
      <trkpt lat="46.4790280" lon="6.0468470">
        <ele>1040.6</ele>
        <time>2022-07-23T17:47:09Z</time>
      </trkpt>
      <trkpt lat="46.4789480" lon="6.0468810">
        <ele>1040.0</ele>
        <time>2022-07-23T17:47:11Z</time>
      </trkpt>
      <trkpt lat="46.4787570" lon="6.0470060">
        <ele>1039.2</ele>
        <time>2022-07-23T17:47:16Z</time>
      </trkpt>
      <trkpt lat="46.4784730" lon="6.0472740">
        <ele>1039.4</ele>
        <time>2022-07-23T17:47:24Z</time>
      </trkpt>
      <trkpt lat="46.4782150" lon="6.0474920">
        <ele>1039.4</ele>
        <time>2022-07-23T17:47:31Z</time>
      </trkpt>
      <trkpt lat="46.4781720" lon="6.0475100">
        <ele>1039.4</ele>
        <time>2022-07-23T17:47:32Z</time>
      </trkpt>
      <trkpt lat="46.4780420" lon="6.0475360">
        <ele>1039.4</ele>
        <time>2022-07-23T17:47:35Z</time>
      </trkpt>
      <trkpt lat="46.4779200" lon="6.0475310">
        <ele>1039.4</ele>
        <time>2022-07-23T17:47:38Z</time>
      </trkpt>
      <trkpt lat="46.4775430" lon="6.0475040">
        <ele>1039.8</ele>
        <time>2022-07-23T17:47:47Z</time>
      </trkpt>
      <trkpt lat="46.4773470" lon="6.0475830">
        <ele>1040.0</ele>
        <time>2022-07-23T17:47:52Z</time>
      </trkpt>
      <trkpt lat="46.4772460" lon="6.0476790">
        <ele>1040.0</ele>
        <time>2022-07-23T17:47:55Z</time>
      </trkpt>
      <trkpt lat="46.4771090" lon="6.0478450">
        <ele>1040.0</ele>
        <time>2022-07-23T17:47:59Z</time>
      </trkpt>
      <trkpt lat="46.4770320" lon="6.0479220">
        <ele>1040.0</ele>
        <time>2022-07-23T17:48:01Z</time>
      </trkpt>
      <trkpt lat="46.4769090" lon="6.0479930">
        <ele>1040.0</ele>
        <time>2022-07-23T17:48:04Z</time>
      </trkpt>
      <trkpt lat="46.4766340" lon="6.0481070">
        <ele>1040.0</ele>
        <time>2022-07-23T17:48:11Z</time>
      </trkpt>
      <trkpt lat="46.4764230" lon="6.0482410">
        <ele>1040.4</ele>
        <time>2022-07-23T17:48:17Z</time>
      </trkpt>
      <trkpt lat="46.4762180" lon="6.0484110">
        <ele>1040.4</ele>
        <time>2022-07-23T17:48:23Z</time>
      </trkpt>
      <trkpt lat="46.4759990" lon="6.0485840">
        <ele>1040.6</ele>
        <time>2022-07-23T17:48:29Z</time>
      </trkpt>
      <trkpt lat="46.4757960" lon="6.0487110">
        <ele>1040.8</ele>
        <time>2022-07-23T17:48:35Z</time>
      </trkpt>
      <trkpt lat="46.4755930" lon="6.0488530">
        <ele>1040.8</ele>
        <time>2022-07-23T17:48:40Z</time>
      </trkpt>
      <trkpt lat="46.4752690" lon="6.0490600">
        <ele>1041.2</ele>
        <time>2022-07-23T17:48:49Z</time>
      </trkpt>
      <trkpt lat="46.4750310" lon="6.0492050">
        <ele>1041.2</ele>
        <time>2022-07-23T17:48:55Z</time>
      </trkpt>
      <trkpt lat="46.4748540" lon="6.0493220">
        <ele>1041.4</ele>
        <time>2022-07-23T17:48:59Z</time>
      </trkpt>
      <trkpt lat="46.4747790" lon="6.0493990">
        <ele>1041.6</ele>
        <time>2022-07-23T17:49:01Z</time>
      </trkpt>
      <trkpt lat="46.4745270" lon="6.0496450">
        <ele>1041.8</ele>
        <time>2022-07-23T17:49:07Z</time>
      </trkpt>
      <trkpt lat="46.4742370" lon="6.0498350">
        <ele>1041.8</ele>
        <time>2022-07-23T17:49:13Z</time>
      </trkpt>
      <trkpt lat="46.4740570" lon="6.0499340">
        <ele>1041.8</ele>
        <time>2022-07-23T17:49:17Z</time>
      </trkpt>
      <trkpt lat="46.4737410" lon="6.0501640">
        <ele>1042.0</ele>
        <time>2022-07-23T17:49:24Z</time>
      </trkpt>
      <trkpt lat="46.4736090" lon="6.0502470">
        <ele>1042.2</ele>
        <time>2022-07-23T17:49:27Z</time>
      </trkpt>
      <trkpt lat="46.4734410" lon="6.0503330">
        <ele>1042.2</ele>
        <time>2022-07-23T17:49:31Z</time>
      </trkpt>
      <trkpt lat="46.4733110" lon="6.0503960">
        <ele>1042.2</ele>
        <time>2022-07-23T17:49:34Z</time>
      </trkpt>
      <trkpt lat="46.4731460" lon="6.0504650">
        <ele>1042.2</ele>
        <time>2022-07-23T17:49:38Z</time>
      </trkpt>
      <trkpt lat="46.4728660" lon="6.0506680">
        <ele>1042.2</ele>
        <time>2022-07-23T17:49:45Z</time>
      </trkpt>
      <trkpt lat="46.4727830" lon="6.0507250">
        <ele>1042.2</ele>
        <time>2022-07-23T17:49:47Z</time>
      </trkpt>
      <trkpt lat="46.4726550" lon="6.0508040">
        <ele>1042.2</ele>
        <time>2022-07-23T17:49:50Z</time>
      </trkpt>
      <trkpt lat="46.4723790" lon="6.0509150">
        <ele>1042.4</ele>
        <time>2022-07-23T17:49:56Z</time>
      </trkpt>
      <trkpt lat="46.4723320" lon="6.0509380">
        <ele>1042.4</ele>
        <time>2022-07-23T17:49:57Z</time>
      </trkpt>
      <trkpt lat="46.4721500" lon="6.0510330">
        <ele>1042.4</ele>
        <time>2022-07-23T17:50:01Z</time>
      </trkpt>
      <trkpt lat="46.4720630" lon="6.0510970">
        <ele>1042.4</ele>
        <time>2022-07-23T17:50:03Z</time>
      </trkpt>
      <trkpt lat="46.4720150" lon="6.0511240">
        <ele>1042.4</ele>
        <time>2022-07-23T17:50:04Z</time>
      </trkpt>
      <trkpt lat="46.4718300" lon="6.0511900">
        <ele>1042.4</ele>
        <time>2022-07-23T17:50:08Z</time>
      </trkpt>
      <trkpt lat="46.4717850" lon="6.0512030">
        <ele>1042.4</ele>
        <time>2022-07-23T17:50:09Z</time>
      </trkpt>
      <trkpt lat="46.4716970" lon="6.0512270">
        <ele>1042.6</ele>
        <time>2022-07-23T17:50:11Z</time>
      </trkpt>
      <trkpt lat="46.4714260" lon="6.0513150">
        <ele>1042.8</ele>
        <time>2022-07-23T17:50:17Z</time>
      </trkpt>
      <trkpt lat="46.4712310" lon="6.0514590">
        <ele>1042.8</ele>
        <time>2022-07-23T17:50:22Z</time>
      </trkpt>
      <trkpt lat="46.4711920" lon="6.0514980">
        <ele>1042.8</ele>
        <time>2022-07-23T17:50:23Z</time>
      </trkpt>
      <trkpt lat="46.4709290" lon="6.0517330">
        <ele>1042.8</ele>
        <time>2022-07-23T17:50:29Z</time>
      </trkpt>
      <trkpt lat="46.4706480" lon="6.0517990">
        <ele>1042.6</ele>
        <time>2022-07-23T17:50:34Z</time>
      </trkpt>
      <trkpt lat="46.4705910" lon="6.0517940">
        <ele>1042.6</ele>
        <time>2022-07-23T17:50:35Z</time>
      </trkpt>
      <trkpt lat="46.4702500" lon="6.0517010">
        <ele>1042.0</ele>
        <time>2022-07-23T17:50:41Z</time>
      </trkpt>
      <trkpt lat="46.4699170" lon="6.0515660">
        <ele>1041.4</ele>
        <time>2022-07-23T17:50:47Z</time>
      </trkpt>
      <trkpt lat="46.4696920" lon="6.0514730">
        <ele>1041.2</ele>
        <time>2022-07-23T17:50:51Z</time>
      </trkpt>
      <trkpt lat="46.4695810" lon="6.0514330">
        <ele>1041.2</ele>
        <time>2022-07-23T17:50:53Z</time>
      </trkpt>
      <trkpt lat="46.4694170" lon="6.0514080">
        <ele>1040.6</ele>
        <time>2022-07-23T17:50:56Z</time>
      </trkpt>
      <trkpt lat="46.4693610" lon="6.0514130">
        <ele>1040.6</ele>
        <time>2022-07-23T17:50:57Z</time>
      </trkpt>
      <trkpt lat="46.4692490" lon="6.0514400">
        <ele>1040.4</ele>
        <time>2022-07-23T17:50:59Z</time>
      </trkpt>
      <trkpt lat="46.4690380" lon="6.0515420">
        <ele>1040.0</ele>
        <time>2022-07-23T17:51:03Z</time>
      </trkpt>
      <trkpt lat="46.4687540" lon="6.0517740">
        <ele>1039.6</ele>
        <time>2022-07-23T17:51:09Z</time>
      </trkpt>
      <trkpt lat="46.4687020" lon="6.0518040">
        <ele>1039.6</ele>
        <time>2022-07-23T17:51:10Z</time>
      </trkpt>
      <trkpt lat="46.4685280" lon="6.0518520">
        <ele>1039.4</ele>
        <time>2022-07-23T17:51:13Z</time>
      </trkpt>
      <trkpt lat="46.4684680" lon="6.0518610">
        <ele>1039.4</ele>
        <time>2022-07-23T17:51:14Z</time>
      </trkpt>
      <trkpt lat="46.4681970" lon="6.0519060">
        <ele>1039.0</ele>
        <time>2022-07-23T17:51:19Z</time>
      </trkpt>
      <trkpt lat="46.4679660" lon="6.0520320">
        <ele>1038.6</ele>
        <time>2022-07-23T17:51:24Z</time>
      </trkpt>
      <trkpt lat="46.4677680" lon="6.0521730">
        <ele>1038.4</ele>
        <time>2022-07-23T17:51:28Z</time>
      </trkpt>
      <trkpt lat="46.4677140" lon="6.0521960">
        <ele>1038.2</ele>
        <time>2022-07-23T17:51:29Z</time>
      </trkpt>
      <trkpt lat="46.4673920" lon="6.0523200">
        <ele>1037.6</ele>
        <time>2022-07-23T17:51:35Z</time>
      </trkpt>
      <trkpt lat="46.4671770" lon="6.0524590">
        <ele>1037.2</ele>
        <time>2022-07-23T17:51:40Z</time>
      </trkpt>
      <trkpt lat="46.4671370" lon="6.0524770">
        <ele>1037.2</ele>
        <time>2022-07-23T17:51:41Z</time>
      </trkpt>
      <trkpt lat="46.4669110" lon="6.0526370">
        <ele>1036.8</ele>
        <time>2022-07-23T17:51:46Z</time>
      </trkpt>
      <trkpt lat="46.4667310" lon="6.0527950">
        <ele>1036.2</ele>
        <time>2022-07-23T17:51:51Z</time>
      </trkpt>
      <trkpt lat="46.4667130" lon="6.0528200">
        <ele>1036.2</ele>
        <time>2022-07-23T17:51:52Z</time>
      </trkpt>
      <trkpt lat="46.4666940" lon="6.0528520">
        <ele>1036.0</ele>
        <time>2022-07-23T17:51:53Z</time>
      </trkpt>
      <trkpt lat="46.4666670" lon="6.0528880">
        <ele>1035.8</ele>
        <time>2022-07-23T17:51:55Z</time>
      </trkpt>
      <trkpt lat="46.4666610" lon="6.0528970">
        <ele>1035.4</ele>
        <time>2022-07-23T17:51:57Z</time>
      </trkpt>
      <trkpt lat="46.4667510" lon="6.0526850">
        <ele>1031.6</ele>
        <time>2022-07-23T17:52:23Z</time>
      </trkpt>
      <trkpt lat="46.4668050" lon="6.0526410">
        <ele>1031.2</ele>
        <time>2022-07-23T17:52:25Z</time>
      </trkpt>
      <trkpt lat="46.4669150" lon="6.0524870">
        <ele>1031.0</ele>
        <time>2022-07-23T17:52:31Z</time>
      </trkpt>
      <trkpt lat="46.4669600" lon="6.0524100">
        <ele>1030.0</ele>
        <time>2022-07-23T17:52:34Z</time>
      </trkpt>
      <trkpt lat="46.4669820" lon="6.0523800">
        <ele>1028.8</ele>
        <time>2022-07-23T17:52:35Z</time>
      </trkpt>
      <trkpt lat="46.4670370" lon="6.0523240">
        <ele>1028.2</ele>
        <time>2022-07-23T17:52:37Z</time>
      </trkpt>
      <trkpt lat="46.4670790" lon="6.0522780">
        <ele>1027.8</ele>
        <time>2022-07-23T17:52:39Z</time>
      </trkpt>
      <trkpt lat="46.4671560" lon="6.0521950">
        <ele>1026.6</ele>
        <time>2022-07-23T17:52:43Z</time>
      </trkpt>
      <trkpt lat="46.4672210" lon="6.0520880">
        <ele>1025.2</ele>
        <time>2022-07-23T17:52:46Z</time>
      </trkpt>
      <trkpt lat="46.4672560" lon="6.0520210">
        <ele>1024.2</ele>
        <time>2022-07-23T17:52:48Z</time>
      </trkpt>
      <trkpt lat="46.4673100" lon="6.0519170">
        <ele>1023.0</ele>
        <time>2022-07-23T17:52:52Z</time>
      </trkpt>
      <trkpt lat="46.4673140" lon="6.0519000">
        <ele>1022.6</ele>
        <time>2022-07-23T17:52:53Z</time>
      </trkpt>
      <trkpt lat="46.4673130" lon="6.0518910">
        <ele>1022.0</ele>
        <time>2022-07-23T17:52:54Z</time>
      </trkpt>
      <trkpt lat="46.4673620" lon="6.0518360">
        <ele>1018.0</ele>
        <time>2022-07-23T17:53:07Z</time>
      </trkpt>
      <trkpt lat="46.4674040" lon="6.0518040">
        <ele>1017.8</ele>
        <time>2022-07-23T17:53:09Z</time>
      </trkpt>
      <trkpt lat="46.4675130" lon="6.0517260">
        <ele>1017.8</ele>
        <time>2022-07-23T17:53:15Z</time>
      </trkpt>
      <trkpt lat="46.4675400" lon="6.0516240">
        <ele>1017.2</ele>
        <time>2022-07-23T17:53:20Z</time>
      </trkpt>
      <trkpt lat="46.4675410" lon="6.0515940">
        <ele>1017.0</ele>
        <time>2022-07-23T17:53:21Z</time>
      </trkpt>
      <trkpt lat="46.4675330" lon="6.0514640">
        <ele>1016.6</ele>
        <time>2022-07-23T17:53:25Z</time>
      </trkpt>
      <trkpt lat="46.4674450" lon="6.0513300">
        <ele>1016.4</ele>
        <time>2022-07-23T17:53:29Z</time>
      </trkpt>
      <trkpt lat="46.4673780" lon="6.0512530">
        <ele>1015.6</ele>
        <time>2022-07-23T17:53:33Z</time>
      </trkpt>
      <trkpt lat="46.4673070" lon="6.0512330">
        <ele>1014.4</ele>
        <time>2022-07-23T17:53:36Z</time>
      </trkpt>
      <trkpt lat="46.4672830" lon="6.0512400">
        <ele>1014.0</ele>
        <time>2022-07-23T17:53:37Z</time>
      </trkpt>
      <trkpt lat="46.4672170" lon="6.0512390">
        <ele>1013.2</ele>
        <time>2022-07-23T17:53:39Z</time>
      </trkpt>
      <trkpt lat="46.4671520" lon="6.0512470">
        <ele>1012.6</ele>
        <time>2022-07-23T17:53:41Z</time>
      </trkpt>
      <trkpt lat="46.4670920" lon="6.0512730">
        <ele>1012.2</ele>
        <time>2022-07-23T17:53:43Z</time>
      </trkpt>
      <trkpt lat="46.4669810" lon="6.0513020">
        <ele>1011.4</ele>
        <time>2022-07-23T17:53:47Z</time>
      </trkpt>
      <trkpt lat="46.4669500" lon="6.0513070">
        <ele>1011.0</ele>
        <time>2022-07-23T17:53:48Z</time>
      </trkpt>
      <trkpt lat="46.4667920" lon="6.0513100">
        <ele>1009.8</ele>
        <time>2022-07-23T17:53:52Z</time>
      </trkpt>
      <trkpt lat="46.4666510" lon="6.0513290">
        <ele>1008.4</ele>
        <time>2022-07-23T17:53:56Z</time>
      </trkpt>
      <trkpt lat="46.4665960" lon="6.0513190">
        <ele>1007.8</ele>
        <time>2022-07-23T17:53:58Z</time>
      </trkpt>
      <trkpt lat="46.4665220" lon="6.0513330">
        <ele>1007.2</ele>
        <time>2022-07-23T17:54:00Z</time>
      </trkpt>
      <trkpt lat="46.4664610" lon="6.0513590">
        <ele>1006.2</ele>
        <time>2022-07-23T17:54:02Z</time>
      </trkpt>
      <trkpt lat="46.4663450" lon="6.0514100">
        <ele>1005.2</ele>
        <time>2022-07-23T17:54:05Z</time>
      </trkpt>
      <trkpt lat="46.4662250" lon="6.0514630">
        <ele>1004.4</ele>
        <time>2022-07-23T17:54:08Z</time>
      </trkpt>
      <trkpt lat="46.4661930" lon="6.0514790">
        <ele>1004.0</ele>
        <time>2022-07-23T17:54:09Z</time>
      </trkpt>
      <trkpt lat="46.4661260" lon="6.0514950">
        <ele>1003.4</ele>
        <time>2022-07-23T17:54:12Z</time>
      </trkpt>
      <trkpt lat="46.4661120" lon="6.0514980">
        <ele>1003.0</ele>
        <time>2022-07-23T17:54:13Z</time>
      </trkpt>
      <trkpt lat="46.4660630" lon="6.0515160">
        <ele>1002.0</ele>
        <time>2022-07-23T17:54:16Z</time>
      </trkpt>
      <trkpt lat="46.4660510" lon="6.0515330">
        <ele>1001.8</ele>
        <time>2022-07-23T17:54:17Z</time>
      </trkpt>
      <trkpt lat="46.4660180" lon="6.0515650">
        <ele>1001.8</ele>
        <time>2022-07-23T17:54:19Z</time>
      </trkpt>
      <trkpt lat="46.4659960" lon="6.0515780">
        <ele>1001.4</ele>
        <time>2022-07-23T17:54:21Z</time>
      </trkpt>
      <trkpt lat="46.4657880" lon="6.0516730">
        <ele>999.6</ele>
        <time>2022-07-23T17:54:40Z</time>
      </trkpt>
      <trkpt lat="46.4657410" lon="6.0516890">
        <ele>999.2</ele>
        <time>2022-07-23T17:54:42Z</time>
      </trkpt>
      <trkpt lat="46.4655940" lon="6.0518250">
        <ele>998.4</ele>
        <time>2022-07-23T17:54:47Z</time>
      </trkpt>
      <trkpt lat="46.4655710" lon="6.0518450">
        <ele>998.2</ele>
        <time>2022-07-23T17:54:48Z</time>
      </trkpt>
      <trkpt lat="46.4655330" lon="6.0518760">
        <ele>997.6</ele>
        <time>2022-07-23T17:54:52Z</time>
      </trkpt>
      <trkpt lat="46.4654520" lon="6.0518710">
        <ele>997.4</ele>
        <time>2022-07-23T17:54:59Z</time>
      </trkpt>
      <trkpt lat="46.4654260" lon="6.0518750">
        <ele>997.2</ele>
        <time>2022-07-23T17:55:01Z</time>
      </trkpt>
      <trkpt lat="46.4653680" lon="6.0519090">
        <ele>996.2</ele>
        <time>2022-07-23T17:55:08Z</time>
      </trkpt>
      <trkpt lat="46.4653360" lon="6.0519130">
        <ele>995.8</ele>
        <time>2022-07-23T17:55:11Z</time>
      </trkpt>
      <trkpt lat="46.4653080" lon="6.0519040">
        <ele>995.0</ele>
        <time>2022-07-23T17:55:15Z</time>
      </trkpt>
      <trkpt lat="46.4652790" lon="6.0518840">
        <ele>993.8</ele>
        <time>2022-07-23T17:55:19Z</time>
      </trkpt>
      <trkpt lat="46.4652540" lon="6.0518270">
        <ele>993.0</ele>
        <time>2022-07-23T17:55:23Z</time>
      </trkpt>
      <trkpt lat="46.4652410" lon="6.0518100">
        <ele>993.0</ele>
        <time>2022-07-23T17:55:25Z</time>
      </trkpt>
      <trkpt lat="46.4651980" lon="6.0517640">
        <ele>991.6</ele>
        <time>2022-07-23T17:55:30Z</time>
      </trkpt>
      <trkpt lat="46.4651950" lon="6.0517390">
        <ele>991.4</ele>
        <time>2022-07-23T17:55:32Z</time>
      </trkpt>
      <trkpt lat="46.4651910" lon="6.0517120">
        <ele>991.0</ele>
        <time>2022-07-23T17:55:36Z</time>
      </trkpt>
      <trkpt lat="46.4647420" lon="6.0503890">
        <ele>1005.6</ele>
        <time>2022-07-23T17:59:34Z</time>
      </trkpt>
      <trkpt lat="46.4647000" lon="6.0503490">
        <ele>1005.6</ele>
        <time>2022-07-23T17:59:36Z</time>
      </trkpt>
      <trkpt lat="46.4646080" lon="6.0501880">
        <ele>1005.4</ele>
        <time>2022-07-23T17:59:41Z</time>
      </trkpt>
      <trkpt lat="46.4645860" lon="6.0501060">
        <ele>1005.0</ele>
        <time>2022-07-23T17:59:45Z</time>
      </trkpt>
      <trkpt lat="46.4645840" lon="6.0501030">
        <ele>1004.8</ele>
        <time>2022-07-23T17:59:46Z</time>
      </trkpt>
      <trkpt lat="46.4649160" lon="6.0496340">
        <ele>1009.8</ele>
        <time>2022-07-23T18:00:50Z</time>
      </trkpt>
      <trkpt lat="46.4649390" lon="6.0496120">
        <ele>1009.8</ele>
        <time>2022-07-23T18:00:52Z</time>
      </trkpt>
      <trkpt lat="46.4650150" lon="6.0495320">
        <ele>1010.2</ele>
        <time>2022-07-23T18:00:59Z</time>
      </trkpt>
      <trkpt lat="46.4650600" lon="6.0494660">
        <ele>1010.8</ele>
        <time>2022-07-23T18:01:05Z</time>
      </trkpt>
      <trkpt lat="46.4650690" lon="6.0494510">
        <ele>1010.8</ele>
        <time>2022-07-23T18:01:06Z</time>
      </trkpt>
      <trkpt lat="46.4651430" lon="6.0493460">
        <ele>1011.6</ele>
        <time>2022-07-23T18:01:13Z</time>
      </trkpt>
      <trkpt lat="46.4652070" lon="6.0493260">
        <ele>1011.8</ele>
        <time>2022-07-23T18:01:18Z</time>
      </trkpt>
      <trkpt lat="46.4652270" lon="6.0493150">
        <ele>1012.2</ele>
        <time>2022-07-23T18:01:20Z</time>
      </trkpt>
      <trkpt lat="46.4652580" lon="6.0493000">
        <ele>1013.0</ele>
        <time>2022-07-23T18:01:23Z</time>
      </trkpt>
      <trkpt lat="46.4652810" lon="6.0492720">
        <ele>1014.0</ele>
        <time>2022-07-23T18:01:26Z</time>
      </trkpt>
      <trkpt lat="46.4652900" lon="6.0492650">
        <ele>1014.2</ele>
        <time>2022-07-23T18:01:27Z</time>
      </trkpt>
      <trkpt lat="46.4653240" lon="6.0492380">
        <ele>1015.0</ele>
        <time>2022-07-23T18:01:30Z</time>
      </trkpt>
      <trkpt lat="46.4653900" lon="6.0491720">
        <ele>1015.6</ele>
        <time>2022-07-23T18:01:37Z</time>
      </trkpt>
      <trkpt lat="46.4654010" lon="6.0491660">
        <ele>1015.8</ele>
        <time>2022-07-23T18:01:38Z</time>
      </trkpt>
      <trkpt lat="46.4654590" lon="6.0491380">
        <ele>1016.8</ele>
        <time>2022-07-23T18:01:44Z</time>
      </trkpt>
      <trkpt lat="46.4654760" lon="6.0491210">
        <ele>1017.0</ele>
        <time>2022-07-23T18:01:46Z</time>
      </trkpt>
      <trkpt lat="46.4655200" lon="6.0490800">
        <ele>1018.0</ele>
        <time>2022-07-23T18:01:51Z</time>
      </trkpt>
      <trkpt lat="46.4655380" lon="6.0490620">
        <ele>1018.2</ele>
        <time>2022-07-23T18:01:53Z</time>
      </trkpt>
      <trkpt lat="46.4655880" lon="6.0490250">
        <ele>1019.0</ele>
        <time>2022-07-23T18:01:58Z</time>
      </trkpt>
      <trkpt lat="46.4656330" lon="6.0489740">
        <ele>1020.0</ele>
        <time>2022-07-23T18:02:04Z</time>
      </trkpt>
      <trkpt lat="46.4656420" lon="6.0489660">
        <ele>1020.2</ele>
        <time>2022-07-23T18:02:05Z</time>
      </trkpt>
      <trkpt lat="46.4656970" lon="6.0489040">
        <ele>1021.4</ele>
        <time>2022-07-23T18:02:11Z</time>
      </trkpt>
      <trkpt lat="46.4657030" lon="6.0488950">
        <ele>1021.4</ele>
        <time>2022-07-23T18:02:12Z</time>
      </trkpt>
      <trkpt lat="46.4657520" lon="6.0488330">
        <ele>1022.4</ele>
        <time>2022-07-23T18:02:18Z</time>
      </trkpt>
      <trkpt lat="46.4657600" lon="6.0488240">
        <ele>1022.4</ele>
        <time>2022-07-23T18:02:19Z</time>
      </trkpt>
      <trkpt lat="46.4658210" lon="6.0487560">
        <ele>1023.4</ele>
        <time>2022-07-23T18:02:26Z</time>
      </trkpt>
      <trkpt lat="46.4658370" lon="6.0487470">
        <ele>1023.6</ele>
        <time>2022-07-23T18:02:28Z</time>
      </trkpt>
      <trkpt lat="46.4658770" lon="6.0487090">
        <ele>1024.6</ele>
        <time>2022-07-23T18:02:33Z</time>
      </trkpt>
      <trkpt lat="46.4659020" lon="6.0486820">
        <ele>1025.0</ele>
        <time>2022-07-23T18:02:36Z</time>
      </trkpt>
      <trkpt lat="46.4659120" lon="6.0486630">
        <ele>1025.6</ele>
        <time>2022-07-23T18:02:38Z</time>
      </trkpt>
      <trkpt lat="46.4659530" lon="6.0486210">
        <ele>1026.6</ele>
        <time>2022-07-23T18:02:43Z</time>
      </trkpt>
      <trkpt lat="46.4659640" lon="6.0486100">
        <ele>1026.8</ele>
        <time>2022-07-23T18:02:44Z</time>
      </trkpt>
      <trkpt lat="46.4660060" lon="6.0485510">
        <ele>1027.8</ele>
        <time>2022-07-23T18:02:49Z</time>
      </trkpt>
      <trkpt lat="46.4660540" lon="6.0484750">
        <ele>1028.8</ele>
        <time>2022-07-23T18:02:55Z</time>
      </trkpt>
      <trkpt lat="46.4660980" lon="6.0483730">
        <ele>1029.8</ele>
        <time>2022-07-23T18:03:02Z</time>
      </trkpt>
      <trkpt lat="46.4661020" lon="6.0483570">
        <ele>1030.0</ele>
        <time>2022-07-23T18:03:03Z</time>
      </trkpt>
      <trkpt lat="46.4661550" lon="6.0482500">
        <ele>1031.0</ele>
        <time>2022-07-23T18:03:11Z</time>
      </trkpt>
      <trkpt lat="46.4662690" lon="6.0480820">
        <ele>1031.6</ele>
        <time>2022-07-23T18:03:18Z</time>
      </trkpt>
      <trkpt lat="46.4664340" lon="6.0478990">
        <ele>1031.6</ele>
        <time>2022-07-23T18:03:25Z</time>
      </trkpt>
      <trkpt lat="46.4665570" lon="6.0477800">
        <ele>1031.4</ele>
        <time>2022-07-23T18:03:31Z</time>
      </trkpt>
      <trkpt lat="46.4667250" lon="6.0475860">
        <ele>1031.8</ele>
        <time>2022-07-23T18:03:39Z</time>
      </trkpt>
      <trkpt lat="46.4667950" lon="6.0474590">
        <ele>1032.0</ele>
        <time>2022-07-23T18:03:43Z</time>
      </trkpt>
      <trkpt lat="46.4668070" lon="6.0474360">
        <ele>1032.0</ele>
        <time>2022-07-23T18:03:44Z</time>
      </trkpt>
      <trkpt lat="46.4668730" lon="6.0473180">
        <ele>1032.4</ele>
        <time>2022-07-23T18:03:49Z</time>
      </trkpt>
      <trkpt lat="46.4669330" lon="6.0472270">
        <ele>1033.4</ele>
        <time>2022-07-23T18:03:52Z</time>
      </trkpt>
      <trkpt lat="46.4669970" lon="6.0471220">
        <ele>1034.2</ele>
        <time>2022-07-23T18:03:55Z</time>
      </trkpt>
      <trkpt lat="46.4670070" lon="6.0470830">
        <ele>1034.4</ele>
        <time>2022-07-23T18:03:56Z</time>
      </trkpt>
      <trkpt lat="46.4670520" lon="6.0468730">
        <ele>1034.6</ele>
        <time>2022-07-23T18:04:01Z</time>
      </trkpt>
      <trkpt lat="46.4670780" lon="6.0468270">
        <ele>1034.6</ele>
        <time>2022-07-23T18:04:02Z</time>
      </trkpt>
      <trkpt lat="46.4671890" lon="6.0466430">
        <ele>1034.6</ele>
        <time>2022-07-23T18:04:05Z</time>
      </trkpt>
      <trkpt lat="46.4673900" lon="6.0463090">
        <ele>1034.4</ele>
        <time>2022-07-23T18:04:10Z</time>
      </trkpt>
      <trkpt lat="46.4674490" lon="6.0462070">
        <ele>1033.0</ele>
        <time>2022-07-23T18:04:13Z</time>
      </trkpt>
      <trkpt lat="46.4674750" lon="6.0461630">
        <ele>1032.8</ele>
        <time>2022-07-23T18:04:16Z</time>
      </trkpt>
      <trkpt lat="46.4674970" lon="6.0460640">
        <ele>1032.4</ele>
        <time>2022-07-23T18:04:21Z</time>
      </trkpt>
      <trkpt lat="46.4675180" lon="6.0459440">
        <ele>1034.4</ele>
        <time>2022-07-23T18:04:28Z</time>
      </trkpt>
      <trkpt lat="46.4675390" lon="6.0458670">
        <ele>1035.6</ele>
        <time>2022-07-23T18:04:32Z</time>
      </trkpt>
      <trkpt lat="46.4675550" lon="6.0458220">
        <ele>1036.6</ele>
        <time>2022-07-23T18:04:35Z</time>
      </trkpt>
      <trkpt lat="46.4675590" lon="6.0458060">
        <ele>1036.8</ele>
        <time>2022-07-23T18:04:36Z</time>
      </trkpt>
      <trkpt lat="46.4675860" lon="6.0457210">
        <ele>1038.0</ele>
        <time>2022-07-23T18:04:41Z</time>
      </trkpt>
      <trkpt lat="46.4675950" lon="6.0456880">
        <ele>1038.6</ele>
        <time>2022-07-23T18:04:43Z</time>
      </trkpt>
      <trkpt lat="46.4676130" lon="6.0456430">
        <ele>1039.2</ele>
        <time>2022-07-23T18:04:46Z</time>
      </trkpt>
      <trkpt lat="46.4676430" lon="6.0455900">
        <ele>1039.6</ele>
        <time>2022-07-23T18:04:50Z</time>
      </trkpt>
      <trkpt lat="46.4676810" lon="6.0455170">
        <ele>1040.2</ele>
        <time>2022-07-23T18:04:56Z</time>
      </trkpt>
      <trkpt lat="46.4676860" lon="6.0455040">
        <ele>1040.2</ele>
        <time>2022-07-23T18:04:57Z</time>
      </trkpt>
      <trkpt lat="46.4677450" lon="6.0454180">
        <ele>1041.2</ele>
        <time>2022-07-23T18:05:06Z</time>
      </trkpt>
      <trkpt lat="46.4677690" lon="6.0453870">
        <ele>1041.8</ele>
        <time>2022-07-23T18:05:09Z</time>
      </trkpt>
      <trkpt lat="46.4677830" lon="6.0453620">
        <ele>1042.4</ele>
        <time>2022-07-23T18:05:11Z</time>
      </trkpt>
      <trkpt lat="46.4678350" lon="6.0452640">
        <ele>1043.6</ele>
        <time>2022-07-23T18:05:19Z</time>
      </trkpt>
      <trkpt lat="46.4678470" lon="6.0452400">
        <ele>1043.8</ele>
        <time>2022-07-23T18:05:21Z</time>
      </trkpt>
      <trkpt lat="46.4678780" lon="6.0451870">
        <ele>1044.6</ele>
        <time>2022-07-23T18:05:25Z</time>
      </trkpt>
      <trkpt lat="46.4679260" lon="6.0450670">
        <ele>1045.4</ele>
        <time>2022-07-23T18:05:32Z</time>
      </trkpt>
      <trkpt lat="46.4679430" lon="6.0450180">
        <ele>1045.8</ele>
        <time>2022-07-23T18:05:35Z</time>
      </trkpt>
      <trkpt lat="46.4680140" lon="6.0448720">
        <ele>1046.6</ele>
        <time>2022-07-23T18:05:43Z</time>
      </trkpt>
      <trkpt lat="46.4680360" lon="6.0448250">
        <ele>1047.0</ele>
        <time>2022-07-23T18:05:46Z</time>
      </trkpt>
      <trkpt lat="46.4680560" lon="6.0447620">
        <ele>1047.4</ele>
        <time>2022-07-23T18:05:50Z</time>
      </trkpt>
      <trkpt lat="46.4680640" lon="6.0446890">
        <ele>1048.0</ele>
        <time>2022-07-23T18:05:54Z</time>
      </trkpt>
      <trkpt lat="46.4680600" lon="6.0446160">
        <ele>1049.0</ele>
        <time>2022-07-23T18:06:00Z</time>
      </trkpt>
      <trkpt lat="46.4680520" lon="6.0445870">
        <ele>1049.2</ele>
        <time>2022-07-23T18:06:01Z</time>
      </trkpt>
      <trkpt lat="46.4680450" lon="6.0445670">
        <ele>1049.4</ele>
        <time>2022-07-23T18:06:02Z</time>
      </trkpt>
      <trkpt lat="46.4680240" lon="6.0445100">
        <ele>1050.2</ele>
        <time>2022-07-23T18:06:05Z</time>
      </trkpt>
      <trkpt lat="46.4679860" lon="6.0444420">
        <ele>1051.2</ele>
        <time>2022-07-23T18:06:10Z</time>
      </trkpt>
      <trkpt lat="46.4679500" lon="6.0444210">
        <ele>1052.4</ele>
        <time>2022-07-23T18:06:15Z</time>
      </trkpt>
      <trkpt lat="46.4679250" lon="6.0444020">
        <ele>1053.6</ele>
        <time>2022-07-23T18:06:19Z</time>
      </trkpt>
      <trkpt lat="46.4679030" lon="6.0443870">
        <ele>1054.0</ele>
        <time>2022-07-23T18:06:22Z</time>
      </trkpt>
      <trkpt lat="46.4678630" lon="6.0443520">
        <ele>1054.8</ele>
        <time>2022-07-23T18:06:28Z</time>
      </trkpt>
      <trkpt lat="46.4678350" lon="6.0443050">
        <ele>1055.6</ele>
        <time>2022-07-23T18:06:33Z</time>
      </trkpt>
      <trkpt lat="46.4678240" lon="6.0442960">
        <ele>1055.8</ele>
        <time>2022-07-23T18:06:35Z</time>
      </trkpt>
      <trkpt lat="46.4677800" lon="6.0442640">
        <ele>1056.8</ele>
        <time>2022-07-23T18:06:40Z</time>
      </trkpt>
      <trkpt lat="46.4677560" lon="6.0442580">
        <ele>1057.0</ele>
        <time>2022-07-23T18:06:42Z</time>
      </trkpt>
      <trkpt lat="46.4677270" lon="6.0442480">
        <ele>1057.6</ele>
        <time>2022-07-23T18:06:45Z</time>
      </trkpt>
      <trkpt lat="46.4677060" lon="6.0442450">
        <ele>1058.0</ele>
        <time>2022-07-23T18:06:47Z</time>
      </trkpt>
      <trkpt lat="46.4676260" lon="6.0442340">
        <ele>1059.0</ele>
        <time>2022-07-23T18:06:54Z</time>
      </trkpt>
      <trkpt lat="46.4675890" lon="6.0442290">
        <ele>1059.4</ele>
        <time>2022-07-23T18:06:57Z</time>
      </trkpt>
      <trkpt lat="46.4675290" lon="6.0442050">
        <ele>1060.0</ele>
        <time>2022-07-23T18:07:02Z</time>
      </trkpt>
      <trkpt lat="46.4675070" lon="6.0442010">
        <ele>1060.2</ele>
        <time>2022-07-23T18:07:04Z</time>
      </trkpt>
      <trkpt lat="46.4674420" lon="6.0441860">
        <ele>1061.0</ele>
        <time>2022-07-23T18:07:10Z</time>
      </trkpt>
      <trkpt lat="46.4674240" lon="6.0441860">
        <ele>1061.4</ele>
        <time>2022-07-23T18:07:12Z</time>
      </trkpt>
      <trkpt lat="46.4673730" lon="6.0441760">
        <ele>1062.2</ele>
        <time>2022-07-23T18:07:18Z</time>
      </trkpt>
      <trkpt lat="46.4673430" lon="6.0441710">
        <ele>1062.4</ele>
        <time>2022-07-23T18:07:21Z</time>
      </trkpt>
      <trkpt lat="46.4672860" lon="6.0441620">
        <ele>1063.4</ele>
        <time>2022-07-23T18:07:28Z</time>
      </trkpt>
      <trkpt lat="46.4672540" lon="6.0441520">
        <ele>1063.8</ele>
        <time>2022-07-23T18:07:32Z</time>
      </trkpt>
      <trkpt lat="46.4672170" lon="6.0441510">
        <ele>1064.4</ele>
        <time>2022-07-23T18:07:36Z</time>
      </trkpt>
      <trkpt lat="46.4671630" lon="6.0441530">
        <ele>1065.4</ele>
        <time>2022-07-23T18:07:42Z</time>
      </trkpt>
      <trkpt lat="46.4671540" lon="6.0441530">
        <ele>1065.6</ele>
        <time>2022-07-23T18:07:43Z</time>
      </trkpt>
      <trkpt lat="46.4670710" lon="6.0441420">
        <ele>1066.8</ele>
        <time>2022-07-23T18:07:51Z</time>
      </trkpt>
      <trkpt lat="46.4670380" lon="6.0441350">
        <ele>1067.4</ele>
        <time>2022-07-23T18:07:54Z</time>
      </trkpt>
      <trkpt lat="46.4670090" lon="6.0441250">
        <ele>1067.8</ele>
        <time>2022-07-23T18:07:57Z</time>
      </trkpt>
      <trkpt lat="46.4669510" lon="6.0441060">
        <ele>1069.0</ele>
        <time>2022-07-23T18:08:03Z</time>
      </trkpt>
      <trkpt lat="46.4669360" lon="6.0440870">
        <ele>1069.4</ele>
        <time>2022-07-23T18:08:05Z</time>
      </trkpt>
      <trkpt lat="46.4669300" lon="6.0440570">
        <ele>1070.0</ele>
        <time>2022-07-23T18:08:07Z</time>
      </trkpt>
      <trkpt lat="46.4669280" lon="6.0439790">
        <ele>1071.0</ele>
        <time>2022-07-23T18:08:12Z</time>
      </trkpt>
      <trkpt lat="46.4669270" lon="6.0439620">
        <ele>1071.2</ele>
        <time>2022-07-23T18:08:13Z</time>
      </trkpt>
      <trkpt lat="46.4669480" lon="6.0438360">
        <ele>1072.4</ele>
        <time>2022-07-23T18:08:20Z</time>
      </trkpt>
      <trkpt lat="46.4669720" lon="6.0437210">
        <ele>1073.4</ele>
        <time>2022-07-23T18:08:26Z</time>
      </trkpt>
      <trkpt lat="46.4669920" lon="6.0436470">
        <ele>1073.8</ele>
        <time>2022-07-23T18:08:30Z</time>
      </trkpt>
      <trkpt lat="46.4670050" lon="6.0435410">
        <ele>1074.6</ele>
        <time>2022-07-23T18:08:36Z</time>
      </trkpt>
      <trkpt lat="46.4670160" lon="6.0434610">
        <ele>1075.0</ele>
        <time>2022-07-23T18:08:40Z</time>
      </trkpt>
      <trkpt lat="46.4670410" lon="6.0433650">
        <ele>1075.6</ele>
        <time>2022-07-23T18:08:44Z</time>
      </trkpt>
      <trkpt lat="46.4670680" lon="6.0433040">
        <ele>1076.2</ele>
        <time>2022-07-23T18:08:48Z</time>
      </trkpt>
      <trkpt lat="46.4671340" lon="6.0431770">
        <ele>1076.8</ele>
        <time>2022-07-23T18:08:55Z</time>
      </trkpt>
      <trkpt lat="46.4671390" lon="6.0431270">
        <ele>1076.8</ele>
        <time>2022-07-23T18:08:56Z</time>
      </trkpt>
      <trkpt lat="46.4671240" lon="6.0429550">
        <ele>1077.6</ele>
        <time>2022-07-23T18:09:03Z</time>
      </trkpt>
      <trkpt lat="46.4671150" lon="6.0428790">
        <ele>1078.0</ele>
        <time>2022-07-23T18:09:06Z</time>
      </trkpt>
      <trkpt lat="46.4671060" lon="6.0427840">
        <ele>1078.4</ele>
        <time>2022-07-23T18:09:10Z</time>
      </trkpt>
      <trkpt lat="46.4670880" lon="6.0426780">
        <ele>1079.0</ele>
        <time>2022-07-23T18:09:14Z</time>
      </trkpt>
      <trkpt lat="46.4670810" lon="6.0425780">
        <ele>1079.4</ele>
        <time>2022-07-23T18:09:18Z</time>
      </trkpt>
      <trkpt lat="46.4670520" lon="6.0425050">
        <ele>1080.2</ele>
        <time>2022-07-23T18:09:22Z</time>
      </trkpt>
      <trkpt lat="46.4670370" lon="6.0424390">
        <ele>1080.8</ele>
        <time>2022-07-23T18:09:25Z</time>
      </trkpt>
      <trkpt lat="46.4670040" lon="6.0422760">
        <ele>1081.4</ele>
        <time>2022-07-23T18:09:31Z</time>
      </trkpt>
      <trkpt lat="46.4669900" lon="6.0421900">
        <ele>1081.8</ele>
        <time>2022-07-23T18:09:34Z</time>
      </trkpt>
      <trkpt lat="46.4669500" lon="6.0420390">
        <ele>1082.4</ele>
        <time>2022-07-23T18:09:40Z</time>
      </trkpt>
      <trkpt lat="46.4669300" lon="6.0419980">
        <ele>1082.6</ele>
        <time>2022-07-23T18:09:42Z</time>
      </trkpt>
      <trkpt lat="46.4668480" lon="6.0418240">
        <ele>1083.2</ele>
        <time>2022-07-23T18:09:49Z</time>
      </trkpt>
      <trkpt lat="46.4668150" lon="6.0417650">
        <ele>1083.4</ele>
        <time>2022-07-23T18:09:51Z</time>
      </trkpt>
      <trkpt lat="46.4666940" lon="6.0415110">
        <ele>1083.6</ele>
        <time>2022-07-23T18:09:58Z</time>
      </trkpt>
      <trkpt lat="46.4664730" lon="6.0410740">
        <ele>1083.6</ele>
        <time>2022-07-23T18:10:08Z</time>
      </trkpt>
      <trkpt lat="46.4663190" lon="6.0408730">
        <ele>1083.8</ele>
        <time>2022-07-23T18:10:15Z</time>
      </trkpt>
      <trkpt lat="46.4662360" lon="6.0407690">
        <ele>1084.6</ele>
        <time>2022-07-23T18:10:21Z</time>
      </trkpt>
      <trkpt lat="46.4662080" lon="6.0407330">
        <ele>1085.2</ele>
        <time>2022-07-23T18:10:23Z</time>
      </trkpt>
      <trkpt lat="46.4661720" lon="6.0407000">
        <ele>1085.6</ele>
        <time>2022-07-23T18:10:25Z</time>
      </trkpt>
      <trkpt lat="46.4661050" lon="6.0406340">
        <ele>1086.8</ele>
        <time>2022-07-23T18:10:29Z</time>
      </trkpt>
      <trkpt lat="46.4660770" lon="6.0405890">
        <ele>1087.2</ele>
        <time>2022-07-23T18:10:31Z</time>
      </trkpt>
      <trkpt lat="46.4660260" lon="6.0405140">
        <ele>1087.8</ele>
        <time>2022-07-23T18:10:34Z</time>
      </trkpt>
      <trkpt lat="46.4659000" lon="6.0403630">
        <ele>1088.6</ele>
        <time>2022-07-23T18:10:40Z</time>
      </trkpt>
      <trkpt lat="46.4657270" lon="6.0401410">
        <ele>1088.6</ele>
        <time>2022-07-23T18:10:46Z</time>
      </trkpt>
      <trkpt lat="46.4655580" lon="6.0398370">
        <ele>1088.6</ele>
        <time>2022-07-23T18:10:50Z</time>
      </trkpt>
      <trkpt lat="46.4654810" lon="6.0396270">
        <ele>1088.6</ele>
        <time>2022-07-23T18:10:52Z</time>
      </trkpt>
      <trkpt lat="46.4654380" lon="6.0394030">
        <ele>1088.4</ele>
        <time>2022-07-23T18:10:54Z</time>
      </trkpt>
      <trkpt lat="46.4654290" lon="6.0392010">
        <ele>1087.6</ele>
        <time>2022-07-23T18:10:56Z</time>
      </trkpt>
      <trkpt lat="46.4654330" lon="6.0390290">
        <ele>1086.6</ele>
        <time>2022-07-23T18:10:58Z</time>
      </trkpt>
      <trkpt lat="46.4654380" lon="6.0388840">
        <ele>1085.2</ele>
        <time>2022-07-23T18:11:00Z</time>
      </trkpt>
      <trkpt lat="46.4654330" lon="6.0386320">
        <ele>1084.8</ele>
        <time>2022-07-23T18:11:04Z</time>
      </trkpt>
      <trkpt lat="46.4653570" lon="6.0382510">
        <ele>1084.8</ele>
        <time>2022-07-23T18:11:11Z</time>
      </trkpt>
      <trkpt lat="46.4651990" lon="6.0379040">
        <ele>1085.0</ele>
        <time>2022-07-23T18:11:18Z</time>
      </trkpt>
      <trkpt lat="46.4650020" lon="6.0374740">
        <ele>1085.0</ele>
        <time>2022-07-23T18:11:25Z</time>
      </trkpt>
      <trkpt lat="46.4647860" lon="6.0369390">
        <ele>1084.2</ele>
        <time>2022-07-23T18:11:32Z</time>
      </trkpt>
      <trkpt lat="46.4646290" lon="6.0365800">
        <ele>1083.2</ele>
        <time>2022-07-23T18:11:38Z</time>
      </trkpt>
      <trkpt lat="46.4645140" lon="6.0363070">
        <ele>1083.0</ele>
        <time>2022-07-23T18:11:45Z</time>
      </trkpt>
      <trkpt lat="46.4644320" lon="6.0361260">
        <ele>1083.4</ele>
        <time>2022-07-23T18:11:52Z</time>
      </trkpt>
      <trkpt lat="46.4643600" lon="6.0360160">
        <ele>1084.4</ele>
        <time>2022-07-23T18:11:57Z</time>
      </trkpt>
      <trkpt lat="46.4642990" lon="6.0359350">
        <ele>1085.0</ele>
        <time>2022-07-23T18:12:01Z</time>
      </trkpt>
      <trkpt lat="46.4642680" lon="6.0358910">
        <ele>1085.4</ele>
        <time>2022-07-23T18:12:03Z</time>
      </trkpt>
      <trkpt lat="46.4641970" lon="6.0357900">
        <ele>1086.0</ele>
        <time>2022-07-23T18:12:08Z</time>
      </trkpt>
      <trkpt lat="46.4641480" lon="6.0357050">
        <ele>1086.4</ele>
        <time>2022-07-23T18:12:12Z</time>
      </trkpt>
      <trkpt lat="46.4641150" lon="6.0356320">
        <ele>1086.8</ele>
        <time>2022-07-23T18:12:15Z</time>
      </trkpt>
      <trkpt lat="46.4640910" lon="6.0355470">
        <ele>1087.4</ele>
        <time>2022-07-23T18:12:18Z</time>
      </trkpt>
      <trkpt lat="46.4640610" lon="6.0354090">
        <ele>1088.6</ele>
        <time>2022-07-23T18:12:23Z</time>
      </trkpt>
      <trkpt lat="46.4640580" lon="6.0353820">
        <ele>1088.6</ele>
        <time>2022-07-23T18:12:24Z</time>
      </trkpt>
      <trkpt lat="46.4640620" lon="6.0351480">
        <ele>1089.8</ele>
        <time>2022-07-23T18:12:33Z</time>
      </trkpt>
      <trkpt lat="46.4640810" lon="6.0349790">
        <ele>1091.0</ele>
        <time>2022-07-23T18:12:40Z</time>
      </trkpt>
      <trkpt lat="46.4640850" lon="6.0349600">
        <ele>1091.0</ele>
        <time>2022-07-23T18:12:41Z</time>
      </trkpt>
      <trkpt lat="46.4641070" lon="6.0348430">
        <ele>1092.0</ele>
        <time>2022-07-23T18:12:47Z</time>
      </trkpt>
      <trkpt lat="46.4641150" lon="6.0348080">
        <ele>1092.4</ele>
        <time>2022-07-23T18:12:49Z</time>
      </trkpt>
      <trkpt lat="46.4641250" lon="6.0347350">
        <ele>1093.0</ele>
        <time>2022-07-23T18:12:53Z</time>
      </trkpt>
      <trkpt lat="46.4641250" lon="6.0347160">
        <ele>1093.2</ele>
        <time>2022-07-23T18:12:54Z</time>
      </trkpt>
      <trkpt lat="46.4641230" lon="6.0346760">
        <ele>1093.6</ele>
        <time>2022-07-23T18:12:56Z</time>
      </trkpt>
      <trkpt lat="46.4641210" lon="6.0346180">
        <ele>1094.2</ele>
        <time>2022-07-23T18:12:59Z</time>
      </trkpt>
      <trkpt lat="46.4640970" lon="6.0344880">
        <ele>1095.2</ele>
        <time>2022-07-23T18:13:06Z</time>
      </trkpt>
      <trkpt lat="46.4640610" lon="6.0343080">
        <ele>1096.4</ele>
        <time>2022-07-23T18:13:16Z</time>
      </trkpt>
      <trkpt lat="46.4640220" lon="6.0341760">
        <ele>1097.4</ele>
        <time>2022-07-23T18:13:23Z</time>
      </trkpt>
      <trkpt lat="46.4640010" lon="6.0341180">
        <ele>1098.0</ele>
        <time>2022-07-23T18:13:26Z</time>
      </trkpt>
      <trkpt lat="46.4639910" lon="6.0341000">
        <ele>1098.4</ele>
        <time>2022-07-23T18:13:27Z</time>
      </trkpt>
      <trkpt lat="46.4639200" lon="6.0339810">
        <ele>1099.4</ele>
        <time>2022-07-23T18:13:33Z</time>
      </trkpt>
      <trkpt lat="46.4638770" lon="6.0339260">
        <ele>1099.8</ele>
        <time>2022-07-23T18:13:36Z</time>
      </trkpt>
      <trkpt lat="46.4637840" lon="6.0337890">
        <ele>1100.2</ele>
        <time>2022-07-23T18:13:42Z</time>
      </trkpt>
      <trkpt lat="46.4636330" lon="6.0336210">
        <ele>1100.8</ele>
        <time>2022-07-23T18:13:50Z</time>
      </trkpt>
      <trkpt lat="46.4636120" lon="6.0335980">
        <ele>1100.8</ele>
        <time>2022-07-23T18:13:51Z</time>
      </trkpt>
      <trkpt lat="46.4634320" lon="6.0333720">
        <ele>1101.6</ele>
        <time>2022-07-23T18:13:59Z</time>
      </trkpt>
      <trkpt lat="46.4633280" lon="6.0331820">
        <ele>1101.8</ele>
        <time>2022-07-23T18:14:05Z</time>
      </trkpt>
      <trkpt lat="46.4631930" lon="6.0328710">
        <ele>1102.6</ele>
        <time>2022-07-23T18:14:15Z</time>
      </trkpt>
      <trkpt lat="46.4631670" lon="6.0328100">
        <ele>1103.0</ele>
        <time>2022-07-23T18:14:17Z</time>
      </trkpt>
      <trkpt lat="46.4630750" lon="6.0326540">
        <ele>1103.6</ele>
        <time>2022-07-23T18:14:23Z</time>
      </trkpt>
      <trkpt lat="46.4630360" lon="6.0326240">
        <ele>1104.0</ele>
        <time>2022-07-23T18:14:25Z</time>
      </trkpt>
      <trkpt lat="46.4629350" lon="6.0325020">
        <ele>1105.0</ele>
        <time>2022-07-23T18:14:31Z</time>
      </trkpt>
      <trkpt lat="46.4629280" lon="6.0324690">
        <ele>1105.2</ele>
        <time>2022-07-23T18:14:32Z</time>
      </trkpt>
      <trkpt lat="46.4628620" lon="6.0322540">
        <ele>1105.8</ele>
        <time>2022-07-23T18:14:39Z</time>
      </trkpt>
      <trkpt lat="46.4628050" lon="6.0321250">
        <ele>1106.2</ele>
        <time>2022-07-23T18:14:43Z</time>
      </trkpt>
      <trkpt lat="46.4627570" lon="6.0319800">
        <ele>1106.4</ele>
        <time>2022-07-23T18:14:47Z</time>
      </trkpt>
      <trkpt lat="46.4626180" lon="6.0316250">
        <ele>1106.6</ele>
        <time>2022-07-23T18:14:56Z</time>
      </trkpt>
      <trkpt lat="46.4624430" lon="6.0313060">
        <ele>1106.4</ele>
        <time>2022-07-23T18:15:03Z</time>
      </trkpt>
      <trkpt lat="46.4622070" lon="6.0308970">
        <ele>1105.2</ele>
        <time>2022-07-23T18:15:11Z</time>
      </trkpt>
      <trkpt lat="46.4621910" lon="6.0308470">
        <ele>1104.8</ele>
        <time>2022-07-23T18:15:12Z</time>
      </trkpt>
      <trkpt lat="46.4621750" lon="6.0307030">
        <ele>1104.0</ele>
        <time>2022-07-23T18:15:15Z</time>
      </trkpt>
      <trkpt lat="46.4621670" lon="6.0306640">
        <ele>1103.6</ele>
        <time>2022-07-23T18:15:16Z</time>
      </trkpt>
      <trkpt lat="46.4621070" lon="6.0305700">
        <ele>1103.0</ele>
        <time>2022-07-23T18:15:19Z</time>
      </trkpt>
      <trkpt lat="46.4620470" lon="6.0304980">
        <ele>1102.6</ele>
        <time>2022-07-23T18:15:21Z</time>
      </trkpt>
      <trkpt lat="46.4619080" lon="6.0303280">
        <ele>1101.8</ele>
        <time>2022-07-23T18:15:25Z</time>
      </trkpt>
      <trkpt lat="46.4618360" lon="6.0302360">
        <ele>1101.6</ele>
        <time>2022-07-23T18:15:27Z</time>
      </trkpt>
      <trkpt lat="46.4616750" lon="6.0300370">
        <ele>1100.8</ele>
        <time>2022-07-23T18:15:32Z</time>
      </trkpt>
      <trkpt lat="46.4616030" lon="6.0299460">
        <ele>1100.4</ele>
        <time>2022-07-23T18:15:35Z</time>
      </trkpt>
      <trkpt lat="46.4615430" lon="6.0298740">
        <ele>1100.4</ele>
        <time>2022-07-23T18:15:38Z</time>
      </trkpt>
      <trkpt lat="46.4614130" lon="6.0297540">
        <ele>1100.4</ele>
        <time>2022-07-23T18:15:44Z</time>
      </trkpt>
      <trkpt lat="46.4612480" lon="6.0296380">
        <ele>1100.6</ele>
        <time>2022-07-23T18:15:50Z</time>
      </trkpt>
      <trkpt lat="46.4610760" lon="6.0295310">
        <ele>1101.2</ele>
        <time>2022-07-23T18:15:56Z</time>
      </trkpt>
      <trkpt lat="46.4610200" lon="6.0294970">
        <ele>1101.6</ele>
        <time>2022-07-23T18:15:58Z</time>
      </trkpt>
      <trkpt lat="46.4609060" lon="6.0294190">
        <ele>1102.0</ele>
        <time>2022-07-23T18:16:02Z</time>
      </trkpt>
      <trkpt lat="46.4606940" lon="6.0292550">
        <ele>1102.6</ele>
        <time>2022-07-23T18:16:10Z</time>
      </trkpt>
      <trkpt lat="46.4604410" lon="6.0290400">
        <ele>1103.0</ele>
        <time>2022-07-23T18:16:18Z</time>
      </trkpt>
      <trkpt lat="46.4601340" lon="6.0287790">
        <ele>1103.0</ele>
        <time>2022-07-23T18:16:27Z</time>
      </trkpt>
      <trkpt lat="46.4598170" lon="6.0285780">
        <ele>1103.0</ele>
        <time>2022-07-23T18:16:36Z</time>
      </trkpt>
      <trkpt lat="46.4595880" lon="6.0284330">
        <ele>1103.6</ele>
        <time>2022-07-23T18:16:44Z</time>
      </trkpt>
      <trkpt lat="46.4595640" lon="6.0284080">
        <ele>1103.6</ele>
        <time>2022-07-23T18:16:45Z</time>
      </trkpt>
      <trkpt lat="46.4594890" lon="6.0282830">
        <ele>1104.4</ele>
        <time>2022-07-23T18:16:49Z</time>
      </trkpt>
      <trkpt lat="46.4594580" lon="6.0282160">
        <ele>1105.0</ele>
        <time>2022-07-23T18:16:51Z</time>
      </trkpt>
      <trkpt lat="46.4593780" lon="6.0280180">
        <ele>1105.6</ele>
        <time>2022-07-23T18:16:57Z</time>
      </trkpt>
      <trkpt lat="46.4593340" lon="6.0279010">
        <ele>1106.0</ele>
        <time>2022-07-23T18:17:00Z</time>
      </trkpt>
      <trkpt lat="46.4592940" lon="6.0277970">
        <ele>1106.2</ele>
        <time>2022-07-23T18:17:03Z</time>
      </trkpt>
      <trkpt lat="46.4592260" lon="6.0275980">
        <ele>1106.2</ele>
        <time>2022-07-23T18:17:09Z</time>
      </trkpt>
      <trkpt lat="46.4592250" lon="6.0275090">
        <ele>1106.2</ele>
        <time>2022-07-23T18:17:14Z</time>
      </trkpt>
      <trkpt lat="46.4592240" lon="6.0275090">
        <ele>1106.2</ele>
        <time>2022-07-23T18:17:15Z</time>
      </trkpt>
      <trkpt lat="46.4592090" lon="6.0275240">
        <ele>1105.8</ele>
        <time>2022-07-23T18:23:36Z</time>
      </trkpt>
      <trkpt lat="46.4592170" lon="6.0275600">
        <ele>1105.8</ele>
        <time>2022-07-23T18:23:38Z</time>
      </trkpt>
      <trkpt lat="46.4592330" lon="6.0276260">
        <ele>1105.8</ele>
        <time>2022-07-23T18:23:41Z</time>
      </trkpt>
      <trkpt lat="46.4592570" lon="6.0276960">
        <ele>1105.8</ele>
        <time>2022-07-23T18:23:44Z</time>
      </trkpt>
      <trkpt lat="46.4593170" lon="6.0278630">
        <ele>1105.8</ele>
        <time>2022-07-23T18:23:50Z</time>
      </trkpt>
      <trkpt lat="46.4593950" lon="6.0280900">
        <ele>1106.2</ele>
        <time>2022-07-23T18:23:57Z</time>
      </trkpt>
      <trkpt lat="46.4595240" lon="6.0283580">
        <ele>1106.2</ele>
        <time>2022-07-23T18:24:04Z</time>
      </trkpt>
      <trkpt lat="46.4595840" lon="6.0284320">
        <ele>1106.2</ele>
        <time>2022-07-23T18:24:06Z</time>
      </trkpt>
      <trkpt lat="46.4597020" lon="6.0285270">
        <ele>1106.2</ele>
        <time>2022-07-23T18:24:09Z</time>
      </trkpt>
      <trkpt lat="46.4597870" lon="6.0285810">
        <ele>1106.0</ele>
        <time>2022-07-23T18:24:11Z</time>
      </trkpt>
      <trkpt lat="46.4599760" lon="6.0286890">
        <ele>1105.8</ele>
        <time>2022-07-23T18:24:15Z</time>
      </trkpt>
      <trkpt lat="46.4602970" lon="6.0289310">
        <ele>1104.6</ele>
        <time>2022-07-23T18:24:22Z</time>
      </trkpt>
      <trkpt lat="46.4603770" lon="6.0290010">
        <ele>1104.2</ele>
        <time>2022-07-23T18:24:24Z</time>
      </trkpt>
      <trkpt lat="46.4605470" lon="6.0291590">
        <ele>1103.6</ele>
        <time>2022-07-23T18:24:29Z</time>
      </trkpt>
      <trkpt lat="46.4608300" lon="6.0293950">
        <ele>1103.4</ele>
        <time>2022-07-23T18:24:38Z</time>
      </trkpt>
      <trkpt lat="46.4611190" lon="6.0295970">
        <ele>1103.4</ele>
        <time>2022-07-23T18:24:46Z</time>
      </trkpt>
      <trkpt lat="46.4612750" lon="6.0296860">
        <ele>1103.2</ele>
        <time>2022-07-23T18:24:50Z</time>
      </trkpt>
      <trkpt lat="46.4614240" lon="6.0297690">
        <ele>1103.0</ele>
        <time>2022-07-23T18:24:54Z</time>
      </trkpt>
      <trkpt lat="46.4614620" lon="6.0297950">
        <ele>1102.8</ele>
        <time>2022-07-23T18:24:55Z</time>
      </trkpt>
      <trkpt lat="46.4616080" lon="6.0299520">
        <ele>1102.2</ele>
        <time>2022-07-23T18:24:59Z</time>
      </trkpt>
      <trkpt lat="46.4618070" lon="6.0302130">
        <ele>1101.0</ele>
        <time>2022-07-23T18:25:05Z</time>
      </trkpt>
      <trkpt lat="46.4618960" lon="6.0303320">
        <ele>1100.6</ele>
        <time>2022-07-23T18:25:08Z</time>
      </trkpt>
      <trkpt lat="46.4619470" lon="6.0304420">
        <ele>1100.2</ele>
        <time>2022-07-23T18:25:11Z</time>
      </trkpt>
      <trkpt lat="46.4619470" lon="6.0304750">
        <ele>1100.2</ele>
        <time>2022-07-23T18:25:12Z</time>
      </trkpt>
      <trkpt lat="46.4619200" lon="6.0305410">
        <ele>1100.2</ele>
        <time>2022-07-23T18:25:15Z</time>
      </trkpt>
      <trkpt lat="46.4618980" lon="6.0305750">
        <ele>1100.2</ele>
        <time>2022-07-23T18:25:17Z</time>
      </trkpt>
      <trkpt lat="46.4618120" lon="6.0307190">
        <ele>1100.2</ele>
        <time>2022-07-23T18:25:23Z</time>
      </trkpt>
      <trkpt lat="46.4616780" lon="6.0309480">
        <ele>1100.0</ele>
        <time>2022-07-23T18:25:30Z</time>
      </trkpt>
      <trkpt lat="46.4616480" lon="6.0309880">
        <ele>1100.0</ele>
        <time>2022-07-23T18:25:32Z</time>
      </trkpt>
      <trkpt lat="46.4616250" lon="6.0310210">
        <ele>1100.0</ele>
        <time>2022-07-23T18:25:35Z</time>
      </trkpt>
      <trkpt lat="46.4616210" lon="6.0310300">
        <ele>1100.0</ele>
        <time>2022-07-23T18:25:37Z</time>
      </trkpt>
      <trkpt lat="46.4616490" lon="6.0310000">
        <ele>1099.8</ele>
        <time>2022-07-23T18:27:06Z</time>
      </trkpt>
      <trkpt lat="46.4616660" lon="6.0309730">
        <ele>1099.8</ele>
        <time>2022-07-23T18:27:07Z</time>
      </trkpt>
      <trkpt lat="46.4617760" lon="6.0307750">
        <ele>1099.8</ele>
        <time>2022-07-23T18:27:13Z</time>
      </trkpt>
      <trkpt lat="46.4619330" lon="6.0305170">
        <ele>1099.6</ele>
        <time>2022-07-23T18:27:21Z</time>
      </trkpt>
      <trkpt lat="46.4619610" lon="6.0304960">
        <ele>1099.6</ele>
        <time>2022-07-23T18:27:22Z</time>
      </trkpt>
      <trkpt lat="46.4620230" lon="6.0305090">
        <ele>1099.6</ele>
        <time>2022-07-23T18:27:24Z</time>
      </trkpt>
      <trkpt lat="46.4620900" lon="6.0305790">
        <ele>1099.6</ele>
        <time>2022-07-23T18:27:27Z</time>
      </trkpt>
      <trkpt lat="46.4621330" lon="6.0306430">
        <ele>1099.6</ele>
        <time>2022-07-23T18:27:30Z</time>
      </trkpt>
      <trkpt lat="46.4621390" lon="6.0306520">
        <ele>1099.8</ele>
        <time>2022-07-23T18:27:32Z</time>
      </trkpt>
      <trkpt lat="46.4621460" lon="6.0306820">
        <ele>1100.8</ele>
        <time>2022-07-23T18:28:00Z</time>
      </trkpt>
      <trkpt lat="46.4621490" lon="6.0307060">
        <ele>1100.8</ele>
        <time>2022-07-23T18:28:01Z</time>
      </trkpt>
      <trkpt lat="46.4621960" lon="6.0309340">
        <ele>1100.8</ele>
        <time>2022-07-23T18:28:08Z</time>
      </trkpt>
      <trkpt lat="46.4622830" lon="6.0311150">
        <ele>1101.2</ele>
        <time>2022-07-23T18:28:14Z</time>
      </trkpt>
      <trkpt lat="46.4622990" lon="6.0311430">
        <ele>1101.4</ele>
        <time>2022-07-23T18:28:15Z</time>
      </trkpt>
      <trkpt lat="46.4624330" lon="6.0313540">
        <ele>1102.4</ele>
        <time>2022-07-23T18:28:23Z</time>
      </trkpt>
      <trkpt lat="46.4624670" lon="6.0314090">
        <ele>1102.6</ele>
        <time>2022-07-23T18:28:25Z</time>
      </trkpt>
      <trkpt lat="46.4625770" lon="6.0316160">
        <ele>1103.6</ele>
        <time>2022-07-23T18:28:33Z</time>
      </trkpt>
      <trkpt lat="46.4626280" lon="6.0317060">
        <ele>1104.2</ele>
        <time>2022-07-23T18:28:38Z</time>
      </trkpt>
      <trkpt lat="46.4626280" lon="6.0317080">
        <ele>1104.4</ele>
        <time>2022-07-23T18:28:39Z</time>
      </trkpt>
      <trkpt lat="46.4626580" lon="6.0317580">
        <ele>1104.8</ele>
        <time>2022-07-23T18:28:55Z</time>
      </trkpt>
      <trkpt lat="46.4626820" lon="6.0318130">
        <ele>1104.8</ele>
        <time>2022-07-23T18:28:57Z</time>
      </trkpt>
      <trkpt lat="46.4627780" lon="6.0320860">
        <ele>1105.0</ele>
        <time>2022-07-23T18:29:05Z</time>
      </trkpt>
      <trkpt lat="46.4628880" lon="6.0323620">
        <ele>1105.2</ele>
        <time>2022-07-23T18:29:13Z</time>
      </trkpt>
      <trkpt lat="46.4628740" lon="6.0325910">
        <ele>1105.2</ele>
        <time>2022-07-23T18:29:18Z</time>
      </trkpt>
      <trkpt lat="46.4627850" lon="6.0328970">
        <ele>1105.2</ele>
        <time>2022-07-23T18:29:25Z</time>
      </trkpt>
      <trkpt lat="46.4628050" lon="6.0331020">
        <ele>1105.2</ele>
        <time>2022-07-23T18:29:30Z</time>
      </trkpt>
      <trkpt lat="46.4628400" lon="6.0332530">
        <ele>1106.0</ele>
        <time>2022-07-23T18:29:34Z</time>
      </trkpt>
      <trkpt lat="46.4628650" lon="6.0334400">
        <ele>1106.8</ele>
        <time>2022-07-23T18:29:39Z</time>
      </trkpt>
      <trkpt lat="46.4628680" lon="6.0335120">
        <ele>1107.2</ele>
        <time>2022-07-23T18:29:41Z</time>
      </trkpt>
      <trkpt lat="46.4628800" lon="6.0337140">
        <ele>1107.6</ele>
        <time>2022-07-23T18:29:47Z</time>
      </trkpt>
      <trkpt lat="46.4628840" lon="6.0338220">
        <ele>1108.2</ele>
        <time>2022-07-23T18:29:50Z</time>
      </trkpt>
      <trkpt lat="46.4628980" lon="6.0340750">
        <ele>1109.0</ele>
        <time>2022-07-23T18:29:57Z</time>
      </trkpt>
      <trkpt lat="46.4629000" lon="6.0341840">
        <ele>1109.2</ele>
        <time>2022-07-23T18:30:00Z</time>
      </trkpt>
      <trkpt lat="46.4629100" lon="6.0344640">
        <ele>1110.0</ele>
        <time>2022-07-23T18:30:07Z</time>
      </trkpt>
      <trkpt lat="46.4629040" lon="6.0347160">
        <ele>1110.2</ele>
        <time>2022-07-23T18:30:13Z</time>
      </trkpt>
      <trkpt lat="46.4629060" lon="6.0348010">
        <ele>1110.4</ele>
        <time>2022-07-23T18:30:15Z</time>
      </trkpt>
      <trkpt lat="46.4629070" lon="6.0352430">
        <ele>1111.0</ele>
        <time>2022-07-23T18:30:25Z</time>
      </trkpt>
      <trkpt lat="46.4628610" lon="6.0355440">
        <ele>1111.4</ele>
        <time>2022-07-23T18:30:32Z</time>
      </trkpt>
      <trkpt lat="46.4627410" lon="6.0358810">
        <ele>1111.8</ele>
        <time>2022-07-23T18:30:40Z</time>
      </trkpt>
      <trkpt lat="46.4626150" lon="6.0360950">
        <ele>1112.0</ele>
        <time>2022-07-23T18:30:47Z</time>
      </trkpt>
      <trkpt lat="46.4625800" lon="6.0361210">
        <ele>1112.2</ele>
        <time>2022-07-23T18:30:49Z</time>
      </trkpt>
      <trkpt lat="46.4625530" lon="6.0361070">
        <ele>1112.4</ele>
        <time>2022-07-23T18:30:51Z</time>
      </trkpt>
      <trkpt lat="46.4625470" lon="6.0360910">
        <ele>1112.8</ele>
        <time>2022-07-23T18:30:53Z</time>
      </trkpt>
      <trkpt lat="46.4625470" lon="6.0360890">
        <ele>1112.8</ele>
        <time>2022-07-23T18:30:54Z</time>
      </trkpt>
      <trkpt lat="46.4626020" lon="6.0359240">
        <ele>1113.0</ele>
        <time>2022-07-23T18:32:25Z</time>
      </trkpt>
      <trkpt lat="46.4626060" lon="6.0358030">
        <ele>1113.0</ele>
        <time>2022-07-23T18:32:31Z</time>
      </trkpt>
      <trkpt lat="46.4625350" lon="6.0357180">
        <ele>1113.0</ele>
        <time>2022-07-23T18:32:38Z</time>
      </trkpt>
      <trkpt lat="46.4625200" lon="6.0357070">
        <ele>1113.0</ele>
        <time>2022-07-23T18:32:39Z</time>
      </trkpt>
      <trkpt lat="46.4624380" lon="6.0357170">
        <ele>1112.8</ele>
        <time>2022-07-23T18:32:44Z</time>
      </trkpt>
      <trkpt lat="46.4624180" lon="6.0357350">
        <ele>1112.8</ele>
        <time>2022-07-23T18:32:48Z</time>
      </trkpt>
      <trkpt lat="46.4619740" lon="6.0362460">
        <ele>1125.4</ele>
        <time>2022-07-24T07:53:56Z</time>
      </trkpt>
      <trkpt lat="46.4619940" lon="6.0361820">
        <ele>1125.4</ele>
        <time>2022-07-24T07:53:57Z</time>
      </trkpt>
      <trkpt lat="46.4623260" lon="6.0360140">
        <ele>1126.0</ele>
        <time>2022-07-24T07:55:46Z</time>
      </trkpt>
      <trkpt lat="46.4623580" lon="6.0359880">
        <ele>1126.0</ele>
        <time>2022-07-24T07:55:48Z</time>
      </trkpt>
      <trkpt lat="46.4624710" lon="6.0358580">
        <ele>1126.0</ele>
        <time>2022-07-24T07:55:55Z</time>
      </trkpt>
      <trkpt lat="46.4625430" lon="6.0358020">
        <ele>1125.8</ele>
        <time>2022-07-24T07:56:01Z</time>
      </trkpt>
      <trkpt lat="46.4625850" lon="6.0359150">
        <ele>1126.2</ele>
        <time>2022-07-24T07:56:06Z</time>
      </trkpt>
      <trkpt lat="46.4625410" lon="6.0361050">
        <ele>1127.0</ele>
        <time>2022-07-24T07:56:13Z</time>
      </trkpt>
      <trkpt lat="46.4625320" lon="6.0361480">
        <ele>1127.0</ele>
        <time>2022-07-24T07:56:15Z</time>
      </trkpt>
      <trkpt lat="46.4625590" lon="6.0361960">
        <ele>1127.0</ele>
        <time>2022-07-24T07:56:18Z</time>
      </trkpt>
      <trkpt lat="46.4626470" lon="6.0361770">
        <ele>1127.0</ele>
        <time>2022-07-24T07:56:22Z</time>
      </trkpt>
      <trkpt lat="46.4627220" lon="6.0360570">
        <ele>1127.0</ele>
        <time>2022-07-24T07:56:25Z</time>
      </trkpt>
      <trkpt lat="46.4627730" lon="6.0359650">
        <ele>1127.0</ele>
        <time>2022-07-24T07:56:27Z</time>
      </trkpt>
      <trkpt lat="46.4629290" lon="6.0356020">
        <ele>1126.6</ele>
        <time>2022-07-24T07:56:34Z</time>
      </trkpt>
      <trkpt lat="46.4629810" lon="6.0352200">
        <ele>1126.0</ele>
        <time>2022-07-24T07:56:41Z</time>
      </trkpt>
      <trkpt lat="46.4629690" lon="6.0347020">
        <ele>1126.0</ele>
        <time>2022-07-24T07:56:49Z</time>
      </trkpt>
      <trkpt lat="46.4629400" lon="6.0340480">
        <ele>1125.4</ele>
        <time>2022-07-24T07:56:58Z</time>
      </trkpt>
      <trkpt lat="46.4629390" lon="6.0339710">
        <ele>1125.4</ele>
        <time>2022-07-24T07:56:59Z</time>
      </trkpt>
      <trkpt lat="46.4629140" lon="6.0334780">
        <ele>1124.6</ele>
        <time>2022-07-24T07:57:05Z</time>
      </trkpt>
      <trkpt lat="46.4628950" lon="6.0333080">
        <ele>1124.6</ele>
        <time>2022-07-24T07:57:07Z</time>
      </trkpt>
      <trkpt lat="46.4628330" lon="6.0329590">
        <ele>1123.8</ele>
        <time>2022-07-24T07:57:11Z</time>
      </trkpt>
      <trkpt lat="46.4628510" lon="6.0327920">
        <ele>1123.4</ele>
        <time>2022-07-24T07:57:13Z</time>
      </trkpt>
      <trkpt lat="46.4628740" lon="6.0327150">
        <ele>1123.0</ele>
        <time>2022-07-24T07:57:14Z</time>
      </trkpt>
      <trkpt lat="46.4628980" lon="6.0326350">
        <ele>1122.8</ele>
        <time>2022-07-24T07:57:15Z</time>
      </trkpt>
      <trkpt lat="46.4629330" lon="6.0324730">
        <ele>1122.0</ele>
        <time>2022-07-24T07:57:17Z</time>
      </trkpt>
      <trkpt lat="46.4629240" lon="6.0323130">
        <ele>1121.6</ele>
        <time>2022-07-24T07:57:19Z</time>
      </trkpt>
      <trkpt lat="46.4628740" lon="6.0321770">
        <ele>1120.8</ele>
        <time>2022-07-24T07:57:21Z</time>
      </trkpt>
      <trkpt lat="46.4628440" lon="6.0321190">
        <ele>1120.4</ele>
        <time>2022-07-24T07:57:22Z</time>
      </trkpt>
      <trkpt lat="46.4628170" lon="6.0320590">
        <ele>1120.2</ele>
        <time>2022-07-24T07:57:23Z</time>
      </trkpt>
      <trkpt lat="46.4627750" lon="6.0319310">
        <ele>1119.6</ele>
        <time>2022-07-24T07:57:25Z</time>
      </trkpt>
      <trkpt lat="46.4626820" lon="6.0316870">
        <ele>1119.2</ele>
        <time>2022-07-24T07:57:29Z</time>
      </trkpt>
      <trkpt lat="46.4624420" lon="6.0312680">
        <ele>1118.8</ele>
        <time>2022-07-24T07:57:36Z</time>
      </trkpt>
      <trkpt lat="46.4623990" lon="6.0312020">
        <ele>1118.8</ele>
        <time>2022-07-24T07:57:37Z</time>
      </trkpt>
      <trkpt lat="46.4622640" lon="6.0309750">
        <ele>1118.6</ele>
        <time>2022-07-24T07:57:40Z</time>
      </trkpt>
      <trkpt lat="46.4622300" lon="6.0308940">
        <ele>1118.6</ele>
        <time>2022-07-24T07:57:41Z</time>
      </trkpt>
      <trkpt lat="46.4621630" lon="6.0306600">
        <ele>1118.2</ele>
        <time>2022-07-24T07:57:44Z</time>
      </trkpt>
      <trkpt lat="46.4621310" lon="6.0306030">
        <ele>1117.8</ele>
        <time>2022-07-24T07:57:45Z</time>
      </trkpt>
      <trkpt lat="46.4620500" lon="6.0305250">
        <ele>1116.6</ele>
        <time>2022-07-24T07:57:47Z</time>
      </trkpt>
      <trkpt lat="46.4620030" lon="6.0305080">
        <ele>1116.2</ele>
        <time>2022-07-24T07:57:48Z</time>
      </trkpt>
      <trkpt lat="46.4619080" lon="6.0304970">
        <ele>1115.6</ele>
        <time>2022-07-24T07:57:50Z</time>
      </trkpt>
      <trkpt lat="46.4618300" lon="6.0305140">
        <ele>1115.0</ele>
        <time>2022-07-24T07:57:52Z</time>
      </trkpt>
      <trkpt lat="46.4618010" lon="6.0305450">
        <ele>1114.8</ele>
        <time>2022-07-24T07:57:53Z</time>
      </trkpt>
      <trkpt lat="46.4617410" lon="6.0306630">
        <ele>1113.8</ele>
        <time>2022-07-24T07:57:56Z</time>
      </trkpt>
      <trkpt lat="46.4617250" lon="6.0307000">
        <ele>1113.6</ele>
        <time>2022-07-24T07:57:57Z</time>
      </trkpt>
      <trkpt lat="46.4616910" lon="6.0307680">
        <ele>1113.2</ele>
        <time>2022-07-24T07:57:59Z</time>
      </trkpt>
      <trkpt lat="46.4616560" lon="6.0308170">
        <ele>1113.4</ele>
        <time>2022-07-24T07:58:03Z</time>
      </trkpt>
      <trkpt lat="46.4616470" lon="6.0308340">
        <ele>1113.2</ele>
        <time>2022-07-24T07:58:06Z</time>
      </trkpt>
      <trkpt lat="46.4617670" lon="6.0308390">
        <ele>1113.0</ele>
        <time>2022-07-24T08:10:36Z</time>
      </trkpt>
      <trkpt lat="46.4617810" lon="6.0308310">
        <ele>1113.0</ele>
        <time>2022-07-24T08:10:37Z</time>
      </trkpt>
      <trkpt lat="46.4618380" lon="6.0307310">
        <ele>1112.8</ele>
        <time>2022-07-24T08:10:41Z</time>
      </trkpt>
      <trkpt lat="46.4619280" lon="6.0305430">
        <ele>1112.8</ele>
        <time>2022-07-24T08:10:48Z</time>
      </trkpt>
      <trkpt lat="46.4619460" lon="6.0304420">
        <ele>1112.8</ele>
        <time>2022-07-24T08:10:51Z</time>
      </trkpt>
      <trkpt lat="46.4619310" lon="6.0304070">
        <ele>1112.8</ele>
        <time>2022-07-24T08:10:52Z</time>
      </trkpt>
      <trkpt lat="46.4618160" lon="6.0302200">
        <ele>1113.0</ele>
        <time>2022-07-24T08:10:58Z</time>
      </trkpt>
      <trkpt lat="46.4616190" lon="6.0300050">
        <ele>1113.0</ele>
        <time>2022-07-24T08:11:06Z</time>
      </trkpt>
      <trkpt lat="46.4614570" lon="6.0298470">
        <ele>1113.0</ele>
        <time>2022-07-24T08:11:13Z</time>
      </trkpt>
      <trkpt lat="46.4612810" lon="6.0297460">
        <ele>1113.8</ele>
        <time>2022-07-24T08:11:21Z</time>
      </trkpt>
      <trkpt lat="46.4611930" lon="6.0296910">
        <ele>1114.6</ele>
        <time>2022-07-24T08:11:25Z</time>
      </trkpt>
      <trkpt lat="46.4610830" lon="6.0296320">
        <ele>1115.2</ele>
        <time>2022-07-24T08:11:30Z</time>
      </trkpt>
      <trkpt lat="46.4609280" lon="6.0295080">
        <ele>1115.6</ele>
        <time>2022-07-24T08:11:37Z</time>
      </trkpt>
      <trkpt lat="46.4609050" lon="6.0294930">
        <ele>1115.6</ele>
        <time>2022-07-24T08:11:38Z</time>
      </trkpt>
      <trkpt lat="46.4607140" lon="6.0293610">
        <ele>1116.0</ele>
        <time>2022-07-24T08:11:46Z</time>
      </trkpt>
      <trkpt lat="46.4604980" lon="6.0291700">
        <ele>1116.2</ele>
        <time>2022-07-24T08:11:54Z</time>
      </trkpt>
      <trkpt lat="46.4602040" lon="6.0289060">
        <ele>1116.2</ele>
        <time>2022-07-24T08:12:04Z</time>
      </trkpt>
      <trkpt lat="46.4598750" lon="6.0286680">
        <ele>1116.4</ele>
        <time>2022-07-24T08:12:15Z</time>
      </trkpt>
      <trkpt lat="46.4596700" lon="6.0285410">
        <ele>1116.6</ele>
        <time>2022-07-24T08:12:23Z</time>
      </trkpt>
      <trkpt lat="46.4595740" lon="6.0284450">
        <ele>1117.2</ele>
        <time>2022-07-24T08:12:27Z</time>
      </trkpt>
      <trkpt lat="46.4595150" lon="6.0283540">
        <ele>1117.4</ele>
        <time>2022-07-24T08:12:30Z</time>
      </trkpt>
      <trkpt lat="46.4593790" lon="6.0280680">
        <ele>1118.0</ele>
        <time>2022-07-24T08:12:39Z</time>
      </trkpt>
      <trkpt lat="46.4592800" lon="6.0278260">
        <ele>1118.2</ele>
        <time>2022-07-24T08:12:45Z</time>
      </trkpt>
      <trkpt lat="46.4592430" lon="6.0277340">
        <ele>1118.4</ele>
        <time>2022-07-24T08:12:47Z</time>
      </trkpt>
      <trkpt lat="46.4590660" lon="6.0274330">
        <ele>1118.4</ele>
        <time>2022-07-24T08:12:53Z</time>
      </trkpt>
      <trkpt lat="46.4587420" lon="6.0270370">
        <ele>1117.6</ele>
        <time>2022-07-24T08:13:01Z</time>
      </trkpt>
      <trkpt lat="46.4587040" lon="6.0269870">
        <ele>1117.4</ele>
        <time>2022-07-24T08:13:02Z</time>
      </trkpt>
      <trkpt lat="46.4584300" lon="6.0265710">
        <ele>1116.8</ele>
        <time>2022-07-24T08:13:10Z</time>
      </trkpt>
      <trkpt lat="46.4580980" lon="6.0260800">
        <ele>1117.4</ele>
        <time>2022-07-24T08:13:21Z</time>
      </trkpt>
      <trkpt lat="46.4578850" lon="6.0258470">
        <ele>1118.4</ele>
        <time>2022-07-24T08:13:29Z</time>
      </trkpt>
      <trkpt lat="46.4578320" lon="6.0258200">
        <ele>1118.6</ele>
        <time>2022-07-24T08:13:31Z</time>
      </trkpt>
      <trkpt lat="46.4576740" lon="6.0257660">
        <ele>1119.4</ele>
        <time>2022-07-24T08:13:37Z</time>
      </trkpt>
      <trkpt lat="46.4576470" lon="6.0257610">
        <ele>1119.6</ele>
        <time>2022-07-24T08:13:38Z</time>
      </trkpt>
      <trkpt lat="46.4574530" lon="6.0257390">
        <ele>1120.4</ele>
        <time>2022-07-24T08:13:45Z</time>
      </trkpt>
      <trkpt lat="46.4573980" lon="6.0257280">
        <ele>1120.6</ele>
        <time>2022-07-24T08:13:47Z</time>
      </trkpt>
      <trkpt lat="46.4572400" lon="6.0256490">
        <ele>1121.6</ele>
        <time>2022-07-24T08:13:53Z</time>
      </trkpt>
      <trkpt lat="46.4571380" lon="6.0255570">
        <ele>1122.0</ele>
        <time>2022-07-24T08:13:57Z</time>
      </trkpt>
      <trkpt lat="46.4570420" lon="6.0254560">
        <ele>1122.4</ele>
        <time>2022-07-24T08:14:01Z</time>
      </trkpt>
      <trkpt lat="46.4569150" lon="6.0253520">
        <ele>1123.0</ele>
        <time>2022-07-24T08:14:06Z</time>
      </trkpt>
      <trkpt lat="46.4568360" lon="6.0253070">
        <ele>1123.4</ele>
        <time>2022-07-24T08:14:09Z</time>
      </trkpt>
      <trkpt lat="46.4566380" lon="6.0252260">
        <ele>1124.0</ele>
        <time>2022-07-24T08:14:16Z</time>
      </trkpt>
      <trkpt lat="46.4565500" lon="6.0251870">
        <ele>1124.2</ele>
        <time>2022-07-24T08:14:19Z</time>
      </trkpt>
      <trkpt lat="46.4563710" lon="6.0250800">
        <ele>1124.6</ele>
        <time>2022-07-24T08:14:25Z</time>
      </trkpt>
      <trkpt lat="46.4561650" lon="6.0248870">
        <ele>1124.8</ele>
        <time>2022-07-24T08:14:33Z</time>
      </trkpt>
      <trkpt lat="46.4560110" lon="6.0247530">
        <ele>1125.2</ele>
        <time>2022-07-24T08:14:39Z</time>
      </trkpt>
      <trkpt lat="46.4559630" lon="6.0247100">
        <ele>1125.2</ele>
        <time>2022-07-24T08:14:41Z</time>
      </trkpt>
      <trkpt lat="46.4558480" lon="6.0246280">
        <ele>1125.8</ele>
        <time>2022-07-24T08:14:46Z</time>
      </trkpt>
      <trkpt lat="46.4557510" lon="6.0245450">
        <ele>1126.4</ele>
        <time>2022-07-24T08:14:51Z</time>
      </trkpt>
      <trkpt lat="46.4557330" lon="6.0245270">
        <ele>1126.4</ele>
        <time>2022-07-24T08:14:52Z</time>
      </trkpt>
      <trkpt lat="46.4556450" lon="6.0244130">
        <ele>1127.0</ele>
        <time>2022-07-24T08:14:58Z</time>
      </trkpt>
      <trkpt lat="46.4555820" lon="6.0243400">
        <ele>1127.6</ele>
        <time>2022-07-24T08:15:02Z</time>
      </trkpt>
      <trkpt lat="46.4555180" lon="6.0242470">
        <ele>1128.4</ele>
        <time>2022-07-24T08:15:07Z</time>
      </trkpt>
      <trkpt lat="46.4554900" lon="6.0242120">
        <ele>1128.6</ele>
        <time>2022-07-24T08:15:09Z</time>
      </trkpt>
      <trkpt lat="46.4554390" lon="6.0241330">
        <ele>1129.2</ele>
        <time>2022-07-24T08:15:14Z</time>
      </trkpt>
      <trkpt lat="46.4553940" lon="6.0240770">
        <ele>1129.6</ele>
        <time>2022-07-24T08:15:18Z</time>
      </trkpt>
      <trkpt lat="46.4553790" lon="6.0240530">
        <ele>1130.0</ele>
        <time>2022-07-24T08:15:20Z</time>
      </trkpt>
      <trkpt lat="46.4553120" lon="6.0239650">
        <ele>1130.8</ele>
        <time>2022-07-24T08:15:27Z</time>
      </trkpt>
      <trkpt lat="46.4552180" lon="6.0238540">
        <ele>1131.4</ele>
        <time>2022-07-24T08:15:33Z</time>
      </trkpt>
      <trkpt lat="46.4551650" lon="6.0237900">
        <ele>1132.0</ele>
        <time>2022-07-24T08:15:36Z</time>
      </trkpt>
      <trkpt lat="46.4550790" lon="6.0236880">
        <ele>1132.4</ele>
        <time>2022-07-24T08:15:40Z</time>
      </trkpt>
      <trkpt lat="46.4550200" lon="6.0236130">
        <ele>1133.0</ele>
        <time>2022-07-24T08:15:43Z</time>
      </trkpt>
      <trkpt lat="46.4549600" lon="6.0235260">
        <ele>1133.2</ele>
        <time>2022-07-24T08:15:46Z</time>
      </trkpt>
      <trkpt lat="46.4548220" lon="6.0233180">
        <ele>1134.0</ele>
        <time>2022-07-24T08:15:54Z</time>
      </trkpt>
      <trkpt lat="46.4546720" lon="6.0231580">
        <ele>1134.8</ele>
        <time>2022-07-24T08:16:02Z</time>
      </trkpt>
      <trkpt lat="46.4546130" lon="6.0231120">
        <ele>1135.4</ele>
        <time>2022-07-24T08:16:05Z</time>
      </trkpt>
      <trkpt lat="46.4544580" lon="6.0230170">
        <ele>1136.2</ele>
        <time>2022-07-24T08:16:13Z</time>
      </trkpt>
      <trkpt lat="46.4544390" lon="6.0230080">
        <ele>1136.4</ele>
        <time>2022-07-24T08:16:14Z</time>
      </trkpt>
      <trkpt lat="46.4543060" lon="6.0229330">
        <ele>1137.2</ele>
        <time>2022-07-24T08:16:22Z</time>
      </trkpt>
      <trkpt lat="46.4542740" lon="6.0229160">
        <ele>1137.6</ele>
        <time>2022-07-24T08:16:24Z</time>
      </trkpt>
      <trkpt lat="46.4541620" lon="6.0228670">
        <ele>1138.8</ele>
        <time>2022-07-24T08:16:31Z</time>
      </trkpt>
      <trkpt lat="46.4541470" lon="6.0228610">
        <ele>1138.8</ele>
        <time>2022-07-24T08:16:32Z</time>
      </trkpt>
      <trkpt lat="46.4540220" lon="6.0228450">
        <ele>1139.8</ele>
        <time>2022-07-24T08:16:40Z</time>
      </trkpt>
      <trkpt lat="46.4539890" lon="6.0228530">
        <ele>1140.2</ele>
        <time>2022-07-24T08:16:42Z</time>
      </trkpt>
      <trkpt lat="46.4539270" lon="6.0228950">
        <ele>1141.0</ele>
        <time>2022-07-24T08:16:46Z</time>
      </trkpt>
      <trkpt lat="46.4539130" lon="6.0229080">
        <ele>1141.2</ele>
        <time>2022-07-24T08:16:47Z</time>
      </trkpt>
      <trkpt lat="46.4538990" lon="6.0229270">
        <ele>1141.2</ele>
        <time>2022-07-24T08:16:48Z</time>
      </trkpt>
      <trkpt lat="46.4538170" lon="6.0230590">
        <ele>1142.2</ele>
        <time>2022-07-24T08:16:55Z</time>
      </trkpt>
      <trkpt lat="46.4538060" lon="6.0230800">
        <ele>1142.4</ele>
        <time>2022-07-24T08:16:56Z</time>
      </trkpt>
      <trkpt lat="46.4537620" lon="6.0231550">
        <ele>1143.0</ele>
        <time>2022-07-24T08:17:00Z</time>
      </trkpt>
      <trkpt lat="46.4537500" lon="6.0231740">
        <ele>1143.2</ele>
        <time>2022-07-24T08:17:01Z</time>
      </trkpt>
      <trkpt lat="46.4537300" lon="6.0232120">
        <ele>1143.4</ele>
        <time>2022-07-24T08:17:03Z</time>
      </trkpt>
      <trkpt lat="46.4536620" lon="6.0233140">
        <ele>1144.4</ele>
        <time>2022-07-24T08:17:09Z</time>
      </trkpt>
      <trkpt lat="46.4536420" lon="6.0233460">
        <ele>1144.8</ele>
        <time>2022-07-24T08:17:11Z</time>
      </trkpt>
      <trkpt lat="46.4535730" lon="6.0234610">
        <ele>1145.6</ele>
        <time>2022-07-24T08:17:18Z</time>
      </trkpt>
      <trkpt lat="46.4535620" lon="6.0234790">
        <ele>1145.8</ele>
        <time>2022-07-24T08:17:19Z</time>
      </trkpt>
      <trkpt lat="46.4535220" lon="6.0235760">
        <ele>1146.6</ele>
        <time>2022-07-24T08:17:24Z</time>
      </trkpt>
      <trkpt lat="46.4535040" lon="6.0236090">
        <ele>1146.8</ele>
        <time>2022-07-24T08:17:26Z</time>
      </trkpt>
      <trkpt lat="46.4534830" lon="6.0236500">
        <ele>1147.4</ele>
        <time>2022-07-24T08:17:29Z</time>
      </trkpt>
      <trkpt lat="46.4534690" lon="6.0236760">
        <ele>1147.6</ele>
        <time>2022-07-24T08:17:31Z</time>
      </trkpt>
      <trkpt lat="46.4534500" lon="6.0236990">
        <ele>1148.0</ele>
        <time>2022-07-24T08:17:33Z</time>
      </trkpt>
      <trkpt lat="46.4533690" lon="6.0237910">
        <ele>1148.8</ele>
        <time>2022-07-24T08:17:40Z</time>
      </trkpt>
      <trkpt lat="46.4533530" lon="6.0238120">
        <ele>1149.0</ele>
        <time>2022-07-24T08:17:41Z</time>
      </trkpt>
      <trkpt lat="46.4532760" lon="6.0239120">
        <ele>1149.8</ele>
        <time>2022-07-24T08:17:47Z</time>
      </trkpt>
      <trkpt lat="46.4532420" lon="6.0239680">
        <ele>1150.2</ele>
        <time>2022-07-24T08:17:50Z</time>
      </trkpt>
      <trkpt lat="46.4532040" lon="6.0240830">
        <ele>1151.2</ele>
        <time>2022-07-24T08:17:55Z</time>
      </trkpt>
      <trkpt lat="46.4531980" lon="6.0241060">
        <ele>1151.2</ele>
        <time>2022-07-24T08:17:56Z</time>
      </trkpt>
      <trkpt lat="46.4531840" lon="6.0242240">
        <ele>1151.8</ele>
        <time>2022-07-24T08:18:01Z</time>
      </trkpt>
      <trkpt lat="46.4531810" lon="6.0242920">
        <ele>1152.6</ele>
        <time>2022-07-24T08:18:04Z</time>
      </trkpt>
      <trkpt lat="46.4531740" lon="6.0243980">
        <ele>1153.2</ele>
        <time>2022-07-24T08:18:08Z</time>
      </trkpt>
      <trkpt lat="46.4531740" lon="6.0244530">
        <ele>1153.8</ele>
        <time>2022-07-24T08:18:10Z</time>
      </trkpt>
      <trkpt lat="46.4531730" lon="6.0246070">
        <ele>1154.4</ele>
        <time>2022-07-24T08:18:16Z</time>
      </trkpt>
      <trkpt lat="46.4531710" lon="6.0246790">
        <ele>1154.8</ele>
        <time>2022-07-24T08:18:19Z</time>
      </trkpt>
      <trkpt lat="46.4531650" lon="6.0248290">
        <ele>1155.8</ele>
        <time>2022-07-24T08:18:25Z</time>
      </trkpt>
      <trkpt lat="46.4531620" lon="6.0248520">
        <ele>1156.0</ele>
        <time>2022-07-24T08:18:26Z</time>
      </trkpt>
      <trkpt lat="46.4531330" lon="6.0249970">
        <ele>1157.2</ele>
        <time>2022-07-24T08:18:32Z</time>
      </trkpt>
      <trkpt lat="46.4531290" lon="6.0250240">
        <ele>1157.2</ele>
        <time>2022-07-24T08:18:33Z</time>
      </trkpt>
      <trkpt lat="46.4530910" lon="6.0251590">
        <ele>1158.4</ele>
        <time>2022-07-24T08:18:39Z</time>
      </trkpt>
      <trkpt lat="46.4530810" lon="6.0252060">
        <ele>1158.4</ele>
        <time>2022-07-24T08:18:41Z</time>
      </trkpt>
      <trkpt lat="46.4530260" lon="6.0253650">
        <ele>1159.4</ele>
        <time>2022-07-24T08:18:48Z</time>
      </trkpt>
      <trkpt lat="46.4530050" lon="6.0254110">
        <ele>1159.6</ele>
        <time>2022-07-24T08:18:50Z</time>
      </trkpt>
      <trkpt lat="46.4529680" lon="6.0255520">
        <ele>1160.6</ele>
        <time>2022-07-24T08:18:56Z</time>
      </trkpt>
      <trkpt lat="46.4529440" lon="6.0256210">
        <ele>1161.0</ele>
        <time>2022-07-24T08:18:59Z</time>
      </trkpt>
      <trkpt lat="46.4529240" lon="6.0257130">
        <ele>1161.8</ele>
        <time>2022-07-24T08:19:04Z</time>
      </trkpt>
      <trkpt lat="46.4529060" lon="6.0257490">
        <ele>1162.2</ele>
        <time>2022-07-24T08:19:06Z</time>
      </trkpt>
      <trkpt lat="46.4528850" lon="6.0258000">
        <ele>1162.8</ele>
        <time>2022-07-24T08:19:09Z</time>
      </trkpt>
      <trkpt lat="46.4528680" lon="6.0258720">
        <ele>1163.6</ele>
        <time>2022-07-24T08:19:13Z</time>
      </trkpt>
      <trkpt lat="46.4528540" lon="6.0259040">
        <ele>1163.8</ele>
        <time>2022-07-24T08:19:15Z</time>
      </trkpt>
      <trkpt lat="46.4528320" lon="6.0259840">
        <ele>1164.8</ele>
        <time>2022-07-24T08:19:20Z</time>
      </trkpt>
      <trkpt lat="46.4528260" lon="6.0260000">
        <ele>1165.0</ele>
        <time>2022-07-24T08:19:21Z</time>
      </trkpt>
      <trkpt lat="46.4527830" lon="6.0260920">
        <ele>1165.6</ele>
        <time>2022-07-24T08:19:26Z</time>
      </trkpt>
      <trkpt lat="46.4527720" lon="6.0261070">
        <ele>1166.0</ele>
        <time>2022-07-24T08:19:27Z</time>
      </trkpt>
      <trkpt lat="46.4527540" lon="6.0261370">
        <ele>1166.2</ele>
        <time>2022-07-24T08:19:29Z</time>
      </trkpt>
      <trkpt lat="46.4527090" lon="6.0261840">
        <ele>1167.0</ele>
        <time>2022-07-24T08:19:33Z</time>
      </trkpt>
      <trkpt lat="46.4526750" lon="6.0262150">
        <ele>1167.4</ele>
        <time>2022-07-24T08:19:36Z</time>
      </trkpt>
      <trkpt lat="46.4526540" lon="6.0262320">
        <ele>1168.0</ele>
        <time>2022-07-24T08:19:39Z</time>
      </trkpt>
      <trkpt lat="46.4526290" lon="6.0262520">
        <ele>1168.4</ele>
        <time>2022-07-24T08:19:42Z</time>
      </trkpt>
      <trkpt lat="46.4526000" lon="6.0262980">
        <ele>1168.8</ele>
        <time>2022-07-24T08:19:45Z</time>
      </trkpt>
      <trkpt lat="46.4525580" lon="6.0263740">
        <ele>1169.2</ele>
        <time>2022-07-24T08:19:48Z</time>
      </trkpt>
      <trkpt lat="46.4525260" lon="6.0264740">
        <ele>1169.6</ele>
        <time>2022-07-24T08:19:52Z</time>
      </trkpt>
      <trkpt lat="46.4525070" lon="6.0265400">
        <ele>1170.0</ele>
        <time>2022-07-24T08:19:55Z</time>
      </trkpt>
      <trkpt lat="46.4524600" lon="6.0266430">
        <ele>1170.8</ele>
        <time>2022-07-24T08:20:00Z</time>
      </trkpt>
      <trkpt lat="46.4524360" lon="6.0266760">
        <ele>1171.2</ele>
        <time>2022-07-24T08:20:02Z</time>
      </trkpt>
      <trkpt lat="46.4523890" lon="6.0267770">
        <ele>1172.0</ele>
        <time>2022-07-24T08:20:07Z</time>
      </trkpt>
      <trkpt lat="46.4523630" lon="6.0268170">
        <ele>1172.2</ele>
        <time>2022-07-24T08:20:09Z</time>
      </trkpt>
      <trkpt lat="46.4522900" lon="6.0269260">
        <ele>1173.2</ele>
        <time>2022-07-24T08:20:15Z</time>
      </trkpt>
      <trkpt lat="46.4522740" lon="6.0269390">
        <ele>1173.4</ele>
        <time>2022-07-24T08:20:16Z</time>
      </trkpt>
      <trkpt lat="46.4521910" lon="6.0270160">
        <ele>1174.6</ele>
        <time>2022-07-24T08:20:22Z</time>
      </trkpt>
      <trkpt lat="46.4520850" lon="6.0271890">
        <ele>1175.6</ele>
        <time>2022-07-24T08:20:30Z</time>
      </trkpt>
      <trkpt lat="46.4520380" lon="6.0273370">
        <ele>1177.0</ele>
        <time>2022-07-24T08:20:36Z</time>
      </trkpt>
      <trkpt lat="46.4520290" lon="6.0273680">
        <ele>1177.2</ele>
        <time>2022-07-24T08:20:37Z</time>
      </trkpt>
      <trkpt lat="46.4519740" lon="6.0275900">
        <ele>1177.8</ele>
        <time>2022-07-24T08:20:44Z</time>
      </trkpt>
      <trkpt lat="46.4519370" lon="6.0276870">
        <ele>1178.0</ele>
        <time>2022-07-24T08:20:47Z</time>
      </trkpt>
      <trkpt lat="46.4518780" lon="6.0278040">
        <ele>1178.4</ele>
        <time>2022-07-24T08:20:51Z</time>
      </trkpt>
      <trkpt lat="46.4517850" lon="6.0278940">
        <ele>1179.2</ele>
        <time>2022-07-24T08:20:57Z</time>
      </trkpt>
      <trkpt lat="46.4517690" lon="6.0278990">
        <ele>1179.2</ele>
        <time>2022-07-24T08:20:58Z</time>
      </trkpt>
      <trkpt lat="46.4516880" lon="6.0278950">
        <ele>1180.2</ele>
        <time>2022-07-24T08:21:04Z</time>
      </trkpt>
      <trkpt lat="46.4516740" lon="6.0278820">
        <ele>1180.2</ele>
        <time>2022-07-24T08:21:05Z</time>
      </trkpt>
      <trkpt lat="46.4516280" lon="6.0277640">
        <ele>1181.4</ele>
        <time>2022-07-24T08:21:10Z</time>
      </trkpt>
      <trkpt lat="46.4516190" lon="6.0277330">
        <ele>1181.4</ele>
        <time>2022-07-24T08:21:11Z</time>
      </trkpt>
      <trkpt lat="46.4516150" lon="6.0275660">
        <ele>1182.2</ele>
        <time>2022-07-24T08:21:17Z</time>
      </trkpt>
      <trkpt lat="46.4516280" lon="6.0274950">
        <ele>1182.6</ele>
        <time>2022-07-24T08:21:20Z</time>
      </trkpt>
      <trkpt lat="46.4516550" lon="6.0274250">
        <ele>1182.8</ele>
        <time>2022-07-24T08:21:23Z</time>
      </trkpt>
      <trkpt lat="46.4517120" lon="6.0271700">
        <ele>1183.6</ele>
        <time>2022-07-24T08:21:31Z</time>
      </trkpt>
      <trkpt lat="46.4517190" lon="6.0271360">
        <ele>1183.8</ele>
        <time>2022-07-24T08:21:32Z</time>
      </trkpt>
      <trkpt lat="46.4517370" lon="6.0269300">
        <ele>1184.2</ele>
        <time>2022-07-24T08:21:37Z</time>
      </trkpt>
      <trkpt lat="46.4517620" lon="6.0267650">
        <ele>1184.6</ele>
        <time>2022-07-24T08:21:41Z</time>
      </trkpt>
      <trkpt lat="46.4517840" lon="6.0266410">
        <ele>1184.8</ele>
        <time>2022-07-24T08:21:44Z</time>
      </trkpt>
      <trkpt lat="46.4518120" lon="6.0264180">
        <ele>1185.0</ele>
        <time>2022-07-24T08:21:50Z</time>
      </trkpt>
      <trkpt lat="46.4517970" lon="6.0262480">
        <ele>1185.8</ele>
        <time>2022-07-24T08:21:56Z</time>
      </trkpt>
      <trkpt lat="46.4517430" lon="6.0260700">
        <ele>1186.8</ele>
        <time>2022-07-24T08:22:03Z</time>
      </trkpt>
      <trkpt lat="46.4517310" lon="6.0260450">
        <ele>1187.2</ele>
        <time>2022-07-24T08:22:04Z</time>
      </trkpt>
      <trkpt lat="46.4516790" lon="6.0259110">
        <ele>1188.2</ele>
        <time>2022-07-24T08:22:09Z</time>
      </trkpt>
      <trkpt lat="46.4516680" lon="6.0258920">
        <ele>1188.6</ele>
        <time>2022-07-24T08:22:10Z</time>
      </trkpt>
      <trkpt lat="46.4515770" lon="6.0256820">
        <ele>1189.4</ele>
        <time>2022-07-24T08:22:16Z</time>
      </trkpt>
      <trkpt lat="46.4514570" lon="6.0254420">
        <ele>1189.8</ele>
        <time>2022-07-24T08:22:22Z</time>
      </trkpt>
      <trkpt lat="46.4513410" lon="6.0250680">
        <ele>1190.0</ele>
        <time>2022-07-24T08:22:29Z</time>
      </trkpt>
      <trkpt lat="46.4513440" lon="6.0247360">
        <ele>1190.2</ele>
        <time>2022-07-24T08:22:36Z</time>
      </trkpt>
      <trkpt lat="46.4513610" lon="6.0244970">
        <ele>1190.4</ele>
        <time>2022-07-24T08:22:43Z</time>
      </trkpt>
      <trkpt lat="46.4513650" lon="6.0242530">
        <ele>1191.6</ele>
        <time>2022-07-24T08:22:51Z</time>
      </trkpt>
      <trkpt lat="46.4513490" lon="6.0240320">
        <ele>1192.4</ele>
        <time>2022-07-24T08:22:58Z</time>
      </trkpt>
      <trkpt lat="46.4513440" lon="6.0239740">
        <ele>1192.8</ele>
        <time>2022-07-24T08:23:00Z</time>
      </trkpt>
      <trkpt lat="46.4513370" lon="6.0238630">
        <ele>1193.6</ele>
        <time>2022-07-24T08:23:04Z</time>
      </trkpt>
      <trkpt lat="46.4513330" lon="6.0238090">
        <ele>1193.8</ele>
        <time>2022-07-24T08:23:06Z</time>
      </trkpt>
      <trkpt lat="46.4513320" lon="6.0237450">
        <ele>1194.2</ele>
        <time>2022-07-24T08:23:08Z</time>
      </trkpt>
      <trkpt lat="46.4513280" lon="6.0236460">
        <ele>1194.8</ele>
        <time>2022-07-24T08:23:11Z</time>
      </trkpt>
      <trkpt lat="46.4513280" lon="6.0236130">
        <ele>1194.8</ele>
        <time>2022-07-24T08:23:12Z</time>
      </trkpt>
      <trkpt lat="46.4513400" lon="6.0234020">
        <ele>1195.8</ele>
        <time>2022-07-24T08:23:19Z</time>
      </trkpt>
      <trkpt lat="46.4513440" lon="6.0233760">
        <ele>1196.0</ele>
        <time>2022-07-24T08:23:20Z</time>
      </trkpt>
      <trkpt lat="46.4513460" lon="6.0232340">
        <ele>1196.8</ele>
        <time>2022-07-24T08:23:25Z</time>
      </trkpt>
      <trkpt lat="46.4513460" lon="6.0231700">
        <ele>1197.0</ele>
        <time>2022-07-24T08:23:27Z</time>
      </trkpt>
      <trkpt lat="46.4513440" lon="6.0230220">
        <ele>1197.8</ele>
        <time>2022-07-24T08:23:32Z</time>
      </trkpt>
      <trkpt lat="46.4513430" lon="6.0229680">
        <ele>1198.2</ele>
        <time>2022-07-24T08:23:34Z</time>
      </trkpt>
      <trkpt lat="46.4513360" lon="6.0228260">
        <ele>1199.2</ele>
        <time>2022-07-24T08:23:40Z</time>
      </trkpt>
      <trkpt lat="46.4513280" lon="6.0226370">
        <ele>1200.2</ele>
        <time>2022-07-24T08:23:47Z</time>
      </trkpt>
      <trkpt lat="46.4513080" lon="6.0224640">
        <ele>1201.2</ele>
        <time>2022-07-24T08:23:54Z</time>
      </trkpt>
      <trkpt lat="46.4513060" lon="6.0224430">
        <ele>1201.4</ele>
        <time>2022-07-24T08:23:55Z</time>
      </trkpt>
      <trkpt lat="46.4512830" lon="6.0223130">
        <ele>1202.4</ele>
        <time>2022-07-24T08:24:01Z</time>
      </trkpt>
      <trkpt lat="46.4512770" lon="6.0222960">
        <ele>1202.6</ele>
        <time>2022-07-24T08:24:02Z</time>
      </trkpt>
      <trkpt lat="46.4512660" lon="6.0221660">
        <ele>1203.8</ele>
        <time>2022-07-24T08:24:08Z</time>
      </trkpt>
      <trkpt lat="46.4512540" lon="6.0221120">
        <ele>1204.2</ele>
        <time>2022-07-24T08:24:10Z</time>
      </trkpt>
      <trkpt lat="46.4512510" lon="6.0220300">
        <ele>1204.8</ele>
        <time>2022-07-24T08:24:14Z</time>
      </trkpt>
      <trkpt lat="46.4512510" lon="6.0219750">
        <ele>1205.2</ele>
        <time>2022-07-24T08:24:17Z</time>
      </trkpt>
      <trkpt lat="46.4512500" lon="6.0218760">
        <ele>1206.0</ele>
        <time>2022-07-24T08:24:21Z</time>
      </trkpt>
      <trkpt lat="46.4512400" lon="6.0217330">
        <ele>1207.0</ele>
        <time>2022-07-24T08:24:27Z</time>
      </trkpt>
      <trkpt lat="46.4512370" lon="6.0217120">
        <ele>1207.2</ele>
        <time>2022-07-24T08:24:28Z</time>
      </trkpt>
      <trkpt lat="46.4512260" lon="6.0215860">
        <ele>1208.0</ele>
        <time>2022-07-24T08:24:34Z</time>
      </trkpt>
      <trkpt lat="46.4512090" lon="6.0214510">
        <ele>1209.0</ele>
        <time>2022-07-24T08:24:40Z</time>
      </trkpt>
      <trkpt lat="46.4512080" lon="6.0214300">
        <ele>1209.0</ele>
        <time>2022-07-24T08:24:41Z</time>
      </trkpt>
      <trkpt lat="46.4511640" lon="6.0212610">
        <ele>1210.2</ele>
        <time>2022-07-24T08:24:49Z</time>
      </trkpt>
      <trkpt lat="46.4511520" lon="6.0212190">
        <ele>1210.6</ele>
        <time>2022-07-24T08:24:51Z</time>
      </trkpt>
      <trkpt lat="46.4511110" lon="6.0211100">
        <ele>1211.2</ele>
        <time>2022-07-24T08:24:56Z</time>
      </trkpt>
      <trkpt lat="46.4510720" lon="6.0210290">
        <ele>1212.4</ele>
        <time>2022-07-24T08:25:01Z</time>
      </trkpt>
      <trkpt lat="46.4510630" lon="6.0209890">
        <ele>1212.6</ele>
        <time>2022-07-24T08:25:02Z</time>
      </trkpt>
      <trkpt lat="46.4509800" lon="6.0208760">
        <ele>1213.6</ele>
        <time>2022-07-24T08:25:08Z</time>
      </trkpt>
      <trkpt lat="46.4509700" lon="6.0208630">
        <ele>1213.8</ele>
        <time>2022-07-24T08:25:09Z</time>
      </trkpt>
      <trkpt lat="46.4508920" lon="6.0207750">
        <ele>1214.6</ele>
        <time>2022-07-24T08:25:15Z</time>
      </trkpt>
      <trkpt lat="46.4508680" lon="6.0207430">
        <ele>1215.0</ele>
        <time>2022-07-24T08:25:17Z</time>
      </trkpt>
      <trkpt lat="46.4508010" lon="6.0206730">
        <ele>1215.6</ele>
        <time>2022-07-24T08:25:22Z</time>
      </trkpt>
      <trkpt lat="46.4507590" lon="6.0206310">
        <ele>1216.0</ele>
        <time>2022-07-24T08:25:25Z</time>
      </trkpt>
      <trkpt lat="46.4506770" lon="6.0205510">
        <ele>1216.8</ele>
        <time>2022-07-24T08:25:31Z</time>
      </trkpt>
      <trkpt lat="46.4506480" lon="6.0205240">
        <ele>1217.0</ele>
        <time>2022-07-24T08:25:33Z</time>
      </trkpt>
      <trkpt lat="46.4505840" lon="6.0204500">
        <ele>1218.0</ele>
        <time>2022-07-24T08:25:39Z</time>
      </trkpt>
      <trkpt lat="46.4505710" lon="6.0204420">
        <ele>1218.2</ele>
        <time>2022-07-24T08:25:40Z</time>
      </trkpt>
      <trkpt lat="46.4505290" lon="6.0204020">
        <ele>1218.6</ele>
        <time>2022-07-24T08:25:43Z</time>
      </trkpt>
      <trkpt lat="46.4505030" lon="6.0203860">
        <ele>1219.2</ele>
        <time>2022-07-24T08:25:45Z</time>
      </trkpt>
      <trkpt lat="46.4504290" lon="6.0203440">
        <ele>1220.4</ele>
        <time>2022-07-24T08:25:52Z</time>
      </trkpt>
      <trkpt lat="46.4504030" lon="6.0203280">
        <ele>1220.8</ele>
        <time>2022-07-24T08:25:54Z</time>
      </trkpt>
      <trkpt lat="46.4503640" lon="6.0202880">
        <ele>1221.4</ele>
        <time>2022-07-24T08:25:57Z</time>
      </trkpt>
      <trkpt lat="46.4503270" lon="6.0202600">
        <ele>1221.8</ele>
        <time>2022-07-24T08:26:00Z</time>
      </trkpt>
      <trkpt lat="46.4502840" lon="6.0202140">
        <ele>1222.6</ele>
        <time>2022-07-24T08:26:05Z</time>
      </trkpt>
      <trkpt lat="46.4502520" lon="6.0201820">
        <ele>1223.0</ele>
        <time>2022-07-24T08:26:08Z</time>
      </trkpt>
      <trkpt lat="46.4502160" lon="6.0201330">
        <ele>1223.4</ele>
        <time>2022-07-24T08:26:11Z</time>
      </trkpt>
      <trkpt lat="46.4501880" lon="6.0201040">
        <ele>1223.6</ele>
        <time>2022-07-24T08:26:13Z</time>
      </trkpt>
      <trkpt lat="46.4501720" lon="6.0200870">
        <ele>1223.6</ele>
        <time>2022-07-24T08:26:14Z</time>
      </trkpt>
      <trkpt lat="46.4501530" lon="6.0200690">
        <ele>1223.8</ele>
        <time>2022-07-24T08:26:15Z</time>
      </trkpt>
      <trkpt lat="46.4500590" lon="6.0199780">
        <ele>1224.6</ele>
        <time>2022-07-24T08:26:22Z</time>
      </trkpt>
      <trkpt lat="46.4499920" lon="6.0199020">
        <ele>1225.8</ele>
        <time>2022-07-24T08:26:29Z</time>
      </trkpt>
      <trkpt lat="46.4499250" lon="6.0198490">
        <ele>1226.8</ele>
        <time>2022-07-24T08:26:36Z</time>
      </trkpt>
      <trkpt lat="46.4499130" lon="6.0198400">
        <ele>1227.0</ele>
        <time>2022-07-24T08:26:37Z</time>
      </trkpt>
      <trkpt lat="46.4498570" lon="6.0197960">
        <ele>1227.8</ele>
        <time>2022-07-24T08:26:41Z</time>
      </trkpt>
      <trkpt lat="46.4497760" lon="6.0197380">
        <ele>1229.0</ele>
        <time>2022-07-24T08:26:48Z</time>
      </trkpt>
      <trkpt lat="46.4496920" lon="6.0196620">
        <ele>1230.0</ele>
        <time>2022-07-24T08:26:55Z</time>
      </trkpt>
      <trkpt lat="46.4496370" lon="6.0196110">
        <ele>1230.8</ele>
        <time>2022-07-24T08:27:00Z</time>
      </trkpt>
      <trkpt lat="46.4496130" lon="6.0195880">
        <ele>1231.2</ele>
        <time>2022-07-24T08:27:02Z</time>
      </trkpt>
      <trkpt lat="46.4495630" lon="6.0195250">
        <ele>1232.2</ele>
        <time>2022-07-24T08:27:08Z</time>
      </trkpt>
      <trkpt lat="46.4495340" lon="6.0194930">
        <ele>1232.8</ele>
        <time>2022-07-24T08:27:11Z</time>
      </trkpt>
      <trkpt lat="46.4495140" lon="6.0194660">
        <ele>1233.4</ele>
        <time>2022-07-24T08:27:14Z</time>
      </trkpt>
      <trkpt lat="46.4494680" lon="6.0193710">
        <ele>1234.6</ele>
        <time>2022-07-24T08:27:20Z</time>
      </trkpt>
      <trkpt lat="46.4494560" lon="6.0193370">
        <ele>1235.0</ele>
        <time>2022-07-24T08:27:22Z</time>
      </trkpt>
      <trkpt lat="46.4494300" lon="6.0192790">
        <ele>1235.6</ele>
        <time>2022-07-24T08:27:25Z</time>
      </trkpt>
      <trkpt lat="46.4493770" lon="6.0191600">
        <ele>1236.8</ele>
        <time>2022-07-24T08:27:31Z</time>
      </trkpt>
      <trkpt lat="46.4492600" lon="6.0189650">
        <ele>1237.8</ele>
        <time>2022-07-24T08:27:39Z</time>
      </trkpt>
      <trkpt lat="46.4492190" lon="6.0189150">
        <ele>1238.0</ele>
        <time>2022-07-24T08:27:41Z</time>
      </trkpt>
      <trkpt lat="46.4491160" lon="6.0188260">
        <ele>1238.4</ele>
        <time>2022-07-24T08:27:45Z</time>
      </trkpt>
      <trkpt lat="46.4489580" lon="6.0187140">
        <ele>1238.6</ele>
        <time>2022-07-24T08:27:50Z</time>
      </trkpt>
      <trkpt lat="46.4487070" lon="6.0185110">
        <ele>1238.6</ele>
        <time>2022-07-24T08:27:57Z</time>
      </trkpt>
      <trkpt lat="46.4485400" lon="6.0183460">
        <ele>1238.4</ele>
        <time>2022-07-24T08:28:03Z</time>
      </trkpt>
      <trkpt lat="46.4484340" lon="6.0182320">
        <ele>1238.4</ele>
        <time>2022-07-24T08:28:09Z</time>
      </trkpt>
      <trkpt lat="46.4483910" lon="6.0181680">
        <ele>1239.0</ele>
        <time>2022-07-24T08:28:12Z</time>
      </trkpt>
      <trkpt lat="46.4483520" lon="6.0181020">
        <ele>1239.6</ele>
        <time>2022-07-24T08:28:15Z</time>
      </trkpt>
      <trkpt lat="46.4483120" lon="6.0180310">
        <ele>1240.2</ele>
        <time>2022-07-24T08:28:18Z</time>
      </trkpt>
      <trkpt lat="46.4482730" lon="6.0179560">
        <ele>1240.8</ele>
        <time>2022-07-24T08:28:21Z</time>
      </trkpt>
      <trkpt lat="46.4482270" lon="6.0178840">
        <ele>1241.2</ele>
        <time>2022-07-24T08:28:24Z</time>
      </trkpt>
      <trkpt lat="46.4481730" lon="6.0177920">
        <ele>1241.8</ele>
        <time>2022-07-24T08:28:28Z</time>
      </trkpt>
      <trkpt lat="46.4481200" lon="6.0176710">
        <ele>1242.2</ele>
        <time>2022-07-24T08:28:33Z</time>
      </trkpt>
      <trkpt lat="46.4480900" lon="6.0176000">
        <ele>1242.8</ele>
        <time>2022-07-24T08:28:37Z</time>
      </trkpt>
      <trkpt lat="46.4480800" lon="6.0175730">
        <ele>1243.0</ele>
        <time>2022-07-24T08:28:39Z</time>
      </trkpt>
      <trkpt lat="46.4480740" lon="6.0175550">
        <ele>1243.2</ele>
        <time>2022-07-24T08:28:40Z</time>
      </trkpt>
      <trkpt lat="46.4480560" lon="6.0175120">
        <ele>1243.6</ele>
        <time>2022-07-24T08:28:43Z</time>
      </trkpt>
      <trkpt lat="46.4480340" lon="6.0174410">
        <ele>1244.4</ele>
        <time>2022-07-24T08:28:48Z</time>
      </trkpt>
      <trkpt lat="46.4480280" lon="6.0174170">
        <ele>1244.8</ele>
        <time>2022-07-24T08:28:50Z</time>
      </trkpt>
      <trkpt lat="46.4480180" lon="6.0173850">
        <ele>1245.4</ele>
        <time>2022-07-24T08:28:52Z</time>
      </trkpt>
      <trkpt lat="46.4479880" lon="6.0172800">
        <ele>1246.2</ele>
        <time>2022-07-24T08:28:58Z</time>
      </trkpt>
      <trkpt lat="46.4479820" lon="6.0172400">
        <ele>1246.6</ele>
        <time>2022-07-24T08:29:00Z</time>
      </trkpt>
      <trkpt lat="46.4479730" lon="6.0171500">
        <ele>1247.8</ele>
        <time>2022-07-24T08:29:05Z</time>
      </trkpt>
      <trkpt lat="46.4479740" lon="6.0171110">
        <ele>1248.2</ele>
        <time>2022-07-24T08:29:07Z</time>
      </trkpt>
      <trkpt lat="46.4479660" lon="6.0170430">
        <ele>1248.8</ele>
        <time>2022-07-24T08:29:11Z</time>
      </trkpt>
      <trkpt lat="46.4479590" lon="6.0169890">
        <ele>1249.4</ele>
        <time>2022-07-24T08:29:14Z</time>
      </trkpt>
      <trkpt lat="46.4479490" lon="6.0169410">
        <ele>1250.0</ele>
        <time>2022-07-24T08:29:17Z</time>
      </trkpt>
      <trkpt lat="46.4479210" lon="6.0168630">
        <ele>1250.4</ele>
        <time>2022-07-24T08:29:20Z</time>
      </trkpt>
      <trkpt lat="46.4478890" lon="6.0167760">
        <ele>1251.2</ele>
        <time>2022-07-24T08:29:24Z</time>
      </trkpt>
      <trkpt lat="46.4478610" lon="6.0167140">
        <ele>1251.6</ele>
        <time>2022-07-24T08:29:27Z</time>
      </trkpt>
      <trkpt lat="46.4477900" lon="6.0165440">
        <ele>1252.2</ele>
        <time>2022-07-24T08:29:35Z</time>
      </trkpt>
      <trkpt lat="46.4476960" lon="6.0163470">
        <ele>1253.0</ele>
        <time>2022-07-24T08:29:43Z</time>
      </trkpt>
      <trkpt lat="46.4476420" lon="6.0162400">
        <ele>1253.4</ele>
        <time>2022-07-24T08:29:47Z</time>
      </trkpt>
      <trkpt lat="46.4476110" lon="6.0161970">
        <ele>1253.6</ele>
        <time>2022-07-24T08:29:49Z</time>
      </trkpt>
      <trkpt lat="46.4475100" lon="6.0160270">
        <ele>1254.2</ele>
        <time>2022-07-24T08:29:56Z</time>
      </trkpt>
      <trkpt lat="46.4474710" lon="6.0159500">
        <ele>1254.4</ele>
        <time>2022-07-24T08:29:59Z</time>
      </trkpt>
      <trkpt lat="46.4474280" lon="6.0158620">
        <ele>1254.8</ele>
        <time>2022-07-24T08:30:03Z</time>
      </trkpt>
      <trkpt lat="46.4473360" lon="6.0156660">
        <ele>1255.4</ele>
        <time>2022-07-24T08:30:10Z</time>
      </trkpt>
      <trkpt lat="46.4473240" lon="6.0156400">
        <ele>1255.6</ele>
        <time>2022-07-24T08:30:11Z</time>
      </trkpt>
      <trkpt lat="46.4472520" lon="6.0154970">
        <ele>1256.4</ele>
        <time>2022-07-24T08:30:17Z</time>
      </trkpt>
      <trkpt lat="46.4472180" lon="6.0154430">
        <ele>1256.8</ele>
        <time>2022-07-24T08:30:19Z</time>
      </trkpt>
      <trkpt lat="46.4471540" lon="6.0153140">
        <ele>1257.6</ele>
        <time>2022-07-24T08:30:24Z</time>
      </trkpt>
      <trkpt lat="46.4471370" lon="6.0152610">
        <ele>1257.8</ele>
        <time>2022-07-24T08:30:26Z</time>
      </trkpt>
      <trkpt lat="46.4471020" lon="6.0151510">
        <ele>1258.4</ele>
        <time>2022-07-24T08:30:29Z</time>
      </trkpt>
      <trkpt lat="46.4470850" lon="6.0151160">
        <ele>1258.6</ele>
        <time>2022-07-24T08:30:30Z</time>
      </trkpt>
      <trkpt lat="46.4470050" lon="6.0149710">
        <ele>1258.8</ele>
        <time>2022-07-24T08:30:34Z</time>
      </trkpt>
      <trkpt lat="46.4469560" lon="6.0148760">
        <ele>1259.2</ele>
        <time>2022-07-24T08:30:37Z</time>
      </trkpt>
      <trkpt lat="46.4468830" lon="6.0147040">
        <ele>1259.8</ele>
        <time>2022-07-24T08:30:42Z</time>
      </trkpt>
      <trkpt lat="46.4468580" lon="6.0146280">
        <ele>1260.2</ele>
        <time>2022-07-24T08:30:44Z</time>
      </trkpt>
      <trkpt lat="46.4468280" lon="6.0144660">
        <ele>1261.0</ele>
        <time>2022-07-24T08:30:48Z</time>
      </trkpt>
      <trkpt lat="46.4468290" lon="6.0143390">
        <ele>1261.4</ele>
        <time>2022-07-24T08:30:51Z</time>
      </trkpt>
      <trkpt lat="46.4468410" lon="6.0141220">
        <ele>1262.0</ele>
        <time>2022-07-24T08:30:56Z</time>
      </trkpt>
      <trkpt lat="46.4468560" lon="6.0140030">
        <ele>1262.2</ele>
        <time>2022-07-24T08:30:59Z</time>
      </trkpt>
      <trkpt lat="46.4468650" lon="6.0137400">
        <ele>1262.6</ele>
        <time>2022-07-24T08:31:05Z</time>
      </trkpt>
      <trkpt lat="46.4468580" lon="6.0135970">
        <ele>1263.2</ele>
        <time>2022-07-24T08:31:09Z</time>
      </trkpt>
      <trkpt lat="46.4468490" lon="6.0135090">
        <ele>1263.4</ele>
        <time>2022-07-24T08:31:11Z</time>
      </trkpt>
      <trkpt lat="46.4468210" lon="6.0132890">
        <ele>1264.0</ele>
        <time>2022-07-24T08:31:16Z</time>
      </trkpt>
      <trkpt lat="46.4467970" lon="6.0131830">
        <ele>1264.2</ele>
        <time>2022-07-24T08:31:18Z</time>
      </trkpt>
      <trkpt lat="46.4467000" lon="6.0128000">
        <ele>1264.4</ele>
        <time>2022-07-24T08:31:25Z</time>
      </trkpt>
      <trkpt lat="46.4465700" lon="6.0123340">
        <ele>1264.2</ele>
        <time>2022-07-24T08:31:33Z</time>
      </trkpt>
      <trkpt lat="46.4464110" lon="6.0120330">
        <ele>1264.2</ele>
        <time>2022-07-24T08:31:40Z</time>
      </trkpt>
      <trkpt lat="46.4461820" lon="6.0117040">
        <ele>1265.2</ele>
        <time>2022-07-24T08:31:49Z</time>
      </trkpt>
      <trkpt lat="46.4461410" lon="6.0116390">
        <ele>1265.2</ele>
        <time>2022-07-24T08:31:51Z</time>
      </trkpt>
      <trkpt lat="46.4460060" lon="6.0114590">
        <ele>1265.8</ele>
        <time>2022-07-24T08:31:57Z</time>
      </trkpt>
      <trkpt lat="46.4458970" lon="6.0113490">
        <ele>1266.2</ele>
        <time>2022-07-24T08:32:02Z</time>
      </trkpt>
      <trkpt lat="46.4458530" lon="6.0113090">
        <ele>1266.6</ele>
        <time>2022-07-24T08:32:04Z</time>
      </trkpt>
      <trkpt lat="46.4457930" lon="6.0112490">
        <ele>1267.4</ele>
        <time>2022-07-24T08:32:07Z</time>
      </trkpt>
      <trkpt lat="46.4457380" lon="6.0111880">
        <ele>1268.4</ele>
        <time>2022-07-24T08:32:10Z</time>
      </trkpt>
      <trkpt lat="46.4457170" lon="6.0111710">
        <ele>1268.6</ele>
        <time>2022-07-24T08:32:11Z</time>
      </trkpt>
      <trkpt lat="46.4456340" lon="6.0111010">
        <ele>1269.4</ele>
        <time>2022-07-24T08:32:15Z</time>
      </trkpt>
      <trkpt lat="46.4455910" lon="6.0110650">
        <ele>1269.8</ele>
        <time>2022-07-24T08:32:17Z</time>
      </trkpt>
      <trkpt lat="46.4454790" lon="6.0109490">
        <ele>1270.6</ele>
        <time>2022-07-24T08:32:22Z</time>
      </trkpt>
      <trkpt lat="46.4454530" lon="6.0109270">
        <ele>1270.8</ele>
        <time>2022-07-24T08:32:23Z</time>
      </trkpt>
      <trkpt lat="46.4452800" lon="6.0107660">
        <ele>1271.6</ele>
        <time>2022-07-24T08:32:30Z</time>
      </trkpt>
      <trkpt lat="46.4452560" lon="6.0107400">
        <ele>1271.8</ele>
        <time>2022-07-24T08:32:31Z</time>
      </trkpt>
      <trkpt lat="46.4451010" lon="6.0105850">
        <ele>1272.2</ele>
        <time>2022-07-24T08:32:37Z</time>
      </trkpt>
      <trkpt lat="46.4448830" lon="6.0103990">
        <ele>1272.4</ele>
        <time>2022-07-24T08:32:44Z</time>
      </trkpt>
      <trkpt lat="46.4446990" lon="6.0102630">
        <ele>1272.4</ele>
        <time>2022-07-24T08:32:50Z</time>
      </trkpt>
      <trkpt lat="46.4444840" lon="6.0101360">
        <ele>1272.4</ele>
        <time>2022-07-24T08:32:56Z</time>
      </trkpt>
      <trkpt lat="46.4442330" lon="6.0099920">
        <ele>1272.4</ele>
        <time>2022-07-24T08:33:01Z</time>
      </trkpt>
      <trkpt lat="46.4441800" lon="6.0099470">
        <ele>1272.4</ele>
        <time>2022-07-24T08:33:02Z</time>
      </trkpt>
      <trkpt lat="46.4439510" lon="6.0096870">
        <ele>1271.8</ele>
        <time>2022-07-24T08:33:08Z</time>
      </trkpt>
      <trkpt lat="46.4437260" lon="6.0094090">
        <ele>1271.2</ele>
        <time>2022-07-24T08:33:14Z</time>
      </trkpt>
      <trkpt lat="46.4434830" lon="6.0091100">
        <ele>1271.0</ele>
        <time>2022-07-24T08:33:20Z</time>
      </trkpt>
      <trkpt lat="46.4432710" lon="6.0088500">
        <ele>1270.6</ele>
        <time>2022-07-24T08:33:24Z</time>
      </trkpt>
      <trkpt lat="46.4432090" lon="6.0087730">
        <ele>1270.4</ele>
        <time>2022-07-24T08:33:25Z</time>
      </trkpt>
      <trkpt lat="46.4429680" lon="6.0084890">
        <ele>1269.6</ele>
        <time>2022-07-24T08:33:29Z</time>
      </trkpt>
      <trkpt lat="46.4429210" lon="6.0084030">
        <ele>1269.4</ele>
        <time>2022-07-24T08:33:30Z</time>
      </trkpt>
      <trkpt lat="46.4427320" lon="6.0079450">
        <ele>1268.2</ele>
        <time>2022-07-24T08:33:35Z</time>
      </trkpt>
      <trkpt lat="46.4425260" lon="6.0075360">
        <ele>1267.4</ele>
        <time>2022-07-24T08:33:41Z</time>
      </trkpt>
      <trkpt lat="46.4423150" lon="6.0072310">
        <ele>1267.6</ele>
        <time>2022-07-24T08:33:47Z</time>
      </trkpt>
      <trkpt lat="46.4421770" lon="6.0070200">
        <ele>1268.2</ele>
        <time>2022-07-24T08:33:53Z</time>
      </trkpt>
      <trkpt lat="46.4420930" lon="6.0068760">
        <ele>1269.0</ele>
        <time>2022-07-24T08:33:57Z</time>
      </trkpt>
      <trkpt lat="46.4420210" lon="6.0067600">
        <ele>1270.0</ele>
        <time>2022-07-24T08:34:00Z</time>
      </trkpt>
      <trkpt lat="46.4419960" lon="6.0067210">
        <ele>1270.2</ele>
        <time>2022-07-24T08:34:01Z</time>
      </trkpt>
      <trkpt lat="46.4418230" lon="6.0064360">
        <ele>1271.0</ele>
        <time>2022-07-24T08:34:07Z</time>
      </trkpt>
      <trkpt lat="46.4417560" lon="6.0063090">
        <ele>1271.0</ele>
        <time>2022-07-24T08:34:09Z</time>
      </trkpt>
      <trkpt lat="46.4417010" lon="6.0061380">
        <ele>1271.0</ele>
        <time>2022-07-24T08:34:11Z</time>
      </trkpt>
      <trkpt lat="46.4416560" lon="6.0059210">
        <ele>1271.0</ele>
        <time>2022-07-24T08:34:13Z</time>
      </trkpt>
      <trkpt lat="46.4415990" lon="6.0056840">
        <ele>1270.8</ele>
        <time>2022-07-24T08:34:15Z</time>
      </trkpt>
      <trkpt lat="46.4413940" lon="6.0050880">
        <ele>1269.2</ele>
        <time>2022-07-24T08:34:20Z</time>
      </trkpt>
      <trkpt lat="46.4412950" lon="6.0048780">
        <ele>1268.2</ele>
        <time>2022-07-24T08:34:22Z</time>
      </trkpt>
      <trkpt lat="46.4411810" lon="6.0046960">
        <ele>1267.2</ele>
        <time>2022-07-24T08:34:24Z</time>
      </trkpt>
      <trkpt lat="46.4411240" lon="6.0046100">
        <ele>1267.0</ele>
        <time>2022-07-24T08:34:25Z</time>
      </trkpt>
      <trkpt lat="46.4409600" lon="6.0043550">
        <ele>1265.6</ele>
        <time>2022-07-24T08:34:28Z</time>
      </trkpt>
      <trkpt lat="46.4408660" lon="6.0041810">
        <ele>1264.8</ele>
        <time>2022-07-24T08:34:30Z</time>
      </trkpt>
      <trkpt lat="46.4408230" lon="6.0041030">
        <ele>1264.6</ele>
        <time>2022-07-24T08:34:31Z</time>
      </trkpt>
      <trkpt lat="46.4407130" lon="6.0039140">
        <ele>1264.4</ele>
        <time>2022-07-24T08:34:34Z</time>
      </trkpt>
      <trkpt lat="46.4405520" lon="6.0036570">
        <ele>1264.4</ele>
        <time>2022-07-24T08:34:40Z</time>
      </trkpt>
      <trkpt lat="46.4404540" lon="6.0035090">
        <ele>1265.6</ele>
        <time>2022-07-24T08:34:44Z</time>
      </trkpt>
      <trkpt lat="46.4404120" lon="6.0034450">
        <ele>1266.2</ele>
        <time>2022-07-24T08:34:46Z</time>
      </trkpt>
      <trkpt lat="46.4403600" lon="6.0033590">
        <ele>1266.8</ele>
        <time>2022-07-24T08:34:49Z</time>
      </trkpt>
      <trkpt lat="46.4402780" lon="6.0032460">
        <ele>1267.6</ele>
        <time>2022-07-24T08:34:53Z</time>
      </trkpt>
      <trkpt lat="46.4402560" lon="6.0032200">
        <ele>1268.0</ele>
        <time>2022-07-24T08:34:54Z</time>
      </trkpt>
      <trkpt lat="46.4401210" lon="6.0030590">
        <ele>1268.8</ele>
        <time>2022-07-24T08:34:59Z</time>
      </trkpt>
      <trkpt lat="46.4400910" lon="6.0030240">
        <ele>1269.0</ele>
        <time>2022-07-24T08:35:00Z</time>
      </trkpt>
      <trkpt lat="46.4399020" lon="6.0028160">
        <ele>1269.6</ele>
        <time>2022-07-24T08:35:06Z</time>
      </trkpt>
      <trkpt lat="46.4396960" lon="6.0025950">
        <ele>1270.0</ele>
        <time>2022-07-24T08:35:13Z</time>
      </trkpt>
      <trkpt lat="46.4396690" lon="6.0025630">
        <ele>1270.0</ele>
        <time>2022-07-24T08:35:14Z</time>
      </trkpt>
      <trkpt lat="46.4395260" lon="6.0023890">
        <ele>1270.6</ele>
        <time>2022-07-24T08:35:20Z</time>
      </trkpt>
      <trkpt lat="46.4394890" lon="6.0023410">
        <ele>1271.0</ele>
        <time>2022-07-24T08:35:22Z</time>
      </trkpt>
      <trkpt lat="46.4393830" lon="6.0022270">
        <ele>1272.2</ele>
        <time>2022-07-24T08:35:27Z</time>
      </trkpt>
      <trkpt lat="46.4393600" lon="6.0022020">
        <ele>1272.4</ele>
        <time>2022-07-24T08:35:28Z</time>
      </trkpt>
      <trkpt lat="46.4392260" lon="6.0020660">
        <ele>1273.2</ele>
        <time>2022-07-24T08:35:33Z</time>
      </trkpt>
      <trkpt lat="46.4391660" lon="6.0020040">
        <ele>1273.4</ele>
        <time>2022-07-24T08:35:35Z</time>
      </trkpt>
      <trkpt lat="46.4389370" lon="6.0017310">
        <ele>1273.8</ele>
        <time>2022-07-24T08:35:43Z</time>
      </trkpt>
      <trkpt lat="46.4387220" lon="6.0014870">
        <ele>1273.8</ele>
        <time>2022-07-24T08:35:50Z</time>
      </trkpt>
      <trkpt lat="46.4384170" lon="6.0011450">
        <ele>1274.0</ele>
        <time>2022-07-24T08:35:56Z</time>
      </trkpt>
      <trkpt lat="46.4381240" lon="6.0008130">
        <ele>1273.0</ele>
        <time>2022-07-24T08:36:01Z</time>
      </trkpt>
      <trkpt lat="46.4379090" lon="6.0005810">
        <ele>1272.2</ele>
        <time>2022-07-24T08:36:05Z</time>
      </trkpt>
      <trkpt lat="46.4377980" lon="6.0004650">
        <ele>1271.6</ele>
        <time>2022-07-24T08:36:07Z</time>
      </trkpt>
      <trkpt lat="46.4375090" lon="6.0001560">
        <ele>1271.0</ele>
        <time>2022-07-24T08:36:12Z</time>
      </trkpt>
      <trkpt lat="46.4372810" lon="5.9999090">
        <ele>1270.6</ele>
        <time>2022-07-24T08:36:16Z</time>
      </trkpt>
      <trkpt lat="46.4371120" lon="5.9997270">
        <ele>1269.8</ele>
        <time>2022-07-24T08:36:19Z</time>
      </trkpt>
      <trkpt lat="46.4369970" lon="5.9996020">
        <ele>1269.4</ele>
        <time>2022-07-24T08:36:21Z</time>
      </trkpt>
      <trkpt lat="46.4367360" lon="5.9992550">
        <ele>1268.6</ele>
        <time>2022-07-24T08:36:26Z</time>
      </trkpt>
      <trkpt lat="46.4365260" lon="5.9987940">
        <ele>1268.6</ele>
        <time>2022-07-24T08:36:32Z</time>
      </trkpt>
      <trkpt lat="46.4364710" lon="5.9986840">
        <ele>1268.4</ele>
        <time>2022-07-24T08:36:34Z</time>
      </trkpt>
      <trkpt lat="46.4364270" lon="5.9986360">
        <ele>1268.4</ele>
        <time>2022-07-24T08:36:35Z</time>
      </trkpt>
      <trkpt lat="46.4363780" lon="5.9986000">
        <ele>1268.4</ele>
        <time>2022-07-24T08:36:36Z</time>
      </trkpt>
      <trkpt lat="46.4361740" lon="5.9985910">
        <ele>1268.0</ele>
        <time>2022-07-24T08:36:40Z</time>
      </trkpt>
      <trkpt lat="46.4361260" lon="5.9986030">
        <ele>1268.0</ele>
        <time>2022-07-24T08:36:41Z</time>
      </trkpt>
      <trkpt lat="46.4359960" lon="5.9986080">
        <ele>1268.2</ele>
        <time>2022-07-24T08:36:45Z</time>
      </trkpt>
      <trkpt lat="46.4358630" lon="5.9985110">
        <ele>1267.8</ele>
        <time>2022-07-24T08:36:50Z</time>
      </trkpt>
      <trkpt lat="46.4357070" lon="5.9983860">
        <ele>1267.6</ele>
        <time>2022-07-24T08:36:55Z</time>
      </trkpt>
      <trkpt lat="46.4356570" lon="5.9983610">
        <ele>1267.4</ele>
        <time>2022-07-24T08:36:57Z</time>
      </trkpt>
      <trkpt lat="46.4355520" lon="5.9983160">
        <ele>1267.0</ele>
        <time>2022-07-24T08:37:01Z</time>
      </trkpt>
      <trkpt lat="46.4353650" lon="5.9983030">
        <ele>1267.4</ele>
        <time>2022-07-24T08:37:08Z</time>
      </trkpt>
      <trkpt lat="46.4352670" lon="5.9983500">
        <ele>1268.0</ele>
        <time>2022-07-24T08:37:12Z</time>
      </trkpt>
      <trkpt lat="46.4351670" lon="5.9984970">
        <ele>1268.2</ele>
        <time>2022-07-24T08:37:17Z</time>
      </trkpt>
      <trkpt lat="46.4351190" lon="5.9985340">
        <ele>1268.4</ele>
        <time>2022-07-24T08:37:19Z</time>
      </trkpt>
      <trkpt lat="46.4350370" lon="5.9985780">
        <ele>1268.4</ele>
        <time>2022-07-24T08:37:23Z</time>
      </trkpt>
      <trkpt lat="46.4349190" lon="5.9985190">
        <ele>1269.0</ele>
        <time>2022-07-24T08:37:28Z</time>
      </trkpt>
      <trkpt lat="46.4348210" lon="5.9984550">
        <ele>1269.4</ele>
        <time>2022-07-24T08:37:32Z</time>
      </trkpt>
      <trkpt lat="46.4347870" lon="5.9984270">
        <ele>1269.8</ele>
        <time>2022-07-24T08:37:34Z</time>
      </trkpt>
      <trkpt lat="46.4346720" lon="5.9983630">
        <ele>1270.2</ele>
        <time>2022-07-24T08:37:39Z</time>
      </trkpt>
      <trkpt lat="46.4346000" lon="5.9983170">
        <ele>1270.4</ele>
        <time>2022-07-24T08:37:42Z</time>
      </trkpt>
      <trkpt lat="46.4345420" lon="5.9982570">
        <ele>1270.8</ele>
        <time>2022-07-24T08:37:45Z</time>
      </trkpt>
      <trkpt lat="46.4344180" lon="5.9981980">
        <ele>1270.8</ele>
        <time>2022-07-24T08:37:50Z</time>
      </trkpt>
      <trkpt lat="46.4342470" lon="5.9982350">
        <ele>1271.6</ele>
        <time>2022-07-24T08:37:56Z</time>
      </trkpt>
      <trkpt lat="46.4341850" lon="5.9983180">
        <ele>1271.8</ele>
        <time>2022-07-24T08:38:01Z</time>
      </trkpt>
      <trkpt lat="46.4341460" lon="5.9983670">
        <ele>1272.0</ele>
        <time>2022-07-24T08:38:04Z</time>
      </trkpt>
      <trkpt lat="46.4341040" lon="5.9984100">
        <ele>1272.8</ele>
        <time>2022-07-24T08:38:07Z</time>
      </trkpt>
      <trkpt lat="46.4340920" lon="5.9984210">
        <ele>1273.0</ele>
        <time>2022-07-24T08:38:08Z</time>
      </trkpt>
      <trkpt lat="46.4340310" lon="5.9984900">
        <ele>1273.8</ele>
        <time>2022-07-24T08:38:14Z</time>
      </trkpt>
      <trkpt lat="46.4340130" lon="5.9985180">
        <ele>1274.2</ele>
        <time>2022-07-24T08:38:16Z</time>
      </trkpt>
      <trkpt lat="46.4339740" lon="5.9985660">
        <ele>1274.8</ele>
        <time>2022-07-24T08:38:20Z</time>
      </trkpt>
      <trkpt lat="46.4339460" lon="5.9986150">
        <ele>1275.2</ele>
        <time>2022-07-24T08:38:23Z</time>
      </trkpt>
      <trkpt lat="46.4339070" lon="5.9986910">
        <ele>1275.6</ele>
        <time>2022-07-24T08:38:28Z</time>
      </trkpt>
      <trkpt lat="46.4338970" lon="5.9987230">
        <ele>1275.8</ele>
        <time>2022-07-24T08:38:30Z</time>
      </trkpt>
      <trkpt lat="46.4338740" lon="5.9987970">
        <ele>1276.8</ele>
        <time>2022-07-24T08:38:36Z</time>
      </trkpt>
      <trkpt lat="46.4338630" lon="5.9988240">
        <ele>1276.8</ele>
        <time>2022-07-24T08:38:38Z</time>
      </trkpt>
      <trkpt lat="46.4338470" lon="5.9988720">
        <ele>1277.2</ele>
        <time>2022-07-24T08:38:41Z</time>
      </trkpt>
      <trkpt lat="46.4338250" lon="5.9989140">
        <ele>1277.6</ele>
        <time>2022-07-24T08:38:44Z</time>
      </trkpt>
      <trkpt lat="46.4338160" lon="5.9989260">
        <ele>1277.8</ele>
        <time>2022-07-24T08:38:45Z</time>
      </trkpt>
      <trkpt lat="46.4337700" lon="5.9990230">
        <ele>1278.4</ele>
        <time>2022-07-24T08:38:51Z</time>
      </trkpt>
      <trkpt lat="46.4337470" lon="5.9990640">
        <ele>1278.8</ele>
        <time>2022-07-24T08:38:54Z</time>
      </trkpt>
      <trkpt lat="46.4336950" lon="5.9991390">
        <ele>1279.8</ele>
        <time>2022-07-24T08:39:00Z</time>
      </trkpt>
      <trkpt lat="46.4336680" lon="5.9991660">
        <ele>1280.6</ele>
        <time>2022-07-24T08:39:03Z</time>
      </trkpt>
      <trkpt lat="46.4336530" lon="5.9991810">
        <ele>1281.0</ele>
        <time>2022-07-24T08:39:05Z</time>
      </trkpt>
      <trkpt lat="46.4336250" lon="5.9992080">
        <ele>1282.0</ele>
        <time>2022-07-24T08:39:09Z</time>
      </trkpt>
      <trkpt lat="46.4335970" lon="5.9992100">
        <ele>1282.4</ele>
        <time>2022-07-24T08:39:12Z</time>
      </trkpt>
      <trkpt lat="46.4335660" lon="5.9991960">
        <ele>1282.8</ele>
        <time>2022-07-24T08:39:15Z</time>
      </trkpt>
      <trkpt lat="46.4335570" lon="5.9991870">
        <ele>1283.0</ele>
        <time>2022-07-24T08:39:16Z</time>
      </trkpt>
      <trkpt lat="46.4335430" lon="5.9991640">
        <ele>1283.2</ele>
        <time>2022-07-24T08:39:18Z</time>
      </trkpt>
      <trkpt lat="46.4334740" lon="5.9990820">
        <ele>1283.8</ele>
        <time>2022-07-24T08:39:24Z</time>
      </trkpt>
      <trkpt lat="46.4334240" lon="5.9990440">
        <ele>1284.2</ele>
        <time>2022-07-24T08:39:26Z</time>
      </trkpt>
      <trkpt lat="46.4333810" lon="5.9990070">
        <ele>1284.4</ele>
        <time>2022-07-24T08:39:28Z</time>
      </trkpt>
      <trkpt lat="46.4332940" lon="5.9989340">
        <ele>1284.6</ele>
        <time>2022-07-24T08:39:34Z</time>
      </trkpt>
      <trkpt lat="46.4332020" lon="5.9988470">
        <ele>1285.2</ele>
        <time>2022-07-24T08:39:39Z</time>
      </trkpt>
      <trkpt lat="46.4331730" lon="5.9988300">
        <ele>1285.2</ele>
        <time>2022-07-24T08:39:40Z</time>
      </trkpt>
      <trkpt lat="46.4330190" lon="5.9987610">
        <ele>1285.2</ele>
        <time>2022-07-24T08:39:46Z</time>
      </trkpt>
      <trkpt lat="46.4328570" lon="5.9987100">
        <ele>1285.4</ele>
        <time>2022-07-24T08:39:53Z</time>
      </trkpt>
      <trkpt lat="46.4327210" lon="5.9986350">
        <ele>1285.6</ele>
        <time>2022-07-24T08:40:00Z</time>
      </trkpt>
      <trkpt lat="46.4325480" lon="5.9985850">
        <ele>1285.6</ele>
        <time>2022-07-24T08:40:07Z</time>
      </trkpt>
      <trkpt lat="46.4324080" lon="5.9985440">
        <ele>1285.6</ele>
        <time>2022-07-24T08:40:13Z</time>
      </trkpt>
      <trkpt lat="46.4323040" lon="5.9984420">
        <ele>1285.6</ele>
        <time>2022-07-24T08:40:17Z</time>
      </trkpt>
      <trkpt lat="46.4322680" lon="5.9983970">
        <ele>1285.4</ele>
        <time>2022-07-24T08:40:18Z</time>
      </trkpt>
      <trkpt lat="46.4322330" lon="5.9983460">
        <ele>1285.4</ele>
        <time>2022-07-24T08:40:19Z</time>
      </trkpt>
      <trkpt lat="46.4321810" lon="5.9982530">
        <ele>1285.0</ele>
        <time>2022-07-24T08:40:21Z</time>
      </trkpt>
      <trkpt lat="46.4321090" lon="5.9981730">
        <ele>1284.4</ele>
        <time>2022-07-24T08:40:23Z</time>
      </trkpt>
      <trkpt lat="46.4320690" lon="5.9981320">
        <ele>1284.0</ele>
        <time>2022-07-24T08:40:24Z</time>
      </trkpt>
      <trkpt lat="46.4320050" lon="5.9980780">
        <ele>1282.8</ele>
        <time>2022-07-24T08:40:26Z</time>
      </trkpt>
      <trkpt lat="46.4319220" lon="5.9980450">
        <ele>1281.6</ele>
        <time>2022-07-24T08:40:29Z</time>
      </trkpt>
      <trkpt lat="46.4318560" lon="5.9980230">
        <ele>1281.2</ele>
        <time>2022-07-24T08:40:31Z</time>
      </trkpt>
      <trkpt lat="46.4317500" lon="5.9980560">
        <ele>1281.0</ele>
        <time>2022-07-24T08:40:36Z</time>
      </trkpt>
      <trkpt lat="46.4316890" lon="5.9981480">
        <ele>1281.2</ele>
        <time>2022-07-24T08:40:41Z</time>
      </trkpt>
      <trkpt lat="46.4316390" lon="5.9982470">
        <ele>1282.0</ele>
        <time>2022-07-24T08:40:47Z</time>
      </trkpt>
      <trkpt lat="46.4316260" lon="5.9982820">
        <ele>1282.4</ele>
        <time>2022-07-24T08:40:49Z</time>
      </trkpt>
      <trkpt lat="46.4316170" lon="5.9983190">
        <ele>1282.6</ele>
        <time>2022-07-24T08:40:51Z</time>
      </trkpt>
      <trkpt lat="46.4316070" lon="5.9983850">
        <ele>1283.2</ele>
        <time>2022-07-24T08:40:54Z</time>
      </trkpt>
      <trkpt lat="46.4316070" lon="5.9984540">
        <ele>1283.8</ele>
        <time>2022-07-24T08:40:57Z</time>
      </trkpt>
      <trkpt lat="46.4315920" lon="5.9985380">
        <ele>1284.0</ele>
        <time>2022-07-24T08:41:00Z</time>
      </trkpt>
      <trkpt lat="46.4315810" lon="5.9986250">
        <ele>1284.6</ele>
        <time>2022-07-24T08:41:04Z</time>
      </trkpt>
      <trkpt lat="46.4315700" lon="5.9986480">
        <ele>1284.6</ele>
        <time>2022-07-24T08:41:05Z</time>
      </trkpt>
      <trkpt lat="46.4315210" lon="5.9986990">
        <ele>1284.8</ele>
        <time>2022-07-24T08:41:08Z</time>
      </trkpt>
      <trkpt lat="46.4314400" lon="5.9987370">
        <ele>1285.0</ele>
        <time>2022-07-24T08:41:12Z</time>
      </trkpt>
      <trkpt lat="46.4313320" lon="5.9986840">
        <ele>1285.6</ele>
        <time>2022-07-24T08:41:18Z</time>
      </trkpt>
      <trkpt lat="46.4313170" lon="5.9986820">
        <ele>1285.6</ele>
        <time>2022-07-24T08:41:19Z</time>
      </trkpt>
      <trkpt lat="46.4312550" lon="5.9986740">
        <ele>1285.8</ele>
        <time>2022-07-24T08:41:23Z</time>
      </trkpt>
      <trkpt lat="46.4312220" lon="5.9986620">
        <ele>1286.0</ele>
        <time>2022-07-24T08:41:25Z</time>
      </trkpt>
      <trkpt lat="46.4311810" lon="5.9986590">
        <ele>1286.8</ele>
        <time>2022-07-24T08:41:29Z</time>
      </trkpt>
      <trkpt lat="46.4311520" lon="5.9986550">
        <ele>1287.0</ele>
        <time>2022-07-24T08:41:31Z</time>
      </trkpt>
      <trkpt lat="46.4311230" lon="5.9986480">
        <ele>1287.8</ele>
        <time>2022-07-24T08:41:33Z</time>
      </trkpt>
      <trkpt lat="46.4310650" lon="5.9986350">
        <ele>1288.8</ele>
        <time>2022-07-24T08:41:37Z</time>
      </trkpt>
      <trkpt lat="46.4310490" lon="5.9986240">
        <ele>1289.0</ele>
        <time>2022-07-24T08:41:38Z</time>
      </trkpt>
      <trkpt lat="46.4309560" lon="5.9985710">
        <ele>1289.6</ele>
        <time>2022-07-24T08:41:44Z</time>
      </trkpt>
      <trkpt lat="46.4307790" lon="5.9985020">
        <ele>1289.8</ele>
        <time>2022-07-24T08:41:50Z</time>
      </trkpt>
      <trkpt lat="46.4305970" lon="5.9985580">
        <ele>1289.8</ele>
        <time>2022-07-24T08:41:55Z</time>
      </trkpt>
      <trkpt lat="46.4304580" lon="5.9987340">
        <ele>1289.2</ele>
        <time>2022-07-24T08:42:00Z</time>
      </trkpt>
      <trkpt lat="46.4303520" lon="5.9988540">
        <ele>1287.6</ele>
        <time>2022-07-24T08:42:04Z</time>
      </trkpt>
      <trkpt lat="46.4303170" lon="5.9988870">
        <ele>1287.4</ele>
        <time>2022-07-24T08:42:05Z</time>
      </trkpt>
      <trkpt lat="46.4302290" lon="5.9989730">
        <ele>1286.4</ele>
        <time>2022-07-24T08:42:08Z</time>
      </trkpt>
      <trkpt lat="46.4301850" lon="5.9989880">
        <ele>1285.6</ele>
        <time>2022-07-24T08:42:10Z</time>
      </trkpt>
      <trkpt lat="46.4301630" lon="5.9989910">
        <ele>1285.0</ele>
        <time>2022-07-24T08:42:11Z</time>
      </trkpt>
      <trkpt lat="46.4300250" lon="5.9990800">
        <ele>1284.2</ele>
        <time>2022-07-24T08:42:16Z</time>
      </trkpt>
      <trkpt lat="46.4299660" lon="5.9991300">
        <ele>1284.0</ele>
        <time>2022-07-24T08:42:19Z</time>
      </trkpt>
      <trkpt lat="46.4299370" lon="5.9991590">
        <ele>1284.0</ele>
        <time>2022-07-24T08:42:21Z</time>
      </trkpt>
      <trkpt lat="46.4298850" lon="5.9992150">
        <ele>1284.0</ele>
        <time>2022-07-24T08:42:25Z</time>
      </trkpt>
      <trkpt lat="46.4298630" lon="5.9992400">
        <ele>1284.2</ele>
        <time>2022-07-24T08:42:27Z</time>
      </trkpt>
      <trkpt lat="46.4297960" lon="5.9993110">
        <ele>1284.6</ele>
        <time>2022-07-24T08:42:34Z</time>
      </trkpt>
      <trkpt lat="46.4294730" lon="5.9997810">
        <ele>1293.0</ele>
        <time>2022-07-24T08:43:33Z</time>
      </trkpt>
      <trkpt lat="46.4294270" lon="5.9998390">
        <ele>1292.8</ele>
        <time>2022-07-24T08:43:35Z</time>
      </trkpt>
      <trkpt lat="46.4293120" lon="5.9999730">
        <ele>1292.4</ele>
        <time>2022-07-24T08:43:40Z</time>
      </trkpt>
      <trkpt lat="46.4292470" lon="6.0000470">
        <ele>1292.0</ele>
        <time>2022-07-24T08:43:46Z</time>
      </trkpt>
      <trkpt lat="46.4291920" lon="6.0000610">
        <ele>1291.8</ele>
        <time>2022-07-24T08:43:53Z</time>
      </trkpt>
      <trkpt lat="46.4291150" lon="6.0001250">
        <ele>1294.0</ele>
        <time>2022-07-24T08:44:06Z</time>
      </trkpt>
      <trkpt lat="46.4291080" lon="6.0001330">
        <ele>1294.6</ele>
        <time>2022-07-24T08:44:08Z</time>
      </trkpt>
      <trkpt lat="46.4290950" lon="6.0001430">
        <ele>1295.2</ele>
        <time>2022-07-24T08:44:11Z</time>
      </trkpt>
      <trkpt lat="46.4288910" lon="6.0003290">
        <ele>1298.6</ele>
        <time>2022-07-24T08:44:41Z</time>
      </trkpt>
      <trkpt lat="46.4288630" lon="6.0003520">
        <ele>1298.6</ele>
        <time>2022-07-24T08:44:44Z</time>
      </trkpt>
      <trkpt lat="46.4288550" lon="6.0003570">
        <ele>1298.6</ele>
        <time>2022-07-24T08:44:47Z</time>
      </trkpt>
      <trkpt lat="46.4286990" lon="6.0003980">
        <ele>1298.2</ele>
        <time>2022-07-24T08:45:06Z</time>
      </trkpt>
      <trkpt lat="46.4286740" lon="6.0003940">
        <ele>1298.0</ele>
        <time>2022-07-24T08:45:08Z</time>
      </trkpt>
      <trkpt lat="46.4286510" lon="6.0003870">
        <ele>1297.6</ele>
        <time>2022-07-24T08:45:11Z</time>
      </trkpt>
      <trkpt lat="46.4286150" lon="6.0003850">
        <ele>1296.4</ele>
        <time>2022-07-24T08:45:15Z</time>
      </trkpt>
      <trkpt lat="46.4285850" lon="6.0003830">
        <ele>1296.2</ele>
        <time>2022-07-24T08:45:18Z</time>
      </trkpt>
      <trkpt lat="46.4285290" lon="6.0004260">
        <ele>1295.2</ele>
        <time>2022-07-24T08:45:23Z</time>
      </trkpt>
      <trkpt lat="46.4284780" lon="6.0004970">
        <ele>1294.0</ele>
        <time>2022-07-24T08:45:26Z</time>
      </trkpt>
      <trkpt lat="46.4284220" lon="6.0005810">
        <ele>1293.4</ele>
        <time>2022-07-24T08:45:28Z</time>
      </trkpt>
      <trkpt lat="46.4283830" lon="6.0006470">
        <ele>1293.0</ele>
        <time>2022-07-24T08:45:30Z</time>
      </trkpt>
      <trkpt lat="46.4283690" lon="6.0006710">
        <ele>1292.8</ele>
        <time>2022-07-24T08:45:31Z</time>
      </trkpt>
      <trkpt lat="46.4283010" lon="6.0008130">
        <ele>1291.6</ele>
        <time>2022-07-24T08:45:36Z</time>
      </trkpt>
      <trkpt lat="46.4282800" lon="6.0008570">
        <ele>1291.4</ele>
        <time>2022-07-24T08:45:37Z</time>
      </trkpt>
      <trkpt lat="46.4281690" lon="6.0010310">
        <ele>1290.4</ele>
        <time>2022-07-24T08:45:41Z</time>
      </trkpt>
      <trkpt lat="46.4281410" lon="6.0010640">
        <ele>1290.4</ele>
        <time>2022-07-24T08:45:42Z</time>
      </trkpt>
      <trkpt lat="46.4280790" lon="6.0011550">
        <ele>1289.4</ele>
        <time>2022-07-24T08:45:46Z</time>
      </trkpt>
      <trkpt lat="46.4280500" lon="6.0012100">
        <ele>1289.2</ele>
        <time>2022-07-24T08:45:48Z</time>
      </trkpt>
      <trkpt lat="46.4279300" lon="6.0014120">
        <ele>1288.8</ele>
        <time>2022-07-24T08:45:52Z</time>
      </trkpt>
      <trkpt lat="46.4278370" lon="6.0016110">
        <ele>1288.8</ele>
        <time>2022-07-24T08:45:56Z</time>
      </trkpt>
      <trkpt lat="46.4277920" lon="6.0016700">
        <ele>1288.4</ele>
        <time>2022-07-24T08:45:58Z</time>
      </trkpt>
      <trkpt lat="46.4277580" lon="6.0016970">
        <ele>1287.4</ele>
        <time>2022-07-24T08:46:00Z</time>
      </trkpt>
      <trkpt lat="46.4277470" lon="6.0017020">
        <ele>1287.0</ele>
        <time>2022-07-24T08:46:01Z</time>
      </trkpt>
      <trkpt lat="46.4277370" lon="6.0016990">
        <ele>1286.2</ele>
        <time>2022-07-24T08:46:02Z</time>
      </trkpt>
      <trkpt lat="46.4277260" lon="6.0016950">
        <ele>1285.6</ele>
        <time>2022-07-24T08:46:03Z</time>
      </trkpt>
      <trkpt lat="46.4276900" lon="6.0016720">
        <ele>1284.4</ele>
        <time>2022-07-24T08:46:06Z</time>
      </trkpt>
      <trkpt lat="46.4276000" lon="6.0015190">
        <ele>1283.2</ele>
        <time>2022-07-24T08:46:10Z</time>
      </trkpt>
      <trkpt lat="46.4275490" lon="6.0013260">
        <ele>1282.6</ele>
        <time>2022-07-24T08:46:13Z</time>
      </trkpt>
      <trkpt lat="46.4275430" lon="6.0012730">
        <ele>1282.2</ele>
        <time>2022-07-24T08:46:14Z</time>
      </trkpt>
      <trkpt lat="46.4275340" lon="6.0012260">
        <ele>1281.8</ele>
        <time>2022-07-24T08:46:15Z</time>
      </trkpt>
      <trkpt lat="46.4275090" lon="6.0011520">
        <ele>1280.8</ele>
        <time>2022-07-24T08:46:17Z</time>
      </trkpt>
      <trkpt lat="46.4274810" lon="6.0010880">
        <ele>1279.2</ele>
        <time>2022-07-24T08:46:19Z</time>
      </trkpt>
      <trkpt lat="46.4274270" lon="6.0010300">
        <ele>1277.8</ele>
        <time>2022-07-24T08:46:21Z</time>
      </trkpt>
      <trkpt lat="46.4273550" lon="6.0010090">
        <ele>1276.4</ele>
        <time>2022-07-24T08:46:23Z</time>
      </trkpt>
      <trkpt lat="46.4272600" lon="6.0010510">
        <ele>1275.2</ele>
        <time>2022-07-24T08:46:26Z</time>
      </trkpt>
      <trkpt lat="46.4272360" lon="6.0010810">
        <ele>1275.0</ele>
        <time>2022-07-24T08:46:27Z</time>
      </trkpt>
      <trkpt lat="46.4271960" lon="6.0011500">
        <ele>1274.0</ele>
        <time>2022-07-24T08:46:29Z</time>
      </trkpt>
      <trkpt lat="46.4271440" lon="6.0012490">
        <ele>1273.0</ele>
        <time>2022-07-24T08:46:31Z</time>
      </trkpt>
      <trkpt lat="46.4271110" lon="6.0013140">
        <ele>1272.6</ele>
        <time>2022-07-24T08:46:32Z</time>
      </trkpt>
      <trkpt lat="46.4270730" lon="6.0013810">
        <ele>1272.0</ele>
        <time>2022-07-24T08:46:33Z</time>
      </trkpt>
      <trkpt lat="46.4269880" lon="6.0015180">
        <ele>1270.8</ele>
        <time>2022-07-24T08:46:35Z</time>
      </trkpt>
      <trkpt lat="46.4269110" lon="6.0016300">
        <ele>1269.8</ele>
        <time>2022-07-24T08:46:37Z</time>
      </trkpt>
      <trkpt lat="46.4268840" lon="6.0016820">
        <ele>1269.6</ele>
        <time>2022-07-24T08:46:38Z</time>
      </trkpt>
      <trkpt lat="46.4268420" lon="6.0017880">
        <ele>1269.0</ele>
        <time>2022-07-24T08:46:40Z</time>
      </trkpt>
      <trkpt lat="46.4268330" lon="6.0018520">
        <ele>1268.4</ele>
        <time>2022-07-24T08:46:41Z</time>
      </trkpt>
      <trkpt lat="46.4267950" lon="6.0019990">
        <ele>1267.2</ele>
        <time>2022-07-24T08:46:44Z</time>
      </trkpt>
      <trkpt lat="46.4267800" lon="6.0020870">
        <ele>1265.8</ele>
        <time>2022-07-24T08:46:46Z</time>
      </trkpt>
      <trkpt lat="46.4267590" lon="6.0022060">
        <ele>1264.8</ele>
        <time>2022-07-24T08:46:49Z</time>
      </trkpt>
      <trkpt lat="46.4267580" lon="6.0022920">
        <ele>1264.4</ele>
        <time>2022-07-24T08:46:51Z</time>
      </trkpt>
      <trkpt lat="46.4267590" lon="6.0025080">
        <ele>1263.6</ele>
        <time>2022-07-24T08:46:56Z</time>
      </trkpt>
      <trkpt lat="46.4267560" lon="6.0025870">
        <ele>1263.4</ele>
        <time>2022-07-24T08:46:58Z</time>
      </trkpt>
      <trkpt lat="46.4267220" lon="6.0028330">
        <ele>1263.2</ele>
        <time>2022-07-24T08:47:04Z</time>
      </trkpt>
      <trkpt lat="46.4266820" lon="6.0031290">
        <ele>1262.6</ele>
        <time>2022-07-24T08:47:10Z</time>
      </trkpt>
      <trkpt lat="46.4266810" lon="6.0033520">
        <ele>1262.6</ele>
        <time>2022-07-24T08:47:13Z</time>
      </trkpt>
      <trkpt lat="46.4266660" lon="6.0034730">
        <ele>1262.4</ele>
        <time>2022-07-24T08:47:15Z</time>
      </trkpt>
      <trkpt lat="46.4266490" lon="6.0035250">
        <ele>1262.4</ele>
        <time>2022-07-24T08:47:16Z</time>
      </trkpt>
      <trkpt lat="46.4265730" lon="6.0036660">
        <ele>1261.4</ele>
        <time>2022-07-24T08:47:19Z</time>
      </trkpt>
      <trkpt lat="46.4265490" lon="6.0037220">
        <ele>1260.8</ele>
        <time>2022-07-24T08:47:20Z</time>
      </trkpt>
      <trkpt lat="46.4265280" lon="6.0037970">
        <ele>1259.2</ele>
        <time>2022-07-24T08:47:22Z</time>
      </trkpt>
      <trkpt lat="46.4264910" lon="6.0038670">
        <ele>1258.4</ele>
        <time>2022-07-24T08:47:24Z</time>
      </trkpt>
      <trkpt lat="46.4264940" lon="6.0040080">
        <ele>1258.0</ele>
        <time>2022-07-24T08:47:26Z</time>
      </trkpt>
      <trkpt lat="46.4264930" lon="6.0041780">
        <ele>1257.6</ele>
        <time>2022-07-24T08:47:28Z</time>
      </trkpt>
      <trkpt lat="46.4264880" lon="6.0043280">
        <ele>1256.6</ele>
        <time>2022-07-24T08:47:30Z</time>
      </trkpt>
      <trkpt lat="46.4264840" lon="6.0044270">
        <ele>1255.6</ele>
        <time>2022-07-24T08:47:32Z</time>
      </trkpt>
      <trkpt lat="46.4264760" lon="6.0044630">
        <ele>1255.2</ele>
        <time>2022-07-24T08:47:33Z</time>
      </trkpt>
      <trkpt lat="46.4264570" lon="6.0045750">
        <ele>1254.8</ele>
        <time>2022-07-24T08:47:37Z</time>
      </trkpt>
      <trkpt lat="46.4264320" lon="6.0047100">
        <ele>1254.8</ele>
        <time>2022-07-24T08:47:41Z</time>
      </trkpt>
      <trkpt lat="46.4264290" lon="6.0047330">
        <ele>1254.8</ele>
        <time>2022-07-24T08:47:42Z</time>
      </trkpt>
      <trkpt lat="46.4264020" lon="6.0049430">
        <ele>1256.0</ele>
        <time>2022-07-24T08:47:49Z</time>
      </trkpt>
      <trkpt lat="46.4263740" lon="6.0049720">
        <ele>1256.2</ele>
        <time>2022-07-24T08:47:51Z</time>
      </trkpt>
      <trkpt lat="46.4263350" lon="6.0050520">
        <ele>1256.6</ele>
        <time>2022-07-24T08:47:55Z</time>
      </trkpt>
      <trkpt lat="46.4262950" lon="6.0051270">
        <ele>1257.4</ele>
        <time>2022-07-24T08:48:00Z</time>
      </trkpt>
      <trkpt lat="46.4262820" lon="6.0051730">
        <ele>1257.8</ele>
        <time>2022-07-24T08:48:03Z</time>
      </trkpt>
      <trkpt lat="46.4262700" lon="6.0052290">
        <ele>1258.4</ele>
        <time>2022-07-24T08:48:06Z</time>
      </trkpt>
      <trkpt lat="46.4262390" lon="6.0053310">
        <ele>1259.2</ele>
        <time>2022-07-24T08:48:09Z</time>
      </trkpt>
      <trkpt lat="46.4261620" lon="6.0055720">
        <ele>1259.4</ele>
        <time>2022-07-24T08:48:13Z</time>
      </trkpt>
      <trkpt lat="46.4260260" lon="6.0060120">
        <ele>1259.4</ele>
        <time>2022-07-24T08:48:19Z</time>
      </trkpt>
      <trkpt lat="46.4259470" lon="6.0062740">
        <ele>1257.8</ele>
        <time>2022-07-24T08:48:24Z</time>
      </trkpt>
      <trkpt lat="46.4258540" lon="6.0065110">
        <ele>1257.6</ele>
        <time>2022-07-24T08:48:30Z</time>
      </trkpt>
      <trkpt lat="46.4258020" lon="6.0066360">
        <ele>1257.8</ele>
        <time>2022-07-24T08:48:36Z</time>
      </trkpt>
      <trkpt lat="46.4257700" lon="6.0066930">
        <ele>1257.8</ele>
        <time>2022-07-24T08:48:40Z</time>
      </trkpt>
      <trkpt lat="46.4257650" lon="6.0067050">
        <ele>1257.8</ele>
        <time>2022-07-24T08:48:44Z</time>
      </trkpt>
      <trkpt lat="46.4257710" lon="6.0068490">
        <ele>1258.0</ele>
        <time>2022-07-24T08:51:05Z</time>
      </trkpt>
      <trkpt lat="46.4257600" lon="6.0069080">
        <ele>1257.8</ele>
        <time>2022-07-24T08:51:07Z</time>
      </trkpt>
      <trkpt lat="46.4257050" lon="6.0071080">
        <ele>1257.8</ele>
        <time>2022-07-24T08:51:11Z</time>
      </trkpt>
      <trkpt lat="46.4255700" lon="6.0072380">
        <ele>1257.6</ele>
        <time>2022-07-24T08:51:15Z</time>
      </trkpt>
      <trkpt lat="46.4254330" lon="6.0071890">
        <ele>1257.2</ele>
        <time>2022-07-24T08:51:18Z</time>
      </trkpt>
      <trkpt lat="46.4253870" lon="6.0071370">
        <ele>1256.8</ele>
        <time>2022-07-24T08:51:19Z</time>
      </trkpt>
      <trkpt lat="46.4252910" lon="6.0070100">
        <ele>1256.4</ele>
        <time>2022-07-24T08:51:21Z</time>
      </trkpt>
      <trkpt lat="46.4252410" lon="6.0069410">
        <ele>1256.2</ele>
        <time>2022-07-24T08:51:22Z</time>
      </trkpt>
      <trkpt lat="46.4251510" lon="6.0067980">
        <ele>1255.6</ele>
        <time>2022-07-24T08:51:24Z</time>
      </trkpt>
      <trkpt lat="46.4250280" lon="6.0066300">
        <ele>1254.4</ele>
        <time>2022-07-24T08:51:27Z</time>
      </trkpt>
      <trkpt lat="46.4249640" lon="6.0065490">
        <ele>1253.2</ele>
        <time>2022-07-24T08:51:29Z</time>
      </trkpt>
      <trkpt lat="46.4249210" lon="6.0065090">
        <ele>1252.8</ele>
        <time>2022-07-24T08:51:30Z</time>
      </trkpt>
      <trkpt lat="46.4248690" lon="6.0064660">
        <ele>1252.2</ele>
        <time>2022-07-24T08:51:31Z</time>
      </trkpt>
      <trkpt lat="46.4247520" lon="6.0063660">
        <ele>1250.8</ele>
        <time>2022-07-24T08:51:33Z</time>
      </trkpt>
      <trkpt lat="46.4246210" lon="6.0062320">
        <ele>1249.4</ele>
        <time>2022-07-24T08:51:35Z</time>
      </trkpt>
      <trkpt lat="46.4244760" lon="6.0060940">
        <ele>1248.2</ele>
        <time>2022-07-24T08:51:37Z</time>
      </trkpt>
      <trkpt lat="46.4243290" lon="6.0059590">
        <ele>1247.0</ele>
        <time>2022-07-24T08:51:39Z</time>
      </trkpt>
      <trkpt lat="46.4241850" lon="6.0058230">
        <ele>1245.4</ele>
        <time>2022-07-24T08:51:41Z</time>
      </trkpt>
      <trkpt lat="46.4240650" lon="6.0056940">
        <ele>1244.0</ele>
        <time>2022-07-24T08:51:43Z</time>
      </trkpt>
      <trkpt lat="46.4239280" lon="6.0055670">
        <ele>1242.4</ele>
        <time>2022-07-24T08:51:45Z</time>
      </trkpt>
      <trkpt lat="46.4237720" lon="6.0054330">
        <ele>1240.8</ele>
        <time>2022-07-24T08:51:47Z</time>
      </trkpt>
      <trkpt lat="46.4236160" lon="6.0053100">
        <ele>1239.2</ele>
        <time>2022-07-24T08:51:49Z</time>
      </trkpt>
      <trkpt lat="46.4234720" lon="6.0051720">
        <ele>1237.6</ele>
        <time>2022-07-24T08:51:51Z</time>
      </trkpt>
      <trkpt lat="46.4233400" lon="6.0050270">
        <ele>1236.0</ele>
        <time>2022-07-24T08:51:53Z</time>
      </trkpt>
      <trkpt lat="46.4232790" lon="6.0049540">
        <ele>1235.4</ele>
        <time>2022-07-24T08:51:54Z</time>
      </trkpt>
      <trkpt lat="46.4232200" lon="6.0048780">
        <ele>1234.4</ele>
        <time>2022-07-24T08:51:55Z</time>
      </trkpt>
      <trkpt lat="46.4231090" lon="6.0047540">
        <ele>1233.2</ele>
        <time>2022-07-24T08:51:57Z</time>
      </trkpt>
      <trkpt lat="46.4230540" lon="6.0047180">
        <ele>1232.4</ele>
        <time>2022-07-24T08:51:58Z</time>
      </trkpt>
      <trkpt lat="46.4229960" lon="6.0047000">
        <ele>1231.8</ele>
        <time>2022-07-24T08:51:59Z</time>
      </trkpt>
      <trkpt lat="46.4228910" lon="6.0047270">
        <ele>1230.2</ele>
        <time>2022-07-24T08:52:01Z</time>
      </trkpt>
      <trkpt lat="46.4227900" lon="6.0048390">
        <ele>1228.8</ele>
        <time>2022-07-24T08:52:03Z</time>
      </trkpt>
      <trkpt lat="46.4227610" lon="6.0049150">
        <ele>1228.0</ele>
        <time>2022-07-24T08:52:04Z</time>
      </trkpt>
      <trkpt lat="46.4227480" lon="6.0049970">
        <ele>1227.2</ele>
        <time>2022-07-24T08:52:05Z</time>
      </trkpt>
      <trkpt lat="46.4227410" lon="6.0051620">
        <ele>1226.0</ele>
        <time>2022-07-24T08:52:07Z</time>
      </trkpt>
      <trkpt lat="46.4227940" lon="6.0053630">
        <ele>1224.6</ele>
        <time>2022-07-24T08:52:10Z</time>
      </trkpt>
      <trkpt lat="46.4228160" lon="6.0054160">
        <ele>1224.2</ele>
        <time>2022-07-24T08:52:11Z</time>
      </trkpt>
      <trkpt lat="46.4228390" lon="6.0054660">
        <ele>1223.4</ele>
        <time>2022-07-24T08:52:12Z</time>
      </trkpt>
      <trkpt lat="46.4228790" lon="6.0055710">
        <ele>1222.4</ele>
        <time>2022-07-24T08:52:14Z</time>
      </trkpt>
      <trkpt lat="46.4228980" lon="6.0056210">
        <ele>1222.0</ele>
        <time>2022-07-24T08:52:15Z</time>
      </trkpt>
      <trkpt lat="46.4229470" lon="6.0057130">
        <ele>1221.4</ele>
        <time>2022-07-24T08:52:17Z</time>
      </trkpt>
      <trkpt lat="46.4229740" lon="6.0057540">
        <ele>1221.2</ele>
        <time>2022-07-24T08:52:18Z</time>
      </trkpt>
      <trkpt lat="46.4231340" lon="6.0059680">
        <ele>1221.0</ele>
        <time>2022-07-24T08:52:23Z</time>
      </trkpt>
      <trkpt lat="46.4232390" lon="6.0061540">
        <ele>1220.8</ele>
        <time>2022-07-24T08:52:26Z</time>
      </trkpt>
      <trkpt lat="46.4232950" lon="6.0063400">
        <ele>1220.6</ele>
        <time>2022-07-24T08:52:28Z</time>
      </trkpt>
      <trkpt lat="46.4233220" lon="6.0068040">
        <ele>1220.2</ele>
        <time>2022-07-24T08:52:32Z</time>
      </trkpt>
      <trkpt lat="46.4233550" lon="6.0070520">
        <ele>1220.0</ele>
        <time>2022-07-24T08:52:34Z</time>
      </trkpt>
      <trkpt lat="46.4234160" lon="6.0073820">
        <ele>1219.0</ele>
        <time>2022-07-24T08:52:37Z</time>
      </trkpt>
      <trkpt lat="46.4234280" lon="6.0074950">
        <ele>1218.8</ele>
        <time>2022-07-24T08:52:38Z</time>
      </trkpt>
      <trkpt lat="46.4234240" lon="6.0076040">
        <ele>1218.2</ele>
        <time>2022-07-24T08:52:39Z</time>
      </trkpt>
      <trkpt lat="46.4233880" lon="6.0077980">
        <ele>1216.4</ele>
        <time>2022-07-24T08:52:41Z</time>
      </trkpt>
      <trkpt lat="46.4233550" lon="6.0079850">
        <ele>1214.6</ele>
        <time>2022-07-24T08:52:43Z</time>
      </trkpt>
      <trkpt lat="46.4233100" lon="6.0081680">
        <ele>1212.8</ele>
        <time>2022-07-24T08:52:45Z</time>
      </trkpt>
      <trkpt lat="46.4232810" lon="6.0082520">
        <ele>1212.0</ele>
        <time>2022-07-24T08:52:46Z</time>
      </trkpt>
      <trkpt lat="46.4232490" lon="6.0083220">
        <ele>1211.2</ele>
        <time>2022-07-24T08:52:47Z</time>
      </trkpt>
      <trkpt lat="46.4231650" lon="6.0084270">
        <ele>1209.8</ele>
        <time>2022-07-24T08:52:49Z</time>
      </trkpt>
      <trkpt lat="46.4231230" lon="6.0084630">
        <ele>1209.2</ele>
        <time>2022-07-24T08:52:50Z</time>
      </trkpt>
      <trkpt lat="46.4230860" lon="6.0084960">
        <ele>1208.8</ele>
        <time>2022-07-24T08:52:51Z</time>
      </trkpt>
      <trkpt lat="46.4230540" lon="6.0085270">
        <ele>1208.4</ele>
        <time>2022-07-24T08:52:52Z</time>
      </trkpt>
      <trkpt lat="46.4230320" lon="6.0085580">
        <ele>1207.8</ele>
        <time>2022-07-24T08:52:53Z</time>
      </trkpt>
      <trkpt lat="46.4230150" lon="6.0085880">
        <ele>1207.2</ele>
        <time>2022-07-24T08:52:54Z</time>
      </trkpt>
      <trkpt lat="46.4229990" lon="6.0086190">
        <ele>1206.6</ele>
        <time>2022-07-24T08:52:55Z</time>
      </trkpt>
      <trkpt lat="46.4229600" lon="6.0086890">
        <ele>1205.6</ele>
        <time>2022-07-24T08:52:57Z</time>
      </trkpt>
      <trkpt lat="46.4229050" lon="6.0088110">
        <ele>1204.8</ele>
        <time>2022-07-24T08:53:00Z</time>
      </trkpt>
      <trkpt lat="46.4228740" lon="6.0088970">
        <ele>1204.4</ele>
        <time>2022-07-24T08:53:02Z</time>
      </trkpt>
      <trkpt lat="46.4227660" lon="6.0091410">
        <ele>1203.6</ele>
        <time>2022-07-24T08:53:07Z</time>
      </trkpt>
      <trkpt lat="46.4227080" lon="6.0093100">
        <ele>1203.4</ele>
        <time>2022-07-24T08:53:10Z</time>
      </trkpt>
      <trkpt lat="46.4226830" lon="6.0094830">
        <ele>1203.4</ele>
        <time>2022-07-24T08:53:13Z</time>
      </trkpt>
      <trkpt lat="46.4226850" lon="6.0098050">
        <ele>1203.6</ele>
        <time>2022-07-24T08:53:19Z</time>
      </trkpt>
      <trkpt lat="46.4227550" lon="6.0101360">
        <ele>1203.8</ele>
        <time>2022-07-24T08:53:26Z</time>
      </trkpt>
      <trkpt lat="46.4228070" lon="6.0102980">
        <ele>1204.2</ele>
        <time>2022-07-24T08:53:29Z</time>
      </trkpt>
      <trkpt lat="46.4228810" lon="6.0104780">
        <ele>1204.2</ele>
        <time>2022-07-24T08:53:32Z</time>
      </trkpt>
      <trkpt lat="46.4230250" lon="6.0109060">
        <ele>1204.2</ele>
        <time>2022-07-24T08:53:38Z</time>
      </trkpt>
      <trkpt lat="46.4230330" lon="6.0109930">
        <ele>1203.8</ele>
        <time>2022-07-24T08:53:39Z</time>
      </trkpt>
      <trkpt lat="46.4230120" lon="6.0111700">
        <ele>1203.4</ele>
        <time>2022-07-24T08:53:41Z</time>
      </trkpt>
      <trkpt lat="46.4229900" lon="6.0112560">
        <ele>1203.2</ele>
        <time>2022-07-24T08:53:42Z</time>
      </trkpt>
      <trkpt lat="46.4229610" lon="6.0113380">
        <ele>1203.0</ele>
        <time>2022-07-24T08:53:43Z</time>
      </trkpt>
      <trkpt lat="46.4228480" lon="6.0115290">
        <ele>1202.6</ele>
        <time>2022-07-24T08:53:46Z</time>
      </trkpt>
      <trkpt lat="46.4227610" lon="6.0116230">
        <ele>1202.2</ele>
        <time>2022-07-24T08:53:48Z</time>
      </trkpt>
      <trkpt lat="46.4226620" lon="6.0116720">
        <ele>1201.4</ele>
        <time>2022-07-24T08:53:50Z</time>
      </trkpt>
      <trkpt lat="46.4224580" lon="6.0116450">
        <ele>1200.6</ele>
        <time>2022-07-24T08:53:54Z</time>
      </trkpt>
      <trkpt lat="46.4224110" lon="6.0116250">
        <ele>1200.6</ele>
        <time>2022-07-24T08:53:55Z</time>
      </trkpt>
      <trkpt lat="46.4221450" lon="6.0114620">
        <ele>1200.4</ele>
        <time>2022-07-24T08:54:01Z</time>
      </trkpt>
      <trkpt lat="46.4220630" lon="6.0114080">
        <ele>1200.4</ele>
        <time>2022-07-24T08:54:03Z</time>
      </trkpt>
      <trkpt lat="46.4219740" lon="6.0113530">
        <ele>1200.4</ele>
        <time>2022-07-24T08:54:05Z</time>
      </trkpt>
      <trkpt lat="46.4218410" lon="6.0112550">
        <ele>1200.6</ele>
        <time>2022-07-24T08:54:08Z</time>
      </trkpt>
      <trkpt lat="46.4216000" lon="6.0110730">
        <ele>1200.4</ele>
        <time>2022-07-24T08:54:14Z</time>
      </trkpt>
      <trkpt lat="46.4213330" lon="6.0108570">
        <ele>1200.6</ele>
        <time>2022-07-24T08:54:21Z</time>
      </trkpt>
      <trkpt lat="46.4210430" lon="6.0105950">
        <ele>1201.0</ele>
        <time>2022-07-24T08:54:29Z</time>
      </trkpt>
      <trkpt lat="46.4209240" lon="6.0104770">
        <ele>1201.0</ele>
        <time>2022-07-24T08:54:34Z</time>
      </trkpt>
      <trkpt lat="46.4209010" lon="6.0104450">
        <ele>1201.0</ele>
        <time>2022-07-24T08:54:38Z</time>
      </trkpt>
      <trkpt lat="46.4208910" lon="6.0104260">
        <ele>1201.0</ele>
        <time>2022-07-24T08:54:39Z</time>
      </trkpt>
      <trkpt lat="46.4208350" lon="6.0103520">
        <ele>1201.0</ele>
        <time>2022-07-24T08:54:42Z</time>
      </trkpt>
      <trkpt lat="46.4207420" lon="6.0102730">
        <ele>1201.0</ele>
        <time>2022-07-24T08:54:45Z</time>
      </trkpt>
      <trkpt lat="46.4206590" lon="6.0101780">
        <ele>1200.8</ele>
        <time>2022-07-24T08:54:48Z</time>
      </trkpt>
      <trkpt lat="46.4204270" lon="6.0099740">
        <ele>1200.8</ele>
        <time>2022-07-24T08:54:55Z</time>
      </trkpt>
      <trkpt lat="46.4201290" lon="6.0096720">
        <ele>1200.8</ele>
        <time>2022-07-24T08:55:03Z</time>
      </trkpt>
      <trkpt lat="46.4198680" lon="6.0092620">
        <ele>1200.4</ele>
        <time>2022-07-24T08:55:10Z</time>
      </trkpt>
      <trkpt lat="46.4196360" lon="6.0088510">
        <ele>1199.6</ele>
        <time>2022-07-24T08:55:16Z</time>
      </trkpt>
      <trkpt lat="46.4195220" lon="6.0086350">
        <ele>1199.4</ele>
        <time>2022-07-24T08:55:19Z</time>
      </trkpt>
      <trkpt lat="46.4193880" lon="6.0083320">
        <ele>1198.6</ele>
        <time>2022-07-24T08:55:23Z</time>
      </trkpt>
      <trkpt lat="46.4193380" lon="6.0081660">
        <ele>1198.0</ele>
        <time>2022-07-24T08:55:25Z</time>
      </trkpt>
      <trkpt lat="46.4192780" lon="6.0079190">
        <ele>1197.4</ele>
        <time>2022-07-24T08:55:28Z</time>
      </trkpt>
      <trkpt lat="46.4192130" lon="6.0075130">
        <ele>1196.2</ele>
        <time>2022-07-24T08:55:33Z</time>
      </trkpt>
      <trkpt lat="46.4191340" lon="6.0071090">
        <ele>1195.2</ele>
        <time>2022-07-24T08:55:38Z</time>
      </trkpt>
      <trkpt lat="46.4190490" lon="6.0067770">
        <ele>1194.6</ele>
        <time>2022-07-24T08:55:42Z</time>
      </trkpt>
      <trkpt lat="46.4189880" lon="6.0065200">
        <ele>1194.0</ele>
        <time>2022-07-24T08:55:45Z</time>
      </trkpt>
      <trkpt lat="46.4189340" lon="6.0063570">
        <ele>1193.6</ele>
        <time>2022-07-24T08:55:47Z</time>
      </trkpt>
      <trkpt lat="46.4189010" lon="6.0062760">
        <ele>1193.6</ele>
        <time>2022-07-24T08:55:48Z</time>
      </trkpt>
      <trkpt lat="46.4187990" lon="6.0060250">
        <ele>1193.0</ele>
        <time>2022-07-24T08:55:51Z</time>
      </trkpt>
      <trkpt lat="46.4186290" lon="6.0057000">
        <ele>1192.0</ele>
        <time>2022-07-24T08:55:55Z</time>
      </trkpt>
      <trkpt lat="46.4185830" lon="6.0056170">
        <ele>1191.8</ele>
        <time>2022-07-24T08:55:56Z</time>
      </trkpt>
      <trkpt lat="46.4183830" lon="6.0053200">
        <ele>1190.8</ele>
        <time>2022-07-24T08:56:00Z</time>
      </trkpt>
      <trkpt lat="46.4183310" lon="6.0052460">
        <ele>1190.4</ele>
        <time>2022-07-24T08:56:01Z</time>
      </trkpt>
      <trkpt lat="46.4181860" lon="6.0050110">
        <ele>1189.6</ele>
        <time>2022-07-24T08:56:04Z</time>
      </trkpt>
      <trkpt lat="46.4181030" lon="6.0048440">
        <ele>1189.0</ele>
        <time>2022-07-24T08:56:06Z</time>
      </trkpt>
      <trkpt lat="46.4180650" lon="6.0047610">
        <ele>1188.8</ele>
        <time>2022-07-24T08:56:07Z</time>
      </trkpt>
      <trkpt lat="46.4179010" lon="6.0043480">
        <ele>1187.6</ele>
        <time>2022-07-24T08:56:12Z</time>
      </trkpt>
      <trkpt lat="46.4178000" lon="6.0040120">
        <ele>1186.6</ele>
        <time>2022-07-24T08:56:16Z</time>
      </trkpt>
      <trkpt lat="46.4177530" lon="6.0038520">
        <ele>1186.4</ele>
        <time>2022-07-24T08:56:18Z</time>
      </trkpt>
      <trkpt lat="46.4175790" lon="6.0032930">
        <ele>1185.6</ele>
        <time>2022-07-24T08:56:25Z</time>
      </trkpt>
      <trkpt lat="46.4175600" lon="6.0032170">
        <ele>1185.6</ele>
        <time>2022-07-24T08:56:26Z</time>
      </trkpt>
      <trkpt lat="46.4175080" lon="6.0028330">
        <ele>1185.2</ele>
        <time>2022-07-24T08:56:31Z</time>
      </trkpt>
      <trkpt lat="46.4175090" lon="6.0027600">
        <ele>1185.2</ele>
        <time>2022-07-24T08:56:32Z</time>
      </trkpt>
      <trkpt lat="46.4175510" lon="6.0024060">
        <ele>1184.8</ele>
        <time>2022-07-24T08:56:38Z</time>
      </trkpt>
      <trkpt lat="46.4175790" lon="6.0022660">
        <ele>1184.8</ele>
        <time>2022-07-24T08:56:41Z</time>
      </trkpt>
      <trkpt lat="46.4176140" lon="6.0021160">
        <ele>1184.8</ele>
        <time>2022-07-24T08:56:45Z</time>
      </trkpt>
      <trkpt lat="46.4176960" lon="6.0018490">
        <ele>1185.4</ele>
        <time>2022-07-24T08:56:54Z</time>
      </trkpt>
      <trkpt lat="46.4177310" lon="6.0016370">
        <ele>1186.2</ele>
        <time>2022-07-24T08:57:00Z</time>
      </trkpt>
      <trkpt lat="46.4177400" lon="6.0015760">
        <ele>1186.4</ele>
        <time>2022-07-24T08:57:02Z</time>
      </trkpt>
      <trkpt lat="46.4177250" lon="6.0014060">
        <ele>1187.0</ele>
        <time>2022-07-24T08:57:08Z</time>
      </trkpt>
      <trkpt lat="46.4177120" lon="6.0013880">
        <ele>1187.2</ele>
        <time>2022-07-24T08:57:09Z</time>
      </trkpt>
      <trkpt lat="46.4175930" lon="6.0012500">
        <ele>1188.2</ele>
        <time>2022-07-24T08:57:17Z</time>
      </trkpt>
      <trkpt lat="46.4174730" lon="6.0010980">
        <ele>1188.4</ele>
        <time>2022-07-24T08:57:22Z</time>
      </trkpt>
      <trkpt lat="46.4171680" lon="6.0008170">
        <ele>1188.4</ele>
        <time>2022-07-24T08:57:30Z</time>
      </trkpt>
      <trkpt lat="46.4169200" lon="6.0005760">
        <ele>1187.8</ele>
        <time>2022-07-24T08:57:37Z</time>
      </trkpt>
      <trkpt lat="46.4167890" lon="6.0004340">
        <ele>1187.4</ele>
        <time>2022-07-24T08:57:43Z</time>
      </trkpt>
      <trkpt lat="46.4167910" lon="6.0004300">
        <ele>1187.2</ele>
        <time>2022-07-24T08:57:45Z</time>
      </trkpt>
      <trkpt lat="46.4168480" lon="6.0003860">
        <ele>1186.8</ele>
        <time>2022-07-24T08:57:54Z</time>
      </trkpt>
      <trkpt lat="46.4168520" lon="6.0003580">
        <ele>1186.8</ele>
        <time>2022-07-24T08:57:55Z</time>
      </trkpt>
      <trkpt lat="46.4168090" lon="6.0002260">
        <ele>1186.8</ele>
        <time>2022-07-24T08:57:59Z</time>
      </trkpt>
      <trkpt lat="46.4167040" lon="6.0001530">
        <ele>1187.2</ele>
        <time>2022-07-24T08:58:03Z</time>
      </trkpt>
      <trkpt lat="46.4166780" lon="6.0001390">
        <ele>1187.2</ele>
        <time>2022-07-24T08:58:04Z</time>
      </trkpt>
      <trkpt lat="46.4164970" lon="5.9999690">
        <ele>1188.0</ele>
        <time>2022-07-24T08:58:12Z</time>
      </trkpt>
      <trkpt lat="46.4164060" lon="5.9998560">
        <ele>1188.6</ele>
        <time>2022-07-24T08:58:16Z</time>
      </trkpt>
      <trkpt lat="46.4162910" lon="5.9996980">
        <ele>1189.4</ele>
        <time>2022-07-24T08:58:21Z</time>
      </trkpt>
      <trkpt lat="46.4162200" lon="5.9995520">
        <ele>1189.8</ele>
        <time>2022-07-24T08:58:26Z</time>
      </trkpt>
      <trkpt lat="46.4161980" lon="5.9994950">
        <ele>1189.8</ele>
        <time>2022-07-24T08:58:28Z</time>
      </trkpt>
      <trkpt lat="46.4161210" lon="5.9993190">
        <ele>1190.8</ele>
        <time>2022-07-24T08:58:34Z</time>
      </trkpt>
      <trkpt lat="46.4160960" lon="5.9992640">
        <ele>1191.2</ele>
        <time>2022-07-24T08:58:36Z</time>
      </trkpt>
      <trkpt lat="46.4160340" lon="5.9990820">
        <ele>1192.2</ele>
        <time>2022-07-24T08:58:43Z</time>
      </trkpt>
      <trkpt lat="46.4160240" lon="5.9990550">
        <ele>1192.4</ele>
        <time>2022-07-24T08:58:44Z</time>
      </trkpt>
      <trkpt lat="46.4159840" lon="5.9989500">
        <ele>1193.2</ele>
        <time>2022-07-24T08:58:48Z</time>
      </trkpt>
      <trkpt lat="46.4159380" lon="5.9988180">
        <ele>1193.8</ele>
        <time>2022-07-24T08:58:53Z</time>
      </trkpt>
      <trkpt lat="46.4159020" lon="5.9987390">
        <ele>1194.2</ele>
        <time>2022-07-24T08:58:56Z</time>
      </trkpt>
      <trkpt lat="46.4158910" lon="5.9987120">
        <ele>1194.4</ele>
        <time>2022-07-24T08:58:57Z</time>
      </trkpt>
      <trkpt lat="46.4158250" lon="5.9985640">
        <ele>1195.2</ele>
        <time>2022-07-24T08:59:02Z</time>
      </trkpt>
      <trkpt lat="46.4156130" lon="5.9982270">
        <ele>1196.0</ele>
        <time>2022-07-24T08:59:13Z</time>
      </trkpt>
      <trkpt lat="46.4154200" lon="5.9980540">
        <ele>1196.4</ele>
        <time>2022-07-24T08:59:21Z</time>
      </trkpt>
      <trkpt lat="46.4153970" lon="5.9980340">
        <ele>1196.4</ele>
        <time>2022-07-24T08:59:22Z</time>
      </trkpt>
      <trkpt lat="46.4152380" lon="5.9978650">
        <ele>1197.0</ele>
        <time>2022-07-24T08:59:29Z</time>
      </trkpt>
      <trkpt lat="46.4150930" lon="5.9976370">
        <ele>1197.6</ele>
        <time>2022-07-24T08:59:35Z</time>
      </trkpt>
      <trkpt lat="46.4150410" lon="5.9975570">
        <ele>1197.6</ele>
        <time>2022-07-24T08:59:37Z</time>
      </trkpt>
      <trkpt lat="46.4149090" lon="5.9973720">
        <ele>1197.6</ele>
        <time>2022-07-24T08:59:41Z</time>
      </trkpt>
      <trkpt lat="46.4145690" lon="5.9969280">
        <ele>1196.8</ele>
        <time>2022-07-24T08:59:49Z</time>
      </trkpt>
      <trkpt lat="46.4142520" lon="5.9965050">
        <ele>1195.6</ele>
        <time>2022-07-24T08:59:56Z</time>
      </trkpt>
      <trkpt lat="46.4140900" lon="5.9962800">
        <ele>1194.8</ele>
        <time>2022-07-24T09:00:00Z</time>
      </trkpt>
      <trkpt lat="46.4140530" lon="5.9962260">
        <ele>1194.8</ele>
        <time>2022-07-24T09:00:01Z</time>
      </trkpt>
      <trkpt lat="46.4138440" lon="5.9959470">
        <ele>1194.2</ele>
        <time>2022-07-24T09:00:07Z</time>
      </trkpt>
      <trkpt lat="46.4136410" lon="5.9956680">
        <ele>1194.2</ele>
        <time>2022-07-24T09:00:14Z</time>
      </trkpt>
      <trkpt lat="46.4135090" lon="5.9953990">
        <ele>1194.8</ele>
        <time>2022-07-24T09:00:20Z</time>
      </trkpt>
      <trkpt lat="46.4133550" lon="5.9950460">
        <ele>1194.8</ele>
        <time>2022-07-24T09:00:27Z</time>
      </trkpt>
      <trkpt lat="46.4130790" lon="5.9946020">
        <ele>1194.8</ele>
        <time>2022-07-24T09:00:36Z</time>
      </trkpt>
      <trkpt lat="46.4128640" lon="5.9942580">
        <ele>1194.2</ele>
        <time>2022-07-24T09:00:42Z</time>
      </trkpt>
      <trkpt lat="46.4128210" lon="5.9942070">
        <ele>1194.2</ele>
        <time>2022-07-24T09:00:43Z</time>
      </trkpt>
      <trkpt lat="46.4127300" lon="5.9941270">
        <ele>1193.8</ele>
        <time>2022-07-24T09:00:45Z</time>
      </trkpt>
      <trkpt lat="46.4126850" lon="5.9940950">
        <ele>1193.8</ele>
        <time>2022-07-24T09:00:46Z</time>
      </trkpt>
      <trkpt lat="46.4126010" lon="5.9940330">
        <ele>1193.4</ele>
        <time>2022-07-24T09:00:48Z</time>
      </trkpt>
      <trkpt lat="46.4123420" lon="5.9938540">
        <ele>1193.0</ele>
        <time>2022-07-24T09:00:55Z</time>
      </trkpt>
      <trkpt lat="46.4123020" lon="5.9938200">
        <ele>1193.0</ele>
        <time>2022-07-24T09:00:56Z</time>
      </trkpt>
      <trkpt lat="46.4120730" lon="5.9936320">
        <ele>1192.8</ele>
        <time>2022-07-24T09:01:01Z</time>
      </trkpt>
      <trkpt lat="46.4116870" lon="5.9934030">
        <ele>1192.0</ele>
        <time>2022-07-24T09:01:08Z</time>
      </trkpt>
      <trkpt lat="46.4115820" lon="5.9933120">
        <ele>1191.2</ele>
        <time>2022-07-24T09:01:10Z</time>
      </trkpt>
      <trkpt lat="46.4115370" lon="5.9932490">
        <ele>1190.8</ele>
        <time>2022-07-24T09:01:11Z</time>
      </trkpt>
      <trkpt lat="46.4115030" lon="5.9931640">
        <ele>1190.2</ele>
        <time>2022-07-24T09:01:12Z</time>
      </trkpt>
      <trkpt lat="46.4114870" lon="5.9930620">
        <ele>1189.6</ele>
        <time>2022-07-24T09:01:13Z</time>
      </trkpt>
      <trkpt lat="46.4114970" lon="5.9928490">
        <ele>1188.2</ele>
        <time>2022-07-24T09:01:15Z</time>
      </trkpt>
      <trkpt lat="46.4115160" lon="5.9926400">
        <ele>1186.6</ele>
        <time>2022-07-24T09:01:17Z</time>
      </trkpt>
      <trkpt lat="46.4115160" lon="5.9924290">
        <ele>1185.2</ele>
        <time>2022-07-24T09:01:19Z</time>
      </trkpt>
      <trkpt lat="46.4114980" lon="5.9923280">
        <ele>1184.4</ele>
        <time>2022-07-24T09:01:20Z</time>
      </trkpt>
      <trkpt lat="46.4114680" lon="5.9922340">
        <ele>1183.8</ele>
        <time>2022-07-24T09:01:21Z</time>
      </trkpt>
      <trkpt lat="46.4113740" lon="5.9920680">
        <ele>1183.0</ele>
        <time>2022-07-24T09:01:23Z</time>
      </trkpt>
      <trkpt lat="46.4113200" lon="5.9919930">
        <ele>1182.6</ele>
        <time>2022-07-24T09:01:24Z</time>
      </trkpt>
      <trkpt lat="46.4110300" lon="5.9916510">
        <ele>1181.4</ele>
        <time>2022-07-24T09:01:29Z</time>
      </trkpt>
      <trkpt lat="46.4108650" lon="5.9915250">
        <ele>1180.6</ele>
        <time>2022-07-24T09:01:32Z</time>
      </trkpt>
      <trkpt lat="46.4108190" lon="5.9914680">
        <ele>1180.2</ele>
        <time>2022-07-24T09:01:33Z</time>
      </trkpt>
      <trkpt lat="46.4107630" lon="5.9912140">
        <ele>1179.6</ele>
        <time>2022-07-24T09:01:36Z</time>
      </trkpt>
      <trkpt lat="46.4107600" lon="5.9911270">
        <ele>1179.2</ele>
        <time>2022-07-24T09:01:37Z</time>
      </trkpt>
      <trkpt lat="46.4107710" lon="5.9908780">
        <ele>1178.0</ele>
        <time>2022-07-24T09:01:40Z</time>
      </trkpt>
      <trkpt lat="46.4107840" lon="5.9907250">
        <ele>1177.4</ele>
        <time>2022-07-24T09:01:42Z</time>
      </trkpt>
      <trkpt lat="46.4107920" lon="5.9905810">
        <ele>1177.0</ele>
        <time>2022-07-24T09:01:44Z</time>
      </trkpt>
      <trkpt lat="46.4107920" lon="5.9903320">
        <ele>1177.0</ele>
        <time>2022-07-24T09:01:48Z</time>
      </trkpt>
      <trkpt lat="46.4107550" lon="5.9901020">
        <ele>1177.0</ele>
        <time>2022-07-24T09:01:53Z</time>
      </trkpt>
      <trkpt lat="46.4107260" lon="5.9898290">
        <ele>1178.0</ele>
        <time>2022-07-24T09:02:00Z</time>
      </trkpt>
      <trkpt lat="46.4107280" lon="5.9897620">
        <ele>1178.2</ele>
        <time>2022-07-24T09:02:03Z</time>
      </trkpt>
      <trkpt lat="46.4107340" lon="5.9896920">
        <ele>1179.0</ele>
        <time>2022-07-24T09:02:07Z</time>
      </trkpt>
      <trkpt lat="46.4107410" lon="5.9896580">
        <ele>1179.4</ele>
        <time>2022-07-24T09:02:09Z</time>
      </trkpt>
      <trkpt lat="46.4107620" lon="5.9895530">
        <ele>1180.4</ele>
        <time>2022-07-24T09:02:15Z</time>
      </trkpt>
      <trkpt lat="46.4107690" lon="5.9894600">
        <ele>1181.6</ele>
        <time>2022-07-24T09:02:21Z</time>
      </trkpt>
      <trkpt lat="46.4107640" lon="5.9894450">
        <ele>1181.8</ele>
        <time>2022-07-24T09:02:22Z</time>
      </trkpt>
      <trkpt lat="46.4107210" lon="5.9893810">
        <ele>1182.6</ele>
        <time>2022-07-24T09:02:27Z</time>
      </trkpt>
      <trkpt lat="46.4107010" lon="5.9893500">
        <ele>1183.0</ele>
        <time>2022-07-24T09:02:29Z</time>
      </trkpt>
      <trkpt lat="46.4105760" lon="5.9892490">
        <ele>1183.8</ele>
        <time>2022-07-24T09:02:39Z</time>
      </trkpt>
      <trkpt lat="46.4105460" lon="5.9892290">
        <ele>1183.8</ele>
        <time>2022-07-24T09:02:41Z</time>
      </trkpt>
      <trkpt lat="46.4104420" lon="5.9891450">
        <ele>1185.0</ele>
        <time>2022-07-24T09:02:48Z</time>
      </trkpt>
      <trkpt lat="46.4104270" lon="5.9891320">
        <ele>1185.0</ele>
        <time>2022-07-24T09:02:49Z</time>
      </trkpt>
      <trkpt lat="46.4103010" lon="5.9890060">
        <ele>1186.2</ele>
        <time>2022-07-24T09:02:59Z</time>
      </trkpt>
      <trkpt lat="46.4101920" lon="5.9888990">
        <ele>1187.4</ele>
        <time>2022-07-24T09:03:09Z</time>
      </trkpt>
      <trkpt lat="46.4101720" lon="5.9888830">
        <ele>1187.6</ele>
        <time>2022-07-24T09:03:11Z</time>
      </trkpt>
      <trkpt lat="46.4101050" lon="5.9888240">
        <ele>1188.4</ele>
        <time>2022-07-24T09:03:18Z</time>
      </trkpt>
      <trkpt lat="46.4100820" lon="5.9887890">
        <ele>1189.2</ele>
        <time>2022-07-24T09:03:21Z</time>
      </trkpt>
      <trkpt lat="46.4100630" lon="5.9887660">
        <ele>1189.8</ele>
        <time>2022-07-24T09:03:23Z</time>
      </trkpt>
      <trkpt lat="46.4100180" lon="5.9886840">
        <ele>1190.8</ele>
        <time>2022-07-24T09:03:29Z</time>
      </trkpt>
      <trkpt lat="46.4100130" lon="5.9886690">
        <ele>1191.0</ele>
        <time>2022-07-24T09:03:30Z</time>
      </trkpt>
      <trkpt lat="46.4099850" lon="5.9885840">
        <ele>1192.0</ele>
        <time>2022-07-24T09:03:35Z</time>
      </trkpt>
      <trkpt lat="46.4099650" lon="5.9885080">
        <ele>1193.0</ele>
        <time>2022-07-24T09:03:39Z</time>
      </trkpt>
      <trkpt lat="46.4099600" lon="5.9884880">
        <ele>1193.2</ele>
        <time>2022-07-24T09:03:40Z</time>
      </trkpt>
      <trkpt lat="46.4099250" lon="5.9883770">
        <ele>1194.4</ele>
        <time>2022-07-24T09:03:46Z</time>
      </trkpt>
      <trkpt lat="46.4098940" lon="5.9882880">
        <ele>1195.2</ele>
        <time>2022-07-24T09:03:51Z</time>
      </trkpt>
      <trkpt lat="46.4098700" lon="5.9882350">
        <ele>1195.6</ele>
        <time>2022-07-24T09:03:54Z</time>
      </trkpt>
      <trkpt lat="46.4098150" lon="5.9881380">
        <ele>1196.4</ele>
        <time>2022-07-24T09:04:00Z</time>
      </trkpt>
      <trkpt lat="46.4097940" lon="5.9881060">
        <ele>1196.6</ele>
        <time>2022-07-24T09:04:02Z</time>
      </trkpt>
      <trkpt lat="46.4097070" lon="5.9879820">
        <ele>1197.6</ele>
        <time>2022-07-24T09:04:10Z</time>
      </trkpt>
      <trkpt lat="46.4096980" lon="5.9879660">
        <ele>1197.8</ele>
        <time>2022-07-24T09:04:11Z</time>
      </trkpt>
      <trkpt lat="46.4096390" lon="5.9878670">
        <ele>1199.0</ele>
        <time>2022-07-24T09:04:18Z</time>
      </trkpt>
      <trkpt lat="46.4096010" lon="5.9878090">
        <ele>1199.8</ele>
        <time>2022-07-24T09:04:22Z</time>
      </trkpt>
      <trkpt lat="46.4095820" lon="5.9877840">
        <ele>1200.0</ele>
        <time>2022-07-24T09:04:24Z</time>
      </trkpt>
      <trkpt lat="46.4095360" lon="5.9877160">
        <ele>1200.6</ele>
        <time>2022-07-24T09:04:29Z</time>
      </trkpt>
      <trkpt lat="46.4094800" lon="5.9876450">
        <ele>1201.0</ele>
        <time>2022-07-24T09:04:34Z</time>
      </trkpt>
      <trkpt lat="46.4094540" lon="5.9876230">
        <ele>1201.4</ele>
        <time>2022-07-24T09:04:36Z</time>
      </trkpt>
      <trkpt lat="46.4093920" lon="5.9875650">
        <ele>1202.2</ele>
        <time>2022-07-24T09:04:41Z</time>
      </trkpt>
      <trkpt lat="46.4093700" lon="5.9875410">
        <ele>1202.4</ele>
        <time>2022-07-24T09:04:43Z</time>
      </trkpt>
      <trkpt lat="46.4092900" lon="5.9874660">
        <ele>1203.4</ele>
        <time>2022-07-24T09:04:49Z</time>
      </trkpt>
      <trkpt lat="46.4092740" lon="5.9874550">
        <ele>1203.4</ele>
        <time>2022-07-24T09:04:50Z</time>
      </trkpt>
      <trkpt lat="46.4091680" lon="5.9873840">
        <ele>1204.6</ele>
        <time>2022-07-24T09:04:57Z</time>
      </trkpt>
      <trkpt lat="46.4091500" lon="5.9873760">
        <ele>1204.8</ele>
        <time>2022-07-24T09:04:58Z</time>
      </trkpt>
      <trkpt lat="46.4090160" lon="5.9872560">
        <ele>1205.8</ele>
        <time>2022-07-24T09:05:06Z</time>
      </trkpt>
      <trkpt lat="46.4089130" lon="5.9871180">
        <ele>1206.6</ele>
        <time>2022-07-24T09:05:13Z</time>
      </trkpt>
      <trkpt lat="46.4088700" lon="5.9870720">
        <ele>1206.8</ele>
        <time>2022-07-24T09:05:16Z</time>
      </trkpt>
      <trkpt lat="46.4087700" lon="5.9869610">
        <ele>1207.6</ele>
        <time>2022-07-24T09:05:22Z</time>
      </trkpt>
      <trkpt lat="46.4087360" lon="5.9869170">
        <ele>1208.0</ele>
        <time>2022-07-24T09:05:24Z</time>
      </trkpt>
      <trkpt lat="46.4086750" lon="5.9868540">
        <ele>1208.4</ele>
        <time>2022-07-24T09:05:28Z</time>
      </trkpt>
      <trkpt lat="46.4085900" lon="5.9867610">
        <ele>1209.0</ele>
        <time>2022-07-24T09:05:33Z</time>
      </trkpt>
      <trkpt lat="46.4085530" lon="5.9867280">
        <ele>1209.2</ele>
        <time>2022-07-24T09:05:35Z</time>
      </trkpt>
      <trkpt lat="46.4083710" lon="5.9866640">
        <ele>1209.4</ele>
        <time>2022-07-24T09:05:41Z</time>
      </trkpt>
      <trkpt lat="46.4082430" lon="5.9865470">
        <ele>1209.6</ele>
        <time>2022-07-24T09:05:46Z</time>
      </trkpt>
      <trkpt lat="46.4081080" lon="5.9863800">
        <ele>1209.8</ele>
        <time>2022-07-24T09:05:53Z</time>
      </trkpt>
      <trkpt lat="46.4080640" lon="5.9863190">
        <ele>1210.0</ele>
        <time>2022-07-24T09:05:56Z</time>
      </trkpt>
      <trkpt lat="46.4080090" lon="5.9862400">
        <ele>1210.4</ele>
        <time>2022-07-24T09:05:59Z</time>
      </trkpt>
      <trkpt lat="46.4079340" lon="5.9861200">
        <ele>1211.0</ele>
        <time>2022-07-24T09:06:03Z</time>
      </trkpt>
      <trkpt lat="46.4078650" lon="5.9859990">
        <ele>1211.4</ele>
        <time>2022-07-24T09:06:07Z</time>
      </trkpt>
      <trkpt lat="46.4077870" lon="5.9858330">
        <ele>1212.0</ele>
        <time>2022-07-24T09:06:12Z</time>
      </trkpt>
      <trkpt lat="46.4077580" lon="5.9857660">
        <ele>1212.0</ele>
        <time>2022-07-24T09:06:14Z</time>
      </trkpt>
      <trkpt lat="46.4076910" lon="5.9856640">
        <ele>1212.2</ele>
        <time>2022-07-24T09:06:18Z</time>
      </trkpt>
      <trkpt lat="46.4075270" lon="5.9855390">
        <ele>1212.4</ele>
        <time>2022-07-24T09:06:24Z</time>
      </trkpt>
      <trkpt lat="46.4073770" lon="5.9852770">
        <ele>1212.4</ele>
        <time>2022-07-24T09:06:31Z</time>
      </trkpt>
      <trkpt lat="46.4072130" lon="5.9849590">
        <ele>1212.4</ele>
        <time>2022-07-24T09:06:39Z</time>
      </trkpt>
      <trkpt lat="46.4071370" lon="5.9847940">
        <ele>1212.4</ele>
        <time>2022-07-24T09:06:44Z</time>
      </trkpt>
      <trkpt lat="46.4070460" lon="5.9845890">
        <ele>1212.6</ele>
        <time>2022-07-24T09:06:50Z</time>
      </trkpt>
      <trkpt lat="46.4070190" lon="5.9845220">
        <ele>1213.0</ele>
        <time>2022-07-24T09:06:53Z</time>
      </trkpt>
      <trkpt lat="46.4069760" lon="5.9844300">
        <ele>1213.6</ele>
        <time>2022-07-24T09:06:57Z</time>
      </trkpt>
      <trkpt lat="46.4069500" lon="5.9843340">
        <ele>1214.2</ele>
        <time>2022-07-24T09:07:00Z</time>
      </trkpt>
      <trkpt lat="46.4068950" lon="5.9842290">
        <ele>1215.0</ele>
        <time>2022-07-24T09:07:04Z</time>
      </trkpt>
      <trkpt lat="46.4068660" lon="5.9841740">
        <ele>1215.2</ele>
        <time>2022-07-24T09:07:06Z</time>
      </trkpt>
      <trkpt lat="46.4067810" lon="5.9840070">
        <ele>1216.0</ele>
        <time>2022-07-24T09:07:11Z</time>
      </trkpt>
      <trkpt lat="46.4067680" lon="5.9839790">
        <ele>1216.2</ele>
        <time>2022-07-24T09:07:12Z</time>
      </trkpt>
      <trkpt lat="46.4066870" lon="5.9838290">
        <ele>1217.0</ele>
        <time>2022-07-24T09:07:17Z</time>
      </trkpt>
      <trkpt lat="46.4066250" lon="5.9836940">
        <ele>1217.4</ele>
        <time>2022-07-24T09:07:22Z</time>
      </trkpt>
      <trkpt lat="46.4065970" lon="5.9836350">
        <ele>1217.6</ele>
        <time>2022-07-24T09:07:24Z</time>
      </trkpt>
      <trkpt lat="46.4064240" lon="5.9834380">
        <ele>1217.6</ele>
        <time>2022-07-24T09:07:30Z</time>
      </trkpt>
      <trkpt lat="46.4062900" lon="5.9833110">
        <ele>1217.6</ele>
        <time>2022-07-24T09:07:33Z</time>
      </trkpt>
      <trkpt lat="46.4061970" lon="5.9832010">
        <ele>1217.4</ele>
        <time>2022-07-24T09:07:35Z</time>
      </trkpt>
      <trkpt lat="46.4059440" lon="5.9828040">
        <ele>1216.4</ele>
        <time>2022-07-24T09:07:41Z</time>
      </trkpt>
      <trkpt lat="46.4059120" lon="5.9827190">
        <ele>1216.2</ele>
        <time>2022-07-24T09:07:42Z</time>
      </trkpt>
      <trkpt lat="46.4058800" lon="5.9825660">
        <ele>1214.8</ele>
        <time>2022-07-24T09:07:44Z</time>
      </trkpt>
      <trkpt lat="46.4058780" lon="5.9824980">
        <ele>1214.6</ele>
        <time>2022-07-24T09:07:45Z</time>
      </trkpt>
      <trkpt lat="46.4058880" lon="5.9823560">
        <ele>1214.2</ele>
        <time>2022-07-24T09:07:47Z</time>
      </trkpt>
      <trkpt lat="46.4058700" lon="5.9821760">
        <ele>1214.0</ele>
        <time>2022-07-24T09:07:49Z</time>
      </trkpt>
      <trkpt lat="46.4058680" lon="5.9821140">
        <ele>1214.0</ele>
        <time>2022-07-24T09:07:50Z</time>
      </trkpt>
      <trkpt lat="46.4058490" lon="5.9820090">
        <ele>1213.8</ele>
        <time>2022-07-24T09:07:52Z</time>
      </trkpt>
      <trkpt lat="46.4058200" lon="5.9819080">
        <ele>1213.8</ele>
        <time>2022-07-24T09:07:54Z</time>
      </trkpt>
      <trkpt lat="46.4056780" lon="5.9816160">
        <ele>1213.6</ele>
        <time>2022-07-24T09:07:59Z</time>
      </trkpt>
      <trkpt lat="46.4055670" lon="5.9814690">
        <ele>1213.4</ele>
        <time>2022-07-24T09:08:02Z</time>
      </trkpt>
      <trkpt lat="46.4055210" lon="5.9814250">
        <ele>1213.0</ele>
        <time>2022-07-24T09:08:03Z</time>
      </trkpt>
      <trkpt lat="46.4054750" lon="5.9813830">
        <ele>1213.0</ele>
        <time>2022-07-24T09:08:04Z</time>
      </trkpt>
      <trkpt lat="46.4054200" lon="5.9813370">
        <ele>1212.8</ele>
        <time>2022-07-24T09:08:05Z</time>
      </trkpt>
      <trkpt lat="46.4052610" lon="5.9811890">
        <ele>1212.0</ele>
        <time>2022-07-24T09:08:08Z</time>
      </trkpt>
      <trkpt lat="46.4052110" lon="5.9811340">
        <ele>1211.8</ele>
        <time>2022-07-24T09:08:09Z</time>
      </trkpt>
      <trkpt lat="46.4051670" lon="5.9810840">
        <ele>1211.8</ele>
        <time>2022-07-24T09:08:10Z</time>
      </trkpt>
      <trkpt lat="46.4050240" lon="5.9809190">
        <ele>1210.6</ele>
        <time>2022-07-24T09:08:13Z</time>
      </trkpt>
      <trkpt lat="46.4049850" lon="5.9808680">
        <ele>1210.2</ele>
        <time>2022-07-24T09:08:14Z</time>
      </trkpt>
      <trkpt lat="46.4049510" lon="5.9808160">
        <ele>1210.0</ele>
        <time>2022-07-24T09:08:15Z</time>
      </trkpt>
      <trkpt lat="46.4048370" lon="5.9806540">
        <ele>1209.2</ele>
        <time>2022-07-24T09:08:19Z</time>
      </trkpt>
      <trkpt lat="46.4048160" lon="5.9806230">
        <ele>1209.2</ele>
        <time>2022-07-24T09:08:20Z</time>
      </trkpt>
      <trkpt lat="46.4046870" lon="5.9804150">
        <ele>1209.0</ele>
        <time>2022-07-24T09:08:26Z</time>
      </trkpt>
      <trkpt lat="46.4045930" lon="5.9802080">
        <ele>1209.2</ele>
        <time>2022-07-24T09:08:32Z</time>
      </trkpt>
      <trkpt lat="46.4045300" lon="5.9800230">
        <ele>1209.6</ele>
        <time>2022-07-24T09:08:37Z</time>
      </trkpt>
      <trkpt lat="46.4044640" lon="5.9798350">
        <ele>1210.4</ele>
        <time>2022-07-24T09:08:43Z</time>
      </trkpt>
      <trkpt lat="46.4043540" lon="5.9795610">
        <ele>1211.2</ele>
        <time>2022-07-24T09:08:50Z</time>
      </trkpt>
      <trkpt lat="46.4042320" lon="5.9793270">
        <ele>1211.2</ele>
        <time>2022-07-24T09:08:54Z</time>
      </trkpt>
      <trkpt lat="46.4040640" lon="5.9790550">
        <ele>1211.0</ele>
        <time>2022-07-24T09:08:59Z</time>
      </trkpt>
      <trkpt lat="46.4039930" lon="5.9789630">
        <ele>1210.6</ele>
        <time>2022-07-24T09:09:01Z</time>
      </trkpt>
      <trkpt lat="46.4038720" lon="5.9788480">
        <ele>1209.8</ele>
        <time>2022-07-24T09:09:04Z</time>
      </trkpt>
      <trkpt lat="46.4038300" lon="5.9788020">
        <ele>1209.8</ele>
        <time>2022-07-24T09:09:05Z</time>
      </trkpt>
      <trkpt lat="46.4037720" lon="5.9787460">
        <ele>1209.6</ele>
        <time>2022-07-24T09:09:06Z</time>
      </trkpt>
      <trkpt lat="46.4036460" lon="5.9786330">
        <ele>1209.6</ele>
        <time>2022-07-24T09:09:08Z</time>
      </trkpt>
      <trkpt lat="46.4033750" lon="5.9784540">
        <ele>1209.4</ele>
        <time>2022-07-24T09:09:12Z</time>
      </trkpt>
      <trkpt lat="46.4033030" lon="5.9784170">
        <ele>1209.2</ele>
        <time>2022-07-24T09:09:13Z</time>
      </trkpt>
      <trkpt lat="46.4031040" lon="5.9783020">
        <ele>1208.0</ele>
        <time>2022-07-24T09:09:16Z</time>
      </trkpt>
      <trkpt lat="46.4030500" lon="5.9782730">
        <ele>1207.4</ele>
        <time>2022-07-24T09:09:17Z</time>
      </trkpt>
      <trkpt lat="46.4028990" lon="5.9781630">
        <ele>1206.6</ele>
        <time>2022-07-24T09:09:20Z</time>
      </trkpt>
      <trkpt lat="46.4028080" lon="5.9780560">
        <ele>1206.4</ele>
        <time>2022-07-24T09:09:22Z</time>
      </trkpt>
      <trkpt lat="46.4026490" lon="5.9778180">
        <ele>1206.0</ele>
        <time>2022-07-24T09:09:26Z</time>
      </trkpt>
      <trkpt lat="46.4026060" lon="5.9777560">
        <ele>1206.0</ele>
        <time>2022-07-24T09:09:27Z</time>
      </trkpt>
      <trkpt lat="46.4024210" lon="5.9774620">
        <ele>1205.4</ele>
        <time>2022-07-24T09:09:31Z</time>
      </trkpt>
      <trkpt lat="46.4023720" lon="5.9773790">
        <ele>1205.2</ele>
        <time>2022-07-24T09:09:32Z</time>
      </trkpt>
      <trkpt lat="46.4021390" lon="5.9769740">
        <ele>1204.2</ele>
        <time>2022-07-24T09:09:37Z</time>
      </trkpt>
      <trkpt lat="46.4020310" lon="5.9768290">
        <ele>1202.4</ele>
        <time>2022-07-24T09:09:39Z</time>
      </trkpt>
      <trkpt lat="46.4018790" lon="5.9766310">
        <ele>1201.4</ele>
        <time>2022-07-24T09:09:42Z</time>
      </trkpt>
      <trkpt lat="46.4017240" lon="5.9763560">
        <ele>1200.2</ele>
        <time>2022-07-24T09:09:46Z</time>
      </trkpt>
      <trkpt lat="46.4016600" lon="5.9762040">
        <ele>1199.2</ele>
        <time>2022-07-24T09:09:48Z</time>
      </trkpt>
      <trkpt lat="46.4016270" lon="5.9761200">
        <ele>1198.8</ele>
        <time>2022-07-24T09:09:49Z</time>
      </trkpt>
      <trkpt lat="46.4015180" lon="5.9758380">
        <ele>1197.4</ele>
        <time>2022-07-24T09:09:52Z</time>
      </trkpt>
      <trkpt lat="46.4014730" lon="5.9757430">
        <ele>1197.2</ele>
        <time>2022-07-24T09:09:53Z</time>
      </trkpt>
      <trkpt lat="46.4013160" lon="5.9755090">
        <ele>1196.2</ele>
        <time>2022-07-24T09:09:56Z</time>
      </trkpt>
      <trkpt lat="46.4012680" lon="5.9754440">
        <ele>1195.8</ele>
        <time>2022-07-24T09:09:57Z</time>
      </trkpt>
      <trkpt lat="46.4012170" lon="5.9753810">
        <ele>1195.4</ele>
        <time>2022-07-24T09:09:58Z</time>
      </trkpt>
      <trkpt lat="46.4011660" lon="5.9753180">
        <ele>1194.8</ele>
        <time>2022-07-24T09:09:59Z</time>
      </trkpt>
      <trkpt lat="46.4009910" lon="5.9751360">
        <ele>1193.6</ele>
        <time>2022-07-24T09:10:02Z</time>
      </trkpt>
      <trkpt lat="46.4009250" lon="5.9750710">
        <ele>1193.2</ele>
        <time>2022-07-24T09:10:03Z</time>
      </trkpt>
      <trkpt lat="46.4007980" lon="5.9749320">
        <ele>1192.4</ele>
        <time>2022-07-24T09:10:05Z</time>
      </trkpt>
      <trkpt lat="46.4006020" lon="5.9747190">
        <ele>1191.2</ele>
        <time>2022-07-24T09:10:08Z</time>
      </trkpt>
      <trkpt lat="46.4004130" lon="5.9744820">
        <ele>1189.8</ele>
        <time>2022-07-24T09:10:11Z</time>
      </trkpt>
      <trkpt lat="46.4002380" lon="5.9742450">
        <ele>1188.6</ele>
        <time>2022-07-24T09:10:14Z</time>
      </trkpt>
      <trkpt lat="46.4000680" lon="5.9740140">
        <ele>1187.4</ele>
        <time>2022-07-24T09:10:17Z</time>
      </trkpt>
      <trkpt lat="46.4000120" lon="5.9739400">
        <ele>1187.0</ele>
        <time>2022-07-24T09:10:18Z</time>
      </trkpt>
      <trkpt lat="46.3999000" lon="5.9737830">
        <ele>1186.2</ele>
        <time>2022-07-24T09:10:20Z</time>
      </trkpt>
      <trkpt lat="46.3996830" lon="5.9734630">
        <ele>1185.0</ele>
        <time>2022-07-24T09:10:24Z</time>
      </trkpt>
      <trkpt lat="46.3996300" lon="5.9733910">
        <ele>1184.8</ele>
        <time>2022-07-24T09:10:25Z</time>
      </trkpt>
      <trkpt lat="46.3994830" lon="5.9731730">
        <ele>1184.0</ele>
        <time>2022-07-24T09:10:28Z</time>
      </trkpt>
      <trkpt lat="46.3993510" lon="5.9729810">
        <ele>1183.0</ele>
        <time>2022-07-24T09:10:31Z</time>
      </trkpt>
      <trkpt lat="46.3991830" lon="5.9726960">
        <ele>1182.0</ele>
        <time>2022-07-24T09:10:36Z</time>
      </trkpt>
      <trkpt lat="46.3989610" lon="5.9722610">
        <ele>1182.2</ele>
        <time>2022-07-24T09:10:44Z</time>
      </trkpt>
      <trkpt lat="46.3987970" lon="5.9719350">
        <ele>1182.4</ele>
        <time>2022-07-24T09:10:51Z</time>
      </trkpt>
      <trkpt lat="46.3986930" lon="5.9717640">
        <ele>1182.8</ele>
        <time>2022-07-24T09:10:57Z</time>
      </trkpt>
      <trkpt lat="46.3986700" lon="5.9717250">
        <ele>1183.0</ele>
        <time>2022-07-24T09:10:59Z</time>
      </trkpt>
      <trkpt lat="46.3985960" lon="5.9715920">
        <ele>1184.0</ele>
        <time>2022-07-24T09:11:05Z</time>
      </trkpt>
      <trkpt lat="46.3985850" lon="5.9715680">
        <ele>1184.2</ele>
        <time>2022-07-24T09:11:06Z</time>
      </trkpt>
      <trkpt lat="46.3985140" lon="5.9714560">
        <ele>1185.4</ele>
        <time>2022-07-24T09:11:11Z</time>
      </trkpt>
      <trkpt lat="46.3984240" lon="5.9712830">
        <ele>1186.4</ele>
        <time>2022-07-24T09:11:17Z</time>
      </trkpt>
      <trkpt lat="46.3982980" lon="5.9710310">
        <ele>1187.0</ele>
        <time>2022-07-24T09:11:24Z</time>
      </trkpt>
      <trkpt lat="46.3981600" lon="5.9708150">
        <ele>1187.0</ele>
        <time>2022-07-24T09:11:29Z</time>
      </trkpt>
      <trkpt lat="46.3978490" lon="5.9704200">
        <ele>1186.4</ele>
        <time>2022-07-24T09:11:38Z</time>
      </trkpt>
      <trkpt lat="46.3975510" lon="5.9701040">
        <ele>1185.8</ele>
        <time>2022-07-24T09:11:44Z</time>
      </trkpt>
      <trkpt lat="46.3973420" lon="5.9698910">
        <ele>1185.2</ele>
        <time>2022-07-24T09:11:48Z</time>
      </trkpt>
      <trkpt lat="46.3972940" lon="5.9698380">
        <ele>1185.0</ele>
        <time>2022-07-24T09:11:49Z</time>
      </trkpt>
      <trkpt lat="46.3972460" lon="5.9697770">
        <ele>1184.6</ele>
        <time>2022-07-24T09:11:50Z</time>
      </trkpt>
      <trkpt lat="46.3971000" lon="5.9695930">
        <ele>1184.0</ele>
        <time>2022-07-24T09:11:53Z</time>
      </trkpt>
      <trkpt lat="46.3969750" lon="5.9693860">
        <ele>1183.8</ele>
        <time>2022-07-24T09:11:56Z</time>
      </trkpt>
      <trkpt lat="46.3968180" lon="5.9690960">
        <ele>1183.0</ele>
        <time>2022-07-24T09:12:00Z</time>
      </trkpt>
      <trkpt lat="46.3967800" lon="5.9690270">
        <ele>1182.8</ele>
        <time>2022-07-24T09:12:01Z</time>
      </trkpt>
      <trkpt lat="46.3967100" lon="5.9689300">
        <ele>1182.0</ele>
        <time>2022-07-24T09:12:03Z</time>
      </trkpt>
      <trkpt lat="46.3966640" lon="5.9688320">
        <ele>1181.0</ele>
        <time>2022-07-24T09:12:05Z</time>
      </trkpt>
      <trkpt lat="46.3966490" lon="5.9687890">
        <ele>1180.8</ele>
        <time>2022-07-24T09:12:06Z</time>
      </trkpt>
      <trkpt lat="46.3966280" lon="5.9686930">
        <ele>1179.6</ele>
        <time>2022-07-24T09:12:09Z</time>
      </trkpt>
      <trkpt lat="46.3966250" lon="5.9686370">
        <ele>1178.6</ele>
        <time>2022-07-24T09:12:11Z</time>
      </trkpt>
      <trkpt lat="46.3966410" lon="5.9685410">
        <ele>1177.4</ele>
        <time>2022-07-24T09:12:13Z</time>
      </trkpt>
      <trkpt lat="46.3966990" lon="5.9683190">
        <ele>1176.2</ele>
        <time>2022-07-24T09:12:17Z</time>
      </trkpt>
      <trkpt lat="46.3967100" lon="5.9682620">
        <ele>1176.0</ele>
        <time>2022-07-24T09:12:18Z</time>
      </trkpt>
      <trkpt lat="46.3967460" lon="5.9680400">
        <ele>1175.2</ele>
        <time>2022-07-24T09:12:22Z</time>
      </trkpt>
      <trkpt lat="46.3967640" lon="5.9679110">
        <ele>1174.2</ele>
        <time>2022-07-24T09:12:24Z</time>
      </trkpt>
      <trkpt lat="46.3967810" lon="5.9677740">
        <ele>1173.0</ele>
        <time>2022-07-24T09:12:26Z</time>
      </trkpt>
      <trkpt lat="46.3967840" lon="5.9677040">
        <ele>1172.2</ele>
        <time>2022-07-24T09:12:27Z</time>
      </trkpt>
      <trkpt lat="46.3967780" lon="5.9676260">
        <ele>1171.4</ele>
        <time>2022-07-24T09:12:28Z</time>
      </trkpt>
      <trkpt lat="46.3967620" lon="5.9675450">
        <ele>1170.8</ele>
        <time>2022-07-24T09:12:29Z</time>
      </trkpt>
      <trkpt lat="46.3967400" lon="5.9674750">
        <ele>1170.2</ele>
        <time>2022-07-24T09:12:30Z</time>
      </trkpt>
      <trkpt lat="46.3967140" lon="5.9674140">
        <ele>1169.6</ele>
        <time>2022-07-24T09:12:31Z</time>
      </trkpt>
      <trkpt lat="46.3966860" lon="5.9673620">
        <ele>1169.2</ele>
        <time>2022-07-24T09:12:32Z</time>
      </trkpt>
      <trkpt lat="46.3966490" lon="5.9673210">
        <ele>1168.6</ele>
        <time>2022-07-24T09:12:33Z</time>
      </trkpt>
      <trkpt lat="46.3966100" lon="5.9672780">
        <ele>1167.6</ele>
        <time>2022-07-24T09:12:34Z</time>
      </trkpt>
      <trkpt lat="46.3964920" lon="5.9671010">
        <ele>1166.4</ele>
        <time>2022-07-24T09:12:37Z</time>
      </trkpt>
      <trkpt lat="46.3964460" lon="5.9669620">
        <ele>1165.2</ele>
        <time>2022-07-24T09:12:39Z</time>
      </trkpt>
      <trkpt lat="46.3964210" lon="5.9668550">
        <ele>1164.6</ele>
        <time>2022-07-24T09:12:41Z</time>
      </trkpt>
      <trkpt lat="46.3964160" lon="5.9668060">
        <ele>1164.2</ele>
        <time>2022-07-24T09:12:42Z</time>
      </trkpt>
      <trkpt lat="46.3964270" lon="5.9666570">
        <ele>1163.0</ele>
        <time>2022-07-24T09:12:45Z</time>
      </trkpt>
      <trkpt lat="46.3964430" lon="5.9666070">
        <ele>1162.8</ele>
        <time>2022-07-24T09:12:46Z</time>
      </trkpt>
      <trkpt lat="46.3964900" lon="5.9664510">
        <ele>1162.2</ele>
        <time>2022-07-24T09:12:49Z</time>
      </trkpt>
      <trkpt lat="46.3964990" lon="5.9662920">
        <ele>1162.0</ele>
        <time>2022-07-24T09:12:52Z</time>
      </trkpt>
      <trkpt lat="46.3964950" lon="5.9662480">
        <ele>1162.0</ele>
        <time>2022-07-24T09:12:53Z</time>
      </trkpt>
      <trkpt lat="46.3964770" lon="5.9661580">
        <ele>1161.4</ele>
        <time>2022-07-24T09:12:56Z</time>
      </trkpt>
      <trkpt lat="46.3964590" lon="5.9661080">
        <ele>1160.8</ele>
        <time>2022-07-24T09:12:58Z</time>
      </trkpt>
      <trkpt lat="46.3964410" lon="5.9660560">
        <ele>1159.8</ele>
        <time>2022-07-24T09:13:01Z</time>
      </trkpt>
      <trkpt lat="46.3964250" lon="5.9659820">
        <ele>1158.4</ele>
        <time>2022-07-24T09:13:04Z</time>
      </trkpt>
      <trkpt lat="46.3964220" lon="5.9659310">
        <ele>1157.6</ele>
        <time>2022-07-24T09:13:07Z</time>
      </trkpt>
      <trkpt lat="46.3964220" lon="5.9659280">
        <ele>1157.2</ele>
        <time>2022-07-24T09:13:08Z</time>
      </trkpt>
      <trkpt lat="46.3963760" lon="5.9659140">
        <ele>1154.4</ele>
        <time>2022-07-24T09:13:51Z</time>
      </trkpt>
      <trkpt lat="46.3963420" lon="5.9659480">
        <ele>1154.4</ele>
        <time>2022-07-24T09:13:53Z</time>
      </trkpt>
      <trkpt lat="46.3962000" lon="5.9660940">
        <ele>1154.4</ele>
        <time>2022-07-24T09:13:59Z</time>
      </trkpt>
      <trkpt lat="46.3959960" lon="5.9662750">
        <ele>1154.6</ele>
        <time>2022-07-24T09:14:05Z</time>
      </trkpt>
      <trkpt lat="46.3959570" lon="5.9663040">
        <ele>1154.6</ele>
        <time>2022-07-24T09:14:06Z</time>
      </trkpt>
      <trkpt lat="46.3957900" lon="5.9664490">
        <ele>1154.6</ele>
        <time>2022-07-24T09:14:10Z</time>
      </trkpt>
      <trkpt lat="46.3955750" lon="5.9666320">
        <ele>1154.4</ele>
        <time>2022-07-24T09:14:15Z</time>
      </trkpt>
      <trkpt lat="46.3954810" lon="5.9667030">
        <ele>1153.8</ele>
        <time>2022-07-24T09:14:19Z</time>
      </trkpt>
      <trkpt lat="46.3954700" lon="5.9667100">
        <ele>1153.6</ele>
        <time>2022-07-24T09:14:20Z</time>
      </trkpt>
      <trkpt lat="46.3954640" lon="5.9667180">
        <ele>1153.4</ele>
        <time>2022-07-24T09:14:23Z</time>
      </trkpt>
      <trkpt lat="46.3952110" lon="5.9668720">
        <ele>1150.2</ele>
        <time>2022-07-24T09:39:10Z</time>
      </trkpt>
      <trkpt lat="46.3950610" lon="5.9669850">
        <ele>1150.2</ele>
        <time>2022-07-24T09:39:16Z</time>
      </trkpt>
      <trkpt lat="46.3949740" lon="5.9670920">
        <ele>1150.4</ele>
        <time>2022-07-24T09:39:19Z</time>
      </trkpt>
      <trkpt lat="46.3949280" lon="5.9671910">
        <ele>1150.2</ele>
        <time>2022-07-24T09:39:21Z</time>
      </trkpt>
      <trkpt lat="46.3947740" lon="5.9674930">
        <ele>1149.6</ele>
        <time>2022-07-24T09:39:27Z</time>
      </trkpt>
      <trkpt lat="46.3946470" lon="5.9676700">
        <ele>1149.6</ele>
        <time>2022-07-24T09:39:32Z</time>
      </trkpt>
      <trkpt lat="46.3944600" lon="5.9678790">
        <ele>1149.4</ele>
        <time>2022-07-24T09:39:39Z</time>
      </trkpt>
      <trkpt lat="46.3943560" lon="5.9679470">
        <ele>1149.4</ele>
        <time>2022-07-24T09:39:42Z</time>
      </trkpt>
      <trkpt lat="46.3942860" lon="5.9679860">
        <ele>1149.4</ele>
        <time>2022-07-24T09:39:44Z</time>
      </trkpt>
      <trkpt lat="46.3940590" lon="5.9680440">
        <ele>1149.2</ele>
        <time>2022-07-24T09:39:50Z</time>
      </trkpt>
      <trkpt lat="46.3937560" lon="5.9680760">
        <ele>1149.2</ele>
        <time>2022-07-24T09:39:58Z</time>
      </trkpt>
      <trkpt lat="46.3934600" lon="5.9681110">
        <ele>1149.4</ele>
        <time>2022-07-24T09:40:06Z</time>
      </trkpt>
      <trkpt lat="46.3931650" lon="5.9681920">
        <ele>1149.4</ele>
        <time>2022-07-24T09:40:14Z</time>
      </trkpt>
      <trkpt lat="46.3929410" lon="5.9682230">
        <ele>1149.4</ele>
        <time>2022-07-24T09:40:20Z</time>
      </trkpt>
      <trkpt lat="46.3925840" lon="5.9682480">
        <ele>1149.2</ele>
        <time>2022-07-24T09:40:28Z</time>
      </trkpt>
      <trkpt lat="46.3923310" lon="5.9682590">
        <ele>1148.8</ele>
        <time>2022-07-24T09:40:34Z</time>
      </trkpt>
      <trkpt lat="46.3921180" lon="5.9683040">
        <ele>1148.8</ele>
        <time>2022-07-24T09:40:40Z</time>
      </trkpt>
      <trkpt lat="46.3918670" lon="5.9683710">
        <ele>1148.8</ele>
        <time>2022-07-24T09:40:47Z</time>
      </trkpt>
      <trkpt lat="46.3916460" lon="5.9684370">
        <ele>1148.8</ele>
        <time>2022-07-24T09:40:54Z</time>
      </trkpt>
      <trkpt lat="46.3914670" lon="5.9684800">
        <ele>1149.4</ele>
        <time>2022-07-24T09:41:01Z</time>
      </trkpt>
      <trkpt lat="46.3913320" lon="5.9685180">
        <ele>1150.8</ele>
        <time>2022-07-24T09:41:08Z</time>
      </trkpt>
      <trkpt lat="46.3913140" lon="5.9685240">
        <ele>1151.0</ele>
        <time>2022-07-24T09:41:09Z</time>
      </trkpt>
      <trkpt lat="46.3912100" lon="5.9685480">
        <ele>1151.8</ele>
        <time>2022-07-24T09:41:15Z</time>
      </trkpt>
      <trkpt lat="46.3911740" lon="5.9685530">
        <ele>1152.4</ele>
        <time>2022-07-24T09:41:17Z</time>
      </trkpt>
      <trkpt lat="46.3911210" lon="5.9685550">
        <ele>1153.0</ele>
        <time>2022-07-24T09:41:20Z</time>
      </trkpt>
      <trkpt lat="46.3910150" lon="5.9685440">
        <ele>1154.0</ele>
        <time>2022-07-24T09:41:26Z</time>
      </trkpt>
      <trkpt lat="46.3909590" lon="5.9685300">
        <ele>1154.8</ele>
        <time>2022-07-24T09:41:29Z</time>
      </trkpt>
      <trkpt lat="46.3908800" lon="5.9685120">
        <ele>1155.4</ele>
        <time>2022-07-24T09:41:33Z</time>
      </trkpt>
      <trkpt lat="46.3907550" lon="5.9684630">
        <ele>1156.4</ele>
        <time>2022-07-24T09:41:39Z</time>
      </trkpt>
      <trkpt lat="46.3907340" lon="5.9684520">
        <ele>1156.4</ele>
        <time>2022-07-24T09:41:40Z</time>
      </trkpt>
      <trkpt lat="46.3906100" lon="5.9683890">
        <ele>1157.0</ele>
        <time>2022-07-24T09:41:46Z</time>
      </trkpt>
      <trkpt lat="46.3905260" lon="5.9683590">
        <ele>1157.4</ele>
        <time>2022-07-24T09:41:50Z</time>
      </trkpt>
      <trkpt lat="46.3904100" lon="5.9683210">
        <ele>1158.2</ele>
        <time>2022-07-24T09:41:56Z</time>
      </trkpt>
      <trkpt lat="46.3903730" lon="5.9683050">
        <ele>1158.6</ele>
        <time>2022-07-24T09:41:58Z</time>
      </trkpt>
      <trkpt lat="46.3902290" lon="5.9682570">
        <ele>1159.6</ele>
        <time>2022-07-24T09:42:06Z</time>
      </trkpt>
      <trkpt lat="46.3902120" lon="5.9682510">
        <ele>1159.8</ele>
        <time>2022-07-24T09:42:07Z</time>
      </trkpt>
      <trkpt lat="46.3901080" lon="5.9682550">
        <ele>1160.6</ele>
        <time>2022-07-24T09:42:13Z</time>
      </trkpt>
      <trkpt lat="46.3900920" lon="5.9682610">
        <ele>1160.8</ele>
        <time>2022-07-24T09:42:14Z</time>
      </trkpt>
      <trkpt lat="46.3900060" lon="5.9683360">
        <ele>1162.0</ele>
        <time>2022-07-24T09:42:20Z</time>
      </trkpt>
      <trkpt lat="46.3899530" lon="5.9684670">
        <ele>1163.2</ele>
        <time>2022-07-24T09:42:26Z</time>
      </trkpt>
      <trkpt lat="46.3899430" lon="5.9685210">
        <ele>1163.4</ele>
        <time>2022-07-24T09:42:28Z</time>
      </trkpt>
      <trkpt lat="46.3899580" lon="5.9686720">
        <ele>1164.2</ele>
        <time>2022-07-24T09:42:33Z</time>
      </trkpt>
      <trkpt lat="46.3899720" lon="5.9687320">
        <ele>1164.6</ele>
        <time>2022-07-24T09:42:35Z</time>
      </trkpt>
      <trkpt lat="46.3900130" lon="5.9688950">
        <ele>1165.4</ele>
        <time>2022-07-24T09:42:41Z</time>
      </trkpt>
      <trkpt lat="46.3900340" lon="5.9689500">
        <ele>1165.8</ele>
        <time>2022-07-24T09:42:43Z</time>
      </trkpt>
      <trkpt lat="46.3900690" lon="5.9690600">
        <ele>1166.6</ele>
        <time>2022-07-24T09:42:47Z</time>
      </trkpt>
      <trkpt lat="46.3901020" lon="5.9691660">
        <ele>1167.2</ele>
        <time>2022-07-24T09:42:51Z</time>
      </trkpt>
      <trkpt lat="46.3901210" lon="5.9692810">
        <ele>1167.6</ele>
        <time>2022-07-24T09:42:55Z</time>
      </trkpt>
      <trkpt lat="46.3901210" lon="5.9694010">
        <ele>1168.0</ele>
        <time>2022-07-24T09:42:59Z</time>
      </trkpt>
      <trkpt lat="46.3901000" lon="5.9695500">
        <ele>1168.6</ele>
        <time>2022-07-24T09:43:04Z</time>
      </trkpt>
      <trkpt lat="46.3900960" lon="5.9695780">
        <ele>1168.8</ele>
        <time>2022-07-24T09:43:05Z</time>
      </trkpt>
      <trkpt lat="46.3900840" lon="5.9697560">
        <ele>1169.8</ele>
        <time>2022-07-24T09:43:11Z</time>
      </trkpt>
      <trkpt lat="46.3900760" lon="5.9697780">
        <ele>1170.0</ele>
        <time>2022-07-24T09:43:12Z</time>
      </trkpt>
      <trkpt lat="46.3900060" lon="5.9698010">
        <ele>1170.8</ele>
        <time>2022-07-24T09:43:17Z</time>
      </trkpt>
      <trkpt lat="46.3899920" lon="5.9697940">
        <ele>1170.8</ele>
        <time>2022-07-24T09:43:18Z</time>
      </trkpt>
      <trkpt lat="46.3899110" lon="5.9697390">
        <ele>1171.6</ele>
        <time>2022-07-24T09:43:23Z</time>
      </trkpt>
      <trkpt lat="46.3898230" lon="5.9696240">
        <ele>1171.8</ele>
        <time>2022-07-24T09:43:29Z</time>
      </trkpt>
      <trkpt lat="46.3898080" lon="5.9696010">
        <ele>1172.0</ele>
        <time>2022-07-24T09:43:30Z</time>
      </trkpt>
      <trkpt lat="46.3897250" lon="5.9694650">
        <ele>1172.4</ele>
        <time>2022-07-24T09:43:35Z</time>
      </trkpt>
      <trkpt lat="46.3896810" lon="5.9693630">
        <ele>1172.8</ele>
        <time>2022-07-24T09:43:38Z</time>
      </trkpt>
      <trkpt lat="46.3896340" lon="5.9692680">
        <ele>1173.4</ele>
        <time>2022-07-24T09:43:41Z</time>
      </trkpt>
      <trkpt lat="46.3895450" lon="5.9691090">
        <ele>1173.8</ele>
        <time>2022-07-24T09:43:47Z</time>
      </trkpt>
      <trkpt lat="46.3895040" lon="5.9690440">
        <ele>1174.2</ele>
        <time>2022-07-24T09:43:50Z</time>
      </trkpt>
      <trkpt lat="46.3894840" lon="5.9690070">
        <ele>1174.4</ele>
        <time>2022-07-24T09:43:52Z</time>
      </trkpt>
      <trkpt lat="46.3894600" lon="5.9689730">
        <ele>1174.8</ele>
        <time>2022-07-24T09:43:54Z</time>
      </trkpt>
      <trkpt lat="46.3893800" lon="5.9688760">
        <ele>1175.4</ele>
        <time>2022-07-24T09:43:59Z</time>
      </trkpt>
      <trkpt lat="46.3893420" lon="5.9688340">
        <ele>1175.8</ele>
        <time>2022-07-24T09:44:01Z</time>
      </trkpt>
      <trkpt lat="46.3893190" lon="5.9688160">
        <ele>1176.0</ele>
        <time>2022-07-24T09:44:02Z</time>
      </trkpt>
      <trkpt lat="46.3892430" lon="5.9687650">
        <ele>1176.6</ele>
        <time>2022-07-24T09:44:05Z</time>
      </trkpt>
      <trkpt lat="46.3891720" lon="5.9687250">
        <ele>1177.2</ele>
        <time>2022-07-24T09:44:08Z</time>
      </trkpt>
      <trkpt lat="46.3890450" lon="5.9686280">
        <ele>1178.0</ele>
        <time>2022-07-24T09:44:13Z</time>
      </trkpt>
      <trkpt lat="46.3889850" lon="5.9685660">
        <ele>1178.2</ele>
        <time>2022-07-24T09:44:15Z</time>
      </trkpt>
      <trkpt lat="46.3889200" lon="5.9684900">
        <ele>1178.2</ele>
        <time>2022-07-24T09:44:17Z</time>
      </trkpt>
      <trkpt lat="46.3888900" lon="5.9684460">
        <ele>1178.2</ele>
        <time>2022-07-24T09:44:18Z</time>
      </trkpt>
      <trkpt lat="46.3888620" lon="5.9683970">
        <ele>1178.4</ele>
        <time>2022-07-24T09:44:19Z</time>
      </trkpt>
      <trkpt lat="46.3887710" lon="5.9681940">
        <ele>1178.4</ele>
        <time>2022-07-24T09:44:23Z</time>
      </trkpt>
      <trkpt lat="46.3886780" lon="5.9679400">
        <ele>1178.6</ele>
        <time>2022-07-24T09:44:29Z</time>
      </trkpt>
      <trkpt lat="46.3885930" lon="5.9676540">
        <ele>1179.0</ele>
        <time>2022-07-24T09:44:37Z</time>
      </trkpt>
      <trkpt lat="46.3885700" lon="5.9675830">
        <ele>1179.8</ele>
        <time>2022-07-24T09:44:39Z</time>
      </trkpt>
      <trkpt lat="46.3884950" lon="5.9673120">
        <ele>1180.8</ele>
        <time>2022-07-24T09:44:46Z</time>
      </trkpt>
      <trkpt lat="46.3884280" lon="5.9669710">
        <ele>1181.0</ele>
        <time>2022-07-24T09:44:53Z</time>
      </trkpt>
      <trkpt lat="46.3883770" lon="5.9665360">
        <ele>1180.8</ele>
        <time>2022-07-24T09:45:00Z</time>
      </trkpt>
      <trkpt lat="46.3882730" lon="5.9663150">
        <ele>1180.4</ele>
        <time>2022-07-24T09:45:04Z</time>
      </trkpt>
      <trkpt lat="46.3882340" lon="5.9662670">
        <ele>1180.2</ele>
        <time>2022-07-24T09:45:05Z</time>
      </trkpt>
      <trkpt lat="46.3881010" lon="5.9661060">
        <ele>1179.8</ele>
        <time>2022-07-24T09:45:08Z</time>
      </trkpt>
      <trkpt lat="46.3880580" lon="5.9660430">
        <ele>1179.4</ele>
        <time>2022-07-24T09:45:09Z</time>
      </trkpt>
      <trkpt lat="46.3880210" lon="5.9659750">
        <ele>1179.0</ele>
        <time>2022-07-24T09:45:10Z</time>
      </trkpt>
      <trkpt lat="46.3879650" lon="5.9658230">
        <ele>1178.4</ele>
        <time>2022-07-24T09:45:12Z</time>
      </trkpt>
      <trkpt lat="46.3879470" lon="5.9657490">
        <ele>1177.6</ele>
        <time>2022-07-24T09:45:13Z</time>
      </trkpt>
      <trkpt lat="46.3879320" lon="5.9656800">
        <ele>1176.8</ele>
        <time>2022-07-24T09:45:14Z</time>
      </trkpt>
      <trkpt lat="46.3879150" lon="5.9656140">
        <ele>1176.0</ele>
        <time>2022-07-24T09:45:15Z</time>
      </trkpt>
      <trkpt lat="46.3878960" lon="5.9655520">
        <ele>1175.2</ele>
        <time>2022-07-24T09:45:16Z</time>
      </trkpt>
      <trkpt lat="46.3878730" lon="5.9654930">
        <ele>1174.6</ele>
        <time>2022-07-24T09:45:17Z</time>
      </trkpt>
      <trkpt lat="46.3878430" lon="5.9654390">
        <ele>1173.8</ele>
        <time>2022-07-24T09:45:18Z</time>
      </trkpt>
      <trkpt lat="46.3878020" lon="5.9653930">
        <ele>1173.0</ele>
        <time>2022-07-24T09:45:19Z</time>
      </trkpt>
      <trkpt lat="46.3877520" lon="5.9653530">
        <ele>1172.2</ele>
        <time>2022-07-24T09:45:20Z</time>
      </trkpt>
      <trkpt lat="46.3876460" lon="5.9652870">
        <ele>1170.6</ele>
        <time>2022-07-24T09:45:22Z</time>
      </trkpt>
      <trkpt lat="46.3875460" lon="5.9652180">
        <ele>1169.4</ele>
        <time>2022-07-24T09:45:24Z</time>
      </trkpt>
      <trkpt lat="46.3875000" lon="5.9651670">
        <ele>1168.8</ele>
        <time>2022-07-24T09:45:25Z</time>
      </trkpt>
      <trkpt lat="46.3874570" lon="5.9650970">
        <ele>1168.0</ele>
        <time>2022-07-24T09:45:26Z</time>
      </trkpt>
      <trkpt lat="46.3873750" lon="5.9649470">
        <ele>1166.6</ele>
        <time>2022-07-24T09:45:28Z</time>
      </trkpt>
      <trkpt lat="46.3872770" lon="5.9647920">
        <ele>1165.0</ele>
        <time>2022-07-24T09:45:30Z</time>
      </trkpt>
      <trkpt lat="46.3871730" lon="5.9646100">
        <ele>1163.8</ele>
        <time>2022-07-24T09:45:32Z</time>
      </trkpt>
      <trkpt lat="46.3870760" lon="5.9644000">
        <ele>1162.6</ele>
        <time>2022-07-24T09:45:34Z</time>
      </trkpt>
      <trkpt lat="46.3870420" lon="5.9642910">
        <ele>1162.2</ele>
        <time>2022-07-24T09:45:35Z</time>
      </trkpt>
      <trkpt lat="46.3870180" lon="5.9641870">
        <ele>1162.0</ele>
        <time>2022-07-24T09:45:36Z</time>
      </trkpt>
      <trkpt lat="46.3869660" lon="5.9640100">
        <ele>1161.0</ele>
        <time>2022-07-24T09:45:38Z</time>
      </trkpt>
      <trkpt lat="46.3868910" lon="5.9638720">
        <ele>1159.4</ele>
        <time>2022-07-24T09:45:40Z</time>
      </trkpt>
      <trkpt lat="46.3867900" lon="5.9637570">
        <ele>1158.0</ele>
        <time>2022-07-24T09:45:42Z</time>
      </trkpt>
      <trkpt lat="46.3866870" lon="5.9636500">
        <ele>1157.0</ele>
        <time>2022-07-24T09:45:44Z</time>
      </trkpt>
      <trkpt lat="46.3865440" lon="5.9634930">
        <ele>1156.4</ele>
        <time>2022-07-24T09:45:47Z</time>
      </trkpt>
      <trkpt lat="46.3864220" lon="5.9633230">
        <ele>1155.6</ele>
        <time>2022-07-24T09:45:50Z</time>
      </trkpt>
      <trkpt lat="46.3863350" lon="5.9631730">
        <ele>1154.2</ele>
        <time>2022-07-24T09:45:53Z</time>
      </trkpt>
      <trkpt lat="46.3862440" lon="5.9630160">
        <ele>1153.6</ele>
        <time>2022-07-24T09:45:58Z</time>
      </trkpt>
      <trkpt lat="46.3860850" lon="5.9627900">
        <ele>1153.6</ele>
        <time>2022-07-24T09:46:04Z</time>
      </trkpt>
      <trkpt lat="46.3858970" lon="5.9625270">
        <ele>1153.6</ele>
        <time>2022-07-24T09:46:10Z</time>
      </trkpt>
      <trkpt lat="46.3858710" lon="5.9624800">
        <ele>1153.6</ele>
        <time>2022-07-24T09:46:11Z</time>
      </trkpt>
      <trkpt lat="46.3858200" lon="5.9623720">
        <ele>1153.4</ele>
        <time>2022-07-24T09:46:13Z</time>
      </trkpt>
      <trkpt lat="46.3857850" lon="5.9623100">
        <ele>1153.2</ele>
        <time>2022-07-24T09:46:14Z</time>
      </trkpt>
      <trkpt lat="46.3856390" lon="5.9621800">
        <ele>1152.4</ele>
        <time>2022-07-24T09:46:17Z</time>
      </trkpt>
      <trkpt lat="46.3855840" lon="5.9621570">
        <ele>1151.8</ele>
        <time>2022-07-24T09:46:18Z</time>
      </trkpt>
      <trkpt lat="46.3855320" lon="5.9621380">
        <ele>1151.2</ele>
        <time>2022-07-24T09:46:19Z</time>
      </trkpt>
      <trkpt lat="46.3854220" lon="5.9621010">
        <ele>1150.0</ele>
        <time>2022-07-24T09:46:21Z</time>
      </trkpt>
      <trkpt lat="46.3853080" lon="5.9620540">
        <ele>1148.6</ele>
        <time>2022-07-24T09:46:23Z</time>
      </trkpt>
      <trkpt lat="46.3852450" lon="5.9620180">
        <ele>1148.0</ele>
        <time>2022-07-24T09:46:24Z</time>
      </trkpt>
      <trkpt lat="46.3851760" lon="5.9619680">
        <ele>1147.2</ele>
        <time>2022-07-24T09:46:25Z</time>
      </trkpt>
      <trkpt lat="46.3851010" lon="5.9619070">
        <ele>1146.6</ele>
        <time>2022-07-24T09:46:26Z</time>
      </trkpt>
      <trkpt lat="46.3850250" lon="5.9618440">
        <ele>1146.2</ele>
        <time>2022-07-24T09:46:27Z</time>
      </trkpt>
      <trkpt lat="46.3848930" lon="5.9617190">
        <ele>1145.4</ele>
        <time>2022-07-24T09:46:29Z</time>
      </trkpt>
      <trkpt lat="46.3848370" lon="5.9616570">
        <ele>1144.8</ele>
        <time>2022-07-24T09:46:30Z</time>
      </trkpt>
      <trkpt lat="46.3847380" lon="5.9615330">
        <ele>1143.4</ele>
        <time>2022-07-24T09:46:32Z</time>
      </trkpt>
      <trkpt lat="46.3846860" lon="5.9614790">
        <ele>1142.6</ele>
        <time>2022-07-24T09:46:33Z</time>
      </trkpt>
      <trkpt lat="46.3846350" lon="5.9614350">
        <ele>1141.6</ele>
        <time>2022-07-24T09:46:34Z</time>
      </trkpt>
      <trkpt lat="46.3845820" lon="5.9614020">
        <ele>1140.4</ele>
        <time>2022-07-24T09:46:35Z</time>
      </trkpt>
      <trkpt lat="46.3845300" lon="5.9613820">
        <ele>1138.4</ele>
        <time>2022-07-24T09:46:36Z</time>
      </trkpt>
      <trkpt lat="46.3843550" lon="5.9613790">
        <ele>1137.2</ele>
        <time>2022-07-24T09:46:39Z</time>
      </trkpt>
      <trkpt lat="46.3842460" lon="5.9614150">
        <ele>1136.2</ele>
        <time>2022-07-24T09:46:41Z</time>
      </trkpt>
      <trkpt lat="46.3841420" lon="5.9614730">
        <ele>1135.6</ele>
        <time>2022-07-24T09:46:43Z</time>
      </trkpt>
      <trkpt lat="46.3840920" lon="5.9615070">
        <ele>1135.2</ele>
        <time>2022-07-24T09:46:44Z</time>
      </trkpt>
      <trkpt lat="46.3839790" lon="5.9615620">
        <ele>1133.8</ele>
        <time>2022-07-24T09:46:47Z</time>
      </trkpt>
      <trkpt lat="46.3839590" lon="5.9615520">
        <ele>1133.4</ele>
        <time>2022-07-24T09:46:48Z</time>
      </trkpt>
      <trkpt lat="46.3839500" lon="5.9615250">
        <ele>1132.6</ele>
        <time>2022-07-24T09:46:49Z</time>
      </trkpt>
      <trkpt lat="46.3839590" lon="5.9614260">
        <ele>1131.2</ele>
        <time>2022-07-24T09:46:51Z</time>
      </trkpt>
      <trkpt lat="46.3839660" lon="5.9613740">
        <ele>1130.2</ele>
        <time>2022-07-24T09:46:52Z</time>
      </trkpt>
      <trkpt lat="46.3839720" lon="5.9613260">
        <ele>1129.2</ele>
        <time>2022-07-24T09:46:53Z</time>
      </trkpt>
      <trkpt lat="46.3839890" lon="5.9612320">
        <ele>1127.6</ele>
        <time>2022-07-24T09:46:55Z</time>
      </trkpt>
      <trkpt lat="46.3839860" lon="5.9611590">
        <ele>1126.2</ele>
        <time>2022-07-24T09:46:57Z</time>
      </trkpt>
      <trkpt lat="46.3839740" lon="5.9611220">
        <ele>1126.0</ele>
        <time>2022-07-24T09:46:58Z</time>
      </trkpt>
      <trkpt lat="46.3839330" lon="5.9610580">
        <ele>1125.0</ele>
        <time>2022-07-24T09:47:00Z</time>
      </trkpt>
      <trkpt lat="46.3839110" lon="5.9610350">
        <ele>1124.4</ele>
        <time>2022-07-24T09:47:01Z</time>
      </trkpt>
      <trkpt lat="46.3838870" lon="5.9610130">
        <ele>1123.6</ele>
        <time>2022-07-24T09:47:02Z</time>
      </trkpt>
      <trkpt lat="46.3838390" lon="5.9609710">
        <ele>1122.2</ele>
        <time>2022-07-24T09:47:04Z</time>
      </trkpt>
      <trkpt lat="46.3838060" lon="5.9609390">
        <ele>1121.0</ele>
        <time>2022-07-24T09:47:06Z</time>
      </trkpt>
      <trkpt lat="46.3837940" lon="5.9609220">
        <ele>1120.8</ele>
        <time>2022-07-24T09:47:07Z</time>
      </trkpt>
      <trkpt lat="46.3836930" lon="5.9608530">
        <ele>1120.4</ele>
        <time>2022-07-24T09:47:14Z</time>
      </trkpt>
      <trkpt lat="46.3835650" lon="5.9608010">
        <ele>1121.4</ele>
        <time>2022-07-24T09:47:21Z</time>
      </trkpt>
      <trkpt lat="46.3835040" lon="5.9607720">
        <ele>1122.0</ele>
        <time>2022-07-24T09:47:24Z</time>
      </trkpt>
      <trkpt lat="46.3834720" lon="5.9607600">
        <ele>1122.2</ele>
        <time>2022-07-24T09:47:26Z</time>
      </trkpt>
      <trkpt lat="46.3834090" lon="5.9607100">
        <ele>1122.4</ele>
        <time>2022-07-24T09:47:32Z</time>
      </trkpt>
      <trkpt lat="46.3833820" lon="5.9606810">
        <ele>1122.8</ele>
        <time>2022-07-24T09:47:36Z</time>
      </trkpt>
      <trkpt lat="46.3833720" lon="5.9606750">
        <ele>1123.0</ele>
        <time>2022-07-24T09:47:37Z</time>
      </trkpt>
      <trkpt lat="46.3833630" lon="5.9606690">
        <ele>1123.2</ele>
        <time>2022-07-24T09:47:38Z</time>
      </trkpt>
      <trkpt lat="46.3833290" lon="5.9606210">
        <ele>1124.2</ele>
        <time>2022-07-24T09:47:43Z</time>
      </trkpt>
      <trkpt lat="46.3833200" lon="5.9606160">
        <ele>1124.4</ele>
        <time>2022-07-24T09:47:44Z</time>
      </trkpt>
      <trkpt lat="46.3833070" lon="5.9605900">
        <ele>1125.2</ele>
        <time>2022-07-24T09:47:47Z</time>
      </trkpt>
      <trkpt lat="46.3833010" lon="5.9605780">
        <ele>1125.4</ele>
        <time>2022-07-24T09:47:48Z</time>
      </trkpt>
      <trkpt lat="46.3832950" lon="5.9605640">
        <ele>1125.6</ele>
        <time>2022-07-24T09:47:49Z</time>
      </trkpt>
      <trkpt lat="46.3832880" lon="5.9605140">
        <ele>1126.6</ele>
        <time>2022-07-24T09:47:53Z</time>
      </trkpt>
      <trkpt lat="46.3832840" lon="5.9604840">
        <ele>1127.0</ele>
        <time>2022-07-24T09:47:56Z</time>
      </trkpt>
      <trkpt lat="46.3832740" lon="5.9604490">
        <ele>1127.2</ele>
        <time>2022-07-24T09:47:59Z</time>
      </trkpt>
      <trkpt lat="46.3832610" lon="5.9604290">
        <ele>1127.2</ele>
        <time>2022-07-24T09:48:01Z</time>
      </trkpt>
      <trkpt lat="46.3832580" lon="5.9604160">
        <ele>1127.6</ele>
        <time>2022-07-24T09:48:02Z</time>
      </trkpt>
      <trkpt lat="46.3832370" lon="5.9603450">
        <ele>1128.6</ele>
        <time>2022-07-24T09:48:07Z</time>
      </trkpt>
      <trkpt lat="46.3832250" lon="5.9602620">
        <ele>1129.8</ele>
        <time>2022-07-24T09:48:13Z</time>
      </trkpt>
      <trkpt lat="46.3832280" lon="5.9602320">
        <ele>1130.0</ele>
        <time>2022-07-24T09:48:15Z</time>
      </trkpt>
      <trkpt lat="46.3832380" lon="5.9601320">
        <ele>1130.8</ele>
        <time>2022-07-24T09:48:21Z</time>
      </trkpt>
      <trkpt lat="46.3832350" lon="5.9600370">
        <ele>1132.0</ele>
        <time>2022-07-24T09:48:27Z</time>
      </trkpt>
      <trkpt lat="46.3832390" lon="5.9600220">
        <ele>1132.0</ele>
        <time>2022-07-24T09:48:28Z</time>
      </trkpt>
      <trkpt lat="46.3832470" lon="5.9599340">
        <ele>1132.8</ele>
        <time>2022-07-24T09:48:33Z</time>
      </trkpt>
      <trkpt lat="46.3832420" lon="5.9599050">
        <ele>1133.0</ele>
        <time>2022-07-24T09:48:34Z</time>
      </trkpt>
      <trkpt lat="46.3832370" lon="5.9598550">
        <ele>1133.2</ele>
        <time>2022-07-24T09:48:36Z</time>
      </trkpt>
      <trkpt lat="46.3832300" lon="5.9598010">
        <ele>1133.4</ele>
        <time>2022-07-24T09:48:39Z</time>
      </trkpt>
      <trkpt lat="46.3832200" lon="5.9597870">
        <ele>1133.6</ele>
        <time>2022-07-24T09:48:40Z</time>
      </trkpt>
      <trkpt lat="46.3831970" lon="5.9597300">
        <ele>1134.0</ele>
        <time>2022-07-24T09:48:44Z</time>
      </trkpt>
      <trkpt lat="46.3831860" lon="5.9597040">
        <ele>1134.2</ele>
        <time>2022-07-24T09:48:46Z</time>
      </trkpt>
      <trkpt lat="46.3831290" lon="5.9596440">
        <ele>1135.2</ele>
        <time>2022-07-24T09:48:53Z</time>
      </trkpt>
      <trkpt lat="46.3830960" lon="5.9596270">
        <ele>1136.0</ele>
        <time>2022-07-24T09:48:57Z</time>
      </trkpt>
      <trkpt lat="46.3830830" lon="5.9596250">
        <ele>1136.2</ele>
        <time>2022-07-24T09:48:58Z</time>
      </trkpt>
      <trkpt lat="46.3830450" lon="5.9596260">
        <ele>1137.0</ele>
        <time>2022-07-24T09:49:01Z</time>
      </trkpt>
      <trkpt lat="46.3830340" lon="5.9596270">
        <ele>1137.6</ele>
        <time>2022-07-24T09:49:02Z</time>
      </trkpt>
      <trkpt lat="46.3830120" lon="5.9596250">
        <ele>1138.8</ele>
        <time>2022-07-24T09:49:05Z</time>
      </trkpt>
      <trkpt lat="46.3829660" lon="5.9596450">
        <ele>1140.0</ele>
        <time>2022-07-24T09:49:09Z</time>
      </trkpt>
      <trkpt lat="46.3829210" lon="5.9596450">
        <ele>1141.2</ele>
        <time>2022-07-24T09:49:13Z</time>
      </trkpt>
      <trkpt lat="46.3828850" lon="5.9596260">
        <ele>1142.2</ele>
        <time>2022-07-24T09:49:17Z</time>
      </trkpt>
      <trkpt lat="46.3828810" lon="5.9596210">
        <ele>1142.4</ele>
        <time>2022-07-24T09:49:18Z</time>
      </trkpt>
      <trkpt lat="46.3828470" lon="5.9595510">
        <ele>1143.2</ele>
        <time>2022-07-24T09:49:25Z</time>
      </trkpt>
      <trkpt lat="46.3828330" lon="5.9594740">
        <ele>1143.8</ele>
        <time>2022-07-24T09:49:30Z</time>
      </trkpt>
      <trkpt lat="46.3828290" lon="5.9594560">
        <ele>1144.0</ele>
        <time>2022-07-24T09:49:31Z</time>
      </trkpt>
      <trkpt lat="46.3828230" lon="5.9594410">
        <ele>1144.2</ele>
        <time>2022-07-24T09:49:32Z</time>
      </trkpt>
      <trkpt lat="46.3828190" lon="5.9593780">
        <ele>1145.4</ele>
        <time>2022-07-24T09:49:37Z</time>
      </trkpt>
      <trkpt lat="46.3828050" lon="5.9593240">
        <ele>1146.4</ele>
        <time>2022-07-24T09:49:41Z</time>
      </trkpt>
      <trkpt lat="46.3827780" lon="5.9592530">
        <ele>1147.6</ele>
        <time>2022-07-24T09:49:46Z</time>
      </trkpt>
      <trkpt lat="46.3827710" lon="5.9591810">
        <ele>1148.8</ele>
        <time>2022-07-24T09:49:51Z</time>
      </trkpt>
      <trkpt lat="46.3827710" lon="5.9591680">
        <ele>1149.0</ele>
        <time>2022-07-24T09:49:52Z</time>
      </trkpt>
      <trkpt lat="46.3827600" lon="5.9591040">
        <ele>1149.8</ele>
        <time>2022-07-24T09:49:57Z</time>
      </trkpt>
      <trkpt lat="46.3827410" lon="5.9590080">
        <ele>1150.8</ele>
        <time>2022-07-24T09:50:03Z</time>
      </trkpt>
      <trkpt lat="46.3827340" lon="5.9589890">
        <ele>1151.0</ele>
        <time>2022-07-24T09:50:04Z</time>
      </trkpt>
      <trkpt lat="46.3827300" lon="5.9588790">
        <ele>1152.0</ele>
        <time>2022-07-24T09:50:11Z</time>
      </trkpt>
      <trkpt lat="46.3827250" lon="5.9588410">
        <ele>1152.2</ele>
        <time>2022-07-24T09:50:14Z</time>
      </trkpt>
      <trkpt lat="46.3827120" lon="5.9587300">
        <ele>1153.0</ele>
        <time>2022-07-24T09:50:21Z</time>
      </trkpt>
      <trkpt lat="46.3827110" lon="5.9586460">
        <ele>1153.6</ele>
        <time>2022-07-24T09:50:26Z</time>
      </trkpt>
      <trkpt lat="46.3827110" lon="5.9586110">
        <ele>1154.0</ele>
        <time>2022-07-24T09:50:28Z</time>
      </trkpt>
      <trkpt lat="46.3827230" lon="5.9584420">
        <ele>1155.2</ele>
        <time>2022-07-24T09:50:37Z</time>
      </trkpt>
      <trkpt lat="46.3827200" lon="5.9583970">
        <ele>1155.6</ele>
        <time>2022-07-24T09:50:39Z</time>
      </trkpt>
      <trkpt lat="46.3827190" lon="5.9583240">
        <ele>1156.4</ele>
        <time>2022-07-24T09:50:43Z</time>
      </trkpt>
      <trkpt lat="46.3827130" lon="5.9582340">
        <ele>1157.4</ele>
        <time>2022-07-24T09:50:48Z</time>
      </trkpt>
      <trkpt lat="46.3827000" lon="5.9581840">
        <ele>1157.8</ele>
        <time>2022-07-24T09:50:51Z</time>
      </trkpt>
      <trkpt lat="46.3826830" lon="5.9581190">
        <ele>1158.4</ele>
        <time>2022-07-24T09:50:55Z</time>
      </trkpt>
      <trkpt lat="46.3826650" lon="5.9580590">
        <ele>1159.4</ele>
        <time>2022-07-24T09:50:59Z</time>
      </trkpt>
      <trkpt lat="46.3826570" lon="5.9580320">
        <ele>1159.8</ele>
        <time>2022-07-24T09:51:01Z</time>
      </trkpt>
      <trkpt lat="46.3826460" lon="5.9579690">
        <ele>1160.6</ele>
        <time>2022-07-24T09:51:06Z</time>
      </trkpt>
      <trkpt lat="46.3826440" lon="5.9579010">
        <ele>1161.6</ele>
        <time>2022-07-24T09:51:11Z</time>
      </trkpt>
      <trkpt lat="46.3826430" lon="5.9578880">
        <ele>1161.8</ele>
        <time>2022-07-24T09:51:12Z</time>
      </trkpt>
      <trkpt lat="46.3826380" lon="5.9578290">
        <ele>1162.6</ele>
        <time>2022-07-24T09:51:16Z</time>
      </trkpt>
      <trkpt lat="46.3826280" lon="5.9577520">
        <ele>1163.8</ele>
        <time>2022-07-24T09:51:22Z</time>
      </trkpt>
      <trkpt lat="46.3826110" lon="5.9577120">
        <ele>1164.6</ele>
        <time>2022-07-24T09:51:26Z</time>
      </trkpt>
      <trkpt lat="46.3826070" lon="5.9577030">
        <ele>1164.8</ele>
        <time>2022-07-24T09:51:27Z</time>
      </trkpt>
      <trkpt lat="46.3825670" lon="5.9576700">
        <ele>1165.8</ele>
        <time>2022-07-24T09:51:32Z</time>
      </trkpt>
      <trkpt lat="46.3825390" lon="5.9576620">
        <ele>1166.4</ele>
        <time>2022-07-24T09:51:36Z</time>
      </trkpt>
      <trkpt lat="46.3825180" lon="5.9576720">
        <ele>1167.0</ele>
        <time>2022-07-24T09:51:39Z</time>
      </trkpt>
      <trkpt lat="46.3824810" lon="5.9577170">
        <ele>1167.8</ele>
        <time>2022-07-24T09:51:45Z</time>
      </trkpt>
      <trkpt lat="46.3824750" lon="5.9577260">
        <ele>1168.0</ele>
        <time>2022-07-24T09:51:46Z</time>
      </trkpt>
      <trkpt lat="46.3824570" lon="5.9577580">
        <ele>1168.6</ele>
        <time>2022-07-24T09:51:49Z</time>
      </trkpt>
      <trkpt lat="46.3824470" lon="5.9577730">
        <ele>1168.8</ele>
        <time>2022-07-24T09:51:51Z</time>
      </trkpt>
      <trkpt lat="46.3824210" lon="5.9578050">
        <ele>1170.0</ele>
        <time>2022-07-24T09:51:55Z</time>
      </trkpt>
      <trkpt lat="46.3824080" lon="5.9578190">
        <ele>1170.2</ele>
        <time>2022-07-24T09:51:57Z</time>
      </trkpt>
      <trkpt lat="46.3823760" lon="5.9578570">
        <ele>1171.0</ele>
        <time>2022-07-24T09:52:01Z</time>
      </trkpt>
      <trkpt lat="46.3823220" lon="5.9579270">
        <ele>1171.6</ele>
        <time>2022-07-24T09:52:07Z</time>
      </trkpt>
      <trkpt lat="46.3823040" lon="5.9579620">
        <ele>1172.0</ele>
        <time>2022-07-24T09:52:10Z</time>
      </trkpt>
      <trkpt lat="46.3822580" lon="5.9580850">
        <ele>1173.0</ele>
        <time>2022-07-24T09:52:18Z</time>
      </trkpt>
      <trkpt lat="46.3822470" lon="5.9581000">
        <ele>1173.2</ele>
        <time>2022-07-24T09:52:19Z</time>
      </trkpt>
      <trkpt lat="46.3821500" lon="5.9583000">
        <ele>1173.6</ele>
        <time>2022-07-24T09:52:29Z</time>
      </trkpt>
      <trkpt lat="46.3820780" lon="5.9583610">
        <ele>1174.2</ele>
        <time>2022-07-24T09:52:35Z</time>
      </trkpt>
      <trkpt lat="46.3820150" lon="5.9584230">
        <ele>1175.2</ele>
        <time>2022-07-24T09:52:41Z</time>
      </trkpt>
      <trkpt lat="46.3820040" lon="5.9584300">
        <ele>1175.4</ele>
        <time>2022-07-24T09:52:42Z</time>
      </trkpt>
      <trkpt lat="46.3819790" lon="5.9584730">
        <ele>1176.2</ele>
        <time>2022-07-24T09:52:47Z</time>
      </trkpt>
      <trkpt lat="46.3819130" lon="5.9586560">
        <ele>1176.6</ele>
        <time>2022-07-24T09:53:39Z</time>
      </trkpt>
      <trkpt lat="46.3819010" lon="5.9586930">
        <ele>1176.6</ele>
        <time>2022-07-24T09:53:40Z</time>
      </trkpt>
      <trkpt lat="46.3817990" lon="5.9589490">
        <ele>1176.4</ele>
        <time>2022-07-24T09:53:46Z</time>
      </trkpt>
      <trkpt lat="46.3817020" lon="5.9591890">
        <ele>1176.0</ele>
        <time>2022-07-24T09:53:53Z</time>
      </trkpt>
      <trkpt lat="46.3815860" lon="5.9593050">
        <ele>1176.0</ele>
        <time>2022-07-24T09:53:58Z</time>
      </trkpt>
      <trkpt lat="46.3814550" lon="5.9594170">
        <ele>1176.6</ele>
        <time>2022-07-24T09:54:04Z</time>
      </trkpt>
      <trkpt lat="46.3812560" lon="5.9596410">
        <ele>1177.0</ele>
        <time>2022-07-24T09:54:10Z</time>
      </trkpt>
      <trkpt lat="46.3810570" lon="5.9599630">
        <ele>1177.0</ele>
        <time>2022-07-24T09:54:15Z</time>
      </trkpt>
      <trkpt lat="46.3810210" lon="5.9600410">
        <ele>1177.0</ele>
        <time>2022-07-24T09:54:16Z</time>
      </trkpt>
      <trkpt lat="46.3809470" lon="5.9602980">
        <ele>1176.4</ele>
        <time>2022-07-24T09:54:19Z</time>
      </trkpt>
      <trkpt lat="46.3809200" lon="5.9604800">
        <ele>1175.4</ele>
        <time>2022-07-24T09:54:21Z</time>
      </trkpt>
      <trkpt lat="46.3809010" lon="5.9607570">
        <ele>1175.0</ele>
        <time>2022-07-24T09:54:24Z</time>
      </trkpt>
      <trkpt lat="46.3808530" lon="5.9612820">
        <ele>1174.6</ele>
        <time>2022-07-24T09:54:30Z</time>
      </trkpt>
      <trkpt lat="46.3808410" lon="5.9613590">
        <ele>1174.2</ele>
        <time>2022-07-24T09:54:31Z</time>
      </trkpt>
      <trkpt lat="46.3807420" lon="5.9617210">
        <ele>1173.6</ele>
        <time>2022-07-24T09:54:36Z</time>
      </trkpt>
      <trkpt lat="46.3805500" lon="5.9621360">
        <ele>1173.4</ele>
        <time>2022-07-24T09:54:43Z</time>
      </trkpt>
      <trkpt lat="46.3804960" lon="5.9622450">
        <ele>1173.4</ele>
        <time>2022-07-24T09:54:45Z</time>
      </trkpt>
      <trkpt lat="46.3803960" lon="5.9624630">
        <ele>1173.4</ele>
        <time>2022-07-24T09:54:49Z</time>
      </trkpt>
      <trkpt lat="46.3802140" lon="5.9629100">
        <ele>1173.4</ele>
        <time>2022-07-24T09:54:55Z</time>
      </trkpt>
      <trkpt lat="46.3801040" lon="5.9631720">
        <ele>1173.2</ele>
        <time>2022-07-24T09:54:58Z</time>
      </trkpt>
      <trkpt lat="46.3799670" lon="5.9635060">
        <ele>1172.8</ele>
        <time>2022-07-24T09:55:02Z</time>
      </trkpt>
      <trkpt lat="46.3798700" lon="5.9637320">
        <ele>1172.0</ele>
        <time>2022-07-24T09:55:05Z</time>
      </trkpt>
      <trkpt lat="46.3797220" lon="5.9640690">
        <ele>1171.4</ele>
        <time>2022-07-24T09:55:10Z</time>
      </trkpt>
      <trkpt lat="46.3795740" lon="5.9644390">
        <ele>1171.4</ele>
        <time>2022-07-24T09:55:17Z</time>
      </trkpt>
      <trkpt lat="46.3794060" lon="5.9648840">
        <ele>1171.8</ele>
        <time>2022-07-24T09:55:25Z</time>
      </trkpt>
      <trkpt lat="46.3792680" lon="5.9652440">
        <ele>1172.0</ele>
        <time>2022-07-24T09:55:32Z</time>
      </trkpt>
      <trkpt lat="46.3790790" lon="5.9655790">
        <ele>1172.0</ele>
        <time>2022-07-24T09:55:40Z</time>
      </trkpt>
      <trkpt lat="46.3788690" lon="5.9658000">
        <ele>1172.2</ele>
        <time>2022-07-24T09:55:46Z</time>
      </trkpt>
      <trkpt lat="46.3784750" lon="5.9661390">
        <ele>1172.4</ele>
        <time>2022-07-24T09:55:54Z</time>
      </trkpt>
      <trkpt lat="46.3780560" lon="5.9664970">
        <ele>1171.8</ele>
        <time>2022-07-24T09:56:03Z</time>
      </trkpt>
      <trkpt lat="46.3778190" lon="5.9667210">
        <ele>1172.0</ele>
        <time>2022-07-24T09:56:10Z</time>
      </trkpt>
      <trkpt lat="46.3775980" lon="5.9669470">
        <ele>1173.2</ele>
        <time>2022-07-24T09:56:16Z</time>
      </trkpt>
      <trkpt lat="46.3775220" lon="5.9670210">
        <ele>1173.4</ele>
        <time>2022-07-24T09:56:18Z</time>
      </trkpt>
      <trkpt lat="46.3772070" lon="5.9673060">
        <ele>1173.6</ele>
        <time>2022-07-24T09:56:27Z</time>
      </trkpt>
      <trkpt lat="46.3770830" lon="5.9673730">
        <ele>1174.0</ele>
        <time>2022-07-24T09:56:32Z</time>
      </trkpt>
      <trkpt lat="46.3770370" lon="5.9673720">
        <ele>1174.2</ele>
        <time>2022-07-24T09:56:34Z</time>
      </trkpt>
      <trkpt lat="46.3769980" lon="5.9674040">
        <ele>1174.4</ele>
        <time>2022-07-24T09:56:36Z</time>
      </trkpt>
      <trkpt lat="46.3768840" lon="5.9675860">
        <ele>1175.2</ele>
        <time>2022-07-24T09:56:42Z</time>
      </trkpt>
      <trkpt lat="46.3766590" lon="5.9678560">
        <ele>1175.2</ele>
        <time>2022-07-24T09:56:49Z</time>
      </trkpt>
      <trkpt lat="46.3764390" lon="5.9681350">
        <ele>1175.2</ele>
        <time>2022-07-24T09:56:55Z</time>
      </trkpt>
      <trkpt lat="46.3761820" lon="5.9686360">
        <ele>1174.4</ele>
        <time>2022-07-24T09:57:03Z</time>
      </trkpt>
      <trkpt lat="46.3759650" lon="5.9691120">
        <ele>1173.8</ele>
        <time>2022-07-24T09:57:10Z</time>
      </trkpt>
      <trkpt lat="46.3758810" lon="5.9693060">
        <ele>1173.4</ele>
        <time>2022-07-24T09:57:13Z</time>
      </trkpt>
      <trkpt lat="46.3757360" lon="5.9696250">
        <ele>1173.2</ele>
        <time>2022-07-24T09:57:18Z</time>
      </trkpt>
      <trkpt lat="46.3755740" lon="5.9701040">
        <ele>1172.8</ele>
        <time>2022-07-24T09:57:25Z</time>
      </trkpt>
      <trkpt lat="46.3754110" lon="5.9707710">
        <ele>1172.4</ele>
        <time>2022-07-24T09:57:33Z</time>
      </trkpt>
      <trkpt lat="46.3753920" lon="5.9708560">
        <ele>1172.4</ele>
        <time>2022-07-24T09:57:34Z</time>
      </trkpt>
      <trkpt lat="46.3753400" lon="5.9710960">
        <ele>1172.0</ele>
        <time>2022-07-24T09:57:37Z</time>
      </trkpt>
      <trkpt lat="46.3753100" lon="5.9712320">
        <ele>1171.6</ele>
        <time>2022-07-24T09:57:39Z</time>
      </trkpt>
      <trkpt lat="46.3752960" lon="5.9712880">
        <ele>1171.6</ele>
        <time>2022-07-24T09:57:40Z</time>
      </trkpt>
      <trkpt lat="46.3752340" lon="5.9715380">
        <ele>1171.2</ele>
        <time>2022-07-24T09:57:45Z</time>
      </trkpt>
      <trkpt lat="46.3751350" lon="5.9718980">
        <ele>1170.8</ele>
        <time>2022-07-24T09:57:51Z</time>
      </trkpt>
      <trkpt lat="46.3749200" lon="5.9723430">
        <ele>1170.6</ele>
        <time>2022-07-24T09:57:58Z</time>
      </trkpt>
      <trkpt lat="46.3747560" lon="5.9726880">
        <ele>1170.4</ele>
        <time>2022-07-24T09:58:03Z</time>
      </trkpt>
      <trkpt lat="46.3747030" lon="5.9728370">
        <ele>1170.0</ele>
        <time>2022-07-24T09:58:05Z</time>
      </trkpt>
      <trkpt lat="46.3746090" lon="5.9732290">
        <ele>1169.8</ele>
        <time>2022-07-24T09:58:11Z</time>
      </trkpt>
      <trkpt lat="46.3745810" lon="5.9736030">
        <ele>1170.0</ele>
        <time>2022-07-24T09:58:18Z</time>
      </trkpt>
      <trkpt lat="46.3745480" lon="5.9740160">
        <ele>1171.0</ele>
        <time>2022-07-24T09:58:25Z</time>
      </trkpt>
      <trkpt lat="46.3745200" lon="5.9744660">
        <ele>1171.2</ele>
        <time>2022-07-24T09:58:32Z</time>
      </trkpt>
      <trkpt lat="46.3744880" lon="5.9747640">
        <ele>1171.0</ele>
        <time>2022-07-24T09:58:36Z</time>
      </trkpt>
      <trkpt lat="46.3744590" lon="5.9749980">
        <ele>1170.8</ele>
        <time>2022-07-24T09:58:39Z</time>
      </trkpt>
      <trkpt lat="46.3744120" lon="5.9754120">
        <ele>1170.4</ele>
        <time>2022-07-24T09:58:45Z</time>
      </trkpt>
      <trkpt lat="46.3743640" lon="5.9755380">
        <ele>1170.2</ele>
        <time>2022-07-24T09:58:48Z</time>
      </trkpt>
      <trkpt lat="46.3743270" lon="5.9755500">
        <ele>1170.2</ele>
        <time>2022-07-24T09:58:49Z</time>
      </trkpt>
      <trkpt lat="46.3741590" lon="5.9754570">
        <ele>1170.0</ele>
        <time>2022-07-24T09:58:53Z</time>
      </trkpt>
      <trkpt lat="46.3740260" lon="5.9753130">
        <ele>1169.6</ele>
        <time>2022-07-24T09:58:56Z</time>
      </trkpt>
      <trkpt lat="46.3739890" lon="5.9752540">
        <ele>1169.4</ele>
        <time>2022-07-24T09:58:57Z</time>
      </trkpt>
      <trkpt lat="46.3739520" lon="5.9751950">
        <ele>1169.4</ele>
        <time>2022-07-24T09:58:58Z</time>
      </trkpt>
      <trkpt lat="46.3737020" lon="5.9748440">
        <ele>1168.6</ele>
        <time>2022-07-24T09:59:04Z</time>
      </trkpt>
      <trkpt lat="46.3734300" lon="5.9743990">
        <ele>1167.8</ele>
        <time>2022-07-24T09:59:11Z</time>
      </trkpt>
      <trkpt lat="46.3733530" lon="5.9741600">
        <ele>1167.8</ele>
        <time>2022-07-24T09:59:14Z</time>
      </trkpt>
      <trkpt lat="46.3733160" lon="5.9739890">
        <ele>1167.6</ele>
        <time>2022-07-24T09:59:16Z</time>
      </trkpt>
      <trkpt lat="46.3731500" lon="5.9733060">
        <ele>1166.6</ele>
        <time>2022-07-24T09:59:24Z</time>
      </trkpt>
      <trkpt lat="46.3730810" lon="5.9731560">
        <ele>1166.4</ele>
        <time>2022-07-24T09:59:26Z</time>
      </trkpt>
      <trkpt lat="46.3729560" lon="5.9729540">
        <ele>1166.4</ele>
        <time>2022-07-24T09:59:29Z</time>
      </trkpt>
      <trkpt lat="46.3727050" lon="5.9726300">
        <ele>1166.4</ele>
        <time>2022-07-24T09:59:35Z</time>
      </trkpt>
      <trkpt lat="46.3723790" lon="5.9722140">
        <ele>1167.0</ele>
        <time>2022-07-24T09:59:44Z</time>
      </trkpt>
      <trkpt lat="46.3721180" lon="5.9718840">
        <ele>1167.4</ele>
        <time>2022-07-24T09:59:52Z</time>
      </trkpt>
      <trkpt lat="46.3720180" lon="5.9717600">
        <ele>1167.8</ele>
        <time>2022-07-24T09:59:55Z</time>
      </trkpt>
      <trkpt lat="46.3718840" lon="5.9715880">
        <ele>1168.0</ele>
        <time>2022-07-24T09:59:59Z</time>
      </trkpt>
      <trkpt lat="46.3717760" lon="5.9714600">
        <ele>1168.4</ele>
        <time>2022-07-24T10:00:02Z</time>
      </trkpt>
      <trkpt lat="46.3714890" lon="5.9710910">
        <ele>1168.8</ele>
        <time>2022-07-24T10:00:10Z</time>
      </trkpt>
      <trkpt lat="46.3714550" lon="5.9710430">
        <ele>1169.0</ele>
        <time>2022-07-24T10:00:11Z</time>
      </trkpt>
      <trkpt lat="46.3711720" lon="5.9706320">
        <ele>1169.0</ele>
        <time>2022-07-24T10:00:20Z</time>
      </trkpt>
      <trkpt lat="46.3710000" lon="5.9703340">
        <ele>1169.2</ele>
        <time>2022-07-24T10:00:27Z</time>
      </trkpt>
      <trkpt lat="46.3707910" lon="5.9699810">
        <ele>1169.4</ele>
        <time>2022-07-24T10:00:34Z</time>
      </trkpt>
      <trkpt lat="46.3705150" lon="5.9694810">
        <ele>1169.0</ele>
        <time>2022-07-24T10:00:42Z</time>
      </trkpt>
      <trkpt lat="46.3701910" lon="5.9690260">
        <ele>1168.8</ele>
        <time>2022-07-24T10:00:50Z</time>
      </trkpt>
      <trkpt lat="46.3698210" lon="5.9686550">
        <ele>1169.0</ele>
        <time>2022-07-24T10:00:58Z</time>
      </trkpt>
      <trkpt lat="46.3694950" lon="5.9683360">
        <ele>1168.8</ele>
        <time>2022-07-24T10:01:04Z</time>
      </trkpt>
      <trkpt lat="46.3692270" lon="5.9680620">
        <ele>1168.4</ele>
        <time>2022-07-24T10:01:08Z</time>
      </trkpt>
      <trkpt lat="46.3690770" lon="5.9679160">
        <ele>1168.2</ele>
        <time>2022-07-24T10:01:10Z</time>
      </trkpt>
      <trkpt lat="46.3690000" lon="5.9678400">
        <ele>1167.8</ele>
        <time>2022-07-24T10:01:11Z</time>
      </trkpt>
      <trkpt lat="46.3687880" lon="5.9675730">
        <ele>1167.0</ele>
        <time>2022-07-24T10:01:14Z</time>
      </trkpt>
      <trkpt lat="46.3687350" lon="5.9674620">
        <ele>1166.8</ele>
        <time>2022-07-24T10:01:15Z</time>
      </trkpt>
      <trkpt lat="46.3686600" lon="5.9672130">
        <ele>1165.8</ele>
        <time>2022-07-24T10:01:17Z</time>
      </trkpt>
      <trkpt lat="46.3686330" lon="5.9670860">
        <ele>1165.0</ele>
        <time>2022-07-24T10:01:18Z</time>
      </trkpt>
      <trkpt lat="46.3686100" lon="5.9669600">
        <ele>1164.4</ele>
        <time>2022-07-24T10:01:19Z</time>
      </trkpt>
      <trkpt lat="46.3685480" lon="5.9665980">
        <ele>1163.2</ele>
        <time>2022-07-24T10:01:22Z</time>
      </trkpt>
      <trkpt lat="46.3685110" lon="5.9663690">
        <ele>1162.0</ele>
        <time>2022-07-24T10:01:24Z</time>
      </trkpt>
      <trkpt lat="46.3684300" lon="5.9659270">
        <ele>1160.8</ele>
        <time>2022-07-24T10:01:28Z</time>
      </trkpt>
      <trkpt lat="46.3682850" lon="5.9653010">
        <ele>1160.4</ele>
        <time>2022-07-24T10:01:34Z</time>
      </trkpt>
      <trkpt lat="46.3681830" lon="5.9648820">
        <ele>1160.4</ele>
        <time>2022-07-24T10:01:39Z</time>
      </trkpt>
      <trkpt lat="46.3680730" lon="5.9644140">
        <ele>1161.2</ele>
        <time>2022-07-24T10:01:46Z</time>
      </trkpt>
      <trkpt lat="46.3679950" lon="5.9640190">
        <ele>1162.0</ele>
        <time>2022-07-24T10:01:53Z</time>
      </trkpt>
      <trkpt lat="46.3679890" lon="5.9639600">
        <ele>1162.0</ele>
        <time>2022-07-24T10:01:54Z</time>
      </trkpt>
      <trkpt lat="46.3679720" lon="5.9636820">
        <ele>1162.8</ele>
        <time>2022-07-24T10:01:59Z</time>
      </trkpt>
      <trkpt lat="46.3678930" lon="5.9633220">
        <ele>1163.2</ele>
        <time>2022-07-24T10:02:06Z</time>
      </trkpt>
      <trkpt lat="46.3677720" lon="5.9630410">
        <ele>1164.2</ele>
        <time>2022-07-24T10:02:13Z</time>
      </trkpt>
      <trkpt lat="46.3677390" lon="5.9629650">
        <ele>1164.6</ele>
        <time>2022-07-24T10:02:15Z</time>
      </trkpt>
      <trkpt lat="46.3676500" lon="5.9627950">
        <ele>1165.2</ele>
        <time>2022-07-24T10:02:20Z</time>
      </trkpt>
      <trkpt lat="46.3675920" lon="5.9626750">
        <ele>1166.0</ele>
        <time>2022-07-24T10:02:24Z</time>
      </trkpt>
      <trkpt lat="46.3675510" lon="5.9625940">
        <ele>1166.6</ele>
        <time>2022-07-24T10:02:27Z</time>
      </trkpt>
      <trkpt lat="46.3674890" lon="5.9624690">
        <ele>1167.8</ele>
        <time>2022-07-24T10:02:32Z</time>
      </trkpt>
      <trkpt lat="46.3674770" lon="5.9624420">
        <ele>1168.0</ele>
        <time>2022-07-24T10:02:33Z</time>
      </trkpt>
      <trkpt lat="46.3674210" lon="5.9623380">
        <ele>1169.0</ele>
        <time>2022-07-24T10:02:37Z</time>
      </trkpt>
      <trkpt lat="46.3673480" lon="5.9622140">
        <ele>1169.6</ele>
        <time>2022-07-24T10:02:42Z</time>
      </trkpt>
      <trkpt lat="46.3672870" lon="5.9621140">
        <ele>1170.0</ele>
        <time>2022-07-24T10:02:46Z</time>
      </trkpt>
      <trkpt lat="46.3672110" lon="5.9619970">
        <ele>1170.2</ele>
        <time>2022-07-24T10:02:51Z</time>
      </trkpt>
      <trkpt lat="46.3671040" lon="5.9618620">
        <ele>1171.0</ele>
        <time>2022-07-24T10:02:57Z</time>
      </trkpt>
      <trkpt lat="46.3670680" lon="5.9618230">
        <ele>1171.4</ele>
        <time>2022-07-24T10:02:59Z</time>
      </trkpt>
      <trkpt lat="46.3669570" lon="5.9617150">
        <ele>1172.0</ele>
        <time>2022-07-24T10:03:05Z</time>
      </trkpt>
      <trkpt lat="46.3668990" lon="5.9616620">
        <ele>1172.6</ele>
        <time>2022-07-24T10:03:08Z</time>
      </trkpt>
      <trkpt lat="46.3668430" lon="5.9616030">
        <ele>1173.2</ele>
        <time>2022-07-24T10:03:11Z</time>
      </trkpt>
      <trkpt lat="46.3666850" lon="5.9614520">
        <ele>1174.4</ele>
        <time>2022-07-24T10:03:19Z</time>
      </trkpt>
      <trkpt lat="46.3665460" lon="5.9612970">
        <ele>1175.4</ele>
        <time>2022-07-24T10:03:26Z</time>
      </trkpt>
      <trkpt lat="46.3664690" lon="5.9612120">
        <ele>1176.0</ele>
        <time>2022-07-24T10:03:30Z</time>
      </trkpt>
      <trkpt lat="46.3663630" lon="5.9610740">
        <ele>1176.4</ele>
        <time>2022-07-24T10:03:36Z</time>
      </trkpt>
      <trkpt lat="46.3662830" lon="5.9609730">
        <ele>1177.2</ele>
        <time>2022-07-24T10:03:40Z</time>
      </trkpt>
      <trkpt lat="46.3662190" lon="5.9608970">
        <ele>1177.4</ele>
        <time>2022-07-24T10:03:43Z</time>
      </trkpt>
      <trkpt lat="46.3660930" lon="5.9607560">
        <ele>1178.4</ele>
        <time>2022-07-24T10:03:49Z</time>
      </trkpt>
      <trkpt lat="46.3660490" lon="5.9607100">
        <ele>1178.6</ele>
        <time>2022-07-24T10:03:51Z</time>
      </trkpt>
      <trkpt lat="46.3659180" lon="5.9605890">
        <ele>1179.6</ele>
        <time>2022-07-24T10:03:57Z</time>
      </trkpt>
      <trkpt lat="46.3658740" lon="5.9605520">
        <ele>1180.0</ele>
        <time>2022-07-24T10:03:59Z</time>
      </trkpt>
      <trkpt lat="46.3657570" lon="5.9604680">
        <ele>1180.6</ele>
        <time>2022-07-24T10:04:04Z</time>
      </trkpt>
      <trkpt lat="46.3656190" lon="5.9603830">
        <ele>1181.8</ele>
        <time>2022-07-24T10:04:10Z</time>
      </trkpt>
      <trkpt lat="46.3655920" lon="5.9603720">
        <ele>1182.0</ele>
        <time>2022-07-24T10:04:11Z</time>
      </trkpt>
      <trkpt lat="46.3654490" lon="5.9602570">
        <ele>1183.2</ele>
        <time>2022-07-24T10:04:18Z</time>
      </trkpt>
      <trkpt lat="46.3653230" lon="5.9601490">
        <ele>1184.0</ele>
        <time>2022-07-24T10:04:27Z</time>
      </trkpt>
      <trkpt lat="46.3653090" lon="5.9601430">
        <ele>1184.2</ele>
        <time>2022-07-24T10:04:28Z</time>
      </trkpt>
      <trkpt lat="46.3652360" lon="5.9601180">
        <ele>1185.4</ele>
        <time>2022-07-24T10:04:33Z</time>
      </trkpt>
      <trkpt lat="46.3651780" lon="5.9601010">
        <ele>1186.4</ele>
        <time>2022-07-24T10:04:37Z</time>
      </trkpt>
      <trkpt lat="46.3651640" lon="5.9600970">
        <ele>1186.8</ele>
        <time>2022-07-24T10:04:38Z</time>
      </trkpt>
      <trkpt lat="46.3651180" lon="5.9600810">
        <ele>1187.4</ele>
        <time>2022-07-24T10:04:41Z</time>
      </trkpt>
      <trkpt lat="46.3650380" lon="5.9600460">
        <ele>1188.6</ele>
        <time>2022-07-24T10:04:46Z</time>
      </trkpt>
      <trkpt lat="46.3649630" lon="5.9599770">
        <ele>1189.8</ele>
        <time>2022-07-24T10:04:51Z</time>
      </trkpt>
      <trkpt lat="46.3649310" lon="5.9599210">
        <ele>1190.2</ele>
        <time>2022-07-24T10:04:54Z</time>
      </trkpt>
      <trkpt lat="46.3649120" lon="5.9598580">
        <ele>1190.8</ele>
        <time>2022-07-24T10:04:57Z</time>
      </trkpt>
      <trkpt lat="46.3648920" lon="5.9597660">
        <ele>1191.6</ele>
        <time>2022-07-24T10:05:02Z</time>
      </trkpt>
      <trkpt lat="46.3648810" lon="5.9597330">
        <ele>1192.0</ele>
        <time>2022-07-24T10:05:04Z</time>
      </trkpt>
      <trkpt lat="46.3648400" lon="5.9596410">
        <ele>1193.2</ele>
        <time>2022-07-24T10:05:10Z</time>
      </trkpt>
      <trkpt lat="46.3648200" lon="5.9595770">
        <ele>1194.4</ele>
        <time>2022-07-24T10:05:14Z</time>
      </trkpt>
      <trkpt lat="46.3648300" lon="5.9595450">
        <ele>1195.0</ele>
        <time>2022-07-24T10:05:16Z</time>
      </trkpt>
      <trkpt lat="46.3648650" lon="5.9595280">
        <ele>1195.6</ele>
        <time>2022-07-24T10:05:19Z</time>
      </trkpt>
      <trkpt lat="46.3648870" lon="5.9595220">
        <ele>1196.0</ele>
        <time>2022-07-24T10:05:21Z</time>
      </trkpt>
      <trkpt lat="46.3649370" lon="5.9595150">
        <ele>1196.6</ele>
        <time>2022-07-24T10:05:25Z</time>
      </trkpt>
      <trkpt lat="46.3649640" lon="5.9594720">
        <ele>1197.2</ele>
        <time>2022-07-24T10:05:28Z</time>
      </trkpt>
      <trkpt lat="46.3649600" lon="5.9594360">
        <ele>1197.6</ele>
        <time>2022-07-24T10:05:30Z</time>
      </trkpt>
      <trkpt lat="46.3649300" lon="5.9593960">
        <ele>1198.0</ele>
        <time>2022-07-24T10:05:33Z</time>
      </trkpt>
      <trkpt lat="46.3648540" lon="5.9593030">
        <ele>1198.6</ele>
        <time>2022-07-24T10:05:40Z</time>
      </trkpt>
      <trkpt lat="46.3648300" lon="5.9592770">
        <ele>1199.2</ele>
        <time>2022-07-24T10:05:42Z</time>
      </trkpt>
      <trkpt lat="46.3647860" lon="5.9592480">
        <ele>1199.8</ele>
        <time>2022-07-24T10:05:45Z</time>
      </trkpt>
      <trkpt lat="46.3646920" lon="5.9592170">
        <ele>1200.8</ele>
        <time>2022-07-24T10:05:49Z</time>
      </trkpt>
      <trkpt lat="46.3646680" lon="5.9592120">
        <ele>1200.8</ele>
        <time>2022-07-24T10:05:50Z</time>
      </trkpt>
      <trkpt lat="46.3645630" lon="5.9591990">
        <ele>1201.0</ele>
        <time>2022-07-24T10:05:56Z</time>
      </trkpt>
      <trkpt lat="46.3644450" lon="5.9591530">
        <ele>1201.2</ele>
        <time>2022-07-24T10:06:02Z</time>
      </trkpt>
      <trkpt lat="46.3643650" lon="5.9590460">
        <ele>1201.8</ele>
        <time>2022-07-24T10:06:09Z</time>
      </trkpt>
      <trkpt lat="46.3643260" lon="5.9589710">
        <ele>1202.2</ele>
        <time>2022-07-24T10:06:12Z</time>
      </trkpt>
      <trkpt lat="46.3642990" lon="5.9589290">
        <ele>1202.4</ele>
        <time>2022-07-24T10:06:14Z</time>
      </trkpt>
      <trkpt lat="46.3641720" lon="5.9587790">
        <ele>1202.6</ele>
        <time>2022-07-24T10:06:22Z</time>
      </trkpt>
      <trkpt lat="46.3641390" lon="5.9587570">
        <ele>1202.6</ele>
        <time>2022-07-24T10:06:24Z</time>
      </trkpt>
      <trkpt lat="46.3640840" lon="5.9587240">
        <ele>1202.8</ele>
        <time>2022-07-24T10:06:28Z</time>
      </trkpt>
      <trkpt lat="46.3639820" lon="5.9586400">
        <ele>1203.2</ele>
        <time>2022-07-24T10:06:35Z</time>
      </trkpt>
      <trkpt lat="46.3639040" lon="5.9585450">
        <ele>1204.2</ele>
        <time>2022-07-24T10:06:41Z</time>
      </trkpt>
      <trkpt lat="46.3638680" lon="5.9585030">
        <ele>1205.2</ele>
        <time>2022-07-24T10:06:44Z</time>
      </trkpt>
      <trkpt lat="46.3638450" lon="5.9584680">
        <ele>1205.6</ele>
        <time>2022-07-24T10:06:46Z</time>
      </trkpt>
      <trkpt lat="46.3638030" lon="5.9583640">
        <ele>1206.6</ele>
        <time>2022-07-24T10:06:51Z</time>
      </trkpt>
      <trkpt lat="46.3637770" lon="5.9581480">
        <ele>1207.8</ele>
        <time>2022-07-24T10:06:59Z</time>
      </trkpt>
      <trkpt lat="46.3637770" lon="5.9581200">
        <ele>1208.0</ele>
        <time>2022-07-24T10:07:00Z</time>
      </trkpt>
      <trkpt lat="46.3637900" lon="5.9579240">
        <ele>1208.6</ele>
        <time>2022-07-24T10:07:07Z</time>
      </trkpt>
      <trkpt lat="46.3637960" lon="5.9578630">
        <ele>1208.8</ele>
        <time>2022-07-24T10:07:09Z</time>
      </trkpt>
      <trkpt lat="46.3638380" lon="5.9576930">
        <ele>1209.8</ele>
        <time>2022-07-24T10:07:15Z</time>
      </trkpt>
      <trkpt lat="46.3638880" lon="5.9575390">
        <ele>1210.6</ele>
        <time>2022-07-24T10:07:21Z</time>
      </trkpt>
      <trkpt lat="46.3639240" lon="5.9574560">
        <ele>1211.0</ele>
        <time>2022-07-24T10:07:23Z</time>
      </trkpt>
      <trkpt lat="46.3639990" lon="5.9572810">
        <ele>1211.2</ele>
        <time>2022-07-24T10:07:26Z</time>
      </trkpt>
      <trkpt lat="46.3641410" lon="5.9569170">
        <ele>1211.2</ele>
        <time>2022-07-24T10:07:30Z</time>
      </trkpt>
      <trkpt lat="46.3641820" lon="5.9568280">
        <ele>1211.2</ele>
        <time>2022-07-24T10:07:31Z</time>
      </trkpt>
      <trkpt lat="46.3642890" lon="5.9567130">
        <ele>1211.0</ele>
        <time>2022-07-24T10:07:33Z</time>
      </trkpt>
      <trkpt lat="46.3644480" lon="5.9566430">
        <ele>1209.6</ele>
        <time>2022-07-24T10:07:36Z</time>
      </trkpt>
      <trkpt lat="46.3644980" lon="5.9566310">
        <ele>1208.8</ele>
        <time>2022-07-24T10:07:37Z</time>
      </trkpt>
      <trkpt lat="46.3645450" lon="5.9566190">
        <ele>1208.6</ele>
        <time>2022-07-24T10:07:38Z</time>
      </trkpt>
      <trkpt lat="46.3645880" lon="5.9566030">
        <ele>1208.4</ele>
        <time>2022-07-24T10:07:39Z</time>
      </trkpt>
      <trkpt lat="46.3646460" lon="5.9565420">
        <ele>1208.2</ele>
        <time>2022-07-24T10:07:41Z</time>
      </trkpt>
      <trkpt lat="46.3646480" lon="5.9564390">
        <ele>1208.2</ele>
        <time>2022-07-24T10:07:44Z</time>
      </trkpt>
      <trkpt lat="46.3645760" lon="5.9563190">
        <ele>1209.0</ele>
        <time>2022-07-24T10:07:49Z</time>
      </trkpt>
      <trkpt lat="46.3645410" lon="5.9562790">
        <ele>1209.6</ele>
        <time>2022-07-24T10:07:51Z</time>
      </trkpt>
      <trkpt lat="46.3644930" lon="5.9562250">
        <ele>1210.4</ele>
        <time>2022-07-24T10:07:54Z</time>
      </trkpt>
      <trkpt lat="46.3644560" lon="5.9561930">
        <ele>1210.8</ele>
        <time>2022-07-24T10:07:56Z</time>
      </trkpt>
      <trkpt lat="46.3644380" lon="5.9561810">
        <ele>1211.0</ele>
        <time>2022-07-24T10:07:57Z</time>
      </trkpt>
      <trkpt lat="46.3643500" lon="5.9561410">
        <ele>1211.8</ele>
        <time>2022-07-24T10:08:02Z</time>
      </trkpt>
      <trkpt lat="46.3642780" lon="5.9561170">
        <ele>1212.2</ele>
        <time>2022-07-24T10:08:06Z</time>
      </trkpt>
      <trkpt lat="46.3642030" lon="5.9560930">
        <ele>1212.8</ele>
        <time>2022-07-24T10:08:10Z</time>
      </trkpt>
      <trkpt lat="46.3641130" lon="5.9560740">
        <ele>1213.4</ele>
        <time>2022-07-24T10:08:15Z</time>
      </trkpt>
      <trkpt lat="46.3640540" lon="5.9560550">
        <ele>1214.0</ele>
        <time>2022-07-24T10:08:19Z</time>
      </trkpt>
      <trkpt lat="46.3640090" lon="5.9560390">
        <ele>1214.4</ele>
        <time>2022-07-24T10:08:22Z</time>
      </trkpt>
      <trkpt lat="46.3639270" lon="5.9559980">
        <ele>1215.0</ele>
        <time>2022-07-24T10:08:27Z</time>
      </trkpt>
      <trkpt lat="46.3638530" lon="5.9559820">
        <ele>1216.0</ele>
        <time>2022-07-24T10:08:32Z</time>
      </trkpt>
      <trkpt lat="46.3638380" lon="5.9559720">
        <ele>1216.2</ele>
        <time>2022-07-24T10:08:33Z</time>
      </trkpt>
      <trkpt lat="46.3637770" lon="5.9559440">
        <ele>1217.2</ele>
        <time>2022-07-24T10:08:37Z</time>
      </trkpt>
      <trkpt lat="46.3637040" lon="5.9559090">
        <ele>1218.0</ele>
        <time>2022-07-24T10:08:42Z</time>
      </trkpt>
      <trkpt lat="46.3636600" lon="5.9558880">
        <ele>1218.2</ele>
        <time>2022-07-24T10:08:45Z</time>
      </trkpt>
      <trkpt lat="46.3635760" lon="5.9558560">
        <ele>1218.8</ele>
        <time>2022-07-24T10:08:50Z</time>
      </trkpt>
      <trkpt lat="46.3635260" lon="5.9558410">
        <ele>1219.4</ele>
        <time>2022-07-24T10:08:53Z</time>
      </trkpt>
      <trkpt lat="46.3634820" lon="5.9558260">
        <ele>1220.0</ele>
        <time>2022-07-24T10:08:56Z</time>
      </trkpt>
      <trkpt lat="46.3634060" lon="5.9558130">
        <ele>1220.6</ele>
        <time>2022-07-24T10:09:00Z</time>
      </trkpt>
      <trkpt lat="46.3633270" lon="5.9557940">
        <ele>1221.0</ele>
        <time>2022-07-24T10:09:04Z</time>
      </trkpt>
      <trkpt lat="46.3632090" lon="5.9557420">
        <ele>1221.6</ele>
        <time>2022-07-24T10:09:10Z</time>
      </trkpt>
      <trkpt lat="46.3631760" lon="5.9557260">
        <ele>1221.8</ele>
        <time>2022-07-24T10:09:12Z</time>
      </trkpt>
      <trkpt lat="46.3630290" lon="5.9556260">
        <ele>1222.8</ele>
        <time>2022-07-24T10:09:20Z</time>
      </trkpt>
      <trkpt lat="46.3628870" lon="5.9555460">
        <ele>1223.6</ele>
        <time>2022-07-24T10:09:28Z</time>
      </trkpt>
      <trkpt lat="46.3628060" lon="5.9555220">
        <ele>1223.8</ele>
        <time>2022-07-24T10:09:32Z</time>
      </trkpt>
      <trkpt lat="46.3627520" lon="5.9555350">
        <ele>1224.0</ele>
        <time>2022-07-24T10:09:34Z</time>
      </trkpt>
      <trkpt lat="46.3625910" lon="5.9555510">
        <ele>1224.2</ele>
        <time>2022-07-24T10:09:39Z</time>
      </trkpt>
      <trkpt lat="46.3624110" lon="5.9554790">
        <ele>1224.4</ele>
        <time>2022-07-24T10:09:46Z</time>
      </trkpt>
      <trkpt lat="46.3622120" lon="5.9554090">
        <ele>1224.6</ele>
        <time>2022-07-24T10:09:52Z</time>
      </trkpt>
      <trkpt lat="46.3619460" lon="5.9553310">
        <ele>1224.8</ele>
        <time>2022-07-24T10:10:01Z</time>
      </trkpt>
      <trkpt lat="46.3618320" lon="5.9553040">
        <ele>1225.0</ele>
        <time>2022-07-24T10:10:05Z</time>
      </trkpt>
      <trkpt lat="46.3616810" lon="5.9552560">
        <ele>1225.6</ele>
        <time>2022-07-24T10:10:10Z</time>
      </trkpt>
      <trkpt lat="46.3615330" lon="5.9552000">
        <ele>1225.8</ele>
        <time>2022-07-24T10:10:15Z</time>
      </trkpt>
      <trkpt lat="46.3614440" lon="5.9551620">
        <ele>1226.0</ele>
        <time>2022-07-24T10:10:18Z</time>
      </trkpt>
      <trkpt lat="46.3612850" lon="5.9550690">
        <ele>1226.4</ele>
        <time>2022-07-24T10:10:24Z</time>
      </trkpt>
      <trkpt lat="46.3611710" lon="5.9549830">
        <ele>1226.8</ele>
        <time>2022-07-24T10:10:29Z</time>
      </trkpt>
      <trkpt lat="46.3610880" lon="5.9549060">
        <ele>1227.2</ele>
        <time>2022-07-24T10:10:33Z</time>
      </trkpt>
      <trkpt lat="46.3609850" lon="5.9548020">
        <ele>1228.0</ele>
        <time>2022-07-24T10:10:38Z</time>
      </trkpt>
      <trkpt lat="46.3609440" lon="5.9547570">
        <ele>1228.4</ele>
        <time>2022-07-24T10:10:40Z</time>
      </trkpt>
      <trkpt lat="46.3608140" lon="5.9545920">
        <ele>1229.4</ele>
        <time>2022-07-24T10:10:47Z</time>
      </trkpt>
      <trkpt lat="46.3607030" lon="5.9544310">
        <ele>1230.6</ele>
        <time>2022-07-24T10:10:54Z</time>
      </trkpt>
      <trkpt lat="46.3606550" lon="5.9543600">
        <ele>1231.2</ele>
        <time>2022-07-24T10:10:57Z</time>
      </trkpt>
      <trkpt lat="46.3606000" lon="5.9542870">
        <ele>1231.8</ele>
        <time>2022-07-24T10:11:00Z</time>
      </trkpt>
      <trkpt lat="46.3604610" lon="5.9541600">
        <ele>1232.6</ele>
        <time>2022-07-24T10:11:06Z</time>
      </trkpt>
      <trkpt lat="46.3604090" lon="5.9541310">
        <ele>1232.8</ele>
        <time>2022-07-24T10:11:08Z</time>
      </trkpt>
      <trkpt lat="46.3602330" lon="5.9540820">
        <ele>1233.4</ele>
        <time>2022-07-24T10:11:15Z</time>
      </trkpt>
      <trkpt lat="46.3601550" lon="5.9540610">
        <ele>1234.0</ele>
        <time>2022-07-24T10:11:18Z</time>
      </trkpt>
      <trkpt lat="46.3600440" lon="5.9540310">
        <ele>1235.0</ele>
        <time>2022-07-24T10:11:23Z</time>
      </trkpt>
      <trkpt lat="46.3600080" lon="5.9540090">
        <ele>1235.4</ele>
        <time>2022-07-24T10:11:25Z</time>
      </trkpt>
      <trkpt lat="46.3599340" lon="5.9539610">
        <ele>1236.0</ele>
        <time>2022-07-24T10:11:30Z</time>
      </trkpt>
      <trkpt lat="46.3599330" lon="5.9539590">
        <ele>1236.2</ele>
        <time>2022-07-24T10:11:31Z</time>
      </trkpt>
      <trkpt lat="46.3599330" lon="5.9539560">
        <ele>1236.4</ele>
        <time>2022-07-24T10:11:32Z</time>
      </trkpt>
      <trkpt lat="46.3598100" lon="5.9538250">
        <ele>1237.4</ele>
        <time>2022-07-24T10:12:39Z</time>
      </trkpt>
      <trkpt lat="46.3598040" lon="5.9538110">
        <ele>1237.4</ele>
        <time>2022-07-24T10:12:40Z</time>
      </trkpt>
      <trkpt lat="46.3598030" lon="5.9537990">
        <ele>1237.4</ele>
        <time>2022-07-24T10:12:41Z</time>
      </trkpt>
      <trkpt lat="46.3598050" lon="5.9537980">
        <ele>1237.2</ele>
        <time>2022-07-24T10:12:43Z</time>
      </trkpt>
      <trkpt lat="46.3598350" lon="5.9538300">
        <ele>1237.2</ele>
        <time>2022-07-24T10:12:48Z</time>
      </trkpt>
      <trkpt lat="46.3598480" lon="5.9538410">
        <ele>1237.2</ele>
        <time>2022-07-24T10:12:49Z</time>
      </trkpt>
      <trkpt lat="46.3598760" lon="5.9538460">
        <ele>1237.2</ele>
        <time>2022-07-24T10:12:51Z</time>
      </trkpt>
      <trkpt lat="46.3599040" lon="5.9538130">
        <ele>1237.2</ele>
        <time>2022-07-24T10:12:54Z</time>
      </trkpt>
      <trkpt lat="46.3599110" lon="5.9537590">
        <ele>1237.2</ele>
        <time>2022-07-24T10:12:57Z</time>
      </trkpt>
      <trkpt lat="46.3599160" lon="5.9537000">
        <ele>1237.4</ele>
        <time>2022-07-24T10:13:00Z</time>
      </trkpt>
      <trkpt lat="46.3599260" lon="5.9535880">
        <ele>1238.4</ele>
        <time>2022-07-24T10:13:06Z</time>
      </trkpt>
      <trkpt lat="46.3599310" lon="5.9535370">
        <ele>1238.8</ele>
        <time>2022-07-24T10:13:09Z</time>
      </trkpt>
      <trkpt lat="46.3599260" lon="5.9534710">
        <ele>1239.4</ele>
        <time>2022-07-24T10:13:13Z</time>
      </trkpt>
      <trkpt lat="46.3599120" lon="5.9533920">
        <ele>1240.2</ele>
        <time>2022-07-24T10:13:18Z</time>
      </trkpt>
      <trkpt lat="46.3599070" lon="5.9533760">
        <ele>1240.6</ele>
        <time>2022-07-24T10:13:19Z</time>
      </trkpt>
      <trkpt lat="46.3598970" lon="5.9533140">
        <ele>1241.8</ele>
        <time>2022-07-24T10:13:23Z</time>
      </trkpt>
      <trkpt lat="46.3598900" lon="5.9532830">
        <ele>1242.4</ele>
        <time>2022-07-24T10:13:25Z</time>
      </trkpt>
      <trkpt lat="46.3598830" lon="5.9532420">
        <ele>1243.0</ele>
        <time>2022-07-24T10:13:28Z</time>
      </trkpt>
      <trkpt lat="46.3598640" lon="5.9532020">
        <ele>1244.0</ele>
        <time>2022-07-24T10:13:31Z</time>
      </trkpt>
      <trkpt lat="46.3598490" lon="5.9531760">
        <ele>1244.6</ele>
        <time>2022-07-24T10:13:33Z</time>
      </trkpt>
      <trkpt lat="46.3598340" lon="5.9531490">
        <ele>1245.2</ele>
        <time>2022-07-24T10:13:35Z</time>
      </trkpt>
      <trkpt lat="46.3597850" lon="5.9530700">
        <ele>1246.0</ele>
        <time>2022-07-24T10:13:41Z</time>
      </trkpt>
      <trkpt lat="46.3597610" lon="5.9530370">
        <ele>1246.2</ele>
        <time>2022-07-24T10:13:43Z</time>
      </trkpt>
      <trkpt lat="46.3596880" lon="5.9529360">
        <ele>1247.0</ele>
        <time>2022-07-24T10:13:48Z</time>
      </trkpt>
      <trkpt lat="46.3595940" lon="5.9528360">
        <ele>1247.2</ele>
        <time>2022-07-24T10:13:54Z</time>
      </trkpt>
      <trkpt lat="46.3595790" lon="5.9528230">
        <ele>1247.4</ele>
        <time>2022-07-24T10:13:55Z</time>
      </trkpt>
      <trkpt lat="46.3594260" lon="5.9527390">
        <ele>1248.2</ele>
        <time>2022-07-24T10:14:03Z</time>
      </trkpt>
      <trkpt lat="46.3594080" lon="5.9527360">
        <ele>1248.4</ele>
        <time>2022-07-24T10:14:05Z</time>
      </trkpt>
      <trkpt lat="46.3594070" lon="5.9527380">
        <ele>1248.6</ele>
        <time>2022-07-24T10:14:06Z</time>
      </trkpt>
      <trkpt lat="46.3593540" lon="5.9527100">
        <ele>1249.0</ele>
        <time>2022-07-24T10:14:42Z</time>
      </trkpt>
      <trkpt lat="46.3592160" lon="5.9526320">
        <ele>1249.0</ele>
        <time>2022-07-24T10:14:48Z</time>
      </trkpt>
      <trkpt lat="46.3590420" lon="5.9525200">
        <ele>1248.8</ele>
        <time>2022-07-24T10:14:54Z</time>
      </trkpt>
      <trkpt lat="46.3589740" lon="5.9524580">
        <ele>1248.8</ele>
        <time>2022-07-24T10:15:00Z</time>
      </trkpt>
      <trkpt lat="46.3589150" lon="5.9524170">
        <ele>1249.0</ele>
        <time>2022-07-24T10:15:08Z</time>
      </trkpt>
      <trkpt lat="46.3589070" lon="5.9524180">
        <ele>1249.0</ele>
        <time>2022-07-24T10:15:10Z</time>
      </trkpt>
      <trkpt lat="46.3588520" lon="5.9523700">
        <ele>1249.0</ele>
        <time>2022-07-24T10:15:18Z</time>
      </trkpt>
      <trkpt lat="46.3588270" lon="5.9523550">
        <ele>1249.0</ele>
        <time>2022-07-24T10:15:19Z</time>
      </trkpt>
      <trkpt lat="46.3586900" lon="5.9522930">
        <ele>1248.8</ele>
        <time>2022-07-24T10:15:25Z</time>
      </trkpt>
      <trkpt lat="46.3585870" lon="5.9522620">
        <ele>1249.0</ele>
        <time>2022-07-24T10:15:32Z</time>
      </trkpt>
      <trkpt lat="46.3585610" lon="5.9522480">
        <ele>1249.4</ele>
        <time>2022-07-24T10:15:34Z</time>
      </trkpt>
      <trkpt lat="46.3585050" lon="5.9522130">
        <ele>1250.4</ele>
        <time>2022-07-24T10:15:40Z</time>
      </trkpt>
      <trkpt lat="46.3585080" lon="5.9522090">
        <ele>1250.8</ele>
        <time>2022-07-24T10:15:43Z</time>
      </trkpt>
      <trkpt lat="46.3584560" lon="5.9521660">
        <ele>1251.2</ele>
        <time>2022-07-24T10:15:52Z</time>
      </trkpt>
      <trkpt lat="46.3584370" lon="5.9521490">
        <ele>1251.2</ele>
        <time>2022-07-24T10:15:53Z</time>
      </trkpt>
      <trkpt lat="46.3583400" lon="5.9520630">
        <ele>1251.2</ele>
        <time>2022-07-24T10:15:56Z</time>
      </trkpt>
      <trkpt lat="46.3582920" lon="5.9520340">
        <ele>1251.2</ele>
        <time>2022-07-24T10:15:57Z</time>
      </trkpt>
      <trkpt lat="46.3581890" lon="5.9519790">
        <ele>1251.2</ele>
        <time>2022-07-24T10:15:59Z</time>
      </trkpt>
      <trkpt lat="46.3580610" lon="5.9518840">
        <ele>1251.0</ele>
        <time>2022-07-24T10:16:02Z</time>
      </trkpt>
      <trkpt lat="46.3579570" lon="5.9518020">
        <ele>1249.0</ele>
        <time>2022-07-24T10:16:06Z</time>
      </trkpt>
      <trkpt lat="46.3578560" lon="5.9517340">
        <ele>1248.2</ele>
        <time>2022-07-24T10:16:13Z</time>
      </trkpt>
      <trkpt lat="46.3577410" lon="5.9516470">
        <ele>1249.2</ele>
        <time>2022-07-24T10:16:19Z</time>
      </trkpt>
      <trkpt lat="46.3576210" lon="5.9515420">
        <ele>1249.6</ele>
        <time>2022-07-24T10:16:26Z</time>
      </trkpt>
      <trkpt lat="46.3575390" lon="5.9514470">
        <ele>1249.6</ele>
        <time>2022-07-24T10:16:32Z</time>
      </trkpt>
      <trkpt lat="46.3574430" lon="5.9513520">
        <ele>1249.8</ele>
        <time>2022-07-24T10:16:38Z</time>
      </trkpt>
      <trkpt lat="46.3574160" lon="5.9513220">
        <ele>1249.8</ele>
        <time>2022-07-24T10:16:40Z</time>
      </trkpt>
      <trkpt lat="46.3573950" lon="5.9512850">
        <ele>1249.8</ele>
        <time>2022-07-24T10:16:42Z</time>
      </trkpt>
      <trkpt lat="46.3573630" lon="5.9512550">
        <ele>1250.0</ele>
        <time>2022-07-24T10:16:44Z</time>
      </trkpt>
      <trkpt lat="46.3572340" lon="5.9511630">
        <ele>1250.0</ele>
        <time>2022-07-24T10:16:50Z</time>
      </trkpt>
      <trkpt lat="46.3572200" lon="5.9511570">
        <ele>1250.0</ele>
        <time>2022-07-24T10:16:53Z</time>
      </trkpt>
      <trkpt lat="46.3571010" lon="5.9509100">
        <ele>1250.4</ele>
        <time>2022-07-24T10:17:32Z</time>
      </trkpt>
      <trkpt lat="46.3570630" lon="5.9508440">
        <ele>1250.8</ele>
        <time>2022-07-24T10:17:36Z</time>
      </trkpt>
      <trkpt lat="46.3570110" lon="5.9507740">
        <ele>1252.0</ele>
        <time>2022-07-24T10:17:42Z</time>
      </trkpt>
      <trkpt lat="46.3570080" lon="5.9507740">
        <ele>1252.2</ele>
        <time>2022-07-24T10:17:43Z</time>
      </trkpt>
      <trkpt lat="46.3570040" lon="5.9507710">
        <ele>1252.2</ele>
        <time>2022-07-24T10:17:44Z</time>
      </trkpt>
      <trkpt lat="46.3565290" lon="5.9496430">
        <ele>1270.6</ele>
        <time>2022-07-24T10:20:16Z</time>
      </trkpt>
      <trkpt lat="46.3565000" lon="5.9495820">
        <ele>1271.0</ele>
        <time>2022-07-24T10:20:20Z</time>
      </trkpt>
      <trkpt lat="46.3564040" lon="5.9494270">
        <ele>1271.4</ele>
        <time>2022-07-24T10:20:31Z</time>
      </trkpt>
      <trkpt lat="46.3563160" lon="5.9493320">
        <ele>1272.6</ele>
        <time>2022-07-24T10:20:40Z</time>
      </trkpt>
      <trkpt lat="46.3563080" lon="5.9493180">
        <ele>1272.6</ele>
        <time>2022-07-24T10:20:41Z</time>
      </trkpt>
      <trkpt lat="46.3562680" lon="5.9492610">
        <ele>1273.6</ele>
        <time>2022-07-24T10:20:46Z</time>
      </trkpt>
      <trkpt lat="46.3561880" lon="5.9491480">
        <ele>1274.2</ele>
        <time>2022-07-24T10:20:53Z</time>
      </trkpt>
      <trkpt lat="46.3560920" lon="5.9490060">
        <ele>1274.8</ele>
        <time>2022-07-24T10:21:02Z</time>
      </trkpt>
      <trkpt lat="46.3560430" lon="5.9489490">
        <ele>1275.0</ele>
        <time>2022-07-24T10:21:06Z</time>
      </trkpt>
      <trkpt lat="46.3560020" lon="5.9488880">
        <ele>1275.6</ele>
        <time>2022-07-24T10:21:10Z</time>
      </trkpt>
      <trkpt lat="46.3559390" lon="5.9488230">
        <ele>1276.6</ele>
        <time>2022-07-24T10:21:16Z</time>
      </trkpt>
      <trkpt lat="46.3559280" lon="5.9488170">
        <ele>1276.6</ele>
        <time>2022-07-24T10:21:17Z</time>
      </trkpt>
      <trkpt lat="46.3557590" lon="5.9486630">
        <ele>1277.4</ele>
        <time>2022-07-24T10:21:30Z</time>
      </trkpt>
      <trkpt lat="46.3556880" lon="5.9485850">
        <ele>1277.8</ele>
        <time>2022-07-24T10:21:36Z</time>
      </trkpt>
      <trkpt lat="46.3556780" lon="5.9485660">
        <ele>1277.8</ele>
        <time>2022-07-24T10:21:37Z</time>
      </trkpt>
      <trkpt lat="46.3556490" lon="5.9485060">
        <ele>1278.8</ele>
        <time>2022-07-24T10:21:41Z</time>
      </trkpt>
      <trkpt lat="46.3556290" lon="5.9484740">
        <ele>1279.0</ele>
        <time>2022-07-24T10:21:43Z</time>
      </trkpt>
      <trkpt lat="46.3556080" lon="5.9484500">
        <ele>1279.2</ele>
        <time>2022-07-24T10:21:45Z</time>
      </trkpt>
      <trkpt lat="46.3555590" lon="5.9483930">
        <ele>1279.8</ele>
        <time>2022-07-24T10:21:49Z</time>
      </trkpt>
      <trkpt lat="46.3555410" lon="5.9483740">
        <ele>1279.8</ele>
        <time>2022-07-24T10:21:50Z</time>
      </trkpt>
      <trkpt lat="46.3554590" lon="5.9483020">
        <ele>1280.0</ele>
        <time>2022-07-24T10:21:55Z</time>
      </trkpt>
      <trkpt lat="46.3553510" lon="5.9482070">
        <ele>1280.2</ele>
        <time>2022-07-24T10:22:02Z</time>
      </trkpt>
      <trkpt lat="46.3553310" lon="5.9481450">
        <ele>1280.2</ele>
        <time>2022-07-24T10:22:07Z</time>
      </trkpt>
      <trkpt lat="46.3553120" lon="5.9480810">
        <ele>1280.6</ele>
        <time>2022-07-24T10:22:12Z</time>
      </trkpt>
      <trkpt lat="46.3552800" lon="5.9480240">
        <ele>1281.0</ele>
        <time>2022-07-24T10:22:17Z</time>
      </trkpt>
      <trkpt lat="46.3552340" lon="5.9480070">
        <ele>1281.6</ele>
        <time>2022-07-24T10:22:25Z</time>
      </trkpt>
      <trkpt lat="46.3552330" lon="5.9480030">
        <ele>1281.8</ele>
        <time>2022-07-24T10:22:27Z</time>
      </trkpt>
      <trkpt lat="46.3549160" lon="5.9476020">
        <ele>1284.2</ele>
        <time>2022-07-24T10:23:09Z</time>
      </trkpt>
      <trkpt lat="46.3548650" lon="5.9475540">
        <ele>1284.4</ele>
        <time>2022-07-24T10:23:12Z</time>
      </trkpt>
      <trkpt lat="46.3547720" lon="5.9474490">
        <ele>1284.6</ele>
        <time>2022-07-24T10:23:18Z</time>
      </trkpt>
      <trkpt lat="46.3546750" lon="5.9473770">
        <ele>1284.8</ele>
        <time>2022-07-24T10:23:25Z</time>
      </trkpt>
      <trkpt lat="46.3546430" lon="5.9473520">
        <ele>1285.8</ele>
        <time>2022-07-24T10:23:28Z</time>
      </trkpt>
      <trkpt lat="46.3545350" lon="5.9472690">
        <ele>1286.6</ele>
        <time>2022-07-24T10:23:36Z</time>
      </trkpt>
      <trkpt lat="46.3544880" lon="5.9472190">
        <ele>1286.8</ele>
        <time>2022-07-24T10:23:40Z</time>
      </trkpt>
      <trkpt lat="46.3544010" lon="5.9471490">
        <ele>1288.0</ele>
        <time>2022-07-24T10:23:47Z</time>
      </trkpt>
      <trkpt lat="46.3543940" lon="5.9471450">
        <ele>1288.0</ele>
        <time>2022-07-24T10:23:48Z</time>
      </trkpt>
      <trkpt lat="46.3543630" lon="5.9470680">
        <ele>1288.2</ele>
        <time>2022-07-24T10:23:53Z</time>
      </trkpt>
      <trkpt lat="46.3543580" lon="5.9469540">
        <ele>1288.2</ele>
        <time>2022-07-24T10:23:56Z</time>
      </trkpt>
      <trkpt lat="46.3543720" lon="5.9468300">
        <ele>1287.8</ele>
        <time>2022-07-24T10:24:01Z</time>
      </trkpt>
      <trkpt lat="46.3543730" lon="5.9468210">
        <ele>1287.8</ele>
        <time>2022-07-24T10:24:02Z</time>
      </trkpt>
      <trkpt lat="46.3543680" lon="5.9468120">
        <ele>1287.8</ele>
        <time>2022-07-24T10:24:03Z</time>
      </trkpt>
      <trkpt lat="46.3543570" lon="5.9465090">
        <ele>1287.8</ele>
        <time>2022-07-24T10:25:42Z</time>
      </trkpt>
      <trkpt lat="46.3543740" lon="5.9464500">
        <ele>1287.8</ele>
        <time>2022-07-24T10:25:45Z</time>
      </trkpt>
      <trkpt lat="46.3544040" lon="5.9463680">
        <ele>1288.4</ele>
        <time>2022-07-24T10:25:49Z</time>
      </trkpt>
      <trkpt lat="46.3544250" lon="5.9462890">
        <ele>1288.6</ele>
        <time>2022-07-24T10:25:52Z</time>
      </trkpt>
      <trkpt lat="46.3544640" lon="5.9462200">
        <ele>1289.4</ele>
        <time>2022-07-24T10:25:56Z</time>
      </trkpt>
      <trkpt lat="46.3544880" lon="5.9461880">
        <ele>1289.6</ele>
        <time>2022-07-24T10:25:58Z</time>
      </trkpt>
      <trkpt lat="46.3545400" lon="5.9461500">
        <ele>1290.0</ele>
        <time>2022-07-24T10:26:03Z</time>
      </trkpt>
      <trkpt lat="46.3545560" lon="5.9461150">
        <ele>1290.2</ele>
        <time>2022-07-24T10:26:05Z</time>
      </trkpt>
      <trkpt lat="46.3545640" lon="5.9460720">
        <ele>1290.6</ele>
        <time>2022-07-24T10:26:07Z</time>
      </trkpt>
      <trkpt lat="46.3545840" lon="5.9460000">
        <ele>1291.4</ele>
        <time>2022-07-24T10:26:10Z</time>
      </trkpt>
      <trkpt lat="46.3545930" lon="5.9459750">
        <ele>1291.4</ele>
        <time>2022-07-24T10:26:11Z</time>
      </trkpt>
      <trkpt lat="46.3546370" lon="5.9458520">
        <ele>1292.2</ele>
        <time>2022-07-24T10:26:16Z</time>
      </trkpt>
      <trkpt lat="46.3546450" lon="5.9458290">
        <ele>1292.2</ele>
        <time>2022-07-24T10:26:17Z</time>
      </trkpt>
      <trkpt lat="46.3546840" lon="5.9457280">
        <ele>1292.4</ele>
        <time>2022-07-24T10:26:21Z</time>
      </trkpt>
      <trkpt lat="46.3546960" lon="5.9457000">
        <ele>1292.6</ele>
        <time>2022-07-24T10:26:22Z</time>
      </trkpt>
      <trkpt lat="46.3547520" lon="5.9455510">
        <ele>1293.4</ele>
        <time>2022-07-24T10:26:28Z</time>
      </trkpt>
      <trkpt lat="46.3547880" lon="5.9454310">
        <ele>1293.6</ele>
        <time>2022-07-24T10:26:32Z</time>
      </trkpt>
      <trkpt lat="46.3548220" lon="5.9453700">
        <ele>1293.8</ele>
        <time>2022-07-24T10:26:34Z</time>
      </trkpt>
      <trkpt lat="46.3548760" lon="5.9452160">
        <ele>1294.0</ele>
        <time>2022-07-24T10:26:39Z</time>
      </trkpt>
      <trkpt lat="46.3548950" lon="5.9450500">
        <ele>1294.2</ele>
        <time>2022-07-24T10:26:44Z</time>
      </trkpt>
      <trkpt lat="46.3548970" lon="5.9449040">
        <ele>1294.4</ele>
        <time>2022-07-24T10:26:49Z</time>
      </trkpt>
      <trkpt lat="46.3548740" lon="5.9447950">
        <ele>1294.8</ele>
        <time>2022-07-24T10:26:53Z</time>
      </trkpt>
      <trkpt lat="46.3548470" lon="5.9447510">
        <ele>1295.2</ele>
        <time>2022-07-24T10:26:55Z</time>
      </trkpt>
      <trkpt lat="46.3547660" lon="5.9446840">
        <ele>1295.8</ele>
        <time>2022-07-24T10:26:59Z</time>
      </trkpt>
      <trkpt lat="46.3547210" lon="5.9446590">
        <ele>1296.2</ele>
        <time>2022-07-24T10:27:01Z</time>
      </trkpt>
      <trkpt lat="46.3545790" lon="5.9445530">
        <ele>1296.4</ele>
        <time>2022-07-24T10:27:08Z</time>
      </trkpt>
      <trkpt lat="46.3545000" lon="5.9445260">
        <ele>1296.6</ele>
        <time>2022-07-24T10:27:15Z</time>
      </trkpt>
      <trkpt lat="46.3542930" lon="5.9443980">
        <ele>1296.8</ele>
        <time>2022-07-24T10:28:58Z</time>
      </trkpt>
      <trkpt lat="46.3542380" lon="5.9443840">
        <ele>1296.6</ele>
        <time>2022-07-24T10:29:01Z</time>
      </trkpt>
      <trkpt lat="46.3540740" lon="5.9443400">
        <ele>1296.6</ele>
        <time>2022-07-24T10:29:07Z</time>
      </trkpt>
      <trkpt lat="46.3538470" lon="5.9442970">
        <ele>1296.4</ele>
        <time>2022-07-24T10:29:14Z</time>
      </trkpt>
      <trkpt lat="46.3536750" lon="5.9443190">
        <ele>1296.2</ele>
        <time>2022-07-24T10:29:20Z</time>
      </trkpt>
      <trkpt lat="46.3535470" lon="5.9442540">
        <ele>1296.2</ele>
        <time>2022-07-24T10:29:26Z</time>
      </trkpt>
      <trkpt lat="46.3534570" lon="5.9441310">
        <ele>1297.2</ele>
        <time>2022-07-24T10:29:33Z</time>
      </trkpt>
      <trkpt lat="46.3534070" lon="5.9440850">
        <ele>1298.0</ele>
        <time>2022-07-24T10:29:36Z</time>
      </trkpt>
      <trkpt lat="46.3533360" lon="5.9440470">
        <ele>1299.0</ele>
        <time>2022-07-24T10:29:40Z</time>
      </trkpt>
      <trkpt lat="46.3533130" lon="5.9440270">
        <ele>1299.2</ele>
        <time>2022-07-24T10:29:41Z</time>
      </trkpt>
      <trkpt lat="46.3531730" lon="5.9438850">
        <ele>1299.4</ele>
        <time>2022-07-24T10:29:47Z</time>
      </trkpt>
      <trkpt lat="46.3530560" lon="5.9438100">
        <ele>1299.2</ele>
        <time>2022-07-24T10:29:53Z</time>
      </trkpt>
      <trkpt lat="46.3529570" lon="5.9436990">
        <ele>1299.2</ele>
        <time>2022-07-24T10:29:58Z</time>
      </trkpt>
      <trkpt lat="46.3529010" lon="5.9435070">
        <ele>1299.2</ele>
        <time>2022-07-24T10:30:04Z</time>
      </trkpt>
      <trkpt lat="46.3528630" lon="5.9433570">
        <ele>1299.6</ele>
        <time>2022-07-24T10:30:10Z</time>
      </trkpt>
      <trkpt lat="46.3528150" lon="5.9432000">
        <ele>1299.8</ele>
        <time>2022-07-24T10:30:14Z</time>
      </trkpt>
      <trkpt lat="46.3527220" lon="5.9430450">
        <ele>1300.0</ele>
        <time>2022-07-24T10:30:18Z</time>
      </trkpt>
      <trkpt lat="46.3525460" lon="5.9428830">
        <ele>1299.6</ele>
        <time>2022-07-24T10:30:25Z</time>
      </trkpt>
      <trkpt lat="46.3524420" lon="5.9428650">
        <ele>1299.4</ele>
        <time>2022-07-24T10:30:31Z</time>
      </trkpt>
      <trkpt lat="46.3524410" lon="5.9428650">
        <ele>1299.4</ele>
        <time>2022-07-24T10:30:32Z</time>
      </trkpt>
      <trkpt lat="46.3521040" lon="5.9426570">
        <ele>1301.4</ele>
        <time>2022-07-24T10:32:32Z</time>
      </trkpt>
      <trkpt lat="46.3520800" lon="5.9426080">
        <ele>1301.4</ele>
        <time>2022-07-24T10:32:34Z</time>
      </trkpt>
      <trkpt lat="46.3520440" lon="5.9424670">
        <ele>1301.2</ele>
        <time>2022-07-24T10:32:38Z</time>
      </trkpt>
      <trkpt lat="46.3520270" lon="5.9424060">
        <ele>1301.2</ele>
        <time>2022-07-24T10:32:40Z</time>
      </trkpt>
      <trkpt lat="46.3519370" lon="5.9422200">
        <ele>1301.2</ele>
        <time>2022-07-24T10:32:47Z</time>
      </trkpt>
      <trkpt lat="46.3518310" lon="5.9420230">
        <ele>1301.6</ele>
        <time>2022-07-24T10:32:55Z</time>
      </trkpt>
      <trkpt lat="46.3517010" lon="5.9417350">
        <ele>1301.6</ele>
        <time>2022-07-24T10:33:02Z</time>
      </trkpt>
      <trkpt lat="46.3516630" lon="5.9414850">
        <ele>1301.4</ele>
        <time>2022-07-24T10:33:06Z</time>
      </trkpt>
      <trkpt lat="46.3516110" lon="5.9411280">
        <ele>1301.2</ele>
        <time>2022-07-24T10:33:10Z</time>
      </trkpt>
      <trkpt lat="46.3516120" lon="5.9408490">
        <ele>1300.0</ele>
        <time>2022-07-24T10:33:13Z</time>
      </trkpt>
      <trkpt lat="46.3516180" lon="5.9407660">
        <ele>1299.6</ele>
        <time>2022-07-24T10:33:14Z</time>
      </trkpt>
      <trkpt lat="46.3516240" lon="5.9406830">
        <ele>1298.8</ele>
        <time>2022-07-24T10:33:15Z</time>
      </trkpt>
      <trkpt lat="46.3516350" lon="5.9405170">
        <ele>1297.6</ele>
        <time>2022-07-24T10:33:17Z</time>
      </trkpt>
      <trkpt lat="46.3516490" lon="5.9403420">
        <ele>1296.4</ele>
        <time>2022-07-24T10:33:19Z</time>
      </trkpt>
      <trkpt lat="46.3516590" lon="5.9401630">
        <ele>1295.8</ele>
        <time>2022-07-24T10:33:21Z</time>
      </trkpt>
      <trkpt lat="46.3516630" lon="5.9399330">
        <ele>1295.4</ele>
        <time>2022-07-24T10:33:24Z</time>
      </trkpt>
      <trkpt lat="46.3516670" lon="5.9398650">
        <ele>1295.4</ele>
        <time>2022-07-24T10:33:25Z</time>
      </trkpt>
      <trkpt lat="46.3516670" lon="5.9397990">
        <ele>1295.0</ele>
        <time>2022-07-24T10:33:26Z</time>
      </trkpt>
      <trkpt lat="46.3516310" lon="5.9396010">
        <ele>1294.2</ele>
        <time>2022-07-24T10:33:29Z</time>
      </trkpt>
      <trkpt lat="46.3516130" lon="5.9395350">
        <ele>1293.8</ele>
        <time>2022-07-24T10:33:30Z</time>
      </trkpt>
      <trkpt lat="46.3515420" lon="5.9393640">
        <ele>1293.0</ele>
        <time>2022-07-24T10:33:33Z</time>
      </trkpt>
      <trkpt lat="46.3514880" lon="5.9392860">
        <ele>1292.6</ele>
        <time>2022-07-24T10:33:35Z</time>
      </trkpt>
      <trkpt lat="46.3514300" lon="5.9392400">
        <ele>1292.2</ele>
        <time>2022-07-24T10:33:37Z</time>
      </trkpt>
      <trkpt lat="46.3513610" lon="5.9391790">
        <ele>1291.6</ele>
        <time>2022-07-24T10:33:40Z</time>
      </trkpt>
      <trkpt lat="46.3513410" lon="5.9391390">
        <ele>1291.6</ele>
        <time>2022-07-24T10:33:42Z</time>
      </trkpt>
      <trkpt lat="46.3513380" lon="5.9391120">
        <ele>1291.6</ele>
        <time>2022-07-24T10:33:43Z</time>
      </trkpt>
      <trkpt lat="46.3513620" lon="5.9389700">
        <ele>1291.6</ele>
        <time>2022-07-24T10:33:47Z</time>
      </trkpt>
      <trkpt lat="46.3514180" lon="5.9387430">
        <ele>1291.4</ele>
        <time>2022-07-24T10:33:53Z</time>
      </trkpt>
      <trkpt lat="46.3514490" lon="5.9386080">
        <ele>1291.6</ele>
        <time>2022-07-24T10:33:58Z</time>
      </trkpt>
      <trkpt lat="46.3514620" lon="5.9384890">
        <ele>1291.8</ele>
        <time>2022-07-24T10:34:05Z</time>
      </trkpt>
      <trkpt lat="46.3514660" lon="5.9384740">
        <ele>1292.2</ele>
        <time>2022-07-24T10:34:06Z</time>
      </trkpt>
      <trkpt lat="46.3514710" lon="5.9384530">
        <ele>1293.0</ele>
        <time>2022-07-24T10:34:08Z</time>
      </trkpt>
      <trkpt lat="46.3514730" lon="5.9384470">
        <ele>1293.4</ele>
        <time>2022-07-24T10:34:10Z</time>
      </trkpt>
      <trkpt lat="46.3513960" lon="5.9383300">
        <ele>1294.8</ele>
        <time>2022-07-24T10:34:45Z</time>
      </trkpt>
      <trkpt lat="46.3513550" lon="5.9382910">
        <ele>1294.6</ele>
        <time>2022-07-24T10:34:48Z</time>
      </trkpt>
      <trkpt lat="46.3513060" lon="5.9382590">
        <ele>1294.6</ele>
        <time>2022-07-24T10:34:51Z</time>
      </trkpt>
      <trkpt lat="46.3512300" lon="5.9382000">
        <ele>1294.6</ele>
        <time>2022-07-24T10:34:56Z</time>
      </trkpt>
      <trkpt lat="46.3511050" lon="5.9380880">
        <ele>1296.0</ele>
        <time>2022-07-24T10:35:04Z</time>
      </trkpt>
      <trkpt lat="46.3510050" lon="5.9379590">
        <ele>1296.8</ele>
        <time>2022-07-24T10:35:13Z</time>
      </trkpt>
      <trkpt lat="46.3509910" lon="5.9379140">
        <ele>1297.0</ele>
        <time>2022-07-24T10:35:16Z</time>
      </trkpt>
      <trkpt lat="46.3509730" lon="5.9378200">
        <ele>1297.8</ele>
        <time>2022-07-24T10:35:21Z</time>
      </trkpt>
      <trkpt lat="46.3509660" lon="5.9377790">
        <ele>1298.2</ele>
        <time>2022-07-24T10:35:23Z</time>
      </trkpt>
      <trkpt lat="46.3509280" lon="5.9376960">
        <ele>1298.8</ele>
        <time>2022-07-24T10:35:28Z</time>
      </trkpt>
      <trkpt lat="46.3508810" lon="5.9376570">
        <ele>1299.4</ele>
        <time>2022-07-24T10:35:32Z</time>
      </trkpt>
      <trkpt lat="46.3508450" lon="5.9376330">
        <ele>1300.2</ele>
        <time>2022-07-24T10:35:35Z</time>
      </trkpt>
      <trkpt lat="46.3508330" lon="5.9376260">
        <ele>1300.4</ele>
        <time>2022-07-24T10:35:36Z</time>
      </trkpt>
      <trkpt lat="46.3507620" lon="5.9375440">
        <ele>1301.6</ele>
        <time>2022-07-24T10:35:43Z</time>
      </trkpt>
      <trkpt lat="46.3507560" lon="5.9375290">
        <ele>1301.8</ele>
        <time>2022-07-24T10:35:44Z</time>
      </trkpt>
      <trkpt lat="46.3507230" lon="5.9374070">
        <ele>1302.6</ele>
        <time>2022-07-24T10:35:51Z</time>
      </trkpt>
      <trkpt lat="46.3506980" lon="5.9372800">
        <ele>1303.6</ele>
        <time>2022-07-24T10:35:58Z</time>
      </trkpt>
      <trkpt lat="46.3506930" lon="5.9372600">
        <ele>1303.8</ele>
        <time>2022-07-24T10:35:59Z</time>
      </trkpt>
      <trkpt lat="46.3506630" lon="5.9371100">
        <ele>1304.6</ele>
        <time>2022-07-24T10:36:06Z</time>
      </trkpt>
      <trkpt lat="46.3506550" lon="5.9370750">
        <ele>1304.8</ele>
        <time>2022-07-24T10:36:08Z</time>
      </trkpt>
      <trkpt lat="46.3506370" lon="5.9369620">
        <ele>1305.4</ele>
        <time>2022-07-24T10:36:14Z</time>
      </trkpt>
      <trkpt lat="46.3506220" lon="5.9368740">
        <ele>1305.8</ele>
        <time>2022-07-24T10:36:19Z</time>
      </trkpt>
      <trkpt lat="46.3506110" lon="5.9368400">
        <ele>1306.0</ele>
        <time>2022-07-24T10:36:21Z</time>
      </trkpt>
      <trkpt lat="46.3506090" lon="5.9367440">
        <ele>1307.0</ele>
        <time>2022-07-24T10:36:26Z</time>
      </trkpt>
      <trkpt lat="46.3506130" lon="5.9367290">
        <ele>1307.2</ele>
        <time>2022-07-24T10:36:27Z</time>
      </trkpt>
      <trkpt lat="46.3506160" lon="5.9367130">
        <ele>1307.4</ele>
        <time>2022-07-24T10:36:28Z</time>
      </trkpt>
      <trkpt lat="46.3506090" lon="5.9366430">
        <ele>1308.2</ele>
        <time>2022-07-24T10:36:32Z</time>
      </trkpt>
      <trkpt lat="46.3506080" lon="5.9366360">
        <ele>1308.8</ele>
        <time>2022-07-24T10:36:34Z</time>
      </trkpt>
      <trkpt lat="46.3506080" lon="5.9365300">
        <ele>1309.2</ele>
        <time>2022-07-24T10:37:29Z</time>
      </trkpt>
      <trkpt lat="46.3506000" lon="5.9364750">
        <ele>1309.2</ele>
        <time>2022-07-24T10:37:31Z</time>
      </trkpt>
      <trkpt lat="46.3505770" lon="5.9363250">
        <ele>1309.2</ele>
        <time>2022-07-24T10:37:37Z</time>
      </trkpt>
      <trkpt lat="46.3505690" lon="5.9362300">
        <ele>1308.4</ele>
        <time>2022-07-24T10:37:43Z</time>
      </trkpt>
      <trkpt lat="46.3505690" lon="5.9362040">
        <ele>1308.2</ele>
        <time>2022-07-24T10:37:44Z</time>
      </trkpt>
      <trkpt lat="46.3505550" lon="5.9360680">
        <ele>1307.2</ele>
        <time>2022-07-24T10:37:49Z</time>
      </trkpt>
      <trkpt lat="46.3505430" lon="5.9360380">
        <ele>1307.0</ele>
        <time>2022-07-24T10:37:50Z</time>
      </trkpt>
      <trkpt lat="46.3504670" lon="5.9358970">
        <ele>1306.0</ele>
        <time>2022-07-24T10:37:54Z</time>
      </trkpt>
      <trkpt lat="46.3504500" lon="5.9358740">
        <ele>1305.8</ele>
        <time>2022-07-24T10:37:55Z</time>
      </trkpt>
      <trkpt lat="46.3504080" lon="5.9358230">
        <ele>1305.0</ele>
        <time>2022-07-24T10:37:58Z</time>
      </trkpt>
      <trkpt lat="46.3503720" lon="5.9357750">
        <ele>1304.4</ele>
        <time>2022-07-24T10:38:00Z</time>
      </trkpt>
      <trkpt lat="46.3502220" lon="5.9356450">
        <ele>1304.2</ele>
        <time>2022-07-24T10:38:06Z</time>
      </trkpt>
      <trkpt lat="46.3500540" lon="5.9354780">
        <ele>1304.0</ele>
        <time>2022-07-24T10:38:14Z</time>
      </trkpt>
      <trkpt lat="46.3499980" lon="5.9354120">
        <ele>1304.2</ele>
        <time>2022-07-24T10:38:17Z</time>
      </trkpt>
      <trkpt lat="46.3499080" lon="5.9353120">
        <ele>1304.2</ele>
        <time>2022-07-24T10:38:22Z</time>
      </trkpt>
      <trkpt lat="46.3497830" lon="5.9351640">
        <ele>1304.2</ele>
        <time>2022-07-24T10:38:28Z</time>
      </trkpt>
      <trkpt lat="46.3496810" lon="5.9349700">
        <ele>1304.0</ele>
        <time>2022-07-24T10:38:33Z</time>
      </trkpt>
      <trkpt lat="46.3496260" lon="5.9348890">
        <ele>1304.0</ele>
        <time>2022-07-24T10:38:35Z</time>
      </trkpt>
      <trkpt lat="46.3494890" lon="5.9347790">
        <ele>1304.0</ele>
        <time>2022-07-24T10:38:38Z</time>
      </trkpt>
      <trkpt lat="46.3492870" lon="5.9346140">
        <ele>1303.8</ele>
        <time>2022-07-24T10:38:42Z</time>
      </trkpt>
      <trkpt lat="46.3491980" lon="5.9345320">
        <ele>1303.0</ele>
        <time>2022-07-24T10:38:44Z</time>
      </trkpt>
      <trkpt lat="46.3491490" lon="5.9344860">
        <ele>1302.6</ele>
        <time>2022-07-24T10:38:45Z</time>
      </trkpt>
      <trkpt lat="46.3489820" lon="5.9343470">
        <ele>1301.4</ele>
        <time>2022-07-24T10:38:48Z</time>
      </trkpt>
      <trkpt lat="46.3487480" lon="5.9341940">
        <ele>1300.2</ele>
        <time>2022-07-24T10:38:52Z</time>
      </trkpt>
      <trkpt lat="46.3486380" lon="5.9341200">
        <ele>1300.0</ele>
        <time>2022-07-24T10:38:54Z</time>
      </trkpt>
      <trkpt lat="46.3484920" lon="5.9339940">
        <ele>1299.2</ele>
        <time>2022-07-24T10:38:58Z</time>
      </trkpt>
      <trkpt lat="46.3484260" lon="5.9339460">
        <ele>1298.2</ele>
        <time>2022-07-24T10:39:01Z</time>
      </trkpt>
      <trkpt lat="46.3483670" lon="5.9338970">
        <ele>1298.0</ele>
        <time>2022-07-24T10:39:03Z</time>
      </trkpt>
      <trkpt lat="46.3481440" lon="5.9337180">
        <ele>1297.4</ele>
        <time>2022-07-24T10:39:10Z</time>
      </trkpt>
      <trkpt lat="46.3480940" lon="5.9336800">
        <ele>1297.2</ele>
        <time>2022-07-24T10:39:12Z</time>
      </trkpt>
      <trkpt lat="46.3479820" lon="5.9335820">
        <ele>1296.6</ele>
        <time>2022-07-24T10:39:16Z</time>
      </trkpt>
      <trkpt lat="46.3477960" lon="5.9334080">
        <ele>1296.4</ele>
        <time>2022-07-24T10:39:22Z</time>
      </trkpt>
      <trkpt lat="46.3477610" lon="5.9333790">
        <ele>1296.0</ele>
        <time>2022-07-24T10:39:24Z</time>
      </trkpt>
      <trkpt lat="46.3476490" lon="5.9332750">
        <ele>1294.8</ele>
        <time>2022-07-24T10:39:28Z</time>
      </trkpt>
      <trkpt lat="46.3475720" lon="5.9332200">
        <ele>1294.6</ele>
        <time>2022-07-24T10:39:30Z</time>
      </trkpt>
      <trkpt lat="46.3474680" lon="5.9331720">
        <ele>1294.0</ele>
        <time>2022-07-24T10:39:33Z</time>
      </trkpt>
      <trkpt lat="46.3474400" lon="5.9331650">
        <ele>1293.8</ele>
        <time>2022-07-24T10:39:34Z</time>
      </trkpt>
      <trkpt lat="46.3473550" lon="5.9331360">
        <ele>1293.6</ele>
        <time>2022-07-24T10:39:38Z</time>
      </trkpt>
      <trkpt lat="46.3471880" lon="5.9330710">
        <ele>1293.6</ele>
        <time>2022-07-24T10:39:45Z</time>
      </trkpt>
      <trkpt lat="46.3470490" lon="5.9330750">
        <ele>1293.6</ele>
        <time>2022-07-24T10:39:50Z</time>
      </trkpt>
      <trkpt lat="46.3469380" lon="5.9329730">
        <ele>1293.6</ele>
        <time>2022-07-24T10:39:54Z</time>
      </trkpt>
      <trkpt lat="46.3468120" lon="5.9328640">
        <ele>1292.8</ele>
        <time>2022-07-24T10:39:59Z</time>
      </trkpt>
      <trkpt lat="46.3467900" lon="5.9328570">
        <ele>1292.6</ele>
        <time>2022-07-24T10:40:00Z</time>
      </trkpt>
      <trkpt lat="46.3466490" lon="5.9327800">
        <ele>1291.8</ele>
        <time>2022-07-24T10:40:05Z</time>
      </trkpt>
      <trkpt lat="46.3466130" lon="5.9327540">
        <ele>1291.6</ele>
        <time>2022-07-24T10:40:08Z</time>
      </trkpt>
      <trkpt lat="46.3466120" lon="5.9327550">
        <ele>1291.4</ele>
        <time>2022-07-24T10:40:09Z</time>
      </trkpt>
      <trkpt lat="46.3465900" lon="5.9326890">
        <ele>1290.4</ele>
        <time>2022-07-24T10:42:13Z</time>
      </trkpt>
      <trkpt lat="46.3465420" lon="5.9326360">
        <ele>1290.4</ele>
        <time>2022-07-24T10:42:15Z</time>
      </trkpt>
      <trkpt lat="46.3463790" lon="5.9324720">
        <ele>1290.4</ele>
        <time>2022-07-24T10:42:20Z</time>
      </trkpt>
      <trkpt lat="46.3462930" lon="5.9323960">
        <ele>1289.4</ele>
        <time>2022-07-24T10:42:24Z</time>
      </trkpt>
      <trkpt lat="46.3462810" lon="5.9323870">
        <ele>1289.2</ele>
        <time>2022-07-24T10:42:27Z</time>
      </trkpt>
      <trkpt lat="46.3462050" lon="5.9322210">
        <ele>1288.6</ele>
        <time>2022-07-24T10:42:48Z</time>
      </trkpt>
      <trkpt lat="46.3461840" lon="5.9321470">
        <ele>1288.4</ele>
        <time>2022-07-24T10:42:51Z</time>
      </trkpt>
      <trkpt lat="46.3461400" lon="5.9320930">
        <ele>1288.2</ele>
        <time>2022-07-24T10:42:53Z</time>
      </trkpt>
      <trkpt lat="46.3459760" lon="5.9319220">
        <ele>1288.2</ele>
        <time>2022-07-24T10:42:57Z</time>
      </trkpt>
      <trkpt lat="46.3458130" lon="5.9317560">
        <ele>1287.2</ele>
        <time>2022-07-24T10:43:00Z</time>
      </trkpt>
      <trkpt lat="46.3457010" lon="5.9316340">
        <ele>1286.6</ele>
        <time>2022-07-24T10:43:02Z</time>
      </trkpt>
      <trkpt lat="46.3456030" lon="5.9315400">
        <ele>1286.0</ele>
        <time>2022-07-24T10:43:04Z</time>
      </trkpt>
      <trkpt lat="46.3455170" lon="5.9314910">
        <ele>1285.2</ele>
        <time>2022-07-24T10:43:06Z</time>
      </trkpt>
      <trkpt lat="46.3454790" lon="5.9314790">
        <ele>1284.8</ele>
        <time>2022-07-24T10:43:07Z</time>
      </trkpt>
      <trkpt lat="46.3454130" lon="5.9314610">
        <ele>1283.6</ele>
        <time>2022-07-24T10:43:10Z</time>
      </trkpt>
      <trkpt lat="46.3454090" lon="5.9314580">
        <ele>1282.6</ele>
        <time>2022-07-24T10:43:12Z</time>
      </trkpt>
      <trkpt lat="46.3453700" lon="5.9314040">
        <ele>1280.8</ele>
        <time>2022-07-24T10:43:18Z</time>
      </trkpt>
      <trkpt lat="46.3453590" lon="5.9313920">
        <ele>1280.6</ele>
        <time>2022-07-24T10:43:19Z</time>
      </trkpt>
      <trkpt lat="46.3453220" lon="5.9313470">
        <ele>1280.2</ele>
        <time>2022-07-24T10:43:24Z</time>
      </trkpt>
      <trkpt lat="46.3452310" lon="5.9312680">
        <ele>1279.8</ele>
        <time>2022-07-24T10:43:28Z</time>
      </trkpt>
      <trkpt lat="46.3451960" lon="5.9312440">
        <ele>1279.8</ele>
        <time>2022-07-24T10:43:29Z</time>
      </trkpt>
      <trkpt lat="46.3449850" lon="5.9311180">
        <ele>1279.4</ele>
        <time>2022-07-24T10:43:34Z</time>
      </trkpt>
      <trkpt lat="46.3449480" lon="5.9310970">
        <ele>1279.4</ele>
        <time>2022-07-24T10:43:35Z</time>
      </trkpt>
      <trkpt lat="46.3448590" lon="5.9310420">
        <ele>1278.8</ele>
        <time>2022-07-24T10:43:37Z</time>
      </trkpt>
      <trkpt lat="46.3448020" lon="5.9310110">
        <ele>1278.6</ele>
        <time>2022-07-24T10:43:38Z</time>
      </trkpt>
      <trkpt lat="46.3445650" lon="5.9308810">
        <ele>1277.2</ele>
        <time>2022-07-24T10:43:42Z</time>
      </trkpt>
      <trkpt lat="46.3445280" lon="5.9308490">
        <ele>1276.8</ele>
        <time>2022-07-24T10:43:43Z</time>
      </trkpt>
      <trkpt lat="46.3444790" lon="5.9307710">
        <ele>1275.8</ele>
        <time>2022-07-24T10:43:45Z</time>
      </trkpt>
      <trkpt lat="46.3444590" lon="5.9306870">
        <ele>1274.4</ele>
        <time>2022-07-24T10:43:47Z</time>
      </trkpt>
      <trkpt lat="46.3444550" lon="5.9306630">
        <ele>1272.8</ele>
        <time>2022-07-24T10:43:49Z</time>
      </trkpt>
      <trkpt lat="46.3444550" lon="5.9306560">
        <ele>1271.2</ele>
        <time>2022-07-24T10:43:50Z</time>
      </trkpt>
      <trkpt lat="46.3444570" lon="5.9306450">
        <ele>1269.8</ele>
        <time>2022-07-24T10:43:52Z</time>
      </trkpt>
      <trkpt lat="46.3444570" lon="5.9306390">
        <ele>1269.2</ele>
        <time>2022-07-24T10:43:53Z</time>
      </trkpt>
      <trkpt lat="46.3444420" lon="5.9305270">
        <ele>1267.4</ele>
        <time>2022-07-24T10:44:02Z</time>
      </trkpt>
      <trkpt lat="46.3444320" lon="5.9304590">
        <ele>1267.4</ele>
        <time>2022-07-24T10:44:04Z</time>
      </trkpt>
      <trkpt lat="46.3444230" lon="5.9302200">
        <ele>1267.2</ele>
        <time>2022-07-24T10:44:12Z</time>
      </trkpt>
      <trkpt lat="46.3443930" lon="5.9300290">
        <ele>1268.2</ele>
        <time>2022-07-24T10:44:21Z</time>
      </trkpt>
      <trkpt lat="46.3443890" lon="5.9300070">
        <ele>1268.4</ele>
        <time>2022-07-24T10:44:22Z</time>
      </trkpt>
      <trkpt lat="46.3443710" lon="5.9298670">
        <ele>1269.2</ele>
        <time>2022-07-24T10:44:29Z</time>
      </trkpt>
      <trkpt lat="46.3443670" lon="5.9297940">
        <ele>1269.6</ele>
        <time>2022-07-24T10:44:33Z</time>
      </trkpt>
      <trkpt lat="46.3443620" lon="5.9297010">
        <ele>1270.4</ele>
        <time>2022-07-24T10:44:39Z</time>
      </trkpt>
      <trkpt lat="46.3443610" lon="5.9296850">
        <ele>1270.6</ele>
        <time>2022-07-24T10:44:40Z</time>
      </trkpt>
      <trkpt lat="46.3443510" lon="5.9295890">
        <ele>1271.6</ele>
        <time>2022-07-24T10:44:46Z</time>
      </trkpt>
      <trkpt lat="46.3443440" lon="5.9295260">
        <ele>1272.2</ele>
        <time>2022-07-24T10:44:50Z</time>
      </trkpt>
      <trkpt lat="46.3443380" lon="5.9294920">
        <ele>1272.6</ele>
        <time>2022-07-24T10:44:52Z</time>
      </trkpt>
      <trkpt lat="46.3443210" lon="5.9293930">
        <ele>1273.8</ele>
        <time>2022-07-24T10:44:58Z</time>
      </trkpt>
      <trkpt lat="46.3443020" lon="5.9292920">
        <ele>1275.0</ele>
        <time>2022-07-24T10:45:04Z</time>
      </trkpt>
      <trkpt lat="46.3443000" lon="5.9292790">
        <ele>1275.2</ele>
        <time>2022-07-24T10:45:05Z</time>
      </trkpt>
      <trkpt lat="46.3442890" lon="5.9292120">
        <ele>1276.2</ele>
        <time>2022-07-24T10:45:09Z</time>
      </trkpt>
      <trkpt lat="46.3442830" lon="5.9291450">
        <ele>1277.4</ele>
        <time>2022-07-24T10:45:13Z</time>
      </trkpt>
      <trkpt lat="46.3442840" lon="5.9290870">
        <ele>1278.8</ele>
        <time>2022-07-24T10:45:17Z</time>
      </trkpt>
      <trkpt lat="46.3442810" lon="5.9290160">
        <ele>1279.4</ele>
        <time>2022-07-24T10:45:21Z</time>
      </trkpt>
      <trkpt lat="46.3442790" lon="5.9289630">
        <ele>1279.8</ele>
        <time>2022-07-24T10:45:24Z</time>
      </trkpt>
      <trkpt lat="46.3442810" lon="5.9289390">
        <ele>1280.2</ele>
        <time>2022-07-24T10:45:28Z</time>
      </trkpt>
      <trkpt lat="46.3442600" lon="5.9287750">
        <ele>1280.2</ele>
        <time>2022-07-24T10:46:42Z</time>
      </trkpt>
      <trkpt lat="46.3442520" lon="5.9286870">
        <ele>1280.2</ele>
        <time>2022-07-24T10:46:45Z</time>
      </trkpt>
      <trkpt lat="46.3442190" lon="5.9283990">
        <ele>1280.2</ele>
        <time>2022-07-24T10:46:51Z</time>
      </trkpt>
      <trkpt lat="46.3441700" lon="5.9282230">
        <ele>1280.0</ele>
        <time>2022-07-24T10:46:55Z</time>
      </trkpt>
      <trkpt lat="46.3440450" lon="5.9280760">
        <ele>1279.0</ele>
        <time>2022-07-24T10:47:00Z</time>
      </trkpt>
      <trkpt lat="46.3440180" lon="5.9280400">
        <ele>1278.6</ele>
        <time>2022-07-24T10:47:01Z</time>
      </trkpt>
      <trkpt lat="46.3439390" lon="5.9278990">
        <ele>1277.6</ele>
        <time>2022-07-24T10:47:04Z</time>
      </trkpt>
      <trkpt lat="46.3438940" lon="5.9277900">
        <ele>1277.0</ele>
        <time>2022-07-24T10:47:06Z</time>
      </trkpt>
      <trkpt lat="46.3438400" lon="5.9276550">
        <ele>1276.4</ele>
        <time>2022-07-24T10:47:08Z</time>
      </trkpt>
      <trkpt lat="46.3437720" lon="5.9275230">
        <ele>1275.6</ele>
        <time>2022-07-24T10:47:10Z</time>
      </trkpt>
      <trkpt lat="46.3437290" lon="5.9274620">
        <ele>1275.0</ele>
        <time>2022-07-24T10:47:11Z</time>
      </trkpt>
      <trkpt lat="46.3436370" lon="5.9273680">
        <ele>1273.6</ele>
        <time>2022-07-24T10:47:13Z</time>
      </trkpt>
      <trkpt lat="46.3435910" lon="5.9273310">
        <ele>1273.0</ele>
        <time>2022-07-24T10:47:14Z</time>
      </trkpt>
      <trkpt lat="46.3435500" lon="5.9273000">
        <ele>1272.4</ele>
        <time>2022-07-24T10:47:15Z</time>
      </trkpt>
      <trkpt lat="46.3434900" lon="5.9272440">
        <ele>1271.2</ele>
        <time>2022-07-24T10:47:17Z</time>
      </trkpt>
      <trkpt lat="46.3434710" lon="5.9272150">
        <ele>1270.4</ele>
        <time>2022-07-24T10:47:18Z</time>
      </trkpt>
      <trkpt lat="46.3434580" lon="5.9271810">
        <ele>1269.6</ele>
        <time>2022-07-24T10:47:19Z</time>
      </trkpt>
      <trkpt lat="46.3434530" lon="5.9271190">
        <ele>1268.6</ele>
        <time>2022-07-24T10:47:21Z</time>
      </trkpt>
      <trkpt lat="46.3434560" lon="5.9271020">
        <ele>1268.2</ele>
        <time>2022-07-24T10:47:22Z</time>
      </trkpt>
      <trkpt lat="46.3434590" lon="5.9270990">
        <ele>1267.2</ele>
        <time>2022-07-24T10:47:24Z</time>
      </trkpt>
      <trkpt lat="46.3435030" lon="5.9270460">
        <ele>1265.8</ele>
        <time>2022-07-24T10:47:29Z</time>
      </trkpt>
      <trkpt lat="46.3435110" lon="5.9270400">
        <ele>1265.6</ele>
        <time>2022-07-24T10:47:30Z</time>
      </trkpt>
      <trkpt lat="46.3435290" lon="5.9270400">
        <ele>1265.2</ele>
        <time>2022-07-24T10:47:32Z</time>
      </trkpt>
      <trkpt lat="46.3435720" lon="5.9270300">
        <ele>1265.0</ele>
        <time>2022-07-24T10:47:34Z</time>
      </trkpt>
      <trkpt lat="46.3436780" lon="5.9269870">
        <ele>1264.6</ele>
        <time>2022-07-24T10:47:37Z</time>
      </trkpt>
      <trkpt lat="46.3437230" lon="5.9269680">
        <ele>1264.4</ele>
        <time>2022-07-24T10:47:38Z</time>
      </trkpt>
      <trkpt lat="46.3437730" lon="5.9269540">
        <ele>1264.4</ele>
        <time>2022-07-24T10:47:39Z</time>
      </trkpt>
      <trkpt lat="46.3439400" lon="5.9269560">
        <ele>1263.8</ele>
        <time>2022-07-24T10:47:42Z</time>
      </trkpt>
      <trkpt lat="46.3439830" lon="5.9269560">
        <ele>1263.4</ele>
        <time>2022-07-24T10:47:43Z</time>
      </trkpt>
      <trkpt lat="46.3440450" lon="5.9269070">
        <ele>1262.6</ele>
        <time>2022-07-24T10:47:45Z</time>
      </trkpt>
      <trkpt lat="46.3440570" lon="5.9268590">
        <ele>1262.0</ele>
        <time>2022-07-24T10:47:46Z</time>
      </trkpt>
      <trkpt lat="46.3440470" lon="5.9267450">
        <ele>1260.8</ele>
        <time>2022-07-24T10:47:48Z</time>
      </trkpt>
      <trkpt lat="46.3440230" lon="5.9266670">
        <ele>1259.4</ele>
        <time>2022-07-24T10:47:50Z</time>
      </trkpt>
      <trkpt lat="46.3440130" lon="5.9266400">
        <ele>1258.8</ele>
        <time>2022-07-24T10:47:51Z</time>
      </trkpt>
      <trkpt lat="46.3440040" lon="5.9266150">
        <ele>1258.4</ele>
        <time>2022-07-24T10:47:52Z</time>
      </trkpt>
      <trkpt lat="46.3439560" lon="5.9264910">
        <ele>1257.8</ele>
        <time>2022-07-24T10:47:58Z</time>
      </trkpt>
      <trkpt lat="46.3439240" lon="5.9264060">
        <ele>1258.0</ele>
        <time>2022-07-24T10:48:03Z</time>
      </trkpt>
      <trkpt lat="46.3439260" lon="5.9263780">
        <ele>1258.2</ele>
        <time>2022-07-24T10:48:04Z</time>
      </trkpt>
      <trkpt lat="46.3439610" lon="5.9262620">
        <ele>1259.0</ele>
        <time>2022-07-24T10:48:08Z</time>
      </trkpt>
      <trkpt lat="46.3439840" lon="5.9262060">
        <ele>1259.2</ele>
        <time>2022-07-24T10:48:10Z</time>
      </trkpt>
      <trkpt lat="46.3440020" lon="5.9261490">
        <ele>1259.4</ele>
        <time>2022-07-24T10:48:12Z</time>
      </trkpt>
      <trkpt lat="46.3440460" lon="5.9259990">
        <ele>1259.8</ele>
        <time>2022-07-24T10:48:17Z</time>
      </trkpt>
      <trkpt lat="46.3440580" lon="5.9257210">
        <ele>1260.2</ele>
        <time>2022-07-24T10:48:25Z</time>
      </trkpt>
      <trkpt lat="46.3440540" lon="5.9255760">
        <ele>1260.6</ele>
        <time>2022-07-24T10:48:29Z</time>
      </trkpt>
      <trkpt lat="46.3440520" lon="5.9254690">
        <ele>1261.0</ele>
        <time>2022-07-24T10:48:32Z</time>
      </trkpt>
      <trkpt lat="46.3440830" lon="5.9252300">
        <ele>1261.4</ele>
        <time>2022-07-24T10:48:38Z</time>
      </trkpt>
      <trkpt lat="46.3441050" lon="5.9251490">
        <ele>1261.6</ele>
        <time>2022-07-24T10:48:40Z</time>
      </trkpt>
      <trkpt lat="46.3441750" lon="5.9249780">
        <ele>1262.0</ele>
        <time>2022-07-24T10:48:44Z</time>
      </trkpt>
      <trkpt lat="46.3443320" lon="5.9246380">
        <ele>1262.2</ele>
        <time>2022-07-24T10:48:52Z</time>
      </trkpt>
      <trkpt lat="46.3444900" lon="5.9243050">
        <ele>1261.8</ele>
        <time>2022-07-24T10:49:01Z</time>
      </trkpt>
      <trkpt lat="46.3445200" lon="5.9242470">
        <ele>1261.4</ele>
        <time>2022-07-24T10:49:06Z</time>
      </trkpt>
      <trkpt lat="46.3445210" lon="5.9242460">
        <ele>1261.4</ele>
        <time>2022-07-24T10:49:07Z</time>
      </trkpt>
      <trkpt lat="46.3445450" lon="5.9241890">
        <ele>1260.6</ele>
        <time>2022-07-24T10:49:33Z</time>
      </trkpt>
      <trkpt lat="46.3445660" lon="5.9241430">
        <ele>1260.6</ele>
        <time>2022-07-24T10:49:35Z</time>
      </trkpt>
      <trkpt lat="46.3446770" lon="5.9238940">
        <ele>1260.2</ele>
        <time>2022-07-24T10:49:44Z</time>
      </trkpt>
      <trkpt lat="46.3447680" lon="5.9237120">
        <ele>1260.0</ele>
        <time>2022-07-24T10:49:52Z</time>
      </trkpt>
      <trkpt lat="46.3448440" lon="5.9235150">
        <ele>1260.0</ele>
        <time>2022-07-24T10:50:00Z</time>
      </trkpt>
      <trkpt lat="46.3449160" lon="5.9233610">
        <ele>1259.8</ele>
        <time>2022-07-24T10:50:07Z</time>
      </trkpt>
      <trkpt lat="46.3449350" lon="5.9233140">
        <ele>1259.8</ele>
        <time>2022-07-24T10:50:09Z</time>
      </trkpt>
      <trkpt lat="46.3449400" lon="5.9232870">
        <ele>1259.8</ele>
        <time>2022-07-24T10:50:10Z</time>
      </trkpt>
      <trkpt lat="46.3449460" lon="5.9232340">
        <ele>1259.6</ele>
        <time>2022-07-24T10:50:12Z</time>
      </trkpt>
      <trkpt lat="46.3449500" lon="5.9231500">
        <ele>1259.6</ele>
        <time>2022-07-24T10:50:16Z</time>
      </trkpt>
      <trkpt lat="46.3449400" lon="5.9231200">
        <ele>1259.6</ele>
        <time>2022-07-24T10:50:18Z</time>
      </trkpt>
      <trkpt lat="46.3449350" lon="5.9231010">
        <ele>1259.6</ele>
        <time>2022-07-24T10:50:19Z</time>
      </trkpt>
      <trkpt lat="46.3449400" lon="5.9230450">
        <ele>1259.6</ele>
        <time>2022-07-24T10:50:23Z</time>
      </trkpt>
      <trkpt lat="46.3449400" lon="5.9230620">
        <ele>1259.6</ele>
        <time>2022-07-24T10:50:29Z</time>
      </trkpt>
      <trkpt lat="46.3449360" lon="5.9230680">
        <ele>1259.6</ele>
        <time>2022-07-24T10:50:31Z</time>
      </trkpt>
      <trkpt lat="46.3449640" lon="5.9229720">
        <ele>1259.6</ele>
        <time>2022-07-24T10:52:35Z</time>
      </trkpt>
      <trkpt lat="46.3449970" lon="5.9229420">
        <ele>1259.6</ele>
        <time>2022-07-24T10:52:37Z</time>
      </trkpt>
      <trkpt lat="46.3450540" lon="5.9228050">
        <ele>1259.6</ele>
        <time>2022-07-24T10:52:42Z</time>
      </trkpt>
      <trkpt lat="46.3450840" lon="5.9227400">
        <ele>1260.0</ele>
        <time>2022-07-24T10:52:44Z</time>
      </trkpt>
      <trkpt lat="46.3451210" lon="5.9226230">
        <ele>1260.0</ele>
        <time>2022-07-24T10:52:47Z</time>
      </trkpt>
      <trkpt lat="46.3451890" lon="5.9224510">
        <ele>1260.2</ele>
        <time>2022-07-24T10:52:52Z</time>
      </trkpt>
      <trkpt lat="46.3452360" lon="5.9224050">
        <ele>1259.8</ele>
        <time>2022-07-24T10:52:58Z</time>
      </trkpt>
      <trkpt lat="46.3452740" lon="5.9224080">
        <ele>1259.0</ele>
        <time>2022-07-24T10:53:02Z</time>
      </trkpt>
      <trkpt lat="46.3453000" lon="5.9224080">
        <ele>1259.0</ele>
        <time>2022-07-24T10:53:03Z</time>
      </trkpt>
      <trkpt lat="46.3453310" lon="5.9224110">
        <ele>1258.8</ele>
        <time>2022-07-24T10:53:04Z</time>
      </trkpt>
      <trkpt lat="46.3454810" lon="5.9224500">
        <ele>1258.4</ele>
        <time>2022-07-24T10:53:10Z</time>
      </trkpt>
      <trkpt lat="46.3455780" lon="5.9224970">
        <ele>1257.8</ele>
        <time>2022-07-24T10:53:14Z</time>
      </trkpt>
      <trkpt lat="46.3456090" lon="5.9225100">
        <ele>1257.4</ele>
        <time>2022-07-24T10:53:15Z</time>
      </trkpt>
      <trkpt lat="46.3456710" lon="5.9225260">
        <ele>1256.8</ele>
        <time>2022-07-24T10:53:17Z</time>
      </trkpt>
      <trkpt lat="46.3457650" lon="5.9224980">
        <ele>1255.6</ele>
        <time>2022-07-24T10:53:20Z</time>
      </trkpt>
      <trkpt lat="46.3458390" lon="5.9224720">
        <ele>1254.4</ele>
        <time>2022-07-24T10:53:23Z</time>
      </trkpt>
      <trkpt lat="46.3458790" lon="5.9224490">
        <ele>1253.6</ele>
        <time>2022-07-24T10:53:25Z</time>
      </trkpt>
      <trkpt lat="46.3459030" lon="5.9224280">
        <ele>1253.0</ele>
        <time>2022-07-24T10:53:26Z</time>
      </trkpt>
      <trkpt lat="46.3459680" lon="5.9223210">
        <ele>1251.8</ele>
        <time>2022-07-24T10:53:29Z</time>
      </trkpt>
      <trkpt lat="46.3459900" lon="5.9222710">
        <ele>1251.6</ele>
        <time>2022-07-24T10:53:30Z</time>
      </trkpt>
      <trkpt lat="46.3460410" lon="5.9220870">
        <ele>1250.4</ele>
        <time>2022-07-24T10:53:33Z</time>
      </trkpt>
      <trkpt lat="46.3460610" lon="5.9219790">
        <ele>1249.6</ele>
        <time>2022-07-24T10:53:35Z</time>
      </trkpt>
      <trkpt lat="46.3460620" lon="5.9219230">
        <ele>1249.2</ele>
        <time>2022-07-24T10:53:36Z</time>
      </trkpt>
      <trkpt lat="46.3460990" lon="5.9217550">
        <ele>1248.0</ele>
        <time>2022-07-24T10:53:39Z</time>
      </trkpt>
      <trkpt lat="46.3461130" lon="5.9216990">
        <ele>1247.6</ele>
        <time>2022-07-24T10:53:40Z</time>
      </trkpt>
      <trkpt lat="46.3461680" lon="5.9215760">
        <ele>1246.6</ele>
        <time>2022-07-24T10:53:43Z</time>
      </trkpt>
      <trkpt lat="46.3461880" lon="5.9215500">
        <ele>1246.4</ele>
        <time>2022-07-24T10:53:44Z</time>
      </trkpt>
      <trkpt lat="46.3462030" lon="5.9215020">
        <ele>1245.4</ele>
        <time>2022-07-24T10:53:47Z</time>
      </trkpt>
      <trkpt lat="46.3462040" lon="5.9214890">
        <ele>1245.0</ele>
        <time>2022-07-24T10:53:48Z</time>
      </trkpt>
      <trkpt lat="46.3462350" lon="5.9213110">
        <ele>1241.2</ele>
        <time>2022-07-24T10:54:08Z</time>
      </trkpt>
      <trkpt lat="46.3463610" lon="5.9212200">
        <ele>1240.8</ele>
        <time>2022-07-24T10:54:15Z</time>
      </trkpt>
      <trkpt lat="46.3464190" lon="5.9212100">
        <ele>1240.0</ele>
        <time>2022-07-24T10:54:18Z</time>
      </trkpt>
      <trkpt lat="46.3465010" lon="5.9212350">
        <ele>1239.0</ele>
        <time>2022-07-24T10:54:21Z</time>
      </trkpt>
      <trkpt lat="46.3465990" lon="5.9213170">
        <ele>1237.8</ele>
        <time>2022-07-24T10:54:24Z</time>
      </trkpt>
      <trkpt lat="46.3466640" lon="5.9213840">
        <ele>1237.0</ele>
        <time>2022-07-24T10:54:26Z</time>
      </trkpt>
      <trkpt lat="46.3466960" lon="5.9214230">
        <ele>1236.6</ele>
        <time>2022-07-24T10:54:27Z</time>
      </trkpt>
      <trkpt lat="46.3467400" lon="5.9214950">
        <ele>1235.4</ele>
        <time>2022-07-24T10:54:29Z</time>
      </trkpt>
      <trkpt lat="46.3467650" lon="5.9215180">
        <ele>1234.8</ele>
        <time>2022-07-24T10:54:30Z</time>
      </trkpt>
      <trkpt lat="46.3467900" lon="5.9215400">
        <ele>1234.2</ele>
        <time>2022-07-24T10:54:31Z</time>
      </trkpt>
      <trkpt lat="46.3468410" lon="5.9215580">
        <ele>1233.2</ele>
        <time>2022-07-24T10:54:33Z</time>
      </trkpt>
      <trkpt lat="46.3468880" lon="5.9215590">
        <ele>1232.4</ele>
        <time>2022-07-24T10:54:35Z</time>
      </trkpt>
      <trkpt lat="46.3469110" lon="5.9215590">
        <ele>1231.8</ele>
        <time>2022-07-24T10:54:36Z</time>
      </trkpt>
      <trkpt lat="46.3469830" lon="5.9215500">
        <ele>1230.6</ele>
        <time>2022-07-24T10:54:39Z</time>
      </trkpt>
      <trkpt lat="46.3470610" lon="5.9215240">
        <ele>1229.0</ele>
        <time>2022-07-24T10:54:42Z</time>
      </trkpt>
      <trkpt lat="46.3470880" lon="5.9215100">
        <ele>1228.8</ele>
        <time>2022-07-24T10:54:43Z</time>
      </trkpt>
      <trkpt lat="46.3471520" lon="5.9214810">
        <ele>1227.8</ele>
        <time>2022-07-24T10:54:46Z</time>
      </trkpt>
      <trkpt lat="46.3472140" lon="5.9214250">
        <ele>1226.2</ele>
        <time>2022-07-24T10:54:49Z</time>
      </trkpt>
      <trkpt lat="46.3473100" lon="5.9213280">
        <ele>1224.8</ele>
        <time>2022-07-24T10:54:52Z</time>
      </trkpt>
      <trkpt lat="46.3474130" lon="5.9212550">
        <ele>1223.8</ele>
        <time>2022-07-24T10:54:55Z</time>
      </trkpt>
      <trkpt lat="46.3474680" lon="5.9212320">
        <ele>1222.4</ele>
        <time>2022-07-24T10:54:57Z</time>
      </trkpt>
      <trkpt lat="46.3475670" lon="5.9212550">
        <ele>1221.0</ele>
        <time>2022-07-24T10:55:00Z</time>
      </trkpt>
      <trkpt lat="46.3476620" lon="5.9212510">
        <ele>1220.0</ele>
        <time>2022-07-24T10:55:02Z</time>
      </trkpt>
      <trkpt lat="46.3477340" lon="5.9212250">
        <ele>1219.0</ele>
        <time>2022-07-24T10:55:04Z</time>
      </trkpt>
      <trkpt lat="46.3478180" lon="5.9211880">
        <ele>1217.8</ele>
        <time>2022-07-24T10:55:06Z</time>
      </trkpt>
      <trkpt lat="46.3478910" lon="5.9211450">
        <ele>1216.6</ele>
        <time>2022-07-24T10:55:08Z</time>
      </trkpt>
      <trkpt lat="46.3479230" lon="5.9211250">
        <ele>1216.2</ele>
        <time>2022-07-24T10:55:09Z</time>
      </trkpt>
      <trkpt lat="46.3480190" lon="5.9210890">
        <ele>1215.2</ele>
        <time>2022-07-24T10:55:11Z</time>
      </trkpt>
      <trkpt lat="46.3480660" lon="5.9210820">
        <ele>1215.0</ele>
        <time>2022-07-24T10:55:12Z</time>
      </trkpt>
      <trkpt lat="46.3481510" lon="5.9210680">
        <ele>1214.4</ele>
        <time>2022-07-24T10:55:14Z</time>
      </trkpt>
      <trkpt lat="46.3481930" lon="5.9210710">
        <ele>1214.2</ele>
        <time>2022-07-24T10:55:15Z</time>
      </trkpt>
      <trkpt lat="46.3483740" lon="5.9211410">
        <ele>1212.8</ele>
        <time>2022-07-24T10:55:19Z</time>
      </trkpt>
      <trkpt lat="46.3484750" lon="5.9211970">
        <ele>1212.2</ele>
        <time>2022-07-24T10:55:21Z</time>
      </trkpt>
      <trkpt lat="46.3485690" lon="5.9212210">
        <ele>1211.2</ele>
        <time>2022-07-24T10:55:23Z</time>
      </trkpt>
      <trkpt lat="46.3486110" lon="5.9212220">
        <ele>1210.4</ele>
        <time>2022-07-24T10:55:24Z</time>
      </trkpt>
      <trkpt lat="46.3486610" lon="5.9212070">
        <ele>1210.0</ele>
        <time>2022-07-24T10:55:25Z</time>
      </trkpt>
      <trkpt lat="46.3487410" lon="5.9211670">
        <ele>1208.2</ele>
        <time>2022-07-24T10:55:27Z</time>
      </trkpt>
      <trkpt lat="46.3488090" lon="5.9211230">
        <ele>1207.6</ele>
        <time>2022-07-24T10:55:29Z</time>
      </trkpt>
      <trkpt lat="46.3488410" lon="5.9211010">
        <ele>1207.2</ele>
        <time>2022-07-24T10:55:30Z</time>
      </trkpt>
      <trkpt lat="46.3491130" lon="5.9209720">
        <ele>1206.0</ele>
        <time>2022-07-24T10:55:35Z</time>
      </trkpt>
      <trkpt lat="46.3492800" lon="5.9209000">
        <ele>1205.8</ele>
        <time>2022-07-24T10:55:40Z</time>
      </trkpt>
      <trkpt lat="46.3493440" lon="5.9208880">
        <ele>1204.8</ele>
        <time>2022-07-24T10:55:44Z</time>
      </trkpt>
      <trkpt lat="46.3493760" lon="5.9208870">
        <ele>1204.2</ele>
        <time>2022-07-24T10:55:46Z</time>
      </trkpt>
      <trkpt lat="46.3493900" lon="5.9208890">
        <ele>1203.8</ele>
        <time>2022-07-24T10:55:47Z</time>
      </trkpt>
      <trkpt lat="46.3494360" lon="5.9208930">
        <ele>1202.6</ele>
        <time>2022-07-24T10:55:51Z</time>
      </trkpt>
      <trkpt lat="46.3494520" lon="5.9208940">
        <ele>1202.4</ele>
        <time>2022-07-24T10:55:52Z</time>
      </trkpt>
      <trkpt lat="46.3495180" lon="5.9208850">
        <ele>1201.4</ele>
        <time>2022-07-24T10:55:58Z</time>
      </trkpt>
      <trkpt lat="46.3495670" lon="5.9208930">
        <ele>1200.4</ele>
        <time>2022-07-24T10:56:02Z</time>
      </trkpt>
      <trkpt lat="46.3496320" lon="5.9209010">
        <ele>1199.8</ele>
        <time>2022-07-24T10:56:06Z</time>
      </trkpt>
      <trkpt lat="46.3497890" lon="5.9209040">
        <ele>1200.6</ele>
        <time>2022-07-24T10:56:16Z</time>
      </trkpt>
      <trkpt lat="46.3498640" lon="5.9209180">
        <ele>1201.4</ele>
        <time>2022-07-24T10:56:20Z</time>
      </trkpt>
      <trkpt lat="46.3499630" lon="5.9209660">
        <ele>1201.4</ele>
        <time>2022-07-24T10:56:24Z</time>
      </trkpt>
      <trkpt lat="46.3500980" lon="5.9210970">
        <ele>1201.4</ele>
        <time>2022-07-24T10:56:30Z</time>
      </trkpt>
      <trkpt lat="46.3502170" lon="5.9211830">
        <ele>1201.4</ele>
        <time>2022-07-24T10:56:34Z</time>
      </trkpt>
      <trkpt lat="46.3503350" lon="5.9212660">
        <ele>1201.4</ele>
        <time>2022-07-24T10:56:39Z</time>
      </trkpt>
      <trkpt lat="46.3505020" lon="5.9213580">
        <ele>1201.4</ele>
        <time>2022-07-24T10:56:44Z</time>
      </trkpt>
      <trkpt lat="46.3507120" lon="5.9213700">
        <ele>1201.6</ele>
        <time>2022-07-24T10:56:49Z</time>
      </trkpt>
      <trkpt lat="46.3507590" lon="5.9213650">
        <ele>1201.6</ele>
        <time>2022-07-24T10:56:50Z</time>
      </trkpt>
      <trkpt lat="46.3508130" lon="5.9213640">
        <ele>1201.6</ele>
        <time>2022-07-24T10:56:51Z</time>
      </trkpt>
      <trkpt lat="46.3509950" lon="5.9213770">
        <ele>1201.6</ele>
        <time>2022-07-24T10:56:54Z</time>
      </trkpt>
      <trkpt lat="46.3512000" lon="5.9213290">
        <ele>1201.6</ele>
        <time>2022-07-24T10:56:57Z</time>
      </trkpt>
      <trkpt lat="46.3512750" lon="5.9212850">
        <ele>1201.6</ele>
        <time>2022-07-24T10:56:58Z</time>
      </trkpt>
      <trkpt lat="46.3517410" lon="5.9210020">
        <ele>1199.8</ele>
        <time>2022-07-24T10:57:04Z</time>
      </trkpt>
      <trkpt lat="46.3518800" lon="5.9209340">
        <ele>1198.8</ele>
        <time>2022-07-24T10:57:06Z</time>
      </trkpt>
      <trkpt lat="46.3520210" lon="5.9208470">
        <ele>1197.6</ele>
        <time>2022-07-24T10:57:08Z</time>
      </trkpt>
      <trkpt lat="46.3521640" lon="5.9207300">
        <ele>1196.2</ele>
        <time>2022-07-24T10:57:10Z</time>
      </trkpt>
      <trkpt lat="46.3523210" lon="5.9205790">
        <ele>1195.4</ele>
        <time>2022-07-24T10:57:13Z</time>
      </trkpt>
      <trkpt lat="46.3524080" lon="5.9205260">
        <ele>1194.8</ele>
        <time>2022-07-24T10:57:16Z</time>
      </trkpt>
      <trkpt lat="46.3524360" lon="5.9205130">
        <ele>1194.6</ele>
        <time>2022-07-24T10:57:17Z</time>
      </trkpt>
      <trkpt lat="46.3526300" lon="5.9204670">
        <ele>1194.2</ele>
        <time>2022-07-24T10:57:22Z</time>
      </trkpt>
      <trkpt lat="46.3527530" lon="5.9204120">
        <ele>1194.0</ele>
        <time>2022-07-24T10:57:26Z</time>
      </trkpt>
      <trkpt lat="46.3527880" lon="5.9203860">
        <ele>1194.0</ele>
        <time>2022-07-24T10:57:29Z</time>
      </trkpt>
      <trkpt lat="46.3528090" lon="5.9203400">
        <ele>1194.0</ele>
        <time>2022-07-24T10:57:32Z</time>
      </trkpt>
      <trkpt lat="46.3528020" lon="5.9202620">
        <ele>1194.2</ele>
        <time>2022-07-24T10:57:36Z</time>
      </trkpt>
      <trkpt lat="46.3527970" lon="5.9202220">
        <ele>1194.4</ele>
        <time>2022-07-24T10:57:38Z</time>
      </trkpt>
      <trkpt lat="46.3527980" lon="5.9200960">
        <ele>1195.4</ele>
        <time>2022-07-24T10:57:45Z</time>
      </trkpt>
      <trkpt lat="46.3527810" lon="5.9200010">
        <ele>1196.0</ele>
        <time>2022-07-24T10:57:51Z</time>
      </trkpt>
      <trkpt lat="46.3527760" lon="5.9199850">
        <ele>1196.4</ele>
        <time>2022-07-24T10:57:52Z</time>
      </trkpt>
      <trkpt lat="46.3527540" lon="5.9198600">
        <ele>1197.2</ele>
        <time>2022-07-24T10:58:00Z</time>
      </trkpt>
      <trkpt lat="46.3527460" lon="5.9198340">
        <ele>1197.6</ele>
        <time>2022-07-24T10:58:02Z</time>
      </trkpt>
      <trkpt lat="46.3527290" lon="5.9197750">
        <ele>1198.4</ele>
        <time>2022-07-24T10:58:06Z</time>
      </trkpt>
      <trkpt lat="46.3527210" lon="5.9197450">
        <ele>1199.0</ele>
        <time>2022-07-24T10:58:10Z</time>
      </trkpt>
      <trkpt lat="46.3526970" lon="5.9196570">
        <ele>1199.8</ele>
        <time>2022-07-24T10:58:26Z</time>
      </trkpt>
      <trkpt lat="46.3526920" lon="5.9195990">
        <ele>1199.8</ele>
        <time>2022-07-24T10:58:28Z</time>
      </trkpt>
      <trkpt lat="46.3526780" lon="5.9193030">
        <ele>1199.8</ele>
        <time>2022-07-24T10:58:36Z</time>
      </trkpt>
      <trkpt lat="46.3526870" lon="5.9189610">
        <ele>1199.8</ele>
        <time>2022-07-24T10:58:44Z</time>
      </trkpt>
      <trkpt lat="46.3526760" lon="5.9187890">
        <ele>1199.8</ele>
        <time>2022-07-24T10:58:49Z</time>
      </trkpt>
      <trkpt lat="46.3525370" lon="5.9186830">
        <ele>1199.8</ele>
        <time>2022-07-24T10:58:54Z</time>
      </trkpt>
      <trkpt lat="46.3522520" lon="5.9185200">
        <ele>1199.8</ele>
        <time>2022-07-24T10:59:03Z</time>
      </trkpt>
      <trkpt lat="46.3519680" lon="5.9183440">
        <ele>1199.8</ele>
        <time>2022-07-24T10:59:12Z</time>
      </trkpt>
      <trkpt lat="46.3516850" lon="5.9181030">
        <ele>1199.6</ele>
        <time>2022-07-24T10:59:21Z</time>
      </trkpt>
      <trkpt lat="46.3515170" lon="5.9177970">
        <ele>1199.6</ele>
        <time>2022-07-24T10:59:28Z</time>
      </trkpt>
      <trkpt lat="46.3513460" lon="5.9173520">
        <ele>1199.2</ele>
        <time>2022-07-24T10:59:37Z</time>
      </trkpt>
      <trkpt lat="46.3512920" lon="5.9172710">
        <ele>1199.2</ele>
        <time>2022-07-24T10:59:39Z</time>
      </trkpt>
      <trkpt lat="46.3512600" lon="5.9172330">
        <ele>1199.2</ele>
        <time>2022-07-24T10:59:40Z</time>
      </trkpt>
      <trkpt lat="46.3511920" lon="5.9171700">
        <ele>1199.2</ele>
        <time>2022-07-24T10:59:42Z</time>
      </trkpt>
      <trkpt lat="46.3510030" lon="5.9170460">
        <ele>1199.0</ele>
        <time>2022-07-24T10:59:47Z</time>
      </trkpt>
      <trkpt lat="46.3509220" lon="5.9170060">
        <ele>1199.0</ele>
        <time>2022-07-24T10:59:49Z</time>
      </trkpt>
      <trkpt lat="46.3507140" lon="5.9168470">
        <ele>1198.4</ele>
        <time>2022-07-24T10:59:55Z</time>
      </trkpt>
      <trkpt lat="46.3504180" lon="5.9165610">
        <ele>1198.2</ele>
        <time>2022-07-24T11:00:03Z</time>
      </trkpt>
      <trkpt lat="46.3503810" lon="5.9165170">
        <ele>1198.0</ele>
        <time>2022-07-24T11:00:04Z</time>
      </trkpt>
      <trkpt lat="46.3502270" lon="5.9163490">
        <ele>1198.0</ele>
        <time>2022-07-24T11:00:08Z</time>
      </trkpt>
      <trkpt lat="46.3501510" lon="5.9162730">
        <ele>1197.8</ele>
        <time>2022-07-24T11:00:10Z</time>
      </trkpt>
      <trkpt lat="46.3498590" lon="5.9159400">
        <ele>1197.2</ele>
        <time>2022-07-24T11:00:18Z</time>
      </trkpt>
      <trkpt lat="46.3498210" lon="5.9158960">
        <ele>1197.2</ele>
        <time>2022-07-24T11:00:19Z</time>
      </trkpt>
      <trkpt lat="46.3495120" lon="5.9156170">
        <ele>1196.6</ele>
        <time>2022-07-24T11:00:26Z</time>
      </trkpt>
      <trkpt lat="46.3494030" lon="5.9155360">
        <ele>1196.2</ele>
        <time>2022-07-24T11:00:29Z</time>
      </trkpt>
      <trkpt lat="46.3493790" lon="5.9155180">
        <ele>1196.0</ele>
        <time>2022-07-24T11:00:30Z</time>
      </trkpt>
      <trkpt lat="46.3492930" lon="5.9154270">
        <ele>1195.4</ele>
        <time>2022-07-24T11:00:36Z</time>
      </trkpt>
      <trkpt lat="46.3492830" lon="5.9154200">
        <ele>1195.2</ele>
        <time>2022-07-24T11:00:38Z</time>
      </trkpt>
      <trkpt lat="46.3492840" lon="5.9154210">
        <ele>1195.0</ele>
        <time>2022-07-24T11:00:39Z</time>
      </trkpt>
      <trkpt lat="46.3492690" lon="5.9152710">
        <ele>1194.4</ele>
        <time>2022-07-24T11:01:03Z</time>
      </trkpt>
      <trkpt lat="46.3492490" lon="5.9151970">
        <ele>1194.4</ele>
        <time>2022-07-24T11:01:06Z</time>
      </trkpt>
      <trkpt lat="46.3492440" lon="5.9151710">
        <ele>1194.4</ele>
        <time>2022-07-24T11:01:09Z</time>
      </trkpt>
      <trkpt lat="46.3492080" lon="5.9150870">
        <ele>1194.0</ele>
        <time>2022-07-24T11:01:15Z</time>
      </trkpt>
      <trkpt lat="46.3491550" lon="5.9150080">
        <ele>1194.0</ele>
        <time>2022-07-24T11:01:17Z</time>
      </trkpt>
      <trkpt lat="46.3490150" lon="5.9147450">
        <ele>1193.8</ele>
        <time>2022-07-24T11:01:22Z</time>
      </trkpt>
      <trkpt lat="46.3489970" lon="5.9146900">
        <ele>1194.0</ele>
        <time>2022-07-24T11:01:23Z</time>
      </trkpt>
      <trkpt lat="46.3489460" lon="5.9145160">
        <ele>1193.2</ele>
        <time>2022-07-24T11:01:26Z</time>
      </trkpt>
      <trkpt lat="46.3489280" lon="5.9144620">
        <ele>1192.8</ele>
        <time>2022-07-24T11:01:27Z</time>
      </trkpt>
      <trkpt lat="46.3488960" lon="5.9143650">
        <ele>1192.0</ele>
        <time>2022-07-24T11:01:29Z</time>
      </trkpt>
      <trkpt lat="46.3488840" lon="5.9143120">
        <ele>1191.4</ele>
        <time>2022-07-24T11:01:30Z</time>
      </trkpt>
      <trkpt lat="46.3488600" lon="5.9141880">
        <ele>1190.4</ele>
        <time>2022-07-24T11:01:32Z</time>
      </trkpt>
      <trkpt lat="46.3488440" lon="5.9140590">
        <ele>1189.4</ele>
        <time>2022-07-24T11:01:34Z</time>
      </trkpt>
      <trkpt lat="46.3488410" lon="5.9140060">
        <ele>1189.0</ele>
        <time>2022-07-24T11:01:35Z</time>
      </trkpt>
      <trkpt lat="46.3488320" lon="5.9138090">
        <ele>1188.0</ele>
        <time>2022-07-24T11:01:39Z</time>
      </trkpt>
      <trkpt lat="46.3488250" lon="5.9136750">
        <ele>1187.0</ele>
        <time>2022-07-24T11:01:41Z</time>
      </trkpt>
      <trkpt lat="46.3488150" lon="5.9136090">
        <ele>1186.8</ele>
        <time>2022-07-24T11:01:42Z</time>
      </trkpt>
      <trkpt lat="46.3487980" lon="5.9135550">
        <ele>1186.6</ele>
        <time>2022-07-24T11:01:43Z</time>
      </trkpt>
      <trkpt lat="46.3487240" lon="5.9134600">
        <ele>1185.8</ele>
        <time>2022-07-24T11:01:46Z</time>
      </trkpt>
      <trkpt lat="46.3486290" lon="5.9133590">
        <ele>1184.4</ele>
        <time>2022-07-24T11:01:49Z</time>
      </trkpt>
      <trkpt lat="46.3485460" lon="5.9132410">
        <ele>1183.8</ele>
        <time>2022-07-24T11:01:52Z</time>
      </trkpt>
      <trkpt lat="46.3485120" lon="5.9131400">
        <ele>1183.6</ele>
        <time>2022-07-24T11:01:56Z</time>
      </trkpt>
      <trkpt lat="46.3485110" lon="5.9131320">
        <ele>1183.4</ele>
        <time>2022-07-24T11:01:57Z</time>
      </trkpt>
      <trkpt lat="46.3485050" lon="5.9131090">
        <ele>1182.6</ele>
        <time>2022-07-24T11:02:04Z</time>
      </trkpt>
      <trkpt lat="46.3484450" lon="5.9130290">
        <ele>1182.2</ele>
        <time>2022-07-24T11:02:14Z</time>
      </trkpt>
      <trkpt lat="46.3484340" lon="5.9130030">
        <ele>1182.2</ele>
        <time>2022-07-24T11:02:15Z</time>
      </trkpt>
      <trkpt lat="46.3483430" lon="5.9128120">
        <ele>1181.8</ele>
        <time>2022-07-24T11:02:21Z</time>
      </trkpt>
      <trkpt lat="46.3483420" lon="5.9126320">
        <ele>1181.4</ele>
        <time>2022-07-24T11:02:26Z</time>
      </trkpt>
      <trkpt lat="46.3483440" lon="5.9125640">
        <ele>1181.2</ele>
        <time>2022-07-24T11:02:28Z</time>
      </trkpt>
      <trkpt lat="46.3483210" lon="5.9124530">
        <ele>1181.0</ele>
        <time>2022-07-24T11:02:31Z</time>
      </trkpt>
      <trkpt lat="46.3482640" lon="5.9122540">
        <ele>1180.2</ele>
        <time>2022-07-24T11:02:37Z</time>
      </trkpt>
      <trkpt lat="46.3482320" lon="5.9121220">
        <ele>1180.2</ele>
        <time>2022-07-24T11:02:42Z</time>
      </trkpt>
      <trkpt lat="46.3481840" lon="5.9119590">
        <ele>1180.2</ele>
        <time>2022-07-24T11:02:49Z</time>
      </trkpt>
      <trkpt lat="46.3481130" lon="5.9118110">
        <ele>1180.2</ele>
        <time>2022-07-24T11:02:54Z</time>
      </trkpt>
      <trkpt lat="46.3480150" lon="5.9116430">
        <ele>1180.2</ele>
        <time>2022-07-24T11:02:59Z</time>
      </trkpt>
      <trkpt lat="46.3479450" lon="5.9114570">
        <ele>1180.0</ele>
        <time>2022-07-24T11:03:05Z</time>
      </trkpt>
      <trkpt lat="46.3479080" lon="5.9113680">
        <ele>1180.0</ele>
        <time>2022-07-24T11:03:10Z</time>
      </trkpt>
      <trkpt lat="46.3479030" lon="5.9113320">
        <ele>1180.2</ele>
        <time>2022-07-24T11:03:12Z</time>
      </trkpt>
      <trkpt lat="46.3478910" lon="5.9112620">
        <ele>1181.2</ele>
        <time>2022-07-24T11:03:16Z</time>
      </trkpt>
      <trkpt lat="46.3478640" lon="5.9111690">
        <ele>1182.2</ele>
        <time>2022-07-24T11:03:21Z</time>
      </trkpt>
      <trkpt lat="46.3478400" lon="5.9110910">
        <ele>1183.4</ele>
        <time>2022-07-24T11:03:26Z</time>
      </trkpt>
      <trkpt lat="46.3478430" lon="5.9110660">
        <ele>1183.6</ele>
        <time>2022-07-24T11:03:28Z</time>
      </trkpt>
      <trkpt lat="46.3478390" lon="5.9110190">
        <ele>1184.6</ele>
        <time>2022-07-24T11:03:32Z</time>
      </trkpt>
      <trkpt lat="46.3478400" lon="5.9109830">
        <ele>1185.4</ele>
        <time>2022-07-24T11:03:37Z</time>
      </trkpt>
      <trkpt lat="46.3478220" lon="5.9094830">
        <ele>1199.2</ele>
        <time>2022-07-24T11:05:56Z</time>
      </trkpt>
      <trkpt lat="46.3477980" lon="5.9094570">
        <ele>1199.2</ele>
        <time>2022-07-24T11:05:57Z</time>
      </trkpt>
      <trkpt lat="46.3476680" lon="5.9092840">
        <ele>1199.2</ele>
        <time>2022-07-24T11:06:03Z</time>
      </trkpt>
      <trkpt lat="46.3476170" lon="5.9091540">
        <ele>1198.2</ele>
        <time>2022-07-24T11:06:08Z</time>
      </trkpt>
      <trkpt lat="46.3475630" lon="5.9090590">
        <ele>1197.2</ele>
        <time>2022-07-24T11:06:13Z</time>
      </trkpt>
      <trkpt lat="46.3474820" lon="5.9089820">
        <ele>1196.2</ele>
        <time>2022-07-24T11:06:19Z</time>
      </trkpt>
      <trkpt lat="46.3474430" lon="5.9089060">
        <ele>1196.2</ele>
        <time>2022-07-24T11:06:25Z</time>
      </trkpt>
      <trkpt lat="46.3473910" lon="5.9087360">
        <ele>1196.6</ele>
        <time>2022-07-24T11:06:33Z</time>
      </trkpt>
      <trkpt lat="46.3474120" lon="5.9085830">
        <ele>1196.8</ele>
        <time>2022-07-24T11:06:38Z</time>
      </trkpt>
      <trkpt lat="46.3474130" lon="5.9084510">
        <ele>1197.0</ele>
        <time>2022-07-24T11:06:42Z</time>
      </trkpt>
      <trkpt lat="46.3474150" lon="5.9084030">
        <ele>1197.0</ele>
        <time>2022-07-24T11:06:44Z</time>
      </trkpt>
      <trkpt lat="46.3473720" lon="5.9083090">
        <ele>1197.0</ele>
        <time>2022-07-24T11:06:49Z</time>
      </trkpt>
      <trkpt lat="46.3473590" lon="5.9082660">
        <ele>1197.0</ele>
        <time>2022-07-24T11:06:51Z</time>
      </trkpt>
      <trkpt lat="46.3473580" lon="5.9081740">
        <ele>1197.0</ele>
        <time>2022-07-24T11:06:55Z</time>
      </trkpt>
      <trkpt lat="46.3473590" lon="5.9080120">
        <ele>1196.8</ele>
        <time>2022-07-24T11:07:01Z</time>
      </trkpt>
      <trkpt lat="46.3473790" lon="5.9079190">
        <ele>1196.4</ele>
        <time>2022-07-24T11:07:07Z</time>
      </trkpt>
      <trkpt lat="46.3474230" lon="5.9078660">
        <ele>1195.8</ele>
        <time>2022-07-24T11:07:12Z</time>
      </trkpt>
      <trkpt lat="46.3474460" lon="5.9078000">
        <ele>1195.6</ele>
        <time>2022-07-24T11:07:14Z</time>
      </trkpt>
      <trkpt lat="46.3474860" lon="5.9075380">
        <ele>1195.2</ele>
        <time>2022-07-24T11:07:19Z</time>
      </trkpt>
      <trkpt lat="46.3474890" lon="5.9074590">
        <ele>1194.6</ele>
        <time>2022-07-24T11:07:21Z</time>
      </trkpt>
      <trkpt lat="46.3475130" lon="5.9073290">
        <ele>1194.0</ele>
        <time>2022-07-24T11:07:25Z</time>
      </trkpt>
      <trkpt lat="46.3476030" lon="5.9071070">
        <ele>1193.6</ele>
        <time>2022-07-24T11:07:31Z</time>
      </trkpt>
      <trkpt lat="46.3476240" lon="5.9070720">
        <ele>1193.6</ele>
        <time>2022-07-24T11:07:32Z</time>
      </trkpt>
      <trkpt lat="46.3477390" lon="5.9068940">
        <ele>1193.6</ele>
        <time>2022-07-24T11:07:37Z</time>
      </trkpt>
      <trkpt lat="46.3478530" lon="5.9067180">
        <ele>1193.4</ele>
        <time>2022-07-24T11:07:40Z</time>
      </trkpt>
      <trkpt lat="46.3478900" lon="5.9066410">
        <ele>1193.2</ele>
        <time>2022-07-24T11:07:41Z</time>
      </trkpt>
      <trkpt lat="46.3480460" lon="5.9062900">
        <ele>1192.4</ele>
        <time>2022-07-24T11:07:46Z</time>
      </trkpt>
      <trkpt lat="46.3481070" lon="5.9061410">
        <ele>1191.0</ele>
        <time>2022-07-24T11:07:48Z</time>
      </trkpt>
      <trkpt lat="46.3482010" lon="5.9058970">
        <ele>1189.8</ele>
        <time>2022-07-24T11:07:51Z</time>
      </trkpt>
      <trkpt lat="46.3482350" lon="5.9058200">
        <ele>1189.6</ele>
        <time>2022-07-24T11:07:52Z</time>
      </trkpt>
      <trkpt lat="46.3483180" lon="5.9056220">
        <ele>1188.4</ele>
        <time>2022-07-24T11:07:55Z</time>
      </trkpt>
      <trkpt lat="46.3483680" lon="5.9054990">
        <ele>1187.4</ele>
        <time>2022-07-24T11:07:57Z</time>
      </trkpt>
      <trkpt lat="46.3483900" lon="5.9054410">
        <ele>1187.0</ele>
        <time>2022-07-24T11:07:58Z</time>
      </trkpt>
      <trkpt lat="46.3484210" lon="5.9053310">
        <ele>1184.6</ele>
        <time>2022-07-24T11:08:01Z</time>
      </trkpt>
      <trkpt lat="46.3484290" lon="5.9052620">
        <ele>1183.2</ele>
        <time>2022-07-24T11:08:03Z</time>
      </trkpt>
      <trkpt lat="46.3484290" lon="5.9051750">
        <ele>1182.2</ele>
        <time>2022-07-24T11:08:05Z</time>
      </trkpt>
      <trkpt lat="46.3484170" lon="5.9051250">
        <ele>1181.6</ele>
        <time>2022-07-24T11:08:06Z</time>
      </trkpt>
      <trkpt lat="46.3484030" lon="5.9050740">
        <ele>1181.2</ele>
        <time>2022-07-24T11:08:07Z</time>
      </trkpt>
      <trkpt lat="46.3483400" lon="5.9048990">
        <ele>1180.6</ele>
        <time>2022-07-24T11:08:10Z</time>
      </trkpt>
      <trkpt lat="46.3483100" lon="5.9047510">
        <ele>1180.2</ele>
        <time>2022-07-24T11:08:12Z</time>
      </trkpt>
      <trkpt lat="46.3483020" lon="5.9046740">
        <ele>1180.0</ele>
        <time>2022-07-24T11:08:13Z</time>
      </trkpt>
      <trkpt lat="46.3482970" lon="5.9045980">
        <ele>1179.2</ele>
        <time>2022-07-24T11:08:14Z</time>
      </trkpt>
      <trkpt lat="46.3482920" lon="5.9045220">
        <ele>1178.8</ele>
        <time>2022-07-24T11:08:15Z</time>
      </trkpt>
      <trkpt lat="46.3482910" lon="5.9044490">
        <ele>1178.4</ele>
        <time>2022-07-24T11:08:16Z</time>
      </trkpt>
      <trkpt lat="46.3482930" lon="5.9043080">
        <ele>1177.6</ele>
        <time>2022-07-24T11:08:18Z</time>
      </trkpt>
      <trkpt lat="46.3482930" lon="5.9042440">
        <ele>1177.0</ele>
        <time>2022-07-24T11:08:19Z</time>
      </trkpt>
      <trkpt lat="46.3482930" lon="5.9041860">
        <ele>1176.6</ele>
        <time>2022-07-24T11:08:20Z</time>
      </trkpt>
      <trkpt lat="46.3482800" lon="5.9040840">
        <ele>1175.4</ele>
        <time>2022-07-24T11:08:22Z</time>
      </trkpt>
      <trkpt lat="46.3482720" lon="5.9039840">
        <ele>1174.8</ele>
        <time>2022-07-24T11:08:24Z</time>
      </trkpt>
      <trkpt lat="46.3482020" lon="5.9038380">
        <ele>1174.6</ele>
        <time>2022-07-24T11:08:28Z</time>
      </trkpt>
      <trkpt lat="46.3481560" lon="5.9037710">
        <ele>1174.4</ele>
        <time>2022-07-24T11:08:30Z</time>
      </trkpt>
      <trkpt lat="46.3480700" lon="5.9036570">
        <ele>1174.2</ele>
        <time>2022-07-24T11:08:34Z</time>
      </trkpt>
      <trkpt lat="46.3479340" lon="5.9034670">
        <ele>1173.6</ele>
        <time>2022-07-24T11:08:41Z</time>
      </trkpt>
      <trkpt lat="46.3478370" lon="5.9032910">
        <ele>1173.4</ele>
        <time>2022-07-24T11:08:46Z</time>
      </trkpt>
      <trkpt lat="46.3478250" lon="5.9032670">
        <ele>1173.4</ele>
        <time>2022-07-24T11:08:47Z</time>
      </trkpt>
      <trkpt lat="46.3477890" lon="5.9032050">
        <ele>1173.0</ele>
        <time>2022-07-24T11:08:50Z</time>
      </trkpt>
      <trkpt lat="46.3477540" lon="5.9031650">
        <ele>1172.4</ele>
        <time>2022-07-24T11:08:52Z</time>
      </trkpt>
      <trkpt lat="46.3477370" lon="5.9031430">
        <ele>1172.2</ele>
        <time>2022-07-24T11:08:53Z</time>
      </trkpt>
      <trkpt lat="46.3476390" lon="5.9030220">
        <ele>1172.0</ele>
        <time>2022-07-24T11:08:58Z</time>
      </trkpt>
      <trkpt lat="46.3476150" lon="5.9030060">
        <ele>1172.0</ele>
        <time>2022-07-24T11:08:59Z</time>
      </trkpt>
      <trkpt lat="46.3475180" lon="5.9029810">
        <ele>1171.8</ele>
        <time>2022-07-24T11:09:03Z</time>
      </trkpt>
      <trkpt lat="46.3473840" lon="5.9029660">
        <ele>1171.8</ele>
        <time>2022-07-24T11:09:08Z</time>
      </trkpt>
      <trkpt lat="46.3472570" lon="5.9029180">
        <ele>1171.6</ele>
        <time>2022-07-24T11:09:13Z</time>
      </trkpt>
      <trkpt lat="46.3471460" lon="5.9028890">
        <ele>1171.8</ele>
        <time>2022-07-24T11:09:19Z</time>
      </trkpt>
      <trkpt lat="46.3470170" lon="5.9028840">
        <ele>1172.6</ele>
        <time>2022-07-24T11:09:24Z</time>
      </trkpt>
      <trkpt lat="46.3468570" lon="5.9030050">
        <ele>1172.8</ele>
        <time>2022-07-24T11:09:29Z</time>
      </trkpt>
      <trkpt lat="46.3466650" lon="5.9032200">
        <ele>1172.6</ele>
        <time>2022-07-24T11:09:34Z</time>
      </trkpt>
      <trkpt lat="46.3464420" lon="5.9035970">
        <ele>1171.8</ele>
        <time>2022-07-24T11:09:39Z</time>
      </trkpt>
      <trkpt lat="46.3463710" lon="5.9037640">
        <ele>1171.0</ele>
        <time>2022-07-24T11:09:41Z</time>
      </trkpt>
      <trkpt lat="46.3463220" lon="5.9038810">
        <ele>1170.4</ele>
        <time>2022-07-24T11:09:43Z</time>
      </trkpt>
      <trkpt lat="46.3462990" lon="5.9039250">
        <ele>1170.0</ele>
        <time>2022-07-24T11:09:44Z</time>
      </trkpt>
      <trkpt lat="46.3462480" lon="5.9040080">
        <ele>1169.0</ele>
        <time>2022-07-24T11:09:47Z</time>
      </trkpt>
      <trkpt lat="46.3461630" lon="5.9041290">
        <ele>1169.0</ele>
        <time>2022-07-24T11:09:53Z</time>
      </trkpt>
      <trkpt lat="46.3461060" lon="5.9042280">
        <ele>1169.4</ele>
        <time>2022-07-24T11:09:58Z</time>
      </trkpt>
      <trkpt lat="46.3460470" lon="5.9042980">
        <ele>1170.0</ele>
        <time>2022-07-24T11:10:02Z</time>
      </trkpt>
      <trkpt lat="46.3460110" lon="5.9043350">
        <ele>1170.2</ele>
        <time>2022-07-24T11:10:04Z</time>
      </trkpt>
      <trkpt lat="46.3459050" lon="5.9044020">
        <ele>1170.8</ele>
        <time>2022-07-24T11:10:10Z</time>
      </trkpt>
      <trkpt lat="46.3458850" lon="5.9044060">
        <ele>1171.0</ele>
        <time>2022-07-24T11:10:11Z</time>
      </trkpt>
      <trkpt lat="46.3457670" lon="5.9044040">
        <ele>1171.8</ele>
        <time>2022-07-24T11:10:17Z</time>
      </trkpt>
      <trkpt lat="46.3457540" lon="5.9044050">
        <ele>1172.0</ele>
        <time>2022-07-24T11:10:18Z</time>
      </trkpt>
      <trkpt lat="46.3456730" lon="5.9044150">
        <ele>1172.8</ele>
        <time>2022-07-24T11:10:23Z</time>
      </trkpt>
      <trkpt lat="46.3456350" lon="5.9044130">
        <ele>1173.0</ele>
        <time>2022-07-24T11:10:25Z</time>
      </trkpt>
      <trkpt lat="46.3455140" lon="5.9044010">
        <ele>1173.8</ele>
        <time>2022-07-24T11:10:31Z</time>
      </trkpt>
      <trkpt lat="46.3454720" lon="5.9043900">
        <ele>1174.0</ele>
        <time>2022-07-24T11:10:33Z</time>
      </trkpt>
      <trkpt lat="46.3453540" lon="5.9043720">
        <ele>1174.6</ele>
        <time>2022-07-24T11:10:39Z</time>
      </trkpt>
      <trkpt lat="46.3452820" lon="5.9043360">
        <ele>1175.0</ele>
        <time>2022-07-24T11:10:43Z</time>
      </trkpt>
      <trkpt lat="46.3451840" lon="5.9042580">
        <ele>1175.4</ele>
        <time>2022-07-24T11:10:48Z</time>
      </trkpt>
      <trkpt lat="46.3450550" lon="5.9041290">
        <ele>1175.8</ele>
        <time>2022-07-24T11:10:55Z</time>
      </trkpt>
      <trkpt lat="46.3449730" lon="5.9040280">
        <ele>1175.8</ele>
        <time>2022-07-24T11:11:00Z</time>
      </trkpt>
      <trkpt lat="46.3448670" lon="5.9038550">
        <ele>1175.8</ele>
        <time>2022-07-24T11:11:06Z</time>
      </trkpt>
      <trkpt lat="46.3447520" lon="5.9036120">
        <ele>1175.8</ele>
        <time>2022-07-24T11:11:12Z</time>
      </trkpt>
      <trkpt lat="46.3446300" lon="5.9034080">
        <ele>1175.2</ele>
        <time>2022-07-24T11:11:18Z</time>
      </trkpt>
      <trkpt lat="46.3444740" lon="5.9032650">
        <ele>1175.2</ele>
        <time>2022-07-24T11:11:24Z</time>
      </trkpt>
      <trkpt lat="46.3443240" lon="5.9031290">
        <ele>1175.4</ele>
        <time>2022-07-24T11:11:30Z</time>
      </trkpt>
      <trkpt lat="46.3441230" lon="5.9029920">
        <ele>1175.8</ele>
        <time>2022-07-24T11:11:36Z</time>
      </trkpt>
      <trkpt lat="46.3439470" lon="5.9027570">
        <ele>1175.6</ele>
        <time>2022-07-24T11:11:42Z</time>
      </trkpt>
      <trkpt lat="46.3438230" lon="5.9025780">
        <ele>1174.6</ele>
        <time>2022-07-24T11:11:48Z</time>
      </trkpt>
      <trkpt lat="46.3437980" lon="5.9024170">
        <ele>1174.4</ele>
        <time>2022-07-24T11:11:51Z</time>
      </trkpt>
      <trkpt lat="46.3437990" lon="5.9023510">
        <ele>1174.4</ele>
        <time>2022-07-24T11:11:52Z</time>
      </trkpt>
      <trkpt lat="46.3438170" lon="5.9021470">
        <ele>1174.2</ele>
        <time>2022-07-24T11:11:55Z</time>
      </trkpt>
      <trkpt lat="46.3438200" lon="5.9020680">
        <ele>1174.2</ele>
        <time>2022-07-24T11:11:56Z</time>
      </trkpt>
      <trkpt lat="46.3438180" lon="5.9019820">
        <ele>1174.2</ele>
        <time>2022-07-24T11:11:57Z</time>
      </trkpt>
      <trkpt lat="46.3437680" lon="5.9015280">
        <ele>1173.0</ele>
        <time>2022-07-24T11:12:02Z</time>
      </trkpt>
      <trkpt lat="46.3437450" lon="5.9014360">
        <ele>1172.8</ele>
        <time>2022-07-24T11:12:03Z</time>
      </trkpt>
      <trkpt lat="46.3436940" lon="5.9012540">
        <ele>1172.0</ele>
        <time>2022-07-24T11:12:05Z</time>
      </trkpt>
      <trkpt lat="46.3435900" lon="5.9009330">
        <ele>1170.6</ele>
        <time>2022-07-24T11:12:09Z</time>
      </trkpt>
      <trkpt lat="46.3435410" lon="5.9007640">
        <ele>1169.2</ele>
        <time>2022-07-24T11:12:12Z</time>
      </trkpt>
      <trkpt lat="46.3435310" lon="5.9007050">
        <ele>1169.0</ele>
        <time>2022-07-24T11:12:13Z</time>
      </trkpt>
      <trkpt lat="46.3434980" lon="5.9003920">
        <ele>1168.4</ele>
        <time>2022-07-24T11:12:18Z</time>
      </trkpt>
      <trkpt lat="46.3434910" lon="5.9002760">
        <ele>1168.2</ele>
        <time>2022-07-24T11:12:22Z</time>
      </trkpt>
      <trkpt lat="46.3434720" lon="5.9001360">
        <ele>1167.2</ele>
        <time>2022-07-24T11:12:27Z</time>
      </trkpt>
      <trkpt lat="46.3434600" lon="5.9001200">
        <ele>1167.0</ele>
        <time>2022-07-24T11:12:28Z</time>
      </trkpt>
      <trkpt lat="46.3434430" lon="5.9001080">
        <ele>1166.8</ele>
        <time>2022-07-24T11:12:29Z</time>
      </trkpt>
      <trkpt lat="46.3433730" lon="5.9000850">
        <ele>1166.0</ele>
        <time>2022-07-24T11:12:32Z</time>
      </trkpt>
      <trkpt lat="46.3433430" lon="5.9000710">
        <ele>1165.8</ele>
        <time>2022-07-24T11:12:33Z</time>
      </trkpt>
      <trkpt lat="46.3432080" lon="5.8999870">
        <ele>1165.2</ele>
        <time>2022-07-24T11:12:37Z</time>
      </trkpt>
      <trkpt lat="46.3431740" lon="5.8999650">
        <ele>1164.8</ele>
        <time>2022-07-24T11:12:38Z</time>
      </trkpt>
      <trkpt lat="46.3430760" lon="5.8999070">
        <ele>1163.8</ele>
        <time>2022-07-24T11:12:41Z</time>
      </trkpt>
      <trkpt lat="46.3430090" lon="5.8998540">
        <ele>1162.8</ele>
        <time>2022-07-24T11:12:43Z</time>
      </trkpt>
      <trkpt lat="46.3429380" lon="5.8998130">
        <ele>1161.6</ele>
        <time>2022-07-24T11:12:45Z</time>
      </trkpt>
      <trkpt lat="46.3428850" lon="5.8997790">
        <ele>1160.4</ele>
        <time>2022-07-24T11:12:47Z</time>
      </trkpt>
      <trkpt lat="46.3428590" lon="5.8997590">
        <ele>1159.8</ele>
        <time>2022-07-24T11:12:48Z</time>
      </trkpt>
      <trkpt lat="46.3428300" lon="5.8997360">
        <ele>1159.4</ele>
        <time>2022-07-24T11:12:49Z</time>
      </trkpt>
      <trkpt lat="46.3427460" lon="5.8996790">
        <ele>1158.0</ele>
        <time>2022-07-24T11:12:52Z</time>
      </trkpt>
      <trkpt lat="46.3427250" lon="5.8996640">
        <ele>1157.6</ele>
        <time>2022-07-24T11:12:53Z</time>
      </trkpt>
      <trkpt lat="46.3426560" lon="5.8996610">
        <ele>1156.8</ele>
        <time>2022-07-24T11:12:56Z</time>
      </trkpt>
      <trkpt lat="46.3426320" lon="5.8996930">
        <ele>1156.4</ele>
        <time>2022-07-24T11:12:57Z</time>
      </trkpt>
      <trkpt lat="46.3426200" lon="5.8998290">
        <ele>1155.6</ele>
        <time>2022-07-24T11:13:00Z</time>
      </trkpt>
      <trkpt lat="46.3426310" lon="5.8998760">
        <ele>1155.2</ele>
        <time>2022-07-24T11:13:01Z</time>
      </trkpt>
      <trkpt lat="46.3426670" lon="5.9000680">
        <ele>1154.6</ele>
        <time>2022-07-24T11:13:04Z</time>
      </trkpt>
      <trkpt lat="46.3426640" lon="5.9001500">
        <ele>1154.4</ele>
        <time>2022-07-24T11:13:05Z</time>
      </trkpt>
      <trkpt lat="46.3425490" lon="5.9003730">
        <ele>1153.8</ele>
        <time>2022-07-24T11:13:08Z</time>
      </trkpt>
      <trkpt lat="46.3424110" lon="5.9004230">
        <ele>1153.4</ele>
        <time>2022-07-24T11:13:10Z</time>
      </trkpt>
      <trkpt lat="46.3423360" lon="5.9004200">
        <ele>1153.2</ele>
        <time>2022-07-24T11:13:11Z</time>
      </trkpt>
      <trkpt lat="46.3422630" lon="5.9004110">
        <ele>1153.2</ele>
        <time>2022-07-24T11:13:12Z</time>
      </trkpt>
      <trkpt lat="46.3421200" lon="5.9003920">
        <ele>1152.6</ele>
        <time>2022-07-24T11:13:14Z</time>
      </trkpt>
      <trkpt lat="46.3419880" lon="5.9003930">
        <ele>1151.6</ele>
        <time>2022-07-24T11:13:16Z</time>
      </trkpt>
      <trkpt lat="46.3419260" lon="5.9004060">
        <ele>1151.4</ele>
        <time>2022-07-24T11:13:17Z</time>
      </trkpt>
      <trkpt lat="46.3417580" lon="5.9004830">
        <ele>1150.4</ele>
        <time>2022-07-24T11:13:20Z</time>
      </trkpt>
      <trkpt lat="46.3416000" lon="5.9005800">
        <ele>1149.4</ele>
        <time>2022-07-24T11:13:23Z</time>
      </trkpt>
      <trkpt lat="46.3415470" lon="5.9006080">
        <ele>1149.4</ele>
        <time>2022-07-24T11:13:24Z</time>
      </trkpt>
      <trkpt lat="46.3414380" lon="5.9006460">
        <ele>1149.0</ele>
        <time>2022-07-24T11:13:26Z</time>
      </trkpt>
      <trkpt lat="46.3413260" lon="5.9006540">
        <ele>1148.8</ele>
        <time>2022-07-24T11:13:28Z</time>
      </trkpt>
      <trkpt lat="46.3411450" lon="5.9006590">
        <ele>1148.6</ele>
        <time>2022-07-24T11:13:31Z</time>
      </trkpt>
      <trkpt lat="46.3410170" lon="5.9007100">
        <ele>1148.4</ele>
        <time>2022-07-24T11:13:33Z</time>
      </trkpt>
      <trkpt lat="46.3409510" lon="5.9007470">
        <ele>1148.4</ele>
        <time>2022-07-24T11:13:34Z</time>
      </trkpt>
      <trkpt lat="46.3406900" lon="5.9009370">
        <ele>1147.8</ele>
        <time>2022-07-24T11:13:38Z</time>
      </trkpt>
      <trkpt lat="46.3405270" lon="5.9010430">
        <ele>1147.2</ele>
        <time>2022-07-24T11:13:41Z</time>
      </trkpt>
      <trkpt lat="46.3404230" lon="5.9011030">
        <ele>1146.6</ele>
        <time>2022-07-24T11:13:43Z</time>
      </trkpt>
      <trkpt lat="46.3403750" lon="5.9011350">
        <ele>1146.2</ele>
        <time>2022-07-24T11:13:44Z</time>
      </trkpt>
      <trkpt lat="46.3403310" lon="5.9011700">
        <ele>1145.8</ele>
        <time>2022-07-24T11:13:45Z</time>
      </trkpt>
      <trkpt lat="46.3402070" lon="5.9012920">
        <ele>1145.2</ele>
        <time>2022-07-24T11:13:48Z</time>
      </trkpt>
      <trkpt lat="46.3399160" lon="5.9015840">
        <ele>1144.6</ele>
        <time>2022-07-24T11:13:55Z</time>
      </trkpt>
      <trkpt lat="46.3397930" lon="5.9016850">
        <ele>1144.4</ele>
        <time>2022-07-24T11:13:58Z</time>
      </trkpt>
      <trkpt lat="46.3396600" lon="5.9017530">
        <ele>1144.0</ele>
        <time>2022-07-24T11:14:01Z</time>
      </trkpt>
      <trkpt lat="46.3394360" lon="5.9017600">
        <ele>1143.8</ele>
        <time>2022-07-24T11:14:06Z</time>
      </trkpt>
      <trkpt lat="46.3393470" lon="5.9016430">
        <ele>1143.6</ele>
        <time>2022-07-24T11:14:09Z</time>
      </trkpt>
      <trkpt lat="46.3393820" lon="5.9014820">
        <ele>1143.6</ele>
        <time>2022-07-24T11:14:12Z</time>
      </trkpt>
      <trkpt lat="46.3394060" lon="5.9013990">
        <ele>1143.6</ele>
        <time>2022-07-24T11:14:14Z</time>
      </trkpt>
      <trkpt lat="46.3394080" lon="5.9013600">
        <ele>1143.4</ele>
        <time>2022-07-24T11:14:15Z</time>
      </trkpt>
      <trkpt lat="46.3393940" lon="5.9013260">
        <ele>1143.2</ele>
        <time>2022-07-24T11:14:16Z</time>
      </trkpt>
      <trkpt lat="46.3392900" lon="5.9012840">
        <ele>1142.8</ele>
        <time>2022-07-24T11:14:19Z</time>
      </trkpt>
      <trkpt lat="46.3392440" lon="5.9012730">
        <ele>1142.6</ele>
        <time>2022-07-24T11:14:20Z</time>
      </trkpt>
      <trkpt lat="46.3390550" lon="5.9012130">
        <ele>1142.4</ele>
        <time>2022-07-24T11:14:24Z</time>
      </trkpt>
      <trkpt lat="46.3390060" lon="5.9011860">
        <ele>1142.2</ele>
        <time>2022-07-24T11:14:25Z</time>
      </trkpt>
      <trkpt lat="46.3388300" lon="5.9009700">
        <ele>1141.2</ele>
        <time>2022-07-24T11:14:29Z</time>
      </trkpt>
      <trkpt lat="46.3387660" lon="5.9008220">
        <ele>1140.6</ele>
        <time>2022-07-24T11:14:31Z</time>
      </trkpt>
      <trkpt lat="46.3387060" lon="5.9006540">
        <ele>1140.0</ele>
        <time>2022-07-24T11:14:33Z</time>
      </trkpt>
      <trkpt lat="46.3386750" lon="5.9005650">
        <ele>1139.8</ele>
        <time>2022-07-24T11:14:34Z</time>
      </trkpt>
      <trkpt lat="46.3385140" lon="5.9000880">
        <ele>1138.8</ele>
        <time>2022-07-24T11:14:39Z</time>
      </trkpt>
      <trkpt lat="46.3384700" lon="5.8999950">
        <ele>1138.6</ele>
        <time>2022-07-24T11:14:40Z</time>
      </trkpt>
      <trkpt lat="46.3382950" lon="5.8997860">
        <ele>1137.8</ele>
        <time>2022-07-24T11:14:43Z</time>
      </trkpt>
      <trkpt lat="46.3382230" lon="5.8997440">
        <ele>1137.6</ele>
        <time>2022-07-24T11:14:44Z</time>
      </trkpt>
      <trkpt lat="46.3380710" lon="5.8997230">
        <ele>1137.0</ele>
        <time>2022-07-24T11:14:46Z</time>
      </trkpt>
      <trkpt lat="46.3379300" lon="5.8997910">
        <ele>1136.4</ele>
        <time>2022-07-24T11:14:48Z</time>
      </trkpt>
      <trkpt lat="46.3378650" lon="5.8998380">
        <ele>1136.0</ele>
        <time>2022-07-24T11:14:49Z</time>
      </trkpt>
      <trkpt lat="46.3376500" lon="5.8998610">
        <ele>1135.4</ele>
        <time>2022-07-24T11:14:52Z</time>
      </trkpt>
      <trkpt lat="46.3374970" lon="5.8996640">
        <ele>1135.0</ele>
        <time>2022-07-24T11:14:55Z</time>
      </trkpt>
      <trkpt lat="46.3374030" lon="5.8995110">
        <ele>1134.8</ele>
        <time>2022-07-24T11:14:57Z</time>
      </trkpt>
      <trkpt lat="46.3372810" lon="5.8994000">
        <ele>1134.4</ele>
        <time>2022-07-24T11:14:59Z</time>
      </trkpt>
      <trkpt lat="46.3372100" lon="5.8993700">
        <ele>1134.0</ele>
        <time>2022-07-24T11:15:00Z</time>
      </trkpt>
      <trkpt lat="46.3370670" lon="5.8993400">
        <ele>1133.4</ele>
        <time>2022-07-24T11:15:02Z</time>
      </trkpt>
      <trkpt lat="46.3369960" lon="5.8993250">
        <ele>1133.2</ele>
        <time>2022-07-24T11:15:03Z</time>
      </trkpt>
      <trkpt lat="46.3369260" lon="5.8993000">
        <ele>1133.0</ele>
        <time>2022-07-24T11:15:04Z</time>
      </trkpt>
      <trkpt lat="46.3368040" lon="5.8991960">
        <ele>1132.8</ele>
        <time>2022-07-24T11:15:06Z</time>
      </trkpt>
      <trkpt lat="46.3366130" lon="5.8988520">
        <ele>1132.2</ele>
        <time>2022-07-24T11:15:10Z</time>
      </trkpt>
      <trkpt lat="46.3365580" lon="5.8987740">
        <ele>1132.0</ele>
        <time>2022-07-24T11:15:11Z</time>
      </trkpt>
      <trkpt lat="46.3363560" lon="5.8984410">
        <ele>1131.2</ele>
        <time>2022-07-24T11:15:15Z</time>
      </trkpt>
      <trkpt lat="46.3363200" lon="5.8983410">
        <ele>1131.0</ele>
        <time>2022-07-24T11:15:16Z</time>
      </trkpt>
      <trkpt lat="46.3362000" lon="5.8980460">
        <ele>1130.0</ele>
        <time>2022-07-24T11:15:19Z</time>
      </trkpt>
      <trkpt lat="46.3361460" lon="5.8979610">
        <ele>1129.8</ele>
        <time>2022-07-24T11:15:20Z</time>
      </trkpt>
      <trkpt lat="46.3359330" lon="5.8978000">
        <ele>1129.2</ele>
        <time>2022-07-24T11:15:23Z</time>
      </trkpt>
      <trkpt lat="46.3358540" lon="5.8977760">
        <ele>1128.8</ele>
        <time>2022-07-24T11:15:24Z</time>
      </trkpt>
      <trkpt lat="46.3356940" lon="5.8977860">
        <ele>1128.2</ele>
        <time>2022-07-24T11:15:26Z</time>
      </trkpt>
      <trkpt lat="46.3354790" lon="5.8979410">
        <ele>1127.6</ele>
        <time>2022-07-24T11:15:29Z</time>
      </trkpt>
      <trkpt lat="46.3353660" lon="5.8981100">
        <ele>1127.0</ele>
        <time>2022-07-24T11:15:31Z</time>
      </trkpt>
      <trkpt lat="46.3353130" lon="5.8981970">
        <ele>1126.6</ele>
        <time>2022-07-24T11:15:32Z</time>
      </trkpt>
      <trkpt lat="46.3352600" lon="5.8982840">
        <ele>1126.2</ele>
        <time>2022-07-24T11:15:33Z</time>
      </trkpt>
      <trkpt lat="46.3351030" lon="5.8985410">
        <ele>1125.2</ele>
        <time>2022-07-24T11:15:36Z</time>
      </trkpt>
      <trkpt lat="46.3349010" lon="5.8988720">
        <ele>1125.0</ele>
        <time>2022-07-24T11:15:40Z</time>
      </trkpt>
      <trkpt lat="46.3347280" lon="5.8990740">
        <ele>1124.4</ele>
        <time>2022-07-24T11:15:43Z</time>
      </trkpt>
      <trkpt lat="46.3346070" lon="5.8991810">
        <ele>1123.8</ele>
        <time>2022-07-24T11:15:45Z</time>
      </trkpt>
      <trkpt lat="46.3344280" lon="5.8993180">
        <ele>1123.2</ele>
        <time>2022-07-24T11:15:48Z</time>
      </trkpt>
      <trkpt lat="46.3342010" lon="5.8994700">
        <ele>1123.0</ele>
        <time>2022-07-24T11:15:52Z</time>
      </trkpt>
      <trkpt lat="46.3337430" lon="5.8998380">
        <ele>1122.8</ele>
        <time>2022-07-24T11:16:01Z</time>
      </trkpt>
      <trkpt lat="46.3334490" lon="5.9001690">
        <ele>1122.6</ele>
        <time>2022-07-24T11:16:07Z</time>
      </trkpt>
      <trkpt lat="46.3332760" lon="5.9004300">
        <ele>1122.0</ele>
        <time>2022-07-24T11:16:11Z</time>
      </trkpt>
      <trkpt lat="46.3330480" lon="5.9007250">
        <ele>1121.4</ele>
        <time>2022-07-24T11:16:16Z</time>
      </trkpt>
      <trkpt lat="46.3329490" lon="5.9008240">
        <ele>1121.2</ele>
        <time>2022-07-24T11:16:18Z</time>
      </trkpt>
      <trkpt lat="46.3326540" lon="5.9010830">
        <ele>1120.8</ele>
        <time>2022-07-24T11:16:24Z</time>
      </trkpt>
      <trkpt lat="46.3323730" lon="5.9014350">
        <ele>1120.6</ele>
        <time>2022-07-24T11:16:31Z</time>
      </trkpt>
      <trkpt lat="46.3321830" lon="5.9018570">
        <ele>1120.6</ele>
        <time>2022-07-24T11:16:38Z</time>
      </trkpt>
      <trkpt lat="46.3320020" lon="5.9023550">
        <ele>1120.8</ele>
        <time>2022-07-24T11:16:47Z</time>
      </trkpt>
      <trkpt lat="46.3319300" lon="5.9025550">
        <ele>1121.0</ele>
        <time>2022-07-24T11:16:51Z</time>
      </trkpt>
      <trkpt lat="46.3318620" lon="5.9027460">
        <ele>1121.2</ele>
        <time>2022-07-24T11:16:55Z</time>
      </trkpt>
      <trkpt lat="46.3317170" lon="5.9031520">
        <ele>1122.2</ele>
        <time>2022-07-24T11:17:04Z</time>
      </trkpt>
      <trkpt lat="46.3317000" lon="5.9031930">
        <ele>1122.2</ele>
        <time>2022-07-24T11:17:05Z</time>
      </trkpt>
      <trkpt lat="46.3315770" lon="5.9035230">
        <ele>1123.2</ele>
        <time>2022-07-24T11:17:13Z</time>
      </trkpt>
      <trkpt lat="46.3315630" lon="5.9035640">
        <ele>1123.4</ele>
        <time>2022-07-24T11:17:14Z</time>
      </trkpt>
      <trkpt lat="46.3314610" lon="5.9038500">
        <ele>1124.2</ele>
        <time>2022-07-24T11:17:21Z</time>
      </trkpt>
      <trkpt lat="46.3314310" lon="5.9039380">
        <ele>1124.2</ele>
        <time>2022-07-24T11:17:23Z</time>
      </trkpt>
      <trkpt lat="46.3313070" lon="5.9041260">
        <ele>1124.6</ele>
        <time>2022-07-24T11:17:28Z</time>
      </trkpt>
      <trkpt lat="46.3311860" lon="5.9041170">
        <ele>1124.8</ele>
        <time>2022-07-24T11:17:31Z</time>
      </trkpt>
      <trkpt lat="46.3310820" lon="5.9040030">
        <ele>1124.8</ele>
        <time>2022-07-24T11:17:34Z</time>
      </trkpt>
      <trkpt lat="46.3310460" lon="5.9039570">
        <ele>1124.8</ele>
        <time>2022-07-24T11:17:35Z</time>
      </trkpt>
      <trkpt lat="46.3307480" lon="5.9036140">
        <ele>1124.2</ele>
        <time>2022-07-24T11:17:42Z</time>
      </trkpt>
      <trkpt lat="46.3304210" lon="5.9032540">
        <ele>1123.4</ele>
        <time>2022-07-24T11:17:49Z</time>
      </trkpt>
      <trkpt lat="46.3302770" lon="5.9030930">
        <ele>1123.2</ele>
        <time>2022-07-24T11:17:52Z</time>
      </trkpt>
      <trkpt lat="46.3298220" lon="5.9025910">
        <ele>1122.4</ele>
        <time>2022-07-24T11:18:02Z</time>
      </trkpt>
      <trkpt lat="46.3297820" lon="5.9025440">
        <ele>1122.4</ele>
        <time>2022-07-24T11:18:03Z</time>
      </trkpt>
      <trkpt lat="46.3294850" lon="5.9022140">
        <ele>1122.2</ele>
        <time>2022-07-24T11:18:11Z</time>
      </trkpt>
      <trkpt lat="46.3291290" lon="5.9018280">
        <ele>1123.0</ele>
        <time>2022-07-24T11:18:22Z</time>
      </trkpt>
      <trkpt lat="46.3287850" lon="5.9014640">
        <ele>1123.4</ele>
        <time>2022-07-24T11:18:33Z</time>
      </trkpt>
      <trkpt lat="46.3287260" lon="5.9014020">
        <ele>1123.6</ele>
        <time>2022-07-24T11:18:35Z</time>
      </trkpt>
      <trkpt lat="46.3285250" lon="5.9011890">
        <ele>1124.4</ele>
        <time>2022-07-24T11:18:42Z</time>
      </trkpt>
      <trkpt lat="46.3284970" lon="5.9011580">
        <ele>1124.6</ele>
        <time>2022-07-24T11:18:43Z</time>
      </trkpt>
      <trkpt lat="46.3282570" lon="5.9008940">
        <ele>1125.6</ele>
        <time>2022-07-24T11:18:52Z</time>
      </trkpt>
      <trkpt lat="46.3281470" lon="5.9007720">
        <ele>1125.8</ele>
        <time>2022-07-24T11:18:56Z</time>
      </trkpt>
      <trkpt lat="46.3280030" lon="5.9006200">
        <ele>1126.4</ele>
        <time>2022-07-24T11:19:01Z</time>
      </trkpt>
      <trkpt lat="46.3278320" lon="5.9004370">
        <ele>1127.0</ele>
        <time>2022-07-24T11:19:07Z</time>
      </trkpt>
      <trkpt lat="46.3276290" lon="5.9002040">
        <ele>1127.2</ele>
        <time>2022-07-24T11:19:14Z</time>
      </trkpt>
      <trkpt lat="46.3273790" lon="5.8999340">
        <ele>1127.8</ele>
        <time>2022-07-24T11:19:23Z</time>
      </trkpt>
      <trkpt lat="46.3273060" lon="5.8998560">
        <ele>1128.2</ele>
        <time>2022-07-24T11:19:26Z</time>
      </trkpt>
      <trkpt lat="46.3271500" lon="5.8996890">
        <ele>1129.2</ele>
        <time>2022-07-24T11:19:33Z</time>
      </trkpt>
      <trkpt lat="46.3270190" lon="5.8995600">
        <ele>1130.2</ele>
        <time>2022-07-24T11:19:39Z</time>
      </trkpt>
      <trkpt lat="46.3269970" lon="5.8995420">
        <ele>1130.4</ele>
        <time>2022-07-24T11:19:40Z</time>
      </trkpt>
      <trkpt lat="46.3269520" lon="5.8995100">
        <ele>1130.8</ele>
        <time>2022-07-24T11:19:42Z</time>
      </trkpt>
      <trkpt lat="46.3268590" lon="5.8994490">
        <ele>1131.6</ele>
        <time>2022-07-24T11:19:46Z</time>
      </trkpt>
      <trkpt lat="46.3267350" lon="5.8993940">
        <ele>1132.2</ele>
        <time>2022-07-24T11:19:51Z</time>
      </trkpt>
      <trkpt lat="46.3266600" lon="5.8993670">
        <ele>1132.6</ele>
        <time>2022-07-24T11:19:54Z</time>
      </trkpt>
      <trkpt lat="46.3265280" lon="5.8993140">
        <ele>1133.4</ele>
        <time>2022-07-24T11:20:00Z</time>
      </trkpt>
      <trkpt lat="46.3265070" lon="5.8993050">
        <ele>1133.6</ele>
        <time>2022-07-24T11:20:01Z</time>
      </trkpt>
      <trkpt lat="46.3264010" lon="5.8992570">
        <ele>1134.8</ele>
        <time>2022-07-24T11:20:06Z</time>
      </trkpt>
      <trkpt lat="46.3263430" lon="5.8992360">
        <ele>1135.4</ele>
        <time>2022-07-24T11:20:09Z</time>
      </trkpt>
      <trkpt lat="46.3263040" lon="5.8992210">
        <ele>1135.8</ele>
        <time>2022-07-24T11:20:11Z</time>
      </trkpt>
      <trkpt lat="46.3262300" lon="5.8991900">
        <ele>1136.6</ele>
        <time>2022-07-24T11:20:15Z</time>
      </trkpt>
      <trkpt lat="46.3261790" lon="5.8991720">
        <ele>1137.0</ele>
        <time>2022-07-24T11:20:18Z</time>
      </trkpt>
      <trkpt lat="46.3260700" lon="5.8991230">
        <ele>1138.0</ele>
        <time>2022-07-24T11:20:24Z</time>
      </trkpt>
      <trkpt lat="46.3260520" lon="5.8991140">
        <ele>1138.0</ele>
        <time>2022-07-24T11:20:25Z</time>
      </trkpt>
      <trkpt lat="46.3258820" lon="5.8990400">
        <ele>1139.4</ele>
        <time>2022-07-24T11:20:34Z</time>
      </trkpt>
      <trkpt lat="46.3258640" lon="5.8990300">
        <ele>1139.4</ele>
        <time>2022-07-24T11:20:35Z</time>
      </trkpt>
      <trkpt lat="46.3257930" lon="5.8989890">
        <ele>1140.0</ele>
        <time>2022-07-24T11:20:39Z</time>
      </trkpt>
      <trkpt lat="46.3257750" lon="5.8989790">
        <ele>1140.4</ele>
        <time>2022-07-24T11:20:40Z</time>
      </trkpt>
      <trkpt lat="46.3256840" lon="5.8989240">
        <ele>1141.4</ele>
        <time>2022-07-24T11:20:45Z</time>
      </trkpt>
      <trkpt lat="46.3256670" lon="5.8989130">
        <ele>1141.6</ele>
        <time>2022-07-24T11:20:46Z</time>
      </trkpt>
      <trkpt lat="46.3255060" lon="5.8987960">
        <ele>1143.0</ele>
        <time>2022-07-24T11:20:55Z</time>
      </trkpt>
      <trkpt lat="46.3254890" lon="5.8987820">
        <ele>1143.2</ele>
        <time>2022-07-24T11:20:56Z</time>
      </trkpt>
      <trkpt lat="46.3253610" lon="5.8986660">
        <ele>1144.2</ele>
        <time>2022-07-24T11:21:04Z</time>
      </trkpt>
      <trkpt lat="46.3253110" lon="5.8986220">
        <ele>1144.8</ele>
        <time>2022-07-24T11:21:07Z</time>
      </trkpt>
      <trkpt lat="46.3252470" lon="5.8985510">
        <ele>1145.2</ele>
        <time>2022-07-24T11:21:11Z</time>
      </trkpt>
      <trkpt lat="46.3251870" lon="5.8984850">
        <ele>1146.0</ele>
        <time>2022-07-24T11:21:15Z</time>
      </trkpt>
      <trkpt lat="46.3251430" lon="5.8984340">
        <ele>1146.4</ele>
        <time>2022-07-24T11:21:18Z</time>
      </trkpt>
      <trkpt lat="46.3250410" lon="5.8983070">
        <ele>1147.4</ele>
        <time>2022-07-24T11:21:25Z</time>
      </trkpt>
      <trkpt lat="46.3250250" lon="5.8982880">
        <ele>1147.6</ele>
        <time>2022-07-24T11:21:26Z</time>
      </trkpt>
      <trkpt lat="46.3249660" lon="5.8982060">
        <ele>1148.2</ele>
        <time>2022-07-24T11:21:30Z</time>
      </trkpt>
      <trkpt lat="46.3249250" lon="5.8981440">
        <ele>1148.8</ele>
        <time>2022-07-24T11:21:33Z</time>
      </trkpt>
      <trkpt lat="46.3248720" lon="5.8980560">
        <ele>1149.4</ele>
        <time>2022-07-24T11:21:37Z</time>
      </trkpt>
      <trkpt lat="46.3248310" lon="5.8979890">
        <ele>1150.2</ele>
        <time>2022-07-24T11:21:40Z</time>
      </trkpt>
      <trkpt lat="46.3247620" lon="5.8978820">
        <ele>1150.8</ele>
        <time>2022-07-24T11:21:45Z</time>
      </trkpt>
      <trkpt lat="46.3247320" lon="5.8978430">
        <ele>1151.2</ele>
        <time>2022-07-24T11:21:47Z</time>
      </trkpt>
      <trkpt lat="46.3246630" lon="5.8977380">
        <ele>1151.8</ele>
        <time>2022-07-24T11:21:52Z</time>
      </trkpt>
      <trkpt lat="46.3246190" lon="5.8976780">
        <ele>1152.4</ele>
        <time>2022-07-24T11:21:55Z</time>
      </trkpt>
      <trkpt lat="46.3245270" lon="5.8975200">
        <ele>1153.4</ele>
        <time>2022-07-24T11:22:02Z</time>
      </trkpt>
      <trkpt lat="46.3244530" lon="5.8973360">
        <ele>1154.4</ele>
        <time>2022-07-24T11:22:09Z</time>
      </trkpt>
      <trkpt lat="46.3244430" lon="5.8973070">
        <ele>1154.6</ele>
        <time>2022-07-24T11:22:10Z</time>
      </trkpt>
      <trkpt lat="46.3244080" lon="5.8971220">
        <ele>1155.8</ele>
        <time>2022-07-24T11:22:16Z</time>
      </trkpt>
      <trkpt lat="46.3243990" lon="5.8970260">
        <ele>1156.0</ele>
        <time>2022-07-24T11:22:19Z</time>
      </trkpt>
      <trkpt lat="46.3243980" lon="5.8969930">
        <ele>1156.2</ele>
        <time>2022-07-24T11:22:20Z</time>
      </trkpt>
      <trkpt lat="46.3243910" lon="5.8967850">
        <ele>1156.8</ele>
        <time>2022-07-24T11:22:26Z</time>
      </trkpt>
      <trkpt lat="46.3243890" lon="5.8966790">
        <ele>1157.0</ele>
        <time>2022-07-24T11:22:29Z</time>
      </trkpt>
      <trkpt lat="46.3243790" lon="5.8963650">
        <ele>1157.6</ele>
        <time>2022-07-24T11:22:38Z</time>
      </trkpt>
      <trkpt lat="46.3243680" lon="5.8962150">
        <ele>1158.0</ele>
        <time>2022-07-24T11:22:43Z</time>
      </trkpt>
      <trkpt lat="46.3243600" lon="5.8961160">
        <ele>1158.0</ele>
        <time>2022-07-24T11:22:46Z</time>
      </trkpt>
      <trkpt lat="46.3243430" lon="5.8958990">
        <ele>1158.2</ele>
        <time>2022-07-24T11:22:52Z</time>
      </trkpt>
      <trkpt lat="46.3243220" lon="5.8956040">
        <ele>1158.2</ele>
        <time>2022-07-24T11:22:59Z</time>
      </trkpt>
      <trkpt lat="46.3243230" lon="5.8952960">
        <ele>1158.2</ele>
        <time>2022-07-24T11:23:06Z</time>
      </trkpt>
      <trkpt lat="46.3243760" lon="5.8949140">
        <ele>1158.2</ele>
        <time>2022-07-24T11:23:14Z</time>
      </trkpt>
      <trkpt lat="46.3244900" lon="5.8945890">
        <ele>1158.0</ele>
        <time>2022-07-24T11:23:21Z</time>
      </trkpt>
      <trkpt lat="46.3246560" lon="5.8941790">
        <ele>1157.6</ele>
        <time>2022-07-24T11:23:31Z</time>
      </trkpt>
      <trkpt lat="46.3247990" lon="5.8938640">
        <ele>1157.6</ele>
        <time>2022-07-24T11:23:39Z</time>
      </trkpt>
      <trkpt lat="46.3249120" lon="5.8936590">
        <ele>1157.2</ele>
        <time>2022-07-24T11:23:44Z</time>
      </trkpt>
      <trkpt lat="46.3250120" lon="5.8934790">
        <ele>1157.2</ele>
        <time>2022-07-24T11:23:48Z</time>
      </trkpt>
      <trkpt lat="46.3251000" lon="5.8933030">
        <ele>1157.0</ele>
        <time>2022-07-24T11:23:51Z</time>
      </trkpt>
      <trkpt lat="46.3251500" lon="5.8931380">
        <ele>1156.8</ele>
        <time>2022-07-24T11:23:53Z</time>
      </trkpt>
      <trkpt lat="46.3251650" lon="5.8928190">
        <ele>1156.4</ele>
        <time>2022-07-24T11:23:56Z</time>
      </trkpt>
      <trkpt lat="46.3251640" lon="5.8927160">
        <ele>1156.4</ele>
        <time>2022-07-24T11:23:57Z</time>
      </trkpt>
      <trkpt lat="46.3251620" lon="5.8926200">
        <ele>1156.2</ele>
        <time>2022-07-24T11:23:58Z</time>
      </trkpt>
      <trkpt lat="46.3251480" lon="5.8922770">
        <ele>1155.0</ele>
        <time>2022-07-24T11:24:02Z</time>
      </trkpt>
      <trkpt lat="46.3251400" lon="5.8921430">
        <ele>1153.4</ele>
        <time>2022-07-24T11:24:04Z</time>
      </trkpt>
      <trkpt lat="46.3251390" lon="5.8919400">
        <ele>1152.4</ele>
        <time>2022-07-24T11:24:07Z</time>
      </trkpt>
      <trkpt lat="46.3251330" lon="5.8916170">
        <ele>1151.2</ele>
        <time>2022-07-24T11:24:11Z</time>
      </trkpt>
      <trkpt lat="46.3251320" lon="5.8914380">
        <ele>1150.6</ele>
        <time>2022-07-24T11:24:13Z</time>
      </trkpt>
      <trkpt lat="46.3251390" lon="5.8912650">
        <ele>1150.2</ele>
        <time>2022-07-24T11:24:15Z</time>
      </trkpt>
      <trkpt lat="46.3251780" lon="5.8910260">
        <ele>1149.6</ele>
        <time>2022-07-24T11:24:18Z</time>
      </trkpt>
      <trkpt lat="46.3251970" lon="5.8909500">
        <ele>1149.4</ele>
        <time>2022-07-24T11:24:19Z</time>
      </trkpt>
      <trkpt lat="46.3252420" lon="5.8908140">
        <ele>1149.2</ele>
        <time>2022-07-24T11:24:21Z</time>
      </trkpt>
      <trkpt lat="46.3252940" lon="5.8907000">
        <ele>1148.6</ele>
        <time>2022-07-24T11:24:23Z</time>
      </trkpt>
      <trkpt lat="46.3253210" lon="5.8906530">
        <ele>1148.2</ele>
        <time>2022-07-24T11:24:24Z</time>
      </trkpt>
      <trkpt lat="46.3254010" lon="5.8904630">
        <ele>1147.4</ele>
        <time>2022-07-24T11:24:29Z</time>
      </trkpt>
      <trkpt lat="46.3254780" lon="5.8904020">
        <ele>1147.2</ele>
        <time>2022-07-24T11:24:33Z</time>
      </trkpt>
      <trkpt lat="46.3255600" lon="5.8903720">
        <ele>1147.8</ele>
        <time>2022-07-24T11:24:39Z</time>
      </trkpt>
      <trkpt lat="46.3255960" lon="5.8903430">
        <ele>1148.2</ele>
        <time>2022-07-24T11:24:42Z</time>
      </trkpt>
      <trkpt lat="46.3256360" lon="5.8903720">
        <ele>1148.4</ele>
        <time>2022-07-24T11:24:45Z</time>
      </trkpt>
      <trkpt lat="46.3257220" lon="5.8904480">
        <ele>1149.4</ele>
        <time>2022-07-24T11:24:52Z</time>
      </trkpt>
      <trkpt lat="46.3257260" lon="5.8904470">
        <ele>1149.4</ele>
        <time>2022-07-24T11:24:53Z</time>
      </trkpt>
      <trkpt lat="46.3258740" lon="5.8900270">
        <ele>1150.8</ele>
        <time>2022-07-24T11:28:14Z</time>
      </trkpt>
      <trkpt lat="46.3259040" lon="5.8900010">
        <ele>1150.8</ele>
        <time>2022-07-24T11:28:16Z</time>
      </trkpt>
      <trkpt lat="46.3259440" lon="5.8900160">
        <ele>1151.0</ele>
        <time>2022-07-24T11:28:19Z</time>
      </trkpt>
      <trkpt lat="46.3259550" lon="5.8900200">
        <ele>1151.2</ele>
        <time>2022-07-24T11:28:21Z</time>
      </trkpt>
      <trkpt lat="46.3259600" lon="5.8900270">
        <ele>1151.4</ele>
        <time>2022-07-24T11:28:23Z</time>
      </trkpt>
      <trkpt lat="46.3260870" lon="5.8899930">
        <ele>1151.0</ele>
        <time>2022-07-24T11:36:22Z</time>
      </trkpt>
      <trkpt lat="46.3260980" lon="5.8899620">
        <ele>1151.0</ele>
        <time>2022-07-24T11:36:23Z</time>
      </trkpt>
      <trkpt lat="46.3261360" lon="5.8898410">
        <ele>1151.0</ele>
        <time>2022-07-24T11:36:26Z</time>
      </trkpt>
      <trkpt lat="46.3261710" lon="5.8896870">
        <ele>1150.8</ele>
        <time>2022-07-24T11:36:29Z</time>
      </trkpt>
      <trkpt lat="46.3262370" lon="5.8894450">
        <ele>1150.6</ele>
        <time>2022-07-24T11:36:33Z</time>
      </trkpt>
      <trkpt lat="46.3262580" lon="5.8893880">
        <ele>1150.4</ele>
        <time>2022-07-24T11:36:34Z</time>
      </trkpt>
      <trkpt lat="46.3262840" lon="5.8893270">
        <ele>1150.4</ele>
        <time>2022-07-24T11:36:35Z</time>
      </trkpt>
      <trkpt lat="46.3264080" lon="5.8890470">
        <ele>1149.8</ele>
        <time>2022-07-24T11:36:40Z</time>
      </trkpt>
      <trkpt lat="46.3264510" lon="5.8889530">
        <ele>1148.8</ele>
        <time>2022-07-24T11:36:42Z</time>
      </trkpt>
      <trkpt lat="46.3264670" lon="5.8888670">
        <ele>1148.2</ele>
        <time>2022-07-24T11:36:44Z</time>
      </trkpt>
      <trkpt lat="46.3264630" lon="5.8888260">
        <ele>1147.6</ele>
        <time>2022-07-24T11:36:45Z</time>
      </trkpt>
      <trkpt lat="46.3264470" lon="5.8887170">
        <ele>1146.4</ele>
        <time>2022-07-24T11:36:49Z</time>
      </trkpt>
      <trkpt lat="46.3264550" lon="5.8886940">
        <ele>1146.2</ele>
        <time>2022-07-24T11:36:50Z</time>
      </trkpt>
      <trkpt lat="46.3264970" lon="5.8886130">
        <ele>1145.6</ele>
        <time>2022-07-24T11:36:52Z</time>
      </trkpt>
      <trkpt lat="46.3265280" lon="5.8885590">
        <ele>1145.4</ele>
        <time>2022-07-24T11:36:53Z</time>
      </trkpt>
      <trkpt lat="46.3266210" lon="5.8884200">
        <ele>1145.0</ele>
        <time>2022-07-24T11:36:55Z</time>
      </trkpt>
      <trkpt lat="46.3267310" lon="5.8882370">
        <ele>1144.8</ele>
        <time>2022-07-24T11:36:57Z</time>
      </trkpt>
      <trkpt lat="46.3268380" lon="5.8880140">
        <ele>1144.4</ele>
        <time>2022-07-24T11:36:59Z</time>
      </trkpt>
      <trkpt lat="46.3268930" lon="5.8878970">
        <ele>1144.2</ele>
        <time>2022-07-24T11:37:00Z</time>
      </trkpt>
      <trkpt lat="46.3271190" lon="5.8874740">
        <ele>1142.8</ele>
        <time>2022-07-24T11:37:04Z</time>
      </trkpt>
      <trkpt lat="46.3272390" lon="5.8873130">
        <ele>1141.0</ele>
        <time>2022-07-24T11:37:06Z</time>
      </trkpt>
      <trkpt lat="46.3273540" lon="5.8871760">
        <ele>1139.2</ele>
        <time>2022-07-24T11:37:08Z</time>
      </trkpt>
      <trkpt lat="46.3274060" lon="5.8871100">
        <ele>1138.0</ele>
        <time>2022-07-24T11:37:09Z</time>
      </trkpt>
      <trkpt lat="46.3275020" lon="5.8869870">
        <ele>1136.0</ele>
        <time>2022-07-24T11:37:11Z</time>
      </trkpt>
      <trkpt lat="46.3275850" lon="5.8868910">
        <ele>1135.2</ele>
        <time>2022-07-24T11:37:13Z</time>
      </trkpt>
      <trkpt lat="46.3276720" lon="5.8867940">
        <ele>1135.0</ele>
        <time>2022-07-24T11:37:16Z</time>
      </trkpt>
      <trkpt lat="46.3277180" lon="5.8867430">
        <ele>1135.0</ele>
        <time>2022-07-24T11:37:18Z</time>
      </trkpt>
      <trkpt lat="46.3278160" lon="5.8866110">
        <ele>1135.6</ele>
        <time>2022-07-24T11:37:24Z</time>
      </trkpt>
      <trkpt lat="46.3278480" lon="5.8865750">
        <ele>1136.2</ele>
        <time>2022-07-24T11:37:26Z</time>
      </trkpt>
      <trkpt lat="46.3279210" lon="5.8864800">
        <ele>1137.6</ele>
        <time>2022-07-24T11:37:31Z</time>
      </trkpt>
      <trkpt lat="46.3279980" lon="5.8863710">
        <ele>1138.8</ele>
        <time>2022-07-24T11:37:37Z</time>
      </trkpt>
      <trkpt lat="46.3280660" lon="5.8862810">
        <ele>1139.8</ele>
        <time>2022-07-24T11:37:42Z</time>
      </trkpt>
      <trkpt lat="46.3280840" lon="5.8862410">
        <ele>1140.0</ele>
        <time>2022-07-24T11:37:44Z</time>
      </trkpt>
      <trkpt lat="46.3281360" lon="5.8860520">
        <ele>1141.0</ele>
        <time>2022-07-24T11:37:52Z</time>
      </trkpt>
      <trkpt lat="46.3281530" lon="5.8858650">
        <ele>1141.8</ele>
        <time>2022-07-24T11:38:00Z</time>
      </trkpt>
      <trkpt lat="46.3281610" lon="5.8858200">
        <ele>1142.0</ele>
        <time>2022-07-24T11:38:02Z</time>
      </trkpt>
      <trkpt lat="46.3281790" lon="5.8856320">
        <ele>1143.4</ele>
        <time>2022-07-24T11:38:10Z</time>
      </trkpt>
      <trkpt lat="46.3282140" lon="5.8854110">
        <ele>1144.4</ele>
        <time>2022-07-24T11:38:19Z</time>
      </trkpt>
      <trkpt lat="46.3282190" lon="5.8853900">
        <ele>1144.4</ele>
        <time>2022-07-24T11:38:20Z</time>
      </trkpt>
      <trkpt lat="46.3282550" lon="5.8851970">
        <ele>1145.6</ele>
        <time>2022-07-24T11:38:28Z</time>
      </trkpt>
      <trkpt lat="46.3282630" lon="5.8851730">
        <ele>1145.8</ele>
        <time>2022-07-24T11:38:29Z</time>
      </trkpt>
      <trkpt lat="46.3283000" lon="5.8850520">
        <ele>1146.6</ele>
        <time>2022-07-24T11:38:34Z</time>
      </trkpt>
      <trkpt lat="46.3283260" lon="5.8849800">
        <ele>1147.4</ele>
        <time>2022-07-24T11:38:37Z</time>
      </trkpt>
      <trkpt lat="46.3283360" lon="5.8849550">
        <ele>1147.6</ele>
        <time>2022-07-24T11:38:38Z</time>
      </trkpt>
      <trkpt lat="46.3284060" lon="5.8847860">
        <ele>1148.6</ele>
        <time>2022-07-24T11:38:45Z</time>
      </trkpt>
      <trkpt lat="46.3284160" lon="5.8847610">
        <ele>1148.8</ele>
        <time>2022-07-24T11:38:46Z</time>
      </trkpt>
      <trkpt lat="46.3284950" lon="5.8845440">
        <ele>1149.4</ele>
        <time>2022-07-24T11:38:54Z</time>
      </trkpt>
      <trkpt lat="46.3285020" lon="5.8844820">
        <ele>1149.8</ele>
        <time>2022-07-24T11:38:56Z</time>
      </trkpt>
      <trkpt lat="46.3284820" lon="5.8843140">
        <ele>1150.8</ele>
        <time>2022-07-24T11:39:01Z</time>
      </trkpt>
      <trkpt lat="46.3284420" lon="5.8841730">
        <ele>1151.6</ele>
        <time>2022-07-24T11:39:06Z</time>
      </trkpt>
      <trkpt lat="46.3284320" lon="5.8841480">
        <ele>1151.8</ele>
        <time>2022-07-24T11:39:07Z</time>
      </trkpt>
      <trkpt lat="46.3284210" lon="5.8841240">
        <ele>1152.0</ele>
        <time>2022-07-24T11:39:08Z</time>
      </trkpt>
      <trkpt lat="46.3283530" lon="5.8840010">
        <ele>1153.0</ele>
        <time>2022-07-24T11:39:14Z</time>
      </trkpt>
      <trkpt lat="46.3282980" lon="5.8838950">
        <ele>1153.6</ele>
        <time>2022-07-24T11:39:19Z</time>
      </trkpt>
      <trkpt lat="46.3282660" lon="5.8838320">
        <ele>1154.0</ele>
        <time>2022-07-24T11:39:22Z</time>
      </trkpt>
      <trkpt lat="46.3282260" lon="5.8836680">
        <ele>1154.8</ele>
        <time>2022-07-24T11:39:28Z</time>
      </trkpt>
      <trkpt lat="46.3282220" lon="5.8836380">
        <ele>1155.0</ele>
        <time>2022-07-24T11:39:29Z</time>
      </trkpt>
      <trkpt lat="46.3282450" lon="5.8834810">
        <ele>1156.0</ele>
        <time>2022-07-24T11:39:34Z</time>
      </trkpt>
      <trkpt lat="46.3282580" lon="5.8834490">
        <ele>1156.2</ele>
        <time>2022-07-24T11:39:35Z</time>
      </trkpt>
      <trkpt lat="46.3283380" lon="5.8833200">
        <ele>1157.0</ele>
        <time>2022-07-24T11:39:40Z</time>
      </trkpt>
      <trkpt lat="46.3284100" lon="5.8832820">
        <ele>1157.4</ele>
        <time>2022-07-24T11:39:43Z</time>
      </trkpt>
      <trkpt lat="46.3284760" lon="5.8832940">
        <ele>1157.6</ele>
        <time>2022-07-24T11:39:46Z</time>
      </trkpt>
      <trkpt lat="46.3286330" lon="5.8833050">
        <ele>1158.4</ele>
        <time>2022-07-24T11:39:53Z</time>
      </trkpt>
      <trkpt lat="46.3286570" lon="5.8833130">
        <ele>1158.6</ele>
        <time>2022-07-24T11:39:54Z</time>
      </trkpt>
      <trkpt lat="46.3287660" lon="5.8833510">
        <ele>1159.4</ele>
        <time>2022-07-24T11:40:00Z</time>
      </trkpt>
      <trkpt lat="46.3287830" lon="5.8833560">
        <ele>1159.6</ele>
        <time>2022-07-24T11:40:01Z</time>
      </trkpt>
      <trkpt lat="46.3288710" lon="5.8833780">
        <ele>1160.6</ele>
        <time>2022-07-24T11:40:06Z</time>
      </trkpt>
      <trkpt lat="46.3289090" lon="5.8833840">
        <ele>1160.8</ele>
        <time>2022-07-24T11:40:08Z</time>
      </trkpt>
      <trkpt lat="46.3290140" lon="5.8834150">
        <ele>1161.6</ele>
        <time>2022-07-24T11:40:13Z</time>
      </trkpt>
      <trkpt lat="46.3290530" lon="5.8834330">
        <ele>1162.0</ele>
        <time>2022-07-24T11:40:15Z</time>
      </trkpt>
      <trkpt lat="46.3291300" lon="5.8834530">
        <ele>1162.8</ele>
        <time>2022-07-24T11:40:19Z</time>
      </trkpt>
      <trkpt lat="46.3292270" lon="5.8834750">
        <ele>1163.4</ele>
        <time>2022-07-24T11:40:24Z</time>
      </trkpt>
      <trkpt lat="46.3292890" lon="5.8834870">
        <ele>1163.8</ele>
        <time>2022-07-24T11:40:27Z</time>
      </trkpt>
      <trkpt lat="46.3294310" lon="5.8834920">
        <ele>1165.2</ele>
        <time>2022-07-24T11:40:34Z</time>
      </trkpt>
      <trkpt lat="46.3294500" lon="5.8834940">
        <ele>1165.2</ele>
        <time>2022-07-24T11:40:35Z</time>
      </trkpt>
      <trkpt lat="46.3295670" lon="5.8834810">
        <ele>1166.4</ele>
        <time>2022-07-24T11:40:41Z</time>
      </trkpt>
      <trkpt lat="46.3296250" lon="5.8834660">
        <ele>1167.0</ele>
        <time>2022-07-24T11:40:44Z</time>
      </trkpt>
      <trkpt lat="46.3296840" lon="5.8834440">
        <ele>1167.4</ele>
        <time>2022-07-24T11:40:47Z</time>
      </trkpt>
      <trkpt lat="46.3298200" lon="5.8834210">
        <ele>1168.4</ele>
        <time>2022-07-24T11:40:54Z</time>
      </trkpt>
      <trkpt lat="46.3298400" lon="5.8834190">
        <ele>1168.6</ele>
        <time>2022-07-24T11:40:55Z</time>
      </trkpt>
      <trkpt lat="46.3300140" lon="5.8834400">
        <ele>1169.8</ele>
        <time>2022-07-24T11:41:04Z</time>
      </trkpt>
      <trkpt lat="46.3300520" lon="5.8834460">
        <ele>1170.0</ele>
        <time>2022-07-24T11:41:06Z</time>
      </trkpt>
      <trkpt lat="46.3301500" lon="5.8834600">
        <ele>1170.8</ele>
        <time>2022-07-24T11:41:11Z</time>
      </trkpt>
      <trkpt lat="46.3302850" lon="5.8834640">
        <ele>1171.8</ele>
        <time>2022-07-24T11:41:18Z</time>
      </trkpt>
      <trkpt lat="46.3303050" lon="5.8834640">
        <ele>1172.2</ele>
        <time>2022-07-24T11:41:19Z</time>
      </trkpt>
      <trkpt lat="46.3303830" lon="5.8834590">
        <ele>1173.6</ele>
        <time>2022-07-24T11:41:23Z</time>
      </trkpt>
      <trkpt lat="46.3305450" lon="5.8834590">
        <ele>1174.4</ele>
        <time>2022-07-24T11:41:31Z</time>
      </trkpt>
      <trkpt lat="46.3305660" lon="5.8834610">
        <ele>1174.6</ele>
        <time>2022-07-24T11:41:32Z</time>
      </trkpt>
      <trkpt lat="46.3307180" lon="5.8834430">
        <ele>1175.6</ele>
        <time>2022-07-24T11:41:39Z</time>
      </trkpt>
      <trkpt lat="46.3307380" lon="5.8834350">
        <ele>1175.8</ele>
        <time>2022-07-24T11:41:40Z</time>
      </trkpt>
      <trkpt lat="46.3308470" lon="5.8833800">
        <ele>1176.8</ele>
        <time>2022-07-24T11:41:46Z</time>
      </trkpt>
      <trkpt lat="46.3308630" lon="5.8833720">
        <ele>1177.0</ele>
        <time>2022-07-24T11:41:47Z</time>
      </trkpt>
      <trkpt lat="46.3309280" lon="5.8833320">
        <ele>1178.0</ele>
        <time>2022-07-24T11:41:51Z</time>
      </trkpt>
      <trkpt lat="46.3310180" lon="5.8832700">
        <ele>1178.8</ele>
        <time>2022-07-24T11:41:56Z</time>
      </trkpt>
      <trkpt lat="46.3310540" lon="5.8832460">
        <ele>1179.2</ele>
        <time>2022-07-24T11:41:58Z</time>
      </trkpt>
      <trkpt lat="46.3312000" lon="5.8831390">
        <ele>1180.2</ele>
        <time>2022-07-24T11:42:06Z</time>
      </trkpt>
      <trkpt lat="46.3313280" lon="5.8830290">
        <ele>1181.4</ele>
        <time>2022-07-24T11:42:14Z</time>
      </trkpt>
      <trkpt lat="46.3313390" lon="5.8830090">
        <ele>1181.4</ele>
        <time>2022-07-24T11:42:15Z</time>
      </trkpt>
      <trkpt lat="46.3313440" lon="5.8828860">
        <ele>1182.6</ele>
        <time>2022-07-24T11:42:21Z</time>
      </trkpt>
      <trkpt lat="46.3312540" lon="5.8828180">
        <ele>1183.2</ele>
        <time>2022-07-24T11:42:27Z</time>
      </trkpt>
      <trkpt lat="46.3312180" lon="5.8828020">
        <ele>1183.6</ele>
        <time>2022-07-24T11:42:29Z</time>
      </trkpt>
      <trkpt lat="46.3311490" lon="5.8827650">
        <ele>1184.6</ele>
        <time>2022-07-24T11:42:33Z</time>
      </trkpt>
      <trkpt lat="46.3310920" lon="5.8827370">
        <ele>1185.4</ele>
        <time>2022-07-24T11:42:36Z</time>
      </trkpt>
      <trkpt lat="46.3310300" lon="5.8827080">
        <ele>1185.8</ele>
        <time>2022-07-24T11:42:39Z</time>
      </trkpt>
      <trkpt lat="46.3308940" lon="5.8826490">
        <ele>1186.8</ele>
        <time>2022-07-24T11:42:45Z</time>
      </trkpt>
      <trkpt lat="46.3308470" lon="5.8826220">
        <ele>1186.8</ele>
        <time>2022-07-24T11:42:47Z</time>
      </trkpt>
      <trkpt lat="46.3306860" lon="5.8825290">
        <ele>1187.4</ele>
        <time>2022-07-24T11:42:54Z</time>
      </trkpt>
      <trkpt lat="46.3305240" lon="5.8824100">
        <ele>1188.0</ele>
        <time>2022-07-24T11:43:01Z</time>
      </trkpt>
      <trkpt lat="46.3305030" lon="5.8823950">
        <ele>1188.0</ele>
        <time>2022-07-24T11:43:02Z</time>
      </trkpt>
      <trkpt lat="46.3303860" lon="5.8823280">
        <ele>1188.4</ele>
        <time>2022-07-24T11:43:08Z</time>
      </trkpt>
      <trkpt lat="46.3302510" lon="5.8822490">
        <ele>1188.4</ele>
        <time>2022-07-24T11:43:15Z</time>
      </trkpt>
      <trkpt lat="46.3301580" lon="5.8821760">
        <ele>1188.6</ele>
        <time>2022-07-24T11:43:22Z</time>
      </trkpt>
      <trkpt lat="46.3301190" lon="5.8821050">
        <ele>1188.6</ele>
        <time>2022-07-24T11:43:30Z</time>
      </trkpt>
      <trkpt lat="46.3301220" lon="5.8821080">
        <ele>1188.8</ele>
        <time>2022-07-24T11:43:36Z</time>
      </trkpt>
      <trkpt lat="46.3301320" lon="5.8821240">
        <ele>1188.8</ele>
        <time>2022-07-24T11:43:37Z</time>
      </trkpt>
      <trkpt lat="46.3301990" lon="5.8821890">
        <ele>1188.8</ele>
        <time>2022-07-24T11:43:42Z</time>
      </trkpt>
      <trkpt lat="46.3302460" lon="5.8822300">
        <ele>1188.8</ele>
        <time>2022-07-24T11:43:45Z</time>
      </trkpt>
      <trkpt lat="46.3303280" lon="5.8822740">
        <ele>1188.8</ele>
        <time>2022-07-24T11:43:49Z</time>
      </trkpt>
      <trkpt lat="46.3303930" lon="5.8823480">
        <ele>1188.6</ele>
        <time>2022-07-24T11:43:55Z</time>
      </trkpt>
      <trkpt lat="46.3303940" lon="5.8823590">
        <ele>1188.6</ele>
        <time>2022-07-24T11:43:57Z</time>
      </trkpt>
      <trkpt lat="46.3303630" lon="5.8822850">
        <ele>1193.2</ele>
        <time>2022-07-24T12:52:43Z</time>
      </trkpt>
      <trkpt lat="46.3303240" lon="5.8822510">
        <ele>1193.2</ele>
        <time>2022-07-24T12:52:45Z</time>
      </trkpt>
      <trkpt lat="46.3301950" lon="5.8821240">
        <ele>1193.4</ele>
        <time>2022-07-24T12:52:51Z</time>
      </trkpt>
      <trkpt lat="46.3300770" lon="5.8819540">
        <ele>1193.6</ele>
        <time>2022-07-24T12:52:58Z</time>
      </trkpt>
      <trkpt lat="46.3299920" lon="5.8818340">
        <ele>1194.2</ele>
        <time>2022-07-24T12:53:04Z</time>
      </trkpt>
      <trkpt lat="46.3299610" lon="5.8817930">
        <ele>1194.6</ele>
        <time>2022-07-24T12:53:06Z</time>
      </trkpt>
      <trkpt lat="46.3299120" lon="5.8817390">
        <ele>1195.2</ele>
        <time>2022-07-24T12:53:09Z</time>
      </trkpt>
      <trkpt lat="46.3298530" lon="5.8816870">
        <ele>1195.6</ele>
        <time>2022-07-24T12:53:12Z</time>
      </trkpt>
      <trkpt lat="46.3297250" lon="5.8815530">
        <ele>1196.4</ele>
        <time>2022-07-24T12:53:18Z</time>
      </trkpt>
      <trkpt lat="46.3297030" lon="5.8815300">
        <ele>1196.4</ele>
        <time>2022-07-24T12:53:19Z</time>
      </trkpt>
      <trkpt lat="46.3295470" lon="5.8813160">
        <ele>1196.6</ele>
        <time>2022-07-24T12:53:26Z</time>
      </trkpt>
      <trkpt lat="46.3294580" lon="5.8810390">
        <ele>1196.4</ele>
        <time>2022-07-24T12:53:32Z</time>
      </trkpt>
      <trkpt lat="46.3294360" lon="5.8807390">
        <ele>1195.6</ele>
        <time>2022-07-24T12:53:39Z</time>
      </trkpt>
      <trkpt lat="46.3294590" lon="5.8804750">
        <ele>1195.6</ele>
        <time>2022-07-24T12:53:45Z</time>
      </trkpt>
      <trkpt lat="46.3294750" lon="5.8802230">
        <ele>1195.6</ele>
        <time>2022-07-24T12:53:51Z</time>
      </trkpt>
      <trkpt lat="46.3294600" lon="5.8799930">
        <ele>1196.2</ele>
        <time>2022-07-24T12:53:57Z</time>
      </trkpt>
      <trkpt lat="46.3293990" lon="5.8797470">
        <ele>1196.8</ele>
        <time>2022-07-24T12:54:04Z</time>
      </trkpt>
      <trkpt lat="46.3293020" lon="5.8796090">
        <ele>1197.0</ele>
        <time>2022-07-24T12:54:09Z</time>
      </trkpt>
      <trkpt lat="46.3292550" lon="5.8795670">
        <ele>1197.0</ele>
        <time>2022-07-24T12:54:11Z</time>
      </trkpt>
      <trkpt lat="46.3292070" lon="5.8795290">
        <ele>1197.2</ele>
        <time>2022-07-24T12:54:13Z</time>
      </trkpt>
      <trkpt lat="46.3291190" lon="5.8794660">
        <ele>1197.8</ele>
        <time>2022-07-24T12:54:18Z</time>
      </trkpt>
      <trkpt lat="46.3291020" lon="5.8794530">
        <ele>1198.2</ele>
        <time>2022-07-24T12:54:19Z</time>
      </trkpt>
      <trkpt lat="46.3290080" lon="5.8794240">
        <ele>1199.4</ele>
        <time>2022-07-24T12:54:24Z</time>
      </trkpt>
      <trkpt lat="46.3289520" lon="5.8794070">
        <ele>1199.8</ele>
        <time>2022-07-24T12:54:27Z</time>
      </trkpt>
      <trkpt lat="46.3288540" lon="5.8793510">
        <ele>1200.4</ele>
        <time>2022-07-24T12:54:32Z</time>
      </trkpt>
      <trkpt lat="46.3288190" lon="5.8793360">
        <ele>1200.6</ele>
        <time>2022-07-24T12:54:34Z</time>
      </trkpt>
      <trkpt lat="46.3286480" lon="5.8792760">
        <ele>1201.6</ele>
        <time>2022-07-24T12:54:41Z</time>
      </trkpt>
      <trkpt lat="46.3284750" lon="5.8792830">
        <ele>1202.4</ele>
        <time>2022-07-24T12:54:48Z</time>
      </trkpt>
      <trkpt lat="46.3284510" lon="5.8792830">
        <ele>1202.6</ele>
        <time>2022-07-24T12:54:49Z</time>
      </trkpt>
      <trkpt lat="46.3283510" lon="5.8792760">
        <ele>1203.0</ele>
        <time>2022-07-24T12:54:55Z</time>
      </trkpt>
      <trkpt lat="46.3282820" lon="5.8792490">
        <ele>1203.8</ele>
        <time>2022-07-24T12:55:00Z</time>
      </trkpt>
      <trkpt lat="46.3282510" lon="5.8792470">
        <ele>1204.0</ele>
        <time>2022-07-24T12:55:02Z</time>
      </trkpt>
      <trkpt lat="46.3281970" lon="5.8792210">
        <ele>1204.8</ele>
        <time>2022-07-24T12:55:06Z</time>
      </trkpt>
      <trkpt lat="46.3281490" lon="5.8792070">
        <ele>1205.4</ele>
        <time>2022-07-24T12:55:10Z</time>
      </trkpt>
      <trkpt lat="46.3281250" lon="5.8791930">
        <ele>1205.8</ele>
        <time>2022-07-24T12:55:12Z</time>
      </trkpt>
      <trkpt lat="46.3280470" lon="5.8791580">
        <ele>1206.4</ele>
        <time>2022-07-24T12:55:17Z</time>
      </trkpt>
      <trkpt lat="46.3279700" lon="5.8791620">
        <ele>1206.8</ele>
        <time>2022-07-24T12:55:20Z</time>
      </trkpt>
      <trkpt lat="46.3278560" lon="5.8791270">
        <ele>1207.6</ele>
        <time>2022-07-24T12:55:25Z</time>
      </trkpt>
      <trkpt lat="46.3277620" lon="5.8791080">
        <ele>1207.8</ele>
        <time>2022-07-24T12:55:29Z</time>
      </trkpt>
      <trkpt lat="46.3276610" lon="5.8791040">
        <ele>1208.6</ele>
        <time>2022-07-24T12:55:33Z</time>
      </trkpt>
      <trkpt lat="46.3275900" lon="5.8790710">
        <ele>1209.0</ele>
        <time>2022-07-24T12:55:36Z</time>
      </trkpt>
      <trkpt lat="46.3274740" lon="5.8790210">
        <ele>1209.6</ele>
        <time>2022-07-24T12:55:40Z</time>
      </trkpt>
      <trkpt lat="46.3272230" lon="5.8789080">
        <ele>1209.8</ele>
        <time>2022-07-24T12:55:46Z</time>
      </trkpt>
      <trkpt lat="46.3269950" lon="5.8787850">
        <ele>1209.6</ele>
        <time>2022-07-24T12:55:51Z</time>
      </trkpt>
      <trkpt lat="46.3269270" lon="5.8787170">
        <ele>1209.2</ele>
        <time>2022-07-24T12:55:53Z</time>
      </trkpt>
      <trkpt lat="46.3268490" lon="5.8785610">
        <ele>1208.4</ele>
        <time>2022-07-24T12:55:57Z</time>
      </trkpt>
      <trkpt lat="46.3268410" lon="5.8785310">
        <ele>1208.0</ele>
        <time>2022-07-24T12:55:58Z</time>
      </trkpt>
      <trkpt lat="46.3268330" lon="5.8785070">
        <ele>1208.0</ele>
        <time>2022-07-24T12:55:59Z</time>
      </trkpt>
      <trkpt lat="46.3268210" lon="5.8784940">
        <ele>1207.8</ele>
        <time>2022-07-24T12:56:00Z</time>
      </trkpt>
      <trkpt lat="46.3267860" lon="5.8784870">
        <ele>1207.8</ele>
        <time>2022-07-24T12:56:02Z</time>
      </trkpt>
      <trkpt lat="46.3267570" lon="5.8784690">
        <ele>1207.8</ele>
        <time>2022-07-24T12:56:04Z</time>
      </trkpt>
      <trkpt lat="46.3267010" lon="5.8784200">
        <ele>1207.6</ele>
        <time>2022-07-24T12:56:07Z</time>
      </trkpt>
      <trkpt lat="46.3265240" lon="5.8783600">
        <ele>1207.6</ele>
        <time>2022-07-24T12:56:13Z</time>
      </trkpt>
      <trkpt lat="46.3263580" lon="5.8783700">
        <ele>1207.8</ele>
        <time>2022-07-24T12:56:19Z</time>
      </trkpt>
      <trkpt lat="46.3261830" lon="5.8784080">
        <ele>1208.0</ele>
        <time>2022-07-24T12:56:26Z</time>
      </trkpt>
      <trkpt lat="46.3260830" lon="5.8784090">
        <ele>1208.0</ele>
        <time>2022-07-24T12:56:31Z</time>
      </trkpt>
      <trkpt lat="46.3259570" lon="5.8783600">
        <ele>1208.2</ele>
        <time>2022-07-24T12:56:36Z</time>
      </trkpt>
      <trkpt lat="46.3257420" lon="5.8782320">
        <ele>1208.6</ele>
        <time>2022-07-24T12:56:43Z</time>
      </trkpt>
      <trkpt lat="46.3255440" lon="5.8781230">
        <ele>1208.6</ele>
        <time>2022-07-24T12:56:49Z</time>
      </trkpt>
      <trkpt lat="46.3253880" lon="5.8781310">
        <ele>1208.6</ele>
        <time>2022-07-24T12:56:53Z</time>
      </trkpt>
      <trkpt lat="46.3252380" lon="5.8782810">
        <ele>1208.6</ele>
        <time>2022-07-24T12:56:58Z</time>
      </trkpt>
      <trkpt lat="46.3251500" lon="5.8784540">
        <ele>1208.6</ele>
        <time>2022-07-24T12:57:04Z</time>
      </trkpt>
      <trkpt lat="46.3250890" lon="5.8785430">
        <ele>1209.0</ele>
        <time>2022-07-24T12:57:07Z</time>
      </trkpt>
      <trkpt lat="46.3249990" lon="5.8786350">
        <ele>1209.6</ele>
        <time>2022-07-24T12:57:10Z</time>
      </trkpt>
      <trkpt lat="46.3248370" lon="5.8787180">
        <ele>1210.0</ele>
        <time>2022-07-24T12:57:14Z</time>
      </trkpt>
      <trkpt lat="46.3247940" lon="5.8787400">
        <ele>1210.0</ele>
        <time>2022-07-24T12:57:15Z</time>
      </trkpt>
      <trkpt lat="46.3245970" lon="5.8788580">
        <ele>1210.2</ele>
        <time>2022-07-24T12:57:20Z</time>
      </trkpt>
      <trkpt lat="46.3243840" lon="5.8790250">
        <ele>1210.6</ele>
        <time>2022-07-24T12:57:27Z</time>
      </trkpt>
      <trkpt lat="46.3241380" lon="5.8791580">
        <ele>1211.0</ele>
        <time>2022-07-24T12:57:36Z</time>
      </trkpt>
      <trkpt lat="46.3239850" lon="5.8792150">
        <ele>1212.2</ele>
        <time>2022-07-24T12:57:42Z</time>
      </trkpt>
      <trkpt lat="46.3239030" lon="5.8792400">
        <ele>1212.4</ele>
        <time>2022-07-24T12:57:45Z</time>
      </trkpt>
      <trkpt lat="46.3236900" lon="5.8792520">
        <ele>1213.0</ele>
        <time>2022-07-24T12:57:53Z</time>
      </trkpt>
      <trkpt lat="46.3235900" lon="5.8792250">
        <ele>1213.2</ele>
        <time>2022-07-24T12:57:58Z</time>
      </trkpt>
      <trkpt lat="46.3235460" lon="5.8792090">
        <ele>1213.2</ele>
        <time>2022-07-24T12:58:01Z</time>
      </trkpt>
      <trkpt lat="46.3235250" lon="5.8792110">
        <ele>1213.2</ele>
        <time>2022-07-24T12:58:05Z</time>
      </trkpt>
      <trkpt lat="46.3234180" lon="5.8791290">
        <ele>1212.8</ele>
        <time>2022-07-24T12:58:27Z</time>
      </trkpt>
      <trkpt lat="46.3232480" lon="5.8790470">
        <ele>1212.8</ele>
        <time>2022-07-24T12:58:32Z</time>
      </trkpt>
      <trkpt lat="46.3230730" lon="5.8790130">
        <ele>1212.6</ele>
        <time>2022-07-24T12:58:37Z</time>
      </trkpt>
      <trkpt lat="46.3229700" lon="5.8789850">
        <ele>1212.6</ele>
        <time>2022-07-24T12:58:42Z</time>
      </trkpt>
      <trkpt lat="46.3228310" lon="5.8789190">
        <ele>1213.0</ele>
        <time>2022-07-24T12:58:47Z</time>
      </trkpt>
      <trkpt lat="46.3226640" lon="5.8787320">
        <ele>1213.0</ele>
        <time>2022-07-24T12:58:53Z</time>
      </trkpt>
      <trkpt lat="46.3225430" lon="5.8785620">
        <ele>1212.8</ele>
        <time>2022-07-24T12:58:59Z</time>
      </trkpt>
      <trkpt lat="46.3223860" lon="5.8783280">
        <ele>1212.6</ele>
        <time>2022-07-24T12:59:06Z</time>
      </trkpt>
      <trkpt lat="46.3223070" lon="5.8782100">
        <ele>1212.4</ele>
        <time>2022-07-24T12:59:09Z</time>
      </trkpt>
      <trkpt lat="46.3222030" lon="5.8780840">
        <ele>1211.6</ele>
        <time>2022-07-24T12:59:12Z</time>
      </trkpt>
      <trkpt lat="46.3221360" lon="5.8779980">
        <ele>1211.4</ele>
        <time>2022-07-24T12:59:14Z</time>
      </trkpt>
      <trkpt lat="46.3219760" lon="5.8778170">
        <ele>1210.8</ele>
        <time>2022-07-24T12:59:18Z</time>
      </trkpt>
      <trkpt lat="46.3219330" lon="5.8777700">
        <ele>1210.6</ele>
        <time>2022-07-24T12:59:19Z</time>
      </trkpt>
      <trkpt lat="46.3217960" lon="5.8776250">
        <ele>1210.0</ele>
        <time>2022-07-24T12:59:22Z</time>
      </trkpt>
      <trkpt lat="46.3217480" lon="5.8775680">
        <ele>1209.6</ele>
        <time>2022-07-24T12:59:23Z</time>
      </trkpt>
      <trkpt lat="46.3216280" lon="5.8774010">
        <ele>1208.8</ele>
        <time>2022-07-24T12:59:26Z</time>
      </trkpt>
      <trkpt lat="46.3215810" lon="5.8773410">
        <ele>1208.4</ele>
        <time>2022-07-24T12:59:27Z</time>
      </trkpt>
      <trkpt lat="46.3214990" lon="5.8772440">
        <ele>1207.6</ele>
        <time>2022-07-24T12:59:29Z</time>
      </trkpt>
      <trkpt lat="46.3213610" lon="5.8770880">
        <ele>1206.6</ele>
        <time>2022-07-24T12:59:33Z</time>
      </trkpt>
      <trkpt lat="46.3212060" lon="5.8768940">
        <ele>1206.4</ele>
        <time>2022-07-24T12:59:39Z</time>
      </trkpt>
      <trkpt lat="46.3210690" lon="5.8767370">
        <ele>1206.4</ele>
        <time>2022-07-24T12:59:46Z</time>
      </trkpt>
      <trkpt lat="46.3209500" lon="5.8765830">
        <ele>1207.4</ele>
        <time>2022-07-24T12:59:53Z</time>
      </trkpt>
      <trkpt lat="46.3208870" lon="5.8765030">
        <ele>1207.6</ele>
        <time>2022-07-24T12:59:57Z</time>
      </trkpt>
      <trkpt lat="46.3208580" lon="5.8764670">
        <ele>1208.0</ele>
        <time>2022-07-24T12:59:59Z</time>
      </trkpt>
      <trkpt lat="46.3208050" lon="5.8764320">
        <ele>1208.8</ele>
        <time>2022-07-24T13:00:02Z</time>
      </trkpt>
      <trkpt lat="46.3207580" lon="5.8763640">
        <ele>1209.4</ele>
        <time>2022-07-24T13:00:06Z</time>
      </trkpt>
      <trkpt lat="46.3207050" lon="5.8763090">
        <ele>1210.0</ele>
        <time>2022-07-24T13:00:10Z</time>
      </trkpt>
      <trkpt lat="46.3206730" lon="5.8762820">
        <ele>1210.4</ele>
        <time>2022-07-24T13:00:12Z</time>
      </trkpt>
      <trkpt lat="46.3205940" lon="5.8762020">
        <ele>1211.0</ele>
        <time>2022-07-24T13:00:17Z</time>
      </trkpt>
      <trkpt lat="46.3205640" lon="5.8761730">
        <ele>1211.4</ele>
        <time>2022-07-24T13:00:19Z</time>
      </trkpt>
      <trkpt lat="46.3205050" lon="5.8760890">
        <ele>1212.0</ele>
        <time>2022-07-24T13:00:23Z</time>
      </trkpt>
      <trkpt lat="46.3204790" lon="5.8760450">
        <ele>1212.2</ele>
        <time>2022-07-24T13:00:25Z</time>
      </trkpt>
      <trkpt lat="46.3203530" lon="5.8759020">
        <ele>1212.8</ele>
        <time>2022-07-24T13:00:33Z</time>
      </trkpt>
      <trkpt lat="46.3203360" lon="5.8758810">
        <ele>1213.0</ele>
        <time>2022-07-24T13:00:34Z</time>
      </trkpt>
      <trkpt lat="46.3202420" lon="5.8757840">
        <ele>1213.6</ele>
        <time>2022-07-24T13:00:39Z</time>
      </trkpt>
      <trkpt lat="46.3201130" lon="5.8756480">
        <ele>1214.0</ele>
        <time>2022-07-24T13:00:45Z</time>
      </trkpt>
      <trkpt lat="46.3200910" lon="5.8756250">
        <ele>1214.0</ele>
        <time>2022-07-24T13:00:46Z</time>
      </trkpt>
      <trkpt lat="46.3199590" lon="5.8754640">
        <ele>1214.2</ele>
        <time>2022-07-24T13:00:53Z</time>
      </trkpt>
      <trkpt lat="46.3198370" lon="5.8752790">
        <ele>1214.8</ele>
        <time>2022-07-24T13:01:01Z</time>
      </trkpt>
      <trkpt lat="46.3197700" lon="5.8752150">
        <ele>1215.0</ele>
        <time>2022-07-24T13:01:05Z</time>
      </trkpt>
      <trkpt lat="46.3197430" lon="5.8751880">
        <ele>1215.4</ele>
        <time>2022-07-24T13:01:07Z</time>
      </trkpt>
      <trkpt lat="46.3196350" lon="5.8750750">
        <ele>1216.0</ele>
        <time>2022-07-24T13:01:13Z</time>
      </trkpt>
      <trkpt lat="46.3196150" lon="5.8750540">
        <ele>1216.0</ele>
        <time>2022-07-24T13:01:14Z</time>
      </trkpt>
      <trkpt lat="46.3194690" lon="5.8749030">
        <ele>1216.6</ele>
        <time>2022-07-24T13:01:21Z</time>
      </trkpt>
      <trkpt lat="46.3193390" lon="5.8747330">
        <ele>1216.8</ele>
        <time>2022-07-24T13:01:26Z</time>
      </trkpt>
      <trkpt lat="46.3192010" lon="5.8746150">
        <ele>1216.8</ele>
        <time>2022-07-24T13:01:31Z</time>
      </trkpt>
      <trkpt lat="46.3191660" lon="5.8745910">
        <ele>1216.6</ele>
        <time>2022-07-24T13:01:35Z</time>
      </trkpt>
      <trkpt lat="46.3189830" lon="5.8744860">
        <ele>1216.6</ele>
        <time>2022-07-24T13:01:54Z</time>
      </trkpt>
      <trkpt lat="46.3188420" lon="5.8743510">
        <ele>1216.6</ele>
        <time>2022-07-24T13:02:02Z</time>
      </trkpt>
      <trkpt lat="46.3188230" lon="5.8743340">
        <ele>1217.0</ele>
        <time>2022-07-24T13:02:03Z</time>
      </trkpt>
      <trkpt lat="46.3187160" lon="5.8742190">
        <ele>1217.6</ele>
        <time>2022-07-24T13:02:09Z</time>
      </trkpt>
      <trkpt lat="46.3186260" lon="5.8741370">
        <ele>1218.0</ele>
        <time>2022-07-24T13:02:13Z</time>
      </trkpt>
      <trkpt lat="46.3185810" lon="5.8740870">
        <ele>1218.0</ele>
        <time>2022-07-24T13:02:15Z</time>
      </trkpt>
      <trkpt lat="46.3184310" lon="5.8739120">
        <ele>1218.0</ele>
        <time>2022-07-24T13:02:21Z</time>
      </trkpt>
      <trkpt lat="46.3183340" lon="5.8738050">
        <ele>1217.8</ele>
        <time>2022-07-24T13:02:26Z</time>
      </trkpt>
      <trkpt lat="46.3181360" lon="5.8736530">
        <ele>1216.6</ele>
        <time>2022-07-24T13:02:32Z</time>
      </trkpt>
      <trkpt lat="46.3180710" lon="5.8735930">
        <ele>1216.0</ele>
        <time>2022-07-24T13:02:34Z</time>
      </trkpt>
      <trkpt lat="46.3179550" lon="5.8734660">
        <ele>1215.4</ele>
        <time>2022-07-24T13:02:37Z</time>
      </trkpt>
      <trkpt lat="46.3177460" lon="5.8732460">
        <ele>1214.8</ele>
        <time>2022-07-24T13:02:42Z</time>
      </trkpt>
      <trkpt lat="46.3177100" lon="5.8732130">
        <ele>1214.4</ele>
        <time>2022-07-24T13:02:43Z</time>
      </trkpt>
      <trkpt lat="46.3175650" lon="5.8730610">
        <ele>1213.6</ele>
        <time>2022-07-24T13:02:47Z</time>
      </trkpt>
      <trkpt lat="46.3174110" lon="5.8729340">
        <ele>1213.4</ele>
        <time>2022-07-24T13:02:50Z</time>
      </trkpt>
      <trkpt lat="46.3173490" lon="5.8729110">
        <ele>1213.4</ele>
        <time>2022-07-24T13:02:51Z</time>
      </trkpt>
      <trkpt lat="46.3171620" lon="5.8728390">
        <ele>1213.2</ele>
        <time>2022-07-24T13:02:55Z</time>
      </trkpt>
      <trkpt lat="46.3170310" lon="5.8727830">
        <ele>1212.6</ele>
        <time>2022-07-24T13:03:01Z</time>
      </trkpt>
      <trkpt lat="46.3169160" lon="5.8727030">
        <ele>1212.8</ele>
        <time>2022-07-24T13:03:07Z</time>
      </trkpt>
      <trkpt lat="46.3168560" lon="5.8726730">
        <ele>1213.6</ele>
        <time>2022-07-24T13:03:10Z</time>
      </trkpt>
      <trkpt lat="46.3168210" lon="5.8726390">
        <ele>1214.0</ele>
        <time>2022-07-24T13:03:12Z</time>
      </trkpt>
      <trkpt lat="46.3167870" lon="5.8726050">
        <ele>1214.2</ele>
        <time>2022-07-24T13:03:14Z</time>
      </trkpt>
      <trkpt lat="46.3166650" lon="5.8725190">
        <ele>1214.8</ele>
        <time>2022-07-24T13:03:20Z</time>
      </trkpt>
      <trkpt lat="46.3166020" lon="5.8724850">
        <ele>1215.2</ele>
        <time>2022-07-24T13:03:23Z</time>
      </trkpt>
      <trkpt lat="46.3164690" lon="5.8724060">
        <ele>1215.8</ele>
        <time>2022-07-24T13:03:29Z</time>
      </trkpt>
      <trkpt lat="46.3162810" lon="5.8722470">
        <ele>1216.2</ele>
        <time>2022-07-24T13:03:36Z</time>
      </trkpt>
      <trkpt lat="46.3162490" lon="5.8722100">
        <ele>1216.2</ele>
        <time>2022-07-24T13:03:37Z</time>
      </trkpt>
      <trkpt lat="46.3161710" lon="5.8721470">
        <ele>1216.2</ele>
        <time>2022-07-24T13:03:39Z</time>
      </trkpt>
      <trkpt lat="46.3161280" lon="5.8721220">
        <ele>1216.2</ele>
        <time>2022-07-24T13:03:40Z</time>
      </trkpt>
      <trkpt lat="46.3160830" lon="5.8721100">
        <ele>1216.0</ele>
        <time>2022-07-24T13:03:41Z</time>
      </trkpt>
      <trkpt lat="46.3159640" lon="5.8721840">
        <ele>1215.6</ele>
        <time>2022-07-24T13:03:44Z</time>
      </trkpt>
      <trkpt lat="46.3158700" lon="5.8723320">
        <ele>1215.2</ele>
        <time>2022-07-24T13:03:47Z</time>
      </trkpt>
      <trkpt lat="46.3158260" lon="5.8724160">
        <ele>1214.6</ele>
        <time>2022-07-24T13:03:49Z</time>
      </trkpt>
      <trkpt lat="46.3157910" lon="5.8724710">
        <ele>1214.2</ele>
        <time>2022-07-24T13:03:52Z</time>
      </trkpt>
      <trkpt lat="46.3157830" lon="5.8724820">
        <ele>1214.0</ele>
        <time>2022-07-24T13:03:53Z</time>
      </trkpt>
      <trkpt lat="46.3157400" lon="5.8725650">
        <ele>1213.8</ele>
        <time>2022-07-24T13:03:59Z</time>
      </trkpt>
      <trkpt lat="46.3157280" lon="5.8725710">
        <ele>1213.8</ele>
        <time>2022-07-24T13:04:02Z</time>
      </trkpt>
      <trkpt lat="46.3156320" lon="5.8726660">
        <ele>1213.8</ele>
        <time>2022-07-24T13:04:24Z</time>
      </trkpt>
      <trkpt lat="46.3156120" lon="5.8726710">
        <ele>1213.6</ele>
        <time>2022-07-24T13:04:25Z</time>
      </trkpt>
      <trkpt lat="46.3155680" lon="5.8726800">
        <ele>1213.4</ele>
        <time>2022-07-24T13:04:30Z</time>
      </trkpt>
      <trkpt lat="46.3155000" lon="5.8726780">
        <ele>1213.0</ele>
        <time>2022-07-24T13:04:37Z</time>
      </trkpt>
      <trkpt lat="46.3154460" lon="5.8726280">
        <ele>1213.0</ele>
        <time>2022-07-24T13:04:39Z</time>
      </trkpt>
      <trkpt lat="46.3153260" lon="5.8724890">
        <ele>1212.8</ele>
        <time>2022-07-24T13:04:44Z</time>
      </trkpt>
      <trkpt lat="46.3152740" lon="5.8723910">
        <ele>1212.2</ele>
        <time>2022-07-24T13:04:48Z</time>
      </trkpt>
      <trkpt lat="46.3152580" lon="5.8723610">
        <ele>1211.8</ele>
        <time>2022-07-24T13:04:49Z</time>
      </trkpt>
      <trkpt lat="46.3151970" lon="5.8722650">
        <ele>1211.0</ele>
        <time>2022-07-24T13:04:53Z</time>
      </trkpt>
      <trkpt lat="46.3151610" lon="5.8722360">
        <ele>1210.8</ele>
        <time>2022-07-24T13:04:55Z</time>
      </trkpt>
      <trkpt lat="46.3150610" lon="5.8721560">
        <ele>1209.6</ele>
        <time>2022-07-24T13:04:59Z</time>
      </trkpt>
      <trkpt lat="46.3150250" lon="5.8721210">
        <ele>1209.6</ele>
        <time>2022-07-24T13:05:00Z</time>
      </trkpt>
      <trkpt lat="46.3149230" lon="5.8720340">
        <ele>1208.8</ele>
        <time>2022-07-24T13:05:03Z</time>
      </trkpt>
      <trkpt lat="46.3148910" lon="5.8720060">
        <ele>1208.4</ele>
        <time>2022-07-24T13:05:04Z</time>
      </trkpt>
      <trkpt lat="46.3148590" lon="5.8719700">
        <ele>1208.0</ele>
        <time>2022-07-24T13:05:05Z</time>
      </trkpt>
      <trkpt lat="46.3147490" lon="5.8718210">
        <ele>1207.4</ele>
        <time>2022-07-24T13:05:08Z</time>
      </trkpt>
      <trkpt lat="46.3146100" lon="5.8716500">
        <ele>1206.0</ele>
        <time>2022-07-24T13:05:12Z</time>
      </trkpt>
      <trkpt lat="46.3145840" lon="5.8716190">
        <ele>1205.8</ele>
        <time>2022-07-24T13:05:13Z</time>
      </trkpt>
      <trkpt lat="46.3145010" lon="5.8715540">
        <ele>1204.8</ele>
        <time>2022-07-24T13:05:16Z</time>
      </trkpt>
      <trkpt lat="46.3144730" lon="5.8715310">
        <ele>1204.4</ele>
        <time>2022-07-24T13:05:17Z</time>
      </trkpt>
      <trkpt lat="46.3143750" lon="5.8714520">
        <ele>1203.6</ele>
        <time>2022-07-24T13:05:20Z</time>
      </trkpt>
      <trkpt lat="46.3143020" lon="5.8713950">
        <ele>1203.2</ele>
        <time>2022-07-24T13:05:22Z</time>
      </trkpt>
      <trkpt lat="46.3142030" lon="5.8713150">
        <ele>1202.4</ele>
        <time>2022-07-24T13:05:25Z</time>
      </trkpt>
      <trkpt lat="46.3141480" lon="5.8712860">
        <ele>1200.8</ele>
        <time>2022-07-24T13:05:27Z</time>
      </trkpt>
      <trkpt lat="46.3141220" lon="5.8712730">
        <ele>1200.4</ele>
        <time>2022-07-24T13:05:28Z</time>
      </trkpt>
      <trkpt lat="46.3140660" lon="5.8712330">
        <ele>1199.6</ele>
        <time>2022-07-24T13:05:30Z</time>
      </trkpt>
      <trkpt lat="46.3140200" lon="5.8711800">
        <ele>1198.4</ele>
        <time>2022-07-24T13:05:32Z</time>
      </trkpt>
      <trkpt lat="46.3140010" lon="5.8711500">
        <ele>1197.8</ele>
        <time>2022-07-24T13:05:33Z</time>
      </trkpt>
      <trkpt lat="46.3139840" lon="5.8711110">
        <ele>1197.4</ele>
        <time>2022-07-24T13:05:34Z</time>
      </trkpt>
      <trkpt lat="46.3139320" lon="5.8710360">
        <ele>1197.0</ele>
        <time>2022-07-24T13:05:36Z</time>
      </trkpt>
      <trkpt lat="46.3138920" lon="5.8710050">
        <ele>1196.8</ele>
        <time>2022-07-24T13:05:37Z</time>
      </trkpt>
      <trkpt lat="46.3138450" lon="5.8709720">
        <ele>1196.4</ele>
        <time>2022-07-24T13:05:38Z</time>
      </trkpt>
      <trkpt lat="46.3137960" lon="5.8709330">
        <ele>1196.0</ele>
        <time>2022-07-24T13:05:39Z</time>
      </trkpt>
      <trkpt lat="46.3137060" lon="5.8708220">
        <ele>1195.6</ele>
        <time>2022-07-24T13:05:41Z</time>
      </trkpt>
      <trkpt lat="46.3136750" lon="5.8707600">
        <ele>1195.2</ele>
        <time>2022-07-24T13:05:42Z</time>
      </trkpt>
      <trkpt lat="46.3136400" lon="5.8706430">
        <ele>1194.2</ele>
        <time>2022-07-24T13:05:44Z</time>
      </trkpt>
      <trkpt lat="46.3136340" lon="5.8706030">
        <ele>1193.6</ele>
        <time>2022-07-24T13:05:45Z</time>
      </trkpt>
      <trkpt lat="46.3136280" lon="5.8705760">
        <ele>1193.0</ele>
        <time>2022-07-24T13:05:46Z</time>
      </trkpt>
      <trkpt lat="46.3136210" lon="5.8705530">
        <ele>1192.4</ele>
        <time>2022-07-24T13:05:47Z</time>
      </trkpt>
      <trkpt lat="46.3136060" lon="5.8705140">
        <ele>1192.2</ele>
        <time>2022-07-24T13:05:49Z</time>
      </trkpt>
      <trkpt lat="46.3135960" lon="5.8704970">
        <ele>1192.0</ele>
        <time>2022-07-24T13:05:50Z</time>
      </trkpt>
      <trkpt lat="46.3135720" lon="5.8704340">
        <ele>1192.0</ele>
        <time>2022-07-24T13:05:53Z</time>
      </trkpt>
      <trkpt lat="46.3135320" lon="5.8703480">
        <ele>1192.2</ele>
        <time>2022-07-24T13:05:57Z</time>
      </trkpt>
      <trkpt lat="46.3134700" lon="5.8702110">
        <ele>1193.6</ele>
        <time>2022-07-24T13:06:04Z</time>
      </trkpt>
      <trkpt lat="46.3134410" lon="5.8701330">
        <ele>1194.0</ele>
        <time>2022-07-24T13:06:08Z</time>
      </trkpt>
      <trkpt lat="46.3134180" lon="5.8700820">
        <ele>1194.6</ele>
        <time>2022-07-24T13:06:11Z</time>
      </trkpt>
      <trkpt lat="46.3133820" lon="5.8700310">
        <ele>1195.2</ele>
        <time>2022-07-24T13:06:15Z</time>
      </trkpt>
      <trkpt lat="46.3133660" lon="5.8700130">
        <ele>1195.2</ele>
        <time>2022-07-24T13:06:17Z</time>
      </trkpt>
      <trkpt lat="46.3133600" lon="5.8700060">
        <ele>1195.4</ele>
        <time>2022-07-24T13:06:19Z</time>
      </trkpt>
      <trkpt lat="46.3133160" lon="5.8699700">
        <ele>1196.4</ele>
        <time>2022-07-24T13:06:30Z</time>
      </trkpt>
      <trkpt lat="46.3132970" lon="5.8699510">
        <ele>1196.4</ele>
        <time>2022-07-24T13:06:31Z</time>
      </trkpt>
      <trkpt lat="46.3131690" lon="5.8697990">
        <ele>1196.2</ele>
        <time>2022-07-24T13:06:37Z</time>
      </trkpt>
      <trkpt lat="46.3130320" lon="5.8696880">
        <ele>1196.0</ele>
        <time>2022-07-24T13:06:44Z</time>
      </trkpt>
      <trkpt lat="46.3128600" lon="5.8696250">
        <ele>1195.8</ele>
        <time>2022-07-24T13:06:49Z</time>
      </trkpt>
      <trkpt lat="46.3126230" lon="5.8694530">
        <ele>1194.2</ele>
        <time>2022-07-24T13:06:56Z</time>
      </trkpt>
      <trkpt lat="46.3125620" lon="5.8693940">
        <ele>1193.0</ele>
        <time>2022-07-24T13:06:58Z</time>
      </trkpt>
      <trkpt lat="46.3124910" lon="5.8693040">
        <ele>1191.8</ele>
        <time>2022-07-24T13:07:00Z</time>
      </trkpt>
      <trkpt lat="46.3124500" lon="5.8692460">
        <ele>1191.2</ele>
        <time>2022-07-24T13:07:01Z</time>
      </trkpt>
      <trkpt lat="46.3124080" lon="5.8691870">
        <ele>1190.6</ele>
        <time>2022-07-24T13:07:02Z</time>
      </trkpt>
      <trkpt lat="46.3123190" lon="5.8690570">
        <ele>1189.2</ele>
        <time>2022-07-24T13:07:04Z</time>
      </trkpt>
      <trkpt lat="46.3122260" lon="5.8689080">
        <ele>1188.0</ele>
        <time>2022-07-24T13:07:06Z</time>
      </trkpt>
      <trkpt lat="46.3121750" lon="5.8688280">
        <ele>1187.4</ele>
        <time>2022-07-24T13:07:07Z</time>
      </trkpt>
      <trkpt lat="46.3121180" lon="5.8687470">
        <ele>1186.6</ele>
        <time>2022-07-24T13:07:08Z</time>
      </trkpt>
      <trkpt lat="46.3120000" lon="5.8685900">
        <ele>1185.0</ele>
        <time>2022-07-24T13:07:10Z</time>
      </trkpt>
      <trkpt lat="46.3118870" lon="5.8684560">
        <ele>1183.6</ele>
        <time>2022-07-24T13:07:12Z</time>
      </trkpt>
      <trkpt lat="46.3117910" lon="5.8683530">
        <ele>1181.8</ele>
        <time>2022-07-24T13:07:14Z</time>
      </trkpt>
      <trkpt lat="46.3117190" lon="5.8682770">
        <ele>1180.4</ele>
        <time>2022-07-24T13:07:16Z</time>
      </trkpt>
      <trkpt lat="46.3116610" lon="5.8682160">
        <ele>1179.0</ele>
        <time>2022-07-24T13:07:18Z</time>
      </trkpt>
      <trkpt lat="46.3115320" lon="5.8680790">
        <ele>1178.4</ele>
        <time>2022-07-24T13:07:23Z</time>
      </trkpt>
      <trkpt lat="46.3113290" lon="5.8679170">
        <ele>1178.4</ele>
        <time>2022-07-24T13:07:30Z</time>
      </trkpt>
      <trkpt lat="46.3112840" lon="5.8678650">
        <ele>1178.4</ele>
        <time>2022-07-24T13:07:34Z</time>
      </trkpt>
      <trkpt lat="46.3112850" lon="5.8678650">
        <ele>1178.4</ele>
        <time>2022-07-24T13:07:35Z</time>
      </trkpt>
      <trkpt lat="46.3112220" lon="5.8677790">
        <ele>1178.6</ele>
        <time>2022-07-24T13:07:52Z</time>
      </trkpt>
      <trkpt lat="46.3111880" lon="5.8677490">
        <ele>1178.6</ele>
        <time>2022-07-24T13:07:54Z</time>
      </trkpt>
      <trkpt lat="46.3110490" lon="5.8676100">
        <ele>1179.0</ele>
        <time>2022-07-24T13:08:02Z</time>
      </trkpt>
      <trkpt lat="46.3109410" lon="5.8674930">
        <ele>1180.0</ele>
        <time>2022-07-24T13:08:07Z</time>
      </trkpt>
      <trkpt lat="46.3108710" lon="5.8674200">
        <ele>1180.2</ele>
        <time>2022-07-24T13:08:10Z</time>
      </trkpt>
      <trkpt lat="46.3107360" lon="5.8673610">
        <ele>1180.4</ele>
        <time>2022-07-24T13:08:16Z</time>
      </trkpt>
      <trkpt lat="46.3106110" lon="5.8672900">
        <ele>1180.4</ele>
        <time>2022-07-24T13:08:23Z</time>
      </trkpt>
      <trkpt lat="46.3104600" lon="5.8672020">
        <ele>1180.4</ele>
        <time>2022-07-24T13:08:30Z</time>
      </trkpt>
      <trkpt lat="46.3103470" lon="5.8671820">
        <ele>1180.4</ele>
        <time>2022-07-24T13:08:35Z</time>
      </trkpt>
      <trkpt lat="46.3101720" lon="5.8672210">
        <ele>1180.4</ele>
        <time>2022-07-24T13:08:44Z</time>
      </trkpt>
      <trkpt lat="46.3100570" lon="5.8672300">
        <ele>1180.4</ele>
        <time>2022-07-24T13:08:50Z</time>
      </trkpt>
      <trkpt lat="46.3099130" lon="5.8671990">
        <ele>1180.6</ele>
        <time>2022-07-24T13:08:55Z</time>
      </trkpt>
      <trkpt lat="46.3097890" lon="5.8670800">
        <ele>1180.4</ele>
        <time>2022-07-24T13:08:59Z</time>
      </trkpt>
      <trkpt lat="46.3096060" lon="5.8668950">
        <ele>1180.6</ele>
        <time>2022-07-24T13:09:06Z</time>
      </trkpt>
      <trkpt lat="46.3094960" lon="5.8668170">
        <ele>1180.6</ele>
        <time>2022-07-24T13:09:09Z</time>
      </trkpt>
      <trkpt lat="46.3093980" lon="5.8667750">
        <ele>1180.6</ele>
        <time>2022-07-24T13:09:11Z</time>
      </trkpt>
      <trkpt lat="46.3092950" lon="5.8667310">
        <ele>1180.6</ele>
        <time>2022-07-24T13:09:13Z</time>
      </trkpt>
      <trkpt lat="46.3091490" lon="5.8666270">
        <ele>1180.4</ele>
        <time>2022-07-24T13:09:16Z</time>
      </trkpt>
      <trkpt lat="46.3089660" lon="5.8664730">
        <ele>1178.2</ele>
        <time>2022-07-24T13:09:21Z</time>
      </trkpt>
      <trkpt lat="46.3088430" lon="5.8662980">
        <ele>1177.2</ele>
        <time>2022-07-24T13:09:26Z</time>
      </trkpt>
      <trkpt lat="46.3088130" lon="5.8662600">
        <ele>1177.2</ele>
        <time>2022-07-24T13:09:27Z</time>
      </trkpt>
      <trkpt lat="46.3085340" lon="5.8659700">
        <ele>1176.8</ele>
        <time>2022-07-24T13:09:34Z</time>
      </trkpt>
      <trkpt lat="46.3082890" lon="5.8657740">
        <ele>1176.2</ele>
        <time>2022-07-24T13:09:40Z</time>
      </trkpt>
      <trkpt lat="46.3081700" lon="5.8656590">
        <ele>1176.0</ele>
        <time>2022-07-24T13:09:44Z</time>
      </trkpt>
      <trkpt lat="46.3081490" lon="5.8656380">
        <ele>1176.0</ele>
        <time>2022-07-24T13:09:45Z</time>
      </trkpt>
      <trkpt lat="46.3080270" lon="5.8654980">
        <ele>1176.0</ele>
        <time>2022-07-24T13:09:51Z</time>
      </trkpt>
      <trkpt lat="46.3078460" lon="5.8652670">
        <ele>1176.4</ele>
        <time>2022-07-24T13:09:59Z</time>
      </trkpt>
      <trkpt lat="46.3077370" lon="5.8651240">
        <ele>1176.6</ele>
        <time>2022-07-24T13:10:05Z</time>
      </trkpt>
      <trkpt lat="46.3076810" lon="5.8650370">
        <ele>1177.0</ele>
        <time>2022-07-24T13:10:09Z</time>
      </trkpt>
      <trkpt lat="46.3076510" lon="5.8649940">
        <ele>1177.4</ele>
        <time>2022-07-24T13:10:11Z</time>
      </trkpt>
      <trkpt lat="46.3075780" lon="5.8648880">
        <ele>1178.2</ele>
        <time>2022-07-24T13:10:16Z</time>
      </trkpt>
      <trkpt lat="46.3075430" lon="5.8648420">
        <ele>1178.8</ele>
        <time>2022-07-24T13:10:18Z</time>
      </trkpt>
      <trkpt lat="46.3075040" lon="5.8647960">
        <ele>1179.2</ele>
        <time>2022-07-24T13:10:20Z</time>
      </trkpt>
      <trkpt lat="46.3074020" lon="5.8646820">
        <ele>1179.6</ele>
        <time>2022-07-24T13:10:24Z</time>
      </trkpt>
      <trkpt lat="46.3073110" lon="5.8645520">
        <ele>1179.6</ele>
        <time>2022-07-24T13:10:28Z</time>
      </trkpt>
      <trkpt lat="46.3072440" lon="5.8644720">
        <ele>1179.6</ele>
        <time>2022-07-24T13:10:32Z</time>
      </trkpt>
      <trkpt lat="46.3071290" lon="5.8643480">
        <ele>1179.0</ele>
        <time>2022-07-24T13:10:36Z</time>
      </trkpt>
      <trkpt lat="46.3069950" lon="5.8641700">
        <ele>1178.6</ele>
        <time>2022-07-24T13:10:41Z</time>
      </trkpt>
      <trkpt lat="46.3068910" lon="5.8640880">
        <ele>1177.8</ele>
        <time>2022-07-24T13:10:44Z</time>
      </trkpt>
      <trkpt lat="46.3067510" lon="5.8640150">
        <ele>1176.6</ele>
        <time>2022-07-24T13:10:47Z</time>
      </trkpt>
      <trkpt lat="46.3066660" lon="5.8639820">
        <ele>1175.4</ele>
        <time>2022-07-24T13:10:49Z</time>
      </trkpt>
      <trkpt lat="46.3066080" lon="5.8639300">
        <ele>1175.2</ele>
        <time>2022-07-24T13:10:51Z</time>
      </trkpt>
      <trkpt lat="46.3065060" lon="5.8638260">
        <ele>1174.0</ele>
        <time>2022-07-24T13:10:55Z</time>
      </trkpt>
      <trkpt lat="46.3064250" lon="5.8637660">
        <ele>1173.2</ele>
        <time>2022-07-24T13:10:57Z</time>
      </trkpt>
      <trkpt lat="46.3063800" lon="5.8637380">
        <ele>1173.0</ele>
        <time>2022-07-24T13:10:58Z</time>
      </trkpt>
      <trkpt lat="46.3062220" lon="5.8636680">
        <ele>1171.6</ele>
        <time>2022-07-24T13:11:01Z</time>
      </trkpt>
      <trkpt lat="46.3061640" lon="5.8636430">
        <ele>1171.2</ele>
        <time>2022-07-24T13:11:02Z</time>
      </trkpt>
      <trkpt lat="46.3060570" lon="5.8635940">
        <ele>1170.0</ele>
        <time>2022-07-24T13:11:04Z</time>
      </trkpt>
      <trkpt lat="46.3059270" lon="5.8635180">
        <ele>1168.8</ele>
        <time>2022-07-24T13:11:07Z</time>
      </trkpt>
      <trkpt lat="46.3058440" lon="5.8634600">
        <ele>1167.8</ele>
        <time>2022-07-24T13:11:09Z</time>
      </trkpt>
      <trkpt lat="46.3057320" lon="5.8634040">
        <ele>1166.6</ele>
        <time>2022-07-24T13:11:12Z</time>
      </trkpt>
      <trkpt lat="46.3057040" lon="5.8633940">
        <ele>1166.2</ele>
        <time>2022-07-24T13:11:13Z</time>
      </trkpt>
      <trkpt lat="46.3056560" lon="5.8633730">
        <ele>1165.4</ele>
        <time>2022-07-24T13:11:15Z</time>
      </trkpt>
      <trkpt lat="46.3056000" lon="5.8633450">
        <ele>1163.6</ele>
        <time>2022-07-24T13:11:18Z</time>
      </trkpt>
      <trkpt lat="46.3055660" lon="5.8633310">
        <ele>1162.6</ele>
        <time>2022-07-24T13:11:20Z</time>
      </trkpt>
      <trkpt lat="46.3055510" lon="5.8633200">
        <ele>1162.2</ele>
        <time>2022-07-24T13:11:21Z</time>
      </trkpt>
      <trkpt lat="46.3055120" lon="5.8632920">
        <ele>1160.8</ele>
        <time>2022-07-24T13:11:24Z</time>
      </trkpt>
      <trkpt lat="46.3054740" lon="5.8632460">
        <ele>1159.6</ele>
        <time>2022-07-24T13:11:27Z</time>
      </trkpt>
      <trkpt lat="46.3054610" lon="5.8632340">
        <ele>1158.6</ele>
        <time>2022-07-24T13:11:30Z</time>
      </trkpt>
      <trkpt lat="46.3053890" lon="5.8631840">
        <ele>1156.8</ele>
        <time>2022-07-24T13:11:43Z</time>
      </trkpt>
      <trkpt lat="46.3052950" lon="5.8631700">
        <ele>1156.4</ele>
        <time>2022-07-24T13:11:47Z</time>
      </trkpt>
      <trkpt lat="46.3052520" lon="5.8631490">
        <ele>1156.4</ele>
        <time>2022-07-24T13:11:48Z</time>
      </trkpt>
      <trkpt lat="46.3050700" lon="5.8630670">
        <ele>1155.8</ele>
        <time>2022-07-24T13:11:52Z</time>
      </trkpt>
      <trkpt lat="46.3048380" lon="5.8630120">
        <ele>1154.2</ele>
        <time>2022-07-24T13:11:57Z</time>
      </trkpt>
      <trkpt lat="46.3048040" lon="5.8629970">
        <ele>1153.6</ele>
        <time>2022-07-24T13:11:58Z</time>
      </trkpt>
      <trkpt lat="46.3047750" lon="5.8629880">
        <ele>1152.8</ele>
        <time>2022-07-24T13:11:59Z</time>
      </trkpt>
      <trkpt lat="46.3047150" lon="5.8629870">
        <ele>1151.4</ele>
        <time>2022-07-24T13:12:01Z</time>
      </trkpt>
      <trkpt lat="46.3046440" lon="5.8630190">
        <ele>1149.6</ele>
        <time>2022-07-24T13:12:03Z</time>
      </trkpt>
      <trkpt lat="46.3046000" lon="5.8630500">
        <ele>1148.4</ele>
        <time>2022-07-24T13:12:04Z</time>
      </trkpt>
      <trkpt lat="46.3045050" lon="5.8631460">
        <ele>1146.8</ele>
        <time>2022-07-24T13:12:06Z</time>
      </trkpt>
      <trkpt lat="46.3044360" lon="5.8632190">
        <ele>1145.4</ele>
        <time>2022-07-24T13:12:08Z</time>
      </trkpt>
      <trkpt lat="46.3044120" lon="5.8632370">
        <ele>1145.0</ele>
        <time>2022-07-24T13:12:09Z</time>
      </trkpt>
      <trkpt lat="46.3043970" lon="5.8632420">
        <ele>1144.4</ele>
        <time>2022-07-24T13:12:10Z</time>
      </trkpt>
      <trkpt lat="46.3043760" lon="5.8632410">
        <ele>1143.4</ele>
        <time>2022-07-24T13:12:12Z</time>
      </trkpt>
      <trkpt lat="46.3043730" lon="5.8632410">
        <ele>1142.8</ele>
        <time>2022-07-24T13:12:13Z</time>
      </trkpt>
      <trkpt lat="46.3043700" lon="5.8632340">
        <ele>1142.2</ele>
        <time>2022-07-24T13:12:14Z</time>
      </trkpt>
      <trkpt lat="46.3043690" lon="5.8632170">
        <ele>1140.0</ele>
        <time>2022-07-24T13:12:16Z</time>
      </trkpt>
      <trkpt lat="46.3043690" lon="5.8631980">
        <ele>1139.0</ele>
        <time>2022-07-24T13:12:18Z</time>
      </trkpt>
      <trkpt lat="46.3043650" lon="5.8631650">
        <ele>1138.0</ele>
        <time>2022-07-24T13:12:21Z</time>
      </trkpt>
      <trkpt lat="46.3043600" lon="5.8631420">
        <ele>1137.8</ele>
        <time>2022-07-24T13:12:22Z</time>
      </trkpt>
      <trkpt lat="46.3043340" lon="5.8630600">
        <ele>1137.4</ele>
        <time>2022-07-24T13:12:26Z</time>
      </trkpt>
      <trkpt lat="46.3043280" lon="5.8630360">
        <ele>1136.8</ele>
        <time>2022-07-24T13:12:30Z</time>
      </trkpt>
      <trkpt lat="46.3043290" lon="5.8630330">
        <ele>1136.6</ele>
        <time>2022-07-24T13:12:31Z</time>
      </trkpt>
      <trkpt lat="46.3043300" lon="5.8629220">
        <ele>1135.0</ele>
        <time>2022-07-24T13:12:43Z</time>
      </trkpt>
      <trkpt lat="46.3043540" lon="5.8627250">
        <ele>1134.6</ele>
        <time>2022-07-24T13:12:49Z</time>
      </trkpt>
      <trkpt lat="46.3043800" lon="5.8623950">
        <ele>1134.8</ele>
        <time>2022-07-24T13:12:55Z</time>
      </trkpt>
      <trkpt lat="46.3043050" lon="5.8622060">
        <ele>1134.4</ele>
        <time>2022-07-24T13:12:58Z</time>
      </trkpt>
      <trkpt lat="46.3042560" lon="5.8621660">
        <ele>1134.2</ele>
        <time>2022-07-24T13:12:59Z</time>
      </trkpt>
      <trkpt lat="46.3041460" lon="5.8621120">
        <ele>1134.0</ele>
        <time>2022-07-24T13:13:01Z</time>
      </trkpt>
      <trkpt lat="46.3040920" lon="5.8620870">
        <ele>1133.8</ele>
        <time>2022-07-24T13:13:02Z</time>
      </trkpt>
      <trkpt lat="46.3039950" lon="5.8620410">
        <ele>1133.2</ele>
        <time>2022-07-24T13:13:04Z</time>
      </trkpt>
      <trkpt lat="46.3039280" lon="5.8620370">
        <ele>1132.2</ele>
        <time>2022-07-24T13:13:06Z</time>
      </trkpt>
      <trkpt lat="46.3039040" lon="5.8620490">
        <ele>1131.8</ele>
        <time>2022-07-24T13:13:07Z</time>
      </trkpt>
      <trkpt lat="46.3038610" lon="5.8620830">
        <ele>1131.4</ele>
        <time>2022-07-24T13:13:09Z</time>
      </trkpt>
      <trkpt lat="46.3038060" lon="5.8621300">
        <ele>1131.4</ele>
        <time>2022-07-24T13:13:12Z</time>
      </trkpt>
      <trkpt lat="46.3036950" lon="5.8622530">
        <ele>1132.4</ele>
        <time>2022-07-24T13:13:20Z</time>
      </trkpt>
      <trkpt lat="46.3036540" lon="5.8622820">
        <ele>1132.8</ele>
        <time>2022-07-24T13:13:23Z</time>
      </trkpt>
      <trkpt lat="46.3035740" lon="5.8623170">
        <ele>1133.8</ele>
        <time>2022-07-24T13:13:28Z</time>
      </trkpt>
      <trkpt lat="46.3035590" lon="5.8623190">
        <ele>1134.0</ele>
        <time>2022-07-24T13:13:29Z</time>
      </trkpt>
      <trkpt lat="46.3034840" lon="5.8623100">
        <ele>1135.0</ele>
        <time>2022-07-24T13:13:35Z</time>
      </trkpt>
      <trkpt lat="46.3034580" lon="5.8623110">
        <ele>1135.4</ele>
        <time>2022-07-24T13:13:37Z</time>
      </trkpt>
      <trkpt lat="46.3034060" lon="5.8622980">
        <ele>1136.0</ele>
        <time>2022-07-24T13:13:41Z</time>
      </trkpt>
      <trkpt lat="46.3033610" lon="5.8622740">
        <ele>1137.0</ele>
        <time>2022-07-24T13:13:45Z</time>
      </trkpt>
      <trkpt lat="46.3033370" lon="5.8622640">
        <ele>1137.2</ele>
        <time>2022-07-24T13:13:47Z</time>
      </trkpt>
      <trkpt lat="46.3032660" lon="5.8622210">
        <ele>1138.4</ele>
        <time>2022-07-24T13:13:53Z</time>
      </trkpt>
      <trkpt lat="46.3032440" lon="5.8622010">
        <ele>1138.8</ele>
        <time>2022-07-24T13:13:55Z</time>
      </trkpt>
      <trkpt lat="46.3031870" lon="5.8621530">
        <ele>1139.6</ele>
        <time>2022-07-24T13:14:00Z</time>
      </trkpt>
      <trkpt lat="46.3031570" lon="5.8621130">
        <ele>1140.0</ele>
        <time>2022-07-24T13:14:03Z</time>
      </trkpt>
      <trkpt lat="46.3030710" lon="5.8620080">
        <ele>1140.6</ele>
        <time>2022-07-24T13:14:11Z</time>
      </trkpt>
      <trkpt lat="46.3030610" lon="5.8619940">
        <ele>1140.8</ele>
        <time>2022-07-24T13:14:12Z</time>
      </trkpt>
      <trkpt lat="46.3029870" lon="5.8618900">
        <ele>1141.8</ele>
        <time>2022-07-24T13:14:19Z</time>
      </trkpt>
      <trkpt lat="46.3029360" lon="5.8618280">
        <ele>1142.2</ele>
        <time>2022-07-24T13:14:24Z</time>
      </trkpt>
      <trkpt lat="46.3029000" lon="5.8617760">
        <ele>1143.0</ele>
        <time>2022-07-24T13:14:29Z</time>
      </trkpt>
      <trkpt lat="46.3028760" lon="5.8617630">
        <ele>1143.4</ele>
        <time>2022-07-24T13:14:33Z</time>
      </trkpt>
      <trkpt lat="46.3028750" lon="5.8617630">
        <ele>1143.4</ele>
        <time>2022-07-24T13:14:34Z</time>
      </trkpt>
      <trkpt lat="46.3028430" lon="5.8617200">
        <ele>1145.0</ele>
        <time>2022-07-24T13:14:57Z</time>
      </trkpt>
      <trkpt lat="46.3028120" lon="5.8617130">
        <ele>1145.0</ele>
        <time>2022-07-24T13:14:59Z</time>
      </trkpt>
      <trkpt lat="46.3027380" lon="5.8617690">
        <ele>1145.2</ele>
        <time>2022-07-24T13:15:05Z</time>
      </trkpt>
      <trkpt lat="46.3027280" lon="5.8617840">
        <ele>1145.2</ele>
        <time>2022-07-24T13:15:06Z</time>
      </trkpt>
      <trkpt lat="46.3026790" lon="5.8618290">
        <ele>1146.4</ele>
        <time>2022-07-24T13:15:10Z</time>
      </trkpt>
      <trkpt lat="46.3026440" lon="5.8618730">
        <ele>1147.2</ele>
        <time>2022-07-24T13:15:13Z</time>
      </trkpt>
      <trkpt lat="46.3026070" lon="5.8619330">
        <ele>1147.6</ele>
        <time>2022-07-24T13:15:17Z</time>
      </trkpt>
      <trkpt lat="46.3025620" lon="5.8620120">
        <ele>1148.6</ele>
        <time>2022-07-24T13:15:22Z</time>
      </trkpt>
      <trkpt lat="46.3024860" lon="5.8621200">
        <ele>1149.6</ele>
        <time>2022-07-24T13:15:30Z</time>
      </trkpt>
      <trkpt lat="46.3024550" lon="5.8621540">
        <ele>1150.0</ele>
        <time>2022-07-24T13:15:33Z</time>
      </trkpt>
      <trkpt lat="46.3023760" lon="5.8621910">
        <ele>1151.0</ele>
        <time>2022-07-24T13:15:39Z</time>
      </trkpt>
      <trkpt lat="46.3023420" lon="5.8621950">
        <ele>1151.4</ele>
        <time>2022-07-24T13:15:41Z</time>
      </trkpt>
      <trkpt lat="46.3022480" lon="5.8621730">
        <ele>1152.0</ele>
        <time>2022-07-24T13:15:47Z</time>
      </trkpt>
      <trkpt lat="46.3022190" lon="5.8621630">
        <ele>1152.2</ele>
        <time>2022-07-24T13:15:49Z</time>
      </trkpt>
      <trkpt lat="46.3021370" lon="5.8621130">
        <ele>1153.0</ele>
        <time>2022-07-24T13:15:55Z</time>
      </trkpt>
      <trkpt lat="46.3021110" lon="5.8620910">
        <ele>1153.4</ele>
        <time>2022-07-24T13:15:57Z</time>
      </trkpt>
      <trkpt lat="46.3020620" lon="5.8620390">
        <ele>1154.2</ele>
        <time>2022-07-24T13:16:01Z</time>
      </trkpt>
      <trkpt lat="46.3019800" lon="5.8619320">
        <ele>1155.0</ele>
        <time>2022-07-24T13:16:08Z</time>
      </trkpt>
      <trkpt lat="46.3019690" lon="5.8619140">
        <ele>1155.4</ele>
        <time>2022-07-24T13:16:09Z</time>
      </trkpt>
      <trkpt lat="46.3019070" lon="5.8617790">
        <ele>1156.4</ele>
        <time>2022-07-24T13:16:16Z</time>
      </trkpt>
      <trkpt lat="46.3018990" lon="5.8617610">
        <ele>1156.6</ele>
        <time>2022-07-24T13:16:17Z</time>
      </trkpt>
      <trkpt lat="46.3018260" lon="5.8615910">
        <ele>1157.6</ele>
        <time>2022-07-24T13:16:26Z</time>
      </trkpt>
      <trkpt lat="46.3017730" lon="5.8614710">
        <ele>1158.4</ele>
        <time>2022-07-24T13:16:32Z</time>
      </trkpt>
      <trkpt lat="46.3017590" lon="5.8614290">
        <ele>1158.6</ele>
        <time>2022-07-24T13:16:34Z</time>
      </trkpt>
      <trkpt lat="46.3017070" lon="5.8613040">
        <ele>1159.4</ele>
        <time>2022-07-24T13:16:40Z</time>
      </trkpt>
      <trkpt lat="46.3016910" lon="5.8612600">
        <ele>1159.8</ele>
        <time>2022-07-24T13:16:42Z</time>
      </trkpt>
      <trkpt lat="46.3016130" lon="5.8611430">
        <ele>1161.0</ele>
        <time>2022-07-24T13:16:49Z</time>
      </trkpt>
      <trkpt lat="46.3015250" lon="5.8611070">
        <ele>1162.2</ele>
        <time>2022-07-24T13:16:55Z</time>
      </trkpt>
      <trkpt lat="46.3015110" lon="5.8611060">
        <ele>1162.4</ele>
        <time>2022-07-24T13:16:56Z</time>
      </trkpt>
      <trkpt lat="46.3014240" lon="5.8611170">
        <ele>1163.4</ele>
        <time>2022-07-24T13:17:02Z</time>
      </trkpt>
      <trkpt lat="46.3013980" lon="5.8611380">
        <ele>1163.6</ele>
        <time>2022-07-24T13:17:04Z</time>
      </trkpt>
      <trkpt lat="46.3013150" lon="5.8612180">
        <ele>1164.4</ele>
        <time>2022-07-24T13:17:11Z</time>
      </trkpt>
      <trkpt lat="46.3012430" lon="5.8613110">
        <ele>1165.4</ele>
        <time>2022-07-24T13:17:18Z</time>
      </trkpt>
      <trkpt lat="46.3012350" lon="5.8613240">
        <ele>1165.6</ele>
        <time>2022-07-24T13:17:19Z</time>
      </trkpt>
      <trkpt lat="46.3012000" lon="5.8613890">
        <ele>1166.6</ele>
        <time>2022-07-24T13:17:23Z</time>
      </trkpt>
      <trkpt lat="46.3011750" lon="5.8614330">
        <ele>1167.2</ele>
        <time>2022-07-24T13:17:26Z</time>
      </trkpt>
      <trkpt lat="46.3011420" lon="5.8614780">
        <ele>1167.6</ele>
        <time>2022-07-24T13:17:29Z</time>
      </trkpt>
      <trkpt lat="46.3011130" lon="5.8615500">
        <ele>1168.4</ele>
        <time>2022-07-24T13:17:33Z</time>
      </trkpt>
      <trkpt lat="46.3011070" lon="5.8615680">
        <ele>1168.6</ele>
        <time>2022-07-24T13:17:34Z</time>
      </trkpt>
      <trkpt lat="46.3010650" lon="5.8616460">
        <ele>1169.8</ele>
        <time>2022-07-24T13:17:39Z</time>
      </trkpt>
      <trkpt lat="46.3010580" lon="5.8616630">
        <ele>1169.8</ele>
        <time>2022-07-24T13:17:40Z</time>
      </trkpt>
      <trkpt lat="46.3009920" lon="5.8617710">
        <ele>1170.8</ele>
        <time>2022-07-24T13:17:47Z</time>
      </trkpt>
      <trkpt lat="46.3009800" lon="5.8617850">
        <ele>1170.8</ele>
        <time>2022-07-24T13:17:48Z</time>
      </trkpt>
      <trkpt lat="46.3008860" lon="5.8618700">
        <ele>1172.0</ele>
        <time>2022-07-24T13:17:55Z</time>
      </trkpt>
      <trkpt lat="46.3008480" lon="5.8619110">
        <ele>1172.2</ele>
        <time>2022-07-24T13:17:58Z</time>
      </trkpt>
      <trkpt lat="46.3007590" lon="5.8619880">
        <ele>1173.0</ele>
        <time>2022-07-24T13:18:04Z</time>
      </trkpt>
      <trkpt lat="46.3007150" lon="5.8620330">
        <ele>1173.6</ele>
        <time>2022-07-24T13:18:07Z</time>
      </trkpt>
      <trkpt lat="46.3006560" lon="5.8620970">
        <ele>1174.2</ele>
        <time>2022-07-24T13:18:11Z</time>
      </trkpt>
      <trkpt lat="46.3005920" lon="5.8621620">
        <ele>1174.4</ele>
        <time>2022-07-24T13:18:15Z</time>
      </trkpt>
      <trkpt lat="46.3004380" lon="5.8623020">
        <ele>1175.0</ele>
        <time>2022-07-24T13:18:24Z</time>
      </trkpt>
      <trkpt lat="46.3004030" lon="5.8623250">
        <ele>1175.2</ele>
        <time>2022-07-24T13:18:26Z</time>
      </trkpt>
      <trkpt lat="46.3002670" lon="5.8624460">
        <ele>1176.2</ele>
        <time>2022-07-24T13:18:34Z</time>
      </trkpt>
      <trkpt lat="46.3001020" lon="5.8625870">
        <ele>1177.4</ele>
        <time>2022-07-24T13:18:43Z</time>
      </trkpt>
      <trkpt lat="46.3000830" lon="5.8626020">
        <ele>1177.6</ele>
        <time>2022-07-24T13:18:44Z</time>
      </trkpt>
      <trkpt lat="46.2999070" lon="5.8627430">
        <ele>1178.4</ele>
        <time>2022-07-24T13:18:53Z</time>
      </trkpt>
      <trkpt lat="46.2998270" lon="5.8628060">
        <ele>1178.6</ele>
        <time>2022-07-24T13:18:57Z</time>
      </trkpt>
      <trkpt lat="46.2996690" lon="5.8629440">
        <ele>1179.8</ele>
        <time>2022-07-24T13:19:05Z</time>
      </trkpt>
      <trkpt lat="46.2994360" lon="5.8631480">
        <ele>1181.0</ele>
        <time>2022-07-24T13:19:16Z</time>
      </trkpt>
      <trkpt lat="46.2992180" lon="5.8633340">
        <ele>1182.0</ele>
        <time>2022-07-24T13:19:26Z</time>
      </trkpt>
      <trkpt lat="46.2991980" lon="5.8633550">
        <ele>1182.2</ele>
        <time>2022-07-24T13:19:27Z</time>
      </trkpt>
      <trkpt lat="46.2990740" lon="5.8634720">
        <ele>1183.2</ele>
        <time>2022-07-24T13:19:33Z</time>
      </trkpt>
      <trkpt lat="46.2989620" lon="5.8635780">
        <ele>1184.4</ele>
        <time>2022-07-24T13:19:38Z</time>
      </trkpt>
      <trkpt lat="46.2987680" lon="5.8637230">
        <ele>1185.4</ele>
        <time>2022-07-24T13:19:46Z</time>
      </trkpt>
      <trkpt lat="46.2987440" lon="5.8637370">
        <ele>1185.4</ele>
        <time>2022-07-24T13:19:47Z</time>
      </trkpt>
      <trkpt lat="46.2985550" lon="5.8637710">
        <ele>1186.2</ele>
        <time>2022-07-24T13:19:55Z</time>
      </trkpt>
      <trkpt lat="46.2984830" lon="5.8637610">
        <ele>1186.6</ele>
        <time>2022-07-24T13:19:58Z</time>
      </trkpt>
      <trkpt lat="46.2983500" lon="5.8637180">
        <ele>1187.8</ele>
        <time>2022-07-24T13:20:03Z</time>
      </trkpt>
      <trkpt lat="46.2983220" lon="5.8637070">
        <ele>1187.8</ele>
        <time>2022-07-24T13:20:04Z</time>
      </trkpt>
      <trkpt lat="46.2981740" lon="5.8636540">
        <ele>1188.8</ele>
        <time>2022-07-24T13:20:09Z</time>
      </trkpt>
      <trkpt lat="46.2979700" lon="5.8635760">
        <ele>1189.4</ele>
        <time>2022-07-24T13:20:16Z</time>
      </trkpt>
      <trkpt lat="46.2978610" lon="5.8635170">
        <ele>1189.8</ele>
        <time>2022-07-24T13:20:21Z</time>
      </trkpt>
      <trkpt lat="46.2978190" lon="5.8634890">
        <ele>1190.0</ele>
        <time>2022-07-24T13:20:23Z</time>
      </trkpt>
      <trkpt lat="46.2977050" lon="5.8633640">
        <ele>1190.8</ele>
        <time>2022-07-24T13:20:29Z</time>
      </trkpt>
      <trkpt lat="46.2976870" lon="5.8633450">
        <ele>1191.0</ele>
        <time>2022-07-24T13:20:30Z</time>
      </trkpt>
      <trkpt lat="46.2975980" lon="5.8632330">
        <ele>1192.2</ele>
        <time>2022-07-24T13:20:35Z</time>
      </trkpt>
      <trkpt lat="46.2975770" lon="5.8632080">
        <ele>1192.4</ele>
        <time>2022-07-24T13:20:36Z</time>
      </trkpt>
      <trkpt lat="46.2974170" lon="5.8629840">
        <ele>1193.4</ele>
        <time>2022-07-24T13:20:44Z</time>
      </trkpt>
      <trkpt lat="46.2974010" lon="5.8629610">
        <ele>1193.4</ele>
        <time>2022-07-24T13:20:45Z</time>
      </trkpt>
      <trkpt lat="46.2973300" lon="5.8627540">
        <ele>1194.0</ele>
        <time>2022-07-24T13:20:52Z</time>
      </trkpt>
      <trkpt lat="46.2973410" lon="5.8625980">
        <ele>1194.4</ele>
        <time>2022-07-24T13:20:56Z</time>
      </trkpt>
      <trkpt lat="46.2973490" lon="5.8624640">
        <ele>1194.8</ele>
        <time>2022-07-24T13:20:59Z</time>
      </trkpt>
      <trkpt lat="46.2973570" lon="5.8621140">
        <ele>1195.4</ele>
        <time>2022-07-24T13:21:06Z</time>
      </trkpt>
      <trkpt lat="46.2973540" lon="5.8620150">
        <ele>1195.4</ele>
        <time>2022-07-24T13:21:08Z</time>
      </trkpt>
      <trkpt lat="46.2973080" lon="5.8614880">
        <ele>1195.4</ele>
        <time>2022-07-24T13:21:18Z</time>
      </trkpt>
      <trkpt lat="46.2972940" lon="5.8610610">
        <ele>1195.4</ele>
        <time>2022-07-24T13:21:25Z</time>
      </trkpt>
      <trkpt lat="46.2973150" lon="5.8609020">
        <ele>1195.2</ele>
        <time>2022-07-24T13:21:27Z</time>
      </trkpt>
      <trkpt lat="46.2973560" lon="5.8607250">
        <ele>1195.2</ele>
        <time>2022-07-24T13:21:29Z</time>
      </trkpt>
      <trkpt lat="46.2974390" lon="5.8604390">
        <ele>1194.6</ele>
        <time>2022-07-24T13:21:32Z</time>
      </trkpt>
      <trkpt lat="46.2975440" lon="5.8601360">
        <ele>1193.8</ele>
        <time>2022-07-24T13:21:35Z</time>
      </trkpt>
      <trkpt lat="46.2975850" lon="5.8600350">
        <ele>1193.6</ele>
        <time>2022-07-24T13:21:36Z</time>
      </trkpt>
      <trkpt lat="46.2977490" lon="5.8596070">
        <ele>1192.2</ele>
        <time>2022-07-24T13:21:40Z</time>
      </trkpt>
      <trkpt lat="46.2978210" lon="5.8593720">
        <ele>1191.4</ele>
        <time>2022-07-24T13:21:42Z</time>
      </trkpt>
      <trkpt lat="46.2978580" lon="5.8592510">
        <ele>1191.0</ele>
        <time>2022-07-24T13:21:43Z</time>
      </trkpt>
      <trkpt lat="46.2979680" lon="5.8588770">
        <ele>1189.8</ele>
        <time>2022-07-24T13:21:46Z</time>
      </trkpt>
      <trkpt lat="46.2980800" lon="5.8584950">
        <ele>1188.4</ele>
        <time>2022-07-24T13:21:49Z</time>
      </trkpt>
      <trkpt lat="46.2981500" lon="5.8582520">
        <ele>1187.2</ele>
        <time>2022-07-24T13:21:51Z</time>
      </trkpt>
      <trkpt lat="46.2982370" lon="5.8579090">
        <ele>1185.8</ele>
        <time>2022-07-24T13:21:54Z</time>
      </trkpt>
      <trkpt lat="46.2982870" lon="5.8575940">
        <ele>1184.2</ele>
        <time>2022-07-24T13:21:57Z</time>
      </trkpt>
      <trkpt lat="46.2983060" lon="5.8574120">
        <ele>1182.8</ele>
        <time>2022-07-24T13:21:59Z</time>
      </trkpt>
      <trkpt lat="46.2983110" lon="5.8573310">
        <ele>1181.4</ele>
        <time>2022-07-24T13:22:00Z</time>
      </trkpt>
      <trkpt lat="46.2983150" lon="5.8571960">
        <ele>1180.4</ele>
        <time>2022-07-24T13:22:02Z</time>
      </trkpt>
      <trkpt lat="46.2983080" lon="5.8570850">
        <ele>1179.4</ele>
        <time>2022-07-24T13:22:04Z</time>
      </trkpt>
      <trkpt lat="46.2982880" lon="5.8569960">
        <ele>1178.0</ele>
        <time>2022-07-24T13:22:06Z</time>
      </trkpt>
      <trkpt lat="46.2982720" lon="5.8569640">
        <ele>1177.4</ele>
        <time>2022-07-24T13:22:07Z</time>
      </trkpt>
      <trkpt lat="46.2982570" lon="5.8569440">
        <ele>1177.0</ele>
        <time>2022-07-24T13:22:08Z</time>
      </trkpt>
      <trkpt lat="46.2982430" lon="5.8569420">
        <ele>1176.4</ele>
        <time>2022-07-24T13:22:09Z</time>
      </trkpt>
      <trkpt lat="46.2982300" lon="5.8569440">
        <ele>1175.6</ele>
        <time>2022-07-24T13:22:11Z</time>
      </trkpt>
      <trkpt lat="46.2981580" lon="5.8567140">
        <ele>1173.4</ele>
        <time>2022-07-24T13:27:18Z</time>
      </trkpt>
      <trkpt lat="46.2981400" lon="5.8566500">
        <ele>1173.2</ele>
        <time>2022-07-24T13:27:20Z</time>
      </trkpt>
      <trkpt lat="46.2980310" lon="5.8564940">
        <ele>1173.4</ele>
        <time>2022-07-24T13:27:25Z</time>
      </trkpt>
      <trkpt lat="46.2979430" lon="5.8564000">
        <ele>1173.4</ele>
        <time>2022-07-24T13:27:30Z</time>
      </trkpt>
      <trkpt lat="46.2978830" lon="5.8563510">
        <ele>1173.4</ele>
        <time>2022-07-24T13:27:35Z</time>
      </trkpt>
      <trkpt lat="46.2978670" lon="5.8563980">
        <ele>1173.4</ele>
        <time>2022-07-24T13:27:39Z</time>
      </trkpt>
      <trkpt lat="46.2978860" lon="5.8565130">
        <ele>1173.4</ele>
        <time>2022-07-24T13:27:43Z</time>
      </trkpt>
      <trkpt lat="46.2978860" lon="5.8565520">
        <ele>1173.4</ele>
        <time>2022-07-24T13:27:44Z</time>
      </trkpt>
      <trkpt lat="46.2978330" lon="5.8567370">
        <ele>1173.4</ele>
        <time>2022-07-24T13:27:49Z</time>
      </trkpt>
      <trkpt lat="46.2977970" lon="5.8568210">
        <ele>1173.0</ele>
        <time>2022-07-24T13:27:52Z</time>
      </trkpt>
      <trkpt lat="46.2978050" lon="5.8568490">
        <ele>1173.0</ele>
        <time>2022-07-24T13:27:54Z</time>
      </trkpt>
      <trkpt lat="46.2978040" lon="5.8568500">
        <ele>1173.0</ele>
        <time>2022-07-24T13:27:56Z</time>
      </trkpt>
      <trkpt lat="46.2978430" lon="5.8567160">
        <ele>1174.2</ele>
        <time>2022-07-24T13:58:28Z</time>
      </trkpt>
      <trkpt lat="46.2978550" lon="5.8567010">
        <ele>1174.2</ele>
        <time>2022-07-24T13:58:29Z</time>
      </trkpt>
      <trkpt lat="46.2979120" lon="5.8565820">
        <ele>1174.2</ele>
        <time>2022-07-24T13:58:36Z</time>
      </trkpt>
      <trkpt lat="46.2979330" lon="5.8565390">
        <ele>1174.2</ele>
        <time>2022-07-24T13:58:39Z</time>
      </trkpt>
      <trkpt lat="46.2979360" lon="5.8564730">
        <ele>1174.4</ele>
        <time>2022-07-24T13:58:42Z</time>
      </trkpt>
      <trkpt lat="46.2978830" lon="5.8563830">
        <ele>1174.6</ele>
        <time>2022-07-24T13:58:47Z</time>
      </trkpt>
      <trkpt lat="46.2977590" lon="5.8563070">
        <ele>1175.2</ele>
        <time>2022-07-24T13:58:54Z</time>
      </trkpt>
      <trkpt lat="46.2977200" lon="5.8562840">
        <ele>1175.2</ele>
        <time>2022-07-24T13:58:56Z</time>
      </trkpt>
      <trkpt lat="46.2976600" lon="5.8562500">
        <ele>1175.6</ele>
        <time>2022-07-24T13:58:59Z</time>
      </trkpt>
      <trkpt lat="46.2975580" lon="5.8561900">
        <ele>1176.0</ele>
        <time>2022-07-24T13:59:04Z</time>
      </trkpt>
      <trkpt lat="46.2973600" lon="5.8560750">
        <ele>1176.4</ele>
        <time>2022-07-24T13:59:13Z</time>
      </trkpt>
      <trkpt lat="46.2973380" lon="5.8560640">
        <ele>1176.6</ele>
        <time>2022-07-24T13:59:14Z</time>
      </trkpt>
      <trkpt lat="46.2971200" lon="5.8559580">
        <ele>1177.6</ele>
        <time>2022-07-24T13:59:24Z</time>
      </trkpt>
      <trkpt lat="46.2970990" lon="5.8559500">
        <ele>1177.8</ele>
        <time>2022-07-24T13:59:25Z</time>
      </trkpt>
      <trkpt lat="46.2968180" lon="5.8558170">
        <ele>1178.6</ele>
        <time>2022-07-24T13:59:38Z</time>
      </trkpt>
      <trkpt lat="46.2967960" lon="5.8558070">
        <ele>1178.6</ele>
        <time>2022-07-24T13:59:39Z</time>
      </trkpt>
      <trkpt lat="46.2966350" lon="5.8557570">
        <ele>1179.4</ele>
        <time>2022-07-24T13:59:46Z</time>
      </trkpt>
      <trkpt lat="46.2965610" lon="5.8557310">
        <ele>1179.8</ele>
        <time>2022-07-24T13:59:49Z</time>
      </trkpt>
      <trkpt lat="46.2964070" lon="5.8556900">
        <ele>1180.4</ele>
        <time>2022-07-24T13:59:55Z</time>
      </trkpt>
      <trkpt lat="46.2962280" lon="5.8556520">
        <ele>1180.8</ele>
        <time>2022-07-24T14:00:02Z</time>
      </trkpt>
      <trkpt lat="46.2961500" lon="5.8556330">
        <ele>1181.0</ele>
        <time>2022-07-24T14:00:05Z</time>
      </trkpt>
      <trkpt lat="46.2959180" lon="5.8555590">
        <ele>1181.6</ele>
        <time>2022-07-24T14:00:14Z</time>
      </trkpt>
      <trkpt lat="46.2958440" lon="5.8555220">
        <ele>1181.8</ele>
        <time>2022-07-24T14:00:17Z</time>
      </trkpt>
      <trkpt lat="46.2957050" lon="5.8554280">
        <ele>1182.8</ele>
        <time>2022-07-24T14:00:23Z</time>
      </trkpt>
      <trkpt lat="46.2955970" lon="5.8553320">
        <ele>1183.2</ele>
        <time>2022-07-24T14:00:28Z</time>
      </trkpt>
      <trkpt lat="46.2955110" lon="5.8552410">
        <ele>1183.6</ele>
        <time>2022-07-24T14:00:32Z</time>
      </trkpt>
      <trkpt lat="46.2954410" lon="5.8551730">
        <ele>1184.0</ele>
        <time>2022-07-24T14:00:35Z</time>
      </trkpt>
      <trkpt lat="46.2953090" lon="5.8550420">
        <ele>1184.0</ele>
        <time>2022-07-24T14:00:40Z</time>
      </trkpt>
      <trkpt lat="46.2950260" lon="5.8547530">
        <ele>1184.0</ele>
        <time>2022-07-24T14:00:49Z</time>
      </trkpt>
      <trkpt lat="46.2946420" lon="5.8543850">
        <ele>1183.8</ele>
        <time>2022-07-24T14:00:59Z</time>
      </trkpt>
      <trkpt lat="46.2941630" lon="5.8539520">
        <ele>1183.0</ele>
        <time>2022-07-24T14:01:11Z</time>
      </trkpt>
      <trkpt lat="46.2940710" lon="5.8538940">
        <ele>1183.0</ele>
        <time>2022-07-24T14:01:13Z</time>
      </trkpt>
      <trkpt lat="46.2938820" lon="5.8538000">
        <ele>1182.8</ele>
        <time>2022-07-24T14:01:17Z</time>
      </trkpt>
      <trkpt lat="46.2934850" lon="5.8536290">
        <ele>1182.4</ele>
        <time>2022-07-24T14:01:25Z</time>
      </trkpt>
      <trkpt lat="46.2931490" lon="5.8534230">
        <ele>1182.2</ele>
        <time>2022-07-24T14:01:32Z</time>
      </trkpt>
      <trkpt lat="46.2930110" lon="5.8533060">
        <ele>1182.0</ele>
        <time>2022-07-24T14:01:35Z</time>
      </trkpt>
      <trkpt lat="46.2928800" lon="5.8531770">
        <ele>1181.8</ele>
        <time>2022-07-24T14:01:38Z</time>
      </trkpt>
      <trkpt lat="46.2928000" lon="5.8530900">
        <ele>1181.6</ele>
        <time>2022-07-24T14:01:40Z</time>
      </trkpt>
      <trkpt lat="46.2927120" lon="5.8529740">
        <ele>1181.2</ele>
        <time>2022-07-24T14:01:44Z</time>
      </trkpt>
      <trkpt lat="46.2926640" lon="5.8529320">
        <ele>1180.8</ele>
        <time>2022-07-24T14:01:47Z</time>
      </trkpt>
      <trkpt lat="46.2926500" lon="5.8529380">
        <ele>1180.8</ele>
        <time>2022-07-24T14:01:48Z</time>
      </trkpt>
      <trkpt lat="46.2926450" lon="5.8529610">
        <ele>1180.6</ele>
        <time>2022-07-24T14:01:49Z</time>
      </trkpt>
      <trkpt lat="46.2927070" lon="5.8530560">
        <ele>1180.4</ele>
        <time>2022-07-24T14:01:53Z</time>
      </trkpt>
      <trkpt lat="46.2929040" lon="5.8532570">
        <ele>1180.4</ele>
        <time>2022-07-24T14:02:01Z</time>
      </trkpt>
      <trkpt lat="46.2929720" lon="5.8533650">
        <ele>1180.6</ele>
        <time>2022-07-24T14:02:05Z</time>
      </trkpt>
      <trkpt lat="46.2929630" lon="5.8533960">
        <ele>1180.8</ele>
        <time>2022-07-24T14:02:06Z</time>
      </trkpt>
      <trkpt lat="46.2929230" lon="5.8534080">
        <ele>1180.8</ele>
        <time>2022-07-24T14:02:09Z</time>
      </trkpt>
      <trkpt lat="46.2929220" lon="5.8533950">
        <ele>1180.8</ele>
        <time>2022-07-24T14:02:12Z</time>
      </trkpt>
      <trkpt lat="46.2929240" lon="5.8534020">
        <ele>1180.0</ele>
        <time>2022-07-24T14:02:39Z</time>
      </trkpt>
      <trkpt lat="46.2928210" lon="5.8533060">
        <ele>1180.2</ele>
        <time>2022-07-24T14:02:46Z</time>
      </trkpt>
      <trkpt lat="46.2926390" lon="5.8531370">
        <ele>1180.4</ele>
        <time>2022-07-24T14:02:55Z</time>
      </trkpt>
      <trkpt lat="46.2924510" lon="5.8529550">
        <ele>1180.8</ele>
        <time>2022-07-24T14:03:05Z</time>
      </trkpt>
      <trkpt lat="46.2923220" lon="5.8528390">
        <ele>1181.6</ele>
        <time>2022-07-24T14:03:11Z</time>
      </trkpt>
      <trkpt lat="46.2922450" lon="5.8527690">
        <ele>1182.0</ele>
        <time>2022-07-24T14:03:14Z</time>
      </trkpt>
      <trkpt lat="46.2919810" lon="5.8525400">
        <ele>1181.8</ele>
        <time>2022-07-24T14:03:23Z</time>
      </trkpt>
      <trkpt lat="46.2917060" lon="5.8523770">
        <ele>1181.6</ele>
        <time>2022-07-24T14:03:29Z</time>
      </trkpt>
      <trkpt lat="46.2915050" lon="5.8522450">
        <ele>1181.2</ele>
        <time>2022-07-24T14:03:35Z</time>
      </trkpt>
      <trkpt lat="46.2913470" lon="5.8521520">
        <ele>1181.4</ele>
        <time>2022-07-24T14:03:42Z</time>
      </trkpt>
      <trkpt lat="46.2912240" lon="5.8520900">
        <ele>1182.0</ele>
        <time>2022-07-24T14:03:47Z</time>
      </trkpt>
      <trkpt lat="46.2911300" lon="5.8520520">
        <ele>1182.6</ele>
        <time>2022-07-24T14:03:50Z</time>
      </trkpt>
      <trkpt lat="46.2910990" lon="5.8520400">
        <ele>1182.6</ele>
        <time>2022-07-24T14:03:51Z</time>
      </trkpt>
      <trkpt lat="46.2909370" lon="5.8519890">
        <ele>1183.0</ele>
        <time>2022-07-24T14:03:57Z</time>
      </trkpt>
      <trkpt lat="46.2907440" lon="5.8519410">
        <ele>1183.2</ele>
        <time>2022-07-24T14:04:03Z</time>
      </trkpt>
      <trkpt lat="46.2904760" lon="5.8519010">
        <ele>1183.2</ele>
        <time>2022-07-24T14:04:10Z</time>
      </trkpt>
      <trkpt lat="46.2902300" lon="5.8518720">
        <ele>1182.8</ele>
        <time>2022-07-24T14:04:17Z</time>
      </trkpt>
      <trkpt lat="46.2899360" lon="5.8518470">
        <ele>1182.8</ele>
        <time>2022-07-24T14:04:26Z</time>
      </trkpt>
      <trkpt lat="46.2896830" lon="5.8517900">
        <ele>1182.8</ele>
        <time>2022-07-24T14:04:34Z</time>
      </trkpt>
      <trkpt lat="46.2896140" lon="5.8517690">
        <ele>1182.8</ele>
        <time>2022-07-24T14:04:38Z</time>
      </trkpt>
      <trkpt lat="46.2896140" lon="5.8517700">
        <ele>1182.8</ele>
        <time>2022-07-24T14:04:39Z</time>
      </trkpt>
      <trkpt lat="46.2895330" lon="5.8517490">
        <ele>1183.2</ele>
        <time>2022-07-24T14:04:48Z</time>
      </trkpt>
      <trkpt lat="46.2894770" lon="5.8517400">
        <ele>1183.2</ele>
        <time>2022-07-24T14:04:50Z</time>
      </trkpt>
      <trkpt lat="46.2892570" lon="5.8516940">
        <ele>1183.4</ele>
        <time>2022-07-24T14:04:58Z</time>
      </trkpt>
      <trkpt lat="46.2890760" lon="5.8516560">
        <ele>1183.6</ele>
        <time>2022-07-24T14:05:05Z</time>
      </trkpt>
      <trkpt lat="46.2889760" lon="5.8516270">
        <ele>1183.8</ele>
        <time>2022-07-24T14:05:09Z</time>
      </trkpt>
      <trkpt lat="46.2888720" lon="5.8515980">
        <ele>1184.2</ele>
        <time>2022-07-24T14:05:13Z</time>
      </trkpt>
      <trkpt lat="46.2887070" lon="5.8515300">
        <ele>1184.2</ele>
        <time>2022-07-24T14:05:20Z</time>
      </trkpt>
      <trkpt lat="46.2885330" lon="5.8514280">
        <ele>1184.4</ele>
        <time>2022-07-24T14:05:27Z</time>
      </trkpt>
      <trkpt lat="46.2883170" lon="5.8512760">
        <ele>1184.6</ele>
        <time>2022-07-24T14:05:36Z</time>
      </trkpt>
      <trkpt lat="46.2881850" lon="5.8510940">
        <ele>1184.6</ele>
        <time>2022-07-24T14:05:42Z</time>
      </trkpt>
      <trkpt lat="46.2881560" lon="5.8509440">
        <ele>1184.6</ele>
        <time>2022-07-24T14:05:46Z</time>
      </trkpt>
      <trkpt lat="46.2881140" lon="5.8507560">
        <ele>1184.2</ele>
        <time>2022-07-24T14:05:51Z</time>
      </trkpt>
      <trkpt lat="46.2880560" lon="5.8505620">
        <ele>1184.0</ele>
        <time>2022-07-24T14:05:56Z</time>
      </trkpt>
      <trkpt lat="46.2878890" lon="5.8502540">
        <ele>1184.2</ele>
        <time>2022-07-24T14:06:05Z</time>
      </trkpt>
      <trkpt lat="46.2877160" lon="5.8500260">
        <ele>1184.4</ele>
        <time>2022-07-24T14:06:11Z</time>
      </trkpt>
      <trkpt lat="46.2874600" lon="5.8497390">
        <ele>1184.4</ele>
        <time>2022-07-24T14:06:17Z</time>
      </trkpt>
      <trkpt lat="46.2870240" lon="5.8493110">
        <ele>1183.6</ele>
        <time>2022-07-24T14:06:25Z</time>
      </trkpt>
      <trkpt lat="46.2867140" lon="5.8490180">
        <ele>1182.8</ele>
        <time>2022-07-24T14:06:30Z</time>
      </trkpt>
      <trkpt lat="46.2865890" lon="5.8488750">
        <ele>1182.4</ele>
        <time>2022-07-24T14:06:32Z</time>
      </trkpt>
      <trkpt lat="46.2862650" lon="5.8485030">
        <ele>1181.6</ele>
        <time>2022-07-24T14:06:37Z</time>
      </trkpt>
      <trkpt lat="46.2861230" lon="5.8483650">
        <ele>1180.8</ele>
        <time>2022-07-24T14:06:39Z</time>
      </trkpt>
      <trkpt lat="46.2859880" lon="5.8482440">
        <ele>1180.4</ele>
        <time>2022-07-24T14:06:41Z</time>
      </trkpt>
      <trkpt lat="46.2858210" lon="5.8481020">
        <ele>1179.4</ele>
        <time>2022-07-24T14:06:44Z</time>
      </trkpt>
      <trkpt lat="46.2857070" lon="5.8480740">
        <ele>1178.4</ele>
        <time>2022-07-24T14:06:47Z</time>
      </trkpt>
      <trkpt lat="46.2856760" lon="5.8481000">
        <ele>1178.2</ele>
        <time>2022-07-24T14:06:48Z</time>
      </trkpt>
      <trkpt lat="46.2856410" lon="5.8481770">
        <ele>1177.4</ele>
        <time>2022-07-24T14:06:50Z</time>
      </trkpt>
      <trkpt lat="46.2856280" lon="5.8482190">
        <ele>1176.8</ele>
        <time>2022-07-24T14:06:51Z</time>
      </trkpt>
      <trkpt lat="46.2856060" lon="5.8483720">
        <ele>1175.6</ele>
        <time>2022-07-24T14:06:54Z</time>
      </trkpt>
      <trkpt lat="46.2856000" lon="5.8484240">
        <ele>1175.4</ele>
        <time>2022-07-24T14:06:55Z</time>
      </trkpt>
      <trkpt lat="46.2855530" lon="5.8487610">
        <ele>1175.2</ele>
        <time>2022-07-24T14:07:03Z</time>
      </trkpt>
      <trkpt lat="46.2854930" lon="5.8489790">
        <ele>1176.0</ele>
        <time>2022-07-24T14:07:11Z</time>
      </trkpt>
      <trkpt lat="46.2854650" lon="5.8490930">
        <ele>1176.8</ele>
        <time>2022-07-24T14:07:16Z</time>
      </trkpt>
      <trkpt lat="46.2854470" lon="5.8491570">
        <ele>1177.2</ele>
        <time>2022-07-24T14:07:19Z</time>
      </trkpt>
      <trkpt lat="46.2854220" lon="5.8492550">
        <ele>1177.8</ele>
        <time>2022-07-24T14:07:24Z</time>
      </trkpt>
      <trkpt lat="46.2854090" lon="5.8492890">
        <ele>1178.0</ele>
        <time>2022-07-24T14:07:26Z</time>
      </trkpt>
      <trkpt lat="46.2853690" lon="5.8493940">
        <ele>1178.8</ele>
        <time>2022-07-24T14:07:32Z</time>
      </trkpt>
      <trkpt lat="46.2853570" lon="5.8494290">
        <ele>1179.0</ele>
        <time>2022-07-24T14:07:34Z</time>
      </trkpt>
      <trkpt lat="46.2852970" lon="5.8495640">
        <ele>1180.0</ele>
        <time>2022-07-24T14:07:42Z</time>
      </trkpt>
      <trkpt lat="46.2852880" lon="5.8495810">
        <ele>1180.0</ele>
        <time>2022-07-24T14:07:43Z</time>
      </trkpt>
      <trkpt lat="46.2852260" lon="5.8497470">
        <ele>1181.0</ele>
        <time>2022-07-24T14:07:52Z</time>
      </trkpt>
      <trkpt lat="46.2852180" lon="5.8497640">
        <ele>1181.2</ele>
        <time>2022-07-24T14:07:53Z</time>
      </trkpt>
      <trkpt lat="46.2851480" lon="5.8498910">
        <ele>1182.2</ele>
        <time>2022-07-24T14:08:01Z</time>
      </trkpt>
      <trkpt lat="46.2851310" lon="5.8499220">
        <ele>1182.4</ele>
        <time>2022-07-24T14:08:03Z</time>
      </trkpt>
      <trkpt lat="46.2850950" lon="5.8500050">
        <ele>1183.4</ele>
        <time>2022-07-24T14:08:08Z</time>
      </trkpt>
      <trkpt lat="46.2850670" lon="5.8500750">
        <ele>1183.8</ele>
        <time>2022-07-24T14:08:12Z</time>
      </trkpt>
      <trkpt lat="46.2850400" lon="5.8501440">
        <ele>1184.6</ele>
        <time>2022-07-24T14:08:16Z</time>
      </trkpt>
      <trkpt lat="46.2849950" lon="5.8502280">
        <ele>1185.2</ele>
        <time>2022-07-24T14:08:21Z</time>
      </trkpt>
      <trkpt lat="46.2849540" lon="5.8503420">
        <ele>1185.6</ele>
        <time>2022-07-24T14:08:27Z</time>
      </trkpt>
      <trkpt lat="46.2849460" lon="5.8503600">
        <ele>1185.8</ele>
        <time>2022-07-24T14:08:28Z</time>
      </trkpt>
      <trkpt lat="46.2848760" lon="5.8505030">
        <ele>1186.6</ele>
        <time>2022-07-24T14:08:36Z</time>
      </trkpt>
      <trkpt lat="46.2848570" lon="5.8505450">
        <ele>1187.0</ele>
        <time>2022-07-24T14:08:38Z</time>
      </trkpt>
      <trkpt lat="46.2848150" lon="5.8506540">
        <ele>1187.8</ele>
        <time>2022-07-24T14:08:43Z</time>
      </trkpt>
      <trkpt lat="46.2847910" lon="5.8507230">
        <ele>1188.2</ele>
        <time>2022-07-24T14:08:46Z</time>
      </trkpt>
      <trkpt lat="46.2847480" lon="5.8508340">
        <ele>1188.8</ele>
        <time>2022-07-24T14:08:51Z</time>
      </trkpt>
      <trkpt lat="46.2847120" lon="5.8509220">
        <ele>1189.2</ele>
        <time>2022-07-24T14:08:55Z</time>
      </trkpt>
      <trkpt lat="46.2846260" lon="5.8511120">
        <ele>1190.0</ele>
        <time>2022-07-24T14:09:04Z</time>
      </trkpt>
      <trkpt lat="46.2846050" lon="5.8511540">
        <ele>1190.2</ele>
        <time>2022-07-24T14:09:06Z</time>
      </trkpt>
      <trkpt lat="46.2845550" lon="5.8512630">
        <ele>1191.0</ele>
        <time>2022-07-24T14:09:11Z</time>
      </trkpt>
      <trkpt lat="46.2844980" lon="5.8513730">
        <ele>1191.8</ele>
        <time>2022-07-24T14:09:16Z</time>
      </trkpt>
      <trkpt lat="46.2844730" lon="5.8514130">
        <ele>1192.0</ele>
        <time>2022-07-24T14:09:18Z</time>
      </trkpt>
      <trkpt lat="46.2843900" lon="5.8515820">
        <ele>1193.0</ele>
        <time>2022-07-24T14:09:26Z</time>
      </trkpt>
      <trkpt lat="46.2843810" lon="5.8516020">
        <ele>1193.2</ele>
        <time>2022-07-24T14:09:27Z</time>
      </trkpt>
      <trkpt lat="46.2843090" lon="5.8517270">
        <ele>1194.2</ele>
        <time>2022-07-24T14:09:34Z</time>
      </trkpt>
      <trkpt lat="46.2842990" lon="5.8517460">
        <ele>1194.4</ele>
        <time>2022-07-24T14:09:35Z</time>
      </trkpt>
      <trkpt lat="46.2842080" lon="5.8519220">
        <ele>1195.4</ele>
        <time>2022-07-24T14:09:44Z</time>
      </trkpt>
      <trkpt lat="46.2841970" lon="5.8519420">
        <ele>1195.4</ele>
        <time>2022-07-24T14:09:45Z</time>
      </trkpt>
      <trkpt lat="46.2841230" lon="5.8520690">
        <ele>1196.4</ele>
        <time>2022-07-24T14:09:52Z</time>
      </trkpt>
      <trkpt lat="46.2841050" lon="5.8521010">
        <ele>1196.6</ele>
        <time>2022-07-24T14:09:54Z</time>
      </trkpt>
      <trkpt lat="46.2840440" lon="5.8522230">
        <ele>1197.4</ele>
        <time>2022-07-24T14:10:01Z</time>
      </trkpt>
      <trkpt lat="46.2840290" lon="5.8522860">
        <ele>1198.2</ele>
        <time>2022-07-24T14:10:04Z</time>
      </trkpt>
      <trkpt lat="46.2840180" lon="5.8523250">
        <ele>1198.6</ele>
        <time>2022-07-24T14:10:06Z</time>
      </trkpt>
      <trkpt lat="46.2839780" lon="5.8524720">
        <ele>1200.0</ele>
        <time>2022-07-24T14:10:14Z</time>
      </trkpt>
      <trkpt lat="46.2839540" lon="5.8526530">
        <ele>1201.0</ele>
        <time>2022-07-24T14:10:23Z</time>
      </trkpt>
      <trkpt lat="46.2839470" lon="5.8526930">
        <ele>1201.4</ele>
        <time>2022-07-24T14:10:25Z</time>
      </trkpt>
      <trkpt lat="46.2839390" lon="5.8528090">
        <ele>1202.0</ele>
        <time>2022-07-24T14:10:31Z</time>
      </trkpt>
      <trkpt lat="46.2839280" lon="5.8528880">
        <ele>1202.8</ele>
        <time>2022-07-24T14:10:35Z</time>
      </trkpt>
      <trkpt lat="46.2839230" lon="5.8529270">
        <ele>1203.2</ele>
        <time>2022-07-24T14:10:37Z</time>
      </trkpt>
      <trkpt lat="46.2839080" lon="5.8530430">
        <ele>1204.0</ele>
        <time>2022-07-24T14:10:43Z</time>
      </trkpt>
      <trkpt lat="46.2839040" lon="5.8530640">
        <ele>1204.2</ele>
        <time>2022-07-24T14:10:44Z</time>
      </trkpt>
      <trkpt lat="46.2839020" lon="5.8530830">
        <ele>1204.4</ele>
        <time>2022-07-24T14:10:45Z</time>
      </trkpt>
      <trkpt lat="46.2838650" lon="5.8532350">
        <ele>1205.0</ele>
        <time>2022-07-24T14:10:53Z</time>
      </trkpt>
      <trkpt lat="46.2838610" lon="5.8532530">
        <ele>1205.2</ele>
        <time>2022-07-24T14:10:54Z</time>
      </trkpt>
      <trkpt lat="46.2838300" lon="5.8533360">
        <ele>1206.0</ele>
        <time>2022-07-24T14:10:59Z</time>
      </trkpt>
      <trkpt lat="46.2838260" lon="5.8533540">
        <ele>1206.2</ele>
        <time>2022-07-24T14:11:00Z</time>
      </trkpt>
      <trkpt lat="46.2838150" lon="5.8533850">
        <ele>1206.8</ele>
        <time>2022-07-24T14:11:02Z</time>
      </trkpt>
      <trkpt lat="46.2838050" lon="5.8534190">
        <ele>1207.2</ele>
        <time>2022-07-24T14:11:04Z</time>
      </trkpt>
      <trkpt lat="46.2837970" lon="5.8534330">
        <ele>1207.4</ele>
        <time>2022-07-24T14:11:05Z</time>
      </trkpt>
      <trkpt lat="46.2837660" lon="5.8534900">
        <ele>1208.0</ele>
        <time>2022-07-24T14:11:09Z</time>
      </trkpt>
      <trkpt lat="46.2837560" lon="5.8535200">
        <ele>1208.4</ele>
        <time>2022-07-24T14:11:11Z</time>
      </trkpt>
      <trkpt lat="46.2837160" lon="5.8536710">
        <ele>1209.4</ele>
        <time>2022-07-24T14:11:19Z</time>
      </trkpt>
      <trkpt lat="46.2836930" lon="5.8538290">
        <ele>1210.6</ele>
        <time>2022-07-24T14:11:27Z</time>
      </trkpt>
      <trkpt lat="46.2836890" lon="5.8538890">
        <ele>1211.2</ele>
        <time>2022-07-24T14:11:30Z</time>
      </trkpt>
      <trkpt lat="46.2836850" lon="5.8539470">
        <ele>1211.8</ele>
        <time>2022-07-24T14:11:33Z</time>
      </trkpt>
      <trkpt lat="46.2836890" lon="5.8540540">
        <ele>1213.0</ele>
        <time>2022-07-24T14:11:38Z</time>
      </trkpt>
      <trkpt lat="46.2837080" lon="5.8542010">
        <ele>1214.2</ele>
        <time>2022-07-24T14:11:45Z</time>
      </trkpt>
      <trkpt lat="46.2837450" lon="5.8543800">
        <ele>1215.2</ele>
        <time>2022-07-24T14:11:53Z</time>
      </trkpt>
      <trkpt lat="46.2837600" lon="5.8544570">
        <ele>1215.6</ele>
        <time>2022-07-24T14:11:56Z</time>
      </trkpt>
      <trkpt lat="46.2837800" lon="5.8545920">
        <ele>1216.2</ele>
        <time>2022-07-24T14:12:01Z</time>
      </trkpt>
      <trkpt lat="46.2837820" lon="5.8546730">
        <ele>1216.6</ele>
        <time>2022-07-24T14:12:04Z</time>
      </trkpt>
      <trkpt lat="46.2837470" lon="5.8548630">
        <ele>1217.6</ele>
        <time>2022-07-24T14:12:11Z</time>
      </trkpt>
      <trkpt lat="46.2837300" lon="5.8549140">
        <ele>1217.8</ele>
        <time>2022-07-24T14:12:13Z</time>
      </trkpt>
      <trkpt lat="46.2836300" lon="5.8551380">
        <ele>1218.8</ele>
        <time>2022-07-24T14:12:22Z</time>
      </trkpt>
      <trkpt lat="46.2836080" lon="5.8551820">
        <ele>1219.0</ele>
        <time>2022-07-24T14:12:24Z</time>
      </trkpt>
      <trkpt lat="46.2835540" lon="5.8552960">
        <ele>1220.0</ele>
        <time>2022-07-24T14:12:29Z</time>
      </trkpt>
      <trkpt lat="46.2835210" lon="5.8553740">
        <ele>1220.4</ele>
        <time>2022-07-24T14:12:32Z</time>
      </trkpt>
      <trkpt lat="46.2834560" lon="5.8555260">
        <ele>1221.0</ele>
        <time>2022-07-24T14:12:38Z</time>
      </trkpt>
      <trkpt lat="46.2834370" lon="5.8555760">
        <ele>1221.2</ele>
        <time>2022-07-24T14:12:40Z</time>
      </trkpt>
      <trkpt lat="46.2833920" lon="5.8558020">
        <ele>1222.0</ele>
        <time>2022-07-24T14:12:47Z</time>
      </trkpt>
      <trkpt lat="46.2833890" lon="5.8558700">
        <ele>1222.0</ele>
        <time>2022-07-24T14:12:49Z</time>
      </trkpt>
      <trkpt lat="46.2833990" lon="5.8560000">
        <ele>1222.8</ele>
        <time>2022-07-24T14:12:53Z</time>
      </trkpt>
      <trkpt lat="46.2834040" lon="5.8560600">
        <ele>1222.8</ele>
        <time>2022-07-24T14:12:55Z</time>
      </trkpt>
      <trkpt lat="46.2834120" lon="5.8561380">
        <ele>1223.4</ele>
        <time>2022-07-24T14:12:58Z</time>
      </trkpt>
      <trkpt lat="46.2834200" lon="5.8561940">
        <ele>1223.8</ele>
        <time>2022-07-24T14:13:00Z</time>
      </trkpt>
      <trkpt lat="46.2834340" lon="5.8563040">
        <ele>1224.2</ele>
        <time>2022-07-24T14:13:04Z</time>
      </trkpt>
      <trkpt lat="46.2834480" lon="5.8564390">
        <ele>1224.8</ele>
        <time>2022-07-24T14:13:09Z</time>
      </trkpt>
      <trkpt lat="46.2834520" lon="5.8565210">
        <ele>1225.4</ele>
        <time>2022-07-24T14:13:12Z</time>
      </trkpt>
      <trkpt lat="46.2834430" lon="5.8566590">
        <ele>1226.0</ele>
        <time>2022-07-24T14:13:17Z</time>
      </trkpt>
      <trkpt lat="46.2834330" lon="5.8567130">
        <ele>1226.6</ele>
        <time>2022-07-24T14:13:19Z</time>
      </trkpt>
      <trkpt lat="46.2833780" lon="5.8568620">
        <ele>1227.2</ele>
        <time>2022-07-24T14:13:25Z</time>
      </trkpt>
      <trkpt lat="46.2833500" lon="5.8568990">
        <ele>1227.4</ele>
        <time>2022-07-24T14:13:27Z</time>
      </trkpt>
      <trkpt lat="46.2832980" lon="5.8569490">
        <ele>1227.8</ele>
        <time>2022-07-24T14:13:31Z</time>
      </trkpt>
      <trkpt lat="46.2832110" lon="5.8570020">
        <ele>1228.6</ele>
        <time>2022-07-24T14:13:37Z</time>
      </trkpt>
      <trkpt lat="46.2831810" lon="5.8570180">
        <ele>1229.0</ele>
        <time>2022-07-24T14:13:39Z</time>
      </trkpt>
      <trkpt lat="46.2831340" lon="5.8570320">
        <ele>1229.8</ele>
        <time>2022-07-24T14:13:42Z</time>
      </trkpt>
      <trkpt lat="46.2830340" lon="5.8570650">
        <ele>1230.8</ele>
        <time>2022-07-24T14:13:48Z</time>
      </trkpt>
      <trkpt lat="46.2829130" lon="5.8571240">
        <ele>1231.8</ele>
        <time>2022-07-24T14:13:56Z</time>
      </trkpt>
      <trkpt lat="46.2828230" lon="5.8571530">
        <ele>1232.6</ele>
        <time>2022-07-24T14:14:02Z</time>
      </trkpt>
      <trkpt lat="46.2828070" lon="5.8571540">
        <ele>1232.8</ele>
        <time>2022-07-24T14:14:03Z</time>
      </trkpt>
      <trkpt lat="46.2827070" lon="5.8571370">
        <ele>1233.8</ele>
        <time>2022-07-24T14:14:09Z</time>
      </trkpt>
      <trkpt lat="46.2826210" lon="5.8571150">
        <ele>1234.8</ele>
        <time>2022-07-24T14:14:14Z</time>
      </trkpt>
      <trkpt lat="46.2825730" lon="5.8570960">
        <ele>1235.4</ele>
        <time>2022-07-24T14:14:17Z</time>
      </trkpt>
      <trkpt lat="46.2825090" lon="5.8570750">
        <ele>1235.8</ele>
        <time>2022-07-24T14:14:21Z</time>
      </trkpt>
      <trkpt lat="46.2824310" lon="5.8570590">
        <ele>1236.8</ele>
        <time>2022-07-24T14:14:26Z</time>
      </trkpt>
      <trkpt lat="46.2823390" lon="5.8570340">
        <ele>1238.0</ele>
        <time>2022-07-24T14:14:31Z</time>
      </trkpt>
      <trkpt lat="46.2822970" lon="5.8570250">
        <ele>1238.4</ele>
        <time>2022-07-24T14:14:33Z</time>
      </trkpt>
      <trkpt lat="46.2821910" lon="5.8570030">
        <ele>1239.2</ele>
        <time>2022-07-24T14:14:39Z</time>
      </trkpt>
      <trkpt lat="46.2821540" lon="5.8569920">
        <ele>1239.4</ele>
        <time>2022-07-24T14:14:41Z</time>
      </trkpt>
      <trkpt lat="46.2820970" lon="5.8569810">
        <ele>1239.8</ele>
        <time>2022-07-24T14:14:44Z</time>
      </trkpt>
      <trkpt lat="46.2820380" lon="5.8569570">
        <ele>1240.4</ele>
        <time>2022-07-24T14:14:47Z</time>
      </trkpt>
      <trkpt lat="46.2820180" lon="5.8569450">
        <ele>1240.6</ele>
        <time>2022-07-24T14:14:48Z</time>
      </trkpt>
      <trkpt lat="46.2818300" lon="5.8568100">
        <ele>1241.2</ele>
        <time>2022-07-24T14:14:55Z</time>
      </trkpt>
      <trkpt lat="46.2816160" lon="5.8566090">
        <ele>1241.2</ele>
        <time>2022-07-24T14:15:01Z</time>
      </trkpt>
      <trkpt lat="46.2813460" lon="5.8564100">
        <ele>1241.0</ele>
        <time>2022-07-24T14:15:06Z</time>
      </trkpt>
      <trkpt lat="46.2810330" lon="5.8562810">
        <ele>1240.0</ele>
        <time>2022-07-24T14:15:11Z</time>
      </trkpt>
      <trkpt lat="46.2809730" lon="5.8562750">
        <ele>1239.6</ele>
        <time>2022-07-24T14:15:12Z</time>
      </trkpt>
      <trkpt lat="46.2809170" lon="5.8562740">
        <ele>1239.0</ele>
        <time>2022-07-24T14:15:13Z</time>
      </trkpt>
      <trkpt lat="46.2807690" lon="5.8563220">
        <ele>1238.2</ele>
        <time>2022-07-24T14:15:16Z</time>
      </trkpt>
      <trkpt lat="46.2807220" lon="5.8563480">
        <ele>1238.2</ele>
        <time>2022-07-24T14:15:17Z</time>
      </trkpt>
      <trkpt lat="46.2806730" lon="5.8563760">
        <ele>1238.0</ele>
        <time>2022-07-24T14:15:18Z</time>
      </trkpt>
      <trkpt lat="46.2804660" lon="5.8564780">
        <ele>1237.8</ele>
        <time>2022-07-24T14:15:23Z</time>
      </trkpt>
      <trkpt lat="46.2803160" lon="5.8564930">
        <ele>1237.8</ele>
        <time>2022-07-24T14:15:29Z</time>
      </trkpt>
      <trkpt lat="46.2801880" lon="5.8564730">
        <ele>1239.0</ele>
        <time>2022-07-24T14:15:36Z</time>
      </trkpt>
      <trkpt lat="46.2801720" lon="5.8564690">
        <ele>1239.2</ele>
        <time>2022-07-24T14:15:37Z</time>
      </trkpt>
      <trkpt lat="46.2800920" lon="5.8564400">
        <ele>1240.2</ele>
        <time>2022-07-24T14:15:42Z</time>
      </trkpt>
      <trkpt lat="46.2800150" lon="5.8564140">
        <ele>1241.2</ele>
        <time>2022-07-24T14:15:47Z</time>
      </trkpt>
      <trkpt lat="46.2799860" lon="5.8564110">
        <ele>1241.4</ele>
        <time>2022-07-24T14:15:49Z</time>
      </trkpt>
      <trkpt lat="46.2799010" lon="5.8563910">
        <ele>1242.0</ele>
        <time>2022-07-24T14:15:54Z</time>
      </trkpt>
      <trkpt lat="46.2798670" lon="5.8563820">
        <ele>1242.4</ele>
        <time>2022-07-24T14:15:56Z</time>
      </trkpt>
      <trkpt lat="46.2797720" lon="5.8563480">
        <ele>1242.8</ele>
        <time>2022-07-24T14:16:02Z</time>
      </trkpt>
      <trkpt lat="46.2797250" lon="5.8563430">
        <ele>1243.4</ele>
        <time>2022-07-24T14:16:05Z</time>
      </trkpt>
      <trkpt lat="46.2797070" lon="5.8563370">
        <ele>1243.6</ele>
        <time>2022-07-24T14:16:06Z</time>
      </trkpt>
      <trkpt lat="46.2796730" lon="5.8563180">
        <ele>1243.8</ele>
        <time>2022-07-24T14:16:08Z</time>
      </trkpt>
      <trkpt lat="46.2796560" lon="5.8563090">
        <ele>1244.0</ele>
        <time>2022-07-24T14:16:09Z</time>
      </trkpt>
      <trkpt lat="46.2796060" lon="5.8562990">
        <ele>1244.4</ele>
        <time>2022-07-24T14:16:12Z</time>
      </trkpt>
      <trkpt lat="46.2795730" lon="5.8562920">
        <ele>1244.6</ele>
        <time>2022-07-24T14:16:14Z</time>
      </trkpt>
      <trkpt lat="46.2794670" lon="5.8562690">
        <ele>1245.6</ele>
        <time>2022-07-24T14:16:20Z</time>
      </trkpt>
      <trkpt lat="46.2794510" lon="5.8562650">
        <ele>1245.8</ele>
        <time>2022-07-24T14:16:21Z</time>
      </trkpt>
      <trkpt lat="46.2793820" lon="5.8562420">
        <ele>1246.6</ele>
        <time>2022-07-24T14:16:25Z</time>
      </trkpt>
      <trkpt lat="46.2793330" lon="5.8562250">
        <ele>1246.8</ele>
        <time>2022-07-24T14:16:28Z</time>
      </trkpt>
      <trkpt lat="46.2792330" lon="5.8562010">
        <ele>1247.6</ele>
        <time>2022-07-24T14:16:34Z</time>
      </trkpt>
      <trkpt lat="46.2791980" lon="5.8562010">
        <ele>1248.0</ele>
        <time>2022-07-24T14:16:36Z</time>
      </trkpt>
      <trkpt lat="46.2791190" lon="5.8562070">
        <ele>1248.6</ele>
        <time>2022-07-24T14:16:41Z</time>
      </trkpt>
      <trkpt lat="46.2790920" lon="5.8562320">
        <ele>1248.8</ele>
        <time>2022-07-24T14:16:43Z</time>
      </trkpt>
      <trkpt lat="46.2790010" lon="5.8563200">
        <ele>1249.8</ele>
        <time>2022-07-24T14:16:49Z</time>
      </trkpt>
      <trkpt lat="46.2789300" lon="5.8564140">
        <ele>1250.8</ele>
        <time>2022-07-24T14:16:54Z</time>
      </trkpt>
      <trkpt lat="46.2788890" lon="5.8564740">
        <ele>1251.2</ele>
        <time>2022-07-24T14:16:57Z</time>
      </trkpt>
      <trkpt lat="46.2788750" lon="5.8564960">
        <ele>1251.2</ele>
        <time>2022-07-24T14:16:58Z</time>
      </trkpt>
      <trkpt lat="46.2788160" lon="5.8565740">
        <ele>1251.8</ele>
        <time>2022-07-24T14:17:02Z</time>
      </trkpt>
      <trkpt lat="46.2787860" lon="5.8566190">
        <ele>1252.4</ele>
        <time>2022-07-24T14:17:04Z</time>
      </trkpt>
      <trkpt lat="46.2787220" lon="5.8567120">
        <ele>1252.8</ele>
        <time>2022-07-24T14:17:08Z</time>
      </trkpt>
      <trkpt lat="46.2786660" lon="5.8567750">
        <ele>1253.2</ele>
        <time>2022-07-24T14:17:11Z</time>
      </trkpt>
      <trkpt lat="46.2785220" lon="5.8569400">
        <ele>1253.6</ele>
        <time>2022-07-24T14:17:17Z</time>
      </trkpt>
      <trkpt lat="46.2783600" lon="5.8571040">
        <ele>1253.6</ele>
        <time>2022-07-24T14:17:23Z</time>
      </trkpt>
      <trkpt lat="46.2782520" lon="5.8571920">
        <ele>1253.6</ele>
        <time>2022-07-24T14:17:28Z</time>
      </trkpt>
      <trkpt lat="46.2781590" lon="5.8572200">
        <ele>1253.8</ele>
        <time>2022-07-24T14:17:32Z</time>
      </trkpt>
      <trkpt lat="46.2781080" lon="5.8572200">
        <ele>1254.2</ele>
        <time>2022-07-24T14:17:34Z</time>
      </trkpt>
      <trkpt lat="46.2780080" lon="5.8571970">
        <ele>1255.0</ele>
        <time>2022-07-24T14:17:38Z</time>
      </trkpt>
      <trkpt lat="46.2779340" lon="5.8571710">
        <ele>1255.6</ele>
        <time>2022-07-24T14:17:41Z</time>
      </trkpt>
      <trkpt lat="46.2778260" lon="5.8571390">
        <ele>1256.0</ele>
        <time>2022-07-24T14:17:45Z</time>
      </trkpt>
      <trkpt lat="46.2777480" lon="5.8571190">
        <ele>1256.2</ele>
        <time>2022-07-24T14:17:48Z</time>
      </trkpt>
      <trkpt lat="46.2777200" lon="5.8571150">
        <ele>1256.4</ele>
        <time>2022-07-24T14:17:49Z</time>
      </trkpt>
      <trkpt lat="46.2776030" lon="5.8571190">
        <ele>1257.0</ele>
        <time>2022-07-24T14:17:53Z</time>
      </trkpt>
      <trkpt lat="46.2775710" lon="5.8571230">
        <ele>1257.0</ele>
        <time>2022-07-24T14:17:54Z</time>
      </trkpt>
      <trkpt lat="46.2774030" lon="5.8571370">
        <ele>1257.2</ele>
        <time>2022-07-24T14:18:00Z</time>
      </trkpt>
      <trkpt lat="46.2770840" lon="5.8572310">
        <ele>1257.2</ele>
        <time>2022-07-24T14:18:09Z</time>
      </trkpt>
      <trkpt lat="46.2768000" lon="5.8573710">
        <ele>1257.0</ele>
        <time>2022-07-24T14:18:16Z</time>
      </trkpt>
      <trkpt lat="46.2765840" lon="5.8575460">
        <ele>1257.0</ele>
        <time>2022-07-24T14:18:22Z</time>
      </trkpt>
      <trkpt lat="46.2763500" lon="5.8577570">
        <ele>1257.6</ele>
        <time>2022-07-24T14:18:30Z</time>
      </trkpt>
      <trkpt lat="46.2763000" lon="5.8578070">
        <ele>1257.8</ele>
        <time>2022-07-24T14:18:32Z</time>
      </trkpt>
      <trkpt lat="46.2762090" lon="5.8579280">
        <ele>1258.4</ele>
        <time>2022-07-24T14:18:36Z</time>
      </trkpt>
      <trkpt lat="46.2761440" lon="5.8579900">
        <ele>1258.8</ele>
        <time>2022-07-24T14:18:39Z</time>
      </trkpt>
      <trkpt lat="46.2761220" lon="5.8580180">
        <ele>1258.8</ele>
        <time>2022-07-24T14:18:40Z</time>
      </trkpt>
      <trkpt lat="46.2760980" lon="5.8580450">
        <ele>1259.0</ele>
        <time>2022-07-24T14:18:41Z</time>
      </trkpt>
      <trkpt lat="46.2759690" lon="5.8581830">
        <ele>1259.8</ele>
        <time>2022-07-24T14:18:47Z</time>
      </trkpt>
      <trkpt lat="46.2759480" lon="5.8582130">
        <ele>1259.8</ele>
        <time>2022-07-24T14:18:48Z</time>
      </trkpt>
      <trkpt lat="46.2758550" lon="5.8584110">
        <ele>1260.6</ele>
        <time>2022-07-24T14:18:54Z</time>
      </trkpt>
      <trkpt lat="46.2758440" lon="5.8584490">
        <ele>1260.8</ele>
        <time>2022-07-24T14:18:55Z</time>
      </trkpt>
      <trkpt lat="46.2757900" lon="5.8586010">
        <ele>1261.2</ele>
        <time>2022-07-24T14:19:00Z</time>
      </trkpt>
      <trkpt lat="46.2757430" lon="5.8587640">
        <ele>1261.8</ele>
        <time>2022-07-24T14:19:06Z</time>
      </trkpt>
      <trkpt lat="46.2757360" lon="5.8587930">
        <ele>1262.0</ele>
        <time>2022-07-24T14:19:07Z</time>
      </trkpt>
      <trkpt lat="46.2757120" lon="5.8588920">
        <ele>1263.0</ele>
        <time>2022-07-24T14:19:12Z</time>
      </trkpt>
      <trkpt lat="46.2757090" lon="5.8589120">
        <ele>1263.2</ele>
        <time>2022-07-24T14:19:13Z</time>
      </trkpt>
      <trkpt lat="46.2757030" lon="5.8589960">
        <ele>1264.0</ele>
        <time>2022-07-24T14:19:17Z</time>
      </trkpt>
      <trkpt lat="46.2756970" lon="5.8590430">
        <ele>1264.4</ele>
        <time>2022-07-24T14:19:19Z</time>
      </trkpt>
      <trkpt lat="46.2756950" lon="5.8590860">
        <ele>1264.8</ele>
        <time>2022-07-24T14:19:21Z</time>
      </trkpt>
      <trkpt lat="46.2756970" lon="5.8591270">
        <ele>1265.2</ele>
        <time>2022-07-24T14:19:23Z</time>
      </trkpt>
      <trkpt lat="46.2756980" lon="5.8591730">
        <ele>1265.6</ele>
        <time>2022-07-24T14:19:25Z</time>
      </trkpt>
      <trkpt lat="46.2757460" lon="5.8593710">
        <ele>1266.2</ele>
        <time>2022-07-24T14:19:31Z</time>
      </trkpt>
      <trkpt lat="46.2758570" lon="5.8596230">
        <ele>1267.4</ele>
        <time>2022-07-24T14:19:40Z</time>
      </trkpt>
      <trkpt lat="46.2759460" lon="5.8597550">
        <ele>1268.4</ele>
        <time>2022-07-24T14:19:46Z</time>
      </trkpt>
      <trkpt lat="46.2759620" lon="5.8597790">
        <ele>1268.6</ele>
        <time>2022-07-24T14:19:47Z</time>
      </trkpt>
      <trkpt lat="46.2760380" lon="5.8598970">
        <ele>1269.0</ele>
        <time>2022-07-24T14:19:52Z</time>
      </trkpt>
      <trkpt lat="46.2760680" lon="5.8599420">
        <ele>1269.2</ele>
        <time>2022-07-24T14:19:54Z</time>
      </trkpt>
      <trkpt lat="46.2761100" lon="5.8600140">
        <ele>1269.4</ele>
        <time>2022-07-24T14:19:57Z</time>
      </trkpt>
      <trkpt lat="46.2761700" lon="5.8601080">
        <ele>1270.0</ele>
        <time>2022-07-24T14:20:01Z</time>
      </trkpt>
      <trkpt lat="46.2762130" lon="5.8601830">
        <ele>1270.4</ele>
        <time>2022-07-24T14:20:04Z</time>
      </trkpt>
      <trkpt lat="46.2762500" lon="5.8603060">
        <ele>1271.0</ele>
        <time>2022-07-24T14:20:08Z</time>
      </trkpt>
      <trkpt lat="46.2762460" lon="5.8603410">
        <ele>1271.0</ele>
        <time>2022-07-24T14:20:09Z</time>
      </trkpt>
      <trkpt lat="46.2761570" lon="5.8605190">
        <ele>1271.6</ele>
        <time>2022-07-24T14:20:14Z</time>
      </trkpt>
      <trkpt lat="46.2760850" lon="5.8605910">
        <ele>1271.6</ele>
        <time>2022-07-24T14:20:17Z</time>
      </trkpt>
      <trkpt lat="46.2760180" lon="5.8606460">
        <ele>1271.8</ele>
        <time>2022-07-24T14:20:20Z</time>
      </trkpt>
      <trkpt lat="46.2759960" lon="5.8606520">
        <ele>1271.8</ele>
        <time>2022-07-24T14:20:21Z</time>
      </trkpt>
      <trkpt lat="46.2758950" lon="5.8606710">
        <ele>1272.0</ele>
        <time>2022-07-24T14:20:25Z</time>
      </trkpt>
      <trkpt lat="46.2757820" lon="5.8606900">
        <ele>1272.6</ele>
        <time>2022-07-24T14:20:29Z</time>
      </trkpt>
      <trkpt lat="46.2756770" lon="5.8607000">
        <ele>1273.0</ele>
        <time>2022-07-24T14:20:33Z</time>
      </trkpt>
      <trkpt lat="46.2755440" lon="5.8607180">
        <ele>1273.2</ele>
        <time>2022-07-24T14:20:39Z</time>
      </trkpt>
      <trkpt lat="46.2754570" lon="5.8607200">
        <ele>1273.6</ele>
        <time>2022-07-24T14:20:43Z</time>
      </trkpt>
      <trkpt lat="46.2754200" lon="5.8607250">
        <ele>1274.0</ele>
        <time>2022-07-24T14:20:45Z</time>
      </trkpt>
      <trkpt lat="46.2753070" lon="5.8607310">
        <ele>1274.6</ele>
        <time>2022-07-24T14:20:51Z</time>
      </trkpt>
      <trkpt lat="46.2752900" lon="5.8607270">
        <ele>1274.8</ele>
        <time>2022-07-24T14:20:52Z</time>
      </trkpt>
      <trkpt lat="46.2751740" lon="5.8607410">
        <ele>1275.6</ele>
        <time>2022-07-24T14:20:58Z</time>
      </trkpt>
      <trkpt lat="46.2750510" lon="5.8607370">
        <ele>1276.6</ele>
        <time>2022-07-24T14:21:05Z</time>
      </trkpt>
      <trkpt lat="46.2749740" lon="5.8607180">
        <ele>1277.0</ele>
        <time>2022-07-24T14:21:09Z</time>
      </trkpt>
      <trkpt lat="46.2748730" lon="5.8606990">
        <ele>1277.6</ele>
        <time>2022-07-24T14:21:14Z</time>
      </trkpt>
      <trkpt lat="46.2747360" lon="5.8606500">
        <ele>1278.8</ele>
        <time>2022-07-24T14:21:21Z</time>
      </trkpt>
      <trkpt lat="46.2747160" lon="5.8606420">
        <ele>1279.0</ele>
        <time>2022-07-24T14:21:22Z</time>
      </trkpt>
      <trkpt lat="46.2745970" lon="5.8605920">
        <ele>1279.8</ele>
        <time>2022-07-24T14:21:28Z</time>
      </trkpt>
      <trkpt lat="46.2745420" lon="5.8605730">
        <ele>1280.2</ele>
        <time>2022-07-24T14:21:31Z</time>
      </trkpt>
      <trkpt lat="46.2744950" lon="5.8605510">
        <ele>1280.8</ele>
        <time>2022-07-24T14:21:34Z</time>
      </trkpt>
      <trkpt lat="46.2744270" lon="5.8605160">
        <ele>1281.2</ele>
        <time>2022-07-24T14:21:38Z</time>
      </trkpt>
      <trkpt lat="46.2743600" lon="5.8604760">
        <ele>1281.8</ele>
        <time>2022-07-24T14:21:42Z</time>
      </trkpt>
      <trkpt lat="46.2743120" lon="5.8604640">
        <ele>1282.4</ele>
        <time>2022-07-24T14:21:45Z</time>
      </trkpt>
      <trkpt lat="46.2742280" lon="5.8604220">
        <ele>1283.0</ele>
        <time>2022-07-24T14:21:50Z</time>
      </trkpt>
      <trkpt lat="46.2741720" lon="5.8603910">
        <ele>1283.4</ele>
        <time>2022-07-24T14:21:53Z</time>
      </trkpt>
      <trkpt lat="46.2740590" lon="5.8603480">
        <ele>1283.8</ele>
        <time>2022-07-24T14:21:59Z</time>
      </trkpt>
      <trkpt lat="46.2740000" lon="5.8603470">
        <ele>1284.2</ele>
        <time>2022-07-24T14:22:02Z</time>
      </trkpt>
      <trkpt lat="46.2739290" lon="5.8603550">
        <ele>1284.8</ele>
        <time>2022-07-24T14:22:06Z</time>
      </trkpt>
      <trkpt lat="46.2738890" lon="5.8603690">
        <ele>1285.2</ele>
        <time>2022-07-24T14:22:08Z</time>
      </trkpt>
      <trkpt lat="46.2738150" lon="5.8604010">
        <ele>1286.0</ele>
        <time>2022-07-24T14:22:12Z</time>
      </trkpt>
      <trkpt lat="46.2737260" lon="5.8604470">
        <ele>1286.6</ele>
        <time>2022-07-24T14:22:17Z</time>
      </trkpt>
      <trkpt lat="46.2736570" lon="5.8604940">
        <ele>1287.0</ele>
        <time>2022-07-24T14:22:21Z</time>
      </trkpt>
      <trkpt lat="46.2735340" lon="5.8605380">
        <ele>1287.8</ele>
        <time>2022-07-24T14:22:28Z</time>
      </trkpt>
      <trkpt lat="46.2735030" lon="5.8605520">
        <ele>1288.0</ele>
        <time>2022-07-24T14:22:30Z</time>
      </trkpt>
      <trkpt lat="46.2734050" lon="5.8605860">
        <ele>1288.8</ele>
        <time>2022-07-24T14:22:36Z</time>
      </trkpt>
      <trkpt lat="46.2733580" lon="5.8605960">
        <ele>1289.2</ele>
        <time>2022-07-24T14:22:39Z</time>
      </trkpt>
      <trkpt lat="46.2732940" lon="5.8606120">
        <ele>1289.8</ele>
        <time>2022-07-24T14:22:43Z</time>
      </trkpt>
      <trkpt lat="46.2732420" lon="5.8606180">
        <ele>1290.2</ele>
        <time>2022-07-24T14:22:46Z</time>
      </trkpt>
      <trkpt lat="46.2731900" lon="5.8606240">
        <ele>1290.6</ele>
        <time>2022-07-24T14:22:49Z</time>
      </trkpt>
      <trkpt lat="46.2731230" lon="5.8606300">
        <ele>1291.2</ele>
        <time>2022-07-24T14:22:53Z</time>
      </trkpt>
      <trkpt lat="46.2730600" lon="5.8606410">
        <ele>1291.8</ele>
        <time>2022-07-24T14:22:57Z</time>
      </trkpt>
      <trkpt lat="46.2729890" lon="5.8606500">
        <ele>1292.4</ele>
        <time>2022-07-24T14:23:01Z</time>
      </trkpt>
      <trkpt lat="46.2728980" lon="5.8606490">
        <ele>1293.2</ele>
        <time>2022-07-24T14:23:06Z</time>
      </trkpt>
      <trkpt lat="46.2728820" lon="5.8606530">
        <ele>1293.4</ele>
        <time>2022-07-24T14:23:07Z</time>
      </trkpt>
      <trkpt lat="46.2727560" lon="5.8607140">
        <ele>1294.6</ele>
        <time>2022-07-24T14:23:14Z</time>
      </trkpt>
      <trkpt lat="46.2726360" lon="5.8608110">
        <ele>1295.6</ele>
        <time>2022-07-24T14:23:20Z</time>
      </trkpt>
      <trkpt lat="46.2726150" lon="5.8608300">
        <ele>1295.8</ele>
        <time>2022-07-24T14:23:21Z</time>
      </trkpt>
      <trkpt lat="46.2724780" lon="5.8609140">
        <ele>1296.2</ele>
        <time>2022-07-24T14:23:27Z</time>
      </trkpt>
      <trkpt lat="46.2723260" lon="5.8610390">
        <ele>1296.8</ele>
        <time>2022-07-24T14:23:34Z</time>
      </trkpt>
      <trkpt lat="46.2723020" lon="5.8610520">
        <ele>1296.8</ele>
        <time>2022-07-24T14:23:35Z</time>
      </trkpt>
      <trkpt lat="46.2721670" lon="5.8611120">
        <ele>1297.2</ele>
        <time>2022-07-24T14:23:41Z</time>
      </trkpt>
      <trkpt lat="46.2720100" lon="5.8611380">
        <ele>1297.8</ele>
        <time>2022-07-24T14:23:48Z</time>
      </trkpt>
      <trkpt lat="46.2718400" lon="5.8611630">
        <ele>1299.0</ele>
        <time>2022-07-24T14:23:56Z</time>
      </trkpt>
      <trkpt lat="46.2716920" lon="5.8611660">
        <ele>1300.0</ele>
        <time>2022-07-24T14:24:03Z</time>
      </trkpt>
      <trkpt lat="46.2716720" lon="5.8611650">
        <ele>1300.2</ele>
        <time>2022-07-24T14:24:04Z</time>
      </trkpt>
      <trkpt lat="46.2716520" lon="5.8611650">
        <ele>1300.2</ele>
        <time>2022-07-24T14:24:05Z</time>
      </trkpt>
      <trkpt lat="46.2715470" lon="5.8611620">
        <ele>1301.0</ele>
        <time>2022-07-24T14:24:10Z</time>
      </trkpt>
      <trkpt lat="46.2714880" lon="5.8611470">
        <ele>1301.4</ele>
        <time>2022-07-24T14:24:13Z</time>
      </trkpt>
      <trkpt lat="46.2713920" lon="5.8611160">
        <ele>1302.0</ele>
        <time>2022-07-24T14:24:18Z</time>
      </trkpt>
      <trkpt lat="46.2713120" lon="5.8610700">
        <ele>1302.6</ele>
        <time>2022-07-24T14:24:22Z</time>
      </trkpt>
      <trkpt lat="46.2712240" lon="5.8610250">
        <ele>1303.0</ele>
        <time>2022-07-24T14:24:27Z</time>
      </trkpt>
      <trkpt lat="46.2711690" lon="5.8610070">
        <ele>1303.6</ele>
        <time>2022-07-24T14:24:30Z</time>
      </trkpt>
      <trkpt lat="46.2710970" lon="5.8610050">
        <ele>1304.2</ele>
        <time>2022-07-24T14:24:34Z</time>
      </trkpt>
      <trkpt lat="46.2710420" lon="5.8610280">
        <ele>1305.0</ele>
        <time>2022-07-24T14:24:37Z</time>
      </trkpt>
      <trkpt lat="46.2709850" lon="5.8610620">
        <ele>1305.4</ele>
        <time>2022-07-24T14:24:40Z</time>
      </trkpt>
      <trkpt lat="46.2709290" lon="5.8611490">
        <ele>1305.8</ele>
        <time>2022-07-24T14:24:44Z</time>
      </trkpt>
      <trkpt lat="46.2708830" lon="5.8613030">
        <ele>1306.4</ele>
        <time>2022-07-24T14:24:49Z</time>
      </trkpt>
      <trkpt lat="46.2708730" lon="5.8613940">
        <ele>1307.0</ele>
        <time>2022-07-24T14:24:52Z</time>
      </trkpt>
      <trkpt lat="46.2708720" lon="5.8614810">
        <ele>1307.4</ele>
        <time>2022-07-24T14:24:55Z</time>
      </trkpt>
      <trkpt lat="46.2708770" lon="5.8616550">
        <ele>1308.4</ele>
        <time>2022-07-24T14:25:01Z</time>
      </trkpt>
      <trkpt lat="46.2708870" lon="5.8617130">
        <ele>1308.8</ele>
        <time>2022-07-24T14:25:03Z</time>
      </trkpt>
      <trkpt lat="46.2708940" lon="5.8617880">
        <ele>1309.6</ele>
        <time>2022-07-24T14:25:06Z</time>
      </trkpt>
      <trkpt lat="46.2709040" lon="5.8618720">
        <ele>1310.0</ele>
        <time>2022-07-24T14:25:09Z</time>
      </trkpt>
      <trkpt lat="46.2709260" lon="5.8619810">
        <ele>1310.6</ele>
        <time>2022-07-24T14:25:13Z</time>
      </trkpt>
      <trkpt lat="46.2709770" lon="5.8621770">
        <ele>1311.6</ele>
        <time>2022-07-24T14:25:20Z</time>
      </trkpt>
      <trkpt lat="46.2710340" lon="5.8623610">
        <ele>1312.6</ele>
        <time>2022-07-24T14:25:27Z</time>
      </trkpt>
      <trkpt lat="46.2710410" lon="5.8623890">
        <ele>1312.8</ele>
        <time>2022-07-24T14:25:28Z</time>
      </trkpt>
      <trkpt lat="46.2710750" lon="5.8625710">
        <ele>1313.8</ele>
        <time>2022-07-24T14:25:34Z</time>
      </trkpt>
      <trkpt lat="46.2710770" lon="5.8626120">
        <ele>1314.0</ele>
        <time>2022-07-24T14:25:35Z</time>
      </trkpt>
      <trkpt lat="46.2710710" lon="5.8628450">
        <ele>1314.0</ele>
        <time>2022-07-24T14:25:42Z</time>
      </trkpt>
      <trkpt lat="46.2710880" lon="5.8630400">
        <ele>1313.2</ele>
        <time>2022-07-24T14:25:48Z</time>
      </trkpt>
      <trkpt lat="46.2711170" lon="5.8631520">
        <ele>1312.8</ele>
        <time>2022-07-24T14:25:51Z</time>
      </trkpt>
      <trkpt lat="46.2711850" lon="5.8633170">
        <ele>1312.2</ele>
        <time>2022-07-24T14:25:55Z</time>
      </trkpt>
      <trkpt lat="46.2712860" lon="5.8634920">
        <ele>1311.6</ele>
        <time>2022-07-24T14:25:59Z</time>
      </trkpt>
      <trkpt lat="46.2713140" lon="5.8635410">
        <ele>1311.4</ele>
        <time>2022-07-24T14:26:00Z</time>
      </trkpt>
      <trkpt lat="46.2713410" lon="5.8635950">
        <ele>1311.2</ele>
        <time>2022-07-24T14:26:01Z</time>
      </trkpt>
      <trkpt lat="46.2713620" lon="5.8636530">
        <ele>1310.8</ele>
        <time>2022-07-24T14:26:02Z</time>
      </trkpt>
      <trkpt lat="46.2713900" lon="5.8637770">
        <ele>1310.2</ele>
        <time>2022-07-24T14:26:04Z</time>
      </trkpt>
      <trkpt lat="46.2714100" lon="5.8639490">
        <ele>1309.2</ele>
        <time>2022-07-24T14:26:07Z</time>
      </trkpt>
      <trkpt lat="46.2714160" lon="5.8640140">
        <ele>1308.8</ele>
        <time>2022-07-24T14:26:08Z</time>
      </trkpt>
      <trkpt lat="46.2714570" lon="5.8642230">
        <ele>1307.8</ele>
        <time>2022-07-24T14:26:11Z</time>
      </trkpt>
      <trkpt lat="46.2714830" lon="5.8642880">
        <ele>1307.6</ele>
        <time>2022-07-24T14:26:12Z</time>
      </trkpt>
      <trkpt lat="46.2716620" lon="5.8644880">
        <ele>1306.6</ele>
        <time>2022-07-24T14:26:16Z</time>
      </trkpt>
      <trkpt lat="46.2717140" lon="5.8645230">
        <ele>1306.4</ele>
        <time>2022-07-24T14:26:17Z</time>
      </trkpt>
      <trkpt lat="46.2718150" lon="5.8645750">
        <ele>1305.8</ele>
        <time>2022-07-24T14:26:19Z</time>
      </trkpt>
      <trkpt lat="46.2719300" lon="5.8646280">
        <ele>1305.2</ele>
        <time>2022-07-24T14:26:21Z</time>
      </trkpt>
      <trkpt lat="46.2721100" lon="5.8647540">
        <ele>1304.0</ele>
        <time>2022-07-24T14:26:24Z</time>
      </trkpt>
      <trkpt lat="46.2722140" lon="5.8648460">
        <ele>1303.0</ele>
        <time>2022-07-24T14:26:26Z</time>
      </trkpt>
      <trkpt lat="46.2722610" lon="5.8648910">
        <ele>1302.6</ele>
        <time>2022-07-24T14:26:27Z</time>
      </trkpt>
      <trkpt lat="46.2723900" lon="5.8650450">
        <ele>1301.8</ele>
        <time>2022-07-24T14:26:30Z</time>
      </trkpt>
      <trkpt lat="46.2724270" lon="5.8651170">
        <ele>1301.4</ele>
        <time>2022-07-24T14:26:31Z</time>
      </trkpt>
      <trkpt lat="46.2724860" lon="5.8653820">
        <ele>1300.0</ele>
        <time>2022-07-24T14:26:34Z</time>
      </trkpt>
      <trkpt lat="46.2724610" lon="5.8656050">
        <ele>1299.0</ele>
        <time>2022-07-24T14:26:36Z</time>
      </trkpt>
      <trkpt lat="46.2724210" lon="5.8657110">
        <ele>1298.4</ele>
        <time>2022-07-24T14:26:37Z</time>
      </trkpt>
      <trkpt lat="46.2723620" lon="5.8658060">
        <ele>1297.8</ele>
        <time>2022-07-24T14:26:38Z</time>
      </trkpt>
      <trkpt lat="46.2722100" lon="5.8659510">
        <ele>1296.8</ele>
        <time>2022-07-24T14:26:40Z</time>
      </trkpt>
      <trkpt lat="46.2720540" lon="5.8660580">
        <ele>1295.4</ele>
        <time>2022-07-24T14:26:42Z</time>
      </trkpt>
      <trkpt lat="46.2719000" lon="5.8661230">
        <ele>1294.6</ele>
        <time>2022-07-24T14:26:44Z</time>
      </trkpt>
      <trkpt lat="46.2718270" lon="5.8661320">
        <ele>1294.2</ele>
        <time>2022-07-24T14:26:45Z</time>
      </trkpt>
      <trkpt lat="46.2716980" lon="5.8661140">
        <ele>1292.8</ele>
        <time>2022-07-24T14:26:47Z</time>
      </trkpt>
      <trkpt lat="46.2716050" lon="5.8660400">
        <ele>1291.6</ele>
        <time>2022-07-24T14:26:49Z</time>
      </trkpt>
      <trkpt lat="46.2715700" lon="5.8660000">
        <ele>1291.4</ele>
        <time>2022-07-24T14:26:50Z</time>
      </trkpt>
      <trkpt lat="46.2714510" lon="5.8658270">
        <ele>1291.0</ele>
        <time>2022-07-24T14:26:55Z</time>
      </trkpt>
      <trkpt lat="46.2713360" lon="5.8656290">
        <ele>1291.6</ele>
        <time>2022-07-24T14:27:01Z</time>
      </trkpt>
      <trkpt lat="46.2712030" lon="5.8655320">
        <ele>1292.6</ele>
        <time>2022-07-24T14:27:07Z</time>
      </trkpt>
      <trkpt lat="46.2710220" lon="5.8654840">
        <ele>1293.4</ele>
        <time>2022-07-24T14:27:15Z</time>
      </trkpt>
      <trkpt lat="46.2708720" lon="5.8655020">
        <ele>1294.4</ele>
        <time>2022-07-24T14:27:22Z</time>
      </trkpt>
      <trkpt lat="46.2708510" lon="5.8655090">
        <ele>1294.4</ele>
        <time>2022-07-24T14:27:23Z</time>
      </trkpt>
      <trkpt lat="46.2707880" lon="5.8655210">
        <ele>1294.8</ele>
        <time>2022-07-24T14:27:26Z</time>
      </trkpt>
      <trkpt lat="46.2707010" lon="5.8655520">
        <ele>1295.6</ele>
        <time>2022-07-24T14:27:30Z</time>
      </trkpt>
      <trkpt lat="46.2705810" lon="5.8655880">
        <ele>1296.6</ele>
        <time>2022-07-24T14:27:36Z</time>
      </trkpt>
      <trkpt lat="46.2705620" lon="5.8655930">
        <ele>1296.6</ele>
        <time>2022-07-24T14:27:37Z</time>
      </trkpt>
      <trkpt lat="46.2704500" lon="5.8656210">
        <ele>1297.6</ele>
        <time>2022-07-24T14:27:43Z</time>
      </trkpt>
      <trkpt lat="46.2704180" lon="5.8656300">
        <ele>1298.0</ele>
        <time>2022-07-24T14:27:45Z</time>
      </trkpt>
      <trkpt lat="46.2703540" lon="5.8656570">
        <ele>1298.6</ele>
        <time>2022-07-24T14:27:49Z</time>
      </trkpt>
      <trkpt lat="46.2703200" lon="5.8656770">
        <ele>1299.0</ele>
        <time>2022-07-24T14:27:51Z</time>
      </trkpt>
      <trkpt lat="46.2702020" lon="5.8657520">
        <ele>1299.6</ele>
        <time>2022-07-24T14:27:58Z</time>
      </trkpt>
      <trkpt lat="46.2700610" lon="5.8658050">
        <ele>1300.6</ele>
        <time>2022-07-24T14:28:04Z</time>
      </trkpt>
      <trkpt lat="46.2700370" lon="5.8658040">
        <ele>1300.8</ele>
        <time>2022-07-24T14:28:05Z</time>
      </trkpt>
      <trkpt lat="46.2698770" lon="5.8657470">
        <ele>1301.6</ele>
        <time>2022-07-24T14:28:12Z</time>
      </trkpt>
      <trkpt lat="46.2698550" lon="5.8657440">
        <ele>1301.8</ele>
        <time>2022-07-24T14:28:13Z</time>
      </trkpt>
      <trkpt lat="46.2697250" lon="5.8657970">
        <ele>1302.6</ele>
        <time>2022-07-24T14:28:19Z</time>
      </trkpt>
      <trkpt lat="46.2696740" lon="5.8658710">
        <ele>1302.8</ele>
        <time>2022-07-24T14:28:22Z</time>
      </trkpt>
      <trkpt lat="46.2696190" lon="5.8659930">
        <ele>1303.0</ele>
        <time>2022-07-24T14:28:26Z</time>
      </trkpt>
      <trkpt lat="46.2695290" lon="5.8663010">
        <ele>1303.4</ele>
        <time>2022-07-24T14:28:34Z</time>
      </trkpt>
      <trkpt lat="46.2694840" lon="5.8666400">
        <ele>1303.2</ele>
        <time>2022-07-24T14:28:40Z</time>
      </trkpt>
      <trkpt lat="46.2694930" lon="5.8669310">
        <ele>1302.4</ele>
        <time>2022-07-24T14:28:44Z</time>
      </trkpt>
      <trkpt lat="46.2695000" lon="5.8670120">
        <ele>1302.4</ele>
        <time>2022-07-24T14:28:45Z</time>
      </trkpt>
      <trkpt lat="46.2695590" lon="5.8673450">
        <ele>1301.4</ele>
        <time>2022-07-24T14:28:49Z</time>
      </trkpt>
      <trkpt lat="46.2695820" lon="5.8674300">
        <ele>1301.0</ele>
        <time>2022-07-24T14:28:50Z</time>
      </trkpt>
      <trkpt lat="46.2696830" lon="5.8677670">
        <ele>1300.0</ele>
        <time>2022-07-24T14:28:54Z</time>
      </trkpt>
      <trkpt lat="46.2697560" lon="5.8680150">
        <ele>1298.8</ele>
        <time>2022-07-24T14:28:57Z</time>
      </trkpt>
      <trkpt lat="46.2697820" lon="5.8680970">
        <ele>1298.6</ele>
        <time>2022-07-24T14:28:58Z</time>
      </trkpt>
      <trkpt lat="46.2698270" lon="5.8682700">
        <ele>1297.4</ele>
        <time>2022-07-24T14:29:00Z</time>
      </trkpt>
      <trkpt lat="46.2698450" lon="5.8685450">
        <ele>1296.4</ele>
        <time>2022-07-24T14:29:03Z</time>
      </trkpt>
      <trkpt lat="46.2698390" lon="5.8686400">
        <ele>1296.0</ele>
        <time>2022-07-24T14:29:04Z</time>
      </trkpt>
      <trkpt lat="46.2698330" lon="5.8688330">
        <ele>1295.2</ele>
        <time>2022-07-24T14:29:06Z</time>
      </trkpt>
      <trkpt lat="46.2698560" lon="5.8691090">
        <ele>1293.8</ele>
        <time>2022-07-24T14:29:09Z</time>
      </trkpt>
      <trkpt lat="46.2698970" lon="5.8693740">
        <ele>1292.6</ele>
        <time>2022-07-24T14:29:12Z</time>
      </trkpt>
      <trkpt lat="46.2698970" lon="5.8694540">
        <ele>1292.2</ele>
        <time>2022-07-24T14:29:13Z</time>
      </trkpt>
      <trkpt lat="46.2698840" lon="5.8695230">
        <ele>1291.8</ele>
        <time>2022-07-24T14:29:14Z</time>
      </trkpt>
      <trkpt lat="46.2698570" lon="5.8695800">
        <ele>1291.2</ele>
        <time>2022-07-24T14:29:15Z</time>
      </trkpt>
      <trkpt lat="46.2697540" lon="5.8696130">
        <ele>1290.2</ele>
        <time>2022-07-24T14:29:17Z</time>
      </trkpt>
      <trkpt lat="46.2696650" lon="5.8695090">
        <ele>1289.6</ele>
        <time>2022-07-24T14:29:19Z</time>
      </trkpt>
      <trkpt lat="46.2696320" lon="5.8694320">
        <ele>1289.2</ele>
        <time>2022-07-24T14:29:20Z</time>
      </trkpt>
      <trkpt lat="46.2694960" lon="5.8692560">
        <ele>1288.0</ele>
        <time>2022-07-24T14:29:23Z</time>
      </trkpt>
      <trkpt lat="46.2693640" lon="5.8692200">
        <ele>1287.0</ele>
        <time>2022-07-24T14:29:25Z</time>
      </trkpt>
      <trkpt lat="46.2692960" lon="5.8692220">
        <ele>1286.4</ele>
        <time>2022-07-24T14:29:26Z</time>
      </trkpt>
      <trkpt lat="46.2691690" lon="5.8692630">
        <ele>1285.2</ele>
        <time>2022-07-24T14:29:28Z</time>
      </trkpt>
      <trkpt lat="46.2690640" lon="5.8693550">
        <ele>1284.6</ele>
        <time>2022-07-24T14:29:30Z</time>
      </trkpt>
      <trkpt lat="46.2690140" lon="5.8694140">
        <ele>1284.2</ele>
        <time>2022-07-24T14:29:31Z</time>
      </trkpt>
      <trkpt lat="46.2689660" lon="5.8694740">
        <ele>1284.0</ele>
        <time>2022-07-24T14:29:32Z</time>
      </trkpt>
      <trkpt lat="46.2687180" lon="5.8697590">
        <ele>1283.2</ele>
        <time>2022-07-24T14:29:37Z</time>
      </trkpt>
      <trkpt lat="46.2686610" lon="5.8697960">
        <ele>1283.0</ele>
        <time>2022-07-24T14:29:38Z</time>
      </trkpt>
      <trkpt lat="46.2684890" lon="5.8698520">
        <ele>1282.4</ele>
        <time>2022-07-24T14:29:41Z</time>
      </trkpt>
      <trkpt lat="46.2683910" lon="5.8698540">
        <ele>1282.0</ele>
        <time>2022-07-24T14:29:43Z</time>
      </trkpt>
      <trkpt lat="46.2682740" lon="5.8698460">
        <ele>1281.6</ele>
        <time>2022-07-24T14:29:46Z</time>
      </trkpt>
      <trkpt lat="46.2682080" lon="5.8698370">
        <ele>1281.6</ele>
        <time>2022-07-24T14:29:48Z</time>
      </trkpt>
      <trkpt lat="46.2680710" lon="5.8698120">
        <ele>1281.6</ele>
        <time>2022-07-24T14:29:53Z</time>
      </trkpt>
      <trkpt lat="46.2679070" lon="5.8697340">
        <ele>1282.8</ele>
        <time>2022-07-24T14:30:00Z</time>
      </trkpt>
      <trkpt lat="46.2678890" lon="5.8697210">
        <ele>1283.0</ele>
        <time>2022-07-24T14:30:01Z</time>
      </trkpt>
      <trkpt lat="46.2678230" lon="5.8696470">
        <ele>1283.8</ele>
        <time>2022-07-24T14:30:06Z</time>
      </trkpt>
      <trkpt lat="46.2678000" lon="5.8696130">
        <ele>1284.2</ele>
        <time>2022-07-24T14:30:08Z</time>
      </trkpt>
      <trkpt lat="46.2677560" lon="5.8695380">
        <ele>1284.8</ele>
        <time>2022-07-24T14:30:12Z</time>
      </trkpt>
      <trkpt lat="46.2677350" lon="5.8694960">
        <ele>1285.2</ele>
        <time>2022-07-24T14:30:14Z</time>
      </trkpt>
      <trkpt lat="46.2677220" lon="5.8694790">
        <ele>1285.4</ele>
        <time>2022-07-24T14:30:15Z</time>
      </trkpt>
      <trkpt lat="46.2676780" lon="5.8694000">
        <ele>1286.0</ele>
        <time>2022-07-24T14:30:19Z</time>
      </trkpt>
      <trkpt lat="46.2676500" lon="5.8693580">
        <ele>1286.4</ele>
        <time>2022-07-24T14:30:21Z</time>
      </trkpt>
      <trkpt lat="46.2675740" lon="5.8692800">
        <ele>1287.2</ele>
        <time>2022-07-24T14:30:26Z</time>
      </trkpt>
      <trkpt lat="46.2675550" lon="5.8692650">
        <ele>1287.4</ele>
        <time>2022-07-24T14:30:27Z</time>
      </trkpt>
      <trkpt lat="46.2674140" lon="5.8692210">
        <ele>1288.2</ele>
        <time>2022-07-24T14:30:34Z</time>
      </trkpt>
      <trkpt lat="46.2673580" lon="5.8692120">
        <ele>1288.6</ele>
        <time>2022-07-24T14:30:37Z</time>
      </trkpt>
      <trkpt lat="46.2672750" lon="5.8692050">
        <ele>1289.0</ele>
        <time>2022-07-24T14:30:41Z</time>
      </trkpt>
      <trkpt lat="46.2672190" lon="5.8692100">
        <ele>1289.6</ele>
        <time>2022-07-24T14:30:44Z</time>
      </trkpt>
      <trkpt lat="46.2671470" lon="5.8692110">
        <ele>1290.0</ele>
        <time>2022-07-24T14:30:48Z</time>
      </trkpt>
      <trkpt lat="46.2670910" lon="5.8691980">
        <ele>1290.6</ele>
        <time>2022-07-24T14:30:51Z</time>
      </trkpt>
      <trkpt lat="46.2669940" lon="5.8691590">
        <ele>1291.4</ele>
        <time>2022-07-24T14:30:56Z</time>
      </trkpt>
      <trkpt lat="46.2669730" lon="5.8691480">
        <ele>1291.6</ele>
        <time>2022-07-24T14:30:57Z</time>
      </trkpt>
      <trkpt lat="46.2668310" lon="5.8691250">
        <ele>1292.4</ele>
        <time>2022-07-24T14:31:04Z</time>
      </trkpt>
      <trkpt lat="46.2668120" lon="5.8691250">
        <ele>1292.6</ele>
        <time>2022-07-24T14:31:05Z</time>
      </trkpt>
      <trkpt lat="46.2666840" lon="5.8691040">
        <ele>1293.6</ele>
        <time>2022-07-24T14:31:12Z</time>
      </trkpt>
      <trkpt lat="46.2665150" lon="5.8691210">
        <ele>1294.2</ele>
        <time>2022-07-24T14:31:21Z</time>
      </trkpt>
      <trkpt lat="46.2664780" lon="5.8691280">
        <ele>1294.6</ele>
        <time>2022-07-24T14:31:23Z</time>
      </trkpt>
      <trkpt lat="46.2664010" lon="5.8691340">
        <ele>1294.8</ele>
        <time>2022-07-24T14:31:27Z</time>
      </trkpt>
      <trkpt lat="46.2662770" lon="5.8691290">
        <ele>1295.6</ele>
        <time>2022-07-24T14:31:34Z</time>
      </trkpt>
      <trkpt lat="46.2660990" lon="5.8691050">
        <ele>1296.4</ele>
        <time>2022-07-24T14:31:42Z</time>
      </trkpt>
      <trkpt lat="46.2660310" lon="5.8690920">
        <ele>1296.6</ele>
        <time>2022-07-24T14:31:45Z</time>
      </trkpt>
      <trkpt lat="46.2659690" lon="5.8690750">
        <ele>1297.0</ele>
        <time>2022-07-24T14:31:48Z</time>
      </trkpt>
      <trkpt lat="46.2658470" lon="5.8690520">
        <ele>1297.8</ele>
        <time>2022-07-24T14:31:54Z</time>
      </trkpt>
      <trkpt lat="46.2657290" lon="5.8690410">
        <ele>1298.6</ele>
        <time>2022-07-24T14:32:01Z</time>
      </trkpt>
      <trkpt lat="46.2657140" lon="5.8690380">
        <ele>1298.8</ele>
        <time>2022-07-24T14:32:02Z</time>
      </trkpt>
      <trkpt lat="46.2656340" lon="5.8690020">
        <ele>1299.2</ele>
        <time>2022-07-24T14:32:07Z</time>
      </trkpt>
      <trkpt lat="46.2655140" lon="5.8689750">
        <ele>1299.0</ele>
        <time>2022-07-24T14:32:13Z</time>
      </trkpt>
      <trkpt lat="46.2654020" lon="5.8689560">
        <ele>1299.2</ele>
        <time>2022-07-24T14:32:20Z</time>
      </trkpt>
      <trkpt lat="46.2653810" lon="5.8689510">
        <ele>1299.2</ele>
        <time>2022-07-24T14:32:23Z</time>
      </trkpt>
      <trkpt lat="46.2654430" lon="5.8690040">
        <ele>1299.2</ele>
        <time>2022-07-24T14:36:23Z</time>
      </trkpt>
      <trkpt lat="46.2655650" lon="5.8690190">
        <ele>1299.4</ele>
        <time>2022-07-24T14:36:30Z</time>
      </trkpt>
      <trkpt lat="46.2656110" lon="5.8690470">
        <ele>1299.4</ele>
        <time>2022-07-24T14:36:33Z</time>
      </trkpt>
      <trkpt lat="46.2656120" lon="5.8690780">
        <ele>1299.4</ele>
        <time>2022-07-24T14:36:35Z</time>
      </trkpt>
      <trkpt lat="46.2655260" lon="5.8691250">
        <ele>1299.6</ele>
        <time>2022-07-24T14:36:40Z</time>
      </trkpt>
      <trkpt lat="46.2653740" lon="5.8691840">
        <ele>1299.6</ele>
        <time>2022-07-24T14:36:46Z</time>
      </trkpt>
      <trkpt lat="46.2651470" lon="5.8692840">
        <ele>1299.6</ele>
        <time>2022-07-24T14:36:53Z</time>
      </trkpt>
      <trkpt lat="46.2649410" lon="5.8694450">
        <ele>1299.0</ele>
        <time>2022-07-24T14:36:59Z</time>
      </trkpt>
      <trkpt lat="46.2648720" lon="5.8695440">
        <ele>1298.4</ele>
        <time>2022-07-24T14:37:04Z</time>
      </trkpt>
      <trkpt lat="46.2648610" lon="5.8695820">
        <ele>1298.0</ele>
        <time>2022-07-24T14:37:09Z</time>
      </trkpt>
      <trkpt lat="46.2648720" lon="5.8695480">
        <ele>1297.6</ele>
        <time>2022-07-24T14:39:37Z</time>
      </trkpt>
      <trkpt lat="46.2648810" lon="5.8695320">
        <ele>1297.6</ele>
        <time>2022-07-24T14:39:38Z</time>
      </trkpt>
      <trkpt lat="46.2649800" lon="5.8693990">
        <ele>1297.6</ele>
        <time>2022-07-24T14:39:44Z</time>
      </trkpt>
      <trkpt lat="46.2650970" lon="5.8692970">
        <ele>1297.4</ele>
        <time>2022-07-24T14:39:50Z</time>
      </trkpt>
      <trkpt lat="46.2651250" lon="5.8691910">
        <ele>1297.4</ele>
        <time>2022-07-24T14:39:54Z</time>
      </trkpt>
      <trkpt lat="46.2651450" lon="5.8691440">
        <ele>1297.4</ele>
        <time>2022-07-24T14:39:56Z</time>
      </trkpt>
      <trkpt lat="46.2651680" lon="5.8690600">
        <ele>1297.4</ele>
        <time>2022-07-24T14:39:59Z</time>
      </trkpt>
      <trkpt lat="46.2651550" lon="5.8689870">
        <ele>1297.8</ele>
        <time>2022-07-24T14:40:01Z</time>
      </trkpt>
      <trkpt lat="46.2651160" lon="5.8689220">
        <ele>1297.8</ele>
        <time>2022-07-24T14:40:03Z</time>
      </trkpt>
      <trkpt lat="46.2650520" lon="5.8688440">
        <ele>1297.8</ele>
        <time>2022-07-24T14:40:06Z</time>
      </trkpt>
      <trkpt lat="46.2649000" lon="5.8686320">
        <ele>1297.4</ele>
        <time>2022-07-24T14:40:13Z</time>
      </trkpt>
      <trkpt lat="46.2647530" lon="5.8684400">
        <ele>1297.2</ele>
        <time>2022-07-24T14:40:18Z</time>
      </trkpt>
      <trkpt lat="46.2647180" lon="5.8684020">
        <ele>1297.2</ele>
        <time>2022-07-24T14:40:19Z</time>
      </trkpt>
      <trkpt lat="46.2645170" lon="5.8682230">
        <ele>1296.6</ele>
        <time>2022-07-24T14:40:25Z</time>
      </trkpt>
      <trkpt lat="46.2644890" lon="5.8682040">
        <ele>1296.4</ele>
        <time>2022-07-24T14:40:26Z</time>
      </trkpt>
      <trkpt lat="46.2643620" lon="5.8680770">
        <ele>1295.8</ele>
        <time>2022-07-24T14:40:32Z</time>
      </trkpt>
      <trkpt lat="46.2642690" lon="5.8679530">
        <ele>1295.6</ele>
        <time>2022-07-24T14:40:37Z</time>
      </trkpt>
      <trkpt lat="46.2641640" lon="5.8676900">
        <ele>1295.8</ele>
        <time>2022-07-24T14:40:45Z</time>
      </trkpt>
      <trkpt lat="46.2641070" lon="5.8674750">
        <ele>1296.0</ele>
        <time>2022-07-24T14:40:51Z</time>
      </trkpt>
      <trkpt lat="46.2640670" lon="5.8672300">
        <ele>1296.4</ele>
        <time>2022-07-24T14:40:58Z</time>
      </trkpt>
      <trkpt lat="46.2640540" lon="5.8670740">
        <ele>1296.8</ele>
        <time>2022-07-24T14:41:03Z</time>
      </trkpt>
      <trkpt lat="46.2640420" lon="5.8668290">
        <ele>1297.2</ele>
        <time>2022-07-24T14:41:10Z</time>
      </trkpt>
      <trkpt lat="46.2640290" lon="5.8666850">
        <ele>1297.4</ele>
        <time>2022-07-24T14:41:14Z</time>
      </trkpt>
      <trkpt lat="46.2640150" lon="5.8666330">
        <ele>1297.6</ele>
        <time>2022-07-24T14:41:16Z</time>
      </trkpt>
      <trkpt lat="46.2639640" lon="5.8664790">
        <ele>1297.8</ele>
        <time>2022-07-24T14:41:22Z</time>
      </trkpt>
      <trkpt lat="46.2639300" lon="5.8664080">
        <ele>1298.0</ele>
        <time>2022-07-24T14:41:25Z</time>
      </trkpt>
      <trkpt lat="46.2639090" lon="5.8663470">
        <ele>1298.2</ele>
        <time>2022-07-24T14:41:28Z</time>
      </trkpt>
      <trkpt lat="46.2639060" lon="5.8663190">
        <ele>1298.4</ele>
        <time>2022-07-24T14:41:29Z</time>
      </trkpt>
      <trkpt lat="46.2639020" lon="5.8662360">
        <ele>1298.8</ele>
        <time>2022-07-24T14:41:32Z</time>
      </trkpt>
      <trkpt lat="46.2638910" lon="5.8661980">
        <ele>1299.2</ele>
        <time>2022-07-24T14:41:34Z</time>
      </trkpt>
      <trkpt lat="46.2638740" lon="5.8661470">
        <ele>1299.4</ele>
        <time>2022-07-24T14:41:36Z</time>
      </trkpt>
      <trkpt lat="46.2638220" lon="5.8660240">
        <ele>1300.0</ele>
        <time>2022-07-24T14:41:41Z</time>
      </trkpt>
      <trkpt lat="46.2637650" lon="5.8659360">
        <ele>1300.4</ele>
        <time>2022-07-24T14:41:45Z</time>
      </trkpt>
      <trkpt lat="46.2636630" lon="5.8658350">
        <ele>1301.4</ele>
        <time>2022-07-24T14:41:50Z</time>
      </trkpt>
      <trkpt lat="46.2636440" lon="5.8658170">
        <ele>1301.6</ele>
        <time>2022-07-24T14:41:51Z</time>
      </trkpt>
      <trkpt lat="46.2635290" lon="5.8656670">
        <ele>1302.4</ele>
        <time>2022-07-24T14:41:59Z</time>
      </trkpt>
      <trkpt lat="46.2634770" lon="5.8654920">
        <ele>1303.6</ele>
        <time>2022-07-24T14:42:06Z</time>
      </trkpt>
      <trkpt lat="46.2634600" lon="5.8653360">
        <ele>1304.4</ele>
        <time>2022-07-24T14:42:13Z</time>
      </trkpt>
      <trkpt lat="46.2634440" lon="5.8652960">
        <ele>1304.8</ele>
        <time>2022-07-24T14:42:15Z</time>
      </trkpt>
      <trkpt lat="46.2634180" lon="5.8651870">
        <ele>1305.2</ele>
        <time>2022-07-24T14:42:19Z</time>
      </trkpt>
      <trkpt lat="46.2633810" lon="5.8650440">
        <ele>1305.8</ele>
        <time>2022-07-24T14:42:24Z</time>
      </trkpt>
      <trkpt lat="46.2633780" lon="5.8650100">
        <ele>1305.8</ele>
        <time>2022-07-24T14:42:25Z</time>
      </trkpt>
      <trkpt lat="46.2633510" lon="5.8648410">
        <ele>1306.4</ele>
        <time>2022-07-24T14:42:31Z</time>
      </trkpt>
      <trkpt lat="46.2633300" lon="5.8647520">
        <ele>1306.8</ele>
        <time>2022-07-24T14:42:35Z</time>
      </trkpt>
      <trkpt lat="46.2633310" lon="5.8646650">
        <ele>1307.2</ele>
        <time>2022-07-24T14:42:38Z</time>
      </trkpt>
      <trkpt lat="46.2633650" lon="5.8644680">
        <ele>1308.0</ele>
        <time>2022-07-24T14:42:44Z</time>
      </trkpt>
      <trkpt lat="46.2633870" lon="5.8643990">
        <ele>1308.2</ele>
        <time>2022-07-24T14:42:46Z</time>
      </trkpt>
      <trkpt lat="46.2634120" lon="5.8642130">
        <ele>1308.6</ele>
        <time>2022-07-24T14:42:51Z</time>
      </trkpt>
      <trkpt lat="46.2633520" lon="5.8639140">
        <ele>1308.6</ele>
        <time>2022-07-24T14:42:57Z</time>
      </trkpt>
      <trkpt lat="46.2632800" lon="5.8636150">
        <ele>1308.6</ele>
        <time>2022-07-24T14:43:03Z</time>
      </trkpt>
      <trkpt lat="46.2632250" lon="5.8633980">
        <ele>1308.6</ele>
        <time>2022-07-24T14:43:08Z</time>
      </trkpt>
      <trkpt lat="46.2630520" lon="5.8631710">
        <ele>1308.4</ele>
        <time>2022-07-24T14:43:14Z</time>
      </trkpt>
      <trkpt lat="46.2630260" lon="5.8631130">
        <ele>1308.4</ele>
        <time>2022-07-24T14:43:15Z</time>
      </trkpt>
      <trkpt lat="46.2629490" lon="5.8628810">
        <ele>1308.4</ele>
        <time>2022-07-24T14:43:19Z</time>
      </trkpt>
      <trkpt lat="46.2628720" lon="5.8626330">
        <ele>1308.4</ele>
        <time>2022-07-24T14:43:24Z</time>
      </trkpt>
      <trkpt lat="46.2627790" lon="5.8625180">
        <ele>1308.2</ele>
        <time>2022-07-24T14:43:27Z</time>
      </trkpt>
      <trkpt lat="46.2627020" lon="5.8624570">
        <ele>1308.2</ele>
        <time>2022-07-24T14:43:29Z</time>
      </trkpt>
      <trkpt lat="46.2625200" lon="5.8622750">
        <ele>1308.0</ele>
        <time>2022-07-24T14:43:34Z</time>
      </trkpt>
      <trkpt lat="46.2624470" lon="5.8622080">
        <ele>1308.0</ele>
        <time>2022-07-24T14:43:36Z</time>
      </trkpt>
      <trkpt lat="46.2624080" lon="5.8621700">
        <ele>1308.0</ele>
        <time>2022-07-24T14:43:37Z</time>
      </trkpt>
      <trkpt lat="46.2623310" lon="5.8619570">
        <ele>1308.0</ele>
        <time>2022-07-24T14:43:40Z</time>
      </trkpt>
      <trkpt lat="46.2622960" lon="5.8618120">
        <ele>1307.8</ele>
        <time>2022-07-24T14:43:42Z</time>
      </trkpt>
      <trkpt lat="46.2622840" lon="5.8617370">
        <ele>1307.8</ele>
        <time>2022-07-24T14:43:43Z</time>
      </trkpt>
      <trkpt lat="46.2622710" lon="5.8615600">
        <ele>1307.8</ele>
        <time>2022-07-24T14:43:45Z</time>
      </trkpt>
      <trkpt lat="46.2622790" lon="5.8613360">
        <ele>1307.2</ele>
        <time>2022-07-24T14:43:48Z</time>
      </trkpt>
      <trkpt lat="46.2622990" lon="5.8611680">
        <ele>1307.0</ele>
        <time>2022-07-24T14:43:50Z</time>
      </trkpt>
      <trkpt lat="46.2623390" lon="5.8609470">
        <ele>1306.4</ele>
        <time>2022-07-24T14:43:53Z</time>
      </trkpt>
      <trkpt lat="46.2623800" lon="5.8607550">
        <ele>1305.6</ele>
        <time>2022-07-24T14:43:56Z</time>
      </trkpt>
      <trkpt lat="46.2623890" lon="5.8606910">
        <ele>1305.4</ele>
        <time>2022-07-24T14:43:57Z</time>
      </trkpt>
      <trkpt lat="46.2623920" lon="5.8606150">
        <ele>1305.2</ele>
        <time>2022-07-24T14:43:58Z</time>
      </trkpt>
      <trkpt lat="46.2623770" lon="5.8603740">
        <ele>1304.8</ele>
        <time>2022-07-24T14:44:01Z</time>
      </trkpt>
      <trkpt lat="46.2623160" lon="5.8601720">
        <ele>1304.6</ele>
        <time>2022-07-24T14:44:04Z</time>
      </trkpt>
      <trkpt lat="46.2622880" lon="5.8601160">
        <ele>1304.4</ele>
        <time>2022-07-24T14:44:05Z</time>
      </trkpt>
      <trkpt lat="46.2621850" lon="5.8600440">
        <ele>1304.0</ele>
        <time>2022-07-24T14:44:08Z</time>
      </trkpt>
      <trkpt lat="46.2621530" lon="5.8600360">
        <ele>1304.0</ele>
        <time>2022-07-24T14:44:09Z</time>
      </trkpt>
      <trkpt lat="46.2620900" lon="5.8600310">
        <ele>1303.8</ele>
        <time>2022-07-24T14:44:11Z</time>
      </trkpt>
      <trkpt lat="46.2619570" lon="5.8599860">
        <ele>1303.6</ele>
        <time>2022-07-24T14:44:15Z</time>
      </trkpt>
      <trkpt lat="46.2618800" lon="5.8599260">
        <ele>1302.8</ele>
        <time>2022-07-24T14:44:18Z</time>
      </trkpt>
      <trkpt lat="46.2618020" lon="5.8598190">
        <ele>1302.2</ele>
        <time>2022-07-24T14:44:21Z</time>
      </trkpt>
      <trkpt lat="46.2617520" lon="5.8597070">
        <ele>1302.2</ele>
        <time>2022-07-24T14:44:23Z</time>
      </trkpt>
      <trkpt lat="46.2616890" lon="5.8595240">
        <ele>1302.0</ele>
        <time>2022-07-24T14:44:26Z</time>
      </trkpt>
      <trkpt lat="46.2616460" lon="5.8593910">
        <ele>1301.8</ele>
        <time>2022-07-24T14:44:28Z</time>
      </trkpt>
      <trkpt lat="46.2615390" lon="5.8590540">
        <ele>1301.0</ele>
        <time>2022-07-24T14:44:32Z</time>
      </trkpt>
      <trkpt lat="46.2614770" lon="5.8588710">
        <ele>1300.6</ele>
        <time>2022-07-24T14:44:34Z</time>
      </trkpt>
      <trkpt lat="46.2613280" lon="5.8584300">
        <ele>1299.2</ele>
        <time>2022-07-24T14:44:39Z</time>
      </trkpt>
      <trkpt lat="46.2612320" lon="5.8581090">
        <ele>1298.2</ele>
        <time>2022-07-24T14:44:43Z</time>
      </trkpt>
      <trkpt lat="46.2611900" lon="5.8579350">
        <ele>1297.8</ele>
        <time>2022-07-24T14:44:45Z</time>
      </trkpt>
      <trkpt lat="46.2611210" lon="5.8576880">
        <ele>1297.0</ele>
        <time>2022-07-24T14:44:48Z</time>
      </trkpt>
      <trkpt lat="46.2610920" lon="5.8576190">
        <ele>1296.6</ele>
        <time>2022-07-24T14:44:49Z</time>
      </trkpt>
      <trkpt lat="46.2610600" lon="5.8575630">
        <ele>1296.0</ele>
        <time>2022-07-24T14:44:50Z</time>
      </trkpt>
      <trkpt lat="46.2609390" lon="5.8574610">
        <ele>1295.2</ele>
        <time>2022-07-24T14:44:53Z</time>
      </trkpt>
      <trkpt lat="46.2608880" lon="5.8574470">
        <ele>1295.0</ele>
        <time>2022-07-24T14:44:54Z</time>
      </trkpt>
      <trkpt lat="46.2607030" lon="5.8574230">
        <ele>1293.8</ele>
        <time>2022-07-24T14:44:57Z</time>
      </trkpt>
      <trkpt lat="46.2605760" lon="5.8574210">
        <ele>1292.8</ele>
        <time>2022-07-24T14:44:59Z</time>
      </trkpt>
      <trkpt lat="46.2603860" lon="5.8574030">
        <ele>1291.6</ele>
        <time>2022-07-24T14:45:02Z</time>
      </trkpt>
      <trkpt lat="46.2603260" lon="5.8573840">
        <ele>1291.2</ele>
        <time>2022-07-24T14:45:03Z</time>
      </trkpt>
      <trkpt lat="46.2601190" lon="5.8572160">
        <ele>1290.6</ele>
        <time>2022-07-24T14:45:07Z</time>
      </trkpt>
      <trkpt lat="46.2600730" lon="5.8570260">
        <ele>1290.4</ele>
        <time>2022-07-24T14:45:10Z</time>
      </trkpt>
      <trkpt lat="46.2600710" lon="5.8569660">
        <ele>1290.4</ele>
        <time>2022-07-24T14:45:11Z</time>
      </trkpt>
      <trkpt lat="46.2600630" lon="5.8567210">
        <ele>1290.4</ele>
        <time>2022-07-24T14:45:16Z</time>
      </trkpt>
      <trkpt lat="46.2600390" lon="5.8563730">
        <ele>1291.4</ele>
        <time>2022-07-24T14:45:24Z</time>
      </trkpt>
      <trkpt lat="46.2599800" lon="5.8561400">
        <ele>1292.4</ele>
        <time>2022-07-24T14:45:30Z</time>
      </trkpt>
      <trkpt lat="46.2599590" lon="5.8559390">
        <ele>1293.4</ele>
        <time>2022-07-24T14:45:36Z</time>
      </trkpt>
      <trkpt lat="46.2599580" lon="5.8559090">
        <ele>1293.4</ele>
        <time>2022-07-24T14:45:37Z</time>
      </trkpt>
      <trkpt lat="46.2599640" lon="5.8557180">
        <ele>1294.2</ele>
        <time>2022-07-24T14:45:43Z</time>
      </trkpt>
      <trkpt lat="46.2599700" lon="5.8556580">
        <ele>1294.4</ele>
        <time>2022-07-24T14:45:45Z</time>
      </trkpt>
      <trkpt lat="46.2599810" lon="5.8554650">
        <ele>1295.2</ele>
        <time>2022-07-24T14:45:51Z</time>
      </trkpt>
      <trkpt lat="46.2599690" lon="5.8553710">
        <ele>1295.6</ele>
        <time>2022-07-24T14:45:54Z</time>
      </trkpt>
      <trkpt lat="46.2599430" lon="5.8552970">
        <ele>1295.8</ele>
        <time>2022-07-24T14:45:57Z</time>
      </trkpt>
      <trkpt lat="46.2598590" lon="5.8551600">
        <ele>1296.6</ele>
        <time>2022-07-24T14:46:02Z</time>
      </trkpt>
      <trkpt lat="46.2597420" lon="5.8550080">
        <ele>1297.0</ele>
        <time>2022-07-24T14:46:08Z</time>
      </trkpt>
      <trkpt lat="46.2595890" lon="5.8549180">
        <ele>1297.6</ele>
        <time>2022-07-24T14:46:14Z</time>
      </trkpt>
      <trkpt lat="46.2595650" lon="5.8549150">
        <ele>1297.6</ele>
        <time>2022-07-24T14:46:15Z</time>
      </trkpt>
      <trkpt lat="46.2593630" lon="5.8549390">
        <ele>1298.0</ele>
        <time>2022-07-24T14:46:22Z</time>
      </trkpt>
      <trkpt lat="46.2592290" lon="5.8549320">
        <ele>1298.8</ele>
        <time>2022-07-24T14:46:27Z</time>
      </trkpt>
      <trkpt lat="46.2591790" lon="5.8549280">
        <ele>1299.0</ele>
        <time>2022-07-24T14:46:29Z</time>
      </trkpt>
      <trkpt lat="46.2589700" lon="5.8549120">
        <ele>1299.8</ele>
        <time>2022-07-24T14:46:36Z</time>
      </trkpt>
      <trkpt lat="46.2587560" lon="5.8548700">
        <ele>1300.4</ele>
        <time>2022-07-24T14:46:43Z</time>
      </trkpt>
      <trkpt lat="46.2586320" lon="5.8547840">
        <ele>1301.0</ele>
        <time>2022-07-24T14:46:48Z</time>
      </trkpt>
      <trkpt lat="46.2585890" lon="5.8547280">
        <ele>1301.2</ele>
        <time>2022-07-24T14:46:50Z</time>
      </trkpt>
      <trkpt lat="46.2584210" lon="5.8544190">
        <ele>1302.2</ele>
        <time>2022-07-24T14:46:58Z</time>
      </trkpt>
      <trkpt lat="46.2583220" lon="5.8542390">
        <ele>1302.6</ele>
        <time>2022-07-24T14:47:03Z</time>
      </trkpt>
      <trkpt lat="46.2581980" lon="5.8540550">
        <ele>1303.2</ele>
        <time>2022-07-24T14:47:09Z</time>
      </trkpt>
      <trkpt lat="46.2580300" lon="5.8538590">
        <ele>1304.2</ele>
        <time>2022-07-24T14:47:16Z</time>
      </trkpt>
      <trkpt lat="46.2579750" lon="5.8538120">
        <ele>1304.4</ele>
        <time>2022-07-24T14:47:18Z</time>
      </trkpt>
      <trkpt lat="46.2578620" lon="5.8537170">
        <ele>1304.8</ele>
        <time>2022-07-24T14:47:22Z</time>
      </trkpt>
      <trkpt lat="46.2577730" lon="5.8536340">
        <ele>1305.4</ele>
        <time>2022-07-24T14:47:26Z</time>
      </trkpt>
      <trkpt lat="46.2576500" lon="5.8535150">
        <ele>1306.2</ele>
        <time>2022-07-24T14:47:31Z</time>
      </trkpt>
      <trkpt lat="46.2575770" lon="5.8534520">
        <ele>1306.4</ele>
        <time>2022-07-24T14:47:34Z</time>
      </trkpt>
      <trkpt lat="46.2574810" lon="5.8533920">
        <ele>1306.8</ele>
        <time>2022-07-24T14:47:38Z</time>
      </trkpt>
      <trkpt lat="46.2573750" lon="5.8533170">
        <ele>1307.4</ele>
        <time>2022-07-24T14:47:42Z</time>
      </trkpt>
      <trkpt lat="46.2573070" lon="5.8532260">
        <ele>1307.8</ele>
        <time>2022-07-24T14:47:45Z</time>
      </trkpt>
      <trkpt lat="46.2572130" lon="5.8530120">
        <ele>1308.4</ele>
        <time>2022-07-24T14:47:50Z</time>
      </trkpt>
      <trkpt lat="46.2571240" lon="5.8527540">
        <ele>1309.4</ele>
        <time>2022-07-24T14:47:56Z</time>
      </trkpt>
      <trkpt lat="46.2570270" lon="5.8525020">
        <ele>1309.8</ele>
        <time>2022-07-24T14:48:02Z</time>
      </trkpt>
      <trkpt lat="46.2569160" lon="5.8522970">
        <ele>1310.4</ele>
        <time>2022-07-24T14:48:07Z</time>
      </trkpt>
      <trkpt lat="46.2568660" lon="5.8522340">
        <ele>1310.6</ele>
        <time>2022-07-24T14:48:09Z</time>
      </trkpt>
      <trkpt lat="46.2566790" lon="5.8520740">
        <ele>1311.2</ele>
        <time>2022-07-24T14:48:16Z</time>
      </trkpt>
      <trkpt lat="46.2566260" lon="5.8520350">
        <ele>1311.6</ele>
        <time>2022-07-24T14:48:18Z</time>
      </trkpt>
      <trkpt lat="46.2564800" lon="5.8519670">
        <ele>1312.2</ele>
        <time>2022-07-24T14:48:23Z</time>
      </trkpt>
      <trkpt lat="46.2563940" lon="5.8519250">
        <ele>1312.6</ele>
        <time>2022-07-24T14:48:26Z</time>
      </trkpt>
      <trkpt lat="46.2562490" lon="5.8518380">
        <ele>1312.8</ele>
        <time>2022-07-24T14:48:31Z</time>
      </trkpt>
      <trkpt lat="46.2560900" lon="5.8517290">
        <ele>1313.2</ele>
        <time>2022-07-24T14:48:37Z</time>
      </trkpt>
      <trkpt lat="46.2560690" lon="5.8517100">
        <ele>1313.4</ele>
        <time>2022-07-24T14:48:38Z</time>
      </trkpt>
      <trkpt lat="46.2558920" lon="5.8515310">
        <ele>1314.2</ele>
        <time>2022-07-24T14:48:45Z</time>
      </trkpt>
      <trkpt lat="46.2558450" lon="5.8514640">
        <ele>1314.6</ele>
        <time>2022-07-24T14:48:47Z</time>
      </trkpt>
      <trkpt lat="46.2557230" lon="5.8513070">
        <ele>1315.4</ele>
        <time>2022-07-24T14:48:52Z</time>
      </trkpt>
      <trkpt lat="46.2556060" lon="5.8512320">
        <ele>1315.4</ele>
        <time>2022-07-24T14:48:56Z</time>
      </trkpt>
      <trkpt lat="46.2555470" lon="5.8512030">
        <ele>1315.6</ele>
        <time>2022-07-24T14:48:58Z</time>
      </trkpt>
      <trkpt lat="46.2553760" lon="5.8511460">
        <ele>1316.0</ele>
        <time>2022-07-24T14:49:04Z</time>
      </trkpt>
      <trkpt lat="46.2552490" lon="5.8511210">
        <ele>1316.4</ele>
        <time>2022-07-24T14:49:08Z</time>
      </trkpt>
      <trkpt lat="46.2551630" lon="5.8510890">
        <ele>1316.6</ele>
        <time>2022-07-24T14:49:11Z</time>
      </trkpt>
      <trkpt lat="46.2549060" lon="5.8509980">
        <ele>1317.2</ele>
        <time>2022-07-24T14:49:19Z</time>
      </trkpt>
      <trkpt lat="46.2548170" lon="5.8509620">
        <ele>1317.6</ele>
        <time>2022-07-24T14:49:22Z</time>
      </trkpt>
      <trkpt lat="46.2546640" lon="5.8508880">
        <ele>1318.0</ele>
        <time>2022-07-24T14:49:27Z</time>
      </trkpt>
      <trkpt lat="46.2545750" lon="5.8508470">
        <ele>1318.4</ele>
        <time>2022-07-24T14:49:30Z</time>
      </trkpt>
      <trkpt lat="46.2544870" lon="5.8508050">
        <ele>1318.6</ele>
        <time>2022-07-24T14:49:33Z</time>
      </trkpt>
      <trkpt lat="46.2542740" lon="5.8507680">
        <ele>1319.2</ele>
        <time>2022-07-24T14:49:40Z</time>
      </trkpt>
      <trkpt lat="46.2542080" lon="5.8507440">
        <ele>1319.4</ele>
        <time>2022-07-24T14:49:42Z</time>
      </trkpt>
      <trkpt lat="46.2540780" lon="5.8506200">
        <ele>1320.2</ele>
        <time>2022-07-24T14:49:47Z</time>
      </trkpt>
      <trkpt lat="46.2540330" lon="5.8505540">
        <ele>1320.2</ele>
        <time>2022-07-24T14:49:49Z</time>
      </trkpt>
      <trkpt lat="46.2538880" lon="5.8503570">
        <ele>1321.2</ele>
        <time>2022-07-24T14:49:55Z</time>
      </trkpt>
      <trkpt lat="46.2538610" lon="5.8503180">
        <ele>1321.2</ele>
        <time>2022-07-24T14:49:56Z</time>
      </trkpt>
      <trkpt lat="46.2536820" lon="5.8500790">
        <ele>1321.6</ele>
        <time>2022-07-24T14:50:02Z</time>
      </trkpt>
      <trkpt lat="46.2534870" lon="5.8498070">
        <ele>1321.6</ele>
        <time>2022-07-24T14:50:07Z</time>
      </trkpt>
      <trkpt lat="46.2532390" lon="5.8494890">
        <ele>1321.0</ele>
        <time>2022-07-24T14:50:12Z</time>
      </trkpt>
      <trkpt lat="46.2530710" lon="5.8492700">
        <ele>1319.8</ele>
        <time>2022-07-24T14:50:15Z</time>
      </trkpt>
      <trkpt lat="46.2529440" lon="5.8491250">
        <ele>1319.0</ele>
        <time>2022-07-24T14:50:17Z</time>
      </trkpt>
      <trkpt lat="46.2528810" lon="5.8490480">
        <ele>1318.8</ele>
        <time>2022-07-24T14:50:18Z</time>
      </trkpt>
      <trkpt lat="46.2526910" lon="5.8488150">
        <ele>1317.2</ele>
        <time>2022-07-24T14:50:21Z</time>
      </trkpt>
      <trkpt lat="46.2525560" lon="5.8486350">
        <ele>1316.0</ele>
        <time>2022-07-24T14:50:23Z</time>
      </trkpt>
      <trkpt lat="46.2524180" lon="5.8484510">
        <ele>1315.0</ele>
        <time>2022-07-24T14:50:25Z</time>
      </trkpt>
      <trkpt lat="46.2522840" lon="5.8482620">
        <ele>1313.8</ele>
        <time>2022-07-24T14:50:27Z</time>
      </trkpt>
      <trkpt lat="46.2521460" lon="5.8480700">
        <ele>1312.4</ele>
        <time>2022-07-24T14:50:29Z</time>
      </trkpt>
      <trkpt lat="46.2520100" lon="5.8478800">
        <ele>1311.2</ele>
        <time>2022-07-24T14:50:31Z</time>
      </trkpt>
      <trkpt lat="46.2518770" lon="5.8476990">
        <ele>1310.0</ele>
        <time>2022-07-24T14:50:33Z</time>
      </trkpt>
      <trkpt lat="46.2517570" lon="5.8475160">
        <ele>1308.8</ele>
        <time>2022-07-24T14:50:35Z</time>
      </trkpt>
      <trkpt lat="46.2517060" lon="5.8474190">
        <ele>1308.2</ele>
        <time>2022-07-24T14:50:36Z</time>
      </trkpt>
      <trkpt lat="46.2516690" lon="5.8473160">
        <ele>1307.6</ele>
        <time>2022-07-24T14:50:37Z</time>
      </trkpt>
      <trkpt lat="46.2516390" lon="5.8470200">
        <ele>1306.6</ele>
        <time>2022-07-24T14:50:40Z</time>
      </trkpt>
      <trkpt lat="46.2516540" lon="5.8469230">
        <ele>1306.4</ele>
        <time>2022-07-24T14:50:41Z</time>
      </trkpt>
      <trkpt lat="46.2516900" lon="5.8467180">
        <ele>1305.8</ele>
        <time>2022-07-24T14:50:43Z</time>
      </trkpt>
      <trkpt lat="46.2517170" lon="5.8465000">
        <ele>1305.4</ele>
        <time>2022-07-24T14:50:45Z</time>
      </trkpt>
      <trkpt lat="46.2517330" lon="5.8462720">
        <ele>1304.8</ele>
        <time>2022-07-24T14:50:47Z</time>
      </trkpt>
      <trkpt lat="46.2517320" lon="5.8460360">
        <ele>1304.2</ele>
        <time>2022-07-24T14:50:49Z</time>
      </trkpt>
      <trkpt lat="46.2517270" lon="5.8459220">
        <ele>1304.0</ele>
        <time>2022-07-24T14:50:50Z</time>
      </trkpt>
      <trkpt lat="46.2517030" lon="5.8457270">
        <ele>1302.8</ele>
        <time>2022-07-24T14:50:52Z</time>
      </trkpt>
      <trkpt lat="46.2516470" lon="5.8455650">
        <ele>1301.6</ele>
        <time>2022-07-24T14:50:54Z</time>
      </trkpt>
      <trkpt lat="46.2516130" lon="5.8454850">
        <ele>1301.2</ele>
        <time>2022-07-24T14:50:55Z</time>
      </trkpt>
      <trkpt lat="46.2515410" lon="5.8453160">
        <ele>1300.6</ele>
        <time>2022-07-24T14:50:57Z</time>
      </trkpt>
      <trkpt lat="46.2514270" lon="5.8450540">
        <ele>1299.4</ele>
        <time>2022-07-24T14:51:00Z</time>
      </trkpt>
      <trkpt lat="46.2513690" lon="5.8449880">
        <ele>1299.2</ele>
        <time>2022-07-24T14:51:01Z</time>
      </trkpt>
      <trkpt lat="46.2512430" lon="5.8448960">
        <ele>1298.8</ele>
        <time>2022-07-24T14:51:03Z</time>
      </trkpt>
      <trkpt lat="46.2511780" lon="5.8448640">
        <ele>1298.4</ele>
        <time>2022-07-24T14:51:04Z</time>
      </trkpt>
      <trkpt lat="46.2510470" lon="5.8447850">
        <ele>1298.0</ele>
        <time>2022-07-24T14:51:06Z</time>
      </trkpt>
      <trkpt lat="46.2508610" lon="5.8446420">
        <ele>1297.4</ele>
        <time>2022-07-24T14:51:09Z</time>
      </trkpt>
      <trkpt lat="46.2506090" lon="5.8444580">
        <ele>1296.8</ele>
        <time>2022-07-24T14:51:13Z</time>
      </trkpt>
      <trkpt lat="46.2504610" lon="5.8443660">
        <ele>1296.2</ele>
        <time>2022-07-24T14:51:15Z</time>
      </trkpt>
      <trkpt lat="46.2503060" lon="5.8442660">
        <ele>1295.8</ele>
        <time>2022-07-24T14:51:17Z</time>
      </trkpt>
      <trkpt lat="46.2500820" lon="5.8440810">
        <ele>1294.6</ele>
        <time>2022-07-24T14:51:20Z</time>
      </trkpt>
      <trkpt lat="46.2500130" lon="5.8439860">
        <ele>1293.4</ele>
        <time>2022-07-24T14:51:21Z</time>
      </trkpt>
      <trkpt lat="46.2498620" lon="5.8436630">
        <ele>1292.2</ele>
        <time>2022-07-24T14:51:24Z</time>
      </trkpt>
      <trkpt lat="46.2497030" lon="5.8433780">
        <ele>1291.0</ele>
        <time>2022-07-24T14:51:27Z</time>
      </trkpt>
      <trkpt lat="46.2495840" lon="5.8432310">
        <ele>1290.2</ele>
        <time>2022-07-24T14:51:29Z</time>
      </trkpt>
      <trkpt lat="46.2495180" lon="5.8431570">
        <ele>1290.0</ele>
        <time>2022-07-24T14:51:30Z</time>
      </trkpt>
      <trkpt lat="46.2493260" lon="5.8428970">
        <ele>1289.2</ele>
        <time>2022-07-24T14:51:33Z</time>
      </trkpt>
      <trkpt lat="46.2492750" lon="5.8427990">
        <ele>1289.0</ele>
        <time>2022-07-24T14:51:34Z</time>
      </trkpt>
      <trkpt lat="46.2492040" lon="5.8424700">
        <ele>1288.0</ele>
        <time>2022-07-24T14:51:37Z</time>
      </trkpt>
      <trkpt lat="46.2491760" lon="5.8423830">
        <ele>1287.6</ele>
        <time>2022-07-24T14:51:38Z</time>
      </trkpt>
      <trkpt lat="46.2490750" lon="5.8421600">
        <ele>1286.6</ele>
        <time>2022-07-24T14:51:41Z</time>
      </trkpt>
      <trkpt lat="46.2490270" lon="5.8421020">
        <ele>1286.0</ele>
        <time>2022-07-24T14:51:42Z</time>
      </trkpt>
      <trkpt lat="46.2489740" lon="5.8420440">
        <ele>1285.2</ele>
        <time>2022-07-24T14:51:43Z</time>
      </trkpt>
      <trkpt lat="46.2488630" lon="5.8419190">
        <ele>1284.2</ele>
        <time>2022-07-24T14:51:45Z</time>
      </trkpt>
      <trkpt lat="46.2486750" lon="5.8416980">
        <ele>1282.8</ele>
        <time>2022-07-24T14:51:48Z</time>
      </trkpt>
      <trkpt lat="46.2486130" lon="5.8415960">
        <ele>1282.6</ele>
        <time>2022-07-24T14:51:49Z</time>
      </trkpt>
      <trkpt lat="46.2485020" lon="5.8414180">
        <ele>1281.0</ele>
        <time>2022-07-24T14:51:51Z</time>
      </trkpt>
      <trkpt lat="46.2484450" lon="5.8413360">
        <ele>1280.4</ele>
        <time>2022-07-24T14:51:52Z</time>
      </trkpt>
      <trkpt lat="46.2483830" lon="5.8412590">
        <ele>1280.0</ele>
        <time>2022-07-24T14:51:53Z</time>
      </trkpt>
      <trkpt lat="46.2482670" lon="5.8411370">
        <ele>1278.6</ele>
        <time>2022-07-24T14:51:55Z</time>
      </trkpt>
      <trkpt lat="46.2482110" lon="5.8410950">
        <ele>1277.6</ele>
        <time>2022-07-24T14:51:56Z</time>
      </trkpt>
      <trkpt lat="46.2481490" lon="5.8410670">
        <ele>1276.8</ele>
        <time>2022-07-24T14:51:57Z</time>
      </trkpt>
      <trkpt lat="46.2480270" lon="5.8410440">
        <ele>1275.4</ele>
        <time>2022-07-24T14:51:59Z</time>
      </trkpt>
      <trkpt lat="46.2479700" lon="5.8410300">
        <ele>1274.6</ele>
        <time>2022-07-24T14:52:00Z</time>
      </trkpt>
      <trkpt lat="46.2479140" lon="5.8410100">
        <ele>1273.6</ele>
        <time>2022-07-24T14:52:01Z</time>
      </trkpt>
      <trkpt lat="46.2477900" lon="5.8409320">
        <ele>1272.0</ele>
        <time>2022-07-24T14:52:03Z</time>
      </trkpt>
      <trkpt lat="46.2477360" lon="5.8408600">
        <ele>1271.2</ele>
        <time>2022-07-24T14:52:04Z</time>
      </trkpt>
      <trkpt lat="46.2476930" lon="5.8407740">
        <ele>1270.6</ele>
        <time>2022-07-24T14:52:05Z</time>
      </trkpt>
      <trkpt lat="46.2476230" lon="5.8405960">
        <ele>1269.6</ele>
        <time>2022-07-24T14:52:07Z</time>
      </trkpt>
      <trkpt lat="46.2475870" lon="5.8405100">
        <ele>1268.8</ele>
        <time>2022-07-24T14:52:08Z</time>
      </trkpt>
      <trkpt lat="46.2475530" lon="5.8404320">
        <ele>1268.0</ele>
        <time>2022-07-24T14:52:09Z</time>
      </trkpt>
      <trkpt lat="46.2475160" lon="5.8403500">
        <ele>1267.2</ele>
        <time>2022-07-24T14:52:10Z</time>
      </trkpt>
      <trkpt lat="46.2474770" lon="5.8402740">
        <ele>1266.6</ele>
        <time>2022-07-24T14:52:11Z</time>
      </trkpt>
      <trkpt lat="46.2474020" lon="5.8401370">
        <ele>1265.8</ele>
        <time>2022-07-24T14:52:13Z</time>
      </trkpt>
      <trkpt lat="46.2473620" lon="5.8400770">
        <ele>1265.4</ele>
        <time>2022-07-24T14:52:14Z</time>
      </trkpt>
      <trkpt lat="46.2472450" lon="5.8398800">
        <ele>1264.0</ele>
        <time>2022-07-24T14:52:17Z</time>
      </trkpt>
      <trkpt lat="46.2471420" lon="5.8397830">
        <ele>1262.8</ele>
        <time>2022-07-24T14:52:19Z</time>
      </trkpt>
      <trkpt lat="46.2470230" lon="5.8397130">
        <ele>1261.2</ele>
        <time>2022-07-24T14:52:21Z</time>
      </trkpt>
      <trkpt lat="46.2468720" lon="5.8396870">
        <ele>1260.0</ele>
        <time>2022-07-24T14:52:23Z</time>
      </trkpt>
      <trkpt lat="46.2467280" lon="5.8396960">
        <ele>1259.2</ele>
        <time>2022-07-24T14:52:25Z</time>
      </trkpt>
      <trkpt lat="46.2465790" lon="5.8396910">
        <ele>1258.0</ele>
        <time>2022-07-24T14:52:27Z</time>
      </trkpt>
      <trkpt lat="46.2464240" lon="5.8396350">
        <ele>1257.0</ele>
        <time>2022-07-24T14:52:29Z</time>
      </trkpt>
      <trkpt lat="46.2462770" lon="5.8395270">
        <ele>1255.6</ele>
        <time>2022-07-24T14:52:31Z</time>
      </trkpt>
      <trkpt lat="46.2462100" lon="5.8394700">
        <ele>1255.0</ele>
        <time>2022-07-24T14:52:32Z</time>
      </trkpt>
      <trkpt lat="46.2461480" lon="5.8394210">
        <ele>1254.4</ele>
        <time>2022-07-24T14:52:33Z</time>
      </trkpt>
      <trkpt lat="46.2460210" lon="5.8393400">
        <ele>1253.6</ele>
        <time>2022-07-24T14:52:35Z</time>
      </trkpt>
      <trkpt lat="46.2459500" lon="5.8392990">
        <ele>1253.2</ele>
        <time>2022-07-24T14:52:36Z</time>
      </trkpt>
      <trkpt lat="46.2457920" lon="5.8392120">
        <ele>1252.2</ele>
        <time>2022-07-24T14:52:38Z</time>
      </trkpt>
      <trkpt lat="46.2456130" lon="5.8391170">
        <ele>1250.6</ele>
        <time>2022-07-24T14:52:40Z</time>
      </trkpt>
      <trkpt lat="46.2455240" lon="5.8390810">
        <ele>1249.8</ele>
        <time>2022-07-24T14:52:41Z</time>
      </trkpt>
      <trkpt lat="46.2454340" lon="5.8390360">
        <ele>1249.0</ele>
        <time>2022-07-24T14:52:42Z</time>
      </trkpt>
      <trkpt lat="46.2452610" lon="5.8389570">
        <ele>1247.8</ele>
        <time>2022-07-24T14:52:44Z</time>
      </trkpt>
      <trkpt lat="46.2450950" lon="5.8388580">
        <ele>1246.6</ele>
        <time>2022-07-24T14:52:46Z</time>
      </trkpt>
      <trkpt lat="46.2449490" lon="5.8387880">
        <ele>1245.2</ele>
        <time>2022-07-24T14:52:48Z</time>
      </trkpt>
      <trkpt lat="46.2447980" lon="5.8387110">
        <ele>1242.8</ele>
        <time>2022-07-24T14:52:50Z</time>
      </trkpt>
      <trkpt lat="46.2447230" lon="5.8386800">
        <ele>1241.8</ele>
        <time>2022-07-24T14:52:51Z</time>
      </trkpt>
      <trkpt lat="46.2446520" lon="5.8386400">
        <ele>1241.2</ele>
        <time>2022-07-24T14:52:52Z</time>
      </trkpt>
      <trkpt lat="46.2445170" lon="5.8385420">
        <ele>1239.4</ele>
        <time>2022-07-24T14:52:54Z</time>
      </trkpt>
      <trkpt lat="46.2444580" lon="5.8384760">
        <ele>1238.4</ele>
        <time>2022-07-24T14:52:55Z</time>
      </trkpt>
      <trkpt lat="46.2444000" lon="5.8384060">
        <ele>1238.0</ele>
        <time>2022-07-24T14:52:56Z</time>
      </trkpt>
      <trkpt lat="46.2442920" lon="5.8382630">
        <ele>1236.4</ele>
        <time>2022-07-24T14:52:58Z</time>
      </trkpt>
      <trkpt lat="46.2441900" lon="5.8381310">
        <ele>1234.6</ele>
        <time>2022-07-24T14:53:00Z</time>
      </trkpt>
      <trkpt lat="46.2441350" lon="5.8380790">
        <ele>1233.8</ele>
        <time>2022-07-24T14:53:01Z</time>
      </trkpt>
      <trkpt lat="46.2440750" lon="5.8380400">
        <ele>1233.4</ele>
        <time>2022-07-24T14:53:02Z</time>
      </trkpt>
      <trkpt lat="46.2439500" lon="5.8379690">
        <ele>1232.0</ele>
        <time>2022-07-24T14:53:04Z</time>
      </trkpt>
      <trkpt lat="46.2438760" lon="5.8379390">
        <ele>1231.4</ele>
        <time>2022-07-24T14:53:05Z</time>
      </trkpt>
      <trkpt lat="46.2438010" lon="5.8379110">
        <ele>1230.8</ele>
        <time>2022-07-24T14:53:06Z</time>
      </trkpt>
      <trkpt lat="46.2436600" lon="5.8378690">
        <ele>1229.4</ele>
        <time>2022-07-24T14:53:08Z</time>
      </trkpt>
      <trkpt lat="46.2435960" lon="5.8378600">
        <ele>1228.6</ele>
        <time>2022-07-24T14:53:09Z</time>
      </trkpt>
      <trkpt lat="46.2435370" lon="5.8378660">
        <ele>1228.0</ele>
        <time>2022-07-24T14:53:10Z</time>
      </trkpt>
      <trkpt lat="46.2434270" lon="5.8379170">
        <ele>1226.8</ele>
        <time>2022-07-24T14:53:12Z</time>
      </trkpt>
      <trkpt lat="46.2433850" lon="5.8379620">
        <ele>1226.2</ele>
        <time>2022-07-24T14:53:13Z</time>
      </trkpt>
      <trkpt lat="46.2433440" lon="5.8380060">
        <ele>1225.6</ele>
        <time>2022-07-24T14:53:14Z</time>
      </trkpt>
      <trkpt lat="46.2432710" lon="5.8380910">
        <ele>1224.0</ele>
        <time>2022-07-24T14:53:16Z</time>
      </trkpt>
      <trkpt lat="46.2432320" lon="5.8381260">
        <ele>1223.2</ele>
        <time>2022-07-24T14:53:17Z</time>
      </trkpt>
      <trkpt lat="46.2431910" lon="5.8381560">
        <ele>1222.6</ele>
        <time>2022-07-24T14:53:18Z</time>
      </trkpt>
      <trkpt lat="46.2431540" lon="5.8381820">
        <ele>1221.4</ele>
        <time>2022-07-24T14:53:19Z</time>
      </trkpt>
      <trkpt lat="46.2430810" lon="5.8382090">
        <ele>1220.2</ele>
        <time>2022-07-24T14:53:21Z</time>
      </trkpt>
      <trkpt lat="46.2430430" lon="5.8382030">
        <ele>1219.6</ele>
        <time>2022-07-24T14:53:22Z</time>
      </trkpt>
      <trkpt lat="46.2430030" lon="5.8381940">
        <ele>1219.0</ele>
        <time>2022-07-24T14:53:23Z</time>
      </trkpt>
      <trkpt lat="46.2429270" lon="5.8381410">
        <ele>1217.8</ele>
        <time>2022-07-24T14:53:25Z</time>
      </trkpt>
      <trkpt lat="46.2428930" lon="5.8381080">
        <ele>1217.2</ele>
        <time>2022-07-24T14:53:26Z</time>
      </trkpt>
      <trkpt lat="46.2428590" lon="5.8380740">
        <ele>1216.6</ele>
        <time>2022-07-24T14:53:27Z</time>
      </trkpt>
      <trkpt lat="46.2428270" lon="5.8380290">
        <ele>1216.0</ele>
        <time>2022-07-24T14:53:28Z</time>
      </trkpt>
      <trkpt lat="46.2428050" lon="5.8379700">
        <ele>1215.6</ele>
        <time>2022-07-24T14:53:29Z</time>
      </trkpt>
      <trkpt lat="46.2427820" lon="5.8378350">
        <ele>1214.8</ele>
        <time>2022-07-24T14:53:31Z</time>
      </trkpt>
      <trkpt lat="46.2427720" lon="5.8377560">
        <ele>1214.4</ele>
        <time>2022-07-24T14:53:32Z</time>
      </trkpt>
      <trkpt lat="46.2427040" lon="5.8374070">
        <ele>1213.2</ele>
        <time>2022-07-24T14:53:36Z</time>
      </trkpt>
      <trkpt lat="46.2426730" lon="5.8373170">
        <ele>1212.8</ele>
        <time>2022-07-24T14:53:37Z</time>
      </trkpt>
      <trkpt lat="46.2425790" lon="5.8370650">
        <ele>1212.0</ele>
        <time>2022-07-24T14:53:40Z</time>
      </trkpt>
      <trkpt lat="46.2425300" lon="5.8369480">
        <ele>1211.2</ele>
        <time>2022-07-24T14:53:42Z</time>
      </trkpt>
      <trkpt lat="46.2425020" lon="5.8368950">
        <ele>1210.6</ele>
        <time>2022-07-24T14:53:43Z</time>
      </trkpt>
      <trkpt lat="46.2424280" lon="5.8367890">
        <ele>1209.4</ele>
        <time>2022-07-24T14:53:45Z</time>
      </trkpt>
      <trkpt lat="46.2423320" lon="5.8366880">
        <ele>1207.8</ele>
        <time>2022-07-24T14:53:47Z</time>
      </trkpt>
      <trkpt lat="46.2422240" lon="5.8365520">
        <ele>1206.2</ele>
        <time>2022-07-24T14:53:49Z</time>
      </trkpt>
      <trkpt lat="46.2421240" lon="5.8363820">
        <ele>1205.2</ele>
        <time>2022-07-24T14:53:51Z</time>
      </trkpt>
      <trkpt lat="46.2420850" lon="5.8362970">
        <ele>1205.0</ele>
        <time>2022-07-24T14:53:52Z</time>
      </trkpt>
      <trkpt lat="46.2419760" lon="5.8360640">
        <ele>1203.6</ele>
        <time>2022-07-24T14:53:55Z</time>
      </trkpt>
      <trkpt lat="46.2419370" lon="5.8359860">
        <ele>1203.0</ele>
        <time>2022-07-24T14:53:56Z</time>
      </trkpt>
      <trkpt lat="46.2418960" lon="5.8358990">
        <ele>1202.2</ele>
        <time>2022-07-24T14:53:57Z</time>
      </trkpt>
      <trkpt lat="46.2418000" lon="5.8357390">
        <ele>1201.0</ele>
        <time>2022-07-24T14:53:59Z</time>
      </trkpt>
      <trkpt lat="46.2417050" lon="5.8355670">
        <ele>1199.6</ele>
        <time>2022-07-24T14:54:01Z</time>
      </trkpt>
      <trkpt lat="46.2416730" lon="5.8354870">
        <ele>1199.0</ele>
        <time>2022-07-24T14:54:02Z</time>
      </trkpt>
      <trkpt lat="46.2416510" lon="5.8354110">
        <ele>1198.6</ele>
        <time>2022-07-24T14:54:03Z</time>
      </trkpt>
      <trkpt lat="46.2415680" lon="5.8352070">
        <ele>1197.0</ele>
        <time>2022-07-24T14:54:06Z</time>
      </trkpt>
      <trkpt lat="46.2414410" lon="5.8350460">
        <ele>1195.6</ele>
        <time>2022-07-24T14:54:09Z</time>
      </trkpt>
      <trkpt lat="46.2413950" lon="5.8350200">
        <ele>1195.0</ele>
        <time>2022-07-24T14:54:10Z</time>
      </trkpt>
      <trkpt lat="46.2413510" lon="5.8350060">
        <ele>1194.4</ele>
        <time>2022-07-24T14:54:11Z</time>
      </trkpt>
      <trkpt lat="46.2412350" lon="5.8349940">
        <ele>1193.2</ele>
        <time>2022-07-24T14:54:13Z</time>
      </trkpt>
      <trkpt lat="46.2411070" lon="5.8349830">
        <ele>1192.2</ele>
        <time>2022-07-24T14:54:15Z</time>
      </trkpt>
      <trkpt lat="46.2410320" lon="5.8349740">
        <ele>1192.0</ele>
        <time>2022-07-24T14:54:16Z</time>
      </trkpt>
      <trkpt lat="46.2409610" lon="5.8349520">
        <ele>1191.2</ele>
        <time>2022-07-24T14:54:17Z</time>
      </trkpt>
      <trkpt lat="46.2408950" lon="5.8349230">
        <ele>1190.6</ele>
        <time>2022-07-24T14:54:18Z</time>
      </trkpt>
      <trkpt lat="46.2407750" lon="5.8348390">
        <ele>1189.0</ele>
        <time>2022-07-24T14:54:20Z</time>
      </trkpt>
      <trkpt lat="46.2407170" lon="5.8347850">
        <ele>1188.4</ele>
        <time>2022-07-24T14:54:21Z</time>
      </trkpt>
      <trkpt lat="46.2406470" lon="5.8347450">
        <ele>1187.6</ele>
        <time>2022-07-24T14:54:22Z</time>
      </trkpt>
      <trkpt lat="46.2405020" lon="5.8346740">
        <ele>1186.4</ele>
        <time>2022-07-24T14:54:24Z</time>
      </trkpt>
      <trkpt lat="46.2403410" lon="5.8346140">
        <ele>1185.2</ele>
        <time>2022-07-24T14:54:26Z</time>
      </trkpt>
      <trkpt lat="46.2402610" lon="5.8345870">
        <ele>1184.4</ele>
        <time>2022-07-24T14:54:27Z</time>
      </trkpt>
      <trkpt lat="46.2401800" lon="5.8345640">
        <ele>1183.8</ele>
        <time>2022-07-24T14:54:28Z</time>
      </trkpt>
      <trkpt lat="46.2400240" lon="5.8345300">
        <ele>1182.6</ele>
        <time>2022-07-24T14:54:30Z</time>
      </trkpt>
      <trkpt lat="46.2398830" lon="5.8345210">
        <ele>1181.4</ele>
        <time>2022-07-24T14:54:32Z</time>
      </trkpt>
      <trkpt lat="46.2397640" lon="5.8345050">
        <ele>1180.0</ele>
        <time>2022-07-24T14:54:34Z</time>
      </trkpt>
      <trkpt lat="46.2397140" lon="5.8344910">
        <ele>1179.2</ele>
        <time>2022-07-24T14:54:35Z</time>
      </trkpt>
      <trkpt lat="46.2396720" lon="5.8344740">
        <ele>1178.6</ele>
        <time>2022-07-24T14:54:36Z</time>
      </trkpt>
      <trkpt lat="46.2395180" lon="5.8343870">
        <ele>1177.8</ele>
        <time>2022-07-24T14:54:41Z</time>
      </trkpt>
      <trkpt lat="46.2394110" lon="5.8342200">
        <ele>1177.8</ele>
        <time>2022-07-24T14:54:47Z</time>
      </trkpt>
      <trkpt lat="46.2393890" lon="5.8339650">
        <ele>1178.2</ele>
        <time>2022-07-24T14:54:53Z</time>
      </trkpt>
      <trkpt lat="46.2394590" lon="5.8337590">
        <ele>1178.4</ele>
        <time>2022-07-24T14:54:59Z</time>
      </trkpt>
      <trkpt lat="46.2395760" lon="5.8336120">
        <ele>1178.8</ele>
        <time>2022-07-24T14:55:05Z</time>
      </trkpt>
      <trkpt lat="46.2397320" lon="5.8334760">
        <ele>1179.4</ele>
        <time>2022-07-24T14:55:11Z</time>
      </trkpt>
      <trkpt lat="46.2397570" lon="5.8334520">
        <ele>1179.6</ele>
        <time>2022-07-24T14:55:12Z</time>
      </trkpt>
      <trkpt lat="46.2398690" lon="5.8333450">
        <ele>1180.0</ele>
        <time>2022-07-24T14:55:17Z</time>
      </trkpt>
      <trkpt lat="46.2399790" lon="5.8331750">
        <ele>1180.2</ele>
        <time>2022-07-24T14:55:23Z</time>
      </trkpt>
      <trkpt lat="46.2399740" lon="5.8329700">
        <ele>1180.8</ele>
        <time>2022-07-24T14:55:28Z</time>
      </trkpt>
      <trkpt lat="46.2399670" lon="5.8329310">
        <ele>1180.8</ele>
        <time>2022-07-24T14:55:29Z</time>
      </trkpt>
      <trkpt lat="46.2399120" lon="5.8327760">
        <ele>1181.2</ele>
        <time>2022-07-24T14:55:34Z</time>
      </trkpt>
      <trkpt lat="46.2397670" lon="5.8326540">
        <ele>1181.8</ele>
        <time>2022-07-24T14:55:40Z</time>
      </trkpt>
      <trkpt lat="46.2397320" lon="5.8326330">
        <ele>1181.8</ele>
        <time>2022-07-24T14:55:41Z</time>
      </trkpt>
      <trkpt lat="46.2396260" lon="5.8325270">
        <ele>1181.8</ele>
        <time>2022-07-24T14:55:44Z</time>
      </trkpt>
      <trkpt lat="46.2395970" lon="5.8324830">
        <ele>1181.8</ele>
        <time>2022-07-24T14:55:45Z</time>
      </trkpt>
      <trkpt lat="46.2394580" lon="5.8321940">
        <ele>1181.6</ele>
        <time>2022-07-24T14:55:51Z</time>
      </trkpt>
      <trkpt lat="46.2393200" lon="5.8319190">
        <ele>1180.8</ele>
        <time>2022-07-24T14:55:55Z</time>
      </trkpt>
      <trkpt lat="46.2392850" lon="5.8318450">
        <ele>1180.8</ele>
        <time>2022-07-24T14:55:56Z</time>
      </trkpt>
      <trkpt lat="46.2392020" lon="5.8316080">
        <ele>1180.0</ele>
        <time>2022-07-24T14:55:59Z</time>
      </trkpt>
      <trkpt lat="46.2391930" lon="5.8315150">
        <ele>1179.8</ele>
        <time>2022-07-24T14:56:00Z</time>
      </trkpt>
      <trkpt lat="46.2391950" lon="5.8314360">
        <ele>1179.4</ele>
        <time>2022-07-24T14:56:01Z</time>
      </trkpt>
      <trkpt lat="46.2392150" lon="5.8312980">
        <ele>1178.8</ele>
        <time>2022-07-24T14:56:03Z</time>
      </trkpt>
      <trkpt lat="46.2392320" lon="5.8311930">
        <ele>1178.2</ele>
        <time>2022-07-24T14:56:05Z</time>
      </trkpt>
      <trkpt lat="46.2392390" lon="5.8311070">
        <ele>1177.8</ele>
        <time>2022-07-24T14:56:07Z</time>
      </trkpt>
      <trkpt lat="46.2392450" lon="5.8309240">
        <ele>1177.0</ele>
        <time>2022-07-24T14:56:10Z</time>
      </trkpt>
      <trkpt lat="46.2392310" lon="5.8307760">
        <ele>1176.4</ele>
        <time>2022-07-24T14:56:12Z</time>
      </trkpt>
      <trkpt lat="46.2392070" lon="5.8306150">
        <ele>1175.8</ele>
        <time>2022-07-24T14:56:14Z</time>
      </trkpt>
      <trkpt lat="46.2391160" lon="5.8304050">
        <ele>1175.0</ele>
        <time>2022-07-24T14:56:17Z</time>
      </trkpt>
      <trkpt lat="46.2390730" lon="5.8303450">
        <ele>1174.8</ele>
        <time>2022-07-24T14:56:18Z</time>
      </trkpt>
      <trkpt lat="46.2390300" lon="5.8302880">
        <ele>1174.4</ele>
        <time>2022-07-24T14:56:19Z</time>
      </trkpt>
      <trkpt lat="46.2389530" lon="5.8301740">
        <ele>1174.0</ele>
        <time>2022-07-24T14:56:21Z</time>
      </trkpt>
      <trkpt lat="46.2389180" lon="5.8301150">
        <ele>1173.8</ele>
        <time>2022-07-24T14:56:22Z</time>
      </trkpt>
      <trkpt lat="46.2388500" lon="5.8299830">
        <ele>1173.2</ele>
        <time>2022-07-24T14:56:24Z</time>
      </trkpt>
      <trkpt lat="46.2387610" lon="5.8297820">
        <ele>1172.8</ele>
        <time>2022-07-24T14:56:27Z</time>
      </trkpt>
      <trkpt lat="46.2386530" lon="5.8295870">
        <ele>1171.4</ele>
        <time>2022-07-24T14:56:30Z</time>
      </trkpt>
      <trkpt lat="46.2385490" lon="5.8293730">
        <ele>1170.6</ele>
        <time>2022-07-24T14:56:33Z</time>
      </trkpt>
      <trkpt lat="46.2385230" lon="5.8292880">
        <ele>1170.4</ele>
        <time>2022-07-24T14:56:34Z</time>
      </trkpt>
      <trkpt lat="46.2384220" lon="5.8288630">
        <ele>1169.2</ele>
        <time>2022-07-24T14:56:39Z</time>
      </trkpt>
      <trkpt lat="46.2383620" lon="5.8286320">
        <ele>1168.2</ele>
        <time>2022-07-24T14:56:42Z</time>
      </trkpt>
      <trkpt lat="46.2383360" lon="5.8285620">
        <ele>1168.0</ele>
        <time>2022-07-24T14:56:43Z</time>
      </trkpt>
      <trkpt lat="46.2382990" lon="5.8284100">
        <ele>1167.0</ele>
        <time>2022-07-24T14:56:45Z</time>
      </trkpt>
      <trkpt lat="46.2382820" lon="5.8283340">
        <ele>1166.6</ele>
        <time>2022-07-24T14:56:46Z</time>
      </trkpt>
      <trkpt lat="46.2382640" lon="5.8281750">
        <ele>1166.2</ele>
        <time>2022-07-24T14:56:48Z</time>
      </trkpt>
      <trkpt lat="46.2382800" lon="5.8279920">
        <ele>1165.6</ele>
        <time>2022-07-24T14:56:50Z</time>
      </trkpt>
      <trkpt lat="46.2383050" lon="5.8277080">
        <ele>1164.4</ele>
        <time>2022-07-24T14:56:53Z</time>
      </trkpt>
      <trkpt lat="46.2382820" lon="5.8275250">
        <ele>1164.0</ele>
        <time>2022-07-24T14:56:55Z</time>
      </trkpt>
      <trkpt lat="46.2381470" lon="5.8273480">
        <ele>1163.4</ele>
        <time>2022-07-24T14:56:58Z</time>
      </trkpt>
      <trkpt lat="46.2380890" lon="5.8272940">
        <ele>1163.2</ele>
        <time>2022-07-24T14:56:59Z</time>
      </trkpt>
      <trkpt lat="46.2379080" lon="5.8271120">
        <ele>1162.4</ele>
        <time>2022-07-24T14:57:02Z</time>
      </trkpt>
      <trkpt lat="46.2378600" lon="5.8270210">
        <ele>1162.0</ele>
        <time>2022-07-24T14:57:03Z</time>
      </trkpt>
      <trkpt lat="46.2377410" lon="5.8267160">
        <ele>1161.0</ele>
        <time>2022-07-24T14:57:06Z</time>
      </trkpt>
      <trkpt lat="46.2377130" lon="5.8266190">
        <ele>1160.6</ele>
        <time>2022-07-24T14:57:07Z</time>
      </trkpt>
      <trkpt lat="46.2377100" lon="5.8263260">
        <ele>1159.8</ele>
        <time>2022-07-24T14:57:10Z</time>
      </trkpt>
      <trkpt lat="46.2377260" lon="5.8262240">
        <ele>1159.4</ele>
        <time>2022-07-24T14:57:11Z</time>
      </trkpt>
      <trkpt lat="46.2377560" lon="5.8260050">
        <ele>1158.6</ele>
        <time>2022-07-24T14:57:13Z</time>
      </trkpt>
      <trkpt lat="46.2377510" lon="5.8257820">
        <ele>1158.2</ele>
        <time>2022-07-24T14:57:15Z</time>
      </trkpt>
      <trkpt lat="46.2376660" lon="5.8254870">
        <ele>1157.4</ele>
        <time>2022-07-24T14:57:18Z</time>
      </trkpt>
      <trkpt lat="46.2376260" lon="5.8254000">
        <ele>1157.2</ele>
        <time>2022-07-24T14:57:19Z</time>
      </trkpt>
      <trkpt lat="46.2375850" lon="5.8253210">
        <ele>1156.8</ele>
        <time>2022-07-24T14:57:20Z</time>
      </trkpt>
      <trkpt lat="46.2375140" lon="5.8251860">
        <ele>1156.2</ele>
        <time>2022-07-24T14:57:22Z</time>
      </trkpt>
      <trkpt lat="46.2374620" lon="5.8250860">
        <ele>1155.6</ele>
        <time>2022-07-24T14:57:24Z</time>
      </trkpt>
      <trkpt lat="46.2374300" lon="5.8250200">
        <ele>1155.0</ele>
        <time>2022-07-24T14:57:26Z</time>
      </trkpt>
      <trkpt lat="46.2374070" lon="5.8249760">
        <ele>1154.8</ele>
        <time>2022-07-24T14:57:28Z</time>
      </trkpt>
      <trkpt lat="46.2373010" lon="5.8248250">
        <ele>1154.8</ele>
        <time>2022-07-24T14:57:36Z</time>
      </trkpt>
      <trkpt lat="46.2372120" lon="5.8247190">
        <ele>1155.6</ele>
        <time>2022-07-24T14:57:42Z</time>
      </trkpt>
      <trkpt lat="46.2371860" lon="5.8246800">
        <ele>1156.2</ele>
        <time>2022-07-24T14:57:44Z</time>
      </trkpt>
      <trkpt lat="46.2371220" lon="5.8245770">
        <ele>1156.8</ele>
        <time>2022-07-24T14:57:49Z</time>
      </trkpt>
      <trkpt lat="46.2370770" lon="5.8244970">
        <ele>1157.2</ele>
        <time>2022-07-24T14:57:53Z</time>
      </trkpt>
      <trkpt lat="46.2370580" lon="5.8244570">
        <ele>1157.4</ele>
        <time>2022-07-24T14:57:55Z</time>
      </trkpt>
      <trkpt lat="46.2370020" lon="5.8243650">
        <ele>1158.2</ele>
        <time>2022-07-24T14:58:00Z</time>
      </trkpt>
      <trkpt lat="46.2369800" lon="5.8243250">
        <ele>1158.6</ele>
        <time>2022-07-24T14:58:02Z</time>
      </trkpt>
      <trkpt lat="46.2369100" lon="5.8242030">
        <ele>1159.4</ele>
        <time>2022-07-24T14:58:07Z</time>
      </trkpt>
      <trkpt lat="46.2368710" lon="5.8241190">
        <ele>1159.6</ele>
        <time>2022-07-24T14:58:10Z</time>
      </trkpt>
      <trkpt lat="46.2368000" lon="5.8239680">
        <ele>1160.4</ele>
        <time>2022-07-24T14:58:16Z</time>
      </trkpt>
      <trkpt lat="46.2367880" lon="5.8239400">
        <ele>1160.6</ele>
        <time>2022-07-24T14:58:17Z</time>
      </trkpt>
      <trkpt lat="46.2366940" lon="5.8237360">
        <ele>1161.2</ele>
        <time>2022-07-24T14:58:24Z</time>
      </trkpt>
      <trkpt lat="46.2366630" lon="5.8236870">
        <ele>1161.6</ele>
        <time>2022-07-24T14:58:26Z</time>
      </trkpt>
      <trkpt lat="46.2366430" lon="5.8235850">
        <ele>1162.0</ele>
        <time>2022-07-24T14:58:29Z</time>
      </trkpt>
      <trkpt lat="46.2366650" lon="5.8234370">
        <ele>1162.6</ele>
        <time>2022-07-24T14:58:34Z</time>
      </trkpt>
      <trkpt lat="46.2366640" lon="5.8234150">
        <ele>1162.8</ele>
        <time>2022-07-24T14:58:35Z</time>
      </trkpt>
      <trkpt lat="46.2366700" lon="5.8233130">
        <ele>1163.4</ele>
        <time>2022-07-24T14:58:39Z</time>
      </trkpt>
      <trkpt lat="46.2366720" lon="5.8232870">
        <ele>1163.6</ele>
        <time>2022-07-24T14:58:40Z</time>
      </trkpt>
      <trkpt lat="46.2366780" lon="5.8232360">
        <ele>1164.0</ele>
        <time>2022-07-24T14:58:42Z</time>
      </trkpt>
      <trkpt lat="46.2366770" lon="5.8232070">
        <ele>1164.2</ele>
        <time>2022-07-24T14:58:43Z</time>
      </trkpt>
      <trkpt lat="46.2366840" lon="5.8231270">
        <ele>1164.6</ele>
        <time>2022-07-24T14:58:46Z</time>
      </trkpt>
      <trkpt lat="46.2366870" lon="5.8230500">
        <ele>1165.2</ele>
        <time>2022-07-24T14:58:48Z</time>
      </trkpt>
      <trkpt lat="46.2367080" lon="5.8228950">
        <ele>1165.8</ele>
        <time>2022-07-24T14:58:52Z</time>
      </trkpt>
      <trkpt lat="46.2367210" lon="5.8227270">
        <ele>1166.4</ele>
        <time>2022-07-24T14:58:57Z</time>
      </trkpt>
      <trkpt lat="46.2367240" lon="5.8226570">
        <ele>1166.8</ele>
        <time>2022-07-24T14:58:59Z</time>
      </trkpt>
      <trkpt lat="46.2367610" lon="5.8223980">
        <ele>1168.0</ele>
        <time>2022-07-24T14:59:06Z</time>
      </trkpt>
      <trkpt lat="46.2367910" lon="5.8221220">
        <ele>1169.0</ele>
        <time>2022-07-24T14:59:14Z</time>
      </trkpt>
      <trkpt lat="46.2368050" lon="5.8218670">
        <ele>1169.8</ele>
        <time>2022-07-24T14:59:21Z</time>
      </trkpt>
      <trkpt lat="46.2368090" lon="5.8217090">
        <ele>1170.0</ele>
        <time>2022-07-24T14:59:25Z</time>
      </trkpt>
      <trkpt lat="46.2367900" lon="5.8215780">
        <ele>1170.4</ele>
        <time>2022-07-24T14:59:28Z</time>
      </trkpt>
      <trkpt lat="46.2367280" lon="5.8213750">
        <ele>1171.0</ele>
        <time>2022-07-24T14:59:33Z</time>
      </trkpt>
      <trkpt lat="46.2366910" lon="5.8213040">
        <ele>1171.2</ele>
        <time>2022-07-24T14:59:35Z</time>
      </trkpt>
      <trkpt lat="46.2365490" lon="5.8211100">
        <ele>1171.6</ele>
        <time>2022-07-24T14:59:41Z</time>
      </trkpt>
      <trkpt lat="46.2363730" lon="5.8208770">
        <ele>1172.0</ele>
        <time>2022-07-24T14:59:48Z</time>
      </trkpt>
      <trkpt lat="46.2362950" lon="5.8206380">
        <ele>1172.4</ele>
        <time>2022-07-24T14:59:53Z</time>
      </trkpt>
      <trkpt lat="46.2362760" lon="5.8203270">
        <ele>1172.4</ele>
        <time>2022-07-24T14:59:59Z</time>
      </trkpt>
      <trkpt lat="46.2362810" lon="5.8201510">
        <ele>1172.6</ele>
        <time>2022-07-24T15:00:03Z</time>
      </trkpt>
      <trkpt lat="46.2362980" lon="5.8198010">
        <ele>1173.4</ele>
        <time>2022-07-24T15:00:11Z</time>
      </trkpt>
      <trkpt lat="46.2363270" lon="5.8194700">
        <ele>1174.4</ele>
        <time>2022-07-24T15:00:18Z</time>
      </trkpt>
      <trkpt lat="46.2363250" lon="5.8193780">
        <ele>1174.4</ele>
        <time>2022-07-24T15:00:20Z</time>
      </trkpt>
      <trkpt lat="46.2362980" lon="5.8191450">
        <ele>1174.8</ele>
        <time>2022-07-24T15:00:25Z</time>
      </trkpt>
      <trkpt lat="46.2362450" lon="5.8188980">
        <ele>1175.6</ele>
        <time>2022-07-24T15:00:31Z</time>
      </trkpt>
      <trkpt lat="46.2361430" lon="5.8187130">
        <ele>1176.4</ele>
        <time>2022-07-24T15:00:37Z</time>
      </trkpt>
      <trkpt lat="46.2360720" lon="5.8185880">
        <ele>1176.6</ele>
        <time>2022-07-24T15:00:40Z</time>
      </trkpt>
      <trkpt lat="46.2360130" lon="5.8184860">
        <ele>1177.0</ele>
        <time>2022-07-24T15:00:43Z</time>
      </trkpt>
      <trkpt lat="46.2359960" lon="5.8181670">
        <ele>1177.2</ele>
        <time>2022-07-24T15:00:48Z</time>
      </trkpt>
      <trkpt lat="46.2358820" lon="5.8178330">
        <ele>1177.2</ele>
        <time>2022-07-24T15:00:53Z</time>
      </trkpt>
      <trkpt lat="46.2356740" lon="5.8173680">
        <ele>1176.2</ele>
        <time>2022-07-24T15:01:00Z</time>
      </trkpt>
      <trkpt lat="46.2356240" lon="5.8172460">
        <ele>1175.8</ele>
        <time>2022-07-24T15:01:02Z</time>
      </trkpt>
      <trkpt lat="46.2355550" lon="5.8171410">
        <ele>1175.4</ele>
        <time>2022-07-24T15:01:04Z</time>
      </trkpt>
      <trkpt lat="46.2355110" lon="5.8171010">
        <ele>1175.0</ele>
        <time>2022-07-24T15:01:05Z</time>
      </trkpt>
      <trkpt lat="46.2354120" lon="5.8170180">
        <ele>1174.0</ele>
        <time>2022-07-24T15:01:07Z</time>
      </trkpt>
      <trkpt lat="46.2353530" lon="5.8169790">
        <ele>1173.8</ele>
        <time>2022-07-24T15:01:08Z</time>
      </trkpt>
      <trkpt lat="46.2352960" lon="5.8169290">
        <ele>1173.6</ele>
        <time>2022-07-24T15:01:09Z</time>
      </trkpt>
      <trkpt lat="46.2352430" lon="5.8168690">
        <ele>1173.6</ele>
        <time>2022-07-24T15:01:10Z</time>
      </trkpt>
      <trkpt lat="46.2350770" lon="5.8166670">
        <ele>1173.0</ele>
        <time>2022-07-24T15:01:13Z</time>
      </trkpt>
      <trkpt lat="46.2349780" lon="5.8165080">
        <ele>1172.4</ele>
        <time>2022-07-24T15:01:15Z</time>
      </trkpt>
      <trkpt lat="46.2348630" lon="5.8162180">
        <ele>1171.8</ele>
        <time>2022-07-24T15:01:18Z</time>
      </trkpt>
      <trkpt lat="46.2348320" lon="5.8161120">
        <ele>1171.6</ele>
        <time>2022-07-24T15:01:19Z</time>
      </trkpt>
      <trkpt lat="46.2347360" lon="5.8157700">
        <ele>1170.8</ele>
        <time>2022-07-24T15:01:22Z</time>
      </trkpt>
      <trkpt lat="46.2346490" lon="5.8155560">
        <ele>1170.0</ele>
        <time>2022-07-24T15:01:24Z</time>
      </trkpt>
      <trkpt lat="46.2346030" lon="5.8154550">
        <ele>1169.6</ele>
        <time>2022-07-24T15:01:25Z</time>
      </trkpt>
      <trkpt lat="46.2344440" lon="5.8150460">
        <ele>1168.6</ele>
        <time>2022-07-24T15:01:29Z</time>
      </trkpt>
      <trkpt lat="46.2344270" lon="5.8149360">
        <ele>1168.2</ele>
        <time>2022-07-24T15:01:30Z</time>
      </trkpt>
      <trkpt lat="46.2344220" lon="5.8146340">
        <ele>1167.2</ele>
        <time>2022-07-24T15:01:33Z</time>
      </trkpt>
      <trkpt lat="46.2344150" lon="5.8141610">
        <ele>1167.0</ele>
        <time>2022-07-24T15:01:39Z</time>
      </trkpt>
      <trkpt lat="46.2343830" lon="5.8137870">
        <ele>1167.6</ele>
        <time>2022-07-24T15:01:45Z</time>
      </trkpt>
      <trkpt lat="46.2342800" lon="5.8135430">
        <ele>1168.4</ele>
        <time>2022-07-24T15:01:51Z</time>
      </trkpt>
      <trkpt lat="46.2341530" lon="5.8133030">
        <ele>1169.4</ele>
        <time>2022-07-24T15:01:57Z</time>
      </trkpt>
      <trkpt lat="46.2340590" lon="5.8131200">
        <ele>1169.8</ele>
        <time>2022-07-24T15:02:02Z</time>
      </trkpt>
      <trkpt lat="46.2339120" lon="5.8128970">
        <ele>1170.4</ele>
        <time>2022-07-24T15:02:08Z</time>
      </trkpt>
      <trkpt lat="46.2338600" lon="5.8128190">
        <ele>1170.6</ele>
        <time>2022-07-24T15:02:10Z</time>
      </trkpt>
      <trkpt lat="46.2336670" lon="5.8126180">
        <ele>1171.2</ele>
        <time>2022-07-24T15:02:17Z</time>
      </trkpt>
      <trkpt lat="46.2334920" lon="5.8124990">
        <ele>1171.4</ele>
        <time>2022-07-24T15:02:23Z</time>
      </trkpt>
      <trkpt lat="46.2334620" lon="5.8124820">
        <ele>1171.6</ele>
        <time>2022-07-24T15:02:24Z</time>
      </trkpt>
      <trkpt lat="46.2333060" lon="5.8123950">
        <ele>1172.2</ele>
        <time>2022-07-24T15:02:30Z</time>
      </trkpt>
      <trkpt lat="46.2331870" lon="5.8122490">
        <ele>1172.8</ele>
        <time>2022-07-24T15:02:35Z</time>
      </trkpt>
      <trkpt lat="46.2331670" lon="5.8122090">
        <ele>1172.8</ele>
        <time>2022-07-24T15:02:36Z</time>
      </trkpt>
      <trkpt lat="46.2330850" lon="5.8119880">
        <ele>1173.4</ele>
        <time>2022-07-24T15:02:41Z</time>
      </trkpt>
      <trkpt lat="46.2330330" lon="5.8117640">
        <ele>1173.8</ele>
        <time>2022-07-24T15:02:46Z</time>
      </trkpt>
      <trkpt lat="46.2330250" lon="5.8116170">
        <ele>1174.0</ele>
        <time>2022-07-24T15:02:49Z</time>
      </trkpt>
      <trkpt lat="46.2329920" lon="5.8113190">
        <ele>1174.6</ele>
        <time>2022-07-24T15:02:55Z</time>
      </trkpt>
      <trkpt lat="46.2328800" lon="5.8110490">
        <ele>1174.8</ele>
        <time>2022-07-24T15:03:01Z</time>
      </trkpt>
      <trkpt lat="46.2328580" lon="5.8110180">
        <ele>1175.0</ele>
        <time>2022-07-24T15:03:02Z</time>
      </trkpt>
      <trkpt lat="46.2327530" lon="5.8108740">
        <ele>1175.4</ele>
        <time>2022-07-24T15:03:06Z</time>
      </trkpt>
      <trkpt lat="46.2326520" lon="5.8106290">
        <ele>1176.0</ele>
        <time>2022-07-24T15:03:11Z</time>
      </trkpt>
      <trkpt lat="46.2326410" lon="5.8103030">
        <ele>1176.6</ele>
        <time>2022-07-24T15:03:17Z</time>
      </trkpt>
      <trkpt lat="46.2326500" lon="5.8102460">
        <ele>1176.6</ele>
        <time>2022-07-24T15:03:18Z</time>
      </trkpt>
      <trkpt lat="46.2326890" lon="5.8100740">
        <ele>1176.8</ele>
        <time>2022-07-24T15:03:22Z</time>
      </trkpt>
      <trkpt lat="46.2328110" lon="5.8099590">
        <ele>1177.0</ele>
        <time>2022-07-24T15:03:27Z</time>
      </trkpt>
      <trkpt lat="46.2329940" lon="5.8098700">
        <ele>1178.2</ele>
        <time>2022-07-24T15:03:33Z</time>
      </trkpt>
      <trkpt lat="46.2331130" lon="5.8096900">
        <ele>1178.4</ele>
        <time>2022-07-24T15:03:38Z</time>
      </trkpt>
      <trkpt lat="46.2331470" lon="5.8095170">
        <ele>1178.6</ele>
        <time>2022-07-24T15:03:43Z</time>
      </trkpt>
      <trkpt lat="46.2331360" lon="5.8093710">
        <ele>1179.2</ele>
        <time>2022-07-24T15:03:47Z</time>
      </trkpt>
      <trkpt lat="46.2331060" lon="5.8092350">
        <ele>1180.4</ele>
        <time>2022-07-24T15:03:51Z</time>
      </trkpt>
      <trkpt lat="46.2330440" lon="5.8091030">
        <ele>1181.4</ele>
        <time>2022-07-24T15:03:56Z</time>
      </trkpt>
      <trkpt lat="46.2330020" lon="5.8090310">
        <ele>1181.8</ele>
        <time>2022-07-24T15:03:59Z</time>
      </trkpt>
      <trkpt lat="46.2329160" lon="5.8089100">
        <ele>1182.4</ele>
        <time>2022-07-24T15:04:04Z</time>
      </trkpt>
      <trkpt lat="46.2328650" lon="5.8088380">
        <ele>1182.8</ele>
        <time>2022-07-24T15:04:07Z</time>
      </trkpt>
      <trkpt lat="46.2328000" lon="5.8086600">
        <ele>1183.4</ele>
        <time>2022-07-24T15:04:13Z</time>
      </trkpt>
      <trkpt lat="46.2328150" lon="5.8085090">
        <ele>1184.2</ele>
        <time>2022-07-24T15:04:18Z</time>
      </trkpt>
      <trkpt lat="46.2328340" lon="5.8084330">
        <ele>1184.6</ele>
        <time>2022-07-24T15:04:21Z</time>
      </trkpt>
      <trkpt lat="46.2328650" lon="5.8082670">
        <ele>1185.4</ele>
        <time>2022-07-24T15:04:27Z</time>
      </trkpt>
      <trkpt lat="46.2328690" lon="5.8082130">
        <ele>1185.8</ele>
        <time>2022-07-24T15:04:29Z</time>
      </trkpt>
      <trkpt lat="46.2328640" lon="5.8080910">
        <ele>1186.4</ele>
        <time>2022-07-24T15:04:33Z</time>
      </trkpt>
      <trkpt lat="46.2328660" lon="5.8080050">
        <ele>1186.8</ele>
        <time>2022-07-24T15:04:36Z</time>
      </trkpt>
      <trkpt lat="46.2328780" lon="5.8078350">
        <ele>1187.2</ele>
        <time>2022-07-24T15:04:41Z</time>
      </trkpt>
      <trkpt lat="46.2329060" lon="5.8076940">
        <ele>1187.8</ele>
        <time>2022-07-24T15:04:46Z</time>
      </trkpt>
      <trkpt lat="46.2329270" lon="5.8076350">
        <ele>1188.0</ele>
        <time>2022-07-24T15:04:49Z</time>
      </trkpt>
      <trkpt lat="46.2329670" lon="5.8075490">
        <ele>1188.8</ele>
        <time>2022-07-24T15:04:54Z</time>
      </trkpt>
      <trkpt lat="46.2329740" lon="5.8075190">
        <ele>1189.0</ele>
        <time>2022-07-24T15:04:55Z</time>
      </trkpt>
      <trkpt lat="46.2330250" lon="5.8074170">
        <ele>1190.0</ele>
        <time>2022-07-24T15:05:01Z</time>
      </trkpt>
      <trkpt lat="46.2330310" lon="5.8073960">
        <ele>1190.2</ele>
        <time>2022-07-24T15:05:02Z</time>
      </trkpt>
      <trkpt lat="46.2330900" lon="5.8072680">
        <ele>1191.0</ele>
        <time>2022-07-24T15:05:08Z</time>
      </trkpt>
      <trkpt lat="46.2331110" lon="5.8072250">
        <ele>1191.2</ele>
        <time>2022-07-24T15:05:10Z</time>
      </trkpt>
      <trkpt lat="46.2332040" lon="5.8070510">
        <ele>1192.0</ele>
        <time>2022-07-24T15:05:17Z</time>
      </trkpt>
      <trkpt lat="46.2332680" lon="5.8069280">
        <ele>1192.4</ele>
        <time>2022-07-24T15:05:23Z</time>
      </trkpt>
      <trkpt lat="46.2332990" lon="5.8068640">
        <ele>1193.0</ele>
        <time>2022-07-24T15:05:28Z</time>
      </trkpt>
      <trkpt lat="46.2333390" lon="5.8069660">
        <ele>1194.4</ele>
        <time>2022-07-24T15:15:13Z</time>
      </trkpt>
      <trkpt lat="46.2333950" lon="5.8071260">
        <ele>1194.6</ele>
        <time>2022-07-24T15:15:19Z</time>
      </trkpt>
      <trkpt lat="46.2334530" lon="5.8071640">
        <ele>1194.6</ele>
        <time>2022-07-24T15:15:24Z</time>
      </trkpt>
      <trkpt lat="46.2336540" lon="5.8073180">
        <ele>1194.0</ele>
        <time>2022-07-24T15:15:51Z</time>
      </trkpt>
      <trkpt lat="46.2337110" lon="5.8073540">
        <ele>1194.0</ele>
        <time>2022-07-24T15:15:54Z</time>
      </trkpt>
      <trkpt lat="46.2338320" lon="5.8074110">
        <ele>1194.0</ele>
        <time>2022-07-24T15:15:59Z</time>
      </trkpt>
      <trkpt lat="46.2340040" lon="5.8074010">
        <ele>1194.0</ele>
        <time>2022-07-24T15:16:04Z</time>
      </trkpt>
      <trkpt lat="46.2342420" lon="5.8073920">
        <ele>1194.0</ele>
        <time>2022-07-24T15:16:09Z</time>
      </trkpt>
      <trkpt lat="46.2344810" lon="5.8074320">
        <ele>1193.2</ele>
        <time>2022-07-24T15:16:14Z</time>
      </trkpt>
      <trkpt lat="46.2345200" lon="5.8074340">
        <ele>1193.2</ele>
        <time>2022-07-24T15:16:15Z</time>
      </trkpt>
      <trkpt lat="46.2347940" lon="5.8073990">
        <ele>1192.4</ele>
        <time>2022-07-24T15:16:22Z</time>
      </trkpt>
      <trkpt lat="46.2348810" lon="5.8073960">
        <ele>1192.2</ele>
        <time>2022-07-24T15:16:24Z</time>
      </trkpt>
      <trkpt lat="46.2349300" lon="5.8073970">
        <ele>1192.0</ele>
        <time>2022-07-24T15:16:25Z</time>
      </trkpt>
      <trkpt lat="46.2350610" lon="5.8074070">
        <ele>1192.0</ele>
        <time>2022-07-24T15:16:28Z</time>
      </trkpt>
      <trkpt lat="46.2352720" lon="5.8074210">
        <ele>1191.6</ele>
        <time>2022-07-24T15:16:34Z</time>
      </trkpt>
      <trkpt lat="46.2354400" lon="5.8074420">
        <ele>1191.4</ele>
        <time>2022-07-24T15:16:40Z</time>
      </trkpt>
      <trkpt lat="46.2356010" lon="5.8074290">
        <ele>1191.4</ele>
        <time>2022-07-24T15:16:46Z</time>
      </trkpt>
      <trkpt lat="46.2358070" lon="5.8074010">
        <ele>1191.8</ele>
        <time>2022-07-24T15:16:52Z</time>
      </trkpt>
      <trkpt lat="46.2359720" lon="5.8075030">
        <ele>1191.8</ele>
        <time>2022-07-24T15:16:57Z</time>
      </trkpt>
      <trkpt lat="46.2361940" lon="5.8076850">
        <ele>1191.8</ele>
        <time>2022-07-24T15:17:04Z</time>
      </trkpt>
      <trkpt lat="46.2363830" lon="5.8077820">
        <ele>1191.6</ele>
        <time>2022-07-24T15:17:09Z</time>
      </trkpt>
      <trkpt lat="46.2364990" lon="5.8077980">
        <ele>1191.6</ele>
        <time>2022-07-24T15:17:14Z</time>
      </trkpt>
      <trkpt lat="46.2366050" lon="5.8078300">
        <ele>1191.6</ele>
        <time>2022-07-24T15:17:19Z</time>
      </trkpt>
      <trkpt lat="46.2367230" lon="5.8078600">
        <ele>1192.8</ele>
        <time>2022-07-24T15:17:26Z</time>
      </trkpt>
      <trkpt lat="46.2367790" lon="5.8078800">
        <ele>1193.2</ele>
        <time>2022-07-24T15:17:29Z</time>
      </trkpt>
      <trkpt lat="46.2368490" lon="5.8079160">
        <ele>1194.0</ele>
        <time>2022-07-24T15:17:33Z</time>
      </trkpt>
      <trkpt lat="46.2368910" lon="5.8079350">
        <ele>1194.4</ele>
        <time>2022-07-24T15:17:35Z</time>
      </trkpt>
      <trkpt lat="46.2370020" lon="5.8079640">
        <ele>1195.2</ele>
        <time>2022-07-24T15:17:41Z</time>
      </trkpt>
      <trkpt lat="46.2370180" lon="5.8079630">
        <ele>1195.4</ele>
        <time>2022-07-24T15:17:42Z</time>
      </trkpt>
      <trkpt lat="46.2371070" lon="5.8079430">
        <ele>1196.4</ele>
        <time>2022-07-24T15:17:47Z</time>
      </trkpt>
      <trkpt lat="46.2371290" lon="5.8079390">
        <ele>1196.4</ele>
        <time>2022-07-24T15:17:48Z</time>
      </trkpt>
      <trkpt lat="46.2371870" lon="5.8079250">
        <ele>1196.8</ele>
        <time>2022-07-24T15:17:51Z</time>
      </trkpt>
      <trkpt lat="46.2372880" lon="5.8079050">
        <ele>1197.4</ele>
        <time>2022-07-24T15:17:56Z</time>
      </trkpt>
      <trkpt lat="46.2373080" lon="5.8079030">
        <ele>1197.6</ele>
        <time>2022-07-24T15:17:57Z</time>
      </trkpt>
      <trkpt lat="46.2373400" lon="5.8079010">
        <ele>1198.0</ele>
        <time>2022-07-24T15:17:59Z</time>
      </trkpt>
      <trkpt lat="46.2374060" lon="5.8078970">
        <ele>1198.4</ele>
        <time>2022-07-24T15:18:03Z</time>
      </trkpt>
      <trkpt lat="46.2374180" lon="5.8078970">
        <ele>1198.8</ele>
        <time>2022-07-24T15:18:04Z</time>
      </trkpt>
      <trkpt lat="46.2374630" lon="5.8078870">
        <ele>1199.2</ele>
        <time>2022-07-24T15:18:07Z</time>
      </trkpt>
      <trkpt lat="46.2374980" lon="5.8078850">
        <ele>1199.6</ele>
        <time>2022-07-24T15:18:09Z</time>
      </trkpt>
      <trkpt lat="46.2375520" lon="5.8078680">
        <ele>1199.8</ele>
        <time>2022-07-24T15:18:13Z</time>
      </trkpt>
      <trkpt lat="46.2375840" lon="5.8078600">
        <ele>1200.0</ele>
        <time>2022-07-24T15:18:15Z</time>
      </trkpt>
      <trkpt lat="46.2376700" lon="5.8078150">
        <ele>1201.0</ele>
        <time>2022-07-24T15:18:21Z</time>
      </trkpt>
      <trkpt lat="46.2376900" lon="5.8078000">
        <ele>1201.2</ele>
        <time>2022-07-24T15:18:22Z</time>
      </trkpt>
      <trkpt lat="46.2378140" lon="5.8077070">
        <ele>1202.0</ele>
        <time>2022-07-24T15:18:29Z</time>
      </trkpt>
      <trkpt lat="46.2379180" lon="5.8076230">
        <ele>1203.0</ele>
        <time>2022-07-24T15:18:36Z</time>
      </trkpt>
      <trkpt lat="46.2379860" lon="5.8075850">
        <ele>1203.6</ele>
        <time>2022-07-24T15:18:41Z</time>
      </trkpt>
      <trkpt lat="46.2380520" lon="5.8075280">
        <ele>1204.2</ele>
        <time>2022-07-24T15:18:47Z</time>
      </trkpt>
      <trkpt lat="46.2380840" lon="5.8074950">
        <ele>1204.4</ele>
        <time>2022-07-24T15:18:49Z</time>
      </trkpt>
      <trkpt lat="46.2381320" lon="5.8074300">
        <ele>1204.8</ele>
        <time>2022-07-24T15:18:52Z</time>
      </trkpt>
      <trkpt lat="46.2382250" lon="5.8073140">
        <ele>1205.4</ele>
        <time>2022-07-24T15:18:58Z</time>
      </trkpt>
      <trkpt lat="46.2382440" lon="5.8072910">
        <ele>1205.6</ele>
        <time>2022-07-24T15:18:59Z</time>
      </trkpt>
      <trkpt lat="46.2383460" lon="5.8072010">
        <ele>1206.4</ele>
        <time>2022-07-24T15:19:05Z</time>
      </trkpt>
      <trkpt lat="46.2383560" lon="5.8071920">
        <ele>1206.6</ele>
        <time>2022-07-24T15:19:06Z</time>
      </trkpt>
      <trkpt lat="46.2384240" lon="5.8071270">
        <ele>1207.0</ele>
        <time>2022-07-24T15:19:11Z</time>
      </trkpt>
      <trkpt lat="46.2384430" lon="5.8070350">
        <ele>1207.6</ele>
        <time>2022-07-24T15:19:15Z</time>
      </trkpt>
      <trkpt lat="46.2384370" lon="5.8069860">
        <ele>1207.8</ele>
        <time>2022-07-24T15:19:17Z</time>
      </trkpt>
      <trkpt lat="46.2384120" lon="5.8068560">
        <ele>1208.4</ele>
        <time>2022-07-24T15:19:22Z</time>
      </trkpt>
      <trkpt lat="46.2384080" lon="5.8068160">
        <ele>1208.6</ele>
        <time>2022-07-24T15:19:24Z</time>
      </trkpt>
      <trkpt lat="46.2383800" lon="5.8067650">
        <ele>1208.6</ele>
        <time>2022-07-24T15:19:27Z</time>
      </trkpt>
      <trkpt lat="46.2383550" lon="5.8067380">
        <ele>1208.8</ele>
        <time>2022-07-24T15:19:29Z</time>
      </trkpt>
      <trkpt lat="46.2383200" lon="5.8067130">
        <ele>1209.0</ele>
        <time>2022-07-24T15:19:32Z</time>
      </trkpt>
      <trkpt lat="46.2382930" lon="5.8066870">
        <ele>1209.4</ele>
        <time>2022-07-24T15:19:37Z</time>
      </trkpt>
      <trkpt lat="46.2382070" lon="5.8066590">
        <ele>1209.8</ele>
        <time>2022-07-24T15:19:43Z</time>
      </trkpt>
      <trkpt lat="46.2380690" lon="5.8065730">
        <ele>1210.0</ele>
        <time>2022-07-24T15:19:51Z</time>
      </trkpt>
      <trkpt lat="46.2380500" lon="5.8065590">
        <ele>1210.2</ele>
        <time>2022-07-24T15:19:52Z</time>
      </trkpt>
      <trkpt lat="46.2379200" lon="5.8065330">
        <ele>1210.8</ele>
        <time>2022-07-24T15:19:57Z</time>
      </trkpt>
      <trkpt lat="46.2378370" lon="5.8064930">
        <ele>1210.8</ele>
        <time>2022-07-24T15:20:01Z</time>
      </trkpt>
      <trkpt lat="46.2378230" lon="5.8064780">
        <ele>1210.8</ele>
        <time>2022-07-24T15:20:02Z</time>
      </trkpt>
      <trkpt lat="46.2377710" lon="5.8063980">
        <ele>1210.0</ele>
        <time>2022-07-24T15:20:06Z</time>
      </trkpt>
      <trkpt lat="46.2377390" lon="5.8063340">
        <ele>1209.4</ele>
        <time>2022-07-24T15:20:08Z</time>
      </trkpt>
      <trkpt lat="46.2377210" lon="5.8063010">
        <ele>1209.2</ele>
        <time>2022-07-24T15:20:09Z</time>
      </trkpt>
      <trkpt lat="46.2376190" lon="5.8061750">
        <ele>1208.0</ele>
        <time>2022-07-24T15:20:13Z</time>
      </trkpt>
      <trkpt lat="46.2375840" lon="5.8061420">
        <ele>1207.8</ele>
        <time>2022-07-24T15:20:14Z</time>
      </trkpt>
      <trkpt lat="46.2375100" lon="5.8060710">
        <ele>1207.4</ele>
        <time>2022-07-24T15:20:16Z</time>
      </trkpt>
      <trkpt lat="46.2374410" lon="5.8060010">
        <ele>1207.4</ele>
        <time>2022-07-24T15:20:18Z</time>
      </trkpt>
      <trkpt lat="46.2373790" lon="5.8059200">
        <ele>1207.0</ele>
        <time>2022-07-24T15:20:20Z</time>
      </trkpt>
      <trkpt lat="46.2373450" lon="5.8058880">
        <ele>1206.8</ele>
        <time>2022-07-24T15:20:21Z</time>
      </trkpt>
      <trkpt lat="46.2372150" lon="5.8057110">
        <ele>1206.0</ele>
        <time>2022-07-24T15:20:25Z</time>
      </trkpt>
      <trkpt lat="46.2371730" lon="5.8056700">
        <ele>1205.8</ele>
        <time>2022-07-24T15:20:26Z</time>
      </trkpt>
      <trkpt lat="46.2371290" lon="5.8056300">
        <ele>1205.8</ele>
        <time>2022-07-24T15:20:27Z</time>
      </trkpt>
      <trkpt lat="46.2370470" lon="5.8055380">
        <ele>1205.4</ele>
        <time>2022-07-24T15:20:29Z</time>
      </trkpt>
      <trkpt lat="46.2369890" lon="5.8054040">
        <ele>1204.8</ele>
        <time>2022-07-24T15:20:31Z</time>
      </trkpt>
      <trkpt lat="46.2369670" lon="5.8053620">
        <ele>1204.6</ele>
        <time>2022-07-24T15:20:32Z</time>
      </trkpt>
      <trkpt lat="46.2369470" lon="5.8053160">
        <ele>1204.2</ele>
        <time>2022-07-24T15:20:34Z</time>
      </trkpt>
      <trkpt lat="46.2369290" lon="5.8052570">
        <ele>1203.6</ele>
        <time>2022-07-24T15:20:36Z</time>
      </trkpt>
      <trkpt lat="46.2366050" lon="5.8043800">
        <ele>1202.0</ele>
        <time>2022-07-24T15:36:40Z</time>
      </trkpt>
      <trkpt lat="46.2365940" lon="5.8043440">
        <ele>1202.0</ele>
        <time>2022-07-24T15:36:41Z</time>
      </trkpt>
      <trkpt lat="46.2365180" lon="5.8041090">
        <ele>1201.6</ele>
        <time>2022-07-24T15:36:48Z</time>
      </trkpt>
      <trkpt lat="46.2363990" lon="5.8040060">
        <ele>1201.6</ele>
        <time>2022-07-24T15:36:53Z</time>
      </trkpt>
      <trkpt lat="46.2362980" lon="5.8038580">
        <ele>1201.8</ele>
        <time>2022-07-24T15:36:59Z</time>
      </trkpt>
      <trkpt lat="46.2362100" lon="5.8037510">
        <ele>1201.6</ele>
        <time>2022-07-24T15:37:04Z</time>
      </trkpt>
      <trkpt lat="46.2360870" lon="5.8036910">
        <ele>1201.8</ele>
        <time>2022-07-24T15:37:09Z</time>
      </trkpt>
      <trkpt lat="46.2359890" lon="5.8036270">
        <ele>1202.2</ele>
        <time>2022-07-24T15:37:14Z</time>
      </trkpt>
      <trkpt lat="46.2357970" lon="5.8034990">
        <ele>1203.2</ele>
        <time>2022-07-24T15:37:23Z</time>
      </trkpt>
      <trkpt lat="46.2357720" lon="5.8034960">
        <ele>1203.4</ele>
        <time>2022-07-24T15:37:24Z</time>
      </trkpt>
      <trkpt lat="46.2356630" lon="5.8034810">
        <ele>1203.6</ele>
        <time>2022-07-24T15:37:28Z</time>
      </trkpt>
      <trkpt lat="46.2354870" lon="5.8034300">
        <ele>1203.6</ele>
        <time>2022-07-24T15:37:33Z</time>
      </trkpt>
      <trkpt lat="46.2353900" lon="5.8033860">
        <ele>1203.8</ele>
        <time>2022-07-24T15:37:37Z</time>
      </trkpt>
      <trkpt lat="46.2352480" lon="5.8033840">
        <ele>1203.8</ele>
        <time>2022-07-24T15:37:43Z</time>
      </trkpt>
      <trkpt lat="46.2351350" lon="5.8033270">
        <ele>1203.6</ele>
        <time>2022-07-24T15:37:48Z</time>
      </trkpt>
      <trkpt lat="46.2350300" lon="5.8031440">
        <ele>1203.6</ele>
        <time>2022-07-24T15:37:52Z</time>
      </trkpt>
      <trkpt lat="46.2350100" lon="5.8030760">
        <ele>1203.6</ele>
        <time>2022-07-24T15:37:53Z</time>
      </trkpt>
      <trkpt lat="46.2349540" lon="5.8027740">
        <ele>1203.0</ele>
        <time>2022-07-24T15:37:57Z</time>
      </trkpt>
      <trkpt lat="46.2349150" lon="5.8026110">
        <ele>1202.6</ele>
        <time>2022-07-24T15:37:59Z</time>
      </trkpt>
      <trkpt lat="46.2348880" lon="5.8025320">
        <ele>1202.0</ele>
        <time>2022-07-24T15:38:00Z</time>
      </trkpt>
      <trkpt lat="46.2348380" lon="5.8024070">
        <ele>1201.8</ele>
        <time>2022-07-24T15:38:02Z</time>
      </trkpt>
      <trkpt lat="46.2348190" lon="5.8023580">
        <ele>1201.4</ele>
        <time>2022-07-24T15:38:03Z</time>
      </trkpt>
      <trkpt lat="46.2348020" lon="5.8022960">
        <ele>1200.8</ele>
        <time>2022-07-24T15:38:04Z</time>
      </trkpt>
      <trkpt lat="46.2347610" lon="5.8021370">
        <ele>1199.6</ele>
        <time>2022-07-24T15:38:07Z</time>
      </trkpt>
      <trkpt lat="46.2347930" lon="5.8019150">
        <ele>1198.8</ele>
        <time>2022-07-24T15:38:12Z</time>
      </trkpt>
      <trkpt lat="46.2348160" lon="5.8018580">
        <ele>1198.6</ele>
        <time>2022-07-24T15:38:14Z</time>
      </trkpt>
      <trkpt lat="46.2348630" lon="5.8017200">
        <ele>1198.4</ele>
        <time>2022-07-24T15:38:18Z</time>
      </trkpt>
      <trkpt lat="46.2348800" lon="5.8015370">
        <ele>1198.2</ele>
        <time>2022-07-24T15:38:22Z</time>
      </trkpt>
      <trkpt lat="46.2348330" lon="5.8012630">
        <ele>1198.0</ele>
        <time>2022-07-24T15:38:28Z</time>
      </trkpt>
      <trkpt lat="46.2347450" lon="5.8010020">
        <ele>1198.0</ele>
        <time>2022-07-24T15:38:34Z</time>
      </trkpt>
      <trkpt lat="46.2347020" lon="5.8008800">
        <ele>1197.8</ele>
        <time>2022-07-24T15:38:38Z</time>
      </trkpt>
      <trkpt lat="46.2346500" lon="5.8007440">
        <ele>1197.2</ele>
        <time>2022-07-24T15:38:42Z</time>
      </trkpt>
      <trkpt lat="46.2346320" lon="5.8006070">
        <ele>1196.4</ele>
        <time>2022-07-24T15:38:45Z</time>
      </trkpt>
      <trkpt lat="46.2346380" lon="5.8005280">
        <ele>1196.2</ele>
        <time>2022-07-24T15:38:47Z</time>
      </trkpt>
      <trkpt lat="46.2346750" lon="5.8003610">
        <ele>1195.2</ele>
        <time>2022-07-24T15:38:51Z</time>
      </trkpt>
      <trkpt lat="46.2347420" lon="5.8000620">
        <ele>1194.2</ele>
        <time>2022-07-24T15:38:56Z</time>
      </trkpt>
      <trkpt lat="46.2347700" lon="5.7998760">
        <ele>1192.8</ele>
        <time>2022-07-24T15:38:59Z</time>
      </trkpt>
      <trkpt lat="46.2347860" lon="5.7997580">
        <ele>1192.4</ele>
        <time>2022-07-24T15:39:01Z</time>
      </trkpt>
      <trkpt lat="46.2347950" lon="5.7996480">
        <ele>1191.6</ele>
        <time>2022-07-24T15:39:03Z</time>
      </trkpt>
      <trkpt lat="46.2348180" lon="5.7994790">
        <ele>1190.4</ele>
        <time>2022-07-24T15:39:06Z</time>
      </trkpt>
      <trkpt lat="46.2348160" lon="5.7994270">
        <ele>1190.0</ele>
        <time>2022-07-24T15:39:07Z</time>
      </trkpt>
      <trkpt lat="46.2348290" lon="5.7993800">
        <ele>1189.6</ele>
        <time>2022-07-24T15:39:08Z</time>
      </trkpt>
      <trkpt lat="46.2348450" lon="5.7993430">
        <ele>1189.2</ele>
        <time>2022-07-24T15:39:09Z</time>
      </trkpt>
      <trkpt lat="46.2348820" lon="5.7992420">
        <ele>1188.2</ele>
        <time>2022-07-24T15:39:11Z</time>
      </trkpt>
      <trkpt lat="46.2348940" lon="5.7991820">
        <ele>1188.0</ele>
        <time>2022-07-24T15:39:12Z</time>
      </trkpt>
      <trkpt lat="46.2349060" lon="5.7990370">
        <ele>1186.8</ele>
        <time>2022-07-24T15:39:14Z</time>
      </trkpt>
      <trkpt lat="46.2348910" lon="5.7988870">
        <ele>1185.8</ele>
        <time>2022-07-24T15:39:16Z</time>
      </trkpt>
      <trkpt lat="46.2348850" lon="5.7986740">
        <ele>1184.2</ele>
        <time>2022-07-24T15:39:19Z</time>
      </trkpt>
      <trkpt lat="46.2349100" lon="5.7984780">
        <ele>1183.2</ele>
        <time>2022-07-24T15:39:22Z</time>
      </trkpt>
      <trkpt lat="46.2349250" lon="5.7983680">
        <ele>1182.2</ele>
        <time>2022-07-24T15:39:24Z</time>
      </trkpt>
      <trkpt lat="46.2349430" lon="5.7982380">
        <ele>1181.2</ele>
        <time>2022-07-24T15:39:26Z</time>
      </trkpt>
      <trkpt lat="46.2349600" lon="5.7981590">
        <ele>1180.2</ele>
        <time>2022-07-24T15:39:27Z</time>
      </trkpt>
      <trkpt lat="46.2349830" lon="5.7980750">
        <ele>1179.8</ele>
        <time>2022-07-24T15:39:28Z</time>
      </trkpt>
      <trkpt lat="46.2350310" lon="5.7978950">
        <ele>1179.0</ele>
        <time>2022-07-24T15:39:30Z</time>
      </trkpt>
      <trkpt lat="46.2350550" lon="5.7977320">
        <ele>1178.0</ele>
        <time>2022-07-24T15:39:32Z</time>
      </trkpt>
      <trkpt lat="46.2350510" lon="5.7976790">
        <ele>1177.6</ele>
        <time>2022-07-24T15:39:33Z</time>
      </trkpt>
      <trkpt lat="46.2350360" lon="5.7976190">
        <ele>1176.6</ele>
        <time>2022-07-24T15:39:35Z</time>
      </trkpt>
      <trkpt lat="46.2350160" lon="5.7975760">
        <ele>1175.6</ele>
        <time>2022-07-24T15:39:37Z</time>
      </trkpt>
      <trkpt lat="46.2349650" lon="5.7974310">
        <ele>1175.2</ele>
        <time>2022-07-24T15:39:42Z</time>
      </trkpt>
      <trkpt lat="46.2349150" lon="5.7971990">
        <ele>1175.2</ele>
        <time>2022-07-24T15:39:48Z</time>
      </trkpt>
      <trkpt lat="46.2348700" lon="5.7968630">
        <ele>1175.8</ele>
        <time>2022-07-24T15:39:55Z</time>
      </trkpt>
      <trkpt lat="46.2348400" lon="5.7967390">
        <ele>1175.8</ele>
        <time>2022-07-24T15:39:59Z</time>
      </trkpt>
      <trkpt lat="46.2347990" lon="5.7965110">
        <ele>1175.8</ele>
        <time>2022-07-24T15:40:06Z</time>
      </trkpt>
      <trkpt lat="46.2347620" lon="5.7963390">
        <ele>1176.2</ele>
        <time>2022-07-24T15:40:12Z</time>
      </trkpt>
      <trkpt lat="46.2347190" lon="5.7961810">
        <ele>1176.6</ele>
        <time>2022-07-24T15:40:17Z</time>
      </trkpt>
      <trkpt lat="46.2346720" lon="5.7959920">
        <ele>1176.6</ele>
        <time>2022-07-24T15:40:22Z</time>
      </trkpt>
      <trkpt lat="46.2346200" lon="5.7957080">
        <ele>1176.4</ele>
        <time>2022-07-24T15:40:30Z</time>
      </trkpt>
      <trkpt lat="46.2345950" lon="5.7955100">
        <ele>1176.4</ele>
        <time>2022-07-24T15:40:36Z</time>
      </trkpt>
      <trkpt lat="46.2345960" lon="5.7954780">
        <ele>1176.4</ele>
        <time>2022-07-24T15:40:37Z</time>
      </trkpt>
      <trkpt lat="46.2346040" lon="5.7953550">
        <ele>1177.0</ele>
        <time>2022-07-24T15:40:41Z</time>
      </trkpt>
      <trkpt lat="46.2346080" lon="5.7953260">
        <ele>1177.0</ele>
        <time>2022-07-24T15:40:42Z</time>
      </trkpt>
      <trkpt lat="46.2346300" lon="5.7951330">
        <ele>1178.0</ele>
        <time>2022-07-24T15:40:48Z</time>
      </trkpt>
      <trkpt lat="46.2346330" lon="5.7950940">
        <ele>1178.0</ele>
        <time>2022-07-24T15:40:49Z</time>
      </trkpt>
      <trkpt lat="46.2346240" lon="5.7949310">
        <ele>1178.4</ele>
        <time>2022-07-24T15:40:54Z</time>
      </trkpt>
      <trkpt lat="46.2345500" lon="5.7947250">
        <ele>1178.8</ele>
        <time>2022-07-24T15:41:01Z</time>
      </trkpt>
      <trkpt lat="46.2344560" lon="5.7945870">
        <ele>1179.2</ele>
        <time>2022-07-24T15:41:06Z</time>
      </trkpt>
      <trkpt lat="46.2343920" lon="5.7945200">
        <ele>1179.4</ele>
        <time>2022-07-24T15:41:09Z</time>
      </trkpt>
      <trkpt lat="46.2342520" lon="5.7943400">
        <ele>1179.6</ele>
        <time>2022-07-24T15:41:17Z</time>
      </trkpt>
      <trkpt lat="46.2341530" lon="5.7941880">
        <ele>1180.2</ele>
        <time>2022-07-24T15:41:23Z</time>
      </trkpt>
      <trkpt lat="46.2340680" lon="5.7941280">
        <ele>1180.6</ele>
        <time>2022-07-24T15:41:28Z</time>
      </trkpt>
      <trkpt lat="46.2339940" lon="5.7940050">
        <ele>1181.2</ele>
        <time>2022-07-24T15:41:35Z</time>
      </trkpt>
      <trkpt lat="46.2339810" lon="5.7939540">
        <ele>1181.4</ele>
        <time>2022-07-24T15:41:37Z</time>
      </trkpt>
      <trkpt lat="46.2339750" lon="5.7938630">
        <ele>1181.6</ele>
        <time>2022-07-24T15:41:41Z</time>
      </trkpt>
      <trkpt lat="46.2339900" lon="5.7937360">
        <ele>1182.0</ele>
        <time>2022-07-24T15:41:48Z</time>
      </trkpt>
      <trkpt lat="46.2339970" lon="5.7936600">
        <ele>1182.8</ele>
        <time>2022-07-24T15:41:53Z</time>
      </trkpt>
      <trkpt lat="46.2340010" lon="5.7936340">
        <ele>1183.2</ele>
        <time>2022-07-24T15:41:55Z</time>
      </trkpt>
      <trkpt lat="46.2340090" lon="5.7935890">
        <ele>1184.0</ele>
        <time>2022-07-24T15:41:58Z</time>
      </trkpt>
      <trkpt lat="46.2340170" lon="5.7935460">
        <ele>1184.6</ele>
        <time>2022-07-24T15:42:01Z</time>
      </trkpt>
      <trkpt lat="46.2340180" lon="5.7935180">
        <ele>1185.0</ele>
        <time>2022-07-24T15:42:03Z</time>
      </trkpt>
      <trkpt lat="46.2340280" lon="5.7934690">
        <ele>1185.6</ele>
        <time>2022-07-24T15:42:07Z</time>
      </trkpt>
      <trkpt lat="46.2340420" lon="5.7934260">
        <ele>1186.0</ele>
        <time>2022-07-24T15:42:11Z</time>
      </trkpt>
      <trkpt lat="46.2340520" lon="5.7933930">
        <ele>1186.8</ele>
        <time>2022-07-24T15:42:14Z</time>
      </trkpt>
      <trkpt lat="46.2340550" lon="5.7933730">
        <ele>1187.2</ele>
        <time>2022-07-24T15:42:16Z</time>
      </trkpt>
      <trkpt lat="46.2340680" lon="5.7933000">
        <ele>1188.6</ele>
        <time>2022-07-24T15:42:22Z</time>
      </trkpt>
      <trkpt lat="46.2340700" lon="5.7932860">
        <ele>1189.2</ele>
        <time>2022-07-24T15:42:25Z</time>
      </trkpt>
      <trkpt lat="46.2341130" lon="5.7931710">
        <ele>1189.8</ele>
        <time>2022-07-24T15:42:33Z</time>
      </trkpt>
      <trkpt lat="46.2341260" lon="5.7930780">
        <ele>1189.8</ele>
        <time>2022-07-24T15:42:35Z</time>
      </trkpt>
      <trkpt lat="46.2341580" lon="5.7929160">
        <ele>1189.2</ele>
        <time>2022-07-24T15:42:40Z</time>
      </trkpt>
      <trkpt lat="46.2341680" lon="5.7928670">
        <ele>1188.4</ele>
        <time>2022-07-24T15:42:42Z</time>
      </trkpt>
      <trkpt lat="46.2341870" lon="5.7928010">
        <ele>1187.0</ele>
        <time>2022-07-24T15:42:45Z</time>
      </trkpt>
      <trkpt lat="46.2342130" lon="5.7927640">
        <ele>1186.4</ele>
        <time>2022-07-24T15:42:47Z</time>
      </trkpt>
      <trkpt lat="46.2342320" lon="5.7927480">
        <ele>1186.0</ele>
        <time>2022-07-24T15:42:48Z</time>
      </trkpt>
      <trkpt lat="46.2343110" lon="5.7927160">
        <ele>1185.0</ele>
        <time>2022-07-24T15:42:51Z</time>
      </trkpt>
      <trkpt lat="46.2343550" lon="5.7927020">
        <ele>1184.6</ele>
        <time>2022-07-24T15:42:52Z</time>
      </trkpt>
      <trkpt lat="46.2344400" lon="5.7926670">
        <ele>1184.0</ele>
        <time>2022-07-24T15:42:54Z</time>
      </trkpt>
      <trkpt lat="46.2344800" lon="5.7926420">
        <ele>1183.6</ele>
        <time>2022-07-24T15:42:55Z</time>
      </trkpt>
      <trkpt lat="46.2346190" lon="5.7925410">
        <ele>1182.4</ele>
        <time>2022-07-24T15:42:58Z</time>
      </trkpt>
      <trkpt lat="46.2346650" lon="5.7924920">
        <ele>1182.0</ele>
        <time>2022-07-24T15:42:59Z</time>
      </trkpt>
      <trkpt lat="46.2347090" lon="5.7924300">
        <ele>1181.4</ele>
        <time>2022-07-24T15:43:00Z</time>
      </trkpt>
      <trkpt lat="46.2347910" lon="5.7922950">
        <ele>1180.0</ele>
        <time>2022-07-24T15:43:02Z</time>
      </trkpt>
      <trkpt lat="46.2348520" lon="5.7921730">
        <ele>1178.6</ele>
        <time>2022-07-24T15:43:04Z</time>
      </trkpt>
      <trkpt lat="46.2349070" lon="5.7920490">
        <ele>1177.6</ele>
        <time>2022-07-24T15:43:06Z</time>
      </trkpt>
      <trkpt lat="46.2349370" lon="5.7919730">
        <ele>1177.2</ele>
        <time>2022-07-24T15:43:07Z</time>
      </trkpt>
      <trkpt lat="46.2350020" lon="5.7917980">
        <ele>1176.4</ele>
        <time>2022-07-24T15:43:09Z</time>
      </trkpt>
      <trkpt lat="46.2351160" lon="5.7915230">
        <ele>1175.6</ele>
        <time>2022-07-24T15:43:12Z</time>
      </trkpt>
      <trkpt lat="46.2351520" lon="5.7914300">
        <ele>1175.4</ele>
        <time>2022-07-24T15:43:13Z</time>
      </trkpt>
      <trkpt lat="46.2352720" lon="5.7911540">
        <ele>1174.2</ele>
        <time>2022-07-24T15:43:16Z</time>
      </trkpt>
      <trkpt lat="46.2353120" lon="5.7910800">
        <ele>1173.6</ele>
        <time>2022-07-24T15:43:17Z</time>
      </trkpt>
      <trkpt lat="46.2353460" lon="5.7910120">
        <ele>1173.0</ele>
        <time>2022-07-24T15:43:18Z</time>
      </trkpt>
      <trkpt lat="46.2354140" lon="5.7908960">
        <ele>1171.2</ele>
        <time>2022-07-24T15:43:20Z</time>
      </trkpt>
      <trkpt lat="46.2354430" lon="5.7908500">
        <ele>1170.6</ele>
        <time>2022-07-24T15:43:21Z</time>
      </trkpt>
      <trkpt lat="46.2354940" lon="5.7907720">
        <ele>1170.0</ele>
        <time>2022-07-24T15:43:23Z</time>
      </trkpt>
      <trkpt lat="46.2355810" lon="5.7906560">
        <ele>1169.6</ele>
        <time>2022-07-24T15:43:27Z</time>
      </trkpt>
      <trkpt lat="46.2357000" lon="5.7905450">
        <ele>1169.4</ele>
        <time>2022-07-24T15:43:34Z</time>
      </trkpt>
      <trkpt lat="46.2357260" lon="5.7905280">
        <ele>1169.4</ele>
        <time>2022-07-24T15:43:37Z</time>
      </trkpt>
      <trkpt lat="46.2358800" lon="5.7903290">
        <ele>1168.4</ele>
        <time>2022-07-24T15:49:45Z</time>
      </trkpt>
      <trkpt lat="46.2360530" lon="5.7901350">
        <ele>1167.2</ele>
        <time>2022-07-24T15:49:53Z</time>
      </trkpt>
      <trkpt lat="46.2361580" lon="5.7899780">
        <ele>1166.0</ele>
        <time>2022-07-24T15:49:57Z</time>
      </trkpt>
      <trkpt lat="46.2362010" lon="5.7898710">
        <ele>1165.4</ele>
        <time>2022-07-24T15:49:59Z</time>
      </trkpt>
      <trkpt lat="46.2362180" lon="5.7898130">
        <ele>1164.8</ele>
        <time>2022-07-24T15:50:00Z</time>
      </trkpt>
      <trkpt lat="46.2362240" lon="5.7896680">
        <ele>1163.6</ele>
        <time>2022-07-24T15:50:03Z</time>
      </trkpt>
      <trkpt lat="46.2362190" lon="5.7896300">
        <ele>1163.2</ele>
        <time>2022-07-24T15:50:04Z</time>
      </trkpt>
      <trkpt lat="46.2362100" lon="5.7895930">
        <ele>1162.6</ele>
        <time>2022-07-24T15:50:05Z</time>
      </trkpt>
      <trkpt lat="46.2361900" lon="5.7894910">
        <ele>1161.0</ele>
        <time>2022-07-24T15:50:08Z</time>
      </trkpt>
      <trkpt lat="46.2361780" lon="5.7894650">
        <ele>1160.0</ele>
        <time>2022-07-24T15:50:09Z</time>
      </trkpt>
      <trkpt lat="46.2361380" lon="5.7893250">
        <ele>1158.6</ele>
        <time>2022-07-24T15:50:12Z</time>
      </trkpt>
      <trkpt lat="46.2361270" lon="5.7892650">
        <ele>1158.4</ele>
        <time>2022-07-24T15:50:13Z</time>
      </trkpt>
      <trkpt lat="46.2361370" lon="5.7891480">
        <ele>1157.6</ele>
        <time>2022-07-24T15:50:15Z</time>
      </trkpt>
      <trkpt lat="46.2361680" lon="5.7890220">
        <ele>1156.8</ele>
        <time>2022-07-24T15:50:17Z</time>
      </trkpt>
      <trkpt lat="46.2361970" lon="5.7889480">
        <ele>1156.4</ele>
        <time>2022-07-24T15:50:18Z</time>
      </trkpt>
      <trkpt lat="46.2362420" lon="5.7888140">
        <ele>1155.8</ele>
        <time>2022-07-24T15:50:20Z</time>
      </trkpt>
      <trkpt lat="46.2362520" lon="5.7887400">
        <ele>1155.4</ele>
        <time>2022-07-24T15:50:21Z</time>
      </trkpt>
      <trkpt lat="46.2362710" lon="5.7886090">
        <ele>1153.8</ele>
        <time>2022-07-24T15:50:23Z</time>
      </trkpt>
      <trkpt lat="46.2362900" lon="5.7884820">
        <ele>1152.8</ele>
        <time>2022-07-24T15:50:25Z</time>
      </trkpt>
      <trkpt lat="46.2363060" lon="5.7884250">
        <ele>1152.2</ele>
        <time>2022-07-24T15:50:26Z</time>
      </trkpt>
      <trkpt lat="46.2363260" lon="5.7883710">
        <ele>1151.6</ele>
        <time>2022-07-24T15:50:27Z</time>
      </trkpt>
      <trkpt lat="46.2363610" lon="5.7882630">
        <ele>1150.2</ele>
        <time>2022-07-24T15:50:29Z</time>
      </trkpt>
      <trkpt lat="46.2363710" lon="5.7881340">
        <ele>1149.0</ele>
        <time>2022-07-24T15:50:31Z</time>
      </trkpt>
      <trkpt lat="46.2363560" lon="5.7879290">
        <ele>1147.8</ele>
        <time>2022-07-24T15:50:33Z</time>
      </trkpt>
      <trkpt lat="46.2363480" lon="5.7878290">
        <ele>1147.4</ele>
        <time>2022-07-24T15:50:34Z</time>
      </trkpt>
      <trkpt lat="46.2363130" lon="5.7876320">
        <ele>1146.8</ele>
        <time>2022-07-24T15:50:36Z</time>
      </trkpt>
      <trkpt lat="46.2362880" lon="5.7875300">
        <ele>1146.6</ele>
        <time>2022-07-24T15:50:37Z</time>
      </trkpt>
      <trkpt lat="46.2362620" lon="5.7874210">
        <ele>1146.2</ele>
        <time>2022-07-24T15:50:38Z</time>
      </trkpt>
      <trkpt lat="46.2362100" lon="5.7872130">
        <ele>1145.6</ele>
        <time>2022-07-24T15:50:40Z</time>
      </trkpt>
      <trkpt lat="46.2361600" lon="5.7869120">
        <ele>1144.0</ele>
        <time>2022-07-24T15:50:43Z</time>
      </trkpt>
      <trkpt lat="46.2361690" lon="5.7868170">
        <ele>1143.2</ele>
        <time>2022-07-24T15:50:44Z</time>
      </trkpt>
      <trkpt lat="46.2361910" lon="5.7867290">
        <ele>1142.4</ele>
        <time>2022-07-24T15:50:45Z</time>
      </trkpt>
      <trkpt lat="46.2362280" lon="5.7866490">
        <ele>1141.2</ele>
        <time>2022-07-24T15:50:46Z</time>
      </trkpt>
      <trkpt lat="46.2362760" lon="5.7865830">
        <ele>1140.0</ele>
        <time>2022-07-24T15:50:47Z</time>
      </trkpt>
      <trkpt lat="46.2363320" lon="5.7865300">
        <ele>1139.0</ele>
        <time>2022-07-24T15:50:48Z</time>
      </trkpt>
      <trkpt lat="46.2364000" lon="5.7864900">
        <ele>1138.0</ele>
        <time>2022-07-24T15:50:49Z</time>
      </trkpt>
      <trkpt lat="46.2364700" lon="5.7864620">
        <ele>1137.0</ele>
        <time>2022-07-24T15:50:50Z</time>
      </trkpt>
      <trkpt lat="46.2365440" lon="5.7864350">
        <ele>1135.8</ele>
        <time>2022-07-24T15:50:51Z</time>
      </trkpt>
      <trkpt lat="46.2366120" lon="5.7864130">
        <ele>1134.6</ele>
        <time>2022-07-24T15:50:52Z</time>
      </trkpt>
      <trkpt lat="46.2367470" lon="5.7863540">
        <ele>1133.0</ele>
        <time>2022-07-24T15:50:54Z</time>
      </trkpt>
      <trkpt lat="46.2368060" lon="5.7863090">
        <ele>1132.4</ele>
        <time>2022-07-24T15:50:55Z</time>
      </trkpt>
      <trkpt lat="46.2368610" lon="5.7862550">
        <ele>1131.8</ele>
        <time>2022-07-24T15:50:56Z</time>
      </trkpt>
      <trkpt lat="46.2369420" lon="5.7861020">
        <ele>1131.0</ele>
        <time>2022-07-24T15:50:58Z</time>
      </trkpt>
      <trkpt lat="46.2369580" lon="5.7860110">
        <ele>1130.6</ele>
        <time>2022-07-24T15:50:59Z</time>
      </trkpt>
      <trkpt lat="46.2369640" lon="5.7858040">
        <ele>1129.4</ele>
        <time>2022-07-24T15:51:01Z</time>
      </trkpt>
      <trkpt lat="46.2369390" lon="5.7855970">
        <ele>1128.2</ele>
        <time>2022-07-24T15:51:03Z</time>
      </trkpt>
      <trkpt lat="46.2368770" lon="5.7853930">
        <ele>1126.6</ele>
        <time>2022-07-24T15:51:05Z</time>
      </trkpt>
      <trkpt lat="46.2367540" lon="5.7851890">
        <ele>1124.4</ele>
        <time>2022-07-24T15:51:07Z</time>
      </trkpt>
      <trkpt lat="46.2366750" lon="5.7850920">
        <ele>1123.8</ele>
        <time>2022-07-24T15:51:08Z</time>
      </trkpt>
      <trkpt lat="46.2365950" lon="5.7849950">
        <ele>1123.0</ele>
        <time>2022-07-24T15:51:09Z</time>
      </trkpt>
      <trkpt lat="46.2364430" lon="5.7848070">
        <ele>1121.2</ele>
        <time>2022-07-24T15:51:11Z</time>
      </trkpt>
      <trkpt lat="46.2363120" lon="5.7846390">
        <ele>1119.2</ele>
        <time>2022-07-24T15:51:13Z</time>
      </trkpt>
      <trkpt lat="46.2362450" lon="5.7845700">
        <ele>1118.2</ele>
        <time>2022-07-24T15:51:14Z</time>
      </trkpt>
      <trkpt lat="46.2361020" lon="5.7844580">
        <ele>1116.2</ele>
        <time>2022-07-24T15:51:16Z</time>
      </trkpt>
      <trkpt lat="46.2360230" lon="5.7844110">
        <ele>1115.2</ele>
        <time>2022-07-24T15:51:17Z</time>
      </trkpt>
      <trkpt lat="46.2359460" lon="5.7843620">
        <ele>1113.8</ele>
        <time>2022-07-24T15:51:18Z</time>
      </trkpt>
      <trkpt lat="46.2358730" lon="5.7843020">
        <ele>1112.4</ele>
        <time>2022-07-24T15:51:19Z</time>
      </trkpt>
      <trkpt lat="46.2358030" lon="5.7842280">
        <ele>1111.2</ele>
        <time>2022-07-24T15:51:20Z</time>
      </trkpt>
      <trkpt lat="46.2357390" lon="5.7841350">
        <ele>1110.0</ele>
        <time>2022-07-24T15:51:21Z</time>
      </trkpt>
      <trkpt lat="46.2356940" lon="5.7840210">
        <ele>1108.8</ele>
        <time>2022-07-24T15:51:22Z</time>
      </trkpt>
      <trkpt lat="46.2356160" lon="5.7837890">
        <ele>1107.4</ele>
        <time>2022-07-24T15:51:24Z</time>
      </trkpt>
      <trkpt lat="46.2355180" lon="5.7835710">
        <ele>1105.4</ele>
        <time>2022-07-24T15:51:26Z</time>
      </trkpt>
      <trkpt lat="46.2354570" lon="5.7834610">
        <ele>1104.2</ele>
        <time>2022-07-24T15:51:27Z</time>
      </trkpt>
      <trkpt lat="46.2353920" lon="5.7833660">
        <ele>1103.2</ele>
        <time>2022-07-24T15:51:28Z</time>
      </trkpt>
      <trkpt lat="46.2353290" lon="5.7832870">
        <ele>1102.4</ele>
        <time>2022-07-24T15:51:29Z</time>
      </trkpt>
      <trkpt lat="46.2352160" lon="5.7831470">
        <ele>1101.2</ele>
        <time>2022-07-24T15:51:31Z</time>
      </trkpt>
      <trkpt lat="46.2351660" lon="5.7830760">
        <ele>1100.4</ele>
        <time>2022-07-24T15:51:32Z</time>
      </trkpt>
      <trkpt lat="46.2351280" lon="5.7829940">
        <ele>1099.2</ele>
        <time>2022-07-24T15:51:33Z</time>
      </trkpt>
      <trkpt lat="46.2351010" lon="5.7829000">
        <ele>1098.2</ele>
        <time>2022-07-24T15:51:34Z</time>
      </trkpt>
      <trkpt lat="46.2350870" lon="5.7828050">
        <ele>1097.2</ele>
        <time>2022-07-24T15:51:35Z</time>
      </trkpt>
      <trkpt lat="46.2350800" lon="5.7827060">
        <ele>1095.2</ele>
        <time>2022-07-24T15:51:36Z</time>
      </trkpt>
      <trkpt lat="46.2350880" lon="5.7824870">
        <ele>1093.0</ele>
        <time>2022-07-24T15:51:38Z</time>
      </trkpt>
      <trkpt lat="46.2350870" lon="5.7823780">
        <ele>1092.0</ele>
        <time>2022-07-24T15:51:39Z</time>
      </trkpt>
      <trkpt lat="46.2350440" lon="5.7821490">
        <ele>1090.4</ele>
        <time>2022-07-24T15:51:41Z</time>
      </trkpt>
      <trkpt lat="46.2350020" lon="5.7820180">
        <ele>1089.8</ele>
        <time>2022-07-24T15:51:42Z</time>
      </trkpt>
      <trkpt lat="46.2349510" lon="5.7818920">
        <ele>1089.0</ele>
        <time>2022-07-24T15:51:43Z</time>
      </trkpt>
      <trkpt lat="46.2348340" lon="5.7816570">
        <ele>1087.4</ele>
        <time>2022-07-24T15:51:45Z</time>
      </trkpt>
      <trkpt lat="46.2347710" lon="5.7815380">
        <ele>1086.6</ele>
        <time>2022-07-24T15:51:46Z</time>
      </trkpt>
      <trkpt lat="46.2347080" lon="5.7814170">
        <ele>1085.6</ele>
        <time>2022-07-24T15:51:47Z</time>
      </trkpt>
      <trkpt lat="46.2346010" lon="5.7811630">
        <ele>1083.8</ele>
        <time>2022-07-24T15:51:49Z</time>
      </trkpt>
      <trkpt lat="46.2345530" lon="5.7810290">
        <ele>1083.0</ele>
        <time>2022-07-24T15:51:50Z</time>
      </trkpt>
      <trkpt lat="46.2345020" lon="5.7808910">
        <ele>1082.6</ele>
        <time>2022-07-24T15:51:51Z</time>
      </trkpt>
      <trkpt lat="46.2343940" lon="5.7806230">
        <ele>1081.2</ele>
        <time>2022-07-24T15:51:53Z</time>
      </trkpt>
      <trkpt lat="46.2342960" lon="5.7803840">
        <ele>1080.2</ele>
        <time>2022-07-24T15:51:55Z</time>
      </trkpt>
      <trkpt lat="46.2342140" lon="5.7801580">
        <ele>1078.8</ele>
        <time>2022-07-24T15:51:57Z</time>
      </trkpt>
      <trkpt lat="46.2341300" lon="5.7799500">
        <ele>1078.0</ele>
        <time>2022-07-24T15:51:59Z</time>
      </trkpt>
      <trkpt lat="46.2340320" lon="5.7797610">
        <ele>1076.8</ele>
        <time>2022-07-24T15:52:01Z</time>
      </trkpt>
      <trkpt lat="46.2338690" lon="5.7794940">
        <ele>1074.8</ele>
        <time>2022-07-24T15:52:04Z</time>
      </trkpt>
      <trkpt lat="46.2338020" lon="5.7794200">
        <ele>1072.6</ele>
        <time>2022-07-24T15:52:05Z</time>
      </trkpt>
      <trkpt lat="46.2337340" lon="5.7793510">
        <ele>1071.6</ele>
        <time>2022-07-24T15:52:06Z</time>
      </trkpt>
      <trkpt lat="46.2336650" lon="5.7792900">
        <ele>1070.4</ele>
        <time>2022-07-24T15:52:07Z</time>
      </trkpt>
      <trkpt lat="46.2335890" lon="5.7792340">
        <ele>1069.0</ele>
        <time>2022-07-24T15:52:08Z</time>
      </trkpt>
      <trkpt lat="46.2335120" lon="5.7791920">
        <ele>1067.8</ele>
        <time>2022-07-24T15:52:09Z</time>
      </trkpt>
      <trkpt lat="46.2334350" lon="5.7791610">
        <ele>1067.0</ele>
        <time>2022-07-24T15:52:10Z</time>
      </trkpt>
      <trkpt lat="46.2333560" lon="5.7791380">
        <ele>1066.2</ele>
        <time>2022-07-24T15:52:11Z</time>
      </trkpt>
      <trkpt lat="46.2332020" lon="5.7790720">
        <ele>1064.6</ele>
        <time>2022-07-24T15:52:13Z</time>
      </trkpt>
      <trkpt lat="46.2331320" lon="5.7790040">
        <ele>1064.0</ele>
        <time>2022-07-24T15:52:14Z</time>
      </trkpt>
      <trkpt lat="46.2330710" lon="5.7789200">
        <ele>1063.0</ele>
        <time>2022-07-24T15:52:15Z</time>
      </trkpt>
      <trkpt lat="46.2329780" lon="5.7787160">
        <ele>1061.0</ele>
        <time>2022-07-24T15:52:17Z</time>
      </trkpt>
      <trkpt lat="46.2329310" lon="5.7786140">
        <ele>1060.0</ele>
        <time>2022-07-24T15:52:18Z</time>
      </trkpt>
      <trkpt lat="46.2328700" lon="5.7785280">
        <ele>1059.0</ele>
        <time>2022-07-24T15:52:19Z</time>
      </trkpt>
      <trkpt lat="46.2328010" lon="5.7784610">
        <ele>1058.0</ele>
        <time>2022-07-24T15:52:20Z</time>
      </trkpt>
      <trkpt lat="46.2327250" lon="5.7784110">
        <ele>1056.8</ele>
        <time>2022-07-24T15:52:21Z</time>
      </trkpt>
      <trkpt lat="46.2325620" lon="5.7783360">
        <ele>1055.4</ele>
        <time>2022-07-24T15:52:23Z</time>
      </trkpt>
      <trkpt lat="46.2323950" lon="5.7782260">
        <ele>1054.6</ele>
        <time>2022-07-24T15:52:25Z</time>
      </trkpt>
      <trkpt lat="46.2323090" lon="5.7781540">
        <ele>1054.2</ele>
        <time>2022-07-24T15:52:26Z</time>
      </trkpt>
      <trkpt lat="46.2322330" lon="5.7780720">
        <ele>1054.0</ele>
        <time>2022-07-24T15:52:27Z</time>
      </trkpt>
      <trkpt lat="46.2320990" lon="5.7779100">
        <ele>1053.6</ele>
        <time>2022-07-24T15:52:29Z</time>
      </trkpt>
      <trkpt lat="46.2319720" lon="5.7777660">
        <ele>1053.0</ele>
        <time>2022-07-24T15:52:31Z</time>
      </trkpt>
      <trkpt lat="46.2318530" lon="5.7776400">
        <ele>1051.8</ele>
        <time>2022-07-24T15:52:33Z</time>
      </trkpt>
      <trkpt lat="46.2318000" lon="5.7775800">
        <ele>1050.2</ele>
        <time>2022-07-24T15:52:34Z</time>
      </trkpt>
      <trkpt lat="46.2316440" lon="5.7773940">
        <ele>1049.4</ele>
        <time>2022-07-24T15:52:37Z</time>
      </trkpt>
      <trkpt lat="46.2313670" lon="5.7770690">
        <ele>1048.8</ele>
        <time>2022-07-24T15:52:42Z</time>
      </trkpt>
      <trkpt lat="46.2311150" lon="5.7767680">
        <ele>1048.2</ele>
        <time>2022-07-24T15:52:46Z</time>
      </trkpt>
      <trkpt lat="46.2309860" lon="5.7766240">
        <ele>1048.2</ele>
        <time>2022-07-24T15:52:48Z</time>
      </trkpt>
      <trkpt lat="46.2307930" lon="5.7764350">
        <ele>1047.2</ele>
        <time>2022-07-24T15:52:51Z</time>
      </trkpt>
      <trkpt lat="46.2306160" lon="5.7762940">
        <ele>1046.0</ele>
        <time>2022-07-24T15:52:54Z</time>
      </trkpt>
      <trkpt lat="46.2304900" lon="5.7762520">
        <ele>1045.0</ele>
        <time>2022-07-24T15:52:56Z</time>
      </trkpt>
      <trkpt lat="46.2303580" lon="5.7762430">
        <ele>1043.6</ele>
        <time>2022-07-24T15:52:58Z</time>
      </trkpt>
      <trkpt lat="46.2302270" lon="5.7762460">
        <ele>1042.4</ele>
        <time>2022-07-24T15:53:00Z</time>
      </trkpt>
      <trkpt lat="46.2301040" lon="5.7762480">
        <ele>1040.2</ele>
        <time>2022-07-24T15:53:02Z</time>
      </trkpt>
      <trkpt lat="46.2299890" lon="5.7762520">
        <ele>1039.0</ele>
        <time>2022-07-24T15:53:04Z</time>
      </trkpt>
      <trkpt lat="46.2298720" lon="5.7762590">
        <ele>1038.4</ele>
        <time>2022-07-24T15:53:06Z</time>
      </trkpt>
      <trkpt lat="46.2298130" lon="5.7762580">
        <ele>1038.0</ele>
        <time>2022-07-24T15:53:07Z</time>
      </trkpt>
      <trkpt lat="46.2296970" lon="5.7762510">
        <ele>1037.6</ele>
        <time>2022-07-24T15:53:09Z</time>
      </trkpt>
      <trkpt lat="46.2295370" lon="5.7761780">
        <ele>1037.4</ele>
        <time>2022-07-24T15:53:12Z</time>
      </trkpt>
      <trkpt lat="46.2294900" lon="5.7761390">
        <ele>1037.4</ele>
        <time>2022-07-24T15:53:13Z</time>
      </trkpt>
      <trkpt lat="46.2293980" lon="5.7760500">
        <ele>1037.2</ele>
        <time>2022-07-24T15:53:15Z</time>
      </trkpt>
      <trkpt lat="46.2292210" lon="5.7758650">
        <ele>1036.6</ele>
        <time>2022-07-24T15:53:19Z</time>
      </trkpt>
      <trkpt lat="46.2288820" lon="5.7754820">
        <ele>1036.2</ele>
        <time>2022-07-24T15:53:27Z</time>
      </trkpt>
      <trkpt lat="46.2288370" lon="5.7754460">
        <ele>1036.2</ele>
        <time>2022-07-24T15:53:28Z</time>
      </trkpt>
      <trkpt lat="46.2286040" lon="5.7753050">
        <ele>1036.0</ele>
        <time>2022-07-24T15:53:33Z</time>
      </trkpt>
      <trkpt lat="46.2283110" lon="5.7751230">
        <ele>1035.4</ele>
        <time>2022-07-24T15:53:40Z</time>
      </trkpt>
      <trkpt lat="46.2281610" lon="5.7750170">
        <ele>1035.4</ele>
        <time>2022-07-24T15:53:44Z</time>
      </trkpt>
      <trkpt lat="46.2280070" lon="5.7749130">
        <ele>1035.2</ele>
        <time>2022-07-24T15:53:48Z</time>
      </trkpt>
      <trkpt lat="46.2276230" lon="5.7747060">
        <ele>1034.6</ele>
        <time>2022-07-24T15:53:58Z</time>
      </trkpt>
      <trkpt lat="46.2273330" lon="5.7745870">
        <ele>1034.6</ele>
        <time>2022-07-24T15:54:05Z</time>
      </trkpt>
      <trkpt lat="46.2272920" lon="5.7745750">
        <ele>1034.6</ele>
        <time>2022-07-24T15:54:06Z</time>
      </trkpt>
      <trkpt lat="46.2269380" lon="5.7744640">
        <ele>1034.6</ele>
        <time>2022-07-24T15:54:15Z</time>
      </trkpt>
      <trkpt lat="46.2266980" lon="5.7744010">
        <ele>1034.8</ele>
        <time>2022-07-24T15:54:22Z</time>
      </trkpt>
      <trkpt lat="46.2263660" lon="5.7743790">
        <ele>1035.0</ele>
        <time>2022-07-24T15:54:32Z</time>
      </trkpt>
      <trkpt lat="46.2262530" lon="5.7743640">
        <ele>1035.2</ele>
        <time>2022-07-24T15:54:37Z</time>
      </trkpt>
      <trkpt lat="46.2262000" lon="5.7744010">
        <ele>1035.4</ele>
        <time>2022-07-24T15:54:40Z</time>
      </trkpt>
      <trkpt lat="46.2261790" lon="5.7744250">
        <ele>1035.6</ele>
        <time>2022-07-24T15:54:42Z</time>
      </trkpt>
      <trkpt lat="46.2261560" lon="5.7744060">
        <ele>1035.8</ele>
        <time>2022-07-24T15:54:47Z</time>
      </trkpt>
      <trkpt lat="46.2261530" lon="5.7743970">
        <ele>1036.0</ele>
        <time>2022-07-24T15:54:50Z</time>
      </trkpt>
      <trkpt lat="46.2261750" lon="5.7743780">
        <ele>1036.2</ele>
        <time>2022-07-24T15:54:57Z</time>
      </trkpt>
      <trkpt lat="46.2261910" lon="5.7743750">
        <ele>1036.2</ele>
        <time>2022-07-24T15:54:58Z</time>
      </trkpt>
      <trkpt lat="46.2262610" lon="5.7743280">
        <ele>1036.0</ele>
        <time>2022-07-24T15:55:03Z</time>
      </trkpt>
      <trkpt lat="46.2262650" lon="5.7743020">
        <ele>1036.0</ele>
        <time>2022-07-24T15:55:04Z</time>
      </trkpt>
      <trkpt lat="46.2262890" lon="5.7741820">
        <ele>1035.8</ele>
        <time>2022-07-24T15:55:08Z</time>
      </trkpt>
      <trkpt lat="46.2263090" lon="5.7738980">
        <ele>1035.6</ele>
        <time>2022-07-24T15:55:14Z</time>
      </trkpt>
      <trkpt lat="46.2262300" lon="5.7737710">
        <ele>1035.0</ele>
        <time>2022-07-24T15:55:18Z</time>
      </trkpt>
      <trkpt lat="46.2261050" lon="5.7737610">
        <ele>1034.6</ele>
        <time>2022-07-24T15:55:23Z</time>
      </trkpt>
      <trkpt lat="46.2259080" lon="5.7737810">
        <ele>1034.6</ele>
        <time>2022-07-24T15:55:31Z</time>
      </trkpt>
      <trkpt lat="46.2256640" lon="5.7737990">
        <ele>1035.4</ele>
        <time>2022-07-24T15:55:41Z</time>
      </trkpt>
      <trkpt lat="46.2254430" lon="5.7738170">
        <ele>1035.6</ele>
        <time>2022-07-24T15:55:49Z</time>
      </trkpt>
      <trkpt lat="46.2252550" lon="5.7738680">
        <ele>1035.8</ele>
        <time>2022-07-24T15:55:54Z</time>
      </trkpt>
      <trkpt lat="46.2252130" lon="5.7738800">
        <ele>1035.8</ele>
        <time>2022-07-24T15:55:55Z</time>
      </trkpt>
      <trkpt lat="46.2251700" lon="5.7738980">
        <ele>1035.8</ele>
        <time>2022-07-24T15:55:56Z</time>
      </trkpt>
      <trkpt lat="46.2250540" lon="5.7739830">
        <ele>1035.2</ele>
        <time>2022-07-24T15:55:59Z</time>
      </trkpt>
      <trkpt lat="46.2248590" lon="5.7741120">
        <ele>1034.6</ele>
        <time>2022-07-24T15:56:03Z</time>
      </trkpt>
      <trkpt lat="46.2248020" lon="5.7741550">
        <ele>1034.6</ele>
        <time>2022-07-24T15:56:04Z</time>
      </trkpt>
      <trkpt lat="46.2245430" lon="5.7743740">
        <ele>1033.8</ele>
        <time>2022-07-24T15:56:09Z</time>
      </trkpt>
      <trkpt lat="46.2244910" lon="5.7744150">
        <ele>1033.4</ele>
        <time>2022-07-24T15:56:10Z</time>
      </trkpt>
      <trkpt lat="46.2243350" lon="5.7745270">
        <ele>1032.6</ele>
        <time>2022-07-24T15:56:13Z</time>
      </trkpt>
      <trkpt lat="46.2241980" lon="5.7746360">
        <ele>1031.6</ele>
        <time>2022-07-24T15:56:16Z</time>
      </trkpt>
      <trkpt lat="46.2241570" lon="5.7746720">
        <ele>1031.4</ele>
        <time>2022-07-24T15:56:17Z</time>
      </trkpt>
      <trkpt lat="46.2240450" lon="5.7747500">
        <ele>1031.0</ele>
        <time>2022-07-24T15:56:20Z</time>
      </trkpt>
      <trkpt lat="46.2240050" lon="5.7747600">
        <ele>1030.8</ele>
        <time>2022-07-24T15:56:21Z</time>
      </trkpt>
      <trkpt lat="46.2239140" lon="5.7747710">
        <ele>1030.4</ele>
        <time>2022-07-24T15:56:23Z</time>
      </trkpt>
      <trkpt lat="46.2237740" lon="5.7747560">
        <ele>1030.2</ele>
        <time>2022-07-24T15:56:25Z</time>
      </trkpt>
      <trkpt lat="46.2234050" lon="5.7747170">
        <ele>1029.6</ele>
        <time>2022-07-24T15:56:30Z</time>
      </trkpt>
      <trkpt lat="46.2232620" lon="5.7746960">
        <ele>1028.8</ele>
        <time>2022-07-24T15:56:32Z</time>
      </trkpt>
      <trkpt lat="46.2231970" lon="5.7746740">
        <ele>1028.4</ele>
        <time>2022-07-24T15:56:33Z</time>
      </trkpt>
      <trkpt lat="46.2231360" lon="5.7746420">
        <ele>1028.0</ele>
        <time>2022-07-24T15:56:34Z</time>
      </trkpt>
      <trkpt lat="46.2230310" lon="5.7745450">
        <ele>1027.0</ele>
        <time>2022-07-24T15:56:36Z</time>
      </trkpt>
      <trkpt lat="46.2229420" lon="5.7744130">
        <ele>1026.4</ele>
        <time>2022-07-24T15:56:38Z</time>
      </trkpt>
      <trkpt lat="46.2229020" lon="5.7743360">
        <ele>1026.0</ele>
        <time>2022-07-24T15:56:39Z</time>
      </trkpt>
      <trkpt lat="46.2228310" lon="5.7741650">
        <ele>1025.8</ele>
        <time>2022-07-24T15:56:41Z</time>
      </trkpt>
      <trkpt lat="46.2227610" lon="5.7739840">
        <ele>1025.8</ele>
        <time>2022-07-24T15:56:43Z</time>
      </trkpt>
      <trkpt lat="46.2225350" lon="5.7735030">
        <ele>1025.2</ele>
        <time>2022-07-24T15:56:48Z</time>
      </trkpt>
      <trkpt lat="46.2224800" lon="5.7734030">
        <ele>1024.8</ele>
        <time>2022-07-24T15:56:49Z</time>
      </trkpt>
      <trkpt lat="46.2223680" lon="5.7731950">
        <ele>1024.0</ele>
        <time>2022-07-24T15:56:51Z</time>
      </trkpt>
      <trkpt lat="46.2223170" lon="5.7730780">
        <ele>1023.8</ele>
        <time>2022-07-24T15:56:52Z</time>
      </trkpt>
      <trkpt lat="46.2222870" lon="5.7729510">
        <ele>1023.4</ele>
        <time>2022-07-24T15:56:53Z</time>
      </trkpt>
      <trkpt lat="46.2222770" lon="5.7728170">
        <ele>1023.0</ele>
        <time>2022-07-24T15:56:54Z</time>
      </trkpt>
      <trkpt lat="46.2223220" lon="5.7725630">
        <ele>1021.6</ele>
        <time>2022-07-24T15:56:56Z</time>
      </trkpt>
      <trkpt lat="46.2225040" lon="5.7722410">
        <ele>1020.2</ele>
        <time>2022-07-24T15:56:59Z</time>
      </trkpt>
      <trkpt lat="46.2226800" lon="5.7721240">
        <ele>1019.0</ele>
        <time>2022-07-24T15:57:01Z</time>
      </trkpt>
      <trkpt lat="46.2227690" lon="5.7720920">
        <ele>1018.4</ele>
        <time>2022-07-24T15:57:02Z</time>
      </trkpt>
      <trkpt lat="46.2228500" lon="5.7720730">
        <ele>1017.8</ele>
        <time>2022-07-24T15:57:03Z</time>
      </trkpt>
      <trkpt lat="46.2229860" lon="5.7720300">
        <ele>1016.2</ele>
        <time>2022-07-24T15:57:05Z</time>
      </trkpt>
      <trkpt lat="46.2230830" lon="5.7719290">
        <ele>1015.2</ele>
        <time>2022-07-24T15:57:07Z</time>
      </trkpt>
      <trkpt lat="46.2231100" lon="5.7718440">
        <ele>1015.0</ele>
        <time>2022-07-24T15:57:08Z</time>
      </trkpt>
      <trkpt lat="46.2231260" lon="5.7716540">
        <ele>1013.6</ele>
        <time>2022-07-24T15:57:10Z</time>
      </trkpt>
      <trkpt lat="46.2231160" lon="5.7714980">
        <ele>1011.8</ele>
        <time>2022-07-24T15:57:12Z</time>
      </trkpt>
      <trkpt lat="46.2230850" lon="5.7713990">
        <ele>1010.6</ele>
        <time>2022-07-24T15:57:14Z</time>
      </trkpt>
      <trkpt lat="46.2230650" lon="5.7713710">
        <ele>1010.2</ele>
        <time>2022-07-24T15:57:15Z</time>
      </trkpt>
      <trkpt lat="46.2230200" lon="5.7713440">
        <ele>1009.4</ele>
        <time>2022-07-24T15:57:17Z</time>
      </trkpt>
      <trkpt lat="46.2229780" lon="5.7713550">
        <ele>1008.6</ele>
        <time>2022-07-24T15:57:19Z</time>
      </trkpt>
      <trkpt lat="46.2229560" lon="5.7713660">
        <ele>1008.2</ele>
        <time>2022-07-24T15:57:20Z</time>
      </trkpt>
      <trkpt lat="46.2228760" lon="5.7713930">
        <ele>1006.8</ele>
        <time>2022-07-24T15:57:23Z</time>
      </trkpt>
      <trkpt lat="46.2228170" lon="5.7714120">
        <ele>1006.0</ele>
        <time>2022-07-24T15:57:25Z</time>
      </trkpt>
      <trkpt lat="46.2227870" lon="5.7714170">
        <ele>1006.0</ele>
        <time>2022-07-24T15:57:26Z</time>
      </trkpt>
      <trkpt lat="46.2226400" lon="5.7713950">
        <ele>1005.8</ele>
        <time>2022-07-24T15:57:31Z</time>
      </trkpt>
      <trkpt lat="46.2224840" lon="5.7712750">
        <ele>1006.2</ele>
        <time>2022-07-24T15:57:38Z</time>
      </trkpt>
      <trkpt lat="46.2223980" lon="5.7712010">
        <ele>1007.0</ele>
        <time>2022-07-24T15:57:43Z</time>
      </trkpt>
      <trkpt lat="46.2223450" lon="5.7711210">
        <ele>1007.6</ele>
        <time>2022-07-24T15:57:47Z</time>
      </trkpt>
      <trkpt lat="46.2222860" lon="5.7710270">
        <ele>1008.2</ele>
        <time>2022-07-24T15:57:51Z</time>
      </trkpt>
      <trkpt lat="46.2221960" lon="5.7708820">
        <ele>1008.6</ele>
        <time>2022-07-24T15:57:57Z</time>
      </trkpt>
      <trkpt lat="46.2220180" lon="5.7706540">
        <ele>1009.4</ele>
        <time>2022-07-24T15:58:07Z</time>
      </trkpt>
      <trkpt lat="46.2218740" lon="5.7706160">
        <ele>1009.4</ele>
        <time>2022-07-24T15:58:11Z</time>
      </trkpt>
      <trkpt lat="46.2215660" lon="5.7706940">
        <ele>1009.4</ele>
        <time>2022-07-24T15:58:17Z</time>
      </trkpt>
      <trkpt lat="46.2212520" lon="5.7707360">
        <ele>1008.2</ele>
        <time>2022-07-24T15:58:24Z</time>
      </trkpt>
      <trkpt lat="46.2210280" lon="5.7707420">
        <ele>1007.6</ele>
        <time>2022-07-24T15:58:31Z</time>
      </trkpt>
      <trkpt lat="46.2208460" lon="5.7707020">
        <ele>1007.2</ele>
        <time>2022-07-24T15:58:38Z</time>
      </trkpt>
      <trkpt lat="46.2206780" lon="5.7706690">
        <ele>1007.4</ele>
        <time>2022-07-24T15:58:45Z</time>
      </trkpt>
      <trkpt lat="46.2205610" lon="5.7705770">
        <ele>1007.6</ele>
        <time>2022-07-24T15:58:52Z</time>
      </trkpt>
      <trkpt lat="46.2205550" lon="5.7704350">
        <ele>1007.6</ele>
        <time>2022-07-24T15:58:57Z</time>
      </trkpt>
      <trkpt lat="46.2206260" lon="5.7703560">
        <ele>1007.6</ele>
        <time>2022-07-24T15:59:02Z</time>
      </trkpt>
      <trkpt lat="46.2207720" lon="5.7702900">
        <ele>1008.0</ele>
        <time>2022-07-24T15:59:09Z</time>
      </trkpt>
      <trkpt lat="46.2208690" lon="5.7702590">
        <ele>1008.8</ele>
        <time>2022-07-24T15:59:15Z</time>
      </trkpt>
      <trkpt lat="46.2208980" lon="5.7702580">
        <ele>1009.0</ele>
        <time>2022-07-24T15:59:17Z</time>
      </trkpt>
      <trkpt lat="46.2209730" lon="5.7702430">
        <ele>1010.0</ele>
        <time>2022-07-24T15:59:22Z</time>
      </trkpt>
      <trkpt lat="46.2209900" lon="5.7702410">
        <ele>1010.2</ele>
        <time>2022-07-24T15:59:23Z</time>
      </trkpt>
      <trkpt lat="46.2210630" lon="5.7701840">
        <ele>1010.6</ele>
        <time>2022-07-24T15:59:28Z</time>
      </trkpt>
      <trkpt lat="46.2211330" lon="5.7700390">
        <ele>1011.2</ele>
        <time>2022-07-24T15:59:35Z</time>
      </trkpt>
      <trkpt lat="46.2211350" lon="5.7698870">
        <ele>1012.0</ele>
        <time>2022-07-24T15:59:41Z</time>
      </trkpt>
      <trkpt lat="46.2211360" lon="5.7698590">
        <ele>1012.2</ele>
        <time>2022-07-24T15:59:42Z</time>
      </trkpt>
      <trkpt lat="46.2211360" lon="5.7696710">
        <ele>1013.0</ele>
        <time>2022-07-24T15:59:49Z</time>
      </trkpt>
      <trkpt lat="46.2211320" lon="5.7695510">
        <ele>1013.4</ele>
        <time>2022-07-24T15:59:54Z</time>
      </trkpt>
      <trkpt lat="46.2211240" lon="5.7694780">
        <ele>1013.8</ele>
        <time>2022-07-24T15:59:57Z</time>
      </trkpt>
      <trkpt lat="46.2211050" lon="5.7693620">
        <ele>1014.6</ele>
        <time>2022-07-24T16:00:02Z</time>
      </trkpt>
      <trkpt lat="46.2211050" lon="5.7693380">
        <ele>1014.8</ele>
        <time>2022-07-24T16:00:03Z</time>
      </trkpt>
      <trkpt lat="46.2211040" lon="5.7691580">
        <ele>1015.8</ele>
        <time>2022-07-24T16:00:11Z</time>
      </trkpt>
      <trkpt lat="46.2210980" lon="5.7690050">
        <ele>1016.6</ele>
        <time>2022-07-24T16:00:18Z</time>
      </trkpt>
      <trkpt lat="46.2210950" lon="5.7689840">
        <ele>1016.8</ele>
        <time>2022-07-24T16:00:19Z</time>
      </trkpt>
      <trkpt lat="46.2210710" lon="5.7688630">
        <ele>1017.4</ele>
        <time>2022-07-24T16:00:25Z</time>
      </trkpt>
      <trkpt lat="46.2210560" lon="5.7687470">
        <ele>1018.0</ele>
        <time>2022-07-24T16:00:30Z</time>
      </trkpt>
      <trkpt lat="46.2210490" lon="5.7686980">
        <ele>1018.2</ele>
        <time>2022-07-24T16:00:32Z</time>
      </trkpt>
      <trkpt lat="46.2210270" lon="5.7685700">
        <ele>1019.2</ele>
        <time>2022-07-24T16:00:38Z</time>
      </trkpt>
      <trkpt lat="46.2210230" lon="5.7685490">
        <ele>1019.4</ele>
        <time>2022-07-24T16:00:39Z</time>
      </trkpt>
      <trkpt lat="46.2209870" lon="5.7684020">
        <ele>1020.2</ele>
        <time>2022-07-24T16:00:46Z</time>
      </trkpt>
      <trkpt lat="46.2209600" lon="5.7682960">
        <ele>1021.6</ele>
        <time>2022-07-24T16:00:52Z</time>
      </trkpt>
      <trkpt lat="46.2208990" lon="5.7681530">
        <ele>1022.4</ele>
        <time>2022-07-24T16:01:00Z</time>
      </trkpt>
      <trkpt lat="46.2208860" lon="5.7681150">
        <ele>1022.8</ele>
        <time>2022-07-24T16:01:02Z</time>
      </trkpt>
      <trkpt lat="46.2208400" lon="5.7680120">
        <ele>1023.2</ele>
        <time>2022-07-24T16:01:07Z</time>
      </trkpt>
      <trkpt lat="46.2207540" lon="5.7678710">
        <ele>1023.8</ele>
        <time>2022-07-24T16:01:14Z</time>
      </trkpt>
      <trkpt lat="46.2207330" lon="5.7678410">
        <ele>1024.0</ele>
        <time>2022-07-24T16:01:15Z</time>
      </trkpt>
      <trkpt lat="46.2206290" lon="5.7676900">
        <ele>1024.0</ele>
        <time>2022-07-24T16:01:20Z</time>
      </trkpt>
      <trkpt lat="46.2204650" lon="5.7674670">
        <ele>1024.2</ele>
        <time>2022-07-24T16:01:28Z</time>
      </trkpt>
      <trkpt lat="46.2202840" lon="5.7672410">
        <ele>1025.0</ele>
        <time>2022-07-24T16:01:36Z</time>
      </trkpt>
      <trkpt lat="46.2201990" lon="5.7671380">
        <ele>1025.2</ele>
        <time>2022-07-24T16:01:40Z</time>
      </trkpt>
      <trkpt lat="46.2200890" lon="5.7670080">
        <ele>1025.4</ele>
        <time>2022-07-24T16:01:45Z</time>
      </trkpt>
      <trkpt lat="46.2199250" lon="5.7667820">
        <ele>1025.6</ele>
        <time>2022-07-24T16:01:53Z</time>
      </trkpt>
      <trkpt lat="46.2197980" lon="5.7666170">
        <ele>1026.0</ele>
        <time>2022-07-24T16:02:00Z</time>
      </trkpt>
      <trkpt lat="46.2197060" lon="5.7664770">
        <ele>1026.4</ele>
        <time>2022-07-24T16:02:06Z</time>
      </trkpt>
      <trkpt lat="46.2196940" lon="5.7664510">
        <ele>1026.4</ele>
        <time>2022-07-24T16:02:07Z</time>
      </trkpt>
      <trkpt lat="46.2195800" lon="5.7662130">
        <ele>1027.2</ele>
        <time>2022-07-24T16:02:17Z</time>
      </trkpt>
      <trkpt lat="46.2195720" lon="5.7661920">
        <ele>1027.8</ele>
        <time>2022-07-24T16:02:18Z</time>
      </trkpt>
      <trkpt lat="46.2195170" lon="5.7660660">
        <ele>1028.6</ele>
        <time>2022-07-24T16:02:25Z</time>
      </trkpt>
      <trkpt lat="46.2194980" lon="5.7660230">
        <ele>1029.0</ele>
        <time>2022-07-24T16:02:27Z</time>
      </trkpt>
      <trkpt lat="46.2194450" lon="5.7658930">
        <ele>1030.0</ele>
        <time>2022-07-24T16:02:32Z</time>
      </trkpt>
      <trkpt lat="46.2194310" lon="5.7658650">
        <ele>1030.2</ele>
        <time>2022-07-24T16:02:33Z</time>
      </trkpt>
      <trkpt lat="46.2193380" lon="5.7656660">
        <ele>1030.6</ele>
        <time>2022-07-24T16:02:39Z</time>
      </trkpt>
      <trkpt lat="46.2191940" lon="5.7653610">
        <ele>1030.6</ele>
        <time>2022-07-24T16:02:46Z</time>
      </trkpt>
      <trkpt lat="46.2190430" lon="5.7651320">
        <ele>1030.2</ele>
        <time>2022-07-24T16:02:51Z</time>
      </trkpt>
      <trkpt lat="46.2190140" lon="5.7650800">
        <ele>1030.0</ele>
        <time>2022-07-24T16:02:52Z</time>
      </trkpt>
      <trkpt lat="46.2189000" lon="5.7648840">
        <ele>1029.8</ele>
        <time>2022-07-24T16:02:57Z</time>
      </trkpt>
      <trkpt lat="46.2188510" lon="5.7647940">
        <ele>1029.0</ele>
        <time>2022-07-24T16:03:02Z</time>
      </trkpt>
      <trkpt lat="46.2188380" lon="5.7647800">
        <ele>1029.2</ele>
        <time>2022-07-24T16:03:03Z</time>
      </trkpt>
      <trkpt lat="46.2187290" lon="5.7646600">
        <ele>1029.2</ele>
        <time>2022-07-24T16:03:11Z</time>
      </trkpt>
      <trkpt lat="46.2185710" lon="5.7645020">
        <ele>1029.0</ele>
        <time>2022-07-24T16:03:17Z</time>
      </trkpt>
      <trkpt lat="46.2184480" lon="5.7644050">
        <ele>1029.0</ele>
        <time>2022-07-24T16:03:20Z</time>
      </trkpt>
      <trkpt lat="46.2183570" lon="5.7643250">
        <ele>1029.0</ele>
        <time>2022-07-24T16:03:22Z</time>
      </trkpt>
      <trkpt lat="46.2181300" lon="5.7641010">
        <ele>1028.6</ele>
        <time>2022-07-24T16:03:27Z</time>
      </trkpt>
      <trkpt lat="46.2180340" lon="5.7640110">
        <ele>1028.0</ele>
        <time>2022-07-24T16:03:29Z</time>
      </trkpt>
      <trkpt lat="46.2178140" lon="5.7638690">
        <ele>1026.8</ele>
        <time>2022-07-24T16:03:33Z</time>
      </trkpt>
      <trkpt lat="46.2177580" lon="5.7638360">
        <ele>1026.6</ele>
        <time>2022-07-24T16:03:34Z</time>
      </trkpt>
      <trkpt lat="46.2175340" lon="5.7636820">
        <ele>1025.8</ele>
        <time>2022-07-24T16:03:38Z</time>
      </trkpt>
      <trkpt lat="46.2171890" lon="5.7635200">
        <ele>1024.8</ele>
        <time>2022-07-24T16:03:43Z</time>
      </trkpt>
      <trkpt lat="46.2171120" lon="5.7635100">
        <ele>1024.6</ele>
        <time>2022-07-24T16:03:44Z</time>
      </trkpt>
      <trkpt lat="46.2168180" lon="5.7634430">
        <ele>1023.4</ele>
        <time>2022-07-24T16:03:48Z</time>
      </trkpt>
      <trkpt lat="46.2167470" lon="5.7634370">
        <ele>1023.0</ele>
        <time>2022-07-24T16:03:49Z</time>
      </trkpt>
      <trkpt lat="46.2165380" lon="5.7634340">
        <ele>1022.2</ele>
        <time>2022-07-24T16:03:52Z</time>
      </trkpt>
      <trkpt lat="46.2163270" lon="5.7634460">
        <ele>1021.2</ele>
        <time>2022-07-24T16:03:56Z</time>
      </trkpt>
      <trkpt lat="46.2162880" lon="5.7634450">
        <ele>1021.2</ele>
        <time>2022-07-24T16:03:57Z</time>
      </trkpt>
      <trkpt lat="46.2161310" lon="5.7634600">
        <ele>1021.2</ele>
        <time>2022-07-24T16:04:02Z</time>
      </trkpt>
      <trkpt lat="46.2159650" lon="5.7634840">
        <ele>1021.8</ele>
        <time>2022-07-24T16:04:09Z</time>
      </trkpt>
      <trkpt lat="46.2159210" lon="5.7634920">
        <ele>1022.2</ele>
        <time>2022-07-24T16:04:11Z</time>
      </trkpt>
      <trkpt lat="46.2158250" lon="5.7635230">
        <ele>1023.2</ele>
        <time>2022-07-24T16:04:16Z</time>
      </trkpt>
      <trkpt lat="46.2158050" lon="5.7635280">
        <ele>1023.2</ele>
        <time>2022-07-24T16:04:17Z</time>
      </trkpt>
      <trkpt lat="46.2157010" lon="5.7635480">
        <ele>1023.8</ele>
        <time>2022-07-24T16:04:22Z</time>
      </trkpt>
      <trkpt lat="46.2156120" lon="5.7635640">
        <ele>1024.4</ele>
        <time>2022-07-24T16:04:26Z</time>
      </trkpt>
      <trkpt lat="46.2155360" lon="5.7635710">
        <ele>1024.6</ele>
        <time>2022-07-24T16:04:29Z</time>
      </trkpt>
      <trkpt lat="46.2153510" lon="5.7635570">
        <ele>1025.0</ele>
        <time>2022-07-24T16:04:36Z</time>
      </trkpt>
      <trkpt lat="46.2152050" lon="5.7635400">
        <ele>1025.0</ele>
        <time>2022-07-24T16:04:41Z</time>
      </trkpt>
      <trkpt lat="46.2150310" lon="5.7635480">
        <ele>1025.0</ele>
        <time>2022-07-24T16:04:47Z</time>
      </trkpt>
      <trkpt lat="46.2148910" lon="5.7635740">
        <ele>1025.0</ele>
        <time>2022-07-24T16:04:53Z</time>
      </trkpt>
      <trkpt lat="46.2147780" lon="5.7636040">
        <ele>1025.4</ele>
        <time>2022-07-24T16:04:58Z</time>
      </trkpt>
      <trkpt lat="46.2146970" lon="5.7636270">
        <ele>1025.6</ele>
        <time>2022-07-24T16:05:02Z</time>
      </trkpt>
      <trkpt lat="46.2146690" lon="5.7636330">
        <ele>1025.6</ele>
        <time>2022-07-24T16:05:03Z</time>
      </trkpt>
      <trkpt lat="46.2145110" lon="5.7636630">
        <ele>1025.8</ele>
        <time>2022-07-24T16:05:09Z</time>
      </trkpt>
      <trkpt lat="46.2144020" lon="5.7636990">
        <ele>1026.0</ele>
        <time>2022-07-24T16:05:15Z</time>
      </trkpt>
      <trkpt lat="46.2142940" lon="5.7637410">
        <ele>1026.6</ele>
        <time>2022-07-24T16:05:21Z</time>
      </trkpt>
      <trkpt lat="46.2142790" lon="5.7637450">
        <ele>1026.8</ele>
        <time>2022-07-24T16:05:22Z</time>
      </trkpt>
      <trkpt lat="46.2142090" lon="5.7637820">
        <ele>1027.8</ele>
        <time>2022-07-24T16:05:26Z</time>
      </trkpt>
      <trkpt lat="46.2141510" lon="5.7638260">
        <ele>1028.4</ele>
        <time>2022-07-24T16:05:29Z</time>
      </trkpt>
      <trkpt lat="46.2140960" lon="5.7638820">
        <ele>1028.8</ele>
        <time>2022-07-24T16:05:32Z</time>
      </trkpt>
      <trkpt lat="46.2140700" lon="5.7639100">
        <ele>1029.0</ele>
        <time>2022-07-24T16:05:34Z</time>
      </trkpt>
      <trkpt lat="46.2139810" lon="5.7640500">
        <ele>1029.8</ele>
        <time>2022-07-24T16:05:42Z</time>
      </trkpt>
      <trkpt lat="46.2139270" lon="5.7641780">
        <ele>1031.0</ele>
        <time>2022-07-24T16:05:48Z</time>
      </trkpt>
      <trkpt lat="46.2139040" lon="5.7642200">
        <ele>1031.2</ele>
        <time>2022-07-24T16:05:50Z</time>
      </trkpt>
      <trkpt lat="46.2138370" lon="5.7643800">
        <ele>1032.0</ele>
        <time>2022-07-24T16:05:57Z</time>
      </trkpt>
      <trkpt lat="46.2137920" lon="5.7645110">
        <ele>1032.6</ele>
        <time>2022-07-24T16:06:04Z</time>
      </trkpt>
      <trkpt lat="46.2137680" lon="5.7646160">
        <ele>1033.2</ele>
        <time>2022-07-24T16:06:10Z</time>
      </trkpt>
      <trkpt lat="46.2137610" lon="5.7647070">
        <ele>1034.4</ele>
        <time>2022-07-24T16:06:15Z</time>
      </trkpt>
      <trkpt lat="46.2137550" lon="5.7647470">
        <ele>1034.8</ele>
        <time>2022-07-24T16:06:17Z</time>
      </trkpt>
      <trkpt lat="46.2137440" lon="5.7648060">
        <ele>1035.6</ele>
        <time>2022-07-24T16:06:20Z</time>
      </trkpt>
      <trkpt lat="46.2137320" lon="5.7649100">
        <ele>1036.0</ele>
        <time>2022-07-24T16:06:25Z</time>
      </trkpt>
      <trkpt lat="46.2137060" lon="5.7650160">
        <ele>1036.6</ele>
        <time>2022-07-24T16:06:29Z</time>
      </trkpt>
      <trkpt lat="46.2136750" lon="5.7651130">
        <ele>1036.8</ele>
        <time>2022-07-24T16:06:33Z</time>
      </trkpt>
      <trkpt lat="46.2136340" lon="5.7652340">
        <ele>1037.0</ele>
        <time>2022-07-24T16:06:38Z</time>
      </trkpt>
      <trkpt lat="46.2135740" lon="5.7653470">
        <ele>1037.6</ele>
        <time>2022-07-24T16:06:44Z</time>
      </trkpt>
      <trkpt lat="46.2135660" lon="5.7653600">
        <ele>1037.6</ele>
        <time>2022-07-24T16:06:45Z</time>
      </trkpt>
      <trkpt lat="46.2134760" lon="5.7654840">
        <ele>1038.0</ele>
        <time>2022-07-24T16:06:52Z</time>
      </trkpt>
      <trkpt lat="46.2134060" lon="5.7655890">
        <ele>1038.2</ele>
        <time>2022-07-24T16:06:58Z</time>
      </trkpt>
      <trkpt lat="46.2133310" lon="5.7657490">
        <ele>1038.6</ele>
        <time>2022-07-24T16:07:05Z</time>
      </trkpt>
      <trkpt lat="46.2132790" lon="5.7659930">
        <ele>1038.6</ele>
        <time>2022-07-24T16:07:10Z</time>
      </trkpt>
      <trkpt lat="46.2132810" lon="5.7663620">
        <ele>1038.4</ele>
        <time>2022-07-24T16:07:15Z</time>
      </trkpt>
      <trkpt lat="46.2132940" lon="5.7668900">
        <ele>1036.4</ele>
        <time>2022-07-24T16:07:21Z</time>
      </trkpt>
      <trkpt lat="46.2133070" lon="5.7669740">
        <ele>1036.0</ele>
        <time>2022-07-24T16:07:22Z</time>
      </trkpt>
      <trkpt lat="46.2133260" lon="5.7670510">
        <ele>1035.4</ele>
        <time>2022-07-24T16:07:23Z</time>
      </trkpt>
      <trkpt lat="46.2133490" lon="5.7672000">
        <ele>1034.4</ele>
        <time>2022-07-24T16:07:25Z</time>
      </trkpt>
      <trkpt lat="46.2133190" lon="5.7673620">
        <ele>1033.0</ele>
        <time>2022-07-24T16:07:28Z</time>
      </trkpt>
      <trkpt lat="46.2132730" lon="5.7674170">
        <ele>1031.8</ele>
        <time>2022-07-24T16:07:30Z</time>
      </trkpt>
      <trkpt lat="46.2131950" lon="5.7674360">
        <ele>1031.0</ele>
        <time>2022-07-24T16:07:32Z</time>
      </trkpt>
      <trkpt lat="46.2131520" lon="5.7674370">
        <ele>1030.6</ele>
        <time>2022-07-24T16:07:33Z</time>
      </trkpt>
      <trkpt lat="46.2130160" lon="5.7673990">
        <ele>1030.0</ele>
        <time>2022-07-24T16:07:36Z</time>
      </trkpt>
      <trkpt lat="46.2129670" lon="5.7673890">
        <ele>1029.8</ele>
        <time>2022-07-24T16:07:37Z</time>
      </trkpt>
      <trkpt lat="46.2129240" lon="5.7673760">
        <ele>1029.4</ele>
        <time>2022-07-24T16:07:38Z</time>
      </trkpt>
      <trkpt lat="46.2127870" lon="5.7673130">
        <ele>1028.6</ele>
        <time>2022-07-24T16:07:41Z</time>
      </trkpt>
      <trkpt lat="46.2126960" lon="5.7672400">
        <ele>1028.2</ele>
        <time>2022-07-24T16:07:43Z</time>
      </trkpt>
      <trkpt lat="46.2125010" lon="5.7670870">
        <ele>1027.8</ele>
        <time>2022-07-24T16:07:47Z</time>
      </trkpt>
      <trkpt lat="46.2124540" lon="5.7670620">
        <ele>1027.6</ele>
        <time>2022-07-24T16:07:48Z</time>
      </trkpt>
      <trkpt lat="46.2123810" lon="5.7670350">
        <ele>1027.2</ele>
        <time>2022-07-24T16:07:50Z</time>
      </trkpt>
      <trkpt lat="46.2123100" lon="5.7670490">
        <ele>1027.0</ele>
        <time>2022-07-24T16:07:52Z</time>
      </trkpt>
      <trkpt lat="46.2122180" lon="5.7671650">
        <ele>1026.0</ele>
        <time>2022-07-24T16:07:55Z</time>
      </trkpt>
      <trkpt lat="46.2122000" lon="5.7672130">
        <ele>1025.8</ele>
        <time>2022-07-24T16:07:56Z</time>
      </trkpt>
      <trkpt lat="46.2121830" lon="5.7673030">
        <ele>1024.8</ele>
        <time>2022-07-24T16:07:59Z</time>
      </trkpt>
      <trkpt lat="46.2121660" lon="5.7673580">
        <ele>1024.0</ele>
        <time>2022-07-24T16:08:00Z</time>
      </trkpt>
      <trkpt lat="46.2121530" lon="5.7674030">
        <ele>1023.4</ele>
        <time>2022-07-24T16:08:01Z</time>
      </trkpt>
      <trkpt lat="46.2121410" lon="5.7674490">
        <ele>1020.4</ele>
        <time>2022-07-24T16:08:11Z</time>
      </trkpt>
      <trkpt lat="46.2121280" lon="5.7674950">
        <ele>1020.4</ele>
        <time>2022-07-24T16:08:12Z</time>
      </trkpt>
      <trkpt lat="46.2120380" lon="5.7679000">
        <ele>1020.4</ele>
        <time>2022-07-24T16:08:17Z</time>
      </trkpt>
      <trkpt lat="46.2119660" lon="5.7682330">
        <ele>1019.2</ele>
        <time>2022-07-24T16:08:20Z</time>
      </trkpt>
      <trkpt lat="46.2119230" lon="5.7684310">
        <ele>1018.2</ele>
        <time>2022-07-24T16:08:22Z</time>
      </trkpt>
      <trkpt lat="46.2118840" lon="5.7686110">
        <ele>1017.0</ele>
        <time>2022-07-24T16:08:24Z</time>
      </trkpt>
      <trkpt lat="46.2118530" lon="5.7687930">
        <ele>1015.8</ele>
        <time>2022-07-24T16:08:26Z</time>
      </trkpt>
      <trkpt lat="46.2118370" lon="5.7688950">
        <ele>1014.8</ele>
        <time>2022-07-24T16:08:27Z</time>
      </trkpt>
      <trkpt lat="46.2118260" lon="5.7690030">
        <ele>1014.2</ele>
        <time>2022-07-24T16:08:28Z</time>
      </trkpt>
      <trkpt lat="46.2118050" lon="5.7692120">
        <ele>1012.6</ele>
        <time>2022-07-24T16:08:30Z</time>
      </trkpt>
      <trkpt lat="46.2117880" lon="5.7693040">
        <ele>1012.0</ele>
        <time>2022-07-24T16:08:31Z</time>
      </trkpt>
      <trkpt lat="46.2117710" lon="5.7693830">
        <ele>1011.4</ele>
        <time>2022-07-24T16:08:32Z</time>
      </trkpt>
      <trkpt lat="46.2117250" lon="5.7695120">
        <ele>1010.4</ele>
        <time>2022-07-24T16:08:34Z</time>
      </trkpt>
      <trkpt lat="46.2117030" lon="5.7695670">
        <ele>1009.8</ele>
        <time>2022-07-24T16:08:35Z</time>
      </trkpt>
      <trkpt lat="46.2116770" lon="5.7696140">
        <ele>1008.0</ele>
        <time>2022-07-24T16:08:36Z</time>
      </trkpt>
      <trkpt lat="46.2116420" lon="5.7696510">
        <ele>1007.2</ele>
        <time>2022-07-24T16:08:37Z</time>
      </trkpt>
      <trkpt lat="46.2115860" lon="5.7696840">
        <ele>1006.4</ele>
        <time>2022-07-24T16:08:38Z</time>
      </trkpt>
      <trkpt lat="46.2114730" lon="5.7697510">
        <ele>1005.0</ele>
        <time>2022-07-24T16:08:40Z</time>
      </trkpt>
      <trkpt lat="46.2113190" lon="5.7698540">
        <ele>1003.4</ele>
        <time>2022-07-24T16:08:43Z</time>
      </trkpt>
      <trkpt lat="46.2112470" lon="5.7699130">
        <ele>1002.4</ele>
        <time>2022-07-24T16:08:45Z</time>
      </trkpt>
      <trkpt lat="46.2112150" lon="5.7699320">
        <ele>1002.2</ele>
        <time>2022-07-24T16:08:46Z</time>
      </trkpt>
      <trkpt lat="46.2111220" lon="5.7699640">
        <ele>1001.0</ele>
        <time>2022-07-24T16:08:49Z</time>
      </trkpt>
      <trkpt lat="46.2110660" lon="5.7699800">
        <ele>999.8</ele>
        <time>2022-07-24T16:08:51Z</time>
      </trkpt>
      <trkpt lat="46.2110220" lon="5.7700340">
        <ele>998.6</ele>
        <time>2022-07-24T16:08:54Z</time>
      </trkpt>
      <trkpt lat="46.2110150" lon="5.7700570">
        <ele>998.2</ele>
        <time>2022-07-24T16:08:55Z</time>
      </trkpt>
      <trkpt lat="46.2109950" lon="5.7701230">
        <ele>997.4</ele>
        <time>2022-07-24T16:08:57Z</time>
      </trkpt>
      <trkpt lat="46.2109830" lon="5.7701540">
        <ele>997.2</ele>
        <time>2022-07-24T16:08:58Z</time>
      </trkpt>
      <trkpt lat="46.2109690" lon="5.7701890">
        <ele>997.0</ele>
        <time>2022-07-24T16:08:59Z</time>
      </trkpt>
      <trkpt lat="46.2108670" lon="5.7703590">
        <ele>996.6</ele>
        <time>2022-07-24T16:09:05Z</time>
      </trkpt>
      <trkpt lat="46.2107830" lon="5.7704390">
        <ele>996.6</ele>
        <time>2022-07-24T16:09:09Z</time>
      </trkpt>
      <trkpt lat="46.2107310" lon="5.7704750">
        <ele>997.2</ele>
        <time>2022-07-24T16:09:12Z</time>
      </trkpt>
      <trkpt lat="46.2107000" lon="5.7704990">
        <ele>997.6</ele>
        <time>2022-07-24T16:09:16Z</time>
      </trkpt>
      <trkpt lat="46.2106550" lon="5.7705190">
        <ele>998.0</ele>
        <time>2022-07-24T16:10:44Z</time>
      </trkpt>
      <trkpt lat="46.2105350" lon="5.7705860">
        <ele>998.2</ele>
        <time>2022-07-24T16:10:49Z</time>
      </trkpt>
      <trkpt lat="46.2103540" lon="5.7707270">
        <ele>998.2</ele>
        <time>2022-07-24T16:10:56Z</time>
      </trkpt>
      <trkpt lat="46.2101640" lon="5.7709320">
        <ele>998.2</ele>
        <time>2022-07-24T16:11:03Z</time>
      </trkpt>
      <trkpt lat="46.2099100" lon="5.7712920">
        <ele>997.8</ele>
        <time>2022-07-24T16:11:12Z</time>
      </trkpt>
      <trkpt lat="46.2097310" lon="5.7716710">
        <ele>997.4</ele>
        <time>2022-07-24T16:11:20Z</time>
      </trkpt>
      <trkpt lat="46.2096950" lon="5.7717850">
        <ele>997.2</ele>
        <time>2022-07-24T16:11:22Z</time>
      </trkpt>
      <trkpt lat="46.2095300" lon="5.7723280">
        <ele>996.4</ele>
        <time>2022-07-24T16:11:31Z</time>
      </trkpt>
      <trkpt lat="46.2094870" lon="5.7724460">
        <ele>996.4</ele>
        <time>2022-07-24T16:11:33Z</time>
      </trkpt>
      <trkpt lat="46.2093570" lon="5.7727890">
        <ele>996.4</ele>
        <time>2022-07-24T16:11:39Z</time>
      </trkpt>
      <trkpt lat="46.2092020" lon="5.7731340">
        <ele>996.4</ele>
        <time>2022-07-24T16:11:45Z</time>
      </trkpt>
      <trkpt lat="46.2091680" lon="5.7731770">
        <ele>996.4</ele>
        <time>2022-07-24T16:11:46Z</time>
      </trkpt>
      <trkpt lat="46.2089880" lon="5.7732720">
        <ele>996.4</ele>
        <time>2022-07-24T16:11:50Z</time>
      </trkpt>
      <trkpt lat="46.2088160" lon="5.7731810">
        <ele>996.4</ele>
        <time>2022-07-24T16:11:54Z</time>
      </trkpt>
      <trkpt lat="46.2087550" lon="5.7730920">
        <ele>996.4</ele>
        <time>2022-07-24T16:11:56Z</time>
      </trkpt>
      <trkpt lat="46.2086780" lon="5.7729640">
        <ele>996.4</ele>
        <time>2022-07-24T16:11:59Z</time>
      </trkpt>
      <trkpt lat="46.2085610" lon="5.7727410">
        <ele>996.8</ele>
        <time>2022-07-24T16:12:05Z</time>
      </trkpt>
      <trkpt lat="46.2084430" lon="5.7725980">
        <ele>997.4</ele>
        <time>2022-07-24T16:12:10Z</time>
      </trkpt>
      <trkpt lat="46.2083690" lon="5.7725460">
        <ele>998.0</ele>
        <time>2022-07-24T16:12:13Z</time>
      </trkpt>
      <trkpt lat="46.2082920" lon="5.7725200">
        <ele>998.6</ele>
        <time>2022-07-24T16:12:16Z</time>
      </trkpt>
      <trkpt lat="46.2082170" lon="5.7725250">
        <ele>999.2</ele>
        <time>2022-07-24T16:12:19Z</time>
      </trkpt>
      <trkpt lat="46.2081710" lon="5.7725500">
        <ele>999.8</ele>
        <time>2022-07-24T16:12:21Z</time>
      </trkpt>
      <trkpt lat="46.2080620" lon="5.7726330">
        <ele>1000.8</ele>
        <time>2022-07-24T16:12:26Z</time>
      </trkpt>
      <trkpt lat="46.2080210" lon="5.7726780">
        <ele>1000.8</ele>
        <time>2022-07-24T16:12:28Z</time>
      </trkpt>
      <trkpt lat="46.2079170" lon="5.7728290">
        <ele>1001.6</ele>
        <time>2022-07-24T16:12:33Z</time>
      </trkpt>
      <trkpt lat="46.2077560" lon="5.7731640">
        <ele>1002.0</ele>
        <time>2022-07-24T16:12:40Z</time>
      </trkpt>
      <trkpt lat="46.2075450" lon="5.7735970">
        <ele>1002.0</ele>
        <time>2022-07-24T16:12:48Z</time>
      </trkpt>
      <trkpt lat="46.2073070" lon="5.7739950">
        <ele>1001.4</ele>
        <time>2022-07-24T16:12:55Z</time>
      </trkpt>
      <trkpt lat="46.2072580" lon="5.7740420">
        <ele>1001.2</ele>
        <time>2022-07-24T16:12:56Z</time>
      </trkpt>
      <trkpt lat="46.2071420" lon="5.7741010">
        <ele>1000.8</ele>
        <time>2022-07-24T16:12:58Z</time>
      </trkpt>
      <trkpt lat="46.2069740" lon="5.7741060">
        <ele>1000.4</ele>
        <time>2022-07-24T16:13:01Z</time>
      </trkpt>
      <trkpt lat="46.2069210" lon="5.7740960">
        <ele>1000.4</ele>
        <time>2022-07-24T16:13:02Z</time>
      </trkpt>
      <trkpt lat="46.2068230" lon="5.7740570">
        <ele>1000.0</ele>
        <time>2022-07-24T16:13:04Z</time>
      </trkpt>
      <trkpt lat="46.2067480" lon="5.7740080">
        <ele>999.6</ele>
        <time>2022-07-24T16:13:06Z</time>
      </trkpt>
      <trkpt lat="46.2066830" lon="5.7739420">
        <ele>999.4</ele>
        <time>2022-07-24T16:13:09Z</time>
      </trkpt>
      <trkpt lat="46.2066570" lon="5.7739090">
        <ele>999.4</ele>
        <time>2022-07-24T16:13:11Z</time>
      </trkpt>
      <trkpt lat="46.2065610" lon="5.7737770">
        <ele>1000.4</ele>
        <time>2022-07-24T16:13:20Z</time>
      </trkpt>
      <trkpt lat="46.2065160" lon="5.7737470">
        <ele>1001.2</ele>
        <time>2022-07-24T16:13:24Z</time>
      </trkpt>
      <trkpt lat="46.2064680" lon="5.7737410">
        <ele>1002.0</ele>
        <time>2022-07-24T16:13:28Z</time>
      </trkpt>
      <trkpt lat="46.2064340" lon="5.7737470">
        <ele>1002.4</ele>
        <time>2022-07-24T16:13:31Z</time>
      </trkpt>
      <trkpt lat="46.2063750" lon="5.7737630">
        <ele>1003.4</ele>
        <time>2022-07-24T16:13:37Z</time>
      </trkpt>
      <trkpt lat="46.2063670" lon="5.7737680">
        <ele>1003.4</ele>
        <time>2022-07-24T16:13:38Z</time>
      </trkpt>
      <trkpt lat="46.2063580" lon="5.7737760">
        <ele>1003.8</ele>
        <time>2022-07-24T16:13:39Z</time>
      </trkpt>
      <trkpt lat="46.2063070" lon="5.7738200">
        <ele>1004.6</ele>
        <time>2022-07-24T16:13:44Z</time>
      </trkpt>
      <trkpt lat="46.2062960" lon="5.7738300">
        <ele>1004.8</ele>
        <time>2022-07-24T16:13:45Z</time>
      </trkpt>
      <trkpt lat="46.2062190" lon="5.7738890">
        <ele>1005.6</ele>
        <time>2022-07-24T16:13:52Z</time>
      </trkpt>
      <trkpt lat="46.2062060" lon="5.7738970">
        <ele>1005.8</ele>
        <time>2022-07-24T16:13:53Z</time>
      </trkpt>
      <trkpt lat="46.2061330" lon="5.7739460">
        <ele>1006.8</ele>
        <time>2022-07-24T16:13:59Z</time>
      </trkpt>
      <trkpt lat="46.2061070" lon="5.7739610">
        <ele>1007.0</ele>
        <time>2022-07-24T16:14:01Z</time>
      </trkpt>
      <trkpt lat="46.2060270" lon="5.7739940">
        <ele>1007.8</ele>
        <time>2022-07-24T16:14:07Z</time>
      </trkpt>
      <trkpt lat="46.2059830" lon="5.7739970">
        <ele>1008.2</ele>
        <time>2022-07-24T16:14:10Z</time>
      </trkpt>
      <trkpt lat="46.2059130" lon="5.7739690">
        <ele>1008.8</ele>
        <time>2022-07-24T16:14:15Z</time>
      </trkpt>
      <trkpt lat="46.2058910" lon="5.7739550">
        <ele>1009.0</ele>
        <time>2022-07-24T16:14:17Z</time>
      </trkpt>
      <trkpt lat="46.2058290" lon="5.7739240">
        <ele>1010.2</ele>
        <time>2022-07-24T16:14:22Z</time>
      </trkpt>
      <trkpt lat="46.2057760" lon="5.7738860">
        <ele>1011.4</ele>
        <time>2022-07-24T16:14:26Z</time>
      </trkpt>
      <trkpt lat="46.2056610" lon="5.7737480">
        <ele>1012.4</ele>
        <time>2022-07-24T16:14:34Z</time>
      </trkpt>
      <trkpt lat="46.2056220" lon="5.7735120">
        <ele>1012.6</ele>
        <time>2022-07-24T16:14:41Z</time>
      </trkpt>
      <trkpt lat="46.2056690" lon="5.7732710">
        <ele>1012.8</ele>
        <time>2022-07-24T16:14:48Z</time>
      </trkpt>
      <trkpt lat="46.2057450" lon="5.7730770">
        <ele>1013.6</ele>
        <time>2022-07-24T16:14:55Z</time>
      </trkpt>
      <trkpt lat="46.2057670" lon="5.7730260">
        <ele>1013.8</ele>
        <time>2022-07-24T16:14:57Z</time>
      </trkpt>
      <trkpt lat="46.2058600" lon="5.7728200">
        <ele>1014.4</ele>
        <time>2022-07-24T16:15:05Z</time>
      </trkpt>
      <trkpt lat="46.2058960" lon="5.7727510">
        <ele>1014.8</ele>
        <time>2022-07-24T16:15:08Z</time>
      </trkpt>
      <trkpt lat="46.2059520" lon="5.7726380">
        <ele>1015.4</ele>
        <time>2022-07-24T16:15:13Z</time>
      </trkpt>
      <trkpt lat="46.2059740" lon="5.7725870">
        <ele>1015.8</ele>
        <time>2022-07-24T16:15:15Z</time>
      </trkpt>
      <trkpt lat="46.2060260" lon="5.7724820">
        <ele>1016.4</ele>
        <time>2022-07-24T16:15:20Z</time>
      </trkpt>
      <trkpt lat="46.2060640" lon="5.7723990">
        <ele>1016.8</ele>
        <time>2022-07-24T16:15:24Z</time>
      </trkpt>
      <trkpt lat="46.2060960" lon="5.7723230">
        <ele>1017.4</ele>
        <time>2022-07-24T16:15:28Z</time>
      </trkpt>
      <trkpt lat="46.2061200" lon="5.7722520">
        <ele>1018.0</ele>
        <time>2022-07-24T16:15:31Z</time>
      </trkpt>
      <trkpt lat="46.2061460" lon="5.7721910">
        <ele>1018.4</ele>
        <time>2022-07-24T16:15:34Z</time>
      </trkpt>
      <trkpt lat="46.2062140" lon="5.7720750">
        <ele>1019.2</ele>
        <time>2022-07-24T16:15:39Z</time>
      </trkpt>
      <trkpt lat="46.2062490" lon="5.7720150">
        <ele>1019.4</ele>
        <time>2022-07-24T16:15:42Z</time>
      </trkpt>
      <trkpt lat="46.2062980" lon="5.7719250">
        <ele>1020.2</ele>
        <time>2022-07-24T16:15:46Z</time>
      </trkpt>
      <trkpt lat="46.2063190" lon="5.7718780">
        <ele>1020.6</ele>
        <time>2022-07-24T16:15:48Z</time>
      </trkpt>
      <trkpt lat="46.2063660" lon="5.7717510">
        <ele>1021.6</ele>
        <time>2022-07-24T16:15:53Z</time>
      </trkpt>
      <trkpt lat="46.2063960" lon="5.7716720">
        <ele>1022.0</ele>
        <time>2022-07-24T16:15:56Z</time>
      </trkpt>
      <trkpt lat="46.2064220" lon="5.7716000">
        <ele>1022.6</ele>
        <time>2022-07-24T16:15:59Z</time>
      </trkpt>
      <trkpt lat="46.2064370" lon="5.7715180">
        <ele>1023.2</ele>
        <time>2022-07-24T16:16:02Z</time>
      </trkpt>
      <trkpt lat="46.2064540" lon="5.7714130">
        <ele>1024.0</ele>
        <time>2022-07-24T16:16:06Z</time>
      </trkpt>
      <trkpt lat="46.2064710" lon="5.7713300">
        <ele>1024.4</ele>
        <time>2022-07-24T16:16:09Z</time>
      </trkpt>
      <trkpt lat="46.2064880" lon="5.7711640">
        <ele>1025.0</ele>
        <time>2022-07-24T16:16:15Z</time>
      </trkpt>
      <trkpt lat="46.2064920" lon="5.7710910">
        <ele>1025.4</ele>
        <time>2022-07-24T16:16:18Z</time>
      </trkpt>
      <trkpt lat="46.2064810" lon="5.7709700">
        <ele>1026.0</ele>
        <time>2022-07-24T16:16:23Z</time>
      </trkpt>
      <trkpt lat="46.2064860" lon="5.7708990">
        <ele>1026.4</ele>
        <time>2022-07-24T16:16:26Z</time>
      </trkpt>
      <trkpt lat="46.2064810" lon="5.7707640">
        <ele>1027.2</ele>
        <time>2022-07-24T16:16:32Z</time>
      </trkpt>
      <trkpt lat="46.2064800" lon="5.7707430">
        <ele>1027.2</ele>
        <time>2022-07-24T16:16:33Z</time>
      </trkpt>
      <trkpt lat="46.2064630" lon="5.7705920">
        <ele>1028.0</ele>
        <time>2022-07-24T16:16:40Z</time>
      </trkpt>
      <trkpt lat="46.2064570" lon="5.7705490">
        <ele>1028.2</ele>
        <time>2022-07-24T16:16:42Z</time>
      </trkpt>
      <trkpt lat="46.2064310" lon="5.7704560">
        <ele>1028.8</ele>
        <time>2022-07-24T16:16:46Z</time>
      </trkpt>
      <trkpt lat="46.2064140" lon="5.7703920">
        <ele>1029.2</ele>
        <time>2022-07-24T16:16:49Z</time>
      </trkpt>
      <trkpt lat="46.2063920" lon="5.7702870">
        <ele>1029.8</ele>
        <time>2022-07-24T16:16:53Z</time>
      </trkpt>
      <trkpt lat="46.2063650" lon="5.7702010">
        <ele>1030.4</ele>
        <time>2022-07-24T16:16:57Z</time>
      </trkpt>
      <trkpt lat="46.2063640" lon="5.7701410">
        <ele>1030.6</ele>
        <time>2022-07-24T16:16:59Z</time>
      </trkpt>
      <trkpt lat="46.2063260" lon="5.7699750">
        <ele>1031.6</ele>
        <time>2022-07-24T16:17:05Z</time>
      </trkpt>
      <trkpt lat="46.2063090" lon="5.7699190">
        <ele>1031.8</ele>
        <time>2022-07-24T16:17:07Z</time>
      </trkpt>
      <trkpt lat="46.2062870" lon="5.7697900">
        <ele>1032.6</ele>
        <time>2022-07-24T16:17:13Z</time>
      </trkpt>
      <trkpt lat="46.2062790" lon="5.7697660">
        <ele>1033.0</ele>
        <time>2022-07-24T16:17:14Z</time>
      </trkpt>
      <trkpt lat="46.2062380" lon="5.7696580">
        <ele>1033.8</ele>
        <time>2022-07-24T16:17:19Z</time>
      </trkpt>
      <trkpt lat="46.2062060" lon="5.7695700">
        <ele>1034.4</ele>
        <time>2022-07-24T16:17:22Z</time>
      </trkpt>
      <trkpt lat="46.2061690" lon="5.7694930">
        <ele>1034.8</ele>
        <time>2022-07-24T16:17:25Z</time>
      </trkpt>
      <trkpt lat="46.2061470" lon="5.7694340">
        <ele>1035.2</ele>
        <time>2022-07-24T16:17:27Z</time>
      </trkpt>
      <trkpt lat="46.2060970" lon="5.7693150">
        <ele>1035.8</ele>
        <time>2022-07-24T16:17:32Z</time>
      </trkpt>
      <trkpt lat="46.2060820" lon="5.7692840">
        <ele>1036.0</ele>
        <time>2022-07-24T16:17:34Z</time>
      </trkpt>
      <trkpt lat="46.2060140" lon="5.7691660">
        <ele>1036.8</ele>
        <time>2022-07-24T16:17:42Z</time>
      </trkpt>
      <trkpt lat="46.2060060" lon="5.7691450">
        <ele>1037.0</ele>
        <time>2022-07-24T16:17:43Z</time>
      </trkpt>
      <trkpt lat="46.2059330" lon="5.7690440">
        <ele>1037.6</ele>
        <time>2022-07-24T16:17:49Z</time>
      </trkpt>
      <trkpt lat="46.2059030" lon="5.7690200">
        <ele>1037.8</ele>
        <time>2022-07-24T16:17:51Z</time>
      </trkpt>
      <trkpt lat="46.2058070" lon="5.7689320">
        <ele>1038.8</ele>
        <time>2022-07-24T16:17:57Z</time>
      </trkpt>
      <trkpt lat="46.2057430" lon="5.7688710">
        <ele>1039.0</ele>
        <time>2022-07-24T16:18:00Z</time>
      </trkpt>
      <trkpt lat="46.2056790" lon="5.7687810">
        <ele>1039.6</ele>
        <time>2022-07-24T16:18:04Z</time>
      </trkpt>
      <trkpt lat="46.2055890" lon="5.7686690">
        <ele>1040.2</ele>
        <time>2022-07-24T16:18:09Z</time>
      </trkpt>
      <trkpt lat="46.2054550" lon="5.7685700">
        <ele>1040.8</ele>
        <time>2022-07-24T16:18:16Z</time>
      </trkpt>
      <trkpt lat="46.2053970" lon="5.7685190">
        <ele>1041.0</ele>
        <time>2022-07-24T16:18:19Z</time>
      </trkpt>
      <trkpt lat="46.2053370" lon="5.7684520">
        <ele>1041.6</ele>
        <time>2022-07-24T16:18:23Z</time>
      </trkpt>
      <trkpt lat="46.2052660" lon="5.7683810">
        <ele>1042.2</ele>
        <time>2022-07-24T16:18:27Z</time>
      </trkpt>
      <trkpt lat="46.2052010" lon="5.7683120">
        <ele>1042.6</ele>
        <time>2022-07-24T16:18:31Z</time>
      </trkpt>
      <trkpt lat="46.2051180" lon="5.7682090">
        <ele>1043.2</ele>
        <time>2022-07-24T16:18:35Z</time>
      </trkpt>
      <trkpt lat="46.2050650" lon="5.7681290">
        <ele>1043.4</ele>
        <time>2022-07-24T16:18:38Z</time>
      </trkpt>
      <trkpt lat="46.2050360" lon="5.7680850">
        <ele>1043.6</ele>
        <time>2022-07-24T16:18:40Z</time>
      </trkpt>
      <trkpt lat="46.2049580" lon="5.7679890">
        <ele>1044.2</ele>
        <time>2022-07-24T16:18:44Z</time>
      </trkpt>
      <trkpt lat="46.2049200" lon="5.7679330">
        <ele>1044.6</ele>
        <time>2022-07-24T16:18:46Z</time>
      </trkpt>
      <trkpt lat="46.2048230" lon="5.7677870">
        <ele>1045.2</ele>
        <time>2022-07-24T16:18:51Z</time>
      </trkpt>
      <trkpt lat="46.2048070" lon="5.7677660">
        <ele>1045.2</ele>
        <time>2022-07-24T16:18:52Z</time>
      </trkpt>
      <trkpt lat="46.2046990" lon="5.7676210">
        <ele>1045.8</ele>
        <time>2022-07-24T16:18:59Z</time>
      </trkpt>
      <trkpt lat="46.2046100" lon="5.7675540">
        <ele>1046.2</ele>
        <time>2022-07-24T16:19:03Z</time>
      </trkpt>
      <trkpt lat="46.2045540" lon="5.7675140">
        <ele>1046.4</ele>
        <time>2022-07-24T16:19:05Z</time>
      </trkpt>
      <trkpt lat="46.2043820" lon="5.7674530">
        <ele>1046.4</ele>
        <time>2022-07-24T16:19:11Z</time>
      </trkpt>
      <trkpt lat="46.2041910" lon="5.7673810">
        <ele>1046.2</ele>
        <time>2022-07-24T16:19:17Z</time>
      </trkpt>
      <trkpt lat="46.2039670" lon="5.7673250">
        <ele>1046.0</ele>
        <time>2022-07-24T16:19:23Z</time>
      </trkpt>
      <trkpt lat="46.2038450" lon="5.7672680">
        <ele>1045.6</ele>
        <time>2022-07-24T16:19:28Z</time>
      </trkpt>
      <trkpt lat="46.2037360" lon="5.7672050">
        <ele>1045.4</ele>
        <time>2022-07-24T16:19:35Z</time>
      </trkpt>
      <trkpt lat="46.2036240" lon="5.7671380">
        <ele>1045.4</ele>
        <time>2022-07-24T16:19:41Z</time>
      </trkpt>
      <trkpt lat="46.2035410" lon="5.7670980">
        <ele>1045.8</ele>
        <time>2022-07-24T16:19:46Z</time>
      </trkpt>
      <trkpt lat="46.2035230" lon="5.7670860">
        <ele>1046.0</ele>
        <time>2022-07-24T16:19:47Z</time>
      </trkpt>
      <trkpt lat="46.2034780" lon="5.7670680">
        <ele>1046.6</ele>
        <time>2022-07-24T16:19:50Z</time>
      </trkpt>
      <trkpt lat="46.2034090" lon="5.7670090">
        <ele>1047.2</ele>
        <time>2022-07-24T16:19:54Z</time>
      </trkpt>
      <trkpt lat="46.2033660" lon="5.7669690">
        <ele>1047.4</ele>
        <time>2022-07-24T16:19:56Z</time>
      </trkpt>
      <trkpt lat="46.2032740" lon="5.7668570">
        <ele>1047.8</ele>
        <time>2022-07-24T16:20:00Z</time>
      </trkpt>
      <trkpt lat="46.2031550" lon="5.7667110">
        <ele>1048.6</ele>
        <time>2022-07-24T16:20:06Z</time>
      </trkpt>
      <trkpt lat="46.2031340" lon="5.7666810">
        <ele>1048.6</ele>
        <time>2022-07-24T16:20:07Z</time>
      </trkpt>
      <trkpt lat="46.2029670" lon="5.7665040">
        <ele>1049.2</ele>
        <time>2022-07-24T16:20:14Z</time>
      </trkpt>
      <trkpt lat="46.2028030" lon="5.7663240">
        <ele>1049.2</ele>
        <time>2022-07-24T16:20:20Z</time>
      </trkpt>
      <trkpt lat="46.2026000" lon="5.7660730">
        <ele>1048.6</ele>
        <time>2022-07-24T16:20:26Z</time>
      </trkpt>
      <trkpt lat="46.2025400" lon="5.7659590">
        <ele>1048.2</ele>
        <time>2022-07-24T16:20:28Z</time>
      </trkpt>
      <trkpt lat="46.2024770" lon="5.7657810">
        <ele>1047.8</ele>
        <time>2022-07-24T16:20:31Z</time>
      </trkpt>
      <trkpt lat="46.2024140" lon="5.7656640">
        <ele>1047.6</ele>
        <time>2022-07-24T16:20:33Z</time>
      </trkpt>
      <trkpt lat="46.2023150" lon="5.7654730">
        <ele>1046.8</ele>
        <time>2022-07-24T16:20:37Z</time>
      </trkpt>
      <trkpt lat="46.2022430" lon="5.7654080">
        <ele>1046.4</ele>
        <time>2022-07-24T16:20:39Z</time>
      </trkpt>
      <trkpt lat="46.2021540" lon="5.7653680">
        <ele>1046.4</ele>
        <time>2022-07-24T16:20:41Z</time>
      </trkpt>
      <trkpt lat="46.2020650" lon="5.7653510">
        <ele>1046.2</ele>
        <time>2022-07-24T16:20:43Z</time>
      </trkpt>
      <trkpt lat="46.2020150" lon="5.7653390">
        <ele>1046.2</ele>
        <time>2022-07-24T16:20:44Z</time>
      </trkpt>
      <trkpt lat="46.2019150" lon="5.7653060">
        <ele>1046.0</ele>
        <time>2022-07-24T16:20:46Z</time>
      </trkpt>
      <trkpt lat="46.2017830" lon="5.7652070">
        <ele>1046.0</ele>
        <time>2022-07-24T16:20:50Z</time>
      </trkpt>
      <trkpt lat="46.2016730" lon="5.7650730">
        <ele>1046.0</ele>
        <time>2022-07-24T16:20:55Z</time>
      </trkpt>
      <trkpt lat="46.2015730" lon="5.7648720">
        <ele>1047.0</ele>
        <time>2022-07-24T16:21:01Z</time>
      </trkpt>
      <trkpt lat="46.2015220" lon="5.7647790">
        <ele>1047.6</ele>
        <time>2022-07-24T16:21:05Z</time>
      </trkpt>
      <trkpt lat="46.2014800" lon="5.7647390">
        <ele>1048.0</ele>
        <time>2022-07-24T16:21:08Z</time>
      </trkpt>
      <trkpt lat="46.2014420" lon="5.7647230">
        <ele>1048.4</ele>
        <time>2022-07-24T16:21:11Z</time>
      </trkpt>
      <trkpt lat="46.2014120" lon="5.7647190">
        <ele>1048.8</ele>
        <time>2022-07-24T16:21:13Z</time>
      </trkpt>
      <trkpt lat="46.2013810" lon="5.7646990">
        <ele>1049.2</ele>
        <time>2022-07-24T16:21:15Z</time>
      </trkpt>
      <trkpt lat="46.2013010" lon="5.7646470">
        <ele>1049.4</ele>
        <time>2022-07-24T16:21:19Z</time>
      </trkpt>
      <trkpt lat="46.2012250" lon="5.7645730">
        <ele>1049.8</ele>
        <time>2022-07-24T16:21:23Z</time>
      </trkpt>
      <trkpt lat="46.2010860" lon="5.7644870">
        <ele>1050.2</ele>
        <time>2022-07-24T16:21:28Z</time>
      </trkpt>
      <trkpt lat="46.2009160" lon="5.7644520">
        <ele>1050.2</ele>
        <time>2022-07-24T16:21:34Z</time>
      </trkpt>
      <trkpt lat="46.2008150" lon="5.7644220">
        <ele>1050.2</ele>
        <time>2022-07-24T16:21:40Z</time>
      </trkpt>
      <trkpt lat="46.2007320" lon="5.7643070">
        <ele>1050.4</ele>
        <time>2022-07-24T16:21:45Z</time>
      </trkpt>
      <trkpt lat="46.2006530" lon="5.7641690">
        <ele>1050.8</ele>
        <time>2022-07-24T16:21:50Z</time>
      </trkpt>
      <trkpt lat="46.2006240" lon="5.7641370">
        <ele>1051.0</ele>
        <time>2022-07-24T16:21:51Z</time>
      </trkpt>
      <trkpt lat="46.2004980" lon="5.7640210">
        <ele>1051.0</ele>
        <time>2022-07-24T16:21:56Z</time>
      </trkpt>
      <trkpt lat="46.2003390" lon="5.7639700">
        <ele>1050.6</ele>
        <time>2022-07-24T16:22:02Z</time>
      </trkpt>
      <trkpt lat="46.2002650" lon="5.7639560">
        <ele>1049.6</ele>
        <time>2022-07-24T16:22:04Z</time>
      </trkpt>
      <trkpt lat="46.2001640" lon="5.7639280">
        <ele>1048.2</ele>
        <time>2022-07-24T16:22:07Z</time>
      </trkpt>
      <trkpt lat="46.2001160" lon="5.7639170">
        <ele>1047.0</ele>
        <time>2022-07-24T16:22:09Z</time>
      </trkpt>
      <trkpt lat="46.2000740" lon="5.7639130">
        <ele>1046.0</ele>
        <time>2022-07-24T16:22:11Z</time>
      </trkpt>
      <trkpt lat="46.2000450" lon="5.7638930">
        <ele>1044.6</ele>
        <time>2022-07-24T16:22:13Z</time>
      </trkpt>
      <trkpt lat="46.2000300" lon="5.7638770">
        <ele>1043.0</ele>
        <time>2022-07-24T16:22:14Z</time>
      </trkpt>
      <trkpt lat="46.1998930" lon="5.7637810">
        <ele>1039.0</ele>
        <time>2022-07-24T16:22:25Z</time>
      </trkpt>
      <trkpt lat="46.1998300" lon="5.7637000">
        <ele>1038.8</ele>
        <time>2022-07-24T16:22:28Z</time>
      </trkpt>
      <trkpt lat="46.1997170" lon="5.7635790">
        <ele>1037.8</ele>
        <time>2022-07-24T16:22:33Z</time>
      </trkpt>
      <trkpt lat="46.1996580" lon="5.7635390">
        <ele>1037.0</ele>
        <time>2022-07-24T16:22:35Z</time>
      </trkpt>
      <trkpt lat="46.1995980" lon="5.7634900">
        <ele>1036.4</ele>
        <time>2022-07-24T16:22:37Z</time>
      </trkpt>
      <trkpt lat="46.1995100" lon="5.7634540">
        <ele>1035.0</ele>
        <time>2022-07-24T16:22:40Z</time>
      </trkpt>
      <trkpt lat="46.1994500" lon="5.7634400">
        <ele>1034.2</ele>
        <time>2022-07-24T16:22:42Z</time>
      </trkpt>
      <trkpt lat="46.1994190" lon="5.7634360">
        <ele>1033.4</ele>
        <time>2022-07-24T16:22:43Z</time>
      </trkpt>
      <trkpt lat="46.1993900" lon="5.7634310">
        <ele>1032.2</ele>
        <time>2022-07-24T16:22:44Z</time>
      </trkpt>
      <trkpt lat="46.1993330" lon="5.7634380">
        <ele>1031.2</ele>
        <time>2022-07-24T16:22:46Z</time>
      </trkpt>
      <trkpt lat="46.1992640" lon="5.7634190">
        <ele>1030.2</ele>
        <time>2022-07-24T16:22:48Z</time>
      </trkpt>
      <trkpt lat="46.1992210" lon="5.7633870">
        <ele>1029.8</ele>
        <time>2022-07-24T16:22:49Z</time>
      </trkpt>
      <trkpt lat="46.1991390" lon="5.7633410">
        <ele>1028.8</ele>
        <time>2022-07-24T16:22:51Z</time>
      </trkpt>
      <trkpt lat="46.1990570" lon="5.7632910">
        <ele>1027.8</ele>
        <time>2022-07-24T16:22:53Z</time>
      </trkpt>
      <trkpt lat="46.1990100" lon="5.7632830">
        <ele>1027.4</ele>
        <time>2022-07-24T16:22:54Z</time>
      </trkpt>
      <trkpt lat="46.1989190" lon="5.7632110">
        <ele>1026.2</ele>
        <time>2022-07-24T16:22:56Z</time>
      </trkpt>
      <trkpt lat="46.1988370" lon="5.7631680">
        <ele>1025.0</ele>
        <time>2022-07-24T16:22:58Z</time>
      </trkpt>
      <trkpt lat="46.1987550" lon="5.7631310">
        <ele>1023.2</ele>
        <time>2022-07-24T16:23:00Z</time>
      </trkpt>
      <trkpt lat="46.1986850" lon="5.7630950">
        <ele>1021.8</ele>
        <time>2022-07-24T16:23:02Z</time>
      </trkpt>
      <trkpt lat="46.1986590" lon="5.7630730">
        <ele>1021.0</ele>
        <time>2022-07-24T16:23:03Z</time>
      </trkpt>
      <trkpt lat="46.1986310" lon="5.7630400">
        <ele>1020.0</ele>
        <time>2022-07-24T16:23:04Z</time>
      </trkpt>
      <trkpt lat="46.1985880" lon="5.7629930">
        <ele>1018.8</ele>
        <time>2022-07-24T16:23:06Z</time>
      </trkpt>
      <trkpt lat="46.1985520" lon="5.7629480">
        <ele>1017.4</ele>
        <time>2022-07-24T16:23:08Z</time>
      </trkpt>
      <trkpt lat="46.1985310" lon="5.7629350">
        <ele>1016.8</ele>
        <time>2022-07-24T16:23:09Z</time>
      </trkpt>
      <trkpt lat="46.1985140" lon="5.7629140">
        <ele>1016.2</ele>
        <time>2022-07-24T16:23:10Z</time>
      </trkpt>
      <trkpt lat="46.1984790" lon="5.7628770">
        <ele>1015.2</ele>
        <time>2022-07-24T16:23:12Z</time>
      </trkpt>
      <trkpt lat="46.1984420" lon="5.7628460">
        <ele>1014.0</ele>
        <time>2022-07-24T16:23:14Z</time>
      </trkpt>
      <trkpt lat="46.1984250" lon="5.7628390">
        <ele>1013.6</ele>
        <time>2022-07-24T16:23:15Z</time>
      </trkpt>
      <trkpt lat="46.1983880" lon="5.7628290">
        <ele>1012.8</ele>
        <time>2022-07-24T16:23:17Z</time>
      </trkpt>
      <trkpt lat="46.1983310" lon="5.7628070">
        <ele>1011.6</ele>
        <time>2022-07-24T16:23:21Z</time>
      </trkpt>
      <trkpt lat="46.1982700" lon="5.7627750">
        <ele>1010.2</ele>
        <time>2022-07-24T16:23:24Z</time>
      </trkpt>
      <trkpt lat="46.1982290" lon="5.7627480">
        <ele>1009.6</ele>
        <time>2022-07-24T16:23:26Z</time>
      </trkpt>
      <trkpt lat="46.1981480" lon="5.7626950">
        <ele>1009.0</ele>
        <time>2022-07-24T16:23:29Z</time>
      </trkpt>
      <trkpt lat="46.1980760" lon="5.7626110">
        <ele>1007.8</ele>
        <time>2022-07-24T16:23:32Z</time>
      </trkpt>
      <trkpt lat="46.1980030" lon="5.7624860">
        <ele>1006.4</ele>
        <time>2022-07-24T16:23:35Z</time>
      </trkpt>
      <trkpt lat="46.1979610" lon="5.7623910">
        <ele>1005.2</ele>
        <time>2022-07-24T16:23:37Z</time>
      </trkpt>
      <trkpt lat="46.1979400" lon="5.7623440">
        <ele>1004.4</ele>
        <time>2022-07-24T16:23:38Z</time>
      </trkpt>
      <trkpt lat="46.1979140" lon="5.7622670">
        <ele>1003.8</ele>
        <time>2022-07-24T16:23:39Z</time>
      </trkpt>
      <trkpt lat="46.1978590" lon="5.7621340">
        <ele>1002.4</ele>
        <time>2022-07-24T16:23:41Z</time>
      </trkpt>
      <trkpt lat="46.1978310" lon="5.7620700">
        <ele>1001.6</ele>
        <time>2022-07-24T16:23:42Z</time>
      </trkpt>
      <trkpt lat="46.1978020" lon="5.7619990">
        <ele>1001.0</ele>
        <time>2022-07-24T16:23:43Z</time>
      </trkpt>
      <trkpt lat="46.1977420" lon="5.7618690">
        <ele>999.6</ele>
        <time>2022-07-24T16:23:45Z</time>
      </trkpt>
      <trkpt lat="46.1976820" lon="5.7617680">
        <ele>998.2</ele>
        <time>2022-07-24T16:23:47Z</time>
      </trkpt>
      <trkpt lat="46.1976570" lon="5.7617270">
        <ele>997.8</ele>
        <time>2022-07-24T16:23:48Z</time>
      </trkpt>
      <trkpt lat="46.1976110" lon="5.7616210">
        <ele>997.0</ele>
        <time>2022-07-24T16:23:50Z</time>
      </trkpt>
      <trkpt lat="46.1975490" lon="5.7615160">
        <ele>995.8</ele>
        <time>2022-07-24T16:23:52Z</time>
      </trkpt>
      <trkpt lat="46.1974880" lon="5.7614220">
        <ele>994.6</ele>
        <time>2022-07-24T16:23:54Z</time>
      </trkpt>
      <trkpt lat="46.1974170" lon="5.7613250">
        <ele>993.6</ele>
        <time>2022-07-24T16:23:56Z</time>
      </trkpt>
      <trkpt lat="46.1973500" lon="5.7612190">
        <ele>992.8</ele>
        <time>2022-07-24T16:23:58Z</time>
      </trkpt>
      <trkpt lat="46.1973280" lon="5.7611760">
        <ele>992.2</ele>
        <time>2022-07-24T16:23:59Z</time>
      </trkpt>
      <trkpt lat="46.1972850" lon="5.7610880">
        <ele>991.2</ele>
        <time>2022-07-24T16:24:01Z</time>
      </trkpt>
      <trkpt lat="46.1972670" lon="5.7610430">
        <ele>990.8</ele>
        <time>2022-07-24T16:24:02Z</time>
      </trkpt>
      <trkpt lat="46.1972520" lon="5.7610000">
        <ele>990.2</ele>
        <time>2022-07-24T16:24:03Z</time>
      </trkpt>
      <trkpt lat="46.1972160" lon="5.7609040">
        <ele>988.6</ele>
        <time>2022-07-24T16:24:05Z</time>
      </trkpt>
      <trkpt lat="46.1971720" lon="5.7608220">
        <ele>987.4</ele>
        <time>2022-07-24T16:24:07Z</time>
      </trkpt>
      <trkpt lat="46.1971300" lon="5.7607810">
        <ele>985.8</ele>
        <time>2022-07-24T16:24:09Z</time>
      </trkpt>
      <trkpt lat="46.1970870" lon="5.7607600">
        <ele>984.4</ele>
        <time>2022-07-24T16:24:11Z</time>
      </trkpt>
      <trkpt lat="46.1970130" lon="5.7607460">
        <ele>983.0</ele>
        <time>2022-07-24T16:24:14Z</time>
      </trkpt>
      <trkpt lat="46.1969520" lon="5.7607530">
        <ele>981.4</ele>
        <time>2022-07-24T16:24:17Z</time>
      </trkpt>
      <trkpt lat="46.1968760" lon="5.7607740">
        <ele>980.0</ele>
        <time>2022-07-24T16:24:20Z</time>
      </trkpt>
      <trkpt lat="46.1968330" lon="5.7607700">
        <ele>979.4</ele>
        <time>2022-07-24T16:24:22Z</time>
      </trkpt>
      <trkpt lat="46.1968110" lon="5.7607670">
        <ele>978.8</ele>
        <time>2022-07-24T16:24:23Z</time>
      </trkpt>
      <trkpt lat="46.1967310" lon="5.7607180">
        <ele>977.8</ele>
        <time>2022-07-24T16:24:26Z</time>
      </trkpt>
      <trkpt lat="46.1966560" lon="5.7606050">
        <ele>976.6</ele>
        <time>2022-07-24T16:24:29Z</time>
      </trkpt>
      <trkpt lat="46.1966300" lon="5.7605520">
        <ele>976.2</ele>
        <time>2022-07-24T16:24:30Z</time>
      </trkpt>
      <trkpt lat="46.1965990" lon="5.7604930">
        <ele>975.8</ele>
        <time>2022-07-24T16:24:31Z</time>
      </trkpt>
      <trkpt lat="46.1965350" lon="5.7603830">
        <ele>975.0</ele>
        <time>2022-07-24T16:24:33Z</time>
      </trkpt>
      <trkpt lat="46.1964610" lon="5.7602940">
        <ele>974.2</ele>
        <time>2022-07-24T16:24:35Z</time>
      </trkpt>
      <trkpt lat="46.1964230" lon="5.7602570">
        <ele>973.6</ele>
        <time>2022-07-24T16:24:36Z</time>
      </trkpt>
      <trkpt lat="46.1963870" lon="5.7602240">
        <ele>973.0</ele>
        <time>2022-07-24T16:24:37Z</time>
      </trkpt>
      <trkpt lat="46.1963180" lon="5.7601840">
        <ele>972.2</ele>
        <time>2022-07-24T16:24:39Z</time>
      </trkpt>
      <trkpt lat="46.1962700" lon="5.7601570">
        <ele>971.0</ele>
        <time>2022-07-24T16:24:41Z</time>
      </trkpt>
      <trkpt lat="46.1962400" lon="5.7601410">
        <ele>970.0</ele>
        <time>2022-07-24T16:24:43Z</time>
      </trkpt>
      <trkpt lat="46.1962250" lon="5.7601280">
        <ele>968.8</ele>
        <time>2022-07-24T16:24:45Z</time>
      </trkpt>
      <trkpt lat="46.1962220" lon="5.7601190">
        <ele>968.4</ele>
        <time>2022-07-24T16:24:46Z</time>
      </trkpt>
      <trkpt lat="46.1960680" lon="5.7599390">
        <ele>966.6</ele>
        <time>2022-07-24T16:25:23Z</time>
      </trkpt>
      <trkpt lat="46.1960090" lon="5.7599090">
        <ele>966.6</ele>
        <time>2022-07-24T16:25:26Z</time>
      </trkpt>
      <trkpt lat="46.1959340" lon="5.7598370">
        <ele>965.4</ele>
        <time>2022-07-24T16:25:31Z</time>
      </trkpt>
      <trkpt lat="46.1959070" lon="5.7597820">
        <ele>965.0</ele>
        <time>2022-07-24T16:25:33Z</time>
      </trkpt>
      <trkpt lat="46.1958300" lon="5.7596960">
        <ele>964.2</ele>
        <time>2022-07-24T16:25:36Z</time>
      </trkpt>
      <trkpt lat="46.1957640" lon="5.7596340">
        <ele>963.6</ele>
        <time>2022-07-24T16:25:38Z</time>
      </trkpt>
      <trkpt lat="46.1957270" lon="5.7595880">
        <ele>963.0</ele>
        <time>2022-07-24T16:25:39Z</time>
      </trkpt>
      <trkpt lat="46.1956280" lon="5.7595070">
        <ele>962.2</ele>
        <time>2022-07-24T16:25:41Z</time>
      </trkpt>
      <trkpt lat="46.1955760" lon="5.7594650">
        <ele>961.6</ele>
        <time>2022-07-24T16:25:42Z</time>
      </trkpt>
      <trkpt lat="46.1955140" lon="5.7594020">
        <ele>961.2</ele>
        <time>2022-07-24T16:25:43Z</time>
      </trkpt>
      <trkpt lat="46.1954100" lon="5.7593210">
        <ele>960.2</ele>
        <time>2022-07-24T16:25:45Z</time>
      </trkpt>
      <trkpt lat="46.1952260" lon="5.7592120">
        <ele>959.2</ele>
        <time>2022-07-24T16:25:48Z</time>
      </trkpt>
      <trkpt lat="46.1951270" lon="5.7591110">
        <ele>958.4</ele>
        <time>2022-07-24T16:25:50Z</time>
      </trkpt>
      <trkpt lat="46.1950650" lon="5.7590380">
        <ele>958.0</ele>
        <time>2022-07-24T16:25:51Z</time>
      </trkpt>
      <trkpt lat="46.1949470" lon="5.7589160">
        <ele>957.4</ele>
        <time>2022-07-24T16:25:53Z</time>
      </trkpt>
      <trkpt lat="46.1948360" lon="5.7587950">
        <ele>957.0</ele>
        <time>2022-07-24T16:25:55Z</time>
      </trkpt>
      <trkpt lat="46.1946870" lon="5.7586030">
        <ele>955.8</ele>
        <time>2022-07-24T16:25:58Z</time>
      </trkpt>
      <trkpt lat="46.1945940" lon="5.7584570">
        <ele>954.8</ele>
        <time>2022-07-24T16:26:00Z</time>
      </trkpt>
      <trkpt lat="46.1945260" lon="5.7582910">
        <ele>953.6</ele>
        <time>2022-07-24T16:26:02Z</time>
      </trkpt>
      <trkpt lat="46.1944420" lon="5.7580560">
        <ele>952.4</ele>
        <time>2022-07-24T16:26:05Z</time>
      </trkpt>
      <trkpt lat="46.1943960" lon="5.7579790">
        <ele>952.0</ele>
        <time>2022-07-24T16:26:06Z</time>
      </trkpt>
      <trkpt lat="46.1942910" lon="5.7578370">
        <ele>950.8</ele>
        <time>2022-07-24T16:26:08Z</time>
      </trkpt>
      <trkpt lat="46.1942130" lon="5.7577250">
        <ele>950.0</ele>
        <time>2022-07-24T16:26:10Z</time>
      </trkpt>
      <trkpt lat="46.1941740" lon="5.7576670">
        <ele>949.6</ele>
        <time>2022-07-24T16:26:11Z</time>
      </trkpt>
      <trkpt lat="46.1940410" lon="5.7574330">
        <ele>948.4</ele>
        <time>2022-07-24T16:26:15Z</time>
      </trkpt>
      <trkpt lat="46.1940050" lon="5.7573670">
        <ele>948.2</ele>
        <time>2022-07-24T16:26:16Z</time>
      </trkpt>
      <trkpt lat="46.1939360" lon="5.7572340">
        <ele>947.4</ele>
        <time>2022-07-24T16:26:18Z</time>
      </trkpt>
      <trkpt lat="46.1938830" lon="5.7571340">
        <ele>946.4</ele>
        <time>2022-07-24T16:26:20Z</time>
      </trkpt>
      <trkpt lat="46.1938570" lon="5.7570840">
        <ele>945.8</ele>
        <time>2022-07-24T16:26:21Z</time>
      </trkpt>
      <trkpt lat="46.1938290" lon="5.7570330">
        <ele>945.4</ele>
        <time>2022-07-24T16:26:22Z</time>
      </trkpt>
      <trkpt lat="46.1937760" lon="5.7569320">
        <ele>944.2</ele>
        <time>2022-07-24T16:26:24Z</time>
      </trkpt>
      <trkpt lat="46.1937150" lon="5.7568410">
        <ele>943.0</ele>
        <time>2022-07-24T16:26:26Z</time>
      </trkpt>
      <trkpt lat="46.1936780" lon="5.7568020">
        <ele>942.4</ele>
        <time>2022-07-24T16:26:27Z</time>
      </trkpt>
      <trkpt lat="46.1936260" lon="5.7567690">
        <ele>941.6</ele>
        <time>2022-07-24T16:26:28Z</time>
      </trkpt>
      <trkpt lat="46.1934990" lon="5.7566990">
        <ele>940.2</ele>
        <time>2022-07-24T16:26:30Z</time>
      </trkpt>
      <trkpt lat="46.1932900" lon="5.7565840">
        <ele>938.6</ele>
        <time>2022-07-24T16:26:33Z</time>
      </trkpt>
      <trkpt lat="46.1931700" lon="5.7565090">
        <ele>937.4</ele>
        <time>2022-07-24T16:26:35Z</time>
      </trkpt>
      <trkpt lat="46.1930660" lon="5.7564460">
        <ele>934.6</ele>
        <time>2022-07-24T16:26:37Z</time>
      </trkpt>
      <trkpt lat="46.1930100" lon="5.7564150">
        <ele>933.4</ele>
        <time>2022-07-24T16:26:38Z</time>
      </trkpt>
      <trkpt lat="46.1929540" lon="5.7563870">
        <ele>932.0</ele>
        <time>2022-07-24T16:26:39Z</time>
      </trkpt>
      <trkpt lat="46.1929040" lon="5.7563550">
        <ele>930.6</ele>
        <time>2022-07-24T16:26:40Z</time>
      </trkpt>
      <trkpt lat="46.1928600" lon="5.7563220">
        <ele>929.2</ele>
        <time>2022-07-24T16:26:41Z</time>
      </trkpt>
      <trkpt lat="46.1928090" lon="5.7562700">
        <ele>927.8</ele>
        <time>2022-07-24T16:26:42Z</time>
      </trkpt>
      <trkpt lat="46.1927520" lon="5.7562090">
        <ele>926.8</ele>
        <time>2022-07-24T16:26:43Z</time>
      </trkpt>
      <trkpt lat="46.1927020" lon="5.7561410">
        <ele>925.6</ele>
        <time>2022-07-24T16:26:44Z</time>
      </trkpt>
      <trkpt lat="46.1926550" lon="5.7560640">
        <ele>924.4</ele>
        <time>2022-07-24T16:26:45Z</time>
      </trkpt>
      <trkpt lat="46.1926090" lon="5.7559860">
        <ele>923.4</ele>
        <time>2022-07-24T16:26:46Z</time>
      </trkpt>
      <trkpt lat="46.1925630" lon="5.7558990">
        <ele>922.2</ele>
        <time>2022-07-24T16:26:47Z</time>
      </trkpt>
      <trkpt lat="46.1924840" lon="5.7557620">
        <ele>920.2</ele>
        <time>2022-07-24T16:26:49Z</time>
      </trkpt>
      <trkpt lat="46.1924390" lon="5.7556990">
        <ele>919.2</ele>
        <time>2022-07-24T16:26:50Z</time>
      </trkpt>
      <trkpt lat="46.1923870" lon="5.7556400">
        <ele>918.6</ele>
        <time>2022-07-24T16:26:51Z</time>
      </trkpt>
      <trkpt lat="46.1922670" lon="5.7555410">
        <ele>917.2</ele>
        <time>2022-07-24T16:26:53Z</time>
      </trkpt>
      <trkpt lat="46.1921270" lon="5.7554420">
        <ele>915.4</ele>
        <time>2022-07-24T16:26:55Z</time>
      </trkpt>
      <trkpt lat="46.1920450" lon="5.7553730">
        <ele>914.4</ele>
        <time>2022-07-24T16:26:56Z</time>
      </trkpt>
      <trkpt lat="46.1919690" lon="5.7553080">
        <ele>913.4</ele>
        <time>2022-07-24T16:26:57Z</time>
      </trkpt>
      <trkpt lat="46.1919000" lon="5.7552540">
        <ele>912.4</ele>
        <time>2022-07-24T16:26:58Z</time>
      </trkpt>
      <trkpt lat="46.1917720" lon="5.7551550">
        <ele>911.2</ele>
        <time>2022-07-24T16:27:00Z</time>
      </trkpt>
      <trkpt lat="46.1916420" lon="5.7550380">
        <ele>909.8</ele>
        <time>2022-07-24T16:27:02Z</time>
      </trkpt>
      <trkpt lat="46.1915830" lon="5.7549800">
        <ele>909.2</ele>
        <time>2022-07-24T16:27:03Z</time>
      </trkpt>
      <trkpt lat="46.1915250" lon="5.7549290">
        <ele>908.2</ele>
        <time>2022-07-24T16:27:04Z</time>
      </trkpt>
      <trkpt lat="46.1914020" lon="5.7548380">
        <ele>905.8</ele>
        <time>2022-07-24T16:27:06Z</time>
      </trkpt>
      <trkpt lat="46.1912690" lon="5.7547510">
        <ele>904.4</ele>
        <time>2022-07-24T16:27:08Z</time>
      </trkpt>
      <trkpt lat="46.1911250" lon="5.7546490">
        <ele>903.2</ele>
        <time>2022-07-24T16:27:10Z</time>
      </trkpt>
      <trkpt lat="46.1909930" lon="5.7545380">
        <ele>902.0</ele>
        <time>2022-07-24T16:27:12Z</time>
      </trkpt>
      <trkpt lat="46.1908660" lon="5.7544210">
        <ele>900.4</ele>
        <time>2022-07-24T16:27:14Z</time>
      </trkpt>
      <trkpt lat="46.1908130" lon="5.7543680">
        <ele>899.4</ele>
        <time>2022-07-24T16:27:15Z</time>
      </trkpt>
      <trkpt lat="46.1907700" lon="5.7543180">
        <ele>898.4</ele>
        <time>2022-07-24T16:27:16Z</time>
      </trkpt>
      <trkpt lat="46.1907320" lon="5.7542780">
        <ele>897.4</ele>
        <time>2022-07-24T16:27:17Z</time>
      </trkpt>
      <trkpt lat="46.1906940" lon="5.7542390">
        <ele>896.2</ele>
        <time>2022-07-24T16:27:18Z</time>
      </trkpt>
      <trkpt lat="46.1906550" lon="5.7542000">
        <ele>895.2</ele>
        <time>2022-07-24T16:27:19Z</time>
      </trkpt>
      <trkpt lat="46.1906130" lon="5.7541460">
        <ele>894.6</ele>
        <time>2022-07-24T16:27:20Z</time>
      </trkpt>
      <trkpt lat="46.1905310" lon="5.7540310">
        <ele>893.0</ele>
        <time>2022-07-24T16:27:22Z</time>
      </trkpt>
      <trkpt lat="46.1904780" lon="5.7539480">
        <ele>892.2</ele>
        <time>2022-07-24T16:27:23Z</time>
      </trkpt>
      <trkpt lat="46.1904300" lon="5.7538630">
        <ele>891.0</ele>
        <time>2022-07-24T16:27:24Z</time>
      </trkpt>
      <trkpt lat="46.1903840" lon="5.7537730">
        <ele>890.0</ele>
        <time>2022-07-24T16:27:25Z</time>
      </trkpt>
      <trkpt lat="46.1902940" lon="5.7535950">
        <ele>888.2</ele>
        <time>2022-07-24T16:27:27Z</time>
      </trkpt>
      <trkpt lat="46.1902030" lon="5.7534340">
        <ele>886.6</ele>
        <time>2022-07-24T16:27:29Z</time>
      </trkpt>
      <trkpt lat="46.1901170" lon="5.7533080">
        <ele>884.6</ele>
        <time>2022-07-24T16:27:31Z</time>
      </trkpt>
      <trkpt lat="46.1900610" lon="5.7532590">
        <ele>883.6</ele>
        <time>2022-07-24T16:27:32Z</time>
      </trkpt>
      <trkpt lat="46.1900050" lon="5.7532080">
        <ele>882.6</ele>
        <time>2022-07-24T16:27:33Z</time>
      </trkpt>
      <trkpt lat="46.1899480" lon="5.7531650">
        <ele>881.8</ele>
        <time>2022-07-24T16:27:34Z</time>
      </trkpt>
      <trkpt lat="46.1898920" lon="5.7531200">
        <ele>880.0</ele>
        <time>2022-07-24T16:27:35Z</time>
      </trkpt>
      <trkpt lat="46.1898300" lon="5.7530840">
        <ele>879.2</ele>
        <time>2022-07-24T16:27:36Z</time>
      </trkpt>
      <trkpt lat="46.1897720" lon="5.7530400">
        <ele>878.4</ele>
        <time>2022-07-24T16:27:37Z</time>
      </trkpt>
      <trkpt lat="46.1896590" lon="5.7529610">
        <ele>877.0</ele>
        <time>2022-07-24T16:27:39Z</time>
      </trkpt>
      <trkpt lat="46.1894560" lon="5.7528430">
        <ele>875.4</ele>
        <time>2022-07-24T16:27:42Z</time>
      </trkpt>
      <trkpt lat="46.1893920" lon="5.7528060">
        <ele>874.8</ele>
        <time>2022-07-24T16:27:43Z</time>
      </trkpt>
      <trkpt lat="46.1893300" lon="5.7527680">
        <ele>874.2</ele>
        <time>2022-07-24T16:27:44Z</time>
      </trkpt>
      <trkpt lat="46.1892000" lon="5.7526690">
        <ele>873.2</ele>
        <time>2022-07-24T16:27:46Z</time>
      </trkpt>
      <trkpt lat="46.1890870" lon="5.7525690">
        <ele>872.4</ele>
        <time>2022-07-24T16:27:48Z</time>
      </trkpt>
      <trkpt lat="46.1890360" lon="5.7525190">
        <ele>872.0</ele>
        <time>2022-07-24T16:27:49Z</time>
      </trkpt>
      <trkpt lat="46.1889880" lon="5.7524790">
        <ele>871.6</ele>
        <time>2022-07-24T16:27:50Z</time>
      </trkpt>
      <trkpt lat="46.1889080" lon="5.7523980">
        <ele>870.8</ele>
        <time>2022-07-24T16:27:52Z</time>
      </trkpt>
      <trkpt lat="46.1888710" lon="5.7523500">
        <ele>870.4</ele>
        <time>2022-07-24T16:27:53Z</time>
      </trkpt>
      <trkpt lat="46.1888400" lon="5.7523010">
        <ele>869.8</ele>
        <time>2022-07-24T16:27:54Z</time>
      </trkpt>
      <trkpt lat="46.1887840" lon="5.7521810">
        <ele>868.0</ele>
        <time>2022-07-24T16:27:56Z</time>
      </trkpt>
      <trkpt lat="46.1887560" lon="5.7521080">
        <ele>867.0</ele>
        <time>2022-07-24T16:27:57Z</time>
      </trkpt>
      <trkpt lat="46.1887300" lon="5.7520400">
        <ele>866.0</ele>
        <time>2022-07-24T16:27:58Z</time>
      </trkpt>
      <trkpt lat="46.1887010" lon="5.7519740">
        <ele>864.8</ele>
        <time>2022-07-24T16:27:59Z</time>
      </trkpt>
      <trkpt lat="46.1886370" lon="5.7518380">
        <ele>863.2</ele>
        <time>2022-07-24T16:28:01Z</time>
      </trkpt>
      <trkpt lat="46.1885960" lon="5.7517660">
        <ele>862.2</ele>
        <time>2022-07-24T16:28:02Z</time>
      </trkpt>
      <trkpt lat="46.1885410" lon="5.7516660">
        <ele>861.4</ele>
        <time>2022-07-24T16:28:03Z</time>
      </trkpt>
      <trkpt lat="46.1884840" lon="5.7515740">
        <ele>859.6</ele>
        <time>2022-07-24T16:28:04Z</time>
      </trkpt>
      <trkpt lat="46.1884270" lon="5.7515020">
        <ele>858.4</ele>
        <time>2022-07-24T16:28:05Z</time>
      </trkpt>
      <trkpt lat="46.1883770" lon="5.7514300">
        <ele>857.2</ele>
        <time>2022-07-24T16:28:06Z</time>
      </trkpt>
      <trkpt lat="46.1883290" lon="5.7513620">
        <ele>856.0</ele>
        <time>2022-07-24T16:28:07Z</time>
      </trkpt>
      <trkpt lat="46.1882750" lon="5.7512940">
        <ele>854.8</ele>
        <time>2022-07-24T16:28:08Z</time>
      </trkpt>
      <trkpt lat="46.1882160" lon="5.7512110">
        <ele>853.6</ele>
        <time>2022-07-24T16:28:09Z</time>
      </trkpt>
      <trkpt lat="46.1881460" lon="5.7511130">
        <ele>852.6</ele>
        <time>2022-07-24T16:28:10Z</time>
      </trkpt>
      <trkpt lat="46.1880750" lon="5.7510230">
        <ele>851.6</ele>
        <time>2022-07-24T16:28:11Z</time>
      </trkpt>
      <trkpt lat="46.1880040" lon="5.7509240">
        <ele>850.4</ele>
        <time>2022-07-24T16:28:12Z</time>
      </trkpt>
      <trkpt lat="46.1879330" lon="5.7508230">
        <ele>849.4</ele>
        <time>2022-07-24T16:28:13Z</time>
      </trkpt>
      <trkpt lat="46.1878600" lon="5.7507270">
        <ele>848.2</ele>
        <time>2022-07-24T16:28:14Z</time>
      </trkpt>
      <trkpt lat="46.1877890" lon="5.7506360">
        <ele>847.0</ele>
        <time>2022-07-24T16:28:15Z</time>
      </trkpt>
      <trkpt lat="46.1877230" lon="5.7505520">
        <ele>846.0</ele>
        <time>2022-07-24T16:28:16Z</time>
      </trkpt>
      <trkpt lat="46.1876580" lon="5.7504570">
        <ele>845.0</ele>
        <time>2022-07-24T16:28:17Z</time>
      </trkpt>
      <trkpt lat="46.1875930" lon="5.7503760">
        <ele>843.8</ele>
        <time>2022-07-24T16:28:18Z</time>
      </trkpt>
      <trkpt lat="46.1874690" lon="5.7501950">
        <ele>841.8</ele>
        <time>2022-07-24T16:28:20Z</time>
      </trkpt>
      <trkpt lat="46.1874120" lon="5.7501050">
        <ele>840.4</ele>
        <time>2022-07-24T16:28:21Z</time>
      </trkpt>
      <trkpt lat="46.1873570" lon="5.7500190">
        <ele>838.8</ele>
        <time>2022-07-24T16:28:22Z</time>
      </trkpt>
      <trkpt lat="46.1872990" lon="5.7499310">
        <ele>837.2</ele>
        <time>2022-07-24T16:28:23Z</time>
      </trkpt>
      <trkpt lat="46.1872340" lon="5.7498350">
        <ele>835.6</ele>
        <time>2022-07-24T16:28:24Z</time>
      </trkpt>
      <trkpt lat="46.1871620" lon="5.7497300">
        <ele>834.2</ele>
        <time>2022-07-24T16:28:25Z</time>
      </trkpt>
      <trkpt lat="46.1870850" lon="5.7496270">
        <ele>832.6</ele>
        <time>2022-07-24T16:28:26Z</time>
      </trkpt>
      <trkpt lat="46.1870060" lon="5.7495200">
        <ele>831.0</ele>
        <time>2022-07-24T16:28:27Z</time>
      </trkpt>
      <trkpt lat="46.1869250" lon="5.7494140">
        <ele>829.6</ele>
        <time>2022-07-24T16:28:28Z</time>
      </trkpt>
      <trkpt lat="46.1868400" lon="5.7493090">
        <ele>828.4</ele>
        <time>2022-07-24T16:28:29Z</time>
      </trkpt>
      <trkpt lat="46.1867500" lon="5.7492110">
        <ele>827.2</ele>
        <time>2022-07-24T16:28:30Z</time>
      </trkpt>
      <trkpt lat="46.1866570" lon="5.7491150">
        <ele>826.0</ele>
        <time>2022-07-24T16:28:31Z</time>
      </trkpt>
      <trkpt lat="46.1865610" lon="5.7490230">
        <ele>824.8</ele>
        <time>2022-07-24T16:28:32Z</time>
      </trkpt>
      <trkpt lat="46.1864650" lon="5.7489360">
        <ele>822.4</ele>
        <time>2022-07-24T16:28:33Z</time>
      </trkpt>
      <trkpt lat="46.1863670" lon="5.7488500">
        <ele>821.4</ele>
        <time>2022-07-24T16:28:34Z</time>
      </trkpt>
      <trkpt lat="46.1862690" lon="5.7487660">
        <ele>820.2</ele>
        <time>2022-07-24T16:28:35Z</time>
      </trkpt>
      <trkpt lat="46.1861700" lon="5.7486850">
        <ele>819.0</ele>
        <time>2022-07-24T16:28:36Z</time>
      </trkpt>
      <trkpt lat="46.1860690" lon="5.7486070">
        <ele>817.6</ele>
        <time>2022-07-24T16:28:37Z</time>
      </trkpt>
      <trkpt lat="46.1859710" lon="5.7485310">
        <ele>816.8</ele>
        <time>2022-07-24T16:28:38Z</time>
      </trkpt>
      <trkpt lat="46.1858760" lon="5.7484580">
        <ele>815.6</ele>
        <time>2022-07-24T16:28:39Z</time>
      </trkpt>
      <trkpt lat="46.1857890" lon="5.7483880">
        <ele>814.4</ele>
        <time>2022-07-24T16:28:40Z</time>
      </trkpt>
      <trkpt lat="46.1857100" lon="5.7483180">
        <ele>813.2</ele>
        <time>2022-07-24T16:28:41Z</time>
      </trkpt>
      <trkpt lat="46.1856380" lon="5.7482450">
        <ele>811.8</ele>
        <time>2022-07-24T16:28:42Z</time>
      </trkpt>
      <trkpt lat="46.1855730" lon="5.7481710">
        <ele>810.8</ele>
        <time>2022-07-24T16:28:43Z</time>
      </trkpt>
      <trkpt lat="46.1855180" lon="5.7480910">
        <ele>809.6</ele>
        <time>2022-07-24T16:28:44Z</time>
      </trkpt>
      <trkpt lat="46.1854690" lon="5.7480100">
        <ele>808.2</ele>
        <time>2022-07-24T16:28:45Z</time>
      </trkpt>
      <trkpt lat="46.1854240" lon="5.7479370">
        <ele>806.6</ele>
        <time>2022-07-24T16:28:46Z</time>
      </trkpt>
      <trkpt lat="46.1853810" lon="5.7478690">
        <ele>805.2</ele>
        <time>2022-07-24T16:28:47Z</time>
      </trkpt>
      <trkpt lat="46.1853400" lon="5.7478070">
        <ele>803.8</ele>
        <time>2022-07-24T16:28:48Z</time>
      </trkpt>
      <trkpt lat="46.1853010" lon="5.7477520">
        <ele>802.4</ele>
        <time>2022-07-24T16:28:49Z</time>
      </trkpt>
      <trkpt lat="46.1852620" lon="5.7477000">
        <ele>801.0</ele>
        <time>2022-07-24T16:28:50Z</time>
      </trkpt>
      <trkpt lat="46.1852270" lon="5.7476500">
        <ele>800.0</ele>
        <time>2022-07-24T16:28:51Z</time>
      </trkpt>
      <trkpt lat="46.1851980" lon="5.7476010">
        <ele>799.2</ele>
        <time>2022-07-24T16:28:52Z</time>
      </trkpt>
      <trkpt lat="46.1851800" lon="5.7475520">
        <ele>798.2</ele>
        <time>2022-07-24T16:28:53Z</time>
      </trkpt>
      <trkpt lat="46.1851720" lon="5.7474520">
        <ele>796.2</ele>
        <time>2022-07-24T16:28:55Z</time>
      </trkpt>
      <trkpt lat="46.1852060" lon="5.7473510">
        <ele>794.4</ele>
        <time>2022-07-24T16:28:57Z</time>
      </trkpt>
      <trkpt lat="46.1852250" lon="5.7473070">
        <ele>793.6</ele>
        <time>2022-07-24T16:28:58Z</time>
      </trkpt>
      <trkpt lat="46.1852340" lon="5.7472640">
        <ele>792.6</ele>
        <time>2022-07-24T16:28:59Z</time>
      </trkpt>
      <trkpt lat="46.1852320" lon="5.7472220">
        <ele>791.4</ele>
        <time>2022-07-24T16:29:00Z</time>
      </trkpt>
      <trkpt lat="46.1852190" lon="5.7471860">
        <ele>790.4</ele>
        <time>2022-07-24T16:29:01Z</time>
      </trkpt>
      <trkpt lat="46.1851940" lon="5.7471570">
        <ele>789.6</ele>
        <time>2022-07-24T16:29:02Z</time>
      </trkpt>
      <trkpt lat="46.1851590" lon="5.7471310">
        <ele>788.0</ele>
        <time>2022-07-24T16:29:03Z</time>
      </trkpt>
      <trkpt lat="46.1850700" lon="5.7470810">
        <ele>786.6</ele>
        <time>2022-07-24T16:29:05Z</time>
      </trkpt>
      <trkpt lat="46.1849730" lon="5.7470320">
        <ele>785.6</ele>
        <time>2022-07-24T16:29:07Z</time>
      </trkpt>
      <trkpt lat="46.1847950" lon="5.7469520">
        <ele>784.6</ele>
        <time>2022-07-24T16:29:10Z</time>
      </trkpt>
      <trkpt lat="46.1847340" lon="5.7469290">
        <ele>784.2</ele>
        <time>2022-07-24T16:29:11Z</time>
      </trkpt>
      <trkpt lat="46.1846170" lon="5.7468910">
        <ele>783.4</ele>
        <time>2022-07-24T16:29:13Z</time>
      </trkpt>
      <trkpt lat="46.1845670" lon="5.7468680">
        <ele>782.8</ele>
        <time>2022-07-24T16:29:14Z</time>
      </trkpt>
      <trkpt lat="46.1845190" lon="5.7468410">
        <ele>782.0</ele>
        <time>2022-07-24T16:29:15Z</time>
      </trkpt>
      <trkpt lat="46.1844670" lon="5.7468160">
        <ele>781.2</ele>
        <time>2022-07-24T16:29:16Z</time>
      </trkpt>
      <trkpt lat="46.1844170" lon="5.7467960">
        <ele>780.2</ele>
        <time>2022-07-24T16:29:17Z</time>
      </trkpt>
      <trkpt lat="46.1843650" lon="5.7467800">
        <ele>779.2</ele>
        <time>2022-07-24T16:29:18Z</time>
      </trkpt>
      <trkpt lat="46.1843150" lon="5.7467640">
        <ele>778.2</ele>
        <time>2022-07-24T16:29:19Z</time>
      </trkpt>
      <trkpt lat="46.1842710" lon="5.7467490">
        <ele>777.2</ele>
        <time>2022-07-24T16:29:20Z</time>
      </trkpt>
      <trkpt lat="46.1842310" lon="5.7467360">
        <ele>776.0</ele>
        <time>2022-07-24T16:29:21Z</time>
      </trkpt>
      <trkpt lat="46.1841940" lon="5.7467280">
        <ele>774.8</ele>
        <time>2022-07-24T16:29:22Z</time>
      </trkpt>
      <trkpt lat="46.1841210" lon="5.7467220">
        <ele>772.8</ele>
        <time>2022-07-24T16:29:24Z</time>
      </trkpt>
      <trkpt lat="46.1840290" lon="5.7467180">
        <ele>770.8</ele>
        <time>2022-07-24T16:29:26Z</time>
      </trkpt>
      <trkpt lat="46.1839700" lon="5.7467130">
        <ele>769.6</ele>
        <time>2022-07-24T16:29:27Z</time>
      </trkpt>
      <trkpt lat="46.1839040" lon="5.7467110">
        <ele>768.6</ele>
        <time>2022-07-24T16:29:28Z</time>
      </trkpt>
      <trkpt lat="46.1837610" lon="5.7467350">
        <ele>767.4</ele>
        <time>2022-07-24T16:29:30Z</time>
      </trkpt>
      <trkpt lat="46.1837010" lon="5.7467550">
        <ele>766.2</ele>
        <time>2022-07-24T16:29:31Z</time>
      </trkpt>
      <trkpt lat="46.1836550" lon="5.7467740">
        <ele>765.6</ele>
        <time>2022-07-24T16:29:32Z</time>
      </trkpt>
      <trkpt lat="46.1836140" lon="5.7467930">
        <ele>765.0</ele>
        <time>2022-07-24T16:29:33Z</time>
      </trkpt>
      <trkpt lat="46.1835510" lon="5.7468210">
        <ele>764.0</ele>
        <time>2022-07-24T16:29:35Z</time>
      </trkpt>
      <trkpt lat="46.1834990" lon="5.7468300">
        <ele>762.4</ele>
        <time>2022-07-24T16:29:37Z</time>
      </trkpt>
      <trkpt lat="46.1834830" lon="5.7468310">
        <ele>761.4</ele>
        <time>2022-07-24T16:29:38Z</time>
      </trkpt>
      <trkpt lat="46.1834770" lon="5.7468340">
        <ele>760.6</ele>
        <time>2022-07-24T16:29:39Z</time>
      </trkpt>
      <trkpt lat="46.1834730" lon="5.7468320">
        <ele>759.2</ele>
        <time>2022-07-24T16:29:41Z</time>
      </trkpt>
      <trkpt lat="46.1831960" lon="5.7460680">
        <ele>744.6</ele>
        <time>2022-07-24T16:30:48Z</time>
      </trkpt>
      <trkpt lat="46.1831800" lon="5.7458680">
        <ele>744.0</ele>
        <time>2022-07-24T16:30:53Z</time>
      </trkpt>
      <trkpt lat="46.1831710" lon="5.7457260">
        <ele>743.4</ele>
        <time>2022-07-24T16:30:56Z</time>
      </trkpt>
      <trkpt lat="46.1831600" lon="5.7456460">
        <ele>742.6</ele>
        <time>2022-07-24T16:30:58Z</time>
      </trkpt>
      <trkpt lat="46.1831530" lon="5.7456160">
        <ele>742.4</ele>
        <time>2022-07-24T16:30:59Z</time>
      </trkpt>
      <trkpt lat="46.1831330" lon="5.7454940">
        <ele>740.8</ele>
        <time>2022-07-24T16:31:02Z</time>
      </trkpt>
      <trkpt lat="46.1831180" lon="5.7454060">
        <ele>739.8</ele>
        <time>2022-07-24T16:31:04Z</time>
      </trkpt>
      <trkpt lat="46.1831090" lon="5.7453630">
        <ele>739.4</ele>
        <time>2022-07-24T16:31:05Z</time>
      </trkpt>
      <trkpt lat="46.1831010" lon="5.7452380">
        <ele>738.2</ele>
        <time>2022-07-24T16:31:08Z</time>
      </trkpt>
      <trkpt lat="46.1831090" lon="5.7451950">
        <ele>737.8</ele>
        <time>2022-07-24T16:31:09Z</time>
      </trkpt>
      <trkpt lat="46.1831360" lon="5.7451200">
        <ele>737.0</ele>
        <time>2022-07-24T16:31:11Z</time>
      </trkpt>
      <trkpt lat="46.1831860" lon="5.7450340">
        <ele>735.8</ele>
        <time>2022-07-24T16:31:14Z</time>
      </trkpt>
      <trkpt lat="46.1832720" lon="5.7449080">
        <ele>734.6</ele>
        <time>2022-07-24T16:31:17Z</time>
      </trkpt>
      <trkpt lat="46.1833410" lon="5.7448300">
        <ele>733.6</ele>
        <time>2022-07-24T16:31:19Z</time>
      </trkpt>
      <trkpt lat="46.1833790" lon="5.7447910">
        <ele>733.0</ele>
        <time>2022-07-24T16:31:20Z</time>
      </trkpt>
      <trkpt lat="46.1834850" lon="5.7446890">
        <ele>732.0</ele>
        <time>2022-07-24T16:31:23Z</time>
      </trkpt>
      <trkpt lat="46.1835470" lon="5.7446400">
        <ele>731.4</ele>
        <time>2022-07-24T16:31:25Z</time>
      </trkpt>
      <trkpt lat="46.1835730" lon="5.7446100">
        <ele>731.0</ele>
        <time>2022-07-24T16:31:26Z</time>
      </trkpt>
      <trkpt lat="46.1836380" lon="5.7445530">
        <ele>729.6</ele>
        <time>2022-07-24T16:31:28Z</time>
      </trkpt>
      <trkpt lat="46.1837390" lon="5.7444360">
        <ele>728.2</ele>
        <time>2022-07-24T16:31:31Z</time>
      </trkpt>
      <trkpt lat="46.1838080" lon="5.7443840">
        <ele>727.0</ele>
        <time>2022-07-24T16:31:33Z</time>
      </trkpt>
      <trkpt lat="46.1839050" lon="5.7443130">
        <ele>725.6</ele>
        <time>2022-07-24T16:31:36Z</time>
      </trkpt>
      <trkpt lat="46.1839780" lon="5.7442820">
        <ele>724.6</ele>
        <time>2022-07-24T16:31:38Z</time>
      </trkpt>
      <trkpt lat="46.1840220" lon="5.7442670">
        <ele>724.0</ele>
        <time>2022-07-24T16:31:39Z</time>
      </trkpt>
      <trkpt lat="46.1841130" lon="5.7442420">
        <ele>723.0</ele>
        <time>2022-07-24T16:31:41Z</time>
      </trkpt>
      <trkpt lat="46.1841630" lon="5.7442350">
        <ele>722.6</ele>
        <time>2022-07-24T16:31:42Z</time>
      </trkpt>
      <trkpt lat="46.1842130" lon="5.7442250">
        <ele>722.0</ele>
        <time>2022-07-24T16:31:43Z</time>
      </trkpt>
      <trkpt lat="46.1843060" lon="5.7442240">
        <ele>720.8</ele>
        <time>2022-07-24T16:31:45Z</time>
      </trkpt>
      <trkpt lat="46.1844040" lon="5.7442160">
        <ele>719.6</ele>
        <time>2022-07-24T16:31:47Z</time>
      </trkpt>
      <trkpt lat="46.1844800" lon="5.7442150">
        <ele>718.4</ele>
        <time>2022-07-24T16:31:49Z</time>
      </trkpt>
      <trkpt lat="46.1845320" lon="5.7442130">
        <ele>717.2</ele>
        <time>2022-07-24T16:31:51Z</time>
      </trkpt>
      <trkpt lat="46.1845950" lon="5.7442210">
        <ele>715.2</ele>
        <time>2022-07-24T16:31:53Z</time>
      </trkpt>
      <trkpt lat="46.1846680" lon="5.7442350">
        <ele>713.8</ele>
        <time>2022-07-24T16:31:55Z</time>
      </trkpt>
      <trkpt lat="46.1847150" lon="5.7442460">
        <ele>713.0</ele>
        <time>2022-07-24T16:31:56Z</time>
      </trkpt>
      <trkpt lat="46.1847590" lon="5.7442580">
        <ele>711.6</ele>
        <time>2022-07-24T16:31:57Z</time>
      </trkpt>
      <trkpt lat="46.1848400" lon="5.7442670">
        <ele>710.2</ele>
        <time>2022-07-24T16:31:59Z</time>
      </trkpt>
      <trkpt lat="46.1849130" lon="5.7442890">
        <ele>709.6</ele>
        <time>2022-07-24T16:32:01Z</time>
      </trkpt>
      <trkpt lat="46.1849420" lon="5.7443000">
        <ele>709.0</ele>
        <time>2022-07-24T16:32:02Z</time>
      </trkpt>
      <trkpt lat="46.1850070" lon="5.7443180">
        <ele>707.8</ele>
        <time>2022-07-24T16:32:05Z</time>
      </trkpt>
      <trkpt lat="46.1850250" lon="5.7443190">
        <ele>707.2</ele>
        <time>2022-07-24T16:32:06Z</time>
      </trkpt>
      <trkpt lat="46.1850400" lon="5.7443190">
        <ele>706.6</ele>
        <time>2022-07-24T16:32:07Z</time>
      </trkpt>
      <trkpt lat="46.1850650" lon="5.7443090">
        <ele>705.6</ele>
        <time>2022-07-24T16:32:09Z</time>
      </trkpt>
      <trkpt lat="46.1850850" lon="5.7443010">
        <ele>705.0</ele>
        <time>2022-07-24T16:32:11Z</time>
      </trkpt>
      <trkpt lat="46.1850910" lon="5.7442990">
        <ele>704.6</ele>
        <time>2022-07-24T16:32:12Z</time>
      </trkpt>
      <trkpt lat="46.1851150" lon="5.7442820">
        <ele>703.4</ele>
        <time>2022-07-24T16:32:15Z</time>
      </trkpt>
      <trkpt lat="46.1851680" lon="5.7442710">
        <ele>702.2</ele>
        <time>2022-07-24T16:32:20Z</time>
      </trkpt>
      <trkpt lat="46.1851800" lon="5.7442720">
        <ele>702.2</ele>
        <time>2022-07-24T16:32:21Z</time>
      </trkpt>
      <trkpt lat="46.1852320" lon="5.7442380">
        <ele>701.2</ele>
        <time>2022-07-24T16:32:26Z</time>
      </trkpt>
      <trkpt lat="46.1852660" lon="5.7442240">
        <ele>700.0</ele>
        <time>2022-07-24T16:32:30Z</time>
      </trkpt>
      <trkpt lat="46.1852860" lon="5.7441930">
        <ele>699.0</ele>
        <time>2022-07-24T16:32:34Z</time>
      </trkpt>
      <trkpt lat="46.1852900" lon="5.7441840">
        <ele>698.8</ele>
        <time>2022-07-24T16:32:35Z</time>
      </trkpt>
      <trkpt lat="46.1853070" lon="5.7441160">
        <ele>698.2</ele>
        <time>2022-07-24T16:32:39Z</time>
      </trkpt>
      <trkpt lat="46.1853280" lon="5.7440710">
        <ele>697.2</ele>
        <time>2022-07-24T16:32:44Z</time>
      </trkpt>
      <trkpt lat="46.1853450" lon="5.7440230">
        <ele>696.0</ele>
        <time>2022-07-24T16:32:49Z</time>
      </trkpt>
      <trkpt lat="46.1853650" lon="5.7439620">
        <ele>695.0</ele>
        <time>2022-07-24T16:32:53Z</time>
      </trkpt>
      <trkpt lat="46.1853770" lon="5.7439070">
        <ele>693.8</ele>
        <time>2022-07-24T16:32:56Z</time>
      </trkpt>
      <trkpt lat="46.1853860" lon="5.7438670">
        <ele>692.6</ele>
        <time>2022-07-24T16:32:59Z</time>
      </trkpt>
      <trkpt lat="46.1853910" lon="5.7438380">
        <ele>691.4</ele>
        <time>2022-07-24T16:33:03Z</time>
      </trkpt>
      <trkpt lat="46.1855520" lon="5.7431690">
        <ele>679.6</ele>
        <time>2022-07-24T16:34:54Z</time>
      </trkpt>
      <trkpt lat="46.1855420" lon="5.7431380">
        <ele>679.6</ele>
        <time>2022-07-24T16:34:55Z</time>
      </trkpt>
      <trkpt lat="46.1854820" lon="5.7429660">
        <ele>678.8</ele>
        <time>2022-07-24T16:35:00Z</time>
      </trkpt>
      <trkpt lat="46.1854620" lon="5.7428950">
        <ele>678.2</ele>
        <time>2022-07-24T16:35:02Z</time>
      </trkpt>
      <trkpt lat="46.1854520" lon="5.7428610">
        <ele>677.6</ele>
        <time>2022-07-24T16:35:03Z</time>
      </trkpt>
      <trkpt lat="46.1854270" lon="5.7427820">
        <ele>676.6</ele>
        <time>2022-07-24T16:35:05Z</time>
      </trkpt>
      <trkpt lat="46.1854020" lon="5.7427160">
        <ele>675.4</ele>
        <time>2022-07-24T16:35:07Z</time>
      </trkpt>
      <trkpt lat="46.1853850" lon="5.7426780">
        <ele>674.8</ele>
        <time>2022-07-24T16:35:08Z</time>
      </trkpt>
      <trkpt lat="46.1853600" lon="5.7426470">
        <ele>674.0</ele>
        <time>2022-07-24T16:35:09Z</time>
      </trkpt>
      <trkpt lat="46.1853170" lon="5.7425950">
        <ele>673.0</ele>
        <time>2022-07-24T16:35:11Z</time>
      </trkpt>
      <trkpt lat="46.1852890" lon="5.7425510">
        <ele>671.8</ele>
        <time>2022-07-24T16:35:13Z</time>
      </trkpt>
      <trkpt lat="46.1852770" lon="5.7425320">
        <ele>671.0</ele>
        <time>2022-07-24T16:35:14Z</time>
      </trkpt>
      <trkpt lat="46.1852640" lon="5.7425120">
        <ele>670.4</ele>
        <time>2022-07-24T16:35:15Z</time>
      </trkpt>
      <trkpt lat="46.1852360" lon="5.7424790">
        <ele>669.2</ele>
        <time>2022-07-24T16:35:17Z</time>
      </trkpt>
      <trkpt lat="46.1852200" lon="5.7424600">
        <ele>668.0</ele>
        <time>2022-07-24T16:35:19Z</time>
      </trkpt>
      <trkpt lat="46.1852050" lon="5.7424440">
        <ele>666.8</ele>
        <time>2022-07-24T16:35:21Z</time>
      </trkpt>
      <trkpt lat="46.1851960" lon="5.7424310">
        <ele>666.2</ele>
        <time>2022-07-24T16:35:22Z</time>
      </trkpt>
      <trkpt lat="46.1849810" lon="5.7423490">
        <ele>662.6</ele>
        <time>2022-07-24T16:35:40Z</time>
      </trkpt>
      <trkpt lat="46.1849390" lon="5.7423470">
        <ele>661.8</ele>
        <time>2022-07-24T16:35:43Z</time>
      </trkpt>
      <trkpt lat="46.1849080" lon="5.7423450">
        <ele>661.6</ele>
        <time>2022-07-24T16:35:45Z</time>
      </trkpt>
      <trkpt lat="46.1848640" lon="5.7423710">
        <ele>660.6</ele>
        <time>2022-07-24T16:35:49Z</time>
      </trkpt>
      <trkpt lat="46.1848470" lon="5.7423900">
        <ele>659.6</ele>
        <time>2022-07-24T16:35:51Z</time>
      </trkpt>
      <trkpt lat="46.1848400" lon="5.7423990">
        <ele>659.4</ele>
        <time>2022-07-24T16:35:52Z</time>
      </trkpt>
      <trkpt lat="46.1848080" lon="5.7424470">
        <ele>658.2</ele>
        <time>2022-07-24T16:35:56Z</time>
      </trkpt>
      <trkpt lat="46.1847960" lon="5.7424630">
        <ele>657.0</ele>
        <time>2022-07-24T16:36:00Z</time>
      </trkpt>
      <trkpt lat="46.1847100" lon="5.7425640">
        <ele>655.8</ele>
        <time>2022-07-24T16:36:09Z</time>
      </trkpt>
      <trkpt lat="46.1846620" lon="5.7426030">
        <ele>655.6</ele>
        <time>2022-07-24T16:36:12Z</time>
      </trkpt>
      <trkpt lat="46.1846070" lon="5.7426200">
        <ele>655.0</ele>
        <time>2022-07-24T16:36:15Z</time>
      </trkpt>
      <trkpt lat="46.1845620" lon="5.7426130">
        <ele>654.0</ele>
        <time>2022-07-24T16:36:18Z</time>
      </trkpt>
      <trkpt lat="46.1845440" lon="5.7426040">
        <ele>653.6</ele>
        <time>2022-07-24T16:36:19Z</time>
      </trkpt>
      <trkpt lat="46.1845100" lon="5.7425830">
        <ele>652.4</ele>
        <time>2022-07-24T16:36:21Z</time>
      </trkpt>
      <trkpt lat="46.1844640" lon="5.7425560">
        <ele>651.6</ele>
        <time>2022-07-24T16:36:23Z</time>
      </trkpt>
      <trkpt lat="46.1844420" lon="5.7425430">
        <ele>651.2</ele>
        <time>2022-07-24T16:36:24Z</time>
      </trkpt>
      <trkpt lat="46.1843560" lon="5.7425020">
        <ele>650.0</ele>
        <time>2022-07-24T16:36:27Z</time>
      </trkpt>
      <trkpt lat="46.1843240" lon="5.7424900">
        <ele>649.8</ele>
        <time>2022-07-24T16:36:28Z</time>
      </trkpt>
      <trkpt lat="46.1842470" lon="5.7424630">
        <ele>648.8</ele>
        <time>2022-07-24T16:36:31Z</time>
      </trkpt>
      <trkpt lat="46.1841590" lon="5.7424080">
        <ele>647.6</ele>
        <time>2022-07-24T16:36:34Z</time>
      </trkpt>
      <trkpt lat="46.1840680" lon="5.7423530">
        <ele>646.4</ele>
        <time>2022-07-24T16:36:37Z</time>
      </trkpt>
      <trkpt lat="46.1839660" lon="5.7423290">
        <ele>645.4</ele>
        <time>2022-07-24T16:36:40Z</time>
      </trkpt>
      <trkpt lat="46.1838870" lon="5.7423200">
        <ele>644.0</ele>
        <time>2022-07-24T16:36:43Z</time>
      </trkpt>
      <trkpt lat="46.1838410" lon="5.7423160">
        <ele>642.8</ele>
        <time>2022-07-24T16:36:45Z</time>
      </trkpt>
      <trkpt lat="46.1837870" lon="5.7423000">
        <ele>641.6</ele>
        <time>2022-07-24T16:36:47Z</time>
      </trkpt>
      <trkpt lat="46.1837380" lon="5.7422750">
        <ele>640.2</ele>
        <time>2022-07-24T16:36:49Z</time>
      </trkpt>
      <trkpt lat="46.1837140" lon="5.7422590">
        <ele>638.8</ele>
        <time>2022-07-24T16:36:50Z</time>
      </trkpt>
      <trkpt lat="46.1836430" lon="5.7422090">
        <ele>637.6</ele>
        <time>2022-07-24T16:36:53Z</time>
      </trkpt>
      <trkpt lat="46.1835660" lon="5.7421530">
        <ele>636.2</ele>
        <time>2022-07-24T16:36:56Z</time>
      </trkpt>
      <trkpt lat="46.1835160" lon="5.7420950">
        <ele>635.2</ele>
        <time>2022-07-24T16:36:58Z</time>
      </trkpt>
      <trkpt lat="46.1834630" lon="5.7420420">
        <ele>634.2</ele>
        <time>2022-07-24T16:37:00Z</time>
      </trkpt>
      <trkpt lat="46.1834130" lon="5.7419980">
        <ele>633.0</ele>
        <time>2022-07-24T16:37:02Z</time>
      </trkpt>
      <trkpt lat="46.1833670" lon="5.7419420">
        <ele>631.6</ele>
        <time>2022-07-24T16:37:04Z</time>
      </trkpt>
      <trkpt lat="46.1833290" lon="5.7418930">
        <ele>630.6</ele>
        <time>2022-07-24T16:37:06Z</time>
      </trkpt>
      <trkpt lat="46.1832700" lon="5.7418500">
        <ele>629.4</ele>
        <time>2022-07-24T16:37:08Z</time>
      </trkpt>
      <trkpt lat="46.1832150" lon="5.7418280">
        <ele>628.2</ele>
        <time>2022-07-24T16:37:10Z</time>
      </trkpt>
      <trkpt lat="46.1830900" lon="5.7418210">
        <ele>626.8</ele>
        <time>2022-07-24T16:37:13Z</time>
      </trkpt>
      <trkpt lat="46.1830410" lon="5.7418130">
        <ele>626.2</ele>
        <time>2022-07-24T16:37:14Z</time>
      </trkpt>
      <trkpt lat="46.1829420" lon="5.7417830">
        <ele>625.2</ele>
        <time>2022-07-24T16:37:16Z</time>
      </trkpt>
      <trkpt lat="46.1828170" lon="5.7417460">
        <ele>623.6</ele>
        <time>2022-07-24T16:37:19Z</time>
      </trkpt>
      <trkpt lat="46.1827820" lon="5.7417370">
        <ele>623.4</ele>
        <time>2022-07-24T16:37:20Z</time>
      </trkpt>
      <trkpt lat="46.1827000" lon="5.7417180">
        <ele>622.4</ele>
        <time>2022-07-24T16:37:23Z</time>
      </trkpt>
      <trkpt lat="46.1826770" lon="5.7417170">
        <ele>621.6</ele>
        <time>2022-07-24T16:37:25Z</time>
      </trkpt>
      <trkpt lat="46.1826730" lon="5.7417170">
        <ele>621.2</ele>
        <time>2022-07-24T16:37:26Z</time>
      </trkpt>
      <trkpt lat="46.1826220" lon="5.7417280">
        <ele>619.0</ele>
        <time>2022-07-24T16:37:38Z</time>
      </trkpt>
      <trkpt lat="46.1825940" lon="5.7417240">
        <ele>619.0</ele>
        <time>2022-07-24T16:37:40Z</time>
      </trkpt>
      <trkpt lat="46.1825810" lon="5.7417230">
        <ele>618.8</ele>
        <time>2022-07-24T16:37:43Z</time>
      </trkpt>
      <trkpt lat="46.1825080" lon="5.7416810">
        <ele>618.2</ele>
        <time>2022-07-24T16:37:50Z</time>
      </trkpt>
      <trkpt lat="46.1824810" lon="5.7416720">
        <ele>618.2</ele>
        <time>2022-07-24T16:37:51Z</time>
      </trkpt>
      <trkpt lat="46.1823340" lon="5.7415710">
        <ele>617.6</ele>
        <time>2022-07-24T16:37:57Z</time>
      </trkpt>
      <trkpt lat="46.1822680" lon="5.7414400">
        <ele>617.0</ele>
        <time>2022-07-24T16:38:00Z</time>
      </trkpt>
      <trkpt lat="46.1822440" lon="5.7413900">
        <ele>616.6</ele>
        <time>2022-07-24T16:38:01Z</time>
      </trkpt>
      <trkpt lat="46.1822030" lon="5.7413430">
        <ele>616.2</ele>
        <time>2022-07-24T16:38:02Z</time>
      </trkpt>
      <trkpt lat="46.1821600" lon="5.7412990">
        <ele>616.0</ele>
        <time>2022-07-24T16:38:03Z</time>
      </trkpt>
      <trkpt lat="46.1820590" lon="5.7412110">
        <ele>615.4</ele>
        <time>2022-07-24T16:38:05Z</time>
      </trkpt>
      <trkpt lat="46.1819340" lon="5.7411410">
        <ele>614.6</ele>
        <time>2022-07-24T16:38:07Z</time>
      </trkpt>
      <trkpt lat="46.1817910" lon="5.7411000">
        <ele>613.6</ele>
        <time>2022-07-24T16:38:09Z</time>
      </trkpt>
      <trkpt lat="46.1816640" lon="5.7410830">
        <ele>612.4</ele>
        <time>2022-07-24T16:38:11Z</time>
      </trkpt>
      <trkpt lat="46.1816110" lon="5.7410770">
        <ele>611.8</ele>
        <time>2022-07-24T16:38:12Z</time>
      </trkpt>
      <trkpt lat="46.1815660" lon="5.7410750">
        <ele>611.4</ele>
        <time>2022-07-24T16:38:13Z</time>
      </trkpt>
      <trkpt lat="46.1814700" lon="5.7410990">
        <ele>610.2</ele>
        <time>2022-07-24T16:38:16Z</time>
      </trkpt>
      <trkpt lat="46.1814330" lon="5.7411290">
        <ele>609.8</ele>
        <time>2022-07-24T16:38:18Z</time>
      </trkpt>
      <trkpt lat="46.1814270" lon="5.7411780">
        <ele>609.8</ele>
        <time>2022-07-24T16:38:20Z</time>
      </trkpt>
      <trkpt lat="46.1814420" lon="5.7412830">
        <ele>610.0</ele>
        <time>2022-07-24T16:38:27Z</time>
      </trkpt>
      <trkpt lat="46.1814460" lon="5.7413310">
        <ele>610.6</ele>
        <time>2022-07-24T16:38:30Z</time>
      </trkpt>
      <trkpt lat="46.1814470" lon="5.7414090">
        <ele>611.6</ele>
        <time>2022-07-24T16:38:34Z</time>
      </trkpt>
      <trkpt lat="46.1814520" lon="5.7414280">
        <ele>611.8</ele>
        <time>2022-07-24T16:38:35Z</time>
      </trkpt>
      <trkpt lat="46.1814960" lon="5.7414840">
        <ele>612.6</ele>
        <time>2022-07-24T16:38:41Z</time>
      </trkpt>
      <trkpt lat="46.1814960" lon="5.7414840">
        <ele>612.6</ele>
        <time>2022-07-24T16:38:42Z</time>
      </trkpt>
      <trkpt lat="46.1814350" lon="5.7414350">
        <ele>612.6</ele>
        <time>2022-07-24T16:39:24Z</time>
      </trkpt>
      <trkpt lat="46.1814100" lon="5.7413890">
        <ele>612.6</ele>
        <time>2022-07-24T16:39:27Z</time>
      </trkpt>
      <trkpt lat="46.1813910" lon="5.7413590">
        <ele>612.6</ele>
        <time>2022-07-24T16:39:31Z</time>
      </trkpt>
      <trkpt lat="46.1812720" lon="5.7412680">
        <ele>612.4</ele>
        <time>2022-07-24T16:39:54Z</time>
      </trkpt>
      <trkpt lat="46.1811830" lon="5.7413620">
        <ele>612.2</ele>
        <time>2022-07-24T16:40:01Z</time>
      </trkpt>
      <trkpt lat="46.1811700" lon="5.7413760">
        <ele>612.2</ele>
        <time>2022-07-24T16:40:02Z</time>
      </trkpt>
      <trkpt lat="46.1810780" lon="5.7414710">
        <ele>612.2</ele>
        <time>2022-07-24T16:40:09Z</time>
      </trkpt>
      <trkpt lat="46.1809850" lon="5.7415910">
        <ele>612.0</ele>
        <time>2022-07-24T16:40:16Z</time>
      </trkpt>
      <trkpt lat="46.1808810" lon="5.7417090">
        <ele>611.6</ele>
        <time>2022-07-24T16:40:24Z</time>
      </trkpt>
      <trkpt lat="46.1807880" lon="5.7418390">
        <ele>611.4</ele>
        <time>2022-07-24T16:40:32Z</time>
      </trkpt>
      <trkpt lat="46.1807390" lon="5.7419540">
        <ele>611.2</ele>
        <time>2022-07-24T16:40:38Z</time>
      </trkpt>
      <trkpt lat="46.1807300" lon="5.7419700">
        <ele>611.2</ele>
        <time>2022-07-24T16:40:39Z</time>
      </trkpt>
      <trkpt lat="46.1806300" lon="5.7421160">
        <ele>611.4</ele>
        <time>2022-07-24T16:40:48Z</time>
      </trkpt>
      <trkpt lat="46.1806020" lon="5.7421810">
        <ele>611.2</ele>
        <time>2022-07-24T16:40:53Z</time>
      </trkpt>
      <trkpt lat="46.1806010" lon="5.7421820">
        <ele>611.0</ele>
        <time>2022-07-24T16:40:54Z</time>
      </trkpt>
      <trkpt lat="46.1806150" lon="5.7425280">
        <ele>610.6</ele>
        <time>2022-07-24T16:42:30Z</time>
      </trkpt>
      <trkpt lat="46.1806020" lon="5.7424810">
        <ele>610.6</ele>
        <time>2022-07-24T16:42:31Z</time>
      </trkpt>
      <trkpt lat="46.1805340" lon="5.7421850">
        <ele>610.8</ele>
        <time>2022-07-24T16:42:37Z</time>
      </trkpt>
      <trkpt lat="46.1805590" lon="5.7420800">
        <ele>609.6</ele>
        <time>2022-07-24T16:42:41Z</time>
      </trkpt>
      <trkpt lat="46.1805590" lon="5.7420810">
        <ele>609.2</ele>
        <time>2022-07-24T16:42:42Z</time>
      </trkpt>
      <trkpt lat="46.1806130" lon="5.7420210">
        <ele>607.4</ele>
        <time>2022-07-24T16:43:07Z</time>
      </trkpt>
      <trkpt lat="46.1806350" lon="5.7419840">
        <ele>607.4</ele>
        <time>2022-07-24T16:43:09Z</time>
      </trkpt>
      <trkpt lat="46.1807330" lon="5.7418580">
        <ele>608.0</ele>
        <time>2022-07-24T16:43:17Z</time>
      </trkpt>
      <trkpt lat="46.1807910" lon="5.7417690">
        <ele>608.6</ele>
        <time>2022-07-24T16:43:22Z</time>
      </trkpt>
      <trkpt lat="46.1808570" lon="5.7416640">
        <ele>609.2</ele>
        <time>2022-07-24T16:43:28Z</time>
      </trkpt>
      <trkpt lat="46.1809500" lon="5.7414900">
        <ele>609.6</ele>
        <time>2022-07-24T16:43:35Z</time>
      </trkpt>
      <trkpt lat="46.1811030" lon="5.7412890">
        <ele>609.6</ele>
        <time>2022-07-24T16:43:44Z</time>
      </trkpt>
      <trkpt lat="46.1811980" lon="5.7411800">
        <ele>609.4</ele>
        <time>2022-07-24T16:43:52Z</time>
      </trkpt>
      <trkpt lat="46.1812050" lon="5.7411450">
        <ele>609.6</ele>
        <time>2022-07-24T16:43:57Z</time>
      </trkpt>
      <trkpt lat="46.1812680" lon="5.7411510">
        <ele>609.6</ele>
        <time>2022-07-24T16:44:19Z</time>
      </trkpt>
      <trkpt lat="46.1813660" lon="5.7411230">
        <ele>609.6</ele>
        <time>2022-07-24T16:44:25Z</time>
      </trkpt>
      <trkpt lat="46.1814340" lon="5.7411170">
        <ele>609.8</ele>
        <time>2022-07-24T16:44:32Z</time>
      </trkpt>
      <trkpt lat="46.1814360" lon="5.7411180">
        <ele>609.8</ele>
        <time>2022-07-24T16:44:33Z</time>
      </trkpt>
      <trkpt lat="46.1814990" lon="5.7411080">
        <ele>610.0</ele>
        <time>2022-07-24T16:44:54Z</time>
      </trkpt>
      <trkpt lat="46.1815240" lon="5.7411050">
        <ele>610.0</ele>
        <time>2022-07-24T16:44:56Z</time>
      </trkpt>
      <trkpt lat="46.1815270" lon="5.7411080">
        <ele>610.0</ele>
        <time>2022-07-24T16:44:58Z</time>
      </trkpt>
      <trkpt lat="46.1780850" lon="5.7386960">
        <ele>507.6</ele>
        <time>2022-07-25T06:56:52Z</time>
      </trkpt>
      <trkpt lat="46.1780830" lon="5.7386930">
        <ele>507.6</ele>
        <time>2022-07-25T06:56:53Z</time>
      </trkpt>
      <trkpt lat="46.1780470" lon="5.7382350">
        <ele>508.0</ele>
        <time>2022-07-25T07:02:54Z</time>
      </trkpt>
      <trkpt lat="46.1780620" lon="5.7381670">
        <ele>508.0</ele>
        <time>2022-07-25T07:02:57Z</time>
      </trkpt>
      <trkpt lat="46.1780650" lon="5.7380860">
        <ele>508.2</ele>
        <time>2022-07-25T07:03:00Z</time>
      </trkpt>
      <trkpt lat="46.1780820" lon="5.7379770">
        <ele>508.4</ele>
        <time>2022-07-25T07:03:04Z</time>
      </trkpt>
      <trkpt lat="46.1780870" lon="5.7378320">
        <ele>508.8</ele>
        <time>2022-07-25T07:03:09Z</time>
      </trkpt>
      <trkpt lat="46.1780850" lon="5.7377520">
        <ele>509.0</ele>
        <time>2022-07-25T07:03:12Z</time>
      </trkpt>
      <trkpt lat="46.1780770" lon="5.7376410">
        <ele>509.2</ele>
        <time>2022-07-25T07:03:16Z</time>
      </trkpt>
      <trkpt lat="46.1780560" lon="5.7374890">
        <ele>509.8</ele>
        <time>2022-07-25T07:03:22Z</time>
      </trkpt>
      <trkpt lat="46.1780530" lon="5.7374620">
        <ele>509.8</ele>
        <time>2022-07-25T07:03:23Z</time>
      </trkpt>
      <trkpt lat="46.1780430" lon="5.7373030">
        <ele>510.6</ele>
        <time>2022-07-25T07:03:29Z</time>
      </trkpt>
      <trkpt lat="46.1780310" lon="5.7372220">
        <ele>510.8</ele>
        <time>2022-07-25T07:03:32Z</time>
      </trkpt>
      <trkpt lat="46.1780290" lon="5.7371720">
        <ele>511.2</ele>
        <time>2022-07-25T07:03:34Z</time>
      </trkpt>
      <trkpt lat="46.1780270" lon="5.7369690">
        <ele>512.0</ele>
        <time>2022-07-25T07:03:41Z</time>
      </trkpt>
      <trkpt lat="46.1780350" lon="5.7366820">
        <ele>512.6</ele>
        <time>2022-07-25T07:03:48Z</time>
      </trkpt>
      <trkpt lat="46.1780220" lon="5.7363320">
        <ele>512.6</ele>
        <time>2022-07-25T07:03:54Z</time>
      </trkpt>
      <trkpt lat="46.1779870" lon="5.7362040">
        <ele>512.6</ele>
        <time>2022-07-25T07:03:56Z</time>
      </trkpt>
      <trkpt lat="46.1779100" lon="5.7360070">
        <ele>512.2</ele>
        <time>2022-07-25T07:03:59Z</time>
      </trkpt>
      <trkpt lat="46.1778820" lon="5.7359440">
        <ele>512.0</ele>
        <time>2022-07-25T07:04:00Z</time>
      </trkpt>
      <trkpt lat="46.1778560" lon="5.7358790">
        <ele>512.0</ele>
        <time>2022-07-25T07:04:01Z</time>
      </trkpt>
      <trkpt lat="46.1777740" lon="5.7356920">
        <ele>511.2</ele>
        <time>2022-07-25T07:04:04Z</time>
      </trkpt>
      <trkpt lat="46.1777430" lon="5.7356340">
        <ele>510.8</ele>
        <time>2022-07-25T07:04:05Z</time>
      </trkpt>
      <trkpt lat="46.1775800" lon="5.7353650">
        <ele>510.0</ele>
        <time>2022-07-25T07:04:10Z</time>
      </trkpt>
      <trkpt lat="46.1775480" lon="5.7353180">
        <ele>510.0</ele>
        <time>2022-07-25T07:04:11Z</time>
      </trkpt>
      <trkpt lat="46.1774490" lon="5.7351700">
        <ele>509.6</ele>
        <time>2022-07-25T07:04:14Z</time>
      </trkpt>
      <trkpt lat="46.1773830" lon="5.7350630">
        <ele>509.6</ele>
        <time>2022-07-25T07:04:16Z</time>
      </trkpt>
      <trkpt lat="46.1772050" lon="5.7347730">
        <ele>509.4</ele>
        <time>2022-07-25T07:04:21Z</time>
      </trkpt>
      <trkpt lat="46.1769410" lon="5.7343590">
        <ele>509.0</ele>
        <time>2022-07-25T07:04:27Z</time>
      </trkpt>
      <trkpt lat="46.1767810" lon="5.7341390">
        <ele>508.4</ele>
        <time>2022-07-25T07:04:30Z</time>
      </trkpt>
      <trkpt lat="46.1766100" lon="5.7339420">
        <ele>507.6</ele>
        <time>2022-07-25T07:04:33Z</time>
      </trkpt>
      <trkpt lat="46.1765650" lon="5.7338920">
        <ele>507.0</ele>
        <time>2022-07-25T07:04:34Z</time>
      </trkpt>
      <trkpt lat="46.1764080" lon="5.7337520">
        <ele>506.0</ele>
        <time>2022-07-25T07:04:38Z</time>
      </trkpt>
      <trkpt lat="46.1763740" lon="5.7337320">
        <ele>505.8</ele>
        <time>2022-07-25T07:04:39Z</time>
      </trkpt>
      <trkpt lat="46.1762550" lon="5.7336090">
        <ele>505.0</ele>
        <time>2022-07-25T07:04:43Z</time>
      </trkpt>
      <trkpt lat="46.1762270" lon="5.7335600">
        <ele>504.6</ele>
        <time>2022-07-25T07:04:44Z</time>
      </trkpt>
      <trkpt lat="46.1760690" lon="5.7332670">
        <ele>504.4</ele>
        <time>2022-07-25T07:04:49Z</time>
      </trkpt>
      <trkpt lat="46.1759170" lon="5.7329900">
        <ele>503.8</ele>
        <time>2022-07-25T07:04:53Z</time>
      </trkpt>
      <trkpt lat="46.1758240" lon="5.7328670">
        <ele>503.6</ele>
        <time>2022-07-25T07:04:55Z</time>
      </trkpt>
      <trkpt lat="46.1755770" lon="5.7326100">
        <ele>502.4</ele>
        <time>2022-07-25T07:05:00Z</time>
      </trkpt>
      <trkpt lat="46.1754800" lon="5.7325170">
        <ele>502.2</ele>
        <time>2022-07-25T07:05:02Z</time>
      </trkpt>
      <trkpt lat="46.1752640" lon="5.7322850">
        <ele>501.6</ele>
        <time>2022-07-25T07:05:07Z</time>
      </trkpt>
      <trkpt lat="46.1751880" lon="5.7321860">
        <ele>501.4</ele>
        <time>2022-07-25T07:05:09Z</time>
      </trkpt>
      <trkpt lat="46.1750060" lon="5.7319530">
        <ele>500.8</ele>
        <time>2022-07-25T07:05:14Z</time>
      </trkpt>
      <trkpt lat="46.1749370" lon="5.7318640">
        <ele>500.8</ele>
        <time>2022-07-25T07:05:16Z</time>
      </trkpt>
      <trkpt lat="46.1747450" lon="5.7315940">
        <ele>500.8</ele>
        <time>2022-07-25T07:05:22Z</time>
      </trkpt>
      <trkpt lat="46.1745590" lon="5.7313320">
        <ele>501.4</ele>
        <time>2022-07-25T07:05:28Z</time>
      </trkpt>
      <trkpt lat="46.1743490" lon="5.7310430">
        <ele>502.0</ele>
        <time>2022-07-25T07:05:35Z</time>
      </trkpt>
      <trkpt lat="46.1743230" lon="5.7310010">
        <ele>502.2</ele>
        <time>2022-07-25T07:05:36Z</time>
      </trkpt>
      <trkpt lat="46.1742940" lon="5.7309600">
        <ele>502.2</ele>
        <time>2022-07-25T07:05:37Z</time>
      </trkpt>
      <trkpt lat="46.1741880" lon="5.7308620">
        <ele>502.2</ele>
        <time>2022-07-25T07:05:40Z</time>
      </trkpt>
      <trkpt lat="46.1740390" lon="5.7306740">
        <ele>502.4</ele>
        <time>2022-07-25T07:05:45Z</time>
      </trkpt>
      <trkpt lat="46.1738790" lon="5.7304290">
        <ele>503.0</ele>
        <time>2022-07-25T07:05:52Z</time>
      </trkpt>
      <trkpt lat="46.1738590" lon="5.7303980">
        <ele>503.2</ele>
        <time>2022-07-25T07:05:53Z</time>
      </trkpt>
      <trkpt lat="46.1737190" lon="5.7301960">
        <ele>503.8</ele>
        <time>2022-07-25T07:05:59Z</time>
      </trkpt>
      <trkpt lat="46.1736680" lon="5.7301120">
        <ele>504.2</ele>
        <time>2022-07-25T07:06:01Z</time>
      </trkpt>
      <trkpt lat="46.1735420" lon="5.7299440">
        <ele>505.0</ele>
        <time>2022-07-25T07:06:06Z</time>
      </trkpt>
      <trkpt lat="46.1734950" lon="5.7298710">
        <ele>505.0</ele>
        <time>2022-07-25T07:06:08Z</time>
      </trkpt>
      <trkpt lat="46.1733830" lon="5.7297080">
        <ele>505.4</ele>
        <time>2022-07-25T07:06:13Z</time>
      </trkpt>
      <trkpt lat="46.1732510" lon="5.7295270">
        <ele>505.6</ele>
        <time>2022-07-25T07:06:18Z</time>
      </trkpt>
      <trkpt lat="46.1732250" lon="5.7294910">
        <ele>505.8</ele>
        <time>2022-07-25T07:06:19Z</time>
      </trkpt>
      <trkpt lat="46.1731370" lon="5.7293430">
        <ele>506.0</ele>
        <time>2022-07-25T07:06:23Z</time>
      </trkpt>
      <trkpt lat="46.1730960" lon="5.7292800">
        <ele>506.2</ele>
        <time>2022-07-25T07:06:25Z</time>
      </trkpt>
      <trkpt lat="46.1729810" lon="5.7291410">
        <ele>506.6</ele>
        <time>2022-07-25T07:06:31Z</time>
      </trkpt>
      <trkpt lat="46.1729240" lon="5.7291350">
        <ele>506.6</ele>
        <time>2022-07-25T07:06:33Z</time>
      </trkpt>
      <trkpt lat="46.1728750" lon="5.7291860">
        <ele>506.8</ele>
        <time>2022-07-25T07:06:35Z</time>
      </trkpt>
      <trkpt lat="46.1728060" lon="5.7293650">
        <ele>506.8</ele>
        <time>2022-07-25T07:06:39Z</time>
      </trkpt>
      <trkpt lat="46.1727910" lon="5.7294110">
        <ele>506.8</ele>
        <time>2022-07-25T07:06:40Z</time>
      </trkpt>
      <trkpt lat="46.1726780" lon="5.7295410">
        <ele>506.8</ele>
        <time>2022-07-25T07:06:44Z</time>
      </trkpt>
      <trkpt lat="46.1725390" lon="5.7295220">
        <ele>506.8</ele>
        <time>2022-07-25T07:06:48Z</time>
      </trkpt>
      <trkpt lat="46.1724080" lon="5.7294370">
        <ele>506.8</ele>
        <time>2022-07-25T07:06:54Z</time>
      </trkpt>
      <trkpt lat="46.1723900" lon="5.7294190">
        <ele>507.0</ele>
        <time>2022-07-25T07:06:55Z</time>
      </trkpt>
      <trkpt lat="46.1723060" lon="5.7293390">
        <ele>507.8</ele>
        <time>2022-07-25T07:07:00Z</time>
      </trkpt>
      <trkpt lat="46.1722890" lon="5.7293240">
        <ele>508.0</ele>
        <time>2022-07-25T07:07:01Z</time>
      </trkpt>
      <trkpt lat="46.1722000" lon="5.7292660">
        <ele>508.8</ele>
        <time>2022-07-25T07:07:06Z</time>
      </trkpt>
      <trkpt lat="46.1721650" lon="5.7292450">
        <ele>509.2</ele>
        <time>2022-07-25T07:07:08Z</time>
      </trkpt>
      <trkpt lat="46.1720890" lon="5.7292000">
        <ele>510.0</ele>
        <time>2022-07-25T07:07:12Z</time>
      </trkpt>
      <trkpt lat="46.1720500" lon="5.7291840">
        <ele>510.2</ele>
        <time>2022-07-25T07:07:14Z</time>
      </trkpt>
      <trkpt lat="46.1719340" lon="5.7291380">
        <ele>511.2</ele>
        <time>2022-07-25T07:07:19Z</time>
      </trkpt>
      <trkpt lat="46.1718910" lon="5.7291200">
        <ele>511.4</ele>
        <time>2022-07-25T07:07:21Z</time>
      </trkpt>
      <trkpt lat="46.1717830" lon="5.7290750">
        <ele>512.2</ele>
        <time>2022-07-25T07:07:26Z</time>
      </trkpt>
      <trkpt lat="46.1717440" lon="5.7290560">
        <ele>512.6</ele>
        <time>2022-07-25T07:07:28Z</time>
      </trkpt>
      <trkpt lat="46.1716670" lon="5.7290040">
        <ele>513.2</ele>
        <time>2022-07-25T07:07:32Z</time>
      </trkpt>
      <trkpt lat="46.1716410" lon="5.7289790">
        <ele>513.4</ele>
        <time>2022-07-25T07:07:34Z</time>
      </trkpt>
      <trkpt lat="46.1715640" lon="5.7288990">
        <ele>514.2</ele>
        <time>2022-07-25T07:07:39Z</time>
      </trkpt>
      <trkpt lat="46.1715470" lon="5.7288810">
        <ele>514.4</ele>
        <time>2022-07-25T07:07:40Z</time>
      </trkpt>
      <trkpt lat="46.1714700" lon="5.7287610">
        <ele>515.0</ele>
        <time>2022-07-25T07:07:46Z</time>
      </trkpt>
      <trkpt lat="46.1714580" lon="5.7287420">
        <ele>515.0</ele>
        <time>2022-07-25T07:07:47Z</time>
      </trkpt>
      <trkpt lat="46.1714120" lon="5.7286230">
        <ele>515.8</ele>
        <time>2022-07-25T07:07:52Z</time>
      </trkpt>
      <trkpt lat="46.1713760" lon="5.7285260">
        <ele>516.2</ele>
        <time>2022-07-25T07:07:55Z</time>
      </trkpt>
      <trkpt lat="46.1713610" lon="5.7284620">
        <ele>516.4</ele>
        <time>2022-07-25T07:07:57Z</time>
      </trkpt>
      <trkpt lat="46.1713380" lon="5.7283420">
        <ele>517.4</ele>
        <time>2022-07-25T07:08:01Z</time>
      </trkpt>
      <trkpt lat="46.1713280" lon="5.7282800">
        <ele>517.8</ele>
        <time>2022-07-25T07:08:03Z</time>
      </trkpt>
      <trkpt lat="46.1712880" lon="5.7281500">
        <ele>518.6</ele>
        <time>2022-07-25T07:08:08Z</time>
      </trkpt>
      <trkpt lat="46.1712690" lon="5.7280950">
        <ele>519.0</ele>
        <time>2022-07-25T07:08:10Z</time>
      </trkpt>
      <trkpt lat="46.1712410" lon="5.7280130">
        <ele>519.6</ele>
        <time>2022-07-25T07:08:13Z</time>
      </trkpt>
      <trkpt lat="46.1712180" lon="5.7279660">
        <ele>520.0</ele>
        <time>2022-07-25T07:08:15Z</time>
      </trkpt>
      <trkpt lat="46.1711610" lon="5.7278510">
        <ele>520.6</ele>
        <time>2022-07-25T07:08:20Z</time>
      </trkpt>
      <trkpt lat="46.1711310" lon="5.7278170">
        <ele>520.8</ele>
        <time>2022-07-25T07:08:22Z</time>
      </trkpt>
      <trkpt lat="46.1710470" lon="5.7277210">
        <ele>521.6</ele>
        <time>2022-07-25T07:08:27Z</time>
      </trkpt>
      <trkpt lat="46.1709610" lon="5.7276140">
        <ele>522.4</ele>
        <time>2022-07-25T07:08:32Z</time>
      </trkpt>
      <trkpt lat="46.1709420" lon="5.7275950">
        <ele>522.6</ele>
        <time>2022-07-25T07:08:33Z</time>
      </trkpt>
      <trkpt lat="46.1708280" lon="5.7275060">
        <ele>523.2</ele>
        <time>2022-07-25T07:08:38Z</time>
      </trkpt>
      <trkpt lat="46.1707680" lon="5.7274590">
        <ele>523.6</ele>
        <time>2022-07-25T07:08:41Z</time>
      </trkpt>
      <trkpt lat="46.1706630" lon="5.7273740">
        <ele>524.2</ele>
        <time>2022-07-25T07:08:46Z</time>
      </trkpt>
      <trkpt lat="46.1706030" lon="5.7273210">
        <ele>524.8</ele>
        <time>2022-07-25T07:08:49Z</time>
      </trkpt>
      <trkpt lat="46.1704630" lon="5.7272000">
        <ele>525.6</ele>
        <time>2022-07-25T07:08:56Z</time>
      </trkpt>
      <trkpt lat="46.1704400" lon="5.7271820">
        <ele>525.8</ele>
        <time>2022-07-25T07:08:57Z</time>
      </trkpt>
      <trkpt lat="46.1703530" lon="5.7270760">
        <ele>526.6</ele>
        <time>2022-07-25T07:09:02Z</time>
      </trkpt>
      <trkpt lat="46.1703380" lon="5.7270530">
        <ele>526.8</ele>
        <time>2022-07-25T07:09:03Z</time>
      </trkpt>
      <trkpt lat="46.1702480" lon="5.7269260">
        <ele>527.6</ele>
        <time>2022-07-25T07:09:09Z</time>
      </trkpt>
      <trkpt lat="46.1702360" lon="5.7269060">
        <ele>528.0</ele>
        <time>2022-07-25T07:09:10Z</time>
      </trkpt>
      <trkpt lat="46.1701440" lon="5.7268130">
        <ele>529.0</ele>
        <time>2022-07-25T07:09:16Z</time>
      </trkpt>
      <trkpt lat="46.1700260" lon="5.7268150">
        <ele>529.8</ele>
        <time>2022-07-25T07:09:22Z</time>
      </trkpt>
      <trkpt lat="46.1700060" lon="5.7268310">
        <ele>530.0</ele>
        <time>2022-07-25T07:09:23Z</time>
      </trkpt>
      <trkpt lat="46.1699350" lon="5.7269560">
        <ele>531.0</ele>
        <time>2022-07-25T07:09:28Z</time>
      </trkpt>
      <trkpt lat="46.1699260" lon="5.7269870">
        <ele>531.2</ele>
        <time>2022-07-25T07:09:29Z</time>
      </trkpt>
      <trkpt lat="46.1699270" lon="5.7271810">
        <ele>532.0</ele>
        <time>2022-07-25T07:09:35Z</time>
      </trkpt>
      <trkpt lat="46.1699920" lon="5.7273750">
        <ele>533.0</ele>
        <time>2022-07-25T07:09:41Z</time>
      </trkpt>
      <trkpt lat="46.1700040" lon="5.7274050">
        <ele>533.2</ele>
        <time>2022-07-25T07:09:42Z</time>
      </trkpt>
      <trkpt lat="46.1700830" lon="5.7275770">
        <ele>534.2</ele>
        <time>2022-07-25T07:09:48Z</time>
      </trkpt>
      <trkpt lat="46.1700970" lon="5.7276050">
        <ele>534.2</ele>
        <time>2022-07-25T07:09:49Z</time>
      </trkpt>
      <trkpt lat="46.1701610" lon="5.7278250">
        <ele>535.4</ele>
        <time>2022-07-25T07:09:56Z</time>
      </trkpt>
      <trkpt lat="46.1701710" lon="5.7278550">
        <ele>535.6</ele>
        <time>2022-07-25T07:09:57Z</time>
      </trkpt>
      <trkpt lat="46.1702260" lon="5.7280770">
        <ele>536.6</ele>
        <time>2022-07-25T07:10:04Z</time>
      </trkpt>
      <trkpt lat="46.1702430" lon="5.7281430">
        <ele>537.0</ele>
        <time>2022-07-25T07:10:06Z</time>
      </trkpt>
      <trkpt lat="46.1702710" lon="5.7282680">
        <ele>537.6</ele>
        <time>2022-07-25T07:10:10Z</time>
      </trkpt>
      <trkpt lat="46.1702880" lon="5.7283250">
        <ele>538.2</ele>
        <time>2022-07-25T07:10:12Z</time>
      </trkpt>
      <trkpt lat="46.1703220" lon="5.7284550">
        <ele>538.8</ele>
        <time>2022-07-25T07:10:16Z</time>
      </trkpt>
      <trkpt lat="46.1703310" lon="5.7285160">
        <ele>539.2</ele>
        <time>2022-07-25T07:10:18Z</time>
      </trkpt>
      <trkpt lat="46.1703560" lon="5.7286600">
        <ele>539.8</ele>
        <time>2022-07-25T07:10:23Z</time>
      </trkpt>
      <trkpt lat="46.1703810" lon="5.7287460">
        <ele>540.6</ele>
        <time>2022-07-25T07:10:26Z</time>
      </trkpt>
      <trkpt lat="46.1703900" lon="5.7287760">
        <ele>540.8</ele>
        <time>2022-07-25T07:10:27Z</time>
      </trkpt>
      <trkpt lat="46.1704530" lon="5.7290270">
        <ele>542.0</ele>
        <time>2022-07-25T07:10:35Z</time>
      </trkpt>
      <trkpt lat="46.1705300" lon="5.7292370">
        <ele>543.0</ele>
        <time>2022-07-25T07:10:42Z</time>
      </trkpt>
      <trkpt lat="46.1705450" lon="5.7292640">
        <ele>543.0</ele>
        <time>2022-07-25T07:10:43Z</time>
      </trkpt>
      <trkpt lat="46.1706020" lon="5.7294080">
        <ele>543.8</ele>
        <time>2022-07-25T07:10:48Z</time>
      </trkpt>
      <trkpt lat="46.1706210" lon="5.7294700">
        <ele>544.2</ele>
        <time>2022-07-25T07:10:50Z</time>
      </trkpt>
      <trkpt lat="46.1706550" lon="5.7295860">
        <ele>544.4</ele>
        <time>2022-07-25T07:10:54Z</time>
      </trkpt>
      <trkpt lat="46.1706870" lon="5.7296950">
        <ele>545.2</ele>
        <time>2022-07-25T07:10:58Z</time>
      </trkpt>
      <trkpt lat="46.1707070" lon="5.7297470">
        <ele>545.6</ele>
        <time>2022-07-25T07:11:00Z</time>
      </trkpt>
      <trkpt lat="46.1707470" lon="5.7298880">
        <ele>546.2</ele>
        <time>2022-07-25T07:11:05Z</time>
      </trkpt>
      <trkpt lat="46.1707530" lon="5.7299150">
        <ele>546.4</ele>
        <time>2022-07-25T07:11:06Z</time>
      </trkpt>
      <trkpt lat="46.1708100" lon="5.7300490">
        <ele>547.2</ele>
        <time>2022-07-25T07:11:11Z</time>
      </trkpt>
      <trkpt lat="46.1708640" lon="5.7301810">
        <ele>548.0</ele>
        <time>2022-07-25T07:11:16Z</time>
      </trkpt>
      <trkpt lat="46.1708820" lon="5.7302320">
        <ele>548.2</ele>
        <time>2022-07-25T07:11:18Z</time>
      </trkpt>
      <trkpt lat="46.1709020" lon="5.7302590">
        <ele>548.4</ele>
        <time>2022-07-25T07:11:19Z</time>
      </trkpt>
      <trkpt lat="46.1709370" lon="5.7303050">
        <ele>548.8</ele>
        <time>2022-07-25T07:11:21Z</time>
      </trkpt>
      <trkpt lat="46.1709750" lon="5.7303390">
        <ele>549.0</ele>
        <time>2022-07-25T07:11:23Z</time>
      </trkpt>
      <trkpt lat="46.1710140" lon="5.7303820">
        <ele>549.6</ele>
        <time>2022-07-25T07:11:25Z</time>
      </trkpt>
      <trkpt lat="46.1710450" lon="5.7304230">
        <ele>549.8</ele>
        <time>2022-07-25T07:11:27Z</time>
      </trkpt>
      <trkpt lat="46.1710630" lon="5.7304420">
        <ele>550.0</ele>
        <time>2022-07-25T07:11:28Z</time>
      </trkpt>
      <trkpt lat="46.1711230" lon="5.7305450">
        <ele>550.4</ele>
        <time>2022-07-25T07:11:32Z</time>
      </trkpt>
      <trkpt lat="46.1711380" lon="5.7305710">
        <ele>550.6</ele>
        <time>2022-07-25T07:11:33Z</time>
      </trkpt>
      <trkpt lat="46.1711790" lon="5.7306860">
        <ele>551.2</ele>
        <time>2022-07-25T07:11:37Z</time>
      </trkpt>
      <trkpt lat="46.1712070" lon="5.7307730">
        <ele>551.8</ele>
        <time>2022-07-25T07:11:40Z</time>
      </trkpt>
      <trkpt lat="46.1712110" lon="5.7308770">
        <ele>552.0</ele>
        <time>2022-07-25T07:11:43Z</time>
      </trkpt>
      <trkpt lat="46.1712420" lon="5.7309740">
        <ele>552.6</ele>
        <time>2022-07-25T07:11:46Z</time>
      </trkpt>
      <trkpt lat="46.1712820" lon="5.7310610">
        <ele>553.2</ele>
        <time>2022-07-25T07:11:49Z</time>
      </trkpt>
      <trkpt lat="46.1713070" lon="5.7311160">
        <ele>553.6</ele>
        <time>2022-07-25T07:11:51Z</time>
      </trkpt>
      <trkpt lat="46.1713820" lon="5.7312400">
        <ele>554.2</ele>
        <time>2022-07-25T07:11:56Z</time>
      </trkpt>
      <trkpt lat="46.1714660" lon="5.7313350">
        <ele>554.8</ele>
        <time>2022-07-25T07:12:00Z</time>
      </trkpt>
      <trkpt lat="46.1714810" lon="5.7313550">
        <ele>555.0</ele>
        <time>2022-07-25T07:12:01Z</time>
      </trkpt>
      <trkpt lat="46.1715130" lon="5.7314000">
        <ele>555.2</ele>
        <time>2022-07-25T07:12:03Z</time>
      </trkpt>
      <trkpt lat="46.1715360" lon="5.7314540">
        <ele>555.6</ele>
        <time>2022-07-25T07:12:05Z</time>
      </trkpt>
      <trkpt lat="46.1715550" lon="5.7315080">
        <ele>555.8</ele>
        <time>2022-07-25T07:12:07Z</time>
      </trkpt>
      <trkpt lat="46.1715800" lon="5.7315970">
        <ele>556.2</ele>
        <time>2022-07-25T07:12:10Z</time>
      </trkpt>
      <trkpt lat="46.1716030" lon="5.7316750">
        <ele>557.0</ele>
        <time>2022-07-25T07:12:13Z</time>
      </trkpt>
      <trkpt lat="46.1716180" lon="5.7317310">
        <ele>557.2</ele>
        <time>2022-07-25T07:12:15Z</time>
      </trkpt>
      <trkpt lat="46.1716450" lon="5.7318220">
        <ele>557.8</ele>
        <time>2022-07-25T07:12:18Z</time>
      </trkpt>
      <trkpt lat="46.1716660" lon="5.7318850">
        <ele>558.4</ele>
        <time>2022-07-25T07:12:20Z</time>
      </trkpt>
      <trkpt lat="46.1717020" lon="5.7319730">
        <ele>558.8</ele>
        <time>2022-07-25T07:12:23Z</time>
      </trkpt>
      <trkpt lat="46.1717450" lon="5.7320860">
        <ele>559.8</ele>
        <time>2022-07-25T07:12:27Z</time>
      </trkpt>
      <trkpt lat="46.1717640" lon="5.7321460">
        <ele>560.0</ele>
        <time>2022-07-25T07:12:29Z</time>
      </trkpt>
      <trkpt lat="46.1718310" lon="5.7322860">
        <ele>561.0</ele>
        <time>2022-07-25T07:12:34Z</time>
      </trkpt>
      <trkpt lat="46.1719080" lon="5.7324500">
        <ele>562.0</ele>
        <time>2022-07-25T07:12:40Z</time>
      </trkpt>
      <trkpt lat="46.1719120" lon="5.7324820">
        <ele>562.0</ele>
        <time>2022-07-25T07:12:41Z</time>
      </trkpt>
      <trkpt lat="46.1719900" lon="5.7326520">
        <ele>563.0</ele>
        <time>2022-07-25T07:12:47Z</time>
      </trkpt>
      <trkpt lat="46.1720740" lon="5.7327880">
        <ele>564.2</ele>
        <time>2022-07-25T07:12:53Z</time>
      </trkpt>
      <trkpt lat="46.1721790" lon="5.7329590">
        <ele>565.2</ele>
        <time>2022-07-25T07:13:00Z</time>
      </trkpt>
      <trkpt lat="46.1722690" lon="5.7331200">
        <ele>566.4</ele>
        <time>2022-07-25T07:13:06Z</time>
      </trkpt>
      <trkpt lat="46.1722770" lon="5.7331450">
        <ele>566.6</ele>
        <time>2022-07-25T07:13:07Z</time>
      </trkpt>
      <trkpt lat="46.1723400" lon="5.7333120">
        <ele>567.6</ele>
        <time>2022-07-25T07:13:13Z</time>
      </trkpt>
      <trkpt lat="46.1724080" lon="5.7335000">
        <ele>568.4</ele>
        <time>2022-07-25T07:13:19Z</time>
      </trkpt>
      <trkpt lat="46.1724830" lon="5.7336410">
        <ele>569.4</ele>
        <time>2022-07-25T07:13:24Z</time>
      </trkpt>
      <trkpt lat="46.1725070" lon="5.7336690">
        <ele>569.6</ele>
        <time>2022-07-25T07:13:25Z</time>
      </trkpt>
      <trkpt lat="46.1725800" lon="5.7337900">
        <ele>570.4</ele>
        <time>2022-07-25T07:13:30Z</time>
      </trkpt>
      <trkpt lat="46.1725950" lon="5.7338150">
        <ele>570.6</ele>
        <time>2022-07-25T07:13:31Z</time>
      </trkpt>
      <trkpt lat="46.1726760" lon="5.7339770">
        <ele>571.6</ele>
        <time>2022-07-25T07:13:37Z</time>
      </trkpt>
      <trkpt lat="46.1726910" lon="5.7340030">
        <ele>571.6</ele>
        <time>2022-07-25T07:13:38Z</time>
      </trkpt>
      <trkpt lat="46.1727510" lon="5.7341430">
        <ele>572.6</ele>
        <time>2022-07-25T07:13:43Z</time>
      </trkpt>
      <trkpt lat="46.1727640" lon="5.7341710">
        <ele>572.6</ele>
        <time>2022-07-25T07:13:44Z</time>
      </trkpt>
      <trkpt lat="46.1728100" lon="5.7343220">
        <ele>573.2</ele>
        <time>2022-07-25T07:13:49Z</time>
      </trkpt>
      <trkpt lat="46.1728250" lon="5.7343820">
        <ele>573.6</ele>
        <time>2022-07-25T07:13:51Z</time>
      </trkpt>
      <trkpt lat="46.1728640" lon="5.7345690">
        <ele>574.4</ele>
        <time>2022-07-25T07:13:57Z</time>
      </trkpt>
      <trkpt lat="46.1728720" lon="5.7346010">
        <ele>574.6</ele>
        <time>2022-07-25T07:13:58Z</time>
      </trkpt>
      <trkpt lat="46.1729240" lon="5.7347500">
        <ele>575.4</ele>
        <time>2022-07-25T07:14:03Z</time>
      </trkpt>
      <trkpt lat="46.1729300" lon="5.7347830">
        <ele>575.8</ele>
        <time>2022-07-25T07:14:04Z</time>
      </trkpt>
      <trkpt lat="46.1729730" lon="5.7349360">
        <ele>576.6</ele>
        <time>2022-07-25T07:14:09Z</time>
      </trkpt>
      <trkpt lat="46.1729890" lon="5.7349970">
        <ele>576.8</ele>
        <time>2022-07-25T07:14:11Z</time>
      </trkpt>
      <trkpt lat="46.1730290" lon="5.7351370">
        <ele>577.6</ele>
        <time>2022-07-25T07:14:16Z</time>
      </trkpt>
      <trkpt lat="46.1730660" lon="5.7352170">
        <ele>578.0</ele>
        <time>2022-07-25T07:14:19Z</time>
      </trkpt>
      <trkpt lat="46.1731180" lon="5.7353320">
        <ele>578.8</ele>
        <time>2022-07-25T07:14:23Z</time>
      </trkpt>
      <trkpt lat="46.1731600" lon="5.7354200">
        <ele>579.0</ele>
        <time>2022-07-25T07:14:26Z</time>
      </trkpt>
      <trkpt lat="46.1731820" lon="5.7354840">
        <ele>579.6</ele>
        <time>2022-07-25T07:14:28Z</time>
      </trkpt>
      <trkpt lat="46.1732360" lon="5.7355940">
        <ele>580.0</ele>
        <time>2022-07-25T07:14:32Z</time>
      </trkpt>
      <trkpt lat="46.1732640" lon="5.7356520">
        <ele>580.4</ele>
        <time>2022-07-25T07:14:34Z</time>
      </trkpt>
      <trkpt lat="46.1733240" lon="5.7357590">
        <ele>581.0</ele>
        <time>2022-07-25T07:14:38Z</time>
      </trkpt>
      <trkpt lat="46.1733590" lon="5.7358060">
        <ele>581.4</ele>
        <time>2022-07-25T07:14:40Z</time>
      </trkpt>
      <trkpt lat="46.1734350" lon="5.7358940">
        <ele>582.2</ele>
        <time>2022-07-25T07:14:44Z</time>
      </trkpt>
      <trkpt lat="46.1734950" lon="5.7359480">
        <ele>582.6</ele>
        <time>2022-07-25T07:14:47Z</time>
      </trkpt>
      <trkpt lat="46.1735550" lon="5.7360040">
        <ele>583.2</ele>
        <time>2022-07-25T07:14:50Z</time>
      </trkpt>
      <trkpt lat="46.1736210" lon="5.7360860">
        <ele>583.6</ele>
        <time>2022-07-25T07:14:54Z</time>
      </trkpt>
      <trkpt lat="46.1737030" lon="5.7361910">
        <ele>584.4</ele>
        <time>2022-07-25T07:14:59Z</time>
      </trkpt>
      <trkpt lat="46.1737330" lon="5.7362420">
        <ele>584.6</ele>
        <time>2022-07-25T07:15:01Z</time>
      </trkpt>
      <trkpt lat="46.1737930" lon="5.7363780">
        <ele>585.2</ele>
        <time>2022-07-25T07:15:06Z</time>
      </trkpt>
      <trkpt lat="46.1738110" lon="5.7364330">
        <ele>585.4</ele>
        <time>2022-07-25T07:15:08Z</time>
      </trkpt>
      <trkpt lat="46.1738550" lon="5.7365780">
        <ele>586.4</ele>
        <time>2022-07-25T07:15:13Z</time>
      </trkpt>
      <trkpt lat="46.1738720" lon="5.7366370">
        <ele>587.0</ele>
        <time>2022-07-25T07:15:15Z</time>
      </trkpt>
      <trkpt lat="46.1739080" lon="5.7367560">
        <ele>587.6</ele>
        <time>2022-07-25T07:15:19Z</time>
      </trkpt>
      <trkpt lat="46.1739250" lon="5.7368480">
        <ele>588.2</ele>
        <time>2022-07-25T07:15:22Z</time>
      </trkpt>
      <trkpt lat="46.1739230" lon="5.7369840">
        <ele>588.8</ele>
        <time>2022-07-25T07:15:26Z</time>
      </trkpt>
      <trkpt lat="46.1739090" lon="5.7370530">
        <ele>589.0</ele>
        <time>2022-07-25T07:15:28Z</time>
      </trkpt>
      <trkpt lat="46.1738330" lon="5.7371740">
        <ele>589.6</ele>
        <time>2022-07-25T07:15:33Z</time>
      </trkpt>
      <trkpt lat="46.1737960" lon="5.7371860">
        <ele>589.8</ele>
        <time>2022-07-25T07:15:35Z</time>
      </trkpt>
      <trkpt lat="46.1737290" lon="5.7371640">
        <ele>590.4</ele>
        <time>2022-07-25T07:15:38Z</time>
      </trkpt>
      <trkpt lat="46.1736560" lon="5.7370830">
        <ele>591.0</ele>
        <time>2022-07-25T07:15:42Z</time>
      </trkpt>
      <trkpt lat="46.1736420" lon="5.7370570">
        <ele>591.2</ele>
        <time>2022-07-25T07:15:43Z</time>
      </trkpt>
      <trkpt lat="46.1735950" lon="5.7369400">
        <ele>592.0</ele>
        <time>2022-07-25T07:15:47Z</time>
      </trkpt>
      <trkpt lat="46.1735650" lon="5.7368590">
        <ele>592.8</ele>
        <time>2022-07-25T07:15:50Z</time>
      </trkpt>
      <trkpt lat="46.1735420" lon="5.7368040">
        <ele>593.2</ele>
        <time>2022-07-25T07:15:52Z</time>
      </trkpt>
      <trkpt lat="46.1734580" lon="5.7367010">
        <ele>593.6</ele>
        <time>2022-07-25T07:15:57Z</time>
      </trkpt>
      <trkpt lat="46.1733910" lon="5.7366370">
        <ele>594.2</ele>
        <time>2022-07-25T07:16:00Z</time>
      </trkpt>
      <trkpt lat="46.1733070" lon="5.7365770">
        <ele>594.6</ele>
        <time>2022-07-25T07:16:04Z</time>
      </trkpt>
      <trkpt lat="46.1732680" lon="5.7365440">
        <ele>595.0</ele>
        <time>2022-07-25T07:16:06Z</time>
      </trkpt>
      <trkpt lat="46.1732230" lon="5.7365150">
        <ele>595.4</ele>
        <time>2022-07-25T07:16:08Z</time>
      </trkpt>
      <trkpt lat="46.1731810" lon="5.7364920">
        <ele>595.8</ele>
        <time>2022-07-25T07:16:10Z</time>
      </trkpt>
      <trkpt lat="46.1731020" lon="5.7364470">
        <ele>596.2</ele>
        <time>2022-07-25T07:16:14Z</time>
      </trkpt>
      <trkpt lat="46.1730400" lon="5.7364140">
        <ele>596.6</ele>
        <time>2022-07-25T07:16:17Z</time>
      </trkpt>
      <trkpt lat="46.1729760" lon="5.7363700">
        <ele>597.2</ele>
        <time>2022-07-25T07:16:20Z</time>
      </trkpt>
      <trkpt lat="46.1729080" lon="5.7363380">
        <ele>597.8</ele>
        <time>2022-07-25T07:16:23Z</time>
      </trkpt>
      <trkpt lat="46.1728070" lon="5.7363080">
        <ele>598.2</ele>
        <time>2022-07-25T07:16:27Z</time>
      </trkpt>
      <trkpt lat="46.1727150" lon="5.7362760">
        <ele>598.8</ele>
        <time>2022-07-25T07:16:30Z</time>
      </trkpt>
      <trkpt lat="46.1725770" lon="5.7362140">
        <ele>599.4</ele>
        <time>2022-07-25T07:16:35Z</time>
      </trkpt>
      <trkpt lat="46.1724960" lon="5.7361590">
        <ele>599.8</ele>
        <time>2022-07-25T07:16:38Z</time>
      </trkpt>
      <trkpt lat="46.1723870" lon="5.7360630">
        <ele>600.4</ele>
        <time>2022-07-25T07:16:43Z</time>
      </trkpt>
      <trkpt lat="46.1723560" lon="5.7360180">
        <ele>600.8</ele>
        <time>2022-07-25T07:16:45Z</time>
      </trkpt>
      <trkpt lat="46.1723290" lon="5.7359660">
        <ele>601.2</ele>
        <time>2022-07-25T07:16:47Z</time>
      </trkpt>
      <trkpt lat="46.1722610" lon="5.7358620">
        <ele>602.4</ele>
        <time>2022-07-25T07:16:52Z</time>
      </trkpt>
      <trkpt lat="46.1722510" lon="5.7358390">
        <ele>602.6</ele>
        <time>2022-07-25T07:16:53Z</time>
      </trkpt>
      <trkpt lat="46.1721820" lon="5.7357110">
        <ele>603.4</ele>
        <time>2022-07-25T07:16:58Z</time>
      </trkpt>
      <trkpt lat="46.1721630" lon="5.7356920">
        <ele>603.4</ele>
        <time>2022-07-25T07:16:59Z</time>
      </trkpt>
      <trkpt lat="46.1720700" lon="5.7356340">
        <ele>604.4</ele>
        <time>2022-07-25T07:17:04Z</time>
      </trkpt>
      <trkpt lat="46.1720530" lon="5.7356370">
        <ele>604.6</ele>
        <time>2022-07-25T07:17:05Z</time>
      </trkpt>
      <trkpt lat="46.1719740" lon="5.7357040">
        <ele>605.2</ele>
        <time>2022-07-25T07:17:09Z</time>
      </trkpt>
      <trkpt lat="46.1719520" lon="5.7357530">
        <ele>605.6</ele>
        <time>2022-07-25T07:17:11Z</time>
      </trkpt>
      <trkpt lat="46.1719420" lon="5.7358440">
        <ele>605.8</ele>
        <time>2022-07-25T07:17:14Z</time>
      </trkpt>
      <trkpt lat="46.1719730" lon="5.7359800">
        <ele>606.4</ele>
        <time>2022-07-25T07:17:18Z</time>
      </trkpt>
      <trkpt lat="46.1719960" lon="5.7360410">
        <ele>607.0</ele>
        <time>2022-07-25T07:17:20Z</time>
      </trkpt>
      <trkpt lat="46.1720860" lon="5.7362190">
        <ele>607.8</ele>
        <time>2022-07-25T07:17:26Z</time>
      </trkpt>
      <trkpt lat="46.1721610" lon="5.7363600">
        <ele>608.2</ele>
        <time>2022-07-25T07:17:31Z</time>
      </trkpt>
      <trkpt lat="46.1722040" lon="5.7364480">
        <ele>608.6</ele>
        <time>2022-07-25T07:17:34Z</time>
      </trkpt>
      <trkpt lat="46.1722420" lon="5.7365340">
        <ele>609.2</ele>
        <time>2022-07-25T07:17:37Z</time>
      </trkpt>
      <trkpt lat="46.1722820" lon="5.7366130">
        <ele>609.8</ele>
        <time>2022-07-25T07:17:40Z</time>
      </trkpt>
      <trkpt lat="46.1723280" lon="5.7367270">
        <ele>610.2</ele>
        <time>2022-07-25T07:17:44Z</time>
      </trkpt>
      <trkpt lat="46.1723520" lon="5.7367810">
        <ele>610.6</ele>
        <time>2022-07-25T07:17:46Z</time>
      </trkpt>
      <trkpt lat="46.1723930" lon="5.7368980">
        <ele>611.2</ele>
        <time>2022-07-25T07:17:50Z</time>
      </trkpt>
      <trkpt lat="46.1724270" lon="5.7369770">
        <ele>611.6</ele>
        <time>2022-07-25T07:17:53Z</time>
      </trkpt>
      <trkpt lat="46.1724560" lon="5.7370630">
        <ele>612.0</ele>
        <time>2022-07-25T07:17:56Z</time>
      </trkpt>
      <trkpt lat="46.1724930" lon="5.7371830">
        <ele>612.6</ele>
        <time>2022-07-25T07:18:00Z</time>
      </trkpt>
      <trkpt lat="46.1725350" lon="5.7373350">
        <ele>613.4</ele>
        <time>2022-07-25T07:18:05Z</time>
      </trkpt>
      <trkpt lat="46.1725410" lon="5.7373660">
        <ele>613.6</ele>
        <time>2022-07-25T07:18:06Z</time>
      </trkpt>
      <trkpt lat="46.1725920" lon="5.7375310">
        <ele>614.6</ele>
        <time>2022-07-25T07:18:11Z</time>
      </trkpt>
      <trkpt lat="46.1726450" lon="5.7377240">
        <ele>615.8</ele>
        <time>2022-07-25T07:18:17Z</time>
      </trkpt>
      <trkpt lat="46.1726950" lon="5.7379110">
        <ele>616.8</ele>
        <time>2022-07-25T07:18:23Z</time>
      </trkpt>
      <trkpt lat="46.1726960" lon="5.7381310">
        <ele>617.8</ele>
        <time>2022-07-25T07:18:29Z</time>
      </trkpt>
      <trkpt lat="46.1726950" lon="5.7381640">
        <ele>617.8</ele>
        <time>2022-07-25T07:18:30Z</time>
      </trkpt>
      <trkpt lat="46.1727080" lon="5.7383540">
        <ele>618.8</ele>
        <time>2022-07-25T07:18:36Z</time>
      </trkpt>
      <trkpt lat="46.1727070" lon="5.7383860">
        <ele>619.0</ele>
        <time>2022-07-25T07:18:37Z</time>
      </trkpt>
      <trkpt lat="46.1727190" lon="5.7385410">
        <ele>619.8</ele>
        <time>2022-07-25T07:18:42Z</time>
      </trkpt>
      <trkpt lat="46.1727510" lon="5.7386780">
        <ele>620.4</ele>
        <time>2022-07-25T07:18:46Z</time>
      </trkpt>
      <trkpt lat="46.1727500" lon="5.7387150">
        <ele>620.6</ele>
        <time>2022-07-25T07:18:47Z</time>
      </trkpt>
      <trkpt lat="46.1728390" lon="5.7389700">
        <ele>621.6</ele>
        <time>2022-07-25T07:18:54Z</time>
      </trkpt>
      <trkpt lat="46.1728510" lon="5.7390120">
        <ele>621.8</ele>
        <time>2022-07-25T07:18:55Z</time>
      </trkpt>
      <trkpt lat="46.1729210" lon="5.7392070">
        <ele>622.4</ele>
        <time>2022-07-25T07:19:01Z</time>
      </trkpt>
      <trkpt lat="46.1729420" lon="5.7392930">
        <ele>622.8</ele>
        <time>2022-07-25T07:19:04Z</time>
      </trkpt>
      <trkpt lat="46.1729980" lon="5.7393920">
        <ele>623.2</ele>
        <time>2022-07-25T07:19:08Z</time>
      </trkpt>
      <trkpt lat="46.1730430" lon="5.7394710">
        <ele>623.6</ele>
        <time>2022-07-25T07:19:11Z</time>
      </trkpt>
      <trkpt lat="46.1731040" lon="5.7395850">
        <ele>624.2</ele>
        <time>2022-07-25T07:19:15Z</time>
      </trkpt>
      <trkpt lat="46.1731280" lon="5.7396390">
        <ele>624.6</ele>
        <time>2022-07-25T07:19:17Z</time>
      </trkpt>
      <trkpt lat="46.1731740" lon="5.7397770">
        <ele>625.2</ele>
        <time>2022-07-25T07:19:22Z</time>
      </trkpt>
      <trkpt lat="46.1732030" lon="5.7398370">
        <ele>625.8</ele>
        <time>2022-07-25T07:19:24Z</time>
      </trkpt>
      <trkpt lat="46.1732860" lon="5.7399720">
        <ele>626.4</ele>
        <time>2022-07-25T07:19:29Z</time>
      </trkpt>
      <trkpt lat="46.1733000" lon="5.7399990">
        <ele>626.6</ele>
        <time>2022-07-25T07:19:30Z</time>
      </trkpt>
      <trkpt lat="46.1734090" lon="5.7401700">
        <ele>627.6</ele>
        <time>2022-07-25T07:19:36Z</time>
      </trkpt>
      <trkpt lat="46.1734830" lon="5.7403520">
        <ele>628.6</ele>
        <time>2022-07-25T07:19:42Z</time>
      </trkpt>
      <trkpt lat="46.1734910" lon="5.7403830">
        <ele>629.0</ele>
        <time>2022-07-25T07:19:43Z</time>
      </trkpt>
      <trkpt lat="46.1735070" lon="5.7404490">
        <ele>629.6</ele>
        <time>2022-07-25T07:19:45Z</time>
      </trkpt>
      <trkpt lat="46.1735410" lon="5.7406100">
        <ele>630.4</ele>
        <time>2022-07-25T07:19:50Z</time>
      </trkpt>
      <trkpt lat="46.1735440" lon="5.7406710">
        <ele>630.6</ele>
        <time>2022-07-25T07:19:52Z</time>
      </trkpt>
      <trkpt lat="46.1735390" lon="5.7408040">
        <ele>631.2</ele>
        <time>2022-07-25T07:19:56Z</time>
      </trkpt>
      <trkpt lat="46.1735030" lon="5.7409410">
        <ele>631.8</ele>
        <time>2022-07-25T07:20:00Z</time>
      </trkpt>
      <trkpt lat="46.1734790" lon="5.7409970">
        <ele>632.0</ele>
        <time>2022-07-25T07:20:02Z</time>
      </trkpt>
      <trkpt lat="46.1734350" lon="5.7411220">
        <ele>632.8</ele>
        <time>2022-07-25T07:20:07Z</time>
      </trkpt>
      <trkpt lat="46.1733950" lon="5.7412180">
        <ele>633.2</ele>
        <time>2022-07-25T07:20:11Z</time>
      </trkpt>
      <trkpt lat="46.1733770" lon="5.7412690">
        <ele>633.8</ele>
        <time>2022-07-25T07:20:13Z</time>
      </trkpt>
      <trkpt lat="46.1733220" lon="5.7414210">
        <ele>634.6</ele>
        <time>2022-07-25T07:20:19Z</time>
      </trkpt>
      <trkpt lat="46.1732820" lon="5.7414940">
        <ele>635.0</ele>
        <time>2022-07-25T07:20:22Z</time>
      </trkpt>
      <trkpt lat="46.1732300" lon="5.7415880">
        <ele>635.6</ele>
        <time>2022-07-25T07:20:26Z</time>
      </trkpt>
      <trkpt lat="46.1731980" lon="5.7416370">
        <ele>635.8</ele>
        <time>2022-07-25T07:20:28Z</time>
      </trkpt>
      <trkpt lat="46.1731200" lon="5.7417590">
        <ele>636.8</ele>
        <time>2022-07-25T07:20:33Z</time>
      </trkpt>
      <trkpt lat="46.1731030" lon="5.7417820">
        <ele>637.0</ele>
        <time>2022-07-25T07:20:34Z</time>
      </trkpt>
      <trkpt lat="46.1730290" lon="5.7418630">
        <ele>637.8</ele>
        <time>2022-07-25T07:20:38Z</time>
      </trkpt>
      <trkpt lat="46.1729720" lon="5.7419060">
        <ele>638.2</ele>
        <time>2022-07-25T07:20:41Z</time>
      </trkpt>
      <trkpt lat="46.1728480" lon="5.7419300">
        <ele>638.8</ele>
        <time>2022-07-25T07:20:46Z</time>
      </trkpt>
      <trkpt lat="46.1728200" lon="5.7419270">
        <ele>639.0</ele>
        <time>2022-07-25T07:20:47Z</time>
      </trkpt>
      <trkpt lat="46.1726530" lon="5.7418690">
        <ele>640.0</ele>
        <time>2022-07-25T07:20:53Z</time>
      </trkpt>
      <trkpt lat="46.1725130" lon="5.7417680">
        <ele>641.2</ele>
        <time>2022-07-25T07:20:59Z</time>
      </trkpt>
      <trkpt lat="46.1723830" lon="5.7416550">
        <ele>642.0</ele>
        <time>2022-07-25T07:21:05Z</time>
      </trkpt>
      <trkpt lat="46.1723620" lon="5.7416370">
        <ele>642.2</ele>
        <time>2022-07-25T07:21:06Z</time>
      </trkpt>
      <trkpt lat="46.1722240" lon="5.7415420">
        <ele>643.2</ele>
        <time>2022-07-25T07:21:12Z</time>
      </trkpt>
      <trkpt lat="46.1722010" lon="5.7415300">
        <ele>643.2</ele>
        <time>2022-07-25T07:21:13Z</time>
      </trkpt>
      <trkpt lat="46.1720650" lon="5.7414540">
        <ele>643.8</ele>
        <time>2022-07-25T07:21:19Z</time>
      </trkpt>
      <trkpt lat="46.1720460" lon="5.7414420">
        <ele>644.0</ele>
        <time>2022-07-25T07:21:20Z</time>
      </trkpt>
      <trkpt lat="46.1719470" lon="5.7413910">
        <ele>644.8</ele>
        <time>2022-07-25T07:21:25Z</time>
      </trkpt>
      <trkpt lat="46.1719070" lon="5.7413740">
        <ele>645.2</ele>
        <time>2022-07-25T07:21:27Z</time>
      </trkpt>
      <trkpt lat="46.1718210" lon="5.7413470">
        <ele>646.0</ele>
        <time>2022-07-25T07:21:31Z</time>
      </trkpt>
      <trkpt lat="46.1717980" lon="5.7413360">
        <ele>646.0</ele>
        <time>2022-07-25T07:21:32Z</time>
      </trkpt>
      <trkpt lat="46.1716920" lon="5.7412900">
        <ele>647.0</ele>
        <time>2022-07-25T07:21:36Z</time>
      </trkpt>
      <trkpt lat="46.1716690" lon="5.7412740">
        <ele>647.4</ele>
        <time>2022-07-25T07:21:37Z</time>
      </trkpt>
      <trkpt lat="46.1715370" lon="5.7411700">
        <ele>648.0</ele>
        <time>2022-07-25T07:21:43Z</time>
      </trkpt>
      <trkpt lat="46.1715160" lon="5.7411530">
        <ele>648.2</ele>
        <time>2022-07-25T07:21:44Z</time>
      </trkpt>
      <trkpt lat="46.1713920" lon="5.7410530">
        <ele>649.4</ele>
        <time>2022-07-25T07:21:50Z</time>
      </trkpt>
      <trkpt lat="46.1713710" lon="5.7410340">
        <ele>649.6</ele>
        <time>2022-07-25T07:21:51Z</time>
      </trkpt>
      <trkpt lat="46.1712620" lon="5.7409470">
        <ele>650.4</ele>
        <time>2022-07-25T07:21:56Z</time>
      </trkpt>
      <trkpt lat="46.1712190" lon="5.7409200">
        <ele>650.6</ele>
        <time>2022-07-25T07:21:58Z</time>
      </trkpt>
      <trkpt lat="46.1711250" lon="5.7408730">
        <ele>651.4</ele>
        <time>2022-07-25T07:22:02Z</time>
      </trkpt>
      <trkpt lat="46.1710340" lon="5.7408280">
        <ele>652.0</ele>
        <time>2022-07-25T07:22:06Z</time>
      </trkpt>
      <trkpt lat="46.1709960" lon="5.7408080">
        <ele>652.4</ele>
        <time>2022-07-25T07:22:08Z</time>
      </trkpt>
      <trkpt lat="46.1709320" lon="5.7407760">
        <ele>653.0</ele>
        <time>2022-07-25T07:22:12Z</time>
      </trkpt>
      <trkpt lat="46.1709040" lon="5.7407560">
        <ele>653.2</ele>
        <time>2022-07-25T07:22:14Z</time>
      </trkpt>
      <trkpt lat="46.1708370" lon="5.7407130">
        <ele>653.8</ele>
        <time>2022-07-25T07:22:18Z</time>
      </trkpt>
      <trkpt lat="46.1707750" lon="5.7406770">
        <ele>654.4</ele>
        <time>2022-07-25T07:22:21Z</time>
      </trkpt>
      <trkpt lat="46.1707030" lon="5.7406410">
        <ele>654.8</ele>
        <time>2022-07-25T07:22:25Z</time>
      </trkpt>
      <trkpt lat="46.1706200" lon="5.7405820">
        <ele>655.4</ele>
        <time>2022-07-25T07:22:29Z</time>
      </trkpt>
      <trkpt lat="46.1705760" lon="5.7405300">
        <ele>656.0</ele>
        <time>2022-07-25T07:22:32Z</time>
      </trkpt>
      <trkpt lat="46.1705390" lon="5.7404600">
        <ele>656.4</ele>
        <time>2022-07-25T07:22:35Z</time>
      </trkpt>
      <trkpt lat="46.1705020" lon="5.7403550">
        <ele>657.0</ele>
        <time>2022-07-25T07:22:39Z</time>
      </trkpt>
      <trkpt lat="46.1704760" lon="5.7402430">
        <ele>657.4</ele>
        <time>2022-07-25T07:22:42Z</time>
      </trkpt>
      <trkpt lat="46.1704400" lon="5.7401240">
        <ele>657.8</ele>
        <time>2022-07-25T07:22:46Z</time>
      </trkpt>
      <trkpt lat="46.1703760" lon="5.7399890">
        <ele>658.4</ele>
        <time>2022-07-25T07:22:49Z</time>
      </trkpt>
      <trkpt lat="46.1703270" lon="5.7398730">
        <ele>659.0</ele>
        <time>2022-07-25T07:22:52Z</time>
      </trkpt>
      <trkpt lat="46.1703110" lon="5.7398400">
        <ele>659.0</ele>
        <time>2022-07-25T07:22:53Z</time>
      </trkpt>
      <trkpt lat="46.1702760" lon="5.7397850">
        <ele>659.4</ele>
        <time>2022-07-25T07:22:55Z</time>
      </trkpt>
      <trkpt lat="46.1702180" lon="5.7397100">
        <ele>659.8</ele>
        <time>2022-07-25T07:22:58Z</time>
      </trkpt>
      <trkpt lat="46.1701420" lon="5.7396240">
        <ele>660.4</ele>
        <time>2022-07-25T07:23:02Z</time>
      </trkpt>
      <trkpt lat="46.1700780" lon="5.7395640">
        <ele>661.0</ele>
        <time>2022-07-25T07:23:05Z</time>
      </trkpt>
      <trkpt lat="46.1700030" lon="5.7394860">
        <ele>661.6</ele>
        <time>2022-07-25T07:23:08Z</time>
      </trkpt>
      <trkpt lat="46.1699150" lon="5.7394080">
        <ele>662.2</ele>
        <time>2022-07-25T07:23:12Z</time>
      </trkpt>
      <trkpt lat="46.1698950" lon="5.7393830">
        <ele>662.4</ele>
        <time>2022-07-25T07:23:13Z</time>
      </trkpt>
      <trkpt lat="46.1697850" lon="5.7392370">
        <ele>663.2</ele>
        <time>2022-07-25T07:23:19Z</time>
      </trkpt>
      <trkpt lat="46.1697510" lon="5.7391900">
        <ele>663.6</ele>
        <time>2022-07-25T07:23:21Z</time>
      </trkpt>
      <trkpt lat="46.1696620" lon="5.7389810">
        <ele>664.4</ele>
        <time>2022-07-25T07:23:27Z</time>
      </trkpt>
      <trkpt lat="46.1695840" lon="5.7387320">
        <ele>665.2</ele>
        <time>2022-07-25T07:23:32Z</time>
      </trkpt>
      <trkpt lat="46.1695760" lon="5.7386550">
        <ele>665.6</ele>
        <time>2022-07-25T07:23:34Z</time>
      </trkpt>
      <trkpt lat="46.1695550" lon="5.7385190">
        <ele>666.2</ele>
        <time>2022-07-25T07:23:38Z</time>
      </trkpt>
      <trkpt lat="46.1695460" lon="5.7384510">
        <ele>666.4</ele>
        <time>2022-07-25T07:23:40Z</time>
      </trkpt>
      <trkpt lat="46.1695280" lon="5.7383420">
        <ele>666.8</ele>
        <time>2022-07-25T07:23:43Z</time>
      </trkpt>
      <trkpt lat="46.1694850" lon="5.7381400">
        <ele>667.6</ele>
        <time>2022-07-25T07:23:48Z</time>
      </trkpt>
      <trkpt lat="46.1694740" lon="5.7381020">
        <ele>667.8</ele>
        <time>2022-07-25T07:23:49Z</time>
      </trkpt>
      <trkpt lat="46.1694580" lon="5.7379580">
        <ele>668.4</ele>
        <time>2022-07-25T07:23:53Z</time>
      </trkpt>
      <trkpt lat="46.1694260" lon="5.7378530">
        <ele>669.0</ele>
        <time>2022-07-25T07:23:56Z</time>
      </trkpt>
      <trkpt lat="46.1693610" lon="5.7377380">
        <ele>669.6</ele>
        <time>2022-07-25T07:24:00Z</time>
      </trkpt>
      <trkpt lat="46.1693240" lon="5.7376850">
        <ele>670.0</ele>
        <time>2022-07-25T07:24:02Z</time>
      </trkpt>
      <trkpt lat="46.1692500" lon="5.7375520">
        <ele>670.8</ele>
        <time>2022-07-25T07:24:06Z</time>
      </trkpt>
      <trkpt lat="46.1692160" lon="5.7374780">
        <ele>671.2</ele>
        <time>2022-07-25T07:24:08Z</time>
      </trkpt>
      <trkpt lat="46.1691520" lon="5.7373210">
        <ele>671.8</ele>
        <time>2022-07-25T07:24:13Z</time>
      </trkpt>
      <trkpt lat="46.1691410" lon="5.7372900">
        <ele>671.8</ele>
        <time>2022-07-25T07:24:14Z</time>
      </trkpt>
      <trkpt lat="46.1690670" lon="5.7370840">
        <ele>672.4</ele>
        <time>2022-07-25T07:24:20Z</time>
      </trkpt>
      <trkpt lat="46.1690530" lon="5.7370570">
        <ele>672.6</ele>
        <time>2022-07-25T07:24:21Z</time>
      </trkpt>
      <trkpt lat="46.1690070" lon="5.7369440">
        <ele>673.2</ele>
        <time>2022-07-25T07:24:25Z</time>
      </trkpt>
      <trkpt lat="46.1689660" lon="5.7368540">
        <ele>673.6</ele>
        <time>2022-07-25T07:24:27Z</time>
      </trkpt>
      <trkpt lat="46.1689110" lon="5.7367180">
        <ele>674.2</ele>
        <time>2022-07-25T07:24:30Z</time>
      </trkpt>
      <trkpt lat="46.1688570" lon="5.7365480">
        <ele>674.6</ele>
        <time>2022-07-25T07:24:34Z</time>
      </trkpt>
      <trkpt lat="46.1688310" lon="5.7364450">
        <ele>675.2</ele>
        <time>2022-07-25T07:24:37Z</time>
      </trkpt>
      <trkpt lat="46.1687990" lon="5.7363350">
        <ele>675.8</ele>
        <time>2022-07-25T07:24:40Z</time>
      </trkpt>
      <trkpt lat="46.1687480" lon="5.7361500">
        <ele>676.4</ele>
        <time>2022-07-25T07:24:45Z</time>
      </trkpt>
      <trkpt lat="46.1687140" lon="5.7360450">
        <ele>676.6</ele>
        <time>2022-07-25T07:24:48Z</time>
      </trkpt>
      <trkpt lat="46.1686570" lon="5.7358870">
        <ele>677.0</ele>
        <time>2022-07-25T07:24:52Z</time>
      </trkpt>
      <trkpt lat="46.1685900" lon="5.7356830">
        <ele>677.8</ele>
        <time>2022-07-25T07:24:57Z</time>
      </trkpt>
      <trkpt lat="46.1685600" lon="5.7355970">
        <ele>677.8</ele>
        <time>2022-07-25T07:24:59Z</time>
      </trkpt>
      <trkpt lat="46.1684600" lon="5.7353300">
        <ele>678.8</ele>
        <time>2022-07-25T07:25:06Z</time>
      </trkpt>
      <trkpt lat="46.1684030" lon="5.7351320">
        <ele>679.8</ele>
        <time>2022-07-25T07:25:11Z</time>
      </trkpt>
      <trkpt lat="46.1683310" lon="5.7349090">
        <ele>680.6</ele>
        <time>2022-07-25T07:25:17Z</time>
      </trkpt>
      <trkpt lat="46.1683170" lon="5.7348700">
        <ele>680.8</ele>
        <time>2022-07-25T07:25:18Z</time>
      </trkpt>
      <trkpt lat="46.1682440" lon="5.7346360">
        <ele>681.6</ele>
        <time>2022-07-25T07:25:24Z</time>
      </trkpt>
      <trkpt lat="46.1682370" lon="5.7346040">
        <ele>681.8</ele>
        <time>2022-07-25T07:25:25Z</time>
      </trkpt>
      <trkpt lat="46.1681770" lon="5.7343920">
        <ele>682.4</ele>
        <time>2022-07-25T07:25:30Z</time>
      </trkpt>
      <trkpt lat="46.1681440" lon="5.7342880">
        <ele>682.8</ele>
        <time>2022-07-25T07:25:32Z</time>
      </trkpt>
      <trkpt lat="46.1680960" lon="5.7341460">
        <ele>683.6</ele>
        <time>2022-07-25T07:25:36Z</time>
      </trkpt>
      <trkpt lat="46.1680600" lon="5.7340800">
        <ele>684.0</ele>
        <time>2022-07-25T07:25:38Z</time>
      </trkpt>
      <trkpt lat="46.1679930" lon="5.7338950">
        <ele>684.8</ele>
        <time>2022-07-25T07:25:43Z</time>
      </trkpt>
      <trkpt lat="46.1679760" lon="5.7338220">
        <ele>685.0</ele>
        <time>2022-07-25T07:25:45Z</time>
      </trkpt>
      <trkpt lat="46.1679390" lon="5.7336110">
        <ele>685.6</ele>
        <time>2022-07-25T07:25:49Z</time>
      </trkpt>
      <trkpt lat="46.1679190" lon="5.7334670">
        <ele>686.2</ele>
        <time>2022-07-25T07:25:52Z</time>
      </trkpt>
      <trkpt lat="46.1679100" lon="5.7333710">
        <ele>686.2</ele>
        <time>2022-07-25T07:25:54Z</time>
      </trkpt>
      <trkpt lat="46.1678770" lon="5.7332110">
        <ele>686.8</ele>
        <time>2022-07-25T07:25:58Z</time>
      </trkpt>
      <trkpt lat="46.1678540" lon="5.7331450">
        <ele>687.0</ele>
        <time>2022-07-25T07:26:00Z</time>
      </trkpt>
      <trkpt lat="46.1677610" lon="5.7330220">
        <ele>687.8</ele>
        <time>2022-07-25T07:26:04Z</time>
      </trkpt>
      <trkpt lat="46.1677180" lon="5.7329520">
        <ele>688.2</ele>
        <time>2022-07-25T07:26:06Z</time>
      </trkpt>
      <trkpt lat="46.1675910" lon="5.7327970">
        <ele>688.8</ele>
        <time>2022-07-25T07:26:11Z</time>
      </trkpt>
      <trkpt lat="46.1675670" lon="5.7327620">
        <ele>689.0</ele>
        <time>2022-07-25T07:26:12Z</time>
      </trkpt>
      <trkpt lat="46.1674190" lon="5.7325750">
        <ele>690.0</ele>
        <time>2022-07-25T07:26:18Z</time>
      </trkpt>
      <trkpt lat="46.1673980" lon="5.7325450">
        <ele>690.2</ele>
        <time>2022-07-25T07:26:19Z</time>
      </trkpt>
      <trkpt lat="46.1672850" lon="5.7323890">
        <ele>690.8</ele>
        <time>2022-07-25T07:26:24Z</time>
      </trkpt>
      <trkpt lat="46.1672300" lon="5.7322980">
        <ele>691.2</ele>
        <time>2022-07-25T07:26:27Z</time>
      </trkpt>
      <trkpt lat="46.1671800" lon="5.7322030">
        <ele>691.6</ele>
        <time>2022-07-25T07:26:30Z</time>
      </trkpt>
      <trkpt lat="46.1671210" lon="5.7320670">
        <ele>692.2</ele>
        <time>2022-07-25T07:26:34Z</time>
      </trkpt>
      <trkpt lat="46.1670780" lon="5.7319560">
        <ele>692.8</ele>
        <time>2022-07-25T07:26:37Z</time>
      </trkpt>
      <trkpt lat="46.1670430" lon="5.7318460">
        <ele>693.2</ele>
        <time>2022-07-25T07:26:40Z</time>
      </trkpt>
      <trkpt lat="46.1670050" lon="5.7316850">
        <ele>693.8</ele>
        <time>2022-07-25T07:26:44Z</time>
      </trkpt>
      <trkpt lat="46.1669760" lon="5.7316070">
        <ele>694.2</ele>
        <time>2022-07-25T07:26:46Z</time>
      </trkpt>
      <trkpt lat="46.1669280" lon="5.7313900">
        <ele>695.2</ele>
        <time>2022-07-25T07:26:51Z</time>
      </trkpt>
      <trkpt lat="46.1669220" lon="5.7313490">
        <ele>695.2</ele>
        <time>2022-07-25T07:26:52Z</time>
      </trkpt>
      <trkpt lat="46.1668890" lon="5.7311160">
        <ele>696.2</ele>
        <time>2022-07-25T07:26:58Z</time>
      </trkpt>
      <trkpt lat="46.1668560" lon="5.7309210">
        <ele>697.2</ele>
        <time>2022-07-25T07:27:03Z</time>
      </trkpt>
      <trkpt lat="46.1668490" lon="5.7308880">
        <ele>697.4</ele>
        <time>2022-07-25T07:27:04Z</time>
      </trkpt>
      <trkpt lat="46.1667980" lon="5.7306620">
        <ele>698.2</ele>
        <time>2022-07-25T07:27:10Z</time>
      </trkpt>
      <trkpt lat="46.1667880" lon="5.7306270">
        <ele>698.4</ele>
        <time>2022-07-25T07:27:11Z</time>
      </trkpt>
      <trkpt lat="46.1666950" lon="5.7303640">
        <ele>699.4</ele>
        <time>2022-07-25T07:27:18Z</time>
      </trkpt>
      <trkpt lat="46.1666100" lon="5.7301690">
        <ele>700.6</ele>
        <time>2022-07-25T07:27:24Z</time>
      </trkpt>
      <trkpt lat="46.1665810" lon="5.7301080">
        <ele>700.8</ele>
        <time>2022-07-25T07:27:26Z</time>
      </trkpt>
      <trkpt lat="46.1665190" lon="5.7299810">
        <ele>701.4</ele>
        <time>2022-07-25T07:27:30Z</time>
      </trkpt>
      <trkpt lat="46.1664720" lon="5.7298380">
        <ele>702.4</ele>
        <time>2022-07-25T07:27:34Z</time>
      </trkpt>
      <trkpt lat="46.1664610" lon="5.7298060">
        <ele>702.4</ele>
        <time>2022-07-25T07:27:35Z</time>
      </trkpt>
      <trkpt lat="46.1663950" lon="5.7295950">
        <ele>703.4</ele>
        <time>2022-07-25T07:27:41Z</time>
      </trkpt>
      <trkpt lat="46.1663860" lon="5.7295510">
        <ele>703.8</ele>
        <time>2022-07-25T07:27:42Z</time>
      </trkpt>
      <trkpt lat="46.1663440" lon="5.7293940">
        <ele>704.4</ele>
        <time>2022-07-25T07:27:46Z</time>
      </trkpt>
      <trkpt lat="46.1663200" lon="5.7293330">
        <ele>704.8</ele>
        <time>2022-07-25T07:27:48Z</time>
      </trkpt>
      <trkpt lat="46.1662560" lon="5.7291680">
        <ele>705.6</ele>
        <time>2022-07-25T07:27:53Z</time>
      </trkpt>
      <trkpt lat="46.1662440" lon="5.7291260">
        <ele>705.8</ele>
        <time>2022-07-25T07:27:54Z</time>
      </trkpt>
      <trkpt lat="46.1661880" lon="5.7289070">
        <ele>706.6</ele>
        <time>2022-07-25T07:28:00Z</time>
      </trkpt>
      <trkpt lat="46.1661820" lon="5.7288670">
        <ele>706.8</ele>
        <time>2022-07-25T07:28:01Z</time>
      </trkpt>
      <trkpt lat="46.1661290" lon="5.7286880">
        <ele>707.6</ele>
        <time>2022-07-25T07:28:06Z</time>
      </trkpt>
      <trkpt lat="46.1661200" lon="5.7286580">
        <ele>707.6</ele>
        <time>2022-07-25T07:28:07Z</time>
      </trkpt>
      <trkpt lat="46.1660640" lon="5.7284750">
        <ele>708.4</ele>
        <time>2022-07-25T07:28:13Z</time>
      </trkpt>
      <trkpt lat="46.1660190" lon="5.7282620">
        <ele>709.6</ele>
        <time>2022-07-25T07:28:19Z</time>
      </trkpt>
      <trkpt lat="46.1660140" lon="5.7282270">
        <ele>709.8</ele>
        <time>2022-07-25T07:28:20Z</time>
      </trkpt>
      <trkpt lat="46.1659960" lon="5.7280740">
        <ele>710.8</ele>
        <time>2022-07-25T07:28:25Z</time>
      </trkpt>
      <trkpt lat="46.1659940" lon="5.7280410">
        <ele>710.8</ele>
        <time>2022-07-25T07:28:26Z</time>
      </trkpt>
      <trkpt lat="46.1659710" lon="5.7278910">
        <ele>711.6</ele>
        <time>2022-07-25T07:28:31Z</time>
      </trkpt>
      <trkpt lat="46.1659640" lon="5.7278610">
        <ele>711.8</ele>
        <time>2022-07-25T07:28:32Z</time>
      </trkpt>
      <trkpt lat="46.1659510" lon="5.7276490">
        <ele>712.4</ele>
        <time>2022-07-25T07:28:37Z</time>
      </trkpt>
      <trkpt lat="46.1659520" lon="5.7275890">
        <ele>712.4</ele>
        <time>2022-07-25T07:28:39Z</time>
      </trkpt>
      <trkpt lat="46.1659150" lon="5.7274360">
        <ele>713.0</ele>
        <time>2022-07-25T07:28:43Z</time>
      </trkpt>
      <trkpt lat="46.1659020" lon="5.7273760">
        <ele>713.6</ele>
        <time>2022-07-25T07:28:45Z</time>
      </trkpt>
      <trkpt lat="46.1658760" lon="5.7272290">
        <ele>714.2</ele>
        <time>2022-07-25T07:28:49Z</time>
      </trkpt>
      <trkpt lat="46.1658460" lon="5.7271120">
        <ele>714.6</ele>
        <time>2022-07-25T07:28:52Z</time>
      </trkpt>
      <trkpt lat="46.1658220" lon="5.7270020">
        <ele>715.0</ele>
        <time>2022-07-25T07:28:55Z</time>
      </trkpt>
      <trkpt lat="46.1657920" lon="5.7268330">
        <ele>715.6</ele>
        <time>2022-07-25T07:28:59Z</time>
      </trkpt>
      <trkpt lat="46.1657500" lon="5.7266880">
        <ele>716.2</ele>
        <time>2022-07-25T07:29:02Z</time>
      </trkpt>
      <trkpt lat="46.1657220" lon="5.7266020">
        <ele>716.6</ele>
        <time>2022-07-25T07:29:04Z</time>
      </trkpt>
      <trkpt lat="46.1656780" lon="5.7264840">
        <ele>717.2</ele>
        <time>2022-07-25T07:29:07Z</time>
      </trkpt>
      <trkpt lat="46.1656100" lon="5.7263540">
        <ele>717.8</ele>
        <time>2022-07-25T07:29:11Z</time>
      </trkpt>
      <trkpt lat="46.1655670" lon="5.7262530">
        <ele>718.2</ele>
        <time>2022-07-25T07:29:14Z</time>
      </trkpt>
      <trkpt lat="46.1654990" lon="5.7260900">
        <ele>719.0</ele>
        <time>2022-07-25T07:29:19Z</time>
      </trkpt>
      <trkpt lat="46.1654600" lon="5.7260310">
        <ele>719.2</ele>
        <time>2022-07-25T07:29:21Z</time>
      </trkpt>
      <trkpt lat="46.1653680" lon="5.7258410">
        <ele>719.8</ele>
        <time>2022-07-25T07:29:27Z</time>
      </trkpt>
      <trkpt lat="46.1653520" lon="5.7258150">
        <ele>720.2</ele>
        <time>2022-07-25T07:29:28Z</time>
      </trkpt>
      <trkpt lat="46.1652690" lon="5.7256290">
        <ele>721.0</ele>
        <time>2022-07-25T07:29:34Z</time>
      </trkpt>
      <trkpt lat="46.1651800" lon="5.7254730">
        <ele>721.6</ele>
        <time>2022-07-25T07:29:40Z</time>
      </trkpt>
      <trkpt lat="46.1651560" lon="5.7254110">
        <ele>721.8</ele>
        <time>2022-07-25T07:29:42Z</time>
      </trkpt>
      <trkpt lat="46.1651170" lon="5.7252850">
        <ele>722.8</ele>
        <time>2022-07-25T07:29:46Z</time>
      </trkpt>
      <trkpt lat="46.1651130" lon="5.7252550">
        <ele>723.0</ele>
        <time>2022-07-25T07:29:47Z</time>
      </trkpt>
      <trkpt lat="46.1650590" lon="5.7251250">
        <ele>723.8</ele>
        <time>2022-07-25T07:29:52Z</time>
      </trkpt>
      <trkpt lat="46.1650460" lon="5.7250510">
        <ele>724.0</ele>
        <time>2022-07-25T07:29:54Z</time>
      </trkpt>
      <trkpt lat="46.1650330" lon="5.7249580">
        <ele>724.6</ele>
        <time>2022-07-25T07:29:57Z</time>
      </trkpt>
      <trkpt lat="46.1650110" lon="5.7249000">
        <ele>725.0</ele>
        <time>2022-07-25T07:29:59Z</time>
      </trkpt>
      <trkpt lat="46.1649430" lon="5.7247690">
        <ele>725.4</ele>
        <time>2022-07-25T07:30:03Z</time>
      </trkpt>
      <trkpt lat="46.1648890" lon="5.7246490">
        <ele>726.2</ele>
        <time>2022-07-25T07:30:07Z</time>
      </trkpt>
      <trkpt lat="46.1648510" lon="5.7245750">
        <ele>726.6</ele>
        <time>2022-07-25T07:30:09Z</time>
      </trkpt>
      <trkpt lat="46.1647870" lon="5.7244070">
        <ele>727.0</ele>
        <time>2022-07-25T07:30:14Z</time>
      </trkpt>
      <trkpt lat="46.1647750" lon="5.7243770">
        <ele>727.2</ele>
        <time>2022-07-25T07:30:15Z</time>
      </trkpt>
      <trkpt lat="46.1647260" lon="5.7241940">
        <ele>728.2</ele>
        <time>2022-07-25T07:30:21Z</time>
      </trkpt>
      <trkpt lat="46.1646640" lon="5.7240310">
        <ele>729.4</ele>
        <time>2022-07-25T07:30:26Z</time>
      </trkpt>
      <trkpt lat="46.1646550" lon="5.7240040">
        <ele>729.6</ele>
        <time>2022-07-25T07:30:27Z</time>
      </trkpt>
      <trkpt lat="46.1646350" lon="5.7238880">
        <ele>730.6</ele>
        <time>2022-07-25T07:30:31Z</time>
      </trkpt>
      <trkpt lat="46.1645810" lon="5.7237420">
        <ele>731.2</ele>
        <time>2022-07-25T07:30:35Z</time>
      </trkpt>
      <trkpt lat="46.1645710" lon="5.7236790">
        <ele>731.6</ele>
        <time>2022-07-25T07:30:37Z</time>
      </trkpt>
      <trkpt lat="46.1645490" lon="5.7236240">
        <ele>732.0</ele>
        <time>2022-07-25T07:30:39Z</time>
      </trkpt>
      <trkpt lat="46.1645290" lon="5.7235910">
        <ele>732.2</ele>
        <time>2022-07-25T07:30:40Z</time>
      </trkpt>
      <trkpt lat="46.1644770" lon="5.7234760">
        <ele>732.8</ele>
        <time>2022-07-25T07:30:43Z</time>
      </trkpt>
      <trkpt lat="46.1644150" lon="5.7233630">
        <ele>733.2</ele>
        <time>2022-07-25T07:30:46Z</time>
      </trkpt>
      <trkpt lat="46.1643340" lon="5.7231840">
        <ele>733.6</ele>
        <time>2022-07-25T07:30:51Z</time>
      </trkpt>
      <trkpt lat="46.1643100" lon="5.7231160">
        <ele>733.8</ele>
        <time>2022-07-25T07:30:53Z</time>
      </trkpt>
      <trkpt lat="46.1642480" lon="5.7229550">
        <ele>734.6</ele>
        <time>2022-07-25T07:30:58Z</time>
      </trkpt>
      <trkpt lat="46.1642320" lon="5.7228890">
        <ele>735.0</ele>
        <time>2022-07-25T07:31:00Z</time>
      </trkpt>
      <trkpt lat="46.1641850" lon="5.7227300">
        <ele>735.8</ele>
        <time>2022-07-25T07:31:05Z</time>
      </trkpt>
      <trkpt lat="46.1641580" lon="5.7226640">
        <ele>736.2</ele>
        <time>2022-07-25T07:31:07Z</time>
      </trkpt>
      <trkpt lat="46.1640420" lon="5.7224520">
        <ele>736.6</ele>
        <time>2022-07-25T07:31:14Z</time>
      </trkpt>
      <trkpt lat="46.1640260" lon="5.7224170">
        <ele>736.8</ele>
        <time>2022-07-25T07:31:15Z</time>
      </trkpt>
      <trkpt lat="46.1639510" lon="5.7222370">
        <ele>737.6</ele>
        <time>2022-07-25T07:31:21Z</time>
      </trkpt>
      <trkpt lat="46.1639390" lon="5.7222060">
        <ele>737.8</ele>
        <time>2022-07-25T07:31:22Z</time>
      </trkpt>
      <trkpt lat="46.1638500" lon="5.7220580">
        <ele>739.0</ele>
        <time>2022-07-25T07:31:27Z</time>
      </trkpt>
      <trkpt lat="46.1637690" lon="5.7219180">
        <ele>740.2</ele>
        <time>2022-07-25T07:31:32Z</time>
      </trkpt>
      <trkpt lat="46.1637290" lon="5.7218550">
        <ele>740.4</ele>
        <time>2022-07-25T07:31:34Z</time>
      </trkpt>
      <trkpt lat="46.1636140" lon="5.7216530">
        <ele>741.0</ele>
        <time>2022-07-25T07:31:41Z</time>
      </trkpt>
      <trkpt lat="46.1635790" lon="5.7216040">
        <ele>741.2</ele>
        <time>2022-07-25T07:31:43Z</time>
      </trkpt>
      <trkpt lat="46.1634720" lon="5.7214360">
        <ele>742.0</ele>
        <time>2022-07-25T07:31:49Z</time>
      </trkpt>
      <trkpt lat="46.1634290" lon="5.7213770">
        <ele>742.4</ele>
        <time>2022-07-25T07:31:51Z</time>
      </trkpt>
      <trkpt lat="46.1633230" lon="5.7212300">
        <ele>743.4</ele>
        <time>2022-07-25T07:31:56Z</time>
      </trkpt>
      <trkpt lat="46.1633060" lon="5.7212000">
        <ele>743.4</ele>
        <time>2022-07-25T07:31:57Z</time>
      </trkpt>
      <trkpt lat="46.1631740" lon="5.7209910">
        <ele>744.6</ele>
        <time>2022-07-25T07:32:04Z</time>
      </trkpt>
      <trkpt lat="46.1631490" lon="5.7209620">
        <ele>744.6</ele>
        <time>2022-07-25T07:32:05Z</time>
      </trkpt>
      <trkpt lat="46.1630250" lon="5.7207890">
        <ele>745.6</ele>
        <time>2022-07-25T07:32:11Z</time>
      </trkpt>
      <trkpt lat="46.1630030" lon="5.7207660">
        <ele>745.8</ele>
        <time>2022-07-25T07:32:12Z</time>
      </trkpt>
      <trkpt lat="46.1628310" lon="5.7205800">
        <ele>746.4</ele>
        <time>2022-07-25T07:32:19Z</time>
      </trkpt>
      <trkpt lat="46.1628070" lon="5.7205520">
        <ele>746.6</ele>
        <time>2022-07-25T07:32:20Z</time>
      </trkpt>
      <trkpt lat="46.1626760" lon="5.7204320">
        <ele>747.6</ele>
        <time>2022-07-25T07:32:25Z</time>
      </trkpt>
      <trkpt lat="46.1626080" lon="5.7203720">
        <ele>748.2</ele>
        <time>2022-07-25T07:32:28Z</time>
      </trkpt>
      <trkpt lat="46.1625420" lon="5.7203090">
        <ele>748.6</ele>
        <time>2022-07-25T07:32:31Z</time>
      </trkpt>
      <trkpt lat="46.1624780" lon="5.7202420">
        <ele>749.2</ele>
        <time>2022-07-25T07:32:34Z</time>
      </trkpt>
      <trkpt lat="46.1623840" lon="5.7201670">
        <ele>749.8</ele>
        <time>2022-07-25T07:32:38Z</time>
      </trkpt>
      <trkpt lat="46.1623060" lon="5.7201220">
        <ele>750.2</ele>
        <time>2022-07-25T07:32:41Z</time>
      </trkpt>
      <trkpt lat="46.1621640" lon="5.7200520">
        <ele>751.0</ele>
        <time>2022-07-25T07:32:46Z</time>
      </trkpt>
      <trkpt lat="46.1620770" lon="5.7200080">
        <ele>751.4</ele>
        <time>2022-07-25T07:32:49Z</time>
      </trkpt>
      <trkpt lat="46.1619650" lon="5.7199400">
        <ele>752.0</ele>
        <time>2022-07-25T07:32:53Z</time>
      </trkpt>
      <trkpt lat="46.1618540" lon="5.7198980">
        <ele>752.6</ele>
        <time>2022-07-25T07:32:57Z</time>
      </trkpt>
      <trkpt lat="46.1618300" lon="5.7198850">
        <ele>752.8</ele>
        <time>2022-07-25T07:32:58Z</time>
      </trkpt>
      <trkpt lat="46.1618020" lon="5.7198770">
        <ele>753.0</ele>
        <time>2022-07-25T07:32:59Z</time>
      </trkpt>
      <trkpt lat="46.1617480" lon="5.7198610">
        <ele>753.4</ele>
        <time>2022-07-25T07:33:01Z</time>
      </trkpt>
      <trkpt lat="46.1616760" lon="5.7198230">
        <ele>753.8</ele>
        <time>2022-07-25T07:33:04Z</time>
      </trkpt>
      <trkpt lat="46.1615820" lon="5.7197650">
        <ele>754.4</ele>
        <time>2022-07-25T07:33:08Z</time>
      </trkpt>
      <trkpt lat="46.1614820" lon="5.7197260">
        <ele>755.0</ele>
        <time>2022-07-25T07:33:12Z</time>
      </trkpt>
      <trkpt lat="46.1614280" lon="5.7197050">
        <ele>755.4</ele>
        <time>2022-07-25T07:33:14Z</time>
      </trkpt>
      <trkpt lat="46.1613050" lon="5.7196580">
        <ele>756.0</ele>
        <time>2022-07-25T07:33:19Z</time>
      </trkpt>
      <trkpt lat="46.1611870" lon="5.7195940">
        <ele>756.8</ele>
        <time>2022-07-25T07:33:24Z</time>
      </trkpt>
      <trkpt lat="46.1611130" lon="5.7195680">
        <ele>757.0</ele>
        <time>2022-07-25T07:33:27Z</time>
      </trkpt>
      <trkpt lat="46.1610000" lon="5.7195050">
        <ele>757.8</ele>
        <time>2022-07-25T07:33:32Z</time>
      </trkpt>
      <trkpt lat="46.1609580" lon="5.7194750">
        <ele>758.0</ele>
        <time>2022-07-25T07:33:34Z</time>
      </trkpt>
      <trkpt lat="46.1608630" lon="5.7194120">
        <ele>758.8</ele>
        <time>2022-07-25T07:33:39Z</time>
      </trkpt>
      <trkpt lat="46.1607800" lon="5.7193430">
        <ele>759.0</ele>
        <time>2022-07-25T07:33:43Z</time>
      </trkpt>
      <trkpt lat="46.1607370" lon="5.7193030">
        <ele>759.6</ele>
        <time>2022-07-25T07:33:45Z</time>
      </trkpt>
      <trkpt lat="46.1606560" lon="5.7192380">
        <ele>760.2</ele>
        <time>2022-07-25T07:33:49Z</time>
      </trkpt>
      <trkpt lat="46.1606130" lon="5.7192090">
        <ele>760.4</ele>
        <time>2022-07-25T07:33:51Z</time>
      </trkpt>
      <trkpt lat="46.1605170" lon="5.7191280">
        <ele>761.2</ele>
        <time>2022-07-25T07:33:55Z</time>
      </trkpt>
      <trkpt lat="46.1604220" lon="5.7190420">
        <ele>761.8</ele>
        <time>2022-07-25T07:33:59Z</time>
      </trkpt>
      <trkpt lat="46.1603500" lon="5.7189780">
        <ele>762.2</ele>
        <time>2022-07-25T07:34:02Z</time>
      </trkpt>
      <trkpt lat="46.1602480" lon="5.7189010">
        <ele>762.4</ele>
        <time>2022-07-25T07:34:06Z</time>
      </trkpt>
      <trkpt lat="46.1601500" lon="5.7188430">
        <ele>763.0</ele>
        <time>2022-07-25T07:34:10Z</time>
      </trkpt>
      <trkpt lat="46.1600740" lon="5.7188000">
        <ele>763.6</ele>
        <time>2022-07-25T07:34:13Z</time>
      </trkpt>
      <trkpt lat="46.1600170" lon="5.7187770">
        <ele>764.2</ele>
        <time>2022-07-25T07:34:15Z</time>
      </trkpt>
      <trkpt lat="46.1599110" lon="5.7187370">
        <ele>764.8</ele>
        <time>2022-07-25T07:34:19Z</time>
      </trkpt>
      <trkpt lat="46.1598610" lon="5.7187240">
        <ele>765.2</ele>
        <time>2022-07-25T07:34:21Z</time>
      </trkpt>
      <trkpt lat="46.1597470" lon="5.7186950">
        <ele>765.8</ele>
        <time>2022-07-25T07:34:25Z</time>
      </trkpt>
      <trkpt lat="46.1596760" lon="5.7186750">
        <ele>766.0</ele>
        <time>2022-07-25T07:34:28Z</time>
      </trkpt>
      <trkpt lat="46.1595890" lon="5.7186490">
        <ele>766.4</ele>
        <time>2022-07-25T07:34:32Z</time>
      </trkpt>
      <trkpt lat="46.1594920" lon="5.7185850">
        <ele>767.0</ele>
        <time>2022-07-25T07:34:36Z</time>
      </trkpt>
      <trkpt lat="46.1594370" lon="5.7185230">
        <ele>767.2</ele>
        <time>2022-07-25T07:34:38Z</time>
      </trkpt>
      <trkpt lat="46.1592970" lon="5.7183400">
        <ele>768.0</ele>
        <time>2022-07-25T07:34:44Z</time>
      </trkpt>
      <trkpt lat="46.1592810" lon="5.7183110">
        <ele>768.0</ele>
        <time>2022-07-25T07:34:45Z</time>
      </trkpt>
      <trkpt lat="46.1591700" lon="5.7181130">
        <ele>769.0</ele>
        <time>2022-07-25T07:34:51Z</time>
      </trkpt>
      <trkpt lat="46.1591550" lon="5.7180860">
        <ele>769.2</ele>
        <time>2022-07-25T07:34:52Z</time>
      </trkpt>
      <trkpt lat="46.1590520" lon="5.7179510">
        <ele>769.8</ele>
        <time>2022-07-25T07:34:57Z</time>
      </trkpt>
      <trkpt lat="46.1590010" lon="5.7179080">
        <ele>770.2</ele>
        <time>2022-07-25T07:34:59Z</time>
      </trkpt>
      <trkpt lat="46.1589020" lon="5.7178340">
        <ele>771.0</ele>
        <time>2022-07-25T07:35:03Z</time>
      </trkpt>
      <trkpt lat="46.1588490" lon="5.7178040">
        <ele>771.4</ele>
        <time>2022-07-25T07:35:05Z</time>
      </trkpt>
      <trkpt lat="46.1587510" lon="5.7177500">
        <ele>772.0</ele>
        <time>2022-07-25T07:35:09Z</time>
      </trkpt>
      <trkpt lat="46.1586400" lon="5.7177090">
        <ele>772.6</ele>
        <time>2022-07-25T07:35:13Z</time>
      </trkpt>
      <trkpt lat="46.1585660" lon="5.7176680">
        <ele>773.0</ele>
        <time>2022-07-25T07:35:16Z</time>
      </trkpt>
      <trkpt lat="46.1585000" lon="5.7176310">
        <ele>773.4</ele>
        <time>2022-07-25T07:35:19Z</time>
      </trkpt>
      <trkpt lat="46.1584360" lon="5.7175920">
        <ele>773.8</ele>
        <time>2022-07-25T07:35:22Z</time>
      </trkpt>
      <trkpt lat="46.1583520" lon="5.7175210">
        <ele>774.6</ele>
        <time>2022-07-25T07:35:26Z</time>
      </trkpt>
      <trkpt lat="46.1582860" lon="5.7174610">
        <ele>775.0</ele>
        <time>2022-07-25T07:35:29Z</time>
      </trkpt>
      <trkpt lat="46.1581880" lon="5.7173840">
        <ele>775.6</ele>
        <time>2022-07-25T07:35:33Z</time>
      </trkpt>
      <trkpt lat="46.1581070" lon="5.7173070">
        <ele>776.2</ele>
        <time>2022-07-25T07:35:36Z</time>
      </trkpt>
      <trkpt lat="46.1579950" lon="5.7172420">
        <ele>776.6</ele>
        <time>2022-07-25T07:35:40Z</time>
      </trkpt>
      <trkpt lat="46.1579060" lon="5.7172120">
        <ele>777.2</ele>
        <time>2022-07-25T07:35:43Z</time>
      </trkpt>
      <trkpt lat="46.1577210" lon="5.7171750">
        <ele>778.2</ele>
        <time>2022-07-25T07:35:49Z</time>
      </trkpt>
      <trkpt lat="46.1576890" lon="5.7171650">
        <ele>778.2</ele>
        <time>2022-07-25T07:35:50Z</time>
      </trkpt>
      <trkpt lat="46.1575310" lon="5.7171240">
        <ele>778.4</ele>
        <time>2022-07-25T07:35:55Z</time>
      </trkpt>
      <trkpt lat="46.1573180" lon="5.7170360">
        <ele>778.6</ele>
        <time>2022-07-25T07:36:01Z</time>
      </trkpt>
      <trkpt lat="46.1571380" lon="5.7169330">
        <ele>778.8</ele>
        <time>2022-07-25T07:36:06Z</time>
      </trkpt>
      <trkpt lat="46.1569050" lon="5.7167990">
        <ele>779.2</ele>
        <time>2022-07-25T07:36:13Z</time>
      </trkpt>
      <trkpt lat="46.1568180" lon="5.7167390">
        <ele>779.2</ele>
        <time>2022-07-25T07:36:16Z</time>
      </trkpt>
      <trkpt lat="46.1566860" lon="5.7166260">
        <ele>779.8</ele>
        <time>2022-07-25T07:36:21Z</time>
      </trkpt>
      <trkpt lat="46.1566100" lon="5.7165220">
        <ele>780.2</ele>
        <time>2022-07-25T07:36:25Z</time>
      </trkpt>
      <trkpt lat="46.1565710" lon="5.7164610">
        <ele>780.4</ele>
        <time>2022-07-25T07:36:27Z</time>
      </trkpt>
      <trkpt lat="46.1564840" lon="5.7163320">
        <ele>781.4</ele>
        <time>2022-07-25T07:36:32Z</time>
      </trkpt>
      <trkpt lat="46.1564520" lon="5.7162840">
        <ele>781.6</ele>
        <time>2022-07-25T07:36:34Z</time>
      </trkpt>
      <trkpt lat="46.1563690" lon="5.7161590">
        <ele>782.4</ele>
        <time>2022-07-25T07:36:39Z</time>
      </trkpt>
      <trkpt lat="46.1563220" lon="5.7160870">
        <ele>783.2</ele>
        <time>2022-07-25T07:36:42Z</time>
      </trkpt>
      <trkpt lat="46.1562790" lon="5.7160050">
        <ele>783.4</ele>
        <time>2022-07-25T07:36:45Z</time>
      </trkpt>
      <trkpt lat="46.1562160" lon="5.7158920">
        <ele>784.2</ele>
        <time>2022-07-25T07:36:49Z</time>
      </trkpt>
      <trkpt lat="46.1561870" lon="5.7158440">
        <ele>784.6</ele>
        <time>2022-07-25T07:36:51Z</time>
      </trkpt>
      <trkpt lat="46.1560780" lon="5.7156730">
        <ele>785.6</ele>
        <time>2022-07-25T07:36:57Z</time>
      </trkpt>
      <trkpt lat="46.1559480" lon="5.7154600">
        <ele>786.6</ele>
        <time>2022-07-25T07:37:05Z</time>
      </trkpt>
      <trkpt lat="46.1558510" lon="5.7153160">
        <ele>787.6</ele>
        <time>2022-07-25T07:37:11Z</time>
      </trkpt>
      <trkpt lat="46.1557860" lon="5.7152230">
        <ele>788.4</ele>
        <time>2022-07-25T07:37:15Z</time>
      </trkpt>
      <trkpt lat="46.1557690" lon="5.7152030">
        <ele>788.8</ele>
        <time>2022-07-25T07:37:16Z</time>
      </trkpt>
      <trkpt lat="46.1556590" lon="5.7150960">
        <ele>789.6</ele>
        <time>2022-07-25T07:37:22Z</time>
      </trkpt>
      <trkpt lat="46.1556040" lon="5.7150510">
        <ele>790.0</ele>
        <time>2022-07-25T07:37:25Z</time>
      </trkpt>
      <trkpt lat="46.1554800" lon="5.7149880">
        <ele>790.8</ele>
        <time>2022-07-25T07:37:31Z</time>
      </trkpt>
      <trkpt lat="46.1554590" lon="5.7149780">
        <ele>791.0</ele>
        <time>2022-07-25T07:37:32Z</time>
      </trkpt>
      <trkpt lat="46.1553240" lon="5.7149250">
        <ele>791.8</ele>
        <time>2022-07-25T07:37:38Z</time>
      </trkpt>
      <trkpt lat="46.1553020" lon="5.7149200">
        <ele>792.0</ele>
        <time>2022-07-25T07:37:39Z</time>
      </trkpt>
      <trkpt lat="46.1551930" lon="5.7148840">
        <ele>793.2</ele>
        <time>2022-07-25T07:37:44Z</time>
      </trkpt>
      <trkpt lat="46.1551070" lon="5.7148490">
        <ele>793.8</ele>
        <time>2022-07-25T07:37:48Z</time>
      </trkpt>
      <trkpt lat="46.1550730" lon="5.7148230">
        <ele>794.2</ele>
        <time>2022-07-25T07:37:50Z</time>
      </trkpt>
      <trkpt lat="46.1550380" lon="5.7147930">
        <ele>794.4</ele>
        <time>2022-07-25T07:37:52Z</time>
      </trkpt>
      <trkpt lat="46.1550050" lon="5.7147660">
        <ele>794.8</ele>
        <time>2022-07-25T07:37:54Z</time>
      </trkpt>
      <trkpt lat="46.1549570" lon="5.7147150">
        <ele>795.4</ele>
        <time>2022-07-25T07:37:57Z</time>
      </trkpt>
      <trkpt lat="46.1548980" lon="5.7146540">
        <ele>796.0</ele>
        <time>2022-07-25T07:38:00Z</time>
      </trkpt>
      <trkpt lat="46.1548500" lon="5.7145990">
        <ele>796.2</ele>
        <time>2022-07-25T07:38:03Z</time>
      </trkpt>
      <trkpt lat="46.1547800" lon="5.7144950">
        <ele>797.2</ele>
        <time>2022-07-25T07:38:08Z</time>
      </trkpt>
      <trkpt lat="46.1546700" lon="5.7143480">
        <ele>798.4</ele>
        <time>2022-07-25T07:38:15Z</time>
      </trkpt>
      <trkpt lat="46.1546570" lon="5.7143290">
        <ele>798.6</ele>
        <time>2022-07-25T07:38:16Z</time>
      </trkpt>
      <trkpt lat="46.1546520" lon="5.7143120">
        <ele>798.8</ele>
        <time>2022-07-25T07:38:17Z</time>
      </trkpt>
      <trkpt lat="46.1546380" lon="5.7142710">
        <ele>799.6</ele>
        <time>2022-07-25T07:38:20Z</time>
      </trkpt>
      <trkpt lat="46.1546290" lon="5.7142520">
        <ele>799.8</ele>
        <time>2022-07-25T07:38:22Z</time>
      </trkpt>
      <trkpt lat="46.1546280" lon="5.7142520">
        <ele>799.8</ele>
        <time>2022-07-25T07:38:23Z</time>
      </trkpt>
      <trkpt lat="46.1547860" lon="5.7142300">
        <ele>800.2</ele>
        <time>2022-07-25T07:42:16Z</time>
      </trkpt>
      <trkpt lat="46.1548160" lon="5.7142120">
        <ele>800.2</ele>
        <time>2022-07-25T07:42:18Z</time>
      </trkpt>
      <trkpt lat="46.1549030" lon="5.7140780">
        <ele>800.8</ele>
        <time>2022-07-25T07:42:26Z</time>
      </trkpt>
      <trkpt lat="46.1549220" lon="5.7140390">
        <ele>801.0</ele>
        <time>2022-07-25T07:42:28Z</time>
      </trkpt>
      <trkpt lat="46.1549520" lon="5.7139620">
        <ele>802.0</ele>
        <time>2022-07-25T07:42:32Z</time>
      </trkpt>
      <trkpt lat="46.1549600" lon="5.7139440">
        <ele>802.4</ele>
        <time>2022-07-25T07:42:33Z</time>
      </trkpt>
      <trkpt lat="46.1549780" lon="5.7138740">
        <ele>803.2</ele>
        <time>2022-07-25T07:42:37Z</time>
      </trkpt>
      <trkpt lat="46.1549800" lon="5.7137920">
        <ele>804.2</ele>
        <time>2022-07-25T07:42:41Z</time>
      </trkpt>
      <trkpt lat="46.1549670" lon="5.7136690">
        <ele>805.4</ele>
        <time>2022-07-25T07:42:47Z</time>
      </trkpt>
      <trkpt lat="46.1549630" lon="5.7136470">
        <ele>805.4</ele>
        <time>2022-07-25T07:42:48Z</time>
      </trkpt>
      <trkpt lat="46.1549390" lon="5.7135170">
        <ele>806.4</ele>
        <time>2022-07-25T07:42:54Z</time>
      </trkpt>
      <trkpt lat="46.1549300" lon="5.7134750">
        <ele>806.8</ele>
        <time>2022-07-25T07:42:56Z</time>
      </trkpt>
      <trkpt lat="46.1549070" lon="5.7133740">
        <ele>807.4</ele>
        <time>2022-07-25T07:43:01Z</time>
      </trkpt>
      <trkpt lat="46.1548950" lon="5.7133150">
        <ele>808.0</ele>
        <time>2022-07-25T07:43:04Z</time>
      </trkpt>
      <trkpt lat="46.1548760" lon="5.7132580">
        <ele>808.6</ele>
        <time>2022-07-25T07:43:07Z</time>
      </trkpt>
      <trkpt lat="46.1548590" lon="5.7131990">
        <ele>809.2</ele>
        <time>2022-07-25T07:43:10Z</time>
      </trkpt>
      <trkpt lat="46.1548440" lon="5.7131530">
        <ele>809.8</ele>
        <time>2022-07-25T07:43:12Z</time>
      </trkpt>
      <trkpt lat="46.1548260" lon="5.7130820">
        <ele>810.8</ele>
        <time>2022-07-25T07:43:16Z</time>
      </trkpt>
      <trkpt lat="46.1547930" lon="5.7129530">
        <ele>811.8</ele>
        <time>2022-07-25T07:43:23Z</time>
      </trkpt>
      <trkpt lat="46.1547880" lon="5.7129330">
        <ele>812.0</ele>
        <time>2022-07-25T07:43:24Z</time>
      </trkpt>
      <trkpt lat="46.1547640" lon="5.7128410">
        <ele>812.6</ele>
        <time>2022-07-25T07:43:28Z</time>
      </trkpt>
      <trkpt lat="46.1547400" lon="5.7127660">
        <ele>812.8</ele>
        <time>2022-07-25T07:43:31Z</time>
      </trkpt>
      <trkpt lat="46.1546940" lon="5.7126430">
        <ele>814.0</ele>
        <time>2022-07-25T07:43:36Z</time>
      </trkpt>
      <trkpt lat="46.1546840" lon="5.7126180">
        <ele>814.0</ele>
        <time>2022-07-25T07:43:37Z</time>
      </trkpt>
      <trkpt lat="46.1545970" lon="5.7124330">
        <ele>815.0</ele>
        <time>2022-07-25T07:43:45Z</time>
      </trkpt>
      <trkpt lat="46.1544690" lon="5.7122570">
        <ele>815.8</ele>
        <time>2022-07-25T07:43:53Z</time>
      </trkpt>
      <trkpt lat="46.1544520" lon="5.7122360">
        <ele>816.0</ele>
        <time>2022-07-25T07:43:54Z</time>
      </trkpt>
      <trkpt lat="46.1543500" lon="5.7121360">
        <ele>816.6</ele>
        <time>2022-07-25T07:43:59Z</time>
      </trkpt>
      <trkpt lat="46.1542440" lon="5.7120490">
        <ele>817.2</ele>
        <time>2022-07-25T07:44:04Z</time>
      </trkpt>
      <trkpt lat="46.1542080" lon="5.7120210">
        <ele>817.2</ele>
        <time>2022-07-25T07:44:06Z</time>
      </trkpt>
      <trkpt lat="46.1540490" lon="5.7119060">
        <ele>817.8</ele>
        <time>2022-07-25T07:44:13Z</time>
      </trkpt>
      <trkpt lat="46.1539620" lon="5.7118290">
        <ele>818.2</ele>
        <time>2022-07-25T07:44:17Z</time>
      </trkpt>
      <trkpt lat="46.1538990" lon="5.7117590">
        <ele>818.8</ele>
        <time>2022-07-25T07:44:20Z</time>
      </trkpt>
      <trkpt lat="46.1538480" lon="5.7116830">
        <ele>819.4</ele>
        <time>2022-07-25T07:44:23Z</time>
      </trkpt>
      <trkpt lat="46.1537570" lon="5.7115320">
        <ele>820.4</ele>
        <time>2022-07-25T07:44:28Z</time>
      </trkpt>
      <trkpt lat="46.1536480" lon="5.7113260">
        <ele>821.4</ele>
        <time>2022-07-25T07:44:35Z</time>
      </trkpt>
      <trkpt lat="46.1536350" lon="5.7113010">
        <ele>821.6</ele>
        <time>2022-07-25T07:44:36Z</time>
      </trkpt>
      <trkpt lat="46.1535410" lon="5.7111220">
        <ele>822.6</ele>
        <time>2022-07-25T07:44:42Z</time>
      </trkpt>
      <trkpt lat="46.1535100" lon="5.7110490">
        <ele>822.8</ele>
        <time>2022-07-25T07:44:44Z</time>
      </trkpt>
      <trkpt lat="46.1533780" lon="5.7107860">
        <ele>823.0</ele>
        <time>2022-07-25T07:44:50Z</time>
      </trkpt>
      <trkpt lat="46.1531080" lon="5.7103310">
        <ele>822.8</ele>
        <time>2022-07-25T07:44:59Z</time>
      </trkpt>
      <trkpt lat="46.1528280" lon="5.7099940">
        <ele>822.4</ele>
        <time>2022-07-25T07:45:07Z</time>
      </trkpt>
      <trkpt lat="46.1526520" lon="5.7098590">
        <ele>822.6</ele>
        <time>2022-07-25T07:45:13Z</time>
      </trkpt>
      <trkpt lat="46.1525740" lon="5.7097970">
        <ele>823.4</ele>
        <time>2022-07-25T07:45:17Z</time>
      </trkpt>
      <trkpt lat="46.1525170" lon="5.7097370">
        <ele>824.2</ele>
        <time>2022-07-25T07:45:20Z</time>
      </trkpt>
      <trkpt lat="46.1524940" lon="5.7097150">
        <ele>824.6</ele>
        <time>2022-07-25T07:45:21Z</time>
      </trkpt>
      <trkpt lat="46.1524100" lon="5.7096330">
        <ele>825.6</ele>
        <time>2022-07-25T07:45:25Z</time>
      </trkpt>
      <trkpt lat="46.1523950" lon="5.7096150">
        <ele>825.8</ele>
        <time>2022-07-25T07:45:26Z</time>
      </trkpt>
      <trkpt lat="46.1523130" lon="5.7095160">
        <ele>826.6</ele>
        <time>2022-07-25T07:45:30Z</time>
      </trkpt>
      <trkpt lat="46.1522600" lon="5.7094490">
        <ele>827.0</ele>
        <time>2022-07-25T07:45:33Z</time>
      </trkpt>
      <trkpt lat="46.1521760" lon="5.7093290">
        <ele>827.4</ele>
        <time>2022-07-25T07:45:38Z</time>
      </trkpt>
      <trkpt lat="46.1521320" lon="5.7092590">
        <ele>828.0</ele>
        <time>2022-07-25T07:45:41Z</time>
      </trkpt>
      <trkpt lat="46.1520720" lon="5.7091530">
        <ele>828.6</ele>
        <time>2022-07-25T07:45:45Z</time>
      </trkpt>
      <trkpt lat="46.1519610" lon="5.7089570">
        <ele>829.8</ele>
        <time>2022-07-25T07:45:52Z</time>
      </trkpt>
      <trkpt lat="46.1518390" lon="5.7086870">
        <ele>830.8</ele>
        <time>2022-07-25T07:46:01Z</time>
      </trkpt>
      <trkpt lat="46.1518280" lon="5.7086570">
        <ele>831.0</ele>
        <time>2022-07-25T07:46:02Z</time>
      </trkpt>
      <trkpt lat="46.1517290" lon="5.7084020">
        <ele>832.2</ele>
        <time>2022-07-25T07:46:10Z</time>
      </trkpt>
      <trkpt lat="46.1516270" lon="5.7081320">
        <ele>833.2</ele>
        <time>2022-07-25T07:46:18Z</time>
      </trkpt>
      <trkpt lat="46.1516130" lon="5.7080990">
        <ele>833.4</ele>
        <time>2022-07-25T07:46:19Z</time>
      </trkpt>
      <trkpt lat="46.1514850" lon="5.7077790">
        <ele>834.0</ele>
        <time>2022-07-25T07:46:28Z</time>
      </trkpt>
      <trkpt lat="46.1513200" lon="5.7074300">
        <ele>834.6</ele>
        <time>2022-07-25T07:46:38Z</time>
      </trkpt>
      <trkpt lat="46.1511990" lon="5.7071900">
        <ele>835.2</ele>
        <time>2022-07-25T07:46:44Z</time>
      </trkpt>
      <trkpt lat="46.1511720" lon="5.7071470">
        <ele>835.2</ele>
        <time>2022-07-25T07:46:45Z</time>
      </trkpt>
      <trkpt lat="46.1509470" lon="5.7067850">
        <ele>835.2</ele>
        <time>2022-07-25T07:46:53Z</time>
      </trkpt>
      <trkpt lat="46.1509170" lon="5.7067370">
        <ele>835.2</ele>
        <time>2022-07-25T07:46:54Z</time>
      </trkpt>
      <trkpt lat="46.1507410" lon="5.7064340">
        <ele>834.8</ele>
        <time>2022-07-25T07:47:00Z</time>
      </trkpt>
      <trkpt lat="46.1505790" lon="5.7061010">
        <ele>834.4</ele>
        <time>2022-07-25T07:47:07Z</time>
      </trkpt>
      <trkpt lat="46.1503890" lon="5.7058350">
        <ele>834.6</ele>
        <time>2022-07-25T07:47:14Z</time>
      </trkpt>
      <trkpt lat="46.1502330" lon="5.7056720">
        <ele>835.0</ele>
        <time>2022-07-25T07:47:19Z</time>
      </trkpt>
      <trkpt lat="46.1501460" lon="5.7056340">
        <ele>835.0</ele>
        <time>2022-07-25T07:47:21Z</time>
      </trkpt>
      <trkpt lat="46.1501000" lon="5.7056200">
        <ele>835.0</ele>
        <time>2022-07-25T07:47:22Z</time>
      </trkpt>
      <trkpt lat="46.1499080" lon="5.7056240">
        <ele>835.0</ele>
        <time>2022-07-25T07:47:26Z</time>
      </trkpt>
      <trkpt lat="46.1496440" lon="5.7056330">
        <ele>835.0</ele>
        <time>2022-07-25T07:47:32Z</time>
      </trkpt>
      <trkpt lat="46.1493300" lon="5.7055890">
        <ele>835.4</ele>
        <time>2022-07-25T07:47:41Z</time>
      </trkpt>
      <trkpt lat="46.1492370" lon="5.7055710">
        <ele>835.8</ele>
        <time>2022-07-25T07:47:44Z</time>
      </trkpt>
      <trkpt lat="46.1492000" lon="5.7055430">
        <ele>836.0</ele>
        <time>2022-07-25T07:47:46Z</time>
      </trkpt>
      <trkpt lat="46.1491930" lon="5.7054240">
        <ele>836.4</ele>
        <time>2022-07-25T07:47:50Z</time>
      </trkpt>
      <trkpt lat="46.1491960" lon="5.7053900">
        <ele>836.6</ele>
        <time>2022-07-25T07:47:51Z</time>
      </trkpt>
      <trkpt lat="46.1491990" lon="5.7053550">
        <ele>836.8</ele>
        <time>2022-07-25T07:47:52Z</time>
      </trkpt>
      <trkpt lat="46.1492070" lon="5.7053200">
        <ele>837.0</ele>
        <time>2022-07-25T07:47:53Z</time>
      </trkpt>
      <trkpt lat="46.1492240" lon="5.7052070">
        <ele>837.4</ele>
        <time>2022-07-25T07:47:56Z</time>
      </trkpt>
      <trkpt lat="46.1492730" lon="5.7050000">
        <ele>837.4</ele>
        <time>2022-07-25T07:48:01Z</time>
      </trkpt>
      <trkpt lat="46.1492680" lon="5.7047630">
        <ele>837.2</ele>
        <time>2022-07-25T07:48:07Z</time>
      </trkpt>
      <trkpt lat="46.1491730" lon="5.7045900">
        <ele>837.2</ele>
        <time>2022-07-25T07:48:13Z</time>
      </trkpt>
      <trkpt lat="46.1490750" lon="5.7044410">
        <ele>837.2</ele>
        <time>2022-07-25T07:48:20Z</time>
      </trkpt>
      <trkpt lat="46.1490380" lon="5.7043640">
        <ele>837.8</ele>
        <time>2022-07-25T07:48:24Z</time>
      </trkpt>
      <trkpt lat="46.1490190" lon="5.7043300">
        <ele>838.2</ele>
        <time>2022-07-25T07:48:26Z</time>
      </trkpt>
      <trkpt lat="46.1489910" lon="5.7042740">
        <ele>839.0</ele>
        <time>2022-07-25T07:48:29Z</time>
      </trkpt>
      <trkpt lat="46.1489260" lon="5.7041760">
        <ele>840.2</ele>
        <time>2022-07-25T07:48:34Z</time>
      </trkpt>
      <trkpt lat="46.1488170" lon="5.7040380">
        <ele>841.0</ele>
        <time>2022-07-25T07:48:41Z</time>
      </trkpt>
      <trkpt lat="46.1487730" lon="5.7039840">
        <ele>841.2</ele>
        <time>2022-07-25T07:48:44Z</time>
      </trkpt>
      <trkpt lat="46.1487250" lon="5.7039350">
        <ele>841.6</ele>
        <time>2022-07-25T07:48:47Z</time>
      </trkpt>
      <trkpt lat="46.1486460" lon="5.7038440">
        <ele>842.4</ele>
        <time>2022-07-25T07:48:52Z</time>
      </trkpt>
      <trkpt lat="46.1486320" lon="5.7038210">
        <ele>842.6</ele>
        <time>2022-07-25T07:48:53Z</time>
      </trkpt>
      <trkpt lat="46.1485770" lon="5.7036660">
        <ele>843.2</ele>
        <time>2022-07-25T07:48:59Z</time>
      </trkpt>
      <trkpt lat="46.1485610" lon="5.7036140">
        <ele>843.6</ele>
        <time>2022-07-25T07:49:01Z</time>
      </trkpt>
      <trkpt lat="46.1485330" lon="5.7035410">
        <ele>843.8</ele>
        <time>2022-07-25T07:49:04Z</time>
      </trkpt>
      <trkpt lat="46.1484850" lon="5.7033410">
        <ele>844.6</ele>
        <time>2022-07-25T07:49:11Z</time>
      </trkpt>
      <trkpt lat="46.1484800" lon="5.7033130">
        <ele>844.6</ele>
        <time>2022-07-25T07:49:12Z</time>
      </trkpt>
      <trkpt lat="46.1484200" lon="5.7030490">
        <ele>845.4</ele>
        <time>2022-07-25T07:49:20Z</time>
      </trkpt>
      <trkpt lat="46.1483960" lon="5.7029290">
        <ele>845.6</ele>
        <time>2022-07-25T07:49:24Z</time>
      </trkpt>
      <trkpt lat="46.1483800" lon="5.7028450">
        <ele>846.0</ele>
        <time>2022-07-25T07:49:27Z</time>
      </trkpt>
      <trkpt lat="46.1483450" lon="5.7026490">
        <ele>846.6</ele>
        <time>2022-07-25T07:49:34Z</time>
      </trkpt>
      <trkpt lat="46.1483170" lon="5.7024690">
        <ele>847.0</ele>
        <time>2022-07-25T07:49:40Z</time>
      </trkpt>
      <trkpt lat="46.1482930" lon="5.7023290">
        <ele>847.6</ele>
        <time>2022-07-25T07:49:45Z</time>
      </trkpt>
      <trkpt lat="46.1482860" lon="5.7023030">
        <ele>847.6</ele>
        <time>2022-07-25T07:49:46Z</time>
      </trkpt>
      <trkpt lat="46.1482290" lon="5.7021010">
        <ele>848.6</ele>
        <time>2022-07-25T07:49:54Z</time>
      </trkpt>
      <trkpt lat="46.1481830" lon="5.7019170">
        <ele>849.6</ele>
        <time>2022-07-25T07:50:01Z</time>
      </trkpt>
      <trkpt lat="46.1481750" lon="5.7018860">
        <ele>849.8</ele>
        <time>2022-07-25T07:50:02Z</time>
      </trkpt>
      <trkpt lat="46.1481190" lon="5.7016610">
        <ele>850.6</ele>
        <time>2022-07-25T07:50:10Z</time>
      </trkpt>
      <trkpt lat="46.1480950" lon="5.7015450">
        <ele>851.0</ele>
        <time>2022-07-25T07:50:14Z</time>
      </trkpt>
      <trkpt lat="46.1480700" lon="5.7014550">
        <ele>851.2</ele>
        <time>2022-07-25T07:50:17Z</time>
      </trkpt>
      <trkpt lat="46.1480080" lon="5.7012960">
        <ele>851.8</ele>
        <time>2022-07-25T07:50:23Z</time>
      </trkpt>
      <trkpt lat="46.1479940" lon="5.7012770">
        <ele>852.0</ele>
        <time>2022-07-25T07:50:24Z</time>
      </trkpt>
      <trkpt lat="46.1478700" lon="5.7011790">
        <ele>852.8</ele>
        <time>2022-07-25T07:50:30Z</time>
      </trkpt>
      <trkpt lat="46.1477360" lon="5.7010530">
        <ele>853.6</ele>
        <time>2022-07-25T07:50:37Z</time>
      </trkpt>
      <trkpt lat="46.1476990" lon="5.7009980">
        <ele>853.8</ele>
        <time>2022-07-25T07:50:39Z</time>
      </trkpt>
      <trkpt lat="46.1476080" lon="5.7008710">
        <ele>854.6</ele>
        <time>2022-07-25T07:50:44Z</time>
      </trkpt>
      <trkpt lat="46.1475190" lon="5.7007350">
        <ele>855.0</ele>
        <time>2022-07-25T07:50:49Z</time>
      </trkpt>
      <trkpt lat="46.1474830" lon="5.7006820">
        <ele>855.0</ele>
        <time>2022-07-25T07:50:51Z</time>
      </trkpt>
      <trkpt lat="46.1474010" lon="5.7005540">
        <ele>855.6</ele>
        <time>2022-07-25T07:50:57Z</time>
      </trkpt>
      <trkpt lat="46.1473180" lon="5.7004880">
        <ele>856.0</ele>
        <time>2022-07-25T07:51:02Z</time>
      </trkpt>
      <trkpt lat="46.1472850" lon="5.7004530">
        <ele>856.2</ele>
        <time>2022-07-25T07:51:04Z</time>
      </trkpt>
      <trkpt lat="46.1471930" lon="5.7003670">
        <ele>857.2</ele>
        <time>2022-07-25T07:51:10Z</time>
      </trkpt>
      <trkpt lat="46.1471790" lon="5.7003580">
        <ele>857.2</ele>
        <time>2022-07-25T07:51:11Z</time>
      </trkpt>
      <trkpt lat="46.1470660" lon="5.7002900">
        <ele>858.2</ele>
        <time>2022-07-25T07:51:18Z</time>
      </trkpt>
      <trkpt lat="46.1469880" lon="5.7002750">
        <ele>858.8</ele>
        <time>2022-07-25T07:51:23Z</time>
      </trkpt>
      <trkpt lat="46.1469750" lon="5.7002560">
        <ele>859.0</ele>
        <time>2022-07-25T07:51:24Z</time>
      </trkpt>
      <trkpt lat="46.1469500" lon="5.7002080">
        <ele>859.6</ele>
        <time>2022-07-25T07:51:26Z</time>
      </trkpt>
      <trkpt lat="46.1469030" lon="5.7000400">
        <ele>860.4</ele>
        <time>2022-07-25T07:51:32Z</time>
      </trkpt>
      <trkpt lat="46.1468840" lon="5.6999860">
        <ele>860.6</ele>
        <time>2022-07-25T07:51:34Z</time>
      </trkpt>
      <trkpt lat="46.1468260" lon="5.6998410">
        <ele>861.4</ele>
        <time>2022-07-25T07:51:39Z</time>
      </trkpt>
      <trkpt lat="46.1468060" lon="5.6997850">
        <ele>861.6</ele>
        <time>2022-07-25T07:51:41Z</time>
      </trkpt>
      <trkpt lat="46.1467260" lon="5.6995890">
        <ele>862.2</ele>
        <time>2022-07-25T07:51:48Z</time>
      </trkpt>
      <trkpt lat="46.1467140" lon="5.6995590">
        <ele>862.6</ele>
        <time>2022-07-25T07:51:49Z</time>
      </trkpt>
      <trkpt lat="46.1466310" lon="5.6994040">
        <ele>863.8</ele>
        <time>2022-07-25T07:51:55Z</time>
      </trkpt>
      <trkpt lat="46.1465990" lon="5.6993530">
        <ele>863.8</ele>
        <time>2022-07-25T07:51:57Z</time>
      </trkpt>
      <trkpt lat="46.1464810" lon="5.6991790">
        <ele>864.6</ele>
        <time>2022-07-25T07:52:04Z</time>
      </trkpt>
      <trkpt lat="46.1464370" lon="5.6991030">
        <ele>864.8</ele>
        <time>2022-07-25T07:52:07Z</time>
      </trkpt>
      <trkpt lat="46.1464050" lon="5.6990120">
        <ele>865.2</ele>
        <time>2022-07-25T07:52:11Z</time>
      </trkpt>
      <trkpt lat="46.1463920" lon="5.6989780">
        <ele>865.2</ele>
        <time>2022-07-25T07:52:13Z</time>
      </trkpt>
      <trkpt lat="46.1463590" lon="5.6989920">
        <ele>865.4</ele>
        <time>2022-07-25T07:52:16Z</time>
      </trkpt>
      <trkpt lat="46.1462980" lon="5.6991560">
        <ele>865.6</ele>
        <time>2022-07-25T07:52:21Z</time>
      </trkpt>
      <trkpt lat="46.1462840" lon="5.6991810">
        <ele>865.6</ele>
        <time>2022-07-25T07:52:22Z</time>
      </trkpt>
      <trkpt lat="46.1462700" lon="5.6992270">
        <ele>865.8</ele>
        <time>2022-07-25T07:52:24Z</time>
      </trkpt>
      <trkpt lat="46.1462890" lon="5.6992350">
        <ele>866.0</ele>
        <time>2022-07-25T07:52:26Z</time>
      </trkpt>
      <trkpt lat="46.1463390" lon="5.6991180">
        <ele>866.0</ele>
        <time>2022-07-25T07:52:30Z</time>
      </trkpt>
      <trkpt lat="46.1463490" lon="5.6990820">
        <ele>866.0</ele>
        <time>2022-07-25T07:52:31Z</time>
      </trkpt>
      <trkpt lat="46.1463720" lon="5.6989000">
        <ele>866.0</ele>
        <time>2022-07-25T07:52:36Z</time>
      </trkpt>
      <trkpt lat="46.1463600" lon="5.6985900">
        <ele>865.8</ele>
        <time>2022-07-25T07:52:42Z</time>
      </trkpt>
      <trkpt lat="46.1463680" lon="5.6984720">
        <ele>865.6</ele>
        <time>2022-07-25T07:52:44Z</time>
      </trkpt>
      <trkpt lat="46.1464070" lon="5.6982470">
        <ele>865.4</ele>
        <time>2022-07-25T07:52:47Z</time>
      </trkpt>
      <trkpt lat="46.1464350" lon="5.6980800">
        <ele>865.2</ele>
        <time>2022-07-25T07:52:49Z</time>
      </trkpt>
      <trkpt lat="46.1464230" lon="5.6978520">
        <ele>865.2</ele>
        <time>2022-07-25T07:52:52Z</time>
      </trkpt>
      <trkpt lat="46.1464100" lon="5.6977890">
        <ele>865.0</ele>
        <time>2022-07-25T07:52:53Z</time>
      </trkpt>
      <trkpt lat="46.1464000" lon="5.6977350">
        <ele>864.6</ele>
        <time>2022-07-25T07:52:54Z</time>
      </trkpt>
      <trkpt lat="46.1463980" lon="5.6976560">
        <ele>864.0</ele>
        <time>2022-07-25T07:52:56Z</time>
      </trkpt>
      <trkpt lat="46.1464250" lon="5.6975880">
        <ele>863.4</ele>
        <time>2022-07-25T07:52:58Z</time>
      </trkpt>
      <trkpt lat="46.1464940" lon="5.6975250">
        <ele>862.6</ele>
        <time>2022-07-25T07:53:00Z</time>
      </trkpt>
      <trkpt lat="46.1465340" lon="5.6974860">
        <ele>862.2</ele>
        <time>2022-07-25T07:53:01Z</time>
      </trkpt>
      <trkpt lat="46.1465760" lon="5.6974440">
        <ele>862.0</ele>
        <time>2022-07-25T07:53:02Z</time>
      </trkpt>
      <trkpt lat="46.1466470" lon="5.6973500">
        <ele>861.4</ele>
        <time>2022-07-25T07:53:04Z</time>
      </trkpt>
      <trkpt lat="46.1466780" lon="5.6972950">
        <ele>861.0</ele>
        <time>2022-07-25T07:53:05Z</time>
      </trkpt>
      <trkpt lat="46.1466810" lon="5.6970710">
        <ele>860.0</ele>
        <time>2022-07-25T07:53:08Z</time>
      </trkpt>
      <trkpt lat="46.1466450" lon="5.6969150">
        <ele>859.0</ele>
        <time>2022-07-25T07:53:10Z</time>
      </trkpt>
      <trkpt lat="46.1466260" lon="5.6968390">
        <ele>858.6</ele>
        <time>2022-07-25T07:53:11Z</time>
      </trkpt>
      <trkpt lat="46.1465670" lon="5.6965960">
        <ele>857.0</ele>
        <time>2022-07-25T07:53:14Z</time>
      </trkpt>
      <trkpt lat="46.1465400" lon="5.6964340">
        <ele>856.0</ele>
        <time>2022-07-25T07:53:16Z</time>
      </trkpt>
      <trkpt lat="46.1464830" lon="5.6961720">
        <ele>854.6</ele>
        <time>2022-07-25T07:53:19Z</time>
      </trkpt>
      <trkpt lat="46.1464280" lon="5.6959130">
        <ele>853.6</ele>
        <time>2022-07-25T07:53:22Z</time>
      </trkpt>
      <trkpt lat="46.1463940" lon="5.6957240">
        <ele>852.6</ele>
        <time>2022-07-25T07:53:24Z</time>
      </trkpt>
      <trkpt lat="46.1463470" lon="5.6954390">
        <ele>851.2</ele>
        <time>2022-07-25T07:53:27Z</time>
      </trkpt>
      <trkpt lat="46.1463110" lon="5.6952860">
        <ele>850.4</ele>
        <time>2022-07-25T07:53:29Z</time>
      </trkpt>
      <trkpt lat="46.1462960" lon="5.6952140">
        <ele>850.0</ele>
        <time>2022-07-25T07:53:30Z</time>
      </trkpt>
      <trkpt lat="46.1462690" lon="5.6950700">
        <ele>849.4</ele>
        <time>2022-07-25T07:53:32Z</time>
      </trkpt>
      <trkpt lat="46.1462650" lon="5.6949930">
        <ele>849.0</ele>
        <time>2022-07-25T07:53:33Z</time>
      </trkpt>
      <trkpt lat="46.1462670" lon="5.6949190">
        <ele>848.2</ele>
        <time>2022-07-25T07:53:34Z</time>
      </trkpt>
      <trkpt lat="46.1462660" lon="5.6948420">
        <ele>847.6</ele>
        <time>2022-07-25T07:53:35Z</time>
      </trkpt>
      <trkpt lat="46.1462640" lon="5.6946010">
        <ele>846.2</ele>
        <time>2022-07-25T07:53:38Z</time>
      </trkpt>
      <trkpt lat="46.1462570" lon="5.6945220">
        <ele>845.8</ele>
        <time>2022-07-25T07:53:39Z</time>
      </trkpt>
      <trkpt lat="46.1462410" lon="5.6944480">
        <ele>845.4</ele>
        <time>2022-07-25T07:53:40Z</time>
      </trkpt>
      <trkpt lat="46.1461790" lon="5.6943060">
        <ele>844.8</ele>
        <time>2022-07-25T07:53:42Z</time>
      </trkpt>
      <trkpt lat="46.1461430" lon="5.6942400">
        <ele>844.4</ele>
        <time>2022-07-25T07:53:43Z</time>
      </trkpt>
      <trkpt lat="46.1461050" lon="5.6941750">
        <ele>844.2</ele>
        <time>2022-07-25T07:53:44Z</time>
      </trkpt>
      <trkpt lat="46.1460650" lon="5.6941070">
        <ele>843.8</ele>
        <time>2022-07-25T07:53:45Z</time>
      </trkpt>
      <trkpt lat="46.1459840" lon="5.6939570">
        <ele>842.4</ele>
        <time>2022-07-25T07:53:47Z</time>
      </trkpt>
      <trkpt lat="46.1459150" lon="5.6937770">
        <ele>841.2</ele>
        <time>2022-07-25T07:53:49Z</time>
      </trkpt>
      <trkpt lat="46.1458080" lon="5.6934740">
        <ele>839.4</ele>
        <time>2022-07-25T07:53:52Z</time>
      </trkpt>
      <trkpt lat="46.1457390" lon="5.6932680">
        <ele>838.8</ele>
        <time>2022-07-25T07:53:54Z</time>
      </trkpt>
      <trkpt lat="46.1456740" lon="5.6930730">
        <ele>838.4</ele>
        <time>2022-07-25T07:53:56Z</time>
      </trkpt>
      <trkpt lat="46.1456050" lon="5.6929000">
        <ele>837.2</ele>
        <time>2022-07-25T07:53:58Z</time>
      </trkpt>
      <trkpt lat="46.1455630" lon="5.6928260">
        <ele>837.0</ele>
        <time>2022-07-25T07:53:59Z</time>
      </trkpt>
      <trkpt lat="46.1454790" lon="5.6927240">
        <ele>836.0</ele>
        <time>2022-07-25T07:54:01Z</time>
      </trkpt>
      <trkpt lat="46.1454410" lon="5.6926860">
        <ele>835.6</ele>
        <time>2022-07-25T07:54:02Z</time>
      </trkpt>
      <trkpt lat="46.1454020" lon="5.6926530">
        <ele>835.2</ele>
        <time>2022-07-25T07:54:03Z</time>
      </trkpt>
      <trkpt lat="46.1453670" lon="5.6926210">
        <ele>835.0</ele>
        <time>2022-07-25T07:54:04Z</time>
      </trkpt>
      <trkpt lat="46.1452560" lon="5.6924720">
        <ele>834.4</ele>
        <time>2022-07-25T07:54:08Z</time>
      </trkpt>
      <trkpt lat="46.1451490" lon="5.6922720">
        <ele>834.4</ele>
        <time>2022-07-25T07:54:14Z</time>
      </trkpt>
      <trkpt lat="46.1450430" lon="5.6920620">
        <ele>835.4</ele>
        <time>2022-07-25T07:54:21Z</time>
      </trkpt>
      <trkpt lat="46.1449940" lon="5.6919630">
        <ele>835.8</ele>
        <time>2022-07-25T07:54:24Z</time>
      </trkpt>
      <trkpt lat="46.1449000" lon="5.6917600">
        <ele>836.4</ele>
        <time>2022-07-25T07:54:30Z</time>
      </trkpt>
      <trkpt lat="46.1448000" lon="5.6914890">
        <ele>836.8</ele>
        <time>2022-07-25T07:54:37Z</time>
      </trkpt>
      <trkpt lat="46.1447280" lon="5.6913590">
        <ele>836.8</ele>
        <time>2022-07-25T07:54:41Z</time>
      </trkpt>
      <trkpt lat="46.1446820" lon="5.6912680">
        <ele>837.0</ele>
        <time>2022-07-25T07:54:44Z</time>
      </trkpt>
      <trkpt lat="46.1445870" lon="5.6910860">
        <ele>837.8</ele>
        <time>2022-07-25T07:54:51Z</time>
      </trkpt>
      <trkpt lat="46.1445050" lon="5.6909470">
        <ele>839.0</ele>
        <time>2022-07-25T07:54:58Z</time>
      </trkpt>
      <trkpt lat="46.1444970" lon="5.6909260">
        <ele>839.2</ele>
        <time>2022-07-25T07:54:59Z</time>
      </trkpt>
      <trkpt lat="46.1444440" lon="5.6907920">
        <ele>840.2</ele>
        <time>2022-07-25T07:55:05Z</time>
      </trkpt>
      <trkpt lat="46.1444390" lon="5.6907730">
        <ele>840.2</ele>
        <time>2022-07-25T07:55:06Z</time>
      </trkpt>
      <trkpt lat="46.1444080" lon="5.6906340">
        <ele>841.0</ele>
        <time>2022-07-25T07:55:12Z</time>
      </trkpt>
      <trkpt lat="46.1444020" lon="5.6906120">
        <ele>841.2</ele>
        <time>2022-07-25T07:55:13Z</time>
      </trkpt>
      <trkpt lat="46.1443490" lon="5.6904930">
        <ele>842.2</ele>
        <time>2022-07-25T07:55:18Z</time>
      </trkpt>
      <trkpt lat="46.1442460" lon="5.6903200">
        <ele>843.2</ele>
        <time>2022-07-25T07:55:26Z</time>
      </trkpt>
      <trkpt lat="46.1442280" lon="5.6902980">
        <ele>843.4</ele>
        <time>2022-07-25T07:55:27Z</time>
      </trkpt>
      <trkpt lat="46.1441230" lon="5.6901840">
        <ele>843.8</ele>
        <time>2022-07-25T07:55:32Z</time>
      </trkpt>
      <trkpt lat="46.1439390" lon="5.6900630">
        <ele>844.4</ele>
        <time>2022-07-25T07:55:39Z</time>
      </trkpt>
      <trkpt lat="46.1438330" lon="5.6899790">
        <ele>844.4</ele>
        <time>2022-07-25T07:55:44Z</time>
      </trkpt>
      <trkpt lat="46.1438180" lon="5.6899560">
        <ele>844.4</ele>
        <time>2022-07-25T07:55:45Z</time>
      </trkpt>
      <trkpt lat="46.1437980" lon="5.6899080">
        <ele>844.4</ele>
        <time>2022-07-25T07:55:47Z</time>
      </trkpt>
      <trkpt lat="46.1438090" lon="5.6898420">
        <ele>844.4</ele>
        <time>2022-07-25T07:55:49Z</time>
      </trkpt>
      <trkpt lat="46.1438520" lon="5.6896160">
        <ele>844.4</ele>
        <time>2022-07-25T07:55:54Z</time>
      </trkpt>
      <trkpt lat="46.1438470" lon="5.6895550">
        <ele>844.4</ele>
        <time>2022-07-25T07:55:55Z</time>
      </trkpt>
      <trkpt lat="46.1437700" lon="5.6892960">
        <ele>844.2</ele>
        <time>2022-07-25T07:55:59Z</time>
      </trkpt>
      <trkpt lat="46.1436630" lon="5.6890800">
        <ele>843.4</ele>
        <time>2022-07-25T07:56:03Z</time>
      </trkpt>
      <trkpt lat="46.1436350" lon="5.6890380">
        <ele>843.0</ele>
        <time>2022-07-25T07:56:04Z</time>
      </trkpt>
      <trkpt lat="46.1435280" lon="5.6888830">
        <ele>842.2</ele>
        <time>2022-07-25T07:56:07Z</time>
      </trkpt>
      <trkpt lat="46.1434570" lon="5.6887790">
        <ele>841.8</ele>
        <time>2022-07-25T07:56:09Z</time>
      </trkpt>
      <trkpt lat="46.1433640" lon="5.6886330">
        <ele>840.8</ele>
        <time>2022-07-25T07:56:12Z</time>
      </trkpt>
      <trkpt lat="46.1432980" lon="5.6885290">
        <ele>840.0</ele>
        <time>2022-07-25T07:56:14Z</time>
      </trkpt>
      <trkpt lat="46.1432660" lon="5.6884780">
        <ele>839.4</ele>
        <time>2022-07-25T07:56:15Z</time>
      </trkpt>
      <trkpt lat="46.1431550" lon="5.6883370">
        <ele>838.4</ele>
        <time>2022-07-25T07:56:18Z</time>
      </trkpt>
      <trkpt lat="46.1430730" lon="5.6882440">
        <ele>836.8</ele>
        <time>2022-07-25T07:56:20Z</time>
      </trkpt>
      <trkpt lat="46.1430260" lon="5.6881970">
        <ele>836.4</ele>
        <time>2022-07-25T07:56:21Z</time>
      </trkpt>
      <trkpt lat="46.1428170" lon="5.6880430">
        <ele>835.4</ele>
        <time>2022-07-25T07:56:25Z</time>
      </trkpt>
      <trkpt lat="46.1427620" lon="5.6880070">
        <ele>835.2</ele>
        <time>2022-07-25T07:56:26Z</time>
      </trkpt>
      <trkpt lat="46.1426550" lon="5.6879440">
        <ele>834.2</ele>
        <time>2022-07-25T07:56:28Z</time>
      </trkpt>
      <trkpt lat="46.1425130" lon="5.6878560">
        <ele>833.0</ele>
        <time>2022-07-25T07:56:31Z</time>
      </trkpt>
      <trkpt lat="46.1424700" lon="5.6878280">
        <ele>832.8</ele>
        <time>2022-07-25T07:56:32Z</time>
      </trkpt>
      <trkpt lat="46.1423700" lon="5.6877170">
        <ele>832.4</ele>
        <time>2022-07-25T07:56:36Z</time>
      </trkpt>
      <trkpt lat="46.1422910" lon="5.6876050">
        <ele>832.2</ele>
        <time>2022-07-25T07:56:41Z</time>
      </trkpt>
      <trkpt lat="46.1422730" lon="5.6875980">
        <ele>832.2</ele>
        <time>2022-07-25T07:56:42Z</time>
      </trkpt>
      <trkpt lat="46.1421990" lon="5.6876810">
        <ele>832.6</ele>
        <time>2022-07-25T07:56:48Z</time>
      </trkpt>
      <trkpt lat="46.1421700" lon="5.6877330">
        <ele>832.8</ele>
        <time>2022-07-25T07:56:51Z</time>
      </trkpt>
      <trkpt lat="46.1421590" lon="5.6877470">
        <ele>833.0</ele>
        <time>2022-07-25T07:56:53Z</time>
      </trkpt>
      <trkpt lat="46.1421530" lon="5.6877540">
        <ele>832.8</ele>
        <time>2022-07-25T07:56:55Z</time>
      </trkpt>
      <trkpt lat="46.1421780" lon="5.6876410">
        <ele>833.2</ele>
        <time>2022-07-25T08:03:28Z</time>
      </trkpt>
      <trkpt lat="46.1421850" lon="5.6875950">
        <ele>833.2</ele>
        <time>2022-07-25T08:03:30Z</time>
      </trkpt>
      <trkpt lat="46.1421610" lon="5.6874500">
        <ele>833.4</ele>
        <time>2022-07-25T08:03:36Z</time>
      </trkpt>
      <trkpt lat="46.1420990" lon="5.6872770">
        <ele>833.6</ele>
        <time>2022-07-25T08:03:43Z</time>
      </trkpt>
      <trkpt lat="46.1420790" lon="5.6872110">
        <ele>834.2</ele>
        <time>2022-07-25T08:03:46Z</time>
      </trkpt>
      <trkpt lat="46.1420730" lon="5.6871440">
        <ele>834.6</ele>
        <time>2022-07-25T08:03:49Z</time>
      </trkpt>
      <trkpt lat="46.1420960" lon="5.6870030">
        <ele>835.2</ele>
        <time>2022-07-25T08:03:55Z</time>
      </trkpt>
      <trkpt lat="46.1421040" lon="5.6869800">
        <ele>835.4</ele>
        <time>2022-07-25T08:03:56Z</time>
      </trkpt>
      <trkpt lat="46.1421720" lon="5.6868570">
        <ele>836.4</ele>
        <time>2022-07-25T08:04:02Z</time>
      </trkpt>
      <trkpt lat="46.1421880" lon="5.6868440">
        <ele>836.6</ele>
        <time>2022-07-25T08:04:03Z</time>
      </trkpt>
      <trkpt lat="46.1422370" lon="5.6868100">
        <ele>837.0</ele>
        <time>2022-07-25T08:04:06Z</time>
      </trkpt>
      <trkpt lat="46.1422870" lon="5.6867810">
        <ele>837.6</ele>
        <time>2022-07-25T08:04:09Z</time>
      </trkpt>
      <trkpt lat="46.1423180" lon="5.6867580">
        <ele>838.0</ele>
        <time>2022-07-25T08:04:11Z</time>
      </trkpt>
      <trkpt lat="46.1424190" lon="5.6867090">
        <ele>838.6</ele>
        <time>2022-07-25T08:04:17Z</time>
      </trkpt>
      <trkpt lat="46.1424510" lon="5.6866900">
        <ele>838.8</ele>
        <time>2022-07-25T08:04:19Z</time>
      </trkpt>
      <trkpt lat="46.1425350" lon="5.6866370">
        <ele>839.8</ele>
        <time>2022-07-25T08:04:24Z</time>
      </trkpt>
      <trkpt lat="46.1426200" lon="5.6865790">
        <ele>840.4</ele>
        <time>2022-07-25T08:04:29Z</time>
      </trkpt>
      <trkpt lat="46.1426860" lon="5.6865350">
        <ele>840.6</ele>
        <time>2022-07-25T08:04:33Z</time>
      </trkpt>
      <trkpt lat="46.1427940" lon="5.6864410">
        <ele>841.4</ele>
        <time>2022-07-25T08:04:40Z</time>
      </trkpt>
      <trkpt lat="46.1428280" lon="5.6864140">
        <ele>841.8</ele>
        <time>2022-07-25T08:04:42Z</time>
      </trkpt>
      <trkpt lat="46.1428990" lon="5.6863490">
        <ele>842.6</ele>
        <time>2022-07-25T08:04:48Z</time>
      </trkpt>
      <trkpt lat="46.1429080" lon="5.6863340">
        <ele>842.6</ele>
        <time>2022-07-25T08:04:49Z</time>
      </trkpt>
      <trkpt lat="46.1429050" lon="5.6863020">
        <ele>842.8</ele>
        <time>2022-07-25T08:04:51Z</time>
      </trkpt>
      <trkpt lat="46.1428940" lon="5.6862990">
        <ele>843.0</ele>
        <time>2022-07-25T08:04:52Z</time>
      </trkpt>
      <trkpt lat="46.1428610" lon="5.6863120">
        <ele>843.0</ele>
        <time>2022-07-25T08:04:54Z</time>
      </trkpt>
      <trkpt lat="46.1427840" lon="5.6863420">
        <ele>843.2</ele>
        <time>2022-07-25T08:04:57Z</time>
      </trkpt>
      <trkpt lat="46.1426080" lon="5.6864630">
        <ele>843.4</ele>
        <time>2022-07-25T08:05:03Z</time>
      </trkpt>
      <trkpt lat="46.1424490" lon="5.6865350">
        <ele>843.4</ele>
        <time>2022-07-25T08:05:07Z</time>
      </trkpt>
      <trkpt lat="46.1423610" lon="5.6865470">
        <ele>843.4</ele>
        <time>2022-07-25T08:05:09Z</time>
      </trkpt>
      <trkpt lat="46.1422740" lon="5.6865240">
        <ele>843.4</ele>
        <time>2022-07-25T08:05:11Z</time>
      </trkpt>
      <trkpt lat="46.1422000" lon="5.6865030">
        <ele>843.2</ele>
        <time>2022-07-25T08:05:13Z</time>
      </trkpt>
      <trkpt lat="46.1421080" lon="5.6864580">
        <ele>843.4</ele>
        <time>2022-07-25T08:05:18Z</time>
      </trkpt>
      <trkpt lat="46.1420370" lon="5.6863670">
        <ele>843.8</ele>
        <time>2022-07-25T08:05:23Z</time>
      </trkpt>
      <trkpt lat="46.1420260" lon="5.6863460">
        <ele>844.0</ele>
        <time>2022-07-25T08:05:24Z</time>
      </trkpt>
      <trkpt lat="46.1419790" lon="5.6862210">
        <ele>845.0</ele>
        <time>2022-07-25T08:05:30Z</time>
      </trkpt>
      <trkpt lat="46.1419760" lon="5.6862010">
        <ele>845.2</ele>
        <time>2022-07-25T08:05:31Z</time>
      </trkpt>
      <trkpt lat="46.1419530" lon="5.6860890">
        <ele>846.2</ele>
        <time>2022-07-25T08:05:36Z</time>
      </trkpt>
      <trkpt lat="46.1419470" lon="5.6860420">
        <ele>846.6</ele>
        <time>2022-07-25T08:05:38Z</time>
      </trkpt>
      <trkpt lat="46.1419360" lon="5.6859580">
        <ele>847.2</ele>
        <time>2022-07-25T08:05:42Z</time>
      </trkpt>
      <trkpt lat="46.1419280" lon="5.6859220">
        <ele>847.6</ele>
        <time>2022-07-25T08:05:44Z</time>
      </trkpt>
      <trkpt lat="46.1419050" lon="5.6857940">
        <ele>848.4</ele>
        <time>2022-07-25T08:05:50Z</time>
      </trkpt>
      <trkpt lat="46.1418680" lon="5.6856490">
        <ele>849.2</ele>
        <time>2022-07-25T08:05:57Z</time>
      </trkpt>
      <trkpt lat="46.1418580" lon="5.6856050">
        <ele>849.4</ele>
        <time>2022-07-25T08:05:59Z</time>
      </trkpt>
      <trkpt lat="46.1418160" lon="5.6854730">
        <ele>850.6</ele>
        <time>2022-07-25T08:06:05Z</time>
      </trkpt>
      <trkpt lat="46.1418030" lon="5.6854340">
        <ele>850.8</ele>
        <time>2022-07-25T08:06:07Z</time>
      </trkpt>
      <trkpt lat="46.1417850" lon="5.6853660">
        <ele>851.4</ele>
        <time>2022-07-25T08:06:11Z</time>
      </trkpt>
      <trkpt lat="46.1417760" lon="5.6853340">
        <ele>851.8</ele>
        <time>2022-07-25T08:06:13Z</time>
      </trkpt>
      <trkpt lat="46.1417360" lon="5.6852080">
        <ele>852.6</ele>
        <time>2022-07-25T08:06:19Z</time>
      </trkpt>
      <trkpt lat="46.1417230" lon="5.6851620">
        <ele>852.6</ele>
        <time>2022-07-25T08:06:21Z</time>
      </trkpt>
      <trkpt lat="46.1416970" lon="5.6850230">
        <ele>853.2</ele>
        <time>2022-07-25T08:06:27Z</time>
      </trkpt>
      <trkpt lat="46.1416730" lon="5.6849040">
        <ele>853.8</ele>
        <time>2022-07-25T08:06:32Z</time>
      </trkpt>
      <trkpt lat="46.1416640" lon="5.6848610">
        <ele>854.0</ele>
        <time>2022-07-25T08:06:34Z</time>
      </trkpt>
      <trkpt lat="46.1416490" lon="5.6847910">
        <ele>854.6</ele>
        <time>2022-07-25T08:06:37Z</time>
      </trkpt>
      <trkpt lat="46.1416330" lon="5.6846950">
        <ele>856.0</ele>
        <time>2022-07-25T08:06:42Z</time>
      </trkpt>
      <trkpt lat="46.1416130" lon="5.6846040">
        <ele>857.0</ele>
        <time>2022-07-25T08:06:46Z</time>
      </trkpt>
      <trkpt lat="46.1415970" lon="5.6845690">
        <ele>857.4</ele>
        <time>2022-07-25T08:06:48Z</time>
      </trkpt>
      <trkpt lat="46.1415530" lon="5.6845060">
        <ele>858.2</ele>
        <time>2022-07-25T08:06:52Z</time>
      </trkpt>
      <trkpt lat="46.1415250" lon="5.6844770">
        <ele>858.4</ele>
        <time>2022-07-25T08:06:54Z</time>
      </trkpt>
      <trkpt lat="46.1414300" lon="5.6844330">
        <ele>859.2</ele>
        <time>2022-07-25T08:07:00Z</time>
      </trkpt>
      <trkpt lat="46.1414010" lon="5.6844190">
        <ele>859.2</ele>
        <time>2022-07-25T08:07:02Z</time>
      </trkpt>
      <trkpt lat="46.1413190" lon="5.6843430">
        <ele>860.4</ele>
        <time>2022-07-25T08:07:08Z</time>
      </trkpt>
      <trkpt lat="46.1412200" lon="5.6842090">
        <ele>861.4</ele>
        <time>2022-07-25T08:07:16Z</time>
      </trkpt>
      <trkpt lat="46.1411560" lon="5.6840820">
        <ele>862.2</ele>
        <time>2022-07-25T08:07:22Z</time>
      </trkpt>
      <trkpt lat="46.1411440" lon="5.6840570">
        <ele>862.4</ele>
        <time>2022-07-25T08:07:23Z</time>
      </trkpt>
      <trkpt lat="46.1410940" lon="5.6839320">
        <ele>862.6</ele>
        <time>2022-07-25T08:07:29Z</time>
      </trkpt>
      <trkpt lat="46.1410400" lon="5.6838240">
        <ele>862.8</ele>
        <time>2022-07-25T08:07:35Z</time>
      </trkpt>
      <trkpt lat="46.1409850" lon="5.6837320">
        <ele>863.2</ele>
        <time>2022-07-25T08:07:40Z</time>
      </trkpt>
      <trkpt lat="46.1409590" lon="5.6836980">
        <ele>863.6</ele>
        <time>2022-07-25T08:07:42Z</time>
      </trkpt>
      <trkpt lat="46.1408820" lon="5.6836070">
        <ele>864.4</ele>
        <time>2022-07-25T08:07:48Z</time>
      </trkpt>
      <trkpt lat="46.1408610" lon="5.6835790">
        <ele>864.6</ele>
        <time>2022-07-25T08:07:50Z</time>
      </trkpt>
      <trkpt lat="46.1408410" lon="5.6835230">
        <ele>865.2</ele>
        <time>2022-07-25T08:07:53Z</time>
      </trkpt>
      <trkpt lat="46.1408430" lon="5.6834990">
        <ele>865.4</ele>
        <time>2022-07-25T08:07:54Z</time>
      </trkpt>
      <trkpt lat="46.1408420" lon="5.6834480">
        <ele>865.8</ele>
        <time>2022-07-25T08:07:56Z</time>
      </trkpt>
      <trkpt lat="46.1408240" lon="5.6833570">
        <ele>866.6</ele>
        <time>2022-07-25T08:07:59Z</time>
      </trkpt>
      <trkpt lat="46.1408110" lon="5.6833040">
        <ele>867.0</ele>
        <time>2022-07-25T08:08:01Z</time>
      </trkpt>
      <trkpt lat="46.1407700" lon="5.6831670">
        <ele>867.6</ele>
        <time>2022-07-25T08:08:06Z</time>
      </trkpt>
      <trkpt lat="46.1407380" lon="5.6830980">
        <ele>867.8</ele>
        <time>2022-07-25T08:08:08Z</time>
      </trkpt>
      <trkpt lat="46.1405930" lon="5.6828820">
        <ele>867.8</ele>
        <time>2022-07-25T08:08:14Z</time>
      </trkpt>
      <trkpt lat="46.1404730" lon="5.6827010">
        <ele>867.4</ele>
        <time>2022-07-25T08:08:20Z</time>
      </trkpt>
      <trkpt lat="46.1404100" lon="5.6825780">
        <ele>867.2</ele>
        <time>2022-07-25T08:08:25Z</time>
      </trkpt>
      <trkpt lat="46.1403670" lon="5.6824630">
        <ele>867.6</ele>
        <time>2022-07-25T08:08:32Z</time>
      </trkpt>
      <trkpt lat="46.1403560" lon="5.6823560">
        <ele>868.6</ele>
        <time>2022-07-25T08:08:37Z</time>
      </trkpt>
      <trkpt lat="46.1403550" lon="5.6823290">
        <ele>868.8</ele>
        <time>2022-07-25T08:08:38Z</time>
      </trkpt>
      <trkpt lat="46.1403200" lon="5.6822280">
        <ele>869.6</ele>
        <time>2022-07-25T08:08:43Z</time>
      </trkpt>
      <trkpt lat="46.1403110" lon="5.6822100">
        <ele>869.8</ele>
        <time>2022-07-25T08:08:44Z</time>
      </trkpt>
      <trkpt lat="46.1402700" lon="5.6821340">
        <ele>870.4</ele>
        <time>2022-07-25T08:08:48Z</time>
      </trkpt>
      <trkpt lat="46.1402510" lon="5.6821160">
        <ele>870.2</ele>
        <time>2022-07-25T08:08:49Z</time>
      </trkpt>
      <trkpt lat="46.1402260" lon="5.6820970">
        <ele>870.8</ele>
        <time>2022-07-25T08:08:51Z</time>
      </trkpt>
      <trkpt lat="46.1402100" lon="5.6820850">
        <ele>871.0</ele>
        <time>2022-07-25T08:08:52Z</time>
      </trkpt>
      <trkpt lat="46.1401800" lon="5.6820480">
        <ele>871.4</ele>
        <time>2022-07-25T08:08:54Z</time>
      </trkpt>
      <trkpt lat="46.1401570" lon="5.6820110">
        <ele>871.8</ele>
        <time>2022-07-25T08:08:56Z</time>
      </trkpt>
      <trkpt lat="46.1401190" lon="5.6819400">
        <ele>872.4</ele>
        <time>2022-07-25T08:09:00Z</time>
      </trkpt>
      <trkpt lat="46.1401070" lon="5.6819210">
        <ele>873.0</ele>
        <time>2022-07-25T08:09:01Z</time>
      </trkpt>
      <trkpt lat="46.1400870" lon="5.6818650">
        <ele>873.6</ele>
        <time>2022-07-25T08:09:04Z</time>
      </trkpt>
      <trkpt lat="46.1400700" lon="5.6818440">
        <ele>874.0</ele>
        <time>2022-07-25T08:09:06Z</time>
      </trkpt>
      <trkpt lat="46.1400110" lon="5.6817470">
        <ele>874.8</ele>
        <time>2022-07-25T08:09:13Z</time>
      </trkpt>
      <trkpt lat="46.1399950" lon="5.6817200">
        <ele>875.0</ele>
        <time>2022-07-25T08:09:15Z</time>
      </trkpt>
      <trkpt lat="46.1399530" lon="5.6816560">
        <ele>875.8</ele>
        <time>2022-07-25T08:09:19Z</time>
      </trkpt>
      <trkpt lat="46.1399190" lon="5.6816030">
        <ele>876.2</ele>
        <time>2022-07-25T08:09:22Z</time>
      </trkpt>
      <trkpt lat="46.1398710" lon="5.6814740">
        <ele>877.0</ele>
        <time>2022-07-25T08:09:27Z</time>
      </trkpt>
      <trkpt lat="46.1398150" lon="5.6812950">
        <ele>877.6</ele>
        <time>2022-07-25T08:09:34Z</time>
      </trkpt>
      <trkpt lat="46.1397800" lon="5.6812060">
        <ele>878.0</ele>
        <time>2022-07-25T08:09:38Z</time>
      </trkpt>
      <trkpt lat="46.1397720" lon="5.6811890">
        <ele>878.4</ele>
        <time>2022-07-25T08:09:39Z</time>
      </trkpt>
      <trkpt lat="46.1397170" lon="5.6810390">
        <ele>879.2</ele>
        <time>2022-07-25T08:09:44Z</time>
      </trkpt>
      <trkpt lat="46.1396570" lon="5.6808350">
        <ele>880.0</ele>
        <time>2022-07-25T08:09:50Z</time>
      </trkpt>
      <trkpt lat="46.1396480" lon="5.6808070">
        <ele>880.2</ele>
        <time>2022-07-25T08:09:51Z</time>
      </trkpt>
      <trkpt lat="46.1395990" lon="5.6806950">
        <ele>880.6</ele>
        <time>2022-07-25T08:09:56Z</time>
      </trkpt>
      <trkpt lat="46.1395500" lon="5.6805160">
        <ele>881.2</ele>
        <time>2022-07-25T08:10:03Z</time>
      </trkpt>
      <trkpt lat="46.1395440" lon="5.6804910">
        <ele>881.4</ele>
        <time>2022-07-25T08:10:04Z</time>
      </trkpt>
      <trkpt lat="46.1395130" lon="5.6804060">
        <ele>881.8</ele>
        <time>2022-07-25T08:10:08Z</time>
      </trkpt>
      <trkpt lat="46.1394930" lon="5.6803640">
        <ele>882.0</ele>
        <time>2022-07-25T08:10:10Z</time>
      </trkpt>
      <trkpt lat="46.1394710" lon="5.6803230">
        <ele>882.4</ele>
        <time>2022-07-25T08:10:12Z</time>
      </trkpt>
      <trkpt lat="46.1394070" lon="5.6802120">
        <ele>883.4</ele>
        <time>2022-07-25T08:10:18Z</time>
      </trkpt>
      <trkpt lat="46.1394040" lon="5.6801970">
        <ele>883.6</ele>
        <time>2022-07-25T08:10:19Z</time>
      </trkpt>
      <trkpt lat="46.1393640" lon="5.6800830">
        <ele>884.6</ele>
        <time>2022-07-25T08:10:26Z</time>
      </trkpt>
      <trkpt lat="46.1393360" lon="5.6800040">
        <ele>885.6</ele>
        <time>2022-07-25T08:10:31Z</time>
      </trkpt>
      <trkpt lat="46.1393280" lon="5.6799720">
        <ele>886.0</ele>
        <time>2022-07-25T08:10:33Z</time>
      </trkpt>
      <trkpt lat="46.1393130" lon="5.6799260">
        <ele>886.6</ele>
        <time>2022-07-25T08:10:36Z</time>
      </trkpt>
      <trkpt lat="46.1393080" lon="5.6798680">
        <ele>887.8</ele>
        <time>2022-07-25T08:10:41Z</time>
      </trkpt>
      <trkpt lat="46.1393040" lon="5.6797310">
        <ele>888.8</ele>
        <time>2022-07-25T08:10:47Z</time>
      </trkpt>
      <trkpt lat="46.1393000" lon="5.6797100">
        <ele>889.0</ele>
        <time>2022-07-25T08:10:48Z</time>
      </trkpt>
      <trkpt lat="46.1392880" lon="5.6795980">
        <ele>890.0</ele>
        <time>2022-07-25T08:10:54Z</time>
      </trkpt>
      <trkpt lat="46.1392910" lon="5.6795860">
        <ele>890.2</ele>
        <time>2022-07-25T08:10:55Z</time>
      </trkpt>
      <trkpt lat="46.1393100" lon="5.6795130">
        <ele>891.2</ele>
        <time>2022-07-25T08:11:00Z</time>
      </trkpt>
      <trkpt lat="46.1393300" lon="5.6794750">
        <ele>891.4</ele>
        <time>2022-07-25T08:11:03Z</time>
      </trkpt>
      <trkpt lat="46.1393510" lon="5.6794360">
        <ele>892.0</ele>
        <time>2022-07-25T08:11:06Z</time>
      </trkpt>
      <trkpt lat="46.1393780" lon="5.6793780">
        <ele>892.8</ele>
        <time>2022-07-25T08:11:10Z</time>
      </trkpt>
      <trkpt lat="46.1393880" lon="5.6793530">
        <ele>893.2</ele>
        <time>2022-07-25T08:11:12Z</time>
      </trkpt>
      <trkpt lat="46.1394180" lon="5.6792880">
        <ele>894.0</ele>
        <time>2022-07-25T08:11:17Z</time>
      </trkpt>
      <trkpt lat="46.1394230" lon="5.6792570">
        <ele>894.4</ele>
        <time>2022-07-25T08:11:19Z</time>
      </trkpt>
      <trkpt lat="46.1394390" lon="5.6791890">
        <ele>895.4</ele>
        <time>2022-07-25T08:11:24Z</time>
      </trkpt>
      <trkpt lat="46.1394440" lon="5.6791070">
        <ele>896.4</ele>
        <time>2022-07-25T08:11:28Z</time>
      </trkpt>
      <trkpt lat="46.1394450" lon="5.6790620">
        <ele>896.6</ele>
        <time>2022-07-25T08:11:30Z</time>
      </trkpt>
      <trkpt lat="46.1394390" lon="5.6789550">
        <ele>897.2</ele>
        <time>2022-07-25T08:11:35Z</time>
      </trkpt>
      <trkpt lat="46.1394280" lon="5.6788600">
        <ele>897.6</ele>
        <time>2022-07-25T08:11:39Z</time>
      </trkpt>
      <trkpt lat="46.1394330" lon="5.6787520">
        <ele>898.4</ele>
        <time>2022-07-25T08:11:44Z</time>
      </trkpt>
      <trkpt lat="46.1394280" lon="5.6787010">
        <ele>898.6</ele>
        <time>2022-07-25T08:11:46Z</time>
      </trkpt>
      <trkpt lat="46.1394220" lon="5.6785940">
        <ele>898.8</ele>
        <time>2022-07-25T08:11:50Z</time>
      </trkpt>
      <trkpt lat="46.1394210" lon="5.6785300">
        <ele>899.0</ele>
        <time>2022-07-25T08:11:53Z</time>
      </trkpt>
      <trkpt lat="46.1394150" lon="5.6784630">
        <ele>899.6</ele>
        <time>2022-07-25T08:11:56Z</time>
      </trkpt>
      <trkpt lat="46.1394100" lon="5.6784420">
        <ele>899.8</ele>
        <time>2022-07-25T08:11:57Z</time>
      </trkpt>
      <trkpt lat="46.1393780" lon="5.6783240">
        <ele>900.8</ele>
        <time>2022-07-25T08:12:02Z</time>
      </trkpt>
      <trkpt lat="46.1393730" lon="5.6783080">
        <ele>901.4</ele>
        <time>2022-07-25T08:12:05Z</time>
      </trkpt>
      <trkpt lat="46.1393050" lon="5.6781550">
        <ele>902.4</ele>
        <time>2022-07-25T08:12:38Z</time>
      </trkpt>
      <trkpt lat="46.1392940" lon="5.6781380">
        <ele>902.6</ele>
        <time>2022-07-25T08:12:39Z</time>
      </trkpt>
      <trkpt lat="46.1392210" lon="5.6779920">
        <ele>902.8</ele>
        <time>2022-07-25T08:12:45Z</time>
      </trkpt>
      <trkpt lat="46.1391310" lon="5.6777830">
        <ele>903.2</ele>
        <time>2022-07-25T08:12:53Z</time>
      </trkpt>
      <trkpt lat="46.1391130" lon="5.6777350">
        <ele>903.4</ele>
        <time>2022-07-25T08:12:55Z</time>
      </trkpt>
      <trkpt lat="46.1390870" lon="5.6776540">
        <ele>904.0</ele>
        <time>2022-07-25T08:12:59Z</time>
      </trkpt>
      <trkpt lat="46.1390790" lon="5.6776140">
        <ele>904.4</ele>
        <time>2022-07-25T08:13:01Z</time>
      </trkpt>
      <trkpt lat="46.1390470" lon="5.6775340">
        <ele>905.2</ele>
        <time>2022-07-25T08:13:05Z</time>
      </trkpt>
      <trkpt lat="46.1390380" lon="5.6775170">
        <ele>905.4</ele>
        <time>2022-07-25T08:13:06Z</time>
      </trkpt>
      <trkpt lat="46.1390050" lon="5.6774290">
        <ele>906.0</ele>
        <time>2022-07-25T08:13:11Z</time>
      </trkpt>
      <trkpt lat="46.1389940" lon="5.6773910">
        <ele>906.6</ele>
        <time>2022-07-25T08:13:13Z</time>
      </trkpt>
      <trkpt lat="46.1389660" lon="5.6773060">
        <ele>907.0</ele>
        <time>2022-07-25T08:13:17Z</time>
      </trkpt>
      <trkpt lat="46.1389520" lon="5.6772630">
        <ele>907.4</ele>
        <time>2022-07-25T08:13:19Z</time>
      </trkpt>
      <trkpt lat="46.1389140" lon="5.6771710">
        <ele>908.0</ele>
        <time>2022-07-25T08:13:24Z</time>
      </trkpt>
      <trkpt lat="46.1388860" lon="5.6771430">
        <ele>908.2</ele>
        <time>2022-07-25T08:13:27Z</time>
      </trkpt>
      <trkpt lat="46.1388560" lon="5.6771600">
        <ele>908.4</ele>
        <time>2022-07-25T08:13:30Z</time>
      </trkpt>
      <trkpt lat="46.1388430" lon="5.6771690">
        <ele>908.4</ele>
        <time>2022-07-25T08:13:31Z</time>
      </trkpt>
      <trkpt lat="46.1387680" lon="5.6772420">
        <ele>909.0</ele>
        <time>2022-07-25T08:13:37Z</time>
      </trkpt>
      <trkpt lat="46.1387100" lon="5.6772900">
        <ele>909.6</ele>
        <time>2022-07-25T08:13:41Z</time>
      </trkpt>
      <trkpt lat="46.1386760" lon="5.6773300">
        <ele>909.8</ele>
        <time>2022-07-25T08:13:44Z</time>
      </trkpt>
      <trkpt lat="46.1386600" lon="5.6773370">
        <ele>910.2</ele>
        <time>2022-07-25T08:13:47Z</time>
      </trkpt>
      <trkpt lat="46.1385940" lon="5.6773350">
        <ele>911.4</ele>
        <time>2022-07-25T08:15:51Z</time>
      </trkpt>
      <trkpt lat="46.1385800" lon="5.6773360">
        <ele>911.4</ele>
        <time>2022-07-25T08:15:52Z</time>
      </trkpt>
      <trkpt lat="46.1384560" lon="5.6773570">
        <ele>911.6</ele>
        <time>2022-07-25T08:16:01Z</time>
      </trkpt>
      <trkpt lat="46.1383460" lon="5.6773870">
        <ele>911.8</ele>
        <time>2022-07-25T08:16:09Z</time>
      </trkpt>
      <trkpt lat="46.1382190" lon="5.6773770">
        <ele>912.2</ele>
        <time>2022-07-25T08:16:19Z</time>
      </trkpt>
      <trkpt lat="46.1381810" lon="5.6773630">
        <ele>912.2</ele>
        <time>2022-07-25T08:16:22Z</time>
      </trkpt>
      <trkpt lat="46.1381710" lon="5.6773580">
        <ele>912.4</ele>
        <time>2022-07-25T08:16:23Z</time>
      </trkpt>
      <trkpt lat="46.1381090" lon="5.6773490">
        <ele>913.0</ele>
        <time>2022-07-25T08:16:28Z</time>
      </trkpt>
      <trkpt lat="46.1380580" lon="5.6773400">
        <ele>913.4</ele>
        <time>2022-07-25T08:16:32Z</time>
      </trkpt>
      <trkpt lat="46.1379860" lon="5.6773310">
        <ele>913.6</ele>
        <time>2022-07-25T08:16:37Z</time>
      </trkpt>
      <trkpt lat="46.1378460" lon="5.6772490">
        <ele>913.8</ele>
        <time>2022-07-25T08:16:47Z</time>
      </trkpt>
      <trkpt lat="46.1377460" lon="5.6771740">
        <ele>914.4</ele>
        <time>2022-07-25T08:16:55Z</time>
      </trkpt>
      <trkpt lat="46.1376270" lon="5.6770890">
        <ele>914.8</ele>
        <time>2022-07-25T08:17:05Z</time>
      </trkpt>
      <trkpt lat="46.1375670" lon="5.6770550">
        <ele>915.0</ele>
        <time>2022-07-25T08:17:12Z</time>
      </trkpt>
      <trkpt lat="46.1370440" lon="5.6768890">
        <ele>923.6</ele>
        <time>2022-07-25T08:18:48Z</time>
      </trkpt>
      <trkpt lat="46.1369530" lon="5.6768250">
        <ele>923.8</ele>
        <time>2022-07-25T08:18:55Z</time>
      </trkpt>
      <trkpt lat="46.1368510" lon="5.6767030">
        <ele>924.0</ele>
        <time>2022-07-25T08:19:02Z</time>
      </trkpt>
      <trkpt lat="46.1367760" lon="5.6765920">
        <ele>924.0</ele>
        <time>2022-07-25T08:19:08Z</time>
      </trkpt>
      <trkpt lat="46.1367510" lon="5.6765510">
        <ele>924.2</ele>
        <time>2022-07-25T08:19:10Z</time>
      </trkpt>
      <trkpt lat="46.1366380" lon="5.6763650">
        <ele>924.8</ele>
        <time>2022-07-25T08:19:19Z</time>
      </trkpt>
      <trkpt lat="46.1366260" lon="5.6763450">
        <ele>924.8</ele>
        <time>2022-07-25T08:19:20Z</time>
      </trkpt>
      <trkpt lat="46.1365210" lon="5.6762020">
        <ele>925.8</ele>
        <time>2022-07-25T08:19:28Z</time>
      </trkpt>
      <trkpt lat="46.1363840" lon="5.6760260">
        <ele>926.8</ele>
        <time>2022-07-25T08:19:38Z</time>
      </trkpt>
      <trkpt lat="46.1363530" lon="5.6759930">
        <ele>926.8</ele>
        <time>2022-07-25T08:19:40Z</time>
      </trkpt>
      <trkpt lat="46.1362760" lon="5.6759350">
        <ele>927.2</ele>
        <time>2022-07-25T08:19:45Z</time>
      </trkpt>
      <trkpt lat="46.1361820" lon="5.6758380">
        <ele>928.0</ele>
        <time>2022-07-25T08:19:52Z</time>
      </trkpt>
      <trkpt lat="46.1361700" lon="5.6758270">
        <ele>928.0</ele>
        <time>2022-07-25T08:19:53Z</time>
      </trkpt>
      <trkpt lat="46.1360500" lon="5.6756860">
        <ele>928.6</ele>
        <time>2022-07-25T08:20:03Z</time>
      </trkpt>
      <trkpt lat="46.1360100" lon="5.6756290">
        <ele>928.8</ele>
        <time>2022-07-25T08:20:06Z</time>
      </trkpt>
      <trkpt lat="46.1359360" lon="5.6755260">
        <ele>929.2</ele>
        <time>2022-07-25T08:20:12Z</time>
      </trkpt>
      <trkpt lat="46.1358670" lon="5.6754140">
        <ele>930.0</ele>
        <time>2022-07-25T08:20:18Z</time>
      </trkpt>
      <trkpt lat="46.1358490" lon="5.6753830">
        <ele>930.0</ele>
        <time>2022-07-25T08:20:20Z</time>
      </trkpt>
      <trkpt lat="46.1357940" lon="5.6753270">
        <ele>930.8</ele>
        <time>2022-07-25T08:20:27Z</time>
      </trkpt>
      <trkpt lat="46.1357720" lon="5.6753400">
        <ele>931.0</ele>
        <time>2022-07-25T08:20:29Z</time>
      </trkpt>
      <trkpt lat="46.1357590" lon="5.6753540">
        <ele>931.6</ele>
        <time>2022-07-25T08:20:33Z</time>
      </trkpt>
      <trkpt lat="46.1357200" lon="5.6754910">
        <ele>931.6</ele>
        <time>2022-07-25T08:21:26Z</time>
      </trkpt>
      <trkpt lat="46.1357000" lon="5.6755560">
        <ele>931.6</ele>
        <time>2022-07-25T08:21:29Z</time>
      </trkpt>
      <trkpt lat="46.1356560" lon="5.6756930">
        <ele>931.6</ele>
        <time>2022-07-25T08:21:36Z</time>
      </trkpt>
      <trkpt lat="46.1356400" lon="5.6757590">
        <ele>931.6</ele>
        <time>2022-07-25T08:21:42Z</time>
      </trkpt>
      <trkpt lat="46.1356120" lon="5.6758520">
        <ele>931.4</ele>
        <time>2022-07-25T08:21:51Z</time>
      </trkpt>
      <trkpt lat="46.1355780" lon="5.6758950">
        <ele>931.2</ele>
        <time>2022-07-25T08:21:59Z</time>
      </trkpt>
      <trkpt lat="46.1355260" lon="5.6759220">
        <ele>930.6</ele>
        <time>2022-07-25T08:22:22Z</time>
      </trkpt>
      <trkpt lat="46.1354030" lon="5.6760220">
        <ele>930.6</ele>
        <time>2022-07-25T08:22:27Z</time>
      </trkpt>
      <trkpt lat="46.1352590" lon="5.6762810">
        <ele>930.4</ele>
        <time>2022-07-25T08:22:33Z</time>
      </trkpt>
      <trkpt lat="46.1352250" lon="5.6765190">
        <ele>929.8</ele>
        <time>2022-07-25T08:22:38Z</time>
      </trkpt>
      <trkpt lat="46.1352310" lon="5.6766550">
        <ele>929.6</ele>
        <time>2022-07-25T08:22:43Z</time>
      </trkpt>
      <trkpt lat="46.1352980" lon="5.6768130">
        <ele>929.8</ele>
        <time>2022-07-25T08:22:50Z</time>
      </trkpt>
      <trkpt lat="46.1353520" lon="5.6769270">
        <ele>930.4</ele>
        <time>2022-07-25T08:22:57Z</time>
      </trkpt>
      <trkpt lat="46.1354190" lon="5.6770220">
        <ele>931.2</ele>
        <time>2022-07-25T08:23:04Z</time>
      </trkpt>
      <trkpt lat="46.1354420" lon="5.6770510">
        <ele>931.4</ele>
        <time>2022-07-25T08:23:07Z</time>
      </trkpt>
      <trkpt lat="46.1354900" lon="5.6771010">
        <ele>932.0</ele>
        <time>2022-07-25T08:23:11Z</time>
      </trkpt>
      <trkpt lat="46.1355510" lon="5.6771710">
        <ele>932.2</ele>
        <time>2022-07-25T08:23:17Z</time>
      </trkpt>
      <trkpt lat="46.1355910" lon="5.6772090">
        <ele>932.2</ele>
        <time>2022-07-25T08:23:20Z</time>
      </trkpt>
      <trkpt lat="46.1356620" lon="5.6773210">
        <ele>932.6</ele>
        <time>2022-07-25T08:23:24Z</time>
      </trkpt>
      <trkpt lat="46.1357670" lon="5.6775230">
        <ele>932.8</ele>
        <time>2022-07-25T08:23:31Z</time>
      </trkpt>
      <trkpt lat="46.1358270" lon="5.6776750">
        <ele>933.2</ele>
        <time>2022-07-25T08:23:38Z</time>
      </trkpt>
      <trkpt lat="46.1358410" lon="5.6777150">
        <ele>933.4</ele>
        <time>2022-07-25T08:23:40Z</time>
      </trkpt>
      <trkpt lat="46.1358650" lon="5.6778030">
        <ele>933.6</ele>
        <time>2022-07-25T08:23:46Z</time>
      </trkpt>
      <trkpt lat="46.1358690" lon="5.6778070">
        <ele>933.6</ele>
        <time>2022-07-25T08:23:47Z</time>
      </trkpt>
      <trkpt lat="46.1359600" lon="5.6780440">
        <ele>935.0</ele>
        <time>2022-07-25T08:24:08Z</time>
      </trkpt>
      <trkpt lat="46.1359740" lon="5.6780950">
        <ele>935.2</ele>
        <time>2022-07-25T08:24:11Z</time>
      </trkpt>
      <trkpt lat="46.1359760" lon="5.6781140">
        <ele>935.4</ele>
        <time>2022-07-25T08:24:12Z</time>
      </trkpt>
      <trkpt lat="46.1360100" lon="5.6782020">
        <ele>935.6</ele>
        <time>2022-07-25T08:24:17Z</time>
      </trkpt>
      <trkpt lat="46.1360370" lon="5.6782600">
        <ele>936.0</ele>
        <time>2022-07-25T08:24:21Z</time>
      </trkpt>
      <trkpt lat="46.1360500" lon="5.6782880">
        <ele>936.2</ele>
        <time>2022-07-25T08:24:23Z</time>
      </trkpt>
      <trkpt lat="46.1360840" lon="5.6783250">
        <ele>936.4</ele>
        <time>2022-07-25T08:24:26Z</time>
      </trkpt>
      <trkpt lat="46.1361270" lon="5.6783860">
        <ele>937.0</ele>
        <time>2022-07-25T08:24:29Z</time>
      </trkpt>
      <trkpt lat="46.1361590" lon="5.6784370">
        <ele>937.2</ele>
        <time>2022-07-25T08:24:32Z</time>
      </trkpt>
      <trkpt lat="46.1362250" lon="5.6785510">
        <ele>938.0</ele>
        <time>2022-07-25T08:24:39Z</time>
      </trkpt>
      <trkpt lat="46.1362350" lon="5.6785660">
        <ele>938.0</ele>
        <time>2022-07-25T08:24:40Z</time>
      </trkpt>
      <trkpt lat="46.1362930" lon="5.6786610">
        <ele>938.4</ele>
        <time>2022-07-25T08:24:46Z</time>
      </trkpt>
      <trkpt lat="46.1363290" lon="5.6787190">
        <ele>938.8</ele>
        <time>2022-07-25T08:24:50Z</time>
      </trkpt>
      <trkpt lat="46.1363420" lon="5.6787430">
        <ele>939.2</ele>
        <time>2022-07-25T08:24:52Z</time>
      </trkpt>
      <trkpt lat="46.1364130" lon="5.6788460">
        <ele>940.0</ele>
        <time>2022-07-25T08:24:59Z</time>
      </trkpt>
      <trkpt lat="46.1364240" lon="5.6788610">
        <ele>940.0</ele>
        <time>2022-07-25T08:25:00Z</time>
      </trkpt>
      <trkpt lat="46.1365230" lon="5.6790110">
        <ele>940.8</ele>
        <time>2022-07-25T08:25:08Z</time>
      </trkpt>
      <trkpt lat="46.1365330" lon="5.6790330">
        <ele>941.0</ele>
        <time>2022-07-25T08:25:09Z</time>
      </trkpt>
      <trkpt lat="46.1365900" lon="5.6791620">
        <ele>942.0</ele>
        <time>2022-07-25T08:25:16Z</time>
      </trkpt>
      <trkpt lat="46.1366430" lon="5.6793250">
        <ele>943.0</ele>
        <time>2022-07-25T08:25:24Z</time>
      </trkpt>
      <trkpt lat="46.1366510" lon="5.6793440">
        <ele>943.0</ele>
        <time>2022-07-25T08:25:25Z</time>
      </trkpt>
      <trkpt lat="46.1366780" lon="5.6794610">
        <ele>944.0</ele>
        <time>2022-07-25T08:25:32Z</time>
      </trkpt>
      <trkpt lat="46.1366770" lon="5.6794820">
        <ele>944.4</ele>
        <time>2022-07-25T08:25:33Z</time>
      </trkpt>
      <trkpt lat="46.1366910" lon="5.6795550">
        <ele>944.8</ele>
        <time>2022-07-25T08:25:37Z</time>
      </trkpt>
      <trkpt lat="46.1367080" lon="5.6796690">
        <ele>945.2</ele>
        <time>2022-07-25T08:25:43Z</time>
      </trkpt>
      <trkpt lat="46.1367160" lon="5.6796920">
        <ele>945.4</ele>
        <time>2022-07-25T08:25:44Z</time>
      </trkpt>
      <trkpt lat="46.1367390" lon="5.6798170">
        <ele>946.2</ele>
        <time>2022-07-25T08:25:50Z</time>
      </trkpt>
      <trkpt lat="46.1367400" lon="5.6798600">
        <ele>946.2</ele>
        <time>2022-07-25T08:25:52Z</time>
      </trkpt>
      <trkpt lat="46.1367410" lon="5.6798820">
        <ele>946.4</ele>
        <time>2022-07-25T08:25:53Z</time>
      </trkpt>
      <trkpt lat="46.1367590" lon="5.6799570">
        <ele>946.6</ele>
        <time>2022-07-25T08:25:56Z</time>
      </trkpt>
      <trkpt lat="46.1367630" lon="5.6800830">
        <ele>947.2</ele>
        <time>2022-07-25T08:26:02Z</time>
      </trkpt>
      <trkpt lat="46.1367650" lon="5.6801010">
        <ele>947.4</ele>
        <time>2022-07-25T08:26:03Z</time>
      </trkpt>
      <trkpt lat="46.1367710" lon="5.6802210">
        <ele>948.0</ele>
        <time>2022-07-25T08:26:09Z</time>
      </trkpt>
      <trkpt lat="46.1367820" lon="5.6802730">
        <ele>948.4</ele>
        <time>2022-07-25T08:26:11Z</time>
      </trkpt>
      <trkpt lat="46.1367910" lon="5.6803760">
        <ele>948.8</ele>
        <time>2022-07-25T08:26:16Z</time>
      </trkpt>
      <trkpt lat="46.1367940" lon="5.6804290">
        <ele>949.2</ele>
        <time>2022-07-25T08:26:19Z</time>
      </trkpt>
      <trkpt lat="46.1367930" lon="5.6804700">
        <ele>949.4</ele>
        <time>2022-07-25T08:26:21Z</time>
      </trkpt>
      <trkpt lat="46.1367870" lon="5.6804920">
        <ele>949.6</ele>
        <time>2022-07-25T08:26:22Z</time>
      </trkpt>
      <trkpt lat="46.1367810" lon="5.6805850">
        <ele>950.2</ele>
        <time>2022-07-25T08:26:26Z</time>
      </trkpt>
      <trkpt lat="46.1368030" lon="5.6806840">
        <ele>950.4</ele>
        <time>2022-07-25T08:26:30Z</time>
      </trkpt>
      <trkpt lat="46.1368150" lon="5.6807300">
        <ele>950.6</ele>
        <time>2022-07-25T08:26:32Z</time>
      </trkpt>
      <trkpt lat="46.1368410" lon="5.6808800">
        <ele>951.2</ele>
        <time>2022-07-25T08:26:39Z</time>
      </trkpt>
      <trkpt lat="46.1368490" lon="5.6809310">
        <ele>951.4</ele>
        <time>2022-07-25T08:26:41Z</time>
      </trkpt>
      <trkpt lat="46.1368590" lon="5.6810460">
        <ele>951.8</ele>
        <time>2022-07-25T08:26:46Z</time>
      </trkpt>
      <trkpt lat="46.1368650" lon="5.6811460">
        <ele>952.4</ele>
        <time>2022-07-25T08:26:50Z</time>
      </trkpt>
      <trkpt lat="46.1368780" lon="5.6812190">
        <ele>952.8</ele>
        <time>2022-07-25T08:26:53Z</time>
      </trkpt>
      <trkpt lat="46.1368810" lon="5.6812380">
        <ele>953.0</ele>
        <time>2022-07-25T08:26:54Z</time>
      </trkpt>
      <trkpt lat="46.1368790" lon="5.6812780">
        <ele>953.4</ele>
        <time>2022-07-25T08:26:56Z</time>
      </trkpt>
      <trkpt lat="46.1368880" lon="5.6813180">
        <ele>953.6</ele>
        <time>2022-07-25T08:26:58Z</time>
      </trkpt>
      <trkpt lat="46.1369330" lon="5.6814520">
        <ele>954.2</ele>
        <time>2022-07-25T08:27:05Z</time>
      </trkpt>
      <trkpt lat="46.1369400" lon="5.6814730">
        <ele>954.4</ele>
        <time>2022-07-25T08:27:06Z</time>
      </trkpt>
      <trkpt lat="46.1369460" lon="5.6815970">
        <ele>955.4</ele>
        <time>2022-07-25T08:27:11Z</time>
      </trkpt>
      <trkpt lat="46.1369470" lon="5.6816350">
        <ele>955.4</ele>
        <time>2022-07-25T08:27:12Z</time>
      </trkpt>
      <trkpt lat="46.1369240" lon="5.6818100">
        <ele>956.4</ele>
        <time>2022-07-25T08:27:19Z</time>
      </trkpt>
      <trkpt lat="46.1369220" lon="5.6818350">
        <ele>956.4</ele>
        <time>2022-07-25T08:27:20Z</time>
      </trkpt>
      <trkpt lat="46.1369100" lon="5.6819830">
        <ele>957.4</ele>
        <time>2022-07-25T08:27:26Z</time>
      </trkpt>
      <trkpt lat="46.1369100" lon="5.6820050">
        <ele>957.6</ele>
        <time>2022-07-25T08:27:27Z</time>
      </trkpt>
      <trkpt lat="46.1369160" lon="5.6820460">
        <ele>957.6</ele>
        <time>2022-07-25T08:27:29Z</time>
      </trkpt>
      <trkpt lat="46.1369360" lon="5.6821120">
        <ele>958.0</ele>
        <time>2022-07-25T08:27:32Z</time>
      </trkpt>
      <trkpt lat="46.1369440" lon="5.6821520">
        <ele>958.4</ele>
        <time>2022-07-25T08:27:34Z</time>
      </trkpt>
      <trkpt lat="46.1369810" lon="5.6822500">
        <ele>958.6</ele>
        <time>2022-07-25T08:27:38Z</time>
      </trkpt>
      <trkpt lat="46.1369900" lon="5.6822750">
        <ele>958.8</ele>
        <time>2022-07-25T08:27:39Z</time>
      </trkpt>
      <trkpt lat="46.1370250" lon="5.6823580">
        <ele>958.8</ele>
        <time>2022-07-25T08:27:42Z</time>
      </trkpt>
      <trkpt lat="46.1370450" lon="5.6824080">
        <ele>959.2</ele>
        <time>2022-07-25T08:27:44Z</time>
      </trkpt>
      <trkpt lat="46.1370480" lon="5.6824270">
        <ele>959.4</ele>
        <time>2022-07-25T08:27:45Z</time>
      </trkpt>
      <trkpt lat="46.1370870" lon="5.6825510">
        <ele>960.4</ele>
        <time>2022-07-25T08:27:52Z</time>
      </trkpt>
      <trkpt lat="46.1370990" lon="5.6825670">
        <ele>960.6</ele>
        <time>2022-07-25T08:27:53Z</time>
      </trkpt>
      <trkpt lat="46.1371590" lon="5.6826880">
        <ele>961.4</ele>
        <time>2022-07-25T08:27:59Z</time>
      </trkpt>
      <trkpt lat="46.1371780" lon="5.6827070">
        <ele>961.8</ele>
        <time>2022-07-25T08:28:00Z</time>
      </trkpt>
      <trkpt lat="46.1372310" lon="5.6827990">
        <ele>962.2</ele>
        <time>2022-07-25T08:28:05Z</time>
      </trkpt>
      <trkpt lat="46.1372720" lon="5.6828820">
        <ele>962.4</ele>
        <time>2022-07-25T08:28:10Z</time>
      </trkpt>
      <trkpt lat="46.1372860" lon="5.6829250">
        <ele>962.4</ele>
        <time>2022-07-25T08:28:12Z</time>
      </trkpt>
      <trkpt lat="46.1373510" lon="5.6830760">
        <ele>963.2</ele>
        <time>2022-07-25T08:28:20Z</time>
      </trkpt>
      <trkpt lat="46.1373620" lon="5.6830990">
        <ele>963.4</ele>
        <time>2022-07-25T08:28:21Z</time>
      </trkpt>
      <trkpt lat="46.1374210" lon="5.6832090">
        <ele>964.2</ele>
        <time>2022-07-25T08:28:27Z</time>
      </trkpt>
      <trkpt lat="46.1374580" lon="5.6833320">
        <ele>965.0</ele>
        <time>2022-07-25T08:28:32Z</time>
      </trkpt>
      <trkpt lat="46.1374740" lon="5.6834020">
        <ele>965.4</ele>
        <time>2022-07-25T08:28:35Z</time>
      </trkpt>
      <trkpt lat="46.1374820" lon="5.6834310">
        <ele>965.6</ele>
        <time>2022-07-25T08:28:36Z</time>
      </trkpt>
      <trkpt lat="46.1374910" lon="5.6834520">
        <ele>965.6</ele>
        <time>2022-07-25T08:28:37Z</time>
      </trkpt>
      <trkpt lat="46.1375090" lon="5.6835750">
        <ele>966.0</ele>
        <time>2022-07-25T08:28:42Z</time>
      </trkpt>
      <trkpt lat="46.1375140" lon="5.6836220">
        <ele>966.2</ele>
        <time>2022-07-25T08:28:44Z</time>
      </trkpt>
      <trkpt lat="46.1375210" lon="5.6836540">
        <ele>966.4</ele>
        <time>2022-07-25T08:28:45Z</time>
      </trkpt>
      <trkpt lat="46.1375300" lon="5.6838190">
        <ele>967.2</ele>
        <time>2022-07-25T08:28:51Z</time>
      </trkpt>
      <trkpt lat="46.1375290" lon="5.6838700">
        <ele>967.4</ele>
        <time>2022-07-25T08:28:53Z</time>
      </trkpt>
      <trkpt lat="46.1375320" lon="5.6839890">
        <ele>968.2</ele>
        <time>2022-07-25T08:28:58Z</time>
      </trkpt>
      <trkpt lat="46.1375300" lon="5.6840150">
        <ele>968.6</ele>
        <time>2022-07-25T08:28:59Z</time>
      </trkpt>
      <trkpt lat="46.1375200" lon="5.6841010">
        <ele>968.8</ele>
        <time>2022-07-25T08:29:03Z</time>
      </trkpt>
      <trkpt lat="46.1375220" lon="5.6842050">
        <ele>969.6</ele>
        <time>2022-07-25T08:29:08Z</time>
      </trkpt>
      <trkpt lat="46.1375110" lon="5.6842440">
        <ele>969.6</ele>
        <time>2022-07-25T08:29:10Z</time>
      </trkpt>
      <trkpt lat="46.1373900" lon="5.6843840">
        <ele>970.0</ele>
        <time>2022-07-25T08:29:16Z</time>
      </trkpt>
      <trkpt lat="46.1372350" lon="5.6844510">
        <ele>970.0</ele>
        <time>2022-07-25T08:29:21Z</time>
      </trkpt>
      <trkpt lat="46.1371130" lon="5.6843930">
        <ele>969.6</ele>
        <time>2022-07-25T08:29:26Z</time>
      </trkpt>
      <trkpt lat="46.1368970" lon="5.6842950">
        <ele>968.4</ele>
        <time>2022-07-25T08:29:33Z</time>
      </trkpt>
      <trkpt lat="46.1367140" lon="5.6842080">
        <ele>967.6</ele>
        <time>2022-07-25T08:29:39Z</time>
      </trkpt>
      <trkpt lat="46.1365930" lon="5.6840610">
        <ele>967.2</ele>
        <time>2022-07-25T08:29:43Z</time>
      </trkpt>
      <trkpt lat="46.1365010" lon="5.6839250">
        <ele>966.8</ele>
        <time>2022-07-25T08:29:46Z</time>
      </trkpt>
      <trkpt lat="46.1363840" lon="5.6838080">
        <ele>966.6</ele>
        <time>2022-07-25T08:29:49Z</time>
      </trkpt>
      <trkpt lat="46.1362960" lon="5.6837350">
        <ele>966.2</ele>
        <time>2022-07-25T08:29:51Z</time>
      </trkpt>
      <trkpt lat="46.1362520" lon="5.6836940">
        <ele>966.0</ele>
        <time>2022-07-25T08:29:52Z</time>
      </trkpt>
      <trkpt lat="46.1362070" lon="5.6836580">
        <ele>966.0</ele>
        <time>2022-07-25T08:29:53Z</time>
      </trkpt>
      <trkpt lat="46.1360310" lon="5.6834980">
        <ele>965.0</ele>
        <time>2022-07-25T08:29:57Z</time>
      </trkpt>
      <trkpt lat="46.1359540" lon="5.6834260">
        <ele>964.8</ele>
        <time>2022-07-25T08:29:59Z</time>
      </trkpt>
      <trkpt lat="46.1358670" lon="5.6833440">
        <ele>964.4</ele>
        <time>2022-07-25T08:30:02Z</time>
      </trkpt>
      <trkpt lat="46.1358160" lon="5.6832950">
        <ele>963.8</ele>
        <time>2022-07-25T08:30:04Z</time>
      </trkpt>
      <trkpt lat="46.1357540" lon="5.6832320">
        <ele>962.6</ele>
        <time>2022-07-25T08:30:08Z</time>
      </trkpt>
      <trkpt lat="46.1357220" lon="5.6832240">
        <ele>961.6</ele>
        <time>2022-07-25T08:30:13Z</time>
      </trkpt>
      <trkpt lat="46.1357180" lon="5.6832270">
        <ele>961.2</ele>
        <time>2022-07-25T08:30:15Z</time>
      </trkpt>
      <trkpt lat="46.1356840" lon="5.6831930">
        <ele>960.6</ele>
        <time>2022-07-25T08:30:23Z</time>
      </trkpt>
      <trkpt lat="46.1356390" lon="5.6831490">
        <ele>960.6</ele>
        <time>2022-07-25T08:30:25Z</time>
      </trkpt>
      <trkpt lat="46.1354900" lon="5.6830400">
        <ele>960.4</ele>
        <time>2022-07-25T08:30:30Z</time>
      </trkpt>
      <trkpt lat="46.1353020" lon="5.6829290">
        <ele>960.0</ele>
        <time>2022-07-25T08:30:35Z</time>
      </trkpt>
      <trkpt lat="46.1351730" lon="5.6827400">
        <ele>959.2</ele>
        <time>2022-07-25T08:30:41Z</time>
      </trkpt>
      <trkpt lat="46.1350410" lon="5.6825290">
        <ele>958.2</ele>
        <time>2022-07-25T08:30:46Z</time>
      </trkpt>
      <trkpt lat="46.1350110" lon="5.6824830">
        <ele>958.0</ele>
        <time>2022-07-25T08:30:47Z</time>
      </trkpt>
      <trkpt lat="46.1348190" lon="5.6821990">
        <ele>957.4</ele>
        <time>2022-07-25T08:30:53Z</time>
      </trkpt>
      <trkpt lat="46.1347330" lon="5.6820940">
        <ele>956.8</ele>
        <time>2022-07-25T08:30:56Z</time>
      </trkpt>
      <trkpt lat="46.1346780" lon="5.6820330">
        <ele>956.6</ele>
        <time>2022-07-25T08:30:58Z</time>
      </trkpt>
      <trkpt lat="46.1346480" lon="5.6819890">
        <ele>955.8</ele>
        <time>2022-07-25T08:31:01Z</time>
      </trkpt>
      <trkpt lat="46.1346470" lon="5.6819860">
        <ele>955.4</ele>
        <time>2022-07-25T08:31:02Z</time>
      </trkpt>
      <trkpt lat="46.1344320" lon="5.6817370">
        <ele>953.6</ele>
        <time>2022-07-25T08:33:10Z</time>
      </trkpt>
      <trkpt lat="46.1344000" lon="5.6816730">
        <ele>953.6</ele>
        <time>2022-07-25T08:33:13Z</time>
      </trkpt>
      <trkpt lat="46.1343460" lon="5.6815780">
        <ele>953.6</ele>
        <time>2022-07-25T08:33:17Z</time>
      </trkpt>
      <trkpt lat="46.1342900" lon="5.6815120">
        <ele>953.4</ele>
        <time>2022-07-25T08:33:20Z</time>
      </trkpt>
      <trkpt lat="46.1341410" lon="5.6813230">
        <ele>952.8</ele>
        <time>2022-07-25T08:33:26Z</time>
      </trkpt>
      <trkpt lat="46.1340380" lon="5.6811830">
        <ele>952.2</ele>
        <time>2022-07-25T08:33:30Z</time>
      </trkpt>
      <trkpt lat="46.1339890" lon="5.6811140">
        <ele>951.8</ele>
        <time>2022-07-25T08:33:32Z</time>
      </trkpt>
      <trkpt lat="46.1338800" lon="5.6809100">
        <ele>951.2</ele>
        <time>2022-07-25T08:33:37Z</time>
      </trkpt>
      <trkpt lat="46.1338600" lon="5.6808740">
        <ele>951.2</ele>
        <time>2022-07-25T08:33:38Z</time>
      </trkpt>
      <trkpt lat="46.1337700" lon="5.6807090">
        <ele>950.2</ele>
        <time>2022-07-25T08:33:43Z</time>
      </trkpt>
      <trkpt lat="46.1336370" lon="5.6804670">
        <ele>949.0</ele>
        <time>2022-07-25T08:33:49Z</time>
      </trkpt>
      <trkpt lat="46.1336130" lon="5.6804370">
        <ele>949.0</ele>
        <time>2022-07-25T08:33:50Z</time>
      </trkpt>
      <trkpt lat="46.1335330" lon="5.6803370">
        <ele>948.6</ele>
        <time>2022-07-25T08:33:54Z</time>
      </trkpt>
      <trkpt lat="46.1333800" lon="5.6801710">
        <ele>947.8</ele>
        <time>2022-07-25T08:33:59Z</time>
      </trkpt>
      <trkpt lat="46.1332590" lon="5.6800940">
        <ele>947.6</ele>
        <time>2022-07-25T08:34:02Z</time>
      </trkpt>
      <trkpt lat="46.1331270" lon="5.6800190">
        <ele>947.0</ele>
        <time>2022-07-25T08:34:06Z</time>
      </trkpt>
      <trkpt lat="46.1330010" lon="5.6799380">
        <ele>947.0</ele>
        <time>2022-07-25T08:34:11Z</time>
      </trkpt>
      <trkpt lat="46.1328640" lon="5.6798850">
        <ele>947.4</ele>
        <time>2022-07-25T08:34:17Z</time>
      </trkpt>
      <trkpt lat="46.1327010" lon="5.6798430">
        <ele>948.0</ele>
        <time>2022-07-25T08:34:24Z</time>
      </trkpt>
      <trkpt lat="46.1326240" lon="5.6798280">
        <ele>948.4</ele>
        <time>2022-07-25T08:34:27Z</time>
      </trkpt>
      <trkpt lat="46.1325450" lon="5.6798170">
        <ele>948.6</ele>
        <time>2022-07-25T08:34:30Z</time>
      </trkpt>
      <trkpt lat="46.1323630" lon="5.6797990">
        <ele>949.0</ele>
        <time>2022-07-25T08:34:37Z</time>
      </trkpt>
      <trkpt lat="46.1323100" lon="5.6797810">
        <ele>949.2</ele>
        <time>2022-07-25T08:34:39Z</time>
      </trkpt>
      <trkpt lat="46.1321880" lon="5.6797630">
        <ele>949.4</ele>
        <time>2022-07-25T08:34:44Z</time>
      </trkpt>
      <trkpt lat="46.1320780" lon="5.6797230">
        <ele>949.8</ele>
        <time>2022-07-25T08:34:50Z</time>
      </trkpt>
      <trkpt lat="46.1320500" lon="5.6797120">
        <ele>950.0</ele>
        <time>2022-07-25T08:34:52Z</time>
      </trkpt>
      <trkpt lat="46.1320230" lon="5.6797180">
        <ele>950.2</ele>
        <time>2022-07-25T08:34:55Z</time>
      </trkpt>
      <trkpt lat="46.1318550" lon="5.6796960">
        <ele>950.6</ele>
        <time>2022-07-25T08:35:44Z</time>
      </trkpt>
      <trkpt lat="46.1317700" lon="5.6796510">
        <ele>951.0</ele>
        <time>2022-07-25T08:35:50Z</time>
      </trkpt>
      <trkpt lat="46.1317530" lon="5.6796500">
        <ele>951.0</ele>
        <time>2022-07-25T08:35:51Z</time>
      </trkpt>
      <trkpt lat="46.1316690" lon="5.6796020">
        <ele>951.2</ele>
        <time>2022-07-25T08:35:56Z</time>
      </trkpt>
      <trkpt lat="46.1316150" lon="5.6795580">
        <ele>951.4</ele>
        <time>2022-07-25T08:35:59Z</time>
      </trkpt>
      <trkpt lat="46.1315020" lon="5.6794730">
        <ele>951.8</ele>
        <time>2022-07-25T08:36:05Z</time>
      </trkpt>
      <trkpt lat="46.1313910" lon="5.6793910">
        <ele>952.2</ele>
        <time>2022-07-25T08:36:11Z</time>
      </trkpt>
      <trkpt lat="46.1313520" lon="5.6793710">
        <ele>952.4</ele>
        <time>2022-07-25T08:36:13Z</time>
      </trkpt>
      <trkpt lat="46.1311910" lon="5.6793200">
        <ele>953.0</ele>
        <time>2022-07-25T08:36:20Z</time>
      </trkpt>
      <trkpt lat="46.1311250" lon="5.6792880">
        <ele>953.0</ele>
        <time>2022-07-25T08:36:23Z</time>
      </trkpt>
      <trkpt lat="46.1310140" lon="5.6792480">
        <ele>953.6</ele>
        <time>2022-07-25T08:36:28Z</time>
      </trkpt>
      <trkpt lat="46.1309080" lon="5.6792030">
        <ele>953.8</ele>
        <time>2022-07-25T08:36:33Z</time>
      </trkpt>
      <trkpt lat="46.1308420" lon="5.6791760">
        <ele>954.2</ele>
        <time>2022-07-25T08:36:36Z</time>
      </trkpt>
      <trkpt lat="46.1307080" lon="5.6791410">
        <ele>954.6</ele>
        <time>2022-07-25T08:36:43Z</time>
      </trkpt>
      <trkpt lat="46.1306630" lon="5.6791270">
        <ele>955.0</ele>
        <time>2022-07-25T08:36:45Z</time>
      </trkpt>
      <trkpt lat="46.1305800" lon="5.6790880">
        <ele>955.4</ele>
        <time>2022-07-25T08:36:49Z</time>
      </trkpt>
      <trkpt lat="46.1304720" lon="5.6790160">
        <ele>955.8</ele>
        <time>2022-07-25T08:36:54Z</time>
      </trkpt>
      <trkpt lat="46.1304290" lon="5.6789910">
        <ele>956.0</ele>
        <time>2022-07-25T08:36:56Z</time>
      </trkpt>
      <trkpt lat="46.1303110" lon="5.6789310">
        <ele>956.4</ele>
        <time>2022-07-25T08:37:01Z</time>
      </trkpt>
      <trkpt lat="46.1302140" lon="5.6788700">
        <ele>956.6</ele>
        <time>2022-07-25T08:37:05Z</time>
      </trkpt>
      <trkpt lat="46.1301420" lon="5.6788060">
        <ele>957.0</ele>
        <time>2022-07-25T08:37:08Z</time>
      </trkpt>
      <trkpt lat="46.1300020" lon="5.6787010">
        <ele>957.4</ele>
        <time>2022-07-25T08:37:14Z</time>
      </trkpt>
      <trkpt lat="46.1299820" lon="5.6786860">
        <ele>957.6</ele>
        <time>2022-07-25T08:37:15Z</time>
      </trkpt>
      <trkpt lat="46.1298470" lon="5.6786380">
        <ele>958.4</ele>
        <time>2022-07-25T08:37:21Z</time>
      </trkpt>
      <trkpt lat="46.1297940" lon="5.6786360">
        <ele>958.8</ele>
        <time>2022-07-25T08:37:23Z</time>
      </trkpt>
      <trkpt lat="46.1296790" lon="5.6786420">
        <ele>959.2</ele>
        <time>2022-07-25T08:37:28Z</time>
      </trkpt>
      <trkpt lat="46.1295320" lon="5.6786810">
        <ele>959.4</ele>
        <time>2022-07-25T08:37:34Z</time>
      </trkpt>
      <trkpt lat="46.1294700" lon="5.6786920">
        <ele>959.6</ele>
        <time>2022-07-25T08:37:37Z</time>
      </trkpt>
      <trkpt lat="46.1294380" lon="5.6786930">
        <ele>959.8</ele>
        <time>2022-07-25T08:37:39Z</time>
      </trkpt>
      <trkpt lat="46.1293690" lon="5.6786900">
        <ele>960.2</ele>
        <time>2022-07-25T08:37:43Z</time>
      </trkpt>
      <trkpt lat="46.1293180" lon="5.6786820">
        <ele>960.4</ele>
        <time>2022-07-25T08:37:46Z</time>
      </trkpt>
      <trkpt lat="46.1293040" lon="5.6786790">
        <ele>960.4</ele>
        <time>2022-07-25T08:37:47Z</time>
      </trkpt>
      <trkpt lat="46.1292730" lon="5.6786720">
        <ele>960.6</ele>
        <time>2022-07-25T08:37:49Z</time>
      </trkpt>
      <trkpt lat="46.1292270" lon="5.6786610">
        <ele>961.0</ele>
        <time>2022-07-25T08:37:52Z</time>
      </trkpt>
      <trkpt lat="46.1291580" lon="5.6786560">
        <ele>961.8</ele>
        <time>2022-07-25T08:37:58Z</time>
      </trkpt>
      <trkpt lat="46.1291450" lon="5.6786530">
        <ele>962.0</ele>
        <time>2022-07-25T08:37:59Z</time>
      </trkpt>
      <trkpt lat="46.1290320" lon="5.6786560">
        <ele>962.4</ele>
        <time>2022-07-25T08:38:06Z</time>
      </trkpt>
      <trkpt lat="46.1289840" lon="5.6786560">
        <ele>962.6</ele>
        <time>2022-07-25T08:38:09Z</time>
      </trkpt>
      <trkpt lat="46.1289210" lon="5.6786470">
        <ele>963.0</ele>
        <time>2022-07-25T08:38:13Z</time>
      </trkpt>
      <trkpt lat="46.1288270" lon="5.6786280">
        <ele>963.8</ele>
        <time>2022-07-25T08:38:18Z</time>
      </trkpt>
      <trkpt lat="46.1288070" lon="5.6786310">
        <ele>964.0</ele>
        <time>2022-07-25T08:38:19Z</time>
      </trkpt>
      <trkpt lat="46.1286550" lon="5.6786660">
        <ele>964.6</ele>
        <time>2022-07-25T08:38:26Z</time>
      </trkpt>
      <trkpt lat="46.1286050" lon="5.6786880">
        <ele>964.8</ele>
        <time>2022-07-25T08:38:28Z</time>
      </trkpt>
      <trkpt lat="46.1284940" lon="5.6787050">
        <ele>965.4</ele>
        <time>2022-07-25T08:38:34Z</time>
      </trkpt>
      <trkpt lat="46.1284250" lon="5.6787180">
        <ele>965.8</ele>
        <time>2022-07-25T08:38:38Z</time>
      </trkpt>
      <trkpt lat="46.1283970" lon="5.6787270">
        <ele>966.2</ele>
        <time>2022-07-25T08:38:40Z</time>
      </trkpt>
      <trkpt lat="46.1283500" lon="5.6787610">
        <ele>966.6</ele>
        <time>2022-07-25T08:38:44Z</time>
      </trkpt>
      <trkpt lat="46.1283390" lon="5.6788010">
        <ele>966.6</ele>
        <time>2022-07-25T08:38:46Z</time>
      </trkpt>
      <trkpt lat="46.1283350" lon="5.6788350">
        <ele>967.0</ele>
        <time>2022-07-25T08:38:48Z</time>
      </trkpt>
      <trkpt lat="46.1283290" lon="5.6788870">
        <ele>967.4</ele>
        <time>2022-07-25T08:38:51Z</time>
      </trkpt>
      <trkpt lat="46.1283580" lon="5.6789680">
        <ele>968.0</ele>
        <time>2022-07-25T08:38:57Z</time>
      </trkpt>
      <trkpt lat="46.1283920" lon="5.6790140">
        <ele>968.8</ele>
        <time>2022-07-25T08:39:00Z</time>
      </trkpt>
      <trkpt lat="46.1284450" lon="5.6790790">
        <ele>969.2</ele>
        <time>2022-07-25T08:39:04Z</time>
      </trkpt>
      <trkpt lat="46.1285260" lon="5.6791570">
        <ele>969.6</ele>
        <time>2022-07-25T08:39:09Z</time>
      </trkpt>
      <trkpt lat="46.1286620" lon="5.6792090">
        <ele>970.2</ele>
        <time>2022-07-25T08:39:15Z</time>
      </trkpt>
      <trkpt lat="46.1287910" lon="5.6792760">
        <ele>970.6</ele>
        <time>2022-07-25T08:39:22Z</time>
      </trkpt>
      <trkpt lat="46.1288580" lon="5.6793220">
        <ele>971.0</ele>
        <time>2022-07-25T08:39:28Z</time>
      </trkpt>
      <trkpt lat="46.1289440" lon="5.6793840">
        <ele>971.2</ele>
        <time>2022-07-25T08:39:34Z</time>
      </trkpt>
      <trkpt lat="46.1289600" lon="5.6793970">
        <ele>971.4</ele>
        <time>2022-07-25T08:39:35Z</time>
      </trkpt>
      <trkpt lat="46.1290610" lon="5.6794640">
        <ele>971.6</ele>
        <time>2022-07-25T08:39:40Z</time>
      </trkpt>
      <trkpt lat="46.1291910" lon="5.6795460">
        <ele>971.8</ele>
        <time>2022-07-25T08:39:45Z</time>
      </trkpt>
      <trkpt lat="46.1294000" lon="5.6796360">
        <ele>972.2</ele>
        <time>2022-07-25T08:39:52Z</time>
      </trkpt>
      <trkpt lat="46.1294270" lon="5.6796420">
        <ele>972.2</ele>
        <time>2022-07-25T08:39:53Z</time>
      </trkpt>
      <trkpt lat="46.1295860" lon="5.6796990">
        <ele>972.6</ele>
        <time>2022-07-25T08:39:59Z</time>
      </trkpt>
      <trkpt lat="46.1297500" lon="5.6798010">
        <ele>973.0</ele>
        <time>2022-07-25T08:40:05Z</time>
      </trkpt>
      <trkpt lat="46.1297970" lon="5.6798240">
        <ele>973.2</ele>
        <time>2022-07-25T08:40:07Z</time>
      </trkpt>
      <trkpt lat="46.1298780" lon="5.6798650">
        <ele>973.6</ele>
        <time>2022-07-25T08:40:11Z</time>
      </trkpt>
      <trkpt lat="46.1300310" lon="5.6799200">
        <ele>974.0</ele>
        <time>2022-07-25T08:40:17Z</time>
      </trkpt>
      <trkpt lat="46.1302190" lon="5.6799710">
        <ele>974.2</ele>
        <time>2022-07-25T08:40:23Z</time>
      </trkpt>
      <trkpt lat="46.1302560" lon="5.6799810">
        <ele>974.2</ele>
        <time>2022-07-25T08:40:24Z</time>
      </trkpt>
      <trkpt lat="46.1304480" lon="5.6800610">
        <ele>974.4</ele>
        <time>2022-07-25T08:40:30Z</time>
      </trkpt>
      <trkpt lat="46.1306280" lon="5.6801410">
        <ele>974.8</ele>
        <time>2022-07-25T08:40:37Z</time>
      </trkpt>
      <trkpt lat="46.1307720" lon="5.6802600">
        <ele>975.0</ele>
        <time>2022-07-25T08:40:43Z</time>
      </trkpt>
      <trkpt lat="46.1308210" lon="5.6802900">
        <ele>975.0</ele>
        <time>2022-07-25T08:40:45Z</time>
      </trkpt>
      <trkpt lat="46.1309340" lon="5.6803790">
        <ele>975.2</ele>
        <time>2022-07-25T08:40:49Z</time>
      </trkpt>
      <trkpt lat="46.1311210" lon="5.6806080">
        <ele>975.2</ele>
        <time>2022-07-25T08:40:55Z</time>
      </trkpt>
      <trkpt lat="46.1313800" lon="5.6809400">
        <ele>975.0</ele>
        <time>2022-07-25T08:41:01Z</time>
      </trkpt>
      <trkpt lat="46.1317400" lon="5.6812180">
        <ele>974.0</ele>
        <time>2022-07-25T08:41:08Z</time>
      </trkpt>
      <trkpt lat="46.1320540" lon="5.6814290">
        <ele>973.4</ele>
        <time>2022-07-25T08:41:14Z</time>
      </trkpt>
      <trkpt lat="46.1322130" lon="5.6815320">
        <ele>972.8</ele>
        <time>2022-07-25T08:41:17Z</time>
      </trkpt>
      <trkpt lat="46.1323620" lon="5.6816500">
        <ele>971.8</ele>
        <time>2022-07-25T08:41:20Z</time>
      </trkpt>
      <trkpt lat="46.1324070" lon="5.6816920">
        <ele>971.8</ele>
        <time>2022-07-25T08:41:21Z</time>
      </trkpt>
      <trkpt lat="46.1325020" lon="5.6817920">
        <ele>971.4</ele>
        <time>2022-07-25T08:41:23Z</time>
      </trkpt>
      <trkpt lat="46.1325890" lon="5.6819150">
        <ele>971.2</ele>
        <time>2022-07-25T08:41:25Z</time>
      </trkpt>
      <trkpt lat="46.1326620" lon="5.6821280">
        <ele>970.8</ele>
        <time>2022-07-25T08:41:28Z</time>
      </trkpt>
      <trkpt lat="46.1326730" lon="5.6822860">
        <ele>970.8</ele>
        <time>2022-07-25T08:41:30Z</time>
      </trkpt>
      <trkpt lat="46.1326840" lon="5.6825110">
        <ele>970.4</ele>
        <time>2022-07-25T08:41:33Z</time>
      </trkpt>
      <trkpt lat="46.1327240" lon="5.6828780">
        <ele>969.6</ele>
        <time>2022-07-25T08:41:38Z</time>
      </trkpt>
      <trkpt lat="46.1327500" lon="5.6830040">
        <ele>969.4</ele>
        <time>2022-07-25T08:41:40Z</time>
      </trkpt>
      <trkpt lat="46.1328130" lon="5.6833500">
        <ele>968.6</ele>
        <time>2022-07-25T08:41:46Z</time>
      </trkpt>
      <trkpt lat="46.1328240" lon="5.6834070">
        <ele>968.6</ele>
        <time>2022-07-25T08:41:47Z</time>
      </trkpt>
      <trkpt lat="46.1328630" lon="5.6835760">
        <ele>968.4</ele>
        <time>2022-07-25T08:41:50Z</time>
      </trkpt>
      <trkpt lat="46.1329030" lon="5.6836920">
        <ele>968.4</ele>
        <time>2022-07-25T08:41:52Z</time>
      </trkpt>
      <trkpt lat="46.1329680" lon="5.6838980">
        <ele>968.0</ele>
        <time>2022-07-25T08:41:56Z</time>
      </trkpt>
      <trkpt lat="46.1330950" lon="5.6842110">
        <ele>968.0</ele>
        <time>2022-07-25T08:42:02Z</time>
      </trkpt>
      <trkpt lat="46.1331840" lon="5.6845060">
        <ele>968.0</ele>
        <time>2022-07-25T08:42:08Z</time>
      </trkpt>
      <trkpt lat="46.1332300" lon="5.6847090">
        <ele>968.0</ele>
        <time>2022-07-25T08:42:13Z</time>
      </trkpt>
      <trkpt lat="46.1333180" lon="5.6849470">
        <ele>968.2</ele>
        <time>2022-07-25T08:42:20Z</time>
      </trkpt>
      <trkpt lat="46.1333760" lon="5.6852000">
        <ele>968.8</ele>
        <time>2022-07-25T08:42:27Z</time>
      </trkpt>
      <trkpt lat="46.1334410" lon="5.6853730">
        <ele>968.8</ele>
        <time>2022-07-25T08:42:32Z</time>
      </trkpt>
      <trkpt lat="46.1335360" lon="5.6856330">
        <ele>969.0</ele>
        <time>2022-07-25T08:42:39Z</time>
      </trkpt>
      <trkpt lat="46.1335740" lon="5.6857620">
        <ele>969.4</ele>
        <time>2022-07-25T08:42:43Z</time>
      </trkpt>
      <trkpt lat="46.1335960" lon="5.6858130">
        <ele>969.4</ele>
        <time>2022-07-25T08:42:45Z</time>
      </trkpt>
      <trkpt lat="46.1336240" lon="5.6860010">
        <ele>969.6</ele>
        <time>2022-07-25T08:42:51Z</time>
      </trkpt>
      <trkpt lat="46.1335880" lon="5.6861860">
        <ele>969.6</ele>
        <time>2022-07-25T08:42:57Z</time>
      </trkpt>
      <trkpt lat="46.1335700" lon="5.6863810">
        <ele>970.4</ele>
        <time>2022-07-25T08:43:04Z</time>
      </trkpt>
      <trkpt lat="46.1335700" lon="5.6864080">
        <ele>970.6</ele>
        <time>2022-07-25T08:43:05Z</time>
      </trkpt>
      <trkpt lat="46.1335890" lon="5.6865680">
        <ele>971.2</ele>
        <time>2022-07-25T08:43:10Z</time>
      </trkpt>
      <trkpt lat="46.1336060" lon="5.6865940">
        <ele>971.4</ele>
        <time>2022-07-25T08:43:11Z</time>
      </trkpt>
      <trkpt lat="46.1336960" lon="5.6867380">
        <ele>972.0</ele>
        <time>2022-07-25T08:43:17Z</time>
      </trkpt>
      <trkpt lat="46.1338470" lon="5.6869620">
        <ele>972.2</ele>
        <time>2022-07-25T08:43:23Z</time>
      </trkpt>
      <trkpt lat="46.1338970" lon="5.6871870">
        <ele>972.0</ele>
        <time>2022-07-25T08:43:28Z</time>
      </trkpt>
      <trkpt lat="46.1338370" lon="5.6874220">
        <ele>972.2</ele>
        <time>2022-07-25T08:43:34Z</time>
      </trkpt>
      <trkpt lat="46.1337550" lon="5.6875200">
        <ele>972.2</ele>
        <time>2022-07-25T08:43:38Z</time>
      </trkpt>
      <trkpt lat="46.1337140" lon="5.6875430">
        <ele>972.4</ele>
        <time>2022-07-25T08:43:40Z</time>
      </trkpt>
      <trkpt lat="46.1336680" lon="5.6875450">
        <ele>972.6</ele>
        <time>2022-07-25T08:43:42Z</time>
      </trkpt>
      <trkpt lat="46.1336020" lon="5.6875240">
        <ele>973.0</ele>
        <time>2022-07-25T08:43:45Z</time>
      </trkpt>
      <trkpt lat="46.1335490" lon="5.6874950">
        <ele>973.2</ele>
        <time>2022-07-25T08:43:48Z</time>
      </trkpt>
      <trkpt lat="46.1335130" lon="5.6874760">
        <ele>973.6</ele>
        <time>2022-07-25T08:43:50Z</time>
      </trkpt>
      <trkpt lat="46.1334850" lon="5.6874500">
        <ele>973.8</ele>
        <time>2022-07-25T08:43:52Z</time>
      </trkpt>
      <trkpt lat="46.1334550" lon="5.6874110">
        <ele>974.4</ele>
        <time>2022-07-25T08:43:55Z</time>
      </trkpt>
      <trkpt lat="46.1334400" lon="5.6873660">
        <ele>974.8</ele>
        <time>2022-07-25T08:43:57Z</time>
      </trkpt>
      <trkpt lat="46.1334160" lon="5.6872720">
        <ele>975.2</ele>
        <time>2022-07-25T08:44:01Z</time>
      </trkpt>
      <trkpt lat="46.1334020" lon="5.6872420">
        <ele>975.6</ele>
        <time>2022-07-25T08:44:03Z</time>
      </trkpt>
      <trkpt lat="46.1333710" lon="5.6871420">
        <ele>976.4</ele>
        <time>2022-07-25T08:44:08Z</time>
      </trkpt>
      <trkpt lat="46.1333680" lon="5.6871190">
        <ele>976.6</ele>
        <time>2022-07-25T08:44:09Z</time>
      </trkpt>
      <trkpt lat="46.1333580" lon="5.6869500">
        <ele>977.6</ele>
        <time>2022-07-25T08:44:16Z</time>
      </trkpt>
      <trkpt lat="46.1333050" lon="5.6867790">
        <ele>978.4</ele>
        <time>2022-07-25T08:44:23Z</time>
      </trkpt>
      <trkpt lat="46.1332780" lon="5.6867120">
        <ele>978.6</ele>
        <time>2022-07-25T08:44:25Z</time>
      </trkpt>
      <trkpt lat="46.1332080" lon="5.6865950">
        <ele>979.0</ele>
        <time>2022-07-25T08:44:29Z</time>
      </trkpt>
      <trkpt lat="46.1331410" lon="5.6864340">
        <ele>979.6</ele>
        <time>2022-07-25T08:44:34Z</time>
      </trkpt>
      <trkpt lat="46.1331290" lon="5.6864050">
        <ele>979.8</ele>
        <time>2022-07-25T08:44:35Z</time>
      </trkpt>
      <trkpt lat="46.1330710" lon="5.6862470">
        <ele>980.6</ele>
        <time>2022-07-25T08:44:40Z</time>
      </trkpt>
      <trkpt lat="46.1330580" lon="5.6862120">
        <ele>980.8</ele>
        <time>2022-07-25T08:44:41Z</time>
      </trkpt>
      <trkpt lat="46.1329940" lon="5.6860590">
        <ele>981.6</ele>
        <time>2022-07-25T08:44:46Z</time>
      </trkpt>
      <trkpt lat="46.1329700" lon="5.6860000">
        <ele>981.8</ele>
        <time>2022-07-25T08:44:48Z</time>
      </trkpt>
      <trkpt lat="46.1328970" lon="5.6858580">
        <ele>982.8</ele>
        <time>2022-07-25T08:44:53Z</time>
      </trkpt>
      <trkpt lat="46.1328140" lon="5.6857230">
        <ele>984.0</ele>
        <time>2022-07-25T08:44:59Z</time>
      </trkpt>
      <trkpt lat="46.1327140" lon="5.6855610">
        <ele>985.0</ele>
        <time>2022-07-25T08:45:06Z</time>
      </trkpt>
      <trkpt lat="46.1326250" lon="5.6854450">
        <ele>986.0</ele>
        <time>2022-07-25T08:45:12Z</time>
      </trkpt>
      <trkpt lat="46.1326110" lon="5.6854220">
        <ele>986.2</ele>
        <time>2022-07-25T08:45:13Z</time>
      </trkpt>
      <trkpt lat="46.1325380" lon="5.6853160">
        <ele>987.2</ele>
        <time>2022-07-25T08:45:18Z</time>
      </trkpt>
      <trkpt lat="46.1325140" lon="5.6852710">
        <ele>987.4</ele>
        <time>2022-07-25T08:45:20Z</time>
      </trkpt>
      <trkpt lat="46.1324480" lon="5.6851260">
        <ele>988.2</ele>
        <time>2022-07-25T08:45:26Z</time>
      </trkpt>
      <trkpt lat="46.1324400" lon="5.6851020">
        <ele>988.4</ele>
        <time>2022-07-25T08:45:27Z</time>
      </trkpt>
      <trkpt lat="46.1323600" lon="5.6849470">
        <ele>989.4</ele>
        <time>2022-07-25T08:45:34Z</time>
      </trkpt>
      <trkpt lat="46.1323470" lon="5.6849250">
        <ele>989.4</ele>
        <time>2022-07-25T08:45:35Z</time>
      </trkpt>
      <trkpt lat="46.1322860" lon="5.6848330">
        <ele>990.4</ele>
        <time>2022-07-25T08:45:39Z</time>
      </trkpt>
      <trkpt lat="46.1322280" lon="5.6847760">
        <ele>990.8</ele>
        <time>2022-07-25T08:45:42Z</time>
      </trkpt>
      <trkpt lat="46.1321030" lon="5.6846860">
        <ele>991.4</ele>
        <time>2022-07-25T08:45:48Z</time>
      </trkpt>
      <trkpt lat="46.1320830" lon="5.6846740">
        <ele>991.6</ele>
        <time>2022-07-25T08:45:49Z</time>
      </trkpt>
      <trkpt lat="46.1319260" lon="5.6846390">
        <ele>992.6</ele>
        <time>2022-07-25T08:45:56Z</time>
      </trkpt>
      <trkpt lat="46.1317730" lon="5.6846060">
        <ele>993.4</ele>
        <time>2022-07-25T08:46:03Z</time>
      </trkpt>
      <trkpt lat="46.1317520" lon="5.6846000">
        <ele>993.6</ele>
        <time>2022-07-25T08:46:04Z</time>
      </trkpt>
      <trkpt lat="46.1316450" lon="5.6845720">
        <ele>994.6</ele>
        <time>2022-07-25T08:46:09Z</time>
      </trkpt>
      <trkpt lat="46.1315630" lon="5.6845370">
        <ele>994.8</ele>
        <time>2022-07-25T08:46:13Z</time>
      </trkpt>
      <trkpt lat="46.1314200" lon="5.6844510">
        <ele>995.4</ele>
        <time>2022-07-25T08:46:20Z</time>
      </trkpt>
      <trkpt lat="46.1313610" lon="5.6844080">
        <ele>995.8</ele>
        <time>2022-07-25T08:46:23Z</time>
      </trkpt>
      <trkpt lat="46.1313080" lon="5.6843610">
        <ele>996.4</ele>
        <time>2022-07-25T08:46:26Z</time>
      </trkpt>
      <trkpt lat="46.1312100" lon="5.6842640">
        <ele>997.4</ele>
        <time>2022-07-25T08:46:32Z</time>
      </trkpt>
      <trkpt lat="46.1311790" lon="5.6842320">
        <ele>997.6</ele>
        <time>2022-07-25T08:46:34Z</time>
      </trkpt>
      <trkpt lat="46.1311150" lon="5.6841690">
        <ele>998.6</ele>
        <time>2022-07-25T08:46:38Z</time>
      </trkpt>
      <trkpt lat="46.1310650" lon="5.6841200">
        <ele>999.0</ele>
        <time>2022-07-25T08:46:41Z</time>
      </trkpt>
      <trkpt lat="46.1309590" lon="5.6840240">
        <ele>999.6</ele>
        <time>2022-07-25T08:46:47Z</time>
      </trkpt>
      <trkpt lat="46.1309030" lon="5.6839760">
        <ele>1000.0</ele>
        <time>2022-07-25T08:46:50Z</time>
      </trkpt>
      <trkpt lat="46.1308120" lon="5.6839020">
        <ele>1000.6</ele>
        <time>2022-07-25T08:46:55Z</time>
      </trkpt>
      <trkpt lat="46.1307400" lon="5.6838510">
        <ele>1001.2</ele>
        <time>2022-07-25T08:46:59Z</time>
      </trkpt>
      <trkpt lat="46.1306640" lon="5.6837990">
        <ele>1001.6</ele>
        <time>2022-07-25T08:47:03Z</time>
      </trkpt>
      <trkpt lat="46.1305640" lon="5.6837480">
        <ele>1002.8</ele>
        <time>2022-07-25T08:47:08Z</time>
      </trkpt>
      <trkpt lat="46.1304260" lon="5.6836750">
        <ele>1003.6</ele>
        <time>2022-07-25T08:47:15Z</time>
      </trkpt>
      <trkpt lat="46.1303280" lon="5.6836220">
        <ele>1003.8</ele>
        <time>2022-07-25T08:47:20Z</time>
      </trkpt>
      <trkpt lat="46.1302890" lon="5.6835940">
        <ele>1004.4</ele>
        <time>2022-07-25T08:47:22Z</time>
      </trkpt>
      <trkpt lat="46.1302290" lon="5.6835650">
        <ele>1005.0</ele>
        <time>2022-07-25T08:47:25Z</time>
      </trkpt>
      <trkpt lat="46.1301060" lon="5.6835190">
        <ele>1006.0</ele>
        <time>2022-07-25T08:47:31Z</time>
      </trkpt>
      <trkpt lat="46.1300840" lon="5.6835120">
        <ele>1006.2</ele>
        <time>2022-07-25T08:47:32Z</time>
      </trkpt>
      <trkpt lat="46.1299770" lon="5.6834730">
        <ele>1006.8</ele>
        <time>2022-07-25T08:47:37Z</time>
      </trkpt>
      <trkpt lat="46.1299360" lon="5.6834660">
        <ele>1007.2</ele>
        <time>2022-07-25T08:47:39Z</time>
      </trkpt>
      <trkpt lat="46.1299170" lon="5.6834620">
        <ele>1007.4</ele>
        <time>2022-07-25T08:47:40Z</time>
      </trkpt>
      <trkpt lat="46.1298200" lon="5.6834430">
        <ele>1008.2</ele>
        <time>2022-07-25T08:47:45Z</time>
      </trkpt>
      <trkpt lat="46.1297100" lon="5.6834280">
        <ele>1009.2</ele>
        <time>2022-07-25T08:47:51Z</time>
      </trkpt>
      <trkpt lat="46.1296930" lon="5.6834250">
        <ele>1009.4</ele>
        <time>2022-07-25T08:47:52Z</time>
      </trkpt>
      <trkpt lat="46.1295600" lon="5.6833230">
        <ele>1010.4</ele>
        <time>2022-07-25T08:47:59Z</time>
      </trkpt>
      <trkpt lat="46.1295440" lon="5.6833090">
        <ele>1010.4</ele>
        <time>2022-07-25T08:48:00Z</time>
      </trkpt>
      <trkpt lat="46.1294180" lon="5.6832770">
        <ele>1011.2</ele>
        <time>2022-07-25T08:48:06Z</time>
      </trkpt>
      <trkpt lat="46.1293960" lon="5.6832750">
        <ele>1011.4</ele>
        <time>2022-07-25T08:48:07Z</time>
      </trkpt>
      <trkpt lat="46.1292580" lon="5.6832570">
        <ele>1012.4</ele>
        <time>2022-07-25T08:48:14Z</time>
      </trkpt>
      <trkpt lat="46.1292400" lon="5.6832540">
        <ele>1012.4</ele>
        <time>2022-07-25T08:48:15Z</time>
      </trkpt>
      <trkpt lat="46.1290950" lon="5.6832410">
        <ele>1013.4</ele>
        <time>2022-07-25T08:48:22Z</time>
      </trkpt>
      <trkpt lat="46.1290740" lon="5.6832380">
        <ele>1013.8</ele>
        <time>2022-07-25T08:48:23Z</time>
      </trkpt>
      <trkpt lat="46.1289770" lon="5.6832050">
        <ele>1014.4</ele>
        <time>2022-07-25T08:48:28Z</time>
      </trkpt>
      <trkpt lat="46.1289190" lon="5.6831810">
        <ele>1014.8</ele>
        <time>2022-07-25T08:48:31Z</time>
      </trkpt>
      <trkpt lat="46.1288530" lon="5.6831630">
        <ele>1015.6</ele>
        <time>2022-07-25T08:48:35Z</time>
      </trkpt>
      <trkpt lat="46.1287990" lon="5.6831590">
        <ele>1016.0</ele>
        <time>2022-07-25T08:48:38Z</time>
      </trkpt>
      <trkpt lat="46.1287240" lon="5.6831570">
        <ele>1016.6</ele>
        <time>2022-07-25T08:48:42Z</time>
      </trkpt>
      <trkpt lat="46.1286200" lon="5.6831570">
        <ele>1017.2</ele>
        <time>2022-07-25T08:48:47Z</time>
      </trkpt>
      <trkpt lat="46.1285570" lon="5.6831790">
        <ele>1017.6</ele>
        <time>2022-07-25T08:48:50Z</time>
      </trkpt>
      <trkpt lat="46.1284960" lon="5.6831980">
        <ele>1018.0</ele>
        <time>2022-07-25T08:48:53Z</time>
      </trkpt>
      <trkpt lat="46.1283940" lon="5.6832310">
        <ele>1018.6</ele>
        <time>2022-07-25T08:48:58Z</time>
      </trkpt>
      <trkpt lat="46.1283390" lon="5.6832490">
        <ele>1019.0</ele>
        <time>2022-07-25T08:49:01Z</time>
      </trkpt>
      <trkpt lat="46.1282870" lon="5.6832890">
        <ele>1019.8</ele>
        <time>2022-07-25T08:49:04Z</time>
      </trkpt>
      <trkpt lat="46.1282240" lon="5.6833100">
        <ele>1020.2</ele>
        <time>2022-07-25T08:49:07Z</time>
      </trkpt>
      <trkpt lat="46.1281560" lon="5.6833410">
        <ele>1021.0</ele>
        <time>2022-07-25T08:49:10Z</time>
      </trkpt>
      <trkpt lat="46.1280440" lon="5.6833860">
        <ele>1021.8</ele>
        <time>2022-07-25T08:49:15Z</time>
      </trkpt>
      <trkpt lat="46.1280240" lon="5.6833990">
        <ele>1022.0</ele>
        <time>2022-07-25T08:49:16Z</time>
      </trkpt>
      <trkpt lat="46.1278790" lon="5.6834870">
        <ele>1022.8</ele>
        <time>2022-07-25T08:49:23Z</time>
      </trkpt>
      <trkpt lat="46.1278360" lon="5.6835540">
        <ele>1023.0</ele>
        <time>2022-07-25T08:49:26Z</time>
      </trkpt>
      <trkpt lat="46.1278170" lon="5.6836070">
        <ele>1023.2</ele>
        <time>2022-07-25T08:49:28Z</time>
      </trkpt>
      <trkpt lat="46.1277970" lon="5.6837420">
        <ele>1024.2</ele>
        <time>2022-07-25T08:49:33Z</time>
      </trkpt>
      <trkpt lat="46.1278030" lon="5.6838020">
        <ele>1024.4</ele>
        <time>2022-07-25T08:49:35Z</time>
      </trkpt>
      <trkpt lat="46.1278380" lon="5.6839680">
        <ele>1025.0</ele>
        <time>2022-07-25T08:49:41Z</time>
      </trkpt>
      <trkpt lat="46.1278480" lon="5.6839940">
        <ele>1025.4</ele>
        <time>2022-07-25T08:49:42Z</time>
      </trkpt>
      <trkpt lat="46.1278760" lon="5.6840620">
        <ele>1025.6</ele>
        <time>2022-07-25T08:49:45Z</time>
      </trkpt>
      <trkpt lat="46.1279100" lon="5.6841030">
        <ele>1025.8</ele>
        <time>2022-07-25T08:49:47Z</time>
      </trkpt>
      <trkpt lat="46.1279660" lon="5.6841540">
        <ele>1026.2</ele>
        <time>2022-07-25T08:49:50Z</time>
      </trkpt>
      <trkpt lat="46.1280100" lon="5.6841720">
        <ele>1026.2</ele>
        <time>2022-07-25T08:49:52Z</time>
      </trkpt>
      <trkpt lat="46.1280340" lon="5.6841780">
        <ele>1026.4</ele>
        <time>2022-07-25T08:49:53Z</time>
      </trkpt>
      <trkpt lat="46.1281700" lon="5.6841590">
        <ele>1027.0</ele>
        <time>2022-07-25T08:49:59Z</time>
      </trkpt>
      <trkpt lat="46.1281930" lon="5.6841480">
        <ele>1027.2</ele>
        <time>2022-07-25T08:50:00Z</time>
      </trkpt>
      <trkpt lat="46.1283320" lon="5.6840730">
        <ele>1027.6</ele>
        <time>2022-07-25T08:50:06Z</time>
      </trkpt>
      <trkpt lat="46.1284960" lon="5.6839950">
        <ele>1028.0</ele>
        <time>2022-07-25T08:50:12Z</time>
      </trkpt>
      <trkpt lat="46.1286480" lon="5.6839380">
        <ele>1028.2</ele>
        <time>2022-07-25T08:50:17Z</time>
      </trkpt>
      <trkpt lat="46.1286730" lon="5.6839370">
        <ele>1028.4</ele>
        <time>2022-07-25T08:50:18Z</time>
      </trkpt>
      <trkpt lat="46.1287200" lon="5.6839560">
        <ele>1028.4</ele>
        <time>2022-07-25T08:50:20Z</time>
      </trkpt>
      <trkpt lat="46.1287870" lon="5.6840170">
        <ele>1028.8</ele>
        <time>2022-07-25T08:50:23Z</time>
      </trkpt>
      <trkpt lat="46.1288750" lon="5.6841800">
        <ele>1029.2</ele>
        <time>2022-07-25T08:50:29Z</time>
      </trkpt>
      <trkpt lat="46.1289080" lon="5.6843190">
        <ele>1030.2</ele>
        <time>2022-07-25T08:50:34Z</time>
      </trkpt>
      <trkpt lat="46.1289100" lon="5.6843480">
        <ele>1030.4</ele>
        <time>2022-07-25T08:50:35Z</time>
      </trkpt>
      <trkpt lat="46.1288910" lon="5.6844900">
        <ele>1031.4</ele>
        <time>2022-07-25T08:50:40Z</time>
      </trkpt>
      <trkpt lat="46.1288820" lon="5.6845170">
        <ele>1031.6</ele>
        <time>2022-07-25T08:50:41Z</time>
      </trkpt>
      <trkpt lat="46.1288140" lon="5.6846200">
        <ele>1032.4</ele>
        <time>2022-07-25T08:50:46Z</time>
      </trkpt>
      <trkpt lat="46.1287850" lon="5.6846470">
        <ele>1032.6</ele>
        <time>2022-07-25T08:50:48Z</time>
      </trkpt>
      <trkpt lat="46.1287200" lon="5.6846910">
        <ele>1033.2</ele>
        <time>2022-07-25T08:50:52Z</time>
      </trkpt>
      <trkpt lat="46.1286650" lon="5.6847070">
        <ele>1033.8</ele>
        <time>2022-07-25T08:50:55Z</time>
      </trkpt>
      <trkpt lat="46.1286130" lon="5.6847130">
        <ele>1034.4</ele>
        <time>2022-07-25T08:50:58Z</time>
      </trkpt>
      <trkpt lat="46.1285150" lon="5.6847160">
        <ele>1035.2</ele>
        <time>2022-07-25T08:51:03Z</time>
      </trkpt>
      <trkpt lat="46.1284750" lon="5.6847190">
        <ele>1035.6</ele>
        <time>2022-07-25T08:51:05Z</time>
      </trkpt>
      <trkpt lat="46.1283840" lon="5.6847300">
        <ele>1036.4</ele>
        <time>2022-07-25T08:51:10Z</time>
      </trkpt>
      <trkpt lat="46.1283660" lon="5.6847310">
        <ele>1036.6</ele>
        <time>2022-07-25T08:51:11Z</time>
      </trkpt>
      <trkpt lat="46.1282840" lon="5.6847570">
        <ele>1037.2</ele>
        <time>2022-07-25T08:51:16Z</time>
      </trkpt>
      <trkpt lat="46.1282320" lon="5.6847820">
        <ele>1037.6</ele>
        <time>2022-07-25T08:51:19Z</time>
      </trkpt>
      <trkpt lat="46.1281800" lon="5.6848060">
        <ele>1038.2</ele>
        <time>2022-07-25T08:51:22Z</time>
      </trkpt>
      <trkpt lat="46.1280920" lon="5.6848450">
        <ele>1038.8</ele>
        <time>2022-07-25T08:51:27Z</time>
      </trkpt>
      <trkpt lat="46.1280760" lon="5.6848510">
        <ele>1038.8</ele>
        <time>2022-07-25T08:51:28Z</time>
      </trkpt>
      <trkpt lat="46.1279900" lon="5.6849030">
        <ele>1039.6</ele>
        <time>2022-07-25T08:51:33Z</time>
      </trkpt>
      <trkpt lat="46.1279710" lon="5.6849170">
        <ele>1039.6</ele>
        <time>2022-07-25T08:51:34Z</time>
      </trkpt>
      <trkpt lat="46.1278490" lon="5.6849710">
        <ele>1040.8</ele>
        <time>2022-07-25T08:51:40Z</time>
      </trkpt>
      <trkpt lat="46.1277110" lon="5.6849740">
        <ele>1041.8</ele>
        <time>2022-07-25T08:51:47Z</time>
      </trkpt>
      <trkpt lat="46.1276950" lon="5.6849740">
        <ele>1042.0</ele>
        <time>2022-07-25T08:51:48Z</time>
      </trkpt>
      <trkpt lat="46.1275930" lon="5.6849610">
        <ele>1042.8</ele>
        <time>2022-07-25T08:51:54Z</time>
      </trkpt>
      <trkpt lat="46.1275740" lon="5.6849590">
        <ele>1043.0</ele>
        <time>2022-07-25T08:51:55Z</time>
      </trkpt>
      <trkpt lat="46.1274500" lon="5.6849740">
        <ele>1043.8</ele>
        <time>2022-07-25T08:52:01Z</time>
      </trkpt>
      <trkpt lat="46.1274280" lon="5.6849750">
        <ele>1044.0</ele>
        <time>2022-07-25T08:52:02Z</time>
      </trkpt>
      <trkpt lat="46.1273010" lon="5.6849760">
        <ele>1044.6</ele>
        <time>2022-07-25T08:52:08Z</time>
      </trkpt>
      <trkpt lat="46.1272830" lon="5.6849710">
        <ele>1044.8</ele>
        <time>2022-07-25T08:52:09Z</time>
      </trkpt>
      <trkpt lat="46.1271520" lon="5.6849590">
        <ele>1045.6</ele>
        <time>2022-07-25T08:52:15Z</time>
      </trkpt>
      <trkpt lat="46.1271260" lon="5.6849550">
        <ele>1045.8</ele>
        <time>2022-07-25T08:52:16Z</time>
      </trkpt>
      <trkpt lat="46.1269650" lon="5.6849640">
        <ele>1047.0</ele>
        <time>2022-07-25T08:52:23Z</time>
      </trkpt>
      <trkpt lat="46.1268720" lon="5.6849890">
        <ele>1048.2</ele>
        <time>2022-07-25T08:52:28Z</time>
      </trkpt>
      <trkpt lat="46.1268310" lon="5.6850010">
        <ele>1048.4</ele>
        <time>2022-07-25T08:52:30Z</time>
      </trkpt>
      <trkpt lat="46.1267390" lon="5.6850430">
        <ele>1049.2</ele>
        <time>2022-07-25T08:52:35Z</time>
      </trkpt>
      <trkpt lat="46.1267200" lon="5.6850450">
        <ele>1049.2</ele>
        <time>2022-07-25T08:52:36Z</time>
      </trkpt>
      <trkpt lat="46.1266000" lon="5.6850640">
        <ele>1050.2</ele>
        <time>2022-07-25T08:52:42Z</time>
      </trkpt>
      <trkpt lat="46.1265600" lon="5.6850780">
        <ele>1050.4</ele>
        <time>2022-07-25T08:52:44Z</time>
      </trkpt>
      <trkpt lat="46.1264420" lon="5.6850780">
        <ele>1051.0</ele>
        <time>2022-07-25T08:52:51Z</time>
      </trkpt>
      <trkpt lat="46.1264250" lon="5.6850780">
        <ele>1051.2</ele>
        <time>2022-07-25T08:52:52Z</time>
      </trkpt>
      <trkpt lat="46.1263080" lon="5.6850660">
        <ele>1052.2</ele>
        <time>2022-07-25T08:52:59Z</time>
      </trkpt>
      <trkpt lat="46.1262890" lon="5.6850600">
        <ele>1052.4</ele>
        <time>2022-07-25T08:53:00Z</time>
      </trkpt>
      <trkpt lat="46.1261700" lon="5.6850360">
        <ele>1053.2</ele>
        <time>2022-07-25T08:53:06Z</time>
      </trkpt>
      <trkpt lat="46.1261530" lon="5.6850410">
        <ele>1053.4</ele>
        <time>2022-07-25T08:53:07Z</time>
      </trkpt>
      <trkpt lat="46.1260520" lon="5.6850520">
        <ele>1054.2</ele>
        <time>2022-07-25T08:53:12Z</time>
      </trkpt>
      <trkpt lat="46.1260150" lon="5.6850570">
        <ele>1054.4</ele>
        <time>2022-07-25T08:53:14Z</time>
      </trkpt>
      <trkpt lat="46.1258960" lon="5.6850720">
        <ele>1055.0</ele>
        <time>2022-07-25T08:53:20Z</time>
      </trkpt>
      <trkpt lat="46.1258660" lon="5.6850660">
        <ele>1055.4</ele>
        <time>2022-07-25T08:53:22Z</time>
      </trkpt>
      <trkpt lat="46.1258070" lon="5.6850630">
        <ele>1055.6</ele>
        <time>2022-07-25T08:53:25Z</time>
      </trkpt>
      <trkpt lat="46.1257840" lon="5.6850690">
        <ele>1055.8</ele>
        <time>2022-07-25T08:53:26Z</time>
      </trkpt>
      <trkpt lat="46.1257190" lon="5.6851020">
        <ele>1056.4</ele>
        <time>2022-07-25T08:53:29Z</time>
      </trkpt>
      <trkpt lat="46.1256990" lon="5.6851090">
        <ele>1056.6</ele>
        <time>2022-07-25T08:53:30Z</time>
      </trkpt>
      <trkpt lat="46.1255630" lon="5.6851080">
        <ele>1057.6</ele>
        <time>2022-07-25T08:53:37Z</time>
      </trkpt>
      <trkpt lat="46.1255420" lon="5.6851020">
        <ele>1057.6</ele>
        <time>2022-07-25T08:53:38Z</time>
      </trkpt>
      <trkpt lat="46.1254100" lon="5.6850880">
        <ele>1058.6</ele>
        <time>2022-07-25T08:53:44Z</time>
      </trkpt>
      <trkpt lat="46.1253850" lon="5.6850830">
        <ele>1058.6</ele>
        <time>2022-07-25T08:53:45Z</time>
      </trkpt>
      <trkpt lat="46.1252430" lon="5.6850710">
        <ele>1059.4</ele>
        <time>2022-07-25T08:53:51Z</time>
      </trkpt>
      <trkpt lat="46.1252190" lon="5.6850670">
        <ele>1059.6</ele>
        <time>2022-07-25T08:53:52Z</time>
      </trkpt>
      <trkpt lat="46.1250880" lon="5.6850600">
        <ele>1060.6</ele>
        <time>2022-07-25T08:53:58Z</time>
      </trkpt>
      <trkpt lat="46.1250650" lon="5.6850530">
        <ele>1060.8</ele>
        <time>2022-07-25T08:53:59Z</time>
      </trkpt>
      <trkpt lat="46.1249780" lon="5.6850510">
        <ele>1061.6</ele>
        <time>2022-07-25T08:54:03Z</time>
      </trkpt>
      <trkpt lat="46.1249050" lon="5.6850450">
        <ele>1062.0</ele>
        <time>2022-07-25T08:54:06Z</time>
      </trkpt>
      <trkpt lat="46.1247960" lon="5.6850490">
        <ele>1062.4</ele>
        <time>2022-07-25T08:54:11Z</time>
      </trkpt>
      <trkpt lat="46.1247770" lon="5.6850480">
        <ele>1062.6</ele>
        <time>2022-07-25T08:54:12Z</time>
      </trkpt>
      <trkpt lat="46.1247570" lon="5.6850460">
        <ele>1062.8</ele>
        <time>2022-07-25T08:54:13Z</time>
      </trkpt>
      <trkpt lat="46.1246440" lon="5.6850390">
        <ele>1063.4</ele>
        <time>2022-07-25T08:54:18Z</time>
      </trkpt>
      <trkpt lat="46.1244740" lon="5.6849980">
        <ele>1064.0</ele>
        <time>2022-07-25T08:54:25Z</time>
      </trkpt>
      <trkpt lat="46.1243830" lon="5.6850140">
        <ele>1064.6</ele>
        <time>2022-07-25T08:54:29Z</time>
      </trkpt>
      <trkpt lat="46.1242970" lon="5.6850470">
        <ele>1065.2</ele>
        <time>2022-07-25T08:54:33Z</time>
      </trkpt>
      <trkpt lat="46.1242250" lon="5.6850560">
        <ele>1065.6</ele>
        <time>2022-07-25T08:54:36Z</time>
      </trkpt>
      <trkpt lat="46.1241330" lon="5.6850410">
        <ele>1066.2</ele>
        <time>2022-07-25T08:54:40Z</time>
      </trkpt>
      <trkpt lat="46.1240640" lon="5.6850290">
        <ele>1066.6</ele>
        <time>2022-07-25T08:54:43Z</time>
      </trkpt>
      <trkpt lat="46.1239740" lon="5.6850260">
        <ele>1067.0</ele>
        <time>2022-07-25T08:54:47Z</time>
      </trkpt>
      <trkpt lat="46.1238620" lon="5.6850270">
        <ele>1067.8</ele>
        <time>2022-07-25T08:54:52Z</time>
      </trkpt>
      <trkpt lat="46.1238440" lon="5.6850250">
        <ele>1068.0</ele>
        <time>2022-07-25T08:54:53Z</time>
      </trkpt>
      <trkpt lat="46.1236920" lon="5.6850300">
        <ele>1068.4</ele>
        <time>2022-07-25T08:54:59Z</time>
      </trkpt>
      <trkpt lat="46.1236430" lon="5.6850330">
        <ele>1068.8</ele>
        <time>2022-07-25T08:55:01Z</time>
      </trkpt>
      <trkpt lat="46.1235520" lon="5.6850380">
        <ele>1069.4</ele>
        <time>2022-07-25T08:55:06Z</time>
      </trkpt>
      <trkpt lat="46.1234830" lon="5.6850410">
        <ele>1069.8</ele>
        <time>2022-07-25T08:55:09Z</time>
      </trkpt>
      <trkpt lat="46.1234180" lon="5.6850360">
        <ele>1070.2</ele>
        <time>2022-07-25T08:55:12Z</time>
      </trkpt>
      <trkpt lat="46.1233240" lon="5.6850310">
        <ele>1070.8</ele>
        <time>2022-07-25T08:55:16Z</time>
      </trkpt>
      <trkpt lat="46.1232830" lon="5.6850270">
        <ele>1071.0</ele>
        <time>2022-07-25T08:55:18Z</time>
      </trkpt>
      <trkpt lat="46.1232250" lon="5.6850170">
        <ele>1071.2</ele>
        <time>2022-07-25T08:55:21Z</time>
      </trkpt>
      <trkpt lat="46.1231820" lon="5.6850150">
        <ele>1071.4</ele>
        <time>2022-07-25T08:55:23Z</time>
      </trkpt>
      <trkpt lat="46.1231150" lon="5.6850270">
        <ele>1071.8</ele>
        <time>2022-07-25T08:55:26Z</time>
      </trkpt>
      <trkpt lat="46.1230950" lon="5.6850290">
        <ele>1072.0</ele>
        <time>2022-07-25T08:55:27Z</time>
      </trkpt>
      <trkpt lat="46.1230730" lon="5.6850270">
        <ele>1072.2</ele>
        <time>2022-07-25T08:55:28Z</time>
      </trkpt>
      <trkpt lat="46.1229710" lon="5.6849990">
        <ele>1073.0</ele>
        <time>2022-07-25T08:55:33Z</time>
      </trkpt>
      <trkpt lat="46.1229310" lon="5.6849940">
        <ele>1073.2</ele>
        <time>2022-07-25T08:55:35Z</time>
      </trkpt>
      <trkpt lat="46.1228010" lon="5.6849790">
        <ele>1074.0</ele>
        <time>2022-07-25T08:55:41Z</time>
      </trkpt>
      <trkpt lat="46.1227640" lon="5.6849750">
        <ele>1074.4</ele>
        <time>2022-07-25T08:55:43Z</time>
      </trkpt>
      <trkpt lat="46.1226610" lon="5.6849620">
        <ele>1075.2</ele>
        <time>2022-07-25T08:55:48Z</time>
      </trkpt>
      <trkpt lat="46.1226270" lon="5.6849730">
        <ele>1075.2</ele>
        <time>2022-07-25T08:55:50Z</time>
      </trkpt>
      <trkpt lat="46.1225080" lon="5.6849820">
        <ele>1076.0</ele>
        <time>2022-07-25T08:55:56Z</time>
      </trkpt>
      <trkpt lat="46.1223920" lon="5.6850110">
        <ele>1077.0</ele>
        <time>2022-07-25T08:56:02Z</time>
      </trkpt>
      <trkpt lat="46.1223740" lon="5.6850100">
        <ele>1077.0</ele>
        <time>2022-07-25T08:56:03Z</time>
      </trkpt>
      <trkpt lat="46.1222480" lon="5.6849990">
        <ele>1077.8</ele>
        <time>2022-07-25T08:56:09Z</time>
      </trkpt>
      <trkpt lat="46.1222080" lon="5.6849950">
        <ele>1078.2</ele>
        <time>2022-07-25T08:56:11Z</time>
      </trkpt>
      <trkpt lat="46.1220940" lon="5.6849860">
        <ele>1078.8</ele>
        <time>2022-07-25T08:56:17Z</time>
      </trkpt>
      <trkpt lat="46.1220560" lon="5.6849910">
        <ele>1079.2</ele>
        <time>2022-07-25T08:56:19Z</time>
      </trkpt>
      <trkpt lat="46.1219550" lon="5.6850140">
        <ele>1080.0</ele>
        <time>2022-07-25T08:56:24Z</time>
      </trkpt>
      <trkpt lat="46.1219360" lon="5.6850160">
        <ele>1080.2</ele>
        <time>2022-07-25T08:56:25Z</time>
      </trkpt>
      <trkpt lat="46.1218320" lon="5.6850420">
        <ele>1081.2</ele>
        <time>2022-07-25T08:56:31Z</time>
      </trkpt>
      <trkpt lat="46.1217290" lon="5.6850880">
        <ele>1082.2</ele>
        <time>2022-07-25T08:56:38Z</time>
      </trkpt>
      <trkpt lat="46.1216210" lon="5.6851170">
        <ele>1083.4</ele>
        <time>2022-07-25T08:56:45Z</time>
      </trkpt>
      <trkpt lat="46.1215280" lon="5.6851770">
        <ele>1083.8</ele>
        <time>2022-07-25T08:56:50Z</time>
      </trkpt>
      <trkpt lat="46.1214270" lon="5.6852390">
        <ele>1084.6</ele>
        <time>2022-07-25T08:56:55Z</time>
      </trkpt>
      <trkpt lat="46.1213820" lon="5.6852560">
        <ele>1084.8</ele>
        <time>2022-07-25T08:56:57Z</time>
      </trkpt>
      <trkpt lat="46.1212620" lon="5.6852810">
        <ele>1085.6</ele>
        <time>2022-07-25T08:57:03Z</time>
      </trkpt>
      <trkpt lat="46.1212440" lon="5.6852810">
        <ele>1085.8</ele>
        <time>2022-07-25T08:57:04Z</time>
      </trkpt>
      <trkpt lat="46.1211220" lon="5.6852930">
        <ele>1086.6</ele>
        <time>2022-07-25T08:57:10Z</time>
      </trkpt>
      <trkpt lat="46.1211010" lon="5.6852940">
        <ele>1086.8</ele>
        <time>2022-07-25T08:57:11Z</time>
      </trkpt>
      <trkpt lat="46.1209650" lon="5.6852900">
        <ele>1087.8</ele>
        <time>2022-07-25T08:57:18Z</time>
      </trkpt>
      <trkpt lat="46.1209460" lon="5.6852890">
        <ele>1087.8</ele>
        <time>2022-07-25T08:57:19Z</time>
      </trkpt>
      <trkpt lat="46.1208610" lon="5.6852730">
        <ele>1089.0</ele>
        <time>2022-07-25T08:57:24Z</time>
      </trkpt>
      <trkpt lat="46.1208280" lon="5.6852600">
        <ele>1089.2</ele>
        <time>2022-07-25T08:57:26Z</time>
      </trkpt>
      <trkpt lat="46.1207470" lon="5.6852330">
        <ele>1090.0</ele>
        <time>2022-07-25T08:57:31Z</time>
      </trkpt>
      <trkpt lat="46.1206770" lon="5.6852300">
        <ele>1090.6</ele>
        <time>2022-07-25T08:57:35Z</time>
      </trkpt>
      <trkpt lat="46.1206300" lon="5.6852170">
        <ele>1091.0</ele>
        <time>2022-07-25T08:57:38Z</time>
      </trkpt>
      <trkpt lat="46.1205380" lon="5.6851770">
        <ele>1091.6</ele>
        <time>2022-07-25T08:57:43Z</time>
      </trkpt>
      <trkpt lat="46.1204850" lon="5.6851690">
        <ele>1092.0</ele>
        <time>2022-07-25T08:57:46Z</time>
      </trkpt>
      <trkpt lat="46.1204320" lon="5.6851720">
        <ele>1092.4</ele>
        <time>2022-07-25T08:57:49Z</time>
      </trkpt>
      <trkpt lat="46.1203560" lon="5.6851730">
        <ele>1093.0</ele>
        <time>2022-07-25T08:57:53Z</time>
      </trkpt>
      <trkpt lat="46.1202960" lon="5.6851810">
        <ele>1093.4</ele>
        <time>2022-07-25T08:57:56Z</time>
      </trkpt>
      <trkpt lat="46.1202020" lon="5.6851910">
        <ele>1094.2</ele>
        <time>2022-07-25T08:58:01Z</time>
      </trkpt>
      <trkpt lat="46.1201850" lon="5.6851930">
        <ele>1094.2</ele>
        <time>2022-07-25T08:58:02Z</time>
      </trkpt>
      <trkpt lat="46.1200350" lon="5.6852350">
        <ele>1095.0</ele>
        <time>2022-07-25T08:58:10Z</time>
      </trkpt>
      <trkpt lat="46.1200170" lon="5.6852390">
        <ele>1095.2</ele>
        <time>2022-07-25T08:58:11Z</time>
      </trkpt>
      <trkpt lat="46.1199610" lon="5.6852630">
        <ele>1095.6</ele>
        <time>2022-07-25T08:58:14Z</time>
      </trkpt>
      <trkpt lat="46.1199020" lon="5.6852680">
        <ele>1096.0</ele>
        <time>2022-07-25T08:58:17Z</time>
      </trkpt>
      <trkpt lat="46.1198560" lon="5.6852730">
        <ele>1096.2</ele>
        <time>2022-07-25T08:58:19Z</time>
      </trkpt>
      <trkpt lat="46.1197390" lon="5.6852630">
        <ele>1097.2</ele>
        <time>2022-07-25T08:58:24Z</time>
      </trkpt>
      <trkpt lat="46.1196900" lon="5.6852360">
        <ele>1097.2</ele>
        <time>2022-07-25T08:58:26Z</time>
      </trkpt>
      <trkpt lat="46.1196270" lon="5.6851800">
        <ele>1097.8</ele>
        <time>2022-07-25T08:58:29Z</time>
      </trkpt>
      <trkpt lat="46.1195870" lon="5.6851220">
        <ele>1098.4</ele>
        <time>2022-07-25T08:58:32Z</time>
      </trkpt>
      <trkpt lat="46.1195350" lon="5.6850530">
        <ele>1099.0</ele>
        <time>2022-07-25T08:58:36Z</time>
      </trkpt>
      <trkpt lat="46.1195030" lon="5.6850110">
        <ele>1099.6</ele>
        <time>2022-07-25T08:58:38Z</time>
      </trkpt>
      <trkpt lat="46.1194410" lon="5.6849220">
        <ele>1100.2</ele>
        <time>2022-07-25T08:58:42Z</time>
      </trkpt>
      <trkpt lat="46.1194090" lon="5.6848840">
        <ele>1100.6</ele>
        <time>2022-07-25T08:58:44Z</time>
      </trkpt>
      <trkpt lat="46.1193160" lon="5.6848290">
        <ele>1101.4</ele>
        <time>2022-07-25T08:58:49Z</time>
      </trkpt>
      <trkpt lat="46.1192580" lon="5.6848150">
        <ele>1101.8</ele>
        <time>2022-07-25T08:58:52Z</time>
      </trkpt>
      <trkpt lat="46.1191550" lon="5.6848090">
        <ele>1102.2</ele>
        <time>2022-07-25T08:58:57Z</time>
      </trkpt>
      <trkpt lat="46.1190900" lon="5.6848080">
        <ele>1102.8</ele>
        <time>2022-07-25T08:59:00Z</time>
      </trkpt>
      <trkpt lat="46.1190080" lon="5.6847950">
        <ele>1103.4</ele>
        <time>2022-07-25T08:59:04Z</time>
      </trkpt>
      <trkpt lat="46.1189380" lon="5.6847400">
        <ele>1103.6</ele>
        <time>2022-07-25T08:59:08Z</time>
      </trkpt>
      <trkpt lat="46.1189240" lon="5.6847180">
        <ele>1103.8</ele>
        <time>2022-07-25T08:59:09Z</time>
      </trkpt>
      <trkpt lat="46.1189090" lon="5.6846970">
        <ele>1104.0</ele>
        <time>2022-07-25T08:59:10Z</time>
      </trkpt>
      <trkpt lat="46.1188840" lon="5.6846410">
        <ele>1104.2</ele>
        <time>2022-07-25T08:59:12Z</time>
      </trkpt>
      <trkpt lat="46.1188490" lon="5.6845300">
        <ele>1104.8</ele>
        <time>2022-07-25T08:59:16Z</time>
      </trkpt>
      <trkpt lat="46.1188440" lon="5.6845020">
        <ele>1105.0</ele>
        <time>2022-07-25T08:59:17Z</time>
      </trkpt>
      <trkpt lat="46.1188270" lon="5.6843630">
        <ele>1105.8</ele>
        <time>2022-07-25T08:59:22Z</time>
      </trkpt>
      <trkpt lat="46.1188130" lon="5.6843130">
        <ele>1106.0</ele>
        <time>2022-07-25T08:59:24Z</time>
      </trkpt>
      <trkpt lat="46.1187590" lon="5.6840960">
        <ele>1107.0</ele>
        <time>2022-07-25T08:59:31Z</time>
      </trkpt>
      <trkpt lat="46.1186910" lon="5.6839140">
        <ele>1108.0</ele>
        <time>2022-07-25T08:59:37Z</time>
      </trkpt>
      <trkpt lat="46.1186790" lon="5.6838930">
        <ele>1108.2</ele>
        <time>2022-07-25T08:59:38Z</time>
      </trkpt>
      <trkpt lat="46.1186170" lon="5.6838120">
        <ele>1109.0</ele>
        <time>2022-07-25T08:59:43Z</time>
      </trkpt>
      <trkpt lat="46.1185970" lon="5.6837770">
        <ele>1109.2</ele>
        <time>2022-07-25T08:59:45Z</time>
      </trkpt>
      <trkpt lat="46.1185740" lon="5.6837230">
        <ele>1109.4</ele>
        <time>2022-07-25T08:59:50Z</time>
      </trkpt>
      <trkpt lat="46.1185710" lon="5.6837250">
        <ele>1109.4</ele>
        <time>2022-07-25T08:59:51Z</time>
      </trkpt>
      <trkpt lat="46.1184240" lon="5.6837230">
        <ele>1108.8</ele>
        <time>2022-07-25T09:02:25Z</time>
      </trkpt>
      <trkpt lat="46.1183840" lon="5.6837320">
        <ele>1109.0</ele>
        <time>2022-07-25T09:02:27Z</time>
      </trkpt>
      <trkpt lat="46.1182480" lon="5.6838130">
        <ele>1109.0</ele>
        <time>2022-07-25T09:02:32Z</time>
      </trkpt>
      <trkpt lat="46.1181390" lon="5.6840210">
        <ele>1108.8</ele>
        <time>2022-07-25T09:02:37Z</time>
      </trkpt>
      <trkpt lat="46.1180450" lon="5.6843370">
        <ele>1108.0</ele>
        <time>2022-07-25T09:02:43Z</time>
      </trkpt>
      <trkpt lat="46.1180300" lon="5.6843970">
        <ele>1107.8</ele>
        <time>2022-07-25T09:02:44Z</time>
      </trkpt>
      <trkpt lat="46.1180110" lon="5.6844560">
        <ele>1107.6</ele>
        <time>2022-07-25T09:02:45Z</time>
      </trkpt>
      <trkpt lat="46.1178810" lon="5.6848190">
        <ele>1107.0</ele>
        <time>2022-07-25T09:02:51Z</time>
      </trkpt>
      <trkpt lat="46.1177480" lon="5.6852010">
        <ele>1106.6</ele>
        <time>2022-07-25T09:02:57Z</time>
      </trkpt>
      <trkpt lat="46.1177050" lon="5.6853370">
        <ele>1106.4</ele>
        <time>2022-07-25T09:02:59Z</time>
      </trkpt>
      <trkpt lat="46.1174940" lon="5.6858950">
        <ele>1105.6</ele>
        <time>2022-07-25T09:03:07Z</time>
      </trkpt>
      <trkpt lat="46.1174130" lon="5.6861030">
        <ele>1105.2</ele>
        <time>2022-07-25T09:03:10Z</time>
      </trkpt>
      <trkpt lat="46.1172580" lon="5.6864160">
        <ele>1104.8</ele>
        <time>2022-07-25T09:03:15Z</time>
      </trkpt>
      <trkpt lat="46.1172220" lon="5.6864680">
        <ele>1104.8</ele>
        <time>2022-07-25T09:03:16Z</time>
      </trkpt>
      <trkpt lat="46.1170410" lon="5.6866340">
        <ele>1104.6</ele>
        <time>2022-07-25T09:03:20Z</time>
      </trkpt>
      <trkpt lat="46.1167950" lon="5.6868610">
        <ele>1104.2</ele>
        <time>2022-07-25T09:03:25Z</time>
      </trkpt>
      <trkpt lat="46.1167530" lon="5.6869120">
        <ele>1104.0</ele>
        <time>2022-07-25T09:03:26Z</time>
      </trkpt>
      <trkpt lat="46.1167160" lon="5.6869650">
        <ele>1103.8</ele>
        <time>2022-07-25T09:03:27Z</time>
      </trkpt>
      <trkpt lat="46.1166060" lon="5.6872150">
        <ele>1103.0</ele>
        <time>2022-07-25T09:03:31Z</time>
      </trkpt>
      <trkpt lat="46.1165280" lon="5.6874060">
        <ele>1102.6</ele>
        <time>2022-07-25T09:03:34Z</time>
      </trkpt>
      <trkpt lat="46.1164600" lon="5.6874950">
        <ele>1102.6</ele>
        <time>2022-07-25T09:03:36Z</time>
      </trkpt>
      <trkpt lat="46.1164220" lon="5.6875180">
        <ele>1102.4</ele>
        <time>2022-07-25T09:03:37Z</time>
      </trkpt>
      <trkpt lat="46.1163470" lon="5.6875250">
        <ele>1102.4</ele>
        <time>2022-07-25T09:03:39Z</time>
      </trkpt>
      <trkpt lat="46.1162860" lon="5.6874990">
        <ele>1102.2</ele>
        <time>2022-07-25T09:03:41Z</time>
      </trkpt>
      <trkpt lat="46.1162370" lon="5.6874520">
        <ele>1101.8</ele>
        <time>2022-07-25T09:03:43Z</time>
      </trkpt>
      <trkpt lat="46.1161570" lon="5.6873730">
        <ele>1101.4</ele>
        <time>2022-07-25T09:03:47Z</time>
      </trkpt>
      <trkpt lat="46.1160670" lon="5.6873290">
        <ele>1101.2</ele>
        <time>2022-07-25T09:03:53Z</time>
      </trkpt>
      <trkpt lat="46.1160650" lon="5.6873270">
        <ele>1101.0</ele>
        <time>2022-07-25T09:03:54Z</time>
      </trkpt>
      <trkpt lat="46.1160210" lon="5.6873100">
        <ele>1100.4</ele>
        <time>2022-07-25T09:04:09Z</time>
      </trkpt>
      <trkpt lat="46.1159750" lon="5.6872860">
        <ele>1100.4</ele>
        <time>2022-07-25T09:04:11Z</time>
      </trkpt>
      <trkpt lat="46.1158090" lon="5.6871820">
        <ele>1100.4</ele>
        <time>2022-07-25T09:04:17Z</time>
      </trkpt>
      <trkpt lat="46.1156220" lon="5.6870650">
        <ele>1100.2</ele>
        <time>2022-07-25T09:04:22Z</time>
      </trkpt>
      <trkpt lat="46.1154440" lon="5.6869780">
        <ele>1100.2</ele>
        <time>2022-07-25T09:04:25Z</time>
      </trkpt>
      <trkpt lat="46.1153760" lon="5.6869610">
        <ele>1100.0</ele>
        <time>2022-07-25T09:04:26Z</time>
      </trkpt>
      <trkpt lat="46.1150890" lon="5.6869670">
        <ele>1099.4</ele>
        <time>2022-07-25T09:04:30Z</time>
      </trkpt>
      <trkpt lat="46.1150080" lon="5.6869810">
        <ele>1099.2</ele>
        <time>2022-07-25T09:04:31Z</time>
      </trkpt>
      <trkpt lat="46.1148340" lon="5.6869880">
        <ele>1098.4</ele>
        <time>2022-07-25T09:04:33Z</time>
      </trkpt>
      <trkpt lat="46.1147460" lon="5.6869750">
        <ele>1098.2</ele>
        <time>2022-07-25T09:04:34Z</time>
      </trkpt>
      <trkpt lat="46.1143710" lon="5.6869050">
        <ele>1096.8</ele>
        <time>2022-07-25T09:04:39Z</time>
      </trkpt>
      <trkpt lat="46.1142560" lon="5.6868740">
        <ele>1096.0</ele>
        <time>2022-07-25T09:04:41Z</time>
      </trkpt>
      <trkpt lat="46.1142000" lon="5.6868460">
        <ele>1095.4</ele>
        <time>2022-07-25T09:04:42Z</time>
      </trkpt>
      <trkpt lat="46.1141450" lon="5.6868080">
        <ele>1094.6</ele>
        <time>2022-07-25T09:04:43Z</time>
      </trkpt>
      <trkpt lat="46.1140870" lon="5.6867710">
        <ele>1094.2</ele>
        <time>2022-07-25T09:04:44Z</time>
      </trkpt>
      <trkpt lat="46.1138870" lon="5.6866290">
        <ele>1093.4</ele>
        <time>2022-07-25T09:04:47Z</time>
      </trkpt>
      <trkpt lat="46.1137370" lon="5.6865110">
        <ele>1093.2</ele>
        <time>2022-07-25T09:04:49Z</time>
      </trkpt>
      <trkpt lat="46.1134380" lon="5.6862470">
        <ele>1092.0</ele>
        <time>2022-07-25T09:04:53Z</time>
      </trkpt>
      <trkpt lat="46.1133100" lon="5.6861090">
        <ele>1090.6</ele>
        <time>2022-07-25T09:04:55Z</time>
      </trkpt>
      <trkpt lat="46.1131890" lon="5.6859610">
        <ele>1089.0</ele>
        <time>2022-07-25T09:04:57Z</time>
      </trkpt>
      <trkpt lat="46.1130640" lon="5.6858210">
        <ele>1087.8</ele>
        <time>2022-07-25T09:04:59Z</time>
      </trkpt>
      <trkpt lat="46.1129320" lon="5.6857190">
        <ele>1087.0</ele>
        <time>2022-07-25T09:05:01Z</time>
      </trkpt>
      <trkpt lat="46.1128600" lon="5.6856860">
        <ele>1086.8</ele>
        <time>2022-07-25T09:05:02Z</time>
      </trkpt>
      <trkpt lat="46.1127870" lon="5.6856690">
        <ele>1086.6</ele>
        <time>2022-07-25T09:05:03Z</time>
      </trkpt>
      <trkpt lat="46.1124860" lon="5.6857270">
        <ele>1085.8</ele>
        <time>2022-07-25T09:05:07Z</time>
      </trkpt>
      <trkpt lat="46.1123480" lon="5.6857810">
        <ele>1084.8</ele>
        <time>2022-07-25T09:05:09Z</time>
      </trkpt>
      <trkpt lat="46.1121440" lon="5.6858350">
        <ele>1083.2</ele>
        <time>2022-07-25T09:05:12Z</time>
      </trkpt>
      <trkpt lat="46.1120750" lon="5.6858410">
        <ele>1082.6</ele>
        <time>2022-07-25T09:05:13Z</time>
      </trkpt>
      <trkpt lat="46.1120070" lon="5.6858390">
        <ele>1082.2</ele>
        <time>2022-07-25T09:05:14Z</time>
      </trkpt>
      <trkpt lat="46.1117990" lon="5.6857800">
        <ele>1081.2</ele>
        <time>2022-07-25T09:05:17Z</time>
      </trkpt>
      <trkpt lat="46.1117300" lon="5.6857470">
        <ele>1081.2</ele>
        <time>2022-07-25T09:05:18Z</time>
      </trkpt>
      <trkpt lat="46.1114000" lon="5.6855430">
        <ele>1080.4</ele>
        <time>2022-07-25T09:05:23Z</time>
      </trkpt>
      <trkpt lat="46.1112730" lon="5.6854490">
        <ele>1080.0</ele>
        <time>2022-07-25T09:05:25Z</time>
      </trkpt>
      <trkpt lat="46.1110250" lon="5.6852580">
        <ele>1079.2</ele>
        <time>2022-07-25T09:05:29Z</time>
      </trkpt>
      <trkpt lat="46.1109680" lon="5.6852000">
        <ele>1078.6</ele>
        <time>2022-07-25T09:05:30Z</time>
      </trkpt>
      <trkpt lat="46.1107720" lon="5.6849510">
        <ele>1077.6</ele>
        <time>2022-07-25T09:05:34Z</time>
      </trkpt>
      <trkpt lat="46.1107290" lon="5.6848900">
        <ele>1077.4</ele>
        <time>2022-07-25T09:05:35Z</time>
      </trkpt>
      <trkpt lat="46.1105470" lon="5.6845530">
        <ele>1076.6</ele>
        <time>2022-07-25T09:05:40Z</time>
      </trkpt>
      <trkpt lat="46.1105100" lon="5.6844890">
        <ele>1076.2</ele>
        <time>2022-07-25T09:05:41Z</time>
      </trkpt>
      <trkpt lat="46.1104320" lon="5.6843690">
        <ele>1076.0</ele>
        <time>2022-07-25T09:05:43Z</time>
      </trkpt>
      <trkpt lat="46.1102460" lon="5.6841860">
        <ele>1075.8</ele>
        <time>2022-07-25T09:05:47Z</time>
      </trkpt>
      <trkpt lat="46.1100930" lon="5.6840730">
        <ele>1075.6</ele>
        <time>2022-07-25T09:05:50Z</time>
      </trkpt>
      <trkpt lat="46.1100470" lon="5.6840240">
        <ele>1075.4</ele>
        <time>2022-07-25T09:05:51Z</time>
      </trkpt>
      <trkpt lat="46.1099790" lon="5.6839080">
        <ele>1075.2</ele>
        <time>2022-07-25T09:05:53Z</time>
      </trkpt>
      <trkpt lat="46.1099600" lon="5.6837340">
        <ele>1075.0</ele>
        <time>2022-07-25T09:05:56Z</time>
      </trkpt>
      <trkpt lat="46.1099620" lon="5.6836830">
        <ele>1075.0</ele>
        <time>2022-07-25T09:05:57Z</time>
      </trkpt>
      <trkpt lat="46.1099750" lon="5.6835240">
        <ele>1075.0</ele>
        <time>2022-07-25T09:06:01Z</time>
      </trkpt>
      <trkpt lat="46.1099500" lon="5.6833600">
        <ele>1075.4</ele>
        <time>2022-07-25T09:06:06Z</time>
      </trkpt>
      <trkpt lat="46.1098400" lon="5.6832290">
        <ele>1075.8</ele>
        <time>2022-07-25T09:06:12Z</time>
      </trkpt>
      <trkpt lat="46.1097730" lon="5.6832010">
        <ele>1076.4</ele>
        <time>2022-07-25T09:06:15Z</time>
      </trkpt>
      <trkpt lat="46.1096970" lon="5.6831950">
        <ele>1076.6</ele>
        <time>2022-07-25T09:06:18Z</time>
      </trkpt>
      <trkpt lat="46.1094770" lon="5.6832140">
        <ele>1076.8</ele>
        <time>2022-07-25T09:06:25Z</time>
      </trkpt>
      <trkpt lat="46.1092270" lon="5.6832240">
        <ele>1076.8</ele>
        <time>2022-07-25T09:06:31Z</time>
      </trkpt>
      <trkpt lat="46.1090280" lon="5.6832360">
        <ele>1076.8</ele>
        <time>2022-07-25T09:06:37Z</time>
      </trkpt>
      <trkpt lat="46.1089810" lon="5.6832480">
        <ele>1076.8</ele>
        <time>2022-07-25T09:06:38Z</time>
      </trkpt>
      <trkpt lat="46.1088170" lon="5.6833090">
        <ele>1076.6</ele>
        <time>2022-07-25T09:06:41Z</time>
      </trkpt>
      <trkpt lat="46.1086410" lon="5.6833680">
        <ele>1076.4</ele>
        <time>2022-07-25T09:06:44Z</time>
      </trkpt>
      <trkpt lat="46.1085220" lon="5.6833590">
        <ele>1076.2</ele>
        <time>2022-07-25T09:06:46Z</time>
      </trkpt>
      <trkpt lat="46.1083890" lon="5.6832700">
        <ele>1076.0</ele>
        <time>2022-07-25T09:06:49Z</time>
      </trkpt>
      <trkpt lat="46.1083240" lon="5.6831290">
        <ele>1075.8</ele>
        <time>2022-07-25T09:06:53Z</time>
      </trkpt>
      <trkpt lat="46.1082720" lon="5.6829500">
        <ele>1075.8</ele>
        <time>2022-07-25T09:07:01Z</time>
      </trkpt>
      <trkpt lat="46.1082120" lon="5.6828350">
        <ele>1077.2</ele>
        <time>2022-07-25T09:07:07Z</time>
      </trkpt>
      <trkpt lat="46.1082010" lon="5.6828210">
        <ele>1077.4</ele>
        <time>2022-07-25T09:07:08Z</time>
      </trkpt>
      <trkpt lat="46.1081760" lon="5.6827980">
        <ele>1078.6</ele>
        <time>2022-07-25T09:07:10Z</time>
      </trkpt>
      <trkpt lat="46.1081090" lon="5.6827290">
        <ele>1079.8</ele>
        <time>2022-07-25T09:07:15Z</time>
      </trkpt>
      <trkpt lat="46.1080520" lon="5.6826880">
        <ele>1080.2</ele>
        <time>2022-07-25T09:07:18Z</time>
      </trkpt>
      <trkpt lat="46.1079300" lon="5.6826270">
        <ele>1080.6</ele>
        <time>2022-07-25T09:07:23Z</time>
      </trkpt>
      <trkpt lat="46.1077240" lon="5.6825380">
        <ele>1080.6</ele>
        <time>2022-07-25T09:07:30Z</time>
      </trkpt>
      <trkpt lat="46.1074700" lon="5.6824460">
        <ele>1080.6</ele>
        <time>2022-07-25T09:07:37Z</time>
      </trkpt>
      <trkpt lat="46.1072260" lon="5.6823770">
        <ele>1080.4</ele>
        <time>2022-07-25T09:07:41Z</time>
      </trkpt>
      <trkpt lat="46.1071530" lon="5.6823490">
        <ele>1080.4</ele>
        <time>2022-07-25T09:07:42Z</time>
      </trkpt>
      <trkpt lat="46.1069620" lon="5.6821890">
        <ele>1079.8</ele>
        <time>2022-07-25T09:07:45Z</time>
      </trkpt>
      <trkpt lat="46.1068430" lon="5.6819480">
        <ele>1078.6</ele>
        <time>2022-07-25T09:07:48Z</time>
      </trkpt>
      <trkpt lat="46.1068100" lon="5.6818720">
        <ele>1078.2</ele>
        <time>2022-07-25T09:07:49Z</time>
      </trkpt>
      <trkpt lat="46.1067400" lon="5.6817420">
        <ele>1077.2</ele>
        <time>2022-07-25T09:07:51Z</time>
      </trkpt>
      <trkpt lat="46.1067000" lon="5.6816890">
        <ele>1077.0</ele>
        <time>2022-07-25T09:07:52Z</time>
      </trkpt>
      <trkpt lat="46.1066170" lon="5.6816090">
        <ele>1076.8</ele>
        <time>2022-07-25T09:07:54Z</time>
      </trkpt>
      <trkpt lat="46.1064520" lon="5.6815380">
        <ele>1076.8</ele>
        <time>2022-07-25T09:07:58Z</time>
      </trkpt>
      <trkpt lat="46.1062730" lon="5.6815660">
        <ele>1076.8</ele>
        <time>2022-07-25T09:08:03Z</time>
      </trkpt>
      <trkpt lat="46.1060470" lon="5.6816520">
        <ele>1077.4</ele>
        <time>2022-07-25T09:08:09Z</time>
      </trkpt>
      <trkpt lat="46.1059630" lon="5.6816640">
        <ele>1077.6</ele>
        <time>2022-07-25T09:08:11Z</time>
      </trkpt>
      <trkpt lat="46.1058400" lon="5.6816390">
        <ele>1077.6</ele>
        <time>2022-07-25T09:08:14Z</time>
      </trkpt>
      <trkpt lat="46.1056160" lon="5.6815560">
        <ele>1077.6</ele>
        <time>2022-07-25T09:08:18Z</time>
      </trkpt>
      <trkpt lat="46.1053000" lon="5.6813460">
        <ele>1077.4</ele>
        <time>2022-07-25T09:08:23Z</time>
      </trkpt>
      <trkpt lat="46.1052520" lon="5.6813030">
        <ele>1077.0</ele>
        <time>2022-07-25T09:08:24Z</time>
      </trkpt>
      <trkpt lat="46.1051510" lon="5.6811740">
        <ele>1076.2</ele>
        <time>2022-07-25T09:08:27Z</time>
      </trkpt>
      <trkpt lat="46.1051200" lon="5.6811350">
        <ele>1075.8</ele>
        <time>2022-07-25T09:08:28Z</time>
      </trkpt>
      <trkpt lat="46.1050640" lon="5.6810610">
        <ele>1074.8</ele>
        <time>2022-07-25T09:08:30Z</time>
      </trkpt>
      <trkpt lat="46.1049890" lon="5.6809890">
        <ele>1073.4</ele>
        <time>2022-07-25T09:08:33Z</time>
      </trkpt>
      <trkpt lat="46.1049550" lon="5.6809760">
        <ele>1072.6</ele>
        <time>2022-07-25T09:08:37Z</time>
      </trkpt>
      <trkpt lat="46.1049170" lon="5.6809640">
        <ele>1071.8</ele>
        <time>2022-07-25T09:08:43Z</time>
      </trkpt>
      <trkpt lat="46.1048630" lon="5.6809420">
        <ele>1071.8</ele>
        <time>2022-07-25T09:08:45Z</time>
      </trkpt>
      <trkpt lat="46.1046380" lon="5.6808860">
        <ele>1071.4</ele>
        <time>2022-07-25T09:08:50Z</time>
      </trkpt>
      <trkpt lat="46.1043770" lon="5.6809440">
        <ele>1070.8</ele>
        <time>2022-07-25T09:08:55Z</time>
      </trkpt>
      <trkpt lat="46.1042220" lon="5.6809960">
        <ele>1070.2</ele>
        <time>2022-07-25T09:08:58Z</time>
      </trkpt>
      <trkpt lat="46.1041270" lon="5.6809950">
        <ele>1069.8</ele>
        <time>2022-07-25T09:09:00Z</time>
      </trkpt>
      <trkpt lat="46.1040850" lon="5.6809890">
        <ele>1069.6</ele>
        <time>2022-07-25T09:09:01Z</time>
      </trkpt>
      <trkpt lat="46.1039870" lon="5.6809360">
        <ele>1069.4</ele>
        <time>2022-07-25T09:09:04Z</time>
      </trkpt>
      <trkpt lat="46.1038700" lon="5.6807750">
        <ele>1069.4</ele>
        <time>2022-07-25T09:09:08Z</time>
      </trkpt>
      <trkpt lat="46.1037300" lon="5.6805900">
        <ele>1069.2</ele>
        <time>2022-07-25T09:09:13Z</time>
      </trkpt>
      <trkpt lat="46.1035700" lon="5.6803130">
        <ele>1069.2</ele>
        <time>2022-07-25T09:09:19Z</time>
      </trkpt>
      <trkpt lat="46.1034840" lon="5.6801450">
        <ele>1068.6</ele>
        <time>2022-07-25T09:09:23Z</time>
      </trkpt>
      <trkpt lat="46.1034480" lon="5.6800520">
        <ele>1068.4</ele>
        <time>2022-07-25T09:09:25Z</time>
      </trkpt>
      <trkpt lat="46.1033610" lon="5.6798250">
        <ele>1067.4</ele>
        <time>2022-07-25T09:09:30Z</time>
      </trkpt>
      <trkpt lat="46.1032790" lon="5.6796230">
        <ele>1067.0</ele>
        <time>2022-07-25T09:09:35Z</time>
      </trkpt>
      <trkpt lat="46.1031720" lon="5.6794770">
        <ele>1066.8</ele>
        <time>2022-07-25T09:09:41Z</time>
      </trkpt>
      <trkpt lat="46.1030570" lon="5.6793750">
        <ele>1066.6</ele>
        <time>2022-07-25T09:09:47Z</time>
      </trkpt>
      <trkpt lat="46.1030170" lon="5.6793260">
        <ele>1066.4</ele>
        <time>2022-07-25T09:09:50Z</time>
      </trkpt>
      <trkpt lat="46.1029750" lon="5.6792530">
        <ele>1066.2</ele>
        <time>2022-07-25T09:09:53Z</time>
      </trkpt>
      <trkpt lat="46.1028870" lon="5.6790580">
        <ele>1065.4</ele>
        <time>2022-07-25T09:09:59Z</time>
      </trkpt>
      <trkpt lat="46.1028550" lon="5.6789530">
        <ele>1065.4</ele>
        <time>2022-07-25T09:10:02Z</time>
      </trkpt>
      <trkpt lat="46.1028210" lon="5.6788280">
        <ele>1065.2</ele>
        <time>2022-07-25T09:10:05Z</time>
      </trkpt>
      <trkpt lat="46.1026810" lon="5.6784640">
        <ele>1064.8</ele>
        <time>2022-07-25T09:10:13Z</time>
      </trkpt>
      <trkpt lat="46.1025720" lon="5.6782500">
        <ele>1064.8</ele>
        <time>2022-07-25T09:10:18Z</time>
      </trkpt>
      <trkpt lat="46.1025450" lon="5.6780760">
        <ele>1064.4</ele>
        <time>2022-07-25T09:10:23Z</time>
      </trkpt>
      <trkpt lat="46.1025350" lon="5.6780240">
        <ele>1064.4</ele>
        <time>2022-07-25T09:10:26Z</time>
      </trkpt>
      <trkpt lat="46.1025200" lon="5.6780150">
        <ele>1064.2</ele>
        <time>2022-07-25T09:10:29Z</time>
      </trkpt>
      <trkpt lat="46.1025190" lon="5.6780110">
        <ele>1064.2</ele>
        <time>2022-07-25T09:10:30Z</time>
      </trkpt>
      <trkpt lat="46.1025370" lon="5.6776760">
        <ele>1063.4</ele>
        <time>2022-07-25T09:40:02Z</time>
      </trkpt>
      <trkpt lat="46.1025350" lon="5.6776040">
        <ele>1063.4</ele>
        <time>2022-07-25T09:40:04Z</time>
      </trkpt>
      <trkpt lat="46.1024940" lon="5.6774130">
        <ele>1063.4</ele>
        <time>2022-07-25T09:40:09Z</time>
      </trkpt>
      <trkpt lat="46.1023650" lon="5.6771750">
        <ele>1062.6</ele>
        <time>2022-07-25T09:40:16Z</time>
      </trkpt>
      <trkpt lat="46.1022530" lon="5.6770730">
        <ele>1062.6</ele>
        <time>2022-07-25T09:40:21Z</time>
      </trkpt>
      <trkpt lat="46.1020130" lon="5.6769540">
        <ele>1062.2</ele>
        <time>2022-07-25T09:40:26Z</time>
      </trkpt>
      <trkpt lat="46.1016200" lon="5.6768120">
        <ele>1062.2</ele>
        <time>2022-07-25T09:40:31Z</time>
      </trkpt>
      <trkpt lat="46.1015500" lon="5.6767920">
        <ele>1061.8</ele>
        <time>2022-07-25T09:40:32Z</time>
      </trkpt>
      <trkpt lat="46.1014830" lon="5.6767870">
        <ele>1061.6</ele>
        <time>2022-07-25T09:40:33Z</time>
      </trkpt>
      <trkpt lat="46.1013590" lon="5.6767690">
        <ele>1061.0</ele>
        <time>2022-07-25T09:40:35Z</time>
      </trkpt>
      <trkpt lat="46.1013050" lon="5.6767650">
        <ele>1060.8</ele>
        <time>2022-07-25T09:40:36Z</time>
      </trkpt>
      <trkpt lat="46.1010860" lon="5.6767460">
        <ele>1060.0</ele>
        <time>2022-07-25T09:40:40Z</time>
      </trkpt>
      <trkpt lat="46.1009870" lon="5.6767240">
        <ele>1058.8</ele>
        <time>2022-07-25T09:40:42Z</time>
      </trkpt>
      <trkpt lat="46.1009440" lon="5.6767020">
        <ele>1058.2</ele>
        <time>2022-07-25T09:40:43Z</time>
      </trkpt>
      <trkpt lat="46.1009020" lon="5.6766700">
        <ele>1057.6</ele>
        <time>2022-07-25T09:40:44Z</time>
      </trkpt>
      <trkpt lat="46.1008200" lon="5.6765980">
        <ele>1057.0</ele>
        <time>2022-07-25T09:40:46Z</time>
      </trkpt>
      <trkpt lat="46.1007840" lon="5.6765520">
        <ele>1056.4</ele>
        <time>2022-07-25T09:40:47Z</time>
      </trkpt>
      <trkpt lat="46.1007230" lon="5.6764520">
        <ele>1055.2</ele>
        <time>2022-07-25T09:40:49Z</time>
      </trkpt>
      <trkpt lat="46.1006730" lon="5.6763570">
        <ele>1054.0</ele>
        <time>2022-07-25T09:40:51Z</time>
      </trkpt>
      <trkpt lat="46.1004970" lon="5.6761530">
        <ele>1053.0</ele>
        <time>2022-07-25T09:40:55Z</time>
      </trkpt>
      <trkpt lat="46.1004540" lon="5.6760960">
        <ele>1053.0</ele>
        <time>2022-07-25T09:40:56Z</time>
      </trkpt>
      <trkpt lat="46.1002290" lon="5.6758100">
        <ele>1052.4</ele>
        <time>2022-07-25T09:41:02Z</time>
      </trkpt>
      <trkpt lat="46.1001720" lon="5.6757980">
        <ele>1052.0</ele>
        <time>2022-07-25T09:41:04Z</time>
      </trkpt>
      <trkpt lat="46.1001420" lon="5.6758090">
        <ele>1051.6</ele>
        <time>2022-07-25T09:41:05Z</time>
      </trkpt>
      <trkpt lat="46.1001220" lon="5.6758270">
        <ele>1051.0</ele>
        <time>2022-07-25T09:41:06Z</time>
      </trkpt>
      <trkpt lat="46.1000720" lon="5.6758860">
        <ele>1049.8</ele>
        <time>2022-07-25T09:41:08Z</time>
      </trkpt>
      <trkpt lat="46.1000380" lon="5.6759300">
        <ele>1048.6</ele>
        <time>2022-07-25T09:41:10Z</time>
      </trkpt>
      <trkpt lat="46.0999190" lon="5.6759360">
        <ele>1047.4</ele>
        <time>2022-07-25T09:41:13Z</time>
      </trkpt>
      <trkpt lat="46.0998700" lon="5.6759250">
        <ele>1046.8</ele>
        <time>2022-07-25T09:41:14Z</time>
      </trkpt>
      <trkpt lat="46.0998380" lon="5.6759090">
        <ele>1046.2</ele>
        <time>2022-07-25T09:41:15Z</time>
      </trkpt>
      <trkpt lat="46.0997870" lon="5.6758560">
        <ele>1045.0</ele>
        <time>2022-07-25T09:41:17Z</time>
      </trkpt>
      <trkpt lat="46.0997780" lon="5.6757810">
        <ele>1043.8</ele>
        <time>2022-07-25T09:41:19Z</time>
      </trkpt>
      <trkpt lat="46.0997820" lon="5.6757190">
        <ele>1042.4</ele>
        <time>2022-07-25T09:41:21Z</time>
      </trkpt>
      <trkpt lat="46.0997840" lon="5.6755360">
        <ele>1042.0</ele>
        <time>2022-07-25T09:41:27Z</time>
      </trkpt>
      <trkpt lat="46.0997740" lon="5.6753140">
        <ele>1041.8</ele>
        <time>2022-07-25T09:41:32Z</time>
      </trkpt>
      <trkpt lat="46.0996790" lon="5.6750310">
        <ele>1041.8</ele>
        <time>2022-07-25T09:41:38Z</time>
      </trkpt>
      <trkpt lat="46.0996240" lon="5.6750140">
        <ele>1041.6</ele>
        <time>2022-07-25T09:41:39Z</time>
      </trkpt>
      <trkpt lat="46.0995740" lon="5.6749860">
        <ele>1041.0</ele>
        <time>2022-07-25T09:41:40Z</time>
      </trkpt>
      <trkpt lat="46.0995150" lon="5.6749600">
        <ele>1040.2</ele>
        <time>2022-07-25T09:41:41Z</time>
      </trkpt>
      <trkpt lat="46.0994640" lon="5.6749370">
        <ele>1039.8</ele>
        <time>2022-07-25T09:41:42Z</time>
      </trkpt>
      <trkpt lat="46.0993550" lon="5.6748720">
        <ele>1038.6</ele>
        <time>2022-07-25T09:41:44Z</time>
      </trkpt>
      <trkpt lat="46.0992950" lon="5.6748490">
        <ele>1038.2</ele>
        <time>2022-07-25T09:41:45Z</time>
      </trkpt>
      <trkpt lat="46.0992360" lon="5.6748330">
        <ele>1037.8</ele>
        <time>2022-07-25T09:41:46Z</time>
      </trkpt>
      <trkpt lat="46.0991090" lon="5.6748150">
        <ele>1037.4</ele>
        <time>2022-07-25T09:41:48Z</time>
      </trkpt>
      <trkpt lat="46.0988600" lon="5.6748160">
        <ele>1037.0</ele>
        <time>2022-07-25T09:41:52Z</time>
      </trkpt>
      <trkpt lat="46.0988040" lon="5.6748090">
        <ele>1036.8</ele>
        <time>2022-07-25T09:41:53Z</time>
      </trkpt>
      <trkpt lat="46.0986550" lon="5.6747880">
        <ele>1036.8</ele>
        <time>2022-07-25T09:41:56Z</time>
      </trkpt>
      <trkpt lat="46.0983050" lon="5.6747960">
        <ele>1036.8</ele>
        <time>2022-07-25T09:42:04Z</time>
      </trkpt>
      <trkpt lat="46.0980540" lon="5.6748090">
        <ele>1037.0</ele>
        <time>2022-07-25T09:42:10Z</time>
      </trkpt>
      <trkpt lat="46.0977350" lon="5.6747390">
        <ele>1037.2</ele>
        <time>2022-07-25T09:42:18Z</time>
      </trkpt>
      <trkpt lat="46.0975420" lon="5.6746420">
        <ele>1037.4</ele>
        <time>2022-07-25T09:42:23Z</time>
      </trkpt>
      <trkpt lat="46.0975050" lon="5.6746200">
        <ele>1037.4</ele>
        <time>2022-07-25T09:42:24Z</time>
      </trkpt>
      <trkpt lat="46.0973070" lon="5.6745290">
        <ele>1037.6</ele>
        <time>2022-07-25T09:42:30Z</time>
      </trkpt>
      <trkpt lat="46.0971370" lon="5.6745060">
        <ele>1038.0</ele>
        <time>2022-07-25T09:42:36Z</time>
      </trkpt>
      <trkpt lat="46.0969770" lon="5.6745500">
        <ele>1038.6</ele>
        <time>2022-07-25T09:42:42Z</time>
      </trkpt>
      <trkpt lat="46.0967650" lon="5.6746660">
        <ele>1039.6</ele>
        <time>2022-07-25T09:42:50Z</time>
      </trkpt>
      <trkpt lat="46.0967120" lon="5.6747050">
        <ele>1039.8</ele>
        <time>2022-07-25T09:42:52Z</time>
      </trkpt>
      <trkpt lat="46.0965740" lon="5.6747810">
        <ele>1040.2</ele>
        <time>2022-07-25T09:42:57Z</time>
      </trkpt>
      <trkpt lat="46.0963730" lon="5.6748950">
        <ele>1040.8</ele>
        <time>2022-07-25T09:43:04Z</time>
      </trkpt>
      <trkpt lat="46.0963450" lon="5.6749020">
        <ele>1040.8</ele>
        <time>2022-07-25T09:43:05Z</time>
      </trkpt>
      <trkpt lat="46.0961440" lon="5.6749540">
        <ele>1041.6</ele>
        <time>2022-07-25T09:43:12Z</time>
      </trkpt>
      <trkpt lat="46.0960030" lon="5.6749770">
        <ele>1042.0</ele>
        <time>2022-07-25T09:43:17Z</time>
      </trkpt>
      <trkpt lat="46.0959560" lon="5.6750110">
        <ele>1042.2</ele>
        <time>2022-07-25T09:43:19Z</time>
      </trkpt>
      <trkpt lat="46.0958280" lon="5.6750950">
        <ele>1042.4</ele>
        <time>2022-07-25T09:43:24Z</time>
      </trkpt>
      <trkpt lat="46.0957020" lon="5.6752390">
        <ele>1042.8</ele>
        <time>2022-07-25T09:43:30Z</time>
      </trkpt>
      <trkpt lat="46.0956820" lon="5.6752650">
        <ele>1043.0</ele>
        <time>2022-07-25T09:43:31Z</time>
      </trkpt>
      <trkpt lat="46.0955890" lon="5.6754030">
        <ele>1043.6</ele>
        <time>2022-07-25T09:43:36Z</time>
      </trkpt>
      <trkpt lat="46.0954670" lon="5.6754920">
        <ele>1044.2</ele>
        <time>2022-07-25T09:43:41Z</time>
      </trkpt>
      <trkpt lat="46.0954360" lon="5.6755110">
        <ele>1044.2</ele>
        <time>2022-07-25T09:43:42Z</time>
      </trkpt>
      <trkpt lat="46.0952600" lon="5.6756210">
        <ele>1044.4</ele>
        <time>2022-07-25T09:43:48Z</time>
      </trkpt>
      <trkpt lat="46.0951120" lon="5.6756950">
        <ele>1044.2</ele>
        <time>2022-07-25T09:43:53Z</time>
      </trkpt>
      <trkpt lat="46.0949790" lon="5.6757270">
        <ele>1044.0</ele>
        <time>2022-07-25T09:43:56Z</time>
      </trkpt>
      <trkpt lat="46.0948600" lon="5.6757270">
        <ele>1043.8</ele>
        <time>2022-07-25T09:43:58Z</time>
      </trkpt>
      <trkpt lat="46.0947490" lon="5.6757120">
        <ele>1043.2</ele>
        <time>2022-07-25T09:44:00Z</time>
      </trkpt>
      <trkpt lat="46.0945930" lon="5.6757200">
        <ele>1041.8</ele>
        <time>2022-07-25T09:44:03Z</time>
      </trkpt>
      <trkpt lat="46.0945350" lon="5.6757300">
        <ele>1040.6</ele>
        <time>2022-07-25T09:44:05Z</time>
      </trkpt>
      <trkpt lat="46.0944060" lon="5.6758020">
        <ele>1040.0</ele>
        <time>2022-07-25T09:44:09Z</time>
      </trkpt>
      <trkpt lat="46.0941490" lon="5.6758490">
        <ele>1040.0</ele>
        <time>2022-07-25T09:44:15Z</time>
      </trkpt>
      <trkpt lat="46.0938820" lon="5.6758650">
        <ele>1040.2</ele>
        <time>2022-07-25T09:44:21Z</time>
      </trkpt>
      <trkpt lat="46.0936250" lon="5.6759280">
        <ele>1040.8</ele>
        <time>2022-07-25T09:44:28Z</time>
      </trkpt>
      <trkpt lat="46.0934980" lon="5.6759790">
        <ele>1041.0</ele>
        <time>2022-07-25T09:44:33Z</time>
      </trkpt>
      <trkpt lat="46.0933960" lon="5.6760520">
        <ele>1041.8</ele>
        <time>2022-07-25T09:44:39Z</time>
      </trkpt>
      <trkpt lat="46.0933760" lon="5.6760750">
        <ele>1041.8</ele>
        <time>2022-07-25T09:44:40Z</time>
      </trkpt>
      <trkpt lat="46.0933100" lon="5.6761330">
        <ele>1042.8</ele>
        <time>2022-07-25T09:44:44Z</time>
      </trkpt>
      <trkpt lat="46.0932580" lon="5.6761840">
        <ele>1043.6</ele>
        <time>2022-07-25T09:44:47Z</time>
      </trkpt>
      <trkpt lat="46.0932410" lon="5.6762020">
        <ele>1043.8</ele>
        <time>2022-07-25T09:44:48Z</time>
      </trkpt>
      <trkpt lat="46.0931560" lon="5.6763090">
        <ele>1044.8</ele>
        <time>2022-07-25T09:44:54Z</time>
      </trkpt>
      <trkpt lat="46.0931250" lon="5.6763560">
        <ele>1045.0</ele>
        <time>2022-07-25T09:44:56Z</time>
      </trkpt>
      <trkpt lat="46.0930730" lon="5.6764490">
        <ele>1045.0</ele>
        <time>2022-07-25T09:45:00Z</time>
      </trkpt>
      <trkpt lat="46.0929860" lon="5.6765890">
        <ele>1045.0</ele>
        <time>2022-07-25T09:45:06Z</time>
      </trkpt>
      <trkpt lat="46.0929040" lon="5.6767510">
        <ele>1045.0</ele>
        <time>2022-07-25T09:45:10Z</time>
      </trkpt>
      <trkpt lat="46.0928640" lon="5.6771120">
        <ele>1043.8</ele>
        <time>2022-07-25T09:45:15Z</time>
      </trkpt>
      <trkpt lat="46.0928460" lon="5.6772440">
        <ele>1042.8</ele>
        <time>2022-07-25T09:45:17Z</time>
      </trkpt>
      <trkpt lat="46.0928250" lon="5.6773490">
        <ele>1042.2</ele>
        <time>2022-07-25T09:45:19Z</time>
      </trkpt>
      <trkpt lat="46.0927340" lon="5.6776550">
        <ele>1041.8</ele>
        <time>2022-07-25T09:45:25Z</time>
      </trkpt>
      <trkpt lat="46.0926210" lon="5.6780380">
        <ele>1041.6</ele>
        <time>2022-07-25T09:45:31Z</time>
      </trkpt>
      <trkpt lat="46.0925540" lon="5.6782760">
        <ele>1041.6</ele>
        <time>2022-07-25T09:45:34Z</time>
      </trkpt>
      <trkpt lat="46.0925230" lon="5.6784090">
        <ele>1041.6</ele>
        <time>2022-07-25T09:45:36Z</time>
      </trkpt>
      <trkpt lat="46.0924240" lon="5.6788420">
        <ele>1040.6</ele>
        <time>2022-07-25T09:45:41Z</time>
      </trkpt>
      <trkpt lat="46.0923920" lon="5.6789250">
        <ele>1040.4</ele>
        <time>2022-07-25T09:45:42Z</time>
      </trkpt>
      <trkpt lat="46.0923610" lon="5.6789740">
        <ele>1040.0</ele>
        <time>2022-07-25T09:45:43Z</time>
      </trkpt>
      <trkpt lat="46.0922980" lon="5.6790770">
        <ele>1039.4</ele>
        <time>2022-07-25T09:45:45Z</time>
      </trkpt>
      <trkpt lat="46.0921530" lon="5.6792590">
        <ele>1038.8</ele>
        <time>2022-07-25T09:45:50Z</time>
      </trkpt>
      <trkpt lat="46.0919780" lon="5.6794410">
        <ele>1038.8</ele>
        <time>2022-07-25T09:45:55Z</time>
      </trkpt>
      <trkpt lat="46.0918260" lon="5.6795950">
        <ele>1038.8</ele>
        <time>2022-07-25T09:46:01Z</time>
      </trkpt>
      <trkpt lat="46.0916620" lon="5.6797740">
        <ele>1039.0</ele>
        <time>2022-07-25T09:46:07Z</time>
      </trkpt>
      <trkpt lat="46.0915360" lon="5.6799260">
        <ele>1039.4</ele>
        <time>2022-07-25T09:46:13Z</time>
      </trkpt>
      <trkpt lat="46.0913970" lon="5.6800930">
        <ele>1040.4</ele>
        <time>2022-07-25T09:46:19Z</time>
      </trkpt>
      <trkpt lat="46.0912620" lon="5.6802020">
        <ele>1040.8</ele>
        <time>2022-07-25T09:46:25Z</time>
      </trkpt>
      <trkpt lat="46.0911350" lon="5.6803210">
        <ele>1041.2</ele>
        <time>2022-07-25T09:46:29Z</time>
      </trkpt>
      <trkpt lat="46.0910160" lon="5.6804610">
        <ele>1041.4</ele>
        <time>2022-07-25T09:46:32Z</time>
      </trkpt>
      <trkpt lat="46.0909830" lon="5.6805400">
        <ele>1041.4</ele>
        <time>2022-07-25T09:46:33Z</time>
      </trkpt>
      <trkpt lat="46.0909030" lon="5.6806980">
        <ele>1041.4</ele>
        <time>2022-07-25T09:46:35Z</time>
      </trkpt>
      <trkpt lat="46.0907900" lon="5.6808130">
        <ele>1041.4</ele>
        <time>2022-07-25T09:46:37Z</time>
      </trkpt>
      <trkpt lat="46.0906080" lon="5.6808510">
        <ele>1041.0</ele>
        <time>2022-07-25T09:46:40Z</time>
      </trkpt>
      <trkpt lat="46.0905150" lon="5.6808770">
        <ele>1040.0</ele>
        <time>2022-07-25T09:46:42Z</time>
      </trkpt>
      <trkpt lat="46.0904530" lon="5.6809710">
        <ele>1038.0</ele>
        <time>2022-07-25T09:46:44Z</time>
      </trkpt>
      <trkpt lat="46.0904340" lon="5.6811840">
        <ele>1037.2</ele>
        <time>2022-07-25T09:46:48Z</time>
      </trkpt>
      <trkpt lat="46.0904300" lon="5.6812500">
        <ele>1037.0</ele>
        <time>2022-07-25T09:46:49Z</time>
      </trkpt>
      <trkpt lat="46.0904130" lon="5.6813790">
        <ele>1037.0</ele>
        <time>2022-07-25T09:46:51Z</time>
      </trkpt>
      <trkpt lat="46.0903800" lon="5.6815010">
        <ele>1037.0</ele>
        <time>2022-07-25T09:46:53Z</time>
      </trkpt>
      <trkpt lat="46.0903330" lon="5.6818840">
        <ele>1036.8</ele>
        <time>2022-07-25T09:46:59Z</time>
      </trkpt>
      <trkpt lat="46.0903230" lon="5.6820250">
        <ele>1036.4</ele>
        <time>2022-07-25T09:47:01Z</time>
      </trkpt>
      <trkpt lat="46.0903380" lon="5.6821990">
        <ele>1036.4</ele>
        <time>2022-07-25T09:47:04Z</time>
      </trkpt>
      <trkpt lat="46.0904210" lon="5.6823780">
        <ele>1036.6</ele>
        <time>2022-07-25T09:47:08Z</time>
      </trkpt>
      <trkpt lat="46.0904450" lon="5.6824200">
        <ele>1036.6</ele>
        <time>2022-07-25T09:47:09Z</time>
      </trkpt>
      <trkpt lat="46.0905520" lon="5.6826420">
        <ele>1037.0</ele>
        <time>2022-07-25T09:47:14Z</time>
      </trkpt>
      <trkpt lat="46.0905920" lon="5.6828840">
        <ele>1037.2</ele>
        <time>2022-07-25T09:47:19Z</time>
      </trkpt>
      <trkpt lat="46.0906760" lon="5.6832650">
        <ele>1037.4</ele>
        <time>2022-07-25T09:47:26Z</time>
      </trkpt>
      <trkpt lat="46.0907920" lon="5.6835820">
        <ele>1037.8</ele>
        <time>2022-07-25T09:47:33Z</time>
      </trkpt>
      <trkpt lat="46.0908900" lon="5.6837910">
        <ele>1038.0</ele>
        <time>2022-07-25T09:47:39Z</time>
      </trkpt>
      <trkpt lat="46.0909100" lon="5.6838590">
        <ele>1038.2</ele>
        <time>2022-07-25T09:47:41Z</time>
      </trkpt>
      <trkpt lat="46.0909440" lon="5.6839870">
        <ele>1038.8</ele>
        <time>2022-07-25T09:47:45Z</time>
      </trkpt>
      <trkpt lat="46.0909830" lon="5.6841260">
        <ele>1039.2</ele>
        <time>2022-07-25T09:47:50Z</time>
      </trkpt>
      <trkpt lat="46.0910040" lon="5.6842110">
        <ele>1039.8</ele>
        <time>2022-07-25T09:47:53Z</time>
      </trkpt>
      <trkpt lat="46.0910500" lon="5.6844180">
        <ele>1040.4</ele>
        <time>2022-07-25T09:47:59Z</time>
      </trkpt>
      <trkpt lat="46.0910560" lon="5.6844520">
        <ele>1040.6</ele>
        <time>2022-07-25T09:48:00Z</time>
      </trkpt>
      <trkpt lat="46.0910920" lon="5.6846460">
        <ele>1041.2</ele>
        <time>2022-07-25T09:48:06Z</time>
      </trkpt>
      <trkpt lat="46.0911010" lon="5.6846940">
        <ele>1041.4</ele>
        <time>2022-07-25T09:48:08Z</time>
      </trkpt>
      <trkpt lat="46.0911200" lon="5.6847950">
        <ele>1042.2</ele>
        <time>2022-07-25T09:48:12Z</time>
      </trkpt>
      <trkpt lat="46.0911300" lon="5.6848950">
        <ele>1042.6</ele>
        <time>2022-07-25T09:48:15Z</time>
      </trkpt>
      <trkpt lat="46.0911400" lon="5.6849860">
        <ele>1043.0</ele>
        <time>2022-07-25T09:48:18Z</time>
      </trkpt>
      <trkpt lat="46.0911610" lon="5.6851210">
        <ele>1043.6</ele>
        <time>2022-07-25T09:48:23Z</time>
      </trkpt>
      <trkpt lat="46.0911710" lon="5.6851740">
        <ele>1044.0</ele>
        <time>2022-07-25T09:48:25Z</time>
      </trkpt>
      <trkpt lat="46.0911880" lon="5.6853280">
        <ele>1044.2</ele>
        <time>2022-07-25T09:48:31Z</time>
      </trkpt>
      <trkpt lat="46.0911910" lon="5.6853750">
        <ele>1044.6</ele>
        <time>2022-07-25T09:48:33Z</time>
      </trkpt>
      <trkpt lat="46.0912090" lon="5.6854280">
        <ele>1045.0</ele>
        <time>2022-07-25T09:48:36Z</time>
      </trkpt>
      <trkpt lat="46.0912080" lon="5.6854950">
        <ele>1045.6</ele>
        <time>2022-07-25T09:48:39Z</time>
      </trkpt>
      <trkpt lat="46.0912060" lon="5.6855220">
        <ele>1045.8</ele>
        <time>2022-07-25T09:48:40Z</time>
      </trkpt>
      <trkpt lat="46.0912230" lon="5.6855930">
        <ele>1046.4</ele>
        <time>2022-07-25T09:48:43Z</time>
      </trkpt>
      <trkpt lat="46.0912340" lon="5.6856640">
        <ele>1046.8</ele>
        <time>2022-07-25T09:48:46Z</time>
      </trkpt>
      <trkpt lat="46.0912340" lon="5.6857580">
        <ele>1047.2</ele>
        <time>2022-07-25T09:48:50Z</time>
      </trkpt>
      <trkpt lat="46.0912520" lon="5.6858410">
        <ele>1047.8</ele>
        <time>2022-07-25T09:48:54Z</time>
      </trkpt>
      <trkpt lat="46.0912580" lon="5.6859210">
        <ele>1048.4</ele>
        <time>2022-07-25T09:48:57Z</time>
      </trkpt>
      <trkpt lat="46.0912550" lon="5.6859770">
        <ele>1049.0</ele>
        <time>2022-07-25T09:48:59Z</time>
      </trkpt>
      <trkpt lat="46.0912460" lon="5.6861070">
        <ele>1050.0</ele>
        <time>2022-07-25T09:49:04Z</time>
      </trkpt>
      <trkpt lat="46.0912230" lon="5.6862520">
        <ele>1051.0</ele>
        <time>2022-07-25T09:49:10Z</time>
      </trkpt>
      <trkpt lat="46.0912190" lon="5.6862770">
        <ele>1051.2</ele>
        <time>2022-07-25T09:49:11Z</time>
      </trkpt>
      <trkpt lat="46.0911940" lon="5.6864040">
        <ele>1052.0</ele>
        <time>2022-07-25T09:49:17Z</time>
      </trkpt>
      <trkpt lat="46.0911880" lon="5.6864230">
        <ele>1052.2</ele>
        <time>2022-07-25T09:49:18Z</time>
      </trkpt>
      <trkpt lat="46.0911720" lon="5.6865650">
        <ele>1053.2</ele>
        <time>2022-07-25T09:49:24Z</time>
      </trkpt>
      <trkpt lat="46.0911580" lon="5.6866770">
        <ele>1054.2</ele>
        <time>2022-07-25T09:49:28Z</time>
      </trkpt>
      <trkpt lat="46.0911380" lon="5.6867610">
        <ele>1054.6</ele>
        <time>2022-07-25T09:49:31Z</time>
      </trkpt>
      <trkpt lat="46.0911220" lon="5.6868400">
        <ele>1055.2</ele>
        <time>2022-07-25T09:49:34Z</time>
      </trkpt>
      <trkpt lat="46.0910790" lon="5.6869590">
        <ele>1056.2</ele>
        <time>2022-07-25T09:49:39Z</time>
      </trkpt>
      <trkpt lat="46.0910720" lon="5.6869830">
        <ele>1056.2</ele>
        <time>2022-07-25T09:49:40Z</time>
      </trkpt>
      <trkpt lat="46.0910450" lon="5.6871070">
        <ele>1056.8</ele>
        <time>2022-07-25T09:49:45Z</time>
      </trkpt>
      <trkpt lat="46.0910260" lon="5.6872450">
        <ele>1057.4</ele>
        <time>2022-07-25T09:49:51Z</time>
      </trkpt>
      <trkpt lat="46.0910360" lon="5.6872900">
        <ele>1057.8</ele>
        <time>2022-07-25T09:49:53Z</time>
      </trkpt>
      <trkpt lat="46.0910810" lon="5.6873620">
        <ele>1058.4</ele>
        <time>2022-07-25T09:49:57Z</time>
      </trkpt>
      <trkpt lat="46.0911260" lon="5.6873670">
        <ele>1058.8</ele>
        <time>2022-07-25T09:49:59Z</time>
      </trkpt>
      <trkpt lat="46.0911860" lon="5.6873650">
        <ele>1059.4</ele>
        <time>2022-07-25T09:50:02Z</time>
      </trkpt>
      <trkpt lat="46.0912880" lon="5.6873460">
        <ele>1060.2</ele>
        <time>2022-07-25T09:50:07Z</time>
      </trkpt>
      <trkpt lat="46.0913110" lon="5.6873460">
        <ele>1060.4</ele>
        <time>2022-07-25T09:50:08Z</time>
      </trkpt>
      <trkpt lat="46.0914670" lon="5.6873250">
        <ele>1061.4</ele>
        <time>2022-07-25T09:50:15Z</time>
      </trkpt>
      <trkpt lat="46.0915840" lon="5.6872970">
        <ele>1061.8</ele>
        <time>2022-07-25T09:50:20Z</time>
      </trkpt>
      <trkpt lat="46.0917000" lon="5.6872700">
        <ele>1062.4</ele>
        <time>2022-07-25T09:50:25Z</time>
      </trkpt>
      <trkpt lat="46.0918190" lon="5.6872450">
        <ele>1062.8</ele>
        <time>2022-07-25T09:50:30Z</time>
      </trkpt>
      <trkpt lat="46.0919360" lon="5.6872210">
        <ele>1063.6</ele>
        <time>2022-07-25T09:50:35Z</time>
      </trkpt>
      <trkpt lat="46.0919820" lon="5.6872120">
        <ele>1063.8</ele>
        <time>2022-07-25T09:50:37Z</time>
      </trkpt>
      <trkpt lat="46.0921610" lon="5.6871640">
        <ele>1064.8</ele>
        <time>2022-07-25T09:50:45Z</time>
      </trkpt>
      <trkpt lat="46.0923240" lon="5.6871220">
        <ele>1065.8</ele>
        <time>2022-07-25T09:50:52Z</time>
      </trkpt>
      <trkpt lat="46.0923480" lon="5.6871180">
        <ele>1066.0</ele>
        <time>2022-07-25T09:50:53Z</time>
      </trkpt>
      <trkpt lat="46.0925280" lon="5.6871080">
        <ele>1067.2</ele>
        <time>2022-07-25T09:51:00Z</time>
      </trkpt>
      <trkpt lat="46.0925530" lon="5.6871080">
        <ele>1067.4</ele>
        <time>2022-07-25T09:51:01Z</time>
      </trkpt>
      <trkpt lat="46.0926760" lon="5.6871170">
        <ele>1068.2</ele>
        <time>2022-07-25T09:51:06Z</time>
      </trkpt>
      <trkpt lat="46.0927000" lon="5.6871190">
        <ele>1068.4</ele>
        <time>2022-07-25T09:51:07Z</time>
      </trkpt>
      <trkpt lat="46.0927720" lon="5.6871280">
        <ele>1069.0</ele>
        <time>2022-07-25T09:51:10Z</time>
      </trkpt>
      <trkpt lat="46.0928430" lon="5.6871370">
        <ele>1069.6</ele>
        <time>2022-07-25T09:51:13Z</time>
      </trkpt>
      <trkpt lat="46.0930310" lon="5.6871830">
        <ele>1070.8</ele>
        <time>2022-07-25T09:51:20Z</time>
      </trkpt>
      <trkpt lat="46.0930590" lon="5.6871910">
        <ele>1071.0</ele>
        <time>2022-07-25T09:51:21Z</time>
      </trkpt>
      <trkpt lat="46.0932990" lon="5.6872590">
        <ele>1072.0</ele>
        <time>2022-07-25T09:51:29Z</time>
      </trkpt>
      <trkpt lat="46.0933580" lon="5.6872820">
        <ele>1072.0</ele>
        <time>2022-07-25T09:51:31Z</time>
      </trkpt>
      <trkpt lat="46.0936080" lon="5.6873900">
        <ele>1072.4</ele>
        <time>2022-07-25T09:51:39Z</time>
      </trkpt>
      <trkpt lat="46.0938860" lon="5.6875330">
        <ele>1073.0</ele>
        <time>2022-07-25T09:51:47Z</time>
      </trkpt>
      <trkpt lat="46.0942830" lon="5.6877230">
        <ele>1074.0</ele>
        <time>2022-07-25T09:51:58Z</time>
      </trkpt>
      <trkpt lat="46.0943530" lon="5.6877560">
        <ele>1074.2</ele>
        <time>2022-07-25T09:52:00Z</time>
      </trkpt>
      <trkpt lat="46.0944560" lon="5.6878100">
        <ele>1074.2</ele>
        <time>2022-07-25T09:52:03Z</time>
      </trkpt>
      <trkpt lat="46.0946730" lon="5.6879150">
        <ele>1075.0</ele>
        <time>2022-07-25T09:52:09Z</time>
      </trkpt>
      <trkpt lat="46.0947100" lon="5.6879310">
        <ele>1075.2</ele>
        <time>2022-07-25T09:52:10Z</time>
      </trkpt>
      <trkpt lat="46.0950870" lon="5.6881190">
        <ele>1075.4</ele>
        <time>2022-07-25T09:52:20Z</time>
      </trkpt>
      <trkpt lat="46.0954060" lon="5.6882790">
        <ele>1075.8</ele>
        <time>2022-07-25T09:52:28Z</time>
      </trkpt>
      <trkpt lat="46.0958100" lon="5.6884820">
        <ele>1076.0</ele>
        <time>2022-07-25T09:52:38Z</time>
      </trkpt>
      <trkpt lat="46.0958490" lon="5.6885010">
        <ele>1076.2</ele>
        <time>2022-07-25T09:52:39Z</time>
      </trkpt>
      <trkpt lat="46.0962330" lon="5.6886770">
        <ele>1077.0</ele>
        <time>2022-07-25T09:52:49Z</time>
      </trkpt>
      <trkpt lat="46.0963080" lon="5.6886980">
        <ele>1077.2</ele>
        <time>2022-07-25T09:52:51Z</time>
      </trkpt>
      <trkpt lat="46.0965250" lon="5.6887370">
        <ele>1077.8</ele>
        <time>2022-07-25T09:52:57Z</time>
      </trkpt>
      <trkpt lat="46.0966280" lon="5.6887550">
        <ele>1078.4</ele>
        <time>2022-07-25T09:53:00Z</time>
      </trkpt>
      <trkpt lat="46.0968670" lon="5.6887980">
        <ele>1079.4</ele>
        <time>2022-07-25T09:53:07Z</time>
      </trkpt>
      <trkpt lat="46.0971290" lon="5.6888330">
        <ele>1080.6</ele>
        <time>2022-07-25T09:53:14Z</time>
      </trkpt>
      <trkpt lat="46.0972840" lon="5.6888590">
        <ele>1081.2</ele>
        <time>2022-07-25T09:53:18Z</time>
      </trkpt>
      <trkpt lat="46.0976090" lon="5.6889590">
        <ele>1081.4</ele>
        <time>2022-07-25T09:53:26Z</time>
      </trkpt>
      <trkpt lat="46.0977410" lon="5.6890360">
        <ele>1081.8</ele>
        <time>2022-07-25T09:53:29Z</time>
      </trkpt>
      <trkpt lat="46.0978360" lon="5.6891100">
        <ele>1081.8</ele>
        <time>2022-07-25T09:53:31Z</time>
      </trkpt>
      <trkpt lat="46.0981960" lon="5.6893370">
        <ele>1082.0</ele>
        <time>2022-07-25T09:53:38Z</time>
      </trkpt>
      <trkpt lat="46.0987190" lon="5.6897030">
        <ele>1081.8</ele>
        <time>2022-07-25T09:53:48Z</time>
      </trkpt>
      <trkpt lat="46.0987720" lon="5.6897400">
        <ele>1081.6</ele>
        <time>2022-07-25T09:53:49Z</time>
      </trkpt>
      <trkpt lat="46.0991680" lon="5.6900010">
        <ele>1081.0</ele>
        <time>2022-07-25T09:53:57Z</time>
      </trkpt>
      <trkpt lat="46.0993940" lon="5.6901190">
        <ele>1081.0</ele>
        <time>2022-07-25T09:54:03Z</time>
      </trkpt>
      <trkpt lat="46.0996390" lon="5.6902350">
        <ele>1082.4</ele>
        <time>2022-07-25T09:54:12Z</time>
      </trkpt>
      <trkpt lat="46.0997190" lon="5.6902770">
        <ele>1083.0</ele>
        <time>2022-07-25T09:54:15Z</time>
      </trkpt>
      <trkpt lat="46.0998540" lon="5.6903430">
        <ele>1084.0</ele>
        <time>2022-07-25T09:54:20Z</time>
      </trkpt>
      <trkpt lat="46.0999080" lon="5.6903660">
        <ele>1084.2</ele>
        <time>2022-07-25T09:54:22Z</time>
      </trkpt>
      <trkpt lat="46.1000640" lon="5.6904450">
        <ele>1085.0</ele>
        <time>2022-07-25T09:54:28Z</time>
      </trkpt>
      <trkpt lat="46.1001420" lon="5.6904870">
        <ele>1085.6</ele>
        <time>2022-07-25T09:54:31Z</time>
      </trkpt>
      <trkpt lat="46.1001950" lon="5.6905110">
        <ele>1086.0</ele>
        <time>2022-07-25T09:54:33Z</time>
      </trkpt>
      <trkpt lat="46.1003740" lon="5.6905980">
        <ele>1087.0</ele>
        <time>2022-07-25T09:54:40Z</time>
      </trkpt>
      <trkpt lat="46.1004250" lon="5.6906280">
        <ele>1087.4</ele>
        <time>2022-07-25T09:54:42Z</time>
      </trkpt>
      <trkpt lat="46.1005260" lon="5.6906960">
        <ele>1088.2</ele>
        <time>2022-07-25T09:54:46Z</time>
      </trkpt>
      <trkpt lat="46.1006710" lon="5.6908220">
        <ele>1089.2</ele>
        <time>2022-07-25T09:54:52Z</time>
      </trkpt>
      <trkpt lat="46.1006940" lon="5.6908450">
        <ele>1089.2</ele>
        <time>2022-07-25T09:54:53Z</time>
      </trkpt>
      <trkpt lat="46.1008560" lon="5.6910450">
        <ele>1090.2</ele>
        <time>2022-07-25T09:55:01Z</time>
      </trkpt>
      <trkpt lat="46.1008750" lon="5.6910720">
        <ele>1090.4</ele>
        <time>2022-07-25T09:55:02Z</time>
      </trkpt>
      <trkpt lat="46.1010390" lon="5.6912960">
        <ele>1091.4</ele>
        <time>2022-07-25T09:55:10Z</time>
      </trkpt>
      <trkpt lat="46.1010790" lon="5.6913550">
        <ele>1091.6</ele>
        <time>2022-07-25T09:55:12Z</time>
      </trkpt>
      <trkpt lat="46.1012380" lon="5.6915840">
        <ele>1092.6</ele>
        <time>2022-07-25T09:55:19Z</time>
      </trkpt>
      <trkpt lat="46.1014820" lon="5.6919290">
        <ele>1093.2</ele>
        <time>2022-07-25T09:55:29Z</time>
      </trkpt>
      <trkpt lat="46.1016110" lon="5.6921050">
        <ele>1093.6</ele>
        <time>2022-07-25T09:55:34Z</time>
      </trkpt>
      <trkpt lat="46.1017830" lon="5.6922910">
        <ele>1094.4</ele>
        <time>2022-07-25T09:55:40Z</time>
      </trkpt>
      <trkpt lat="46.1018660" lon="5.6923630">
        <ele>1094.8</ele>
        <time>2022-07-25T09:55:43Z</time>
      </trkpt>
      <trkpt lat="46.1019720" lon="5.6924400">
        <ele>1095.2</ele>
        <time>2022-07-25T09:55:47Z</time>
      </trkpt>
      <trkpt lat="46.1020560" lon="5.6924870">
        <ele>1095.8</ele>
        <time>2022-07-25T09:55:50Z</time>
      </trkpt>
      <trkpt lat="46.1021710" lon="5.6925450">
        <ele>1096.6</ele>
        <time>2022-07-25T09:55:54Z</time>
      </trkpt>
      <trkpt lat="46.1022000" lon="5.6925570">
        <ele>1096.8</ele>
        <time>2022-07-25T09:55:55Z</time>
      </trkpt>
      <trkpt lat="46.1023780" lon="5.6926460">
        <ele>1098.0</ele>
        <time>2022-07-25T09:56:01Z</time>
      </trkpt>
      <trkpt lat="46.1024380" lon="5.6926740">
        <ele>1098.2</ele>
        <time>2022-07-25T09:56:03Z</time>
      </trkpt>
      <trkpt lat="46.1026180" lon="5.6927640">
        <ele>1099.0</ele>
        <time>2022-07-25T09:56:09Z</time>
      </trkpt>
      <trkpt lat="46.1027170" lon="5.6928070">
        <ele>1099.4</ele>
        <time>2022-07-25T09:56:12Z</time>
      </trkpt>
      <trkpt lat="46.1029750" lon="5.6929420">
        <ele>1099.6</ele>
        <time>2022-07-25T09:56:19Z</time>
      </trkpt>
      <trkpt lat="46.1032870" lon="5.6931210">
        <ele>1099.6</ele>
        <time>2022-07-25T09:56:26Z</time>
      </trkpt>
      <trkpt lat="46.1036650" lon="5.6933300">
        <ele>1099.2</ele>
        <time>2022-07-25T09:56:33Z</time>
      </trkpt>
      <trkpt lat="46.1040640" lon="5.6935490">
        <ele>1098.6</ele>
        <time>2022-07-25T09:56:41Z</time>
      </trkpt>
      <trkpt lat="46.1043470" lon="5.6937130">
        <ele>1098.6</ele>
        <time>2022-07-25T09:56:47Z</time>
      </trkpt>
      <trkpt lat="46.1046970" lon="5.6939120">
        <ele>1098.4</ele>
        <time>2022-07-25T09:56:54Z</time>
      </trkpt>
      <trkpt lat="46.1051100" lon="5.6940640">
        <ele>1098.4</ele>
        <time>2022-07-25T09:57:02Z</time>
      </trkpt>
      <trkpt lat="46.1054810" lon="5.6941400">
        <ele>1098.6</ele>
        <time>2022-07-25T09:57:09Z</time>
      </trkpt>
      <trkpt lat="46.1058370" lon="5.6941740">
        <ele>1098.6</ele>
        <time>2022-07-25T09:57:16Z</time>
      </trkpt>
      <trkpt lat="46.1061410" lon="5.6942040">
        <ele>1099.2</ele>
        <time>2022-07-25T09:57:23Z</time>
      </trkpt>
      <trkpt lat="46.1063730" lon="5.6943190">
        <ele>1099.8</ele>
        <time>2022-07-25T09:57:29Z</time>
      </trkpt>
      <trkpt lat="46.1066800" lon="5.6945320">
        <ele>1100.4</ele>
        <time>2022-07-25T09:57:37Z</time>
      </trkpt>
      <trkpt lat="46.1069830" lon="5.6947210">
        <ele>1100.8</ele>
        <time>2022-07-25T09:57:45Z</time>
      </trkpt>
      <trkpt lat="46.1070240" lon="5.6947440">
        <ele>1101.0</ele>
        <time>2022-07-25T09:57:46Z</time>
      </trkpt>
      <trkpt lat="46.1073720" lon="5.6948800">
        <ele>1101.2</ele>
        <time>2022-07-25T09:57:54Z</time>
      </trkpt>
      <trkpt lat="46.1076550" lon="5.6949210">
        <ele>1101.4</ele>
        <time>2022-07-25T09:58:00Z</time>
      </trkpt>
      <trkpt lat="46.1079580" lon="5.6949440">
        <ele>1101.8</ele>
        <time>2022-07-25T09:58:07Z</time>
      </trkpt>
      <trkpt lat="46.1080400" lon="5.6949570">
        <ele>1102.0</ele>
        <time>2022-07-25T09:58:09Z</time>
      </trkpt>
      <trkpt lat="46.1081870" lon="5.6950010">
        <ele>1102.2</ele>
        <time>2022-07-25T09:58:13Z</time>
      </trkpt>
      <trkpt lat="46.1084370" lon="5.6951630">
        <ele>1102.8</ele>
        <time>2022-07-25T09:58:19Z</time>
      </trkpt>
      <trkpt lat="46.1085530" lon="5.6953640">
        <ele>1103.2</ele>
        <time>2022-07-25T09:58:23Z</time>
      </trkpt>
      <trkpt lat="46.1086190" lon="5.6956980">
        <ele>1103.8</ele>
        <time>2022-07-25T09:58:29Z</time>
      </trkpt>
      <trkpt lat="46.1086270" lon="5.6958140">
        <ele>1103.8</ele>
        <time>2022-07-25T09:58:31Z</time>
      </trkpt>
      <trkpt lat="46.1086330" lon="5.6960870">
        <ele>1104.2</ele>
        <time>2022-07-25T09:58:36Z</time>
      </trkpt>
      <trkpt lat="46.1086140" lon="5.6964260">
        <ele>1104.8</ele>
        <time>2022-07-25T09:58:43Z</time>
      </trkpt>
      <trkpt lat="46.1086130" lon="5.6964730">
        <ele>1104.8</ele>
        <time>2022-07-25T09:58:44Z</time>
      </trkpt>
      <trkpt lat="46.1086180" lon="5.6967420">
        <ele>1105.4</ele>
        <time>2022-07-25T09:58:49Z</time>
      </trkpt>
      <trkpt lat="46.1086430" lon="5.6970250">
        <ele>1106.0</ele>
        <time>2022-07-25T09:58:55Z</time>
      </trkpt>
      <trkpt lat="46.1086480" lon="5.6970660">
        <ele>1106.0</ele>
        <time>2022-07-25T09:58:56Z</time>
      </trkpt>
      <trkpt lat="46.1086710" lon="5.6972470">
        <ele>1107.0</ele>
        <time>2022-07-25T09:59:01Z</time>
      </trkpt>
      <trkpt lat="46.1087010" lon="5.6973460">
        <ele>1107.4</ele>
        <time>2022-07-25T09:59:04Z</time>
      </trkpt>
      <trkpt lat="46.1087470" lon="5.6974770">
        <ele>1108.2</ele>
        <time>2022-07-25T09:59:08Z</time>
      </trkpt>
      <trkpt lat="46.1087920" lon="5.6976090">
        <ele>1109.0</ele>
        <time>2022-07-25T09:59:12Z</time>
      </trkpt>
      <trkpt lat="46.1088040" lon="5.6976390">
        <ele>1109.2</ele>
        <time>2022-07-25T09:59:13Z</time>
      </trkpt>
      <trkpt lat="46.1088720" lon="5.6978510">
        <ele>1109.8</ele>
        <time>2022-07-25T09:59:20Z</time>
      </trkpt>
      <trkpt lat="46.1088830" lon="5.6978780">
        <ele>1110.0</ele>
        <time>2022-07-25T09:59:21Z</time>
      </trkpt>
      <trkpt lat="46.1089280" lon="5.6980770">
        <ele>1111.0</ele>
        <time>2022-07-25T09:59:28Z</time>
      </trkpt>
      <trkpt lat="46.1089330" lon="5.6981070">
        <ele>1111.2</ele>
        <time>2022-07-25T09:59:29Z</time>
      </trkpt>
      <trkpt lat="46.1089920" lon="5.6982920">
        <ele>1112.0</ele>
        <time>2022-07-25T09:59:35Z</time>
      </trkpt>
      <trkpt lat="46.1090060" lon="5.6983250">
        <ele>1112.2</ele>
        <time>2022-07-25T09:59:36Z</time>
      </trkpt>
      <trkpt lat="46.1090570" lon="5.6984930">
        <ele>1112.8</ele>
        <time>2022-07-25T09:59:41Z</time>
      </trkpt>
      <trkpt lat="46.1090730" lon="5.6985640">
        <ele>1113.2</ele>
        <time>2022-07-25T09:59:43Z</time>
      </trkpt>
      <trkpt lat="46.1091210" lon="5.6986950">
        <ele>1113.6</ele>
        <time>2022-07-25T09:59:47Z</time>
      </trkpt>
      <trkpt lat="46.1091650" lon="5.6988650">
        <ele>1114.4</ele>
        <time>2022-07-25T09:59:52Z</time>
      </trkpt>
      <trkpt lat="46.1091710" lon="5.6988980">
        <ele>1114.4</ele>
        <time>2022-07-25T09:59:53Z</time>
      </trkpt>
      <trkpt lat="46.1092530" lon="5.6991300">
        <ele>1115.2</ele>
        <time>2022-07-25T10:00:00Z</time>
      </trkpt>
      <trkpt lat="46.1092790" lon="5.6991990">
        <ele>1115.4</ele>
        <time>2022-07-25T10:00:02Z</time>
      </trkpt>
      <trkpt lat="46.1093350" lon="5.6994180">
        <ele>1116.2</ele>
        <time>2022-07-25T10:00:08Z</time>
      </trkpt>
      <trkpt lat="46.1093570" lon="5.6995840">
        <ele>1116.4</ele>
        <time>2022-07-25T10:00:12Z</time>
      </trkpt>
      <trkpt lat="46.1093580" lon="5.6996670">
        <ele>1116.8</ele>
        <time>2022-07-25T10:00:14Z</time>
      </trkpt>
      <trkpt lat="46.1093140" lon="5.6999040">
        <ele>1117.4</ele>
        <time>2022-07-25T10:00:20Z</time>
      </trkpt>
      <trkpt lat="46.1093000" lon="5.6999370">
        <ele>1117.6</ele>
        <time>2022-07-25T10:00:21Z</time>
      </trkpt>
      <trkpt lat="46.1091890" lon="5.7001040">
        <ele>1118.6</ele>
        <time>2022-07-25T10:00:27Z</time>
      </trkpt>
      <trkpt lat="46.1091680" lon="5.7001250">
        <ele>1118.8</ele>
        <time>2022-07-25T10:00:28Z</time>
      </trkpt>
      <trkpt lat="46.1089890" lon="5.7002160">
        <ele>1119.4</ele>
        <time>2022-07-25T10:00:35Z</time>
      </trkpt>
      <trkpt lat="46.1089380" lon="5.7002090">
        <ele>1119.6</ele>
        <time>2022-07-25T10:00:37Z</time>
      </trkpt>
      <trkpt lat="46.1088160" lon="5.7001680">
        <ele>1120.2</ele>
        <time>2022-07-25T10:00:42Z</time>
      </trkpt>
      <trkpt lat="46.1087370" lon="5.7001350">
        <ele>1120.8</ele>
        <time>2022-07-25T10:00:45Z</time>
      </trkpt>
      <trkpt lat="46.1086200" lon="5.7000850">
        <ele>1121.8</ele>
        <time>2022-07-25T10:00:49Z</time>
      </trkpt>
      <trkpt lat="46.1085920" lon="5.7000720">
        <ele>1122.0</ele>
        <time>2022-07-25T10:00:50Z</time>
      </trkpt>
      <trkpt lat="46.1084130" lon="5.7000300">
        <ele>1122.6</ele>
        <time>2022-07-25T10:00:56Z</time>
      </trkpt>
      <trkpt lat="46.1081970" lon="5.7000640">
        <ele>1123.0</ele>
        <time>2022-07-25T10:01:03Z</time>
      </trkpt>
      <trkpt lat="46.1079980" lon="5.7001310">
        <ele>1123.4</ele>
        <time>2022-07-25T10:01:10Z</time>
      </trkpt>
      <trkpt lat="46.1078630" lon="5.7001760">
        <ele>1124.0</ele>
        <time>2022-07-25T10:01:14Z</time>
      </trkpt>
      <trkpt lat="46.1077560" lon="5.7001980">
        <ele>1124.2</ele>
        <time>2022-07-25T10:01:17Z</time>
      </trkpt>
      <trkpt lat="46.1075150" lon="5.7002100">
        <ele>1124.8</ele>
        <time>2022-07-25T10:01:24Z</time>
      </trkpt>
      <trkpt lat="46.1073440" lon="5.7001800">
        <ele>1125.0</ele>
        <time>2022-07-25T10:01:29Z</time>
      </trkpt>
      <trkpt lat="46.1072310" lon="5.7001730">
        <ele>1125.4</ele>
        <time>2022-07-25T10:01:32Z</time>
      </trkpt>
      <trkpt lat="46.1069780" lon="5.7001550">
        <ele>1126.0</ele>
        <time>2022-07-25T10:01:38Z</time>
      </trkpt>
      <trkpt lat="46.1069040" lon="5.7001440">
        <ele>1126.2</ele>
        <time>2022-07-25T10:01:40Z</time>
      </trkpt>
      <trkpt lat="46.1067020" lon="5.7001610">
        <ele>1126.6</ele>
        <time>2022-07-25T10:01:45Z</time>
      </trkpt>
      <trkpt lat="46.1066160" lon="5.7001820">
        <ele>1126.8</ele>
        <time>2022-07-25T10:01:47Z</time>
      </trkpt>
      <trkpt lat="46.1064410" lon="5.7002330">
        <ele>1127.4</ele>
        <time>2022-07-25T10:01:51Z</time>
      </trkpt>
      <trkpt lat="46.1061550" lon="5.7003120">
        <ele>1128.4</ele>
        <time>2022-07-25T10:01:58Z</time>
      </trkpt>
      <trkpt lat="46.1058810" lon="5.7003680">
        <ele>1129.2</ele>
        <time>2022-07-25T10:02:05Z</time>
      </trkpt>
      <trkpt lat="46.1058400" lon="5.7003770">
        <ele>1129.4</ele>
        <time>2022-07-25T10:02:06Z</time>
      </trkpt>
      <trkpt lat="46.1056530" lon="5.7004210">
        <ele>1130.0</ele>
        <time>2022-07-25T10:02:11Z</time>
      </trkpt>
      <trkpt lat="46.1055010" lon="5.7004780">
        <ele>1130.4</ele>
        <time>2022-07-25T10:02:15Z</time>
      </trkpt>
      <trkpt lat="46.1053850" lon="5.7005230">
        <ele>1130.6</ele>
        <time>2022-07-25T10:02:18Z</time>
      </trkpt>
      <trkpt lat="46.1051470" lon="5.7006080">
        <ele>1131.0</ele>
        <time>2022-07-25T10:02:24Z</time>
      </trkpt>
      <trkpt lat="46.1048840" lon="5.7005840">
        <ele>1131.2</ele>
        <time>2022-07-25T10:02:30Z</time>
      </trkpt>
      <trkpt lat="46.1046020" lon="5.7005280">
        <ele>1132.2</ele>
        <time>2022-07-25T10:02:37Z</time>
      </trkpt>
      <trkpt lat="46.1043660" lon="5.7005920">
        <ele>1132.8</ele>
        <time>2022-07-25T10:02:42Z</time>
      </trkpt>
      <trkpt lat="46.1042090" lon="5.7007890">
        <ele>1133.0</ele>
        <time>2022-07-25T10:02:47Z</time>
      </trkpt>
      <trkpt lat="46.1041700" lon="5.7009030">
        <ele>1133.4</ele>
        <time>2022-07-25T10:02:49Z</time>
      </trkpt>
      <trkpt lat="46.1041180" lon="5.7011450">
        <ele>1133.6</ele>
        <time>2022-07-25T10:02:53Z</time>
      </trkpt>
      <trkpt lat="46.1040930" lon="5.7015150">
        <ele>1134.0</ele>
        <time>2022-07-25T10:02:59Z</time>
      </trkpt>
      <trkpt lat="46.1040890" lon="5.7015770">
        <ele>1134.2</ele>
        <time>2022-07-25T10:03:00Z</time>
      </trkpt>
      <trkpt lat="46.1040830" lon="5.7016390">
        <ele>1134.4</ele>
        <time>2022-07-25T10:03:01Z</time>
      </trkpt>
      <trkpt lat="46.1040770" lon="5.7019680">
        <ele>1134.8</ele>
        <time>2022-07-25T10:03:07Z</time>
      </trkpt>
      <trkpt lat="46.1040740" lon="5.7023310">
        <ele>1135.4</ele>
        <time>2022-07-25T10:03:14Z</time>
      </trkpt>
      <trkpt lat="46.1040800" lon="5.7025410">
        <ele>1136.2</ele>
        <time>2022-07-25T10:03:18Z</time>
      </trkpt>
      <trkpt lat="46.1040850" lon="5.7026450">
        <ele>1136.6</ele>
        <time>2022-07-25T10:03:20Z</time>
      </trkpt>
      <trkpt lat="46.1040980" lon="5.7028880">
        <ele>1137.2</ele>
        <time>2022-07-25T10:03:25Z</time>
      </trkpt>
      <trkpt lat="46.1041120" lon="5.7030150">
        <ele>1137.6</ele>
        <time>2022-07-25T10:03:28Z</time>
      </trkpt>
      <trkpt lat="46.1041330" lon="5.7031800">
        <ele>1138.2</ele>
        <time>2022-07-25T10:03:32Z</time>
      </trkpt>
      <trkpt lat="46.1041390" lon="5.7032610">
        <ele>1138.6</ele>
        <time>2022-07-25T10:03:34Z</time>
      </trkpt>
      <trkpt lat="46.1041650" lon="5.7035010">
        <ele>1139.6</ele>
        <time>2022-07-25T10:03:40Z</time>
      </trkpt>
      <trkpt lat="46.1041690" lon="5.7035420">
        <ele>1139.6</ele>
        <time>2022-07-25T10:03:41Z</time>
      </trkpt>
      <trkpt lat="46.1042090" lon="5.7037900">
        <ele>1140.6</ele>
        <time>2022-07-25T10:03:47Z</time>
      </trkpt>
      <trkpt lat="46.1042200" lon="5.7038280">
        <ele>1140.8</ele>
        <time>2022-07-25T10:03:48Z</time>
      </trkpt>
      <trkpt lat="46.1042750" lon="5.7040370">
        <ele>1141.8</ele>
        <time>2022-07-25T10:03:53Z</time>
      </trkpt>
      <trkpt lat="46.1042870" lon="5.7040830">
        <ele>1141.8</ele>
        <time>2022-07-25T10:03:54Z</time>
      </trkpt>
      <trkpt lat="46.1043960" lon="5.7043990">
        <ele>1142.4</ele>
        <time>2022-07-25T10:04:01Z</time>
      </trkpt>
      <trkpt lat="46.1044990" lon="5.7046790">
        <ele>1142.8</ele>
        <time>2022-07-25T10:04:07Z</time>
      </trkpt>
      <trkpt lat="46.1045190" lon="5.7047220">
        <ele>1143.0</ele>
        <time>2022-07-25T10:04:08Z</time>
      </trkpt>
      <trkpt lat="46.1046630" lon="5.7048800">
        <ele>1143.2</ele>
        <time>2022-07-25T10:04:13Z</time>
      </trkpt>
      <trkpt lat="46.1048980" lon="5.7049720">
        <ele>1143.6</ele>
        <time>2022-07-25T10:04:19Z</time>
      </trkpt>
      <trkpt lat="46.1050220" lon="5.7050010">
        <ele>1143.8</ele>
        <time>2022-07-25T10:04:22Z</time>
      </trkpt>
      <trkpt lat="46.1052980" lon="5.7050680">
        <ele>1144.2</ele>
        <time>2022-07-25T10:04:29Z</time>
      </trkpt>
      <trkpt lat="46.1056100" lon="5.7052310">
        <ele>1144.6</ele>
        <time>2022-07-25T10:04:37Z</time>
      </trkpt>
      <trkpt lat="46.1058090" lon="5.7054200">
        <ele>1145.0</ele>
        <time>2022-07-25T10:04:43Z</time>
      </trkpt>
      <trkpt lat="46.1058380" lon="5.7054560">
        <ele>1145.0</ele>
        <time>2022-07-25T10:04:44Z</time>
      </trkpt>
      <trkpt lat="46.1061170" lon="5.7058150">
        <ele>1146.0</ele>
        <time>2022-07-25T10:04:53Z</time>
      </trkpt>
      <trkpt lat="46.1061450" lon="5.7058670">
        <ele>1146.0</ele>
        <time>2022-07-25T10:04:54Z</time>
      </trkpt>
      <trkpt lat="46.1061700" lon="5.7059260">
        <ele>1146.0</ele>
        <time>2022-07-25T10:04:55Z</time>
      </trkpt>
      <trkpt lat="46.1062080" lon="5.7061870">
        <ele>1146.2</ele>
        <time>2022-07-25T10:04:59Z</time>
      </trkpt>
      <trkpt lat="46.1061970" lon="5.7063170">
        <ele>1146.2</ele>
        <time>2022-07-25T10:05:01Z</time>
      </trkpt>
      <trkpt lat="46.1061590" lon="5.7066260">
        <ele>1146.2</ele>
        <time>2022-07-25T10:05:06Z</time>
      </trkpt>
      <trkpt lat="46.1061310" lon="5.7068630">
        <ele>1146.8</ele>
        <time>2022-07-25T10:05:10Z</time>
      </trkpt>
      <trkpt lat="46.1061230" lon="5.7071590">
        <ele>1147.6</ele>
        <time>2022-07-25T10:05:15Z</time>
      </trkpt>
      <trkpt lat="46.1061860" lon="5.7076440">
        <ele>1147.8</ele>
        <time>2022-07-25T10:05:23Z</time>
      </trkpt>
      <trkpt lat="46.1062110" lon="5.7077580">
        <ele>1147.8</ele>
        <time>2022-07-25T10:05:25Z</time>
      </trkpt>
      <trkpt lat="46.1063050" lon="5.7080980">
        <ele>1148.0</ele>
        <time>2022-07-25T10:05:31Z</time>
      </trkpt>
      <trkpt lat="46.1063400" lon="5.7082920">
        <ele>1148.2</ele>
        <time>2022-07-25T10:05:34Z</time>
      </trkpt>
      <trkpt lat="46.1063330" lon="5.7085050">
        <ele>1148.4</ele>
        <time>2022-07-25T10:05:37Z</time>
      </trkpt>
      <trkpt lat="46.1062400" lon="5.7087510">
        <ele>1148.4</ele>
        <time>2022-07-25T10:05:41Z</time>
      </trkpt>
      <trkpt lat="46.1060710" lon="5.7088740">
        <ele>1148.6</ele>
        <time>2022-07-25T10:05:45Z</time>
      </trkpt>
      <trkpt lat="46.1059770" lon="5.7088960">
        <ele>1149.0</ele>
        <time>2022-07-25T10:05:47Z</time>
      </trkpt>
      <trkpt lat="46.1057390" lon="5.7089560">
        <ele>1149.6</ele>
        <time>2022-07-25T10:05:52Z</time>
      </trkpt>
      <trkpt lat="46.1055180" lon="5.7090550">
        <ele>1149.8</ele>
        <time>2022-07-25T10:05:57Z</time>
      </trkpt>
      <trkpt lat="46.1054260" lon="5.7091020">
        <ele>1150.2</ele>
        <time>2022-07-25T10:05:59Z</time>
      </trkpt>
      <trkpt lat="46.1050730" lon="5.7092720">
        <ele>1150.2</ele>
        <time>2022-07-25T10:06:06Z</time>
      </trkpt>
      <trkpt lat="46.1047560" lon="5.7094950">
        <ele>1150.2</ele>
        <time>2022-07-25T10:06:13Z</time>
      </trkpt>
      <trkpt lat="46.1046640" lon="5.7097570">
        <ele>1150.2</ele>
        <time>2022-07-25T10:06:17Z</time>
      </trkpt>
      <trkpt lat="46.1046950" lon="5.7099820">
        <ele>1150.2</ele>
        <time>2022-07-25T10:06:20Z</time>
      </trkpt>
      <trkpt lat="46.1048520" lon="5.7102060">
        <ele>1150.2</ele>
        <time>2022-07-25T10:06:24Z</time>
      </trkpt>
      <trkpt lat="46.1049520" lon="5.7102860">
        <ele>1150.2</ele>
        <time>2022-07-25T10:06:26Z</time>
      </trkpt>
      <trkpt lat="46.1052030" lon="5.7104700">
        <ele>1150.0</ele>
        <time>2022-07-25T10:06:31Z</time>
      </trkpt>
      <trkpt lat="46.1057050" lon="5.7108280">
        <ele>1149.8</ele>
        <time>2022-07-25T10:06:41Z</time>
      </trkpt>
      <trkpt lat="46.1061950" lon="5.7112400">
        <ele>1149.2</ele>
        <time>2022-07-25T10:06:51Z</time>
      </trkpt>
      <trkpt lat="46.1062340" lon="5.7113050">
        <ele>1149.2</ele>
        <time>2022-07-25T10:06:52Z</time>
      </trkpt>
      <trkpt lat="46.1063300" lon="5.7115370">
        <ele>1149.2</ele>
        <time>2022-07-25T10:06:55Z</time>
      </trkpt>
      <trkpt lat="46.1063490" lon="5.7116170">
        <ele>1149.2</ele>
        <time>2022-07-25T10:06:56Z</time>
      </trkpt>
      <trkpt lat="46.1063820" lon="5.7117830">
        <ele>1149.0</ele>
        <time>2022-07-25T10:06:58Z</time>
      </trkpt>
      <trkpt lat="46.1063920" lon="5.7118660">
        <ele>1148.8</ele>
        <time>2022-07-25T10:06:59Z</time>
      </trkpt>
      <trkpt lat="46.1064030" lon="5.7120340">
        <ele>1148.4</ele>
        <time>2022-07-25T10:07:01Z</time>
      </trkpt>
      <trkpt lat="46.1063970" lon="5.7122880">
        <ele>1148.2</ele>
        <time>2022-07-25T10:07:04Z</time>
      </trkpt>
      <trkpt lat="46.1063910" lon="5.7123730">
        <ele>1148.2</ele>
        <time>2022-07-25T10:07:05Z</time>
      </trkpt>
      <trkpt lat="46.1063510" lon="5.7126410">
        <ele>1147.8</ele>
        <time>2022-07-25T10:07:08Z</time>
      </trkpt>
      <trkpt lat="46.1063400" lon="5.7127330">
        <ele>1147.6</ele>
        <time>2022-07-25T10:07:09Z</time>
      </trkpt>
      <trkpt lat="46.1063370" lon="5.7128290">
        <ele>1147.4</ele>
        <time>2022-07-25T10:07:10Z</time>
      </trkpt>
      <trkpt lat="46.1063720" lon="5.7130970">
        <ele>1147.2</ele>
        <time>2022-07-25T10:07:13Z</time>
      </trkpt>
      <trkpt lat="46.1064470" lon="5.7132410">
        <ele>1146.6</ele>
        <time>2022-07-25T10:07:15Z</time>
      </trkpt>
      <trkpt lat="46.1064930" lon="5.7132980">
        <ele>1146.6</ele>
        <time>2022-07-25T10:07:16Z</time>
      </trkpt>
      <trkpt lat="46.1066040" lon="5.7133960">
        <ele>1146.2</ele>
        <time>2022-07-25T10:07:18Z</time>
      </trkpt>
      <trkpt lat="46.1067870" lon="5.7135540">
        <ele>1145.6</ele>
        <time>2022-07-25T10:07:21Z</time>
      </trkpt>
      <trkpt lat="46.1069340" lon="5.7137910">
        <ele>1145.2</ele>
        <time>2022-07-25T10:07:24Z</time>
      </trkpt>
      <trkpt lat="46.1069680" lon="5.7140660">
        <ele>1145.0</ele>
        <time>2022-07-25T10:07:27Z</time>
      </trkpt>
      <trkpt lat="46.1069500" lon="5.7145830">
        <ele>1144.6</ele>
        <time>2022-07-25T10:07:33Z</time>
      </trkpt>
      <trkpt lat="46.1069500" lon="5.7146640">
        <ele>1144.6</ele>
        <time>2022-07-25T10:07:34Z</time>
      </trkpt>
      <trkpt lat="46.1069270" lon="5.7151610">
        <ele>1144.6</ele>
        <time>2022-07-25T10:07:40Z</time>
      </trkpt>
      <trkpt lat="46.1069140" lon="5.7156540">
        <ele>1144.4</ele>
        <time>2022-07-25T10:07:46Z</time>
      </trkpt>
      <trkpt lat="46.1070040" lon="5.7159670">
        <ele>1143.8</ele>
        <time>2022-07-25T10:07:50Z</time>
      </trkpt>
      <trkpt lat="46.1070380" lon="5.7160290">
        <ele>1143.6</ele>
        <time>2022-07-25T10:07:51Z</time>
      </trkpt>
      <trkpt lat="46.1071600" lon="5.7161650">
        <ele>1143.0</ele>
        <time>2022-07-25T10:07:54Z</time>
      </trkpt>
      <trkpt lat="46.1072000" lon="5.7162010">
        <ele>1143.0</ele>
        <time>2022-07-25T10:07:55Z</time>
      </trkpt>
      <trkpt lat="46.1072450" lon="5.7162280">
        <ele>1143.0</ele>
        <time>2022-07-25T10:07:56Z</time>
      </trkpt>
      <trkpt lat="46.1073930" lon="5.7162800">
        <ele>1142.6</ele>
        <time>2022-07-25T10:07:59Z</time>
      </trkpt>
      <trkpt lat="46.1075020" lon="5.7163010">
        <ele>1142.4</ele>
        <time>2022-07-25T10:08:01Z</time>
      </trkpt>
      <trkpt lat="46.1076700" lon="5.7163440">
        <ele>1142.0</ele>
        <time>2022-07-25T10:08:04Z</time>
      </trkpt>
      <trkpt lat="46.1077310" lon="5.7163620">
        <ele>1142.0</ele>
        <time>2022-07-25T10:08:05Z</time>
      </trkpt>
      <trkpt lat="46.1081070" lon="5.7165500">
        <ele>1141.8</ele>
        <time>2022-07-25T10:08:11Z</time>
      </trkpt>
      <trkpt lat="46.1084140" lon="5.7167920">
        <ele>1141.2</ele>
        <time>2022-07-25T10:08:16Z</time>
      </trkpt>
      <trkpt lat="46.1085430" lon="5.7168930">
        <ele>1141.2</ele>
        <time>2022-07-25T10:08:18Z</time>
      </trkpt>
      <trkpt lat="46.1089320" lon="5.7171510">
        <ele>1140.8</ele>
        <time>2022-07-25T10:08:24Z</time>
      </trkpt>
      <trkpt lat="46.1092490" lon="5.7172710">
        <ele>1140.2</ele>
        <time>2022-07-25T10:08:29Z</time>
      </trkpt>
      <trkpt lat="46.1095460" lon="5.7174200">
        <ele>1140.0</ele>
        <time>2022-07-25T10:08:34Z</time>
      </trkpt>
      <trkpt lat="46.1098590" lon="5.7176910">
        <ele>1139.6</ele>
        <time>2022-07-25T10:08:40Z</time>
      </trkpt>
      <trkpt lat="46.1101650" lon="5.7179420">
        <ele>1139.2</ele>
        <time>2022-07-25T10:08:46Z</time>
      </trkpt>
      <trkpt lat="46.1104910" lon="5.7181860">
        <ele>1139.4</ele>
        <time>2022-07-25T10:08:52Z</time>
      </trkpt>
      <trkpt lat="46.1108290" lon="5.7185380">
        <ele>1139.4</ele>
        <time>2022-07-25T10:08:58Z</time>
      </trkpt>
      <trkpt lat="46.1110790" lon="5.7189580">
        <ele>1139.2</ele>
        <time>2022-07-25T10:09:04Z</time>
      </trkpt>
      <trkpt lat="46.1112240" lon="5.7191840">
        <ele>1139.2</ele>
        <time>2022-07-25T10:09:08Z</time>
      </trkpt>
      <trkpt lat="46.1112740" lon="5.7192260">
        <ele>1139.2</ele>
        <time>2022-07-25T10:09:09Z</time>
      </trkpt>
      <trkpt lat="46.1114330" lon="5.7193240">
        <ele>1139.2</ele>
        <time>2022-07-25T10:09:12Z</time>
      </trkpt>
      <trkpt lat="46.1115850" lon="5.7194090">
        <ele>1139.0</ele>
        <time>2022-07-25T10:09:15Z</time>
      </trkpt>
      <trkpt lat="46.1118610" lon="5.7195730">
        <ele>1139.0</ele>
        <time>2022-07-25T10:09:21Z</time>
      </trkpt>
      <trkpt lat="46.1122050" lon="5.7197470">
        <ele>1139.2</ele>
        <time>2022-07-25T10:09:27Z</time>
      </trkpt>
      <trkpt lat="46.1122740" lon="5.7197990">
        <ele>1139.2</ele>
        <time>2022-07-25T10:09:28Z</time>
      </trkpt>
      <trkpt lat="46.1124560" lon="5.7200040">
        <ele>1139.4</ele>
        <time>2022-07-25T10:09:31Z</time>
      </trkpt>
      <trkpt lat="46.1125740" lon="5.7202530">
        <ele>1139.4</ele>
        <time>2022-07-25T10:09:34Z</time>
      </trkpt>
      <trkpt lat="46.1126530" lon="5.7204180">
        <ele>1139.4</ele>
        <time>2022-07-25T10:09:36Z</time>
      </trkpt>
      <trkpt lat="46.1128950" lon="5.7208520">
        <ele>1139.4</ele>
        <time>2022-07-25T10:09:42Z</time>
      </trkpt>
      <trkpt lat="46.1130710" lon="5.7213080">
        <ele>1139.6</ele>
        <time>2022-07-25T10:09:48Z</time>
      </trkpt>
      <trkpt lat="46.1132590" lon="5.7217260">
        <ele>1139.8</ele>
        <time>2022-07-25T10:09:54Z</time>
      </trkpt>
      <trkpt lat="46.1134960" lon="5.7220200">
        <ele>1139.8</ele>
        <time>2022-07-25T10:10:00Z</time>
      </trkpt>
      <trkpt lat="46.1138330" lon="5.7223880">
        <ele>1139.8</ele>
        <time>2022-07-25T10:10:07Z</time>
      </trkpt>
      <trkpt lat="46.1139550" lon="5.7225960">
        <ele>1139.8</ele>
        <time>2022-07-25T10:10:10Z</time>
      </trkpt>
      <trkpt lat="46.1140250" lon="5.7227410">
        <ele>1139.8</ele>
        <time>2022-07-25T10:10:12Z</time>
      </trkpt>
      <trkpt lat="46.1142670" lon="5.7231490">
        <ele>1139.8</ele>
        <time>2022-07-25T10:10:18Z</time>
      </trkpt>
      <trkpt lat="46.1143500" lon="5.7232680">
        <ele>1139.8</ele>
        <time>2022-07-25T10:10:20Z</time>
      </trkpt>
      <trkpt lat="46.1145440" lon="5.7235690">
        <ele>1139.8</ele>
        <time>2022-07-25T10:10:25Z</time>
      </trkpt>
      <trkpt lat="46.1145860" lon="5.7236310">
        <ele>1139.8</ele>
        <time>2022-07-25T10:10:26Z</time>
      </trkpt>
      <trkpt lat="46.1148290" lon="5.7240000">
        <ele>1139.8</ele>
        <time>2022-07-25T10:10:32Z</time>
      </trkpt>
      <trkpt lat="46.1148680" lon="5.7240660">
        <ele>1139.8</ele>
        <time>2022-07-25T10:10:33Z</time>
      </trkpt>
      <trkpt lat="46.1148970" lon="5.7241410">
        <ele>1139.8</ele>
        <time>2022-07-25T10:10:34Z</time>
      </trkpt>
      <trkpt lat="46.1149480" lon="5.7243810">
        <ele>1139.8</ele>
        <time>2022-07-25T10:10:37Z</time>
      </trkpt>
      <trkpt lat="46.1149560" lon="5.7245430">
        <ele>1139.8</ele>
        <time>2022-07-25T10:10:39Z</time>
      </trkpt>
      <trkpt lat="46.1149560" lon="5.7247130">
        <ele>1139.8</ele>
        <time>2022-07-25T10:10:41Z</time>
      </trkpt>
      <trkpt lat="46.1149580" lon="5.7247990">
        <ele>1140.0</ele>
        <time>2022-07-25T10:10:42Z</time>
      </trkpt>
      <trkpt lat="46.1149640" lon="5.7248830">
        <ele>1140.2</ele>
        <time>2022-07-25T10:10:43Z</time>
      </trkpt>
      <trkpt lat="46.1150360" lon="5.7252040">
        <ele>1140.4</ele>
        <time>2022-07-25T10:10:47Z</time>
      </trkpt>
      <trkpt lat="46.1151110" lon="5.7255120">
        <ele>1140.4</ele>
        <time>2022-07-25T10:10:51Z</time>
      </trkpt>
      <trkpt lat="46.1151140" lon="5.7256810">
        <ele>1140.4</ele>
        <time>2022-07-25T10:10:53Z</time>
      </trkpt>
      <trkpt lat="46.1150520" lon="5.7259970">
        <ele>1140.2</ele>
        <time>2022-07-25T10:10:57Z</time>
      </trkpt>
      <trkpt lat="46.1150300" lon="5.7260690">
        <ele>1140.0</ele>
        <time>2022-07-25T10:10:58Z</time>
      </trkpt>
      <trkpt lat="46.1148050" lon="5.7266270">
        <ele>1139.8</ele>
        <time>2022-07-25T10:11:06Z</time>
      </trkpt>
      <trkpt lat="46.1145090" lon="5.7271090">
        <ele>1139.8</ele>
        <time>2022-07-25T10:11:14Z</time>
      </trkpt>
      <trkpt lat="46.1141340" lon="5.7275810">
        <ele>1139.8</ele>
        <time>2022-07-25T10:11:23Z</time>
      </trkpt>
      <trkpt lat="46.1138500" lon="5.7279360">
        <ele>1140.0</ele>
        <time>2022-07-25T10:11:31Z</time>
      </trkpt>
      <trkpt lat="46.1137100" lon="5.7281320">
        <ele>1140.0</ele>
        <time>2022-07-25T10:11:38Z</time>
      </trkpt>
      <trkpt lat="46.1137040" lon="5.7282590">
        <ele>1140.2</ele>
        <time>2022-07-25T10:11:43Z</time>
      </trkpt>
      <trkpt lat="46.1137320" lon="5.7283160">
        <ele>1140.2</ele>
        <time>2022-07-25T10:11:48Z</time>
      </trkpt>
      <trkpt lat="46.1137570" lon="5.7282430">
        <ele>1141.8</ele>
        <time>2022-07-25T10:31:46Z</time>
      </trkpt>
      <trkpt lat="46.1137160" lon="5.7282150">
        <ele>1141.8</ele>
        <time>2022-07-25T10:31:48Z</time>
      </trkpt>
      <trkpt lat="46.1136470" lon="5.7282580">
        <ele>1141.8</ele>
        <time>2022-07-25T10:31:52Z</time>
      </trkpt>
      <trkpt lat="46.1136320" lon="5.7282730">
        <ele>1141.8</ele>
        <time>2022-07-25T10:31:53Z</time>
      </trkpt>
      <trkpt lat="46.1135310" lon="5.7284200">
        <ele>1141.8</ele>
        <time>2022-07-25T10:32:00Z</time>
      </trkpt>
      <trkpt lat="46.1134650" lon="5.7285120">
        <ele>1142.0</ele>
        <time>2022-07-25T10:32:04Z</time>
      </trkpt>
      <trkpt lat="46.1134330" lon="5.7285640">
        <ele>1142.0</ele>
        <time>2022-07-25T10:32:06Z</time>
      </trkpt>
      <trkpt lat="46.1132840" lon="5.7287910">
        <ele>1142.2</ele>
        <time>2022-07-25T10:32:14Z</time>
      </trkpt>
      <trkpt lat="46.1131170" lon="5.7290360">
        <ele>1142.4</ele>
        <time>2022-07-25T10:32:22Z</time>
      </trkpt>
      <trkpt lat="46.1129370" lon="5.7293220">
        <ele>1142.8</ele>
        <time>2022-07-25T10:32:31Z</time>
      </trkpt>
      <trkpt lat="46.1128910" lon="5.7293890">
        <ele>1143.0</ele>
        <time>2022-07-25T10:32:33Z</time>
      </trkpt>
      <trkpt lat="46.1126830" lon="5.7297100">
        <ele>1143.6</ele>
        <time>2022-07-25T10:32:42Z</time>
      </trkpt>
      <trkpt lat="46.1124400" lon="5.7300720">
        <ele>1144.2</ele>
        <time>2022-07-25T10:32:53Z</time>
      </trkpt>
      <trkpt lat="46.1124170" lon="5.7301050">
        <ele>1144.2</ele>
        <time>2022-07-25T10:32:54Z</time>
      </trkpt>
      <trkpt lat="46.1122540" lon="5.7303990">
        <ele>1144.8</ele>
        <time>2022-07-25T10:33:02Z</time>
      </trkpt>
      <trkpt lat="46.1121500" lon="5.7307160">
        <ele>1145.2</ele>
        <time>2022-07-25T10:33:09Z</time>
      </trkpt>
      <trkpt lat="46.1121390" lon="5.7307640">
        <ele>1145.2</ele>
        <time>2022-07-25T10:33:10Z</time>
      </trkpt>
      <trkpt lat="46.1120540" lon="5.7311110">
        <ele>1145.2</ele>
        <time>2022-07-25T10:33:16Z</time>
      </trkpt>
      <trkpt lat="46.1119470" lon="5.7316110">
        <ele>1145.2</ele>
        <time>2022-07-25T10:33:22Z</time>
      </trkpt>
      <trkpt lat="46.1118190" lon="5.7322100">
        <ele>1144.0</ele>
        <time>2022-07-25T10:33:28Z</time>
      </trkpt>
      <trkpt lat="46.1117960" lon="5.7323230">
        <ele>1143.8</ele>
        <time>2022-07-25T10:33:29Z</time>
      </trkpt>
      <trkpt lat="46.1116670" lon="5.7329020">
        <ele>1142.6</ele>
        <time>2022-07-25T10:33:34Z</time>
      </trkpt>
      <trkpt lat="46.1115640" lon="5.7333660">
        <ele>1141.6</ele>
        <time>2022-07-25T10:33:38Z</time>
      </trkpt>
      <trkpt lat="46.1114630" lon="5.7337880">
        <ele>1140.4</ele>
        <time>2022-07-25T10:33:42Z</time>
      </trkpt>
      <trkpt lat="46.1113830" lon="5.7341780">
        <ele>1139.2</ele>
        <time>2022-07-25T10:33:46Z</time>
      </trkpt>
      <trkpt lat="46.1113350" lon="5.7345460">
        <ele>1138.8</ele>
        <time>2022-07-25T10:33:50Z</time>
      </trkpt>
      <trkpt lat="46.1113290" lon="5.7347130">
        <ele>1138.6</ele>
        <time>2022-07-25T10:33:52Z</time>
      </trkpt>
      <trkpt lat="46.1113030" lon="5.7350400">
        <ele>1138.4</ele>
        <time>2022-07-25T10:33:56Z</time>
      </trkpt>
      <trkpt lat="46.1112640" lon="5.7352790">
        <ele>1137.8</ele>
        <time>2022-07-25T10:33:59Z</time>
      </trkpt>
      <trkpt lat="46.1111640" lon="5.7354630">
        <ele>1137.2</ele>
        <time>2022-07-25T10:34:02Z</time>
      </trkpt>
      <trkpt lat="46.1109630" lon="5.7355670">
        <ele>1136.6</ele>
        <time>2022-07-25T10:34:06Z</time>
      </trkpt>
      <trkpt lat="46.1108560" lon="5.7355600">
        <ele>1136.2</ele>
        <time>2022-07-25T10:34:08Z</time>
      </trkpt>
      <trkpt lat="46.1106850" lon="5.7355380">
        <ele>1135.4</ele>
        <time>2022-07-25T10:34:11Z</time>
      </trkpt>
      <trkpt lat="46.1105030" lon="5.7355060">
        <ele>1135.2</ele>
        <time>2022-07-25T10:34:14Z</time>
      </trkpt>
      <trkpt lat="46.1104430" lon="5.7355050">
        <ele>1135.0</ele>
        <time>2022-07-25T10:34:15Z</time>
      </trkpt>
      <trkpt lat="46.1103860" lon="5.7355060">
        <ele>1135.0</ele>
        <time>2022-07-25T10:34:16Z</time>
      </trkpt>
      <trkpt lat="46.1101360" lon="5.7354820">
        <ele>1135.0</ele>
        <time>2022-07-25T10:34:21Z</time>
      </trkpt>
      <trkpt lat="46.1098550" lon="5.7354380">
        <ele>1134.8</ele>
        <time>2022-07-25T10:34:28Z</time>
      </trkpt>
      <trkpt lat="46.1097730" lon="5.7354040">
        <ele>1135.0</ele>
        <time>2022-07-25T10:34:30Z</time>
      </trkpt>
      <trkpt lat="46.1096730" lon="5.7353320">
        <ele>1135.2</ele>
        <time>2022-07-25T10:34:33Z</time>
      </trkpt>
      <trkpt lat="46.1094750" lon="5.7351940">
        <ele>1135.8</ele>
        <time>2022-07-25T10:34:39Z</time>
      </trkpt>
      <trkpt lat="46.1093400" lon="5.7351360">
        <ele>1136.0</ele>
        <time>2022-07-25T10:34:43Z</time>
      </trkpt>
      <trkpt lat="46.1093100" lon="5.7351240">
        <ele>1136.0</ele>
        <time>2022-07-25T10:34:44Z</time>
      </trkpt>
      <trkpt lat="46.1091210" lon="5.7350500">
        <ele>1136.4</ele>
        <time>2022-07-25T10:34:50Z</time>
      </trkpt>
      <trkpt lat="46.1090600" lon="5.7350310">
        <ele>1136.6</ele>
        <time>2022-07-25T10:34:52Z</time>
      </trkpt>
      <trkpt lat="46.1089440" lon="5.7349660">
        <ele>1136.6</ele>
        <time>2022-07-25T10:34:56Z</time>
      </trkpt>
      <trkpt lat="46.1087940" lon="5.7349070">
        <ele>1136.8</ele>
        <time>2022-07-25T10:35:02Z</time>
      </trkpt>
      <trkpt lat="46.1087210" lon="5.7348680">
        <ele>1137.0</ele>
        <time>2022-07-25T10:35:05Z</time>
      </trkpt>
      <trkpt lat="46.1086420" lon="5.7348230">
        <ele>1137.2</ele>
        <time>2022-07-25T10:35:08Z</time>
      </trkpt>
      <trkpt lat="46.1084690" lon="5.7347500">
        <ele>1137.8</ele>
        <time>2022-07-25T10:35:14Z</time>
      </trkpt>
      <trkpt lat="46.1084080" lon="5.7347290">
        <ele>1138.0</ele>
        <time>2022-07-25T10:35:17Z</time>
      </trkpt>
      <trkpt lat="46.1083110" lon="5.7346950">
        <ele>1138.6</ele>
        <time>2022-07-25T10:35:21Z</time>
      </trkpt>
      <trkpt lat="46.1082330" lon="5.7346660">
        <ele>1139.0</ele>
        <time>2022-07-25T10:35:24Z</time>
      </trkpt>
      <trkpt lat="46.1081270" lon="5.7346370">
        <ele>1139.4</ele>
        <time>2022-07-25T10:35:29Z</time>
      </trkpt>
      <trkpt lat="46.1080250" lon="5.7346270">
        <ele>1140.0</ele>
        <time>2022-07-25T10:35:36Z</time>
      </trkpt>
      <trkpt lat="46.1080150" lon="5.7346230">
        <ele>1140.2</ele>
        <time>2022-07-25T10:35:37Z</time>
      </trkpt>
      <trkpt lat="46.1079670" lon="5.7346060">
        <ele>1140.6</ele>
        <time>2022-07-25T10:35:42Z</time>
      </trkpt>
      <trkpt lat="46.1079150" lon="5.7345890">
        <ele>1141.0</ele>
        <time>2022-07-25T10:35:47Z</time>
      </trkpt>
      <trkpt lat="46.1078700" lon="5.7345680">
        <ele>1141.6</ele>
        <time>2022-07-25T10:35:50Z</time>
      </trkpt>
      <trkpt lat="46.1078290" lon="5.7345610">
        <ele>1142.2</ele>
        <time>2022-07-25T10:35:53Z</time>
      </trkpt>
      <trkpt lat="46.1078180" lon="5.7345540">
        <ele>1142.2</ele>
        <time>2022-07-25T10:35:54Z</time>
      </trkpt>
      <trkpt lat="46.1077970" lon="5.7345390">
        <ele>1142.6</ele>
        <time>2022-07-25T10:35:56Z</time>
      </trkpt>
      <trkpt lat="46.1077370" lon="5.7345190">
        <ele>1143.4</ele>
        <time>2022-07-25T10:36:00Z</time>
      </trkpt>
      <trkpt lat="46.1076740" lon="5.7345070">
        <ele>1143.8</ele>
        <time>2022-07-25T10:36:03Z</time>
      </trkpt>
      <trkpt lat="46.1075940" lon="5.7345060">
        <ele>1144.4</ele>
        <time>2022-07-25T10:36:07Z</time>
      </trkpt>
      <trkpt lat="46.1075190" lon="5.7345410">
        <ele>1144.8</ele>
        <time>2022-07-25T10:36:11Z</time>
      </trkpt>
      <trkpt lat="46.1074850" lon="5.7345740">
        <ele>1145.2</ele>
        <time>2022-07-25T10:36:13Z</time>
      </trkpt>
      <trkpt lat="46.1074660" lon="5.7346300">
        <ele>1145.6</ele>
        <time>2022-07-25T10:36:15Z</time>
      </trkpt>
      <trkpt lat="46.1074540" lon="5.7346550">
        <ele>1145.6</ele>
        <time>2022-07-25T10:36:16Z</time>
      </trkpt>
      <trkpt lat="46.1074370" lon="5.7347140">
        <ele>1146.0</ele>
        <time>2022-07-25T10:36:18Z</time>
      </trkpt>
      <trkpt lat="46.1074070" lon="5.7348580">
        <ele>1146.4</ele>
        <time>2022-07-25T10:36:22Z</time>
      </trkpt>
      <trkpt lat="46.1073660" lon="5.7351130">
        <ele>1146.6</ele>
        <time>2022-07-25T10:36:29Z</time>
      </trkpt>
      <trkpt lat="46.1073520" lon="5.7353390">
        <ele>1146.8</ele>
        <time>2022-07-25T10:36:35Z</time>
      </trkpt>
      <trkpt lat="46.1073880" lon="5.7354770">
        <ele>1146.8</ele>
        <time>2022-07-25T10:36:41Z</time>
      </trkpt>
      <trkpt lat="46.1074410" lon="5.7355420">
        <ele>1147.2</ele>
        <time>2022-07-25T10:36:48Z</time>
      </trkpt>
      <trkpt lat="46.1074610" lon="5.7355640">
        <ele>1147.6</ele>
        <time>2022-07-25T10:36:50Z</time>
      </trkpt>
      <trkpt lat="46.1075280" lon="5.7356460">
        <ele>1148.6</ele>
        <time>2022-07-25T10:36:56Z</time>
      </trkpt>
      <trkpt lat="46.1075370" lon="5.7356560">
        <ele>1148.8</ele>
        <time>2022-07-25T10:36:57Z</time>
      </trkpt>
      <trkpt lat="46.1076150" lon="5.7357300">
        <ele>1149.8</ele>
        <time>2022-07-25T10:37:03Z</time>
      </trkpt>
      <trkpt lat="46.1077240" lon="5.7358380">
        <ele>1150.8</ele>
        <time>2022-07-25T10:37:10Z</time>
      </trkpt>
      <trkpt lat="46.1077310" lon="5.7358600">
        <ele>1151.0</ele>
        <time>2022-07-25T10:37:11Z</time>
      </trkpt>
      <trkpt lat="46.1077500" lon="5.7359130">
        <ele>1151.4</ele>
        <time>2022-07-25T10:37:14Z</time>
      </trkpt>
      <trkpt lat="46.1077660" lon="5.7359600">
        <ele>1151.8</ele>
        <time>2022-07-25T10:37:17Z</time>
      </trkpt>
      <trkpt lat="46.1077690" lon="5.7360070">
        <ele>1152.2</ele>
        <time>2022-07-25T10:37:20Z</time>
      </trkpt>
      <trkpt lat="46.1077750" lon="5.7360750">
        <ele>1152.8</ele>
        <time>2022-07-25T10:37:24Z</time>
      </trkpt>
      <trkpt lat="46.1077740" lon="5.7361580">
        <ele>1153.8</ele>
        <time>2022-07-25T10:37:28Z</time>
      </trkpt>
      <trkpt lat="46.1077740" lon="5.7361810">
        <ele>1154.0</ele>
        <time>2022-07-25T10:37:29Z</time>
      </trkpt>
      <trkpt lat="46.1078280" lon="5.7363590">
        <ele>1154.6</ele>
        <time>2022-07-25T10:37:35Z</time>
      </trkpt>
      <trkpt lat="46.1078660" lon="5.7364250">
        <ele>1154.8</ele>
        <time>2022-07-25T10:37:38Z</time>
      </trkpt>
      <trkpt lat="46.1079300" lon="5.7365230">
        <ele>1155.2</ele>
        <time>2022-07-25T10:37:43Z</time>
      </trkpt>
      <trkpt lat="46.1080420" lon="5.7365820">
        <ele>1155.8</ele>
        <time>2022-07-25T10:37:50Z</time>
      </trkpt>
      <trkpt lat="46.1080540" lon="5.7365900">
        <ele>1156.0</ele>
        <time>2022-07-25T10:37:51Z</time>
      </trkpt>
      <trkpt lat="46.1081300" lon="5.7366900">
        <ele>1156.6</ele>
        <time>2022-07-25T10:37:56Z</time>
      </trkpt>
      <trkpt lat="46.1081640" lon="5.7367380">
        <ele>1157.0</ele>
        <time>2022-07-25T10:37:59Z</time>
      </trkpt>
      <trkpt lat="46.1082090" lon="5.7368090">
        <ele>1157.4</ele>
        <time>2022-07-25T10:38:03Z</time>
      </trkpt>
      <trkpt lat="46.1082780" lon="5.7369210">
        <ele>1158.0</ele>
        <time>2022-07-25T10:38:10Z</time>
      </trkpt>
      <trkpt lat="46.1082830" lon="5.7369330">
        <ele>1158.2</ele>
        <time>2022-07-25T10:38:11Z</time>
      </trkpt>
      <trkpt lat="46.1083790" lon="5.7370240">
        <ele>1159.2</ele>
        <time>2022-07-25T10:38:19Z</time>
      </trkpt>
      <trkpt lat="46.1083860" lon="5.7370380">
        <ele>1159.2</ele>
        <time>2022-07-25T10:38:20Z</time>
      </trkpt>
      <trkpt lat="46.1084870" lon="5.7371560">
        <ele>1159.8</ele>
        <time>2022-07-25T10:38:26Z</time>
      </trkpt>
      <trkpt lat="46.1085330" lon="5.7371980">
        <ele>1160.4</ele>
        <time>2022-07-25T10:38:28Z</time>
      </trkpt>
      <trkpt lat="46.1085960" lon="5.7372750">
        <ele>1161.0</ele>
        <time>2022-07-25T10:38:32Z</time>
      </trkpt>
      <trkpt lat="46.1086210" lon="5.7373110">
        <ele>1161.4</ele>
        <time>2022-07-25T10:38:34Z</time>
      </trkpt>
      <trkpt lat="46.1086330" lon="5.7373320">
        <ele>1161.6</ele>
        <time>2022-07-25T10:38:35Z</time>
      </trkpt>
      <trkpt lat="46.1086490" lon="5.7374100">
        <ele>1162.2</ele>
        <time>2022-07-25T10:38:39Z</time>
      </trkpt>
      <trkpt lat="46.1086470" lon="5.7374290">
        <ele>1162.4</ele>
        <time>2022-07-25T10:38:40Z</time>
      </trkpt>
      <trkpt lat="46.1086410" lon="5.7374430">
        <ele>1162.6</ele>
        <time>2022-07-25T10:38:41Z</time>
      </trkpt>
      <trkpt lat="46.1086090" lon="5.7374980">
        <ele>1163.4</ele>
        <time>2022-07-25T10:38:45Z</time>
      </trkpt>
      <trkpt lat="46.1086000" lon="5.7375100">
        <ele>1163.6</ele>
        <time>2022-07-25T10:38:46Z</time>
      </trkpt>
      <trkpt lat="46.1085520" lon="5.7375670">
        <ele>1164.8</ele>
        <time>2022-07-25T10:38:52Z</time>
      </trkpt>
      <trkpt lat="46.1085370" lon="5.7375780">
        <ele>1164.8</ele>
        <time>2022-07-25T10:38:53Z</time>
      </trkpt>
      <trkpt lat="46.1084860" lon="5.7376070">
        <ele>1166.0</ele>
        <time>2022-07-25T10:38:57Z</time>
      </trkpt>
      <trkpt lat="46.1084740" lon="5.7376160">
        <ele>1166.2</ele>
        <time>2022-07-25T10:38:58Z</time>
      </trkpt>
      <trkpt lat="46.1083850" lon="5.7376570">
        <ele>1167.0</ele>
        <time>2022-07-25T10:39:04Z</time>
      </trkpt>
      <trkpt lat="46.1083720" lon="5.7376630">
        <ele>1167.0</ele>
        <time>2022-07-25T10:39:05Z</time>
      </trkpt>
      <trkpt lat="46.1083020" lon="5.7376580">
        <ele>1167.8</ele>
        <time>2022-07-25T10:39:10Z</time>
      </trkpt>
      <trkpt lat="46.1082850" lon="5.7376580">
        <ele>1168.0</ele>
        <time>2022-07-25T10:39:11Z</time>
      </trkpt>
      <trkpt lat="46.1082130" lon="5.7376560">
        <ele>1168.6</ele>
        <time>2022-07-25T10:39:16Z</time>
      </trkpt>
      <trkpt lat="46.1081250" lon="5.7376830">
        <ele>1169.0</ele>
        <time>2022-07-25T10:39:21Z</time>
      </trkpt>
      <trkpt lat="46.1080810" lon="5.7377030">
        <ele>1169.2</ele>
        <time>2022-07-25T10:39:23Z</time>
      </trkpt>
      <trkpt lat="46.1079130" lon="5.7378110">
        <ele>1170.0</ele>
        <time>2022-07-25T10:39:29Z</time>
      </trkpt>
      <trkpt lat="46.1078850" lon="5.7378320">
        <ele>1170.0</ele>
        <time>2022-07-25T10:39:30Z</time>
      </trkpt>
      <trkpt lat="46.1077630" lon="5.7379550">
        <ele>1170.4</ele>
        <time>2022-07-25T10:39:35Z</time>
      </trkpt>
      <trkpt lat="46.1076000" lon="5.7380970">
        <ele>1170.6</ele>
        <time>2022-07-25T10:39:40Z</time>
      </trkpt>
      <trkpt lat="46.1075020" lon="5.7381700">
        <ele>1170.6</ele>
        <time>2022-07-25T10:39:42Z</time>
      </trkpt>
      <trkpt lat="46.1073770" lon="5.7382440">
        <ele>1170.6</ele>
        <time>2022-07-25T10:39:44Z</time>
      </trkpt>
      <trkpt lat="46.1071060" lon="5.7383600">
        <ele>1170.2</ele>
        <time>2022-07-25T10:39:48Z</time>
      </trkpt>
      <trkpt lat="46.1069670" lon="5.7384070">
        <ele>1168.8</ele>
        <time>2022-07-25T10:39:51Z</time>
      </trkpt>
      <trkpt lat="46.1069310" lon="5.7384260">
        <ele>1168.4</ele>
        <time>2022-07-25T10:39:52Z</time>
      </trkpt>
      <trkpt lat="46.1067220" lon="5.7385600">
        <ele>1168.2</ele>
        <time>2022-07-25T10:39:59Z</time>
      </trkpt>
      <trkpt lat="46.1064930" lon="5.7386600">
        <ele>1168.6</ele>
        <time>2022-07-25T10:40:06Z</time>
      </trkpt>
      <trkpt lat="46.1063880" lon="5.7386920">
        <ele>1168.8</ele>
        <time>2022-07-25T10:40:12Z</time>
      </trkpt>
      <trkpt lat="46.1063220" lon="5.7387070">
        <ele>1169.2</ele>
        <time>2022-07-25T10:40:16Z</time>
      </trkpt>
      <trkpt lat="46.1062800" lon="5.7387140">
        <ele>1169.8</ele>
        <time>2022-07-25T10:40:19Z</time>
      </trkpt>
      <trkpt lat="46.1062200" lon="5.7387310">
        <ele>1171.0</ele>
        <time>2022-07-25T10:40:23Z</time>
      </trkpt>
      <trkpt lat="46.1061790" lon="5.7387320">
        <ele>1171.8</ele>
        <time>2022-07-25T10:40:26Z</time>
      </trkpt>
      <trkpt lat="46.1061570" lon="5.7387360">
        <ele>1172.0</ele>
        <time>2022-07-25T10:40:28Z</time>
      </trkpt>
      <trkpt lat="46.1060780" lon="5.7387320">
        <ele>1173.0</ele>
        <time>2022-07-25T10:40:33Z</time>
      </trkpt>
      <trkpt lat="46.1060620" lon="5.7387350">
        <ele>1173.2</ele>
        <time>2022-07-25T10:40:34Z</time>
      </trkpt>
      <trkpt lat="46.1059910" lon="5.7387510">
        <ele>1173.8</ele>
        <time>2022-07-25T10:40:40Z</time>
      </trkpt>
      <trkpt lat="46.1059340" lon="5.7387720">
        <ele>1174.2</ele>
        <time>2022-07-25T10:40:44Z</time>
      </trkpt>
      <trkpt lat="46.1058120" lon="5.7387910">
        <ele>1175.4</ele>
        <time>2022-07-25T10:40:53Z</time>
      </trkpt>
      <trkpt lat="46.1057320" lon="5.7388260">
        <ele>1176.6</ele>
        <time>2022-07-25T10:40:59Z</time>
      </trkpt>
      <trkpt lat="46.1056940" lon="5.7388430">
        <ele>1177.0</ele>
        <time>2022-07-25T10:41:02Z</time>
      </trkpt>
      <trkpt lat="46.1056800" lon="5.7388500">
        <ele>1177.0</ele>
        <time>2022-07-25T10:41:03Z</time>
      </trkpt>
      <trkpt lat="46.1056530" lon="5.7388600">
        <ele>1177.4</ele>
        <time>2022-07-25T10:41:05Z</time>
      </trkpt>
      <trkpt lat="46.1056270" lon="5.7388720">
        <ele>1177.6</ele>
        <time>2022-07-25T10:41:07Z</time>
      </trkpt>
      <trkpt lat="46.1055960" lon="5.7388990">
        <ele>1178.2</ele>
        <time>2022-07-25T10:41:10Z</time>
      </trkpt>
      <trkpt lat="46.1055590" lon="5.7389270">
        <ele>1178.6</ele>
        <time>2022-07-25T10:41:13Z</time>
      </trkpt>
      <trkpt lat="46.1055240" lon="5.7389710">
        <ele>1179.0</ele>
        <time>2022-07-25T10:41:16Z</time>
      </trkpt>
      <trkpt lat="46.1054470" lon="5.7390720">
        <ele>1179.8</ele>
        <time>2022-07-25T10:41:22Z</time>
      </trkpt>
      <trkpt lat="46.1054300" lon="5.7390850">
        <ele>1179.8</ele>
        <time>2022-07-25T10:41:23Z</time>
      </trkpt>
      <trkpt lat="46.1052990" lon="5.7392360">
        <ele>1180.4</ele>
        <time>2022-07-25T10:41:31Z</time>
      </trkpt>
      <trkpt lat="46.1052550" lon="5.7392640">
        <ele>1180.8</ele>
        <time>2022-07-25T10:41:33Z</time>
      </trkpt>
      <trkpt lat="46.1051570" lon="5.7393300">
        <ele>1180.8</ele>
        <time>2022-07-25T10:41:37Z</time>
      </trkpt>
      <trkpt lat="46.1050150" lon="5.7393300">
        <ele>1180.8</ele>
        <time>2022-07-25T10:41:42Z</time>
      </trkpt>
      <trkpt lat="46.1048210" lon="5.7392880">
        <ele>1180.6</ele>
        <time>2022-07-25T10:41:48Z</time>
      </trkpt>
      <trkpt lat="46.1045880" lon="5.7392180">
        <ele>1180.6</ele>
        <time>2022-07-25T10:41:55Z</time>
      </trkpt>
      <trkpt lat="46.1044260" lon="5.7391700">
        <ele>1180.6</ele>
        <time>2022-07-25T10:42:00Z</time>
      </trkpt>
      <trkpt lat="46.1042630" lon="5.7390990">
        <ele>1180.8</ele>
        <time>2022-07-25T10:42:05Z</time>
      </trkpt>
      <trkpt lat="46.1040480" lon="5.7390040">
        <ele>1181.0</ele>
        <time>2022-07-25T10:42:12Z</time>
      </trkpt>
      <trkpt lat="46.1038770" lon="5.7389120">
        <ele>1181.4</ele>
        <time>2022-07-25T10:42:18Z</time>
      </trkpt>
      <trkpt lat="46.1037990" lon="5.7388670">
        <ele>1181.8</ele>
        <time>2022-07-25T10:42:21Z</time>
      </trkpt>
      <trkpt lat="46.1037320" lon="5.7388220">
        <ele>1182.0</ele>
        <time>2022-07-25T10:42:23Z</time>
      </trkpt>
      <trkpt lat="46.1036160" lon="5.7387520">
        <ele>1182.6</ele>
        <time>2022-07-25T10:42:28Z</time>
      </trkpt>
      <trkpt lat="46.1035690" lon="5.7387220">
        <ele>1182.8</ele>
        <time>2022-07-25T10:42:30Z</time>
      </trkpt>
      <trkpt lat="46.1034760" lon="5.7386680">
        <ele>1183.4</ele>
        <time>2022-07-25T10:42:34Z</time>
      </trkpt>
      <trkpt lat="46.1033310" lon="5.7386080">
        <ele>1184.0</ele>
        <time>2022-07-25T10:42:39Z</time>
      </trkpt>
      <trkpt lat="46.1032960" lon="5.7385890">
        <ele>1184.2</ele>
        <time>2022-07-25T10:42:40Z</time>
      </trkpt>
      <trkpt lat="46.1031010" lon="5.7385140">
        <ele>1185.0</ele>
        <time>2022-07-25T10:42:47Z</time>
      </trkpt>
      <trkpt lat="46.1030810" lon="5.7385090">
        <ele>1185.2</ele>
        <time>2022-07-25T10:42:48Z</time>
      </trkpt>
      <trkpt lat="46.1030010" lon="5.7384690">
        <ele>1185.6</ele>
        <time>2022-07-25T10:42:53Z</time>
      </trkpt>
      <trkpt lat="46.1029110" lon="5.7384340">
        <ele>1186.2</ele>
        <time>2022-07-25T10:42:58Z</time>
      </trkpt>
      <trkpt lat="46.1028920" lon="5.7384270">
        <ele>1186.2</ele>
        <time>2022-07-25T10:42:59Z</time>
      </trkpt>
      <trkpt lat="46.1028350" lon="5.7384010">
        <ele>1186.6</ele>
        <time>2022-07-25T10:43:02Z</time>
      </trkpt>
      <trkpt lat="46.1028010" lon="5.7383810">
        <ele>1186.8</ele>
        <time>2022-07-25T10:43:04Z</time>
      </trkpt>
      <trkpt lat="46.1027540" lon="5.7383590">
        <ele>1187.2</ele>
        <time>2022-07-25T10:43:07Z</time>
      </trkpt>
      <trkpt lat="46.1026790" lon="5.7383310">
        <ele>1187.8</ele>
        <time>2022-07-25T10:43:11Z</time>
      </trkpt>
      <trkpt lat="46.1025770" lon="5.7383030">
        <ele>1188.4</ele>
        <time>2022-07-25T10:43:16Z</time>
      </trkpt>
      <trkpt lat="46.1024990" lon="5.7382870">
        <ele>1189.4</ele>
        <time>2022-07-25T10:43:21Z</time>
      </trkpt>
      <trkpt lat="46.1024820" lon="5.7382840">
        <ele>1189.6</ele>
        <time>2022-07-25T10:43:22Z</time>
      </trkpt>
      <trkpt lat="46.1023820" lon="5.7382410">
        <ele>1190.4</ele>
        <time>2022-07-25T10:43:27Z</time>
      </trkpt>
      <trkpt lat="46.1023370" lon="5.7382170">
        <ele>1190.8</ele>
        <time>2022-07-25T10:43:29Z</time>
      </trkpt>
      <trkpt lat="46.1022390" lon="5.7381880">
        <ele>1191.6</ele>
        <time>2022-07-25T10:43:33Z</time>
      </trkpt>
      <trkpt lat="46.1021750" lon="5.7381850">
        <ele>1191.8</ele>
        <time>2022-07-25T10:43:35Z</time>
      </trkpt>
      <trkpt lat="46.1019880" lon="5.7381360">
        <ele>1192.4</ele>
        <time>2022-07-25T10:43:41Z</time>
      </trkpt>
      <trkpt lat="46.1019350" lon="5.7381120">
        <ele>1192.6</ele>
        <time>2022-07-25T10:43:43Z</time>
      </trkpt>
      <trkpt lat="46.1018160" lon="5.7380400">
        <ele>1192.8</ele>
        <time>2022-07-25T10:43:47Z</time>
      </trkpt>
      <trkpt lat="46.1016660" lon="5.7378750">
        <ele>1193.4</ele>
        <time>2022-07-25T10:43:53Z</time>
      </trkpt>
      <trkpt lat="46.1016250" lon="5.7378240">
        <ele>1193.6</ele>
        <time>2022-07-25T10:43:55Z</time>
      </trkpt>
      <trkpt lat="46.1014910" lon="5.7377210">
        <ele>1193.6</ele>
        <time>2022-07-25T10:44:00Z</time>
      </trkpt>
      <trkpt lat="46.1013330" lon="5.7376290">
        <ele>1194.0</ele>
        <time>2022-07-25T10:44:05Z</time>
      </trkpt>
      <trkpt lat="46.1011620" lon="5.7375390">
        <ele>1194.2</ele>
        <time>2022-07-25T10:44:10Z</time>
      </trkpt>
      <trkpt lat="46.1009280" lon="5.7374430">
        <ele>1194.2</ele>
        <time>2022-07-25T10:44:16Z</time>
      </trkpt>
      <trkpt lat="46.1006530" lon="5.7373530">
        <ele>1194.4</ele>
        <time>2022-07-25T10:44:23Z</time>
      </trkpt>
      <trkpt lat="46.1004780" lon="5.7372630">
        <ele>1194.6</ele>
        <time>2022-07-25T10:44:28Z</time>
      </trkpt>
      <trkpt lat="46.1004150" lon="5.7372290">
        <ele>1194.8</ele>
        <time>2022-07-25T10:44:30Z</time>
      </trkpt>
      <trkpt lat="46.1002380" lon="5.7371320">
        <ele>1195.0</ele>
        <time>2022-07-25T10:44:36Z</time>
      </trkpt>
      <trkpt lat="46.0999970" lon="5.7369780">
        <ele>1195.6</ele>
        <time>2022-07-25T10:44:42Z</time>
      </trkpt>
      <trkpt lat="46.0999510" lon="5.7369540">
        <ele>1195.6</ele>
        <time>2022-07-25T10:44:43Z</time>
      </trkpt>
      <trkpt lat="46.0999120" lon="5.7369320">
        <ele>1195.8</ele>
        <time>2022-07-25T10:44:44Z</time>
      </trkpt>
      <trkpt lat="46.0998370" lon="5.7368840">
        <ele>1196.0</ele>
        <time>2022-07-25T10:44:46Z</time>
      </trkpt>
      <trkpt lat="46.0997900" lon="5.7368620">
        <ele>1196.0</ele>
        <time>2022-07-25T10:44:47Z</time>
      </trkpt>
      <trkpt lat="46.0994250" lon="5.7367020">
        <ele>1196.0</ele>
        <time>2022-07-25T10:44:54Z</time>
      </trkpt>
      <trkpt lat="46.0993130" lon="5.7366520">
        <ele>1196.0</ele>
        <time>2022-07-25T10:44:56Z</time>
      </trkpt>
      <trkpt lat="46.0991610" lon="5.7365510">
        <ele>1195.6</ele>
        <time>2022-07-25T10:44:59Z</time>
      </trkpt>
      <trkpt lat="46.0990190" lon="5.7364610">
        <ele>1195.0</ele>
        <time>2022-07-25T10:45:02Z</time>
      </trkpt>
      <trkpt lat="46.0989170" lon="5.7364090">
        <ele>1194.8</ele>
        <time>2022-07-25T10:45:04Z</time>
      </trkpt>
      <trkpt lat="46.0988100" lon="5.7363700">
        <ele>1194.8</ele>
        <time>2022-07-25T10:45:06Z</time>
      </trkpt>
      <trkpt lat="46.0986630" lon="5.7363360">
        <ele>1194.8</ele>
        <time>2022-07-25T10:45:09Z</time>
      </trkpt>
      <trkpt lat="46.0986160" lon="5.7363320">
        <ele>1194.8</ele>
        <time>2022-07-25T10:45:10Z</time>
      </trkpt>
      <trkpt lat="46.0983390" lon="5.7363240">
        <ele>1195.0</ele>
        <time>2022-07-25T10:45:16Z</time>
      </trkpt>
      <trkpt lat="46.0980290" lon="5.7362900">
        <ele>1195.8</ele>
        <time>2022-07-25T10:45:22Z</time>
      </trkpt>
      <trkpt lat="46.0978340" lon="5.7362590">
        <ele>1195.8</ele>
        <time>2022-07-25T10:45:27Z</time>
      </trkpt>
      <trkpt lat="46.0976670" lon="5.7362140">
        <ele>1196.8</ele>
        <time>2022-07-25T10:45:33Z</time>
      </trkpt>
      <trkpt lat="46.0975070" lon="5.7361500">
        <ele>1197.8</ele>
        <time>2022-07-25T10:45:38Z</time>
      </trkpt>
      <trkpt lat="46.0974700" lon="5.7361340">
        <ele>1197.8</ele>
        <time>2022-07-25T10:45:39Z</time>
      </trkpt>
      <trkpt lat="46.0972380" lon="5.7360360">
        <ele>1198.4</ele>
        <time>2022-07-25T10:45:44Z</time>
      </trkpt>
      <trkpt lat="46.0971960" lon="5.7360140">
        <ele>1198.4</ele>
        <time>2022-07-25T10:45:45Z</time>
      </trkpt>
      <trkpt lat="46.0970320" lon="5.7359190">
        <ele>1198.4</ele>
        <time>2022-07-25T10:45:49Z</time>
      </trkpt>
      <trkpt lat="46.0967840" lon="5.7357490">
        <ele>1198.0</ele>
        <time>2022-07-25T10:45:55Z</time>
      </trkpt>
      <trkpt lat="46.0964440" lon="5.7355510">
        <ele>1197.6</ele>
        <time>2022-07-25T10:46:02Z</time>
      </trkpt>
      <trkpt lat="46.0961970" lon="5.7353400">
        <ele>1197.4</ele>
        <time>2022-07-25T10:46:08Z</time>
      </trkpt>
      <trkpt lat="46.0958830" lon="5.7350420">
        <ele>1197.6</ele>
        <time>2022-07-25T10:46:16Z</time>
      </trkpt>
      <trkpt lat="46.0956840" lon="5.7348980">
        <ele>1197.8</ele>
        <time>2022-07-25T10:46:22Z</time>
      </trkpt>
      <trkpt lat="46.0955400" lon="5.7347790">
        <ele>1198.6</ele>
        <time>2022-07-25T10:46:28Z</time>
      </trkpt>
      <trkpt lat="46.0955160" lon="5.7347600">
        <ele>1198.8</ele>
        <time>2022-07-25T10:46:29Z</time>
      </trkpt>
      <trkpt lat="46.0953610" lon="5.7346650">
        <ele>1199.8</ele>
        <time>2022-07-25T10:46:35Z</time>
      </trkpt>
      <trkpt lat="46.0951920" lon="5.7345980">
        <ele>1200.8</ele>
        <time>2022-07-25T10:46:41Z</time>
      </trkpt>
      <trkpt lat="46.0951600" lon="5.7345850">
        <ele>1200.8</ele>
        <time>2022-07-25T10:46:42Z</time>
      </trkpt>
      <trkpt lat="46.0949630" lon="5.7344960">
        <ele>1202.0</ele>
        <time>2022-07-25T10:46:49Z</time>
      </trkpt>
      <trkpt lat="46.0947740" lon="5.7343660">
        <ele>1203.0</ele>
        <time>2022-07-25T10:46:57Z</time>
      </trkpt>
      <trkpt lat="46.0947490" lon="5.7343530">
        <ele>1203.0</ele>
        <time>2022-07-25T10:46:58Z</time>
      </trkpt>
      <trkpt lat="46.0946040" lon="5.7342660">
        <ele>1203.8</ele>
        <time>2022-07-25T10:47:04Z</time>
      </trkpt>
      <trkpt lat="46.0945830" lon="5.7342500">
        <ele>1204.2</ele>
        <time>2022-07-25T10:47:05Z</time>
      </trkpt>
      <trkpt lat="46.0944350" lon="5.7341480">
        <ele>1204.8</ele>
        <time>2022-07-25T10:47:11Z</time>
      </trkpt>
      <trkpt lat="46.0943310" lon="5.7340760">
        <ele>1205.4</ele>
        <time>2022-07-25T10:47:15Z</time>
      </trkpt>
      <trkpt lat="46.0942830" lon="5.7340450">
        <ele>1205.6</ele>
        <time>2022-07-25T10:47:17Z</time>
      </trkpt>
      <trkpt lat="46.0941180" lon="5.7339830">
        <ele>1206.4</ele>
        <time>2022-07-25T10:47:23Z</time>
      </trkpt>
      <trkpt lat="46.0940860" lon="5.7339720">
        <ele>1206.4</ele>
        <time>2022-07-25T10:47:24Z</time>
      </trkpt>
      <trkpt lat="46.0938610" lon="5.7339040">
        <ele>1207.0</ele>
        <time>2022-07-25T10:47:31Z</time>
      </trkpt>
      <trkpt lat="46.0936410" lon="5.7338330">
        <ele>1207.2</ele>
        <time>2022-07-25T10:47:39Z</time>
      </trkpt>
      <trkpt lat="46.0935820" lon="5.7338100">
        <ele>1207.4</ele>
        <time>2022-07-25T10:47:41Z</time>
      </trkpt>
      <trkpt lat="46.0933960" lon="5.7337240">
        <ele>1208.2</ele>
        <time>2022-07-25T10:47:46Z</time>
      </trkpt>
      <trkpt lat="46.0932910" lon="5.7336780">
        <ele>1208.6</ele>
        <time>2022-07-25T10:47:49Z</time>
      </trkpt>
      <trkpt lat="46.0932070" lon="5.7336390">
        <ele>1208.8</ele>
        <time>2022-07-25T10:47:52Z</time>
      </trkpt>
      <trkpt lat="46.0930080" lon="5.7335350">
        <ele>1209.4</ele>
        <time>2022-07-25T10:47:59Z</time>
      </trkpt>
      <trkpt lat="46.0929880" lon="5.7335200">
        <ele>1209.6</ele>
        <time>2022-07-25T10:48:00Z</time>
      </trkpt>
      <trkpt lat="46.0929030" lon="5.7334770">
        <ele>1210.0</ele>
        <time>2022-07-25T10:48:03Z</time>
      </trkpt>
      <trkpt lat="46.0927140" lon="5.7333720">
        <ele>1210.6</ele>
        <time>2022-07-25T10:48:09Z</time>
      </trkpt>
      <trkpt lat="46.0926720" lon="5.7333530">
        <ele>1210.8</ele>
        <time>2022-07-25T10:48:10Z</time>
      </trkpt>
      <trkpt lat="46.0924630" lon="5.7332990">
        <ele>1211.2</ele>
        <time>2022-07-25T10:48:14Z</time>
      </trkpt>
      <trkpt lat="46.0921290" lon="5.7331810">
        <ele>1211.2</ele>
        <time>2022-07-25T10:48:20Z</time>
      </trkpt>
      <trkpt lat="46.0917650" lon="5.7330140">
        <ele>1210.6</ele>
        <time>2022-07-25T10:48:27Z</time>
      </trkpt>
      <trkpt lat="46.0914490" lon="5.7328820">
        <ele>1210.4</ele>
        <time>2022-07-25T10:48:34Z</time>
      </trkpt>
      <trkpt lat="46.0914080" lon="5.7328640">
        <ele>1210.4</ele>
        <time>2022-07-25T10:48:35Z</time>
      </trkpt>
      <trkpt lat="46.0912340" lon="5.7327830">
        <ele>1210.6</ele>
        <time>2022-07-25T10:48:40Z</time>
      </trkpt>
      <trkpt lat="46.0909900" lon="5.7327190">
        <ele>1211.8</ele>
        <time>2022-07-25T10:48:48Z</time>
      </trkpt>
      <trkpt lat="46.0908450" lon="5.7326780">
        <ele>1213.2</ele>
        <time>2022-07-25T10:48:53Z</time>
      </trkpt>
      <trkpt lat="46.0907050" lon="5.7326300">
        <ele>1214.0</ele>
        <time>2022-07-25T10:48:59Z</time>
      </trkpt>
      <trkpt lat="46.0906660" lon="5.7326150">
        <ele>1214.2</ele>
        <time>2022-07-25T10:49:01Z</time>
      </trkpt>
      <trkpt lat="46.0905440" lon="5.7325760">
        <ele>1215.0</ele>
        <time>2022-07-25T10:49:07Z</time>
      </trkpt>
      <trkpt lat="46.0905230" lon="5.7325690">
        <ele>1215.2</ele>
        <time>2022-07-25T10:49:08Z</time>
      </trkpt>
      <trkpt lat="46.0904180" lon="5.7325410">
        <ele>1216.2</ele>
        <time>2022-07-25T10:49:13Z</time>
      </trkpt>
      <trkpt lat="46.0903180" lon="5.7325150">
        <ele>1217.4</ele>
        <time>2022-07-25T10:49:18Z</time>
      </trkpt>
      <trkpt lat="46.0902130" lon="5.7324870">
        <ele>1218.4</ele>
        <time>2022-07-25T10:49:23Z</time>
      </trkpt>
      <trkpt lat="46.0900590" lon="5.7324500">
        <ele>1219.2</ele>
        <time>2022-07-25T10:49:30Z</time>
      </trkpt>
      <trkpt lat="46.0900370" lon="5.7324440">
        <ele>1219.4</ele>
        <time>2022-07-25T10:49:31Z</time>
      </trkpt>
      <trkpt lat="46.0898810" lon="5.7323990">
        <ele>1220.6</ele>
        <time>2022-07-25T10:49:38Z</time>
      </trkpt>
      <trkpt lat="46.0897080" lon="5.7323630">
        <ele>1221.6</ele>
        <time>2022-07-25T10:49:45Z</time>
      </trkpt>
      <trkpt lat="46.0896470" lon="5.7323520">
        <ele>1222.0</ele>
        <time>2022-07-25T10:49:47Z</time>
      </trkpt>
      <trkpt lat="46.0893580" lon="5.7322770">
        <ele>1222.4</ele>
        <time>2022-07-25T10:49:55Z</time>
      </trkpt>
      <trkpt lat="46.0890780" lon="5.7322240">
        <ele>1222.4</ele>
        <time>2022-07-25T10:50:02Z</time>
      </trkpt>
      <trkpt lat="46.0887460" lon="5.7321650">
        <ele>1221.8</ele>
        <time>2022-07-25T10:50:10Z</time>
      </trkpt>
      <trkpt lat="46.0885670" lon="5.7321210">
        <ele>1221.6</ele>
        <time>2022-07-25T10:50:14Z</time>
      </trkpt>
      <trkpt lat="46.0884300" lon="5.7320940">
        <ele>1221.4</ele>
        <time>2022-07-25T10:50:17Z</time>
      </trkpt>
      <trkpt lat="46.0880610" lon="5.7319910">
        <ele>1220.8</ele>
        <time>2022-07-25T10:50:25Z</time>
      </trkpt>
      <trkpt lat="46.0878050" lon="5.7319310">
        <ele>1220.6</ele>
        <time>2022-07-25T10:50:30Z</time>
      </trkpt>
      <trkpt lat="46.0876420" lon="5.7318920">
        <ele>1220.2</ele>
        <time>2022-07-25T10:50:33Z</time>
      </trkpt>
      <trkpt lat="46.0874310" lon="5.7318400">
        <ele>1219.4</ele>
        <time>2022-07-25T10:50:37Z</time>
      </trkpt>
      <trkpt lat="46.0872330" lon="5.7318050">
        <ele>1218.6</ele>
        <time>2022-07-25T10:50:41Z</time>
      </trkpt>
      <trkpt lat="46.0868630" lon="5.7317150">
        <ele>1218.4</ele>
        <time>2022-07-25T10:50:49Z</time>
      </trkpt>
      <trkpt lat="46.0865430" lon="5.7316500">
        <ele>1218.8</ele>
        <time>2022-07-25T10:50:57Z</time>
      </trkpt>
      <trkpt lat="46.0862870" lon="5.7315640">
        <ele>1219.6</ele>
        <time>2022-07-25T10:51:05Z</time>
      </trkpt>
      <trkpt lat="46.0861720" lon="5.7315390">
        <ele>1220.8</ele>
        <time>2022-07-25T10:51:09Z</time>
      </trkpt>
      <trkpt lat="46.0860890" lon="5.7315160">
        <ele>1221.2</ele>
        <time>2022-07-25T10:51:12Z</time>
      </trkpt>
      <trkpt lat="46.0859400" lon="5.7314860">
        <ele>1221.8</ele>
        <time>2022-07-25T10:51:17Z</time>
      </trkpt>
      <trkpt lat="46.0858470" lon="5.7314780">
        <ele>1222.4</ele>
        <time>2022-07-25T10:51:20Z</time>
      </trkpt>
      <trkpt lat="46.0857590" lon="5.7314750">
        <ele>1223.0</ele>
        <time>2022-07-25T10:51:23Z</time>
      </trkpt>
      <trkpt lat="46.0855890" lon="5.7314720">
        <ele>1223.8</ele>
        <time>2022-07-25T10:51:29Z</time>
      </trkpt>
      <trkpt lat="46.0854750" lon="5.7314660">
        <ele>1224.2</ele>
        <time>2022-07-25T10:51:33Z</time>
      </trkpt>
      <trkpt lat="46.0853870" lon="5.7314680">
        <ele>1224.8</ele>
        <time>2022-07-25T10:51:36Z</time>
      </trkpt>
      <trkpt lat="46.0853280" lon="5.7314680">
        <ele>1225.2</ele>
        <time>2022-07-25T10:51:38Z</time>
      </trkpt>
      <trkpt lat="46.0851190" lon="5.7314600">
        <ele>1226.2</ele>
        <time>2022-07-25T10:51:45Z</time>
      </trkpt>
      <trkpt lat="46.0850880" lon="5.7314580">
        <ele>1226.4</ele>
        <time>2022-07-25T10:51:46Z</time>
      </trkpt>
      <trkpt lat="46.0848610" lon="5.7314530">
        <ele>1226.8</ele>
        <time>2022-07-25T10:51:53Z</time>
      </trkpt>
      <trkpt lat="46.0846520" lon="5.7314610">
        <ele>1227.0</ele>
        <time>2022-07-25T10:51:59Z</time>
      </trkpt>
      <trkpt lat="46.0843480" lon="5.7314660">
        <ele>1227.2</ele>
        <time>2022-07-25T10:52:08Z</time>
      </trkpt>
      <trkpt lat="46.0841460" lon="5.7314770">
        <ele>1227.2</ele>
        <time>2022-07-25T10:52:14Z</time>
      </trkpt>
      <trkpt lat="46.0838980" lon="5.7314990">
        <ele>1227.2</ele>
        <time>2022-07-25T10:52:21Z</time>
      </trkpt>
      <trkpt lat="46.0838080" lon="5.7315060">
        <ele>1227.2</ele>
        <time>2022-07-25T10:52:24Z</time>
      </trkpt>
      <trkpt lat="46.0836190" lon="5.7315250">
        <ele>1227.6</ele>
        <time>2022-07-25T10:52:30Z</time>
      </trkpt>
      <trkpt lat="46.0833330" lon="5.7315480">
        <ele>1228.2</ele>
        <time>2022-07-25T10:52:39Z</time>
      </trkpt>
      <trkpt lat="46.0832460" lon="5.7315480">
        <ele>1228.4</ele>
        <time>2022-07-25T10:52:42Z</time>
      </trkpt>
      <trkpt lat="46.0830820" lon="5.7315510">
        <ele>1228.8</ele>
        <time>2022-07-25T10:52:48Z</time>
      </trkpt>
      <trkpt lat="46.0829580" lon="5.7315490">
        <ele>1229.4</ele>
        <time>2022-07-25T10:52:52Z</time>
      </trkpt>
      <trkpt lat="46.0828540" lon="5.7315460">
        <ele>1229.6</ele>
        <time>2022-07-25T10:52:55Z</time>
      </trkpt>
      <trkpt lat="46.0825630" lon="5.7315110">
        <ele>1229.6</ele>
        <time>2022-07-25T10:53:02Z</time>
      </trkpt>
      <trkpt lat="46.0822280" lon="5.7314900">
        <ele>1229.0</ele>
        <time>2022-07-25T10:53:08Z</time>
      </trkpt>
      <trkpt lat="46.0820700" lon="5.7314970">
        <ele>1228.2</ele>
        <time>2022-07-25T10:53:11Z</time>
      </trkpt>
      <trkpt lat="46.0819750" lon="5.7315120">
        <ele>1227.6</ele>
        <time>2022-07-25T10:53:13Z</time>
      </trkpt>
      <trkpt lat="46.0818430" lon="5.7315310">
        <ele>1227.0</ele>
        <time>2022-07-25T10:53:16Z</time>
      </trkpt>
      <trkpt lat="46.0816390" lon="5.7315560">
        <ele>1226.6</ele>
        <time>2022-07-25T10:53:21Z</time>
      </trkpt>
      <trkpt lat="46.0815260" lon="5.7315700">
        <ele>1226.4</ele>
        <time>2022-07-25T10:53:25Z</time>
      </trkpt>
      <trkpt lat="46.0814470" lon="5.7315800">
        <ele>1225.8</ele>
        <time>2022-07-25T10:53:30Z</time>
      </trkpt>
      <trkpt lat="46.0814460" lon="5.7315790">
        <ele>1225.8</ele>
        <time>2022-07-25T10:53:31Z</time>
      </trkpt>
      <trkpt lat="46.0814460" lon="5.7315800">
        <ele>1225.6</ele>
        <time>2022-07-25T10:53:32Z</time>
      </trkpt>
      <trkpt lat="46.0814200" lon="5.7315900">
        <ele>1225.2</ele>
        <time>2022-07-25T10:54:37Z</time>
      </trkpt>
      <trkpt lat="46.0813830" lon="5.7315920">
        <ele>1225.2</ele>
        <time>2022-07-25T10:54:39Z</time>
      </trkpt>
      <trkpt lat="46.0811790" lon="5.7315940">
        <ele>1225.2</ele>
        <time>2022-07-25T10:54:47Z</time>
      </trkpt>
      <trkpt lat="46.0811510" lon="5.7315950">
        <ele>1225.0</ele>
        <time>2022-07-25T10:54:48Z</time>
      </trkpt>
      <trkpt lat="46.0809120" lon="5.7315640">
        <ele>1224.6</ele>
        <time>2022-07-25T10:54:56Z</time>
      </trkpt>
      <trkpt lat="46.0807790" lon="5.7315260">
        <ele>1224.0</ele>
        <time>2022-07-25T10:55:00Z</time>
      </trkpt>
      <trkpt lat="46.0806650" lon="5.7314840">
        <ele>1223.6</ele>
        <time>2022-07-25T10:55:03Z</time>
      </trkpt>
      <trkpt lat="46.0803670" lon="5.7313140">
        <ele>1223.4</ele>
        <time>2022-07-25T10:55:10Z</time>
      </trkpt>
      <trkpt lat="46.0803240" lon="5.7312900">
        <ele>1223.4</ele>
        <time>2022-07-25T10:55:11Z</time>
      </trkpt>
      <trkpt lat="46.0801440" lon="5.7311940">
        <ele>1223.0</ele>
        <time>2022-07-25T10:55:15Z</time>
      </trkpt>
      <trkpt lat="46.0800930" lon="5.7311750">
        <ele>1222.8</ele>
        <time>2022-07-25T10:55:16Z</time>
      </trkpt>
      <trkpt lat="46.0799060" lon="5.7311090">
        <ele>1221.8</ele>
        <time>2022-07-25T10:55:20Z</time>
      </trkpt>
      <trkpt lat="46.0797960" lon="5.7310660">
        <ele>1221.2</ele>
        <time>2022-07-25T10:55:23Z</time>
      </trkpt>
      <trkpt lat="46.0796790" lon="5.7310150">
        <ele>1220.6</ele>
        <time>2022-07-25T10:55:26Z</time>
      </trkpt>
      <trkpt lat="46.0795770" lon="5.7309530">
        <ele>1219.0</ele>
        <time>2022-07-25T10:55:29Z</time>
      </trkpt>
      <trkpt lat="46.0794380" lon="5.7308680">
        <ele>1218.0</ele>
        <time>2022-07-25T10:55:32Z</time>
      </trkpt>
      <trkpt lat="46.0792130" lon="5.7307380">
        <ele>1216.8</ele>
        <time>2022-07-25T10:55:36Z</time>
      </trkpt>
      <trkpt lat="46.0791540" lon="5.7306940">
        <ele>1216.6</ele>
        <time>2022-07-25T10:55:37Z</time>
      </trkpt>
      <trkpt lat="46.0790950" lon="5.7306480">
        <ele>1216.0</ele>
        <time>2022-07-25T10:55:38Z</time>
      </trkpt>
      <trkpt lat="46.0789750" lon="5.7305620">
        <ele>1215.6</ele>
        <time>2022-07-25T10:55:40Z</time>
      </trkpt>
      <trkpt lat="46.0788170" lon="5.7303760">
        <ele>1214.4</ele>
        <time>2022-07-25T10:55:43Z</time>
      </trkpt>
      <trkpt lat="46.0787140" lon="5.7301300">
        <ele>1213.2</ele>
        <time>2022-07-25T10:55:46Z</time>
      </trkpt>
      <trkpt lat="46.0786680" lon="5.7299610">
        <ele>1212.2</ele>
        <time>2022-07-25T10:55:48Z</time>
      </trkpt>
      <trkpt lat="46.0785770" lon="5.7296450">
        <ele>1211.0</ele>
        <time>2022-07-25T10:55:52Z</time>
      </trkpt>
      <trkpt lat="46.0784710" lon="5.7293620">
        <ele>1210.4</ele>
        <time>2022-07-25T10:55:56Z</time>
      </trkpt>
      <trkpt lat="46.0783710" lon="5.7291830">
        <ele>1210.0</ele>
        <time>2022-07-25T10:55:59Z</time>
      </trkpt>
      <trkpt lat="46.0782830" lon="5.7290810">
        <ele>1209.6</ele>
        <time>2022-07-25T10:56:01Z</time>
      </trkpt>
      <trkpt lat="46.0781070" lon="5.7289460">
        <ele>1209.0</ele>
        <time>2022-07-25T10:56:04Z</time>
      </trkpt>
      <trkpt lat="46.0780420" lon="5.7288990">
        <ele>1208.8</ele>
        <time>2022-07-25T10:56:05Z</time>
      </trkpt>
      <trkpt lat="46.0776970" lon="5.7286530">
        <ele>1207.6</ele>
        <time>2022-07-25T10:56:10Z</time>
      </trkpt>
      <trkpt lat="46.0776210" lon="5.7286140">
        <ele>1207.6</ele>
        <time>2022-07-25T10:56:11Z</time>
      </trkpt>
      <trkpt lat="46.0775420" lon="5.7285830">
        <ele>1207.2</ele>
        <time>2022-07-25T10:56:12Z</time>
      </trkpt>
      <trkpt lat="46.0773820" lon="5.7285290">
        <ele>1206.6</ele>
        <time>2022-07-25T10:56:14Z</time>
      </trkpt>
      <trkpt lat="46.0771440" lon="5.7284630">
        <ele>1205.2</ele>
        <time>2022-07-25T10:56:17Z</time>
      </trkpt>
      <trkpt lat="46.0769940" lon="5.7284170">
        <ele>1203.8</ele>
        <time>2022-07-25T10:56:19Z</time>
      </trkpt>
      <trkpt lat="46.0769210" lon="5.7283950">
        <ele>1203.2</ele>
        <time>2022-07-25T10:56:20Z</time>
      </trkpt>
      <trkpt lat="46.0768510" lon="5.7283730">
        <ele>1202.6</ele>
        <time>2022-07-25T10:56:21Z</time>
      </trkpt>
      <trkpt lat="46.0767160" lon="5.7283430">
        <ele>1201.2</ele>
        <time>2022-07-25T10:56:23Z</time>
      </trkpt>
      <trkpt lat="46.0766010" lon="5.7283080">
        <ele>1199.6</ele>
        <time>2022-07-25T10:56:25Z</time>
      </trkpt>
      <trkpt lat="46.0765220" lon="5.7281560">
        <ele>1198.6</ele>
        <time>2022-07-25T10:56:28Z</time>
      </trkpt>
      <trkpt lat="46.0765090" lon="5.7281030">
        <ele>1198.4</ele>
        <time>2022-07-25T10:56:29Z</time>
      </trkpt>
      <trkpt lat="46.0764440" lon="5.7278950">
        <ele>1197.6</ele>
        <time>2022-07-25T10:56:33Z</time>
      </trkpt>
      <trkpt lat="46.0763260" lon="5.7277690">
        <ele>1197.4</ele>
        <time>2022-07-25T10:56:38Z</time>
      </trkpt>
      <trkpt lat="46.0763020" lon="5.7277570">
        <ele>1197.2</ele>
        <time>2022-07-25T10:56:39Z</time>
      </trkpt>
      <trkpt lat="46.0761950" lon="5.7277420">
        <ele>1197.0</ele>
        <time>2022-07-25T10:56:44Z</time>
      </trkpt>
      <trkpt lat="46.0760460" lon="5.7277380">
        <ele>1196.8</ele>
        <time>2022-07-25T10:56:52Z</time>
      </trkpt>
      <trkpt lat="46.0759130" lon="5.7277580">
        <ele>1197.0</ele>
        <time>2022-07-25T10:57:00Z</time>
      </trkpt>
      <trkpt lat="46.0758130" lon="5.7277920">
        <ele>1197.6</ele>
        <time>2022-07-25T10:57:07Z</time>
      </trkpt>
      <trkpt lat="46.0757210" lon="5.7278400">
        <ele>1198.4</ele>
        <time>2022-07-25T10:57:15Z</time>
      </trkpt>
      <trkpt lat="46.0756400" lon="5.7279020">
        <ele>1199.4</ele>
        <time>2022-07-25T10:57:22Z</time>
      </trkpt>
      <trkpt lat="46.0756300" lon="5.7279100">
        <ele>1199.6</ele>
        <time>2022-07-25T10:57:23Z</time>
      </trkpt>
      <trkpt lat="46.0755070" lon="5.7279990">
        <ele>1200.4</ele>
        <time>2022-07-25T10:57:34Z</time>
      </trkpt>
      <trkpt lat="46.0754830" lon="5.7280130">
        <ele>1200.6</ele>
        <time>2022-07-25T10:57:36Z</time>
      </trkpt>
      <trkpt lat="46.0754340" lon="5.7280380">
        <ele>1200.8</ele>
        <time>2022-07-25T10:57:41Z</time>
      </trkpt>
      <trkpt lat="46.0753860" lon="5.7280510">
        <ele>1201.6</ele>
        <time>2022-07-25T10:57:45Z</time>
      </trkpt>
      <trkpt lat="46.0753300" lon="5.7280520">
        <ele>1202.0</ele>
        <time>2022-07-25T10:57:48Z</time>
      </trkpt>
      <trkpt lat="46.0752580" lon="5.7280680">
        <ele>1202.6</ele>
        <time>2022-07-25T10:57:53Z</time>
      </trkpt>
      <trkpt lat="46.0752150" lon="5.7280740">
        <ele>1203.8</ele>
        <time>2022-07-25T10:57:57Z</time>
      </trkpt>
      <trkpt lat="46.0751590" lon="5.7280990">
        <ele>1204.8</ele>
        <time>2022-07-25T10:58:02Z</time>
      </trkpt>
      <trkpt lat="46.0751460" lon="5.7281000">
        <ele>1205.0</ele>
        <time>2022-07-25T10:58:03Z</time>
      </trkpt>
      <trkpt lat="46.0750580" lon="5.7281210">
        <ele>1206.0</ele>
        <time>2022-07-25T10:58:11Z</time>
      </trkpt>
      <trkpt lat="46.0749770" lon="5.7281480">
        <ele>1207.0</ele>
        <time>2022-07-25T10:58:19Z</time>
      </trkpt>
      <trkpt lat="46.0749550" lon="5.7281530">
        <ele>1207.2</ele>
        <time>2022-07-25T10:58:21Z</time>
      </trkpt>
      <trkpt lat="46.0748770" lon="5.7281660">
        <ele>1208.4</ele>
        <time>2022-07-25T10:58:28Z</time>
      </trkpt>
      <trkpt lat="46.0748650" lon="5.7281680">
        <ele>1208.6</ele>
        <time>2022-07-25T10:58:29Z</time>
      </trkpt>
      <trkpt lat="46.0748080" lon="5.7281730">
        <ele>1209.4</ele>
        <time>2022-07-25T10:58:34Z</time>
      </trkpt>
      <trkpt lat="46.0747820" lon="5.7281750">
        <ele>1210.0</ele>
        <time>2022-07-25T10:58:37Z</time>
      </trkpt>
      <trkpt lat="46.0747630" lon="5.7281820">
        <ele>1210.4</ele>
        <time>2022-07-25T10:58:39Z</time>
      </trkpt>
      <trkpt lat="46.0747090" lon="5.7281920">
        <ele>1211.6</ele>
        <time>2022-07-25T10:58:45Z</time>
      </trkpt>
      <trkpt lat="46.0746240" lon="5.7282040">
        <ele>1212.6</ele>
        <time>2022-07-25T10:58:54Z</time>
      </trkpt>
      <trkpt lat="46.0745560" lon="5.7282260">
        <ele>1213.6</ele>
        <time>2022-07-25T10:59:01Z</time>
      </trkpt>
      <trkpt lat="46.0745360" lon="5.7282320">
        <ele>1214.0</ele>
        <time>2022-07-25T10:59:03Z</time>
      </trkpt>
      <trkpt lat="46.0744860" lon="5.7282400">
        <ele>1214.6</ele>
        <time>2022-07-25T10:59:08Z</time>
      </trkpt>
      <trkpt lat="46.0744610" lon="5.7282410">
        <ele>1215.0</ele>
        <time>2022-07-25T10:59:11Z</time>
      </trkpt>
      <trkpt lat="46.0744220" lon="5.7282350">
        <ele>1215.6</ele>
        <time>2022-07-25T10:59:15Z</time>
      </trkpt>
      <trkpt lat="46.0743850" lon="5.7282440">
        <ele>1216.4</ele>
        <time>2022-07-25T10:59:19Z</time>
      </trkpt>
      <trkpt lat="46.0743750" lon="5.7282460">
        <ele>1216.6</ele>
        <time>2022-07-25T10:59:20Z</time>
      </trkpt>
      <trkpt lat="46.0743200" lon="5.7282410">
        <ele>1217.8</ele>
        <time>2022-07-25T10:59:26Z</time>
      </trkpt>
      <trkpt lat="46.0742990" lon="5.7282450">
        <ele>1218.4</ele>
        <time>2022-07-25T10:59:28Z</time>
      </trkpt>
      <trkpt lat="46.0742790" lon="5.7282530">
        <ele>1219.0</ele>
        <time>2022-07-25T10:59:30Z</time>
      </trkpt>
      <trkpt lat="46.0741990" lon="5.7282510">
        <ele>1219.8</ele>
        <time>2022-07-25T10:59:38Z</time>
      </trkpt>
      <trkpt lat="46.0741790" lon="5.7282500">
        <ele>1220.0</ele>
        <time>2022-07-25T10:59:40Z</time>
      </trkpt>
      <trkpt lat="46.0741020" lon="5.7282480">
        <ele>1221.0</ele>
        <time>2022-07-25T10:59:48Z</time>
      </trkpt>
      <trkpt lat="46.0740270" lon="5.7282400">
        <ele>1222.4</ele>
        <time>2022-07-25T10:59:56Z</time>
      </trkpt>
      <trkpt lat="46.0739870" lon="5.7282410">
        <ele>1223.4</ele>
        <time>2022-07-25T11:00:00Z</time>
      </trkpt>
      <trkpt lat="46.0739520" lon="5.7282370">
        <ele>1224.4</ele>
        <time>2022-07-25T11:00:04Z</time>
      </trkpt>
      <trkpt lat="46.0739430" lon="5.7282380">
        <ele>1224.6</ele>
        <time>2022-07-25T11:00:05Z</time>
      </trkpt>
      <trkpt lat="46.0739040" lon="5.7282430">
        <ele>1225.0</ele>
        <time>2022-07-25T11:00:09Z</time>
      </trkpt>
      <trkpt lat="46.0738450" lon="5.7282470">
        <ele>1225.4</ele>
        <time>2022-07-25T11:00:14Z</time>
      </trkpt>
      <trkpt lat="46.0738310" lon="5.7282460">
        <ele>1225.6</ele>
        <time>2022-07-25T11:00:15Z</time>
      </trkpt>
      <trkpt lat="46.0737760" lon="5.7282660">
        <ele>1226.2</ele>
        <time>2022-07-25T11:00:20Z</time>
      </trkpt>
      <trkpt lat="46.0737080" lon="5.7282810">
        <ele>1226.8</ele>
        <time>2022-07-25T11:00:25Z</time>
      </trkpt>
      <trkpt lat="46.0736750" lon="5.7282900">
        <ele>1227.4</ele>
        <time>2022-07-25T11:00:28Z</time>
      </trkpt>
      <trkpt lat="46.0736270" lon="5.7282980">
        <ele>1227.8</ele>
        <time>2022-07-25T11:00:32Z</time>
      </trkpt>
      <trkpt lat="46.0735710" lon="5.7283170">
        <ele>1228.6</ele>
        <time>2022-07-25T11:00:37Z</time>
      </trkpt>
      <trkpt lat="46.0735350" lon="5.7283390">
        <ele>1229.0</ele>
        <time>2022-07-25T11:00:40Z</time>
      </trkpt>
      <trkpt lat="46.0734630" lon="5.7283670">
        <ele>1229.6</ele>
        <time>2022-07-25T11:00:45Z</time>
      </trkpt>
      <trkpt lat="46.0733950" lon="5.7283870">
        <ele>1230.0</ele>
        <time>2022-07-25T11:00:49Z</time>
      </trkpt>
      <trkpt lat="46.0733100" lon="5.7284120">
        <ele>1230.2</ele>
        <time>2022-07-25T11:00:54Z</time>
      </trkpt>
      <trkpt lat="46.0731910" lon="5.7284190">
        <ele>1231.0</ele>
        <time>2022-07-25T11:01:01Z</time>
      </trkpt>
      <trkpt lat="46.0731570" lon="5.7284120">
        <ele>1231.4</ele>
        <time>2022-07-25T11:01:03Z</time>
      </trkpt>
      <trkpt lat="46.0730750" lon="5.7283810">
        <ele>1232.0</ele>
        <time>2022-07-25T11:01:08Z</time>
      </trkpt>
      <trkpt lat="46.0730270" lon="5.7283610">
        <ele>1232.4</ele>
        <time>2022-07-25T11:01:11Z</time>
      </trkpt>
      <trkpt lat="46.0729350" lon="5.7283410">
        <ele>1233.0</ele>
        <time>2022-07-25T11:01:16Z</time>
      </trkpt>
      <trkpt lat="46.0729120" lon="5.7283430">
        <ele>1233.2</ele>
        <time>2022-07-25T11:01:17Z</time>
      </trkpt>
      <trkpt lat="46.0727680" lon="5.7283320">
        <ele>1234.2</ele>
        <time>2022-07-25T11:01:24Z</time>
      </trkpt>
      <trkpt lat="46.0727460" lon="5.7283250">
        <ele>1234.2</ele>
        <time>2022-07-25T11:01:25Z</time>
      </trkpt>
      <trkpt lat="46.0725610" lon="5.7283130">
        <ele>1234.6</ele>
        <time>2022-07-25T11:01:32Z</time>
      </trkpt>
      <trkpt lat="46.0724180" lon="5.7284550">
        <ele>1235.0</ele>
        <time>2022-07-25T11:01:38Z</time>
      </trkpt>
      <trkpt lat="46.0723270" lon="5.7286500">
        <ele>1235.0</ele>
        <time>2022-07-25T11:01:44Z</time>
      </trkpt>
      <trkpt lat="46.0723020" lon="5.7287190">
        <ele>1235.2</ele>
        <time>2022-07-25T11:01:46Z</time>
      </trkpt>
      <trkpt lat="46.0722560" lon="5.7289000">
        <ele>1235.4</ele>
        <time>2022-07-25T11:01:50Z</time>
      </trkpt>
      <trkpt lat="46.0721430" lon="5.7292050">
        <ele>1235.4</ele>
        <time>2022-07-25T11:01:56Z</time>
      </trkpt>
      <trkpt lat="46.0720180" lon="5.7293410">
        <ele>1235.2</ele>
        <time>2022-07-25T11:02:02Z</time>
      </trkpt>
      <trkpt lat="46.0719170" lon="5.7294180">
        <ele>1235.4</ele>
        <time>2022-07-25T11:02:08Z</time>
      </trkpt>
      <trkpt lat="46.0718240" lon="5.7294850">
        <ele>1236.2</ele>
        <time>2022-07-25T11:02:14Z</time>
      </trkpt>
      <trkpt lat="46.0718120" lon="5.7294960">
        <ele>1236.4</ele>
        <time>2022-07-25T11:02:15Z</time>
      </trkpt>
      <trkpt lat="46.0717260" lon="5.7295230">
        <ele>1237.4</ele>
        <time>2022-07-25T11:02:21Z</time>
      </trkpt>
      <trkpt lat="46.0717110" lon="5.7295260">
        <ele>1237.8</ele>
        <time>2022-07-25T11:02:22Z</time>
      </trkpt>
      <trkpt lat="46.0716480" lon="5.7295300">
        <ele>1238.6</ele>
        <time>2022-07-25T11:02:27Z</time>
      </trkpt>
      <trkpt lat="46.0716040" lon="5.7295410">
        <ele>1239.0</ele>
        <time>2022-07-25T11:02:30Z</time>
      </trkpt>
      <trkpt lat="46.0715440" lon="5.7295610">
        <ele>1239.6</ele>
        <time>2022-07-25T11:02:34Z</time>
      </trkpt>
      <trkpt lat="46.0714990" lon="5.7295660">
        <ele>1239.8</ele>
        <time>2022-07-25T11:02:37Z</time>
      </trkpt>
      <trkpt lat="46.0713670" lon="5.7295990">
        <ele>1240.4</ele>
        <time>2022-07-25T11:02:45Z</time>
      </trkpt>
      <trkpt lat="46.0713520" lon="5.7296340">
        <ele>1240.8</ele>
        <time>2022-07-25T11:02:47Z</time>
      </trkpt>
      <trkpt lat="46.0713600" lon="5.7296950">
        <ele>1241.2</ele>
        <time>2022-07-25T11:02:50Z</time>
      </trkpt>
      <trkpt lat="46.0713680" lon="5.7297310">
        <ele>1242.0</ele>
        <time>2022-07-25T11:02:52Z</time>
      </trkpt>
      <trkpt lat="46.0713870" lon="5.7298310">
        <ele>1243.0</ele>
        <time>2022-07-25T11:02:57Z</time>
      </trkpt>
      <trkpt lat="46.0713890" lon="5.7298490">
        <ele>1243.4</ele>
        <time>2022-07-25T11:02:58Z</time>
      </trkpt>
      <trkpt lat="46.0713900" lon="5.7299030">
        <ele>1244.0</ele>
        <time>2022-07-25T11:03:01Z</time>
      </trkpt>
      <trkpt lat="46.0713640" lon="5.7299560">
        <ele>1244.8</ele>
        <time>2022-07-25T11:03:05Z</time>
      </trkpt>
      <trkpt lat="46.0713510" lon="5.7299820">
        <ele>1245.2</ele>
        <time>2022-07-25T11:03:07Z</time>
      </trkpt>
      <trkpt lat="46.0713280" lon="5.7300030">
        <ele>1246.0</ele>
        <time>2022-07-25T11:03:10Z</time>
      </trkpt>
      <trkpt lat="46.0713200" lon="5.7300040">
        <ele>1246.4</ele>
        <time>2022-07-25T11:03:12Z</time>
      </trkpt>
      <trkpt lat="46.0712940" lon="5.7300250">
        <ele>1247.6</ele>
        <time>2022-07-25T11:03:16Z</time>
      </trkpt>
      <trkpt lat="46.0712850" lon="5.7300830">
        <ele>1248.0</ele>
        <time>2022-07-25T11:03:23Z</time>
      </trkpt>
      <trkpt lat="46.0712220" lon="5.7301250">
        <ele>1248.2</ele>
        <time>2022-07-25T11:04:24Z</time>
      </trkpt>
      <trkpt lat="46.0711690" lon="5.7303200">
        <ele>1248.2</ele>
        <time>2022-07-25T11:04:29Z</time>
      </trkpt>
      <trkpt lat="46.0711070" lon="5.7304500">
        <ele>1248.0</ele>
        <time>2022-07-25T11:04:33Z</time>
      </trkpt>
      <trkpt lat="46.0709910" lon="5.7305200">
        <ele>1247.4</ele>
        <time>2022-07-25T11:04:39Z</time>
      </trkpt>
      <trkpt lat="46.0709220" lon="5.7306040">
        <ele>1247.2</ele>
        <time>2022-07-25T11:04:44Z</time>
      </trkpt>
      <trkpt lat="46.0708320" lon="5.7307490">
        <ele>1247.6</ele>
        <time>2022-07-25T11:04:49Z</time>
      </trkpt>
      <trkpt lat="46.0707840" lon="5.7308220">
        <ele>1247.8</ele>
        <time>2022-07-25T11:04:54Z</time>
      </trkpt>
      <trkpt lat="46.0707800" lon="5.7308240">
        <ele>1247.8</ele>
        <time>2022-07-25T11:04:55Z</time>
      </trkpt>
      <trkpt lat="46.0706950" lon="5.7308800">
        <ele>1248.2</ele>
        <time>2022-07-25T11:05:32Z</time>
      </trkpt>
      <trkpt lat="46.0706650" lon="5.7308880">
        <ele>1248.2</ele>
        <time>2022-07-25T11:05:33Z</time>
      </trkpt>
      <trkpt lat="46.0706340" lon="5.7308940">
        <ele>1248.2</ele>
        <time>2022-07-25T11:05:34Z</time>
      </trkpt>
      <trkpt lat="46.0705140" lon="5.7308610">
        <ele>1248.2</ele>
        <time>2022-07-25T11:05:37Z</time>
      </trkpt>
      <trkpt lat="46.0704900" lon="5.7308530">
        <ele>1248.2</ele>
        <time>2022-07-25T11:05:38Z</time>
      </trkpt>
      <trkpt lat="46.0704810" lon="5.7308590">
        <ele>1248.0</ele>
        <time>2022-07-25T11:05:41Z</time>
      </trkpt>
      <trkpt lat="46.0703390" lon="5.7308330">
        <ele>1246.8</ele>
        <time>2022-07-25T11:06:21Z</time>
      </trkpt>
      <trkpt lat="46.0702800" lon="5.7308590">
        <ele>1247.2</ele>
        <time>2022-07-25T11:06:24Z</time>
      </trkpt>
      <trkpt lat="46.0702440" lon="5.7308860">
        <ele>1247.4</ele>
        <time>2022-07-25T11:06:26Z</time>
      </trkpt>
      <trkpt lat="46.0702100" lon="5.7308920">
        <ele>1247.6</ele>
        <time>2022-07-25T11:06:29Z</time>
      </trkpt>
      <trkpt lat="46.0701790" lon="5.7308750">
        <ele>1247.6</ele>
        <time>2022-07-25T11:06:32Z</time>
      </trkpt>
      <trkpt lat="46.0701200" lon="5.7308640">
        <ele>1248.0</ele>
        <time>2022-07-25T11:06:36Z</time>
      </trkpt>
      <trkpt lat="46.0701040" lon="5.7308630">
        <ele>1248.4</ele>
        <time>2022-07-25T11:06:37Z</time>
      </trkpt>
      <trkpt lat="46.0700210" lon="5.7308710">
        <ele>1249.4</ele>
        <time>2022-07-25T11:06:42Z</time>
      </trkpt>
      <trkpt lat="46.0699510" lon="5.7308800">
        <ele>1249.6</ele>
        <time>2022-07-25T11:06:45Z</time>
      </trkpt>
      <trkpt lat="46.0697900" lon="5.7309160">
        <ele>1249.6</ele>
        <time>2022-07-25T11:06:51Z</time>
      </trkpt>
      <trkpt lat="46.0697410" lon="5.7309380">
        <ele>1249.8</ele>
        <time>2022-07-25T11:06:54Z</time>
      </trkpt>
      <trkpt lat="46.0697010" lon="5.7309590">
        <ele>1249.8</ele>
        <time>2022-07-25T11:06:56Z</time>
      </trkpt>
      <trkpt lat="46.0696420" lon="5.7309910">
        <ele>1249.8</ele>
        <time>2022-07-25T11:06:58Z</time>
      </trkpt>
      <trkpt lat="46.0695060" lon="5.7310080">
        <ele>1249.6</ele>
        <time>2022-07-25T11:07:02Z</time>
      </trkpt>
      <trkpt lat="46.0694050" lon="5.7309500">
        <ele>1249.6</ele>
        <time>2022-07-25T11:07:06Z</time>
      </trkpt>
      <trkpt lat="46.0693330" lon="5.7309380">
        <ele>1250.0</ele>
        <time>2022-07-25T11:07:12Z</time>
      </trkpt>
      <trkpt lat="46.0692990" lon="5.7309270">
        <ele>1250.0</ele>
        <time>2022-07-25T11:07:15Z</time>
      </trkpt>
      <trkpt lat="46.0692940" lon="5.7309210">
        <ele>1250.0</ele>
        <time>2022-07-25T11:07:16Z</time>
      </trkpt>
      <trkpt lat="46.0682920" lon="5.7298450">
        <ele>1262.4</ele>
        <time>2022-07-25T11:08:41Z</time>
      </trkpt>
      <trkpt lat="46.0682790" lon="5.7298350">
        <ele>1262.4</ele>
        <time>2022-07-25T11:08:42Z</time>
      </trkpt>
      <trkpt lat="46.0681790" lon="5.7297230">
        <ele>1263.6</ele>
        <time>2022-07-25T11:08:50Z</time>
      </trkpt>
      <trkpt lat="46.0680840" lon="5.7296480">
        <ele>1264.4</ele>
        <time>2022-07-25T11:08:56Z</time>
      </trkpt>
      <trkpt lat="46.0680690" lon="5.7296360">
        <ele>1264.6</ele>
        <time>2022-07-25T11:08:57Z</time>
      </trkpt>
      <trkpt lat="46.0678990" lon="5.7295380">
        <ele>1265.4</ele>
        <time>2022-07-25T11:09:06Z</time>
      </trkpt>
      <trkpt lat="46.0678370" lon="5.7294960">
        <ele>1265.6</ele>
        <time>2022-07-25T11:09:09Z</time>
      </trkpt>
      <trkpt lat="46.0677630" lon="5.7294510">
        <ele>1265.8</ele>
        <time>2022-07-25T11:09:13Z</time>
      </trkpt>
      <trkpt lat="46.0676590" lon="5.7293830">
        <ele>1266.2</ele>
        <time>2022-07-25T11:09:19Z</time>
      </trkpt>
      <trkpt lat="46.0675850" lon="5.7293310">
        <ele>1266.6</ele>
        <time>2022-07-25T11:09:23Z</time>
      </trkpt>
      <trkpt lat="46.0675480" lon="5.7292890">
        <ele>1266.8</ele>
        <time>2022-07-25T11:09:25Z</time>
      </trkpt>
      <trkpt lat="46.0674670" lon="5.7292030">
        <ele>1267.2</ele>
        <time>2022-07-25T11:09:31Z</time>
      </trkpt>
      <trkpt lat="46.0674150" lon="5.7291560">
        <ele>1267.6</ele>
        <time>2022-07-25T11:09:36Z</time>
      </trkpt>
      <trkpt lat="46.0673880" lon="5.7291410">
        <ele>1268.2</ele>
        <time>2022-07-25T11:09:38Z</time>
      </trkpt>
      <trkpt lat="46.0673710" lon="5.7291300">
        <ele>1268.4</ele>
        <time>2022-07-25T11:09:40Z</time>
      </trkpt>
      <trkpt lat="46.0673550" lon="5.7291190">
        <ele>1269.0</ele>
        <time>2022-07-25T11:09:42Z</time>
      </trkpt>
      <trkpt lat="46.0673380" lon="5.7291060">
        <ele>1269.6</ele>
        <time>2022-07-25T11:09:45Z</time>
      </trkpt>
      <trkpt lat="46.0672840" lon="5.7290700">
        <ele>1270.8</ele>
        <time>2022-07-25T11:09:51Z</time>
      </trkpt>
      <trkpt lat="46.0672230" lon="5.7290220">
        <ele>1271.8</ele>
        <time>2022-07-25T11:09:56Z</time>
      </trkpt>
      <trkpt lat="46.0670420" lon="5.7289980">
        <ele>1273.0</ele>
        <time>2022-07-25T11:10:05Z</time>
      </trkpt>
      <trkpt lat="46.0668860" lon="5.7289430">
        <ele>1273.8</ele>
        <time>2022-07-25T11:10:12Z</time>
      </trkpt>
      <trkpt lat="46.0667630" lon="5.7289210">
        <ele>1274.0</ele>
        <time>2022-07-25T11:10:19Z</time>
      </trkpt>
      <trkpt lat="46.0666890" lon="5.7289190">
        <ele>1274.6</ele>
        <time>2022-07-25T11:10:25Z</time>
      </trkpt>
      <trkpt lat="46.0666600" lon="5.7289360">
        <ele>1274.8</ele>
        <time>2022-07-25T11:10:28Z</time>
      </trkpt>
      <trkpt lat="46.0666080" lon="5.7289530">
        <ele>1275.4</ele>
        <time>2022-07-25T11:10:32Z</time>
      </trkpt>
      <trkpt lat="46.0665690" lon="5.7289620">
        <ele>1275.8</ele>
        <time>2022-07-25T11:10:35Z</time>
      </trkpt>
      <trkpt lat="46.0664980" lon="5.7289640">
        <ele>1276.8</ele>
        <time>2022-07-25T11:10:40Z</time>
      </trkpt>
      <trkpt lat="46.0664790" lon="5.7289590">
        <ele>1277.0</ele>
        <time>2022-07-25T11:10:41Z</time>
      </trkpt>
      <trkpt lat="46.0664230" lon="5.7289780">
        <ele>1277.8</ele>
        <time>2022-07-25T11:10:46Z</time>
      </trkpt>
      <trkpt lat="46.0664010" lon="5.7289820">
        <ele>1278.0</ele>
        <time>2022-07-25T11:10:48Z</time>
      </trkpt>
      <trkpt lat="46.0663810" lon="5.7289970">
        <ele>1278.4</ele>
        <time>2022-07-25T11:10:50Z</time>
      </trkpt>
      <trkpt lat="46.0663600" lon="5.7290090">
        <ele>1278.6</ele>
        <time>2022-07-25T11:10:52Z</time>
      </trkpt>
      <trkpt lat="46.0663130" lon="5.7290320">
        <ele>1279.2</ele>
        <time>2022-07-25T11:10:55Z</time>
      </trkpt>
      <trkpt lat="46.0662380" lon="5.7290490">
        <ele>1279.6</ele>
        <time>2022-07-25T11:10:59Z</time>
      </trkpt>
      <trkpt lat="46.0661000" lon="5.7290180">
        <ele>1279.6</ele>
        <time>2022-07-25T11:11:03Z</time>
      </trkpt>
      <trkpt lat="46.0659940" lon="5.7289800">
        <ele>1279.8</ele>
        <time>2022-07-25T11:11:08Z</time>
      </trkpt>
      <trkpt lat="46.0658660" lon="5.7289230">
        <ele>1279.8</ele>
        <time>2022-07-25T11:11:13Z</time>
      </trkpt>
      <trkpt lat="46.0658370" lon="5.7289290">
        <ele>1279.8</ele>
        <time>2022-07-25T11:11:14Z</time>
      </trkpt>
      <trkpt lat="46.0657750" lon="5.7289650">
        <ele>1279.6</ele>
        <time>2022-07-25T11:11:17Z</time>
      </trkpt>
      <trkpt lat="46.0656990" lon="5.7290470">
        <ele>1280.0</ele>
        <time>2022-07-25T11:11:23Z</time>
      </trkpt>
      <trkpt lat="46.0656280" lon="5.7291260">
        <ele>1280.2</ele>
        <time>2022-07-25T11:11:28Z</time>
      </trkpt>
      <trkpt lat="46.0656120" lon="5.7291330">
        <ele>1280.4</ele>
        <time>2022-07-25T11:11:29Z</time>
      </trkpt>
      <trkpt lat="46.0655150" lon="5.7291430">
        <ele>1281.2</ele>
        <time>2022-07-25T11:11:34Z</time>
      </trkpt>
      <trkpt lat="46.0654320" lon="5.7290920">
        <ele>1281.8</ele>
        <time>2022-07-25T11:11:38Z</time>
      </trkpt>
      <trkpt lat="46.0652350" lon="5.7290740">
        <ele>1281.8</ele>
        <time>2022-07-25T11:11:42Z</time>
      </trkpt>
      <trkpt lat="46.0651830" lon="5.7290860">
        <ele>1281.8</ele>
        <time>2022-07-25T11:11:43Z</time>
      </trkpt>
      <trkpt lat="46.0650140" lon="5.7291150">
        <ele>1281.2</ele>
        <time>2022-07-25T11:11:47Z</time>
      </trkpt>
      <trkpt lat="46.0648150" lon="5.7291200">
        <ele>1281.0</ele>
        <time>2022-07-25T11:11:53Z</time>
      </trkpt>
      <trkpt lat="46.0646420" lon="5.7290460">
        <ele>1281.2</ele>
        <time>2022-07-25T11:11:58Z</time>
      </trkpt>
      <trkpt lat="46.0644270" lon="5.7289820">
        <ele>1281.2</ele>
        <time>2022-07-25T11:12:03Z</time>
      </trkpt>
      <trkpt lat="46.0642200" lon="5.7288920">
        <ele>1281.2</ele>
        <time>2022-07-25T11:12:08Z</time>
      </trkpt>
      <trkpt lat="46.0640760" lon="5.7288280">
        <ele>1281.2</ele>
        <time>2022-07-25T11:12:13Z</time>
      </trkpt>
      <trkpt lat="46.0639360" lon="5.7287760">
        <ele>1281.6</ele>
        <time>2022-07-25T11:12:20Z</time>
      </trkpt>
      <trkpt lat="46.0638320" lon="5.7287620">
        <ele>1282.2</ele>
        <time>2022-07-25T11:12:26Z</time>
      </trkpt>
      <trkpt lat="46.0638140" lon="5.7287620">
        <ele>1282.4</ele>
        <time>2022-07-25T11:12:27Z</time>
      </trkpt>
      <trkpt lat="46.0637070" lon="5.7287680">
        <ele>1283.0</ele>
        <time>2022-07-25T11:12:33Z</time>
      </trkpt>
      <trkpt lat="46.0636700" lon="5.7287790">
        <ele>1283.2</ele>
        <time>2022-07-25T11:12:35Z</time>
      </trkpt>
      <trkpt lat="46.0636030" lon="5.7287880">
        <ele>1283.6</ele>
        <time>2022-07-25T11:12:39Z</time>
      </trkpt>
      <trkpt lat="46.0635370" lon="5.7288010">
        <ele>1284.2</ele>
        <time>2022-07-25T11:12:43Z</time>
      </trkpt>
      <trkpt lat="46.0634860" lon="5.7288010">
        <ele>1284.8</ele>
        <time>2022-07-25T11:12:46Z</time>
      </trkpt>
      <trkpt lat="46.0633950" lon="5.7287900">
        <ele>1285.4</ele>
        <time>2022-07-25T11:12:52Z</time>
      </trkpt>
      <trkpt lat="46.0633820" lon="5.7287850">
        <ele>1285.4</ele>
        <time>2022-07-25T11:12:53Z</time>
      </trkpt>
      <trkpt lat="46.0632600" lon="5.7287460">
        <ele>1286.0</ele>
        <time>2022-07-25T11:13:00Z</time>
      </trkpt>
      <trkpt lat="46.0631650" lon="5.7287320">
        <ele>1286.4</ele>
        <time>2022-07-25T11:13:05Z</time>
      </trkpt>
      <trkpt lat="46.0631500" lon="5.7287300">
        <ele>1286.4</ele>
        <time>2022-07-25T11:13:06Z</time>
      </trkpt>
      <trkpt lat="46.0630410" lon="5.7286800">
        <ele>1286.8</ele>
        <time>2022-07-25T11:13:13Z</time>
      </trkpt>
      <trkpt lat="46.0629790" lon="5.7286590">
        <ele>1287.2</ele>
        <time>2022-07-25T11:13:17Z</time>
      </trkpt>
      <trkpt lat="46.0629070" lon="5.7286350">
        <ele>1287.8</ele>
        <time>2022-07-25T11:13:21Z</time>
      </trkpt>
      <trkpt lat="46.0628650" lon="5.7286300">
        <ele>1288.4</ele>
        <time>2022-07-25T11:13:24Z</time>
      </trkpt>
      <trkpt lat="46.0628280" lon="5.7286330">
        <ele>1288.6</ele>
        <time>2022-07-25T11:13:27Z</time>
      </trkpt>
      <trkpt lat="46.0628130" lon="5.7286250">
        <ele>1288.8</ele>
        <time>2022-07-25T11:13:28Z</time>
      </trkpt>
      <trkpt lat="46.0627760" lon="5.7286090">
        <ele>1289.4</ele>
        <time>2022-07-25T11:13:31Z</time>
      </trkpt>
      <trkpt lat="46.0627180" lon="5.7285990">
        <ele>1290.6</ele>
        <time>2022-07-25T11:13:36Z</time>
      </trkpt>
      <trkpt lat="46.0627050" lon="5.7285940">
        <ele>1290.8</ele>
        <time>2022-07-25T11:13:37Z</time>
      </trkpt>
      <trkpt lat="46.0626420" lon="5.7285710">
        <ele>1291.8</ele>
        <time>2022-07-25T11:13:42Z</time>
      </trkpt>
      <trkpt lat="46.0625520" lon="5.7285430">
        <ele>1292.4</ele>
        <time>2022-07-25T11:13:49Z</time>
      </trkpt>
      <trkpt lat="46.0625120" lon="5.7285410">
        <ele>1292.8</ele>
        <time>2022-07-25T11:13:52Z</time>
      </trkpt>
      <trkpt lat="46.0623610" lon="5.7284820">
        <ele>1294.0</ele>
        <time>2022-07-25T11:14:01Z</time>
      </trkpt>
      <trkpt lat="46.0622300" lon="5.7284710">
        <ele>1294.8</ele>
        <time>2022-07-25T11:14:07Z</time>
      </trkpt>
      <trkpt lat="46.0621910" lon="5.7284630">
        <ele>1295.0</ele>
        <time>2022-07-25T11:14:09Z</time>
      </trkpt>
      <trkpt lat="46.0621190" lon="5.7284560">
        <ele>1295.2</ele>
        <time>2022-07-25T11:14:13Z</time>
      </trkpt>
      <trkpt lat="46.0619970" lon="5.7284420">
        <ele>1296.0</ele>
        <time>2022-07-25T11:14:20Z</time>
      </trkpt>
      <trkpt lat="46.0619790" lon="5.7284360">
        <ele>1296.0</ele>
        <time>2022-07-25T11:14:21Z</time>
      </trkpt>
      <trkpt lat="46.0618630" lon="5.7284000">
        <ele>1296.4</ele>
        <time>2022-07-25T11:14:27Z</time>
      </trkpt>
      <trkpt lat="46.0617580" lon="5.7283810">
        <ele>1296.6</ele>
        <time>2022-07-25T11:14:32Z</time>
      </trkpt>
      <trkpt lat="46.0616290" lon="5.7284310">
        <ele>1296.8</ele>
        <time>2022-07-25T11:14:38Z</time>
      </trkpt>
      <trkpt lat="46.0615330" lon="5.7285210">
        <ele>1297.0</ele>
        <time>2022-07-25T11:14:43Z</time>
      </trkpt>
      <trkpt lat="46.0615110" lon="5.7285340">
        <ele>1297.0</ele>
        <time>2022-07-25T11:14:44Z</time>
      </trkpt>
      <trkpt lat="46.0614700" lon="5.7285360">
        <ele>1297.2</ele>
        <time>2022-07-25T11:14:46Z</time>
      </trkpt>
      <trkpt lat="46.0614260" lon="5.7285110">
        <ele>1297.2</ele>
        <time>2022-07-25T11:14:48Z</time>
      </trkpt>
      <trkpt lat="46.0613170" lon="5.7284060">
        <ele>1297.2</ele>
        <time>2022-07-25T11:14:53Z</time>
      </trkpt>
      <trkpt lat="46.0612550" lon="5.7282700">
        <ele>1297.2</ele>
        <time>2022-07-25T11:14:59Z</time>
      </trkpt>
      <trkpt lat="46.0612200" lon="5.7281770">
        <ele>1297.4</ele>
        <time>2022-07-25T11:15:05Z</time>
      </trkpt>
      <trkpt lat="46.0610790" lon="5.7281130">
        <ele>1298.8</ele>
        <time>2022-07-25T11:15:17Z</time>
      </trkpt>
      <trkpt lat="46.0610270" lon="5.7281090">
        <ele>1299.6</ele>
        <time>2022-07-25T11:15:20Z</time>
      </trkpt>
      <trkpt lat="46.0610110" lon="5.7281090">
        <ele>1299.8</ele>
        <time>2022-07-25T11:15:21Z</time>
      </trkpt>
      <trkpt lat="46.0609950" lon="5.7281080">
        <ele>1300.0</ele>
        <time>2022-07-25T11:15:22Z</time>
      </trkpt>
      <trkpt lat="46.0609200" lon="5.7281000">
        <ele>1300.6</ele>
        <time>2022-07-25T11:15:27Z</time>
      </trkpt>
      <trkpt lat="46.0608910" lon="5.7281040">
        <ele>1301.0</ele>
        <time>2022-07-25T11:15:29Z</time>
      </trkpt>
      <trkpt lat="46.0607980" lon="5.7281370">
        <ele>1301.8</ele>
        <time>2022-07-25T11:15:33Z</time>
      </trkpt>
      <trkpt lat="46.0606080" lon="5.7281950">
        <ele>1301.8</ele>
        <time>2022-07-25T11:15:39Z</time>
      </trkpt>
      <trkpt lat="46.0604120" lon="5.7282060">
        <ele>1301.8</ele>
        <time>2022-07-25T11:15:45Z</time>
      </trkpt>
      <trkpt lat="46.0602700" lon="5.7281360">
        <ele>1301.8</ele>
        <time>2022-07-25T11:15:49Z</time>
      </trkpt>
      <trkpt lat="46.0601550" lon="5.7280370">
        <ele>1301.8</ele>
        <time>2022-07-25T11:15:52Z</time>
      </trkpt>
      <trkpt lat="46.0600440" lon="5.7280290">
        <ele>1301.8</ele>
        <time>2022-07-25T11:15:54Z</time>
      </trkpt>
      <trkpt lat="46.0599320" lon="5.7280610">
        <ele>1301.4</ele>
        <time>2022-07-25T11:15:56Z</time>
      </trkpt>
      <trkpt lat="46.0598260" lon="5.7280950">
        <ele>1301.2</ele>
        <time>2022-07-25T11:15:58Z</time>
      </trkpt>
      <trkpt lat="46.0597070" lon="5.7281230">
        <ele>1299.4</ele>
        <time>2022-07-25T11:16:01Z</time>
      </trkpt>
      <trkpt lat="46.0596750" lon="5.7281300">
        <ele>1299.0</ele>
        <time>2022-07-25T11:16:02Z</time>
      </trkpt>
      <trkpt lat="46.0595400" lon="5.7281730">
        <ele>1298.2</ele>
        <time>2022-07-25T11:16:07Z</time>
      </trkpt>
      <trkpt lat="46.0594340" lon="5.7282430">
        <ele>1298.2</ele>
        <time>2022-07-25T11:16:13Z</time>
      </trkpt>
      <trkpt lat="46.0593810" lon="5.7282830">
        <ele>1298.6</ele>
        <time>2022-07-25T11:16:19Z</time>
      </trkpt>
      <trkpt lat="46.0593820" lon="5.7282860">
        <ele>1298.8</ele>
        <time>2022-07-25T11:16:20Z</time>
      </trkpt>
      <trkpt lat="46.0592780" lon="5.7283030">
        <ele>1299.4</ele>
        <time>2022-07-25T11:19:56Z</time>
      </trkpt>
      <trkpt lat="46.0592300" lon="5.7282700">
        <ele>1299.4</ele>
        <time>2022-07-25T11:19:59Z</time>
      </trkpt>
      <trkpt lat="46.0591000" lon="5.7282220">
        <ele>1299.4</ele>
        <time>2022-07-25T11:20:05Z</time>
      </trkpt>
      <trkpt lat="46.0590690" lon="5.7282200">
        <ele>1299.2</ele>
        <time>2022-07-25T11:20:08Z</time>
      </trkpt>
      <trkpt lat="46.0586420" lon="5.7283560">
        <ele>1289.8</ele>
        <time>2022-07-25T11:22:13Z</time>
      </trkpt>
      <trkpt lat="46.0586280" lon="5.7283480">
        <ele>1289.6</ele>
        <time>2022-07-25T11:22:14Z</time>
      </trkpt>
      <trkpt lat="46.0585770" lon="5.7282530">
        <ele>1288.8</ele>
        <time>2022-07-25T11:22:19Z</time>
      </trkpt>
      <trkpt lat="46.0585540" lon="5.7282190">
        <ele>1288.4</ele>
        <time>2022-07-25T11:22:22Z</time>
      </trkpt>
      <trkpt lat="46.0585500" lon="5.7282160">
        <ele>1288.2</ele>
        <time>2022-07-25T11:22:23Z</time>
      </trkpt>
      <trkpt lat="46.0585270" lon="5.7280980">
        <ele>1287.4</ele>
        <time>2022-07-25T11:23:05Z</time>
      </trkpt>
      <trkpt lat="46.0585540" lon="5.7280510">
        <ele>1287.2</ele>
        <time>2022-07-25T11:23:07Z</time>
      </trkpt>
      <trkpt lat="46.0586070" lon="5.7279330">
        <ele>1287.4</ele>
        <time>2022-07-25T11:23:11Z</time>
      </trkpt>
      <trkpt lat="46.0586360" lon="5.7278020">
        <ele>1286.8</ele>
        <time>2022-07-25T11:23:14Z</time>
      </trkpt>
      <trkpt lat="46.0586580" lon="5.7276250">
        <ele>1286.4</ele>
        <time>2022-07-25T11:23:18Z</time>
      </trkpt>
      <trkpt lat="46.0586610" lon="5.7276020">
        <ele>1286.0</ele>
        <time>2022-07-25T11:23:19Z</time>
      </trkpt>
      <trkpt lat="46.0586540" lon="5.7275140">
        <ele>1285.8</ele>
        <time>2022-07-25T11:23:22Z</time>
      </trkpt>
      <trkpt lat="46.0586550" lon="5.7274920">
        <ele>1285.8</ele>
        <time>2022-07-25T11:23:23Z</time>
      </trkpt>
      <trkpt lat="46.0586500" lon="5.7274200">
        <ele>1285.6</ele>
        <time>2022-07-25T11:23:27Z</time>
      </trkpt>
      <trkpt lat="46.0586210" lon="5.7271720">
        <ele>1285.4</ele>
        <time>2022-07-25T11:23:33Z</time>
      </trkpt>
      <trkpt lat="46.0586210" lon="5.7269390">
        <ele>1285.0</ele>
        <time>2022-07-25T11:23:37Z</time>
      </trkpt>
      <trkpt lat="46.0586270" lon="5.7268800">
        <ele>1284.8</ele>
        <time>2022-07-25T11:23:38Z</time>
      </trkpt>
      <trkpt lat="46.0586100" lon="5.7267580">
        <ele>1284.2</ele>
        <time>2022-07-25T11:23:40Z</time>
      </trkpt>
      <trkpt lat="46.0585920" lon="5.7267130">
        <ele>1283.8</ele>
        <time>2022-07-25T11:23:41Z</time>
      </trkpt>
      <trkpt lat="46.0585690" lon="5.7266740">
        <ele>1283.4</ele>
        <time>2022-07-25T11:23:42Z</time>
      </trkpt>
      <trkpt lat="46.0585410" lon="5.7266360">
        <ele>1282.8</ele>
        <time>2022-07-25T11:23:43Z</time>
      </trkpt>
      <trkpt lat="46.0585060" lon="5.7265900">
        <ele>1282.2</ele>
        <time>2022-07-25T11:23:44Z</time>
      </trkpt>
      <trkpt lat="46.0584320" lon="5.7264890">
        <ele>1281.4</ele>
        <time>2022-07-25T11:23:46Z</time>
      </trkpt>
      <trkpt lat="46.0584030" lon="5.7264520">
        <ele>1280.8</ele>
        <time>2022-07-25T11:23:47Z</time>
      </trkpt>
      <trkpt lat="46.0583400" lon="5.7263890">
        <ele>1280.0</ele>
        <time>2022-07-25T11:23:49Z</time>
      </trkpt>
      <trkpt lat="46.0582660" lon="5.7263460">
        <ele>1278.6</ele>
        <time>2022-07-25T11:23:51Z</time>
      </trkpt>
      <trkpt lat="46.0582300" lon="5.7263230">
        <ele>1278.2</ele>
        <time>2022-07-25T11:23:52Z</time>
      </trkpt>
      <trkpt lat="46.0581910" lon="5.7263090">
        <ele>1277.6</ele>
        <time>2022-07-25T11:23:53Z</time>
      </trkpt>
      <trkpt lat="46.0581130" lon="5.7262760">
        <ele>1276.4</ele>
        <time>2022-07-25T11:23:55Z</time>
      </trkpt>
      <trkpt lat="46.0580450" lon="5.7262140">
        <ele>1275.6</ele>
        <time>2022-07-25T11:23:57Z</time>
      </trkpt>
      <trkpt lat="46.0580220" lon="5.7261910">
        <ele>1275.2</ele>
        <time>2022-07-25T11:23:58Z</time>
      </trkpt>
      <trkpt lat="46.0579060" lon="5.7261180">
        <ele>1274.6</ele>
        <time>2022-07-25T11:24:03Z</time>
      </trkpt>
      <trkpt lat="46.0578060" lon="5.7260080">
        <ele>1274.2</ele>
        <time>2022-07-25T11:24:07Z</time>
      </trkpt>
      <trkpt lat="46.0577800" lon="5.7259520">
        <ele>1274.0</ele>
        <time>2022-07-25T11:24:08Z</time>
      </trkpt>
      <trkpt lat="46.0577220" lon="5.7258510">
        <ele>1274.0</ele>
        <time>2022-07-25T11:24:10Z</time>
      </trkpt>
      <trkpt lat="46.0576410" lon="5.7257480">
        <ele>1274.0</ele>
        <time>2022-07-25T11:24:12Z</time>
      </trkpt>
      <trkpt lat="46.0574700" lon="5.7254790">
        <ele>1273.0</ele>
        <time>2022-07-25T11:24:17Z</time>
      </trkpt>
      <trkpt lat="46.0574110" lon="5.7253880">
        <ele>1272.8</ele>
        <time>2022-07-25T11:24:19Z</time>
      </trkpt>
      <trkpt lat="46.0572750" lon="5.7252720">
        <ele>1272.4</ele>
        <time>2022-07-25T11:24:24Z</time>
      </trkpt>
      <trkpt lat="46.0571360" lon="5.7251720">
        <ele>1272.0</ele>
        <time>2022-07-25T11:24:28Z</time>
      </trkpt>
      <trkpt lat="46.0569180" lon="5.7249810">
        <ele>1271.6</ele>
        <time>2022-07-25T11:24:33Z</time>
      </trkpt>
      <trkpt lat="46.0568100" lon="5.7249000">
        <ele>1271.4</ele>
        <time>2022-07-25T11:24:35Z</time>
      </trkpt>
      <trkpt lat="46.0566290" lon="5.7247640">
        <ele>1270.6</ele>
        <time>2022-07-25T11:24:39Z</time>
      </trkpt>
      <trkpt lat="46.0565600" lon="5.7247030">
        <ele>1269.4</ele>
        <time>2022-07-25T11:24:41Z</time>
      </trkpt>
      <trkpt lat="46.0564450" lon="5.7245920">
        <ele>1268.8</ele>
        <time>2022-07-25T11:24:44Z</time>
      </trkpt>
      <trkpt lat="46.0562550" lon="5.7244910">
        <ele>1268.4</ele>
        <time>2022-07-25T11:24:49Z</time>
      </trkpt>
      <trkpt lat="46.0562250" lon="5.7244750">
        <ele>1268.4</ele>
        <time>2022-07-25T11:24:50Z</time>
      </trkpt>
      <trkpt lat="46.0561960" lon="5.7244370">
        <ele>1268.2</ele>
        <time>2022-07-25T11:24:51Z</time>
      </trkpt>
      <trkpt lat="46.0561710" lon="5.7243790">
        <ele>1267.8</ele>
        <time>2022-07-25T11:24:53Z</time>
      </trkpt>
      <trkpt lat="46.0561520" lon="5.7243100">
        <ele>1267.0</ele>
        <time>2022-07-25T11:24:55Z</time>
      </trkpt>
      <trkpt lat="46.0561420" lon="5.7242750">
        <ele>1266.2</ele>
        <time>2022-07-25T11:24:56Z</time>
      </trkpt>
      <trkpt lat="46.0561330" lon="5.7242380">
        <ele>1265.6</ele>
        <time>2022-07-25T11:24:57Z</time>
      </trkpt>
      <trkpt lat="46.0561270" lon="5.7241950">
        <ele>1264.8</ele>
        <time>2022-07-25T11:24:58Z</time>
      </trkpt>
      <trkpt lat="46.0561100" lon="5.7241070">
        <ele>1264.4</ele>
        <time>2022-07-25T11:25:00Z</time>
      </trkpt>
      <trkpt lat="46.0560680" lon="5.7240070">
        <ele>1264.0</ele>
        <time>2022-07-25T11:25:03Z</time>
      </trkpt>
      <trkpt lat="46.0559780" lon="5.7239190">
        <ele>1264.2</ele>
        <time>2022-07-25T11:25:10Z</time>
      </trkpt>
      <trkpt lat="46.0559020" lon="5.7238570">
        <ele>1265.4</ele>
        <time>2022-07-25T11:25:16Z</time>
      </trkpt>
      <trkpt lat="46.0558670" lon="5.7238310">
        <ele>1266.0</ele>
        <time>2022-07-25T11:25:18Z</time>
      </trkpt>
      <trkpt lat="46.0558150" lon="5.7237860">
        <ele>1266.4</ele>
        <time>2022-07-25T11:25:20Z</time>
      </trkpt>
      <trkpt lat="46.0557490" lon="5.7236830">
        <ele>1266.6</ele>
        <time>2022-07-25T11:25:23Z</time>
      </trkpt>
      <trkpt lat="46.0556040" lon="5.7234800">
        <ele>1266.4</ele>
        <time>2022-07-25T11:25:29Z</time>
      </trkpt>
      <trkpt lat="46.0555210" lon="5.7234370">
        <ele>1265.2</ele>
        <time>2022-07-25T11:25:33Z</time>
      </trkpt>
      <trkpt lat="46.0554180" lon="5.7233670">
        <ele>1264.6</ele>
        <time>2022-07-25T11:25:38Z</time>
      </trkpt>
      <trkpt lat="46.0552950" lon="5.7233250">
        <ele>1264.4</ele>
        <time>2022-07-25T11:25:42Z</time>
      </trkpt>
      <trkpt lat="46.0552000" lon="5.7233130">
        <ele>1264.8</ele>
        <time>2022-07-25T11:25:48Z</time>
      </trkpt>
      <trkpt lat="46.0551110" lon="5.7233320">
        <ele>1265.2</ele>
        <time>2022-07-25T11:25:54Z</time>
      </trkpt>
      <trkpt lat="46.0550710" lon="5.7233360">
        <ele>1266.2</ele>
        <time>2022-07-25T11:25:57Z</time>
      </trkpt>
      <trkpt lat="46.0549780" lon="5.7233190">
        <ele>1267.0</ele>
        <time>2022-07-25T11:26:02Z</time>
      </trkpt>
      <trkpt lat="46.0549480" lon="5.7233090">
        <ele>1267.8</ele>
        <time>2022-07-25T11:26:04Z</time>
      </trkpt>
      <trkpt lat="46.0549150" lon="5.7232990">
        <ele>1268.0</ele>
        <time>2022-07-25T11:26:06Z</time>
      </trkpt>
      <trkpt lat="46.0548240" lon="5.7233150">
        <ele>1268.6</ele>
        <time>2022-07-25T11:26:10Z</time>
      </trkpt>
      <trkpt lat="46.0547700" lon="5.7233280">
        <ele>1269.2</ele>
        <time>2022-07-25T11:26:12Z</time>
      </trkpt>
      <trkpt lat="46.0546690" lon="5.7233550">
        <ele>1270.2</ele>
        <time>2022-07-25T11:26:16Z</time>
      </trkpt>
      <trkpt lat="46.0546400" lon="5.7233700">
        <ele>1270.4</ele>
        <time>2022-07-25T11:26:18Z</time>
      </trkpt>
      <trkpt lat="46.0545920" lon="5.7234000">
        <ele>1270.4</ele>
        <time>2022-07-25T11:26:22Z</time>
      </trkpt>
      <trkpt lat="46.0544760" lon="5.7234220">
        <ele>1271.4</ele>
        <time>2022-07-25T11:26:29Z</time>
      </trkpt>
      <trkpt lat="46.0544370" lon="5.7234240">
        <ele>1271.8</ele>
        <time>2022-07-25T11:26:31Z</time>
      </trkpt>
      <trkpt lat="46.0543730" lon="5.7234510">
        <ele>1272.6</ele>
        <time>2022-07-25T11:26:36Z</time>
      </trkpt>
      <trkpt lat="46.0543580" lon="5.7234530">
        <ele>1272.8</ele>
        <time>2022-07-25T11:26:37Z</time>
      </trkpt>
      <trkpt lat="46.0543450" lon="5.7234610">
        <ele>1272.8</ele>
        <time>2022-07-25T11:26:38Z</time>
      </trkpt>
      <trkpt lat="46.0543040" lon="5.7235210">
        <ele>1273.8</ele>
        <time>2022-07-25T11:26:43Z</time>
      </trkpt>
      <trkpt lat="46.0542520" lon="5.7235980">
        <ele>1274.8</ele>
        <time>2022-07-25T11:26:48Z</time>
      </trkpt>
      <trkpt lat="46.0542310" lon="5.7236300">
        <ele>1275.2</ele>
        <time>2022-07-25T11:26:50Z</time>
      </trkpt>
      <trkpt lat="46.0542230" lon="5.7236450">
        <ele>1275.4</ele>
        <time>2022-07-25T11:26:51Z</time>
      </trkpt>
      <trkpt lat="46.0541950" lon="5.7236850">
        <ele>1275.8</ele>
        <time>2022-07-25T11:26:54Z</time>
      </trkpt>
      <trkpt lat="46.0541840" lon="5.7236960">
        <ele>1276.0</ele>
        <time>2022-07-25T11:26:55Z</time>
      </trkpt>
      <trkpt lat="46.0541700" lon="5.7237090">
        <ele>1276.2</ele>
        <time>2022-07-25T11:26:56Z</time>
      </trkpt>
      <trkpt lat="46.0540960" lon="5.7237530">
        <ele>1277.0</ele>
        <time>2022-07-25T11:27:00Z</time>
      </trkpt>
      <trkpt lat="46.0540700" lon="5.7237740">
        <ele>1277.2</ele>
        <time>2022-07-25T11:27:01Z</time>
      </trkpt>
      <trkpt lat="46.0539560" lon="5.7239260">
        <ele>1277.4</ele>
        <time>2022-07-25T11:27:06Z</time>
      </trkpt>
      <trkpt lat="46.0538800" lon="5.7240590">
        <ele>1277.8</ele>
        <time>2022-07-25T11:27:12Z</time>
      </trkpt>
      <trkpt lat="46.0538600" lon="5.7242010">
        <ele>1278.0</ele>
        <time>2022-07-25T11:27:16Z</time>
      </trkpt>
      <trkpt lat="46.0538530" lon="5.7242380">
        <ele>1278.2</ele>
        <time>2022-07-25T11:27:17Z</time>
      </trkpt>
      <trkpt lat="46.0537710" lon="5.7243550">
        <ele>1278.4</ele>
        <time>2022-07-25T11:27:22Z</time>
      </trkpt>
      <trkpt lat="46.0536800" lon="5.7243550">
        <ele>1278.4</ele>
        <time>2022-07-25T11:27:26Z</time>
      </trkpt>
      <trkpt lat="46.0535760" lon="5.7243440">
        <ele>1278.4</ele>
        <time>2022-07-25T11:27:31Z</time>
      </trkpt>
      <trkpt lat="46.0534640" lon="5.7244070">
        <ele>1278.2</ele>
        <time>2022-07-25T11:27:36Z</time>
      </trkpt>
      <trkpt lat="46.0534440" lon="5.7244510">
        <ele>1277.6</ele>
        <time>2022-07-25T11:27:38Z</time>
      </trkpt>
      <trkpt lat="46.0534350" lon="5.7245060">
        <ele>1276.6</ele>
        <time>2022-07-25T11:27:40Z</time>
      </trkpt>
      <trkpt lat="46.0534360" lon="5.7245270">
        <ele>1276.0</ele>
        <time>2022-07-25T11:27:41Z</time>
      </trkpt>
      <trkpt lat="46.0534350" lon="5.7245400">
        <ele>1275.0</ele>
        <time>2022-07-25T11:27:42Z</time>
      </trkpt>
      <trkpt lat="46.0534310" lon="5.7245690">
        <ele>1274.0</ele>
        <time>2022-07-25T11:27:44Z</time>
      </trkpt>
      <trkpt lat="46.0534280" lon="5.7245890">
        <ele>1272.6</ele>
        <time>2022-07-25T11:27:46Z</time>
      </trkpt>
      <trkpt lat="46.0534260" lon="5.7245930">
        <ele>1272.2</ele>
        <time>2022-07-25T11:27:47Z</time>
      </trkpt>
      <trkpt lat="46.0533720" lon="5.7248270">
        <ele>1269.4</ele>
        <time>2022-07-25T11:29:27Z</time>
      </trkpt>
      <trkpt lat="46.0533560" lon="5.7248910">
        <ele>1269.4</ele>
        <time>2022-07-25T11:29:29Z</time>
      </trkpt>
      <trkpt lat="46.0533000" lon="5.7251030">
        <ele>1269.4</ele>
        <time>2022-07-25T11:29:33Z</time>
      </trkpt>
      <trkpt lat="46.0532610" lon="5.7252140">
        <ele>1269.4</ele>
        <time>2022-07-25T11:29:35Z</time>
      </trkpt>
      <trkpt lat="46.0531710" lon="5.7254080">
        <ele>1269.0</ele>
        <time>2022-07-25T11:29:38Z</time>
      </trkpt>
      <trkpt lat="46.0531430" lon="5.7254710">
        <ele>1268.4</ele>
        <time>2022-07-25T11:29:39Z</time>
      </trkpt>
      <trkpt lat="46.0530410" lon="5.7255980">
        <ele>1267.2</ele>
        <time>2022-07-25T11:29:42Z</time>
      </trkpt>
      <trkpt lat="46.0529870" lon="5.7256200">
        <ele>1266.0</ele>
        <time>2022-07-25T11:29:43Z</time>
      </trkpt>
      <trkpt lat="46.0527880" lon="5.7256790">
        <ele>1264.4</ele>
        <time>2022-07-25T11:29:46Z</time>
      </trkpt>
      <trkpt lat="46.0526680" lon="5.7257260">
        <ele>1263.2</ele>
        <time>2022-07-25T11:29:48Z</time>
      </trkpt>
      <trkpt lat="46.0525510" lon="5.7257820">
        <ele>1262.0</ele>
        <time>2022-07-25T11:29:50Z</time>
      </trkpt>
      <trkpt lat="46.0524900" lon="5.7258170">
        <ele>1261.6</ele>
        <time>2022-07-25T11:29:51Z</time>
      </trkpt>
      <trkpt lat="46.0524290" lon="5.7258530">
        <ele>1261.0</ele>
        <time>2022-07-25T11:29:52Z</time>
      </trkpt>
      <trkpt lat="46.0523100" lon="5.7259060">
        <ele>1260.2</ele>
        <time>2022-07-25T11:29:54Z</time>
      </trkpt>
      <trkpt lat="46.0522560" lon="5.7259150">
        <ele>1259.8</ele>
        <time>2022-07-25T11:29:55Z</time>
      </trkpt>
      <trkpt lat="46.0522010" lon="5.7259060">
        <ele>1259.6</ele>
        <time>2022-07-25T11:29:56Z</time>
      </trkpt>
      <trkpt lat="46.0521060" lon="5.7258650">
        <ele>1259.2</ele>
        <time>2022-07-25T11:29:58Z</time>
      </trkpt>
      <trkpt lat="46.0520090" lon="5.7258100">
        <ele>1258.8</ele>
        <time>2022-07-25T11:30:00Z</time>
      </trkpt>
      <trkpt lat="46.0516530" lon="5.7256330">
        <ele>1257.8</ele>
        <time>2022-07-25T11:30:06Z</time>
      </trkpt>
      <trkpt lat="46.0514380" lon="5.7255320">
        <ele>1256.6</ele>
        <time>2022-07-25T11:30:09Z</time>
      </trkpt>
      <trkpt lat="46.0511560" lon="5.7254290">
        <ele>1255.4</ele>
        <time>2022-07-25T11:30:13Z</time>
      </trkpt>
      <trkpt lat="46.0509690" lon="5.7254050">
        <ele>1253.8</ele>
        <time>2022-07-25T11:30:16Z</time>
      </trkpt>
      <trkpt lat="46.0508600" lon="5.7253950">
        <ele>1252.6</ele>
        <time>2022-07-25T11:30:18Z</time>
      </trkpt>
      <trkpt lat="46.0507220" lon="5.7253820">
        <ele>1251.0</ele>
        <time>2022-07-25T11:30:21Z</time>
      </trkpt>
      <trkpt lat="46.0506480" lon="5.7253760">
        <ele>1250.0</ele>
        <time>2022-07-25T11:30:23Z</time>
      </trkpt>
      <trkpt lat="46.0506150" lon="5.7253730">
        <ele>1249.4</ele>
        <time>2022-07-25T11:30:24Z</time>
      </trkpt>
      <trkpt lat="46.0505060" lon="5.7253510">
        <ele>1248.4</ele>
        <time>2022-07-25T11:30:27Z</time>
      </trkpt>
      <trkpt lat="46.0503940" lon="5.7253340">
        <ele>1248.0</ele>
        <time>2022-07-25T11:30:30Z</time>
      </trkpt>
      <trkpt lat="46.0501190" lon="5.7252920">
        <ele>1247.4</ele>
        <time>2022-07-25T11:30:38Z</time>
      </trkpt>
      <trkpt lat="46.0500360" lon="5.7252830">
        <ele>1247.4</ele>
        <time>2022-07-25T11:30:40Z</time>
      </trkpt>
      <trkpt lat="46.0498730" lon="5.7252610">
        <ele>1247.2</ele>
        <time>2022-07-25T11:30:43Z</time>
      </trkpt>
      <trkpt lat="46.0498110" lon="5.7252580">
        <ele>1247.2</ele>
        <time>2022-07-25T11:30:44Z</time>
      </trkpt>
      <trkpt lat="46.0495560" lon="5.7252700">
        <ele>1246.8</ele>
        <time>2022-07-25T11:30:48Z</time>
      </trkpt>
      <trkpt lat="46.0494910" lon="5.7252690">
        <ele>1246.2</ele>
        <time>2022-07-25T11:30:49Z</time>
      </trkpt>
      <trkpt lat="46.0494280" lon="5.7252610">
        <ele>1246.0</ele>
        <time>2022-07-25T11:30:50Z</time>
      </trkpt>
      <trkpt lat="46.0493070" lon="5.7252110">
        <ele>1245.4</ele>
        <time>2022-07-25T11:30:52Z</time>
      </trkpt>
      <trkpt lat="46.0492540" lon="5.7251640">
        <ele>1245.2</ele>
        <time>2022-07-25T11:30:53Z</time>
      </trkpt>
      <trkpt lat="46.0492060" lon="5.7251120">
        <ele>1245.0</ele>
        <time>2022-07-25T11:30:54Z</time>
      </trkpt>
      <trkpt lat="46.0491580" lon="5.7250650">
        <ele>1244.6</ele>
        <time>2022-07-25T11:30:55Z</time>
      </trkpt>
      <trkpt lat="46.0491130" lon="5.7250240">
        <ele>1244.4</ele>
        <time>2022-07-25T11:30:56Z</time>
      </trkpt>
      <trkpt lat="46.0490710" lon="5.7249880">
        <ele>1244.0</ele>
        <time>2022-07-25T11:30:57Z</time>
      </trkpt>
      <trkpt lat="46.0488930" lon="5.7248320">
        <ele>1243.0</ele>
        <time>2022-07-25T11:31:01Z</time>
      </trkpt>
      <trkpt lat="46.0488380" lon="5.7247940">
        <ele>1242.8</ele>
        <time>2022-07-25T11:31:02Z</time>
      </trkpt>
      <trkpt lat="46.0485840" lon="5.7246480">
        <ele>1242.4</ele>
        <time>2022-07-25T11:31:06Z</time>
      </trkpt>
      <trkpt lat="46.0484460" lon="5.7245550">
        <ele>1242.0</ele>
        <time>2022-07-25T11:31:08Z</time>
      </trkpt>
      <trkpt lat="46.0481470" lon="5.7243330">
        <ele>1241.0</ele>
        <time>2022-07-25T11:31:12Z</time>
      </trkpt>
      <trkpt lat="46.0480740" lon="5.7242820">
        <ele>1240.6</ele>
        <time>2022-07-25T11:31:13Z</time>
      </trkpt>
      <trkpt lat="46.0479130" lon="5.7242110">
        <ele>1239.4</ele>
        <time>2022-07-25T11:31:15Z</time>
      </trkpt>
      <trkpt lat="46.0478310" lon="5.7241850">
        <ele>1238.6</ele>
        <time>2022-07-25T11:31:16Z</time>
      </trkpt>
      <trkpt lat="46.0477490" lon="5.7241650">
        <ele>1237.8</ele>
        <time>2022-07-25T11:31:17Z</time>
      </trkpt>
      <trkpt lat="46.0475810" lon="5.7241390">
        <ele>1236.6</ele>
        <time>2022-07-25T11:31:19Z</time>
      </trkpt>
      <trkpt lat="46.0474210" lon="5.7241330">
        <ele>1236.0</ele>
        <time>2022-07-25T11:31:21Z</time>
      </trkpt>
      <trkpt lat="46.0472740" lon="5.7241230">
        <ele>1235.6</ele>
        <time>2022-07-25T11:31:23Z</time>
      </trkpt>
      <trkpt lat="46.0471470" lon="5.7240880">
        <ele>1234.6</ele>
        <time>2022-07-25T11:31:25Z</time>
      </trkpt>
      <trkpt lat="46.0470920" lon="5.7240760">
        <ele>1234.0</ele>
        <time>2022-07-25T11:31:26Z</time>
      </trkpt>
      <trkpt lat="46.0469480" lon="5.7240520">
        <ele>1233.0</ele>
        <time>2022-07-25T11:31:29Z</time>
      </trkpt>
      <trkpt lat="46.0468980" lon="5.7240500">
        <ele>1232.8</ele>
        <time>2022-07-25T11:31:30Z</time>
      </trkpt>
      <trkpt lat="46.0467350" lon="5.7240320">
        <ele>1232.6</ele>
        <time>2022-07-25T11:31:33Z</time>
      </trkpt>
      <trkpt lat="46.0466850" lon="5.7240150">
        <ele>1232.6</ele>
        <time>2022-07-25T11:31:34Z</time>
      </trkpt>
      <trkpt lat="46.0466010" lon="5.7239750">
        <ele>1232.4</ele>
        <time>2022-07-25T11:31:36Z</time>
      </trkpt>
      <trkpt lat="46.0465100" lon="5.7239250">
        <ele>1232.4</ele>
        <time>2022-07-25T11:31:39Z</time>
      </trkpt>
      <trkpt lat="46.0464550" lon="5.7239090">
        <ele>1232.0</ele>
        <time>2022-07-25T11:31:43Z</time>
      </trkpt>
      <trkpt lat="46.0464570" lon="5.7239080">
        <ele>1231.8</ele>
        <time>2022-07-25T11:31:44Z</time>
      </trkpt>
      <trkpt lat="46.0464170" lon="5.7238980">
        <ele>1229.8</ele>
        <time>2022-07-25T11:31:49Z</time>
      </trkpt>
      <trkpt lat="46.0463680" lon="5.7238940">
        <ele>1229.4</ele>
        <time>2022-07-25T11:31:51Z</time>
      </trkpt>
      <trkpt lat="46.0462130" lon="5.7239350">
        <ele>1229.0</ele>
        <time>2022-07-25T11:31:56Z</time>
      </trkpt>
      <trkpt lat="46.0461490" lon="5.7239620">
        <ele>1228.8</ele>
        <time>2022-07-25T11:31:58Z</time>
      </trkpt>
      <trkpt lat="46.0460520" lon="5.7240020">
        <ele>1227.8</ele>
        <time>2022-07-25T11:32:02Z</time>
      </trkpt>
      <trkpt lat="46.0460240" lon="5.7240100">
        <ele>1227.4</ele>
        <time>2022-07-25T11:32:03Z</time>
      </trkpt>
      <trkpt lat="46.0459170" lon="5.7240510">
        <ele>1226.2</ele>
        <time>2022-07-25T11:32:06Z</time>
      </trkpt>
      <trkpt lat="46.0458430" lon="5.7240940">
        <ele>1225.2</ele>
        <time>2022-07-25T11:32:09Z</time>
      </trkpt>
      <trkpt lat="46.0457760" lon="5.7241220">
        <ele>1224.4</ele>
        <time>2022-07-25T11:32:11Z</time>
      </trkpt>
      <trkpt lat="46.0457390" lon="5.7241360">
        <ele>1224.0</ele>
        <time>2022-07-25T11:32:12Z</time>
      </trkpt>
      <trkpt lat="46.0456660" lon="5.7241480">
        <ele>1222.6</ele>
        <time>2022-07-25T11:32:14Z</time>
      </trkpt>
      <trkpt lat="46.0456050" lon="5.7241350">
        <ele>1221.2</ele>
        <time>2022-07-25T11:32:16Z</time>
      </trkpt>
      <trkpt lat="46.0455310" lon="5.7240710">
        <ele>1220.0</ele>
        <time>2022-07-25T11:32:19Z</time>
      </trkpt>
      <trkpt lat="46.0454880" lon="5.7240260">
        <ele>1218.6</ele>
        <time>2022-07-25T11:32:21Z</time>
      </trkpt>
      <trkpt lat="46.0454330" lon="5.7239860">
        <ele>1217.2</ele>
        <time>2022-07-25T11:32:23Z</time>
      </trkpt>
      <trkpt lat="46.0453310" lon="5.7239660">
        <ele>1215.8</ele>
        <time>2022-07-25T11:32:26Z</time>
      </trkpt>
      <trkpt lat="46.0452340" lon="5.7239690">
        <ele>1214.8</ele>
        <time>2022-07-25T11:32:28Z</time>
      </trkpt>
      <trkpt lat="46.0451910" lon="5.7239630">
        <ele>1214.2</ele>
        <time>2022-07-25T11:32:29Z</time>
      </trkpt>
      <trkpt lat="46.0451490" lon="5.7239490">
        <ele>1213.6</ele>
        <time>2022-07-25T11:32:30Z</time>
      </trkpt>
      <trkpt lat="46.0450730" lon="5.7239000">
        <ele>1212.2</ele>
        <time>2022-07-25T11:32:32Z</time>
      </trkpt>
      <trkpt lat="46.0450100" lon="5.7238290">
        <ele>1210.8</ele>
        <time>2022-07-25T11:32:34Z</time>
      </trkpt>
      <trkpt lat="46.0449430" lon="5.7236710">
        <ele>1209.2</ele>
        <time>2022-07-25T11:32:37Z</time>
      </trkpt>
      <trkpt lat="46.0449140" lon="5.7236150">
        <ele>1208.0</ele>
        <time>2022-07-25T11:32:38Z</time>
      </trkpt>
      <trkpt lat="46.0448850" lon="5.7235730">
        <ele>1207.4</ele>
        <time>2022-07-25T11:32:39Z</time>
      </trkpt>
      <trkpt lat="46.0448480" lon="5.7235370">
        <ele>1206.8</ele>
        <time>2022-07-25T11:32:40Z</time>
      </trkpt>
      <trkpt lat="46.0448090" lon="5.7235010">
        <ele>1206.0</ele>
        <time>2022-07-25T11:32:41Z</time>
      </trkpt>
      <trkpt lat="46.0447620" lon="5.7234640">
        <ele>1205.0</ele>
        <time>2022-07-25T11:32:42Z</time>
      </trkpt>
      <trkpt lat="46.0447120" lon="5.7234300">
        <ele>1204.6</ele>
        <time>2022-07-25T11:32:43Z</time>
      </trkpt>
      <trkpt lat="46.0446610" lon="5.7233980">
        <ele>1203.8</ele>
        <time>2022-07-25T11:32:44Z</time>
      </trkpt>
      <trkpt lat="46.0445440" lon="5.7233480">
        <ele>1202.4</ele>
        <time>2022-07-25T11:32:46Z</time>
      </trkpt>
      <trkpt lat="46.0444330" lon="5.7233090">
        <ele>1201.0</ele>
        <time>2022-07-25T11:32:48Z</time>
      </trkpt>
      <trkpt lat="46.0443830" lon="5.7232840">
        <ele>1200.6</ele>
        <time>2022-07-25T11:32:49Z</time>
      </trkpt>
      <trkpt lat="46.0442970" lon="5.7232120">
        <ele>1199.6</ele>
        <time>2022-07-25T11:32:51Z</time>
      </trkpt>
      <trkpt lat="46.0442640" lon="5.7231670">
        <ele>1199.0</ele>
        <time>2022-07-25T11:32:52Z</time>
      </trkpt>
      <trkpt lat="46.0442360" lon="5.7231230">
        <ele>1198.4</ele>
        <time>2022-07-25T11:32:53Z</time>
      </trkpt>
      <trkpt lat="46.0442090" lon="5.7230840">
        <ele>1198.0</ele>
        <time>2022-07-25T11:32:54Z</time>
      </trkpt>
      <trkpt lat="46.0441850" lon="5.7230520">
        <ele>1197.0</ele>
        <time>2022-07-25T11:32:55Z</time>
      </trkpt>
      <trkpt lat="46.0441310" lon="5.7230110">
        <ele>1195.6</ele>
        <time>2022-07-25T11:32:57Z</time>
      </trkpt>
      <trkpt lat="46.0440940" lon="5.7229940">
        <ele>1195.0</ele>
        <time>2022-07-25T11:32:58Z</time>
      </trkpt>
      <trkpt lat="46.0440520" lon="5.7229840">
        <ele>1194.2</ele>
        <time>2022-07-25T11:32:59Z</time>
      </trkpt>
      <trkpt lat="46.0439760" lon="5.7229830">
        <ele>1192.6</ele>
        <time>2022-07-25T11:33:01Z</time>
      </trkpt>
      <trkpt lat="46.0439160" lon="5.7229880">
        <ele>1191.0</ele>
        <time>2022-07-25T11:33:03Z</time>
      </trkpt>
      <trkpt lat="46.0438500" lon="5.7229610">
        <ele>1189.8</ele>
        <time>2022-07-25T11:33:05Z</time>
      </trkpt>
      <trkpt lat="46.0437790" lon="5.7228860">
        <ele>1188.0</ele>
        <time>2022-07-25T11:33:07Z</time>
      </trkpt>
      <trkpt lat="46.0437120" lon="5.7227940">
        <ele>1186.6</ele>
        <time>2022-07-25T11:33:09Z</time>
      </trkpt>
      <trkpt lat="46.0436220" lon="5.7226910">
        <ele>1185.4</ele>
        <time>2022-07-25T11:33:11Z</time>
      </trkpt>
      <trkpt lat="46.0435170" lon="5.7226170">
        <ele>1184.6</ele>
        <time>2022-07-25T11:33:13Z</time>
      </trkpt>
      <trkpt lat="46.0434690" lon="5.7225980">
        <ele>1184.0</ele>
        <time>2022-07-25T11:33:14Z</time>
      </trkpt>
      <trkpt lat="46.0433730" lon="5.7225610">
        <ele>1182.4</ele>
        <time>2022-07-25T11:33:16Z</time>
      </trkpt>
      <trkpt lat="46.0433210" lon="5.7225260">
        <ele>1181.6</ele>
        <time>2022-07-25T11:33:17Z</time>
      </trkpt>
      <trkpt lat="46.0432720" lon="5.7224820">
        <ele>1181.0</ele>
        <time>2022-07-25T11:33:18Z</time>
      </trkpt>
      <trkpt lat="46.0431910" lon="5.7223460">
        <ele>1179.8</ele>
        <time>2022-07-25T11:33:20Z</time>
      </trkpt>
      <trkpt lat="46.0431350" lon="5.7221450">
        <ele>1178.4</ele>
        <time>2022-07-25T11:33:22Z</time>
      </trkpt>
      <trkpt lat="46.0431110" lon="5.7220310">
        <ele>1177.8</ele>
        <time>2022-07-25T11:33:23Z</time>
      </trkpt>
      <trkpt lat="46.0430840" lon="5.7219140">
        <ele>1177.0</ele>
        <time>2022-07-25T11:33:24Z</time>
      </trkpt>
      <trkpt lat="46.0430120" lon="5.7216770">
        <ele>1175.4</ele>
        <time>2022-07-25T11:33:26Z</time>
      </trkpt>
      <trkpt lat="46.0429750" lon="5.7215740">
        <ele>1174.6</ele>
        <time>2022-07-25T11:33:27Z</time>
      </trkpt>
      <trkpt lat="46.0429430" lon="5.7215030">
        <ele>1173.8</ele>
        <time>2022-07-25T11:33:28Z</time>
      </trkpt>
      <trkpt lat="46.0428710" lon="5.7213910">
        <ele>1172.6</ele>
        <time>2022-07-25T11:33:30Z</time>
      </trkpt>
      <trkpt lat="46.0427930" lon="5.7213330">
        <ele>1171.0</ele>
        <time>2022-07-25T11:33:32Z</time>
      </trkpt>
      <trkpt lat="46.0427650" lon="5.7213330">
        <ele>1170.0</ele>
        <time>2022-07-25T11:33:33Z</time>
      </trkpt>
      <trkpt lat="46.0427350" lon="5.7213720">
        <ele>1168.0</ele>
        <time>2022-07-25T11:33:35Z</time>
      </trkpt>
      <trkpt lat="46.0427280" lon="5.7213990">
        <ele>1167.0</ele>
        <time>2022-07-25T11:33:37Z</time>
      </trkpt>
      <trkpt lat="46.0427280" lon="5.7214010">
        <ele>1166.6</ele>
        <time>2022-07-25T11:33:39Z</time>
      </trkpt>
      <trkpt lat="46.0426830" lon="5.7214530">
        <ele>1166.0</ele>
        <time>2022-07-25T11:34:09Z</time>
      </trkpt>
      <trkpt lat="46.0426620" lon="5.7214760">
        <ele>1165.8</ele>
        <time>2022-07-25T11:34:10Z</time>
      </trkpt>
      <trkpt lat="46.0425270" lon="5.7216180">
        <ele>1165.8</ele>
        <time>2022-07-25T11:34:14Z</time>
      </trkpt>
      <trkpt lat="46.0422760" lon="5.7219250">
        <ele>1165.0</ele>
        <time>2022-07-25T11:34:21Z</time>
      </trkpt>
      <trkpt lat="46.0422050" lon="5.7220290">
        <ele>1164.8</ele>
        <time>2022-07-25T11:34:23Z</time>
      </trkpt>
      <trkpt lat="46.0420890" lon="5.7222280">
        <ele>1164.6</ele>
        <time>2022-07-25T11:34:27Z</time>
      </trkpt>
      <trkpt lat="46.0419530" lon="5.7224270">
        <ele>1163.8</ele>
        <time>2022-07-25T11:34:32Z</time>
      </trkpt>
      <trkpt lat="46.0419310" lon="5.7224590">
        <ele>1163.6</ele>
        <time>2022-07-25T11:34:33Z</time>
      </trkpt>
      <trkpt lat="46.0418020" lon="5.7226440">
        <ele>1162.8</ele>
        <time>2022-07-25T11:34:39Z</time>
      </trkpt>
      <trkpt lat="46.0417070" lon="5.7227710">
        <ele>1162.8</ele>
        <time>2022-07-25T11:34:42Z</time>
      </trkpt>
      <trkpt lat="46.0416370" lon="5.7228580">
        <ele>1162.8</ele>
        <time>2022-07-25T11:34:44Z</time>
      </trkpt>
      <trkpt lat="46.0415910" lon="5.7228950">
        <ele>1162.6</ele>
        <time>2022-07-25T11:34:45Z</time>
      </trkpt>
      <trkpt lat="46.0413620" lon="5.7230400">
        <ele>1162.2</ele>
        <time>2022-07-25T11:34:50Z</time>
      </trkpt>
      <trkpt lat="46.0412970" lon="5.7230900">
        <ele>1161.8</ele>
        <time>2022-07-25T11:34:52Z</time>
      </trkpt>
      <trkpt lat="46.0412100" lon="5.7231720">
        <ele>1161.4</ele>
        <time>2022-07-25T11:34:55Z</time>
      </trkpt>
      <trkpt lat="46.0410150" lon="5.7233130">
        <ele>1160.8</ele>
        <time>2022-07-25T11:35:00Z</time>
      </trkpt>
      <trkpt lat="46.0409750" lon="5.7233450">
        <ele>1160.6</ele>
        <time>2022-07-25T11:35:01Z</time>
      </trkpt>
      <trkpt lat="46.0408260" lon="5.7234600">
        <ele>1160.2</ele>
        <time>2022-07-25T11:35:05Z</time>
      </trkpt>
      <trkpt lat="46.0407370" lon="5.7234850">
        <ele>1160.0</ele>
        <time>2022-07-25T11:35:07Z</time>
      </trkpt>
      <trkpt lat="46.0406290" lon="5.7234900">
        <ele>1159.8</ele>
        <time>2022-07-25T11:35:09Z</time>
      </trkpt>
      <trkpt lat="46.0404510" lon="5.7234850">
        <ele>1159.8</ele>
        <time>2022-07-25T11:35:12Z</time>
      </trkpt>
      <trkpt lat="46.0402710" lon="5.7234960">
        <ele>1159.4</ele>
        <time>2022-07-25T11:35:15Z</time>
      </trkpt>
      <trkpt lat="46.0401610" lon="5.7234960">
        <ele>1158.4</ele>
        <time>2022-07-25T11:35:17Z</time>
      </trkpt>
      <trkpt lat="46.0400470" lon="5.7235120">
        <ele>1157.6</ele>
        <time>2022-07-25T11:35:19Z</time>
      </trkpt>
      <trkpt lat="46.0399880" lon="5.7235250">
        <ele>1157.2</ele>
        <time>2022-07-25T11:35:20Z</time>
      </trkpt>
      <trkpt lat="46.0398720" lon="5.7235580">
        <ele>1156.8</ele>
        <time>2022-07-25T11:35:22Z</time>
      </trkpt>
      <trkpt lat="46.0398210" lon="5.7235710">
        <ele>1156.6</ele>
        <time>2022-07-25T11:35:23Z</time>
      </trkpt>
      <trkpt lat="46.0396720" lon="5.7235610">
        <ele>1156.0</ele>
        <time>2022-07-25T11:35:26Z</time>
      </trkpt>
      <trkpt lat="46.0395780" lon="5.7235610">
        <ele>1155.4</ele>
        <time>2022-07-25T11:35:28Z</time>
      </trkpt>
      <trkpt lat="46.0393960" lon="5.7235880">
        <ele>1155.0</ele>
        <time>2022-07-25T11:35:32Z</time>
      </trkpt>
      <trkpt lat="46.0392510" lon="5.7236040">
        <ele>1154.2</ele>
        <time>2022-07-25T11:35:35Z</time>
      </trkpt>
      <trkpt lat="46.0388760" lon="5.7236690">
        <ele>1154.0</ele>
        <time>2022-07-25T11:35:42Z</time>
      </trkpt>
      <trkpt lat="46.0388250" lon="5.7236690">
        <ele>1154.0</ele>
        <time>2022-07-25T11:35:43Z</time>
      </trkpt>
      <trkpt lat="46.0384670" lon="5.7236690">
        <ele>1152.6</ele>
        <time>2022-07-25T11:35:50Z</time>
      </trkpt>
      <trkpt lat="46.0381450" lon="5.7236550">
        <ele>1151.6</ele>
        <time>2022-07-25T11:35:56Z</time>
      </trkpt>
      <trkpt lat="46.0380910" lon="5.7236530">
        <ele>1151.4</ele>
        <time>2022-07-25T11:35:57Z</time>
      </trkpt>
      <trkpt lat="46.0378130" lon="5.7236520">
        <ele>1150.6</ele>
        <time>2022-07-25T11:36:03Z</time>
      </trkpt>
      <trkpt lat="46.0377690" lon="5.7236550">
        <ele>1150.6</ele>
        <time>2022-07-25T11:36:04Z</time>
      </trkpt>
      <trkpt lat="46.0374900" lon="5.7236570">
        <ele>1149.6</ele>
        <time>2022-07-25T11:36:10Z</time>
      </trkpt>
      <trkpt lat="46.0370930" lon="5.7236490">
        <ele>1149.4</ele>
        <time>2022-07-25T11:36:19Z</time>
      </trkpt>
      <trkpt lat="46.0368000" lon="5.7236210">
        <ele>1149.4</ele>
        <time>2022-07-25T11:36:25Z</time>
      </trkpt>
      <trkpt lat="46.0365740" lon="5.7235010">
        <ele>1149.0</ele>
        <time>2022-07-25T11:36:30Z</time>
      </trkpt>
      <trkpt lat="46.0365320" lon="5.7234410">
        <ele>1148.2</ele>
        <time>2022-07-25T11:36:32Z</time>
      </trkpt>
      <trkpt lat="46.0365240" lon="5.7234240">
        <ele>1147.8</ele>
        <time>2022-07-25T11:36:33Z</time>
      </trkpt>
      <trkpt lat="46.0365190" lon="5.7234190">
        <ele>1147.4</ele>
        <time>2022-07-25T11:36:35Z</time>
      </trkpt>
      <trkpt lat="46.0364750" lon="5.7231910">
        <ele>1144.2</ele>
        <time>2022-07-25T11:37:11Z</time>
      </trkpt>
      <trkpt lat="46.0364650" lon="5.7231480">
        <ele>1144.2</ele>
        <time>2022-07-25T11:37:12Z</time>
      </trkpt>
      <trkpt lat="46.0363510" lon="5.7229010">
        <ele>1144.0</ele>
        <time>2022-07-25T11:37:17Z</time>
      </trkpt>
      <trkpt lat="46.0362930" lon="5.7228170">
        <ele>1144.0</ele>
        <time>2022-07-25T11:37:19Z</time>
      </trkpt>
      <trkpt lat="46.0361470" lon="5.7226890">
        <ele>1143.6</ele>
        <time>2022-07-25T11:37:23Z</time>
      </trkpt>
      <trkpt lat="46.0360650" lon="5.7226440">
        <ele>1143.4</ele>
        <time>2022-07-25T11:37:25Z</time>
      </trkpt>
      <trkpt lat="46.0358890" lon="5.7226080">
        <ele>1143.2</ele>
        <time>2022-07-25T11:37:29Z</time>
      </trkpt>
      <trkpt lat="46.0358520" lon="5.7226090">
        <ele>1143.0</ele>
        <time>2022-07-25T11:37:30Z</time>
      </trkpt>
      <trkpt lat="46.0356840" lon="5.7226370">
        <ele>1142.6</ele>
        <time>2022-07-25T11:37:34Z</time>
      </trkpt>
      <trkpt lat="46.0355990" lon="5.7226660">
        <ele>1142.2</ele>
        <time>2022-07-25T11:37:36Z</time>
      </trkpt>
      <trkpt lat="46.0354920" lon="5.7227020">
        <ele>1141.6</ele>
        <time>2022-07-25T11:37:39Z</time>
      </trkpt>
      <trkpt lat="46.0354310" lon="5.7227250">
        <ele>1141.0</ele>
        <time>2022-07-25T11:37:41Z</time>
      </trkpt>
      <trkpt lat="46.0353620" lon="5.7227520">
        <ele>1139.6</ele>
        <time>2022-07-25T11:37:44Z</time>
      </trkpt>
      <trkpt lat="46.0352930" lon="5.7227670">
        <ele>1138.6</ele>
        <time>2022-07-25T11:37:47Z</time>
      </trkpt>
      <trkpt lat="46.0352640" lon="5.7227770">
        <ele>1137.8</ele>
        <time>2022-07-25T11:37:49Z</time>
      </trkpt>
      <trkpt lat="46.0352470" lon="5.7227780">
        <ele>1137.4</ele>
        <time>2022-07-25T11:37:50Z</time>
      </trkpt>
      <trkpt lat="46.0351590" lon="5.7228140">
        <ele>1137.0</ele>
        <time>2022-07-25T11:37:53Z</time>
      </trkpt>
      <trkpt lat="46.0350860" lon="5.7228710">
        <ele>1136.6</ele>
        <time>2022-07-25T11:37:55Z</time>
      </trkpt>
      <trkpt lat="46.0350470" lon="5.7229040">
        <ele>1136.4</ele>
        <time>2022-07-25T11:37:56Z</time>
      </trkpt>
      <trkpt lat="46.0350130" lon="5.7229220">
        <ele>1136.0</ele>
        <time>2022-07-25T11:37:57Z</time>
      </trkpt>
      <trkpt lat="46.0348610" lon="5.7229720">
        <ele>1134.8</ele>
        <time>2022-07-25T11:38:01Z</time>
      </trkpt>
      <trkpt lat="46.0348250" lon="5.7229860">
        <ele>1134.6</ele>
        <time>2022-07-25T11:38:02Z</time>
      </trkpt>
      <trkpt lat="46.0347040" lon="5.7230330">
        <ele>1133.8</ele>
        <time>2022-07-25T11:38:06Z</time>
      </trkpt>
      <trkpt lat="46.0346350" lon="5.7230500">
        <ele>1133.0</ele>
        <time>2022-07-25T11:38:08Z</time>
      </trkpt>
      <trkpt lat="46.0345930" lon="5.7230680">
        <ele>1132.4</ele>
        <time>2022-07-25T11:38:09Z</time>
      </trkpt>
      <trkpt lat="46.0344380" lon="5.7232560">
        <ele>1131.4</ele>
        <time>2022-07-25T11:38:12Z</time>
      </trkpt>
      <trkpt lat="46.0343860" lon="5.7233340">
        <ele>1131.2</ele>
        <time>2022-07-25T11:38:13Z</time>
      </trkpt>
      <trkpt lat="46.0342760" lon="5.7234660">
        <ele>1130.6</ele>
        <time>2022-07-25T11:38:15Z</time>
      </trkpt>
      <trkpt lat="46.0342260" lon="5.7235200">
        <ele>1130.0</ele>
        <time>2022-07-25T11:38:16Z</time>
      </trkpt>
      <trkpt lat="46.0341770" lon="5.7235590">
        <ele>1129.6</ele>
        <time>2022-07-25T11:38:17Z</time>
      </trkpt>
      <trkpt lat="46.0340880" lon="5.7235760">
        <ele>1129.0</ele>
        <time>2022-07-25T11:38:19Z</time>
      </trkpt>
      <trkpt lat="46.0340080" lon="5.7235360">
        <ele>1128.4</ele>
        <time>2022-07-25T11:38:21Z</time>
      </trkpt>
      <trkpt lat="46.0339800" lon="5.7235040">
        <ele>1127.8</ele>
        <time>2022-07-25T11:38:22Z</time>
      </trkpt>
      <trkpt lat="46.0339430" lon="5.7234720">
        <ele>1126.4</ele>
        <time>2022-07-25T11:38:24Z</time>
      </trkpt>
      <trkpt lat="46.0339360" lon="5.7234670">
        <ele>1126.0</ele>
        <time>2022-07-25T11:38:25Z</time>
      </trkpt>
      <trkpt lat="46.0339190" lon="5.7234790">
        <ele>1125.2</ele>
        <time>2022-07-25T11:38:28Z</time>
      </trkpt>
      <trkpt lat="46.0338970" lon="5.7233280">
        <ele>1123.8</ele>
        <time>2022-07-25T11:39:15Z</time>
      </trkpt>
      <trkpt lat="46.0338910" lon="5.7233040">
        <ele>1124.0</ele>
        <time>2022-07-25T11:39:16Z</time>
      </trkpt>
      <trkpt lat="46.0338660" lon="5.7232300">
        <ele>1124.2</ele>
        <time>2022-07-25T11:39:19Z</time>
      </trkpt>
      <trkpt lat="46.0338320" lon="5.7231260">
        <ele>1124.8</ele>
        <time>2022-07-25T11:39:23Z</time>
      </trkpt>
      <trkpt lat="46.0338220" lon="5.7230990">
        <ele>1125.0</ele>
        <time>2022-07-25T11:39:24Z</time>
      </trkpt>
      <trkpt lat="46.0337870" lon="5.7229730">
        <ele>1126.0</ele>
        <time>2022-07-25T11:39:29Z</time>
      </trkpt>
      <trkpt lat="46.0337830" lon="5.7229500">
        <ele>1126.0</ele>
        <time>2022-07-25T11:39:30Z</time>
      </trkpt>
      <trkpt lat="46.0337550" lon="5.7228140">
        <ele>1126.6</ele>
        <time>2022-07-25T11:39:36Z</time>
      </trkpt>
      <trkpt lat="46.0337130" lon="5.7226190">
        <ele>1127.2</ele>
        <time>2022-07-25T11:39:44Z</time>
      </trkpt>
      <trkpt lat="46.0336590" lon="5.7223770">
        <ele>1128.2</ele>
        <time>2022-07-25T11:39:53Z</time>
      </trkpt>
      <trkpt lat="46.0336520" lon="5.7223490">
        <ele>1128.2</ele>
        <time>2022-07-25T11:39:54Z</time>
      </trkpt>
      <trkpt lat="46.0335870" lon="5.7221900">
        <ele>1128.8</ele>
        <time>2022-07-25T11:40:00Z</time>
      </trkpt>
      <trkpt lat="46.0334600" lon="5.7220770">
        <ele>1129.0</ele>
        <time>2022-07-25T11:40:07Z</time>
      </trkpt>
      <trkpt lat="46.0334230" lon="5.7220460">
        <ele>1129.4</ele>
        <time>2022-07-25T11:40:09Z</time>
      </trkpt>
      <trkpt lat="46.0333310" lon="5.7219770">
        <ele>1129.8</ele>
        <time>2022-07-25T11:40:14Z</time>
      </trkpt>
      <trkpt lat="46.0332270" lon="5.7219000">
        <ele>1130.4</ele>
        <time>2022-07-25T11:40:20Z</time>
      </trkpt>
      <trkpt lat="46.0331920" lon="5.7218710">
        <ele>1130.6</ele>
        <time>2022-07-25T11:40:22Z</time>
      </trkpt>
      <trkpt lat="46.0331230" lon="5.7218200">
        <ele>1131.6</ele>
        <time>2022-07-25T11:40:26Z</time>
      </trkpt>
      <trkpt lat="46.0330750" lon="5.7217690">
        <ele>1132.0</ele>
        <time>2022-07-25T11:40:29Z</time>
      </trkpt>
      <trkpt lat="46.0329740" lon="5.7216040">
        <ele>1132.0</ele>
        <time>2022-07-25T11:40:36Z</time>
      </trkpt>
      <trkpt lat="46.0328490" lon="5.7214190">
        <ele>1132.0</ele>
        <time>2022-07-25T11:40:42Z</time>
      </trkpt>
      <trkpt lat="46.0326770" lon="5.7212350">
        <ele>1131.8</ele>
        <time>2022-07-25T11:40:47Z</time>
      </trkpt>
      <trkpt lat="46.0326460" lon="5.7211850">
        <ele>1131.6</ele>
        <time>2022-07-25T11:40:48Z</time>
      </trkpt>
      <trkpt lat="46.0325490" lon="5.7210140">
        <ele>1131.2</ele>
        <time>2022-07-25T11:40:51Z</time>
      </trkpt>
      <trkpt lat="46.0325000" lon="5.7208960">
        <ele>1130.8</ele>
        <time>2022-07-25T11:40:53Z</time>
      </trkpt>
      <trkpt lat="46.0324850" lon="5.7208320">
        <ele>1130.6</ele>
        <time>2022-07-25T11:40:54Z</time>
      </trkpt>
      <trkpt lat="46.0324770" lon="5.7206020">
        <ele>1130.0</ele>
        <time>2022-07-25T11:40:57Z</time>
      </trkpt>
      <trkpt lat="46.0324900" lon="5.7205160">
        <ele>1130.0</ele>
        <time>2022-07-25T11:40:58Z</time>
      </trkpt>
      <trkpt lat="46.0325100" lon="5.7204290">
        <ele>1129.8</ele>
        <time>2022-07-25T11:40:59Z</time>
      </trkpt>
      <trkpt lat="46.0325730" lon="5.7202740">
        <ele>1129.4</ele>
        <time>2022-07-25T11:41:01Z</time>
      </trkpt>
      <trkpt lat="46.0326610" lon="5.7201330">
        <ele>1129.0</ele>
        <time>2022-07-25T11:41:03Z</time>
      </trkpt>
      <trkpt lat="46.0327670" lon="5.7199950">
        <ele>1128.4</ele>
        <time>2022-07-25T11:41:05Z</time>
      </trkpt>
      <trkpt lat="46.0328250" lon="5.7199210">
        <ele>1127.8</ele>
        <time>2022-07-25T11:41:06Z</time>
      </trkpt>
      <trkpt lat="46.0328840" lon="5.7198520">
        <ele>1127.2</ele>
        <time>2022-07-25T11:41:07Z</time>
      </trkpt>
      <trkpt lat="46.0330180" lon="5.7197310">
        <ele>1126.0</ele>
        <time>2022-07-25T11:41:09Z</time>
      </trkpt>
      <trkpt lat="46.0330910" lon="5.7196850">
        <ele>1125.2</ele>
        <time>2022-07-25T11:41:10Z</time>
      </trkpt>
      <trkpt lat="46.0331620" lon="5.7196470">
        <ele>1124.6</ele>
        <time>2022-07-25T11:41:11Z</time>
      </trkpt>
      <trkpt lat="46.0332920" lon="5.7195970">
        <ele>1123.4</ele>
        <time>2022-07-25T11:41:13Z</time>
      </trkpt>
      <trkpt lat="46.0333470" lon="5.7195910">
        <ele>1122.8</ele>
        <time>2022-07-25T11:41:14Z</time>
      </trkpt>
      <trkpt lat="46.0334400" lon="5.7196050">
        <ele>1122.2</ele>
        <time>2022-07-25T11:41:16Z</time>
      </trkpt>
      <trkpt lat="46.0335210" lon="5.7196220">
        <ele>1121.4</ele>
        <time>2022-07-25T11:41:18Z</time>
      </trkpt>
      <trkpt lat="46.0335580" lon="5.7196300">
        <ele>1121.2</ele>
        <time>2022-07-25T11:41:19Z</time>
      </trkpt>
      <trkpt lat="46.0335950" lon="5.7196340">
        <ele>1121.0</ele>
        <time>2022-07-25T11:41:20Z</time>
      </trkpt>
      <trkpt lat="46.0337500" lon="5.7196390">
        <ele>1121.0</ele>
        <time>2022-07-25T11:41:24Z</time>
      </trkpt>
      <trkpt lat="46.0340210" lon="5.7196550">
        <ele>1121.0</ele>
        <time>2022-07-25T11:41:31Z</time>
      </trkpt>
      <trkpt lat="46.0342320" lon="5.7197340">
        <ele>1121.4</ele>
        <time>2022-07-25T11:41:38Z</time>
      </trkpt>
      <trkpt lat="46.0344180" lon="5.7198280">
        <ele>1122.2</ele>
        <time>2022-07-25T11:41:45Z</time>
      </trkpt>
      <trkpt lat="46.0345870" lon="5.7198790">
        <ele>1123.2</ele>
        <time>2022-07-25T11:41:53Z</time>
      </trkpt>
      <trkpt lat="46.0346320" lon="5.7198640">
        <ele>1123.4</ele>
        <time>2022-07-25T11:41:55Z</time>
      </trkpt>
      <trkpt lat="46.0346760" lon="5.7198330">
        <ele>1123.8</ele>
        <time>2022-07-25T11:41:57Z</time>
      </trkpt>
      <trkpt lat="46.0348130" lon="5.7197090">
        <ele>1124.0</ele>
        <time>2022-07-25T11:42:01Z</time>
      </trkpt>
      <trkpt lat="46.0348890" lon="5.7196100">
        <ele>1124.0</ele>
        <time>2022-07-25T11:42:03Z</time>
      </trkpt>
      <trkpt lat="46.0350060" lon="5.7194260">
        <ele>1124.0</ele>
        <time>2022-07-25T11:42:06Z</time>
      </trkpt>
      <trkpt lat="46.0350890" lon="5.7192850">
        <ele>1123.8</ele>
        <time>2022-07-25T11:42:08Z</time>
      </trkpt>
      <trkpt lat="46.0353110" lon="5.7189440">
        <ele>1123.4</ele>
        <time>2022-07-25T11:42:12Z</time>
      </trkpt>
      <trkpt lat="46.0356800" lon="5.7184990">
        <ele>1122.0</ele>
        <time>2022-07-25T11:42:17Z</time>
      </trkpt>
      <trkpt lat="46.0357480" lon="5.7183970">
        <ele>1121.4</ele>
        <time>2022-07-25T11:42:18Z</time>
      </trkpt>
      <trkpt lat="46.0358140" lon="5.7182900">
        <ele>1121.0</ele>
        <time>2022-07-25T11:42:19Z</time>
      </trkpt>
      <trkpt lat="46.0359360" lon="5.7180680">
        <ele>1119.8</ele>
        <time>2022-07-25T11:42:21Z</time>
      </trkpt>
      <trkpt lat="46.0360940" lon="5.7177500">
        <ele>1118.2</ele>
        <time>2022-07-25T11:42:24Z</time>
      </trkpt>
      <trkpt lat="46.0361380" lon="5.7176450">
        <ele>1117.4</ele>
        <time>2022-07-25T11:42:25Z</time>
      </trkpt>
      <trkpt lat="46.0361750" lon="5.7175370">
        <ele>1116.6</ele>
        <time>2022-07-25T11:42:26Z</time>
      </trkpt>
      <trkpt lat="46.0362310" lon="5.7173210">
        <ele>1115.2</ele>
        <time>2022-07-25T11:42:28Z</time>
      </trkpt>
      <trkpt lat="46.0363280" lon="5.7170170">
        <ele>1114.0</ele>
        <time>2022-07-25T11:42:31Z</time>
      </trkpt>
      <trkpt lat="46.0364180" lon="5.7167470">
        <ele>1113.2</ele>
        <time>2022-07-25T11:42:34Z</time>
      </trkpt>
      <trkpt lat="46.0364510" lon="5.7166730">
        <ele>1113.0</ele>
        <time>2022-07-25T11:42:35Z</time>
      </trkpt>
      <trkpt lat="46.0365330" lon="5.7165490">
        <ele>1111.8</ele>
        <time>2022-07-25T11:42:37Z</time>
      </trkpt>
      <trkpt lat="46.0365810" lon="5.7164910">
        <ele>1111.4</ele>
        <time>2022-07-25T11:42:38Z</time>
      </trkpt>
      <trkpt lat="46.0366810" lon="5.7163680">
        <ele>1110.4</ele>
        <time>2022-07-25T11:42:40Z</time>
      </trkpt>
      <trkpt lat="46.0368480" lon="5.7161580">
        <ele>1108.8</ele>
        <time>2022-07-25T11:42:43Z</time>
      </trkpt>
      <trkpt lat="46.0369070" lon="5.7160810">
        <ele>1108.2</ele>
        <time>2022-07-25T11:42:44Z</time>
      </trkpt>
      <trkpt lat="46.0369710" lon="5.7160060">
        <ele>1107.6</ele>
        <time>2022-07-25T11:42:45Z</time>
      </trkpt>
      <trkpt lat="46.0371510" lon="5.7157900">
        <ele>1106.6</ele>
        <time>2022-07-25T11:42:48Z</time>
      </trkpt>
      <trkpt lat="46.0371870" lon="5.7157220">
        <ele>1106.2</ele>
        <time>2022-07-25T11:42:49Z</time>
      </trkpt>
      <trkpt lat="46.0372140" lon="5.7156520">
        <ele>1105.4</ele>
        <time>2022-07-25T11:42:50Z</time>
      </trkpt>
      <trkpt lat="46.0372440" lon="5.7155000">
        <ele>1104.4</ele>
        <time>2022-07-25T11:42:52Z</time>
      </trkpt>
      <trkpt lat="46.0372520" lon="5.7154220">
        <ele>1104.0</ele>
        <time>2022-07-25T11:42:53Z</time>
      </trkpt>
      <trkpt lat="46.0372650" lon="5.7152720">
        <ele>1103.0</ele>
        <time>2022-07-25T11:42:55Z</time>
      </trkpt>
      <trkpt lat="46.0372750" lon="5.7152010">
        <ele>1102.2</ele>
        <time>2022-07-25T11:42:56Z</time>
      </trkpt>
      <trkpt lat="46.0372880" lon="5.7151320">
        <ele>1101.6</ele>
        <time>2022-07-25T11:42:57Z</time>
      </trkpt>
      <trkpt lat="46.0373030" lon="5.7150610">
        <ele>1101.0</ele>
        <time>2022-07-25T11:42:59Z</time>
      </trkpt>
      <trkpt lat="46.0355380" lon="5.7018910">
        <ele>1044.5</ele>
        <time>2022-07-25T12:58:54Z</time>
      </trkpt>
      <trkpt lat="46.0354240" lon="5.7015820">
        <ele>1045.1</ele>
        <time>2022-07-25T12:58:55Z</time>
      </trkpt>
      <trkpt lat="46.0354100" lon="5.7015460">
        <ele>1045.2</ele>
        <time>2022-07-25T12:58:56Z</time>
      </trkpt>
      <trkpt lat="46.0354050" lon="5.7015200">
        <ele>1045.2</ele>
        <time>2022-07-25T12:58:57Z</time>
      </trkpt>
      <trkpt lat="46.0354040" lon="5.7015050">
        <ele>1045.3</ele>
        <time>2022-07-25T12:58:58Z</time>
      </trkpt>
      <trkpt lat="46.0354010" lon="5.7014800">
        <ele>1045.3</ele>
        <time>2022-07-25T12:58:59Z</time>
      </trkpt>
      <trkpt lat="46.0353970" lon="5.7014620">
        <ele>1045.3</ele>
        <time>2022-07-25T12:59:00Z</time>
      </trkpt>
      <trkpt lat="46.0353940" lon="5.7014450">
        <ele>1045.4</ele>
        <time>2022-07-25T12:59:01Z</time>
      </trkpt>
      <trkpt lat="46.0353900" lon="5.7014280">
        <ele>1045.4</ele>
        <time>2022-07-25T12:59:02Z</time>
      </trkpt>
      <trkpt lat="46.0353890" lon="5.7014200">
        <ele>1045.4</ele>
        <time>2022-07-25T12:59:03Z</time>
      </trkpt>
      <trkpt lat="46.0353880" lon="5.7014180">
        <ele>1045.4</ele>
        <time>2022-07-25T12:59:04Z</time>
      </trkpt>
      <trkpt lat="46.0353880" lon="5.7014190">
        <ele>1045.4</ele>
        <time>2022-07-25T12:59:05Z</time>
      </trkpt>
      <trkpt lat="46.0353860" lon="5.7014140">
        <ele>1045.4</ele>
        <time>2022-07-25T12:59:06Z</time>
      </trkpt>
      <trkpt lat="46.0353830" lon="5.7014080">
        <ele>1045.4</ele>
        <time>2022-07-25T12:59:07Z</time>
      </trkpt>
      <trkpt lat="46.0353830" lon="5.7014060">
        <ele>1045.4</ele>
        <time>2022-07-25T12:59:08Z</time>
      </trkpt>
      <trkpt lat="46.0353830" lon="5.7014060">
        <ele>1045.4</ele>
        <time>2022-07-25T12:59:09Z</time>
      </trkpt>
      <trkpt lat="46.0353820" lon="5.7014040">
        <ele>1045.4</ele>
        <time>2022-07-25T12:59:10Z</time>
      </trkpt>
      <trkpt lat="46.0353820" lon="5.7014020">
        <ele>1045.4</ele>
        <time>2022-07-25T12:59:11Z</time>
      </trkpt>
      <trkpt lat="46.0353840" lon="5.7013850">
        <ele>1045.4</ele>
        <time>2022-07-25T12:59:12Z</time>
      </trkpt>
      <trkpt lat="46.0353850" lon="5.7013810">
        <ele>1045.4</ele>
        <time>2022-07-25T12:59:13Z</time>
      </trkpt>
      <trkpt lat="46.0353830" lon="5.7013760">
        <ele>1045.5</ele>
        <time>2022-07-25T12:59:14Z</time>
      </trkpt>
      <trkpt lat="46.0353810" lon="5.7013710">
        <ele>1045.5</ele>
        <time>2022-07-25T12:59:15Z</time>
      </trkpt>
      <trkpt lat="46.0353780" lon="5.7013670">
        <ele>1045.5</ele>
        <time>2022-07-25T12:59:16Z</time>
      </trkpt>
      <trkpt lat="46.0353770" lon="5.7013640">
        <ele>1045.5</ele>
        <time>2022-07-25T12:59:17Z</time>
      </trkpt>
      <trkpt lat="46.0353780" lon="5.7013650">
        <ele>1045.5</ele>
        <time>2022-07-25T12:59:18Z</time>
      </trkpt>
      <trkpt lat="46.0353770" lon="5.7013660">
        <ele>1045.5</ele>
        <time>2022-07-25T12:59:19Z</time>
      </trkpt>
      <trkpt lat="46.0353770" lon="5.7013690">
        <ele>1045.5</ele>
        <time>2022-07-25T12:59:20Z</time>
      </trkpt>
      <trkpt lat="46.0353790" lon="5.7013710">
        <ele>1045.5</ele>
        <time>2022-07-25T12:59:21Z</time>
      </trkpt>
      <trkpt lat="46.0353810" lon="5.7013700">
        <ele>1045.5</ele>
        <time>2022-07-25T12:59:22Z</time>
      </trkpt>
      <trkpt lat="46.0353840" lon="5.7013680">
        <ele>1045.5</ele>
        <time>2022-07-25T12:59:23Z</time>
      </trkpt>
      <trkpt lat="46.0353860" lon="5.7013610">
        <ele>1045.5</ele>
        <time>2022-07-25T12:59:24Z</time>
      </trkpt>
      <trkpt lat="46.0353820" lon="5.7013580">
        <ele>1045.5</ele>
        <time>2022-07-25T12:59:25Z</time>
      </trkpt>
      <trkpt lat="46.0353800" lon="5.7013540">
        <ele>1045.5</ele>
        <time>2022-07-25T12:59:26Z</time>
      </trkpt>
      <trkpt lat="46.0353830" lon="5.7013650">
        <ele>1045.5</ele>
        <time>2022-07-25T12:59:27Z</time>
      </trkpt>
      <trkpt lat="46.0353900" lon="5.7013850">
        <ele>1045.6</ele>
        <time>2022-07-25T12:59:28Z</time>
      </trkpt>
      <trkpt lat="46.0353900" lon="5.7013850">
        <ele>1045.6</ele>
        <time>2022-07-25T12:59:29Z</time>
      </trkpt>
      <trkpt lat="46.0353860" lon="5.7013910">
        <ele>1045.6</ele>
        <time>2022-07-25T12:59:30Z</time>
      </trkpt>
      <trkpt lat="46.0353900" lon="5.7013950">
        <ele>1045.6</ele>
        <time>2022-07-25T12:59:31Z</time>
      </trkpt>
      <trkpt lat="46.0353940" lon="5.7013950">
        <ele>1045.6</ele>
        <time>2022-07-25T12:59:32Z</time>
      </trkpt>
      <trkpt lat="46.0353960" lon="5.7013940">
        <ele>1045.6</ele>
        <time>2022-07-25T12:59:33Z</time>
      </trkpt>
      <trkpt lat="46.0353980" lon="5.7013950">
        <ele>1045.6</ele>
        <time>2022-07-25T12:59:34Z</time>
      </trkpt>
      <trkpt lat="46.0353990" lon="5.7013950">
        <ele>1045.6</ele>
        <time>2022-07-25T12:59:35Z</time>
      </trkpt>
      <trkpt lat="46.0353970" lon="5.7013950">
        <ele>1045.6</ele>
        <time>2022-07-25T12:59:36Z</time>
      </trkpt>
      <trkpt lat="46.0353960" lon="5.7013990">
        <ele>1045.6</ele>
        <time>2022-07-25T12:59:37Z</time>
      </trkpt>
      <trkpt lat="46.0353950" lon="5.7014020">
        <ele>1045.6</ele>
        <time>2022-07-25T12:59:38Z</time>
      </trkpt>
      <trkpt lat="46.0353950" lon="5.7014070">
        <ele>1045.6</ele>
        <time>2022-07-25T12:59:39Z</time>
      </trkpt>
      <trkpt lat="46.0353960" lon="5.7014100">
        <ele>1045.6</ele>
        <time>2022-07-25T12:59:40Z</time>
      </trkpt>
      <trkpt lat="46.0353970" lon="5.7014110">
        <ele>1045.6</ele>
        <time>2022-07-25T12:59:41Z</time>
      </trkpt>
      <trkpt lat="46.0353980" lon="5.7014110">
        <ele>1045.6</ele>
        <time>2022-07-25T12:59:42Z</time>
      </trkpt>
      <trkpt lat="46.0353980" lon="5.7014100">
        <ele>1045.6</ele>
        <time>2022-07-25T12:59:43Z</time>
      </trkpt>
      <trkpt lat="46.0353970" lon="5.7014090">
        <ele>1045.6</ele>
        <time>2022-07-25T12:59:44Z</time>
      </trkpt>
      <trkpt lat="46.0353980" lon="5.7014080">
        <ele>1045.6</ele>
        <time>2022-07-25T12:59:45Z</time>
      </trkpt>
      <trkpt lat="46.0354000" lon="5.7014050">
        <ele>1045.6</ele>
        <time>2022-07-25T12:59:46Z</time>
      </trkpt>
      <trkpt lat="46.0354350" lon="5.7014180">
        <ele>1045.7</ele>
        <time>2022-07-25T12:59:54Z</time>
      </trkpt>
      <trkpt lat="46.0354370" lon="5.7014200">
        <ele>1045.7</ele>
        <time>2022-07-25T12:59:55Z</time>
      </trkpt>
      <trkpt lat="46.0354390" lon="5.7014220">
        <ele>1045.7</ele>
        <time>2022-07-25T12:59:56Z</time>
      </trkpt>
      <trkpt lat="46.0354400" lon="5.7014240">
        <ele>1045.7</ele>
        <time>2022-07-25T12:59:57Z</time>
      </trkpt>
      <trkpt lat="46.0354420" lon="5.7014240">
        <ele>1045.7</ele>
        <time>2022-07-25T12:59:58Z</time>
      </trkpt>
      <trkpt lat="46.0354430" lon="5.7014250">
        <ele>1045.7</ele>
        <time>2022-07-25T12:59:59Z</time>
      </trkpt>
      <trkpt lat="46.0354440" lon="5.7014250">
        <ele>1045.7</ele>
        <time>2022-07-25T13:00:00Z</time>
      </trkpt>
      <trkpt lat="46.0354440" lon="5.7014250">
        <ele>1045.7</ele>
        <time>2022-07-25T13:00:01Z</time>
      </trkpt>
      <trkpt lat="46.0354440" lon="5.7014250">
        <ele>1045.7</ele>
        <time>2022-07-25T13:00:02Z</time>
      </trkpt>
      <trkpt lat="46.0354490" lon="5.7014210">
        <ele>1045.7</ele>
        <time>2022-07-25T13:00:03Z</time>
      </trkpt>
      <trkpt lat="46.0354530" lon="5.7014180">
        <ele>1045.7</ele>
        <time>2022-07-25T13:00:04Z</time>
      </trkpt>
      <trkpt lat="46.0354550" lon="5.7014170">
        <ele>1045.7</ele>
        <time>2022-07-25T13:00:05Z</time>
      </trkpt>
      <trkpt lat="46.0354570" lon="5.7014150">
        <ele>1045.7</ele>
        <time>2022-07-25T13:00:06Z</time>
      </trkpt>
      <trkpt lat="46.0354570" lon="5.7014140">
        <ele>1045.7</ele>
        <time>2022-07-25T13:00:07Z</time>
      </trkpt>
      <trkpt lat="46.0354560" lon="5.7014140">
        <ele>1045.7</ele>
        <time>2022-07-25T13:00:08Z</time>
      </trkpt>
      <trkpt lat="46.0354560" lon="5.7014140">
        <ele>1045.7</ele>
        <time>2022-07-25T13:00:09Z</time>
      </trkpt>
      <trkpt lat="46.0354530" lon="5.7014100">
        <ele>1045.7</ele>
        <time>2022-07-25T13:00:10Z</time>
      </trkpt>
      <trkpt lat="46.0354510" lon="5.7014040">
        <ele>1045.7</ele>
        <time>2022-07-25T13:00:11Z</time>
      </trkpt>
      <trkpt lat="46.0354470" lon="5.7013960">
        <ele>1045.7</ele>
        <time>2022-07-25T13:00:12Z</time>
      </trkpt>
      <trkpt lat="46.0354410" lon="5.7013920">
        <ele>1045.7</ele>
        <time>2022-07-25T13:00:13Z</time>
      </trkpt>
      <trkpt lat="46.0354340" lon="5.7013880">
        <ele>1045.7</ele>
        <time>2022-07-25T13:00:14Z</time>
      </trkpt>
      <trkpt lat="46.0354290" lon="5.7013870">
        <ele>1045.7</ele>
        <time>2022-07-25T13:00:15Z</time>
      </trkpt>
      <trkpt lat="46.0354240" lon="5.7013890">
        <ele>1045.7</ele>
        <time>2022-07-25T13:00:16Z</time>
      </trkpt>
      <trkpt lat="46.0354220" lon="5.7013890">
        <ele>1045.7</ele>
        <time>2022-07-25T13:00:17Z</time>
      </trkpt>
      <trkpt lat="46.0354210" lon="5.7013880">
        <ele>1045.7</ele>
        <time>2022-07-25T13:00:18Z</time>
      </trkpt>
      <trkpt lat="46.0354210" lon="5.7013830">
        <ele>1045.7</ele>
        <time>2022-07-25T13:00:19Z</time>
      </trkpt>
      <trkpt lat="46.0354210" lon="5.7013790">
        <ele>1045.7</ele>
        <time>2022-07-25T13:00:20Z</time>
      </trkpt>
      <trkpt lat="46.0354200" lon="5.7013780">
        <ele>1045.7</ele>
        <time>2022-07-25T13:00:21Z</time>
      </trkpt>
      <trkpt lat="46.0354190" lon="5.7013780">
        <ele>1045.7</ele>
        <time>2022-07-25T13:00:22Z</time>
      </trkpt>
      <trkpt lat="46.0354170" lon="5.7013770">
        <ele>1045.7</ele>
        <time>2022-07-25T13:00:23Z</time>
      </trkpt>
      <trkpt lat="46.0354160" lon="5.7013750">
        <ele>1045.7</ele>
        <time>2022-07-25T13:00:24Z</time>
      </trkpt>
      <trkpt lat="46.0354150" lon="5.7013730">
        <ele>1045.7</ele>
        <time>2022-07-25T13:00:25Z</time>
      </trkpt>
      <trkpt lat="46.0354140" lon="5.7013720">
        <ele>1045.7</ele>
        <time>2022-07-25T13:00:26Z</time>
      </trkpt>
      <trkpt lat="46.0354130" lon="5.7013710">
        <ele>1045.7</ele>
        <time>2022-07-25T13:00:27Z</time>
      </trkpt>
      <trkpt lat="46.0354420" lon="5.7013390">
        <ele>1045.8</ele>
        <time>2022-07-25T13:00:48Z</time>
      </trkpt>
      <trkpt lat="46.0354560" lon="5.7013340">
        <ele>1045.8</ele>
        <time>2022-07-25T13:00:49Z</time>
      </trkpt>
      <trkpt lat="46.0354720" lon="5.7013340">
        <ele>1045.8</ele>
        <time>2022-07-25T13:00:50Z</time>
      </trkpt>
      <trkpt lat="46.0354840" lon="5.7013360">
        <ele>1045.8</ele>
        <time>2022-07-25T13:00:51Z</time>
      </trkpt>
      <trkpt lat="46.0355000" lon="5.7013400">
        <ele>1045.8</ele>
        <time>2022-07-25T13:00:52Z</time>
      </trkpt>
      <trkpt lat="46.0355310" lon="5.7013500">
        <ele>1045.8</ele>
        <time>2022-07-25T13:00:53Z</time>
      </trkpt>
      <trkpt lat="46.0355440" lon="5.7013540">
        <ele>1045.9</ele>
        <time>2022-07-25T13:00:54Z</time>
      </trkpt>
      <trkpt lat="46.0355840" lon="5.7013720">
        <ele>1045.9</ele>
        <time>2022-07-25T13:00:55Z</time>
      </trkpt>
      <trkpt lat="46.0355990" lon="5.7013790">
        <ele>1045.9</ele>
        <time>2022-07-25T13:00:56Z</time>
      </trkpt>
      <trkpt lat="46.0356340" lon="5.7013980">
        <ele>1045.8</ele>
        <time>2022-07-25T13:00:57Z</time>
      </trkpt>
      <trkpt lat="46.0356690" lon="5.7014140">
        <ele>1045.7</ele>
        <time>2022-07-25T13:00:58Z</time>
      </trkpt>
      <trkpt lat="46.0357140" lon="5.7014290">
        <ele>1045.5</ele>
        <time>2022-07-25T13:00:59Z</time>
      </trkpt>
      <trkpt lat="46.0357650" lon="5.7014450">
        <ele>1045.2</ele>
        <time>2022-07-25T13:01:00Z</time>
      </trkpt>
      <trkpt lat="46.0358220" lon="5.7014590">
        <ele>1044.7</ele>
        <time>2022-07-25T13:01:01Z</time>
      </trkpt>
      <trkpt lat="46.0358890" lon="5.7014880">
        <ele>1044.2</ele>
        <time>2022-07-25T13:01:02Z</time>
      </trkpt>
      <trkpt lat="46.0359520" lon="5.7015020">
        <ele>1043.7</ele>
        <time>2022-07-25T13:01:03Z</time>
      </trkpt>
      <trkpt lat="46.0360150" lon="5.7015060">
        <ele>1043.3</ele>
        <time>2022-07-25T13:01:04Z</time>
      </trkpt>
      <trkpt lat="46.0360750" lon="5.7015090">
        <ele>1042.8</ele>
        <time>2022-07-25T13:01:05Z</time>
      </trkpt>
      <trkpt lat="46.0361330" lon="5.7015180">
        <ele>1042.4</ele>
        <time>2022-07-25T13:01:06Z</time>
      </trkpt>
      <trkpt lat="46.0361890" lon="5.7015210">
        <ele>1042.0</ele>
        <time>2022-07-25T13:01:07Z</time>
      </trkpt>
      <trkpt lat="46.0362510" lon="5.7015120">
        <ele>1041.6</ele>
        <time>2022-07-25T13:01:08Z</time>
      </trkpt>
      <trkpt lat="46.0363160" lon="5.7015000">
        <ele>1041.2</ele>
        <time>2022-07-25T13:01:09Z</time>
      </trkpt>
      <trkpt lat="46.0363870" lon="5.7014820">
        <ele>1040.7</ele>
        <time>2022-07-25T13:01:10Z</time>
      </trkpt>
      <trkpt lat="46.0364600" lon="5.7014650">
        <ele>1040.3</ele>
        <time>2022-07-25T13:01:11Z</time>
      </trkpt>
      <trkpt lat="46.0365360" lon="5.7014480">
        <ele>1039.8</ele>
        <time>2022-07-25T13:01:12Z</time>
      </trkpt>
      <trkpt lat="46.0366140" lon="5.7014360">
        <ele>1039.4</ele>
        <time>2022-07-25T13:01:13Z</time>
      </trkpt>
      <trkpt lat="46.0366970" lon="5.7014220">
        <ele>1039.2</ele>
        <time>2022-07-25T13:01:14Z</time>
      </trkpt>
      <trkpt lat="46.0367810" lon="5.7014140">
        <ele>1039.1</ele>
        <time>2022-07-25T13:01:15Z</time>
      </trkpt>
      <trkpt lat="46.0368570" lon="5.7014140">
        <ele>1039.1</ele>
        <time>2022-07-25T13:01:16Z</time>
      </trkpt>
      <trkpt lat="46.0369380" lon="5.7014220">
        <ele>1039.1</ele>
        <time>2022-07-25T13:01:17Z</time>
      </trkpt>
      <trkpt lat="46.0370160" lon="5.7014270">
        <ele>1039.3</ele>
        <time>2022-07-25T13:01:18Z</time>
      </trkpt>
      <trkpt lat="46.0370880" lon="5.7014330">
        <ele>1039.4</ele>
        <time>2022-07-25T13:01:19Z</time>
      </trkpt>
      <trkpt lat="46.0371530" lon="5.7014370">
        <ele>1039.5</ele>
        <time>2022-07-25T13:01:20Z</time>
      </trkpt>
      <trkpt lat="46.0372170" lon="5.7014420">
        <ele>1039.7</ele>
        <time>2022-07-25T13:01:21Z</time>
      </trkpt>
      <trkpt lat="46.0372800" lon="5.7014520">
        <ele>1039.7</ele>
        <time>2022-07-25T13:01:22Z</time>
      </trkpt>
      <trkpt lat="46.0373410" lon="5.7014530">
        <ele>1039.8</ele>
        <time>2022-07-25T13:01:23Z</time>
      </trkpt>
      <trkpt lat="46.0374010" lon="5.7014530">
        <ele>1039.8</ele>
        <time>2022-07-25T13:01:24Z</time>
      </trkpt>
      <trkpt lat="46.0374570" lon="5.7014620">
        <ele>1039.8</ele>
        <time>2022-07-25T13:01:25Z</time>
      </trkpt>
      <trkpt lat="46.0375150" lon="5.7014710">
        <ele>1039.8</ele>
        <time>2022-07-25T13:01:26Z</time>
      </trkpt>
      <trkpt lat="46.0375740" lon="5.7014780">
        <ele>1039.7</ele>
        <time>2022-07-25T13:01:27Z</time>
      </trkpt>
      <trkpt lat="46.0376300" lon="5.7014840">
        <ele>1039.7</ele>
        <time>2022-07-25T13:01:28Z</time>
      </trkpt>
      <trkpt lat="46.0376840" lon="5.7014840">
        <ele>1039.6</ele>
        <time>2022-07-25T13:01:29Z</time>
      </trkpt>
      <trkpt lat="46.0377390" lon="5.7014850">
        <ele>1039.5</ele>
        <time>2022-07-25T13:01:30Z</time>
      </trkpt>
      <trkpt lat="46.0378000" lon="5.7014830">
        <ele>1039.3</ele>
        <time>2022-07-25T13:01:31Z</time>
      </trkpt>
      <trkpt lat="46.0378620" lon="5.7014760">
        <ele>1039.2</ele>
        <time>2022-07-25T13:01:32Z</time>
      </trkpt>
      <trkpt lat="46.0379240" lon="5.7014790">
        <ele>1039.1</ele>
        <time>2022-07-25T13:01:33Z</time>
      </trkpt>
      <trkpt lat="46.0379830" lon="5.7014810">
        <ele>1038.9</ele>
        <time>2022-07-25T13:01:34Z</time>
      </trkpt>
      <trkpt lat="46.0380430" lon="5.7014850">
        <ele>1038.8</ele>
        <time>2022-07-25T13:01:35Z</time>
      </trkpt>
      <trkpt lat="46.0381010" lon="5.7014890">
        <ele>1038.7</ele>
        <time>2022-07-25T13:01:36Z</time>
      </trkpt>
      <trkpt lat="46.0381570" lon="5.7014940">
        <ele>1038.6</ele>
        <time>2022-07-25T13:01:37Z</time>
      </trkpt>
      <trkpt lat="46.0382130" lon="5.7015020">
        <ele>1038.4</ele>
        <time>2022-07-25T13:01:38Z</time>
      </trkpt>
      <trkpt lat="46.0382730" lon="5.7015100">
        <ele>1038.1</ele>
        <time>2022-07-25T13:01:39Z</time>
      </trkpt>
      <trkpt lat="46.0383250" lon="5.7015190">
        <ele>1037.8</ele>
        <time>2022-07-25T13:01:40Z</time>
      </trkpt>
      <trkpt lat="46.0383770" lon="5.7015260">
        <ele>1037.5</ele>
        <time>2022-07-25T13:01:41Z</time>
      </trkpt>
      <trkpt lat="46.0384290" lon="5.7015290">
        <ele>1037.1</ele>
        <time>2022-07-25T13:01:42Z</time>
      </trkpt>
      <trkpt lat="46.0384810" lon="5.7015230">
        <ele>1036.8</ele>
        <time>2022-07-25T13:01:43Z</time>
      </trkpt>
      <trkpt lat="46.0385340" lon="5.7015100">
        <ele>1036.4</ele>
        <time>2022-07-25T13:01:44Z</time>
      </trkpt>
      <trkpt lat="46.0385850" lon="5.7014860">
        <ele>1036.1</ele>
        <time>2022-07-25T13:01:45Z</time>
      </trkpt>
      <trkpt lat="46.0386340" lon="5.7014540">
        <ele>1035.8</ele>
        <time>2022-07-25T13:01:46Z</time>
      </trkpt>
      <trkpt lat="46.0386800" lon="5.7014280">
        <ele>1035.5</ele>
        <time>2022-07-25T13:01:47Z</time>
      </trkpt>
      <trkpt lat="46.0387250" lon="5.7014000">
        <ele>1035.3</ele>
        <time>2022-07-25T13:01:48Z</time>
      </trkpt>
      <trkpt lat="46.0387630" lon="5.7013710">
        <ele>1035.1</ele>
        <time>2022-07-25T13:01:49Z</time>
      </trkpt>
      <trkpt lat="46.0387860" lon="5.7013450">
        <ele>1034.4</ele>
        <time>2022-07-25T13:01:50Z</time>
      </trkpt>
      <trkpt lat="46.0388100" lon="5.7013000">
        <ele>1034.3</ele>
        <time>2022-07-25T13:01:51Z</time>
      </trkpt>
      <trkpt lat="46.0388410" lon="5.7012320">
        <ele>1034.1</ele>
        <time>2022-07-25T13:01:52Z</time>
      </trkpt>
      <trkpt lat="46.0388630" lon="5.7011550">
        <ele>1034.0</ele>
        <time>2022-07-25T13:01:53Z</time>
      </trkpt>
      <trkpt lat="46.0388630" lon="5.7010790">
        <ele>1033.8</ele>
        <time>2022-07-25T13:01:54Z</time>
      </trkpt>
      <trkpt lat="46.0388530" lon="5.7010020">
        <ele>1033.6</ele>
        <time>2022-07-25T13:01:55Z</time>
      </trkpt>
      <trkpt lat="46.0388350" lon="5.7009320">
        <ele>1033.5</ele>
        <time>2022-07-25T13:01:56Z</time>
      </trkpt>
      <trkpt lat="46.0388160" lon="5.7008590">
        <ele>1033.3</ele>
        <time>2022-07-25T13:01:57Z</time>
      </trkpt>
      <trkpt lat="46.0388100" lon="5.7007790">
        <ele>1033.1</ele>
        <time>2022-07-25T13:01:58Z</time>
      </trkpt>
      <trkpt lat="46.0388060" lon="5.7006970">
        <ele>1032.9</ele>
        <time>2022-07-25T13:01:59Z</time>
      </trkpt>
      <trkpt lat="46.0388080" lon="5.7006090">
        <ele>1032.7</ele>
        <time>2022-07-25T13:02:00Z</time>
      </trkpt>
      <trkpt lat="46.0388120" lon="5.7005240">
        <ele>1033.2</ele>
        <time>2022-07-25T13:02:01Z</time>
      </trkpt>
      <trkpt lat="46.0388270" lon="5.7004460">
        <ele>1033.6</ele>
        <time>2022-07-25T13:02:02Z</time>
      </trkpt>
      <trkpt lat="46.0388400" lon="5.7003830">
        <ele>1034.0</ele>
        <time>2022-07-25T13:02:03Z</time>
      </trkpt>
      <trkpt lat="46.0388550" lon="5.7003300">
        <ele>1034.4</ele>
        <time>2022-07-25T13:02:04Z</time>
      </trkpt>
      <trkpt lat="46.0388600" lon="5.7003110">
        <ele>1034.5</ele>
        <time>2022-07-25T13:02:05Z</time>
      </trkpt>
      <trkpt lat="46.0388670" lon="5.7002690">
        <ele>1034.8</ele>
        <time>2022-07-25T13:02:06Z</time>
      </trkpt>
      <trkpt lat="46.0388700" lon="5.7002250">
        <ele>1035.1</ele>
        <time>2022-07-25T13:02:07Z</time>
      </trkpt>
      <trkpt lat="46.0388700" lon="5.7002140">
        <ele>1035.2</ele>
        <time>2022-07-25T13:02:08Z</time>
      </trkpt>
      <trkpt lat="46.0388740" lon="5.7001860">
        <ele>1035.4</ele>
        <time>2022-07-25T13:02:09Z</time>
      </trkpt>
      <trkpt lat="46.0388760" lon="5.7001740">
        <ele>1035.5</ele>
        <time>2022-07-25T13:02:10Z</time>
      </trkpt>
      <trkpt lat="46.0388780" lon="5.7001610">
        <ele>1035.6</ele>
        <time>2022-07-25T13:02:11Z</time>
      </trkpt>
      <trkpt lat="46.0388800" lon="5.7001320">
        <ele>1035.8</ele>
        <time>2022-07-25T13:02:12Z</time>
      </trkpt>
      <trkpt lat="46.0388810" lon="5.7001170">
        <ele>1035.9</ele>
        <time>2022-07-25T13:02:13Z</time>
      </trkpt>
      <trkpt lat="46.0388810" lon="5.7001020">
        <ele>1036.0</ele>
        <time>2022-07-25T13:02:14Z</time>
      </trkpt>
      <trkpt lat="46.0388850" lon="5.7000610">
        <ele>1036.3</ele>
        <time>2022-07-25T13:02:15Z</time>
      </trkpt>
      <trkpt lat="46.0388860" lon="5.7000490">
        <ele>1036.4</ele>
        <time>2022-07-25T13:02:16Z</time>
      </trkpt>
      <trkpt lat="46.0388870" lon="5.7000360">
        <ele>1036.5</ele>
        <time>2022-07-25T13:02:17Z</time>
      </trkpt>
      <trkpt lat="46.0388920" lon="5.7000080">
        <ele>1036.7</ele>
        <time>2022-07-25T13:02:18Z</time>
      </trkpt>
      <trkpt lat="46.0388990" lon="5.6999850">
        <ele>1036.9</ele>
        <time>2022-07-25T13:02:19Z</time>
      </trkpt>
      <trkpt lat="46.0389050" lon="5.6999710">
        <ele>1037.1</ele>
        <time>2022-07-25T13:02:20Z</time>
      </trkpt>
      <trkpt lat="46.0389110" lon="5.6999530">
        <ele>1037.3</ele>
        <time>2022-07-25T13:02:21Z</time>
      </trkpt>
      <trkpt lat="46.0389160" lon="5.6999310">
        <ele>1037.4</ele>
        <time>2022-07-25T13:02:22Z</time>
      </trkpt>
      <trkpt lat="46.0389260" lon="5.6998880">
        <ele>1037.7</ele>
        <time>2022-07-25T13:02:23Z</time>
      </trkpt>
      <trkpt lat="46.0389290" lon="5.6998770">
        <ele>1037.8</ele>
        <time>2022-07-25T13:02:24Z</time>
      </trkpt>
      <trkpt lat="46.0389340" lon="5.6998560">
        <ele>1038.0</ele>
        <time>2022-07-25T13:02:25Z</time>
      </trkpt>
      <trkpt lat="46.0389410" lon="5.6998400">
        <ele>1038.1</ele>
        <time>2022-07-25T13:02:26Z</time>
      </trkpt>
      <trkpt lat="46.0389490" lon="5.6998130">
        <ele>1038.3</ele>
        <time>2022-07-25T13:02:27Z</time>
      </trkpt>
      <trkpt lat="46.0389520" lon="5.6998020">
        <ele>1038.4</ele>
        <time>2022-07-25T13:02:28Z</time>
      </trkpt>
      <trkpt lat="46.0389540" lon="5.6997910">
        <ele>1038.5</ele>
        <time>2022-07-25T13:02:29Z</time>
      </trkpt>
      <trkpt lat="46.0389580" lon="5.6997720">
        <ele>1038.6</ele>
        <time>2022-07-25T13:02:30Z</time>
      </trkpt>
      <trkpt lat="46.0389670" lon="5.6997510">
        <ele>1038.8</ele>
        <time>2022-07-25T13:02:31Z</time>
      </trkpt>
      <trkpt lat="46.0389760" lon="5.6997350">
        <ele>1038.9</ele>
        <time>2022-07-25T13:02:32Z</time>
      </trkpt>
      <trkpt lat="46.0389850" lon="5.6997210">
        <ele>1039.1</ele>
        <time>2022-07-25T13:02:33Z</time>
      </trkpt>
      <trkpt lat="46.0389960" lon="5.6997060">
        <ele>1039.2</ele>
        <time>2022-07-25T13:02:34Z</time>
      </trkpt>
      <trkpt lat="46.0390050" lon="5.6996920">
        <ele>1039.3</ele>
        <time>2022-07-25T13:02:35Z</time>
      </trkpt>
      <trkpt lat="46.0390170" lon="5.6996750">
        <ele>1039.5</ele>
        <time>2022-07-25T13:02:36Z</time>
      </trkpt>
      <trkpt lat="46.0390250" lon="5.6996640">
        <ele>1039.6</ele>
        <time>2022-07-25T13:02:37Z</time>
      </trkpt>
      <trkpt lat="46.0390390" lon="5.6996410">
        <ele>1039.8</ele>
        <time>2022-07-25T13:02:38Z</time>
      </trkpt>
      <trkpt lat="46.0390440" lon="5.6996310">
        <ele>1039.9</ele>
        <time>2022-07-25T13:02:39Z</time>
      </trkpt>
      <trkpt lat="46.0390490" lon="5.6996220">
        <ele>1040.0</ele>
        <time>2022-07-25T13:02:40Z</time>
      </trkpt>
      <trkpt lat="46.0390570" lon="5.6996000">
        <ele>1040.2</ele>
        <time>2022-07-25T13:02:41Z</time>
      </trkpt>
      <trkpt lat="46.0390630" lon="5.6995860">
        <ele>1040.3</ele>
        <time>2022-07-25T13:02:42Z</time>
      </trkpt>
      <trkpt lat="46.0390700" lon="5.6995710">
        <ele>1040.4</ele>
        <time>2022-07-25T13:02:43Z</time>
      </trkpt>
      <trkpt lat="46.0390780" lon="5.6995540">
        <ele>1040.6</ele>
        <time>2022-07-25T13:02:44Z</time>
      </trkpt>
      <trkpt lat="46.0390900" lon="5.6995300">
        <ele>1040.8</ele>
        <time>2022-07-25T13:02:45Z</time>
      </trkpt>
      <trkpt lat="46.0390960" lon="5.6995190">
        <ele>1040.9</ele>
        <time>2022-07-25T13:02:46Z</time>
      </trkpt>
      <trkpt lat="46.0391010" lon="5.6995090">
        <ele>1041.0</ele>
        <time>2022-07-25T13:02:47Z</time>
      </trkpt>
      <trkpt lat="46.0391170" lon="5.6994810">
        <ele>1041.2</ele>
        <time>2022-07-25T13:02:48Z</time>
      </trkpt>
      <trkpt lat="46.0391230" lon="5.6994720">
        <ele>1041.3</ele>
        <time>2022-07-25T13:02:49Z</time>
      </trkpt>
      <trkpt lat="46.0391290" lon="5.6994620">
        <ele>1041.4</ele>
        <time>2022-07-25T13:02:50Z</time>
      </trkpt>
      <trkpt lat="46.0391410" lon="5.6994430">
        <ele>1041.6</ele>
        <time>2022-07-25T13:02:51Z</time>
      </trkpt>
      <trkpt lat="46.0391500" lon="5.6994270">
        <ele>1041.7</ele>
        <time>2022-07-25T13:02:52Z</time>
      </trkpt>
      <trkpt lat="46.0391550" lon="5.6994150">
        <ele>1041.8</ele>
        <time>2022-07-25T13:02:53Z</time>
      </trkpt>
      <trkpt lat="46.0391600" lon="5.6994020">
        <ele>1042.0</ele>
        <time>2022-07-25T13:02:54Z</time>
      </trkpt>
      <trkpt lat="46.0391650" lon="5.6993870">
        <ele>1042.1</ele>
        <time>2022-07-25T13:02:55Z</time>
      </trkpt>
      <trkpt lat="46.0391700" lon="5.6993690">
        <ele>1042.2</ele>
        <time>2022-07-25T13:02:56Z</time>
      </trkpt>
      <trkpt lat="46.0391750" lon="5.6993480">
        <ele>1042.4</ele>
        <time>2022-07-25T13:02:57Z</time>
      </trkpt>
      <trkpt lat="46.0391810" lon="5.6993290">
        <ele>1042.6</ele>
        <time>2022-07-25T13:02:58Z</time>
      </trkpt>
      <trkpt lat="46.0391890" lon="5.6993100">
        <ele>1042.7</ele>
        <time>2022-07-25T13:02:59Z</time>
      </trkpt>
      <trkpt lat="46.0391970" lon="5.6992940">
        <ele>1042.9</ele>
        <time>2022-07-25T13:03:00Z</time>
      </trkpt>
      <trkpt lat="46.0392050" lon="5.6992760">
        <ele>1043.1</ele>
        <time>2022-07-25T13:03:01Z</time>
      </trkpt>
      <trkpt lat="46.0392170" lon="5.6992500">
        <ele>1043.3</ele>
        <time>2022-07-25T13:03:02Z</time>
      </trkpt>
      <trkpt lat="46.0392230" lon="5.6992360">
        <ele>1043.4</ele>
        <time>2022-07-25T13:03:03Z</time>
      </trkpt>
      <trkpt lat="46.0392290" lon="5.6992230">
        <ele>1043.6</ele>
        <time>2022-07-25T13:03:04Z</time>
      </trkpt>
      <trkpt lat="46.0392370" lon="5.6992010">
        <ele>1043.8</ele>
        <time>2022-07-25T13:03:05Z</time>
      </trkpt>
      <trkpt lat="46.0392440" lon="5.6991830">
        <ele>1043.9</ele>
        <time>2022-07-25T13:03:06Z</time>
      </trkpt>
      <trkpt lat="46.0392490" lon="5.6991640">
        <ele>1044.1</ele>
        <time>2022-07-25T13:03:07Z</time>
      </trkpt>
      <trkpt lat="46.0392560" lon="5.6991430">
        <ele>1044.3</ele>
        <time>2022-07-25T13:03:08Z</time>
      </trkpt>
      <trkpt lat="46.0392650" lon="5.6991120">
        <ele>1044.6</ele>
        <time>2022-07-25T13:03:09Z</time>
      </trkpt>
      <trkpt lat="46.0392680" lon="5.6991010">
        <ele>1044.6</ele>
        <time>2022-07-25T13:03:10Z</time>
      </trkpt>
      <trkpt lat="46.0392720" lon="5.6990900">
        <ele>1044.7</ele>
        <time>2022-07-25T13:03:11Z</time>
      </trkpt>
      <trkpt lat="46.0392790" lon="5.6990690">
        <ele>1044.9</ele>
        <time>2022-07-25T13:03:12Z</time>
      </trkpt>
      <trkpt lat="46.0392870" lon="5.6990490">
        <ele>1045.1</ele>
        <time>2022-07-25T13:03:13Z</time>
      </trkpt>
      <trkpt lat="46.0392940" lon="5.6990300">
        <ele>1045.3</ele>
        <time>2022-07-25T13:03:14Z</time>
      </trkpt>
      <trkpt lat="46.0393020" lon="5.6990090">
        <ele>1045.5</ele>
        <time>2022-07-25T13:03:15Z</time>
      </trkpt>
      <trkpt lat="46.0393110" lon="5.6989890">
        <ele>1045.7</ele>
        <time>2022-07-25T13:03:16Z</time>
      </trkpt>
      <trkpt lat="46.0393200" lon="5.6989700">
        <ele>1045.9</ele>
        <time>2022-07-25T13:03:17Z</time>
      </trkpt>
      <trkpt lat="46.0393300" lon="5.6989550">
        <ele>1046.0</ele>
        <time>2022-07-25T13:03:18Z</time>
      </trkpt>
      <trkpt lat="46.0393410" lon="5.6989400">
        <ele>1046.2</ele>
        <time>2022-07-25T13:03:19Z</time>
      </trkpt>
      <trkpt lat="46.0393630" lon="5.6989140">
        <ele>1046.5</ele>
        <time>2022-07-25T13:03:20Z</time>
      </trkpt>
      <trkpt lat="46.0393710" lon="5.6989060">
        <ele>1046.6</ele>
        <time>2022-07-25T13:03:21Z</time>
      </trkpt>
      <trkpt lat="46.0393860" lon="5.6988870">
        <ele>1046.8</ele>
        <time>2022-07-25T13:03:22Z</time>
      </trkpt>
      <trkpt lat="46.0393950" lon="5.6988690">
        <ele>1046.9</ele>
        <time>2022-07-25T13:03:23Z</time>
      </trkpt>
      <trkpt lat="46.0394050" lon="5.6988490">
        <ele>1047.1</ele>
        <time>2022-07-25T13:03:24Z</time>
      </trkpt>
      <trkpt lat="46.0394120" lon="5.6988330">
        <ele>1047.2</ele>
        <time>2022-07-25T13:03:25Z</time>
      </trkpt>
      <trkpt lat="46.0394190" lon="5.6988200">
        <ele>1047.3</ele>
        <time>2022-07-25T13:03:26Z</time>
      </trkpt>
      <trkpt lat="46.0394320" lon="5.6988030">
        <ele>1047.4</ele>
        <time>2022-07-25T13:03:27Z</time>
      </trkpt>
      <trkpt lat="46.0394470" lon="5.6987900">
        <ele>1047.5</ele>
        <time>2022-07-25T13:03:28Z</time>
      </trkpt>
      <trkpt lat="46.0394610" lon="5.6987800">
        <ele>1047.7</ele>
        <time>2022-07-25T13:03:29Z</time>
      </trkpt>
      <trkpt lat="46.0394760" lon="5.6987720">
        <ele>1047.7</ele>
        <time>2022-07-25T13:03:30Z</time>
      </trkpt>
      <trkpt lat="46.0394900" lon="5.6987620">
        <ele>1047.8</ele>
        <time>2022-07-25T13:03:31Z</time>
      </trkpt>
      <trkpt lat="46.0395090" lon="5.6987400">
        <ele>1048.0</ele>
        <time>2022-07-25T13:03:32Z</time>
      </trkpt>
      <trkpt lat="46.0395170" lon="5.6987310">
        <ele>1048.0</ele>
        <time>2022-07-25T13:03:33Z</time>
      </trkpt>
      <trkpt lat="46.0395250" lon="5.6987220">
        <ele>1048.1</ele>
        <time>2022-07-25T13:03:34Z</time>
      </trkpt>
      <trkpt lat="46.0395400" lon="5.6987140">
        <ele>1048.1</ele>
        <time>2022-07-25T13:03:35Z</time>
      </trkpt>
      <trkpt lat="46.0395540" lon="5.6987080">
        <ele>1048.2</ele>
        <time>2022-07-25T13:03:36Z</time>
      </trkpt>
      <trkpt lat="46.0395780" lon="5.6986920">
        <ele>1048.3</ele>
        <time>2022-07-25T13:03:37Z</time>
      </trkpt>
      <trkpt lat="46.0395880" lon="5.6986850">
        <ele>1048.3</ele>
        <time>2022-07-25T13:03:38Z</time>
      </trkpt>
      <trkpt lat="46.0396210" lon="5.6986650">
        <ele>1048.4</ele>
        <time>2022-07-25T13:03:39Z</time>
      </trkpt>
      <trkpt lat="46.0396320" lon="5.6986590">
        <ele>1048.4</ele>
        <time>2022-07-25T13:03:40Z</time>
      </trkpt>
      <trkpt lat="46.0396600" lon="5.6986430">
        <ele>1048.5</ele>
        <time>2022-07-25T13:03:41Z</time>
      </trkpt>
      <trkpt lat="46.0396850" lon="5.6986280">
        <ele>1048.5</ele>
        <time>2022-07-25T13:03:42Z</time>
      </trkpt>
      <trkpt lat="46.0397100" lon="5.6986130">
        <ele>1048.5</ele>
        <time>2022-07-25T13:03:43Z</time>
      </trkpt>
      <trkpt lat="46.0397480" lon="5.6985900">
        <ele>1048.5</ele>
        <time>2022-07-25T13:03:44Z</time>
      </trkpt>
      <trkpt lat="46.0397620" lon="5.6985830">
        <ele>1048.5</ele>
        <time>2022-07-25T13:03:45Z</time>
      </trkpt>
      <trkpt lat="46.0397950" lon="5.6985620">
        <ele>1048.5</ele>
        <time>2022-07-25T13:03:46Z</time>
      </trkpt>
      <trkpt lat="46.0398050" lon="5.6985540">
        <ele>1048.5</ele>
        <time>2022-07-25T13:03:47Z</time>
      </trkpt>
      <trkpt lat="46.0398330" lon="5.6985290">
        <ele>1048.5</ele>
        <time>2022-07-25T13:03:48Z</time>
      </trkpt>
      <trkpt lat="46.0398420" lon="5.6985210">
        <ele>1048.5</ele>
        <time>2022-07-25T13:03:49Z</time>
      </trkpt>
      <trkpt lat="46.0398700" lon="5.6984880">
        <ele>1048.5</ele>
        <time>2022-07-25T13:03:50Z</time>
      </trkpt>
      <trkpt lat="46.0398800" lon="5.6984760">
        <ele>1048.5</ele>
        <time>2022-07-25T13:03:51Z</time>
      </trkpt>
      <trkpt lat="46.0399050" lon="5.6984430">
        <ele>1048.5</ele>
        <time>2022-07-25T13:03:52Z</time>
      </trkpt>
      <trkpt lat="46.0399140" lon="5.6984320">
        <ele>1048.5</ele>
        <time>2022-07-25T13:03:53Z</time>
      </trkpt>
      <trkpt lat="46.0399380" lon="5.6983990">
        <ele>1048.5</ele>
        <time>2022-07-25T13:03:54Z</time>
      </trkpt>
      <trkpt lat="46.0399680" lon="5.6983600">
        <ele>1048.6</ele>
        <time>2022-07-25T13:03:55Z</time>
      </trkpt>
      <trkpt lat="46.0399770" lon="5.6983470">
        <ele>1048.6</ele>
        <time>2022-07-25T13:03:56Z</time>
      </trkpt>
      <trkpt lat="46.0400050" lon="5.6983050">
        <ele>1048.6</ele>
        <time>2022-07-25T13:03:57Z</time>
      </trkpt>
      <trkpt lat="46.0400160" lon="5.6982880">
        <ele>1048.7</ele>
        <time>2022-07-25T13:03:58Z</time>
      </trkpt>
      <trkpt lat="46.0400420" lon="5.6982370">
        <ele>1048.8</ele>
        <time>2022-07-25T13:03:59Z</time>
      </trkpt>
      <trkpt lat="46.0400540" lon="5.6982160">
        <ele>1048.9</ele>
        <time>2022-07-25T13:04:00Z</time>
      </trkpt>
      <trkpt lat="46.0400700" lon="5.6981850">
        <ele>1049.0</ele>
        <time>2022-07-25T13:04:01Z</time>
      </trkpt>
      <trkpt lat="46.0400900" lon="5.6981410">
        <ele>1049.1</ele>
        <time>2022-07-25T13:04:02Z</time>
      </trkpt>
      <trkpt lat="46.0400950" lon="5.6981270">
        <ele>1049.2</ele>
        <time>2022-07-25T13:04:03Z</time>
      </trkpt>
      <trkpt lat="46.0401110" lon="5.6980880">
        <ele>1049.4</ele>
        <time>2022-07-25T13:04:04Z</time>
      </trkpt>
      <trkpt lat="46.0401170" lon="5.6980740">
        <ele>1049.5</ele>
        <time>2022-07-25T13:04:05Z</time>
      </trkpt>
      <trkpt lat="46.0401290" lon="5.6980340">
        <ele>1049.7</ele>
        <time>2022-07-25T13:04:06Z</time>
      </trkpt>
      <trkpt lat="46.0401330" lon="5.6980210">
        <ele>1049.8</ele>
        <time>2022-07-25T13:04:07Z</time>
      </trkpt>
      <trkpt lat="46.0401370" lon="5.6979830">
        <ele>1050.1</ele>
        <time>2022-07-25T13:04:08Z</time>
      </trkpt>
      <trkpt lat="46.0401390" lon="5.6979690">
        <ele>1050.2</ele>
        <time>2022-07-25T13:04:09Z</time>
      </trkpt>
      <trkpt lat="46.0401450" lon="5.6979230">
        <ele>1050.5</ele>
        <time>2022-07-25T13:04:10Z</time>
      </trkpt>
      <trkpt lat="46.0401480" lon="5.6979080">
        <ele>1050.7</ele>
        <time>2022-07-25T13:04:11Z</time>
      </trkpt>
      <trkpt lat="46.0401530" lon="5.6978760">
        <ele>1050.9</ele>
        <time>2022-07-25T13:04:12Z</time>
      </trkpt>
      <trkpt lat="46.0401550" lon="5.6978480">
        <ele>1051.2</ele>
        <time>2022-07-25T13:04:14Z</time>
      </trkpt>
      <trkpt lat="46.0401570" lon="5.6978200">
        <ele>1051.5</ele>
        <time>2022-07-25T13:04:15Z</time>
      </trkpt>
      <trkpt lat="46.0401590" lon="5.6978020">
        <ele>1051.6</ele>
        <time>2022-07-25T13:04:16Z</time>
      </trkpt>
      <trkpt lat="46.0401660" lon="5.6977730">
        <ele>1051.9</ele>
        <time>2022-07-25T13:04:17Z</time>
      </trkpt>
      <trkpt lat="46.0401680" lon="5.6977610">
        <ele>1052.1</ele>
        <time>2022-07-25T13:04:18Z</time>
      </trkpt>
      <trkpt lat="46.0401700" lon="5.6977490">
        <ele>1052.2</ele>
        <time>2022-07-25T13:04:19Z</time>
      </trkpt>
      <trkpt lat="46.0401750" lon="5.6977190">
        <ele>1052.5</ele>
        <time>2022-07-25T13:04:20Z</time>
      </trkpt>
      <trkpt lat="46.0401770" lon="5.6977060">
        <ele>1052.6</ele>
        <time>2022-07-25T13:04:21Z</time>
      </trkpt>
      <trkpt lat="46.0401800" lon="5.6976940">
        <ele>1052.7</ele>
        <time>2022-07-25T13:04:22Z</time>
      </trkpt>
      <trkpt lat="46.0401900" lon="5.6976650">
        <ele>1053.1</ele>
        <time>2022-07-25T13:04:23Z</time>
      </trkpt>
      <trkpt lat="46.0401950" lon="5.6976540">
        <ele>1053.2</ele>
        <time>2022-07-25T13:04:24Z</time>
      </trkpt>
      <trkpt lat="46.0402000" lon="5.6976430">
        <ele>1053.3</ele>
        <time>2022-07-25T13:04:25Z</time>
      </trkpt>
      <trkpt lat="46.0402140" lon="5.6976110">
        <ele>1053.7</ele>
        <time>2022-07-25T13:04:27Z</time>
      </trkpt>
      <trkpt lat="46.0402210" lon="5.6975950">
        <ele>1053.9</ele>
        <time>2022-07-25T13:04:28Z</time>
      </trkpt>
      <trkpt lat="46.0402350" lon="5.6975610">
        <ele>1054.3</ele>
        <time>2022-07-25T13:04:29Z</time>
      </trkpt>
      <trkpt lat="46.0402420" lon="5.6975450">
        <ele>1054.4</ele>
        <time>2022-07-25T13:04:31Z</time>
      </trkpt>
      <trkpt lat="46.0402490" lon="5.6975290">
        <ele>1054.6</ele>
        <time>2022-07-25T13:04:32Z</time>
      </trkpt>
      <trkpt lat="46.0402560" lon="5.6975120">
        <ele>1054.8</ele>
        <time>2022-07-25T13:04:33Z</time>
      </trkpt>
      <trkpt lat="46.0402670" lon="5.6974910">
        <ele>1055.1</ele>
        <time>2022-07-25T13:04:34Z</time>
      </trkpt>
      <trkpt lat="46.0402760" lon="5.6974750">
        <ele>1055.3</ele>
        <time>2022-07-25T13:04:35Z</time>
      </trkpt>
      <trkpt lat="46.0402830" lon="5.6974600">
        <ele>1055.5</ele>
        <time>2022-07-25T13:04:36Z</time>
      </trkpt>
      <trkpt lat="46.0402940" lon="5.6974450">
        <ele>1055.7</ele>
        <time>2022-07-25T13:04:37Z</time>
      </trkpt>
      <trkpt lat="46.0403050" lon="5.6974330">
        <ele>1055.9</ele>
        <time>2022-07-25T13:04:38Z</time>
      </trkpt>
      <trkpt lat="46.0403180" lon="5.6974220">
        <ele>1056.1</ele>
        <time>2022-07-25T13:04:39Z</time>
      </trkpt>
      <trkpt lat="46.0403300" lon="5.6974150">
        <ele>1056.3</ele>
        <time>2022-07-25T13:04:40Z</time>
      </trkpt>
      <trkpt lat="46.0403390" lon="5.6974100">
        <ele>1056.4</ele>
        <time>2022-07-25T13:04:41Z</time>
      </trkpt>
      <trkpt lat="46.0403500" lon="5.6974040">
        <ele>1056.6</ele>
        <time>2022-07-25T13:04:42Z</time>
      </trkpt>
      <trkpt lat="46.0403640" lon="5.6973900">
        <ele>1056.8</ele>
        <time>2022-07-25T13:04:43Z</time>
      </trkpt>
      <trkpt lat="46.0403790" lon="5.6973750">
        <ele>1057.1</ele>
        <time>2022-07-25T13:04:44Z</time>
      </trkpt>
      <trkpt lat="46.0404010" lon="5.6973480">
        <ele>1057.5</ele>
        <time>2022-07-25T13:04:45Z</time>
      </trkpt>
      <trkpt lat="46.0404090" lon="5.6973400">
        <ele>1057.6</ele>
        <time>2022-07-25T13:04:46Z</time>
      </trkpt>
      <trkpt lat="46.0404260" lon="5.6973230">
        <ele>1057.9</ele>
        <time>2022-07-25T13:04:48Z</time>
      </trkpt>
      <trkpt lat="46.0404350" lon="5.6973140">
        <ele>1058.0</ele>
        <time>2022-07-25T13:04:49Z</time>
      </trkpt>
      <trkpt lat="46.0404520" lon="5.6973060">
        <ele>1058.3</ele>
        <time>2022-07-25T13:04:50Z</time>
      </trkpt>
      <trkpt lat="46.0404680" lon="5.6973000">
        <ele>1058.5</ele>
        <time>2022-07-25T13:04:51Z</time>
      </trkpt>
      <trkpt lat="46.0404790" lon="5.6972940">
        <ele>1058.7</ele>
        <time>2022-07-25T13:04:52Z</time>
      </trkpt>
      <trkpt lat="46.0404940" lon="5.6972850">
        <ele>1058.9</ele>
        <time>2022-07-25T13:04:54Z</time>
      </trkpt>
      <trkpt lat="46.0405080" lon="5.6972760">
        <ele>1059.1</ele>
        <time>2022-07-25T13:04:55Z</time>
      </trkpt>
      <trkpt lat="46.0405250" lon="5.6972650">
        <ele>1059.4</ele>
        <time>2022-07-25T13:04:56Z</time>
      </trkpt>
      <trkpt lat="46.0405410" lon="5.6972480">
        <ele>1059.6</ele>
        <time>2022-07-25T13:04:57Z</time>
      </trkpt>
      <trkpt lat="46.0405480" lon="5.6972390">
        <ele>1059.7</ele>
        <time>2022-07-25T13:04:58Z</time>
      </trkpt>
      <trkpt lat="46.0405550" lon="5.6972300">
        <ele>1059.9</ele>
        <time>2022-07-25T13:04:59Z</time>
      </trkpt>
      <trkpt lat="46.0405630" lon="5.6972210">
        <ele>1060.0</ele>
        <time>2022-07-25T13:05:00Z</time>
      </trkpt>
      <trkpt lat="46.0405730" lon="5.6972040">
        <ele>1060.2</ele>
        <time>2022-07-25T13:05:01Z</time>
      </trkpt>
      <trkpt lat="46.0405900" lon="5.6971870">
        <ele>1060.5</ele>
        <time>2022-07-25T13:05:03Z</time>
      </trkpt>
      <trkpt lat="46.0406080" lon="5.6971810">
        <ele>1060.7</ele>
        <time>2022-07-25T13:05:04Z</time>
      </trkpt>
      <trkpt lat="46.0406250" lon="5.6971750">
        <ele>1060.9</ele>
        <time>2022-07-25T13:05:05Z</time>
      </trkpt>
      <trkpt lat="46.0406410" lon="5.6971650">
        <ele>1061.2</ele>
        <time>2022-07-25T13:05:06Z</time>
      </trkpt>
      <trkpt lat="46.0406490" lon="5.6971550">
        <ele>1061.3</ele>
        <time>2022-07-25T13:05:07Z</time>
      </trkpt>
      <trkpt lat="46.0406640" lon="5.6971360">
        <ele>1061.5</ele>
        <time>2022-07-25T13:05:08Z</time>
      </trkpt>
      <trkpt lat="46.0406710" lon="5.6971260">
        <ele>1061.7</ele>
        <time>2022-07-25T13:05:09Z</time>
      </trkpt>
      <trkpt lat="46.0406780" lon="5.6971160">
        <ele>1061.8</ele>
        <time>2022-07-25T13:05:10Z</time>
      </trkpt>
      <trkpt lat="46.0407050" lon="5.6970870">
        <ele>1062.2</ele>
        <time>2022-07-25T13:05:12Z</time>
      </trkpt>
      <trkpt lat="46.0407140" lon="5.6970800">
        <ele>1062.3</ele>
        <time>2022-07-25T13:05:13Z</time>
      </trkpt>
      <trkpt lat="46.0407400" lon="5.6970610">
        <ele>1062.6</ele>
        <time>2022-07-25T13:05:14Z</time>
      </trkpt>
      <trkpt lat="46.0407490" lon="5.6970510">
        <ele>1062.8</ele>
        <time>2022-07-25T13:05:15Z</time>
      </trkpt>
      <trkpt lat="46.0407640" lon="5.6970300">
        <ele>1063.0</ele>
        <time>2022-07-25T13:05:16Z</time>
      </trkpt>
      <trkpt lat="46.0407890" lon="5.6970070">
        <ele>1063.3</ele>
        <time>2022-07-25T13:05:18Z</time>
      </trkpt>
      <trkpt lat="46.0408150" lon="5.6969960">
        <ele>1063.5</ele>
        <time>2022-07-25T13:05:19Z</time>
      </trkpt>
      <trkpt lat="46.0408230" lon="5.6969910">
        <ele>1063.6</ele>
        <time>2022-07-25T13:05:20Z</time>
      </trkpt>
      <trkpt lat="46.0408390" lon="5.6969810">
        <ele>1063.8</ele>
        <time>2022-07-25T13:05:21Z</time>
      </trkpt>
      <trkpt lat="46.0408530" lon="5.6969700">
        <ele>1063.9</ele>
        <time>2022-07-25T13:05:22Z</time>
      </trkpt>
      <trkpt lat="46.0408770" lon="5.6969530">
        <ele>1064.1</ele>
        <time>2022-07-25T13:05:23Z</time>
      </trkpt>
      <trkpt lat="46.0408870" lon="5.6969460">
        <ele>1064.2</ele>
        <time>2022-07-25T13:05:24Z</time>
      </trkpt>
      <trkpt lat="46.0409130" lon="5.6969190">
        <ele>1064.5</ele>
        <time>2022-07-25T13:05:25Z</time>
      </trkpt>
      <trkpt lat="46.0409210" lon="5.6969100">
        <ele>1064.5</ele>
        <time>2022-07-25T13:05:26Z</time>
      </trkpt>
      <trkpt lat="46.0409520" lon="5.6968880">
        <ele>1064.8</ele>
        <time>2022-07-25T13:05:28Z</time>
      </trkpt>
      <trkpt lat="46.0409630" lon="5.6968810">
        <ele>1064.9</ele>
        <time>2022-07-25T13:05:29Z</time>
      </trkpt>
      <trkpt lat="46.0409920" lon="5.6968680">
        <ele>1065.1</ele>
        <time>2022-07-25T13:05:30Z</time>
      </trkpt>
      <trkpt lat="46.0410010" lon="5.6968660">
        <ele>1065.2</ele>
        <time>2022-07-25T13:05:31Z</time>
      </trkpt>
      <trkpt lat="46.0410310" lon="5.6968520">
        <ele>1065.4</ele>
        <time>2022-07-25T13:05:32Z</time>
      </trkpt>
      <trkpt lat="46.0410410" lon="5.6968450">
        <ele>1065.5</ele>
        <time>2022-07-25T13:05:33Z</time>
      </trkpt>
      <trkpt lat="46.0410620" lon="5.6968300">
        <ele>1065.7</ele>
        <time>2022-07-25T13:05:34Z</time>
      </trkpt>
      <trkpt lat="46.0410950" lon="5.6968110">
        <ele>1065.9</ele>
        <time>2022-07-25T13:05:36Z</time>
      </trkpt>
      <trkpt lat="46.0411110" lon="5.6968070">
        <ele>1066.0</ele>
        <time>2022-07-25T13:05:37Z</time>
      </trkpt>
      <trkpt lat="46.0411280" lon="5.6967970">
        <ele>1066.2</ele>
        <time>2022-07-25T13:05:38Z</time>
      </trkpt>
      <trkpt lat="46.0411500" lon="5.6967780">
        <ele>1066.4</ele>
        <time>2022-07-25T13:05:39Z</time>
      </trkpt>
      <trkpt lat="46.0411910" lon="5.6967510">
        <ele>1066.8</ele>
        <time>2022-07-25T13:05:41Z</time>
      </trkpt>
      <trkpt lat="46.0412190" lon="5.6967400">
        <ele>1067.0</ele>
        <time>2022-07-25T13:05:43Z</time>
      </trkpt>
      <trkpt lat="46.0412500" lon="5.6967280">
        <ele>1067.2</ele>
        <time>2022-07-25T13:05:44Z</time>
      </trkpt>
      <trkpt lat="46.0412610" lon="5.6967230">
        <ele>1067.3</ele>
        <time>2022-07-25T13:05:45Z</time>
      </trkpt>
      <trkpt lat="46.0412750" lon="5.6967160">
        <ele>1067.5</ele>
        <time>2022-07-25T13:05:46Z</time>
      </trkpt>
      <trkpt lat="46.0412930" lon="5.6967090">
        <ele>1067.6</ele>
        <time>2022-07-25T13:05:47Z</time>
      </trkpt>
      <trkpt lat="46.0413260" lon="5.6966950">
        <ele>1067.9</ele>
        <time>2022-07-25T13:05:49Z</time>
      </trkpt>
      <trkpt lat="46.0413470" lon="5.6966860">
        <ele>1068.0</ele>
        <time>2022-07-25T13:05:50Z</time>
      </trkpt>
      <trkpt lat="46.0413770" lon="5.6966840">
        <ele>1068.2</ele>
        <time>2022-07-25T13:05:52Z</time>
      </trkpt>
      <trkpt lat="46.0414090" lon="5.6966880">
        <ele>1068.5</ele>
        <time>2022-07-25T13:05:53Z</time>
      </trkpt>
      <trkpt lat="46.0414360" lon="5.6966990">
        <ele>1068.6</ele>
        <time>2022-07-25T13:05:54Z</time>
      </trkpt>
      <trkpt lat="46.0414440" lon="5.6967020">
        <ele>1068.7</ele>
        <time>2022-07-25T13:05:55Z</time>
      </trkpt>
      <trkpt lat="46.0414600" lon="5.6967030">
        <ele>1068.8</ele>
        <time>2022-07-25T13:05:56Z</time>
      </trkpt>
      <trkpt lat="46.0414950" lon="5.6967040">
        <ele>1069.0</ele>
        <time>2022-07-25T13:05:58Z</time>
      </trkpt>
      <trkpt lat="46.0415280" lon="5.6967070">
        <ele>1069.1</ele>
        <time>2022-07-25T13:05:59Z</time>
      </trkpt>
      <trkpt lat="46.0415400" lon="5.6967100">
        <ele>1069.2</ele>
        <time>2022-07-25T13:06:00Z</time>
      </trkpt>
      <trkpt lat="46.0415790" lon="5.6967220">
        <ele>1069.3</ele>
        <time>2022-07-25T13:06:01Z</time>
      </trkpt>
      <trkpt lat="46.0415950" lon="5.6967260">
        <ele>1069.4</ele>
        <time>2022-07-25T13:06:02Z</time>
      </trkpt>
      <trkpt lat="46.0416420" lon="5.6967400">
        <ele>1069.6</ele>
        <time>2022-07-25T13:06:04Z</time>
      </trkpt>
      <trkpt lat="46.0416560" lon="5.6967440">
        <ele>1069.7</ele>
        <time>2022-07-25T13:06:05Z</time>
      </trkpt>
      <trkpt lat="46.0416700" lon="5.6967480">
        <ele>1069.7</ele>
        <time>2022-07-25T13:06:06Z</time>
      </trkpt>
      <trkpt lat="46.0416800" lon="5.6967430">
        <ele>1069.8</ele>
        <time>2022-07-25T13:06:07Z</time>
      </trkpt>
      <trkpt lat="46.0417050" lon="5.6967440">
        <ele>1069.9</ele>
        <time>2022-07-25T13:06:08Z</time>
      </trkpt>
      <trkpt lat="46.0417420" lon="5.6967510">
        <ele>1070.0</ele>
        <time>2022-07-25T13:06:10Z</time>
      </trkpt>
      <trkpt lat="46.0417540" lon="5.6967550">
        <ele>1070.1</ele>
        <time>2022-07-25T13:06:11Z</time>
      </trkpt>
      <trkpt lat="46.0417800" lon="5.6967690">
        <ele>1070.2</ele>
        <time>2022-07-25T13:06:12Z</time>
      </trkpt>
      <trkpt lat="46.0418140" lon="5.6967900">
        <ele>1070.4</ele>
        <time>2022-07-25T13:06:13Z</time>
      </trkpt>
      <trkpt lat="46.0418260" lon="5.6967960">
        <ele>1070.5</ele>
        <time>2022-07-25T13:06:14Z</time>
      </trkpt>
      <trkpt lat="46.0418610" lon="5.6968110">
        <ele>1070.8</ele>
        <time>2022-07-25T13:06:15Z</time>
      </trkpt>
      <trkpt lat="46.0418740" lon="5.6968180">
        <ele>1070.9</ele>
        <time>2022-07-25T13:06:16Z</time>
      </trkpt>
      <trkpt lat="46.0419060" lon="5.6968230">
        <ele>1071.1</ele>
        <time>2022-07-25T13:06:17Z</time>
      </trkpt>
      <trkpt lat="46.0419150" lon="5.6968230">
        <ele>1071.2</ele>
        <time>2022-07-25T13:06:18Z</time>
      </trkpt>
      <trkpt lat="46.0419330" lon="5.6968280">
        <ele>1071.3</ele>
        <time>2022-07-25T13:06:20Z</time>
      </trkpt>
      <trkpt lat="46.0419420" lon="5.6968310">
        <ele>1071.4</ele>
        <time>2022-07-25T13:06:21Z</time>
      </trkpt>
      <trkpt lat="46.0419510" lon="5.6968340">
        <ele>1071.5</ele>
        <time>2022-07-25T13:06:22Z</time>
      </trkpt>
      <trkpt lat="46.0419790" lon="5.6968440">
        <ele>1071.8</ele>
        <time>2022-07-25T13:06:23Z</time>
      </trkpt>
      <trkpt lat="46.0419870" lon="5.6968480">
        <ele>1071.9</ele>
        <time>2022-07-25T13:06:24Z</time>
      </trkpt>
      <trkpt lat="46.0420160" lon="5.6968550">
        <ele>1072.1</ele>
        <time>2022-07-25T13:06:26Z</time>
      </trkpt>
      <trkpt lat="46.0420270" lon="5.6968570">
        <ele>1072.2</ele>
        <time>2022-07-25T13:06:27Z</time>
      </trkpt>
      <trkpt lat="46.0420400" lon="5.6968570">
        <ele>1072.4</ele>
        <time>2022-07-25T13:06:28Z</time>
      </trkpt>
      <trkpt lat="46.0420550" lon="5.6968560">
        <ele>1072.5</ele>
        <time>2022-07-25T13:06:29Z</time>
      </trkpt>
      <trkpt lat="46.0420710" lon="5.6968550">
        <ele>1072.7</ele>
        <time>2022-07-25T13:06:30Z</time>
      </trkpt>
      <trkpt lat="46.0420860" lon="5.6968560">
        <ele>1072.8</ele>
        <time>2022-07-25T13:06:31Z</time>
      </trkpt>
      <trkpt lat="46.0421020" lon="5.6968600">
        <ele>1073.0</ele>
        <time>2022-07-25T13:06:32Z</time>
      </trkpt>
      <trkpt lat="46.0421140" lon="5.6968640">
        <ele>1073.1</ele>
        <time>2022-07-25T13:06:33Z</time>
      </trkpt>
      <trkpt lat="46.0421220" lon="5.6968670">
        <ele>1073.1</ele>
        <time>2022-07-25T13:06:34Z</time>
      </trkpt>
      <trkpt lat="46.0421340" lon="5.6968680">
        <ele>1073.2</ele>
        <time>2022-07-25T13:06:35Z</time>
      </trkpt>
      <trkpt lat="46.0421490" lon="5.6968700">
        <ele>1073.3</ele>
        <time>2022-07-25T13:06:36Z</time>
      </trkpt>
      <trkpt lat="46.0421760" lon="5.6968790">
        <ele>1073.5</ele>
        <time>2022-07-25T13:06:37Z</time>
      </trkpt>
      <trkpt lat="46.0421860" lon="5.6968830">
        <ele>1073.6</ele>
        <time>2022-07-25T13:06:38Z</time>
      </trkpt>
      <trkpt lat="46.0422060" lon="5.6968840">
        <ele>1073.7</ele>
        <time>2022-07-25T13:06:39Z</time>
      </trkpt>
      <trkpt lat="46.0422200" lon="5.6968840">
        <ele>1073.7</ele>
        <time>2022-07-25T13:06:40Z</time>
      </trkpt>
      <trkpt lat="46.0422570" lon="5.6968790">
        <ele>1073.8</ele>
        <time>2022-07-25T13:06:42Z</time>
      </trkpt>
      <trkpt lat="46.0422890" lon="5.6968680">
        <ele>1073.9</ele>
        <time>2022-07-25T13:06:43Z</time>
      </trkpt>
      <trkpt lat="46.0423340" lon="5.6968530">
        <ele>1073.9</ele>
        <time>2022-07-25T13:06:44Z</time>
      </trkpt>
      <trkpt lat="46.0423580" lon="5.6968490">
        <ele>1073.9</ele>
        <time>2022-07-25T13:06:45Z</time>
      </trkpt>
      <trkpt lat="46.0424040" lon="5.6968500">
        <ele>1073.8</ele>
        <time>2022-07-25T13:06:46Z</time>
      </trkpt>
      <trkpt lat="46.0424540" lon="5.6968610">
        <ele>1073.8</ele>
        <time>2022-07-25T13:06:48Z</time>
      </trkpt>
      <trkpt lat="46.0424990" lon="5.6968870">
        <ele>1073.7</ele>
        <time>2022-07-25T13:06:49Z</time>
      </trkpt>
      <trkpt lat="46.0425270" lon="5.6969160">
        <ele>1073.7</ele>
        <time>2022-07-25T13:06:51Z</time>
      </trkpt>
      <trkpt lat="46.0425370" lon="5.6969290">
        <ele>1073.7</ele>
        <time>2022-07-25T13:06:52Z</time>
      </trkpt>
      <trkpt lat="46.0425530" lon="5.6969450">
        <ele>1073.6</ele>
        <time>2022-07-25T13:06:53Z</time>
      </trkpt>
      <trkpt lat="46.0425820" lon="5.6969780">
        <ele>1073.6</ele>
        <time>2022-07-25T13:06:54Z</time>
      </trkpt>
      <trkpt lat="46.0425970" lon="5.6969940">
        <ele>1073.5</ele>
        <time>2022-07-25T13:06:55Z</time>
      </trkpt>
      <trkpt lat="46.0426460" lon="5.6970260">
        <ele>1073.4</ele>
        <time>2022-07-25T13:06:57Z</time>
      </trkpt>
      <trkpt lat="46.0426860" lon="5.6970430">
        <ele>1073.4</ele>
        <time>2022-07-25T13:06:58Z</time>
      </trkpt>
      <trkpt lat="46.0427390" lon="5.6970570">
        <ele>1073.4</ele>
        <time>2022-07-25T13:06:59Z</time>
      </trkpt>
      <trkpt lat="46.0427840" lon="5.6970680">
        <ele>1073.4</ele>
        <time>2022-07-25T13:07:00Z</time>
      </trkpt>
      <trkpt lat="46.0428210" lon="5.6970680">
        <ele>1073.4</ele>
        <time>2022-07-25T13:07:01Z</time>
      </trkpt>
      <trkpt lat="46.0428530" lon="5.6970690">
        <ele>1073.5</ele>
        <time>2022-07-25T13:07:02Z</time>
      </trkpt>
      <trkpt lat="46.0428850" lon="5.6970640">
        <ele>1073.6</ele>
        <time>2022-07-25T13:07:03Z</time>
      </trkpt>
      <trkpt lat="46.0429150" lon="5.6970610">
        <ele>1073.7</ele>
        <time>2022-07-25T13:07:04Z</time>
      </trkpt>
      <trkpt lat="46.0429430" lon="5.6970520">
        <ele>1073.8</ele>
        <time>2022-07-25T13:07:05Z</time>
      </trkpt>
      <trkpt lat="46.0429740" lon="5.6970430">
        <ele>1073.9</ele>
        <time>2022-07-25T13:07:06Z</time>
      </trkpt>
      <trkpt lat="46.0429830" lon="5.6970420">
        <ele>1073.9</ele>
        <time>2022-07-25T13:07:07Z</time>
      </trkpt>
      <trkpt lat="46.0430030" lon="5.6970450">
        <ele>1074.0</ele>
        <time>2022-07-25T13:07:08Z</time>
      </trkpt>
      <trkpt lat="46.0430480" lon="5.6970450">
        <ele>1074.1</ele>
        <time>2022-07-25T13:07:10Z</time>
      </trkpt>
      <trkpt lat="46.0430870" lon="5.6970450">
        <ele>1074.2</ele>
        <time>2022-07-25T13:07:11Z</time>
      </trkpt>
      <trkpt lat="46.0431240" lon="5.6970290">
        <ele>1074.6</ele>
        <time>2022-07-25T13:07:12Z</time>
      </trkpt>
      <trkpt lat="46.0431540" lon="5.6969880">
        <ele>1075.0</ele>
        <time>2022-07-25T13:07:14Z</time>
      </trkpt>
      <trkpt lat="46.0431590" lon="5.6969460">
        <ele>1075.4</ele>
        <time>2022-07-25T13:07:15Z</time>
      </trkpt>
      <trkpt lat="46.0431530" lon="5.6968900">
        <ele>1075.9</ele>
        <time>2022-07-25T13:07:16Z</time>
      </trkpt>
      <trkpt lat="46.0431500" lon="5.6968700">
        <ele>1076.1</ele>
        <time>2022-07-25T13:07:17Z</time>
      </trkpt>
      <trkpt lat="46.0431500" lon="5.6968440">
        <ele>1076.3</ele>
        <time>2022-07-25T13:07:18Z</time>
      </trkpt>
      <trkpt lat="46.0431540" lon="5.6968280">
        <ele>1076.5</ele>
        <time>2022-07-25T13:07:19Z</time>
      </trkpt>
      <trkpt lat="46.0431620" lon="5.6968100">
        <ele>1076.7</ele>
        <time>2022-07-25T13:07:21Z</time>
      </trkpt>
      <trkpt lat="46.0431700" lon="5.6967990">
        <ele>1076.8</ele>
        <time>2022-07-25T13:07:22Z</time>
      </trkpt>
      <trkpt lat="46.0431770" lon="5.6967880">
        <ele>1077.0</ele>
        <time>2022-07-25T13:07:23Z</time>
      </trkpt>
      <trkpt lat="46.0431870" lon="5.6967750">
        <ele>1077.2</ele>
        <time>2022-07-25T13:07:24Z</time>
      </trkpt>
      <trkpt lat="46.0431970" lon="5.6967620">
        <ele>1077.4</ele>
        <time>2022-07-25T13:07:25Z</time>
      </trkpt>
      <trkpt lat="46.0432050" lon="5.6967490">
        <ele>1077.5</ele>
        <time>2022-07-25T13:07:26Z</time>
      </trkpt>
      <trkpt lat="46.0432110" lon="5.6967390">
        <ele>1077.7</ele>
        <time>2022-07-25T13:07:27Z</time>
      </trkpt>
      <trkpt lat="46.0432170" lon="5.6967260">
        <ele>1077.8</ele>
        <time>2022-07-25T13:07:28Z</time>
      </trkpt>
      <trkpt lat="46.0432270" lon="5.6967050">
        <ele>1078.1</ele>
        <time>2022-07-25T13:07:29Z</time>
      </trkpt>
      <trkpt lat="46.0432310" lon="5.6966910">
        <ele>1078.2</ele>
        <time>2022-07-25T13:07:30Z</time>
      </trkpt>
      <trkpt lat="46.0432410" lon="5.6966660">
        <ele>1078.5</ele>
        <time>2022-07-25T13:07:32Z</time>
      </trkpt>
      <trkpt lat="46.0432430" lon="5.6966530">
        <ele>1078.7</ele>
        <time>2022-07-25T13:07:33Z</time>
      </trkpt>
      <trkpt lat="46.0432500" lon="5.6966350">
        <ele>1078.9</ele>
        <time>2022-07-25T13:07:34Z</time>
      </trkpt>
      <trkpt lat="46.0432520" lon="5.6966240">
        <ele>1079.0</ele>
        <time>2022-07-25T13:07:35Z</time>
      </trkpt>
      <trkpt lat="46.0432570" lon="5.6966080">
        <ele>1079.2</ele>
        <time>2022-07-25T13:07:36Z</time>
      </trkpt>
      <trkpt lat="46.0432600" lon="5.6965930">
        <ele>1079.3</ele>
        <time>2022-07-25T13:07:37Z</time>
      </trkpt>
      <trkpt lat="46.0432630" lon="5.6965780">
        <ele>1079.4</ele>
        <time>2022-07-25T13:07:38Z</time>
      </trkpt>
      <trkpt lat="46.0432690" lon="5.6965590">
        <ele>1079.6</ele>
        <time>2022-07-25T13:07:39Z</time>
      </trkpt>
      <trkpt lat="46.0432750" lon="5.6965450">
        <ele>1079.8</ele>
        <time>2022-07-25T13:07:41Z</time>
      </trkpt>
      <trkpt lat="46.0432820" lon="5.6965320">
        <ele>1079.9</ele>
        <time>2022-07-25T13:07:42Z</time>
      </trkpt>
      <trkpt lat="46.0432900" lon="5.6965200">
        <ele>1080.0</ele>
        <time>2022-07-25T13:07:43Z</time>
      </trkpt>
      <trkpt lat="46.0432970" lon="5.6965080">
        <ele>1080.2</ele>
        <time>2022-07-25T13:07:44Z</time>
      </trkpt>
      <trkpt lat="46.0433020" lon="5.6964990">
        <ele>1080.2</ele>
        <time>2022-07-25T13:07:45Z</time>
      </trkpt>
      <trkpt lat="46.0433130" lon="5.6964860">
        <ele>1080.4</ele>
        <time>2022-07-25T13:07:47Z</time>
      </trkpt>
      <trkpt lat="46.0433250" lon="5.6964690">
        <ele>1080.6</ele>
        <time>2022-07-25T13:07:48Z</time>
      </trkpt>
      <trkpt lat="46.0433350" lon="5.6964590">
        <ele>1080.7</ele>
        <time>2022-07-25T13:07:50Z</time>
      </trkpt>
      <trkpt lat="46.0433480" lon="5.6964500">
        <ele>1080.8</ele>
        <time>2022-07-25T13:07:51Z</time>
      </trkpt>
      <trkpt lat="46.0433640" lon="5.6964390">
        <ele>1081.0</ele>
        <time>2022-07-25T13:07:52Z</time>
      </trkpt>
      <trkpt lat="46.0433800" lon="5.6964280">
        <ele>1081.2</ele>
        <time>2022-07-25T13:07:53Z</time>
      </trkpt>
      <trkpt lat="46.0433950" lon="5.6964210">
        <ele>1081.3</ele>
        <time>2022-07-25T13:07:54Z</time>
      </trkpt>
      <trkpt lat="46.0434300" lon="5.6964130">
        <ele>1081.7</ele>
        <time>2022-07-25T13:07:56Z</time>
      </trkpt>
      <trkpt lat="46.0434430" lon="5.6964100">
        <ele>1081.8</ele>
        <time>2022-07-25T13:07:57Z</time>
      </trkpt>
      <trkpt lat="46.0434570" lon="5.6964040">
        <ele>1081.9</ele>
        <time>2022-07-25T13:07:58Z</time>
      </trkpt>
      <trkpt lat="46.0434680" lon="5.6963940">
        <ele>1082.1</ele>
        <time>2022-07-25T13:07:59Z</time>
      </trkpt>
      <trkpt lat="46.0434760" lon="5.6963810">
        <ele>1082.2</ele>
        <time>2022-07-25T13:08:00Z</time>
      </trkpt>
      <trkpt lat="46.0434790" lon="5.6963760">
        <ele>1082.3</ele>
        <time>2022-07-25T13:08:01Z</time>
      </trkpt>
      <trkpt lat="46.0434870" lon="5.6963570">
        <ele>1082.5</ele>
        <time>2022-07-25T13:08:02Z</time>
      </trkpt>
      <trkpt lat="46.0434950" lon="5.6963410">
        <ele>1082.6</ele>
        <time>2022-07-25T13:08:03Z</time>
      </trkpt>
      <trkpt lat="46.0435040" lon="5.6963270">
        <ele>1082.8</ele>
        <time>2022-07-25T13:08:05Z</time>
      </trkpt>
      <trkpt lat="46.0435120" lon="5.6963190">
        <ele>1082.9</ele>
        <time>2022-07-25T13:08:06Z</time>
      </trkpt>
      <trkpt lat="46.0435230" lon="5.6963130">
        <ele>1083.0</ele>
        <time>2022-07-25T13:08:07Z</time>
      </trkpt>
      <trkpt lat="46.0435370" lon="5.6963050">
        <ele>1083.2</ele>
        <time>2022-07-25T13:08:08Z</time>
      </trkpt>
      <trkpt lat="46.0435580" lon="5.6962930">
        <ele>1083.5</ele>
        <time>2022-07-25T13:08:09Z</time>
      </trkpt>
      <trkpt lat="46.0435650" lon="5.6962890">
        <ele>1083.6</ele>
        <time>2022-07-25T13:08:10Z</time>
      </trkpt>
      <trkpt lat="46.0435720" lon="5.6962850">
        <ele>1083.6</ele>
        <time>2022-07-25T13:08:11Z</time>
      </trkpt>
      <trkpt lat="46.0435870" lon="5.6962760">
        <ele>1083.8</ele>
        <time>2022-07-25T13:08:12Z</time>
      </trkpt>
      <trkpt lat="46.0436000" lon="5.6962660">
        <ele>1083.9</ele>
        <time>2022-07-25T13:08:13Z</time>
      </trkpt>
      <trkpt lat="46.0436360" lon="5.6962560">
        <ele>1084.2</ele>
        <time>2022-07-25T13:08:14Z</time>
      </trkpt>
      <trkpt lat="46.0436500" lon="5.6962540">
        <ele>1084.3</ele>
        <time>2022-07-25T13:08:15Z</time>
      </trkpt>
      <trkpt lat="46.0436830" lon="5.6962500">
        <ele>1084.5</ele>
        <time>2022-07-25T13:08:16Z</time>
      </trkpt>
      <trkpt lat="46.0437130" lon="5.6962390">
        <ele>1084.6</ele>
        <time>2022-07-25T13:08:17Z</time>
      </trkpt>
      <trkpt lat="46.0437570" lon="5.6961980">
        <ele>1084.7</ele>
        <time>2022-07-25T13:08:19Z</time>
      </trkpt>
      <trkpt lat="46.0437890" lon="5.6961550">
        <ele>1084.7</ele>
        <time>2022-07-25T13:08:20Z</time>
      </trkpt>
      <trkpt lat="46.0438110" lon="5.6961300">
        <ele>1084.7</ele>
        <time>2022-07-25T13:08:21Z</time>
      </trkpt>
      <trkpt lat="46.0438370" lon="5.6961010">
        <ele>1084.7</ele>
        <time>2022-07-25T13:08:22Z</time>
      </trkpt>
      <trkpt lat="46.0438690" lon="5.6960620">
        <ele>1084.3</ele>
        <time>2022-07-25T13:08:23Z</time>
      </trkpt>
      <trkpt lat="46.0439110" lon="5.6960170">
        <ele>1084.2</ele>
        <time>2022-07-25T13:08:24Z</time>
      </trkpt>
      <trkpt lat="46.0439450" lon="5.6959860">
        <ele>1084.2</ele>
        <time>2022-07-25T13:08:25Z</time>
      </trkpt>
      <trkpt lat="46.0439940" lon="5.6959610">
        <ele>1084.1</ele>
        <time>2022-07-25T13:08:27Z</time>
      </trkpt>
      <trkpt lat="46.0440130" lon="5.6959540">
        <ele>1084.0</ele>
        <time>2022-07-25T13:08:28Z</time>
      </trkpt>
      <trkpt lat="46.0440320" lon="5.6959470">
        <ele>1084.0</ele>
        <time>2022-07-25T13:08:29Z</time>
      </trkpt>
      <trkpt lat="46.0440760" lon="5.6959420">
        <ele>1083.9</ele>
        <time>2022-07-25T13:08:30Z</time>
      </trkpt>
      <trkpt lat="46.0441390" lon="5.6959920">
        <ele>1083.8</ele>
        <time>2022-07-25T13:08:31Z</time>
      </trkpt>
      <trkpt lat="46.0441820" lon="5.6960100">
        <ele>1083.8</ele>
        <time>2022-07-25T13:08:32Z</time>
      </trkpt>
      <trkpt lat="46.0442180" lon="5.6960190">
        <ele>1083.9</ele>
        <time>2022-07-25T13:08:33Z</time>
      </trkpt>
      <trkpt lat="46.0442750" lon="5.6960250">
        <ele>1084.0</ele>
        <time>2022-07-25T13:08:34Z</time>
      </trkpt>
      <trkpt lat="46.0443150" lon="5.6960200">
        <ele>1084.1</ele>
        <time>2022-07-25T13:08:36Z</time>
      </trkpt>
      <trkpt lat="46.0443550" lon="5.6960250">
        <ele>1084.2</ele>
        <time>2022-07-25T13:08:37Z</time>
      </trkpt>
      <trkpt lat="46.0443830" lon="5.6960190">
        <ele>1084.4</ele>
        <time>2022-07-25T13:08:38Z</time>
      </trkpt>
      <trkpt lat="46.0444130" lon="5.6960050">
        <ele>1084.6</ele>
        <time>2022-07-25T13:08:39Z</time>
      </trkpt>
      <trkpt lat="46.0444590" lon="5.6959750">
        <ele>1085.0</ele>
        <time>2022-07-25T13:08:40Z</time>
      </trkpt>
      <trkpt lat="46.0444860" lon="5.6959670">
        <ele>1085.2</ele>
        <time>2022-07-25T13:08:41Z</time>
      </trkpt>
      <trkpt lat="46.0445150" lon="5.6959600">
        <ele>1085.5</ele>
        <time>2022-07-25T13:08:42Z</time>
      </trkpt>
      <trkpt lat="46.0445350" lon="5.6959510">
        <ele>1085.7</ele>
        <time>2022-07-25T13:08:43Z</time>
      </trkpt>
      <trkpt lat="46.0445530" lon="5.6959410">
        <ele>1085.9</ele>
        <time>2022-07-25T13:08:45Z</time>
      </trkpt>
      <trkpt lat="46.0445810" lon="5.6959160">
        <ele>1086.2</ele>
        <time>2022-07-25T13:08:46Z</time>
      </trkpt>
      <trkpt lat="46.0445890" lon="5.6959110">
        <ele>1086.3</ele>
        <time>2022-07-25T13:08:47Z</time>
      </trkpt>
      <trkpt lat="46.0446070" lon="5.6959050">
        <ele>1086.5</ele>
        <time>2022-07-25T13:08:48Z</time>
      </trkpt>
      <trkpt lat="46.0446310" lon="5.6958990">
        <ele>1086.7</ele>
        <time>2022-07-25T13:08:50Z</time>
      </trkpt>
      <trkpt lat="46.0446430" lon="5.6958950">
        <ele>1086.8</ele>
        <time>2022-07-25T13:08:51Z</time>
      </trkpt>
      <trkpt lat="46.0446670" lon="5.6958800">
        <ele>1087.0</ele>
        <time>2022-07-25T13:08:53Z</time>
      </trkpt>
      <trkpt lat="46.0446920" lon="5.6958560">
        <ele>1087.2</ele>
        <time>2022-07-25T13:08:54Z</time>
      </trkpt>
      <trkpt lat="46.0447000" lon="5.6958460">
        <ele>1087.3</ele>
        <time>2022-07-25T13:08:55Z</time>
      </trkpt>
      <trkpt lat="46.0447310" lon="5.6958360">
        <ele>1087.5</ele>
        <time>2022-07-25T13:08:57Z</time>
      </trkpt>
      <trkpt lat="46.0447420" lon="5.6958340">
        <ele>1087.6</ele>
        <time>2022-07-25T13:08:58Z</time>
      </trkpt>
      <trkpt lat="46.0447760" lon="5.6958400">
        <ele>1087.8</ele>
        <time>2022-07-25T13:08:59Z</time>
      </trkpt>
      <trkpt lat="46.0447860" lon="5.6958420">
        <ele>1087.8</ele>
        <time>2022-07-25T13:09:00Z</time>
      </trkpt>
      <trkpt lat="46.0448170" lon="5.6958490">
        <ele>1088.0</ele>
        <time>2022-07-25T13:09:02Z</time>
      </trkpt>
      <trkpt lat="46.0448360" lon="5.6958460">
        <ele>1088.1</ele>
        <time>2022-07-25T13:09:03Z</time>
      </trkpt>
      <trkpt lat="46.0448510" lon="5.6958420">
        <ele>1088.2</ele>
        <time>2022-07-25T13:09:04Z</time>
      </trkpt>
      <trkpt lat="46.0448660" lon="5.6958400">
        <ele>1088.3</ele>
        <time>2022-07-25T13:09:05Z</time>
      </trkpt>
      <trkpt lat="46.0448860" lon="5.6958350">
        <ele>1088.4</ele>
        <time>2022-07-25T13:09:06Z</time>
      </trkpt>
      <trkpt lat="46.0449170" lon="5.6958380">
        <ele>1088.6</ele>
        <time>2022-07-25T13:09:07Z</time>
      </trkpt>
      <trkpt lat="46.0449520" lon="5.6958470">
        <ele>1088.8</ele>
        <time>2022-07-25T13:09:09Z</time>
      </trkpt>
      <trkpt lat="46.0449900" lon="5.6958620">
        <ele>1089.0</ele>
        <time>2022-07-25T13:09:10Z</time>
      </trkpt>
      <trkpt lat="46.0450230" lon="5.6958710">
        <ele>1089.2</ele>
        <time>2022-07-25T13:09:11Z</time>
      </trkpt>
      <trkpt lat="46.0450460" lon="5.6958810">
        <ele>1089.4</ele>
        <time>2022-07-25T13:09:12Z</time>
      </trkpt>
      <trkpt lat="46.0450760" lon="5.6958930">
        <ele>1089.6</ele>
        <time>2022-07-25T13:09:14Z</time>
      </trkpt>
      <trkpt lat="46.0451070" lon="5.6959170">
        <ele>1089.8</ele>
        <time>2022-07-25T13:09:15Z</time>
      </trkpt>
      <trkpt lat="46.0451310" lon="5.6959380">
        <ele>1090.0</ele>
        <time>2022-07-25T13:09:16Z</time>
      </trkpt>
      <trkpt lat="46.0451510" lon="5.6959630">
        <ele>1090.2</ele>
        <time>2022-07-25T13:09:17Z</time>
      </trkpt>
      <trkpt lat="46.0451590" lon="5.6959730">
        <ele>1090.2</ele>
        <time>2022-07-25T13:09:18Z</time>
      </trkpt>
      <trkpt lat="46.0451800" lon="5.6959980">
        <ele>1090.4</ele>
        <time>2022-07-25T13:09:19Z</time>
      </trkpt>
      <trkpt lat="46.0452150" lon="5.6960260">
        <ele>1090.7</ele>
        <time>2022-07-25T13:09:20Z</time>
      </trkpt>
      <trkpt lat="46.0452270" lon="5.6960350">
        <ele>1090.7</ele>
        <time>2022-07-25T13:09:21Z</time>
      </trkpt>
      <trkpt lat="46.0452640" lon="5.6960680">
        <ele>1091.0</ele>
        <time>2022-07-25T13:09:22Z</time>
      </trkpt>
      <trkpt lat="46.0452880" lon="5.6960910">
        <ele>1091.2</ele>
        <time>2022-07-25T13:09:23Z</time>
      </trkpt>
      <trkpt lat="46.0453170" lon="5.6961060">
        <ele>1091.5</ele>
        <time>2022-07-25T13:09:24Z</time>
      </trkpt>
      <trkpt lat="46.0453500" lon="5.6961160">
        <ele>1091.7</ele>
        <time>2022-07-25T13:09:25Z</time>
      </trkpt>
      <trkpt lat="46.0453600" lon="5.6961180">
        <ele>1091.8</ele>
        <time>2022-07-25T13:09:26Z</time>
      </trkpt>
      <trkpt lat="46.0453770" lon="5.6961240">
        <ele>1092.0</ele>
        <time>2022-07-25T13:09:27Z</time>
      </trkpt>
      <trkpt lat="46.0453930" lon="5.6961270">
        <ele>1092.1</ele>
        <time>2022-07-25T13:09:28Z</time>
      </trkpt>
      <trkpt lat="46.0454090" lon="5.6961300">
        <ele>1092.3</ele>
        <time>2022-07-25T13:09:29Z</time>
      </trkpt>
      <trkpt lat="46.0454260" lon="5.6961370">
        <ele>1092.4</ele>
        <time>2022-07-25T13:09:30Z</time>
      </trkpt>
      <trkpt lat="46.0454380" lon="5.6961400">
        <ele>1092.5</ele>
        <time>2022-07-25T13:09:31Z</time>
      </trkpt>
      <trkpt lat="46.0454520" lon="5.6961490">
        <ele>1092.7</ele>
        <time>2022-07-25T13:09:32Z</time>
      </trkpt>
      <trkpt lat="46.0454690" lon="5.6961590">
        <ele>1092.9</ele>
        <time>2022-07-25T13:09:33Z</time>
      </trkpt>
      <trkpt lat="46.0454850" lon="5.6961660">
        <ele>1093.1</ele>
        <time>2022-07-25T13:09:34Z</time>
      </trkpt>
      <trkpt lat="46.0454970" lon="5.6961730">
        <ele>1093.2</ele>
        <time>2022-07-25T13:09:36Z</time>
      </trkpt>
      <trkpt lat="46.0455090" lon="5.6961800">
        <ele>1093.4</ele>
        <time>2022-07-25T13:09:37Z</time>
      </trkpt>
      <trkpt lat="46.0455340" lon="5.6961750">
        <ele>1093.7</ele>
        <time>2022-07-25T13:09:39Z</time>
      </trkpt>
      <trkpt lat="46.0455490" lon="5.6961650">
        <ele>1093.9</ele>
        <time>2022-07-25T13:09:40Z</time>
      </trkpt>
      <trkpt lat="46.0455610" lon="5.6961540">
        <ele>1094.1</ele>
        <time>2022-07-25T13:09:41Z</time>
      </trkpt>
      <trkpt lat="46.0455760" lon="5.6961370">
        <ele>1094.3</ele>
        <time>2022-07-25T13:09:42Z</time>
      </trkpt>
      <trkpt lat="46.0455910" lon="5.6961290">
        <ele>1094.5</ele>
        <time>2022-07-25T13:09:43Z</time>
      </trkpt>
      <trkpt lat="46.0456050" lon="5.6961210">
        <ele>1094.7</ele>
        <time>2022-07-25T13:09:45Z</time>
      </trkpt>
      <trkpt lat="46.0456190" lon="5.6961130">
        <ele>1094.9</ele>
        <time>2022-07-25T13:09:46Z</time>
      </trkpt>
      <trkpt lat="46.0456300" lon="5.6961050">
        <ele>1095.0</ele>
        <time>2022-07-25T13:09:47Z</time>
      </trkpt>
      <trkpt lat="46.0456420" lon="5.6960980">
        <ele>1095.2</ele>
        <time>2022-07-25T13:09:48Z</time>
      </trkpt>
      <trkpt lat="46.0456520" lon="5.6960950">
        <ele>1095.3</ele>
        <time>2022-07-25T13:09:49Z</time>
      </trkpt>
      <trkpt lat="46.0456670" lon="5.6960880">
        <ele>1095.5</ele>
        <time>2022-07-25T13:09:50Z</time>
      </trkpt>
      <trkpt lat="46.0456780" lon="5.6960820">
        <ele>1095.6</ele>
        <time>2022-07-25T13:09:51Z</time>
      </trkpt>
      <trkpt lat="46.0456870" lon="5.6960750">
        <ele>1095.7</ele>
        <time>2022-07-25T13:09:52Z</time>
      </trkpt>
      <trkpt lat="46.0457020" lon="5.6960600">
        <ele>1095.9</ele>
        <time>2022-07-25T13:09:53Z</time>
      </trkpt>
      <trkpt lat="46.0457210" lon="5.6960440">
        <ele>1096.2</ele>
        <time>2022-07-25T13:09:54Z</time>
      </trkpt>
      <trkpt lat="46.0457370" lon="5.6960330">
        <ele>1096.3</ele>
        <time>2022-07-25T13:09:56Z</time>
      </trkpt>
      <trkpt lat="46.0457650" lon="5.6960260">
        <ele>1096.6</ele>
        <time>2022-07-25T13:09:57Z</time>
      </trkpt>
      <trkpt lat="46.0457760" lon="5.6960280">
        <ele>1096.7</ele>
        <time>2022-07-25T13:09:58Z</time>
      </trkpt>
      <trkpt lat="46.0457980" lon="5.6960230">
        <ele>1096.9</ele>
        <time>2022-07-25T13:10:00Z</time>
      </trkpt>
      <trkpt lat="46.0458100" lon="5.6960170">
        <ele>1097.0</ele>
        <time>2022-07-25T13:10:01Z</time>
      </trkpt>
      <trkpt lat="46.0458180" lon="5.6960110">
        <ele>1097.1</ele>
        <time>2022-07-25T13:10:02Z</time>
      </trkpt>
      <trkpt lat="46.0458310" lon="5.6960040">
        <ele>1097.2</ele>
        <time>2022-07-25T13:10:03Z</time>
      </trkpt>
      <trkpt lat="46.0458410" lon="5.6959950">
        <ele>1097.3</ele>
        <time>2022-07-25T13:10:04Z</time>
      </trkpt>
      <trkpt lat="46.0458480" lon="5.6959890">
        <ele>1097.3</ele>
        <time>2022-07-25T13:10:05Z</time>
      </trkpt>
      <trkpt lat="46.0458640" lon="5.6959720">
        <ele>1097.5</ele>
        <time>2022-07-25T13:10:06Z</time>
      </trkpt>
      <trkpt lat="46.0458790" lon="5.6959580">
        <ele>1097.6</ele>
        <time>2022-07-25T13:10:07Z</time>
      </trkpt>
      <trkpt lat="46.0458940" lon="5.6959500">
        <ele>1097.8</ele>
        <time>2022-07-25T13:10:08Z</time>
      </trkpt>
      <trkpt lat="46.0459230" lon="5.6959320">
        <ele>1098.1</ele>
        <time>2022-07-25T13:10:10Z</time>
      </trkpt>
      <trkpt lat="46.0459520" lon="5.6959180">
        <ele>1098.4</ele>
        <time>2022-07-25T13:10:11Z</time>
      </trkpt>
      <trkpt lat="46.0459790" lon="5.6959070">
        <ele>1098.7</ele>
        <time>2022-07-25T13:10:12Z</time>
      </trkpt>
      <trkpt lat="46.0459870" lon="5.6959050">
        <ele>1098.8</ele>
        <time>2022-07-25T13:10:13Z</time>
      </trkpt>
      <trkpt lat="46.0460070" lon="5.6959050">
        <ele>1099.0</ele>
        <time>2022-07-25T13:10:14Z</time>
      </trkpt>
      <trkpt lat="46.0460160" lon="5.6959050">
        <ele>1099.2</ele>
        <time>2022-07-25T13:10:15Z</time>
      </trkpt>
      <trkpt lat="46.0460250" lon="5.6959050">
        <ele>1099.3</ele>
        <time>2022-07-25T13:10:16Z</time>
      </trkpt>
      <trkpt lat="46.0460420" lon="5.6959060">
        <ele>1099.5</ele>
        <time>2022-07-25T13:10:18Z</time>
      </trkpt>
      <trkpt lat="46.0460610" lon="5.6959080">
        <ele>1099.8</ele>
        <time>2022-07-25T13:10:19Z</time>
      </trkpt>
      <trkpt lat="46.0460740" lon="5.6959090">
        <ele>1100.0</ele>
        <time>2022-07-25T13:10:20Z</time>
      </trkpt>
      <trkpt lat="46.0460910" lon="5.6959100">
        <ele>1100.2</ele>
        <time>2022-07-25T13:10:21Z</time>
      </trkpt>
      <trkpt lat="46.0461060" lon="5.6959120">
        <ele>1100.5</ele>
        <time>2022-07-25T13:10:22Z</time>
      </trkpt>
      <trkpt lat="46.0461200" lon="5.6959110">
        <ele>1100.7</ele>
        <time>2022-07-25T13:10:23Z</time>
      </trkpt>
      <trkpt lat="46.0461290" lon="5.6959130">
        <ele>1100.8</ele>
        <time>2022-07-25T13:10:24Z</time>
      </trkpt>
      <trkpt lat="46.0461350" lon="5.6959160">
        <ele>1100.9</ele>
        <time>2022-07-25T13:10:25Z</time>
      </trkpt>
      <trkpt lat="46.0461510" lon="5.6959190">
        <ele>1101.1</ele>
        <time>2022-07-25T13:10:26Z</time>
      </trkpt>
      <trkpt lat="46.0461640" lon="5.6959190">
        <ele>1101.3</ele>
        <time>2022-07-25T13:10:28Z</time>
      </trkpt>
      <trkpt lat="46.0461850" lon="5.6959180">
        <ele>1101.6</ele>
        <time>2022-07-25T13:10:29Z</time>
      </trkpt>
      <trkpt lat="46.0462050" lon="5.6959200">
        <ele>1101.8</ele>
        <time>2022-07-25T13:10:30Z</time>
      </trkpt>
      <trkpt lat="46.0462150" lon="5.6959300">
        <ele>1102.0</ele>
        <time>2022-07-25T13:10:31Z</time>
      </trkpt>
      <trkpt lat="46.0462220" lon="5.6959380">
        <ele>1102.1</ele>
        <time>2022-07-25T13:10:32Z</time>
      </trkpt>
      <trkpt lat="46.0462290" lon="5.6959430">
        <ele>1102.1</ele>
        <time>2022-07-25T13:10:33Z</time>
      </trkpt>
      <trkpt lat="46.0462360" lon="5.6959440">
        <ele>1102.2</ele>
        <time>2022-07-25T13:10:34Z</time>
      </trkpt>
      <trkpt lat="46.0462470" lon="5.6959450">
        <ele>1102.3</ele>
        <time>2022-07-25T13:10:35Z</time>
      </trkpt>
      <trkpt lat="46.0462600" lon="5.6959460">
        <ele>1102.5</ele>
        <time>2022-07-25T13:10:36Z</time>
      </trkpt>
      <trkpt lat="46.0462770" lon="5.6959470">
        <ele>1102.6</ele>
        <time>2022-07-25T13:10:37Z</time>
      </trkpt>
      <trkpt lat="46.0462970" lon="5.6959490">
        <ele>1102.8</ele>
        <time>2022-07-25T13:10:38Z</time>
      </trkpt>
      <trkpt lat="46.0463120" lon="5.6959520">
        <ele>1102.9</ele>
        <time>2022-07-25T13:10:39Z</time>
      </trkpt>
      <trkpt lat="46.0463390" lon="5.6959620">
        <ele>1103.0</ele>
        <time>2022-07-25T13:10:40Z</time>
      </trkpt>
      <trkpt lat="46.0463490" lon="5.6959650">
        <ele>1103.1</ele>
        <time>2022-07-25T13:10:41Z</time>
      </trkpt>
      <trkpt lat="46.0463770" lon="5.6959600">
        <ele>1103.2</ele>
        <time>2022-07-25T13:10:42Z</time>
      </trkpt>
      <trkpt lat="46.0463890" lon="5.6959560">
        <ele>1103.3</ele>
        <time>2022-07-25T13:10:43Z</time>
      </trkpt>
      <trkpt lat="46.0464060" lon="5.6959480">
        <ele>1103.4</ele>
        <time>2022-07-25T13:10:44Z</time>
      </trkpt>
      <trkpt lat="46.0464220" lon="5.6959440">
        <ele>1103.5</ele>
        <time>2022-07-25T13:10:45Z</time>
      </trkpt>
      <trkpt lat="46.0464510" lon="5.6959430">
        <ele>1103.6</ele>
        <time>2022-07-25T13:10:46Z</time>
      </trkpt>
      <trkpt lat="46.0464620" lon="5.6959430">
        <ele>1103.7</ele>
        <time>2022-07-25T13:10:47Z</time>
      </trkpt>
      <trkpt lat="46.0464980" lon="5.6959530">
        <ele>1103.9</ele>
        <time>2022-07-25T13:10:48Z</time>
      </trkpt>
      <trkpt lat="46.0465100" lon="5.6959580">
        <ele>1104.0</ele>
        <time>2022-07-25T13:10:49Z</time>
      </trkpt>
      <trkpt lat="46.0465290" lon="5.6959650">
        <ele>1104.2</ele>
        <time>2022-07-25T13:10:50Z</time>
      </trkpt>
      <trkpt lat="46.0465440" lon="5.6959690">
        <ele>1104.3</ele>
        <time>2022-07-25T13:10:51Z</time>
      </trkpt>
      <trkpt lat="46.0465610" lon="5.6959730">
        <ele>1104.4</ele>
        <time>2022-07-25T13:10:52Z</time>
      </trkpt>
      <trkpt lat="46.0465740" lon="5.6959770">
        <ele>1104.5</ele>
        <time>2022-07-25T13:10:53Z</time>
      </trkpt>
      <trkpt lat="46.0465890" lon="5.6959790">
        <ele>1104.7</ele>
        <time>2022-07-25T13:10:54Z</time>
      </trkpt>
      <trkpt lat="46.0466060" lon="5.6959800">
        <ele>1104.8</ele>
        <time>2022-07-25T13:10:55Z</time>
      </trkpt>
      <trkpt lat="46.0466280" lon="5.6959850">
        <ele>1105.0</ele>
        <time>2022-07-25T13:10:56Z</time>
      </trkpt>
      <trkpt lat="46.0466360" lon="5.6959870">
        <ele>1105.1</ele>
        <time>2022-07-25T13:10:57Z</time>
      </trkpt>
      <trkpt lat="46.0466450" lon="5.6959900">
        <ele>1105.2</ele>
        <time>2022-07-25T13:10:58Z</time>
      </trkpt>
      <trkpt lat="46.0466590" lon="5.6959910">
        <ele>1105.4</ele>
        <time>2022-07-25T13:10:59Z</time>
      </trkpt>
      <trkpt lat="46.0466700" lon="5.6959890">
        <ele>1105.5</ele>
        <time>2022-07-25T13:11:00Z</time>
      </trkpt>
      <trkpt lat="46.0466770" lon="5.6959850">
        <ele>1105.5</ele>
        <time>2022-07-25T13:11:01Z</time>
      </trkpt>
      <trkpt lat="46.0466830" lon="5.6959850">
        <ele>1105.6</ele>
        <time>2022-07-25T13:11:02Z</time>
      </trkpt>
      <trkpt lat="46.0466960" lon="5.6959920">
        <ele>1105.8</ele>
        <time>2022-07-25T13:11:03Z</time>
      </trkpt>
      <trkpt lat="46.0467090" lon="5.6960000">
        <ele>1105.9</ele>
        <time>2022-07-25T13:11:04Z</time>
      </trkpt>
      <trkpt lat="46.0467210" lon="5.6960020">
        <ele>1106.0</ele>
        <time>2022-07-25T13:11:05Z</time>
      </trkpt>
      <trkpt lat="46.0467300" lon="5.6960010">
        <ele>1106.1</ele>
        <time>2022-07-25T13:11:06Z</time>
      </trkpt>
      <trkpt lat="46.0467380" lon="5.6959980">
        <ele>1106.2</ele>
        <time>2022-07-25T13:11:07Z</time>
      </trkpt>
      <trkpt lat="46.0467460" lon="5.6959960">
        <ele>1106.3</ele>
        <time>2022-07-25T13:11:08Z</time>
      </trkpt>
      <trkpt lat="46.0467560" lon="5.6959950">
        <ele>1106.4</ele>
        <time>2022-07-25T13:11:09Z</time>
      </trkpt>
      <trkpt lat="46.0467710" lon="5.6959950">
        <ele>1106.6</ele>
        <time>2022-07-25T13:11:10Z</time>
      </trkpt>
      <trkpt lat="46.0467820" lon="5.6959970">
        <ele>1106.7</ele>
        <time>2022-07-25T13:11:11Z</time>
      </trkpt>
      <trkpt lat="46.0467930" lon="5.6959990">
        <ele>1106.8</ele>
        <time>2022-07-25T13:11:12Z</time>
      </trkpt>
      <trkpt lat="46.0468060" lon="5.6959990">
        <ele>1106.9</ele>
        <time>2022-07-25T13:11:13Z</time>
      </trkpt>
      <trkpt lat="46.0468370" lon="5.6959990">
        <ele>1107.3</ele>
        <time>2022-07-25T13:11:14Z</time>
      </trkpt>
      <trkpt lat="46.0468470" lon="5.6960000">
        <ele>1107.4</ele>
        <time>2022-07-25T13:11:15Z</time>
      </trkpt>
      <trkpt lat="46.0468630" lon="5.6960010">
        <ele>1107.5</ele>
        <time>2022-07-25T13:11:16Z</time>
      </trkpt>
      <trkpt lat="46.0468780" lon="5.6960020">
        <ele>1107.7</ele>
        <time>2022-07-25T13:11:17Z</time>
      </trkpt>
      <trkpt lat="46.0469010" lon="5.6959950">
        <ele>1107.9</ele>
        <time>2022-07-25T13:11:18Z</time>
      </trkpt>
      <trkpt lat="46.0469110" lon="5.6959910">
        <ele>1108.0</ele>
        <time>2022-07-25T13:11:19Z</time>
      </trkpt>
      <trkpt lat="46.0469210" lon="5.6959880">
        <ele>1108.1</ele>
        <time>2022-07-25T13:11:20Z</time>
      </trkpt>
      <trkpt lat="46.0469370" lon="5.6959880">
        <ele>1108.2</ele>
        <time>2022-07-25T13:11:21Z</time>
      </trkpt>
      <trkpt lat="46.0469540" lon="5.6959960">
        <ele>1108.4</ele>
        <time>2022-07-25T13:11:22Z</time>
      </trkpt>
      <trkpt lat="46.0469700" lon="5.6960030">
        <ele>1108.6</ele>
        <time>2022-07-25T13:11:23Z</time>
      </trkpt>
      <trkpt lat="46.0469870" lon="5.6960090">
        <ele>1108.7</ele>
        <time>2022-07-25T13:11:24Z</time>
      </trkpt>
      <trkpt lat="46.0470010" lon="5.6960120">
        <ele>1108.9</ele>
        <time>2022-07-25T13:11:25Z</time>
      </trkpt>
      <trkpt lat="46.0470180" lon="5.6960130">
        <ele>1109.0</ele>
        <time>2022-07-25T13:11:26Z</time>
      </trkpt>
      <trkpt lat="46.0470330" lon="5.6960140">
        <ele>1109.2</ele>
        <time>2022-07-25T13:11:27Z</time>
      </trkpt>
      <trkpt lat="46.0470450" lon="5.6960140">
        <ele>1109.3</ele>
        <time>2022-07-25T13:11:28Z</time>
      </trkpt>
      <trkpt lat="46.0470590" lon="5.6960140">
        <ele>1109.5</ele>
        <time>2022-07-25T13:11:29Z</time>
      </trkpt>
      <trkpt lat="46.0470770" lon="5.6960130">
        <ele>1109.7</ele>
        <time>2022-07-25T13:11:30Z</time>
      </trkpt>
      <trkpt lat="46.0471060" lon="5.6960220">
        <ele>1110.0</ele>
        <time>2022-07-25T13:11:31Z</time>
      </trkpt>
      <trkpt lat="46.0471140" lon="5.6960260">
        <ele>1110.1</ele>
        <time>2022-07-25T13:11:32Z</time>
      </trkpt>
      <trkpt lat="46.0471400" lon="5.6960400">
        <ele>1110.5</ele>
        <time>2022-07-25T13:11:34Z</time>
      </trkpt>
      <trkpt lat="46.0471490" lon="5.6960430">
        <ele>1110.6</ele>
        <time>2022-07-25T13:11:35Z</time>
      </trkpt>
      <trkpt lat="46.0471550" lon="5.6960480">
        <ele>1110.7</ele>
        <time>2022-07-25T13:11:36Z</time>
      </trkpt>
      <trkpt lat="46.0471580" lon="5.6960540">
        <ele>1110.7</ele>
        <time>2022-07-25T13:11:37Z</time>
      </trkpt>
      <trkpt lat="46.0471620" lon="5.6960600">
        <ele>1110.8</ele>
        <time>2022-07-25T13:11:38Z</time>
      </trkpt>
      <trkpt lat="46.0471710" lon="5.6960660">
        <ele>1110.9</ele>
        <time>2022-07-25T13:11:39Z</time>
      </trkpt>
      <trkpt lat="46.0471820" lon="5.6960720">
        <ele>1111.1</ele>
        <time>2022-07-25T13:11:40Z</time>
      </trkpt>
      <trkpt lat="46.0471930" lon="5.6960760">
        <ele>1111.3</ele>
        <time>2022-07-25T13:11:41Z</time>
      </trkpt>
      <trkpt lat="46.0472020" lon="5.6960830">
        <ele>1111.4</ele>
        <time>2022-07-25T13:11:42Z</time>
      </trkpt>
      <trkpt lat="46.0472220" lon="5.6960950">
        <ele>1111.7</ele>
        <time>2022-07-25T13:11:43Z</time>
      </trkpt>
      <trkpt lat="46.0472300" lon="5.6960980">
        <ele>1111.8</ele>
        <time>2022-07-25T13:11:44Z</time>
      </trkpt>
      <trkpt lat="46.0472380" lon="5.6961020">
        <ele>1111.9</ele>
        <time>2022-07-25T13:11:45Z</time>
      </trkpt>
      <trkpt lat="46.0472560" lon="5.6961090">
        <ele>1112.2</ele>
        <time>2022-07-25T13:11:46Z</time>
      </trkpt>
      <trkpt lat="46.0472710" lon="5.6961110">
        <ele>1112.4</ele>
        <time>2022-07-25T13:11:48Z</time>
      </trkpt>
      <trkpt lat="46.0472850" lon="5.6961100">
        <ele>1112.5</ele>
        <time>2022-07-25T13:11:49Z</time>
      </trkpt>
      <trkpt lat="46.0473050" lon="5.6961050">
        <ele>1112.8</ele>
        <time>2022-07-25T13:11:50Z</time>
      </trkpt>
      <trkpt lat="46.0473210" lon="5.6960850">
        <ele>1113.0</ele>
        <time>2022-07-25T13:11:51Z</time>
      </trkpt>
      <trkpt lat="46.0473290" lon="5.6960750">
        <ele>1113.1</ele>
        <time>2022-07-25T13:11:52Z</time>
      </trkpt>
      <trkpt lat="46.0473360" lon="5.6960650">
        <ele>1113.2</ele>
        <time>2022-07-25T13:11:53Z</time>
      </trkpt>
      <trkpt lat="46.0473600" lon="5.6960440">
        <ele>1113.5</ele>
        <time>2022-07-25T13:11:54Z</time>
      </trkpt>
      <trkpt lat="46.0473690" lon="5.6960360">
        <ele>1113.6</ele>
        <time>2022-07-25T13:11:55Z</time>
      </trkpt>
      <trkpt lat="46.0473850" lon="5.6960220">
        <ele>1113.8</ele>
        <time>2022-07-25T13:11:56Z</time>
      </trkpt>
      <trkpt lat="46.0473900" lon="5.6960190">
        <ele>1113.9</ele>
        <time>2022-07-25T13:11:58Z</time>
      </trkpt>
      <trkpt lat="46.0473970" lon="5.6960140">
        <ele>1113.9</ele>
        <time>2022-07-25T13:11:59Z</time>
      </trkpt>
      <trkpt lat="46.0474090" lon="5.6960040">
        <ele>1114.0</ele>
        <time>2022-07-25T13:12:00Z</time>
      </trkpt>
      <trkpt lat="46.0474210" lon="5.6959970">
        <ele>1114.1</ele>
        <time>2022-07-25T13:12:01Z</time>
      </trkpt>
      <trkpt lat="46.0474360" lon="5.6959910">
        <ele>1114.2</ele>
        <time>2022-07-25T13:12:03Z</time>
      </trkpt>
      <trkpt lat="46.0474460" lon="5.6959910">
        <ele>1114.3</ele>
        <time>2022-07-25T13:12:04Z</time>
      </trkpt>
      <trkpt lat="46.0474570" lon="5.6959910">
        <ele>1114.4</ele>
        <time>2022-07-25T13:12:05Z</time>
      </trkpt>
      <trkpt lat="46.0474710" lon="5.6959940">
        <ele>1114.4</ele>
        <time>2022-07-25T13:12:06Z</time>
      </trkpt>
      <trkpt lat="46.0474970" lon="5.6959990">
        <ele>1114.6</ele>
        <time>2022-07-25T13:12:07Z</time>
      </trkpt>
      <trkpt lat="46.0475060" lon="5.6960020">
        <ele>1114.6</ele>
        <time>2022-07-25T13:12:08Z</time>
      </trkpt>
      <trkpt lat="46.0475250" lon="5.6960090">
        <ele>1114.7</ele>
        <time>2022-07-25T13:12:09Z</time>
      </trkpt>
      <trkpt lat="46.0475440" lon="5.6960220">
        <ele>1114.8</ele>
        <time>2022-07-25T13:12:11Z</time>
      </trkpt>
      <trkpt lat="46.0475770" lon="5.6960390">
        <ele>1114.8</ele>
        <time>2022-07-25T13:12:12Z</time>
      </trkpt>
      <trkpt lat="46.0475910" lon="5.6960440">
        <ele>1114.9</ele>
        <time>2022-07-25T13:12:13Z</time>
      </trkpt>
      <trkpt lat="46.0476270" lon="5.6960560">
        <ele>1114.9</ele>
        <time>2022-07-25T13:12:14Z</time>
      </trkpt>
      <trkpt lat="46.0476410" lon="5.6960620">
        <ele>1114.9</ele>
        <time>2022-07-25T13:12:15Z</time>
      </trkpt>
      <trkpt lat="46.0476790" lon="5.6960790">
        <ele>1114.9</ele>
        <time>2022-07-25T13:12:17Z</time>
      </trkpt>
      <trkpt lat="46.0477100" lon="5.6960950">
        <ele>1114.8</ele>
        <time>2022-07-25T13:12:18Z</time>
      </trkpt>
      <trkpt lat="46.0477510" lon="5.6961100">
        <ele>1114.8</ele>
        <time>2022-07-25T13:12:19Z</time>
      </trkpt>
      <trkpt lat="46.0477890" lon="5.6961390">
        <ele>1114.8</ele>
        <time>2022-07-25T13:12:20Z</time>
      </trkpt>
      <trkpt lat="46.0478130" lon="5.6961580">
        <ele>1114.8</ele>
        <time>2022-07-25T13:12:21Z</time>
      </trkpt>
      <trkpt lat="46.0478530" lon="5.6961910">
        <ele>1114.8</ele>
        <time>2022-07-25T13:12:23Z</time>
      </trkpt>
      <trkpt lat="46.0478660" lon="5.6962010">
        <ele>1114.8</ele>
        <time>2022-07-25T13:12:24Z</time>
      </trkpt>
      <trkpt lat="46.0478790" lon="5.6962110">
        <ele>1114.8</ele>
        <time>2022-07-25T13:12:25Z</time>
      </trkpt>
      <trkpt lat="46.0479110" lon="5.6962250">
        <ele>1114.9</ele>
        <time>2022-07-25T13:12:26Z</time>
      </trkpt>
      <trkpt lat="46.0479250" lon="5.6962290">
        <ele>1114.9</ele>
        <time>2022-07-25T13:12:27Z</time>
      </trkpt>
      <trkpt lat="46.0479630" lon="5.6962390">
        <ele>1115.0</ele>
        <time>2022-07-25T13:12:29Z</time>
      </trkpt>
      <trkpt lat="46.0479770" lon="5.6962420">
        <ele>1115.1</ele>
        <time>2022-07-25T13:12:30Z</time>
      </trkpt>
      <trkpt lat="46.0480200" lon="5.6962530">
        <ele>1115.2</ele>
        <time>2022-07-25T13:12:31Z</time>
      </trkpt>
      <trkpt lat="46.0480440" lon="5.6962590">
        <ele>1115.3</ele>
        <time>2022-07-25T13:12:32Z</time>
      </trkpt>
      <trkpt lat="46.0480920" lon="5.6962670">
        <ele>1115.6</ele>
        <time>2022-07-25T13:12:34Z</time>
      </trkpt>
      <trkpt lat="46.0481060" lon="5.6962680">
        <ele>1115.6</ele>
        <time>2022-07-25T13:12:35Z</time>
      </trkpt>
      <trkpt lat="46.0481200" lon="5.6962700">
        <ele>1115.7</ele>
        <time>2022-07-25T13:12:36Z</time>
      </trkpt>
      <trkpt lat="46.0481420" lon="5.6962740">
        <ele>1115.8</ele>
        <time>2022-07-25T13:12:37Z</time>
      </trkpt>
      <trkpt lat="46.0481770" lon="5.6962770">
        <ele>1116.0</ele>
        <time>2022-07-25T13:12:39Z</time>
      </trkpt>
      <trkpt lat="46.0482110" lon="5.6962820">
        <ele>1116.2</ele>
        <time>2022-07-25T13:12:40Z</time>
      </trkpt>
      <trkpt lat="46.0482200" lon="5.6962830">
        <ele>1116.2</ele>
        <time>2022-07-25T13:12:41Z</time>
      </trkpt>
      <trkpt lat="46.0482500" lon="5.6962880">
        <ele>1116.4</ele>
        <time>2022-07-25T13:12:42Z</time>
      </trkpt>
      <trkpt lat="46.0482860" lon="5.6962970">
        <ele>1116.5</ele>
        <time>2022-07-25T13:12:44Z</time>
      </trkpt>
      <trkpt lat="46.0483150" lon="5.6963010">
        <ele>1116.7</ele>
        <time>2022-07-25T13:12:45Z</time>
      </trkpt>
      <trkpt lat="46.0483230" lon="5.6963010">
        <ele>1116.7</ele>
        <time>2022-07-25T13:12:46Z</time>
      </trkpt>
      <trkpt lat="46.0483460" lon="5.6963030">
        <ele>1116.8</ele>
        <time>2022-07-25T13:12:47Z</time>
      </trkpt>
      <trkpt lat="46.0483790" lon="5.6963060">
        <ele>1116.9</ele>
        <time>2022-07-25T13:12:49Z</time>
      </trkpt>
      <trkpt lat="46.0484100" lon="5.6963170">
        <ele>1117.1</ele>
        <time>2022-07-25T13:12:50Z</time>
      </trkpt>
      <trkpt lat="46.0484470" lon="5.6963300">
        <ele>1117.2</ele>
        <time>2022-07-25T13:12:51Z</time>
      </trkpt>
      <trkpt lat="46.0484870" lon="5.6963370">
        <ele>1117.4</ele>
        <time>2022-07-25T13:12:53Z</time>
      </trkpt>
      <trkpt lat="46.0485010" lon="5.6963350">
        <ele>1117.4</ele>
        <time>2022-07-25T13:12:54Z</time>
      </trkpt>
      <trkpt lat="46.0485140" lon="5.6963340">
        <ele>1117.5</ele>
        <time>2022-07-25T13:12:55Z</time>
      </trkpt>
      <trkpt lat="46.0485580" lon="5.6963430">
        <ele>1117.7</ele>
        <time>2022-07-25T13:12:56Z</time>
      </trkpt>
      <trkpt lat="46.0485760" lon="5.6963470">
        <ele>1117.8</ele>
        <time>2022-07-25T13:12:57Z</time>
      </trkpt>
      <trkpt lat="46.0486070" lon="5.6963550">
        <ele>1118.0</ele>
        <time>2022-07-25T13:12:58Z</time>
      </trkpt>
      <trkpt lat="46.0486150" lon="5.6963580">
        <ele>1118.1</ele>
        <time>2022-07-25T13:12:59Z</time>
      </trkpt>
      <trkpt lat="46.0486290" lon="5.6963650">
        <ele>1118.2</ele>
        <time>2022-07-25T13:13:00Z</time>
      </trkpt>
      <trkpt lat="46.0486390" lon="5.6963710">
        <ele>1118.2</ele>
        <time>2022-07-25T13:13:01Z</time>
      </trkpt>
      <trkpt lat="46.0486560" lon="5.6963820">
        <ele>1118.4</ele>
        <time>2022-07-25T13:13:03Z</time>
      </trkpt>
      <trkpt lat="46.0486670" lon="5.6963890">
        <ele>1118.5</ele>
        <time>2022-07-25T13:13:04Z</time>
      </trkpt>
      <trkpt lat="46.0486780" lon="5.6963930">
        <ele>1118.6</ele>
        <time>2022-07-25T13:13:05Z</time>
      </trkpt>
      <trkpt lat="46.0486880" lon="5.6963950">
        <ele>1118.7</ele>
        <time>2022-07-25T13:13:06Z</time>
      </trkpt>
      <trkpt lat="46.0487020" lon="5.6963980">
        <ele>1118.8</ele>
        <time>2022-07-25T13:13:08Z</time>
      </trkpt>
      <trkpt lat="46.0487150" lon="5.6963990">
        <ele>1118.9</ele>
        <time>2022-07-25T13:13:09Z</time>
      </trkpt>
      <trkpt lat="46.0487260" lon="5.6963990">
        <ele>1119.0</ele>
        <time>2022-07-25T13:13:10Z</time>
      </trkpt>
      <trkpt lat="46.0487360" lon="5.6963980">
        <ele>1119.1</ele>
        <time>2022-07-25T13:13:11Z</time>
      </trkpt>
      <trkpt lat="46.0487430" lon="5.6963980">
        <ele>1119.2</ele>
        <time>2022-07-25T13:13:12Z</time>
      </trkpt>
      <trkpt lat="46.0487700" lon="5.6964000">
        <ele>1119.5</ele>
        <time>2022-07-25T13:13:14Z</time>
      </trkpt>
      <trkpt lat="46.0487890" lon="5.6964000">
        <ele>1119.7</ele>
        <time>2022-07-25T13:13:15Z</time>
      </trkpt>
      <trkpt lat="46.0488060" lon="5.6963990">
        <ele>1119.9</ele>
        <time>2022-07-25T13:13:16Z</time>
      </trkpt>
      <trkpt lat="46.0488140" lon="5.6964000">
        <ele>1119.9</ele>
        <time>2022-07-25T13:13:17Z</time>
      </trkpt>
      <trkpt lat="46.0488300" lon="5.6964010">
        <ele>1120.1</ele>
        <time>2022-07-25T13:13:18Z</time>
      </trkpt>
      <trkpt lat="46.0488820" lon="5.6964050">
        <ele>1120.7</ele>
        <time>2022-07-25T13:13:20Z</time>
      </trkpt>
      <trkpt lat="46.0488970" lon="5.6964040">
        <ele>1120.8</ele>
        <time>2022-07-25T13:13:21Z</time>
      </trkpt>
      <trkpt lat="46.0489130" lon="5.6964030">
        <ele>1121.0</ele>
        <time>2022-07-25T13:13:22Z</time>
      </trkpt>
      <trkpt lat="46.0489400" lon="5.6963970">
        <ele>1121.2</ele>
        <time>2022-07-25T13:13:23Z</time>
      </trkpt>
      <trkpt lat="46.0489500" lon="5.6963940">
        <ele>1121.3</ele>
        <time>2022-07-25T13:13:24Z</time>
      </trkpt>
      <trkpt lat="46.0489770" lon="5.6963870">
        <ele>1121.5</ele>
        <time>2022-07-25T13:13:25Z</time>
      </trkpt>
      <trkpt lat="46.0489880" lon="5.6963890">
        <ele>1121.6</ele>
        <time>2022-07-25T13:13:26Z</time>
      </trkpt>
      <trkpt lat="46.0490250" lon="5.6964020">
        <ele>1121.8</ele>
        <time>2022-07-25T13:13:28Z</time>
      </trkpt>
      <trkpt lat="46.0490400" lon="5.6964040">
        <ele>1121.9</ele>
        <time>2022-07-25T13:13:29Z</time>
      </trkpt>
      <trkpt lat="46.0490790" lon="5.6964080">
        <ele>1122.1</ele>
        <time>2022-07-25T13:13:31Z</time>
      </trkpt>
      <trkpt lat="46.0490990" lon="5.6964060">
        <ele>1122.2</ele>
        <time>2022-07-25T13:13:32Z</time>
      </trkpt>
      <trkpt lat="46.0491120" lon="5.6964040">
        <ele>1122.2</ele>
        <time>2022-07-25T13:13:33Z</time>
      </trkpt>
      <trkpt lat="46.0491310" lon="5.6964040">
        <ele>1122.3</ele>
        <time>2022-07-25T13:13:34Z</time>
      </trkpt>
      <trkpt lat="46.0491420" lon="5.6964030">
        <ele>1122.3</ele>
        <time>2022-07-25T13:13:35Z</time>
      </trkpt>
      <trkpt lat="46.0491740" lon="5.6963980">
        <ele>1122.4</ele>
        <time>2022-07-25T13:13:36Z</time>
      </trkpt>
      <trkpt lat="46.0491870" lon="5.6963940">
        <ele>1122.4</ele>
        <time>2022-07-25T13:13:38Z</time>
      </trkpt>
      <trkpt lat="46.0492010" lon="5.6963890">
        <ele>1122.5</ele>
        <time>2022-07-25T13:13:39Z</time>
      </trkpt>
      <trkpt lat="46.0492150" lon="5.6963850">
        <ele>1122.5</ele>
        <time>2022-07-25T13:13:40Z</time>
      </trkpt>
      <trkpt lat="46.0492530" lon="5.6963740">
        <ele>1122.6</ele>
        <time>2022-07-25T13:13:41Z</time>
      </trkpt>
      <trkpt lat="46.0492680" lon="5.6963710">
        <ele>1122.6</ele>
        <time>2022-07-25T13:13:42Z</time>
      </trkpt>
      <trkpt lat="46.0493080" lon="5.6963570">
        <ele>1122.7</ele>
        <time>2022-07-25T13:13:44Z</time>
      </trkpt>
      <trkpt lat="46.0493210" lon="5.6963550">
        <ele>1122.7</ele>
        <time>2022-07-25T13:13:45Z</time>
      </trkpt>
      <trkpt lat="46.0493330" lon="5.6963520">
        <ele>1122.7</ele>
        <time>2022-07-25T13:13:46Z</time>
      </trkpt>
      <trkpt lat="46.0493760" lon="5.6963530">
        <ele>1122.8</ele>
        <time>2022-07-25T13:13:47Z</time>
      </trkpt>
      <trkpt lat="46.0494290" lon="5.6963570">
        <ele>1122.8</ele>
        <time>2022-07-25T13:13:49Z</time>
      </trkpt>
      <trkpt lat="46.0494730" lon="5.6963620">
        <ele>1122.7</ele>
        <time>2022-07-25T13:13:50Z</time>
      </trkpt>
      <trkpt lat="46.0495110" lon="5.6963700">
        <ele>1122.7</ele>
        <time>2022-07-25T13:13:51Z</time>
      </trkpt>
      <trkpt lat="46.0495770" lon="5.6963840">
        <ele>1122.5</ele>
        <time>2022-07-25T13:13:52Z</time>
      </trkpt>
      <trkpt lat="46.0496230" lon="5.6963970">
        <ele>1122.4</ele>
        <time>2022-07-25T13:13:54Z</time>
      </trkpt>
      <trkpt lat="46.0496610" lon="5.6964170">
        <ele>1122.2</ele>
        <time>2022-07-25T13:13:55Z</time>
      </trkpt>
      <trkpt lat="46.0497110" lon="5.6964330">
        <ele>1122.1</ele>
        <time>2022-07-25T13:13:57Z</time>
      </trkpt>
      <trkpt lat="46.0497530" lon="5.6964410">
        <ele>1121.9</ele>
        <time>2022-07-25T13:13:58Z</time>
      </trkpt>
      <trkpt lat="46.0497930" lon="5.6964550">
        <ele>1121.8</ele>
        <time>2022-07-25T13:13:59Z</time>
      </trkpt>
      <trkpt lat="46.0499680" lon="5.6964450">
        <ele>1121.2</ele>
        <time>2022-07-25T13:14:00Z</time>
      </trkpt>
      <trkpt lat="46.0500520" lon="5.6964430">
        <ele>1120.7</ele>
        <time>2022-07-25T13:14:01Z</time>
      </trkpt>
      <trkpt lat="46.0501370" lon="5.6964500">
        <ele>1120.0</ele>
        <time>2022-07-25T13:14:02Z</time>
      </trkpt>
      <trkpt lat="46.0502150" lon="5.6964680">
        <ele>1119.2</ele>
        <time>2022-07-25T13:14:03Z</time>
      </trkpt>
      <trkpt lat="46.0502870" lon="5.6964870">
        <ele>1118.6</ele>
        <time>2022-07-25T13:14:04Z</time>
      </trkpt>
      <trkpt lat="46.0503580" lon="5.6965130">
        <ele>1118.1</ele>
        <time>2022-07-25T13:14:05Z</time>
      </trkpt>
      <trkpt lat="46.0504280" lon="5.6965390">
        <ele>1117.8</ele>
        <time>2022-07-25T13:14:06Z</time>
      </trkpt>
      <trkpt lat="46.0504770" lon="5.6965650">
        <ele>1117.6</ele>
        <time>2022-07-25T13:14:07Z</time>
      </trkpt>
      <trkpt lat="46.0505020" lon="5.6965500">
        <ele>1117.6</ele>
        <time>2022-07-25T13:14:08Z</time>
      </trkpt>
      <trkpt lat="46.0505120" lon="5.6965520">
        <ele>1117.6</ele>
        <time>2022-07-25T13:14:10Z</time>
      </trkpt>
      <trkpt lat="46.0505290" lon="5.6965590">
        <ele>1117.6</ele>
        <time>2022-07-25T13:14:11Z</time>
      </trkpt>
      <trkpt lat="46.0505590" lon="5.6965680">
        <ele>1117.6</ele>
        <time>2022-07-25T13:14:12Z</time>
      </trkpt>
      <trkpt lat="46.0505730" lon="5.6965690">
        <ele>1117.6</ele>
        <time>2022-07-25T13:14:13Z</time>
      </trkpt>
      <trkpt lat="46.0505880" lon="5.6965700">
        <ele>1117.7</ele>
        <time>2022-07-25T13:14:14Z</time>
      </trkpt>
      <trkpt lat="46.0506020" lon="5.6965620">
        <ele>1117.7</ele>
        <time>2022-07-25T13:14:16Z</time>
      </trkpt>
      <trkpt lat="46.0506140" lon="5.6965460">
        <ele>1117.8</ele>
        <time>2022-07-25T13:14:17Z</time>
      </trkpt>
      <trkpt lat="46.0506230" lon="5.6965310">
        <ele>1117.9</ele>
        <time>2022-07-25T13:14:18Z</time>
      </trkpt>
      <trkpt lat="46.0506300" lon="5.6965180">
        <ele>1118.0</ele>
        <time>2022-07-25T13:14:19Z</time>
      </trkpt>
      <trkpt lat="46.0506300" lon="5.6965170">
        <ele>1118.0</ele>
        <time>2022-07-25T13:14:20Z</time>
      </trkpt>
      <trkpt lat="46.0506370" lon="5.6965150">
        <ele>1118.0</ele>
        <time>2022-07-25T13:14:21Z</time>
      </trkpt>
      <trkpt lat="46.0506590" lon="5.6964890">
        <ele>1118.3</ele>
        <time>2022-07-25T13:14:22Z</time>
      </trkpt>
      <trkpt lat="46.0506680" lon="5.6964780">
        <ele>1118.4</ele>
        <time>2022-07-25T13:14:24Z</time>
      </trkpt>
      <trkpt lat="46.0506770" lon="5.6964670">
        <ele>1118.5</ele>
        <time>2022-07-25T13:14:25Z</time>
      </trkpt>
      <trkpt lat="46.0506860" lon="5.6964550">
        <ele>1118.6</ele>
        <time>2022-07-25T13:14:26Z</time>
      </trkpt>
      <trkpt lat="46.0506950" lon="5.6964470">
        <ele>1118.7</ele>
        <time>2022-07-25T13:14:27Z</time>
      </trkpt>
      <trkpt lat="46.0506990" lon="5.6964360">
        <ele>1118.8</ele>
        <time>2022-07-25T13:14:28Z</time>
      </trkpt>
      <trkpt lat="46.0507050" lon="5.6964220">
        <ele>1119.0</ele>
        <time>2022-07-25T13:14:29Z</time>
      </trkpt>
      <trkpt lat="46.0507120" lon="5.6964120">
        <ele>1119.1</ele>
        <time>2022-07-25T13:14:31Z</time>
      </trkpt>
      <trkpt lat="46.0507190" lon="5.6964050">
        <ele>1119.2</ele>
        <time>2022-07-25T13:14:32Z</time>
      </trkpt>
      <trkpt lat="46.0507320" lon="5.6963950">
        <ele>1119.4</ele>
        <time>2022-07-25T13:14:33Z</time>
      </trkpt>
      <trkpt lat="46.0507420" lon="5.6963860">
        <ele>1119.6</ele>
        <time>2022-07-25T13:14:34Z</time>
      </trkpt>
      <trkpt lat="46.0507540" lon="5.6963840">
        <ele>1119.8</ele>
        <time>2022-07-25T13:14:35Z</time>
      </trkpt>
      <trkpt lat="46.0507660" lon="5.6963830">
        <ele>1120.0</ele>
        <time>2022-07-25T13:14:36Z</time>
      </trkpt>
      <trkpt lat="46.0507770" lon="5.6963820">
        <ele>1120.1</ele>
        <time>2022-07-25T13:14:37Z</time>
      </trkpt>
      <trkpt lat="46.0507910" lon="5.6963820">
        <ele>1120.4</ele>
        <time>2022-07-25T13:14:38Z</time>
      </trkpt>
      <trkpt lat="46.0508010" lon="5.6963790">
        <ele>1120.5</ele>
        <time>2022-07-25T13:14:39Z</time>
      </trkpt>
      <trkpt lat="46.0508170" lon="5.6963730">
        <ele>1120.8</ele>
        <time>2022-07-25T13:14:40Z</time>
      </trkpt>
      <trkpt lat="46.0508300" lon="5.6963710">
        <ele>1121.0</ele>
        <time>2022-07-25T13:14:41Z</time>
      </trkpt>
      <trkpt lat="46.0508420" lon="5.6963720">
        <ele>1121.2</ele>
        <time>2022-07-25T13:14:42Z</time>
      </trkpt>
      <trkpt lat="46.0508600" lon="5.6963710">
        <ele>1121.5</ele>
        <time>2022-07-25T13:14:43Z</time>
      </trkpt>
      <trkpt lat="46.0508870" lon="5.6963580">
        <ele>1121.9</ele>
        <time>2022-07-25T13:14:45Z</time>
      </trkpt>
      <trkpt lat="46.0508970" lon="5.6963550">
        <ele>1122.0</ele>
        <time>2022-07-25T13:14:46Z</time>
      </trkpt>
      <trkpt lat="46.0509350" lon="5.6963470">
        <ele>1122.6</ele>
        <time>2022-07-25T13:14:47Z</time>
      </trkpt>
      <trkpt lat="46.0509480" lon="5.6963450">
        <ele>1122.8</ele>
        <time>2022-07-25T13:14:48Z</time>
      </trkpt>
      <trkpt lat="46.0509670" lon="5.6963410">
        <ele>1123.1</ele>
        <time>2022-07-25T13:14:49Z</time>
      </trkpt>
      <trkpt lat="46.0509770" lon="5.6963360">
        <ele>1123.2</ele>
        <time>2022-07-25T13:14:50Z</time>
      </trkpt>
      <trkpt lat="46.0509840" lon="5.6963280">
        <ele>1123.3</ele>
        <time>2022-07-25T13:14:51Z</time>
      </trkpt>
      <trkpt lat="46.0510010" lon="5.6963120">
        <ele>1123.6</ele>
        <time>2022-07-25T13:14:52Z</time>
      </trkpt>
      <trkpt lat="46.0510240" lon="5.6962860">
        <ele>1123.9</ele>
        <time>2022-07-25T13:14:54Z</time>
      </trkpt>
      <trkpt lat="46.0510310" lon="5.6962760">
        <ele>1124.0</ele>
        <time>2022-07-25T13:14:55Z</time>
      </trkpt>
      <trkpt lat="46.0510400" lon="5.6962590">
        <ele>1124.2</ele>
        <time>2022-07-25T13:14:56Z</time>
      </trkpt>
      <trkpt lat="46.0510510" lon="5.6962380">
        <ele>1124.4</ele>
        <time>2022-07-25T13:14:58Z</time>
      </trkpt>
      <trkpt lat="46.0510650" lon="5.6962200">
        <ele>1124.6</ele>
        <time>2022-07-25T13:14:59Z</time>
      </trkpt>
      <trkpt lat="46.0510760" lon="5.6962040">
        <ele>1124.8</ele>
        <time>2022-07-25T13:15:00Z</time>
      </trkpt>
      <trkpt lat="46.0511030" lon="5.6961720">
        <ele>1125.1</ele>
        <time>2022-07-25T13:15:01Z</time>
      </trkpt>
      <trkpt lat="46.0511110" lon="5.6961640">
        <ele>1125.2</ele>
        <time>2022-07-25T13:15:02Z</time>
      </trkpt>
      <trkpt lat="46.0511360" lon="5.6961360">
        <ele>1125.5</ele>
        <time>2022-07-25T13:15:03Z</time>
      </trkpt>
      <trkpt lat="46.0511440" lon="5.6961260">
        <ele>1125.6</ele>
        <time>2022-07-25T13:15:04Z</time>
      </trkpt>
      <trkpt lat="46.0511690" lon="5.6960930">
        <ele>1125.8</ele>
        <time>2022-07-25T13:15:06Z</time>
      </trkpt>
      <trkpt lat="46.0512030" lon="5.6960560">
        <ele>1126.2</ele>
        <time>2022-07-25T13:15:07Z</time>
      </trkpt>
      <trkpt lat="46.0512260" lon="5.6960160">
        <ele>1126.4</ele>
        <time>2022-07-25T13:15:08Z</time>
      </trkpt>
      <trkpt lat="46.0512320" lon="5.6960040">
        <ele>1126.5</ele>
        <time>2022-07-25T13:15:09Z</time>
      </trkpt>
      <trkpt lat="46.0512580" lon="5.6959590">
        <ele>1126.7</ele>
        <time>2022-07-25T13:15:10Z</time>
      </trkpt>
      <trkpt lat="46.0512690" lon="5.6959430">
        <ele>1126.8</ele>
        <time>2022-07-25T13:15:11Z</time>
      </trkpt>
      <trkpt lat="46.0512890" lon="5.6959120">
        <ele>1127.0</ele>
        <time>2022-07-25T13:15:13Z</time>
      </trkpt>
      <trkpt lat="46.0513090" lon="5.6958900">
        <ele>1127.2</ele>
        <time>2022-07-25T13:15:14Z</time>
      </trkpt>
      <trkpt lat="46.0513300" lon="5.6958520">
        <ele>1127.4</ele>
        <time>2022-07-25T13:15:16Z</time>
      </trkpt>
      <trkpt lat="46.0513450" lon="5.6958270">
        <ele>1127.5</ele>
        <time>2022-07-25T13:15:17Z</time>
      </trkpt>
      <trkpt lat="46.0513510" lon="5.6958160">
        <ele>1127.6</ele>
        <time>2022-07-25T13:15:18Z</time>
      </trkpt>
      <trkpt lat="46.0513580" lon="5.6958060">
        <ele>1127.7</ele>
        <time>2022-07-25T13:15:19Z</time>
      </trkpt>
      <trkpt lat="46.0513690" lon="5.6957910">
        <ele>1127.7</ele>
        <time>2022-07-25T13:15:20Z</time>
      </trkpt>
      <trkpt lat="46.0513830" lon="5.6957740">
        <ele>1127.9</ele>
        <time>2022-07-25T13:15:21Z</time>
      </trkpt>
      <trkpt lat="46.0513990" lon="5.6957540">
        <ele>1128.0</ele>
        <time>2022-07-25T13:15:22Z</time>
      </trkpt>
      <trkpt lat="46.0514050" lon="5.6957480">
        <ele>1128.1</ele>
        <time>2022-07-25T13:15:23Z</time>
      </trkpt>
      <trkpt lat="46.0514110" lon="5.6957410">
        <ele>1128.1</ele>
        <time>2022-07-25T13:15:24Z</time>
      </trkpt>
      <trkpt lat="46.0514210" lon="5.6957300">
        <ele>1128.2</ele>
        <time>2022-07-25T13:15:25Z</time>
      </trkpt>
      <trkpt lat="46.0514350" lon="5.6957110">
        <ele>1128.3</ele>
        <time>2022-07-25T13:15:26Z</time>
      </trkpt>
      <trkpt lat="46.0514460" lon="5.6956890">
        <ele>1128.4</ele>
        <time>2022-07-25T13:15:27Z</time>
      </trkpt>
      <trkpt lat="46.0514510" lon="5.6956700">
        <ele>1128.5</ele>
        <time>2022-07-25T13:15:29Z</time>
      </trkpt>
      <trkpt lat="46.0514630" lon="5.6956350">
        <ele>1128.7</ele>
        <time>2022-07-25T13:15:30Z</time>
      </trkpt>
      <trkpt lat="46.0514830" lon="5.6955830">
        <ele>1129.0</ele>
        <time>2022-07-25T13:15:31Z</time>
      </trkpt>
      <trkpt lat="46.0515000" lon="5.6955350">
        <ele>1129.2</ele>
        <time>2022-07-25T13:15:32Z</time>
      </trkpt>
      <trkpt lat="46.0515190" lon="5.6954910">
        <ele>1129.5</ele>
        <time>2022-07-25T13:15:33Z</time>
      </trkpt>
      <trkpt lat="46.0515400" lon="5.6954520">
        <ele>1129.6</ele>
        <time>2022-07-25T13:15:34Z</time>
      </trkpt>
      <trkpt lat="46.0515450" lon="5.6954290">
        <ele>1129.7</ele>
        <time>2022-07-25T13:15:35Z</time>
      </trkpt>
      <trkpt lat="46.0515490" lon="5.6954020">
        <ele>1129.7</ele>
        <time>2022-07-25T13:15:37Z</time>
      </trkpt>
      <trkpt lat="46.0515620" lon="5.6953750">
        <ele>1129.8</ele>
        <time>2022-07-25T13:15:38Z</time>
      </trkpt>
      <trkpt lat="46.0515680" lon="5.6953600">
        <ele>1129.8</ele>
        <time>2022-07-25T13:15:39Z</time>
      </trkpt>
      <trkpt lat="46.0515790" lon="5.6953350">
        <ele>1129.9</ele>
        <time>2022-07-25T13:15:40Z</time>
      </trkpt>
      <trkpt lat="46.0515950" lon="5.6953060">
        <ele>1129.9</ele>
        <time>2022-07-25T13:15:42Z</time>
      </trkpt>
      <trkpt lat="46.0516180" lon="5.6952640">
        <ele>1129.9</ele>
        <time>2022-07-25T13:15:43Z</time>
      </trkpt>
      <trkpt lat="46.0516250" lon="5.6952510">
        <ele>1129.9</ele>
        <time>2022-07-25T13:15:44Z</time>
      </trkpt>
      <trkpt lat="46.0516370" lon="5.6952170">
        <ele>1129.8</ele>
        <time>2022-07-25T13:15:45Z</time>
      </trkpt>
      <trkpt lat="46.0516420" lon="5.6952040">
        <ele>1129.8</ele>
        <time>2022-07-25T13:15:46Z</time>
      </trkpt>
      <trkpt lat="46.0516520" lon="5.6951840">
        <ele>1129.8</ele>
        <time>2022-07-25T13:15:47Z</time>
      </trkpt>
      <trkpt lat="46.0516640" lon="5.6951670">
        <ele>1129.8</ele>
        <time>2022-07-25T13:15:48Z</time>
      </trkpt>
      <trkpt lat="46.0516840" lon="5.6951430">
        <ele>1129.7</ele>
        <time>2022-07-25T13:15:49Z</time>
      </trkpt>
      <trkpt lat="46.0517050" lon="5.6951190">
        <ele>1129.6</ele>
        <time>2022-07-25T13:15:51Z</time>
      </trkpt>
      <trkpt lat="46.0517310" lon="5.6951020">
        <ele>1129.5</ele>
        <time>2022-07-25T13:15:52Z</time>
      </trkpt>
      <trkpt lat="46.0517390" lon="5.6950970">
        <ele>1129.5</ele>
        <time>2022-07-25T13:15:53Z</time>
      </trkpt>
      <trkpt lat="46.0517570" lon="5.6950870">
        <ele>1129.4</ele>
        <time>2022-07-25T13:15:54Z</time>
      </trkpt>
      <trkpt lat="46.0517800" lon="5.6950720">
        <ele>1129.3</ele>
        <time>2022-07-25T13:15:56Z</time>
      </trkpt>
      <trkpt lat="46.0518190" lon="5.6950600">
        <ele>1129.1</ele>
        <time>2022-07-25T13:15:57Z</time>
      </trkpt>
      <trkpt lat="46.0518320" lon="5.6950530">
        <ele>1129.0</ele>
        <time>2022-07-25T13:15:58Z</time>
      </trkpt>
      <trkpt lat="46.0518660" lon="5.6950220">
        <ele>1128.7</ele>
        <time>2022-07-25T13:15:59Z</time>
      </trkpt>
      <trkpt lat="46.0518790" lon="5.6950120">
        <ele>1128.5</ele>
        <time>2022-07-25T13:16:00Z</time>
      </trkpt>
      <trkpt lat="46.0519250" lon="5.6949840">
        <ele>1128.1</ele>
        <time>2022-07-25T13:16:02Z</time>
      </trkpt>
      <trkpt lat="46.0519770" lon="5.6949820">
        <ele>1127.5</ele>
        <time>2022-07-25T13:16:03Z</time>
      </trkpt>
      <trkpt lat="46.0520040" lon="5.6949870">
        <ele>1127.2</ele>
        <time>2022-07-25T13:16:04Z</time>
      </trkpt>
      <trkpt lat="46.0520350" lon="5.6949960">
        <ele>1126.9</ele>
        <time>2022-07-25T13:16:05Z</time>
      </trkpt>
      <trkpt lat="46.0520440" lon="5.6949980">
        <ele>1126.8</ele>
        <time>2022-07-25T13:16:06Z</time>
      </trkpt>
      <trkpt lat="46.0520740" lon="5.6949940">
        <ele>1126.5</ele>
        <time>2022-07-25T13:16:07Z</time>
      </trkpt>
      <trkpt lat="46.0520830" lon="5.6949910">
        <ele>1126.3</ele>
        <time>2022-07-25T13:16:08Z</time>
      </trkpt>
      <trkpt lat="46.0521170" lon="5.6949890">
        <ele>1126.0</ele>
        <time>2022-07-25T13:16:10Z</time>
      </trkpt>
      <trkpt lat="46.0521270" lon="5.6949890">
        <ele>1125.9</ele>
        <time>2022-07-25T13:16:11Z</time>
      </trkpt>
      <trkpt lat="46.0521450" lon="5.6949890">
        <ele>1125.9</ele>
        <time>2022-07-25T13:16:12Z</time>
      </trkpt>
      <trkpt lat="46.0521600" lon="5.6949900">
        <ele>1126.4</ele>
        <time>2022-07-25T13:16:13Z</time>
      </trkpt>
      <trkpt lat="46.0521910" lon="5.6949940">
        <ele>1126.9</ele>
        <time>2022-07-25T13:16:15Z</time>
      </trkpt>
      <trkpt lat="46.0521970" lon="5.6949920">
        <ele>1126.9</ele>
        <time>2022-07-25T13:16:16Z</time>
      </trkpt>
      <trkpt lat="46.0522100" lon="5.6949910">
        <ele>1127.4</ele>
        <time>2022-07-25T13:16:17Z</time>
      </trkpt>
      <trkpt lat="46.0522260" lon="5.6949890">
        <ele>1127.4</ele>
        <time>2022-07-25T13:16:18Z</time>
      </trkpt>
      <trkpt lat="46.0522570" lon="5.6949870">
        <ele>1127.9</ele>
        <time>2022-07-25T13:16:19Z</time>
      </trkpt>
      <trkpt lat="46.0522720" lon="5.6949870">
        <ele>1128.4</ele>
        <time>2022-07-25T13:16:21Z</time>
      </trkpt>
      <trkpt lat="46.0522880" lon="5.6949870">
        <ele>1128.4</ele>
        <time>2022-07-25T13:16:22Z</time>
      </trkpt>
      <trkpt lat="46.0523040" lon="5.6949870">
        <ele>1128.9</ele>
        <time>2022-07-25T13:16:23Z</time>
      </trkpt>
      <trkpt lat="46.0523200" lon="5.6949830">
        <ele>1128.9</ele>
        <time>2022-07-25T13:16:24Z</time>
      </trkpt>
      <trkpt lat="46.0523370" lon="5.6949790">
        <ele>1129.4</ele>
        <time>2022-07-25T13:16:26Z</time>
      </trkpt>
      <trkpt lat="46.0523530" lon="5.6949770">
        <ele>1129.4</ele>
        <time>2022-07-25T13:16:27Z</time>
      </trkpt>
      <trkpt lat="46.0523650" lon="5.6949750">
        <ele>1129.8</ele>
        <time>2022-07-25T13:16:28Z</time>
      </trkpt>
      <trkpt lat="46.0523840" lon="5.6949710">
        <ele>1129.8</ele>
        <time>2022-07-25T13:16:29Z</time>
      </trkpt>
      <trkpt lat="46.0523930" lon="5.6949670">
        <ele>1130.2</ele>
        <time>2022-07-25T13:16:30Z</time>
      </trkpt>
      <trkpt lat="46.0524030" lon="5.6949640">
        <ele>1130.2</ele>
        <time>2022-07-25T13:16:31Z</time>
      </trkpt>
      <trkpt lat="46.0524290" lon="5.6949610">
        <ele>1130.6</ele>
        <time>2022-07-25T13:16:33Z</time>
      </trkpt>
      <trkpt lat="46.0524370" lon="5.6949610">
        <ele>1130.6</ele>
        <time>2022-07-25T13:16:34Z</time>
      </trkpt>
      <trkpt lat="46.0524460" lon="5.6949610">
        <ele>1130.9</ele>
        <time>2022-07-25T13:16:35Z</time>
      </trkpt>
      <trkpt lat="46.0524750" lon="5.6949670">
        <ele>1130.9</ele>
        <time>2022-07-25T13:16:36Z</time>
      </trkpt>
      <trkpt lat="46.0524910" lon="5.6949720">
        <ele>1131.2</ele>
        <time>2022-07-25T13:16:38Z</time>
      </trkpt>
      <trkpt lat="46.0525080" lon="5.6949770">
        <ele>1131.4</ele>
        <time>2022-07-25T13:16:39Z</time>
      </trkpt>
      <trkpt lat="46.0525250" lon="5.6949820">
        <ele>1131.4</ele>
        <time>2022-07-25T13:16:40Z</time>
      </trkpt>
      <trkpt lat="46.0525350" lon="5.6949860">
        <ele>1131.4</ele>
        <time>2022-07-25T13:16:41Z</time>
      </trkpt>
      <trkpt lat="46.0525400" lon="5.6949870">
        <ele>1131.6</ele>
        <time>2022-07-25T13:16:42Z</time>
      </trkpt>
      <trkpt lat="46.0525450" lon="5.6949890">
        <ele>1131.6</ele>
        <time>2022-07-25T13:16:43Z</time>
      </trkpt>
      <trkpt lat="46.0525560" lon="5.6949920">
        <ele>1131.6</ele>
        <time>2022-07-25T13:16:44Z</time>
      </trkpt>
      <trkpt lat="46.0525710" lon="5.6950000">
        <ele>1131.7</ele>
        <time>2022-07-25T13:16:45Z</time>
      </trkpt>
      <trkpt lat="46.0525890" lon="5.6950020">
        <ele>1131.7</ele>
        <time>2022-07-25T13:16:46Z</time>
      </trkpt>
      <trkpt lat="46.0526060" lon="5.6950040">
        <ele>1131.7</ele>
        <time>2022-07-25T13:16:47Z</time>
      </trkpt>
      <trkpt lat="46.0526230" lon="5.6950090">
        <ele>1131.7</ele>
        <time>2022-07-25T13:16:48Z</time>
      </trkpt>
      <trkpt lat="46.0526520" lon="5.6950190">
        <ele>1131.7</ele>
        <time>2022-07-25T13:16:50Z</time>
      </trkpt>
      <trkpt lat="46.0526650" lon="5.6950230">
        <ele>1131.6</ele>
        <time>2022-07-25T13:16:51Z</time>
      </trkpt>
      <trkpt lat="46.0526980" lon="5.6950210">
        <ele>1131.5</ele>
        <time>2022-07-25T13:16:52Z</time>
      </trkpt>
      <trkpt lat="46.0527150" lon="5.6950200">
        <ele>1131.4</ele>
        <time>2022-07-25T13:16:53Z</time>
      </trkpt>
      <trkpt lat="46.0527440" lon="5.6950190">
        <ele>1131.2</ele>
        <time>2022-07-25T13:16:54Z</time>
      </trkpt>
      <trkpt lat="46.0527550" lon="5.6950190">
        <ele>1131.2</ele>
        <time>2022-07-25T13:16:55Z</time>
      </trkpt>
      <trkpt lat="46.0527720" lon="5.6950180">
        <ele>1131.2</ele>
        <time>2022-07-25T13:16:56Z</time>
      </trkpt>
      <trkpt lat="46.0527850" lon="5.6950170">
        <ele>1131.0</ele>
        <time>2022-07-25T13:16:57Z</time>
      </trkpt>
      <trkpt lat="46.0527970" lon="5.6950180">
        <ele>1131.0</ele>
        <time>2022-07-25T13:16:58Z</time>
      </trkpt>
      <trkpt lat="46.0528150" lon="5.6950190">
        <ele>1130.8</ele>
        <time>2022-07-25T13:16:59Z</time>
      </trkpt>
      <trkpt lat="46.0528320" lon="5.6950230">
        <ele>1130.8</ele>
        <time>2022-07-25T13:17:01Z</time>
      </trkpt>
      <trkpt lat="46.0528480" lon="5.6950250">
        <ele>1130.6</ele>
        <time>2022-07-25T13:17:02Z</time>
      </trkpt>
      <trkpt lat="46.0528680" lon="5.6950240">
        <ele>1130.3</ele>
        <time>2022-07-25T13:17:03Z</time>
      </trkpt>
      <trkpt lat="46.0528830" lon="5.6950220">
        <ele>1130.3</ele>
        <time>2022-07-25T13:17:04Z</time>
      </trkpt>
      <trkpt lat="46.0529100" lon="5.6950110">
        <ele>1130.1</ele>
        <time>2022-07-25T13:17:05Z</time>
      </trkpt>
      <trkpt lat="46.0529190" lon="5.6950070">
        <ele>1130.1</ele>
        <time>2022-07-25T13:17:06Z</time>
      </trkpt>
      <trkpt lat="46.0529520" lon="5.6949850">
        <ele>1130.0</ele>
        <time>2022-07-25T13:17:08Z</time>
      </trkpt>
      <trkpt lat="46.0529710" lon="5.6949720">
        <ele>1129.8</ele>
        <time>2022-07-25T13:17:09Z</time>
      </trkpt>
      <trkpt lat="46.0529980" lon="5.6949520">
        <ele>1129.9</ele>
        <time>2022-07-25T13:17:11Z</time>
      </trkpt>
      <trkpt lat="46.0530250" lon="5.6949340">
        <ele>1129.8</ele>
        <time>2022-07-25T13:17:12Z</time>
      </trkpt>
      <trkpt lat="46.0530370" lon="5.6949210">
        <ele>1129.8</ele>
        <time>2022-07-25T13:17:13Z</time>
      </trkpt>
      <trkpt lat="46.0530730" lon="5.6948980">
        <ele>1130.1</ele>
        <time>2022-07-25T13:17:14Z</time>
      </trkpt>
      <trkpt lat="46.0530850" lon="5.6948900">
        <ele>1130.1</ele>
        <time>2022-07-25T13:17:15Z</time>
      </trkpt>
      <trkpt lat="46.0531110" lon="5.6948760">
        <ele>1130.1</ele>
        <time>2022-07-25T13:17:16Z</time>
      </trkpt>
      <trkpt lat="46.0531330" lon="5.6948650">
        <ele>1130.5</ele>
        <time>2022-07-25T13:17:17Z</time>
      </trkpt>
      <trkpt lat="46.0531820" lon="5.6948460">
        <ele>1130.7</ele>
        <time>2022-07-25T13:17:19Z</time>
      </trkpt>
      <trkpt lat="46.0532480" lon="5.6948200">
        <ele>1131.4</ele>
        <time>2022-07-25T13:17:20Z</time>
      </trkpt>
      <trkpt lat="46.0533560" lon="5.6947920">
        <ele>1133.0</ele>
        <time>2022-07-25T13:17:21Z</time>
      </trkpt>
      <trkpt lat="46.0534260" lon="5.6947570">
        <ele>1134.1</ele>
        <time>2022-07-25T13:17:22Z</time>
      </trkpt>
      <trkpt lat="46.0534960" lon="5.6947260">
        <ele>1135.5</ele>
        <time>2022-07-25T13:17:23Z</time>
      </trkpt>
      <trkpt lat="46.0535750" lon="5.6946760">
        <ele>1136.2</ele>
        <time>2022-07-25T13:17:24Z</time>
      </trkpt>
      <trkpt lat="46.0536450" lon="5.6946240">
        <ele>1137.0</ele>
        <time>2022-07-25T13:17:25Z</time>
      </trkpt>
      <trkpt lat="46.0537180" lon="5.6945800">
        <ele>1137.2</ele>
        <time>2022-07-25T13:17:26Z</time>
      </trkpt>
      <trkpt lat="46.0537940" lon="5.6945490">
        <ele>1137.6</ele>
        <time>2022-07-25T13:17:27Z</time>
      </trkpt>
      <trkpt lat="46.0538610" lon="5.6945340">
        <ele>1138.0</ele>
        <time>2022-07-25T13:17:28Z</time>
      </trkpt>
      <trkpt lat="46.0539320" lon="5.6945130">
        <ele>1137.9</ele>
        <time>2022-07-25T13:17:29Z</time>
      </trkpt>
      <trkpt lat="46.0540120" lon="5.6944890">
        <ele>1137.8</ele>
        <time>2022-07-25T13:17:30Z</time>
      </trkpt>
      <trkpt lat="46.0541020" lon="5.6944610">
        <ele>1137.5</ele>
        <time>2022-07-25T13:17:31Z</time>
      </trkpt>
      <trkpt lat="46.0541650" lon="5.6944340">
        <ele>1137.4</ele>
        <time>2022-07-25T13:17:32Z</time>
      </trkpt>
      <trkpt lat="46.0542250" lon="5.6944140">
        <ele>1137.3</ele>
        <time>2022-07-25T13:17:33Z</time>
      </trkpt>
      <trkpt lat="46.0542920" lon="5.6943890">
        <ele>1137.3</ele>
        <time>2022-07-25T13:17:34Z</time>
      </trkpt>
      <trkpt lat="46.0543420" lon="5.6943590">
        <ele>1137.2</ele>
        <time>2022-07-25T13:17:35Z</time>
      </trkpt>
      <trkpt lat="46.0543780" lon="5.6943220">
        <ele>1137.1</ele>
        <time>2022-07-25T13:17:36Z</time>
      </trkpt>
      <trkpt lat="46.0543810" lon="5.6943110">
        <ele>1137.0</ele>
        <time>2022-07-25T13:17:37Z</time>
      </trkpt>
      <trkpt lat="46.0544000" lon="5.6942750">
        <ele>1136.9</ele>
        <time>2022-07-25T13:17:39Z</time>
      </trkpt>
      <trkpt lat="46.0544140" lon="5.6942410">
        <ele>1136.8</ele>
        <time>2022-07-25T13:17:40Z</time>
      </trkpt>
      <trkpt lat="46.0544460" lon="5.6942380">
        <ele>1136.6</ele>
        <time>2022-07-25T13:17:41Z</time>
      </trkpt>
      <trkpt lat="46.0544600" lon="5.6942370">
        <ele>1136.6</ele>
        <time>2022-07-25T13:17:42Z</time>
      </trkpt>
      <trkpt lat="46.0544870" lon="5.6942300">
        <ele>1136.5</ele>
        <time>2022-07-25T13:17:43Z</time>
      </trkpt>
      <trkpt lat="46.0545180" lon="5.6942130">
        <ele>1136.4</ele>
        <time>2022-07-25T13:17:44Z</time>
      </trkpt>
      <trkpt lat="46.0545580" lon="5.6942020">
        <ele>1136.2</ele>
        <time>2022-07-25T13:17:45Z</time>
      </trkpt>
      <trkpt lat="46.0545740" lon="5.6942000">
        <ele>1136.2</ele>
        <time>2022-07-25T13:17:46Z</time>
      </trkpt>
      <trkpt lat="46.0546230" lon="5.6942040">
        <ele>1136.0</ele>
        <time>2022-07-25T13:17:48Z</time>
      </trkpt>
      <trkpt lat="46.0546730" lon="5.6942180">
        <ele>1135.8</ele>
        <time>2022-07-25T13:17:49Z</time>
      </trkpt>
      <trkpt lat="46.0547770" lon="5.6942770">
        <ele>1135.5</ele>
        <time>2022-07-25T13:17:50Z</time>
      </trkpt>
      <trkpt lat="46.0548980" lon="5.6943460">
        <ele>1134.9</ele>
        <time>2022-07-25T13:17:51Z</time>
      </trkpt>
      <trkpt lat="46.0549700" lon="5.6943870">
        <ele>1134.5</ele>
        <time>2022-07-25T13:17:52Z</time>
      </trkpt>
      <trkpt lat="46.0550310" lon="5.6944260">
        <ele>1134.2</ele>
        <time>2022-07-25T13:17:53Z</time>
      </trkpt>
      <trkpt lat="46.0550790" lon="5.6944590">
        <ele>1134.0</ele>
        <time>2022-07-25T13:17:54Z</time>
      </trkpt>
      <trkpt lat="46.0551330" lon="5.6944980">
        <ele>1133.7</ele>
        <time>2022-07-25T13:17:55Z</time>
      </trkpt>
      <trkpt lat="46.0551890" lon="5.6945320">
        <ele>1133.4</ele>
        <time>2022-07-25T13:17:56Z</time>
      </trkpt>
      <trkpt lat="46.0552400" lon="5.6945610">
        <ele>1133.1</ele>
        <time>2022-07-25T13:17:57Z</time>
      </trkpt>
      <trkpt lat="46.0552850" lon="5.6945960">
        <ele>1132.8</ele>
        <time>2022-07-25T13:17:58Z</time>
      </trkpt>
      <trkpt lat="46.0553330" lon="5.6946290">
        <ele>1132.5</ele>
        <time>2022-07-25T13:17:59Z</time>
      </trkpt>
      <trkpt lat="46.0553830" lon="5.6946520">
        <ele>1132.3</ele>
        <time>2022-07-25T13:18:00Z</time>
      </trkpt>
      <trkpt lat="46.0554280" lon="5.6946660">
        <ele>1132.1</ele>
        <time>2022-07-25T13:18:01Z</time>
      </trkpt>
      <trkpt lat="46.0554670" lon="5.6946650">
        <ele>1132.0</ele>
        <time>2022-07-25T13:18:02Z</time>
      </trkpt>
      <trkpt lat="46.0555080" lon="5.6946660">
        <ele>1131.9</ele>
        <time>2022-07-25T13:18:04Z</time>
      </trkpt>
      <trkpt lat="46.0555260" lon="5.6946710">
        <ele>1131.9</ele>
        <time>2022-07-25T13:18:05Z</time>
      </trkpt>
      <trkpt lat="46.0555430" lon="5.6946730">
        <ele>1131.8</ele>
        <time>2022-07-25T13:18:06Z</time>
      </trkpt>
      <trkpt lat="46.0555570" lon="5.6946740">
        <ele>1131.8</ele>
        <time>2022-07-25T13:18:07Z</time>
      </trkpt>
      <trkpt lat="46.0555630" lon="5.6946740">
        <ele>1131.7</ele>
        <time>2022-07-25T13:18:09Z</time>
      </trkpt>
      <trkpt lat="46.0555730" lon="5.6946710">
        <ele>1131.7</ele>
        <time>2022-07-25T13:18:10Z</time>
      </trkpt>
      <trkpt lat="46.0555840" lon="5.6946710">
        <ele>1131.7</ele>
        <time>2022-07-25T13:18:11Z</time>
      </trkpt>
      <trkpt lat="46.0555910" lon="5.6946730">
        <ele>1131.6</ele>
        <time>2022-07-25T13:18:12Z</time>
      </trkpt>
      <trkpt lat="46.0555940" lon="5.6946760">
        <ele>1131.6</ele>
        <time>2022-07-25T13:18:13Z</time>
      </trkpt>
      <trkpt lat="46.0555950" lon="5.6946780">
        <ele>1131.6</ele>
        <time>2022-07-25T13:18:14Z</time>
      </trkpt>
      <trkpt lat="46.0555930" lon="5.6946800">
        <ele>1131.6</ele>
        <time>2022-07-25T13:18:15Z</time>
      </trkpt>
      <trkpt lat="46.0555900" lon="5.6946820">
        <ele>1131.6</ele>
        <time>2022-07-25T13:18:16Z</time>
      </trkpt>
      <trkpt lat="46.0555990" lon="5.6946860">
        <ele>1131.6</ele>
        <time>2022-07-25T13:18:17Z</time>
      </trkpt>
      <trkpt lat="46.0556250" lon="5.6946850">
        <ele>1131.5</ele>
        <time>2022-07-25T13:18:18Z</time>
      </trkpt>
      <trkpt lat="46.0556520" lon="5.6946800">
        <ele>1131.4</ele>
        <time>2022-07-25T13:18:20Z</time>
      </trkpt>
      <trkpt lat="46.0556840" lon="5.6946770">
        <ele>1131.2</ele>
        <time>2022-07-25T13:18:21Z</time>
      </trkpt>
      <trkpt lat="46.0557180" lon="5.6946730">
        <ele>1131.1</ele>
        <time>2022-07-25T13:18:22Z</time>
      </trkpt>
      <trkpt lat="46.0557460" lon="5.6946760">
        <ele>1131.0</ele>
        <time>2022-07-25T13:18:23Z</time>
      </trkpt>
      <trkpt lat="46.0558180" lon="5.6946660">
        <ele>1130.9</ele>
        <time>2022-07-25T13:18:24Z</time>
      </trkpt>
      <trkpt lat="46.0558770" lon="5.6946650">
        <ele>1130.8</ele>
        <time>2022-07-25T13:18:25Z</time>
      </trkpt>
      <trkpt lat="46.0559350" lon="5.6946660">
        <ele>1130.8</ele>
        <time>2022-07-25T13:18:26Z</time>
      </trkpt>
      <trkpt lat="46.0559990" lon="5.6946700">
        <ele>1130.9</ele>
        <time>2022-07-25T13:18:27Z</time>
      </trkpt>
      <trkpt lat="46.0560620" lon="5.6946750">
        <ele>1131.0</ele>
        <time>2022-07-25T13:18:28Z</time>
      </trkpt>
      <trkpt lat="46.0561210" lon="5.6946950">
        <ele>1131.0</ele>
        <time>2022-07-25T13:18:29Z</time>
      </trkpt>
      <trkpt lat="46.0561790" lon="5.6947270">
        <ele>1131.2</ele>
        <time>2022-07-25T13:18:30Z</time>
      </trkpt>
      <trkpt lat="46.0562400" lon="5.6947550">
        <ele>1131.5</ele>
        <time>2022-07-25T13:18:31Z</time>
      </trkpt>
      <trkpt lat="46.0563030" lon="5.6947790">
        <ele>1131.8</ele>
        <time>2022-07-25T13:18:32Z</time>
      </trkpt>
      <trkpt lat="46.0563550" lon="5.6947870">
        <ele>1132.0</ele>
        <time>2022-07-25T13:18:33Z</time>
      </trkpt>
      <trkpt lat="46.0564050" lon="5.6947930">
        <ele>1132.3</ele>
        <time>2022-07-25T13:18:34Z</time>
      </trkpt>
      <trkpt lat="46.0564500" lon="5.6947950">
        <ele>1132.5</ele>
        <time>2022-07-25T13:18:35Z</time>
      </trkpt>
      <trkpt lat="46.0564790" lon="5.6948010">
        <ele>1132.7</ele>
        <time>2022-07-25T13:18:36Z</time>
      </trkpt>
      <trkpt lat="46.0565170" lon="5.6948080">
        <ele>1132.8</ele>
        <time>2022-07-25T13:18:37Z</time>
      </trkpt>
      <trkpt lat="46.0565520" lon="5.6948180">
        <ele>1132.9</ele>
        <time>2022-07-25T13:18:38Z</time>
      </trkpt>
      <trkpt lat="46.0565920" lon="5.6948280">
        <ele>1133.1</ele>
        <time>2022-07-25T13:18:39Z</time>
      </trkpt>
      <trkpt lat="46.0566190" lon="5.6948370">
        <ele>1133.1</ele>
        <time>2022-07-25T13:18:40Z</time>
      </trkpt>
      <trkpt lat="46.0566470" lon="5.6948430">
        <ele>1133.2</ele>
        <time>2022-07-25T13:18:41Z</time>
      </trkpt>
      <trkpt lat="46.0566890" lon="5.6948720">
        <ele>1133.3</ele>
        <time>2022-07-25T13:18:43Z</time>
      </trkpt>
      <trkpt lat="46.0567310" lon="5.6948680">
        <ele>1133.3</ele>
        <time>2022-07-25T13:18:44Z</time>
      </trkpt>
      <trkpt lat="46.0567710" lon="5.6948720">
        <ele>1133.3</ele>
        <time>2022-07-25T13:18:45Z</time>
      </trkpt>
      <trkpt lat="46.0568050" lon="5.6948770">
        <ele>1133.2</ele>
        <time>2022-07-25T13:18:46Z</time>
      </trkpt>
      <trkpt lat="46.0568130" lon="5.6948750">
        <ele>1133.2</ele>
        <time>2022-07-25T13:18:47Z</time>
      </trkpt>
      <trkpt lat="46.0568250" lon="5.6948650">
        <ele>1133.2</ele>
        <time>2022-07-25T13:18:48Z</time>
      </trkpt>
      <trkpt lat="46.0568300" lon="5.6948630">
        <ele>1133.1</ele>
        <time>2022-07-25T13:18:49Z</time>
      </trkpt>
      <trkpt lat="46.0568340" lon="5.6948620">
        <ele>1133.1</ele>
        <time>2022-07-25T13:18:50Z</time>
      </trkpt>
      <trkpt lat="46.0568390" lon="5.6948610">
        <ele>1133.1</ele>
        <time>2022-07-25T13:18:51Z</time>
      </trkpt>
      <trkpt lat="46.0568430" lon="5.6948590">
        <ele>1133.1</ele>
        <time>2022-07-25T13:18:52Z</time>
      </trkpt>
      <trkpt lat="46.0568480" lon="5.6948580">
        <ele>1133.1</ele>
        <time>2022-07-25T13:18:54Z</time>
      </trkpt>
      <trkpt lat="46.0568530" lon="5.6948570">
        <ele>1133.1</ele>
        <time>2022-07-25T13:18:55Z</time>
      </trkpt>
      <trkpt lat="46.0568870" lon="5.6948580">
        <ele>1132.9</ele>
        <time>2022-07-25T13:18:56Z</time>
      </trkpt>
      <trkpt lat="46.0569330" lon="5.6948620">
        <ele>1132.7</ele>
        <time>2022-07-25T13:18:58Z</time>
      </trkpt>
      <trkpt lat="46.0569780" lon="5.6948690">
        <ele>1132.5</ele>
        <time>2022-07-25T13:18:59Z</time>
      </trkpt>
      <trkpt lat="46.0570650" lon="5.6948920">
        <ele>1131.8</ele>
        <time>2022-07-25T13:19:00Z</time>
      </trkpt>
      <trkpt lat="46.0571060" lon="5.6949170">
        <ele>1131.4</ele>
        <time>2022-07-25T13:19:02Z</time>
      </trkpt>
      <trkpt lat="46.0571510" lon="5.6949300">
        <ele>1131.0</ele>
        <time>2022-07-25T13:19:03Z</time>
      </trkpt>
      <trkpt lat="46.0572160" lon="5.6949410">
        <ele>1130.4</ele>
        <time>2022-07-25T13:19:04Z</time>
      </trkpt>
      <trkpt lat="46.0572500" lon="5.6949420">
        <ele>1130.1</ele>
        <time>2022-07-25T13:19:05Z</time>
      </trkpt>
      <trkpt lat="46.0573110" lon="5.6949220">
        <ele>1129.6</ele>
        <time>2022-07-25T13:19:06Z</time>
      </trkpt>
      <trkpt lat="46.0573560" lon="5.6949220">
        <ele>1129.2</ele>
        <time>2022-07-25T13:19:07Z</time>
      </trkpt>
      <trkpt lat="46.0573890" lon="5.6949200">
        <ele>1129.0</ele>
        <time>2022-07-25T13:19:08Z</time>
      </trkpt>
      <trkpt lat="46.0574300" lon="5.6949020">
        <ele>1128.7</ele>
        <time>2022-07-25T13:19:09Z</time>
      </trkpt>
      <trkpt lat="46.0574800" lon="5.6949010">
        <ele>1128.3</ele>
        <time>2022-07-25T13:19:10Z</time>
      </trkpt>
      <trkpt lat="46.0575330" lon="5.6949030">
        <ele>1128.0</ele>
        <time>2022-07-25T13:19:11Z</time>
      </trkpt>
      <trkpt lat="46.0575830" lon="5.6949040">
        <ele>1127.6</ele>
        <time>2022-07-25T13:19:12Z</time>
      </trkpt>
      <trkpt lat="46.0576270" lon="5.6949020">
        <ele>1127.3</ele>
        <time>2022-07-25T13:19:13Z</time>
      </trkpt>
      <trkpt lat="46.0576550" lon="5.6948890">
        <ele>1127.1</ele>
        <time>2022-07-25T13:19:15Z</time>
      </trkpt>
      <trkpt lat="46.0576770" lon="5.6948880">
        <ele>1127.0</ele>
        <time>2022-07-25T13:19:16Z</time>
      </trkpt>
      <trkpt lat="46.0577220" lon="5.6948820">
        <ele>1126.7</ele>
        <time>2022-07-25T13:19:17Z</time>
      </trkpt>
      <trkpt lat="46.0577530" lon="5.6948650">
        <ele>1126.5</ele>
        <time>2022-07-25T13:19:18Z</time>
      </trkpt>
      <trkpt lat="46.0577790" lon="5.6948530">
        <ele>1126.3</ele>
        <time>2022-07-25T13:19:19Z</time>
      </trkpt>
      <trkpt lat="46.0578060" lon="5.6948410">
        <ele>1126.0</ele>
        <time>2022-07-25T13:19:20Z</time>
      </trkpt>
      <trkpt lat="46.0578390" lon="5.6948450">
        <ele>1125.8</ele>
        <time>2022-07-25T13:19:21Z</time>
      </trkpt>
      <trkpt lat="46.0579010" lon="5.6948690">
        <ele>1125.2</ele>
        <time>2022-07-25T13:19:23Z</time>
      </trkpt>
      <trkpt lat="46.0579570" lon="5.6949010">
        <ele>1124.7</ele>
        <time>2022-07-25T13:19:25Z</time>
      </trkpt>
      <trkpt lat="46.0580480" lon="5.6949810">
        <ele>1123.8</ele>
        <time>2022-07-25T13:19:26Z</time>
      </trkpt>
      <trkpt lat="46.0580900" lon="5.6950020">
        <ele>1123.5</ele>
        <time>2022-07-25T13:19:27Z</time>
      </trkpt>
      <trkpt lat="46.0581210" lon="5.6950030">
        <ele>1123.4</ele>
        <time>2022-07-25T13:19:28Z</time>
      </trkpt>
      <trkpt lat="46.0581770" lon="5.6950430">
        <ele>1123.2</ele>
        <time>2022-07-25T13:19:29Z</time>
      </trkpt>
      <trkpt lat="46.0582220" lon="5.6950910">
        <ele>1123.1</ele>
        <time>2022-07-25T13:19:30Z</time>
      </trkpt>
      <trkpt lat="46.0582730" lon="5.6951390">
        <ele>1123.0</ele>
        <time>2022-07-25T13:19:31Z</time>
      </trkpt>
      <trkpt lat="46.0583310" lon="5.6952050">
        <ele>1122.9</ele>
        <time>2022-07-25T13:19:32Z</time>
      </trkpt>
      <trkpt lat="46.0583820" lon="5.6952520">
        <ele>1122.7</ele>
        <time>2022-07-25T13:19:33Z</time>
      </trkpt>
      <trkpt lat="46.0584230" lon="5.6952830">
        <ele>1122.6</ele>
        <time>2022-07-25T13:19:34Z</time>
      </trkpt>
      <trkpt lat="46.0584570" lon="5.6953020">
        <ele>1122.4</ele>
        <time>2022-07-25T13:19:35Z</time>
      </trkpt>
      <trkpt lat="46.0584790" lon="5.6953130">
        <ele>1122.2</ele>
        <time>2022-07-25T13:19:36Z</time>
      </trkpt>
      <trkpt lat="46.0585140" lon="5.6953310">
        <ele>1121.9</ele>
        <time>2022-07-25T13:19:37Z</time>
      </trkpt>
      <trkpt lat="46.0585420" lon="5.6953570">
        <ele>1121.6</ele>
        <time>2022-07-25T13:19:38Z</time>
      </trkpt>
      <trkpt lat="46.0585490" lon="5.6953710">
        <ele>1121.5</ele>
        <time>2022-07-25T13:19:39Z</time>
      </trkpt>
      <trkpt lat="46.0585710" lon="5.6953680">
        <ele>1121.4</ele>
        <time>2022-07-25T13:19:40Z</time>
      </trkpt>
      <trkpt lat="46.0585730" lon="5.6953530">
        <ele>1121.3</ele>
        <time>2022-07-25T13:19:41Z</time>
      </trkpt>
      <trkpt lat="46.0585780" lon="5.6953460">
        <ele>1121.3</ele>
        <time>2022-07-25T13:19:42Z</time>
      </trkpt>
      <trkpt lat="46.0586040" lon="5.6953560">
        <ele>1121.1</ele>
        <time>2022-07-25T13:19:43Z</time>
      </trkpt>
      <trkpt lat="46.0586140" lon="5.6953590">
        <ele>1121.0</ele>
        <time>2022-07-25T13:19:44Z</time>
      </trkpt>
      <trkpt lat="46.0586700" lon="5.6954030">
        <ele>1120.5</ele>
        <time>2022-07-25T13:19:46Z</time>
      </trkpt>
      <trkpt lat="46.0587200" lon="5.6954440">
        <ele>1120.1</ele>
        <time>2022-07-25T13:19:47Z</time>
      </trkpt>
      <trkpt lat="46.0587670" lon="5.6954910">
        <ele>1119.7</ele>
        <time>2022-07-25T13:19:48Z</time>
      </trkpt>
      <trkpt lat="46.0588130" lon="5.6955360">
        <ele>1119.4</ele>
        <time>2022-07-25T13:19:49Z</time>
      </trkpt>
      <trkpt lat="46.0589060" lon="5.6956190">
        <ele>1118.8</ele>
        <time>2022-07-25T13:19:51Z</time>
      </trkpt>
      <trkpt lat="46.0589580" lon="5.6956670">
        <ele>1118.4</ele>
        <time>2022-07-25T13:19:53Z</time>
      </trkpt>
      <trkpt lat="46.0589960" lon="5.6956940">
        <ele>1118.2</ele>
        <time>2022-07-25T13:19:54Z</time>
      </trkpt>
      <trkpt lat="46.0590150" lon="5.6957080">
        <ele>1118.1</ele>
        <time>2022-07-25T13:19:55Z</time>
      </trkpt>
      <trkpt lat="46.0590470" lon="5.6957330">
        <ele>1117.9</ele>
        <time>2022-07-25T13:19:56Z</time>
      </trkpt>
      <trkpt lat="46.0590780" lon="5.6957690">
        <ele>1117.7</ele>
        <time>2022-07-25T13:19:57Z</time>
      </trkpt>
      <trkpt lat="46.0591010" lon="5.6957990">
        <ele>1117.6</ele>
        <time>2022-07-25T13:19:58Z</time>
      </trkpt>
      <trkpt lat="46.0591350" lon="5.6958260">
        <ele>1117.4</ele>
        <time>2022-07-25T13:19:59Z</time>
      </trkpt>
      <trkpt lat="46.0591490" lon="5.6958340">
        <ele>1117.4</ele>
        <time>2022-07-25T13:20:00Z</time>
      </trkpt>
      <trkpt lat="46.0591840" lon="5.6958460">
        <ele>1117.3</ele>
        <time>2022-07-25T13:20:02Z</time>
      </trkpt>
      <trkpt lat="46.0592110" lon="5.6958600">
        <ele>1117.2</ele>
        <time>2022-07-25T13:20:03Z</time>
      </trkpt>
      <trkpt lat="46.0592240" lon="5.6958650">
        <ele>1117.2</ele>
        <time>2022-07-25T13:20:04Z</time>
      </trkpt>
      <trkpt lat="46.0592300" lon="5.6958670">
        <ele>1117.1</ele>
        <time>2022-07-25T13:20:05Z</time>
      </trkpt>
      <trkpt lat="46.0592440" lon="5.6958650">
        <ele>1117.1</ele>
        <time>2022-07-25T13:20:06Z</time>
      </trkpt>
      <trkpt lat="46.0592550" lon="5.6958660">
        <ele>1117.1</ele>
        <time>2022-07-25T13:20:08Z</time>
      </trkpt>
      <trkpt lat="46.0592630" lon="5.6958670">
        <ele>1117.1</ele>
        <time>2022-07-25T13:20:09Z</time>
      </trkpt>
      <trkpt lat="46.0592730" lon="5.6958690">
        <ele>1117.0</ele>
        <time>2022-07-25T13:20:10Z</time>
      </trkpt>
      <trkpt lat="46.0592880" lon="5.6958730">
        <ele>1117.0</ele>
        <time>2022-07-25T13:20:12Z</time>
      </trkpt>
      <trkpt lat="46.0592950" lon="5.6958760">
        <ele>1117.0</ele>
        <time>2022-07-25T13:20:13Z</time>
      </trkpt>
      <trkpt lat="46.0593020" lon="5.6958780">
        <ele>1117.0</ele>
        <time>2022-07-25T13:20:14Z</time>
      </trkpt>
      <trkpt lat="46.0593090" lon="5.6958810">
        <ele>1117.0</ele>
        <time>2022-07-25T13:20:15Z</time>
      </trkpt>
      <trkpt lat="46.0593160" lon="5.6958840">
        <ele>1117.0</ele>
        <time>2022-07-25T13:20:16Z</time>
      </trkpt>
      <trkpt lat="46.0593450" lon="5.6959090">
        <ele>1116.9</ele>
        <time>2022-07-25T13:20:17Z</time>
      </trkpt>
      <trkpt lat="46.0593620" lon="5.6959230">
        <ele>1116.9</ele>
        <time>2022-07-25T13:20:19Z</time>
      </trkpt>
      <trkpt lat="46.0593780" lon="5.6959370">
        <ele>1116.8</ele>
        <time>2022-07-25T13:20:20Z</time>
      </trkpt>
      <trkpt lat="46.0593940" lon="5.6959510">
        <ele>1116.8</ele>
        <time>2022-07-25T13:20:21Z</time>
      </trkpt>
      <trkpt lat="46.0594200" lon="5.6959740">
        <ele>1116.8</ele>
        <time>2022-07-25T13:20:23Z</time>
      </trkpt>
      <trkpt lat="46.0594360" lon="5.6959970">
        <ele>1116.7</ele>
        <time>2022-07-25T13:20:24Z</time>
      </trkpt>
      <trkpt lat="46.0594460" lon="5.6960090">
        <ele>1116.7</ele>
        <time>2022-07-25T13:20:25Z</time>
      </trkpt>
      <trkpt lat="46.0595010" lon="5.6960730">
        <ele>1116.7</ele>
        <time>2022-07-25T13:20:26Z</time>
      </trkpt>
      <trkpt lat="46.0595360" lon="5.6961120">
        <ele>1116.6</ele>
        <time>2022-07-25T13:20:28Z</time>
      </trkpt>
      <trkpt lat="46.0595650" lon="5.6961430">
        <ele>1116.6</ele>
        <time>2022-07-25T13:20:29Z</time>
      </trkpt>
      <trkpt lat="46.0595730" lon="5.6961490">
        <ele>1116.6</ele>
        <time>2022-07-25T13:20:30Z</time>
      </trkpt>
      <trkpt lat="46.0596040" lon="5.6961830">
        <ele>1116.6</ele>
        <time>2022-07-25T13:20:31Z</time>
      </trkpt>
      <trkpt lat="46.0596150" lon="5.6961970">
        <ele>1116.6</ele>
        <time>2022-07-25T13:20:32Z</time>
      </trkpt>
      <trkpt lat="46.0596310" lon="5.6962140">
        <ele>1116.7</ele>
        <time>2022-07-25T13:20:33Z</time>
      </trkpt>
      <trkpt lat="46.0596590" lon="5.6962400">
        <ele>1116.7</ele>
        <time>2022-07-25T13:20:35Z</time>
      </trkpt>
      <trkpt lat="46.0596910" lon="5.6962670">
        <ele>1116.8</ele>
        <time>2022-07-25T13:20:36Z</time>
      </trkpt>
      <trkpt lat="46.0597240" lon="5.6962850">
        <ele>1116.9</ele>
        <time>2022-07-25T13:20:38Z</time>
      </trkpt>
      <trkpt lat="46.0597440" lon="5.6962910">
        <ele>1117.0</ele>
        <time>2022-07-25T13:20:39Z</time>
      </trkpt>
      <trkpt lat="46.0597540" lon="5.6962920">
        <ele>1117.0</ele>
        <time>2022-07-25T13:20:40Z</time>
      </trkpt>
      <trkpt lat="46.0597710" lon="5.6962890">
        <ele>1117.0</ele>
        <time>2022-07-25T13:20:42Z</time>
      </trkpt>
      <trkpt lat="46.0597760" lon="5.6962870">
        <ele>1117.0</ele>
        <time>2022-07-25T13:20:43Z</time>
      </trkpt>
      <trkpt lat="46.0597770" lon="5.6962860">
        <ele>1117.0</ele>
        <time>2022-07-25T13:20:44Z</time>
      </trkpt>
      <trkpt lat="46.0597780" lon="5.6962850">
        <ele>1117.1</ele>
        <time>2022-07-25T13:20:45Z</time>
      </trkpt>
      <trkpt lat="46.0597780" lon="5.6962840">
        <ele>1117.1</ele>
        <time>2022-07-25T13:20:46Z</time>
      </trkpt>
      <trkpt lat="46.0597780" lon="5.6962830">
        <ele>1117.1</ele>
        <time>2022-07-25T13:20:47Z</time>
      </trkpt>
      <trkpt lat="46.0597780" lon="5.6962820">
        <ele>1117.1</ele>
        <time>2022-07-25T13:20:48Z</time>
      </trkpt>
      <trkpt lat="46.0597800" lon="5.6962810">
        <ele>1117.1</ele>
        <time>2022-07-25T13:20:49Z</time>
      </trkpt>
      <trkpt lat="46.0597810" lon="5.6962800">
        <ele>1117.1</ele>
        <time>2022-07-25T13:20:50Z</time>
      </trkpt>
      <trkpt lat="46.0597830" lon="5.6962790">
        <ele>1117.6</ele>
        <time>2022-07-25T13:20:51Z</time>
      </trkpt>
      <trkpt lat="46.0597850" lon="5.6962770">
        <ele>1117.6</ele>
        <time>2022-07-25T13:20:52Z</time>
      </trkpt>
      <trkpt lat="46.0598380" lon="5.6962530">
        <ele>1117.7</ele>
        <time>2022-07-25T13:21:07Z</time>
      </trkpt>
      <trkpt lat="46.0598570" lon="5.6962380">
        <ele>1117.7</ele>
        <time>2022-07-25T13:21:08Z</time>
      </trkpt>
      <trkpt lat="46.0598710" lon="5.6962210">
        <ele>1117.7</ele>
        <time>2022-07-25T13:21:10Z</time>
      </trkpt>
      <trkpt lat="46.0598970" lon="5.6961930">
        <ele>1117.8</ele>
        <time>2022-07-25T13:21:11Z</time>
      </trkpt>
      <trkpt lat="46.0599300" lon="5.6961660">
        <ele>1117.8</ele>
        <time>2022-07-25T13:21:12Z</time>
      </trkpt>
      <trkpt lat="46.0599420" lon="5.6961570">
        <ele>1117.8</ele>
        <time>2022-07-25T13:21:13Z</time>
      </trkpt>
      <trkpt lat="46.0599760" lon="5.6961250">
        <ele>1117.9</ele>
        <time>2022-07-25T13:21:14Z</time>
      </trkpt>
      <trkpt lat="46.0600230" lon="5.6960830">
        <ele>1118.0</ele>
        <time>2022-07-25T13:21:16Z</time>
      </trkpt>
      <trkpt lat="46.0600420" lon="5.6960680">
        <ele>1118.0</ele>
        <time>2022-07-25T13:21:17Z</time>
      </trkpt>
      <trkpt lat="46.0600610" lon="5.6960540">
        <ele>1118.0</ele>
        <time>2022-07-25T13:21:18Z</time>
      </trkpt>
      <trkpt lat="46.0600950" lon="5.6960270">
        <ele>1118.1</ele>
        <time>2022-07-25T13:21:19Z</time>
      </trkpt>
      <trkpt lat="46.0601060" lon="5.6960180">
        <ele>1118.2</ele>
        <time>2022-07-25T13:21:20Z</time>
      </trkpt>
      <trkpt lat="46.0601260" lon="5.6960070">
        <ele>1118.2</ele>
        <time>2022-07-25T13:21:21Z</time>
      </trkpt>
      <trkpt lat="46.0601550" lon="5.6959940">
        <ele>1118.3</ele>
        <time>2022-07-25T13:21:23Z</time>
      </trkpt>
      <trkpt lat="46.0601840" lon="5.6959770">
        <ele>1118.4</ele>
        <time>2022-07-25T13:21:24Z</time>
      </trkpt>
      <trkpt lat="46.0602220" lon="5.6959540">
        <ele>1118.5</ele>
        <time>2022-07-25T13:21:26Z</time>
      </trkpt>
      <trkpt lat="46.0602500" lon="5.6959330">
        <ele>1118.6</ele>
        <time>2022-07-25T13:21:27Z</time>
      </trkpt>
      <trkpt lat="46.0602770" lon="5.6959110">
        <ele>1118.7</ele>
        <time>2022-07-25T13:21:28Z</time>
      </trkpt>
      <trkpt lat="46.0602980" lon="5.6958870">
        <ele>1118.8</ele>
        <time>2022-07-25T13:21:29Z</time>
      </trkpt>
      <trkpt lat="46.0603400" lon="5.6958540">
        <ele>1119.0</ele>
        <time>2022-07-25T13:21:30Z</time>
      </trkpt>
      <trkpt lat="46.0603770" lon="5.6958310">
        <ele>1119.2</ele>
        <time>2022-07-25T13:21:32Z</time>
      </trkpt>
      <trkpt lat="46.0604010" lon="5.6958150">
        <ele>1119.3</ele>
        <time>2022-07-25T13:21:33Z</time>
      </trkpt>
      <trkpt lat="46.0604300" lon="5.6958010">
        <ele>1119.4</ele>
        <time>2022-07-25T13:21:34Z</time>
      </trkpt>
      <trkpt lat="46.0604400" lon="5.6957960">
        <ele>1119.5</ele>
        <time>2022-07-25T13:21:35Z</time>
      </trkpt>
      <trkpt lat="46.0604670" lon="5.6957780">
        <ele>1119.6</ele>
        <time>2022-07-25T13:21:37Z</time>
      </trkpt>
      <trkpt lat="46.0604760" lon="5.6957720">
        <ele>1119.7</ele>
        <time>2022-07-25T13:21:38Z</time>
      </trkpt>
      <trkpt lat="46.0605100" lon="5.6957560">
        <ele>1119.8</ele>
        <time>2022-07-25T13:21:40Z</time>
      </trkpt>
      <trkpt lat="46.0605190" lon="5.6957510">
        <ele>1119.9</ele>
        <time>2022-07-25T13:21:41Z</time>
      </trkpt>
      <trkpt lat="46.0605530" lon="5.6957270">
        <ele>1120.0</ele>
        <time>2022-07-25T13:21:42Z</time>
      </trkpt>
      <trkpt lat="46.0605640" lon="5.6957190">
        <ele>1120.1</ele>
        <time>2022-07-25T13:21:43Z</time>
      </trkpt>
      <trkpt lat="46.0606010" lon="5.6956950">
        <ele>1120.3</ele>
        <time>2022-07-25T13:21:44Z</time>
      </trkpt>
      <trkpt lat="46.0606150" lon="5.6956850">
        <ele>1120.4</ele>
        <time>2022-07-25T13:21:45Z</time>
      </trkpt>
      <trkpt lat="46.0606590" lon="5.6956510">
        <ele>1120.6</ele>
        <time>2022-07-25T13:21:47Z</time>
      </trkpt>
      <trkpt lat="46.0606730" lon="5.6956370">
        <ele>1120.7</ele>
        <time>2022-07-25T13:21:48Z</time>
      </trkpt>
      <trkpt lat="46.0606860" lon="5.6956240">
        <ele>1120.8</ele>
        <time>2022-07-25T13:21:49Z</time>
      </trkpt>
      <trkpt lat="46.0607130" lon="5.6956040">
        <ele>1120.9</ele>
        <time>2022-07-25T13:21:50Z</time>
      </trkpt>
      <trkpt lat="46.0607220" lon="5.6955980">
        <ele>1121.0</ele>
        <time>2022-07-25T13:21:51Z</time>
      </trkpt>
      <trkpt lat="46.0607510" lon="5.6955800">
        <ele>1121.2</ele>
        <time>2022-07-25T13:21:52Z</time>
      </trkpt>
      <trkpt lat="46.0607760" lon="5.6955620">
        <ele>1121.3</ele>
        <time>2022-07-25T13:21:53Z</time>
      </trkpt>
      <trkpt lat="46.0608050" lon="5.6955440">
        <ele>1121.5</ele>
        <time>2022-07-25T13:21:55Z</time>
      </trkpt>
      <trkpt lat="46.0608300" lon="5.6955280">
        <ele>1121.7</ele>
        <time>2022-07-25T13:21:56Z</time>
      </trkpt>
      <trkpt lat="46.0608580" lon="5.6955240">
        <ele>1121.8</ele>
        <time>2022-07-25T13:21:57Z</time>
      </trkpt>
      <trkpt lat="46.0608900" lon="5.6955220">
        <ele>1122.0</ele>
        <time>2022-07-25T13:21:58Z</time>
      </trkpt>
      <trkpt lat="46.0609300" lon="5.6955240">
        <ele>1122.2</ele>
        <time>2022-07-25T13:22:00Z</time>
      </trkpt>
      <trkpt lat="46.0609670" lon="5.6955190">
        <ele>1122.5</ele>
        <time>2022-07-25T13:22:01Z</time>
      </trkpt>
      <trkpt lat="46.0609820" lon="5.6955170">
        <ele>1122.6</ele>
        <time>2022-07-25T13:22:02Z</time>
      </trkpt>
      <trkpt lat="46.0610050" lon="5.6955130">
        <ele>1122.7</ele>
        <time>2022-07-25T13:22:03Z</time>
      </trkpt>
      <trkpt lat="46.0610290" lon="5.6955070">
        <ele>1122.9</ele>
        <time>2022-07-25T13:22:05Z</time>
      </trkpt>
      <trkpt lat="46.0610580" lon="5.6955000">
        <ele>1123.1</ele>
        <time>2022-07-25T13:22:06Z</time>
      </trkpt>
      <trkpt lat="46.0610850" lon="5.6954880">
        <ele>1123.3</ele>
        <time>2022-07-25T13:22:07Z</time>
      </trkpt>
      <trkpt lat="46.0611110" lon="5.6954790">
        <ele>1123.5</ele>
        <time>2022-07-25T13:22:08Z</time>
      </trkpt>
      <trkpt lat="46.0611210" lon="5.6954750">
        <ele>1123.6</ele>
        <time>2022-07-25T13:22:09Z</time>
      </trkpt>
      <trkpt lat="46.0611540" lon="5.6954590">
        <ele>1123.8</ele>
        <time>2022-07-25T13:22:10Z</time>
      </trkpt>
      <trkpt lat="46.0611640" lon="5.6954540">
        <ele>1123.9</ele>
        <time>2022-07-25T13:22:11Z</time>
      </trkpt>
      <trkpt lat="46.0611970" lon="5.6954520">
        <ele>1124.1</ele>
        <time>2022-07-25T13:22:12Z</time>
      </trkpt>
      <trkpt lat="46.0612070" lon="5.6954500">
        <ele>1124.2</ele>
        <time>2022-07-25T13:22:13Z</time>
      </trkpt>
      <trkpt lat="46.0612320" lon="5.6954400">
        <ele>1124.4</ele>
        <time>2022-07-25T13:22:14Z</time>
      </trkpt>
      <trkpt lat="46.0612660" lon="5.6954170">
        <ele>1124.7</ele>
        <time>2022-07-25T13:22:16Z</time>
      </trkpt>
      <trkpt lat="46.0612910" lon="5.6953960">
        <ele>1125.0</ele>
        <time>2022-07-25T13:22:17Z</time>
      </trkpt>
      <trkpt lat="46.0612970" lon="5.6953920">
        <ele>1125.1</ele>
        <time>2022-07-25T13:22:18Z</time>
      </trkpt>
      <trkpt lat="46.0613250" lon="5.6953750">
        <ele>1125.3</ele>
        <time>2022-07-25T13:22:19Z</time>
      </trkpt>
      <trkpt lat="46.0613330" lon="5.6953720">
        <ele>1125.4</ele>
        <time>2022-07-25T13:22:20Z</time>
      </trkpt>
      <trkpt lat="46.0613620" lon="5.6953600">
        <ele>1125.7</ele>
        <time>2022-07-25T13:22:21Z</time>
      </trkpt>
      <trkpt lat="46.0613720" lon="5.6953540">
        <ele>1125.8</ele>
        <time>2022-07-25T13:22:22Z</time>
      </trkpt>
      <trkpt lat="46.0613860" lon="5.6953380">
        <ele>1125.9</ele>
        <time>2022-07-25T13:22:23Z</time>
      </trkpt>
      <trkpt lat="46.0614020" lon="5.6953300">
        <ele>1126.1</ele>
        <time>2022-07-25T13:22:24Z</time>
      </trkpt>
      <trkpt lat="46.0614270" lon="5.6953180">
        <ele>1126.3</ele>
        <time>2022-07-25T13:22:25Z</time>
      </trkpt>
      <trkpt lat="46.0614380" lon="5.6953110">
        <ele>1126.4</ele>
        <time>2022-07-25T13:22:26Z</time>
      </trkpt>
      <trkpt lat="46.0614550" lon="5.6953010">
        <ele>1126.6</ele>
        <time>2022-07-25T13:22:27Z</time>
      </trkpt>
      <trkpt lat="46.0614660" lon="5.6952950">
        <ele>1126.7</ele>
        <time>2022-07-25T13:22:28Z</time>
      </trkpt>
      <trkpt lat="46.0614830" lon="5.6952790">
        <ele>1126.8</ele>
        <time>2022-07-25T13:22:29Z</time>
      </trkpt>
      <trkpt lat="46.0614960" lon="5.6952710">
        <ele>1127.0</ele>
        <time>2022-07-25T13:22:30Z</time>
      </trkpt>
      <trkpt lat="46.0615290" lon="5.6952510">
        <ele>1127.3</ele>
        <time>2022-07-25T13:22:32Z</time>
      </trkpt>
      <trkpt lat="46.0615380" lon="5.6952470">
        <ele>1127.3</ele>
        <time>2022-07-25T13:22:33Z</time>
      </trkpt>
      <trkpt lat="46.0615520" lon="5.6952380">
        <ele>1127.5</ele>
        <time>2022-07-25T13:22:34Z</time>
      </trkpt>
      <trkpt lat="46.0615670" lon="5.6952240">
        <ele>1127.6</ele>
        <time>2022-07-25T13:22:35Z</time>
      </trkpt>
      <trkpt lat="46.0615950" lon="5.6951970">
        <ele>1127.9</ele>
        <time>2022-07-25T13:22:36Z</time>
      </trkpt>
      <trkpt lat="46.0616020" lon="5.6951910">
        <ele>1128.0</ele>
        <time>2022-07-25T13:22:37Z</time>
      </trkpt>
      <trkpt lat="46.0616190" lon="5.6951730">
        <ele>1128.1</ele>
        <time>2022-07-25T13:22:38Z</time>
      </trkpt>
      <trkpt lat="46.0616330" lon="5.6951580">
        <ele>1128.3</ele>
        <time>2022-07-25T13:22:40Z</time>
      </trkpt>
      <trkpt lat="46.0616540" lon="5.6951320">
        <ele>1128.5</ele>
        <time>2022-07-25T13:22:41Z</time>
      </trkpt>
      <trkpt lat="46.0616770" lon="5.6951080">
        <ele>1128.7</ele>
        <time>2022-07-25T13:22:43Z</time>
      </trkpt>
      <trkpt lat="46.0616830" lon="5.6951000">
        <ele>1128.8</ele>
        <time>2022-07-25T13:22:44Z</time>
      </trkpt>
      <trkpt lat="46.0617050" lon="5.6950650">
        <ele>1129.1</ele>
        <time>2022-07-25T13:22:45Z</time>
      </trkpt>
      <trkpt lat="46.0617100" lon="5.6950580">
        <ele>1129.2</ele>
        <time>2022-07-25T13:22:46Z</time>
      </trkpt>
      <trkpt lat="46.0617210" lon="5.6950380">
        <ele>1129.3</ele>
        <time>2022-07-25T13:22:47Z</time>
      </trkpt>
      <trkpt lat="46.0617300" lon="5.6950170">
        <ele>1129.5</ele>
        <time>2022-07-25T13:22:48Z</time>
      </trkpt>
      <trkpt lat="46.0617360" lon="5.6950030">
        <ele>1129.6</ele>
        <time>2022-07-25T13:22:49Z</time>
      </trkpt>
      <trkpt lat="46.0617390" lon="5.6949880">
        <ele>1129.7</ele>
        <time>2022-07-25T13:22:50Z</time>
      </trkpt>
      <trkpt lat="46.0617430" lon="5.6949680">
        <ele>1129.9</ele>
        <time>2022-07-25T13:22:51Z</time>
      </trkpt>
      <trkpt lat="46.0617460" lon="5.6949510">
        <ele>1130.0</ele>
        <time>2022-07-25T13:22:52Z</time>
      </trkpt>
      <trkpt lat="46.0617550" lon="5.6949230">
        <ele>1130.3</ele>
        <time>2022-07-25T13:22:53Z</time>
      </trkpt>
      <trkpt lat="46.0617600" lon="5.6949080">
        <ele>1130.4</ele>
        <time>2022-07-25T13:22:55Z</time>
      </trkpt>
      <trkpt lat="46.0617650" lon="5.6948850">
        <ele>1130.6</ele>
        <time>2022-07-25T13:22:56Z</time>
      </trkpt>
      <trkpt lat="46.0617760" lon="5.6948500">
        <ele>1130.9</ele>
        <time>2022-07-25T13:22:57Z</time>
      </trkpt>
      <trkpt lat="46.0617790" lon="5.6948370">
        <ele>1131.0</ele>
        <time>2022-07-25T13:22:58Z</time>
      </trkpt>
      <trkpt lat="46.0617870" lon="5.6948160">
        <ele>1131.3</ele>
        <time>2022-07-25T13:22:59Z</time>
      </trkpt>
      <trkpt lat="46.0617970" lon="5.6947950">
        <ele>1131.5</ele>
        <time>2022-07-25T13:23:00Z</time>
      </trkpt>
      <trkpt lat="46.0618060" lon="5.6947750">
        <ele>1131.7</ele>
        <time>2022-07-25T13:23:01Z</time>
      </trkpt>
      <trkpt lat="46.0618140" lon="5.6947570">
        <ele>1131.9</ele>
        <time>2022-07-25T13:23:02Z</time>
      </trkpt>
      <trkpt lat="46.0618340" lon="5.6947260">
        <ele>1132.3</ele>
        <time>2022-07-25T13:23:03Z</time>
      </trkpt>
      <trkpt lat="46.0618390" lon="5.6947180">
        <ele>1132.4</ele>
        <time>2022-07-25T13:23:04Z</time>
      </trkpt>
      <trkpt lat="46.0618500" lon="5.6946730">
        <ele>1132.9</ele>
        <time>2022-07-25T13:23:05Z</time>
      </trkpt>
      <trkpt lat="46.0618530" lon="5.6946570">
        <ele>1133.0</ele>
        <time>2022-07-25T13:23:06Z</time>
      </trkpt>
      <trkpt lat="46.0618570" lon="5.6946280">
        <ele>1133.3</ele>
        <time>2022-07-25T13:23:07Z</time>
      </trkpt>
      <trkpt lat="46.0618580" lon="5.6946160">
        <ele>1133.5</ele>
        <time>2022-07-25T13:23:08Z</time>
      </trkpt>
      <trkpt lat="46.0618600" lon="5.6946010">
        <ele>1133.6</ele>
        <time>2022-07-25T13:23:09Z</time>
      </trkpt>
      <trkpt lat="46.0618630" lon="5.6945850">
        <ele>1133.8</ele>
        <time>2022-07-25T13:23:10Z</time>
      </trkpt>
      <trkpt lat="46.0618630" lon="5.6945700">
        <ele>1133.9</ele>
        <time>2022-07-25T13:23:11Z</time>
      </trkpt>
      <trkpt lat="46.0618620" lon="5.6945470">
        <ele>1134.2</ele>
        <time>2022-07-25T13:23:12Z</time>
      </trkpt>
      <trkpt lat="46.0618610" lon="5.6945370">
        <ele>1134.3</ele>
        <time>2022-07-25T13:23:14Z</time>
      </trkpt>
      <trkpt lat="46.0618600" lon="5.6945260">
        <ele>1134.4</ele>
        <time>2022-07-25T13:23:15Z</time>
      </trkpt>
      <trkpt lat="46.0618590" lon="5.6945160">
        <ele>1134.5</ele>
        <time>2022-07-25T13:23:16Z</time>
      </trkpt>
      <trkpt lat="46.0618510" lon="5.6944950">
        <ele>1134.7</ele>
        <time>2022-07-25T13:23:17Z</time>
      </trkpt>
      <trkpt lat="46.0618480" lon="5.6944860">
        <ele>1134.8</ele>
        <time>2022-07-25T13:23:18Z</time>
      </trkpt>
      <trkpt lat="46.0618450" lon="5.6944780">
        <ele>1134.9</ele>
        <time>2022-07-25T13:23:19Z</time>
      </trkpt>
      <trkpt lat="46.0618420" lon="5.6944700">
        <ele>1135.0</ele>
        <time>2022-07-25T13:23:20Z</time>
      </trkpt>
      <trkpt lat="46.0618350" lon="5.6944530">
        <ele>1135.2</ele>
        <time>2022-07-25T13:23:22Z</time>
      </trkpt>
      <trkpt lat="46.0618260" lon="5.6944430">
        <ele>1135.4</ele>
        <time>2022-07-25T13:23:23Z</time>
      </trkpt>
      <trkpt lat="46.0618210" lon="5.6944350">
        <ele>1135.5</ele>
        <time>2022-07-25T13:23:24Z</time>
      </trkpt>
      <trkpt lat="46.0618160" lon="5.6944270">
        <ele>1135.6</ele>
        <time>2022-07-25T13:23:25Z</time>
      </trkpt>
      <trkpt lat="46.0618120" lon="5.6944180">
        <ele>1135.7</ele>
        <time>2022-07-25T13:23:26Z</time>
      </trkpt>
      <trkpt lat="46.0618080" lon="5.6944080">
        <ele>1135.9</ele>
        <time>2022-07-25T13:23:27Z</time>
      </trkpt>
      <trkpt lat="46.0618040" lon="5.6943960">
        <ele>1136.0</ele>
        <time>2022-07-25T13:23:28Z</time>
      </trkpt>
      <trkpt lat="46.0617990" lon="5.6943840">
        <ele>1136.2</ele>
        <time>2022-07-25T13:23:29Z</time>
      </trkpt>
      <trkpt lat="46.0617950" lon="5.6943730">
        <ele>1136.3</ele>
        <time>2022-07-25T13:23:30Z</time>
      </trkpt>
      <trkpt lat="46.0617870" lon="5.6943550">
        <ele>1136.6</ele>
        <time>2022-07-25T13:23:31Z</time>
      </trkpt>
      <trkpt lat="46.0617740" lon="5.6943320">
        <ele>1136.9</ele>
        <time>2022-07-25T13:23:32Z</time>
      </trkpt>
      <trkpt lat="46.0617680" lon="5.6943230">
        <ele>1137.0</ele>
        <time>2022-07-25T13:23:33Z</time>
      </trkpt>
      <trkpt lat="46.0617620" lon="5.6943140">
        <ele>1137.2</ele>
        <time>2022-07-25T13:23:34Z</time>
      </trkpt>
      <trkpt lat="46.0617510" lon="5.6942940">
        <ele>1137.5</ele>
        <time>2022-07-25T13:23:35Z</time>
      </trkpt>
      <trkpt lat="46.0617380" lon="5.6942740">
        <ele>1137.9</ele>
        <time>2022-07-25T13:23:37Z</time>
      </trkpt>
      <trkpt lat="46.0617220" lon="5.6942440">
        <ele>1138.4</ele>
        <time>2022-07-25T13:23:38Z</time>
      </trkpt>
      <trkpt lat="46.0617160" lon="5.6942310">
        <ele>1138.6</ele>
        <time>2022-07-25T13:23:39Z</time>
      </trkpt>
      <trkpt lat="46.0617020" lon="5.6942030">
        <ele>1139.1</ele>
        <time>2022-07-25T13:23:40Z</time>
      </trkpt>
      <trkpt lat="46.0616910" lon="5.6941840">
        <ele>1139.4</ele>
        <time>2022-07-25T13:23:42Z</time>
      </trkpt>
      <trkpt lat="46.0616810" lon="5.6941560">
        <ele>1139.9</ele>
        <time>2022-07-25T13:23:43Z</time>
      </trkpt>
      <trkpt lat="46.0616780" lon="5.6941420">
        <ele>1140.1</ele>
        <time>2022-07-25T13:23:44Z</time>
      </trkpt>
      <trkpt lat="46.0616730" lon="5.6941240">
        <ele>1140.4</ele>
        <time>2022-07-25T13:23:45Z</time>
      </trkpt>
      <trkpt lat="46.0616670" lon="5.6941020">
        <ele>1140.7</ele>
        <time>2022-07-25T13:23:46Z</time>
      </trkpt>
      <trkpt lat="46.0616630" lon="5.6940840">
        <ele>1141.0</ele>
        <time>2022-07-25T13:23:48Z</time>
      </trkpt>
      <trkpt lat="46.0616570" lon="5.6940620">
        <ele>1141.3</ele>
        <time>2022-07-25T13:23:49Z</time>
      </trkpt>
      <trkpt lat="46.0616530" lon="5.6940380">
        <ele>1141.7</ele>
        <time>2022-07-25T13:23:50Z</time>
      </trkpt>
      <trkpt lat="46.0616540" lon="5.6940210">
        <ele>1141.9</ele>
        <time>2022-07-25T13:23:51Z</time>
      </trkpt>
      <trkpt lat="46.0616540" lon="5.6940060">
        <ele>1142.1</ele>
        <time>2022-07-25T13:23:52Z</time>
      </trkpt>
      <trkpt lat="46.0616520" lon="5.6939900">
        <ele>1142.4</ele>
        <time>2022-07-25T13:23:53Z</time>
      </trkpt>
      <trkpt lat="46.0616460" lon="5.6939720">
        <ele>1142.6</ele>
        <time>2022-07-25T13:23:54Z</time>
      </trkpt>
      <trkpt lat="46.0616400" lon="5.6939560">
        <ele>1142.9</ele>
        <time>2022-07-25T13:23:55Z</time>
      </trkpt>
      <trkpt lat="46.0616350" lon="5.6939450">
        <ele>1143.1</ele>
        <time>2022-07-25T13:23:56Z</time>
      </trkpt>
      <trkpt lat="46.0616310" lon="5.6939330">
        <ele>1143.2</ele>
        <time>2022-07-25T13:23:57Z</time>
      </trkpt>
      <trkpt lat="46.0616250" lon="5.6939200">
        <ele>1143.4</ele>
        <time>2022-07-25T13:23:58Z</time>
      </trkpt>
      <trkpt lat="46.0616190" lon="5.6939080">
        <ele>1143.6</ele>
        <time>2022-07-25T13:23:59Z</time>
      </trkpt>
      <trkpt lat="46.0616140" lon="5.6938960">
        <ele>1143.8</ele>
        <time>2022-07-25T13:24:00Z</time>
      </trkpt>
      <trkpt lat="46.0616080" lon="5.6938850">
        <ele>1144.0</ele>
        <time>2022-07-25T13:24:01Z</time>
      </trkpt>
      <trkpt lat="46.0616010" lon="5.6938730">
        <ele>1144.1</ele>
        <time>2022-07-25T13:24:02Z</time>
      </trkpt>
      <trkpt lat="46.0615940" lon="5.6938590">
        <ele>1144.3</ele>
        <time>2022-07-25T13:24:03Z</time>
      </trkpt>
      <trkpt lat="46.0615890" lon="5.6938420">
        <ele>1144.5</ele>
        <time>2022-07-25T13:24:04Z</time>
      </trkpt>
      <trkpt lat="46.0615890" lon="5.6938200">
        <ele>1144.8</ele>
        <time>2022-07-25T13:24:05Z</time>
      </trkpt>
      <trkpt lat="46.0615910" lon="5.6938010">
        <ele>1145.0</ele>
        <time>2022-07-25T13:24:06Z</time>
      </trkpt>
      <trkpt lat="46.0615950" lon="5.6937820">
        <ele>1145.2</ele>
        <time>2022-07-25T13:24:07Z</time>
      </trkpt>
      <trkpt lat="46.0615990" lon="5.6937670">
        <ele>1145.3</ele>
        <time>2022-07-25T13:24:08Z</time>
      </trkpt>
      <trkpt lat="46.0616010" lon="5.6937540">
        <ele>1145.4</ele>
        <time>2022-07-25T13:24:09Z</time>
      </trkpt>
      <trkpt lat="46.0616010" lon="5.6937380">
        <ele>1145.6</ele>
        <time>2022-07-25T13:24:10Z</time>
      </trkpt>
      <trkpt lat="46.0616010" lon="5.6937200">
        <ele>1145.7</ele>
        <time>2022-07-25T13:24:11Z</time>
      </trkpt>
      <trkpt lat="46.0616000" lon="5.6937070">
        <ele>1145.8</ele>
        <time>2022-07-25T13:24:12Z</time>
      </trkpt>
      <trkpt lat="46.0615990" lon="5.6936930">
        <ele>1145.9</ele>
        <time>2022-07-25T13:24:13Z</time>
      </trkpt>
      <trkpt lat="46.0615950" lon="5.6936670">
        <ele>1146.1</ele>
        <time>2022-07-25T13:24:14Z</time>
      </trkpt>
      <trkpt lat="46.0615930" lon="5.6936530">
        <ele>1146.2</ele>
        <time>2022-07-25T13:24:15Z</time>
      </trkpt>
      <trkpt lat="46.0615910" lon="5.6936380">
        <ele>1146.3</ele>
        <time>2022-07-25T13:24:16Z</time>
      </trkpt>
      <trkpt lat="46.0615880" lon="5.6936200">
        <ele>1146.5</ele>
        <time>2022-07-25T13:24:17Z</time>
      </trkpt>
      <trkpt lat="46.0615850" lon="5.6935990">
        <ele>1146.6</ele>
        <time>2022-07-25T13:24:18Z</time>
      </trkpt>
      <trkpt lat="46.0615890" lon="5.6935870">
        <ele>1146.7</ele>
        <time>2022-07-25T13:24:19Z</time>
      </trkpt>
      <trkpt lat="46.0615910" lon="5.6935730">
        <ele>1146.8</ele>
        <time>2022-07-25T13:24:21Z</time>
      </trkpt>
      <trkpt lat="46.0615920" lon="5.6935600">
        <ele>1146.8</ele>
        <time>2022-07-25T13:24:22Z</time>
      </trkpt>
      <trkpt lat="46.0615940" lon="5.6935470">
        <ele>1146.9</ele>
        <time>2022-07-25T13:24:23Z</time>
      </trkpt>
      <trkpt lat="46.0615960" lon="5.6935330">
        <ele>1147.0</ele>
        <time>2022-07-25T13:24:24Z</time>
      </trkpt>
      <trkpt lat="46.0615980" lon="5.6934670">
        <ele>1147.3</ele>
        <time>2022-07-25T13:24:26Z</time>
      </trkpt>
      <trkpt lat="46.0615990" lon="5.6934460">
        <ele>1147.4</ele>
        <time>2022-07-25T13:24:27Z</time>
      </trkpt>
      <trkpt lat="46.0616010" lon="5.6934240">
        <ele>1147.6</ele>
        <time>2022-07-25T13:24:28Z</time>
      </trkpt>
      <trkpt lat="46.0616020" lon="5.6934000">
        <ele>1147.6</ele>
        <time>2022-07-25T13:24:29Z</time>
      </trkpt>
      <trkpt lat="46.0616020" lon="5.6933800">
        <ele>1147.7</ele>
        <time>2022-07-25T13:24:30Z</time>
      </trkpt>
      <trkpt lat="46.0616060" lon="5.6933650">
        <ele>1147.8</ele>
        <time>2022-07-25T13:24:31Z</time>
      </trkpt>
      <trkpt lat="46.0616090" lon="5.6933580">
        <ele>1147.8</ele>
        <time>2022-07-25T13:24:32Z</time>
      </trkpt>
      <trkpt lat="46.0616110" lon="5.6933500">
        <ele>1147.8</ele>
        <time>2022-07-25T13:24:33Z</time>
      </trkpt>
      <trkpt lat="46.0616140" lon="5.6933430">
        <ele>1147.8</ele>
        <time>2022-07-25T13:24:34Z</time>
      </trkpt>
      <trkpt lat="46.0616170" lon="5.6933350">
        <ele>1147.8</ele>
        <time>2022-07-25T13:24:35Z</time>
      </trkpt>
      <trkpt lat="46.0616190" lon="5.6933280">
        <ele>1147.9</ele>
        <time>2022-07-25T13:24:36Z</time>
      </trkpt>
      <trkpt lat="46.0616220" lon="5.6933210">
        <ele>1147.9</ele>
        <time>2022-07-25T13:24:37Z</time>
      </trkpt>
      <trkpt lat="46.0616240" lon="5.6933130">
        <ele>1147.9</ele>
        <time>2022-07-25T13:24:38Z</time>
      </trkpt>
      <trkpt lat="46.0616270" lon="5.6933060">
        <ele>1147.9</ele>
        <time>2022-07-25T13:24:39Z</time>
      </trkpt>
      <trkpt lat="46.0616290" lon="5.6932990">
        <ele>1147.9</ele>
        <time>2022-07-25T13:24:40Z</time>
      </trkpt>
      <trkpt lat="46.0616320" lon="5.6932910">
        <ele>1147.9</ele>
        <time>2022-07-25T13:24:41Z</time>
      </trkpt>
      <trkpt lat="46.0616340" lon="5.6932840">
        <ele>1147.9</ele>
        <time>2022-07-25T13:24:42Z</time>
      </trkpt>
      <trkpt lat="46.0616370" lon="5.6932770">
        <ele>1148.0</ele>
        <time>2022-07-25T13:24:49Z</time>
      </trkpt>
      <trkpt lat="46.0616400" lon="5.6932690">
        <ele>1148.0</ele>
        <time>2022-07-25T13:24:50Z</time>
      </trkpt>
      <trkpt lat="46.0616420" lon="5.6932620">
        <ele>1148.0</ele>
        <time>2022-07-25T13:24:51Z</time>
      </trkpt>
      <trkpt lat="46.0616490" lon="5.6932080">
        <ele>1148.0</ele>
        <time>2022-07-25T13:24:52Z</time>
      </trkpt>
      <trkpt lat="46.0616510" lon="5.6931430">
        <ele>1148.0</ele>
        <time>2022-07-25T13:24:53Z</time>
      </trkpt>
      <trkpt lat="46.0617090" lon="5.6928510">
        <ele>1147.6</ele>
        <time>2022-07-25T13:24:54Z</time>
      </trkpt>
      <trkpt lat="46.0617210" lon="5.6928020">
        <ele>1147.6</ele>
        <time>2022-07-25T13:24:55Z</time>
      </trkpt>
      <trkpt lat="46.0617560" lon="5.6927090">
        <ele>1147.3</ele>
        <time>2022-07-25T13:24:56Z</time>
      </trkpt>
      <trkpt lat="46.0617820" lon="5.6926440">
        <ele>1147.1</ele>
        <time>2022-07-25T13:24:57Z</time>
      </trkpt>
      <trkpt lat="46.0618330" lon="5.6925970">
        <ele>1146.8</ele>
        <time>2022-07-25T13:24:58Z</time>
      </trkpt>
      <trkpt lat="46.0618840" lon="5.6925480">
        <ele>1146.4</ele>
        <time>2022-07-25T13:24:59Z</time>
      </trkpt>
      <trkpt lat="46.0619380" lon="5.6925020">
        <ele>1145.8</ele>
        <time>2022-07-25T13:25:00Z</time>
      </trkpt>
      <trkpt lat="46.0619980" lon="5.6924480">
        <ele>1145.1</ele>
        <time>2022-07-25T13:25:01Z</time>
      </trkpt>
      <trkpt lat="46.0620530" lon="5.6923940">
        <ele>1144.5</ele>
        <time>2022-07-25T13:25:02Z</time>
      </trkpt>
      <trkpt lat="46.0621080" lon="5.6923480">
        <ele>1143.9</ele>
        <time>2022-07-25T13:25:03Z</time>
      </trkpt>
      <trkpt lat="46.0621640" lon="5.6922980">
        <ele>1143.3</ele>
        <time>2022-07-25T13:25:04Z</time>
      </trkpt>
      <trkpt lat="46.0622130" lon="5.6922470">
        <ele>1142.7</ele>
        <time>2022-07-25T13:25:05Z</time>
      </trkpt>
      <trkpt lat="46.0622780" lon="5.6921870">
        <ele>1142.0</ele>
        <time>2022-07-25T13:25:06Z</time>
      </trkpt>
      <trkpt lat="46.0623490" lon="5.6921200">
        <ele>1141.0</ele>
        <time>2022-07-25T13:25:07Z</time>
      </trkpt>
      <trkpt lat="46.0624160" lon="5.6920510">
        <ele>1140.1</ele>
        <time>2022-07-25T13:25:08Z</time>
      </trkpt>
      <trkpt lat="46.0624870" lon="5.6919890">
        <ele>1139.1</ele>
        <time>2022-07-25T13:25:09Z</time>
      </trkpt>
      <trkpt lat="46.0625610" lon="5.6919300">
        <ele>1138.0</ele>
        <time>2022-07-25T13:25:10Z</time>
      </trkpt>
      <trkpt lat="46.0626290" lon="5.6918710">
        <ele>1136.9</ele>
        <time>2022-07-25T13:25:11Z</time>
      </trkpt>
      <trkpt lat="46.0626890" lon="5.6918130">
        <ele>1135.9</ele>
        <time>2022-07-25T13:25:12Z</time>
      </trkpt>
      <trkpt lat="46.0627460" lon="5.6917470">
        <ele>1134.9</ele>
        <time>2022-07-25T13:25:13Z</time>
      </trkpt>
      <trkpt lat="46.0627900" lon="5.6916820">
        <ele>1134.0</ele>
        <time>2022-07-25T13:25:14Z</time>
      </trkpt>
      <trkpt lat="46.0628340" lon="5.6916070">
        <ele>1133.0</ele>
        <time>2022-07-25T13:25:15Z</time>
      </trkpt>
      <trkpt lat="46.0628790" lon="5.6915190">
        <ele>1131.9</ele>
        <time>2022-07-25T13:25:16Z</time>
      </trkpt>
      <trkpt lat="46.0629190" lon="5.6914010">
        <ele>1130.6</ele>
        <time>2022-07-25T13:25:17Z</time>
      </trkpt>
      <trkpt lat="46.0629470" lon="5.6912740">
        <ele>1129.4</ele>
        <time>2022-07-25T13:25:18Z</time>
      </trkpt>
      <trkpt lat="46.0629850" lon="5.6911570">
        <ele>1128.3</ele>
        <time>2022-07-25T13:25:19Z</time>
      </trkpt>
      <trkpt lat="46.0630230" lon="5.6910310">
        <ele>1127.1</ele>
        <time>2022-07-25T13:25:20Z</time>
      </trkpt>
      <trkpt lat="46.0630540" lon="5.6908970">
        <ele>1126.0</ele>
        <time>2022-07-25T13:25:21Z</time>
      </trkpt>
      <trkpt lat="46.0630810" lon="5.6907550">
        <ele>1124.9</ele>
        <time>2022-07-25T13:25:22Z</time>
      </trkpt>
      <trkpt lat="46.0631070" lon="5.6906090">
        <ele>1123.8</ele>
        <time>2022-07-25T13:25:23Z</time>
      </trkpt>
      <trkpt lat="46.0631330" lon="5.6904630">
        <ele>1122.8</ele>
        <time>2022-07-25T13:25:24Z</time>
      </trkpt>
      <trkpt lat="46.0631490" lon="5.6903180">
        <ele>1121.9</ele>
        <time>2022-07-25T13:25:25Z</time>
      </trkpt>
      <trkpt lat="46.0631620" lon="5.6901820">
        <ele>1121.1</ele>
        <time>2022-07-25T13:25:26Z</time>
      </trkpt>
      <trkpt lat="46.0631760" lon="5.6900460">
        <ele>1120.4</ele>
        <time>2022-07-25T13:25:27Z</time>
      </trkpt>
      <trkpt lat="46.0631880" lon="5.6899130">
        <ele>1119.7</ele>
        <time>2022-07-25T13:25:28Z</time>
      </trkpt>
      <trkpt lat="46.0631880" lon="5.6898060">
        <ele>1119.2</ele>
        <time>2022-07-25T13:25:29Z</time>
      </trkpt>
      <trkpt lat="46.0631780" lon="5.6897040">
        <ele>1118.8</ele>
        <time>2022-07-25T13:25:30Z</time>
      </trkpt>
      <trkpt lat="46.0631730" lon="5.6896170">
        <ele>1118.4</ele>
        <time>2022-07-25T13:25:31Z</time>
      </trkpt>
      <trkpt lat="46.0631760" lon="5.6895300">
        <ele>1118.0</ele>
        <time>2022-07-25T13:25:32Z</time>
      </trkpt>
      <trkpt lat="46.0631880" lon="5.6894340">
        <ele>1117.5</ele>
        <time>2022-07-25T13:25:33Z</time>
      </trkpt>
      <trkpt lat="46.0632080" lon="5.6893410">
        <ele>1116.8</ele>
        <time>2022-07-25T13:25:34Z</time>
      </trkpt>
      <trkpt lat="46.0632210" lon="5.6892330">
        <ele>1116.0</ele>
        <time>2022-07-25T13:25:35Z</time>
      </trkpt>
      <trkpt lat="46.0632410" lon="5.6890910">
        <ele>1114.5</ele>
        <time>2022-07-25T13:25:36Z</time>
      </trkpt>
      <trkpt lat="46.0632610" lon="5.6889220">
        <ele>1111.4</ele>
        <time>2022-07-25T13:25:37Z</time>
      </trkpt>
      <trkpt lat="46.0632700" lon="5.6887540">
        <ele>1109.1</ele>
        <time>2022-07-25T13:25:38Z</time>
      </trkpt>
      <trkpt lat="46.0632810" lon="5.6885840">
        <ele>1107.7</ele>
        <time>2022-07-25T13:25:39Z</time>
      </trkpt>
      <trkpt lat="46.0633070" lon="5.6884320">
        <ele>1106.7</ele>
        <time>2022-07-25T13:25:40Z</time>
      </trkpt>
      <trkpt lat="46.0633260" lon="5.6882710">
        <ele>1105.7</ele>
        <time>2022-07-25T13:25:41Z</time>
      </trkpt>
      <trkpt lat="46.0633410" lon="5.6880940">
        <ele>1104.6</ele>
        <time>2022-07-25T13:25:42Z</time>
      </trkpt>
      <trkpt lat="46.0633550" lon="5.6879300">
        <ele>1103.5</ele>
        <time>2022-07-25T13:25:43Z</time>
      </trkpt>
      <trkpt lat="46.0633760" lon="5.6877620">
        <ele>1102.5</ele>
        <time>2022-07-25T13:25:44Z</time>
      </trkpt>
      <trkpt lat="46.0634010" lon="5.6875950">
        <ele>1101.4</ele>
        <time>2022-07-25T13:25:45Z</time>
      </trkpt>
      <trkpt lat="46.0634240" lon="5.6874290">
        <ele>1100.6</ele>
        <time>2022-07-25T13:25:46Z</time>
      </trkpt>
      <trkpt lat="46.0634520" lon="5.6872690">
        <ele>1100.0</ele>
        <time>2022-07-25T13:25:47Z</time>
      </trkpt>
      <trkpt lat="46.0634840" lon="5.6871110">
        <ele>1099.5</ele>
        <time>2022-07-25T13:25:48Z</time>
      </trkpt>
      <trkpt lat="46.0635110" lon="5.6869550">
        <ele>1099.0</ele>
        <time>2022-07-25T13:25:49Z</time>
      </trkpt>
      <trkpt lat="46.0635300" lon="5.6868010">
        <ele>1098.6</ele>
        <time>2022-07-25T13:25:50Z</time>
      </trkpt>
      <trkpt lat="46.0635460" lon="5.6866430">
        <ele>1098.2</ele>
        <time>2022-07-25T13:25:51Z</time>
      </trkpt>
      <trkpt lat="46.0635600" lon="5.6864870">
        <ele>1097.9</ele>
        <time>2022-07-25T13:25:52Z</time>
      </trkpt>
      <trkpt lat="46.0635720" lon="5.6863380">
        <ele>1097.5</ele>
        <time>2022-07-25T13:25:53Z</time>
      </trkpt>
      <trkpt lat="46.0635840" lon="5.6861920">
        <ele>1097.3</ele>
        <time>2022-07-25T13:25:54Z</time>
      </trkpt>
      <trkpt lat="46.0636040" lon="5.6860530">
        <ele>1097.1</ele>
        <time>2022-07-25T13:25:55Z</time>
      </trkpt>
      <trkpt lat="46.0636280" lon="5.6859190">
        <ele>1097.0</ele>
        <time>2022-07-25T13:25:56Z</time>
      </trkpt>
      <trkpt lat="46.0636620" lon="5.6857990">
        <ele>1097.0</ele>
        <time>2022-07-25T13:25:57Z</time>
      </trkpt>
      <trkpt lat="46.0636990" lon="5.6856860">
        <ele>1097.0</ele>
        <time>2022-07-25T13:25:58Z</time>
      </trkpt>
      <trkpt lat="46.0637400" lon="5.6855800">
        <ele>1097.1</ele>
        <time>2022-07-25T13:25:59Z</time>
      </trkpt>
      <trkpt lat="46.0637800" lon="5.6854750">
        <ele>1097.2</ele>
        <time>2022-07-25T13:26:00Z</time>
      </trkpt>
      <trkpt lat="46.0638170" lon="5.6853780">
        <ele>1097.2</ele>
        <time>2022-07-25T13:26:01Z</time>
      </trkpt>
      <trkpt lat="46.0638500" lon="5.6852820">
        <ele>1097.3</ele>
        <time>2022-07-25T13:26:02Z</time>
      </trkpt>
      <trkpt lat="46.0638850" lon="5.6851870">
        <ele>1097.4</ele>
        <time>2022-07-25T13:26:03Z</time>
      </trkpt>
      <trkpt lat="46.0639150" lon="5.6851030">
        <ele>1097.5</ele>
        <time>2022-07-25T13:26:04Z</time>
      </trkpt>
      <trkpt lat="46.0639440" lon="5.6850270">
        <ele>1097.6</ele>
        <time>2022-07-25T13:26:05Z</time>
      </trkpt>
      <trkpt lat="46.0639720" lon="5.6849550">
        <ele>1097.6</ele>
        <time>2022-07-25T13:26:06Z</time>
      </trkpt>
      <trkpt lat="46.0640070" lon="5.6848680">
        <ele>1097.6</ele>
        <time>2022-07-25T13:26:07Z</time>
      </trkpt>
      <trkpt lat="46.0640430" lon="5.6847830">
        <ele>1097.6</ele>
        <time>2022-07-25T13:26:08Z</time>
      </trkpt>
      <trkpt lat="46.0640720" lon="5.6847110">
        <ele>1097.6</ele>
        <time>2022-07-25T13:26:09Z</time>
      </trkpt>
      <trkpt lat="46.0641050" lon="5.6846300">
        <ele>1097.5</ele>
        <time>2022-07-25T13:26:10Z</time>
      </trkpt>
      <trkpt lat="46.0641310" lon="5.6845510">
        <ele>1097.3</ele>
        <time>2022-07-25T13:26:11Z</time>
      </trkpt>
      <trkpt lat="46.0641440" lon="5.6844760">
        <ele>1097.1</ele>
        <time>2022-07-25T13:26:12Z</time>
      </trkpt>
      <trkpt lat="46.0641520" lon="5.6844010">
        <ele>1096.9</ele>
        <time>2022-07-25T13:26:13Z</time>
      </trkpt>
      <trkpt lat="46.0641560" lon="5.6843100">
        <ele>1096.5</ele>
        <time>2022-07-25T13:26:14Z</time>
      </trkpt>
      <trkpt lat="46.0641590" lon="5.6842350">
        <ele>1096.1</ele>
        <time>2022-07-25T13:26:15Z</time>
      </trkpt>
      <trkpt lat="46.0641650" lon="5.6841530">
        <ele>1095.7</ele>
        <time>2022-07-25T13:26:16Z</time>
      </trkpt>
      <trkpt lat="46.0641630" lon="5.6840550">
        <ele>1095.3</ele>
        <time>2022-07-25T13:26:17Z</time>
      </trkpt>
      <trkpt lat="46.0641610" lon="5.6839570">
        <ele>1094.9</ele>
        <time>2022-07-25T13:26:18Z</time>
      </trkpt>
      <trkpt lat="46.0641610" lon="5.6838570">
        <ele>1094.5</ele>
        <time>2022-07-25T13:26:19Z</time>
      </trkpt>
      <trkpt lat="46.0641510" lon="5.6837450">
        <ele>1094.1</ele>
        <time>2022-07-25T13:26:20Z</time>
      </trkpt>
      <trkpt lat="46.0641470" lon="5.6836400">
        <ele>1093.7</ele>
        <time>2022-07-25T13:26:21Z</time>
      </trkpt>
      <trkpt lat="46.0641470" lon="5.6835390">
        <ele>1093.4</ele>
        <time>2022-07-25T13:26:22Z</time>
      </trkpt>
      <trkpt lat="46.0641460" lon="5.6834480">
        <ele>1093.0</ele>
        <time>2022-07-25T13:26:23Z</time>
      </trkpt>
      <trkpt lat="46.0641510" lon="5.6833530">
        <ele>1092.7</ele>
        <time>2022-07-25T13:26:24Z</time>
      </trkpt>
      <trkpt lat="46.0641920" lon="5.6832590">
        <ele>1092.3</ele>
        <time>2022-07-25T13:26:25Z</time>
      </trkpt>
      <trkpt lat="46.0642510" lon="5.6831440">
        <ele>1091.7</ele>
        <time>2022-07-25T13:26:26Z</time>
      </trkpt>
      <trkpt lat="46.0642860" lon="5.6830230">
        <ele>1091.2</ele>
        <time>2022-07-25T13:26:27Z</time>
      </trkpt>
      <trkpt lat="46.0643220" lon="5.6829110">
        <ele>1090.7</ele>
        <time>2022-07-25T13:26:28Z</time>
      </trkpt>
      <trkpt lat="46.0643560" lon="5.6828010">
        <ele>1090.2</ele>
        <time>2022-07-25T13:26:29Z</time>
      </trkpt>
      <trkpt lat="46.0643790" lon="5.6826990">
        <ele>1089.7</ele>
        <time>2022-07-25T13:26:30Z</time>
      </trkpt>
      <trkpt lat="46.0643970" lon="5.6825980">
        <ele>1089.3</ele>
        <time>2022-07-25T13:26:31Z</time>
      </trkpt>
      <trkpt lat="46.0644180" lon="5.6824940">
        <ele>1088.8</ele>
        <time>2022-07-25T13:26:32Z</time>
      </trkpt>
      <trkpt lat="46.0644550" lon="5.6823820">
        <ele>1088.1</ele>
        <time>2022-07-25T13:26:33Z</time>
      </trkpt>
      <trkpt lat="46.0644810" lon="5.6822690">
        <ele>1087.3</ele>
        <time>2022-07-25T13:26:34Z</time>
      </trkpt>
      <trkpt lat="46.0645030" lon="5.6821480">
        <ele>1086.4</ele>
        <time>2022-07-25T13:26:35Z</time>
      </trkpt>
      <trkpt lat="46.0645250" lon="5.6820310">
        <ele>1085.5</ele>
        <time>2022-07-25T13:26:36Z</time>
      </trkpt>
      <trkpt lat="46.0645470" lon="5.6819230">
        <ele>1084.8</ele>
        <time>2022-07-25T13:26:37Z</time>
      </trkpt>
      <trkpt lat="46.0645570" lon="5.6818110">
        <ele>1084.2</ele>
        <time>2022-07-25T13:26:38Z</time>
      </trkpt>
      <trkpt lat="46.0645610" lon="5.6816780">
        <ele>1083.6</ele>
        <time>2022-07-25T13:26:39Z</time>
      </trkpt>
      <trkpt lat="46.0645640" lon="5.6815530">
        <ele>1083.1</ele>
        <time>2022-07-25T13:26:40Z</time>
      </trkpt>
      <trkpt lat="46.0645700" lon="5.6814320">
        <ele>1082.6</ele>
        <time>2022-07-25T13:26:41Z</time>
      </trkpt>
      <trkpt lat="46.0645830" lon="5.6813100">
        <ele>1082.2</ele>
        <time>2022-07-25T13:26:42Z</time>
      </trkpt>
      <trkpt lat="46.0645960" lon="5.6811980">
        <ele>1081.7</ele>
        <time>2022-07-25T13:26:43Z</time>
      </trkpt>
      <trkpt lat="46.0646080" lon="5.6811040">
        <ele>1081.4</ele>
        <time>2022-07-25T13:26:44Z</time>
      </trkpt>
      <trkpt lat="46.0646300" lon="5.6810190">
        <ele>1081.0</ele>
        <time>2022-07-25T13:26:45Z</time>
      </trkpt>
      <trkpt lat="46.0646720" lon="5.6809410">
        <ele>1080.5</ele>
        <time>2022-07-25T13:26:46Z</time>
      </trkpt>
      <trkpt lat="46.0647250" lon="5.6808960">
        <ele>1080.1</ele>
        <time>2022-07-25T13:26:47Z</time>
      </trkpt>
      <trkpt lat="46.0647820" lon="5.6808800">
        <ele>1079.6</ele>
        <time>2022-07-25T13:26:48Z</time>
      </trkpt>
      <trkpt lat="46.0648390" lon="5.6808880">
        <ele>1079.1</ele>
        <time>2022-07-25T13:26:49Z</time>
      </trkpt>
      <trkpt lat="46.0648940" lon="5.6809300">
        <ele>1078.5</ele>
        <time>2022-07-25T13:26:50Z</time>
      </trkpt>
      <trkpt lat="46.0649420" lon="5.6809800">
        <ele>1077.9</ele>
        <time>2022-07-25T13:26:51Z</time>
      </trkpt>
      <trkpt lat="46.0649770" lon="5.6810540">
        <ele>1077.2</ele>
        <time>2022-07-25T13:26:52Z</time>
      </trkpt>
      <trkpt lat="46.0650150" lon="5.6811470">
        <ele>1076.6</ele>
        <time>2022-07-25T13:26:53Z</time>
      </trkpt>
      <trkpt lat="46.0650490" lon="5.6812370">
        <ele>1075.9</ele>
        <time>2022-07-25T13:26:54Z</time>
      </trkpt>
      <trkpt lat="46.0650800" lon="5.6813330">
        <ele>1075.4</ele>
        <time>2022-07-25T13:26:55Z</time>
      </trkpt>
      <trkpt lat="46.0651050" lon="5.6814380">
        <ele>1074.7</ele>
        <time>2022-07-25T13:26:56Z</time>
      </trkpt>
      <trkpt lat="46.0651350" lon="5.6815580">
        <ele>1074.1</ele>
        <time>2022-07-25T13:26:57Z</time>
      </trkpt>
      <trkpt lat="46.0651620" lon="5.6816700">
        <ele>1073.4</ele>
        <time>2022-07-25T13:26:58Z</time>
      </trkpt>
      <trkpt lat="46.0651870" lon="5.6817930">
        <ele>1072.8</ele>
        <time>2022-07-25T13:26:59Z</time>
      </trkpt>
      <trkpt lat="46.0652000" lon="5.6819170">
        <ele>1072.2</ele>
        <time>2022-07-25T13:27:00Z</time>
      </trkpt>
      <trkpt lat="46.0652100" lon="5.6820530">
        <ele>1071.6</ele>
        <time>2022-07-25T13:27:01Z</time>
      </trkpt>
      <trkpt lat="46.0652160" lon="5.6821780">
        <ele>1071.0</ele>
        <time>2022-07-25T13:27:02Z</time>
      </trkpt>
      <trkpt lat="46.0652250" lon="5.6822920">
        <ele>1070.5</ele>
        <time>2022-07-25T13:27:03Z</time>
      </trkpt>
      <trkpt lat="46.0652430" lon="5.6823990">
        <ele>1069.9</ele>
        <time>2022-07-25T13:27:04Z</time>
      </trkpt>
      <trkpt lat="46.0652740" lon="5.6824890">
        <ele>1069.4</ele>
        <time>2022-07-25T13:27:05Z</time>
      </trkpt>
      <trkpt lat="46.0653250" lon="5.6825630">
        <ele>1068.9</ele>
        <time>2022-07-25T13:27:06Z</time>
      </trkpt>
      <trkpt lat="46.0653900" lon="5.6826270">
        <ele>1068.4</ele>
        <time>2022-07-25T13:27:07Z</time>
      </trkpt>
      <trkpt lat="46.0654610" lon="5.6826630">
        <ele>1067.9</ele>
        <time>2022-07-25T13:27:08Z</time>
      </trkpt>
      <trkpt lat="46.0655440" lon="5.6826580">
        <ele>1067.5</ele>
        <time>2022-07-25T13:27:09Z</time>
      </trkpt>
      <trkpt lat="46.0656200" lon="5.6826410">
        <ele>1067.2</ele>
        <time>2022-07-25T13:27:10Z</time>
      </trkpt>
      <trkpt lat="46.0656880" lon="5.6826100">
        <ele>1067.0</ele>
        <time>2022-07-25T13:27:11Z</time>
      </trkpt>
      <trkpt lat="46.0657480" lon="5.6825650">
        <ele>1066.7</ele>
        <time>2022-07-25T13:27:12Z</time>
      </trkpt>
      <trkpt lat="46.0657990" lon="5.6825080">
        <ele>1066.4</ele>
        <time>2022-07-25T13:27:13Z</time>
      </trkpt>
      <trkpt lat="46.0658470" lon="5.6824280">
        <ele>1066.1</ele>
        <time>2022-07-25T13:27:14Z</time>
      </trkpt>
      <trkpt lat="46.0658840" lon="5.6823350">
        <ele>1065.7</ele>
        <time>2022-07-25T13:27:15Z</time>
      </trkpt>
      <trkpt lat="46.0659110" lon="5.6822330">
        <ele>1065.3</ele>
        <time>2022-07-25T13:27:16Z</time>
      </trkpt>
      <trkpt lat="46.0659220" lon="5.6821100">
        <ele>1064.9</ele>
        <time>2022-07-25T13:27:17Z</time>
      </trkpt>
      <trkpt lat="46.0659150" lon="5.6819940">
        <ele>1064.7</ele>
        <time>2022-07-25T13:27:18Z</time>
      </trkpt>
      <trkpt lat="46.0658870" lon="5.6818900">
        <ele>1064.2</ele>
        <time>2022-07-25T13:27:19Z</time>
      </trkpt>
      <trkpt lat="46.0658500" lon="5.6817930">
        <ele>1063.7</ele>
        <time>2022-07-25T13:27:20Z</time>
      </trkpt>
      <trkpt lat="46.0658060" lon="5.6816950">
        <ele>1063.1</ele>
        <time>2022-07-25T13:27:21Z</time>
      </trkpt>
      <trkpt lat="46.0657650" lon="5.6816070">
        <ele>1062.6</ele>
        <time>2022-07-25T13:27:22Z</time>
      </trkpt>
      <trkpt lat="46.0657340" lon="5.6815100">
        <ele>1062.0</ele>
        <time>2022-07-25T13:27:23Z</time>
      </trkpt>
      <trkpt lat="46.0657080" lon="5.6813950">
        <ele>1061.3</ele>
        <time>2022-07-25T13:27:24Z</time>
      </trkpt>
      <trkpt lat="46.0656900" lon="5.6812650">
        <ele>1060.6</ele>
        <time>2022-07-25T13:27:25Z</time>
      </trkpt>
      <trkpt lat="46.0656730" lon="5.6811360">
        <ele>1059.9</ele>
        <time>2022-07-25T13:27:26Z</time>
      </trkpt>
      <trkpt lat="46.0656530" lon="5.6810130">
        <ele>1059.3</ele>
        <time>2022-07-25T13:27:27Z</time>
      </trkpt>
      <trkpt lat="46.0656390" lon="5.6808850">
        <ele>1058.6</ele>
        <time>2022-07-25T13:27:28Z</time>
      </trkpt>
      <trkpt lat="46.0656250" lon="5.6807520">
        <ele>1058.0</ele>
        <time>2022-07-25T13:27:29Z</time>
      </trkpt>
      <trkpt lat="46.0656010" lon="5.6806240">
        <ele>1057.4</ele>
        <time>2022-07-25T13:27:30Z</time>
      </trkpt>
      <trkpt lat="46.0655900" lon="5.6804910">
        <ele>1056.7</ele>
        <time>2022-07-25T13:27:31Z</time>
      </trkpt>
      <trkpt lat="46.0655830" lon="5.6803570">
        <ele>1056.0</ele>
        <time>2022-07-25T13:27:32Z</time>
      </trkpt>
      <trkpt lat="46.0655790" lon="5.6802160">
        <ele>1055.2</ele>
        <time>2022-07-25T13:27:33Z</time>
      </trkpt>
      <trkpt lat="46.0655790" lon="5.6800760">
        <ele>1054.3</ele>
        <time>2022-07-25T13:27:34Z</time>
      </trkpt>
      <trkpt lat="46.0655720" lon="5.6799210">
        <ele>1053.3</ele>
        <time>2022-07-25T13:27:35Z</time>
      </trkpt>
      <trkpt lat="46.0655510" lon="5.6797800">
        <ele>1052.5</ele>
        <time>2022-07-25T13:27:36Z</time>
      </trkpt>
      <trkpt lat="46.0655220" lon="5.6796600">
        <ele>1051.8</ele>
        <time>2022-07-25T13:27:37Z</time>
      </trkpt>
      <trkpt lat="46.0654850" lon="5.6795260">
        <ele>1051.0</ele>
        <time>2022-07-25T13:27:38Z</time>
      </trkpt>
      <trkpt lat="46.0654400" lon="5.6793870">
        <ele>1050.1</ele>
        <time>2022-07-25T13:27:39Z</time>
      </trkpt>
      <trkpt lat="46.0654040" lon="5.6792550">
        <ele>1049.3</ele>
        <time>2022-07-25T13:27:40Z</time>
      </trkpt>
      <trkpt lat="46.0653790" lon="5.6791370">
        <ele>1048.6</ele>
        <time>2022-07-25T13:27:41Z</time>
      </trkpt>
      <trkpt lat="46.0653400" lon="5.6790030">
        <ele>1047.9</ele>
        <time>2022-07-25T13:27:42Z</time>
      </trkpt>
      <trkpt lat="46.0652950" lon="5.6788650">
        <ele>1047.0</ele>
        <time>2022-07-25T13:27:43Z</time>
      </trkpt>
      <trkpt lat="46.0652370" lon="5.6787240">
        <ele>1046.2</ele>
        <time>2022-07-25T13:27:44Z</time>
      </trkpt>
      <trkpt lat="46.0651860" lon="5.6785890">
        <ele>1045.3</ele>
        <time>2022-07-25T13:27:45Z</time>
      </trkpt>
      <trkpt lat="46.0651510" lon="5.6784650">
        <ele>1044.5</ele>
        <time>2022-07-25T13:27:46Z</time>
      </trkpt>
      <trkpt lat="46.0651350" lon="5.6783400">
        <ele>1043.8</ele>
        <time>2022-07-25T13:27:47Z</time>
      </trkpt>
      <trkpt lat="46.0651100" lon="5.6782060">
        <ele>1043.1</ele>
        <time>2022-07-25T13:27:48Z</time>
      </trkpt>
      <trkpt lat="46.0650880" lon="5.6780700">
        <ele>1042.4</ele>
        <time>2022-07-25T13:27:49Z</time>
      </trkpt>
      <trkpt lat="46.0650620" lon="5.6779370">
        <ele>1041.7</ele>
        <time>2022-07-25T13:27:50Z</time>
      </trkpt>
      <trkpt lat="46.0650390" lon="5.6778060">
        <ele>1041.0</ele>
        <time>2022-07-25T13:27:51Z</time>
      </trkpt>
      <trkpt lat="46.0650190" lon="5.6776690">
        <ele>1040.3</ele>
        <time>2022-07-25T13:27:52Z</time>
      </trkpt>
      <trkpt lat="46.0650040" lon="5.6775490">
        <ele>1039.7</ele>
        <time>2022-07-25T13:27:53Z</time>
      </trkpt>
      <trkpt lat="46.0650010" lon="5.6774320">
        <ele>1039.0</ele>
        <time>2022-07-25T13:27:54Z</time>
      </trkpt>
      <trkpt lat="46.0650110" lon="5.6773250">
        <ele>1038.3</ele>
        <time>2022-07-25T13:27:55Z</time>
      </trkpt>
      <trkpt lat="46.0650390" lon="5.6772160">
        <ele>1037.5</ele>
        <time>2022-07-25T13:27:56Z</time>
      </trkpt>
      <trkpt lat="46.0650820" lon="5.6771020">
        <ele>1036.7</ele>
        <time>2022-07-25T13:27:57Z</time>
      </trkpt>
      <trkpt lat="46.0651320" lon="5.6769860">
        <ele>1035.7</ele>
        <time>2022-07-25T13:27:58Z</time>
      </trkpt>
      <trkpt lat="46.0651700" lon="5.6768640">
        <ele>1034.8</ele>
        <time>2022-07-25T13:27:59Z</time>
      </trkpt>
      <trkpt lat="46.0651890" lon="5.6767330">
        <ele>1033.9</ele>
        <time>2022-07-25T13:28:00Z</time>
      </trkpt>
      <trkpt lat="46.0652050" lon="5.6765960">
        <ele>1033.1</ele>
        <time>2022-07-25T13:28:01Z</time>
      </trkpt>
      <trkpt lat="46.0652250" lon="5.6764600">
        <ele>1032.3</ele>
        <time>2022-07-25T13:28:02Z</time>
      </trkpt>
      <trkpt lat="46.0652460" lon="5.6763200">
        <ele>1031.5</ele>
        <time>2022-07-25T13:28:03Z</time>
      </trkpt>
      <trkpt lat="46.0652670" lon="5.6761760">
        <ele>1030.7</ele>
        <time>2022-07-25T13:28:04Z</time>
      </trkpt>
      <trkpt lat="46.0652960" lon="5.6760250">
        <ele>1029.8</ele>
        <time>2022-07-25T13:28:05Z</time>
      </trkpt>
      <trkpt lat="46.0653260" lon="5.6758840">
        <ele>1028.9</ele>
        <time>2022-07-25T13:28:06Z</time>
      </trkpt>
      <trkpt lat="46.0653540" lon="5.6757360">
        <ele>1027.9</ele>
        <time>2022-07-25T13:28:07Z</time>
      </trkpt>
      <trkpt lat="46.0653760" lon="5.6755930">
        <ele>1027.1</ele>
        <time>2022-07-25T13:28:08Z</time>
      </trkpt>
      <trkpt lat="46.0653940" lon="5.6754400">
        <ele>1026.2</ele>
        <time>2022-07-25T13:28:09Z</time>
      </trkpt>
      <trkpt lat="46.0654110" lon="5.6752770">
        <ele>1025.3</ele>
        <time>2022-07-25T13:28:10Z</time>
      </trkpt>
      <trkpt lat="46.0654170" lon="5.6751120">
        <ele>1024.4</ele>
        <time>2022-07-25T13:28:11Z</time>
      </trkpt>
      <trkpt lat="46.0654120" lon="5.6749460">
        <ele>1023.6</ele>
        <time>2022-07-25T13:28:12Z</time>
      </trkpt>
      <trkpt lat="46.0653940" lon="5.6747990">
        <ele>1023.0</ele>
        <time>2022-07-25T13:28:13Z</time>
      </trkpt>
      <trkpt lat="46.0653820" lon="5.6746700">
        <ele>1022.4</ele>
        <time>2022-07-25T13:28:14Z</time>
      </trkpt>
      <trkpt lat="46.0653780" lon="5.6745470">
        <ele>1022.1</ele>
        <time>2022-07-25T13:28:15Z</time>
      </trkpt>
      <trkpt lat="46.0653720" lon="5.6744210">
        <ele>1021.7</ele>
        <time>2022-07-25T13:28:16Z</time>
      </trkpt>
      <trkpt lat="46.0653680" lon="5.6742910">
        <ele>1021.3</ele>
        <time>2022-07-25T13:28:17Z</time>
      </trkpt>
      <trkpt lat="46.0653860" lon="5.6741800">
        <ele>1021.0</ele>
        <time>2022-07-25T13:28:18Z</time>
      </trkpt>
      <trkpt lat="46.0654260" lon="5.6740700">
        <ele>1020.5</ele>
        <time>2022-07-25T13:28:19Z</time>
      </trkpt>
      <trkpt lat="46.0654670" lon="5.6739650">
        <ele>1020.1</ele>
        <time>2022-07-25T13:28:20Z</time>
      </trkpt>
      <trkpt lat="46.0655090" lon="5.6738710">
        <ele>1019.6</ele>
        <time>2022-07-25T13:28:21Z</time>
      </trkpt>
      <trkpt lat="46.0655600" lon="5.6738060">
        <ele>1019.2</ele>
        <time>2022-07-25T13:28:22Z</time>
      </trkpt>
      <trkpt lat="46.0656290" lon="5.6737790">
        <ele>1018.7</ele>
        <time>2022-07-25T13:28:23Z</time>
      </trkpt>
      <trkpt lat="46.0657160" lon="5.6737650">
        <ele>1018.1</ele>
        <time>2022-07-25T13:28:24Z</time>
      </trkpt>
      <trkpt lat="46.0657900" lon="5.6737950">
        <ele>1017.6</ele>
        <time>2022-07-25T13:28:25Z</time>
      </trkpt>
      <trkpt lat="46.0658560" lon="5.6738200">
        <ele>1017.3</ele>
        <time>2022-07-25T13:28:26Z</time>
      </trkpt>
      <trkpt lat="46.0659230" lon="5.6738520">
        <ele>1016.9</ele>
        <time>2022-07-25T13:28:27Z</time>
      </trkpt>
      <trkpt lat="46.0659850" lon="5.6738860">
        <ele>1016.6</ele>
        <time>2022-07-25T13:28:28Z</time>
      </trkpt>
      <trkpt lat="46.0660540" lon="5.6739270">
        <ele>1016.3</ele>
        <time>2022-07-25T13:28:29Z</time>
      </trkpt>
      <trkpt lat="46.0661150" lon="5.6739660">
        <ele>1016.0</ele>
        <time>2022-07-25T13:28:30Z</time>
      </trkpt>
      <trkpt lat="46.0661740" lon="5.6740110">
        <ele>1015.8</ele>
        <time>2022-07-25T13:28:31Z</time>
      </trkpt>
      <trkpt lat="46.0662300" lon="5.6740550">
        <ele>1015.5</ele>
        <time>2022-07-25T13:28:32Z</time>
      </trkpt>
      <trkpt lat="46.0662910" lon="5.6741040">
        <ele>1015.2</ele>
        <time>2022-07-25T13:28:33Z</time>
      </trkpt>
      <trkpt lat="46.0663650" lon="5.6741260">
        <ele>1014.8</ele>
        <time>2022-07-25T13:28:34Z</time>
      </trkpt>
      <trkpt lat="46.0664420" lon="5.6740900">
        <ele>1014.4</ele>
        <time>2022-07-25T13:28:35Z</time>
      </trkpt>
      <trkpt lat="46.0665100" lon="5.6740210">
        <ele>1014.0</ele>
        <time>2022-07-25T13:28:36Z</time>
      </trkpt>
      <trkpt lat="46.0665640" lon="5.6739310">
        <ele>1013.6</ele>
        <time>2022-07-25T13:28:37Z</time>
      </trkpt>
      <trkpt lat="46.0666040" lon="5.6738190">
        <ele>1013.2</ele>
        <time>2022-07-25T13:28:38Z</time>
      </trkpt>
      <trkpt lat="46.0666400" lon="5.6737160">
        <ele>1012.9</ele>
        <time>2022-07-25T13:28:39Z</time>
      </trkpt>
      <trkpt lat="46.0666680" lon="5.6736250">
        <ele>1012.3</ele>
        <time>2022-07-25T13:28:40Z</time>
      </trkpt>
      <trkpt lat="46.0667070" lon="5.6735360">
        <ele>1011.7</ele>
        <time>2022-07-25T13:28:41Z</time>
      </trkpt>
      <trkpt lat="46.0667550" lon="5.6734360">
        <ele>1011.0</ele>
        <time>2022-07-25T13:28:42Z</time>
      </trkpt>
      <trkpt lat="46.0667940" lon="5.6733420">
        <ele>1010.4</ele>
        <time>2022-07-25T13:28:43Z</time>
      </trkpt>
      <trkpt lat="46.0668440" lon="5.6732560">
        <ele>1009.8</ele>
        <time>2022-07-25T13:28:44Z</time>
      </trkpt>
      <trkpt lat="46.0669030" lon="5.6731590">
        <ele>1009.0</ele>
        <time>2022-07-25T13:28:45Z</time>
      </trkpt>
      <trkpt lat="46.0669610" lon="5.6730510">
        <ele>1008.2</ele>
        <time>2022-07-25T13:28:46Z</time>
      </trkpt>
      <trkpt lat="46.0670210" lon="5.6729470">
        <ele>1007.4</ele>
        <time>2022-07-25T13:28:47Z</time>
      </trkpt>
      <trkpt lat="46.0670750" lon="5.6728630">
        <ele>1006.7</ele>
        <time>2022-07-25T13:28:48Z</time>
      </trkpt>
      <trkpt lat="46.0671340" lon="5.6727930">
        <ele>1006.0</ele>
        <time>2022-07-25T13:28:49Z</time>
      </trkpt>
      <trkpt lat="46.0672150" lon="5.6727360">
        <ele>1005.3</ele>
        <time>2022-07-25T13:28:50Z</time>
      </trkpt>
      <trkpt lat="46.0673060" lon="5.6726970">
        <ele>1004.5</ele>
        <time>2022-07-25T13:28:51Z</time>
      </trkpt>
      <trkpt lat="46.0673930" lon="5.6726670">
        <ele>1003.6</ele>
        <time>2022-07-25T13:28:52Z</time>
      </trkpt>
      <trkpt lat="46.0674720" lon="5.6726560">
        <ele>1002.8</ele>
        <time>2022-07-25T13:28:53Z</time>
      </trkpt>
      <trkpt lat="46.0675570" lon="5.6726490">
        <ele>1002.0</ele>
        <time>2022-07-25T13:28:54Z</time>
      </trkpt>
      <trkpt lat="46.0676560" lon="5.6726650">
        <ele>1001.0</ele>
        <time>2022-07-25T13:28:55Z</time>
      </trkpt>
      <trkpt lat="46.0677540" lon="5.6727030">
        <ele>1000.0</ele>
        <time>2022-07-25T13:28:56Z</time>
      </trkpt>
      <trkpt lat="46.0678520" lon="5.6727410">
        <ele>999.0</ele>
        <time>2022-07-25T13:28:57Z</time>
      </trkpt>
      <trkpt lat="46.0679480" lon="5.6727870">
        <ele>998.1</ele>
        <time>2022-07-25T13:28:58Z</time>
      </trkpt>
      <trkpt lat="46.0680460" lon="5.6728320">
        <ele>997.1</ele>
        <time>2022-07-25T13:28:59Z</time>
      </trkpt>
      <trkpt lat="46.0681430" lon="5.6728640">
        <ele>996.2</ele>
        <time>2022-07-25T13:29:00Z</time>
      </trkpt>
      <trkpt lat="46.0682400" lon="5.6728950">
        <ele>995.3</ele>
        <time>2022-07-25T13:29:01Z</time>
      </trkpt>
      <trkpt lat="46.0683450" lon="5.6729180">
        <ele>994.2</ele>
        <time>2022-07-25T13:29:02Z</time>
      </trkpt>
      <trkpt lat="46.0684560" lon="5.6729390">
        <ele>993.2</ele>
        <time>2022-07-25T13:29:03Z</time>
      </trkpt>
      <trkpt lat="46.0685820" lon="5.6729510">
        <ele>992.2</ele>
        <time>2022-07-25T13:29:04Z</time>
      </trkpt>
      <trkpt lat="46.0687040" lon="5.6729750">
        <ele>991.2</ele>
        <time>2022-07-25T13:29:05Z</time>
      </trkpt>
      <trkpt lat="46.0688180" lon="5.6730090">
        <ele>990.2</ele>
        <time>2022-07-25T13:29:06Z</time>
      </trkpt>
      <trkpt lat="46.0689200" lon="5.6730440">
        <ele>989.5</ele>
        <time>2022-07-25T13:29:07Z</time>
      </trkpt>
      <trkpt lat="46.0690160" lon="5.6730800">
        <ele>988.8</ele>
        <time>2022-07-25T13:29:08Z</time>
      </trkpt>
      <trkpt lat="46.0691030" lon="5.6731050">
        <ele>988.2</ele>
        <time>2022-07-25T13:29:09Z</time>
      </trkpt>
      <trkpt lat="46.0691870" lon="5.6731320">
        <ele>987.5</ele>
        <time>2022-07-25T13:29:10Z</time>
      </trkpt>
      <trkpt lat="46.0692690" lon="5.6731740">
        <ele>986.8</ele>
        <time>2022-07-25T13:29:11Z</time>
      </trkpt>
      <trkpt lat="46.0693470" lon="5.6732380">
        <ele>986.1</ele>
        <time>2022-07-25T13:29:12Z</time>
      </trkpt>
      <trkpt lat="46.0694220" lon="5.6733180">
        <ele>985.3</ele>
        <time>2022-07-25T13:29:13Z</time>
      </trkpt>
      <trkpt lat="46.0694960" lon="5.6734120">
        <ele>984.5</ele>
        <time>2022-07-25T13:29:14Z</time>
      </trkpt>
      <trkpt lat="46.0695760" lon="5.6734860">
        <ele>983.8</ele>
        <time>2022-07-25T13:29:15Z</time>
      </trkpt>
      <trkpt lat="46.0696580" lon="5.6735400">
        <ele>983.1</ele>
        <time>2022-07-25T13:29:16Z</time>
      </trkpt>
      <trkpt lat="46.0697390" lon="5.6735810">
        <ele>982.5</ele>
        <time>2022-07-25T13:29:17Z</time>
      </trkpt>
      <trkpt lat="46.0698170" lon="5.6736150">
        <ele>981.8</ele>
        <time>2022-07-25T13:29:18Z</time>
      </trkpt>
      <trkpt lat="46.0698920" lon="5.6736240">
        <ele>981.2</ele>
        <time>2022-07-25T13:29:19Z</time>
      </trkpt>
      <trkpt lat="46.0699630" lon="5.6736080">
        <ele>980.6</ele>
        <time>2022-07-25T13:29:20Z</time>
      </trkpt>
      <trkpt lat="46.0700310" lon="5.6735670">
        <ele>979.9</ele>
        <time>2022-07-25T13:29:21Z</time>
      </trkpt>
      <trkpt lat="46.0700870" lon="5.6735030">
        <ele>979.1</ele>
        <time>2022-07-25T13:29:22Z</time>
      </trkpt>
      <trkpt lat="46.0701320" lon="5.6734280">
        <ele>978.3</ele>
        <time>2022-07-25T13:29:23Z</time>
      </trkpt>
      <trkpt lat="46.0701710" lon="5.6733430">
        <ele>977.5</ele>
        <time>2022-07-25T13:29:24Z</time>
      </trkpt>
      <trkpt lat="46.0701970" lon="5.6732340">
        <ele>976.7</ele>
        <time>2022-07-25T13:29:25Z</time>
      </trkpt>
      <trkpt lat="46.0702090" lon="5.6731130">
        <ele>975.8</ele>
        <time>2022-07-25T13:29:26Z</time>
      </trkpt>
      <trkpt lat="46.0702140" lon="5.6729950">
        <ele>975.1</ele>
        <time>2022-07-25T13:29:27Z</time>
      </trkpt>
      <trkpt lat="46.0702120" lon="5.6728760">
        <ele>974.4</ele>
        <time>2022-07-25T13:29:28Z</time>
      </trkpt>
      <trkpt lat="46.0702150" lon="5.6727400">
        <ele>973.7</ele>
        <time>2022-07-25T13:29:29Z</time>
      </trkpt>
      <trkpt lat="46.0702160" lon="5.6726010">
        <ele>973.0</ele>
        <time>2022-07-25T13:29:30Z</time>
      </trkpt>
      <trkpt lat="46.0702150" lon="5.6724660">
        <ele>972.5</ele>
        <time>2022-07-25T13:29:31Z</time>
      </trkpt>
      <trkpt lat="46.0702110" lon="5.6723470">
        <ele>971.9</ele>
        <time>2022-07-25T13:29:32Z</time>
      </trkpt>
      <trkpt lat="46.0702060" lon="5.6722390">
        <ele>971.4</ele>
        <time>2022-07-25T13:29:33Z</time>
      </trkpt>
      <trkpt lat="46.0701880" lon="5.6721530">
        <ele>970.9</ele>
        <time>2022-07-25T13:29:34Z</time>
      </trkpt>
      <trkpt lat="46.0701470" lon="5.6720780">
        <ele>970.3</ele>
        <time>2022-07-25T13:29:35Z</time>
      </trkpt>
      <trkpt lat="46.0700850" lon="5.6720240">
        <ele>969.6</ele>
        <time>2022-07-25T13:29:36Z</time>
      </trkpt>
      <trkpt lat="46.0700130" lon="5.6719830">
        <ele>968.9</ele>
        <time>2022-07-25T13:29:37Z</time>
      </trkpt>
      <trkpt lat="46.0699450" lon="5.6719480">
        <ele>968.2</ele>
        <time>2022-07-25T13:29:38Z</time>
      </trkpt>
      <trkpt lat="46.0698770" lon="5.6719110">
        <ele>967.6</ele>
        <time>2022-07-25T13:29:39Z</time>
      </trkpt>
      <trkpt lat="46.0698070" lon="5.6718730">
        <ele>966.9</ele>
        <time>2022-07-25T13:29:40Z</time>
      </trkpt>
      <trkpt lat="46.0697270" lon="5.6718310">
        <ele>966.2</ele>
        <time>2022-07-25T13:29:41Z</time>
      </trkpt>
      <trkpt lat="46.0696470" lon="5.6717730">
        <ele>965.4</ele>
        <time>2022-07-25T13:29:42Z</time>
      </trkpt>
      <trkpt lat="46.0695670" lon="5.6717150">
        <ele>964.8</ele>
        <time>2022-07-25T13:29:43Z</time>
      </trkpt>
      <trkpt lat="46.0694880" lon="5.6716610">
        <ele>964.1</ele>
        <time>2022-07-25T13:29:44Z</time>
      </trkpt>
      <trkpt lat="46.0694030" lon="5.6716090">
        <ele>963.5</ele>
        <time>2022-07-25T13:29:45Z</time>
      </trkpt>
      <trkpt lat="46.0693100" lon="5.6715670">
        <ele>962.7</ele>
        <time>2022-07-25T13:29:46Z</time>
      </trkpt>
      <trkpt lat="46.0692120" lon="5.6715280">
        <ele>961.9</ele>
        <time>2022-07-25T13:29:47Z</time>
      </trkpt>
      <trkpt lat="46.0691140" lon="5.6714990">
        <ele>961.0</ele>
        <time>2022-07-25T13:29:48Z</time>
      </trkpt>
      <trkpt lat="46.0690300" lon="5.6714760">
        <ele>960.3</ele>
        <time>2022-07-25T13:29:49Z</time>
      </trkpt>
      <trkpt lat="46.0689480" lon="5.6714620">
        <ele>959.6</ele>
        <time>2022-07-25T13:29:50Z</time>
      </trkpt>
      <trkpt lat="46.0688630" lon="5.6714370">
        <ele>958.9</ele>
        <time>2022-07-25T13:29:51Z</time>
      </trkpt>
      <trkpt lat="46.0687800" lon="5.6713960">
        <ele>958.2</ele>
        <time>2022-07-25T13:29:52Z</time>
      </trkpt>
      <trkpt lat="46.0687130" lon="5.6713410">
        <ele>957.6</ele>
        <time>2022-07-25T13:29:53Z</time>
      </trkpt>
      <trkpt lat="46.0686430" lon="5.6712770">
        <ele>957.0</ele>
        <time>2022-07-25T13:29:54Z</time>
      </trkpt>
      <trkpt lat="46.0685760" lon="5.6711840">
        <ele>956.3</ele>
        <time>2022-07-25T13:29:55Z</time>
      </trkpt>
      <trkpt lat="46.0685230" lon="5.6710810">
        <ele>955.7</ele>
        <time>2022-07-25T13:29:56Z</time>
      </trkpt>
      <trkpt lat="46.0684820" lon="5.6709710">
        <ele>955.2</ele>
        <time>2022-07-25T13:29:57Z</time>
      </trkpt>
      <trkpt lat="46.0684660" lon="5.6708640">
        <ele>954.8</ele>
        <time>2022-07-25T13:29:58Z</time>
      </trkpt>
      <trkpt lat="46.0684590" lon="5.6707530">
        <ele>954.3</ele>
        <time>2022-07-25T13:29:59Z</time>
      </trkpt>
      <trkpt lat="46.0684670" lon="5.6706450">
        <ele>953.9</ele>
        <time>2022-07-25T13:30:00Z</time>
      </trkpt>
      <trkpt lat="46.0684890" lon="5.6705550">
        <ele>953.5</ele>
        <time>2022-07-25T13:30:01Z</time>
      </trkpt>
      <trkpt lat="46.0685110" lon="5.6704750">
        <ele>953.2</ele>
        <time>2022-07-25T13:30:02Z</time>
      </trkpt>
      <trkpt lat="46.0685350" lon="5.6704020">
        <ele>952.8</ele>
        <time>2022-07-25T13:30:03Z</time>
      </trkpt>
      <trkpt lat="46.0685640" lon="5.6703300">
        <ele>952.3</ele>
        <time>2022-07-25T13:30:04Z</time>
      </trkpt>
      <trkpt lat="46.0685840" lon="5.6702890">
        <ele>952.0</ele>
        <time>2022-07-25T13:30:05Z</time>
      </trkpt>
      <trkpt lat="46.0685890" lon="5.6702780">
        <ele>952.0</ele>
        <time>2022-07-25T13:30:06Z</time>
      </trkpt>
      <trkpt lat="46.0686030" lon="5.6702490">
        <ele>951.8</ele>
        <time>2022-07-25T13:30:07Z</time>
      </trkpt>
      <trkpt lat="46.0686230" lon="5.6702140">
        <ele>951.5</ele>
        <time>2022-07-25T13:30:08Z</time>
      </trkpt>
      <trkpt lat="46.0686290" lon="5.6702020">
        <ele>951.4</ele>
        <time>2022-07-25T13:30:09Z</time>
      </trkpt>
      <trkpt lat="46.0686350" lon="5.6701810">
        <ele>951.3</ele>
        <time>2022-07-25T13:30:10Z</time>
      </trkpt>
      <trkpt lat="46.0686360" lon="5.6701710">
        <ele>951.3</ele>
        <time>2022-07-25T13:30:11Z</time>
      </trkpt>
      <trkpt lat="46.0686370" lon="5.6701620">
        <ele>951.3</ele>
        <time>2022-07-25T13:30:12Z</time>
      </trkpt>
      <trkpt lat="46.0686380" lon="5.6701530">
        <ele>951.3</ele>
        <time>2022-07-25T13:30:13Z</time>
      </trkpt>
      <trkpt lat="46.0686390" lon="5.6701440">
        <ele>951.2</ele>
        <time>2022-07-25T13:30:14Z</time>
      </trkpt>
      <trkpt lat="46.0686180" lon="5.6701120">
        <ele>951.2</ele>
        <time>2022-07-25T13:30:15Z</time>
      </trkpt>
      <trkpt lat="46.0686080" lon="5.6701030">
        <ele>951.2</ele>
        <time>2022-07-25T13:30:16Z</time>
      </trkpt>
      <trkpt lat="46.0685790" lon="5.6700710">
        <ele>951.2</ele>
        <time>2022-07-25T13:30:17Z</time>
      </trkpt>
      <trkpt lat="46.0685710" lon="5.6700610">
        <ele>951.2</ele>
        <time>2022-07-25T13:30:18Z</time>
      </trkpt>
      <trkpt lat="46.0685430" lon="5.6700260">
        <ele>951.1</ele>
        <time>2022-07-25T13:30:19Z</time>
      </trkpt>
      <trkpt lat="46.0685320" lon="5.6700140">
        <ele>951.1</ele>
        <time>2022-07-25T13:30:20Z</time>
      </trkpt>
      <trkpt lat="46.0685020" lon="5.6699910">
        <ele>951.1</ele>
        <time>2022-07-25T13:30:21Z</time>
      </trkpt>
      <trkpt lat="46.0684910" lon="5.6699830">
        <ele>951.1</ele>
        <time>2022-07-25T13:30:22Z</time>
      </trkpt>
      <trkpt lat="46.0684640" lon="5.6699630">
        <ele>951.1</ele>
        <time>2022-07-25T13:30:23Z</time>
      </trkpt>
      <trkpt lat="46.0684310" lon="5.6699350">
        <ele>951.1</ele>
        <time>2022-07-25T13:30:24Z</time>
      </trkpt>
      <trkpt lat="46.0684190" lon="5.6699260">
        <ele>951.1</ele>
        <time>2022-07-25T13:30:25Z</time>
      </trkpt>
      <trkpt lat="46.0683870" lon="5.6698990">
        <ele>951.2</ele>
        <time>2022-07-25T13:30:26Z</time>
      </trkpt>
      <trkpt lat="46.0683770" lon="5.6698910">
        <ele>951.2</ele>
        <time>2022-07-25T13:30:27Z</time>
      </trkpt>
      <trkpt lat="46.0683490" lon="5.6698710">
        <ele>951.2</ele>
        <time>2022-07-25T13:30:28Z</time>
      </trkpt>
      <trkpt lat="46.0683410" lon="5.6698660">
        <ele>951.2</ele>
        <time>2022-07-25T13:30:29Z</time>
      </trkpt>
      <trkpt lat="46.0683240" lon="5.6698530">
        <ele>951.2</ele>
        <time>2022-07-25T13:30:30Z</time>
      </trkpt>
      <trkpt lat="46.0683200" lon="5.6698510">
        <ele>951.2</ele>
        <time>2022-07-25T13:30:31Z</time>
      </trkpt>
      <trkpt lat="46.0683160" lon="5.6698490">
        <ele>951.2</ele>
        <time>2022-07-25T13:30:32Z</time>
      </trkpt>
      <trkpt lat="46.0683120" lon="5.6698480">
        <ele>951.2</ele>
        <time>2022-07-25T13:30:33Z</time>
      </trkpt>
      <trkpt lat="46.0683080" lon="5.6698460">
        <ele>951.2</ele>
        <time>2022-07-25T13:30:34Z</time>
      </trkpt>
      <trkpt lat="46.0683040" lon="5.6698440">
        <ele>951.2</ele>
        <time>2022-07-25T13:30:35Z</time>
      </trkpt>
      <trkpt lat="46.0683000" lon="5.6698420">
        <ele>951.2</ele>
        <time>2022-07-25T13:30:36Z</time>
      </trkpt>
      <trkpt lat="46.0682960" lon="5.6698400">
        <ele>951.2</ele>
        <time>2022-07-25T13:30:37Z</time>
      </trkpt>
      <trkpt lat="46.0682920" lon="5.6698380">
        <ele>951.2</ele>
        <time>2022-07-25T13:30:38Z</time>
      </trkpt>
      <trkpt lat="46.0682890" lon="5.6698360">
        <ele>951.2</ele>
        <time>2022-07-25T13:30:39Z</time>
      </trkpt>
      <trkpt lat="46.0682850" lon="5.6698340">
        <ele>951.2</ele>
        <time>2022-07-25T13:30:40Z</time>
      </trkpt>
      <trkpt lat="46.0682810" lon="5.6698320">
        <ele>951.2</ele>
        <time>2022-07-25T13:30:41Z</time>
      </trkpt>
      <trkpt lat="46.0682770" lon="5.6698300">
        <ele>951.2</ele>
        <time>2022-07-25T13:30:42Z</time>
      </trkpt>
      <trkpt lat="46.0682730" lon="5.6698290">
        <ele>951.2</ele>
        <time>2022-07-25T13:31:23Z</time>
      </trkpt>
      <trkpt lat="46.0682690" lon="5.6698270">
        <ele>951.2</ele>
        <time>2022-07-25T13:31:24Z</time>
      </trkpt>
      <trkpt lat="46.0682650" lon="5.6698250">
        <ele>951.2</ele>
        <time>2022-07-25T13:31:25Z</time>
      </trkpt>
      <trkpt lat="46.0682340" lon="5.6698080">
        <ele>951.3</ele>
        <time>2022-07-25T13:31:26Z</time>
      </trkpt>
      <trkpt lat="46.0682000" lon="5.6697830">
        <ele>951.3</ele>
        <time>2022-07-25T13:31:27Z</time>
      </trkpt>
      <trkpt lat="46.0681630" lon="5.6697560">
        <ele>951.4</ele>
        <time>2022-07-25T13:31:28Z</time>
      </trkpt>
      <trkpt lat="46.0681310" lon="5.6697300">
        <ele>951.4</ele>
        <time>2022-07-25T13:31:29Z</time>
      </trkpt>
      <trkpt lat="46.0680990" lon="5.6697050">
        <ele>951.4</ele>
        <time>2022-07-25T13:31:30Z</time>
      </trkpt>
      <trkpt lat="46.0680600" lon="5.6696710">
        <ele>951.5</ele>
        <time>2022-07-25T13:31:31Z</time>
      </trkpt>
      <trkpt lat="46.0680280" lon="5.6696420">
        <ele>951.6</ele>
        <time>2022-07-25T13:31:32Z</time>
      </trkpt>
      <trkpt lat="46.0679920" lon="5.6696090">
        <ele>951.7</ele>
        <time>2022-07-25T13:31:33Z</time>
      </trkpt>
      <trkpt lat="46.0679600" lon="5.6695790">
        <ele>951.7</ele>
        <time>2022-07-25T13:31:34Z</time>
      </trkpt>
      <trkpt lat="46.0679230" lon="5.6695470">
        <ele>951.8</ele>
        <time>2022-07-25T13:31:35Z</time>
      </trkpt>
      <trkpt lat="46.0678910" lon="5.6695180">
        <ele>951.9</ele>
        <time>2022-07-25T13:31:36Z</time>
      </trkpt>
      <trkpt lat="46.0678590" lon="5.6694890">
        <ele>951.9</ele>
        <time>2022-07-25T13:31:37Z</time>
      </trkpt>
      <trkpt lat="46.0678310" lon="5.6694630">
        <ele>952.0</ele>
        <time>2022-07-25T13:31:38Z</time>
      </trkpt>
      <trkpt lat="46.0678030" lon="5.6694370">
        <ele>952.0</ele>
        <time>2022-07-25T13:31:39Z</time>
      </trkpt>
      <trkpt lat="46.0677650" lon="5.6694020">
        <ele>952.0</ele>
        <time>2022-07-25T13:31:40Z</time>
      </trkpt>
      <trkpt lat="46.0677480" lon="5.6693870">
        <ele>952.0</ele>
        <time>2022-07-25T13:31:41Z</time>
      </trkpt>
      <trkpt lat="46.0677230" lon="5.6693630">
        <ele>952.0</ele>
        <time>2022-07-25T13:31:42Z</time>
      </trkpt>
      <trkpt lat="46.0676900" lon="5.6693360">
        <ele>952.0</ele>
        <time>2022-07-25T13:31:43Z</time>
      </trkpt>
      <trkpt lat="46.0676580" lon="5.6693110">
        <ele>952.0</ele>
        <time>2022-07-25T13:31:44Z</time>
      </trkpt>
      <trkpt lat="46.0676220" lon="5.6692870">
        <ele>952.0</ele>
        <time>2022-07-25T13:31:45Z</time>
      </trkpt>
      <trkpt lat="46.0675900" lon="5.6692650">
        <ele>951.9</ele>
        <time>2022-07-25T13:31:46Z</time>
      </trkpt>
      <trkpt lat="46.0675580" lon="5.6692450">
        <ele>951.9</ele>
        <time>2022-07-25T13:31:47Z</time>
      </trkpt>
      <trkpt lat="46.0675260" lon="5.6692250">
        <ele>951.8</ele>
        <time>2022-07-25T13:31:48Z</time>
      </trkpt>
      <trkpt lat="46.0674960" lon="5.6692060">
        <ele>951.7</ele>
        <time>2022-07-25T13:31:49Z</time>
      </trkpt>
      <trkpt lat="46.0674700" lon="5.6691910">
        <ele>951.6</ele>
        <time>2022-07-25T13:31:50Z</time>
      </trkpt>
      <trkpt lat="46.0674310" lon="5.6691680">
        <ele>951.5</ele>
        <time>2022-07-25T13:31:51Z</time>
      </trkpt>
      <trkpt lat="46.0673950" lon="5.6691480">
        <ele>951.3</ele>
        <time>2022-07-25T13:31:52Z</time>
      </trkpt>
      <trkpt lat="46.0673520" lon="5.6691220">
        <ele>951.1</ele>
        <time>2022-07-25T13:31:53Z</time>
      </trkpt>
      <trkpt lat="46.0673070" lon="5.6691010">
        <ele>950.9</ele>
        <time>2022-07-25T13:31:54Z</time>
      </trkpt>
      <trkpt lat="46.0672610" lon="5.6690820">
        <ele>950.7</ele>
        <time>2022-07-25T13:31:55Z</time>
      </trkpt>
      <trkpt lat="46.0672140" lon="5.6690580">
        <ele>950.4</ele>
        <time>2022-07-25T13:31:56Z</time>
      </trkpt>
      <trkpt lat="46.0671660" lon="5.6690340">
        <ele>950.1</ele>
        <time>2022-07-25T13:31:57Z</time>
      </trkpt>
      <trkpt lat="46.0671110" lon="5.6690120">
        <ele>949.8</ele>
        <time>2022-07-25T13:31:58Z</time>
      </trkpt>
      <trkpt lat="46.0670590" lon="5.6689900">
        <ele>949.5</ele>
        <time>2022-07-25T13:31:59Z</time>
      </trkpt>
      <trkpt lat="46.0670040" lon="5.6689700">
        <ele>949.2</ele>
        <time>2022-07-25T13:32:00Z</time>
      </trkpt>
      <trkpt lat="46.0669480" lon="5.6689490">
        <ele>948.9</ele>
        <time>2022-07-25T13:32:01Z</time>
      </trkpt>
      <trkpt lat="46.0668850" lon="5.6689220">
        <ele>948.6</ele>
        <time>2022-07-25T13:32:02Z</time>
      </trkpt>
      <trkpt lat="46.0668230" lon="5.6688970">
        <ele>948.3</ele>
        <time>2022-07-25T13:32:03Z</time>
      </trkpt>
      <trkpt lat="46.0667520" lon="5.6688680">
        <ele>947.9</ele>
        <time>2022-07-25T13:32:04Z</time>
      </trkpt>
      <trkpt lat="46.0666770" lon="5.6688390">
        <ele>947.6</ele>
        <time>2022-07-25T13:32:05Z</time>
      </trkpt>
      <trkpt lat="46.0666090" lon="5.6688080">
        <ele>947.3</ele>
        <time>2022-07-25T13:32:06Z</time>
      </trkpt>
      <trkpt lat="46.0665410" lon="5.6687780">
        <ele>947.1</ele>
        <time>2022-07-25T13:32:07Z</time>
      </trkpt>
      <trkpt lat="46.0664760" lon="5.6687470">
        <ele>946.8</ele>
        <time>2022-07-25T13:32:08Z</time>
      </trkpt>
      <trkpt lat="46.0664110" lon="5.6687160">
        <ele>946.6</ele>
        <time>2022-07-25T13:32:09Z</time>
      </trkpt>
      <trkpt lat="46.0663440" lon="5.6686850">
        <ele>946.4</ele>
        <time>2022-07-25T13:32:10Z</time>
      </trkpt>
      <trkpt lat="46.0662810" lon="5.6686500">
        <ele>946.3</ele>
        <time>2022-07-25T13:32:11Z</time>
      </trkpt>
      <trkpt lat="46.0662180" lon="5.6686200">
        <ele>946.1</ele>
        <time>2022-07-25T13:32:12Z</time>
      </trkpt>
      <trkpt lat="46.0661530" lon="5.6685910">
        <ele>946.0</ele>
        <time>2022-07-25T13:32:13Z</time>
      </trkpt>
      <trkpt lat="46.0660920" lon="5.6685670">
        <ele>945.8</ele>
        <time>2022-07-25T13:32:14Z</time>
      </trkpt>
      <trkpt lat="46.0660430" lon="5.6685450">
        <ele>945.8</ele>
        <time>2022-07-25T13:32:15Z</time>
      </trkpt>
      <trkpt lat="46.0659870" lon="5.6685180">
        <ele>945.7</ele>
        <time>2022-07-25T13:32:16Z</time>
      </trkpt>
      <trkpt lat="46.0659250" lon="5.6684910">
        <ele>945.6</ele>
        <time>2022-07-25T13:32:17Z</time>
      </trkpt>
      <trkpt lat="46.0658600" lon="5.6684660">
        <ele>945.5</ele>
        <time>2022-07-25T13:32:18Z</time>
      </trkpt>
      <trkpt lat="46.0658010" lon="5.6684440">
        <ele>945.4</ele>
        <time>2022-07-25T13:32:19Z</time>
      </trkpt>
      <trkpt lat="46.0657460" lon="5.6684210">
        <ele>945.3</ele>
        <time>2022-07-25T13:32:20Z</time>
      </trkpt>
      <trkpt lat="46.0656890" lon="5.6684030">
        <ele>945.3</ele>
        <time>2022-07-25T13:32:21Z</time>
      </trkpt>
      <trkpt lat="46.0656370" lon="5.6683810">
        <ele>945.2</ele>
        <time>2022-07-25T13:32:22Z</time>
      </trkpt>
      <trkpt lat="46.0655830" lon="5.6683520">
        <ele>945.1</ele>
        <time>2022-07-25T13:32:23Z</time>
      </trkpt>
      <trkpt lat="46.0655210" lon="5.6683290">
        <ele>945.0</ele>
        <time>2022-07-25T13:32:24Z</time>
      </trkpt>
      <trkpt lat="46.0654610" lon="5.6683060">
        <ele>944.8</ele>
        <time>2022-07-25T13:32:25Z</time>
      </trkpt>
      <trkpt lat="46.0653970" lon="5.6682820">
        <ele>944.7</ele>
        <time>2022-07-25T13:32:26Z</time>
      </trkpt>
      <trkpt lat="46.0653410" lon="5.6682610">
        <ele>944.5</ele>
        <time>2022-07-25T13:32:27Z</time>
      </trkpt>
      <trkpt lat="46.0652890" lon="5.6682390">
        <ele>944.4</ele>
        <time>2022-07-25T13:32:28Z</time>
      </trkpt>
      <trkpt lat="46.0652360" lon="5.6682140">
        <ele>944.3</ele>
        <time>2022-07-25T13:32:29Z</time>
      </trkpt>
      <trkpt lat="46.0651800" lon="5.6681890">
        <ele>944.1</ele>
        <time>2022-07-25T13:32:30Z</time>
      </trkpt>
      <trkpt lat="46.0651230" lon="5.6681680">
        <ele>944.0</ele>
        <time>2022-07-25T13:32:31Z</time>
      </trkpt>
      <trkpt lat="46.0650740" lon="5.6681440">
        <ele>943.9</ele>
        <time>2022-07-25T13:32:32Z</time>
      </trkpt>
      <trkpt lat="46.0650180" lon="5.6681160">
        <ele>943.8</ele>
        <time>2022-07-25T13:32:33Z</time>
      </trkpt>
      <trkpt lat="46.0649630" lon="5.6680860">
        <ele>943.6</ele>
        <time>2022-07-25T13:32:34Z</time>
      </trkpt>
      <trkpt lat="46.0649060" lon="5.6680570">
        <ele>943.5</ele>
        <time>2022-07-25T13:32:35Z</time>
      </trkpt>
      <trkpt lat="46.0648480" lon="5.6680320">
        <ele>943.4</ele>
        <time>2022-07-25T13:32:36Z</time>
      </trkpt>
      <trkpt lat="46.0648030" lon="5.6680080">
        <ele>943.3</ele>
        <time>2022-07-25T13:32:37Z</time>
      </trkpt>
      <trkpt lat="46.0647550" lon="5.6679890">
        <ele>943.3</ele>
        <time>2022-07-25T13:32:38Z</time>
      </trkpt>
      <trkpt lat="46.0647010" lon="5.6679630">
        <ele>943.2</ele>
        <time>2022-07-25T13:32:39Z</time>
      </trkpt>
      <trkpt lat="46.0646450" lon="5.6679380">
        <ele>943.2</ele>
        <time>2022-07-25T13:32:40Z</time>
      </trkpt>
      <trkpt lat="46.0645930" lon="5.6679190">
        <ele>943.2</ele>
        <time>2022-07-25T13:32:41Z</time>
      </trkpt>
      <trkpt lat="46.0645390" lon="5.6678950">
        <ele>943.2</ele>
        <time>2022-07-25T13:32:42Z</time>
      </trkpt>
      <trkpt lat="46.0644870" lon="5.6678640">
        <ele>943.2</ele>
        <time>2022-07-25T13:32:43Z</time>
      </trkpt>
      <trkpt lat="46.0644320" lon="5.6678450">
        <ele>943.2</ele>
        <time>2022-07-25T13:32:44Z</time>
      </trkpt>
      <trkpt lat="46.0643800" lon="5.6678260">
        <ele>943.2</ele>
        <time>2022-07-25T13:32:45Z</time>
      </trkpt>
      <trkpt lat="46.0643250" lon="5.6677890">
        <ele>943.2</ele>
        <time>2022-07-25T13:32:46Z</time>
      </trkpt>
      <trkpt lat="46.0642790" lon="5.6677520">
        <ele>943.2</ele>
        <time>2022-07-25T13:32:47Z</time>
      </trkpt>
      <trkpt lat="46.0642500" lon="5.6677300">
        <ele>943.2</ele>
        <time>2022-07-25T13:32:48Z</time>
      </trkpt>
      <trkpt lat="46.0642120" lon="5.6677050">
        <ele>943.2</ele>
        <time>2022-07-25T13:32:49Z</time>
      </trkpt>
      <trkpt lat="46.0641680" lon="5.6676810">
        <ele>943.2</ele>
        <time>2022-07-25T13:32:50Z</time>
      </trkpt>
      <trkpt lat="46.0641250" lon="5.6676440">
        <ele>943.3</ele>
        <time>2022-07-25T13:32:51Z</time>
      </trkpt>
      <trkpt lat="46.0640890" lon="5.6676220">
        <ele>943.4</ele>
        <time>2022-07-25T13:32:52Z</time>
      </trkpt>
      <trkpt lat="46.0640560" lon="5.6676200">
        <ele>943.4</ele>
        <time>2022-07-25T13:32:53Z</time>
      </trkpt>
      <trkpt lat="46.0640200" lon="5.6675880">
        <ele>943.5</ele>
        <time>2022-07-25T13:32:54Z</time>
      </trkpt>
      <trkpt lat="46.0639800" lon="5.6675620">
        <ele>943.6</ele>
        <time>2022-07-25T13:32:55Z</time>
      </trkpt>
      <trkpt lat="46.0639390" lon="5.6675310">
        <ele>943.7</ele>
        <time>2022-07-25T13:32:56Z</time>
      </trkpt>
      <trkpt lat="46.0639070" lon="5.6675050">
        <ele>943.7</ele>
        <time>2022-07-25T13:32:57Z</time>
      </trkpt>
      <trkpt lat="46.0638740" lon="5.6674820">
        <ele>943.8</ele>
        <time>2022-07-25T13:32:58Z</time>
      </trkpt>
      <trkpt lat="46.0638800" lon="5.6675040">
        <ele>943.8</ele>
        <time>2022-07-25T13:33:00Z</time>
      </trkpt>
      <trkpt lat="46.0638460" lon="5.6674830">
        <ele>943.9</ele>
        <time>2022-07-25T13:33:01Z</time>
      </trkpt>
      <trkpt lat="46.0638070" lon="5.6674540">
        <ele>944.0</ele>
        <time>2022-07-25T13:33:02Z</time>
      </trkpt>
      <trkpt lat="46.0637520" lon="5.6674030">
        <ele>944.2</ele>
        <time>2022-07-25T13:33:03Z</time>
      </trkpt>
      <trkpt lat="46.0636770" lon="5.6673250">
        <ele>944.6</ele>
        <time>2022-07-25T13:33:04Z</time>
      </trkpt>
      <trkpt lat="46.0636360" lon="5.6672940">
        <ele>944.7</ele>
        <time>2022-07-25T13:33:05Z</time>
      </trkpt>
      <trkpt lat="46.0636090" lon="5.6672780">
        <ele>944.8</ele>
        <time>2022-07-25T13:33:06Z</time>
      </trkpt>
      <trkpt lat="46.0635950" lon="5.6673160">
        <ele>944.9</ele>
        <time>2022-07-25T13:33:07Z</time>
      </trkpt>
      <trkpt lat="46.0635680" lon="5.6672760">
        <ele>945.1</ele>
        <time>2022-07-25T13:33:08Z</time>
      </trkpt>
      <trkpt lat="46.0635510" lon="5.6672250">
        <ele>944.9</ele>
        <time>2022-07-25T13:33:09Z</time>
      </trkpt>
      <trkpt lat="46.0635480" lon="5.6671770">
        <ele>945.5</ele>
        <time>2022-07-25T13:33:10Z</time>
      </trkpt>
      <trkpt lat="46.0635590" lon="5.6671260">
        <ele>946.2</ele>
        <time>2022-07-25T13:33:11Z</time>
      </trkpt>
      <trkpt lat="46.0635730" lon="5.6670930">
        <ele>946.8</ele>
        <time>2022-07-25T13:33:12Z</time>
      </trkpt>
      <trkpt lat="46.0636300" lon="5.6670230">
        <ele>946.3</ele>
        <time>2022-07-25T13:33:14Z</time>
      </trkpt>
      <trkpt lat="46.0636630" lon="5.6670080">
        <ele>946.2</ele>
        <time>2022-07-25T13:33:15Z</time>
      </trkpt>
      <trkpt lat="46.0636960" lon="5.6670000">
        <ele>946.0</ele>
        <time>2022-07-25T13:33:16Z</time>
      </trkpt>
      <trkpt lat="46.0637310" lon="5.6669920">
        <ele>945.9</ele>
        <time>2022-07-25T13:33:17Z</time>
      </trkpt>
      <trkpt lat="46.0637720" lon="5.6669820">
        <ele>945.8</ele>
        <time>2022-07-25T13:33:18Z</time>
      </trkpt>
      <trkpt lat="46.0638190" lon="5.6669710">
        <ele>945.6</ele>
        <time>2022-07-25T13:33:19Z</time>
      </trkpt>
      <trkpt lat="46.0638640" lon="5.6669650">
        <ele>945.4</ele>
        <time>2022-07-25T13:33:20Z</time>
      </trkpt>
      <trkpt lat="46.0639080" lon="5.6669610">
        <ele>945.3</ele>
        <time>2022-07-25T13:33:21Z</time>
      </trkpt>
      <trkpt lat="46.0639890" lon="5.6669400">
        <ele>944.9</ele>
        <time>2022-07-25T13:33:22Z</time>
      </trkpt>
      <trkpt lat="46.0640480" lon="5.6669260">
        <ele>944.7</ele>
        <time>2022-07-25T13:33:23Z</time>
      </trkpt>
      <trkpt lat="46.0641070" lon="5.6669150">
        <ele>944.5</ele>
        <time>2022-07-25T13:33:24Z</time>
      </trkpt>
      <trkpt lat="46.0641640" lon="5.6669090">
        <ele>944.3</ele>
        <time>2022-07-25T13:33:25Z</time>
      </trkpt>
      <trkpt lat="46.0642210" lon="5.6668960">
        <ele>944.1</ele>
        <time>2022-07-25T13:33:26Z</time>
      </trkpt>
      <trkpt lat="46.0642780" lon="5.6668760">
        <ele>943.9</ele>
        <time>2022-07-25T13:33:27Z</time>
      </trkpt>
      <trkpt lat="46.0643360" lon="5.6668610">
        <ele>943.6</ele>
        <time>2022-07-25T13:33:28Z</time>
      </trkpt>
      <trkpt lat="46.0643930" lon="5.6668410">
        <ele>943.4</ele>
        <time>2022-07-25T13:33:29Z</time>
      </trkpt>
      <trkpt lat="46.0644550" lon="5.6668230">
        <ele>943.1</ele>
        <time>2022-07-25T13:33:30Z</time>
      </trkpt>
      <trkpt lat="46.0645160" lon="5.6667970">
        <ele>942.8</ele>
        <time>2022-07-25T13:33:31Z</time>
      </trkpt>
      <trkpt lat="46.0645800" lon="5.6667730">
        <ele>942.5</ele>
        <time>2022-07-25T13:33:32Z</time>
      </trkpt>
      <trkpt lat="46.0646470" lon="5.6667470">
        <ele>942.2</ele>
        <time>2022-07-25T13:33:33Z</time>
      </trkpt>
      <trkpt lat="46.0647170" lon="5.6667170">
        <ele>941.9</ele>
        <time>2022-07-25T13:33:34Z</time>
      </trkpt>
      <trkpt lat="46.0647840" lon="5.6666890">
        <ele>941.6</ele>
        <time>2022-07-25T13:33:35Z</time>
      </trkpt>
      <trkpt lat="46.0648520" lon="5.6666580">
        <ele>941.4</ele>
        <time>2022-07-25T13:33:36Z</time>
      </trkpt>
      <trkpt lat="46.0649200" lon="5.6666290">
        <ele>941.2</ele>
        <time>2022-07-25T13:33:37Z</time>
      </trkpt>
      <trkpt lat="46.0649910" lon="5.6666000">
        <ele>940.9</ele>
        <time>2022-07-25T13:33:38Z</time>
      </trkpt>
      <trkpt lat="46.0650630" lon="5.6665720">
        <ele>940.7</ele>
        <time>2022-07-25T13:33:39Z</time>
      </trkpt>
      <trkpt lat="46.0651360" lon="5.6665380">
        <ele>940.5</ele>
        <time>2022-07-25T13:33:40Z</time>
      </trkpt>
      <trkpt lat="46.0652100" lon="5.6665090">
        <ele>940.3</ele>
        <time>2022-07-25T13:33:41Z</time>
      </trkpt>
      <trkpt lat="46.0652800" lon="5.6664810">
        <ele>940.1</ele>
        <time>2022-07-25T13:33:42Z</time>
      </trkpt>
      <trkpt lat="46.0653500" lon="5.6664550">
        <ele>939.9</ele>
        <time>2022-07-25T13:33:43Z</time>
      </trkpt>
      <trkpt lat="46.0654200" lon="5.6664280">
        <ele>939.7</ele>
        <time>2022-07-25T13:33:44Z</time>
      </trkpt>
      <trkpt lat="46.0654870" lon="5.6664060">
        <ele>939.5</ele>
        <time>2022-07-25T13:33:45Z</time>
      </trkpt>
      <trkpt lat="46.0655540" lon="5.6663850">
        <ele>939.4</ele>
        <time>2022-07-25T13:33:46Z</time>
      </trkpt>
      <trkpt lat="46.0656250" lon="5.6663590">
        <ele>939.2</ele>
        <time>2022-07-25T13:33:47Z</time>
      </trkpt>
      <trkpt lat="46.0656950" lon="5.6663360">
        <ele>939.1</ele>
        <time>2022-07-25T13:33:48Z</time>
      </trkpt>
      <trkpt lat="46.0657670" lon="5.6663140">
        <ele>939.0</ele>
        <time>2022-07-25T13:33:49Z</time>
      </trkpt>
      <trkpt lat="46.0658390" lon="5.6662960">
        <ele>938.9</ele>
        <time>2022-07-25T13:33:50Z</time>
      </trkpt>
      <trkpt lat="46.0659060" lon="5.6662840">
        <ele>938.8</ele>
        <time>2022-07-25T13:33:51Z</time>
      </trkpt>
      <trkpt lat="46.0659750" lon="5.6662740">
        <ele>938.7</ele>
        <time>2022-07-25T13:33:52Z</time>
      </trkpt>
      <trkpt lat="46.0660430" lon="5.6662580">
        <ele>938.6</ele>
        <time>2022-07-25T13:33:53Z</time>
      </trkpt>
      <trkpt lat="46.0661110" lon="5.6662420">
        <ele>938.5</ele>
        <time>2022-07-25T13:33:54Z</time>
      </trkpt>
      <trkpt lat="46.0661800" lon="5.6662320">
        <ele>938.4</ele>
        <time>2022-07-25T13:33:55Z</time>
      </trkpt>
      <trkpt lat="46.0662470" lon="5.6662220">
        <ele>938.3</ele>
        <time>2022-07-25T13:33:56Z</time>
      </trkpt>
      <trkpt lat="46.0663140" lon="5.6662150">
        <ele>938.1</ele>
        <time>2022-07-25T13:33:57Z</time>
      </trkpt>
      <trkpt lat="46.0663820" lon="5.6662050">
        <ele>938.0</ele>
        <time>2022-07-25T13:33:58Z</time>
      </trkpt>
      <trkpt lat="46.0664490" lon="5.6661980">
        <ele>937.9</ele>
        <time>2022-07-25T13:33:59Z</time>
      </trkpt>
      <trkpt lat="46.0665150" lon="5.6661890">
        <ele>937.7</ele>
        <time>2022-07-25T13:34:00Z</time>
      </trkpt>
      <trkpt lat="46.0665790" lon="5.6661870">
        <ele>937.5</ele>
        <time>2022-07-25T13:34:01Z</time>
      </trkpt>
      <trkpt lat="46.0666460" lon="5.6661890">
        <ele>937.4</ele>
        <time>2022-07-25T13:34:02Z</time>
      </trkpt>
      <trkpt lat="46.0667090" lon="5.6661880">
        <ele>937.3</ele>
        <time>2022-07-25T13:34:03Z</time>
      </trkpt>
      <trkpt lat="46.0667700" lon="5.6661850">
        <ele>937.1</ele>
        <time>2022-07-25T13:34:04Z</time>
      </trkpt>
      <trkpt lat="46.0668360" lon="5.6661870">
        <ele>937.0</ele>
        <time>2022-07-25T13:34:05Z</time>
      </trkpt>
      <trkpt lat="46.0669060" lon="5.6661890">
        <ele>936.8</ele>
        <time>2022-07-25T13:34:06Z</time>
      </trkpt>
      <trkpt lat="46.0669720" lon="5.6661860">
        <ele>936.7</ele>
        <time>2022-07-25T13:34:07Z</time>
      </trkpt>
      <trkpt lat="46.0670370" lon="5.6661850">
        <ele>936.5</ele>
        <time>2022-07-25T13:34:08Z</time>
      </trkpt>
      <trkpt lat="46.0671020" lon="5.6661880">
        <ele>936.3</ele>
        <time>2022-07-25T13:34:09Z</time>
      </trkpt>
      <trkpt lat="46.0671670" lon="5.6661880">
        <ele>936.1</ele>
        <time>2022-07-25T13:34:10Z</time>
      </trkpt>
      <trkpt lat="46.0672320" lon="5.6661920">
        <ele>936.0</ele>
        <time>2022-07-25T13:34:11Z</time>
      </trkpt>
      <trkpt lat="46.0672960" lon="5.6661980">
        <ele>935.9</ele>
        <time>2022-07-25T13:34:12Z</time>
      </trkpt>
      <trkpt lat="46.0673570" lon="5.6662020">
        <ele>935.7</ele>
        <time>2022-07-25T13:34:13Z</time>
      </trkpt>
      <trkpt lat="46.0674240" lon="5.6662080">
        <ele>935.6</ele>
        <time>2022-07-25T13:34:14Z</time>
      </trkpt>
      <trkpt lat="46.0674930" lon="5.6662190">
        <ele>935.5</ele>
        <time>2022-07-25T13:34:15Z</time>
      </trkpt>
      <trkpt lat="46.0675530" lon="5.6662130">
        <ele>935.3</ele>
        <time>2022-07-25T13:34:16Z</time>
      </trkpt>
      <trkpt lat="46.0676190" lon="5.6662030">
        <ele>935.1</ele>
        <time>2022-07-25T13:34:17Z</time>
      </trkpt>
      <trkpt lat="46.0676840" lon="5.6661940">
        <ele>934.9</ele>
        <time>2022-07-25T13:34:18Z</time>
      </trkpt>
      <trkpt lat="46.0677500" lon="5.6661810">
        <ele>934.7</ele>
        <time>2022-07-25T13:34:19Z</time>
      </trkpt>
      <trkpt lat="46.0678180" lon="5.6661590">
        <ele>934.4</ele>
        <time>2022-07-25T13:34:20Z</time>
      </trkpt>
      <trkpt lat="46.0678870" lon="5.6661370">
        <ele>934.2</ele>
        <time>2022-07-25T13:34:21Z</time>
      </trkpt>
      <trkpt lat="46.0679650" lon="5.6661160">
        <ele>934.0</ele>
        <time>2022-07-25T13:34:22Z</time>
      </trkpt>
      <trkpt lat="46.0680400" lon="5.6660890">
        <ele>933.9</ele>
        <time>2022-07-25T13:34:23Z</time>
      </trkpt>
      <trkpt lat="46.0681070" lon="5.6660660">
        <ele>933.8</ele>
        <time>2022-07-25T13:34:24Z</time>
      </trkpt>
      <trkpt lat="46.0681730" lon="5.6660400">
        <ele>933.7</ele>
        <time>2022-07-25T13:34:25Z</time>
      </trkpt>
      <trkpt lat="46.0682380" lon="5.6660180">
        <ele>933.7</ele>
        <time>2022-07-25T13:34:26Z</time>
      </trkpt>
      <trkpt lat="46.0683070" lon="5.6660000">
        <ele>933.6</ele>
        <time>2022-07-25T13:34:27Z</time>
      </trkpt>
      <trkpt lat="46.0683720" lon="5.6659710">
        <ele>933.5</ele>
        <time>2022-07-25T13:34:28Z</time>
      </trkpt>
      <trkpt lat="46.0684360" lon="5.6659420">
        <ele>933.4</ele>
        <time>2022-07-25T13:34:29Z</time>
      </trkpt>
      <trkpt lat="46.0684990" lon="5.6659110">
        <ele>933.3</ele>
        <time>2022-07-25T13:34:30Z</time>
      </trkpt>
      <trkpt lat="46.0685640" lon="5.6658760">
        <ele>933.2</ele>
        <time>2022-07-25T13:34:31Z</time>
      </trkpt>
      <trkpt lat="46.0686290" lon="5.6658350">
        <ele>933.1</ele>
        <time>2022-07-25T13:34:32Z</time>
      </trkpt>
      <trkpt lat="46.0686890" lon="5.6657850">
        <ele>933.0</ele>
        <time>2022-07-25T13:34:33Z</time>
      </trkpt>
      <trkpt lat="46.0687440" lon="5.6657280">
        <ele>932.9</ele>
        <time>2022-07-25T13:34:34Z</time>
      </trkpt>
      <trkpt lat="46.0687980" lon="5.6656670">
        <ele>932.8</ele>
        <time>2022-07-25T13:34:35Z</time>
      </trkpt>
      <trkpt lat="46.0688500" lon="5.6655960">
        <ele>932.7</ele>
        <time>2022-07-25T13:34:36Z</time>
      </trkpt>
      <trkpt lat="46.0688980" lon="5.6655220">
        <ele>932.6</ele>
        <time>2022-07-25T13:34:37Z</time>
      </trkpt>
      <trkpt lat="46.0689430" lon="5.6654450">
        <ele>932.5</ele>
        <time>2022-07-25T13:34:38Z</time>
      </trkpt>
      <trkpt lat="46.0689840" lon="5.6653730">
        <ele>932.5</ele>
        <time>2022-07-25T13:34:39Z</time>
      </trkpt>
      <trkpt lat="46.0690280" lon="5.6652970">
        <ele>932.6</ele>
        <time>2022-07-25T13:34:40Z</time>
      </trkpt>
      <trkpt lat="46.0690680" lon="5.6652260">
        <ele>932.6</ele>
        <time>2022-07-25T13:34:41Z</time>
      </trkpt>
      <trkpt lat="46.0691030" lon="5.6651520">
        <ele>932.8</ele>
        <time>2022-07-25T13:34:42Z</time>
      </trkpt>
      <trkpt lat="46.0691380" lon="5.6650850">
        <ele>932.9</ele>
        <time>2022-07-25T13:34:43Z</time>
      </trkpt>
      <trkpt lat="46.0691740" lon="5.6650280">
        <ele>933.0</ele>
        <time>2022-07-25T13:34:44Z</time>
      </trkpt>
      <trkpt lat="46.0692110" lon="5.6649660">
        <ele>933.2</ele>
        <time>2022-07-25T13:34:45Z</time>
      </trkpt>
      <trkpt lat="46.0692490" lon="5.6649050">
        <ele>933.4</ele>
        <time>2022-07-25T13:34:46Z</time>
      </trkpt>
      <trkpt lat="46.0692810" lon="5.6648520">
        <ele>933.6</ele>
        <time>2022-07-25T13:34:47Z</time>
      </trkpt>
      <trkpt lat="46.0693040" lon="5.6648080">
        <ele>933.8</ele>
        <time>2022-07-25T13:34:48Z</time>
      </trkpt>
      <trkpt lat="46.0693320" lon="5.6647540">
        <ele>934.0</ele>
        <time>2022-07-25T13:34:49Z</time>
      </trkpt>
      <trkpt lat="46.0693480" lon="5.6647200">
        <ele>934.1</ele>
        <time>2022-07-25T13:34:50Z</time>
      </trkpt>
      <trkpt lat="46.0693700" lon="5.6646820">
        <ele>934.3</ele>
        <time>2022-07-25T13:34:51Z</time>
      </trkpt>
      <trkpt lat="46.0694040" lon="5.6646420">
        <ele>934.5</ele>
        <time>2022-07-25T13:34:52Z</time>
      </trkpt>
      <trkpt lat="46.0694380" lon="5.6646010">
        <ele>934.7</ele>
        <time>2022-07-25T13:34:53Z</time>
      </trkpt>
      <trkpt lat="46.0694650" lon="5.6645600">
        <ele>934.9</ele>
        <time>2022-07-25T13:34:54Z</time>
      </trkpt>
      <trkpt lat="46.0694940" lon="5.6645290">
        <ele>935.0</ele>
        <time>2022-07-25T13:34:55Z</time>
      </trkpt>
      <trkpt lat="46.0695200" lon="5.6644700">
        <ele>935.2</ele>
        <time>2022-07-25T13:34:57Z</time>
      </trkpt>
      <trkpt lat="46.0695500" lon="5.6644300">
        <ele>935.4</ele>
        <time>2022-07-25T13:34:58Z</time>
      </trkpt>
      <trkpt lat="46.0695880" lon="5.6643930">
        <ele>935.5</ele>
        <time>2022-07-25T13:34:59Z</time>
      </trkpt>
      <trkpt lat="46.0696250" lon="5.6643560">
        <ele>935.7</ele>
        <time>2022-07-25T13:35:00Z</time>
      </trkpt>
      <trkpt lat="46.0696730" lon="5.6643270">
        <ele>935.8</ele>
        <time>2022-07-25T13:35:01Z</time>
      </trkpt>
      <trkpt lat="46.0697090" lon="5.6643060">
        <ele>935.9</ele>
        <time>2022-07-25T13:35:02Z</time>
      </trkpt>
      <trkpt lat="46.0697450" lon="5.6642860">
        <ele>936.0</ele>
        <time>2022-07-25T13:35:03Z</time>
      </trkpt>
      <trkpt lat="46.0697810" lon="5.6642690">
        <ele>936.1</ele>
        <time>2022-07-25T13:35:04Z</time>
      </trkpt>
      <trkpt lat="46.0698140" lon="5.6642550">
        <ele>936.1</ele>
        <time>2022-07-25T13:35:05Z</time>
      </trkpt>
      <trkpt lat="46.0698430" lon="5.6642430">
        <ele>936.1</ele>
        <time>2022-07-25T13:35:06Z</time>
      </trkpt>
      <trkpt lat="46.0698720" lon="5.6642300">
        <ele>936.1</ele>
        <time>2022-07-25T13:35:07Z</time>
      </trkpt>
      <trkpt lat="46.0699020" lon="5.6642210">
        <ele>936.1</ele>
        <time>2022-07-25T13:35:08Z</time>
      </trkpt>
      <trkpt lat="46.0699340" lon="5.6642120">
        <ele>936.1</ele>
        <time>2022-07-25T13:35:09Z</time>
      </trkpt>
      <trkpt lat="46.0699660" lon="5.6642040">
        <ele>936.1</ele>
        <time>2022-07-25T13:35:10Z</time>
      </trkpt>
      <trkpt lat="46.0700120" lon="5.6641900">
        <ele>936.0</ele>
        <time>2022-07-25T13:35:12Z</time>
      </trkpt>
      <trkpt lat="46.0700630" lon="5.6641710">
        <ele>936.0</ele>
        <time>2022-07-25T13:35:13Z</time>
      </trkpt>
      <trkpt lat="46.0700960" lon="5.6641570">
        <ele>936.0</ele>
        <time>2022-07-25T13:35:14Z</time>
      </trkpt>
      <trkpt lat="46.0701300" lon="5.6641370">
        <ele>936.0</ele>
        <time>2022-07-25T13:35:15Z</time>
      </trkpt>
      <trkpt lat="46.0701630" lon="5.6641170">
        <ele>936.0</ele>
        <time>2022-07-25T13:35:16Z</time>
      </trkpt>
      <trkpt lat="46.0701950" lon="5.6640940">
        <ele>936.0</ele>
        <time>2022-07-25T13:35:17Z</time>
      </trkpt>
      <trkpt lat="46.0702590" lon="5.6640520">
        <ele>936.0</ele>
        <time>2022-07-25T13:35:19Z</time>
      </trkpt>
      <trkpt lat="46.0703080" lon="5.6640210">
        <ele>935.9</ele>
        <time>2022-07-25T13:35:20Z</time>
      </trkpt>
      <trkpt lat="46.0703480" lon="5.6640010">
        <ele>935.9</ele>
        <time>2022-07-25T13:35:21Z</time>
      </trkpt>
      <trkpt lat="46.0703850" lon="5.6639810">
        <ele>935.9</ele>
        <time>2022-07-25T13:35:22Z</time>
      </trkpt>
      <trkpt lat="46.0704240" lon="5.6639630">
        <ele>935.8</ele>
        <time>2022-07-25T13:35:23Z</time>
      </trkpt>
      <trkpt lat="46.0704640" lon="5.6639410">
        <ele>935.8</ele>
        <time>2022-07-25T13:35:24Z</time>
      </trkpt>
      <trkpt lat="46.0705070" lon="5.6639180">
        <ele>935.7</ele>
        <time>2022-07-25T13:35:25Z</time>
      </trkpt>
      <trkpt lat="46.0705490" lon="5.6638940">
        <ele>935.7</ele>
        <time>2022-07-25T13:35:26Z</time>
      </trkpt>
      <trkpt lat="46.0705850" lon="5.6638710">
        <ele>935.6</ele>
        <time>2022-07-25T13:35:27Z</time>
      </trkpt>
      <trkpt lat="46.0706250" lon="5.6638450">
        <ele>935.6</ele>
        <time>2022-07-25T13:35:28Z</time>
      </trkpt>
      <trkpt lat="46.0706780" lon="5.6638170">
        <ele>935.5</ele>
        <time>2022-07-25T13:35:29Z</time>
      </trkpt>
      <trkpt lat="46.0707230" lon="5.6637930">
        <ele>935.5</ele>
        <time>2022-07-25T13:35:30Z</time>
      </trkpt>
      <trkpt lat="46.0707960" lon="5.6637880">
        <ele>935.4</ele>
        <time>2022-07-25T13:35:32Z</time>
      </trkpt>
      <trkpt lat="46.0708380" lon="5.6637630">
        <ele>935.4</ele>
        <time>2022-07-25T13:35:33Z</time>
      </trkpt>
      <trkpt lat="46.0709010" lon="5.6637020">
        <ele>935.3</ele>
        <time>2022-07-25T13:35:35Z</time>
      </trkpt>
      <trkpt lat="46.0709510" lon="5.6636560">
        <ele>935.3</ele>
        <time>2022-07-25T13:35:36Z</time>
      </trkpt>
      <trkpt lat="46.0709910" lon="5.6636270">
        <ele>935.2</ele>
        <time>2022-07-25T13:35:37Z</time>
      </trkpt>
      <trkpt lat="46.0710280" lon="5.6635960">
        <ele>935.2</ele>
        <time>2022-07-25T13:35:38Z</time>
      </trkpt>
      <trkpt lat="46.0710680" lon="5.6635660">
        <ele>935.1</ele>
        <time>2022-07-25T13:35:39Z</time>
      </trkpt>
      <trkpt lat="46.0711090" lon="5.6635370">
        <ele>935.0</ele>
        <time>2022-07-25T13:35:40Z</time>
      </trkpt>
      <trkpt lat="46.0711510" lon="5.6635150">
        <ele>935.0</ele>
        <time>2022-07-25T13:35:41Z</time>
      </trkpt>
      <trkpt lat="46.0712100" lon="5.6634820">
        <ele>934.9</ele>
        <time>2022-07-25T13:35:43Z</time>
      </trkpt>
      <trkpt lat="46.0712640" lon="5.6634560">
        <ele>934.8</ele>
        <time>2022-07-25T13:35:44Z</time>
      </trkpt>
      <trkpt lat="46.0713100" lon="5.6634390">
        <ele>934.8</ele>
        <time>2022-07-25T13:35:45Z</time>
      </trkpt>
      <trkpt lat="46.0713530" lon="5.6634170">
        <ele>934.7</ele>
        <time>2022-07-25T13:35:46Z</time>
      </trkpt>
      <trkpt lat="46.0714000" lon="5.6633990">
        <ele>934.7</ele>
        <time>2022-07-25T13:35:47Z</time>
      </trkpt>
      <trkpt lat="46.0714380" lon="5.6633820">
        <ele>934.6</ele>
        <time>2022-07-25T13:35:48Z</time>
      </trkpt>
      <trkpt lat="46.0714710" lon="5.6633580">
        <ele>934.6</ele>
        <time>2022-07-25T13:35:49Z</time>
      </trkpt>
      <trkpt lat="46.0715210" lon="5.6633280">
        <ele>934.6</ele>
        <time>2022-07-25T13:35:50Z</time>
      </trkpt>
      <trkpt lat="46.0715730" lon="5.6632950">
        <ele>934.5</ele>
        <time>2022-07-25T13:35:51Z</time>
      </trkpt>
      <trkpt lat="46.0716230" lon="5.6632630">
        <ele>934.5</ele>
        <time>2022-07-25T13:35:52Z</time>
      </trkpt>
      <trkpt lat="46.0716710" lon="5.6632360">
        <ele>934.5</ele>
        <time>2022-07-25T13:35:53Z</time>
      </trkpt>
      <trkpt lat="46.0717110" lon="5.6631860">
        <ele>934.4</ele>
        <time>2022-07-25T13:35:54Z</time>
      </trkpt>
      <trkpt lat="46.0717760" lon="5.6631270">
        <ele>934.4</ele>
        <time>2022-07-25T13:35:56Z</time>
      </trkpt>
      <trkpt lat="46.0718180" lon="5.6631020">
        <ele>934.3</ele>
        <time>2022-07-25T13:35:57Z</time>
      </trkpt>
      <trkpt lat="46.0718590" lon="5.6630790">
        <ele>934.3</ele>
        <time>2022-07-25T13:35:58Z</time>
      </trkpt>
      <trkpt lat="46.0718980" lon="5.6630460">
        <ele>934.3</ele>
        <time>2022-07-25T13:35:59Z</time>
      </trkpt>
      <trkpt lat="46.0719340" lon="5.6630110">
        <ele>934.2</ele>
        <time>2022-07-25T13:36:00Z</time>
      </trkpt>
      <trkpt lat="46.0719730" lon="5.6629740">
        <ele>934.2</ele>
        <time>2022-07-25T13:36:01Z</time>
      </trkpt>
      <trkpt lat="46.0720150" lon="5.6629300">
        <ele>934.1</ele>
        <time>2022-07-25T13:36:02Z</time>
      </trkpt>
      <trkpt lat="46.0720550" lon="5.6628790">
        <ele>934.1</ele>
        <time>2022-07-25T13:36:03Z</time>
      </trkpt>
      <trkpt lat="46.0721030" lon="5.6628250">
        <ele>934.0</ele>
        <time>2022-07-25T13:36:04Z</time>
      </trkpt>
      <trkpt lat="46.0721460" lon="5.6627740">
        <ele>934.0</ele>
        <time>2022-07-25T13:36:05Z</time>
      </trkpt>
      <trkpt lat="46.0721850" lon="5.6627260">
        <ele>933.9</ele>
        <time>2022-07-25T13:36:06Z</time>
      </trkpt>
      <trkpt lat="46.0722190" lon="5.6626740">
        <ele>933.9</ele>
        <time>2022-07-25T13:36:07Z</time>
      </trkpt>
      <trkpt lat="46.0722550" lon="5.6626180">
        <ele>933.9</ele>
        <time>2022-07-25T13:36:08Z</time>
      </trkpt>
      <trkpt lat="46.0722840" lon="5.6625630">
        <ele>933.9</ele>
        <time>2022-07-25T13:36:09Z</time>
      </trkpt>
      <trkpt lat="46.0723110" lon="5.6625050">
        <ele>933.8</ele>
        <time>2022-07-25T13:36:10Z</time>
      </trkpt>
      <trkpt lat="46.0723420" lon="5.6624480">
        <ele>933.7</ele>
        <time>2022-07-25T13:36:11Z</time>
      </trkpt>
      <trkpt lat="46.0723740" lon="5.6623950">
        <ele>933.6</ele>
        <time>2022-07-25T13:36:12Z</time>
      </trkpt>
      <trkpt lat="46.0724060" lon="5.6623360">
        <ele>933.5</ele>
        <time>2022-07-25T13:36:13Z</time>
      </trkpt>
      <trkpt lat="46.0724400" lon="5.6622770">
        <ele>933.4</ele>
        <time>2022-07-25T13:36:14Z</time>
      </trkpt>
      <trkpt lat="46.0724790" lon="5.6622310">
        <ele>933.3</ele>
        <time>2022-07-25T13:36:15Z</time>
      </trkpt>
      <trkpt lat="46.0725150" lon="5.6621840">
        <ele>933.2</ele>
        <time>2022-07-25T13:36:16Z</time>
      </trkpt>
      <trkpt lat="46.0725470" lon="5.6621430">
        <ele>933.1</ele>
        <time>2022-07-25T13:36:17Z</time>
      </trkpt>
      <trkpt lat="46.0725810" lon="5.6620950">
        <ele>933.0</ele>
        <time>2022-07-25T13:36:18Z</time>
      </trkpt>
      <trkpt lat="46.0726060" lon="5.6620720">
        <ele>933.0</ele>
        <time>2022-07-25T13:36:19Z</time>
      </trkpt>
      <trkpt lat="46.0726410" lon="5.6620130">
        <ele>932.9</ele>
        <time>2022-07-25T13:36:20Z</time>
      </trkpt>
      <trkpt lat="46.0726670" lon="5.6619580">
        <ele>932.8</ele>
        <time>2022-07-25T13:36:21Z</time>
      </trkpt>
      <trkpt lat="46.0726890" lon="5.6619100">
        <ele>932.8</ele>
        <time>2022-07-25T13:36:22Z</time>
      </trkpt>
      <trkpt lat="46.0727080" lon="5.6618580">
        <ele>932.7</ele>
        <time>2022-07-25T13:36:23Z</time>
      </trkpt>
      <trkpt lat="46.0727180" lon="5.6618050">
        <ele>932.6</ele>
        <time>2022-07-25T13:36:24Z</time>
      </trkpt>
      <trkpt lat="46.0727330" lon="5.6617290">
        <ele>932.5</ele>
        <time>2022-07-25T13:36:26Z</time>
      </trkpt>
      <trkpt lat="46.0727390" lon="5.6616650">
        <ele>932.5</ele>
        <time>2022-07-25T13:36:27Z</time>
      </trkpt>
      <trkpt lat="46.0726990" lon="5.6615740">
        <ele>932.0</ele>
        <time>2022-07-25T13:36:28Z</time>
      </trkpt>
      <trkpt lat="46.0726640" lon="5.6615080">
        <ele>932.0</ele>
        <time>2022-07-25T13:36:29Z</time>
      </trkpt>
      <trkpt lat="46.0726180" lon="5.6614670">
        <ele>931.9</ele>
        <time>2022-07-25T13:36:30Z</time>
      </trkpt>
      <trkpt lat="46.0725710" lon="5.6614490">
        <ele>931.9</ele>
        <time>2022-07-25T13:36:31Z</time>
      </trkpt>
      <trkpt lat="46.0725210" lon="5.6614470">
        <ele>931.9</ele>
        <time>2022-07-25T13:36:32Z</time>
      </trkpt>
      <trkpt lat="46.0724670" lon="5.6614450">
        <ele>931.9</ele>
        <time>2022-07-25T13:36:33Z</time>
      </trkpt>
      <trkpt lat="46.0724150" lon="5.6614480">
        <ele>932.0</ele>
        <time>2022-07-25T13:36:34Z</time>
      </trkpt>
      <trkpt lat="46.0723630" lon="5.6614560">
        <ele>932.0</ele>
        <time>2022-07-25T13:36:35Z</time>
      </trkpt>
      <trkpt lat="46.0723110" lon="5.6614570">
        <ele>932.1</ele>
        <time>2022-07-25T13:36:36Z</time>
      </trkpt>
      <trkpt lat="46.0722610" lon="5.6614610">
        <ele>932.1</ele>
        <time>2022-07-25T13:36:37Z</time>
      </trkpt>
      <trkpt lat="46.0722150" lon="5.6614700">
        <ele>932.1</ele>
        <time>2022-07-25T13:36:38Z</time>
      </trkpt>
      <trkpt lat="46.0721710" lon="5.6614850">
        <ele>932.2</ele>
        <time>2022-07-25T13:36:39Z</time>
      </trkpt>
      <trkpt lat="46.0721080" lon="5.6614490">
        <ele>932.2</ele>
        <time>2022-07-25T13:36:41Z</time>
      </trkpt>
      <trkpt lat="46.0720560" lon="5.6614970">
        <ele>932.2</ele>
        <time>2022-07-25T13:36:42Z</time>
      </trkpt>
      <trkpt lat="46.0720080" lon="5.6615050">
        <ele>932.2</ele>
        <time>2022-07-25T13:36:43Z</time>
      </trkpt>
      <trkpt lat="46.0719720" lon="5.6615240">
        <ele>932.2</ele>
        <time>2022-07-25T13:36:44Z</time>
      </trkpt>
      <trkpt lat="46.0719170" lon="5.6615480">
        <ele>932.2</ele>
        <time>2022-07-25T13:36:45Z</time>
      </trkpt>
      <trkpt lat="46.0718800" lon="5.6615720">
        <ele>932.2</ele>
        <time>2022-07-25T13:36:46Z</time>
      </trkpt>
      <trkpt lat="46.0718330" lon="5.6615880">
        <ele>932.1</ele>
        <time>2022-07-25T13:36:47Z</time>
      </trkpt>
      <trkpt lat="46.0717830" lon="5.6615970">
        <ele>932.1</ele>
        <time>2022-07-25T13:36:48Z</time>
      </trkpt>
      <trkpt lat="46.0717300" lon="5.6616030">
        <ele>932.0</ele>
        <time>2022-07-25T13:36:49Z</time>
      </trkpt>
      <trkpt lat="46.0716780" lon="5.6616080">
        <ele>932.0</ele>
        <time>2022-07-25T13:36:50Z</time>
      </trkpt>
      <trkpt lat="46.0716250" lon="5.6616180">
        <ele>932.0</ele>
        <time>2022-07-25T13:36:51Z</time>
      </trkpt>
      <trkpt lat="46.0715690" lon="5.6616280">
        <ele>932.0</ele>
        <time>2022-07-25T13:36:52Z</time>
      </trkpt>
      <trkpt lat="46.0715160" lon="5.6616340">
        <ele>932.0</ele>
        <time>2022-07-25T13:36:53Z</time>
      </trkpt>
      <trkpt lat="46.0714630" lon="5.6616370">
        <ele>931.9</ele>
        <time>2022-07-25T13:36:54Z</time>
      </trkpt>
      <trkpt lat="46.0714130" lon="5.6616400">
        <ele>931.9</ele>
        <time>2022-07-25T13:36:55Z</time>
      </trkpt>
      <trkpt lat="46.0713670" lon="5.6616410">
        <ele>931.9</ele>
        <time>2022-07-25T13:36:56Z</time>
      </trkpt>
      <trkpt lat="46.0713200" lon="5.6616430">
        <ele>931.9</ele>
        <time>2022-07-25T13:36:57Z</time>
      </trkpt>
      <trkpt lat="46.0712700" lon="5.6616450">
        <ele>931.9</ele>
        <time>2022-07-25T13:36:58Z</time>
      </trkpt>
      <trkpt lat="46.0712190" lon="5.6616500">
        <ele>931.9</ele>
        <time>2022-07-25T13:36:59Z</time>
      </trkpt>
      <trkpt lat="46.0711710" lon="5.6616520">
        <ele>931.9</ele>
        <time>2022-07-25T13:37:00Z</time>
      </trkpt>
      <trkpt lat="46.0711190" lon="5.6616560">
        <ele>931.9</ele>
        <time>2022-07-25T13:37:01Z</time>
      </trkpt>
      <trkpt lat="46.0710690" lon="5.6616650">
        <ele>931.9</ele>
        <time>2022-07-25T13:37:02Z</time>
      </trkpt>
      <trkpt lat="46.0710170" lon="5.6616780">
        <ele>931.9</ele>
        <time>2022-07-25T13:37:03Z</time>
      </trkpt>
      <trkpt lat="46.0709680" lon="5.6616920">
        <ele>932.0</ele>
        <time>2022-07-25T13:37:04Z</time>
      </trkpt>
      <trkpt lat="46.0709200" lon="5.6617030">
        <ele>932.0</ele>
        <time>2022-07-25T13:37:05Z</time>
      </trkpt>
      <trkpt lat="46.0708670" lon="5.6617130">
        <ele>932.0</ele>
        <time>2022-07-25T13:37:06Z</time>
      </trkpt>
      <trkpt lat="46.0708130" lon="5.6617250">
        <ele>932.0</ele>
        <time>2022-07-25T13:37:07Z</time>
      </trkpt>
      <trkpt lat="46.0707670" lon="5.6617320">
        <ele>932.1</ele>
        <time>2022-07-25T13:37:08Z</time>
      </trkpt>
      <trkpt lat="46.0707180" lon="5.6617410">
        <ele>932.1</ele>
        <time>2022-07-25T13:37:09Z</time>
      </trkpt>
      <trkpt lat="46.0706690" lon="5.6617480">
        <ele>932.2</ele>
        <time>2022-07-25T13:37:10Z</time>
      </trkpt>
      <trkpt lat="46.0706200" lon="5.6617570">
        <ele>932.3</ele>
        <time>2022-07-25T13:37:11Z</time>
      </trkpt>
      <trkpt lat="46.0705690" lon="5.6617650">
        <ele>932.4</ele>
        <time>2022-07-25T13:37:12Z</time>
      </trkpt>
      <trkpt lat="46.0705230" lon="5.6617720">
        <ele>932.5</ele>
        <time>2022-07-25T13:37:13Z</time>
      </trkpt>
      <trkpt lat="46.0704750" lon="5.6617720">
        <ele>932.6</ele>
        <time>2022-07-25T13:37:14Z</time>
      </trkpt>
      <trkpt lat="46.0704420" lon="5.6617690">
        <ele>932.7</ele>
        <time>2022-07-25T13:37:15Z</time>
      </trkpt>
      <trkpt lat="46.0703930" lon="5.6617620">
        <ele>932.8</ele>
        <time>2022-07-25T13:37:16Z</time>
      </trkpt>
      <trkpt lat="46.0703590" lon="5.6617540">
        <ele>932.9</ele>
        <time>2022-07-25T13:37:17Z</time>
      </trkpt>
      <trkpt lat="46.0703140" lon="5.6617470">
        <ele>933.1</ele>
        <time>2022-07-25T13:37:18Z</time>
      </trkpt>
      <trkpt lat="46.0702690" lon="5.6617380">
        <ele>933.2</ele>
        <time>2022-07-25T13:37:19Z</time>
      </trkpt>
      <trkpt lat="46.0702250" lon="5.6617270">
        <ele>933.3</ele>
        <time>2022-07-25T13:37:20Z</time>
      </trkpt>
      <trkpt lat="46.0701930" lon="5.6617210">
        <ele>933.4</ele>
        <time>2022-07-25T13:37:21Z</time>
      </trkpt>
      <trkpt lat="46.0701490" lon="5.6617120">
        <ele>933.5</ele>
        <time>2022-07-25T13:37:22Z</time>
      </trkpt>
      <trkpt lat="46.0701180" lon="5.6616840">
        <ele>933.6</ele>
        <time>2022-07-25T13:37:23Z</time>
      </trkpt>
      <trkpt lat="46.0700830" lon="5.6616660">
        <ele>933.7</ele>
        <time>2022-07-25T13:37:24Z</time>
      </trkpt>
      <trkpt lat="46.0700420" lon="5.6616640">
        <ele>933.8</ele>
        <time>2022-07-25T13:37:25Z</time>
      </trkpt>
      <trkpt lat="46.0699950" lon="5.6616800">
        <ele>933.9</ele>
        <time>2022-07-25T13:37:26Z</time>
      </trkpt>
      <trkpt lat="46.0699470" lon="5.6616930">
        <ele>934.1</ele>
        <time>2022-07-25T13:37:27Z</time>
      </trkpt>
      <trkpt lat="46.0698740" lon="5.6616980">
        <ele>934.4</ele>
        <time>2022-07-25T13:37:29Z</time>
      </trkpt>
      <trkpt lat="46.0698330" lon="5.6617030">
        <ele>934.6</ele>
        <time>2022-07-25T13:37:30Z</time>
      </trkpt>
      <trkpt lat="46.0697960" lon="5.6617050">
        <ele>934.7</ele>
        <time>2022-07-25T13:37:31Z</time>
      </trkpt>
      <trkpt lat="46.0697600" lon="5.6617080">
        <ele>934.9</ele>
        <time>2022-07-25T13:37:32Z</time>
      </trkpt>
      <trkpt lat="46.0697290" lon="5.6617110">
        <ele>935.1</ele>
        <time>2022-07-25T13:37:33Z</time>
      </trkpt>
      <trkpt lat="46.0696710" lon="5.6617190">
        <ele>935.4</ele>
        <time>2022-07-25T13:37:35Z</time>
      </trkpt>
      <trkpt lat="46.0696410" lon="5.6617230">
        <ele>935.5</ele>
        <time>2022-07-25T13:37:36Z</time>
      </trkpt>
      <trkpt lat="46.0696070" lon="5.6617240">
        <ele>935.7</ele>
        <time>2022-07-25T13:37:37Z</time>
      </trkpt>
      <trkpt lat="46.0695700" lon="5.6617190">
        <ele>936.0</ele>
        <time>2022-07-25T13:37:38Z</time>
      </trkpt>
      <trkpt lat="46.0694970" lon="5.6617190">
        <ele>936.4</ele>
        <time>2022-07-25T13:37:40Z</time>
      </trkpt>
      <trkpt lat="46.0694670" lon="5.6617230">
        <ele>936.6</ele>
        <time>2022-07-25T13:37:41Z</time>
      </trkpt>
      <trkpt lat="46.0694390" lon="5.6617240">
        <ele>936.8</ele>
        <time>2022-07-25T13:37:42Z</time>
      </trkpt>
      <trkpt lat="46.0694100" lon="5.6617300">
        <ele>937.0</ele>
        <time>2022-07-25T13:37:43Z</time>
      </trkpt>
      <trkpt lat="46.0693820" lon="5.6617350">
        <ele>937.2</ele>
        <time>2022-07-25T13:37:44Z</time>
      </trkpt>
      <trkpt lat="46.0693470" lon="5.6617470">
        <ele>937.4</ele>
        <time>2022-07-25T13:37:45Z</time>
      </trkpt>
      <trkpt lat="46.0693360" lon="5.6617520">
        <ele>937.5</ele>
        <time>2022-07-25T13:37:46Z</time>
      </trkpt>
      <trkpt lat="46.0693010" lon="5.6617610">
        <ele>937.7</ele>
        <time>2022-07-25T13:37:47Z</time>
      </trkpt>
      <trkpt lat="46.0692900" lon="5.6617650">
        <ele>937.8</ele>
        <time>2022-07-25T13:37:48Z</time>
      </trkpt>
      <trkpt lat="46.0692640" lon="5.6617750">
        <ele>937.9</ele>
        <time>2022-07-25T13:37:49Z</time>
      </trkpt>
      <trkpt lat="46.0692290" lon="5.6617870">
        <ele>938.1</ele>
        <time>2022-07-25T13:37:50Z</time>
      </trkpt>
      <trkpt lat="46.0692180" lon="5.6617930">
        <ele>938.2</ele>
        <time>2022-07-25T13:37:51Z</time>
      </trkpt>
      <trkpt lat="46.0691770" lon="5.6618070">
        <ele>938.4</ele>
        <time>2022-07-25T13:37:53Z</time>
      </trkpt>
      <trkpt lat="46.0691390" lon="5.6618200">
        <ele>938.6</ele>
        <time>2022-07-25T13:37:54Z</time>
      </trkpt>
      <trkpt lat="46.0691230" lon="5.6618230">
        <ele>938.7</ele>
        <time>2022-07-25T13:37:55Z</time>
      </trkpt>
      <trkpt lat="46.0690860" lon="5.6618270">
        <ele>938.9</ele>
        <time>2022-07-25T13:37:56Z</time>
      </trkpt>
      <trkpt lat="46.0690730" lon="5.6618280">
        <ele>938.9</ele>
        <time>2022-07-25T13:37:57Z</time>
      </trkpt>
      <trkpt lat="46.0690310" lon="5.6618350">
        <ele>939.1</ele>
        <time>2022-07-25T13:37:58Z</time>
      </trkpt>
      <trkpt lat="46.0690150" lon="5.6618370">
        <ele>939.1</ele>
        <time>2022-07-25T13:37:59Z</time>
      </trkpt>
      <trkpt lat="46.0689880" lon="5.6618420">
        <ele>939.2</ele>
        <time>2022-07-25T13:38:00Z</time>
      </trkpt>
      <trkpt lat="46.0689600" lon="5.6618450">
        <ele>939.3</ele>
        <time>2022-07-25T13:38:01Z</time>
      </trkpt>
      <trkpt lat="46.0689300" lon="5.6618450">
        <ele>939.4</ele>
        <time>2022-07-25T13:38:02Z</time>
      </trkpt>
      <trkpt lat="46.0688990" lon="5.6618490">
        <ele>939.5</ele>
        <time>2022-07-25T13:38:03Z</time>
      </trkpt>
      <trkpt lat="46.0688650" lon="5.6618530">
        <ele>939.6</ele>
        <time>2022-07-25T13:38:04Z</time>
      </trkpt>
      <trkpt lat="46.0688170" lon="5.6618560">
        <ele>939.7</ele>
        <time>2022-07-25T13:38:06Z</time>
      </trkpt>
      <trkpt lat="46.0687700" lon="5.6618630">
        <ele>939.8</ele>
        <time>2022-07-25T13:38:07Z</time>
      </trkpt>
      <trkpt lat="46.0687380" lon="5.6618640">
        <ele>939.9</ele>
        <time>2022-07-25T13:38:08Z</time>
      </trkpt>
      <trkpt lat="46.0687040" lon="5.6618630">
        <ele>939.9</ele>
        <time>2022-07-25T13:38:09Z</time>
      </trkpt>
      <trkpt lat="46.0686670" lon="5.6618590">
        <ele>940.0</ele>
        <time>2022-07-25T13:38:10Z</time>
      </trkpt>
      <trkpt lat="46.0686220" lon="5.6618560">
        <ele>940.0</ele>
        <time>2022-07-25T13:38:11Z</time>
      </trkpt>
      <trkpt lat="46.0685690" lon="5.6618510">
        <ele>940.1</ele>
        <time>2022-07-25T13:38:13Z</time>
      </trkpt>
      <trkpt lat="46.0685140" lon="5.6618420">
        <ele>940.2</ele>
        <time>2022-07-25T13:38:14Z</time>
      </trkpt>
      <trkpt lat="46.0684580" lon="5.6618310">
        <ele>940.3</ele>
        <time>2022-07-25T13:38:16Z</time>
      </trkpt>
      <trkpt lat="46.0684050" lon="5.6618230">
        <ele>940.4</ele>
        <time>2022-07-25T13:38:17Z</time>
      </trkpt>
      <trkpt lat="46.0683610" lon="5.6618160">
        <ele>940.4</ele>
        <time>2022-07-25T13:38:18Z</time>
      </trkpt>
      <trkpt lat="46.0683230" lon="5.6618120">
        <ele>940.5</ele>
        <time>2022-07-25T13:38:19Z</time>
      </trkpt>
      <trkpt lat="46.0682890" lon="5.6618060">
        <ele>940.6</ele>
        <time>2022-07-25T13:38:20Z</time>
      </trkpt>
      <trkpt lat="46.0682530" lon="5.6617950">
        <ele>940.6</ele>
        <time>2022-07-25T13:38:21Z</time>
      </trkpt>
      <trkpt lat="46.0682040" lon="5.6617820">
        <ele>940.7</ele>
        <time>2022-07-25T13:38:23Z</time>
      </trkpt>
      <trkpt lat="46.0681420" lon="5.6617580">
        <ele>940.9</ele>
        <time>2022-07-25T13:38:24Z</time>
      </trkpt>
      <trkpt lat="46.0681080" lon="5.6617420">
        <ele>941.0</ele>
        <time>2022-07-25T13:38:25Z</time>
      </trkpt>
      <trkpt lat="46.0680740" lon="5.6617270">
        <ele>941.0</ele>
        <time>2022-07-25T13:38:26Z</time>
      </trkpt>
      <trkpt lat="46.0680290" lon="5.6617000">
        <ele>941.2</ele>
        <time>2022-07-25T13:38:28Z</time>
      </trkpt>
      <trkpt lat="46.0679790" lon="5.6616650">
        <ele>941.3</ele>
        <time>2022-07-25T13:38:29Z</time>
      </trkpt>
      <trkpt lat="46.0679520" lon="5.6616210">
        <ele>941.4</ele>
        <time>2022-07-25T13:38:30Z</time>
      </trkpt>
      <trkpt lat="46.0679330" lon="5.6615740">
        <ele>941.7</ele>
        <time>2022-07-25T13:38:31Z</time>
      </trkpt>
      <trkpt lat="46.0679230" lon="5.6615110">
        <ele>942.0</ele>
        <time>2022-07-25T13:38:32Z</time>
      </trkpt>
      <trkpt lat="46.0679270" lon="5.6614480">
        <ele>942.2</ele>
        <time>2022-07-25T13:38:34Z</time>
      </trkpt>
      <trkpt lat="46.0679400" lon="5.6614070">
        <ele>942.3</ele>
        <time>2022-07-25T13:38:35Z</time>
      </trkpt>
      <trkpt lat="46.0679520" lon="5.6613570">
        <ele>942.4</ele>
        <time>2022-07-25T13:38:36Z</time>
      </trkpt>
      <trkpt lat="46.0679670" lon="5.6612690">
        <ele>942.5</ele>
        <time>2022-07-25T13:38:38Z</time>
      </trkpt>
      <trkpt lat="46.0679750" lon="5.6612240">
        <ele>942.5</ele>
        <time>2022-07-25T13:38:39Z</time>
      </trkpt>
      <trkpt lat="46.0679810" lon="5.6611800">
        <ele>942.5</ele>
        <time>2022-07-25T13:38:40Z</time>
      </trkpt>
      <trkpt lat="46.0679880" lon="5.6611360">
        <ele>942.5</ele>
        <time>2022-07-25T13:38:41Z</time>
      </trkpt>
      <trkpt lat="46.0679920" lon="5.6610780">
        <ele>942.5</ele>
        <time>2022-07-25T13:38:42Z</time>
      </trkpt>
      <trkpt lat="46.0679960" lon="5.6610150">
        <ele>942.3</ele>
        <time>2022-07-25T13:38:43Z</time>
      </trkpt>
      <trkpt lat="46.0680000" lon="5.6609560">
        <ele>942.2</ele>
        <time>2022-07-25T13:38:44Z</time>
      </trkpt>
      <trkpt lat="46.0679980" lon="5.6608820">
        <ele>942.0</ele>
        <time>2022-07-25T13:38:45Z</time>
      </trkpt>
      <trkpt lat="46.0680000" lon="5.6608120">
        <ele>941.8</ele>
        <time>2022-07-25T13:38:46Z</time>
      </trkpt>
      <trkpt lat="46.0680000" lon="5.6607390">
        <ele>941.6</ele>
        <time>2022-07-25T13:38:47Z</time>
      </trkpt>
      <trkpt lat="46.0679980" lon="5.6606600">
        <ele>941.4</ele>
        <time>2022-07-25T13:38:48Z</time>
      </trkpt>
      <trkpt lat="46.0680000" lon="5.6605810">
        <ele>941.1</ele>
        <time>2022-07-25T13:38:49Z</time>
      </trkpt>
      <trkpt lat="46.0679950" lon="5.6604940">
        <ele>940.9</ele>
        <time>2022-07-25T13:38:50Z</time>
      </trkpt>
      <trkpt lat="46.0679860" lon="5.6604100">
        <ele>940.7</ele>
        <time>2022-07-25T13:38:51Z</time>
      </trkpt>
      <trkpt lat="46.0679780" lon="5.6603220">
        <ele>940.5</ele>
        <time>2022-07-25T13:38:52Z</time>
      </trkpt>
      <trkpt lat="46.0679660" lon="5.6602350">
        <ele>940.3</ele>
        <time>2022-07-25T13:38:53Z</time>
      </trkpt>
      <trkpt lat="46.0679500" lon="5.6601500">
        <ele>940.1</ele>
        <time>2022-07-25T13:38:54Z</time>
      </trkpt>
      <trkpt lat="46.0679330" lon="5.6600540">
        <ele>940.0</ele>
        <time>2022-07-25T13:38:55Z</time>
      </trkpt>
      <trkpt lat="46.0679150" lon="5.6599680">
        <ele>939.8</ele>
        <time>2022-07-25T13:38:56Z</time>
      </trkpt>
      <trkpt lat="46.0679020" lon="5.6598880">
        <ele>939.7</ele>
        <time>2022-07-25T13:38:57Z</time>
      </trkpt>
      <trkpt lat="46.0678760" lon="5.6598010">
        <ele>939.6</ele>
        <time>2022-07-25T13:38:58Z</time>
      </trkpt>
      <trkpt lat="46.0678550" lon="5.6597090">
        <ele>939.6</ele>
        <time>2022-07-25T13:38:59Z</time>
      </trkpt>
      <trkpt lat="46.0678320" lon="5.6596170">
        <ele>939.5</ele>
        <time>2022-07-25T13:39:00Z</time>
      </trkpt>
      <trkpt lat="46.0678140" lon="5.6595370">
        <ele>939.5</ele>
        <time>2022-07-25T13:39:01Z</time>
      </trkpt>
      <trkpt lat="46.0677920" lon="5.6594600">
        <ele>939.5</ele>
        <time>2022-07-25T13:39:02Z</time>
      </trkpt>
      <trkpt lat="46.0677660" lon="5.6593790">
        <ele>939.5</ele>
        <time>2022-07-25T13:39:03Z</time>
      </trkpt>
      <trkpt lat="46.0677380" lon="5.6593070">
        <ele>939.6</ele>
        <time>2022-07-25T13:39:04Z</time>
      </trkpt>
      <trkpt lat="46.0677060" lon="5.6592440">
        <ele>939.6</ele>
        <time>2022-07-25T13:39:05Z</time>
      </trkpt>
      <trkpt lat="46.0676770" lon="5.6591880">
        <ele>939.7</ele>
        <time>2022-07-25T13:39:06Z</time>
      </trkpt>
      <trkpt lat="46.0676520" lon="5.6591360">
        <ele>939.7</ele>
        <time>2022-07-25T13:39:07Z</time>
      </trkpt>
      <trkpt lat="46.0676250" lon="5.6590780">
        <ele>939.8</ele>
        <time>2022-07-25T13:39:08Z</time>
      </trkpt>
      <trkpt lat="46.0676000" lon="5.6590270">
        <ele>939.8</ele>
        <time>2022-07-25T13:39:09Z</time>
      </trkpt>
      <trkpt lat="46.0675800" lon="5.6589890">
        <ele>939.9</ele>
        <time>2022-07-25T13:39:10Z</time>
      </trkpt>
      <trkpt lat="46.0675400" lon="5.6589430">
        <ele>939.9</ele>
        <time>2022-07-25T13:39:11Z</time>
      </trkpt>
      <trkpt lat="46.0674980" lon="5.6589010">
        <ele>940.0</ele>
        <time>2022-07-25T13:39:12Z</time>
      </trkpt>
      <trkpt lat="46.0674670" lon="5.6588750">
        <ele>940.0</ele>
        <time>2022-07-25T13:39:13Z</time>
      </trkpt>
      <trkpt lat="46.0674320" lon="5.6588460">
        <ele>940.1</ele>
        <time>2022-07-25T13:39:14Z</time>
      </trkpt>
      <trkpt lat="46.0673880" lon="5.6588090">
        <ele>940.1</ele>
        <time>2022-07-25T13:39:15Z</time>
      </trkpt>
      <trkpt lat="46.0673430" lon="5.6587710">
        <ele>940.2</ele>
        <time>2022-07-25T13:39:16Z</time>
      </trkpt>
      <trkpt lat="46.0672990" lon="5.6587350">
        <ele>940.2</ele>
        <time>2022-07-25T13:39:17Z</time>
      </trkpt>
      <trkpt lat="46.0672590" lon="5.6586960">
        <ele>940.2</ele>
        <time>2022-07-25T13:39:18Z</time>
      </trkpt>
      <trkpt lat="46.0672240" lon="5.6586530">
        <ele>940.2</ele>
        <time>2022-07-25T13:39:19Z</time>
      </trkpt>
      <trkpt lat="46.0672460" lon="5.6586230">
        <ele>940.2</ele>
        <time>2022-07-25T13:39:20Z</time>
      </trkpt>
      <trkpt lat="46.0672230" lon="5.6585990">
        <ele>940.2</ele>
        <time>2022-07-25T13:39:21Z</time>
      </trkpt>
      <trkpt lat="46.0671240" lon="5.6585740">
        <ele>940.1</ele>
        <time>2022-07-25T13:39:22Z</time>
      </trkpt>
      <trkpt lat="46.0670720" lon="5.6585370">
        <ele>940.1</ele>
        <time>2022-07-25T13:39:23Z</time>
      </trkpt>
      <trkpt lat="46.0670310" lon="5.6584960">
        <ele>940.0</ele>
        <time>2022-07-25T13:39:24Z</time>
      </trkpt>
      <trkpt lat="46.0670050" lon="5.6584790">
        <ele>939.9</ele>
        <time>2022-07-25T13:39:25Z</time>
      </trkpt>
      <trkpt lat="46.0669340" lon="5.6584160">
        <ele>939.7</ele>
        <time>2022-07-25T13:39:26Z</time>
      </trkpt>
      <trkpt lat="46.0668960" lon="5.6583490">
        <ele>939.6</ele>
        <time>2022-07-25T13:39:27Z</time>
      </trkpt>
      <trkpt lat="46.0668600" lon="5.6582920">
        <ele>939.4</ele>
        <time>2022-07-25T13:39:28Z</time>
      </trkpt>
      <trkpt lat="46.0668290" lon="5.6582420">
        <ele>939.3</ele>
        <time>2022-07-25T13:39:29Z</time>
      </trkpt>
      <trkpt lat="46.0668010" lon="5.6581900">
        <ele>939.2</ele>
        <time>2022-07-25T13:39:30Z</time>
      </trkpt>
      <trkpt lat="46.0667730" lon="5.6581370">
        <ele>939.1</ele>
        <time>2022-07-25T13:39:31Z</time>
      </trkpt>
      <trkpt lat="46.0667670" lon="5.6580820">
        <ele>939.0</ele>
        <time>2022-07-25T13:39:32Z</time>
      </trkpt>
      <trkpt lat="46.0667670" lon="5.6580290">
        <ele>938.9</ele>
        <time>2022-07-25T13:39:33Z</time>
      </trkpt>
      <trkpt lat="46.0667630" lon="5.6579820">
        <ele>938.8</ele>
        <time>2022-07-25T13:39:34Z</time>
      </trkpt>
      <trkpt lat="46.0667600" lon="5.6579470">
        <ele>938.7</ele>
        <time>2022-07-25T13:39:35Z</time>
      </trkpt>
      <trkpt lat="46.0667480" lon="5.6578740">
        <ele>938.6</ele>
        <time>2022-07-25T13:39:37Z</time>
      </trkpt>
      <trkpt lat="46.0667350" lon="5.6578010">
        <ele>938.5</ele>
        <time>2022-07-25T13:39:38Z</time>
      </trkpt>
      <trkpt lat="46.0667210" lon="5.6577350">
        <ele>938.4</ele>
        <time>2022-07-25T13:39:39Z</time>
      </trkpt>
      <trkpt lat="46.0667110" lon="5.6576850">
        <ele>938.4</ele>
        <time>2022-07-25T13:39:40Z</time>
      </trkpt>
      <trkpt lat="46.0667080" lon="5.6576350">
        <ele>938.3</ele>
        <time>2022-07-25T13:39:41Z</time>
      </trkpt>
      <trkpt lat="46.0667050" lon="5.6575800">
        <ele>938.2</ele>
        <time>2022-07-25T13:39:42Z</time>
      </trkpt>
      <trkpt lat="46.0667020" lon="5.6574180">
        <ele>938.0</ele>
        <time>2022-07-25T13:39:43Z</time>
      </trkpt>
      <trkpt lat="46.0666940" lon="5.6573600">
        <ele>937.8</ele>
        <time>2022-07-25T13:39:44Z</time>
      </trkpt>
      <trkpt lat="46.0666620" lon="5.6572020">
        <ele>937.2</ele>
        <time>2022-07-25T13:39:45Z</time>
      </trkpt>
      <trkpt lat="46.0666550" lon="5.6570690">
        <ele>936.5</ele>
        <time>2022-07-25T13:39:46Z</time>
      </trkpt>
      <trkpt lat="46.0666630" lon="5.6569350">
        <ele>935.9</ele>
        <time>2022-07-25T13:39:47Z</time>
      </trkpt>
      <trkpt lat="46.0666500" lon="5.6568020">
        <ele>935.2</ele>
        <time>2022-07-25T13:39:48Z</time>
      </trkpt>
      <trkpt lat="46.0666280" lon="5.6566860">
        <ele>934.7</ele>
        <time>2022-07-25T13:39:49Z</time>
      </trkpt>
      <trkpt lat="46.0665960" lon="5.6565850">
        <ele>934.2</ele>
        <time>2022-07-25T13:39:50Z</time>
      </trkpt>
      <trkpt lat="46.0665450" lon="5.6564630">
        <ele>933.8</ele>
        <time>2022-07-25T13:39:51Z</time>
      </trkpt>
      <trkpt lat="46.0665080" lon="5.6563540">
        <ele>933.5</ele>
        <time>2022-07-25T13:39:52Z</time>
      </trkpt>
      <trkpt lat="46.0664770" lon="5.6562490">
        <ele>933.2</ele>
        <time>2022-07-25T13:39:53Z</time>
      </trkpt>
      <trkpt lat="46.0664530" lon="5.6561650">
        <ele>933.0</ele>
        <time>2022-07-25T13:39:54Z</time>
      </trkpt>
      <trkpt lat="46.0664340" lon="5.6561220">
        <ele>932.9</ele>
        <time>2022-07-25T13:39:55Z</time>
      </trkpt>
      <trkpt lat="46.0664030" lon="5.6559700">
        <ele>932.6</ele>
        <time>2022-07-25T13:39:57Z</time>
      </trkpt>
      <trkpt lat="46.0663810" lon="5.6558860">
        <ele>932.4</ele>
        <time>2022-07-25T13:39:58Z</time>
      </trkpt>
      <trkpt lat="46.0663650" lon="5.6557720">
        <ele>932.1</ele>
        <time>2022-07-25T13:39:59Z</time>
      </trkpt>
      <trkpt lat="46.0663600" lon="5.6556440">
        <ele>931.9</ele>
        <time>2022-07-25T13:40:00Z</time>
      </trkpt>
      <trkpt lat="46.0663730" lon="5.6555250">
        <ele>931.7</ele>
        <time>2022-07-25T13:40:01Z</time>
      </trkpt>
      <trkpt lat="46.0663880" lon="5.6554220">
        <ele>931.6</ele>
        <time>2022-07-25T13:40:02Z</time>
      </trkpt>
      <trkpt lat="46.0664080" lon="5.6553370">
        <ele>931.5</ele>
        <time>2022-07-25T13:40:03Z</time>
      </trkpt>
      <trkpt lat="46.0664180" lon="5.6552950">
        <ele>931.5</ele>
        <time>2022-07-25T13:40:04Z</time>
      </trkpt>
      <trkpt lat="46.0664270" lon="5.6552340">
        <ele>931.5</ele>
        <time>2022-07-25T13:40:05Z</time>
      </trkpt>
      <trkpt lat="46.0664540" lon="5.6551610">
        <ele>931.4</ele>
        <time>2022-07-25T13:40:07Z</time>
      </trkpt>
      <trkpt lat="46.0664600" lon="5.6551460">
        <ele>931.3</ele>
        <time>2022-07-25T13:40:08Z</time>
      </trkpt>
      <trkpt lat="46.0664680" lon="5.6551510">
        <ele>931.3</ele>
        <time>2022-07-25T13:40:10Z</time>
      </trkpt>
      <trkpt lat="46.0664710" lon="5.6551520">
        <ele>931.3</ele>
        <time>2022-07-25T13:40:11Z</time>
      </trkpt>
      <trkpt lat="46.0664700" lon="5.6551560">
        <ele>931.3</ele>
        <time>2022-07-25T13:40:12Z</time>
      </trkpt>
      <trkpt lat="46.0664630" lon="5.6551680">
        <ele>931.3</ele>
        <time>2022-07-25T13:40:13Z</time>
      </trkpt>
      <trkpt lat="46.0664540" lon="5.6551860">
        <ele>931.3</ele>
        <time>2022-07-25T13:40:15Z</time>
      </trkpt>
      <trkpt lat="46.0664480" lon="5.6552020">
        <ele>931.3</ele>
        <time>2022-07-25T13:40:16Z</time>
      </trkpt>
      <trkpt lat="46.0664420" lon="5.6552150">
        <ele>931.2</ele>
        <time>2022-07-25T13:40:17Z</time>
      </trkpt>
      <trkpt lat="46.0664330" lon="5.6552240">
        <ele>931.2</ele>
        <time>2022-07-25T13:40:18Z</time>
      </trkpt>
      <trkpt lat="46.0664270" lon="5.6552310">
        <ele>931.2</ele>
        <time>2022-07-25T13:40:19Z</time>
      </trkpt>
      <trkpt lat="46.0664180" lon="5.6552370">
        <ele>931.2</ele>
        <time>2022-07-25T13:40:20Z</time>
      </trkpt>
      <trkpt lat="46.0664120" lon="5.6552430">
        <ele>931.2</ele>
        <time>2022-07-25T13:40:21Z</time>
      </trkpt>
      <trkpt lat="46.0664040" lon="5.6552450">
        <ele>931.2</ele>
        <time>2022-07-25T13:40:22Z</time>
      </trkpt>
      <trkpt lat="46.0663980" lon="5.6552430">
        <ele>931.2</ele>
        <time>2022-07-25T13:40:23Z</time>
      </trkpt>
      <trkpt lat="46.0663950" lon="5.6552420">
        <ele>931.2</ele>
        <time>2022-07-25T13:40:24Z</time>
      </trkpt>
      <trkpt lat="46.0663920" lon="5.6552420">
        <ele>931.2</ele>
        <time>2022-07-25T13:40:25Z</time>
      </trkpt>
      <trkpt lat="46.0663880" lon="5.6552430">
        <ele>931.1</ele>
        <time>2022-07-25T13:40:26Z</time>
      </trkpt>
      <trkpt lat="46.0663850" lon="5.6552440">
        <ele>931.1</ele>
        <time>2022-07-25T13:40:27Z</time>
      </trkpt>
      <trkpt lat="46.0663810" lon="5.6552460">
        <ele>931.1</ele>
        <time>2022-07-25T13:40:28Z</time>
      </trkpt>
      <trkpt lat="46.0663810" lon="5.6552440">
        <ele>931.1</ele>
        <time>2022-07-25T13:40:29Z</time>
      </trkpt>
      <trkpt lat="46.0663810" lon="5.6552430">
        <ele>931.1</ele>
        <time>2022-07-25T13:40:30Z</time>
      </trkpt>
      <trkpt lat="46.0663810" lon="5.6552410">
        <ele>931.1</ele>
        <time>2022-07-25T13:40:31Z</time>
      </trkpt>
      <trkpt lat="46.0663690" lon="5.6552230">
        <ele>931.1</ele>
        <time>2022-07-25T13:40:37Z</time>
      </trkpt>
      <trkpt lat="46.0663670" lon="5.6552160">
        <ele>931.1</ele>
        <time>2022-07-25T13:40:38Z</time>
      </trkpt>
      <trkpt lat="46.0663660" lon="5.6552100">
        <ele>931.1</ele>
        <time>2022-07-25T13:40:39Z</time>
      </trkpt>
      <trkpt lat="46.0663650" lon="5.6552050">
        <ele>931.1</ele>
        <time>2022-07-25T13:40:40Z</time>
      </trkpt>
      <trkpt lat="46.0663650" lon="5.6552040">
        <ele>931.1</ele>
        <time>2022-07-25T13:40:41Z</time>
      </trkpt>
      <trkpt lat="46.0663650" lon="5.6552030">
        <ele>931.1</ele>
        <time>2022-07-25T13:40:42Z</time>
      </trkpt>
      <trkpt lat="46.0663650" lon="5.6552030">
        <ele>931.1</ele>
        <time>2022-07-25T13:40:43Z</time>
      </trkpt>
      <trkpt lat="46.0663650" lon="5.6552030">
        <ele>931.1</ele>
        <time>2022-07-25T13:40:44Z</time>
      </trkpt>
      <trkpt lat="46.0663650" lon="5.6552020">
        <ele>931.1</ele>
        <time>2022-07-25T13:40:45Z</time>
      </trkpt>
      <trkpt lat="46.0663640" lon="5.6552010">
        <ele>931.1</ele>
        <time>2022-07-25T13:40:46Z</time>
      </trkpt>
      <trkpt lat="46.0663640" lon="5.6552000">
        <ele>931.1</ele>
        <time>2022-07-25T13:40:47Z</time>
      </trkpt>
      <trkpt lat="46.0663630" lon="5.6552000">
        <ele>931.1</ele>
        <time>2022-07-25T13:40:48Z</time>
      </trkpt>
      <trkpt lat="46.0663630" lon="5.6551990">
        <ele>931.1</ele>
        <time>2022-07-25T13:40:49Z</time>
      </trkpt>
      <trkpt lat="46.0663290" lon="5.6551780">
        <ele>931.1</ele>
        <time>2022-07-25T13:41:23Z</time>
      </trkpt>
      <trkpt lat="46.0663230" lon="5.6551780">
        <ele>931.1</ele>
        <time>2022-07-25T13:41:24Z</time>
      </trkpt>
      <trkpt lat="46.0663200" lon="5.6551780">
        <ele>931.1</ele>
        <time>2022-07-25T13:41:25Z</time>
      </trkpt>
      <trkpt lat="46.0663200" lon="5.6551780">
        <ele>931.1</ele>
        <time>2022-07-25T13:41:26Z</time>
      </trkpt>
      <trkpt lat="46.0663190" lon="5.6551790">
        <ele>931.1</ele>
        <time>2022-07-25T13:41:27Z</time>
      </trkpt>
      <trkpt lat="46.0663200" lon="5.6551790">
        <ele>931.1</ele>
        <time>2022-07-25T13:41:28Z</time>
      </trkpt>
      <trkpt lat="46.0663200" lon="5.6551800">
        <ele>931.1</ele>
        <time>2022-07-25T13:41:29Z</time>
      </trkpt>
      <trkpt lat="46.0663200" lon="5.6551800">
        <ele>931.1</ele>
        <time>2022-07-25T13:41:30Z</time>
      </trkpt>
      <trkpt lat="46.0663200" lon="5.6551800">
        <ele>931.1</ele>
        <time>2022-07-25T13:41:31Z</time>
      </trkpt>
      <trkpt lat="46.0663200" lon="5.6551800">
        <ele>931.1</ele>
        <time>2022-07-25T13:41:32Z</time>
      </trkpt>
      <trkpt lat="46.0663120" lon="5.6551810">
        <ele>931.1</ele>
        <time>2022-07-25T13:41:33Z</time>
      </trkpt>
      <trkpt lat="46.0663090" lon="5.6551850">
        <ele>931.1</ele>
        <time>2022-07-25T13:41:34Z</time>
      </trkpt>
      <trkpt lat="46.0663110" lon="5.6551950">
        <ele>931.1</ele>
        <time>2022-07-25T13:41:35Z</time>
      </trkpt>
      <trkpt lat="46.0663160" lon="5.6552050">
        <ele>931.1</ele>
        <time>2022-07-25T13:41:36Z</time>
      </trkpt>
      <trkpt lat="46.0663180" lon="5.6552140">
        <ele>931.1</ele>
        <time>2022-07-25T13:41:37Z</time>
      </trkpt>
      <trkpt lat="46.0663170" lon="5.6552190">
        <ele>931.1</ele>
        <time>2022-07-25T13:41:38Z</time>
      </trkpt>
      <trkpt lat="46.0663130" lon="5.6552200">
        <ele>931.1</ele>
        <time>2022-07-25T13:41:39Z</time>
      </trkpt>
      <trkpt lat="46.0663090" lon="5.6552190">
        <ele>931.1</ele>
        <time>2022-07-25T13:41:40Z</time>
      </trkpt>
      <trkpt lat="46.0663070" lon="5.6552160">
        <ele>931.1</ele>
        <time>2022-07-25T13:41:41Z</time>
      </trkpt>
      <trkpt lat="46.0663070" lon="5.6552180">
        <ele>931.1</ele>
        <time>2022-07-25T13:41:42Z</time>
      </trkpt>
      <trkpt lat="46.0663110" lon="5.6552270">
        <ele>931.1</ele>
        <time>2022-07-25T13:41:43Z</time>
      </trkpt>
      <trkpt lat="46.0663150" lon="5.6552320">
        <ele>931.2</ele>
        <time>2022-07-25T13:41:44Z</time>
      </trkpt>
      <trkpt lat="46.0663260" lon="5.6552440">
        <ele>931.2</ele>
        <time>2022-07-25T13:41:45Z</time>
      </trkpt>
      <trkpt lat="46.0663370" lon="5.6552540">
        <ele>931.2</ele>
        <time>2022-07-25T13:41:46Z</time>
      </trkpt>
      <trkpt lat="46.0663440" lon="5.6552590">
        <ele>931.2</ele>
        <time>2022-07-25T13:41:47Z</time>
      </trkpt>
      <trkpt lat="46.0663440" lon="5.6552600">
        <ele>931.2</ele>
        <time>2022-07-25T13:41:48Z</time>
      </trkpt>
      <trkpt lat="46.0663390" lon="5.6552610">
        <ele>931.2</ele>
        <time>2022-07-25T13:41:49Z</time>
      </trkpt>
      <trkpt lat="46.0663350" lon="5.6552600">
        <ele>931.2</ele>
        <time>2022-07-25T13:41:50Z</time>
      </trkpt>
      <trkpt lat="46.0663310" lon="5.6552550">
        <ele>931.2</ele>
        <time>2022-07-25T13:41:51Z</time>
      </trkpt>
      <trkpt lat="46.0663280" lon="5.6552470">
        <ele>931.3</ele>
        <time>2022-07-25T13:41:52Z</time>
      </trkpt>
      <trkpt lat="46.0663250" lon="5.6552410">
        <ele>931.3</ele>
        <time>2022-07-25T13:41:53Z</time>
      </trkpt>
      <trkpt lat="46.0663240" lon="5.6552380">
        <ele>931.3</ele>
        <time>2022-07-25T13:41:54Z</time>
      </trkpt>
      <trkpt lat="46.0663240" lon="5.6552360">
        <ele>931.3</ele>
        <time>2022-07-25T13:41:55Z</time>
      </trkpt>
      <trkpt lat="46.0663240" lon="5.6552360">
        <ele>931.3</ele>
        <time>2022-07-25T13:41:56Z</time>
      </trkpt>
      <trkpt lat="46.0663250" lon="5.6552360">
        <ele>931.3</ele>
        <time>2022-07-25T13:41:57Z</time>
      </trkpt>
      <trkpt lat="46.0663260" lon="5.6552360">
        <ele>931.3</ele>
        <time>2022-07-25T13:41:58Z</time>
      </trkpt>
      <trkpt lat="46.0663260" lon="5.6552360">
        <ele>931.3</ele>
        <time>2022-07-25T13:41:59Z</time>
      </trkpt>
      <trkpt lat="46.0663260" lon="5.6552360">
        <ele>931.3</ele>
        <time>2022-07-25T13:42:00Z</time>
      </trkpt>
      <trkpt lat="46.0663260" lon="5.6552360">
        <ele>931.3</ele>
        <time>2022-07-25T13:42:01Z</time>
      </trkpt>
      <trkpt lat="46.0663260" lon="5.6552360">
        <ele>931.3</ele>
        <time>2022-07-25T13:42:02Z</time>
      </trkpt>
      <trkpt lat="46.0663260" lon="5.6552360">
        <ele>931.3</ele>
        <time>2022-07-25T13:42:03Z</time>
      </trkpt>
      <trkpt lat="46.0663260" lon="5.6552360">
        <ele>931.3</ele>
        <time>2022-07-25T13:42:04Z</time>
      </trkpt>
      <trkpt lat="46.0663080" lon="5.6552350">
        <ele>931.3</ele>
        <time>2022-07-25T13:42:30Z</time>
      </trkpt>
      <trkpt lat="46.0662950" lon="5.6552430">
        <ele>931.3</ele>
        <time>2022-07-25T13:42:31Z</time>
      </trkpt>
      <trkpt lat="46.0662850" lon="5.6552480">
        <ele>931.4</ele>
        <time>2022-07-25T13:42:32Z</time>
      </trkpt>
      <trkpt lat="46.0662750" lon="5.6552520">
        <ele>931.4</ele>
        <time>2022-07-25T13:42:33Z</time>
      </trkpt>
      <trkpt lat="46.0662590" lon="5.6552410">
        <ele>931.4</ele>
        <time>2022-07-25T13:42:35Z</time>
      </trkpt>
      <trkpt lat="46.0662530" lon="5.6552320">
        <ele>931.5</ele>
        <time>2022-07-25T13:42:36Z</time>
      </trkpt>
      <trkpt lat="46.0662480" lon="5.6552220">
        <ele>931.5</ele>
        <time>2022-07-25T13:42:37Z</time>
      </trkpt>
      <trkpt lat="46.0662430" lon="5.6552130">
        <ele>931.5</ele>
        <time>2022-07-25T13:42:38Z</time>
      </trkpt>
      <trkpt lat="46.0662200" lon="5.6551750">
        <ele>931.6</ele>
        <time>2022-07-25T13:42:39Z</time>
      </trkpt>
      <trkpt lat="46.0662120" lon="5.6551630">
        <ele>931.6</ele>
        <time>2022-07-25T13:42:40Z</time>
      </trkpt>
      <trkpt lat="46.0661780" lon="5.6551150">
        <ele>931.8</ele>
        <time>2022-07-25T13:42:42Z</time>
      </trkpt>
      <trkpt lat="46.0661560" lon="5.6550760">
        <ele>931.9</ele>
        <time>2022-07-25T13:42:43Z</time>
      </trkpt>
      <trkpt lat="46.0661310" lon="5.6550340">
        <ele>932.0</ele>
        <time>2022-07-25T13:42:44Z</time>
      </trkpt>
      <trkpt lat="46.0660910" lon="5.6549820">
        <ele>932.1</ele>
        <time>2022-07-25T13:42:46Z</time>
      </trkpt>
      <trkpt lat="46.0660670" lon="5.6549570">
        <ele>932.2</ele>
        <time>2022-07-25T13:42:47Z</time>
      </trkpt>
      <trkpt lat="46.0660430" lon="5.6549250">
        <ele>932.2</ele>
        <time>2022-07-25T13:42:48Z</time>
      </trkpt>
      <trkpt lat="46.0660250" lon="5.6548950">
        <ele>932.3</ele>
        <time>2022-07-25T13:42:49Z</time>
      </trkpt>
      <trkpt lat="46.0660100" lon="5.6548620">
        <ele>932.3</ele>
        <time>2022-07-25T13:42:50Z</time>
      </trkpt>
      <trkpt lat="46.0659950" lon="5.6548100">
        <ele>932.4</ele>
        <time>2022-07-25T13:42:51Z</time>
      </trkpt>
      <trkpt lat="46.0659920" lon="5.6547920">
        <ele>932.4</ele>
        <time>2022-07-25T13:42:52Z</time>
      </trkpt>
      <trkpt lat="46.0659920" lon="5.6547380">
        <ele>932.4</ele>
        <time>2022-07-25T13:42:53Z</time>
      </trkpt>
      <trkpt lat="46.0659930" lon="5.6547210">
        <ele>932.4</ele>
        <time>2022-07-25T13:42:54Z</time>
      </trkpt>
      <trkpt lat="46.0659920" lon="5.6546750">
        <ele>932.4</ele>
        <time>2022-07-25T13:42:55Z</time>
      </trkpt>
      <trkpt lat="46.0659890" lon="5.6546570">
        <ele>932.5</ele>
        <time>2022-07-25T13:42:56Z</time>
      </trkpt>
      <trkpt lat="46.0659860" lon="5.6546090">
        <ele>932.5</ele>
        <time>2022-07-25T13:42:58Z</time>
      </trkpt>
      <trkpt lat="46.0659770" lon="5.6545680">
        <ele>932.5</ele>
        <time>2022-07-25T13:42:59Z</time>
      </trkpt>
      <trkpt lat="46.0659620" lon="5.6545320">
        <ele>932.5</ele>
        <time>2022-07-25T13:43:00Z</time>
      </trkpt>
      <trkpt lat="46.0659410" lon="5.6544720">
        <ele>932.6</ele>
        <time>2022-07-25T13:43:02Z</time>
      </trkpt>
      <trkpt lat="46.0659340" lon="5.6544560">
        <ele>932.6</ele>
        <time>2022-07-25T13:43:03Z</time>
      </trkpt>
      <trkpt lat="46.0659270" lon="5.6544400">
        <ele>932.6</ele>
        <time>2022-07-25T13:43:04Z</time>
      </trkpt>
      <trkpt lat="46.0659060" lon="5.6544010">
        <ele>932.6</ele>
        <time>2022-07-25T13:43:05Z</time>
      </trkpt>
      <trkpt lat="46.0658990" lon="5.6543820">
        <ele>932.6</ele>
        <time>2022-07-25T13:43:06Z</time>
      </trkpt>
      <trkpt lat="46.0658890" lon="5.6543480">
        <ele>932.6</ele>
        <time>2022-07-25T13:43:07Z</time>
      </trkpt>
      <trkpt lat="46.0658780" lon="5.6543070">
        <ele>932.6</ele>
        <time>2022-07-25T13:43:09Z</time>
      </trkpt>
      <trkpt lat="46.0658710" lon="5.6542570">
        <ele>932.6</ele>
        <time>2022-07-25T13:43:10Z</time>
      </trkpt>
      <trkpt lat="46.0658610" lon="5.6542060">
        <ele>932.6</ele>
        <time>2022-07-25T13:43:12Z</time>
      </trkpt>
      <trkpt lat="46.0658430" lon="5.6541640">
        <ele>932.6</ele>
        <time>2022-07-25T13:43:13Z</time>
      </trkpt>
      <trkpt lat="46.0658200" lon="5.6541200">
        <ele>932.6</ele>
        <time>2022-07-25T13:43:14Z</time>
      </trkpt>
      <trkpt lat="46.0658010" lon="5.6540770">
        <ele>932.6</ele>
        <time>2022-07-25T13:43:15Z</time>
      </trkpt>
      <trkpt lat="46.0657840" lon="5.6540330">
        <ele>932.5</ele>
        <time>2022-07-25T13:43:16Z</time>
      </trkpt>
      <trkpt lat="46.0657700" lon="5.6539970">
        <ele>932.5</ele>
        <time>2022-07-25T13:43:17Z</time>
      </trkpt>
      <trkpt lat="46.0657460" lon="5.6539440">
        <ele>932.4</ele>
        <time>2022-07-25T13:43:19Z</time>
      </trkpt>
      <trkpt lat="46.0657260" lon="5.6538850">
        <ele>932.3</ele>
        <time>2022-07-25T13:43:20Z</time>
      </trkpt>
      <trkpt lat="46.0657170" lon="5.6538610">
        <ele>932.3</ele>
        <time>2022-07-25T13:43:21Z</time>
      </trkpt>
      <trkpt lat="46.0657020" lon="5.6538220">
        <ele>932.2</ele>
        <time>2022-07-25T13:43:22Z</time>
      </trkpt>
      <trkpt lat="46.0656830" lon="5.6537770">
        <ele>932.1</ele>
        <time>2022-07-25T13:43:23Z</time>
      </trkpt>
      <trkpt lat="46.0656760" lon="5.6537600">
        <ele>932.1</ele>
        <time>2022-07-25T13:43:24Z</time>
      </trkpt>
      <trkpt lat="46.0656600" lon="5.6536890">
        <ele>931.9</ele>
        <time>2022-07-25T13:43:25Z</time>
      </trkpt>
      <trkpt lat="46.0656510" lon="5.6536080">
        <ele>931.8</ele>
        <time>2022-07-25T13:43:27Z</time>
      </trkpt>
      <trkpt lat="46.0656490" lon="5.6535440">
        <ele>931.7</ele>
        <time>2022-07-25T13:43:28Z</time>
      </trkpt>
      <trkpt lat="46.0656480" lon="5.6534770">
        <ele>931.6</ele>
        <time>2022-07-25T13:43:29Z</time>
      </trkpt>
      <trkpt lat="46.0656520" lon="5.6534160">
        <ele>931.5</ele>
        <time>2022-07-25T13:43:30Z</time>
      </trkpt>
      <trkpt lat="46.0656560" lon="5.6533510">
        <ele>931.3</ele>
        <time>2022-07-25T13:43:31Z</time>
      </trkpt>
      <trkpt lat="46.0656550" lon="5.6532910">
        <ele>931.2</ele>
        <time>2022-07-25T13:43:32Z</time>
      </trkpt>
      <trkpt lat="46.0656580" lon="5.6532380">
        <ele>931.2</ele>
        <time>2022-07-25T13:43:33Z</time>
      </trkpt>
      <trkpt lat="46.0656590" lon="5.6531870">
        <ele>931.1</ele>
        <time>2022-07-25T13:43:34Z</time>
      </trkpt>
      <trkpt lat="46.0655950" lon="5.6530960">
        <ele>930.9</ele>
        <time>2022-07-25T13:43:35Z</time>
      </trkpt>
      <trkpt lat="46.0655540" lon="5.6530480">
        <ele>930.8</ele>
        <time>2022-07-25T13:43:37Z</time>
      </trkpt>
      <trkpt lat="46.0655110" lon="5.6530070">
        <ele>930.7</ele>
        <time>2022-07-25T13:43:38Z</time>
      </trkpt>
      <trkpt lat="46.0653470" lon="5.6528610">
        <ele>930.7</ele>
        <time>2022-07-25T13:43:39Z</time>
      </trkpt>
      <trkpt lat="46.0652630" lon="5.6528040">
        <ele>930.8</ele>
        <time>2022-07-25T13:43:40Z</time>
      </trkpt>
      <trkpt lat="46.0652160" lon="5.6527780">
        <ele>930.9</ele>
        <time>2022-07-25T13:43:41Z</time>
      </trkpt>
      <trkpt lat="46.0651780" lon="5.6527490">
        <ele>931.0</ele>
        <time>2022-07-25T13:43:42Z</time>
      </trkpt>
      <trkpt lat="46.0651510" lon="5.6527120">
        <ele>931.1</ele>
        <time>2022-07-25T13:43:43Z</time>
      </trkpt>
      <trkpt lat="46.0651340" lon="5.6526970">
        <ele>931.2</ele>
        <time>2022-07-25T13:43:44Z</time>
      </trkpt>
      <trkpt lat="46.0651000" lon="5.6526710">
        <ele>931.4</ele>
        <time>2022-07-25T13:43:45Z</time>
      </trkpt>
      <trkpt lat="46.0650500" lon="5.6526290">
        <ele>931.7</ele>
        <time>2022-07-25T13:43:46Z</time>
      </trkpt>
      <trkpt lat="46.0650040" lon="5.6525870">
        <ele>932.0</ele>
        <time>2022-07-25T13:43:47Z</time>
      </trkpt>
      <trkpt lat="46.0649720" lon="5.6525550">
        <ele>932.3</ele>
        <time>2022-07-25T13:43:48Z</time>
      </trkpt>
      <trkpt lat="46.0649400" lon="5.6525070">
        <ele>932.6</ele>
        <time>2022-07-25T13:43:49Z</time>
      </trkpt>
      <trkpt lat="46.0649130" lon="5.6524710">
        <ele>932.8</ele>
        <time>2022-07-25T13:43:50Z</time>
      </trkpt>
      <trkpt lat="46.0648660" lon="5.6524160">
        <ele>933.1</ele>
        <time>2022-07-25T13:43:52Z</time>
      </trkpt>
      <trkpt lat="46.0648370" lon="5.6523640">
        <ele>933.2</ele>
        <time>2022-07-25T13:43:53Z</time>
      </trkpt>
      <trkpt lat="46.0648110" lon="5.6523070">
        <ele>933.4</ele>
        <time>2022-07-25T13:43:54Z</time>
      </trkpt>
      <trkpt lat="46.0647860" lon="5.6522560">
        <ele>933.5</ele>
        <time>2022-07-25T13:43:56Z</time>
      </trkpt>
      <trkpt lat="46.0647620" lon="5.6522120">
        <ele>933.5</ele>
        <time>2022-07-25T13:43:57Z</time>
      </trkpt>
      <trkpt lat="46.0647400" lon="5.6521810">
        <ele>933.5</ele>
        <time>2022-07-25T13:43:58Z</time>
      </trkpt>
      <trkpt lat="46.0647320" lon="5.6521720">
        <ele>933.5</ele>
        <time>2022-07-25T13:43:59Z</time>
      </trkpt>
      <trkpt lat="46.0647030" lon="5.6521440">
        <ele>933.6</ele>
        <time>2022-07-25T13:44:01Z</time>
      </trkpt>
      <trkpt lat="46.0646920" lon="5.6521190">
        <ele>933.6</ele>
        <time>2022-07-25T13:44:02Z</time>
      </trkpt>
      <trkpt lat="46.0646690" lon="5.6520860">
        <ele>933.6</ele>
        <time>2022-07-25T13:44:04Z</time>
      </trkpt>
      <trkpt lat="46.0646430" lon="5.6520530">
        <ele>933.6</ele>
        <time>2022-07-25T13:44:05Z</time>
      </trkpt>
      <trkpt lat="46.0646200" lon="5.6520160">
        <ele>933.6</ele>
        <time>2022-07-25T13:44:06Z</time>
      </trkpt>
      <trkpt lat="46.0646010" lon="5.6519860">
        <ele>933.6</ele>
        <time>2022-07-25T13:44:07Z</time>
      </trkpt>
      <trkpt lat="46.0645740" lon="5.6519380">
        <ele>933.6</ele>
        <time>2022-07-25T13:44:09Z</time>
      </trkpt>
      <trkpt lat="46.0645490" lon="5.6519010">
        <ele>933.6</ele>
        <time>2022-07-25T13:44:10Z</time>
      </trkpt>
      <trkpt lat="46.0645200" lon="5.6518650">
        <ele>933.6</ele>
        <time>2022-07-25T13:44:11Z</time>
      </trkpt>
      <trkpt lat="46.0645070" lon="5.6518470">
        <ele>933.6</ele>
        <time>2022-07-25T13:44:12Z</time>
      </trkpt>
      <trkpt lat="46.0644930" lon="5.6518280">
        <ele>933.6</ele>
        <time>2022-07-25T13:44:14Z</time>
      </trkpt>
      <trkpt lat="46.0644720" lon="5.6517920">
        <ele>933.6</ele>
        <time>2022-07-25T13:44:15Z</time>
      </trkpt>
      <trkpt lat="46.0644670" lon="5.6517830">
        <ele>933.6</ele>
        <time>2022-07-25T13:44:16Z</time>
      </trkpt>
      <trkpt lat="46.0644550" lon="5.6517630">
        <ele>933.6</ele>
        <time>2022-07-25T13:44:17Z</time>
      </trkpt>
      <trkpt lat="46.0644460" lon="5.6517440">
        <ele>933.6</ele>
        <time>2022-07-25T13:44:18Z</time>
      </trkpt>
      <trkpt lat="46.0644280" lon="5.6517000">
        <ele>933.6</ele>
        <time>2022-07-25T13:44:19Z</time>
      </trkpt>
      <trkpt lat="46.0644060" lon="5.6516420">
        <ele>933.5</ele>
        <time>2022-07-25T13:44:20Z</time>
      </trkpt>
      <trkpt lat="46.0643970" lon="5.6515820">
        <ele>933.5</ele>
        <time>2022-07-25T13:44:22Z</time>
      </trkpt>
      <trkpt lat="46.0643680" lon="5.6515060">
        <ele>933.4</ele>
        <time>2022-07-25T13:44:23Z</time>
      </trkpt>
      <trkpt lat="46.0643310" lon="5.6514340">
        <ele>933.3</ele>
        <time>2022-07-25T13:44:25Z</time>
      </trkpt>
      <trkpt lat="46.0642980" lon="5.6513580">
        <ele>933.2</ele>
        <time>2022-07-25T13:44:26Z</time>
      </trkpt>
      <trkpt lat="46.0642690" lon="5.6512840">
        <ele>933.0</ele>
        <time>2022-07-25T13:44:27Z</time>
      </trkpt>
      <trkpt lat="46.0642480" lon="5.6512190">
        <ele>932.9</ele>
        <time>2022-07-25T13:44:28Z</time>
      </trkpt>
      <trkpt lat="46.0642300" lon="5.6511390">
        <ele>932.8</ele>
        <time>2022-07-25T13:44:29Z</time>
      </trkpt>
      <trkpt lat="46.0642170" lon="5.6510820">
        <ele>932.7</ele>
        <time>2022-07-25T13:44:30Z</time>
      </trkpt>
      <trkpt lat="46.0641900" lon="5.6510000">
        <ele>932.5</ele>
        <time>2022-07-25T13:44:32Z</time>
      </trkpt>
      <trkpt lat="46.0641610" lon="5.6509130">
        <ele>932.3</ele>
        <time>2022-07-25T13:44:33Z</time>
      </trkpt>
      <trkpt lat="46.0641410" lon="5.6508660">
        <ele>932.2</ele>
        <time>2022-07-25T13:44:34Z</time>
      </trkpt>
      <trkpt lat="46.0641090" lon="5.6508150">
        <ele>932.1</ele>
        <time>2022-07-25T13:44:35Z</time>
      </trkpt>
      <trkpt lat="46.0640680" lon="5.6507340">
        <ele>932.0</ele>
        <time>2022-07-25T13:44:37Z</time>
      </trkpt>
      <trkpt lat="46.0640490" lon="5.6506940">
        <ele>931.9</ele>
        <time>2022-07-25T13:44:38Z</time>
      </trkpt>
      <trkpt lat="46.0640240" lon="5.6506510">
        <ele>931.9</ele>
        <time>2022-07-25T13:44:39Z</time>
      </trkpt>
      <trkpt lat="46.0639840" lon="5.6505880">
        <ele>931.9</ele>
        <time>2022-07-25T13:44:40Z</time>
      </trkpt>
      <trkpt lat="46.0639580" lon="5.6505510">
        <ele>931.9</ele>
        <time>2022-07-25T13:44:41Z</time>
      </trkpt>
      <trkpt lat="46.0639280" lon="5.6505010">
        <ele>932.0</ele>
        <time>2022-07-25T13:44:42Z</time>
      </trkpt>
      <trkpt lat="46.0638940" lon="5.6504410">
        <ele>932.0</ele>
        <time>2022-07-25T13:44:43Z</time>
      </trkpt>
      <trkpt lat="46.0638650" lon="5.6503850">
        <ele>932.1</ele>
        <time>2022-07-25T13:44:44Z</time>
      </trkpt>
      <trkpt lat="46.0638430" lon="5.6503440">
        <ele>932.1</ele>
        <time>2022-07-25T13:44:45Z</time>
      </trkpt>
      <trkpt lat="46.0638050" lon="5.6502860">
        <ele>932.1</ele>
        <time>2022-07-25T13:44:46Z</time>
      </trkpt>
      <trkpt lat="46.0637580" lon="5.6502250">
        <ele>932.2</ele>
        <time>2022-07-25T13:44:47Z</time>
      </trkpt>
      <trkpt lat="46.0637220" lon="5.6501770">
        <ele>932.3</ele>
        <time>2022-07-25T13:44:49Z</time>
      </trkpt>
      <trkpt lat="46.0636750" lon="5.6501230">
        <ele>932.4</ele>
        <time>2022-07-25T13:44:50Z</time>
      </trkpt>
      <trkpt lat="46.0636410" lon="5.6500840">
        <ele>932.4</ele>
        <time>2022-07-25T13:44:51Z</time>
      </trkpt>
      <trkpt lat="46.0636060" lon="5.6500400">
        <ele>932.4</ele>
        <time>2022-07-25T13:44:53Z</time>
      </trkpt>
      <trkpt lat="46.0635620" lon="5.6499860">
        <ele>932.4</ele>
        <time>2022-07-25T13:44:54Z</time>
      </trkpt>
      <trkpt lat="46.0635200" lon="5.6499360">
        <ele>932.3</ele>
        <time>2022-07-25T13:44:55Z</time>
      </trkpt>
      <trkpt lat="46.0634880" lon="5.6498910">
        <ele>932.2</ele>
        <time>2022-07-25T13:44:56Z</time>
      </trkpt>
      <trkpt lat="46.0634780" lon="5.6498380">
        <ele>932.0</ele>
        <time>2022-07-25T13:44:57Z</time>
      </trkpt>
      <trkpt lat="46.0634120" lon="5.6497000">
        <ele>931.3</ele>
        <time>2022-07-25T13:44:59Z</time>
      </trkpt>
      <trkpt lat="46.0633440" lon="5.6496120">
        <ele>930.5</ele>
        <time>2022-07-25T13:45:00Z</time>
      </trkpt>
      <trkpt lat="46.0632780" lon="5.6495230">
        <ele>929.8</ele>
        <time>2022-07-25T13:45:01Z</time>
      </trkpt>
      <trkpt lat="46.0632140" lon="5.6494420">
        <ele>929.1</ele>
        <time>2022-07-25T13:45:02Z</time>
      </trkpt>
      <trkpt lat="46.0631560" lon="5.6493600">
        <ele>928.4</ele>
        <time>2022-07-25T13:45:03Z</time>
      </trkpt>
      <trkpt lat="46.0631060" lon="5.6492710">
        <ele>927.8</ele>
        <time>2022-07-25T13:45:04Z</time>
      </trkpt>
      <trkpt lat="46.0630610" lon="5.6492020">
        <ele>927.3</ele>
        <time>2022-07-25T13:45:05Z</time>
      </trkpt>
      <trkpt lat="46.0630290" lon="5.6491500">
        <ele>926.9</ele>
        <time>2022-07-25T13:45:06Z</time>
      </trkpt>
      <trkpt lat="46.0630040" lon="5.6490870">
        <ele>926.5</ele>
        <time>2022-07-25T13:45:08Z</time>
      </trkpt>
      <trkpt lat="46.0629770" lon="5.6490410">
        <ele>926.1</ele>
        <time>2022-07-25T13:45:09Z</time>
      </trkpt>
      <trkpt lat="46.0629410" lon="5.6489910">
        <ele>925.7</ele>
        <time>2022-07-25T13:45:10Z</time>
      </trkpt>
      <trkpt lat="46.0628690" lon="5.6488950">
        <ele>924.8</ele>
        <time>2022-07-25T13:45:12Z</time>
      </trkpt>
      <trkpt lat="46.0628420" lon="5.6488460">
        <ele>924.4</ele>
        <time>2022-07-25T13:45:14Z</time>
      </trkpt>
      <trkpt lat="46.0628240" lon="5.6488070">
        <ele>924.1</ele>
        <time>2022-07-25T13:45:15Z</time>
      </trkpt>
      <trkpt lat="46.0627990" lon="5.6487540">
        <ele>923.6</ele>
        <time>2022-07-25T13:45:17Z</time>
      </trkpt>
      <trkpt lat="46.0627680" lon="5.6487210">
        <ele>923.2</ele>
        <time>2022-07-25T13:45:18Z</time>
      </trkpt>
      <trkpt lat="46.0627430" lon="5.6486930">
        <ele>922.8</ele>
        <time>2022-07-25T13:45:19Z</time>
      </trkpt>
      <trkpt lat="46.0627080" lon="5.6486610">
        <ele>922.3</ele>
        <time>2022-07-25T13:45:20Z</time>
      </trkpt>
      <trkpt lat="46.0626690" lon="5.6486410">
        <ele>921.9</ele>
        <time>2022-07-25T13:45:21Z</time>
      </trkpt>
      <trkpt lat="46.0626340" lon="5.6486240">
        <ele>921.4</ele>
        <time>2022-07-25T13:45:22Z</time>
      </trkpt>
      <trkpt lat="46.0626090" lon="5.6485960">
        <ele>921.0</ele>
        <time>2022-07-25T13:45:23Z</time>
      </trkpt>
      <trkpt lat="46.0625940" lon="5.6485640">
        <ele>920.7</ele>
        <time>2022-07-25T13:45:24Z</time>
      </trkpt>
      <trkpt lat="46.0625800" lon="5.6485180">
        <ele>920.3</ele>
        <time>2022-07-25T13:45:25Z</time>
      </trkpt>
      <trkpt lat="46.0625690" lon="5.6484740">
        <ele>920.0</ele>
        <time>2022-07-25T13:45:26Z</time>
      </trkpt>
      <trkpt lat="46.0625410" lon="5.6483810">
        <ele>919.3</ele>
        <time>2022-07-25T13:45:27Z</time>
      </trkpt>
      <trkpt lat="46.0625130" lon="5.6483310">
        <ele>918.9</ele>
        <time>2022-07-25T13:45:28Z</time>
      </trkpt>
      <trkpt lat="46.0624760" lon="5.6482500">
        <ele>918.2</ele>
        <time>2022-07-25T13:45:29Z</time>
      </trkpt>
      <trkpt lat="46.0624390" lon="5.6481860">
        <ele>917.7</ele>
        <time>2022-07-25T13:45:30Z</time>
      </trkpt>
      <trkpt lat="46.0624010" lon="5.6481130">
        <ele>917.1</ele>
        <time>2022-07-25T13:45:31Z</time>
      </trkpt>
      <trkpt lat="46.0623660" lon="5.6480630">
        <ele>916.7</ele>
        <time>2022-07-25T13:45:32Z</time>
      </trkpt>
      <trkpt lat="46.0623510" lon="5.6480150">
        <ele>916.4</ele>
        <time>2022-07-25T13:45:33Z</time>
      </trkpt>
      <trkpt lat="46.0623380" lon="5.6479200">
        <ele>915.7</ele>
        <time>2022-07-25T13:45:35Z</time>
      </trkpt>
      <trkpt lat="46.0623350" lon="5.6478410">
        <ele>915.2</ele>
        <time>2022-07-25T13:45:36Z</time>
      </trkpt>
      <trkpt lat="46.0623580" lon="5.6477750">
        <ele>914.8</ele>
        <time>2022-07-25T13:45:37Z</time>
      </trkpt>
      <trkpt lat="46.0623820" lon="5.6477270">
        <ele>914.5</ele>
        <time>2022-07-25T13:45:38Z</time>
      </trkpt>
      <trkpt lat="46.0623930" lon="5.6476840">
        <ele>914.2</ele>
        <time>2022-07-25T13:45:39Z</time>
      </trkpt>
      <trkpt lat="46.0623980" lon="5.6476330">
        <ele>913.9</ele>
        <time>2022-07-25T13:45:41Z</time>
      </trkpt>
      <trkpt lat="46.0624050" lon="5.6476120">
        <ele>913.8</ele>
        <time>2022-07-25T13:45:42Z</time>
      </trkpt>
      <trkpt lat="46.0624020" lon="5.6476130">
        <ele>913.8</ele>
        <time>2022-07-25T13:45:43Z</time>
      </trkpt>
      <trkpt lat="46.0624010" lon="5.6476150">
        <ele>913.7</ele>
        <time>2022-07-25T13:45:44Z</time>
      </trkpt>
      <trkpt lat="46.0624010" lon="5.6476150">
        <ele>913.7</ele>
        <time>2022-07-25T13:45:45Z</time>
      </trkpt>
      <trkpt lat="46.0624020" lon="5.6476160">
        <ele>913.7</ele>
        <time>2022-07-25T13:45:46Z</time>
      </trkpt>
      <trkpt lat="46.0624020" lon="5.6476160">
        <ele>913.7</ele>
        <time>2022-07-25T13:45:47Z</time>
      </trkpt>
      <trkpt lat="46.0624020" lon="5.6476140">
        <ele>913.7</ele>
        <time>2022-07-25T13:45:48Z</time>
      </trkpt>
      <trkpt lat="46.0624020" lon="5.6476130">
        <ele>913.7</ele>
        <time>2022-07-25T13:45:49Z</time>
      </trkpt>
      <trkpt lat="46.0624020" lon="5.6476120">
        <ele>913.7</ele>
        <time>2022-07-25T13:45:50Z</time>
      </trkpt>
      <trkpt lat="46.0624020" lon="5.6476110">
        <ele>913.7</ele>
        <time>2022-07-25T13:45:51Z</time>
      </trkpt>
      <trkpt lat="46.0624050" lon="5.6475840">
        <ele>913.6</ele>
        <time>2022-07-25T13:46:05Z</time>
      </trkpt>
      <trkpt lat="46.0624100" lon="5.6475460">
        <ele>913.4</ele>
        <time>2022-07-25T13:46:06Z</time>
      </trkpt>
      <trkpt lat="46.0624150" lon="5.6474980">
        <ele>913.2</ele>
        <time>2022-07-25T13:46:07Z</time>
      </trkpt>
      <trkpt lat="46.0624260" lon="5.6474510">
        <ele>912.9</ele>
        <time>2022-07-25T13:46:08Z</time>
      </trkpt>
      <trkpt lat="46.0624400" lon="5.6474110">
        <ele>912.7</ele>
        <time>2022-07-25T13:46:09Z</time>
      </trkpt>
      <trkpt lat="46.0624580" lon="5.6473690">
        <ele>912.5</ele>
        <time>2022-07-25T13:46:10Z</time>
      </trkpt>
      <trkpt lat="46.0624860" lon="5.6473130">
        <ele>912.1</ele>
        <time>2022-07-25T13:46:11Z</time>
      </trkpt>
      <trkpt lat="46.0625070" lon="5.6472590">
        <ele>911.8</ele>
        <time>2022-07-25T13:46:12Z</time>
      </trkpt>
      <trkpt lat="46.0625230" lon="5.6472060">
        <ele>911.5</ele>
        <time>2022-07-25T13:46:13Z</time>
      </trkpt>
      <trkpt lat="46.0625360" lon="5.6471480">
        <ele>911.2</ele>
        <time>2022-07-25T13:46:14Z</time>
      </trkpt>
      <trkpt lat="46.0625480" lon="5.6470690">
        <ele>910.8</ele>
        <time>2022-07-25T13:46:15Z</time>
      </trkpt>
      <trkpt lat="46.0625580" lon="5.6468870">
        <ele>910.0</ele>
        <time>2022-07-25T13:46:17Z</time>
      </trkpt>
      <trkpt lat="46.0625390" lon="5.6468290">
        <ele>909.7</ele>
        <time>2022-07-25T13:46:18Z</time>
      </trkpt>
      <trkpt lat="46.0625110" lon="5.6467300">
        <ele>909.3</ele>
        <time>2022-07-25T13:46:19Z</time>
      </trkpt>
      <trkpt lat="46.0624880" lon="5.6466260">
        <ele>909.1</ele>
        <time>2022-07-25T13:46:20Z</time>
      </trkpt>
      <trkpt lat="46.0624770" lon="5.6465050">
        <ele>908.9</ele>
        <time>2022-07-25T13:46:21Z</time>
      </trkpt>
      <trkpt lat="46.0624740" lon="5.6463620">
        <ele>908.8</ele>
        <time>2022-07-25T13:46:22Z</time>
      </trkpt>
      <trkpt lat="46.0624530" lon="5.6462440">
        <ele>908.8</ele>
        <time>2022-07-25T13:46:23Z</time>
      </trkpt>
      <trkpt lat="46.0624340" lon="5.6461450">
        <ele>908.9</ele>
        <time>2022-07-25T13:46:24Z</time>
      </trkpt>
      <trkpt lat="46.0624180" lon="5.6460500">
        <ele>909.0</ele>
        <time>2022-07-25T13:46:25Z</time>
      </trkpt>
      <trkpt lat="46.0624070" lon="5.6459680">
        <ele>909.1</ele>
        <time>2022-07-25T13:46:26Z</time>
      </trkpt>
      <trkpt lat="46.0624010" lon="5.6458880">
        <ele>909.2</ele>
        <time>2022-07-25T13:46:27Z</time>
      </trkpt>
      <trkpt lat="46.0623910" lon="5.6458220">
        <ele>909.4</ele>
        <time>2022-07-25T13:46:28Z</time>
      </trkpt>
      <trkpt lat="46.0623930" lon="5.6457460">
        <ele>909.6</ele>
        <time>2022-07-25T13:46:30Z</time>
      </trkpt>
      <trkpt lat="46.0623720" lon="5.6456670">
        <ele>909.8</ele>
        <time>2022-07-25T13:46:31Z</time>
      </trkpt>
      <trkpt lat="46.0623590" lon="5.6456140">
        <ele>910.1</ele>
        <time>2022-07-25T13:46:32Z</time>
      </trkpt>
      <trkpt lat="46.0623410" lon="5.6455770">
        <ele>910.3</ele>
        <time>2022-07-25T13:46:33Z</time>
      </trkpt>
      <trkpt lat="46.0623220" lon="5.6455310">
        <ele>910.6</ele>
        <time>2022-07-25T13:46:35Z</time>
      </trkpt>
      <trkpt lat="46.0623070" lon="5.6454960">
        <ele>910.8</ele>
        <time>2022-07-25T13:46:36Z</time>
      </trkpt>
      <trkpt lat="46.0622990" lon="5.6454810">
        <ele>910.9</ele>
        <time>2022-07-25T13:46:37Z</time>
      </trkpt>
      <trkpt lat="46.0622850" lon="5.6454450">
        <ele>911.1</ele>
        <time>2022-07-25T13:46:38Z</time>
      </trkpt>
      <trkpt lat="46.0622820" lon="5.6454350">
        <ele>911.1</ele>
        <time>2022-07-25T13:46:39Z</time>
      </trkpt>
      <trkpt lat="46.0622680" lon="5.6453930">
        <ele>910.9</ele>
        <time>2022-07-25T13:46:41Z</time>
      </trkpt>
      <trkpt lat="46.0622650" lon="5.6453800">
        <ele>910.9</ele>
        <time>2022-07-25T13:46:42Z</time>
      </trkpt>
      <trkpt lat="46.0622540" lon="5.6453460">
        <ele>910.7</ele>
        <time>2022-07-25T13:46:43Z</time>
      </trkpt>
      <trkpt lat="46.0622490" lon="5.6453310">
        <ele>910.7</ele>
        <time>2022-07-25T13:46:44Z</time>
      </trkpt>
      <trkpt lat="46.0622450" lon="5.6452860">
        <ele>910.5</ele>
        <time>2022-07-25T13:46:45Z</time>
      </trkpt>
      <trkpt lat="46.0622460" lon="5.6452700">
        <ele>910.4</ele>
        <time>2022-07-25T13:46:46Z</time>
      </trkpt>
      <trkpt lat="46.0622420" lon="5.6452170">
        <ele>910.3</ele>
        <time>2022-07-25T13:46:47Z</time>
      </trkpt>
      <trkpt lat="46.0622380" lon="5.6452000">
        <ele>910.2</ele>
        <time>2022-07-25T13:46:48Z</time>
      </trkpt>
      <trkpt lat="46.0622240" lon="5.6451520">
        <ele>910.0</ele>
        <time>2022-07-25T13:46:50Z</time>
      </trkpt>
      <trkpt lat="46.0622190" lon="5.6451360">
        <ele>909.9</ele>
        <time>2022-07-25T13:46:51Z</time>
      </trkpt>
      <trkpt lat="46.0622100" lon="5.6450970">
        <ele>909.8</ele>
        <time>2022-07-25T13:46:52Z</time>
      </trkpt>
      <trkpt lat="46.0622060" lon="5.6450800">
        <ele>909.7</ele>
        <time>2022-07-25T13:46:53Z</time>
      </trkpt>
      <trkpt lat="46.0621930" lon="5.6450360">
        <ele>909.5</ele>
        <time>2022-07-25T13:46:54Z</time>
      </trkpt>
      <trkpt lat="46.0621880" lon="5.6450210">
        <ele>909.5</ele>
        <time>2022-07-25T13:46:55Z</time>
      </trkpt>
      <trkpt lat="46.0621820" lon="5.6449980">
        <ele>909.4</ele>
        <time>2022-07-25T13:46:56Z</time>
      </trkpt>
      <trkpt lat="46.0621800" lon="5.6449740">
        <ele>909.3</ele>
        <time>2022-07-25T13:46:57Z</time>
      </trkpt>
      <trkpt lat="46.0621730" lon="5.6449290">
        <ele>909.2</ele>
        <time>2022-07-25T13:46:58Z</time>
      </trkpt>
      <trkpt lat="46.0621710" lon="5.6449140">
        <ele>909.1</ele>
        <time>2022-07-25T13:46:59Z</time>
      </trkpt>
      <trkpt lat="46.0621660" lon="5.6448900">
        <ele>909.0</ele>
        <time>2022-07-25T13:47:00Z</time>
      </trkpt>
      <trkpt lat="46.0621600" lon="5.6448650">
        <ele>908.9</ele>
        <time>2022-07-25T13:47:01Z</time>
      </trkpt>
      <trkpt lat="46.0621490" lon="5.6448220">
        <ele>908.8</ele>
        <time>2022-07-25T13:47:02Z</time>
      </trkpt>
      <trkpt lat="46.0621460" lon="5.6448100">
        <ele>908.7</ele>
        <time>2022-07-25T13:47:03Z</time>
      </trkpt>
      <trkpt lat="46.0621410" lon="5.6447840">
        <ele>908.6</ele>
        <time>2022-07-25T13:47:04Z</time>
      </trkpt>
      <trkpt lat="46.0621400" lon="5.6447600">
        <ele>908.6</ele>
        <time>2022-07-25T13:47:05Z</time>
      </trkpt>
      <trkpt lat="46.0621390" lon="5.6447280">
        <ele>908.5</ele>
        <time>2022-07-25T13:47:06Z</time>
      </trkpt>
      <trkpt lat="46.0621380" lon="5.6447170">
        <ele>908.4</ele>
        <time>2022-07-25T13:47:07Z</time>
      </trkpt>
      <trkpt lat="46.0621370" lon="5.6447070">
        <ele>908.4</ele>
        <time>2022-07-25T13:47:08Z</time>
      </trkpt>
      <trkpt lat="46.0621380" lon="5.6446810">
        <ele>908.3</ele>
        <time>2022-07-25T13:47:09Z</time>
      </trkpt>
      <trkpt lat="46.0621380" lon="5.6446640">
        <ele>908.2</ele>
        <time>2022-07-25T13:47:10Z</time>
      </trkpt>
      <trkpt lat="46.0621360" lon="5.6446460">
        <ele>908.2</ele>
        <time>2022-07-25T13:47:11Z</time>
      </trkpt>
      <trkpt lat="46.0621320" lon="5.6446190">
        <ele>908.1</ele>
        <time>2022-07-25T13:47:12Z</time>
      </trkpt>
      <trkpt lat="46.0621230" lon="5.6445670">
        <ele>907.8</ele>
        <time>2022-07-25T13:47:13Z</time>
      </trkpt>
      <trkpt lat="46.0621200" lon="5.6445480">
        <ele>907.8</ele>
        <time>2022-07-25T13:47:14Z</time>
      </trkpt>
      <trkpt lat="46.0621140" lon="5.6444930">
        <ele>907.5</ele>
        <time>2022-07-25T13:47:15Z</time>
      </trkpt>
      <trkpt lat="46.0621120" lon="5.6444760">
        <ele>907.4</ele>
        <time>2022-07-25T13:47:16Z</time>
      </trkpt>
      <trkpt lat="46.0621060" lon="5.6444290">
        <ele>907.2</ele>
        <time>2022-07-25T13:47:17Z</time>
      </trkpt>
      <trkpt lat="46.0621040" lon="5.6444190">
        <ele>907.1</ele>
        <time>2022-07-25T13:47:18Z</time>
      </trkpt>
      <trkpt lat="46.0620830" lon="5.6443830">
        <ele>906.9</ele>
        <time>2022-07-25T13:47:19Z</time>
      </trkpt>
      <trkpt lat="46.0620750" lon="5.6443740">
        <ele>906.8</ele>
        <time>2022-07-25T13:47:20Z</time>
      </trkpt>
      <trkpt lat="46.0620560" lon="5.6443730">
        <ele>906.6</ele>
        <time>2022-07-25T13:47:21Z</time>
      </trkpt>
      <trkpt lat="46.0620440" lon="5.6443740">
        <ele>906.5</ele>
        <time>2022-07-25T13:47:22Z</time>
      </trkpt>
      <trkpt lat="46.0620400" lon="5.6443850">
        <ele>906.4</ele>
        <time>2022-07-25T13:47:23Z</time>
      </trkpt>
      <trkpt lat="46.0620310" lon="5.6443950">
        <ele>906.3</ele>
        <time>2022-07-25T13:47:24Z</time>
      </trkpt>
      <trkpt lat="46.0620180" lon="5.6444030">
        <ele>906.2</ele>
        <time>2022-07-25T13:47:25Z</time>
      </trkpt>
      <trkpt lat="46.0619880" lon="5.6444270">
        <ele>905.8</ele>
        <time>2022-07-25T13:47:26Z</time>
      </trkpt>
      <trkpt lat="46.0619770" lon="5.6444380">
        <ele>905.7</ele>
        <time>2022-07-25T13:47:27Z</time>
      </trkpt>
      <trkpt lat="46.0619590" lon="5.6444650">
        <ele>905.4</ele>
        <time>2022-07-25T13:47:28Z</time>
      </trkpt>
      <trkpt lat="46.0618890" lon="5.6444850">
        <ele>904.6</ele>
        <time>2022-07-25T13:47:30Z</time>
      </trkpt>
      <trkpt lat="46.0618570" lon="5.6444730">
        <ele>902.2</ele>
        <time>2022-07-25T13:47:31Z</time>
      </trkpt>
      <trkpt lat="46.0618170" lon="5.6444200">
        <ele>902.2</ele>
        <time>2022-07-25T13:47:32Z</time>
      </trkpt>
      <trkpt lat="46.0617910" lon="5.6443610">
        <ele>902.2</ele>
        <time>2022-07-25T13:47:33Z</time>
      </trkpt>
      <trkpt lat="46.0617750" lon="5.6442950">
        <ele>902.1</ele>
        <time>2022-07-25T13:47:35Z</time>
      </trkpt>
      <trkpt lat="46.0617760" lon="5.6442800">
        <ele>902.1</ele>
        <time>2022-07-25T13:47:36Z</time>
      </trkpt>
      <trkpt lat="46.0617870" lon="5.6442750">
        <ele>902.1</ele>
        <time>2022-07-25T13:47:37Z</time>
      </trkpt>
      <trkpt lat="46.0617870" lon="5.6442790">
        <ele>902.1</ele>
        <time>2022-07-25T13:47:38Z</time>
      </trkpt>
      <trkpt lat="46.0617860" lon="5.6442860">
        <ele>902.1</ele>
        <time>2022-07-25T13:47:39Z</time>
      </trkpt>
      <trkpt lat="46.0617860" lon="5.6442900">
        <ele>902.1</ele>
        <time>2022-07-25T13:47:40Z</time>
      </trkpt>
      <trkpt lat="46.0617860" lon="5.6442920">
        <ele>902.1</ele>
        <time>2022-07-25T13:47:41Z</time>
      </trkpt>
      <trkpt lat="46.0617860" lon="5.6442940">
        <ele>902.1</ele>
        <time>2022-07-25T13:47:42Z</time>
      </trkpt>
      <trkpt lat="46.0617870" lon="5.6442950">
        <ele>902.1</ele>
        <time>2022-07-25T13:47:43Z</time>
      </trkpt>
      <trkpt lat="46.0617890" lon="5.6442950">
        <ele>902.1</ele>
        <time>2022-07-25T13:47:44Z</time>
      </trkpt>
      <trkpt lat="46.0617900" lon="5.6442940">
        <ele>902.1</ele>
        <time>2022-07-25T13:47:45Z</time>
      </trkpt>
      <trkpt lat="46.0617910" lon="5.6442940">
        <ele>902.1</ele>
        <time>2022-07-25T13:47:46Z</time>
      </trkpt>
      <trkpt lat="46.0617920" lon="5.6442930">
        <ele>902.1</ele>
        <time>2022-07-25T13:47:47Z</time>
      </trkpt>
      <trkpt lat="46.0617720" lon="5.6442520">
        <ele>902.1</ele>
        <time>2022-07-25T13:50:31Z</time>
      </trkpt>
      <trkpt lat="46.0617740" lon="5.6442500">
        <ele>902.1</ele>
        <time>2022-07-25T13:50:32Z</time>
      </trkpt>
      <trkpt lat="46.0617750" lon="5.6442490">
        <ele>902.1</ele>
        <time>2022-07-25T13:50:33Z</time>
      </trkpt>
      <trkpt lat="46.0617640" lon="5.6442530">
        <ele>902.1</ele>
        <time>2022-07-25T13:50:34Z</time>
      </trkpt>
      <trkpt lat="46.0617550" lon="5.6442560">
        <ele>902.1</ele>
        <time>2022-07-25T13:50:35Z</time>
      </trkpt>
      <trkpt lat="46.0617560" lon="5.6442520">
        <ele>902.1</ele>
        <time>2022-07-25T13:50:36Z</time>
      </trkpt>
      <trkpt lat="46.0617540" lon="5.6442460">
        <ele>902.1</ele>
        <time>2022-07-25T13:50:37Z</time>
      </trkpt>
      <trkpt lat="46.0617500" lon="5.6442430">
        <ele>902.1</ele>
        <time>2022-07-25T13:50:38Z</time>
      </trkpt>
      <trkpt lat="46.0617410" lon="5.6442400">
        <ele>901.9</ele>
        <time>2022-07-25T13:50:39Z</time>
      </trkpt>
      <trkpt lat="46.0617390" lon="5.6442400">
        <ele>901.9</ele>
        <time>2022-07-25T13:50:40Z</time>
      </trkpt>
      <trkpt lat="46.0617420" lon="5.6442430">
        <ele>901.9</ele>
        <time>2022-07-25T13:50:41Z</time>
      </trkpt>
      <trkpt lat="46.0617440" lon="5.6442470">
        <ele>901.9</ele>
        <time>2022-07-25T13:50:42Z</time>
      </trkpt>
      <trkpt lat="46.0617470" lon="5.6442500">
        <ele>901.9</ele>
        <time>2022-07-25T13:50:43Z</time>
      </trkpt>
      <trkpt lat="46.0617490" lon="5.6442540">
        <ele>901.9</ele>
        <time>2022-07-25T13:50:44Z</time>
      </trkpt>
      <trkpt lat="46.0617520" lon="5.6442570">
        <ele>901.8</ele>
        <time>2022-07-25T13:50:45Z</time>
      </trkpt>
      <trkpt lat="46.0617540" lon="5.6442610">
        <ele>901.8</ele>
        <time>2022-07-25T13:50:46Z</time>
      </trkpt>
      <trkpt lat="46.0617570" lon="5.6442640">
        <ele>901.8</ele>
        <time>2022-07-25T13:50:47Z</time>
      </trkpt>
      <trkpt lat="46.0617590" lon="5.6442680">
        <ele>901.8</ele>
        <time>2022-07-25T13:50:48Z</time>
      </trkpt>
      <trkpt lat="46.0617620" lon="5.6442710">
        <ele>901.8</ele>
        <time>2022-07-25T13:50:49Z</time>
      </trkpt>
      <trkpt lat="46.0617640" lon="5.6442750">
        <ele>901.7</ele>
        <time>2022-07-25T13:50:50Z</time>
      </trkpt>
      <trkpt lat="46.0617670" lon="5.6442780">
        <ele>901.7</ele>
        <time>2022-07-25T13:50:51Z</time>
      </trkpt>
      <trkpt lat="46.0617700" lon="5.6442820">
        <ele>901.7</ele>
        <time>2022-07-25T13:50:52Z</time>
      </trkpt>
      <trkpt lat="46.0617720" lon="5.6442850">
        <ele>901.7</ele>
        <time>2022-07-25T13:50:53Z</time>
      </trkpt>
      <trkpt lat="46.0617750" lon="5.6442890">
        <ele>901.7</ele>
        <time>2022-07-25T13:50:54Z</time>
      </trkpt>
      <trkpt lat="46.0617770" lon="5.6442920">
        <ele>901.7</ele>
        <time>2022-07-25T13:50:55Z</time>
      </trkpt>
      <trkpt lat="46.0617800" lon="5.6442960">
        <ele>901.6</ele>
        <time>2022-07-25T13:50:56Z</time>
      </trkpt>
      <trkpt lat="46.0617820" lon="5.6442990">
        <ele>901.6</ele>
        <time>2022-07-25T13:50:57Z</time>
      </trkpt>
      <trkpt lat="46.0617850" lon="5.6443030">
        <ele>901.6</ele>
        <time>2022-07-25T13:50:58Z</time>
      </trkpt>
      <trkpt lat="46.0617870" lon="5.6443060">
        <ele>901.6</ele>
        <time>2022-07-25T13:50:59Z</time>
      </trkpt>
      <trkpt lat="46.0617900" lon="5.6443100">
        <ele>901.6</ele>
        <time>2022-07-25T13:51:00Z</time>
      </trkpt>
      <trkpt lat="46.0617920" lon="5.6443130">
        <ele>901.6</ele>
        <time>2022-07-25T13:51:01Z</time>
      </trkpt>
      <trkpt lat="46.0617950" lon="5.6443170">
        <ele>901.5</ele>
        <time>2022-07-25T13:51:02Z</time>
      </trkpt>
      <trkpt lat="46.0617970" lon="5.6443200">
        <ele>901.5</ele>
        <time>2022-07-25T13:51:03Z</time>
      </trkpt>
      <trkpt lat="46.0618000" lon="5.6443240">
        <ele>901.5</ele>
        <time>2022-07-25T13:51:04Z</time>
      </trkpt>
      <trkpt lat="46.0618030" lon="5.6443270">
        <ele>901.5</ele>
        <time>2022-07-25T13:51:05Z</time>
      </trkpt>
      <trkpt lat="46.0618050" lon="5.6443310">
        <ele>901.5</ele>
        <time>2022-07-25T14:00:09Z</time>
      </trkpt>
      <trkpt lat="46.0618080" lon="5.6443340">
        <ele>901.5</ele>
        <time>2022-07-25T14:00:10Z</time>
      </trkpt>
      <trkpt lat="46.0618100" lon="5.6443380">
        <ele>901.4</ele>
        <time>2022-07-25T14:00:11Z</time>
      </trkpt>
      <trkpt lat="46.0618130" lon="5.6443410">
        <ele>901.4</ele>
        <time>2022-07-25T14:00:12Z</time>
      </trkpt>
      <trkpt lat="46.0618150" lon="5.6443450">
        <ele>901.4</ele>
        <time>2022-07-25T14:00:13Z</time>
      </trkpt>
      <trkpt lat="46.0618180" lon="5.6443480">
        <ele>901.4</ele>
        <time>2022-07-25T14:00:14Z</time>
      </trkpt>
      <trkpt lat="46.0618200" lon="5.6443520">
        <ele>901.4</ele>
        <time>2022-07-25T14:00:15Z</time>
      </trkpt>
      <trkpt lat="46.0618230" lon="5.6443550">
        <ele>901.4</ele>
        <time>2022-07-25T14:00:16Z</time>
      </trkpt>
      <trkpt lat="46.0618250" lon="5.6443590">
        <ele>901.3</ele>
        <time>2022-07-25T14:00:17Z</time>
      </trkpt>
      <trkpt lat="46.0618560" lon="5.6443910">
        <ele>901.2</ele>
        <time>2022-07-25T14:00:19Z</time>
      </trkpt>
      <trkpt lat="46.0618790" lon="5.6444150">
        <ele>901.0</ele>
        <time>2022-07-25T14:00:20Z</time>
      </trkpt>
      <trkpt lat="46.0618870" lon="5.6444210">
        <ele>901.0</ele>
        <time>2022-07-25T14:00:21Z</time>
      </trkpt>
      <trkpt lat="46.0618960" lon="5.6444380">
        <ele>900.9</ele>
        <time>2022-07-25T14:00:22Z</time>
      </trkpt>
      <trkpt lat="46.0619060" lon="5.6444580">
        <ele>900.8</ele>
        <time>2022-07-25T14:00:23Z</time>
      </trkpt>
      <trkpt lat="46.0619120" lon="5.6444740">
        <ele>900.8</ele>
        <time>2022-07-25T14:00:24Z</time>
      </trkpt>
      <trkpt lat="46.0619110" lon="5.6444880">
        <ele>900.7</ele>
        <time>2022-07-25T14:00:25Z</time>
      </trkpt>
      <trkpt lat="46.0619080" lon="5.6444970">
        <ele>900.7</ele>
        <time>2022-07-25T14:00:26Z</time>
      </trkpt>
      <trkpt lat="46.0619030" lon="5.6445070">
        <ele>900.6</ele>
        <time>2022-07-25T14:00:27Z</time>
      </trkpt>
      <trkpt lat="46.0618950" lon="5.6445190">
        <ele>900.6</ele>
        <time>2022-07-25T14:00:28Z</time>
      </trkpt>
      <trkpt lat="46.0618940" lon="5.6445210">
        <ele>900.6</ele>
        <time>2022-07-25T14:00:29Z</time>
      </trkpt>
      <trkpt lat="46.0618940" lon="5.6445240">
        <ele>900.6</ele>
        <time>2022-07-25T14:00:30Z</time>
      </trkpt>
      <trkpt lat="46.0618940" lon="5.6445310">
        <ele>900.5</ele>
        <time>2022-07-25T14:00:31Z</time>
      </trkpt>
      <trkpt lat="46.0618910" lon="5.6445540">
        <ele>900.5</ele>
        <time>2022-07-25T14:00:32Z</time>
      </trkpt>
      <trkpt lat="46.0618870" lon="5.6445700">
        <ele>900.4</ele>
        <time>2022-07-25T14:00:33Z</time>
      </trkpt>
      <trkpt lat="46.0618830" lon="5.6445860">
        <ele>900.3</ele>
        <time>2022-07-25T14:00:34Z</time>
      </trkpt>
      <trkpt lat="46.0618790" lon="5.6446030">
        <ele>900.3</ele>
        <time>2022-07-25T14:00:35Z</time>
      </trkpt>
      <trkpt lat="46.0618750" lon="5.6446190">
        <ele>900.2</ele>
        <time>2022-07-25T14:00:37Z</time>
      </trkpt>
      <trkpt lat="46.0618710" lon="5.6446360">
        <ele>900.2</ele>
        <time>2022-07-25T14:00:38Z</time>
      </trkpt>
      <trkpt lat="46.0618670" lon="5.6446520">
        <ele>900.1</ele>
        <time>2022-07-25T14:00:39Z</time>
      </trkpt>
      <trkpt lat="46.0618630" lon="5.6446680">
        <ele>900.1</ele>
        <time>2022-07-25T14:00:40Z</time>
      </trkpt>
      <trkpt lat="46.0618500" lon="5.6447210">
        <ele>899.9</ele>
        <time>2022-07-25T14:00:41Z</time>
      </trkpt>
      <trkpt lat="46.0618350" lon="5.6447710">
        <ele>899.7</ele>
        <time>2022-07-25T14:00:42Z</time>
      </trkpt>
      <trkpt lat="46.0618220" lon="5.6448130">
        <ele>899.5</ele>
        <time>2022-07-25T14:00:43Z</time>
      </trkpt>
      <trkpt lat="46.0618030" lon="5.6448790">
        <ele>899.3</ele>
        <time>2022-07-25T14:00:45Z</time>
      </trkpt>
      <trkpt lat="46.0617810" lon="5.6449580">
        <ele>899.1</ele>
        <time>2022-07-25T14:00:46Z</time>
      </trkpt>
      <trkpt lat="46.0617620" lon="5.6450120">
        <ele>898.9</ele>
        <time>2022-07-25T14:00:47Z</time>
      </trkpt>
      <trkpt lat="46.0617440" lon="5.6450600">
        <ele>898.7</ele>
        <time>2022-07-25T14:00:48Z</time>
      </trkpt>
      <trkpt lat="46.0617270" lon="5.6451290">
        <ele>898.5</ele>
        <time>2022-07-25T14:00:49Z</time>
      </trkpt>
      <trkpt lat="46.0617070" lon="5.6452050">
        <ele>898.3</ele>
        <time>2022-07-25T14:00:50Z</time>
      </trkpt>
      <trkpt lat="46.0616890" lon="5.6452770">
        <ele>898.1</ele>
        <time>2022-07-25T14:00:51Z</time>
      </trkpt>
      <trkpt lat="46.0616690" lon="5.6453440">
        <ele>898.0</ele>
        <time>2022-07-25T14:00:52Z</time>
      </trkpt>
      <trkpt lat="46.0616460" lon="5.6454090">
        <ele>897.8</ele>
        <time>2022-07-25T14:00:53Z</time>
      </trkpt>
      <trkpt lat="46.0616260" lon="5.6454770">
        <ele>897.7</ele>
        <time>2022-07-25T14:00:54Z</time>
      </trkpt>
      <trkpt lat="46.0616020" lon="5.6455430">
        <ele>897.6</ele>
        <time>2022-07-25T14:00:55Z</time>
      </trkpt>
      <trkpt lat="46.0615810" lon="5.6456130">
        <ele>897.5</ele>
        <time>2022-07-25T14:00:56Z</time>
      </trkpt>
      <trkpt lat="46.0615580" lon="5.6456890">
        <ele>897.4</ele>
        <time>2022-07-25T14:00:57Z</time>
      </trkpt>
      <trkpt lat="46.0615390" lon="5.6457660">
        <ele>897.4</ele>
        <time>2022-07-25T14:00:58Z</time>
      </trkpt>
      <trkpt lat="46.0615160" lon="5.6458370">
        <ele>897.4</ele>
        <time>2022-07-25T14:00:59Z</time>
      </trkpt>
      <trkpt lat="46.0614910" lon="5.6459010">
        <ele>897.5</ele>
        <time>2022-07-25T14:01:00Z</time>
      </trkpt>
      <trkpt lat="46.0614700" lon="5.6459680">
        <ele>897.5</ele>
        <time>2022-07-25T14:01:01Z</time>
      </trkpt>
      <trkpt lat="46.0614490" lon="5.6460340">
        <ele>897.7</ele>
        <time>2022-07-25T14:01:02Z</time>
      </trkpt>
      <trkpt lat="46.0614290" lon="5.6460920">
        <ele>897.8</ele>
        <time>2022-07-25T14:01:03Z</time>
      </trkpt>
      <trkpt lat="46.0614090" lon="5.6461540">
        <ele>897.9</ele>
        <time>2022-07-25T14:01:04Z</time>
      </trkpt>
      <trkpt lat="46.0613850" lon="5.6462030">
        <ele>898.1</ele>
        <time>2022-07-25T14:01:05Z</time>
      </trkpt>
      <trkpt lat="46.0613630" lon="5.6462520">
        <ele>898.2</ele>
        <time>2022-07-25T14:01:06Z</time>
      </trkpt>
      <trkpt lat="46.0613390" lon="5.6463110">
        <ele>898.5</ele>
        <time>2022-07-25T14:01:07Z</time>
      </trkpt>
      <trkpt lat="46.0613200" lon="5.6463530">
        <ele>898.6</ele>
        <time>2022-07-25T14:01:08Z</time>
      </trkpt>
      <trkpt lat="46.0613000" lon="5.6464060">
        <ele>898.8</ele>
        <time>2022-07-25T14:01:09Z</time>
      </trkpt>
      <trkpt lat="46.0612770" lon="5.6464530">
        <ele>899.0</ele>
        <time>2022-07-25T14:01:10Z</time>
      </trkpt>
      <trkpt lat="46.0612570" lon="5.6464950">
        <ele>899.2</ele>
        <time>2022-07-25T14:01:11Z</time>
      </trkpt>
      <trkpt lat="46.0612400" lon="5.6465280">
        <ele>899.4</ele>
        <time>2022-07-25T14:01:12Z</time>
      </trkpt>
      <trkpt lat="46.0612230" lon="5.6465770">
        <ele>899.6</ele>
        <time>2022-07-25T14:01:13Z</time>
      </trkpt>
      <trkpt lat="46.0612160" lon="5.6465920">
        <ele>899.7</ele>
        <time>2022-07-25T14:01:14Z</time>
      </trkpt>
      <trkpt lat="46.0611990" lon="5.6466240">
        <ele>899.8</ele>
        <time>2022-07-25T14:01:15Z</time>
      </trkpt>
      <trkpt lat="46.0611770" lon="5.6466570">
        <ele>900.0</ele>
        <time>2022-07-25T14:01:16Z</time>
      </trkpt>
      <trkpt lat="46.0611530" lon="5.6466890">
        <ele>900.2</ele>
        <time>2022-07-25T14:01:18Z</time>
      </trkpt>
      <trkpt lat="46.0611200" lon="5.6467370">
        <ele>900.5</ele>
        <time>2022-07-25T14:01:19Z</time>
      </trkpt>
      <trkpt lat="46.0611000" lon="5.6467710">
        <ele>900.6</ele>
        <time>2022-07-25T14:01:20Z</time>
      </trkpt>
      <trkpt lat="46.0610760" lon="5.6468070">
        <ele>900.8</ele>
        <time>2022-07-25T14:01:21Z</time>
      </trkpt>
      <trkpt lat="46.0610550" lon="5.6468370">
        <ele>901.0</ele>
        <time>2022-07-25T14:01:22Z</time>
      </trkpt>
      <trkpt lat="46.0610250" lon="5.6468640">
        <ele>901.2</ele>
        <time>2022-07-25T14:01:24Z</time>
      </trkpt>
      <trkpt lat="46.0609980" lon="5.6468870">
        <ele>901.4</ele>
        <time>2022-07-25T14:01:25Z</time>
      </trkpt>
      <trkpt lat="46.0609710" lon="5.6469170">
        <ele>901.6</ele>
        <time>2022-07-25T14:01:26Z</time>
      </trkpt>
      <trkpt lat="46.0609440" lon="5.6469440">
        <ele>901.7</ele>
        <time>2022-07-25T14:01:27Z</time>
      </trkpt>
      <trkpt lat="46.0609230" lon="5.6469680">
        <ele>901.9</ele>
        <time>2022-07-25T14:01:28Z</time>
      </trkpt>
      <trkpt lat="46.0608920" lon="5.6470010">
        <ele>902.1</ele>
        <time>2022-07-25T14:01:30Z</time>
      </trkpt>
      <trkpt lat="46.0608600" lon="5.6470450">
        <ele>902.4</ele>
        <time>2022-07-25T14:01:31Z</time>
      </trkpt>
      <trkpt lat="46.0608310" lon="5.6470710">
        <ele>902.5</ele>
        <time>2022-07-25T14:01:32Z</time>
      </trkpt>
      <trkpt lat="46.0608220" lon="5.6470790">
        <ele>902.6</ele>
        <time>2022-07-25T14:01:33Z</time>
      </trkpt>
      <trkpt lat="46.0607830" lon="5.6470920">
        <ele>902.8</ele>
        <time>2022-07-25T14:01:34Z</time>
      </trkpt>
      <trkpt lat="46.0607670" lon="5.6470940">
        <ele>903.2</ele>
        <time>2022-07-25T14:01:35Z</time>
      </trkpt>
      <trkpt lat="46.0607300" lon="5.6470920">
        <ele>903.1</ele>
        <time>2022-07-25T14:01:36Z</time>
      </trkpt>
      <trkpt lat="46.0607190" lon="5.6470900">
        <ele>903.1</ele>
        <time>2022-07-25T14:01:37Z</time>
      </trkpt>
      <trkpt lat="46.0607060" lon="5.6470870">
        <ele>903.1</ele>
        <time>2022-07-25T14:01:38Z</time>
      </trkpt>
      <trkpt lat="46.0606580" lon="5.6470600">
        <ele>902.9</ele>
        <time>2022-07-25T14:01:40Z</time>
      </trkpt>
      <trkpt lat="46.0606350" lon="5.6470260">
        <ele>902.8</ele>
        <time>2022-07-25T14:01:41Z</time>
      </trkpt>
      <trkpt lat="46.0606270" lon="5.6470130">
        <ele>902.8</ele>
        <time>2022-07-25T14:01:42Z</time>
      </trkpt>
      <trkpt lat="46.0606050" lon="5.6469720">
        <ele>902.7</ele>
        <time>2022-07-25T14:01:43Z</time>
      </trkpt>
      <trkpt lat="46.0605970" lon="5.6469570">
        <ele>902.7</ele>
        <time>2022-07-25T14:01:44Z</time>
      </trkpt>
      <trkpt lat="46.0605790" lon="5.6469120">
        <ele>902.6</ele>
        <time>2022-07-25T14:01:45Z</time>
      </trkpt>
      <trkpt lat="46.0605590" lon="5.6467970">
        <ele>902.4</ele>
        <time>2022-07-25T14:01:47Z</time>
      </trkpt>
      <trkpt lat="46.0605310" lon="5.6467550">
        <ele>902.3</ele>
        <time>2022-07-25T14:01:48Z</time>
      </trkpt>
      <trkpt lat="46.0605500" lon="5.6467040">
        <ele>902.2</ele>
        <time>2022-07-25T14:01:49Z</time>
      </trkpt>
      <trkpt lat="46.0605290" lon="5.6466630">
        <ele>902.1</ele>
        <time>2022-07-25T14:01:50Z</time>
      </trkpt>
      <trkpt lat="46.0605130" lon="5.6466200">
        <ele>902.1</ele>
        <time>2022-07-25T14:01:51Z</time>
      </trkpt>
      <trkpt lat="46.0604990" lon="5.6465750">
        <ele>902.0</ele>
        <time>2022-07-25T14:01:52Z</time>
      </trkpt>
      <trkpt lat="46.0604820" lon="5.6465360">
        <ele>901.9</ele>
        <time>2022-07-25T14:01:53Z</time>
      </trkpt>
      <trkpt lat="46.0604610" lon="5.6464990">
        <ele>901.9</ele>
        <time>2022-07-25T14:01:54Z</time>
      </trkpt>
      <trkpt lat="46.0604300" lon="5.6464600">
        <ele>901.8</ele>
        <time>2022-07-25T14:01:55Z</time>
      </trkpt>
      <trkpt lat="46.0604030" lon="5.6464200">
        <ele>901.7</ele>
        <time>2022-07-25T14:01:56Z</time>
      </trkpt>
      <trkpt lat="46.0603710" lon="5.6463890">
        <ele>901.6</ele>
        <time>2022-07-25T14:01:57Z</time>
      </trkpt>
      <trkpt lat="46.0603390" lon="5.6463570">
        <ele>901.6</ele>
        <time>2022-07-25T14:01:58Z</time>
      </trkpt>
      <trkpt lat="46.0603090" lon="5.6463240">
        <ele>901.5</ele>
        <time>2022-07-25T14:01:59Z</time>
      </trkpt>
      <trkpt lat="46.0602260" lon="5.6462650">
        <ele>901.3</ele>
        <time>2022-07-25T14:02:00Z</time>
      </trkpt>
      <trkpt lat="46.0601790" lon="5.6462270">
        <ele>901.3</ele>
        <time>2022-07-25T14:02:01Z</time>
      </trkpt>
      <trkpt lat="46.0601540" lon="5.6462100">
        <ele>901.3</ele>
        <time>2022-07-25T14:02:02Z</time>
      </trkpt>
      <trkpt lat="46.0601330" lon="5.6461730">
        <ele>901.3</ele>
        <time>2022-07-25T14:02:03Z</time>
      </trkpt>
      <trkpt lat="46.0601070" lon="5.6461220">
        <ele>901.3</ele>
        <time>2022-07-25T14:02:04Z</time>
      </trkpt>
      <trkpt lat="46.0601110" lon="5.6460770">
        <ele>901.3</ele>
        <time>2022-07-25T14:02:05Z</time>
      </trkpt>
      <trkpt lat="46.0601100" lon="5.6460590">
        <ele>901.3</ele>
        <time>2022-07-25T14:02:06Z</time>
      </trkpt>
      <trkpt lat="46.0601030" lon="5.6460120">
        <ele>901.3</ele>
        <time>2022-07-25T14:02:07Z</time>
      </trkpt>
      <trkpt lat="46.0600970" lon="5.6459660">
        <ele>901.3</ele>
        <time>2022-07-25T14:02:08Z</time>
      </trkpt>
      <trkpt lat="46.0600900" lon="5.6458950">
        <ele>901.3</ele>
        <time>2022-07-25T14:02:09Z</time>
      </trkpt>
      <trkpt lat="46.0600900" lon="5.6458300">
        <ele>901.2</ele>
        <time>2022-07-25T14:02:10Z</time>
      </trkpt>
      <trkpt lat="46.0600950" lon="5.6457660">
        <ele>901.2</ele>
        <time>2022-07-25T14:02:11Z</time>
      </trkpt>
      <trkpt lat="46.0600980" lon="5.6456980">
        <ele>901.1</ele>
        <time>2022-07-25T14:02:12Z</time>
      </trkpt>
      <trkpt lat="46.0601000" lon="5.6456350">
        <ele>901.0</ele>
        <time>2022-07-25T14:02:13Z</time>
      </trkpt>
      <trkpt lat="46.0601010" lon="5.6455750">
        <ele>901.0</ele>
        <time>2022-07-25T14:02:14Z</time>
      </trkpt>
      <trkpt lat="46.0601030" lon="5.6455160">
        <ele>900.9</ele>
        <time>2022-07-25T14:02:15Z</time>
      </trkpt>
      <trkpt lat="46.0601120" lon="5.6454370">
        <ele>900.8</ele>
        <time>2022-07-25T14:02:17Z</time>
      </trkpt>
      <trkpt lat="46.0601210" lon="5.6453580">
        <ele>900.8</ele>
        <time>2022-07-25T14:02:18Z</time>
      </trkpt>
      <trkpt lat="46.0601270" lon="5.6453160">
        <ele>900.8</ele>
        <time>2022-07-25T14:02:19Z</time>
      </trkpt>
      <trkpt lat="46.0601320" lon="5.6452350">
        <ele>900.7</ele>
        <time>2022-07-25T14:02:20Z</time>
      </trkpt>
      <trkpt lat="46.0601340" lon="5.6451170">
        <ele>900.7</ele>
        <time>2022-07-25T14:02:21Z</time>
      </trkpt>
      <trkpt lat="46.0601390" lon="5.6450510">
        <ele>900.7</ele>
        <time>2022-07-25T14:02:22Z</time>
      </trkpt>
      <trkpt lat="46.0601280" lon="5.6449980">
        <ele>900.7</ele>
        <time>2022-07-25T14:02:23Z</time>
      </trkpt>
      <trkpt lat="46.0601060" lon="5.6449130">
        <ele>900.7</ele>
        <time>2022-07-25T14:02:24Z</time>
      </trkpt>
      <trkpt lat="46.0601040" lon="5.6448470">
        <ele>900.7</ele>
        <time>2022-07-25T14:02:25Z</time>
      </trkpt>
      <trkpt lat="46.0601030" lon="5.6447660">
        <ele>900.7</ele>
        <time>2022-07-25T14:02:27Z</time>
      </trkpt>
      <trkpt lat="46.0600870" lon="5.6446770">
        <ele>900.7</ele>
        <time>2022-07-25T14:02:28Z</time>
      </trkpt>
      <trkpt lat="46.0600840" lon="5.6446150">
        <ele>900.7</ele>
        <time>2022-07-25T14:02:29Z</time>
      </trkpt>
      <trkpt lat="46.0600800" lon="5.6445470">
        <ele>900.7</ele>
        <time>2022-07-25T14:02:30Z</time>
      </trkpt>
      <trkpt lat="46.0600710" lon="5.6444860">
        <ele>900.7</ele>
        <time>2022-07-25T14:02:31Z</time>
      </trkpt>
      <trkpt lat="46.0600570" lon="5.6444420">
        <ele>900.7</ele>
        <time>2022-07-25T14:02:32Z</time>
      </trkpt>
      <trkpt lat="46.0600420" lon="5.6443820">
        <ele>900.7</ele>
        <time>2022-07-25T14:02:33Z</time>
      </trkpt>
      <trkpt lat="46.0600210" lon="5.6443030">
        <ele>900.7</ele>
        <time>2022-07-25T14:02:35Z</time>
      </trkpt>
      <trkpt lat="46.0600010" lon="5.6442450">
        <ele>900.7</ele>
        <time>2022-07-25T14:02:36Z</time>
      </trkpt>
      <trkpt lat="46.0599770" lon="5.6441730">
        <ele>900.8</ele>
        <time>2022-07-25T14:02:37Z</time>
      </trkpt>
      <trkpt lat="46.0599620" lon="5.6441230">
        <ele>900.8</ele>
        <time>2022-07-25T14:02:38Z</time>
      </trkpt>
      <trkpt lat="46.0599500" lon="5.6440810">
        <ele>900.8</ele>
        <time>2022-07-25T14:02:39Z</time>
      </trkpt>
      <trkpt lat="46.0599410" lon="5.6440370">
        <ele>900.9</ele>
        <time>2022-07-25T14:02:40Z</time>
      </trkpt>
      <trkpt lat="46.0599320" lon="5.6439920">
        <ele>900.9</ele>
        <time>2022-07-25T14:02:41Z</time>
      </trkpt>
      <trkpt lat="46.0599170" lon="5.6439480">
        <ele>901.0</ele>
        <time>2022-07-25T14:02:42Z</time>
      </trkpt>
      <trkpt lat="46.0598660" lon="5.6438430">
        <ele>901.2</ele>
        <time>2022-07-25T14:02:43Z</time>
      </trkpt>
      <trkpt lat="46.0598510" lon="5.6437880">
        <ele>901.3</ele>
        <time>2022-07-25T14:02:44Z</time>
      </trkpt>
      <trkpt lat="46.0598380" lon="5.6437330">
        <ele>901.4</ele>
        <time>2022-07-25T14:02:45Z</time>
      </trkpt>
      <trkpt lat="46.0598220" lon="5.6436810">
        <ele>901.5</ele>
        <time>2022-07-25T14:02:46Z</time>
      </trkpt>
      <trkpt lat="46.0598040" lon="5.6435750">
        <ele>901.8</ele>
        <time>2022-07-25T14:02:48Z</time>
      </trkpt>
      <trkpt lat="46.0597780" lon="5.6434830">
        <ele>902.1</ele>
        <time>2022-07-25T14:02:50Z</time>
      </trkpt>
      <trkpt lat="46.0597690" lon="5.6434320">
        <ele>902.3</ele>
        <time>2022-07-25T14:02:51Z</time>
      </trkpt>
      <trkpt lat="46.0597660" lon="5.6433860">
        <ele>902.4</ele>
        <time>2022-07-25T14:02:52Z</time>
      </trkpt>
      <trkpt lat="46.0597600" lon="5.6433410">
        <ele>902.5</ele>
        <time>2022-07-25T14:02:53Z</time>
      </trkpt>
      <trkpt lat="46.0597520" lon="5.6433020">
        <ele>902.7</ele>
        <time>2022-07-25T14:02:54Z</time>
      </trkpt>
      <trkpt lat="46.0597500" lon="5.6432630">
        <ele>902.8</ele>
        <time>2022-07-25T14:02:55Z</time>
      </trkpt>
      <trkpt lat="46.0597420" lon="5.6432120">
        <ele>902.9</ele>
        <time>2022-07-25T14:02:56Z</time>
      </trkpt>
      <trkpt lat="46.0597390" lon="5.6431940">
        <ele>903.0</ele>
        <time>2022-07-25T14:02:57Z</time>
      </trkpt>
      <trkpt lat="46.0597330" lon="5.6431480">
        <ele>903.1</ele>
        <time>2022-07-25T14:02:58Z</time>
      </trkpt>
      <trkpt lat="46.0597230" lon="5.6431000">
        <ele>903.3</ele>
        <time>2022-07-25T14:02:59Z</time>
      </trkpt>
      <trkpt lat="46.0597020" lon="5.6430330">
        <ele>903.5</ele>
        <time>2022-07-25T14:03:01Z</time>
      </trkpt>
      <trkpt lat="46.0596880" lon="5.6429890">
        <ele>903.6</ele>
        <time>2022-07-25T14:03:02Z</time>
      </trkpt>
      <trkpt lat="46.0596730" lon="5.6429480">
        <ele>903.7</ele>
        <time>2022-07-25T14:03:03Z</time>
      </trkpt>
      <trkpt lat="46.0596570" lon="5.6429080">
        <ele>903.8</ele>
        <time>2022-07-25T14:03:04Z</time>
      </trkpt>
      <trkpt lat="46.0596420" lon="5.6428710">
        <ele>903.9</ele>
        <time>2022-07-25T14:03:05Z</time>
      </trkpt>
      <trkpt lat="46.0596280" lon="5.6428330">
        <ele>904.0</ele>
        <time>2022-07-25T14:03:06Z</time>
      </trkpt>
      <trkpt lat="46.0596120" lon="5.6427920">
        <ele>904.1</ele>
        <time>2022-07-25T14:03:07Z</time>
      </trkpt>
      <trkpt lat="46.0595970" lon="5.6427490">
        <ele>904.2</ele>
        <time>2022-07-25T14:03:08Z</time>
      </trkpt>
      <trkpt lat="46.0595770" lon="5.6427090">
        <ele>904.3</ele>
        <time>2022-07-25T14:03:09Z</time>
      </trkpt>
      <trkpt lat="46.0595510" lon="5.6426550">
        <ele>904.5</ele>
        <time>2022-07-25T14:03:11Z</time>
      </trkpt>
      <trkpt lat="46.0595260" lon="5.6425940">
        <ele>904.6</ele>
        <time>2022-07-25T14:03:12Z</time>
      </trkpt>
      <trkpt lat="46.0595160" lon="5.6425560">
        <ele>904.7</ele>
        <time>2022-07-25T14:03:13Z</time>
      </trkpt>
      <trkpt lat="46.0595050" lon="5.6425170">
        <ele>904.8</ele>
        <time>2022-07-25T14:03:14Z</time>
      </trkpt>
      <trkpt lat="46.0594930" lon="5.6424800">
        <ele>904.9</ele>
        <time>2022-07-25T14:03:15Z</time>
      </trkpt>
      <trkpt lat="46.0594830" lon="5.6424400">
        <ele>905.0</ele>
        <time>2022-07-25T14:03:16Z</time>
      </trkpt>
      <trkpt lat="46.0594710" lon="5.6423990">
        <ele>905.1</ele>
        <time>2022-07-25T14:03:17Z</time>
      </trkpt>
      <trkpt lat="46.0594630" lon="5.6423600">
        <ele>905.2</ele>
        <time>2022-07-25T14:03:18Z</time>
      </trkpt>
      <trkpt lat="46.0594560" lon="5.6423170">
        <ele>905.3</ele>
        <time>2022-07-25T14:03:19Z</time>
      </trkpt>
      <trkpt lat="46.0594420" lon="5.6422340">
        <ele>905.4</ele>
        <time>2022-07-25T14:03:21Z</time>
      </trkpt>
      <trkpt lat="46.0594310" lon="5.6421820">
        <ele>905.6</ele>
        <time>2022-07-25T14:03:22Z</time>
      </trkpt>
      <trkpt lat="46.0594270" lon="5.6421650">
        <ele>905.6</ele>
        <time>2022-07-25T14:03:23Z</time>
      </trkpt>
      <trkpt lat="46.0594170" lon="5.6421190">
        <ele>905.7</ele>
        <time>2022-07-25T14:03:24Z</time>
      </trkpt>
      <trkpt lat="46.0594000" lon="5.6420650">
        <ele>905.8</ele>
        <time>2022-07-25T14:03:25Z</time>
      </trkpt>
      <trkpt lat="46.0593940" lon="5.6420450">
        <ele>905.8</ele>
        <time>2022-07-25T14:03:26Z</time>
      </trkpt>
      <trkpt lat="46.0593680" lon="5.6419580">
        <ele>905.9</ele>
        <time>2022-07-25T14:03:28Z</time>
      </trkpt>
      <trkpt lat="46.0593560" lon="5.6419220">
        <ele>906.0</ele>
        <time>2022-07-25T14:03:29Z</time>
      </trkpt>
      <trkpt lat="46.0593430" lon="5.6418830">
        <ele>906.0</ele>
        <time>2022-07-25T14:03:30Z</time>
      </trkpt>
      <trkpt lat="46.0593310" lon="5.6418420">
        <ele>906.0</ele>
        <time>2022-07-25T14:03:31Z</time>
      </trkpt>
      <trkpt lat="46.0593180" lon="5.6418020">
        <ele>906.1</ele>
        <time>2022-07-25T14:03:32Z</time>
      </trkpt>
      <trkpt lat="46.0593020" lon="5.6417560">
        <ele>906.1</ele>
        <time>2022-07-25T14:03:33Z</time>
      </trkpt>
      <trkpt lat="46.0592840" lon="5.6417140">
        <ele>906.1</ele>
        <time>2022-07-25T14:03:34Z</time>
      </trkpt>
      <trkpt lat="46.0592700" lon="5.6416750">
        <ele>906.2</ele>
        <time>2022-07-25T14:03:35Z</time>
      </trkpt>
      <trkpt lat="46.0592570" lon="5.6416290">
        <ele>906.2</ele>
        <time>2022-07-25T14:03:36Z</time>
      </trkpt>
      <trkpt lat="46.0592440" lon="5.6415820">
        <ele>906.3</ele>
        <time>2022-07-25T14:03:37Z</time>
      </trkpt>
      <trkpt lat="46.0592300" lon="5.6415320">
        <ele>906.4</ele>
        <time>2022-07-25T14:03:38Z</time>
      </trkpt>
      <trkpt lat="46.0592120" lon="5.6414750">
        <ele>906.5</ele>
        <time>2022-07-25T14:03:39Z</time>
      </trkpt>
      <trkpt lat="46.0591900" lon="5.6414150">
        <ele>906.7</ele>
        <time>2022-07-25T14:03:41Z</time>
      </trkpt>
      <trkpt lat="46.0591660" lon="5.6413540">
        <ele>906.9</ele>
        <time>2022-07-25T14:03:42Z</time>
      </trkpt>
      <trkpt lat="46.0591460" lon="5.6413110">
        <ele>907.0</ele>
        <time>2022-07-25T14:03:43Z</time>
      </trkpt>
      <trkpt lat="46.0591280" lon="5.6412690">
        <ele>907.1</ele>
        <time>2022-07-25T14:03:44Z</time>
      </trkpt>
      <trkpt lat="46.0591010" lon="5.6412080">
        <ele>907.3</ele>
        <time>2022-07-25T14:03:46Z</time>
      </trkpt>
      <trkpt lat="46.0590730" lon="5.6411350">
        <ele>907.5</ele>
        <time>2022-07-25T14:03:47Z</time>
      </trkpt>
      <trkpt lat="46.0590580" lon="5.6410890">
        <ele>907.7</ele>
        <time>2022-07-25T14:03:48Z</time>
      </trkpt>
      <trkpt lat="46.0590460" lon="5.6410460">
        <ele>907.8</ele>
        <time>2022-07-25T14:03:49Z</time>
      </trkpt>
      <trkpt lat="46.0590330" lon="5.6410110">
        <ele>907.9</ele>
        <time>2022-07-25T14:03:50Z</time>
      </trkpt>
      <trkpt lat="46.0590160" lon="5.6409680">
        <ele>908.1</ele>
        <time>2022-07-25T14:03:51Z</time>
      </trkpt>
      <trkpt lat="46.0590020" lon="5.6409260">
        <ele>908.3</ele>
        <time>2022-07-25T14:03:52Z</time>
      </trkpt>
      <trkpt lat="46.0589870" lon="5.6408850">
        <ele>908.5</ele>
        <time>2022-07-25T14:03:53Z</time>
      </trkpt>
      <trkpt lat="46.0589710" lon="5.6408460">
        <ele>908.7</ele>
        <time>2022-07-25T14:03:54Z</time>
      </trkpt>
      <trkpt lat="46.0589520" lon="5.6408000">
        <ele>908.9</ele>
        <time>2022-07-25T14:03:55Z</time>
      </trkpt>
      <trkpt lat="46.0589470" lon="5.6407850">
        <ele>909.0</ele>
        <time>2022-07-25T14:03:56Z</time>
      </trkpt>
      <trkpt lat="46.0589300" lon="5.6407390">
        <ele>909.2</ele>
        <time>2022-07-25T14:03:57Z</time>
      </trkpt>
      <trkpt lat="46.0589140" lon="5.6406900">
        <ele>909.4</ele>
        <time>2022-07-25T14:03:59Z</time>
      </trkpt>
      <trkpt lat="46.0588980" lon="5.6406460">
        <ele>909.6</ele>
        <time>2022-07-25T14:04:00Z</time>
      </trkpt>
      <trkpt lat="46.0588780" lon="5.6406040">
        <ele>909.8</ele>
        <time>2022-07-25T14:04:01Z</time>
      </trkpt>
      <trkpt lat="46.0588300" lon="5.6405340">
        <ele>910.1</ele>
        <time>2022-07-25T14:04:03Z</time>
      </trkpt>
      <trkpt lat="46.0588060" lon="5.6405050">
        <ele>910.3</ele>
        <time>2022-07-25T14:04:04Z</time>
      </trkpt>
      <trkpt lat="46.0587830" lon="5.6404720">
        <ele>910.4</ele>
        <time>2022-07-25T14:04:05Z</time>
      </trkpt>
      <trkpt lat="46.0587630" lon="5.6404410">
        <ele>910.6</ele>
        <time>2022-07-25T14:04:06Z</time>
      </trkpt>
      <trkpt lat="46.0587410" lon="5.6404000">
        <ele>910.7</ele>
        <time>2022-07-25T14:04:07Z</time>
      </trkpt>
      <trkpt lat="46.0587340" lon="5.6403860">
        <ele>910.7</ele>
        <time>2022-07-25T14:04:08Z</time>
      </trkpt>
      <trkpt lat="46.0587240" lon="5.6403510">
        <ele>910.8</ele>
        <time>2022-07-25T14:04:09Z</time>
      </trkpt>
      <trkpt lat="46.0586980" lon="5.6402970">
        <ele>911.0</ele>
        <time>2022-07-25T14:04:11Z</time>
      </trkpt>
      <trkpt lat="46.0586790" lon="5.6402550">
        <ele>911.2</ele>
        <time>2022-07-25T14:04:12Z</time>
      </trkpt>
      <trkpt lat="46.0586470" lon="5.6401680">
        <ele>911.5</ele>
        <time>2022-07-25T14:04:14Z</time>
      </trkpt>
      <trkpt lat="46.0586330" lon="5.6401310">
        <ele>911.6</ele>
        <time>2022-07-25T14:04:15Z</time>
      </trkpt>
      <trkpt lat="46.0586190" lon="5.6400790">
        <ele>911.8</ele>
        <time>2022-07-25T14:04:16Z</time>
      </trkpt>
      <trkpt lat="46.0586160" lon="5.6400590">
        <ele>911.9</ele>
        <time>2022-07-25T14:04:17Z</time>
      </trkpt>
      <trkpt lat="46.0586110" lon="5.6400120">
        <ele>912.0</ele>
        <time>2022-07-25T14:04:18Z</time>
      </trkpt>
      <trkpt lat="46.0586100" lon="5.6399690">
        <ele>912.2</ele>
        <time>2022-07-25T14:04:19Z</time>
      </trkpt>
      <trkpt lat="46.0586050" lon="5.6399210">
        <ele>912.4</ele>
        <time>2022-07-25T14:04:20Z</time>
      </trkpt>
      <trkpt lat="46.0585970" lon="5.6398770">
        <ele>912.6</ele>
        <time>2022-07-25T14:04:21Z</time>
      </trkpt>
      <trkpt lat="46.0585830" lon="5.6398280">
        <ele>912.8</ele>
        <time>2022-07-25T14:04:22Z</time>
      </trkpt>
      <trkpt lat="46.0585790" lon="5.6398110">
        <ele>912.9</ele>
        <time>2022-07-25T14:04:23Z</time>
      </trkpt>
      <trkpt lat="46.0585660" lon="5.6397550">
        <ele>913.1</ele>
        <time>2022-07-25T14:04:24Z</time>
      </trkpt>
      <trkpt lat="46.0585620" lon="5.6397340">
        <ele>913.2</ele>
        <time>2022-07-25T14:04:25Z</time>
      </trkpt>
      <trkpt lat="46.0585560" lon="5.6396810">
        <ele>913.4</ele>
        <time>2022-07-25T14:04:26Z</time>
      </trkpt>
      <trkpt lat="46.0585530" lon="5.6396650">
        <ele>913.5</ele>
        <time>2022-07-25T14:04:27Z</time>
      </trkpt>
      <trkpt lat="46.0585410" lon="5.6396270">
        <ele>913.7</ele>
        <time>2022-07-25T14:04:28Z</time>
      </trkpt>
      <trkpt lat="46.0585280" lon="5.6395830">
        <ele>913.9</ele>
        <time>2022-07-25T14:04:29Z</time>
      </trkpt>
      <trkpt lat="46.0585120" lon="5.6395340">
        <ele>914.1</ele>
        <time>2022-07-25T14:04:30Z</time>
      </trkpt>
      <trkpt lat="46.0585070" lon="5.6395200">
        <ele>914.2</ele>
        <time>2022-07-25T14:04:31Z</time>
      </trkpt>
      <trkpt lat="46.0584820" lon="5.6394580">
        <ele>914.5</ele>
        <time>2022-07-25T14:04:33Z</time>
      </trkpt>
      <trkpt lat="46.0584650" lon="5.6394270">
        <ele>914.6</ele>
        <time>2022-07-25T14:04:34Z</time>
      </trkpt>
      <trkpt lat="46.0584420" lon="5.6393830">
        <ele>914.9</ele>
        <time>2022-07-25T14:04:35Z</time>
      </trkpt>
      <trkpt lat="46.0584340" lon="5.6393670">
        <ele>914.9</ele>
        <time>2022-07-25T14:04:36Z</time>
      </trkpt>
      <trkpt lat="46.0584150" lon="5.6393350">
        <ele>915.1</ele>
        <time>2022-07-25T14:04:37Z</time>
      </trkpt>
      <trkpt lat="46.0583870" lon="5.6393040">
        <ele>915.3</ele>
        <time>2022-07-25T14:04:38Z</time>
      </trkpt>
      <trkpt lat="46.0583770" lon="5.6392930">
        <ele>915.4</ele>
        <time>2022-07-25T14:04:39Z</time>
      </trkpt>
      <trkpt lat="46.0583470" lon="5.6392650">
        <ele>915.6</ele>
        <time>2022-07-25T14:04:40Z</time>
      </trkpt>
      <trkpt lat="46.0583360" lon="5.6392550">
        <ele>915.6</ele>
        <time>2022-07-25T14:04:41Z</time>
      </trkpt>
      <trkpt lat="46.0583110" lon="5.6392400">
        <ele>915.8</ele>
        <time>2022-07-25T14:04:42Z</time>
      </trkpt>
      <trkpt lat="46.0582750" lon="5.6392190">
        <ele>916.0</ele>
        <time>2022-07-25T14:04:43Z</time>
      </trkpt>
      <trkpt lat="46.0582630" lon="5.6392130">
        <ele>916.0</ele>
        <time>2022-07-25T14:04:44Z</time>
      </trkpt>
      <trkpt lat="46.0582130" lon="5.6391960">
        <ele>916.2</ele>
        <time>2022-07-25T14:04:46Z</time>
      </trkpt>
      <trkpt lat="46.0581840" lon="5.6391880">
        <ele>916.4</ele>
        <time>2022-07-25T14:04:47Z</time>
      </trkpt>
      <trkpt lat="46.0581570" lon="5.6391830">
        <ele>916.5</ele>
        <time>2022-07-25T14:04:48Z</time>
      </trkpt>
      <trkpt lat="46.0581220" lon="5.6391710">
        <ele>916.6</ele>
        <time>2022-07-25T14:04:49Z</time>
      </trkpt>
      <trkpt lat="46.0581090" lon="5.6391660">
        <ele>916.7</ele>
        <time>2022-07-25T14:04:50Z</time>
      </trkpt>
      <trkpt lat="46.0580810" lon="5.6391570">
        <ele>916.7</ele>
        <time>2022-07-25T14:04:51Z</time>
      </trkpt>
      <trkpt lat="46.0580520" lon="5.6391490">
        <ele>916.8</ele>
        <time>2022-07-25T14:04:52Z</time>
      </trkpt>
      <trkpt lat="46.0580230" lon="5.6391400">
        <ele>916.8</ele>
        <time>2022-07-25T14:04:53Z</time>
      </trkpt>
      <trkpt lat="46.0579810" lon="5.6391350">
        <ele>916.9</ele>
        <time>2022-07-25T14:04:54Z</time>
      </trkpt>
      <trkpt lat="46.0579650" lon="5.6391330">
        <ele>916.9</ele>
        <time>2022-07-25T14:04:55Z</time>
      </trkpt>
      <trkpt lat="46.0579350" lon="5.6391300">
        <ele>916.9</ele>
        <time>2022-07-25T14:04:56Z</time>
      </trkpt>
      <trkpt lat="46.0578670" lon="5.6391170">
        <ele>916.9</ele>
        <time>2022-07-25T14:04:58Z</time>
      </trkpt>
      <trkpt lat="46.0578310" lon="5.6391080">
        <ele>916.8</ele>
        <time>2022-07-25T14:04:59Z</time>
      </trkpt>
      <trkpt lat="46.0577990" lon="5.6390960">
        <ele>916.8</ele>
        <time>2022-07-25T14:05:00Z</time>
      </trkpt>
      <trkpt lat="46.0577660" lon="5.6390830">
        <ele>916.7</ele>
        <time>2022-07-25T14:05:01Z</time>
      </trkpt>
      <trkpt lat="46.0577170" lon="5.6390660">
        <ele>916.6</ele>
        <time>2022-07-25T14:05:02Z</time>
      </trkpt>
      <trkpt lat="46.0576710" lon="5.6390540">
        <ele>916.4</ele>
        <time>2022-07-25T14:05:04Z</time>
      </trkpt>
      <trkpt lat="46.0576190" lon="5.6390450">
        <ele>916.2</ele>
        <time>2022-07-25T14:05:05Z</time>
      </trkpt>
      <trkpt lat="46.0575710" lon="5.6390490">
        <ele>916.0</ele>
        <time>2022-07-25T14:05:06Z</time>
      </trkpt>
      <trkpt lat="46.0575210" lon="5.6390720">
        <ele>916.0</ele>
        <time>2022-07-25T14:05:07Z</time>
      </trkpt>
      <trkpt lat="46.0574810" lon="5.6391170">
        <ele>916.1</ele>
        <time>2022-07-25T14:05:08Z</time>
      </trkpt>
      <trkpt lat="46.0574590" lon="5.6391640">
        <ele>916.2</ele>
        <time>2022-07-25T14:05:09Z</time>
      </trkpt>
      <trkpt lat="46.0574450" lon="5.6392180">
        <ele>916.4</ele>
        <time>2022-07-25T14:05:10Z</time>
      </trkpt>
      <trkpt lat="46.0574370" lon="5.6392700">
        <ele>916.5</ele>
        <time>2022-07-25T14:05:11Z</time>
      </trkpt>
      <trkpt lat="46.0574320" lon="5.6393160">
        <ele>916.7</ele>
        <time>2022-07-25T14:05:12Z</time>
      </trkpt>
      <trkpt lat="46.0574350" lon="5.6393680">
        <ele>916.8</ele>
        <time>2022-07-25T14:05:13Z</time>
      </trkpt>
      <trkpt lat="46.0574350" lon="5.6394160">
        <ele>917.0</ele>
        <time>2022-07-25T14:05:14Z</time>
      </trkpt>
      <trkpt lat="46.0574340" lon="5.6394610">
        <ele>917.1</ele>
        <time>2022-07-25T14:05:15Z</time>
      </trkpt>
      <trkpt lat="46.0574340" lon="5.6395100">
        <ele>917.3</ele>
        <time>2022-07-25T14:05:16Z</time>
      </trkpt>
      <trkpt lat="46.0574340" lon="5.6395540">
        <ele>917.4</ele>
        <time>2022-07-25T14:05:17Z</time>
      </trkpt>
      <trkpt lat="46.0574370" lon="5.6395970">
        <ele>917.5</ele>
        <time>2022-07-25T14:05:18Z</time>
      </trkpt>
      <trkpt lat="46.0574380" lon="5.6396380">
        <ele>917.7</ele>
        <time>2022-07-25T14:05:19Z</time>
      </trkpt>
      <trkpt lat="46.0574400" lon="5.6396900">
        <ele>917.8</ele>
        <time>2022-07-25T14:05:20Z</time>
      </trkpt>
      <trkpt lat="46.0574410" lon="5.6397470">
        <ele>918.0</ele>
        <time>2022-07-25T14:05:21Z</time>
      </trkpt>
      <trkpt lat="46.0574420" lon="5.6397660">
        <ele>918.1</ele>
        <time>2022-07-25T14:05:22Z</time>
      </trkpt>
      <trkpt lat="46.0574420" lon="5.6398070">
        <ele>918.3</ele>
        <time>2022-07-25T14:05:23Z</time>
      </trkpt>
      <trkpt lat="46.0574420" lon="5.6398600">
        <ele>918.5</ele>
        <time>2022-07-25T14:05:24Z</time>
      </trkpt>
      <trkpt lat="46.0574420" lon="5.6398770">
        <ele>918.6</ele>
        <time>2022-07-25T14:05:25Z</time>
      </trkpt>
      <trkpt lat="46.0574450" lon="5.6399250">
        <ele>918.8</ele>
        <time>2022-07-25T14:05:26Z</time>
      </trkpt>
      <trkpt lat="46.0574460" lon="5.6399410">
        <ele>918.9</ele>
        <time>2022-07-25T14:05:27Z</time>
      </trkpt>
      <trkpt lat="46.0574500" lon="5.6399960">
        <ele>919.1</ele>
        <time>2022-07-25T14:05:29Z</time>
      </trkpt>
      <trkpt lat="46.0574520" lon="5.6400410">
        <ele>919.3</ele>
        <time>2022-07-25T14:05:30Z</time>
      </trkpt>
      <trkpt lat="46.0574530" lon="5.6400550">
        <ele>919.4</ele>
        <time>2022-07-25T14:05:31Z</time>
      </trkpt>
      <trkpt lat="46.0574590" lon="5.6401100">
        <ele>919.7</ele>
        <time>2022-07-25T14:05:32Z</time>
      </trkpt>
      <trkpt lat="46.0574600" lon="5.6401280">
        <ele>919.8</ele>
        <time>2022-07-25T14:05:33Z</time>
      </trkpt>
      <trkpt lat="46.0574680" lon="5.6401750">
        <ele>920.1</ele>
        <time>2022-07-25T14:05:34Z</time>
      </trkpt>
      <trkpt lat="46.0574710" lon="5.6401910">
        <ele>920.2</ele>
        <time>2022-07-25T14:05:35Z</time>
      </trkpt>
      <trkpt lat="46.0574750" lon="5.6402080">
        <ele>920.3</ele>
        <time>2022-07-25T14:05:36Z</time>
      </trkpt>
      <trkpt lat="46.0574790" lon="5.6402340">
        <ele>920.5</ele>
        <time>2022-07-25T14:05:37Z</time>
      </trkpt>
      <trkpt lat="46.0574790" lon="5.6402570">
        <ele>920.6</ele>
        <time>2022-07-25T14:05:38Z</time>
      </trkpt>
      <trkpt lat="46.0574790" lon="5.6402820">
        <ele>920.8</ele>
        <time>2022-07-25T14:05:39Z</time>
      </trkpt>
      <trkpt lat="46.0574820" lon="5.6403070">
        <ele>920.9</ele>
        <time>2022-07-25T14:05:40Z</time>
      </trkpt>
      <trkpt lat="46.0574870" lon="5.6403320">
        <ele>921.1</ele>
        <time>2022-07-25T14:05:41Z</time>
      </trkpt>
      <trkpt lat="46.0574920" lon="5.6403550">
        <ele>921.2</ele>
        <time>2022-07-25T14:05:42Z</time>
      </trkpt>
      <trkpt lat="46.0574950" lon="5.6403750">
        <ele>921.4</ele>
        <time>2022-07-25T14:05:43Z</time>
      </trkpt>
      <trkpt lat="46.0574970" lon="5.6403960">
        <ele>921.5</ele>
        <time>2022-07-25T14:05:44Z</time>
      </trkpt>
      <trkpt lat="46.0574980" lon="5.6404150">
        <ele>921.6</ele>
        <time>2022-07-25T14:05:45Z</time>
      </trkpt>
      <trkpt lat="46.0574970" lon="5.6404370">
        <ele>921.8</ele>
        <time>2022-07-25T14:05:46Z</time>
      </trkpt>
      <trkpt lat="46.0575020" lon="5.6404750">
        <ele>922.1</ele>
        <time>2022-07-25T14:05:48Z</time>
      </trkpt>
      <trkpt lat="46.0575050" lon="5.6405000">
        <ele>922.2</ele>
        <time>2022-07-25T14:05:49Z</time>
      </trkpt>
      <trkpt lat="46.0575090" lon="5.6405240">
        <ele>922.4</ele>
        <time>2022-07-25T14:05:50Z</time>
      </trkpt>
      <trkpt lat="46.0575120" lon="5.6405480">
        <ele>922.6</ele>
        <time>2022-07-25T14:05:51Z</time>
      </trkpt>
      <trkpt lat="46.0575140" lon="5.6405750">
        <ele>922.8</ele>
        <time>2022-07-25T14:05:52Z</time>
      </trkpt>
      <trkpt lat="46.0575170" lon="5.6405960">
        <ele>922.9</ele>
        <time>2022-07-25T14:05:53Z</time>
      </trkpt>
      <trkpt lat="46.0575180" lon="5.6406230">
        <ele>923.1</ele>
        <time>2022-07-25T14:05:54Z</time>
      </trkpt>
      <trkpt lat="46.0575180" lon="5.6406400">
        <ele>923.3</ele>
        <time>2022-07-25T14:05:55Z</time>
      </trkpt>
      <trkpt lat="46.0575210" lon="5.6406620">
        <ele>923.4</ele>
        <time>2022-07-25T14:05:56Z</time>
      </trkpt>
      <trkpt lat="46.0575230" lon="5.6406850">
        <ele>923.6</ele>
        <time>2022-07-25T14:05:57Z</time>
      </trkpt>
      <trkpt lat="46.0575260" lon="5.6407090">
        <ele>923.8</ele>
        <time>2022-07-25T14:05:58Z</time>
      </trkpt>
      <trkpt lat="46.0575290" lon="5.6407310">
        <ele>923.9</ele>
        <time>2022-07-25T14:05:59Z</time>
      </trkpt>
      <trkpt lat="46.0575360" lon="5.6407720">
        <ele>924.2</ele>
        <time>2022-07-25T14:06:01Z</time>
      </trkpt>
      <trkpt lat="46.0575390" lon="5.6407980">
        <ele>924.4</ele>
        <time>2022-07-25T14:06:02Z</time>
      </trkpt>
      <trkpt lat="46.0575430" lon="5.6408220">
        <ele>924.6</ele>
        <time>2022-07-25T14:06:03Z</time>
      </trkpt>
      <trkpt lat="46.0575470" lon="5.6408450">
        <ele>924.8</ele>
        <time>2022-07-25T14:06:04Z</time>
      </trkpt>
      <trkpt lat="46.0575500" lon="5.6408670">
        <ele>924.9</ele>
        <time>2022-07-25T14:06:05Z</time>
      </trkpt>
      <trkpt lat="46.0575530" lon="5.6408930">
        <ele>925.1</ele>
        <time>2022-07-25T14:06:06Z</time>
      </trkpt>
      <trkpt lat="46.0575530" lon="5.6409060">
        <ele>925.2</ele>
        <time>2022-07-25T14:06:07Z</time>
      </trkpt>
      <trkpt lat="46.0575540" lon="5.6409190">
        <ele>925.3</ele>
        <time>2022-07-25T14:06:08Z</time>
      </trkpt>
      <trkpt lat="46.0575550" lon="5.6409520">
        <ele>925.5</ele>
        <time>2022-07-25T14:06:09Z</time>
      </trkpt>
      <trkpt lat="46.0575540" lon="5.6409640">
        <ele>925.6</ele>
        <time>2022-07-25T14:06:10Z</time>
      </trkpt>
      <trkpt lat="46.0575530" lon="5.6409760">
        <ele>925.7</ele>
        <time>2022-07-25T14:06:11Z</time>
      </trkpt>
      <trkpt lat="46.0575550" lon="5.6410000">
        <ele>925.9</ele>
        <time>2022-07-25T14:06:12Z</time>
      </trkpt>
      <trkpt lat="46.0575570" lon="5.6410250">
        <ele>926.1</ele>
        <time>2022-07-25T14:06:13Z</time>
      </trkpt>
      <trkpt lat="46.0575570" lon="5.6410490">
        <ele>926.3</ele>
        <time>2022-07-25T14:06:14Z</time>
      </trkpt>
      <trkpt lat="46.0575600" lon="5.6410740">
        <ele>926.5</ele>
        <time>2022-07-25T14:06:15Z</time>
      </trkpt>
      <trkpt lat="46.0575610" lon="5.6410950">
        <ele>926.6</ele>
        <time>2022-07-25T14:06:16Z</time>
      </trkpt>
      <trkpt lat="46.0575600" lon="5.6411150">
        <ele>926.8</ele>
        <time>2022-07-25T14:06:17Z</time>
      </trkpt>
      <trkpt lat="46.0575560" lon="5.6411570">
        <ele>927.0</ele>
        <time>2022-07-25T14:06:18Z</time>
      </trkpt>
      <trkpt lat="46.0575550" lon="5.6411700">
        <ele>927.1</ele>
        <time>2022-07-25T14:06:19Z</time>
      </trkpt>
      <trkpt lat="46.0575440" lon="5.6412090">
        <ele>927.4</ele>
        <time>2022-07-25T14:06:20Z</time>
      </trkpt>
      <trkpt lat="46.0575400" lon="5.6412230">
        <ele>927.5</ele>
        <time>2022-07-25T14:06:21Z</time>
      </trkpt>
      <trkpt lat="46.0575310" lon="5.6412670">
        <ele>927.7</ele>
        <time>2022-07-25T14:06:22Z</time>
      </trkpt>
      <trkpt lat="46.0575290" lon="5.6412800">
        <ele>927.8</ele>
        <time>2022-07-25T14:06:23Z</time>
      </trkpt>
      <trkpt lat="46.0575170" lon="5.6413180">
        <ele>928.1</ele>
        <time>2022-07-25T14:06:24Z</time>
      </trkpt>
      <trkpt lat="46.0575130" lon="5.6413310">
        <ele>928.2</ele>
        <time>2022-07-25T14:06:25Z</time>
      </trkpt>
      <trkpt lat="46.0575000" lon="5.6413730">
        <ele>928.4</ele>
        <time>2022-07-25T14:06:26Z</time>
      </trkpt>
      <trkpt lat="46.0574960" lon="5.6413860">
        <ele>928.5</ele>
        <time>2022-07-25T14:06:27Z</time>
      </trkpt>
      <trkpt lat="46.0574810" lon="5.6414230">
        <ele>928.7</ele>
        <time>2022-07-25T14:06:28Z</time>
      </trkpt>
      <trkpt lat="46.0574750" lon="5.6414350">
        <ele>928.8</ele>
        <time>2022-07-25T14:06:29Z</time>
      </trkpt>
      <trkpt lat="46.0574570" lon="5.6414680">
        <ele>929.1</ele>
        <time>2022-07-25T14:06:30Z</time>
      </trkpt>
      <trkpt lat="46.0574510" lon="5.6414780">
        <ele>929.1</ele>
        <time>2022-07-25T14:06:31Z</time>
      </trkpt>
      <trkpt lat="46.0574220" lon="5.6415230">
        <ele>929.5</ele>
        <time>2022-07-25T14:06:33Z</time>
      </trkpt>
      <trkpt lat="46.0574140" lon="5.6415420">
        <ele>929.6</ele>
        <time>2022-07-25T14:06:34Z</time>
      </trkpt>
      <trkpt lat="46.0574080" lon="5.6415690">
        <ele>929.8</ele>
        <time>2022-07-25T14:06:35Z</time>
      </trkpt>
      <trkpt lat="46.0574020" lon="5.6415920">
        <ele>929.9</ele>
        <time>2022-07-25T14:06:36Z</time>
      </trkpt>
      <trkpt lat="46.0573940" lon="5.6416100">
        <ele>930.1</ele>
        <time>2022-07-25T14:06:37Z</time>
      </trkpt>
      <trkpt lat="46.0573830" lon="5.6416320">
        <ele>930.2</ele>
        <time>2022-07-25T14:06:38Z</time>
      </trkpt>
      <trkpt lat="46.0573720" lon="5.6416500">
        <ele>930.4</ele>
        <time>2022-07-25T14:06:39Z</time>
      </trkpt>
      <trkpt lat="46.0573630" lon="5.6416690">
        <ele>930.5</ele>
        <time>2022-07-25T14:06:40Z</time>
      </trkpt>
      <trkpt lat="46.0573520" lon="5.6416870">
        <ele>930.7</ele>
        <time>2022-07-25T14:06:41Z</time>
      </trkpt>
      <trkpt lat="46.0573280" lon="5.6416970">
        <ele>930.9</ele>
        <time>2022-07-25T14:06:42Z</time>
      </trkpt>
      <trkpt lat="46.0573010" lon="5.6416970">
        <ele>931.1</ele>
        <time>2022-07-25T14:06:44Z</time>
      </trkpt>
      <trkpt lat="46.0572710" lon="5.6416930">
        <ele>931.3</ele>
        <time>2022-07-25T14:06:45Z</time>
      </trkpt>
      <trkpt lat="46.0572410" lon="5.6416870">
        <ele>931.5</ele>
        <time>2022-07-25T14:06:46Z</time>
      </trkpt>
      <trkpt lat="46.0572300" lon="5.6416860">
        <ele>931.6</ele>
        <time>2022-07-25T14:06:47Z</time>
      </trkpt>
      <trkpt lat="46.0572050" lon="5.6416850">
        <ele>931.7</ele>
        <time>2022-07-25T14:06:48Z</time>
      </trkpt>
      <trkpt lat="46.0571980" lon="5.6416850">
        <ele>931.8</ele>
        <time>2022-07-25T14:06:49Z</time>
      </trkpt>
      <trkpt lat="46.0571910" lon="5.6416860">
        <ele>931.8</ele>
        <time>2022-07-25T14:06:50Z</time>
      </trkpt>
      <trkpt lat="46.0571790" lon="5.6416860">
        <ele>931.9</ele>
        <time>2022-07-25T14:06:51Z</time>
      </trkpt>
      <trkpt lat="46.0571660" lon="5.6416840">
        <ele>932.0</ele>
        <time>2022-07-25T14:06:52Z</time>
      </trkpt>
      <trkpt lat="46.0571550" lon="5.6416780">
        <ele>932.1</ele>
        <time>2022-07-25T14:06:53Z</time>
      </trkpt>
      <trkpt lat="46.0571460" lon="5.6416750">
        <ele>932.2</ele>
        <time>2022-07-25T14:06:54Z</time>
      </trkpt>
      <trkpt lat="46.0571420" lon="5.6416730">
        <ele>932.2</ele>
        <time>2022-07-25T14:06:55Z</time>
      </trkpt>
      <trkpt lat="46.0571380" lon="5.6416720">
        <ele>932.2</ele>
        <time>2022-07-25T14:06:56Z</time>
      </trkpt>
      <trkpt lat="46.0571300" lon="5.6416700">
        <ele>932.3</ele>
        <time>2022-07-25T14:06:57Z</time>
      </trkpt>
      <trkpt lat="46.0571250" lon="5.6416700">
        <ele>932.3</ele>
        <time>2022-07-25T14:06:58Z</time>
      </trkpt>
      <trkpt lat="46.0571160" lon="5.6416700">
        <ele>932.4</ele>
        <time>2022-07-25T14:06:59Z</time>
      </trkpt>
      <trkpt lat="46.0571040" lon="5.6416690">
        <ele>932.5</ele>
        <time>2022-07-25T14:07:00Z</time>
      </trkpt>
      <trkpt lat="46.0570970" lon="5.6416690">
        <ele>932.6</ele>
        <time>2022-07-25T14:07:01Z</time>
      </trkpt>
      <trkpt lat="46.0570940" lon="5.6416760">
        <ele>932.6</ele>
        <time>2022-07-25T14:07:02Z</time>
      </trkpt>
      <trkpt lat="46.0570940" lon="5.6416820">
        <ele>932.6</ele>
        <time>2022-07-25T14:07:03Z</time>
      </trkpt>
      <trkpt lat="46.0570950" lon="5.6416880">
        <ele>932.7</ele>
        <time>2022-07-25T14:07:04Z</time>
      </trkpt>
      <trkpt lat="46.0570960" lon="5.6416950">
        <ele>932.7</ele>
        <time>2022-07-25T14:07:05Z</time>
      </trkpt>
      <trkpt lat="46.0570970" lon="5.6417010">
        <ele>932.7</ele>
        <time>2022-07-25T14:07:06Z</time>
      </trkpt>
      <trkpt lat="46.0570980" lon="5.6417070">
        <ele>932.8</ele>
        <time>2022-07-25T14:07:07Z</time>
      </trkpt>
      <trkpt lat="46.0570990" lon="5.6417130">
        <ele>932.8</ele>
        <time>2022-07-25T14:07:08Z</time>
      </trkpt>
      <trkpt lat="46.0570990" lon="5.6417200">
        <ele>932.9</ele>
        <time>2022-07-25T14:07:09Z</time>
      </trkpt>
      <trkpt lat="46.0571000" lon="5.6417260">
        <ele>932.9</ele>
        <time>2022-07-25T14:07:10Z</time>
      </trkpt>
      <trkpt lat="46.0571010" lon="5.6417320">
        <ele>932.9</ele>
        <time>2022-07-25T14:07:11Z</time>
      </trkpt>
      <trkpt lat="46.0571020" lon="5.6417380">
        <ele>933.0</ele>
        <time>2022-07-25T14:07:12Z</time>
      </trkpt>
      <trkpt lat="46.0571030" lon="5.6417440">
        <ele>933.0</ele>
        <time>2022-07-25T14:07:13Z</time>
      </trkpt>
      <trkpt lat="46.0571040" lon="5.6417510">
        <ele>933.0</ele>
        <time>2022-07-25T14:07:14Z</time>
      </trkpt>
      <trkpt lat="46.0571050" lon="5.6417570">
        <ele>933.1</ele>
        <time>2022-07-25T14:07:15Z</time>
      </trkpt>
      <trkpt lat="46.0571050" lon="5.6417630">
        <ele>933.1</ele>
        <time>2022-07-25T14:07:16Z</time>
      </trkpt>
      <trkpt lat="46.0571060" lon="5.6417690">
        <ele>933.2</ele>
        <time>2022-07-25T14:07:17Z</time>
      </trkpt>
      <trkpt lat="46.0571070" lon="5.6417760">
        <ele>933.2</ele>
        <time>2022-07-25T14:07:18Z</time>
      </trkpt>
      <trkpt lat="46.0571080" lon="5.6417820">
        <ele>933.2</ele>
        <time>2022-07-25T14:07:19Z</time>
      </trkpt>
      <trkpt lat="46.0571090" lon="5.6417880">
        <ele>933.3</ele>
        <time>2022-07-25T14:07:20Z</time>
      </trkpt>
      <trkpt lat="46.0571100" lon="5.6417940">
        <ele>933.3</ele>
        <time>2022-07-25T14:07:29Z</time>
      </trkpt>
      <trkpt lat="46.0571110" lon="5.6418000">
        <ele>933.3</ele>
        <time>2022-07-25T14:07:31Z</time>
      </trkpt>
      <trkpt lat="46.0571110" lon="5.6418070">
        <ele>933.4</ele>
        <time>2022-07-25T14:07:32Z</time>
      </trkpt>
      <trkpt lat="46.0571110" lon="5.6418290">
        <ele>933.5</ele>
        <time>2022-07-25T14:07:33Z</time>
      </trkpt>
      <trkpt lat="46.0571110" lon="5.6418460">
        <ele>933.6</ele>
        <time>2022-07-25T14:07:34Z</time>
      </trkpt>
      <trkpt lat="46.0571130" lon="5.6418940">
        <ele>934.0</ele>
        <time>2022-07-25T14:07:36Z</time>
      </trkpt>
      <trkpt lat="46.0571130" lon="5.6419080">
        <ele>934.1</ele>
        <time>2022-07-25T14:07:37Z</time>
      </trkpt>
      <trkpt lat="46.0571140" lon="5.6419500">
        <ele>934.4</ele>
        <time>2022-07-25T14:07:38Z</time>
      </trkpt>
      <trkpt lat="46.0571140" lon="5.6419610">
        <ele>934.4</ele>
        <time>2022-07-25T14:07:39Z</time>
      </trkpt>
      <trkpt lat="46.0571120" lon="5.6419830">
        <ele>934.6</ele>
        <time>2022-07-25T14:07:40Z</time>
      </trkpt>
      <trkpt lat="46.0571120" lon="5.6420010">
        <ele>934.8</ele>
        <time>2022-07-25T14:07:41Z</time>
      </trkpt>
      <trkpt lat="46.0571130" lon="5.6420190">
        <ele>934.9</ele>
        <time>2022-07-25T14:07:42Z</time>
      </trkpt>
      <trkpt lat="46.0571120" lon="5.6420460">
        <ele>935.1</ele>
        <time>2022-07-25T14:07:43Z</time>
      </trkpt>
      <trkpt lat="46.0571110" lon="5.6420700">
        <ele>935.3</ele>
        <time>2022-07-25T14:07:44Z</time>
      </trkpt>
      <trkpt lat="46.0571110" lon="5.6420950">
        <ele>935.6</ele>
        <time>2022-07-25T14:07:46Z</time>
      </trkpt>
      <trkpt lat="46.0571050" lon="5.6421260">
        <ele>935.9</ele>
        <time>2022-07-25T14:07:47Z</time>
      </trkpt>
      <trkpt lat="46.0571010" lon="5.6421440">
        <ele>936.0</ele>
        <time>2022-07-25T14:07:48Z</time>
      </trkpt>
      <trkpt lat="46.0571010" lon="5.6421630">
        <ele>936.2</ele>
        <time>2022-07-25T14:07:49Z</time>
      </trkpt>
      <trkpt lat="46.0570990" lon="5.6421840">
        <ele>936.4</ele>
        <time>2022-07-25T14:07:50Z</time>
      </trkpt>
      <trkpt lat="46.0570960" lon="5.6422040">
        <ele>936.6</ele>
        <time>2022-07-25T14:07:51Z</time>
      </trkpt>
      <trkpt lat="46.0570910" lon="5.6422310">
        <ele>936.9</ele>
        <time>2022-07-25T14:07:53Z</time>
      </trkpt>
      <trkpt lat="46.0570880" lon="5.6422510">
        <ele>937.1</ele>
        <time>2022-07-25T14:07:54Z</time>
      </trkpt>
      <trkpt lat="46.0570860" lon="5.6422740">
        <ele>937.3</ele>
        <time>2022-07-25T14:07:55Z</time>
      </trkpt>
      <trkpt lat="46.0570840" lon="5.6422900">
        <ele>937.5</ele>
        <time>2022-07-25T14:07:56Z</time>
      </trkpt>
      <trkpt lat="46.0570800" lon="5.6423000">
        <ele>937.6</ele>
        <time>2022-07-25T14:07:58Z</time>
      </trkpt>
      <trkpt lat="46.0570740" lon="5.6423180">
        <ele>937.8</ele>
        <time>2022-07-25T14:07:59Z</time>
      </trkpt>
      <trkpt lat="46.0570680" lon="5.6423380">
        <ele>938.0</ele>
        <time>2022-07-25T14:08:00Z</time>
      </trkpt>
      <trkpt lat="46.0570640" lon="5.6423580">
        <ele>938.2</ele>
        <time>2022-07-25T14:08:01Z</time>
      </trkpt>
      <trkpt lat="46.0570690" lon="5.6423710">
        <ele>938.3</ele>
        <time>2022-07-25T14:08:02Z</time>
      </trkpt>
      <trkpt lat="46.0570760" lon="5.6423900">
        <ele>938.5</ele>
        <time>2022-07-25T14:08:04Z</time>
      </trkpt>
      <trkpt lat="46.0570800" lon="5.6424040">
        <ele>938.7</ele>
        <time>2022-07-25T14:08:05Z</time>
      </trkpt>
      <trkpt lat="46.0570880" lon="5.6424500">
        <ele>939.2</ele>
        <time>2022-07-25T14:08:06Z</time>
      </trkpt>
      <trkpt lat="46.0570890" lon="5.6424620">
        <ele>939.3</ele>
        <time>2022-07-25T14:08:07Z</time>
      </trkpt>
      <trkpt lat="46.0570900" lon="5.6424830">
        <ele>939.5</ele>
        <time>2022-07-25T14:08:09Z</time>
      </trkpt>
      <trkpt lat="46.0570880" lon="5.6425020">
        <ele>939.7</ele>
        <time>2022-07-25T14:08:10Z</time>
      </trkpt>
      <trkpt lat="46.0570860" lon="5.6425170">
        <ele>939.8</ele>
        <time>2022-07-25T14:08:11Z</time>
      </trkpt>
      <trkpt lat="46.0570840" lon="5.6425310">
        <ele>940.0</ele>
        <time>2022-07-25T14:08:12Z</time>
      </trkpt>
      <trkpt lat="46.0570780" lon="5.6425630">
        <ele>940.3</ele>
        <time>2022-07-25T14:08:14Z</time>
      </trkpt>
      <trkpt lat="46.0570750" lon="5.6425760">
        <ele>940.4</ele>
        <time>2022-07-25T14:08:15Z</time>
      </trkpt>
      <trkpt lat="46.0570740" lon="5.6425940">
        <ele>940.6</ele>
        <time>2022-07-25T14:08:16Z</time>
      </trkpt>
      <trkpt lat="46.0570690" lon="5.6426120">
        <ele>940.8</ele>
        <time>2022-07-25T14:08:17Z</time>
      </trkpt>
      <trkpt lat="46.0570640" lon="5.6426280">
        <ele>940.9</ele>
        <time>2022-07-25T14:08:18Z</time>
      </trkpt>
      <trkpt lat="46.0570580" lon="5.6426380">
        <ele>941.1</ele>
        <time>2022-07-25T14:08:19Z</time>
      </trkpt>
      <trkpt lat="46.0570550" lon="5.6426480">
        <ele>941.2</ele>
        <time>2022-07-25T14:08:20Z</time>
      </trkpt>
      <trkpt lat="46.0570520" lon="5.6426670">
        <ele>941.4</ele>
        <time>2022-07-25T14:08:21Z</time>
      </trkpt>
      <trkpt lat="46.0570470" lon="5.6426850">
        <ele>941.6</ele>
        <time>2022-07-25T14:08:22Z</time>
      </trkpt>
      <trkpt lat="46.0570300" lon="5.6427190">
        <ele>942.0</ele>
        <time>2022-07-25T14:08:24Z</time>
      </trkpt>
      <trkpt lat="46.0570280" lon="5.6427280">
        <ele>942.1</ele>
        <time>2022-07-25T14:08:25Z</time>
      </trkpt>
      <trkpt lat="46.0570300" lon="5.6427320">
        <ele>942.1</ele>
        <time>2022-07-25T14:08:26Z</time>
      </trkpt>
      <trkpt lat="46.0570290" lon="5.6427400">
        <ele>942.2</ele>
        <time>2022-07-25T14:08:27Z</time>
      </trkpt>
      <trkpt lat="46.0570270" lon="5.6427450">
        <ele>942.2</ele>
        <time>2022-07-25T14:08:28Z</time>
      </trkpt>
      <trkpt lat="46.0570230" lon="5.6427560">
        <ele>942.4</ele>
        <time>2022-07-25T14:08:29Z</time>
      </trkpt>
      <trkpt lat="46.0570180" lon="5.6427820">
        <ele>942.6</ele>
        <time>2022-07-25T14:08:31Z</time>
      </trkpt>
      <trkpt lat="46.0570190" lon="5.6427960">
        <ele>942.8</ele>
        <time>2022-07-25T14:08:32Z</time>
      </trkpt>
      <trkpt lat="46.0570190" lon="5.6428120">
        <ele>942.9</ele>
        <time>2022-07-25T14:08:33Z</time>
      </trkpt>
      <trkpt lat="46.0570180" lon="5.6428230">
        <ele>943.0</ele>
        <time>2022-07-25T14:08:34Z</time>
      </trkpt>
      <trkpt lat="46.0570160" lon="5.6428300">
        <ele>943.1</ele>
        <time>2022-07-25T14:08:35Z</time>
      </trkpt>
      <trkpt lat="46.0570150" lon="5.6428460">
        <ele>943.3</ele>
        <time>2022-07-25T14:08:36Z</time>
      </trkpt>
      <trkpt lat="46.0570150" lon="5.6428640">
        <ele>943.4</ele>
        <time>2022-07-25T14:08:37Z</time>
      </trkpt>
      <trkpt lat="46.0570140" lon="5.6428790">
        <ele>943.6</ele>
        <time>2022-07-25T14:08:38Z</time>
      </trkpt>
      <trkpt lat="46.0570170" lon="5.6428970">
        <ele>943.8</ele>
        <time>2022-07-25T14:08:39Z</time>
      </trkpt>
      <trkpt lat="46.0570210" lon="5.6429120">
        <ele>943.9</ele>
        <time>2022-07-25T14:08:40Z</time>
      </trkpt>
      <trkpt lat="46.0570270" lon="5.6429230">
        <ele>944.0</ele>
        <time>2022-07-25T14:08:41Z</time>
      </trkpt>
      <trkpt lat="46.0570320" lon="5.6429330">
        <ele>944.2</ele>
        <time>2022-07-25T14:08:42Z</time>
      </trkpt>
      <trkpt lat="46.0570370" lon="5.6429450">
        <ele>944.3</ele>
        <time>2022-07-25T14:08:43Z</time>
      </trkpt>
      <trkpt lat="46.0570430" lon="5.6429600">
        <ele>944.5</ele>
        <time>2022-07-25T14:08:44Z</time>
      </trkpt>
      <trkpt lat="46.0570470" lon="5.6429740">
        <ele>944.6</ele>
        <time>2022-07-25T14:08:45Z</time>
      </trkpt>
      <trkpt lat="46.0570490" lon="5.6429850">
        <ele>944.7</ele>
        <time>2022-07-25T14:08:46Z</time>
      </trkpt>
      <trkpt lat="46.0570460" lon="5.6430110">
        <ele>945.0</ele>
        <time>2022-07-25T14:08:48Z</time>
      </trkpt>
      <trkpt lat="46.0570410" lon="5.6430240">
        <ele>945.1</ele>
        <time>2022-07-25T14:08:49Z</time>
      </trkpt>
      <trkpt lat="46.0570360" lon="5.6430550">
        <ele>945.4</ele>
        <time>2022-07-25T14:08:50Z</time>
      </trkpt>
      <trkpt lat="46.0570380" lon="5.6430660">
        <ele>945.5</ele>
        <time>2022-07-25T14:08:52Z</time>
      </trkpt>
      <trkpt lat="46.0570390" lon="5.6430780">
        <ele>945.6</ele>
        <time>2022-07-25T14:08:53Z</time>
      </trkpt>
      <trkpt lat="46.0570430" lon="5.6430920">
        <ele>945.8</ele>
        <time>2022-07-25T14:08:54Z</time>
      </trkpt>
      <trkpt lat="46.0570470" lon="5.6431050">
        <ele>945.9</ele>
        <time>2022-07-25T14:08:55Z</time>
      </trkpt>
      <trkpt lat="46.0570540" lon="5.6431220">
        <ele>949.0</ele>
        <time>2022-07-25T14:08:56Z</time>
      </trkpt>
      <trkpt lat="46.0570680" lon="5.6431580">
        <ele>949.4</ele>
        <time>2022-07-25T14:08:58Z</time>
      </trkpt>
      <trkpt lat="46.0570720" lon="5.6431680">
        <ele>949.5</ele>
        <time>2022-07-25T14:08:59Z</time>
      </trkpt>
      <trkpt lat="46.0570820" lon="5.6431940">
        <ele>949.8</ele>
        <time>2022-07-25T14:09:00Z</time>
      </trkpt>
      <trkpt lat="46.0570850" lon="5.6432110">
        <ele>950.0</ele>
        <time>2022-07-25T14:09:02Z</time>
      </trkpt>
      <trkpt lat="46.0570890" lon="5.6432240">
        <ele>950.2</ele>
        <time>2022-07-25T14:09:03Z</time>
      </trkpt>
      <trkpt lat="46.0570940" lon="5.6432430">
        <ele>950.4</ele>
        <time>2022-07-25T14:09:04Z</time>
      </trkpt>
      <trkpt lat="46.0570980" lon="5.6432550">
        <ele>950.5</ele>
        <time>2022-07-25T14:09:05Z</time>
      </trkpt>
      <trkpt lat="46.0571090" lon="5.6432830">
        <ele>950.9</ele>
        <time>2022-07-25T14:09:06Z</time>
      </trkpt>
      <trkpt lat="46.0571150" lon="5.6432990">
        <ele>951.1</ele>
        <time>2022-07-25T14:09:08Z</time>
      </trkpt>
      <trkpt lat="46.0571210" lon="5.6433140">
        <ele>951.3</ele>
        <time>2022-07-25T14:09:09Z</time>
      </trkpt>
      <trkpt lat="46.0571280" lon="5.6433300">
        <ele>951.5</ele>
        <time>2022-07-25T14:09:10Z</time>
      </trkpt>
      <trkpt lat="46.0571340" lon="5.6433460">
        <ele>951.7</ele>
        <time>2022-07-25T14:09:11Z</time>
      </trkpt>
      <trkpt lat="46.0571430" lon="5.6433630">
        <ele>951.9</ele>
        <time>2022-07-25T14:09:13Z</time>
      </trkpt>
      <trkpt lat="46.0571540" lon="5.6433860">
        <ele>952.2</ele>
        <time>2022-07-25T14:09:14Z</time>
      </trkpt>
      <trkpt lat="46.0571590" lon="5.6433950">
        <ele>952.3</ele>
        <time>2022-07-25T14:09:15Z</time>
      </trkpt>
      <trkpt lat="46.0571620" lon="5.6434060">
        <ele>952.4</ele>
        <time>2022-07-25T14:09:16Z</time>
      </trkpt>
      <trkpt lat="46.0571650" lon="5.6434250">
        <ele>952.6</ele>
        <time>2022-07-25T14:09:17Z</time>
      </trkpt>
      <trkpt lat="46.0571680" lon="5.6434390">
        <ele>952.8</ele>
        <time>2022-07-25T14:09:18Z</time>
      </trkpt>
      <trkpt lat="46.0571740" lon="5.6434490">
        <ele>952.9</ele>
        <time>2022-07-25T14:09:20Z</time>
      </trkpt>
      <trkpt lat="46.0571800" lon="5.6434690">
        <ele>953.1</ele>
        <time>2022-07-25T14:09:21Z</time>
      </trkpt>
      <trkpt lat="46.0571850" lon="5.6434880">
        <ele>953.3</ele>
        <time>2022-07-25T14:09:22Z</time>
      </trkpt>
      <trkpt lat="46.0571960" lon="5.6435120">
        <ele>953.6</ele>
        <time>2022-07-25T14:09:24Z</time>
      </trkpt>
      <trkpt lat="46.0572000" lon="5.6435230">
        <ele>953.7</ele>
        <time>2022-07-25T14:09:25Z</time>
      </trkpt>
      <trkpt lat="46.0572040" lon="5.6435420">
        <ele>953.9</ele>
        <time>2022-07-25T14:09:26Z</time>
      </trkpt>
      <trkpt lat="46.0572040" lon="5.6435580">
        <ele>954.0</ele>
        <time>2022-07-25T14:09:27Z</time>
      </trkpt>
      <trkpt lat="46.0572040" lon="5.6435770">
        <ele>954.2</ele>
        <time>2022-07-25T14:09:29Z</time>
      </trkpt>
      <trkpt lat="46.0572030" lon="5.6435850">
        <ele>954.2</ele>
        <time>2022-07-25T14:09:30Z</time>
      </trkpt>
      <trkpt lat="46.0572050" lon="5.6435950">
        <ele>954.3</ele>
        <time>2022-07-25T14:09:31Z</time>
      </trkpt>
      <trkpt lat="46.0572080" lon="5.6436070">
        <ele>954.4</ele>
        <time>2022-07-25T14:09:32Z</time>
      </trkpt>
      <trkpt lat="46.0572080" lon="5.6436120">
        <ele>954.5</ele>
        <time>2022-07-25T14:09:33Z</time>
      </trkpt>
      <trkpt lat="46.0572110" lon="5.6436290">
        <ele>954.6</ele>
        <time>2022-07-25T14:09:34Z</time>
      </trkpt>
      <trkpt lat="46.0572140" lon="5.6436500">
        <ele>954.8</ele>
        <time>2022-07-25T14:09:35Z</time>
      </trkpt>
      <trkpt lat="46.0572200" lon="5.6436670">
        <ele>954.9</ele>
        <time>2022-07-25T14:09:36Z</time>
      </trkpt>
      <trkpt lat="46.0572230" lon="5.6436790">
        <ele>955.0</ele>
        <time>2022-07-25T14:09:37Z</time>
      </trkpt>
      <trkpt lat="46.0572250" lon="5.6437150">
        <ele>955.2</ele>
        <time>2022-07-25T14:09:39Z</time>
      </trkpt>
      <trkpt lat="46.0572270" lon="5.6437350">
        <ele>955.3</ele>
        <time>2022-07-25T14:09:40Z</time>
      </trkpt>
      <trkpt lat="46.0572300" lon="5.6437490">
        <ele>955.4</ele>
        <time>2022-07-25T14:09:41Z</time>
      </trkpt>
      <trkpt lat="46.0572320" lon="5.6437650">
        <ele>955.5</ele>
        <time>2022-07-25T14:09:42Z</time>
      </trkpt>
      <trkpt lat="46.0572360" lon="5.6438120">
        <ele>955.7</ele>
        <time>2022-07-25T14:09:44Z</time>
      </trkpt>
      <trkpt lat="46.0572360" lon="5.6438240">
        <ele>955.8</ele>
        <time>2022-07-25T14:09:45Z</time>
      </trkpt>
      <trkpt lat="46.0572360" lon="5.6438460">
        <ele>955.9</ele>
        <time>2022-07-25T14:09:46Z</time>
      </trkpt>
      <trkpt lat="46.0572380" lon="5.6438710">
        <ele>956.0</ele>
        <time>2022-07-25T14:09:47Z</time>
      </trkpt>
      <trkpt lat="46.0572400" lon="5.6438920">
        <ele>956.0</ele>
        <time>2022-07-25T14:09:48Z</time>
      </trkpt>
      <trkpt lat="46.0572420" lon="5.6439110">
        <ele>956.1</ele>
        <time>2022-07-25T14:09:49Z</time>
      </trkpt>
      <trkpt lat="46.0572420" lon="5.6439340">
        <ele>956.1</ele>
        <time>2022-07-25T14:09:50Z</time>
      </trkpt>
      <trkpt lat="46.0572420" lon="5.6439740">
        <ele>956.2</ele>
        <time>2022-07-25T14:09:52Z</time>
      </trkpt>
      <trkpt lat="46.0572380" lon="5.6439990">
        <ele>956.3</ele>
        <time>2022-07-25T14:09:53Z</time>
      </trkpt>
      <trkpt lat="46.0572360" lon="5.6440240">
        <ele>956.4</ele>
        <time>2022-07-25T14:09:54Z</time>
      </trkpt>
      <trkpt lat="46.0572350" lon="5.6440490">
        <ele>956.4</ele>
        <time>2022-07-25T14:09:55Z</time>
      </trkpt>
      <trkpt lat="46.0572350" lon="5.6440710">
        <ele>956.4</ele>
        <time>2022-07-25T14:09:56Z</time>
      </trkpt>
      <trkpt lat="46.0572330" lon="5.6441110">
        <ele>956.5</ele>
        <time>2022-07-25T14:09:57Z</time>
      </trkpt>
      <trkpt lat="46.0572330" lon="5.6441260">
        <ele>956.5</ele>
        <time>2022-07-25T14:09:58Z</time>
      </trkpt>
      <trkpt lat="46.0572330" lon="5.6441550">
        <ele>956.5</ele>
        <time>2022-07-25T14:09:59Z</time>
      </trkpt>
      <trkpt lat="46.0572340" lon="5.6441750">
        <ele>956.5</ele>
        <time>2022-07-25T14:10:00Z</time>
      </trkpt>
      <trkpt lat="46.0572350" lon="5.6441980">
        <ele>956.5</ele>
        <time>2022-07-25T14:10:01Z</time>
      </trkpt>
      <trkpt lat="46.0572360" lon="5.6442050">
        <ele>956.5</ele>
        <time>2022-07-25T14:10:03Z</time>
      </trkpt>
      <trkpt lat="46.0572370" lon="5.6442120">
        <ele>956.5</ele>
        <time>2022-07-25T14:10:04Z</time>
      </trkpt>
      <trkpt lat="46.0572380" lon="5.6442190">
        <ele>956.5</ele>
        <time>2022-07-25T14:10:05Z</time>
      </trkpt>
      <trkpt lat="46.0572390" lon="5.6442260">
        <ele>956.5</ele>
        <time>2022-07-25T14:10:06Z</time>
      </trkpt>
      <trkpt lat="46.0572390" lon="5.6442330">
        <ele>956.5</ele>
        <time>2022-07-25T14:10:07Z</time>
      </trkpt>
      <trkpt lat="46.0572400" lon="5.6442390">
        <ele>956.5</ele>
        <time>2022-07-25T14:10:08Z</time>
      </trkpt>
      <trkpt lat="46.0572410" lon="5.6442460">
        <ele>956.5</ele>
        <time>2022-07-25T14:10:09Z</time>
      </trkpt>
      <trkpt lat="46.0572420" lon="5.6442530">
        <ele>956.5</ele>
        <time>2022-07-25T14:10:10Z</time>
      </trkpt>
      <trkpt lat="46.0572430" lon="5.6442600">
        <ele>956.5</ele>
        <time>2022-07-25T14:10:11Z</time>
      </trkpt>
      <trkpt lat="46.0572440" lon="5.6442670">
        <ele>956.5</ele>
        <time>2022-07-25T14:10:12Z</time>
      </trkpt>
      <trkpt lat="46.0572450" lon="5.6442740">
        <ele>956.5</ele>
        <time>2022-07-25T14:10:13Z</time>
      </trkpt>
      <trkpt lat="46.0572450" lon="5.6442810">
        <ele>956.5</ele>
        <time>2022-07-25T14:10:56Z</time>
      </trkpt>
      <trkpt lat="46.0572460" lon="5.6442870">
        <ele>956.5</ele>
        <time>2022-07-25T14:10:57Z</time>
      </trkpt>
      <trkpt lat="46.0572470" lon="5.6442940">
        <ele>956.5</ele>
        <time>2022-07-25T14:10:58Z</time>
      </trkpt>
      <trkpt lat="46.0572500" lon="5.6443220">
        <ele>956.5</ele>
        <time>2022-07-25T14:10:59Z</time>
      </trkpt>
      <trkpt lat="46.0572510" lon="5.6443280">
        <ele>956.5</ele>
        <time>2022-07-25T14:11:00Z</time>
      </trkpt>
      <trkpt lat="46.0572570" lon="5.6443220">
        <ele>956.5</ele>
        <time>2022-07-25T14:11:01Z</time>
      </trkpt>
      <trkpt lat="46.0572400" lon="5.6443430">
        <ele>956.5</ele>
        <time>2022-07-25T14:11:02Z</time>
      </trkpt>
      <trkpt lat="46.0572250" lon="5.6443970">
        <ele>956.4</ele>
        <time>2022-07-25T14:11:03Z</time>
      </trkpt>
      <trkpt lat="46.0572180" lon="5.6444170">
        <ele>956.4</ele>
        <time>2022-07-25T14:11:04Z</time>
      </trkpt>
      <trkpt lat="46.0572010" lon="5.6444520">
        <ele>956.3</ele>
        <time>2022-07-25T14:11:06Z</time>
      </trkpt>
      <trkpt lat="46.0571940" lon="5.6444640">
        <ele>956.3</ele>
        <time>2022-07-25T14:11:07Z</time>
      </trkpt>
      <trkpt lat="46.0571830" lon="5.6444730">
        <ele>956.2</ele>
        <time>2022-07-25T14:11:08Z</time>
      </trkpt>
      <trkpt lat="46.0571630" lon="5.6444750">
        <ele>956.2</ele>
        <time>2022-07-25T14:11:09Z</time>
      </trkpt>
      <trkpt lat="46.0571370" lon="5.6444850">
        <ele>956.1</ele>
        <time>2022-07-25T14:11:10Z</time>
      </trkpt>
      <trkpt lat="46.0570990" lon="5.6444890">
        <ele>956.0</ele>
        <time>2022-07-25T14:11:12Z</time>
      </trkpt>
      <trkpt lat="46.0570630" lon="5.6444850">
        <ele>955.8</ele>
        <time>2022-07-25T14:11:13Z</time>
      </trkpt>
      <trkpt lat="46.0570490" lon="5.6444840">
        <ele>955.8</ele>
        <time>2022-07-25T14:11:14Z</time>
      </trkpt>
      <trkpt lat="46.0570020" lon="5.6444700">
        <ele>955.6</ele>
        <time>2022-07-25T14:11:16Z</time>
      </trkpt>
      <trkpt lat="46.0569900" lon="5.6444640">
        <ele>955.5</ele>
        <time>2022-07-25T14:11:17Z</time>
      </trkpt>
      <trkpt lat="46.0569780" lon="5.6444580">
        <ele>955.5</ele>
        <time>2022-07-25T14:11:18Z</time>
      </trkpt>
      <trkpt lat="46.0569490" lon="5.6444470">
        <ele>955.3</ele>
        <time>2022-07-25T14:11:19Z</time>
      </trkpt>
      <trkpt lat="46.0569050" lon="5.6444270">
        <ele>955.1</ele>
        <time>2022-07-25T14:11:21Z</time>
      </trkpt>
      <trkpt lat="46.0568920" lon="5.6444200">
        <ele>955.0</ele>
        <time>2022-07-25T14:11:22Z</time>
      </trkpt>
      <trkpt lat="46.0568800" lon="5.6444130">
        <ele>955.0</ele>
        <time>2022-07-25T14:11:23Z</time>
      </trkpt>
      <trkpt lat="46.0568460" lon="5.6443930">
        <ele>954.8</ele>
        <time>2022-07-25T14:11:25Z</time>
      </trkpt>
      <trkpt lat="46.0568350" lon="5.6443860">
        <ele>954.7</ele>
        <time>2022-07-25T14:11:26Z</time>
      </trkpt>
      <trkpt lat="46.0568100" lon="5.6443710">
        <ele>954.6</ele>
        <time>2022-07-25T14:11:27Z</time>
      </trkpt>
      <trkpt lat="46.0567720" lon="5.6443520">
        <ele>954.4</ele>
        <time>2022-07-25T14:11:28Z</time>
      </trkpt>
      <trkpt lat="46.0567590" lon="5.6443440">
        <ele>954.3</ele>
        <time>2022-07-25T14:11:29Z</time>
      </trkpt>
      <trkpt lat="46.0567140" lon="5.6443390">
        <ele>954.1</ele>
        <time>2022-07-25T14:11:31Z</time>
      </trkpt>
      <trkpt lat="46.0567000" lon="5.6443410">
        <ele>954.0</ele>
        <time>2022-07-25T14:11:32Z</time>
      </trkpt>
      <trkpt lat="46.0566850" lon="5.6443420">
        <ele>953.9</ele>
        <time>2022-07-25T14:11:33Z</time>
      </trkpt>
      <trkpt lat="46.0566590" lon="5.6443480">
        <ele>953.8</ele>
        <time>2022-07-25T14:11:34Z</time>
      </trkpt>
      <trkpt lat="46.0566230" lon="5.6443550">
        <ele>953.7</ele>
        <time>2022-07-25T14:11:36Z</time>
      </trkpt>
      <trkpt lat="46.0565860" lon="5.6443600">
        <ele>953.5</ele>
        <time>2022-07-25T14:11:37Z</time>
      </trkpt>
      <trkpt lat="46.0565580" lon="5.6443660">
        <ele>953.4</ele>
        <time>2022-07-25T14:11:38Z</time>
      </trkpt>
      <trkpt lat="46.0565290" lon="5.6443750">
        <ele>953.2</ele>
        <time>2022-07-25T14:11:39Z</time>
      </trkpt>
      <trkpt lat="46.0564920" lon="5.6443870">
        <ele>953.1</ele>
        <time>2022-07-25T14:11:41Z</time>
      </trkpt>
      <trkpt lat="46.0564620" lon="5.6443980">
        <ele>953.0</ele>
        <time>2022-07-25T14:11:42Z</time>
      </trkpt>
      <trkpt lat="46.0564350" lon="5.6444110">
        <ele>952.8</ele>
        <time>2022-07-25T14:11:43Z</time>
      </trkpt>
      <trkpt lat="46.0564030" lon="5.6444260">
        <ele>952.7</ele>
        <time>2022-07-25T14:11:45Z</time>
      </trkpt>
      <trkpt lat="46.0563730" lon="5.6444370">
        <ele>952.6</ele>
        <time>2022-07-25T14:11:46Z</time>
      </trkpt>
      <trkpt lat="46.0563370" lon="5.6444590">
        <ele>952.4</ele>
        <time>2022-07-25T14:11:47Z</time>
      </trkpt>
      <trkpt lat="46.0563070" lon="5.6444730">
        <ele>952.3</ele>
        <time>2022-07-25T14:11:48Z</time>
      </trkpt>
      <trkpt lat="46.0562710" lon="5.6444910">
        <ele>952.1</ele>
        <time>2022-07-25T14:11:49Z</time>
      </trkpt>
      <trkpt lat="46.0562170" lon="5.6445020">
        <ele>952.0</ele>
        <time>2022-07-25T14:11:51Z</time>
      </trkpt>
      <trkpt lat="46.0561810" lon="5.6445080">
        <ele>951.9</ele>
        <time>2022-07-25T14:11:52Z</time>
      </trkpt>
      <trkpt lat="46.0561450" lon="5.6445230">
        <ele>951.8</ele>
        <time>2022-07-25T14:11:53Z</time>
      </trkpt>
      <trkpt lat="46.0561070" lon="5.6445330">
        <ele>951.7</ele>
        <time>2022-07-25T14:11:54Z</time>
      </trkpt>
      <trkpt lat="46.0560660" lon="5.6445470">
        <ele>951.6</ele>
        <time>2022-07-25T14:11:55Z</time>
      </trkpt>
      <trkpt lat="46.0560300" lon="5.6445590">
        <ele>951.5</ele>
        <time>2022-07-25T14:11:56Z</time>
      </trkpt>
      <trkpt lat="46.0560000" lon="5.6445610">
        <ele>951.4</ele>
        <time>2022-07-25T14:11:57Z</time>
      </trkpt>
      <trkpt lat="46.0559750" lon="5.6445700">
        <ele>951.3</ele>
        <time>2022-07-25T14:11:58Z</time>
      </trkpt>
      <trkpt lat="46.0559660" lon="5.6445740">
        <ele>951.3</ele>
        <time>2022-07-25T14:11:59Z</time>
      </trkpt>
      <trkpt lat="46.0559650" lon="5.6445770">
        <ele>951.3</ele>
        <time>2022-07-25T14:12:01Z</time>
      </trkpt>
      <trkpt lat="46.0559680" lon="5.6445780">
        <ele>951.3</ele>
        <time>2022-07-25T14:12:02Z</time>
      </trkpt>
      <trkpt lat="46.0559710" lon="5.6445780">
        <ele>951.3</ele>
        <time>2022-07-25T14:12:03Z</time>
      </trkpt>
      <trkpt lat="46.0559740" lon="5.6445780">
        <ele>951.3</ele>
        <time>2022-07-25T14:12:04Z</time>
      </trkpt>
      <trkpt lat="46.0559760" lon="5.6445780">
        <ele>951.3</ele>
        <time>2022-07-25T14:12:05Z</time>
      </trkpt>
      <trkpt lat="46.0559780" lon="5.6445790">
        <ele>951.2</ele>
        <time>2022-07-25T14:12:06Z</time>
      </trkpt>
      <trkpt lat="46.0559800" lon="5.6445790">
        <ele>951.2</ele>
        <time>2022-07-25T14:12:07Z</time>
      </trkpt>
      <trkpt lat="46.0559800" lon="5.6445790">
        <ele>951.2</ele>
        <time>2022-07-25T14:12:08Z</time>
      </trkpt>
      <trkpt lat="46.0559810" lon="5.6445790">
        <ele>951.2</ele>
        <time>2022-07-25T14:12:09Z</time>
      </trkpt>
      <trkpt lat="46.0559370" lon="5.6445600">
        <ele>951.1</ele>
        <time>2022-07-25T14:12:18Z</time>
      </trkpt>
      <trkpt lat="46.0559260" lon="5.6445570">
        <ele>951.1</ele>
        <time>2022-07-25T14:12:19Z</time>
      </trkpt>
      <trkpt lat="46.0558950" lon="5.6445510">
        <ele>950.9</ele>
        <time>2022-07-25T14:12:21Z</time>
      </trkpt>
      <trkpt lat="46.0558650" lon="5.6445560">
        <ele>950.9</ele>
        <time>2022-07-25T14:12:22Z</time>
      </trkpt>
      <trkpt lat="46.0558360" lon="5.6445610">
        <ele>950.8</ele>
        <time>2022-07-25T14:12:23Z</time>
      </trkpt>
      <trkpt lat="46.0558080" lon="5.6445600">
        <ele>950.7</ele>
        <time>2022-07-25T14:12:24Z</time>
      </trkpt>
      <trkpt lat="46.0557830" lon="5.6445590">
        <ele>950.6</ele>
        <time>2022-07-25T14:12:25Z</time>
      </trkpt>
      <trkpt lat="46.0557390" lon="5.6445760">
        <ele>950.6</ele>
        <time>2022-07-25T14:12:27Z</time>
      </trkpt>
      <trkpt lat="46.0556960" lon="5.6445880">
        <ele>950.5</ele>
        <time>2022-07-25T14:12:28Z</time>
      </trkpt>
      <trkpt lat="46.0556630" lon="5.6446020">
        <ele>950.5</ele>
        <time>2022-07-25T14:12:29Z</time>
      </trkpt>
      <trkpt lat="46.0556350" lon="5.6446160">
        <ele>950.5</ele>
        <time>2022-07-25T14:12:30Z</time>
      </trkpt>
      <trkpt lat="46.0556050" lon="5.6446430">
        <ele>950.5</ele>
        <time>2022-07-25T14:12:31Z</time>
      </trkpt>
      <trkpt lat="46.0555990" lon="5.6446520">
        <ele>950.5</ele>
        <time>2022-07-25T14:12:32Z</time>
      </trkpt>
      <trkpt lat="46.0555720" lon="5.6446670">
        <ele>950.5</ele>
        <time>2022-07-25T14:12:33Z</time>
      </trkpt>
      <trkpt lat="46.0555620" lon="5.6446710">
        <ele>950.5</ele>
        <time>2022-07-25T14:12:34Z</time>
      </trkpt>
      <trkpt lat="46.0555440" lon="5.6446640">
        <ele>950.5</ele>
        <time>2022-07-25T14:12:35Z</time>
      </trkpt>
      <trkpt lat="46.0555210" lon="5.6446560">
        <ele>950.5</ele>
        <time>2022-07-25T14:12:37Z</time>
      </trkpt>
      <trkpt lat="46.0554940" lon="5.6446540">
        <ele>950.5</ele>
        <time>2022-07-25T14:12:38Z</time>
      </trkpt>
      <trkpt lat="46.0554810" lon="5.6446530">
        <ele>950.5</ele>
        <time>2022-07-25T14:12:39Z</time>
      </trkpt>
      <trkpt lat="46.0554590" lon="5.6446470">
        <ele>950.4</ele>
        <time>2022-07-25T14:12:40Z</time>
      </trkpt>
      <trkpt lat="46.0554190" lon="5.6446030">
        <ele>950.4</ele>
        <time>2022-07-25T14:12:42Z</time>
      </trkpt>
      <trkpt lat="46.0553820" lon="5.6445720">
        <ele>950.3</ele>
        <time>2022-07-25T14:12:43Z</time>
      </trkpt>
      <trkpt lat="46.0553450" lon="5.6445360">
        <ele>950.3</ele>
        <time>2022-07-25T14:12:44Z</time>
      </trkpt>
      <trkpt lat="46.0553100" lon="5.6445060">
        <ele>950.3</ele>
        <time>2022-07-25T14:12:45Z</time>
      </trkpt>
      <trkpt lat="46.0552700" lon="5.6444770">
        <ele>950.3</ele>
        <time>2022-07-25T14:12:46Z</time>
      </trkpt>
      <trkpt lat="46.0552260" lon="5.6444500">
        <ele>950.4</ele>
        <time>2022-07-25T14:12:47Z</time>
      </trkpt>
      <trkpt lat="46.0551840" lon="5.6444260">
        <ele>950.5</ele>
        <time>2022-07-25T14:12:48Z</time>
      </trkpt>
      <trkpt lat="46.0551350" lon="5.6443970">
        <ele>950.6</ele>
        <time>2022-07-25T14:12:50Z</time>
      </trkpt>
      <trkpt lat="46.0551030" lon="5.6443930">
        <ele>950.6</ele>
        <time>2022-07-25T14:12:51Z</time>
      </trkpt>
      <trkpt lat="46.0550950" lon="5.6443950">
        <ele>950.6</ele>
        <time>2022-07-25T14:12:52Z</time>
      </trkpt>
      <trkpt lat="46.0550800" lon="5.6444070">
        <ele>950.6</ele>
        <time>2022-07-25T14:12:53Z</time>
      </trkpt>
      <trkpt lat="46.0550680" lon="5.6444240">
        <ele>950.7</ele>
        <time>2022-07-25T14:12:54Z</time>
      </trkpt>
      <trkpt lat="46.0550650" lon="5.6444350">
        <ele>950.7</ele>
        <time>2022-07-25T14:12:55Z</time>
      </trkpt>
      <trkpt lat="46.0550650" lon="5.6444400">
        <ele>950.7</ele>
        <time>2022-07-25T14:12:56Z</time>
      </trkpt>
      <trkpt lat="46.0550660" lon="5.6444390">
        <ele>950.7</ele>
        <time>2022-07-25T14:12:57Z</time>
      </trkpt>
      <trkpt lat="46.0550670" lon="5.6444390">
        <ele>950.7</ele>
        <time>2022-07-25T14:12:58Z</time>
      </trkpt>
      <trkpt lat="46.0550680" lon="5.6444370">
        <ele>950.7</ele>
        <time>2022-07-25T14:12:59Z</time>
      </trkpt>
      <trkpt lat="46.0550680" lon="5.6444370">
        <ele>950.7</ele>
        <time>2022-07-25T14:13:00Z</time>
      </trkpt>
      <trkpt lat="46.0550680" lon="5.6444370">
        <ele>950.7</ele>
        <time>2022-07-25T14:13:01Z</time>
      </trkpt>
      <trkpt lat="46.0550670" lon="5.6444380">
        <ele>950.7</ele>
        <time>2022-07-25T14:13:02Z</time>
      </trkpt>
      <trkpt lat="46.0550660" lon="5.6444380">
        <ele>950.7</ele>
        <time>2022-07-25T14:13:03Z</time>
      </trkpt>
      <trkpt lat="46.0550660" lon="5.6444390">
        <ele>950.7</ele>
        <time>2022-07-25T14:13:04Z</time>
      </trkpt>
      <trkpt lat="46.0550650" lon="5.6444390">
        <ele>950.7</ele>
        <time>2022-07-25T14:13:05Z</time>
      </trkpt>
      <trkpt lat="46.0550410" lon="5.6444600">
        <ele>950.7</ele>
        <time>2022-07-25T14:13:07Z</time>
      </trkpt>
      <trkpt lat="46.0550200" lon="5.6444740">
        <ele>950.7</ele>
        <time>2022-07-25T14:13:08Z</time>
      </trkpt>
      <trkpt lat="46.0549840" lon="5.6444950">
        <ele>950.6</ele>
        <time>2022-07-25T14:13:10Z</time>
      </trkpt>
      <trkpt lat="46.0549520" lon="5.6445150">
        <ele>950.6</ele>
        <time>2022-07-25T14:13:11Z</time>
      </trkpt>
      <trkpt lat="46.0549170" lon="5.6445340">
        <ele>950.5</ele>
        <time>2022-07-25T14:13:12Z</time>
      </trkpt>
      <trkpt lat="46.0549040" lon="5.6445410">
        <ele>950.5</ele>
        <time>2022-07-25T14:13:13Z</time>
      </trkpt>
      <trkpt lat="46.0548770" lon="5.6445580">
        <ele>950.4</ele>
        <time>2022-07-25T14:13:14Z</time>
      </trkpt>
      <trkpt lat="46.0548090" lon="5.6446130">
        <ele>950.0</ele>
        <time>2022-07-25T14:13:15Z</time>
      </trkpt>
      <trkpt lat="46.0547660" lon="5.6446370">
        <ele>949.8</ele>
        <time>2022-07-25T14:13:16Z</time>
      </trkpt>
      <trkpt lat="46.0547090" lon="5.6446660">
        <ele>949.4</ele>
        <time>2022-07-25T14:13:17Z</time>
      </trkpt>
      <trkpt lat="46.0546290" lon="5.6447080">
        <ele>948.8</ele>
        <time>2022-07-25T14:13:18Z</time>
      </trkpt>
      <trkpt lat="46.0545570" lon="5.6447530">
        <ele>948.3</ele>
        <time>2022-07-25T14:13:19Z</time>
      </trkpt>
      <trkpt lat="46.0544960" lon="5.6448000">
        <ele>947.9</ele>
        <time>2022-07-25T14:13:20Z</time>
      </trkpt>
      <trkpt lat="46.0544370" lon="5.6448380">
        <ele>947.5</ele>
        <time>2022-07-25T14:13:21Z</time>
      </trkpt>
      <trkpt lat="46.0543910" lon="5.6448710">
        <ele>947.2</ele>
        <time>2022-07-25T14:13:22Z</time>
      </trkpt>
      <trkpt lat="46.0543560" lon="5.6448970">
        <ele>946.9</ele>
        <time>2022-07-25T14:13:23Z</time>
      </trkpt>
      <trkpt lat="46.0543070" lon="5.6449290">
        <ele>946.5</ele>
        <time>2022-07-25T14:13:25Z</time>
      </trkpt>
      <trkpt lat="46.0542830" lon="5.6449550">
        <ele>946.3</ele>
        <time>2022-07-25T14:13:26Z</time>
      </trkpt>
      <trkpt lat="46.0542720" lon="5.6449730">
        <ele>946.1</ele>
        <time>2022-07-25T14:13:27Z</time>
      </trkpt>
      <trkpt lat="46.0542590" lon="5.6449850">
        <ele>946.0</ele>
        <time>2022-07-25T14:13:28Z</time>
      </trkpt>
      <trkpt lat="46.0542430" lon="5.6450020">
        <ele>945.8</ele>
        <time>2022-07-25T14:13:29Z</time>
      </trkpt>
      <trkpt lat="46.0542220" lon="5.6450350">
        <ele>945.5</ele>
        <time>2022-07-25T14:13:31Z</time>
      </trkpt>
      <trkpt lat="46.0542130" lon="5.6450510">
        <ele>945.3</ele>
        <time>2022-07-25T14:13:32Z</time>
      </trkpt>
      <trkpt lat="46.0542020" lon="5.6450660">
        <ele>945.1</ele>
        <time>2022-07-25T14:13:33Z</time>
      </trkpt>
      <trkpt lat="46.0541890" lon="5.6450840">
        <ele>944.9</ele>
        <time>2022-07-25T14:13:34Z</time>
      </trkpt>
      <trkpt lat="46.0541700" lon="5.6451120">
        <ele>944.5</ele>
        <time>2022-07-25T14:13:36Z</time>
      </trkpt>
      <trkpt lat="46.0541580" lon="5.6451510">
        <ele>944.1</ele>
        <time>2022-07-25T14:13:37Z</time>
      </trkpt>
      <trkpt lat="46.0541520" lon="5.6451940">
        <ele>943.6</ele>
        <time>2022-07-25T14:13:38Z</time>
      </trkpt>
      <trkpt lat="46.0541510" lon="5.6452060">
        <ele>943.5</ele>
        <time>2022-07-25T14:13:39Z</time>
      </trkpt>
      <trkpt lat="46.0541570" lon="5.6452310">
        <ele>943.3</ele>
        <time>2022-07-25T14:13:40Z</time>
      </trkpt>
      <trkpt lat="46.0541650" lon="5.6452520">
        <ele>943.0</ele>
        <time>2022-07-25T14:13:41Z</time>
      </trkpt>
      <trkpt lat="46.0541680" lon="5.6452960">
        <ele>942.5</ele>
        <time>2022-07-25T14:13:42Z</time>
      </trkpt>
      <trkpt lat="46.0541670" lon="5.6453100">
        <ele>942.4</ele>
        <time>2022-07-25T14:13:43Z</time>
      </trkpt>
      <trkpt lat="46.0541610" lon="5.6453560">
        <ele>941.9</ele>
        <time>2022-07-25T14:13:45Z</time>
      </trkpt>
      <trkpt lat="46.0541620" lon="5.6453680">
        <ele>941.8</ele>
        <time>2022-07-25T14:13:46Z</time>
      </trkpt>
      <trkpt lat="46.0541600" lon="5.6454130">
        <ele>941.3</ele>
        <time>2022-07-25T14:13:47Z</time>
      </trkpt>
      <trkpt lat="46.0541580" lon="5.6454280">
        <ele>941.1</ele>
        <time>2022-07-25T14:13:48Z</time>
      </trkpt>
      <trkpt lat="46.0541450" lon="5.6454670">
        <ele>940.7</ele>
        <time>2022-07-25T14:13:49Z</time>
      </trkpt>
      <trkpt lat="46.0541420" lon="5.6454760">
        <ele>940.5</ele>
        <time>2022-07-25T14:13:50Z</time>
      </trkpt>
      <trkpt lat="46.0541290" lon="5.6455010">
        <ele>940.2</ele>
        <time>2022-07-25T14:13:51Z</time>
      </trkpt>
      <trkpt lat="46.0541230" lon="5.6455120">
        <ele>940.0</ele>
        <time>2022-07-25T14:13:52Z</time>
      </trkpt>
      <trkpt lat="46.0541160" lon="5.6455230">
        <ele>939.9</ele>
        <time>2022-07-25T14:13:53Z</time>
      </trkpt>
      <trkpt lat="46.0541130" lon="5.6455410">
        <ele>939.7</ele>
        <time>2022-07-25T14:13:54Z</time>
      </trkpt>
      <trkpt lat="46.0541110" lon="5.6455660">
        <ele>939.4</ele>
        <time>2022-07-25T14:13:55Z</time>
      </trkpt>
      <trkpt lat="46.0541050" lon="5.6456350">
        <ele>938.5</ele>
        <time>2022-07-25T14:13:57Z</time>
      </trkpt>
      <trkpt lat="46.0541040" lon="5.6456600">
        <ele>938.2</ele>
        <time>2022-07-25T14:13:58Z</time>
      </trkpt>
      <trkpt lat="46.0541030" lon="5.6456850">
        <ele>937.9</ele>
        <time>2022-07-25T14:13:59Z</time>
      </trkpt>
      <trkpt lat="46.0541000" lon="5.6457420">
        <ele>937.2</ele>
        <time>2022-07-25T14:14:00Z</time>
      </trkpt>
      <trkpt lat="46.0540950" lon="5.6457890">
        <ele>936.6</ele>
        <time>2022-07-25T14:14:01Z</time>
      </trkpt>
      <trkpt lat="46.0540940" lon="5.6458400">
        <ele>936.0</ele>
        <time>2022-07-25T14:14:02Z</time>
      </trkpt>
      <trkpt lat="46.0540970" lon="5.6459150">
        <ele>935.2</ele>
        <time>2022-07-25T14:14:04Z</time>
      </trkpt>
      <trkpt lat="46.0541250" lon="5.6461190">
        <ele>933.5</ele>
        <time>2022-07-25T14:14:05Z</time>
      </trkpt>
      <trkpt lat="46.0541300" lon="5.6462070">
        <ele>932.9</ele>
        <time>2022-07-25T14:14:06Z</time>
      </trkpt>
      <trkpt lat="46.0541120" lon="5.6462770">
        <ele>932.5</ele>
        <time>2022-07-25T14:14:07Z</time>
      </trkpt>
      <trkpt lat="46.0540880" lon="5.6463310">
        <ele>932.2</ele>
        <time>2022-07-25T14:14:08Z</time>
      </trkpt>
      <trkpt lat="46.0540530" lon="5.6463920">
        <ele>932.0</ele>
        <time>2022-07-25T14:14:09Z</time>
      </trkpt>
      <trkpt lat="46.0540310" lon="5.6464450">
        <ele>931.8</ele>
        <time>2022-07-25T14:14:10Z</time>
      </trkpt>
      <trkpt lat="46.0540050" lon="5.6464920">
        <ele>931.7</ele>
        <time>2022-07-25T14:14:11Z</time>
      </trkpt>
      <trkpt lat="46.0539860" lon="5.6465360">
        <ele>931.6</ele>
        <time>2022-07-25T14:14:12Z</time>
      </trkpt>
      <trkpt lat="46.0539870" lon="5.6465920">
        <ele>931.5</ele>
        <time>2022-07-25T14:14:13Z</time>
      </trkpt>
      <trkpt lat="46.0539900" lon="5.6466630">
        <ele>931.3</ele>
        <time>2022-07-25T14:14:15Z</time>
      </trkpt>
      <trkpt lat="46.0539960" lon="5.6467120">
        <ele>931.2</ele>
        <time>2022-07-25T14:14:16Z</time>
      </trkpt>
      <trkpt lat="46.0539910" lon="5.6467670">
        <ele>931.0</ele>
        <time>2022-07-25T14:14:17Z</time>
      </trkpt>
      <trkpt lat="46.0540020" lon="5.6468220">
        <ele>930.9</ele>
        <time>2022-07-25T14:14:18Z</time>
      </trkpt>
      <trkpt lat="46.0540160" lon="5.6468720">
        <ele>930.8</ele>
        <time>2022-07-25T14:14:19Z</time>
      </trkpt>
      <trkpt lat="46.0540290" lon="5.6469350">
        <ele>930.7</ele>
        <time>2022-07-25T14:14:20Z</time>
      </trkpt>
      <trkpt lat="46.0540410" lon="5.6469950">
        <ele>930.6</ele>
        <time>2022-07-25T14:14:21Z</time>
      </trkpt>
      <trkpt lat="46.0540510" lon="5.6470590">
        <ele>930.5</ele>
        <time>2022-07-25T14:14:22Z</time>
      </trkpt>
      <trkpt lat="46.0540630" lon="5.6471270">
        <ele>930.5</ele>
        <time>2022-07-25T14:14:23Z</time>
      </trkpt>
      <trkpt lat="46.0540710" lon="5.6472020">
        <ele>930.5</ele>
        <time>2022-07-25T14:14:25Z</time>
      </trkpt>
      <trkpt lat="46.0540710" lon="5.6472630">
        <ele>930.5</ele>
        <time>2022-07-25T14:14:26Z</time>
      </trkpt>
      <trkpt lat="46.0540700" lon="5.6473120">
        <ele>930.5</ele>
        <time>2022-07-25T14:14:27Z</time>
      </trkpt>
      <trkpt lat="46.0540660" lon="5.6473780">
        <ele>930.5</ele>
        <time>2022-07-25T14:14:28Z</time>
      </trkpt>
      <trkpt lat="46.0540640" lon="5.6474430">
        <ele>930.4</ele>
        <time>2022-07-25T14:14:30Z</time>
      </trkpt>
      <trkpt lat="46.0540640" lon="5.6474890">
        <ele>930.4</ele>
        <time>2022-07-25T14:14:31Z</time>
      </trkpt>
      <trkpt lat="46.0540630" lon="5.6475670">
        <ele>930.5</ele>
        <time>2022-07-25T14:14:32Z</time>
      </trkpt>
      <trkpt lat="46.0540610" lon="5.6476350">
        <ele>930.5</ele>
        <time>2022-07-25T14:14:33Z</time>
      </trkpt>
      <trkpt lat="46.0540690" lon="5.6477450">
        <ele>930.5</ele>
        <time>2022-07-25T14:14:34Z</time>
      </trkpt>
      <trkpt lat="46.0540650" lon="5.6478090">
        <ele>930.5</ele>
        <time>2022-07-25T14:14:35Z</time>
      </trkpt>
      <trkpt lat="46.0540610" lon="5.6479140">
        <ele>930.5</ele>
        <time>2022-07-25T14:14:37Z</time>
      </trkpt>
      <trkpt lat="46.0540500" lon="5.6479910">
        <ele>930.5</ele>
        <time>2022-07-25T14:14:38Z</time>
      </trkpt>
      <trkpt lat="46.0540330" lon="5.6480470">
        <ele>930.5</ele>
        <time>2022-07-25T14:14:39Z</time>
      </trkpt>
      <trkpt lat="46.0540170" lon="5.6481070">
        <ele>930.5</ele>
        <time>2022-07-25T14:14:40Z</time>
      </trkpt>
      <trkpt lat="46.0540000" lon="5.6482170">
        <ele>930.5</ele>
        <time>2022-07-25T14:14:41Z</time>
      </trkpt>
      <trkpt lat="46.0539850" lon="5.6482750">
        <ele>930.5</ele>
        <time>2022-07-25T14:14:42Z</time>
      </trkpt>
      <trkpt lat="46.0539940" lon="5.6483330">
        <ele>930.5</ele>
        <time>2022-07-25T14:14:43Z</time>
      </trkpt>
      <trkpt lat="46.0539940" lon="5.6483980">
        <ele>930.5</ele>
        <time>2022-07-25T14:14:45Z</time>
      </trkpt>
      <trkpt lat="46.0539650" lon="5.6484570">
        <ele>930.6</ele>
        <time>2022-07-25T14:14:46Z</time>
      </trkpt>
      <trkpt lat="46.0539320" lon="5.6485140">
        <ele>930.6</ele>
        <time>2022-07-25T14:14:47Z</time>
      </trkpt>
      <trkpt lat="46.0538950" lon="5.6485790">
        <ele>930.7</ele>
        <time>2022-07-25T14:14:48Z</time>
      </trkpt>
      <trkpt lat="46.0538600" lon="5.6486490">
        <ele>930.7</ele>
        <time>2022-07-25T14:14:49Z</time>
      </trkpt>
      <trkpt lat="46.0538430" lon="5.6487060">
        <ele>930.8</ele>
        <time>2022-07-25T14:14:50Z</time>
      </trkpt>
      <trkpt lat="46.0538200" lon="5.6487570">
        <ele>930.9</ele>
        <time>2022-07-25T14:14:51Z</time>
      </trkpt>
      <trkpt lat="46.0537950" lon="5.6488030">
        <ele>930.9</ele>
        <time>2022-07-25T14:14:52Z</time>
      </trkpt>
      <trkpt lat="46.0537780" lon="5.6488510">
        <ele>931.0</ele>
        <time>2022-07-25T14:14:53Z</time>
      </trkpt>
      <trkpt lat="46.0537600" lon="5.6489090">
        <ele>931.1</ele>
        <time>2022-07-25T14:14:54Z</time>
      </trkpt>
      <trkpt lat="46.0537520" lon="5.6489660">
        <ele>931.2</ele>
        <time>2022-07-25T14:14:55Z</time>
      </trkpt>
      <trkpt lat="46.0537440" lon="5.6490320">
        <ele>931.3</ele>
        <time>2022-07-25T14:14:57Z</time>
      </trkpt>
      <trkpt lat="46.0537380" lon="5.6490890">
        <ele>931.3</ele>
        <time>2022-07-25T14:14:58Z</time>
      </trkpt>
      <trkpt lat="46.0537310" lon="5.6491440">
        <ele>931.4</ele>
        <time>2022-07-25T14:14:59Z</time>
      </trkpt>
      <trkpt lat="46.0537250" lon="5.6492060">
        <ele>931.5</ele>
        <time>2022-07-25T14:15:01Z</time>
      </trkpt>
      <trkpt lat="46.0537220" lon="5.6492650">
        <ele>931.6</ele>
        <time>2022-07-25T14:15:02Z</time>
      </trkpt>
      <trkpt lat="46.0537240" lon="5.6493140">
        <ele>931.7</ele>
        <time>2022-07-25T14:15:03Z</time>
      </trkpt>
      <trkpt lat="46.0537230" lon="5.6493590">
        <ele>931.8</ele>
        <time>2022-07-25T14:15:04Z</time>
      </trkpt>
      <trkpt lat="46.0537210" lon="5.6494100">
        <ele>931.9</ele>
        <time>2022-07-25T14:15:05Z</time>
      </trkpt>
      <trkpt lat="46.0537220" lon="5.6494870">
        <ele>932.0</ele>
        <time>2022-07-25T14:15:07Z</time>
      </trkpt>
      <trkpt lat="46.0537200" lon="5.6495310">
        <ele>932.1</ele>
        <time>2022-07-25T14:15:08Z</time>
      </trkpt>
      <trkpt lat="46.0537150" lon="5.6495780">
        <ele>932.2</ele>
        <time>2022-07-25T14:15:09Z</time>
      </trkpt>
      <trkpt lat="46.0537110" lon="5.6496140">
        <ele>932.2</ele>
        <time>2022-07-25T14:15:10Z</time>
      </trkpt>
      <trkpt lat="46.0537030" lon="5.6496760">
        <ele>932.3</ele>
        <time>2022-07-25T14:15:12Z</time>
      </trkpt>
      <trkpt lat="46.0537000" lon="5.6497210">
        <ele>932.4</ele>
        <time>2022-07-25T14:15:13Z</time>
      </trkpt>
      <trkpt lat="46.0536980" lon="5.6497630">
        <ele>932.5</ele>
        <time>2022-07-25T14:15:14Z</time>
      </trkpt>
      <trkpt lat="46.0536950" lon="5.6498120">
        <ele>932.6</ele>
        <time>2022-07-25T14:15:15Z</time>
      </trkpt>
      <trkpt lat="46.0536950" lon="5.6498550">
        <ele>932.7</ele>
        <time>2022-07-25T14:15:16Z</time>
      </trkpt>
      <trkpt lat="46.0536930" lon="5.6499130">
        <ele>932.9</ele>
        <time>2022-07-25T14:15:17Z</time>
      </trkpt>
      <trkpt lat="46.0536890" lon="5.6499770">
        <ele>933.0</ele>
        <time>2022-07-25T14:15:19Z</time>
      </trkpt>
      <trkpt lat="46.0536880" lon="5.6500310">
        <ele>933.2</ele>
        <time>2022-07-25T14:15:20Z</time>
      </trkpt>
      <trkpt lat="46.0536840" lon="5.6500700">
        <ele>933.3</ele>
        <time>2022-07-25T14:15:21Z</time>
      </trkpt>
      <trkpt lat="46.0536810" lon="5.6501200">
        <ele>933.4</ele>
        <time>2022-07-25T14:15:22Z</time>
      </trkpt>
      <trkpt lat="46.0536860" lon="5.6501800">
        <ele>933.5</ele>
        <time>2022-07-25T14:15:24Z</time>
      </trkpt>
      <trkpt lat="46.0536870" lon="5.6502190">
        <ele>933.5</ele>
        <time>2022-07-25T14:15:25Z</time>
      </trkpt>
      <trkpt lat="46.0536910" lon="5.6502690">
        <ele>933.6</ele>
        <time>2022-07-25T14:15:26Z</time>
      </trkpt>
      <trkpt lat="46.0536940" lon="5.6503260">
        <ele>933.7</ele>
        <time>2022-07-25T14:15:27Z</time>
      </trkpt>
      <trkpt lat="46.0536960" lon="5.6503470">
        <ele>933.8</ele>
        <time>2022-07-25T14:15:28Z</time>
      </trkpt>
      <trkpt lat="46.0537010" lon="5.6503900">
        <ele>933.8</ele>
        <time>2022-07-25T14:15:29Z</time>
      </trkpt>
      <trkpt lat="46.0536990" lon="5.6504500">
        <ele>933.9</ele>
        <time>2022-07-25T14:15:30Z</time>
      </trkpt>
      <trkpt lat="46.0536980" lon="5.6504730">
        <ele>934.0</ele>
        <time>2022-07-25T14:15:31Z</time>
      </trkpt>
      <trkpt lat="46.0536960" lon="5.6505280">
        <ele>934.0</ele>
        <time>2022-07-25T14:15:32Z</time>
      </trkpt>
      <trkpt lat="46.0536960" lon="5.6505470">
        <ele>934.1</ele>
        <time>2022-07-25T14:15:33Z</time>
      </trkpt>
      <trkpt lat="46.0536980" lon="5.6505920">
        <ele>934.2</ele>
        <time>2022-07-25T14:15:34Z</time>
      </trkpt>
      <trkpt lat="46.0536980" lon="5.6506370">
        <ele>934.2</ele>
        <time>2022-07-25T14:15:35Z</time>
      </trkpt>
      <trkpt lat="46.0537020" lon="5.6506960">
        <ele>934.3</ele>
        <time>2022-07-25T14:15:36Z</time>
      </trkpt>
      <trkpt lat="46.0537050" lon="5.6507490">
        <ele>934.4</ele>
        <time>2022-07-25T14:15:37Z</time>
      </trkpt>
      <trkpt lat="46.0537090" lon="5.6508270">
        <ele>934.6</ele>
        <time>2022-07-25T14:15:39Z</time>
      </trkpt>
      <trkpt lat="46.0537090" lon="5.6508860">
        <ele>934.7</ele>
        <time>2022-07-25T14:15:40Z</time>
      </trkpt>
      <trkpt lat="46.0537110" lon="5.6509270">
        <ele>934.7</ele>
        <time>2022-07-25T14:15:41Z</time>
      </trkpt>
      <trkpt lat="46.0537210" lon="5.6509770">
        <ele>934.8</ele>
        <time>2022-07-25T14:15:42Z</time>
      </trkpt>
      <trkpt lat="46.0537250" lon="5.6509900">
        <ele>934.9</ele>
        <time>2022-07-25T14:15:43Z</time>
      </trkpt>
      <trkpt lat="46.0537240" lon="5.6510370">
        <ele>935.0</ele>
        <time>2022-07-25T14:15:44Z</time>
      </trkpt>
      <trkpt lat="46.0537120" lon="5.6511180">
        <ele>935.2</ele>
        <time>2022-07-25T14:15:46Z</time>
      </trkpt>
      <trkpt lat="46.0537080" lon="5.6511790">
        <ele>935.3</ele>
        <time>2022-07-25T14:15:47Z</time>
      </trkpt>
      <trkpt lat="46.0537070" lon="5.6512220">
        <ele>935.4</ele>
        <time>2022-07-25T14:15:48Z</time>
      </trkpt>
      <trkpt lat="46.0537040" lon="5.6512750">
        <ele>935.5</ele>
        <time>2022-07-25T14:15:49Z</time>
      </trkpt>
      <trkpt lat="46.0537000" lon="5.6512890">
        <ele>935.5</ele>
        <time>2022-07-25T14:15:50Z</time>
      </trkpt>
      <trkpt lat="46.0536880" lon="5.6513330">
        <ele>935.6</ele>
        <time>2022-07-25T14:15:51Z</time>
      </trkpt>
      <trkpt lat="46.0536830" lon="5.6513500">
        <ele>935.6</ele>
        <time>2022-07-25T14:15:52Z</time>
      </trkpt>
      <trkpt lat="46.0536750" lon="5.6513910">
        <ele>935.7</ele>
        <time>2022-07-25T14:15:53Z</time>
      </trkpt>
      <trkpt lat="46.0536710" lon="5.6514350">
        <ele>935.8</ele>
        <time>2022-07-25T14:15:54Z</time>
      </trkpt>
      <trkpt lat="46.0536710" lon="5.6514750">
        <ele>935.9</ele>
        <time>2022-07-25T14:15:55Z</time>
      </trkpt>
      <trkpt lat="46.0536700" lon="5.6515190">
        <ele>935.9</ele>
        <time>2022-07-25T14:15:56Z</time>
      </trkpt>
      <trkpt lat="46.0536700" lon="5.6515650">
        <ele>936.0</ele>
        <time>2022-07-25T14:15:57Z</time>
      </trkpt>
      <trkpt lat="46.0536690" lon="5.6516090">
        <ele>936.1</ele>
        <time>2022-07-25T14:15:58Z</time>
      </trkpt>
      <trkpt lat="46.0536620" lon="5.6516710">
        <ele>936.2</ele>
        <time>2022-07-25T14:15:59Z</time>
      </trkpt>
      <trkpt lat="46.0536580" lon="5.6516960">
        <ele>936.2</ele>
        <time>2022-07-25T14:16:00Z</time>
      </trkpt>
      <trkpt lat="46.0536410" lon="5.6517630">
        <ele>936.3</ele>
        <time>2022-07-25T14:16:02Z</time>
      </trkpt>
      <trkpt lat="46.0536360" lon="5.6518120">
        <ele>936.3</ele>
        <time>2022-07-25T14:16:03Z</time>
      </trkpt>
      <trkpt lat="46.0536350" lon="5.6518630">
        <ele>936.4</ele>
        <time>2022-07-25T14:16:04Z</time>
      </trkpt>
      <trkpt lat="46.0536320" lon="5.6519040">
        <ele>936.4</ele>
        <time>2022-07-25T14:16:05Z</time>
      </trkpt>
      <trkpt lat="46.0536290" lon="5.6519630">
        <ele>936.4</ele>
        <time>2022-07-25T14:16:07Z</time>
      </trkpt>
      <trkpt lat="46.0536270" lon="5.6520140">
        <ele>936.5</ele>
        <time>2022-07-25T14:16:08Z</time>
      </trkpt>
      <trkpt lat="46.0536340" lon="5.6520790">
        <ele>936.5</ele>
        <time>2022-07-25T14:16:09Z</time>
      </trkpt>
      <trkpt lat="46.0536360" lon="5.6521370">
        <ele>936.6</ele>
        <time>2022-07-25T14:16:11Z</time>
      </trkpt>
      <trkpt lat="46.0536360" lon="5.6521850">
        <ele>936.6</ele>
        <time>2022-07-25T14:16:12Z</time>
      </trkpt>
      <trkpt lat="46.0536310" lon="5.6522550">
        <ele>936.6</ele>
        <time>2022-07-25T14:16:13Z</time>
      </trkpt>
      <trkpt lat="46.0536250" lon="5.6523110">
        <ele>936.6</ele>
        <time>2022-07-25T14:16:14Z</time>
      </trkpt>
      <trkpt lat="46.0536160" lon="5.6523850">
        <ele>936.7</ele>
        <time>2022-07-25T14:16:15Z</time>
      </trkpt>
      <trkpt lat="46.0536060" lon="5.6524450">
        <ele>936.7</ele>
        <time>2022-07-25T14:16:17Z</time>
      </trkpt>
      <trkpt lat="46.0535990" lon="5.6524910">
        <ele>936.7</ele>
        <time>2022-07-25T14:16:18Z</time>
      </trkpt>
      <trkpt lat="46.0535880" lon="5.6525550">
        <ele>936.8</ele>
        <time>2022-07-25T14:16:19Z</time>
      </trkpt>
      <trkpt lat="46.0535720" lon="5.6526090">
        <ele>936.8</ele>
        <time>2022-07-25T14:16:20Z</time>
      </trkpt>
      <trkpt lat="46.0535620" lon="5.6526490">
        <ele>936.8</ele>
        <time>2022-07-25T14:16:21Z</time>
      </trkpt>
      <trkpt lat="46.0535490" lon="5.6527020">
        <ele>936.8</ele>
        <time>2022-07-25T14:16:22Z</time>
      </trkpt>
      <trkpt lat="46.0535320" lon="5.6527460">
        <ele>936.8</ele>
        <time>2022-07-25T14:16:24Z</time>
      </trkpt>
      <trkpt lat="46.0534960" lon="5.6527870">
        <ele>936.8</ele>
        <time>2022-07-25T14:16:25Z</time>
      </trkpt>
      <trkpt lat="46.0534660" lon="5.6528340">
        <ele>936.8</ele>
        <time>2022-07-25T14:16:26Z</time>
      </trkpt>
      <trkpt lat="46.0534370" lon="5.6528850">
        <ele>936.8</ele>
        <time>2022-07-25T14:16:27Z</time>
      </trkpt>
      <trkpt lat="46.0533990" lon="5.6529660">
        <ele>936.8</ele>
        <time>2022-07-25T14:16:29Z</time>
      </trkpt>
      <trkpt lat="46.0533720" lon="5.6530400">
        <ele>936.8</ele>
        <time>2022-07-25T14:16:30Z</time>
      </trkpt>
      <trkpt lat="46.0533380" lon="5.6531210">
        <ele>936.8</ele>
        <time>2022-07-25T14:16:32Z</time>
      </trkpt>
      <trkpt lat="46.0533130" lon="5.6531770">
        <ele>936.7</ele>
        <time>2022-07-25T14:16:33Z</time>
      </trkpt>
      <trkpt lat="46.0532800" lon="5.6532430">
        <ele>936.7</ele>
        <time>2022-07-25T14:16:34Z</time>
      </trkpt>
      <trkpt lat="46.0532550" lon="5.6532890">
        <ele>936.7</ele>
        <time>2022-07-25T14:16:35Z</time>
      </trkpt>
      <trkpt lat="46.0532290" lon="5.6533360">
        <ele>936.7</ele>
        <time>2022-07-25T14:16:36Z</time>
      </trkpt>
      <trkpt lat="46.0532070" lon="5.6533870">
        <ele>936.6</ele>
        <time>2022-07-25T14:16:37Z</time>
      </trkpt>
      <trkpt lat="46.0531780" lon="5.6534680">
        <ele>936.6</ele>
        <time>2022-07-25T14:16:39Z</time>
      </trkpt>
      <trkpt lat="46.0531550" lon="5.6535270">
        <ele>936.6</ele>
        <time>2022-07-25T14:16:40Z</time>
      </trkpt>
      <trkpt lat="46.0531320" lon="5.6535820">
        <ele>936.6</ele>
        <time>2022-07-25T14:16:41Z</time>
      </trkpt>
      <trkpt lat="46.0531060" lon="5.6536540">
        <ele>936.5</ele>
        <time>2022-07-25T14:16:42Z</time>
      </trkpt>
      <trkpt lat="46.0530850" lon="5.6537100">
        <ele>936.5</ele>
        <time>2022-07-25T14:16:43Z</time>
      </trkpt>
      <trkpt lat="46.0530690" lon="5.6537670">
        <ele>936.5</ele>
        <time>2022-07-25T14:16:44Z</time>
      </trkpt>
      <trkpt lat="46.0530530" lon="5.6538230">
        <ele>936.4</ele>
        <time>2022-07-25T14:16:45Z</time>
      </trkpt>
      <trkpt lat="46.0530380" lon="5.6538780">
        <ele>936.4</ele>
        <time>2022-07-25T14:16:46Z</time>
      </trkpt>
      <trkpt lat="46.0530160" lon="5.6539640">
        <ele>936.4</ele>
        <time>2022-07-25T14:16:48Z</time>
      </trkpt>
      <trkpt lat="46.0530010" lon="5.6540260">
        <ele>936.4</ele>
        <time>2022-07-25T14:16:49Z</time>
      </trkpt>
      <trkpt lat="46.0529870" lon="5.6540910">
        <ele>936.4</ele>
        <time>2022-07-25T14:16:50Z</time>
      </trkpt>
      <trkpt lat="46.0529720" lon="5.6541520">
        <ele>936.4</ele>
        <time>2022-07-25T14:16:51Z</time>
      </trkpt>
      <trkpt lat="46.0529630" lon="5.6542010">
        <ele>936.4</ele>
        <time>2022-07-25T14:16:52Z</time>
      </trkpt>
      <trkpt lat="46.0529570" lon="5.6542470">
        <ele>936.4</ele>
        <time>2022-07-25T14:16:53Z</time>
      </trkpt>
      <trkpt lat="46.0529350" lon="5.6543850">
        <ele>936.4</ele>
        <time>2022-07-25T14:16:55Z</time>
      </trkpt>
      <trkpt lat="46.0529210" lon="5.6544480">
        <ele>936.5</ele>
        <time>2022-07-25T14:16:56Z</time>
      </trkpt>
      <trkpt lat="46.0529100" lon="5.6544990">
        <ele>936.5</ele>
        <time>2022-07-25T14:16:57Z</time>
      </trkpt>
      <trkpt lat="46.0528950" lon="5.6545460">
        <ele>936.5</ele>
        <time>2022-07-25T14:16:58Z</time>
      </trkpt>
      <trkpt lat="46.0528780" lon="5.6545810">
        <ele>936.6</ele>
        <time>2022-07-25T14:16:59Z</time>
      </trkpt>
      <trkpt lat="46.0528640" lon="5.6546000">
        <ele>936.6</ele>
        <time>2022-07-25T14:17:00Z</time>
      </trkpt>
      <trkpt lat="46.0528250" lon="5.6546000">
        <ele>936.7</ele>
        <time>2022-07-25T14:17:02Z</time>
      </trkpt>
      <trkpt lat="46.0527930" lon="5.6545780">
        <ele>937.1</ele>
        <time>2022-07-25T14:17:03Z</time>
      </trkpt>
      <trkpt lat="46.0527540" lon="5.6545450">
        <ele>937.2</ele>
        <time>2022-07-25T14:17:05Z</time>
      </trkpt>
      <trkpt lat="46.0527130" lon="5.6545040">
        <ele>937.3</ele>
        <time>2022-07-25T14:17:06Z</time>
      </trkpt>
      <trkpt lat="46.0526890" lon="5.6544730">
        <ele>937.4</ele>
        <time>2022-07-25T14:17:07Z</time>
      </trkpt>
      <trkpt lat="46.0526680" lon="5.6544470">
        <ele>937.5</ele>
        <time>2022-07-25T14:17:08Z</time>
      </trkpt>
      <trkpt lat="46.0526340" lon="5.6544100">
        <ele>937.6</ele>
        <time>2022-07-25T14:17:09Z</time>
      </trkpt>
      <trkpt lat="46.0526220" lon="5.6543970">
        <ele>937.6</ele>
        <time>2022-07-25T14:17:10Z</time>
      </trkpt>
      <trkpt lat="46.0525960" lon="5.6543720">
        <ele>937.7</ele>
        <time>2022-07-25T14:17:11Z</time>
      </trkpt>
      <trkpt lat="46.0525720" lon="5.6543430">
        <ele>937.8</ele>
        <time>2022-07-25T14:17:12Z</time>
      </trkpt>
      <trkpt lat="46.0525640" lon="5.6543330">
        <ele>937.9</ele>
        <time>2022-07-25T14:17:13Z</time>
      </trkpt>
      <trkpt lat="46.0525350" lon="5.6543000">
        <ele>938.0</ele>
        <time>2022-07-25T14:17:14Z</time>
      </trkpt>
      <trkpt lat="46.0525250" lon="5.6542870">
        <ele>938.1</ele>
        <time>2022-07-25T14:17:15Z</time>
      </trkpt>
      <trkpt lat="46.0525040" lon="5.6542620">
        <ele>938.2</ele>
        <time>2022-07-25T14:17:16Z</time>
      </trkpt>
      <trkpt lat="46.0524790" lon="5.6542340">
        <ele>938.3</ele>
        <time>2022-07-25T14:17:17Z</time>
      </trkpt>
      <trkpt lat="46.0524400" lon="5.6541910">
        <ele>938.4</ele>
        <time>2022-07-25T14:17:19Z</time>
      </trkpt>
      <trkpt lat="46.0524190" lon="5.6541680">
        <ele>938.5</ele>
        <time>2022-07-25T14:17:20Z</time>
      </trkpt>
      <trkpt lat="46.0523870" lon="5.6541360">
        <ele>938.7</ele>
        <time>2022-07-25T14:17:21Z</time>
      </trkpt>
      <trkpt lat="46.0523750" lon="5.6541260">
        <ele>938.7</ele>
        <time>2022-07-25T14:17:22Z</time>
      </trkpt>
      <trkpt lat="46.0523400" lon="5.6540990">
        <ele>938.8</ele>
        <time>2022-07-25T14:17:23Z</time>
      </trkpt>
      <trkpt lat="46.0523270" lon="5.6540900">
        <ele>938.9</ele>
        <time>2022-07-25T14:17:24Z</time>
      </trkpt>
      <trkpt lat="46.0522900" lon="5.6540620">
        <ele>939.0</ele>
        <time>2022-07-25T14:17:25Z</time>
      </trkpt>
      <trkpt lat="46.0522760" lon="5.6540490">
        <ele>939.1</ele>
        <time>2022-07-25T14:17:26Z</time>
      </trkpt>
      <trkpt lat="46.0522520" lon="5.6540260">
        <ele>939.2</ele>
        <time>2022-07-25T14:17:27Z</time>
      </trkpt>
      <trkpt lat="46.0522190" lon="5.6539980">
        <ele>939.3</ele>
        <time>2022-07-25T14:17:28Z</time>
      </trkpt>
      <trkpt lat="46.0522080" lon="5.6539880">
        <ele>939.3</ele>
        <time>2022-07-25T14:17:29Z</time>
      </trkpt>
      <trkpt lat="46.0521840" lon="5.6539700">
        <ele>939.4</ele>
        <time>2022-07-25T14:17:30Z</time>
      </trkpt>
      <trkpt lat="46.0521500" lon="5.6539380">
        <ele>939.6</ele>
        <time>2022-07-25T14:17:31Z</time>
      </trkpt>
      <trkpt lat="46.0521390" lon="5.6539250">
        <ele>939.6</ele>
        <time>2022-07-25T14:17:32Z</time>
      </trkpt>
      <trkpt lat="46.0521170" lon="5.6538990">
        <ele>939.7</ele>
        <time>2022-07-25T14:17:33Z</time>
      </trkpt>
      <trkpt lat="46.0520930" lon="5.6538740">
        <ele>939.8</ele>
        <time>2022-07-25T14:17:35Z</time>
      </trkpt>
      <trkpt lat="46.0520660" lon="5.6538510">
        <ele>939.9</ele>
        <time>2022-07-25T14:17:36Z</time>
      </trkpt>
      <trkpt lat="46.0520380" lon="5.6538260">
        <ele>940.0</ele>
        <time>2022-07-25T14:17:37Z</time>
      </trkpt>
      <trkpt lat="46.0520100" lon="5.6538040">
        <ele>940.1</ele>
        <time>2022-07-25T14:17:38Z</time>
      </trkpt>
      <trkpt lat="46.0519860" lon="5.6537830">
        <ele>940.2</ele>
        <time>2022-07-25T14:17:39Z</time>
      </trkpt>
      <trkpt lat="46.0519400" lon="5.6537360">
        <ele>940.3</ele>
        <time>2022-07-25T14:17:41Z</time>
      </trkpt>
      <trkpt lat="46.0519130" lon="5.6536980">
        <ele>940.4</ele>
        <time>2022-07-25T14:17:42Z</time>
      </trkpt>
      <trkpt lat="46.0518890" lon="5.6536690">
        <ele>940.5</ele>
        <time>2022-07-25T14:17:43Z</time>
      </trkpt>
      <trkpt lat="46.0518510" lon="5.6536260">
        <ele>940.6</ele>
        <time>2022-07-25T14:17:45Z</time>
      </trkpt>
      <trkpt lat="46.0518200" lon="5.6535910">
        <ele>940.7</ele>
        <time>2022-07-25T14:17:46Z</time>
      </trkpt>
      <trkpt lat="46.0518040" lon="5.6535740">
        <ele>940.8</ele>
        <time>2022-07-25T14:17:47Z</time>
      </trkpt>
      <trkpt lat="46.0517580" lon="5.6535270">
        <ele>940.9</ele>
        <time>2022-07-25T14:17:49Z</time>
      </trkpt>
      <trkpt lat="46.0517290" lon="5.6535030">
        <ele>941.0</ele>
        <time>2022-07-25T14:17:50Z</time>
      </trkpt>
      <trkpt lat="46.0517050" lon="5.6534790">
        <ele>941.1</ele>
        <time>2022-07-25T14:17:51Z</time>
      </trkpt>
      <trkpt lat="46.0516810" lon="5.6534530">
        <ele>941.2</ele>
        <time>2022-07-25T14:17:52Z</time>
      </trkpt>
      <trkpt lat="46.0516520" lon="5.6534270">
        <ele>941.3</ele>
        <time>2022-07-25T14:17:53Z</time>
      </trkpt>
      <trkpt lat="46.0516270" lon="5.6533990">
        <ele>941.4</ele>
        <time>2022-07-25T14:17:54Z</time>
      </trkpt>
      <trkpt lat="46.0515980" lon="5.6533690">
        <ele>941.5</ele>
        <time>2022-07-25T14:17:55Z</time>
      </trkpt>
      <trkpt lat="46.0515700" lon="5.6533400">
        <ele>941.6</ele>
        <time>2022-07-25T14:17:56Z</time>
      </trkpt>
      <trkpt lat="46.0515350" lon="5.6532960">
        <ele>941.7</ele>
        <time>2022-07-25T14:17:58Z</time>
      </trkpt>
      <trkpt lat="46.0515070" lon="5.6532650">
        <ele>941.8</ele>
        <time>2022-07-25T14:17:59Z</time>
      </trkpt>
      <trkpt lat="46.0514810" lon="5.6532390">
        <ele>941.9</ele>
        <time>2022-07-25T14:18:00Z</time>
      </trkpt>
      <trkpt lat="46.0514530" lon="5.6532150">
        <ele>942.0</ele>
        <time>2022-07-25T14:18:01Z</time>
      </trkpt>
      <trkpt lat="46.0514070" lon="5.6531740">
        <ele>942.2</ele>
        <time>2022-07-25T14:18:03Z</time>
      </trkpt>
      <trkpt lat="46.0513720" lon="5.6531480">
        <ele>942.3</ele>
        <time>2022-07-25T14:18:04Z</time>
      </trkpt>
      <trkpt lat="46.0513440" lon="5.6531300">
        <ele>942.4</ele>
        <time>2022-07-25T14:18:05Z</time>
      </trkpt>
      <trkpt lat="46.0512790" lon="5.6530610">
        <ele>942.6</ele>
        <time>2022-07-25T14:18:06Z</time>
      </trkpt>
      <trkpt lat="46.0512450" lon="5.6530190">
        <ele>942.8</ele>
        <time>2022-07-25T14:18:07Z</time>
      </trkpt>
      <trkpt lat="46.0512180" lon="5.6530010">
        <ele>942.8</ele>
        <time>2022-07-25T14:18:08Z</time>
      </trkpt>
      <trkpt lat="46.0511900" lon="5.6529770">
        <ele>942.9</ele>
        <time>2022-07-25T14:18:09Z</time>
      </trkpt>
      <trkpt lat="46.0511750" lon="5.6529620">
        <ele>943.0</ele>
        <time>2022-07-25T14:18:10Z</time>
      </trkpt>
      <trkpt lat="46.0511460" lon="5.6529360">
        <ele>943.0</ele>
        <time>2022-07-25T14:18:11Z</time>
      </trkpt>
      <trkpt lat="46.0511150" lon="5.6529110">
        <ele>943.1</ele>
        <time>2022-07-25T14:18:12Z</time>
      </trkpt>
      <trkpt lat="46.0510820" lon="5.6528840">
        <ele>943.2</ele>
        <time>2022-07-25T14:18:13Z</time>
      </trkpt>
      <trkpt lat="46.0510570" lon="5.6528600">
        <ele>943.3</ele>
        <time>2022-07-25T14:18:14Z</time>
      </trkpt>
      <trkpt lat="46.0510300" lon="5.6528370">
        <ele>943.4</ele>
        <time>2022-07-25T14:18:15Z</time>
      </trkpt>
      <trkpt lat="46.0510010" lon="5.6528090">
        <ele>943.5</ele>
        <time>2022-07-25T14:18:16Z</time>
      </trkpt>
      <trkpt lat="46.0509730" lon="5.6527910">
        <ele>943.6</ele>
        <time>2022-07-25T14:18:17Z</time>
      </trkpt>
      <trkpt lat="46.0509420" lon="5.6527760">
        <ele>943.6</ele>
        <time>2022-07-25T14:18:18Z</time>
      </trkpt>
      <trkpt lat="46.0509150" lon="5.6527590">
        <ele>943.7</ele>
        <time>2022-07-25T14:18:19Z</time>
      </trkpt>
      <trkpt lat="46.0508830" lon="5.6527370">
        <ele>943.8</ele>
        <time>2022-07-25T14:18:20Z</time>
      </trkpt>
      <trkpt lat="46.0508550" lon="5.6527180">
        <ele>943.9</ele>
        <time>2022-07-25T14:18:21Z</time>
      </trkpt>
      <trkpt lat="46.0508180" lon="5.6526940">
        <ele>944.1</ele>
        <time>2022-07-25T14:18:22Z</time>
      </trkpt>
      <trkpt lat="46.0508010" lon="5.6526810">
        <ele>944.1</ele>
        <time>2022-07-25T14:18:23Z</time>
      </trkpt>
      <trkpt lat="46.0507750" lon="5.6526660">
        <ele>944.2</ele>
        <time>2022-07-25T14:18:24Z</time>
      </trkpt>
      <trkpt lat="46.0507360" lon="5.6526310">
        <ele>944.4</ele>
        <time>2022-07-25T14:18:26Z</time>
      </trkpt>
      <trkpt lat="46.0507000" lon="5.6525990">
        <ele>944.6</ele>
        <time>2022-07-25T14:18:27Z</time>
      </trkpt>
      <trkpt lat="46.0506770" lon="5.6525770">
        <ele>944.7</ele>
        <time>2022-07-25T14:18:28Z</time>
      </trkpt>
      <trkpt lat="46.0506550" lon="5.6525630">
        <ele>944.8</ele>
        <time>2022-07-25T14:18:29Z</time>
      </trkpt>
      <trkpt lat="46.0506180" lon="5.6525410">
        <ele>945.0</ele>
        <time>2022-07-25T14:18:31Z</time>
      </trkpt>
      <trkpt lat="46.0505930" lon="5.6525240">
        <ele>945.1</ele>
        <time>2022-07-25T14:18:32Z</time>
      </trkpt>
      <trkpt lat="46.0505570" lon="5.6525010">
        <ele>945.2</ele>
        <time>2022-07-25T14:18:33Z</time>
      </trkpt>
      <trkpt lat="46.0505280" lon="5.6524880">
        <ele>945.3</ele>
        <time>2022-07-25T14:18:34Z</time>
      </trkpt>
      <trkpt lat="46.0504960" lon="5.6524770">
        <ele>945.4</ele>
        <time>2022-07-25T14:18:35Z</time>
      </trkpt>
      <trkpt lat="46.0504540" lon="5.6524670">
        <ele>945.4</ele>
        <time>2022-07-25T14:18:37Z</time>
      </trkpt>
      <trkpt lat="46.0504330" lon="5.6524600">
        <ele>945.5</ele>
        <time>2022-07-25T14:18:38Z</time>
      </trkpt>
      <trkpt lat="46.0504040" lon="5.6524530">
        <ele>945.5</ele>
        <time>2022-07-25T14:18:39Z</time>
      </trkpt>
      <trkpt lat="46.0503760" lon="5.6524470">
        <ele>945.5</ele>
        <time>2022-07-25T14:18:40Z</time>
      </trkpt>
      <trkpt lat="46.0503280" lon="5.6524400">
        <ele>945.5</ele>
        <time>2022-07-25T14:18:41Z</time>
      </trkpt>
      <trkpt lat="46.0502840" lon="5.6524410">
        <ele>945.4</ele>
        <time>2022-07-25T14:18:43Z</time>
      </trkpt>
      <trkpt lat="46.0502460" lon="5.6524450">
        <ele>945.3</ele>
        <time>2022-07-25T14:18:44Z</time>
      </trkpt>
      <trkpt lat="46.0502010" lon="5.6524500">
        <ele>945.1</ele>
        <time>2022-07-25T14:18:45Z</time>
      </trkpt>
      <trkpt lat="46.0501060" lon="5.6524810">
        <ele>944.7</ele>
        <time>2022-07-25T14:18:46Z</time>
      </trkpt>
      <trkpt lat="46.0500440" lon="5.6525070">
        <ele>944.3</ele>
        <time>2022-07-25T14:18:47Z</time>
      </trkpt>
      <trkpt lat="46.0499960" lon="5.6525270">
        <ele>944.0</ele>
        <time>2022-07-25T14:18:48Z</time>
      </trkpt>
      <trkpt lat="46.0499450" lon="5.6525490">
        <ele>943.7</ele>
        <time>2022-07-25T14:18:49Z</time>
      </trkpt>
      <trkpt lat="46.0498930" lon="5.6525660">
        <ele>943.4</ele>
        <time>2022-07-25T14:18:50Z</time>
      </trkpt>
      <trkpt lat="46.0498280" lon="5.6525820">
        <ele>943.0</ele>
        <time>2022-07-25T14:18:51Z</time>
      </trkpt>
      <trkpt lat="46.0497480" lon="5.6526060">
        <ele>942.5</ele>
        <time>2022-07-25T14:18:52Z</time>
      </trkpt>
      <trkpt lat="46.0496730" lon="5.6526310">
        <ele>942.1</ele>
        <time>2022-07-25T14:18:53Z</time>
      </trkpt>
      <trkpt lat="46.0495950" lon="5.6526570">
        <ele>941.5</ele>
        <time>2022-07-25T14:18:54Z</time>
      </trkpt>
      <trkpt lat="46.0495170" lon="5.6526840">
        <ele>941.0</ele>
        <time>2022-07-25T14:18:55Z</time>
      </trkpt>
      <trkpt lat="46.0494480" lon="5.6527150">
        <ele>940.5</ele>
        <time>2022-07-25T14:18:56Z</time>
      </trkpt>
      <trkpt lat="46.0493790" lon="5.6527480">
        <ele>939.9</ele>
        <time>2022-07-25T14:18:57Z</time>
      </trkpt>
      <trkpt lat="46.0492910" lon="5.6527830">
        <ele>939.3</ele>
        <time>2022-07-25T14:18:58Z</time>
      </trkpt>
      <trkpt lat="46.0492000" lon="5.6528100">
        <ele>938.7</ele>
        <time>2022-07-25T14:18:59Z</time>
      </trkpt>
      <trkpt lat="46.0491130" lon="5.6528510">
        <ele>938.1</ele>
        <time>2022-07-25T14:19:00Z</time>
      </trkpt>
      <trkpt lat="46.0490350" lon="5.6529000">
        <ele>937.5</ele>
        <time>2022-07-25T14:19:01Z</time>
      </trkpt>
      <trkpt lat="46.0489670" lon="5.6529540">
        <ele>937.0</ele>
        <time>2022-07-25T14:19:02Z</time>
      </trkpt>
      <trkpt lat="46.0488940" lon="5.6530050">
        <ele>936.4</ele>
        <time>2022-07-25T14:19:03Z</time>
      </trkpt>
      <trkpt lat="46.0488180" lon="5.6530520">
        <ele>935.8</ele>
        <time>2022-07-25T14:19:04Z</time>
      </trkpt>
      <trkpt lat="46.0487430" lon="5.6531050">
        <ele>935.2</ele>
        <time>2022-07-25T14:19:05Z</time>
      </trkpt>
      <trkpt lat="46.0486610" lon="5.6531570">
        <ele>934.6</ele>
        <time>2022-07-25T14:19:06Z</time>
      </trkpt>
      <trkpt lat="46.0485700" lon="5.6531660">
        <ele>934.0</ele>
        <time>2022-07-25T14:19:07Z</time>
      </trkpt>
      <trkpt lat="46.0484710" lon="5.6531530">
        <ele>933.4</ele>
        <time>2022-07-25T14:19:08Z</time>
      </trkpt>
      <trkpt lat="46.0483750" lon="5.6531430">
        <ele>933.0</ele>
        <time>2022-07-25T14:19:09Z</time>
      </trkpt>
      <trkpt lat="46.0482720" lon="5.6531290">
        <ele>932.7</ele>
        <time>2022-07-25T14:19:10Z</time>
      </trkpt>
      <trkpt lat="46.0481810" lon="5.6531080">
        <ele>932.4</ele>
        <time>2022-07-25T14:19:11Z</time>
      </trkpt>
      <trkpt lat="46.0480870" lon="5.6531020">
        <ele>932.2</ele>
        <time>2022-07-25T14:19:12Z</time>
      </trkpt>
      <trkpt lat="46.0479980" lon="5.6530830">
        <ele>932.0</ele>
        <time>2022-07-25T14:19:13Z</time>
      </trkpt>
      <trkpt lat="46.0479100" lon="5.6530690">
        <ele>931.8</ele>
        <time>2022-07-25T14:19:14Z</time>
      </trkpt>
      <trkpt lat="46.0478240" lon="5.6530590">
        <ele>931.6</ele>
        <time>2022-07-25T14:19:15Z</time>
      </trkpt>
      <trkpt lat="46.0477530" lon="5.6530620">
        <ele>931.4</ele>
        <time>2022-07-25T14:19:16Z</time>
      </trkpt>
      <trkpt lat="46.0476780" lon="5.6530600">
        <ele>931.3</ele>
        <time>2022-07-25T14:19:17Z</time>
      </trkpt>
      <trkpt lat="46.0475990" lon="5.6530510">
        <ele>931.1</ele>
        <time>2022-07-25T14:19:18Z</time>
      </trkpt>
      <trkpt lat="46.0475050" lon="5.6530430">
        <ele>931.0</ele>
        <time>2022-07-25T14:19:19Z</time>
      </trkpt>
      <trkpt lat="46.0474200" lon="5.6530290">
        <ele>930.8</ele>
        <time>2022-07-25T14:19:20Z</time>
      </trkpt>
      <trkpt lat="46.0473380" lon="5.6530110">
        <ele>930.6</ele>
        <time>2022-07-25T14:19:21Z</time>
      </trkpt>
      <trkpt lat="46.0472530" lon="5.6529790">
        <ele>930.5</ele>
        <time>2022-07-25T14:19:22Z</time>
      </trkpt>
      <trkpt lat="46.0471660" lon="5.6529320">
        <ele>930.5</ele>
        <time>2022-07-25T14:19:23Z</time>
      </trkpt>
      <trkpt lat="46.0470890" lon="5.6528780">
        <ele>930.6</ele>
        <time>2022-07-25T14:19:24Z</time>
      </trkpt>
      <trkpt lat="46.0470320" lon="5.6528240">
        <ele>930.7</ele>
        <time>2022-07-25T14:19:25Z</time>
      </trkpt>
      <trkpt lat="46.0469780" lon="5.6527640">
        <ele>930.8</ele>
        <time>2022-07-25T14:19:26Z</time>
      </trkpt>
      <trkpt lat="46.0469200" lon="5.6527030">
        <ele>930.9</ele>
        <time>2022-07-25T14:19:27Z</time>
      </trkpt>
      <trkpt lat="46.0468730" lon="5.6526520">
        <ele>931.0</ele>
        <time>2022-07-25T14:19:28Z</time>
      </trkpt>
      <trkpt lat="46.0468390" lon="5.6526240">
        <ele>931.1</ele>
        <time>2022-07-25T14:19:29Z</time>
      </trkpt>
      <trkpt lat="46.0468090" lon="5.6525910">
        <ele>931.1</ele>
        <time>2022-07-25T14:19:30Z</time>
      </trkpt>
      <trkpt lat="46.0467900" lon="5.6525700">
        <ele>931.1</ele>
        <time>2022-07-25T14:19:31Z</time>
      </trkpt>
      <trkpt lat="46.0467650" lon="5.6525300">
        <ele>931.2</ele>
        <time>2022-07-25T14:19:32Z</time>
      </trkpt>
      <trkpt lat="46.0467280" lon="5.6524760">
        <ele>931.2</ele>
        <time>2022-07-25T14:19:33Z</time>
      </trkpt>
      <trkpt lat="46.0466970" lon="5.6524250">
        <ele>931.3</ele>
        <time>2022-07-25T14:19:34Z</time>
      </trkpt>
      <trkpt lat="46.0466490" lon="5.6523740">
        <ele>931.4</ele>
        <time>2022-07-25T14:19:35Z</time>
      </trkpt>
      <trkpt lat="46.0466010" lon="5.6523250">
        <ele>931.4</ele>
        <time>2022-07-25T14:19:36Z</time>
      </trkpt>
      <trkpt lat="46.0465390" lon="5.6522810">
        <ele>931.4</ele>
        <time>2022-07-25T14:19:37Z</time>
      </trkpt>
      <trkpt lat="46.0464840" lon="5.6522480">
        <ele>931.4</ele>
        <time>2022-07-25T14:19:38Z</time>
      </trkpt>
      <trkpt lat="46.0464450" lon="5.6522010">
        <ele>931.3</ele>
        <time>2022-07-25T14:19:39Z</time>
      </trkpt>
      <trkpt lat="46.0464170" lon="5.6521690">
        <ele>931.3</ele>
        <time>2022-07-25T14:19:40Z</time>
      </trkpt>
      <trkpt lat="46.0463650" lon="5.6521350">
        <ele>931.1</ele>
        <time>2022-07-25T14:19:41Z</time>
      </trkpt>
      <trkpt lat="46.0463010" lon="5.6521350">
        <ele>931.0</ele>
        <time>2022-07-25T14:19:42Z</time>
      </trkpt>
      <trkpt lat="46.0462280" lon="5.6521380">
        <ele>930.9</ele>
        <time>2022-07-25T14:19:43Z</time>
      </trkpt>
      <trkpt lat="46.0461650" lon="5.6521600">
        <ele>930.8</ele>
        <time>2022-07-25T14:19:44Z</time>
      </trkpt>
      <trkpt lat="46.0461200" lon="5.6522000">
        <ele>930.8</ele>
        <time>2022-07-25T14:19:45Z</time>
      </trkpt>
      <trkpt lat="46.0460750" lon="5.6522530">
        <ele>930.7</ele>
        <time>2022-07-25T14:19:46Z</time>
      </trkpt>
      <trkpt lat="46.0460230" lon="5.6522990">
        <ele>930.7</ele>
        <time>2022-07-25T14:19:47Z</time>
      </trkpt>
      <trkpt lat="46.0459880" lon="5.6523550">
        <ele>930.6</ele>
        <time>2022-07-25T14:19:48Z</time>
      </trkpt>
      <trkpt lat="46.0459510" lon="5.6524070">
        <ele>930.6</ele>
        <time>2022-07-25T14:19:49Z</time>
      </trkpt>
      <trkpt lat="46.0459080" lon="5.6524580">
        <ele>930.6</ele>
        <time>2022-07-25T14:19:50Z</time>
      </trkpt>
      <trkpt lat="46.0458570" lon="5.6524870">
        <ele>930.6</ele>
        <time>2022-07-25T14:19:51Z</time>
      </trkpt>
      <trkpt lat="46.0458040" lon="5.6525120">
        <ele>930.6</ele>
        <time>2022-07-25T14:19:52Z</time>
      </trkpt>
      <trkpt lat="46.0457450" lon="5.6525300">
        <ele>930.6</ele>
        <time>2022-07-25T14:19:53Z</time>
      </trkpt>
      <trkpt lat="46.0456890" lon="5.6525440">
        <ele>930.6</ele>
        <time>2022-07-25T14:19:54Z</time>
      </trkpt>
      <trkpt lat="46.0456300" lon="5.6525440">
        <ele>930.6</ele>
        <time>2022-07-25T14:19:55Z</time>
      </trkpt>
      <trkpt lat="46.0455670" lon="5.6525450">
        <ele>930.5</ele>
        <time>2022-07-25T14:19:56Z</time>
      </trkpt>
      <trkpt lat="46.0455210" lon="5.6525430">
        <ele>930.5</ele>
        <time>2022-07-25T14:19:57Z</time>
      </trkpt>
      <trkpt lat="46.0454700" lon="5.6525580">
        <ele>930.3</ele>
        <time>2022-07-25T14:19:58Z</time>
      </trkpt>
      <trkpt lat="46.0454410" lon="5.6525610">
        <ele>930.2</ele>
        <time>2022-07-25T14:19:59Z</time>
      </trkpt>
      <trkpt lat="46.0453860" lon="5.6525660">
        <ele>930.2</ele>
        <time>2022-07-25T14:20:00Z</time>
      </trkpt>
      <trkpt lat="46.0453330" lon="5.6525600">
        <ele>930.1</ele>
        <time>2022-07-25T14:20:01Z</time>
      </trkpt>
      <trkpt lat="46.0452950" lon="5.6525540">
        <ele>930.1</ele>
        <time>2022-07-25T14:20:02Z</time>
      </trkpt>
      <trkpt lat="46.0452410" lon="5.6525520">
        <ele>930.1</ele>
        <time>2022-07-25T14:20:03Z</time>
      </trkpt>
      <trkpt lat="46.0451830" lon="5.6525440">
        <ele>930.0</ele>
        <time>2022-07-25T14:20:04Z</time>
      </trkpt>
      <trkpt lat="46.0451340" lon="5.6525230">
        <ele>930.0</ele>
        <time>2022-07-25T14:20:05Z</time>
      </trkpt>
      <trkpt lat="46.0450920" lon="5.6525130">
        <ele>929.9</ele>
        <time>2022-07-25T14:20:06Z</time>
      </trkpt>
      <trkpt lat="46.0450390" lon="5.6525040">
        <ele>929.9</ele>
        <time>2022-07-25T14:20:07Z</time>
      </trkpt>
      <trkpt lat="46.0449770" lon="5.6524950">
        <ele>929.8</ele>
        <time>2022-07-25T14:20:08Z</time>
      </trkpt>
      <trkpt lat="46.0449060" lon="5.6524620">
        <ele>929.7</ele>
        <time>2022-07-25T14:20:09Z</time>
      </trkpt>
      <trkpt lat="46.0448450" lon="5.6524320">
        <ele>929.7</ele>
        <time>2022-07-25T14:20:10Z</time>
      </trkpt>
      <trkpt lat="46.0447890" lon="5.6524080">
        <ele>929.6</ele>
        <time>2022-07-25T14:20:11Z</time>
      </trkpt>
      <trkpt lat="46.0447350" lon="5.6523740">
        <ele>929.5</ele>
        <time>2022-07-25T14:20:12Z</time>
      </trkpt>
      <trkpt lat="46.0446880" lon="5.6523420">
        <ele>929.4</ele>
        <time>2022-07-25T14:20:13Z</time>
      </trkpt>
      <trkpt lat="46.0446400" lon="5.6523100">
        <ele>929.3</ele>
        <time>2022-07-25T14:20:14Z</time>
      </trkpt>
      <trkpt lat="46.0446000" lon="5.6522720">
        <ele>929.3</ele>
        <time>2022-07-25T14:20:15Z</time>
      </trkpt>
      <trkpt lat="46.0445690" lon="5.6522400">
        <ele>929.2</ele>
        <time>2022-07-25T14:20:16Z</time>
      </trkpt>
      <trkpt lat="46.0445510" lon="5.6522250">
        <ele>929.1</ele>
        <time>2022-07-25T14:20:17Z</time>
      </trkpt>
      <trkpt lat="46.0444940" lon="5.6521860">
        <ele>929.0</ele>
        <time>2022-07-25T14:20:18Z</time>
      </trkpt>
      <trkpt lat="46.0444410" lon="5.6521490">
        <ele>928.9</ele>
        <time>2022-07-25T14:20:19Z</time>
      </trkpt>
      <trkpt lat="46.0443940" lon="5.6521050">
        <ele>928.8</ele>
        <time>2022-07-25T14:20:20Z</time>
      </trkpt>
      <trkpt lat="46.0443440" lon="5.6520480">
        <ele>928.6</ele>
        <time>2022-07-25T14:20:21Z</time>
      </trkpt>
      <trkpt lat="46.0442970" lon="5.6519810">
        <ele>928.5</ele>
        <time>2022-07-25T14:20:22Z</time>
      </trkpt>
      <trkpt lat="46.0442520" lon="5.6519240">
        <ele>928.4</ele>
        <time>2022-07-25T14:20:23Z</time>
      </trkpt>
      <trkpt lat="46.0442000" lon="5.6518610">
        <ele>928.3</ele>
        <time>2022-07-25T14:20:24Z</time>
      </trkpt>
      <trkpt lat="46.0441410" lon="5.6517990">
        <ele>928.2</ele>
        <time>2022-07-25T14:20:25Z</time>
      </trkpt>
      <trkpt lat="46.0440910" lon="5.6517410">
        <ele>928.2</ele>
        <time>2022-07-25T14:20:26Z</time>
      </trkpt>
      <trkpt lat="46.0440430" lon="5.6517020">
        <ele>928.1</ele>
        <time>2022-07-25T14:20:27Z</time>
      </trkpt>
      <trkpt lat="46.0439920" lon="5.6516730">
        <ele>928.0</ele>
        <time>2022-07-25T14:20:28Z</time>
      </trkpt>
      <trkpt lat="46.0439330" lon="5.6516420">
        <ele>928.0</ele>
        <time>2022-07-25T14:20:29Z</time>
      </trkpt>
      <trkpt lat="46.0438810" lon="5.6516060">
        <ele>927.9</ele>
        <time>2022-07-25T14:20:30Z</time>
      </trkpt>
      <trkpt lat="46.0438280" lon="5.6515870">
        <ele>927.8</ele>
        <time>2022-07-25T14:20:31Z</time>
      </trkpt>
      <trkpt lat="46.0437830" lon="5.6515720">
        <ele>927.8</ele>
        <time>2022-07-25T14:20:32Z</time>
      </trkpt>
      <trkpt lat="46.0437500" lon="5.6515640">
        <ele>927.8</ele>
        <time>2022-07-25T14:20:33Z</time>
      </trkpt>
      <trkpt lat="46.0436880" lon="5.6515400">
        <ele>927.7</ele>
        <time>2022-07-25T14:20:34Z</time>
      </trkpt>
      <trkpt lat="46.0436180" lon="5.6515180">
        <ele>927.6</ele>
        <time>2022-07-25T14:20:35Z</time>
      </trkpt>
      <trkpt lat="46.0435620" lon="5.6514880">
        <ele>927.5</ele>
        <time>2022-07-25T14:20:36Z</time>
      </trkpt>
      <trkpt lat="46.0435150" lon="5.6514560">
        <ele>927.4</ele>
        <time>2022-07-25T14:20:37Z</time>
      </trkpt>
      <trkpt lat="46.0434630" lon="5.6514260">
        <ele>927.3</ele>
        <time>2022-07-25T14:20:38Z</time>
      </trkpt>
      <trkpt lat="46.0434070" lon="5.6513910">
        <ele>927.1</ele>
        <time>2022-07-25T14:20:39Z</time>
      </trkpt>
      <trkpt lat="46.0433490" lon="5.6513620">
        <ele>926.9</ele>
        <time>2022-07-25T14:20:40Z</time>
      </trkpt>
      <trkpt lat="46.0432990" lon="5.6513470">
        <ele>926.7</ele>
        <time>2022-07-25T14:20:41Z</time>
      </trkpt>
      <trkpt lat="46.0432680" lon="5.6513340">
        <ele>926.6</ele>
        <time>2022-07-25T14:20:42Z</time>
      </trkpt>
      <trkpt lat="46.0432150" lon="5.6513000">
        <ele>926.4</ele>
        <time>2022-07-25T14:20:43Z</time>
      </trkpt>
      <trkpt lat="46.0431590" lon="5.6512800">
        <ele>926.2</ele>
        <time>2022-07-25T14:20:44Z</time>
      </trkpt>
      <trkpt lat="46.0431060" lon="5.6512550">
        <ele>926.0</ele>
        <time>2022-07-25T14:20:45Z</time>
      </trkpt>
      <trkpt lat="46.0430450" lon="5.6512350">
        <ele>925.7</ele>
        <time>2022-07-25T14:20:46Z</time>
      </trkpt>
      <trkpt lat="46.0429840" lon="5.6512160">
        <ele>925.4</ele>
        <time>2022-07-25T14:20:47Z</time>
      </trkpt>
      <trkpt lat="46.0429240" lon="5.6511940">
        <ele>925.1</ele>
        <time>2022-07-25T14:20:48Z</time>
      </trkpt>
      <trkpt lat="46.0428560" lon="5.6511720">
        <ele>924.7</ele>
        <time>2022-07-25T14:20:49Z</time>
      </trkpt>
      <trkpt lat="46.0427860" lon="5.6511540">
        <ele>924.3</ele>
        <time>2022-07-25T14:20:50Z</time>
      </trkpt>
      <trkpt lat="46.0427140" lon="5.6511400">
        <ele>923.8</ele>
        <time>2022-07-25T14:20:51Z</time>
      </trkpt>
      <trkpt lat="46.0426430" lon="5.6511270">
        <ele>923.3</ele>
        <time>2022-07-25T14:20:52Z</time>
      </trkpt>
      <trkpt lat="46.0425730" lon="5.6511140">
        <ele>922.8</ele>
        <time>2022-07-25T14:20:53Z</time>
      </trkpt>
      <trkpt lat="46.0424850" lon="5.6511140">
        <ele>922.1</ele>
        <time>2022-07-25T14:20:54Z</time>
      </trkpt>
      <trkpt lat="46.0423950" lon="5.6511030">
        <ele>921.3</ele>
        <time>2022-07-25T14:20:55Z</time>
      </trkpt>
      <trkpt lat="46.0423060" lon="5.6510790">
        <ele>920.6</ele>
        <time>2022-07-25T14:20:56Z</time>
      </trkpt>
      <trkpt lat="46.0422090" lon="5.6510580">
        <ele>919.8</ele>
        <time>2022-07-25T14:20:57Z</time>
      </trkpt>
      <trkpt lat="46.0421140" lon="5.6510360">
        <ele>919.0</ele>
        <time>2022-07-25T14:20:58Z</time>
      </trkpt>
      <trkpt lat="46.0420200" lon="5.6510190">
        <ele>918.3</ele>
        <time>2022-07-25T14:20:59Z</time>
      </trkpt>
      <trkpt lat="46.0419200" lon="5.6510010">
        <ele>917.4</ele>
        <time>2022-07-25T14:21:00Z</time>
      </trkpt>
      <trkpt lat="46.0418200" lon="5.6509920">
        <ele>916.6</ele>
        <time>2022-07-25T14:21:01Z</time>
      </trkpt>
      <trkpt lat="46.0417200" lon="5.6509810">
        <ele>916.2</ele>
        <time>2022-07-25T14:21:02Z</time>
      </trkpt>
      <trkpt lat="46.0416240" lon="5.6509720">
        <ele>916.1</ele>
        <time>2022-07-25T14:21:03Z</time>
      </trkpt>
      <trkpt lat="46.0415240" lon="5.6509530">
        <ele>915.5</ele>
        <time>2022-07-25T14:21:04Z</time>
      </trkpt>
      <trkpt lat="46.0414280" lon="5.6509320">
        <ele>914.9</ele>
        <time>2022-07-25T14:21:05Z</time>
      </trkpt>
      <trkpt lat="46.0413370" lon="5.6509240">
        <ele>914.2</ele>
        <time>2022-07-25T14:21:06Z</time>
      </trkpt>
      <trkpt lat="46.0412630" lon="5.6509360">
        <ele>913.6</ele>
        <time>2022-07-25T14:21:07Z</time>
      </trkpt>
      <trkpt lat="46.0411830" lon="5.6509580">
        <ele>913.0</ele>
        <time>2022-07-25T14:21:08Z</time>
      </trkpt>
      <trkpt lat="46.0411020" lon="5.6509930">
        <ele>912.2</ele>
        <time>2022-07-25T14:21:09Z</time>
      </trkpt>
      <trkpt lat="46.0410150" lon="5.6510450">
        <ele>911.4</ele>
        <time>2022-07-25T14:21:10Z</time>
      </trkpt>
      <trkpt lat="46.0409370" lon="5.6511080">
        <ele>910.6</ele>
        <time>2022-07-25T14:21:11Z</time>
      </trkpt>
      <trkpt lat="46.0408600" lon="5.6511620">
        <ele>909.8</ele>
        <time>2022-07-25T14:21:12Z</time>
      </trkpt>
      <trkpt lat="46.0407800" lon="5.6512210">
        <ele>909.1</ele>
        <time>2022-07-25T14:21:13Z</time>
      </trkpt>
      <trkpt lat="46.0407130" lon="5.6512720">
        <ele>908.4</ele>
        <time>2022-07-25T14:21:14Z</time>
      </trkpt>
      <trkpt lat="46.0406360" lon="5.6513080">
        <ele>907.7</ele>
        <time>2022-07-25T14:21:15Z</time>
      </trkpt>
      <trkpt lat="46.0405510" lon="5.6513320">
        <ele>907.0</ele>
        <time>2022-07-25T14:21:16Z</time>
      </trkpt>
      <trkpt lat="46.0404780" lon="5.6513360">
        <ele>906.3</ele>
        <time>2022-07-25T14:21:17Z</time>
      </trkpt>
      <trkpt lat="46.0404130" lon="5.6513360">
        <ele>905.6</ele>
        <time>2022-07-25T14:21:18Z</time>
      </trkpt>
      <trkpt lat="46.0403430" lon="5.6513540">
        <ele>904.8</ele>
        <time>2022-07-25T14:21:19Z</time>
      </trkpt>
      <trkpt lat="46.0402880" lon="5.6514200">
        <ele>904.0</ele>
        <time>2022-07-25T14:21:20Z</time>
      </trkpt>
      <trkpt lat="46.0402600" lon="5.6515230">
        <ele>903.1</ele>
        <time>2022-07-25T14:21:21Z</time>
      </trkpt>
      <trkpt lat="46.0402630" lon="5.6516500">
        <ele>902.1</ele>
        <time>2022-07-25T14:21:22Z</time>
      </trkpt>
      <trkpt lat="46.0402790" lon="5.6517860">
        <ele>901.0</ele>
        <time>2022-07-25T14:21:23Z</time>
      </trkpt>
      <trkpt lat="46.0402870" lon="5.6519270">
        <ele>899.9</ele>
        <time>2022-07-25T14:21:24Z</time>
      </trkpt>
      <trkpt lat="46.0402940" lon="5.6520830">
        <ele>898.9</ele>
        <time>2022-07-25T14:21:25Z</time>
      </trkpt>
      <trkpt lat="46.0402950" lon="5.6522350">
        <ele>897.8</ele>
        <time>2022-07-25T14:21:26Z</time>
      </trkpt>
      <trkpt lat="46.0402770" lon="5.6523510">
        <ele>897.0</ele>
        <time>2022-07-25T14:21:27Z</time>
      </trkpt>
      <trkpt lat="46.0402410" lon="5.6524570">
        <ele>896.3</ele>
        <time>2022-07-25T14:21:28Z</time>
      </trkpt>
      <trkpt lat="46.0401920" lon="5.6525390">
        <ele>895.6</ele>
        <time>2022-07-25T14:21:29Z</time>
      </trkpt>
      <trkpt lat="46.0401510" lon="5.6526140">
        <ele>895.0</ele>
        <time>2022-07-25T14:21:30Z</time>
      </trkpt>
      <trkpt lat="46.0400860" lon="5.6526790">
        <ele>894.3</ele>
        <time>2022-07-25T14:21:31Z</time>
      </trkpt>
      <trkpt lat="46.0399840" lon="5.6527260">
        <ele>893.3</ele>
        <time>2022-07-25T14:21:32Z</time>
      </trkpt>
      <trkpt lat="46.0398850" lon="5.6527610">
        <ele>892.5</ele>
        <time>2022-07-25T14:21:33Z</time>
      </trkpt>
      <trkpt lat="46.0397860" lon="5.6527790">
        <ele>891.7</ele>
        <time>2022-07-25T14:21:34Z</time>
      </trkpt>
      <trkpt lat="46.0396780" lon="5.6527940">
        <ele>891.0</ele>
        <time>2022-07-25T14:21:35Z</time>
      </trkpt>
      <trkpt lat="46.0395930" lon="5.6528220">
        <ele>890.4</ele>
        <time>2022-07-25T14:21:36Z</time>
      </trkpt>
      <trkpt lat="46.0395190" lon="5.6528560">
        <ele>889.9</ele>
        <time>2022-07-25T14:21:37Z</time>
      </trkpt>
      <trkpt lat="46.0394510" lon="5.6528820">
        <ele>889.4</ele>
        <time>2022-07-25T14:21:38Z</time>
      </trkpt>
      <trkpt lat="46.0393850" lon="5.6529060">
        <ele>889.0</ele>
        <time>2022-07-25T14:21:39Z</time>
      </trkpt>
      <trkpt lat="46.0393170" lon="5.6529180">
        <ele>888.6</ele>
        <time>2022-07-25T14:21:40Z</time>
      </trkpt>
      <trkpt lat="46.0392480" lon="5.6529110">
        <ele>888.3</ele>
        <time>2022-07-25T14:21:41Z</time>
      </trkpt>
      <trkpt lat="46.0391770" lon="5.6528900">
        <ele>888.6</ele>
        <time>2022-07-25T14:21:42Z</time>
      </trkpt>
      <trkpt lat="46.0391190" lon="5.6528540">
        <ele>888.8</ele>
        <time>2022-07-25T14:21:43Z</time>
      </trkpt>
      <trkpt lat="46.0390680" lon="5.6528070">
        <ele>889.0</ele>
        <time>2022-07-25T14:21:44Z</time>
      </trkpt>
      <trkpt lat="46.0390290" lon="5.6527460">
        <ele>889.2</ele>
        <time>2022-07-25T14:21:45Z</time>
      </trkpt>
      <trkpt lat="46.0390010" lon="5.6526840">
        <ele>889.4</ele>
        <time>2022-07-25T14:21:46Z</time>
      </trkpt>
      <trkpt lat="46.0389690" lon="5.6526240">
        <ele>889.6</ele>
        <time>2022-07-25T14:21:47Z</time>
      </trkpt>
      <trkpt lat="46.0389470" lon="5.6525520">
        <ele>889.8</ele>
        <time>2022-07-25T14:21:48Z</time>
      </trkpt>
      <trkpt lat="46.0389320" lon="5.6524860">
        <ele>890.0</ele>
        <time>2022-07-25T14:21:49Z</time>
      </trkpt>
      <trkpt lat="46.0389220" lon="5.6524440">
        <ele>890.1</ele>
        <time>2022-07-25T14:21:50Z</time>
      </trkpt>
      <trkpt lat="46.0389060" lon="5.6523930">
        <ele>890.3</ele>
        <time>2022-07-25T14:21:51Z</time>
      </trkpt>
      <trkpt lat="46.0388980" lon="5.6523420">
        <ele>890.4</ele>
        <time>2022-07-25T14:21:52Z</time>
      </trkpt>
      <trkpt lat="46.0388860" lon="5.6522820">
        <ele>890.6</ele>
        <time>2022-07-25T14:21:53Z</time>
      </trkpt>
      <trkpt lat="46.0388850" lon="5.6522350">
        <ele>890.8</ele>
        <time>2022-07-25T14:21:54Z</time>
      </trkpt>
      <trkpt lat="46.0388860" lon="5.6521900">
        <ele>890.9</ele>
        <time>2022-07-25T14:21:55Z</time>
      </trkpt>
      <trkpt lat="46.0388840" lon="5.6521280">
        <ele>891.0</ele>
        <time>2022-07-25T14:21:56Z</time>
      </trkpt>
      <trkpt lat="46.0388850" lon="5.6520750">
        <ele>891.2</ele>
        <time>2022-07-25T14:21:57Z</time>
      </trkpt>
      <trkpt lat="46.0388910" lon="5.6520340">
        <ele>891.3</ele>
        <time>2022-07-25T14:21:58Z</time>
      </trkpt>
      <trkpt lat="46.0388840" lon="5.6519860">
        <ele>891.4</ele>
        <time>2022-07-25T14:21:59Z</time>
      </trkpt>
      <trkpt lat="46.0388820" lon="5.6519440">
        <ele>891.5</ele>
        <time>2022-07-25T14:22:00Z</time>
      </trkpt>
      <trkpt lat="46.0388770" lon="5.6518990">
        <ele>891.6</ele>
        <time>2022-07-25T14:22:01Z</time>
      </trkpt>
      <trkpt lat="46.0388710" lon="5.6518580">
        <ele>891.7</ele>
        <time>2022-07-25T14:22:02Z</time>
      </trkpt>
      <trkpt lat="46.0388620" lon="5.6518110">
        <ele>891.8</ele>
        <time>2022-07-25T14:22:03Z</time>
      </trkpt>
      <trkpt lat="46.0388560" lon="5.6517710">
        <ele>891.9</ele>
        <time>2022-07-25T14:22:04Z</time>
      </trkpt>
      <trkpt lat="46.0388520" lon="5.6517300">
        <ele>891.9</ele>
        <time>2022-07-25T14:22:05Z</time>
      </trkpt>
      <trkpt lat="46.0388510" lon="5.6516790">
        <ele>892.0</ele>
        <time>2022-07-25T14:22:06Z</time>
      </trkpt>
      <trkpt lat="46.0388510" lon="5.6516580">
        <ele>892.1</ele>
        <time>2022-07-25T14:22:07Z</time>
      </trkpt>
      <trkpt lat="46.0388420" lon="5.6516130">
        <ele>892.1</ele>
        <time>2022-07-25T14:22:08Z</time>
      </trkpt>
      <trkpt lat="46.0388280" lon="5.6515640">
        <ele>892.2</ele>
        <time>2022-07-25T14:22:09Z</time>
      </trkpt>
      <trkpt lat="46.0388120" lon="5.6515310">
        <ele>892.2</ele>
        <time>2022-07-25T14:22:10Z</time>
      </trkpt>
      <trkpt lat="46.0387910" lon="5.6514860">
        <ele>892.3</ele>
        <time>2022-07-25T14:22:11Z</time>
      </trkpt>
      <trkpt lat="46.0387710" lon="5.6514480">
        <ele>892.3</ele>
        <time>2022-07-25T14:22:12Z</time>
      </trkpt>
      <trkpt lat="46.0387430" lon="5.6513970">
        <ele>892.4</ele>
        <time>2022-07-25T14:22:13Z</time>
      </trkpt>
      <trkpt lat="46.0387310" lon="5.6513730">
        <ele>892.4</ele>
        <time>2022-07-25T14:22:14Z</time>
      </trkpt>
      <trkpt lat="46.0387070" lon="5.6513290">
        <ele>892.4</ele>
        <time>2022-07-25T14:22:15Z</time>
      </trkpt>
      <trkpt lat="46.0386840" lon="5.6512880">
        <ele>892.4</ele>
        <time>2022-07-25T14:22:16Z</time>
      </trkpt>
      <trkpt lat="46.0386570" lon="5.6512450">
        <ele>892.4</ele>
        <time>2022-07-25T14:22:17Z</time>
      </trkpt>
      <trkpt lat="46.0386310" lon="5.6512070">
        <ele>892.4</ele>
        <time>2022-07-25T14:22:18Z</time>
      </trkpt>
      <trkpt lat="46.0386040" lon="5.6511640">
        <ele>892.4</ele>
        <time>2022-07-25T14:22:19Z</time>
      </trkpt>
      <trkpt lat="46.0385800" lon="5.6511260">
        <ele>892.4</ele>
        <time>2022-07-25T14:22:20Z</time>
      </trkpt>
      <trkpt lat="46.0385550" lon="5.6510820">
        <ele>892.4</ele>
        <time>2022-07-25T14:22:21Z</time>
      </trkpt>
      <trkpt lat="46.0385280" lon="5.6510460">
        <ele>892.4</ele>
        <time>2022-07-25T14:22:22Z</time>
      </trkpt>
      <trkpt lat="46.0385010" lon="5.6510090">
        <ele>892.4</ele>
        <time>2022-07-25T14:22:23Z</time>
      </trkpt>
      <trkpt lat="46.0384730" lon="5.6509760">
        <ele>892.4</ele>
        <time>2022-07-25T14:22:24Z</time>
      </trkpt>
      <trkpt lat="46.0384380" lon="5.6509360">
        <ele>892.4</ele>
        <time>2022-07-25T14:22:25Z</time>
      </trkpt>
      <trkpt lat="46.0384080" lon="5.6509020">
        <ele>892.4</ele>
        <time>2022-07-25T14:22:26Z</time>
      </trkpt>
      <trkpt lat="46.0383820" lon="5.6508720">
        <ele>892.4</ele>
        <time>2022-07-25T14:22:27Z</time>
      </trkpt>
      <trkpt lat="46.0383530" lon="5.6508360">
        <ele>892.4</ele>
        <time>2022-07-25T14:22:28Z</time>
      </trkpt>
      <trkpt lat="46.0383220" lon="5.6507950">
        <ele>892.5</ele>
        <time>2022-07-25T14:22:29Z</time>
      </trkpt>
      <trkpt lat="46.0382930" lon="5.6507560">
        <ele>892.5</ele>
        <time>2022-07-25T14:22:30Z</time>
      </trkpt>
      <trkpt lat="46.0382620" lon="5.6507150">
        <ele>892.6</ele>
        <time>2022-07-25T14:22:31Z</time>
      </trkpt>
      <trkpt lat="46.0382370" lon="5.6506820">
        <ele>892.7</ele>
        <time>2022-07-25T14:22:32Z</time>
      </trkpt>
      <trkpt lat="46.0382060" lon="5.6506460">
        <ele>892.8</ele>
        <time>2022-07-25T14:22:33Z</time>
      </trkpt>
      <trkpt lat="46.0381800" lon="5.6506190">
        <ele>892.9</ele>
        <time>2022-07-25T14:22:34Z</time>
      </trkpt>
      <trkpt lat="46.0381550" lon="5.6505960">
        <ele>893.0</ele>
        <time>2022-07-25T14:22:35Z</time>
      </trkpt>
      <trkpt lat="46.0381300" lon="5.6505740">
        <ele>893.2</ele>
        <time>2022-07-25T14:22:36Z</time>
      </trkpt>
      <trkpt lat="46.0380980" lon="5.6505520">
        <ele>893.3</ele>
        <time>2022-07-25T14:22:37Z</time>
      </trkpt>
      <trkpt lat="46.0380650" lon="5.6505350">
        <ele>893.5</ele>
        <time>2022-07-25T14:22:38Z</time>
      </trkpt>
      <trkpt lat="46.0380370" lon="5.6505270">
        <ele>893.6</ele>
        <time>2022-07-25T14:22:39Z</time>
      </trkpt>
      <trkpt lat="46.0380260" lon="5.6505240">
        <ele>893.7</ele>
        <time>2022-07-25T14:22:40Z</time>
      </trkpt>
      <trkpt lat="46.0379910" lon="5.6505090">
        <ele>893.9</ele>
        <time>2022-07-25T14:22:41Z</time>
      </trkpt>
      <trkpt lat="46.0379780" lon="5.6505030">
        <ele>893.9</ele>
        <time>2022-07-25T14:22:42Z</time>
      </trkpt>
      <trkpt lat="46.0379380" lon="5.6504870">
        <ele>894.0</ele>
        <time>2022-07-25T14:22:43Z</time>
      </trkpt>
      <trkpt lat="46.0379220" lon="5.6504810">
        <ele>894.1</ele>
        <time>2022-07-25T14:22:44Z</time>
      </trkpt>
      <trkpt lat="46.0378830" lon="5.6504690">
        <ele>894.2</ele>
        <time>2022-07-25T14:22:45Z</time>
      </trkpt>
      <trkpt lat="46.0378660" lon="5.6504650">
        <ele>894.2</ele>
        <time>2022-07-25T14:22:46Z</time>
      </trkpt>
      <trkpt lat="46.0378360" lon="5.6504590">
        <ele>894.2</ele>
        <time>2022-07-25T14:22:47Z</time>
      </trkpt>
      <trkpt lat="46.0378060" lon="5.6504520">
        <ele>894.3</ele>
        <time>2022-07-25T14:22:48Z</time>
      </trkpt>
      <trkpt lat="46.0377730" lon="5.6504430">
        <ele>894.3</ele>
        <time>2022-07-25T14:22:49Z</time>
      </trkpt>
      <trkpt lat="46.0377290" lon="5.6504300">
        <ele>894.3</ele>
        <time>2022-07-25T14:22:50Z</time>
      </trkpt>
      <trkpt lat="46.0377020" lon="5.6504220">
        <ele>894.4</ele>
        <time>2022-07-25T14:22:51Z</time>
      </trkpt>
      <trkpt lat="46.0376650" lon="5.6504120">
        <ele>894.4</ele>
        <time>2022-07-25T14:22:52Z</time>
      </trkpt>
      <trkpt lat="46.0376190" lon="5.6504070">
        <ele>894.4</ele>
        <time>2022-07-25T14:22:53Z</time>
      </trkpt>
      <trkpt lat="46.0375750" lon="5.6504100">
        <ele>894.4</ele>
        <time>2022-07-25T14:22:54Z</time>
      </trkpt>
      <trkpt lat="46.0375390" lon="5.6504180">
        <ele>894.5</ele>
        <time>2022-07-25T14:22:55Z</time>
      </trkpt>
      <trkpt lat="46.0375030" lon="5.6504280">
        <ele>894.5</ele>
        <time>2022-07-25T14:22:56Z</time>
      </trkpt>
      <trkpt lat="46.0374680" lon="5.6504400">
        <ele>894.5</ele>
        <time>2022-07-25T14:22:57Z</time>
      </trkpt>
      <trkpt lat="46.0374340" lon="5.6504550">
        <ele>894.6</ele>
        <time>2022-07-25T14:22:58Z</time>
      </trkpt>
      <trkpt lat="46.0374010" lon="5.6504710">
        <ele>894.6</ele>
        <time>2022-07-25T14:22:59Z</time>
      </trkpt>
      <trkpt lat="46.0373650" lon="5.6504900">
        <ele>894.6</ele>
        <time>2022-07-25T14:23:00Z</time>
      </trkpt>
      <trkpt lat="46.0373510" lon="5.6504980">
        <ele>894.6</ele>
        <time>2022-07-25T14:23:01Z</time>
      </trkpt>
      <trkpt lat="46.0373200" lon="5.6505130">
        <ele>894.7</ele>
        <time>2022-07-25T14:23:02Z</time>
      </trkpt>
      <trkpt lat="46.0372920" lon="5.6505330">
        <ele>894.7</ele>
        <time>2022-07-25T14:23:03Z</time>
      </trkpt>
      <trkpt lat="46.0372800" lon="5.6505420">
        <ele>894.7</ele>
        <time>2022-07-25T14:23:04Z</time>
      </trkpt>
      <trkpt lat="46.0372320" lon="5.6505860">
        <ele>894.7</ele>
        <time>2022-07-25T14:23:06Z</time>
      </trkpt>
      <trkpt lat="46.0371980" lon="5.6506190">
        <ele>894.8</ele>
        <time>2022-07-25T14:23:07Z</time>
      </trkpt>
      <trkpt lat="46.0371650" lon="5.6506540">
        <ele>894.8</ele>
        <time>2022-07-25T14:23:08Z</time>
      </trkpt>
      <trkpt lat="46.0371370" lon="5.6506850">
        <ele>894.8</ele>
        <time>2022-07-25T14:23:09Z</time>
      </trkpt>
      <trkpt lat="46.0371070" lon="5.6507190">
        <ele>894.9</ele>
        <time>2022-07-25T14:23:10Z</time>
      </trkpt>
      <trkpt lat="46.0370810" lon="5.6507520">
        <ele>894.9</ele>
        <time>2022-07-25T14:23:11Z</time>
      </trkpt>
      <trkpt lat="46.0370550" lon="5.6507850">
        <ele>894.9</ele>
        <time>2022-07-25T14:23:12Z</time>
      </trkpt>
      <trkpt lat="46.0370300" lon="5.6508170">
        <ele>895.0</ele>
        <time>2022-07-25T14:23:13Z</time>
      </trkpt>
      <trkpt lat="46.0369890" lon="5.6508660">
        <ele>895.0</ele>
        <time>2022-07-25T14:23:15Z</time>
      </trkpt>
      <trkpt lat="46.0369600" lon="5.6508960">
        <ele>895.0</ele>
        <time>2022-07-25T14:23:16Z</time>
      </trkpt>
      <trkpt lat="46.0369260" lon="5.6509390">
        <ele>895.0</ele>
        <time>2022-07-25T14:23:17Z</time>
      </trkpt>
      <trkpt lat="46.0368890" lon="5.6509690">
        <ele>895.0</ele>
        <time>2022-07-25T14:23:18Z</time>
      </trkpt>
      <trkpt lat="46.0368380" lon="5.6510020">
        <ele>895.0</ele>
        <time>2022-07-25T14:23:20Z</time>
      </trkpt>
      <trkpt lat="46.0368060" lon="5.6510220">
        <ele>895.0</ele>
        <time>2022-07-25T14:23:21Z</time>
      </trkpt>
      <trkpt lat="46.0367530" lon="5.6510550">
        <ele>895.0</ele>
        <time>2022-07-25T14:23:22Z</time>
      </trkpt>
      <trkpt lat="46.0367120" lon="5.6510580">
        <ele>894.9</ele>
        <time>2022-07-25T14:23:23Z</time>
      </trkpt>
      <trkpt lat="46.0366560" lon="5.6510570">
        <ele>894.9</ele>
        <time>2022-07-25T14:23:24Z</time>
      </trkpt>
      <trkpt lat="46.0365970" lon="5.6510420">
        <ele>894.8</ele>
        <time>2022-07-25T14:23:25Z</time>
      </trkpt>
      <trkpt lat="46.0364800" lon="5.6510110">
        <ele>894.7</ele>
        <time>2022-07-25T14:23:27Z</time>
      </trkpt>
      <trkpt lat="46.0364500" lon="5.6509880">
        <ele>894.6</ele>
        <time>2022-07-25T14:23:28Z</time>
      </trkpt>
      <trkpt lat="46.0364280" lon="5.6509540">
        <ele>894.6</ele>
        <time>2022-07-25T14:23:29Z</time>
      </trkpt>
      <trkpt lat="46.0363860" lon="5.6509300">
        <ele>894.5</ele>
        <time>2022-07-25T14:23:30Z</time>
      </trkpt>
      <trkpt lat="46.0363390" lon="5.6509010">
        <ele>894.4</ele>
        <time>2022-07-25T14:23:31Z</time>
      </trkpt>
      <trkpt lat="46.0362590" lon="5.6508470">
        <ele>894.3</ele>
        <time>2022-07-25T14:23:32Z</time>
      </trkpt>
      <trkpt lat="46.0362180" lon="5.6508160">
        <ele>894.3</ele>
        <time>2022-07-25T14:23:33Z</time>
      </trkpt>
      <trkpt lat="46.0361710" lon="5.6507850">
        <ele>894.3</ele>
        <time>2022-07-25T14:23:34Z</time>
      </trkpt>
      <trkpt lat="46.0361270" lon="5.6507560">
        <ele>894.2</ele>
        <time>2022-07-25T14:23:35Z</time>
      </trkpt>
      <trkpt lat="46.0360860" lon="5.6507310">
        <ele>894.2</ele>
        <time>2022-07-25T14:23:36Z</time>
      </trkpt>
      <trkpt lat="46.0360560" lon="5.6507410">
        <ele>894.2</ele>
        <time>2022-07-25T14:23:37Z</time>
      </trkpt>
      <trkpt lat="46.0360220" lon="5.6507270">
        <ele>894.3</ele>
        <time>2022-07-25T14:23:39Z</time>
      </trkpt>
      <trkpt lat="46.0359170" lon="5.6506510">
        <ele>894.4</ele>
        <time>2022-07-25T14:23:40Z</time>
      </trkpt>
      <trkpt lat="46.0358740" lon="5.6506270">
        <ele>894.6</ele>
        <time>2022-07-25T14:23:41Z</time>
      </trkpt>
      <trkpt lat="46.0358440" lon="5.6506070">
        <ele>894.7</ele>
        <time>2022-07-25T14:23:42Z</time>
      </trkpt>
      <trkpt lat="46.0358100" lon="5.6505740">
        <ele>894.8</ele>
        <time>2022-07-25T14:23:43Z</time>
      </trkpt>
      <trkpt lat="46.0357660" lon="5.6505550">
        <ele>895.0</ele>
        <time>2022-07-25T14:23:44Z</time>
      </trkpt>
      <trkpt lat="46.0357280" lon="5.6505340">
        <ele>895.2</ele>
        <time>2022-07-25T14:23:45Z</time>
      </trkpt>
      <trkpt lat="46.0357010" lon="5.6505040">
        <ele>895.4</ele>
        <time>2022-07-25T14:23:46Z</time>
      </trkpt>
      <trkpt lat="46.0356920" lon="5.6504980">
        <ele>895.5</ele>
        <time>2022-07-25T14:23:47Z</time>
      </trkpt>
      <trkpt lat="46.0356620" lon="5.6504650">
        <ele>895.8</ele>
        <time>2022-07-25T14:23:48Z</time>
      </trkpt>
      <trkpt lat="46.0356550" lon="5.6504520">
        <ele>895.9</ele>
        <time>2022-07-25T14:23:49Z</time>
      </trkpt>
      <trkpt lat="46.0356280" lon="5.6504210">
        <ele>896.1</ele>
        <time>2022-07-25T14:23:50Z</time>
      </trkpt>
      <trkpt lat="46.0356190" lon="5.6504090">
        <ele>896.2</ele>
        <time>2022-07-25T14:23:51Z</time>
      </trkpt>
      <trkpt lat="46.0356000" lon="5.6503770">
        <ele>896.4</ele>
        <time>2022-07-25T14:23:52Z</time>
      </trkpt>
      <trkpt lat="46.0355800" lon="5.6503440">
        <ele>896.6</ele>
        <time>2022-07-25T14:23:53Z</time>
      </trkpt>
      <trkpt lat="46.0355610" lon="5.6503030">
        <ele>896.9</ele>
        <time>2022-07-25T14:23:54Z</time>
      </trkpt>
      <trkpt lat="46.0355520" lon="5.6502860">
        <ele>897.0</ele>
        <time>2022-07-25T14:23:55Z</time>
      </trkpt>
      <trkpt lat="46.0355230" lon="5.6502590">
        <ele>897.3</ele>
        <time>2022-07-25T14:23:56Z</time>
      </trkpt>
      <trkpt lat="46.0355140" lon="5.6502500">
        <ele>897.3</ele>
        <time>2022-07-25T14:23:57Z</time>
      </trkpt>
      <trkpt lat="46.0354900" lon="5.6502100">
        <ele>897.6</ele>
        <time>2022-07-25T14:23:58Z</time>
      </trkpt>
      <trkpt lat="46.0354840" lon="5.6501940">
        <ele>897.7</ele>
        <time>2022-07-25T14:23:59Z</time>
      </trkpt>
      <trkpt lat="46.0354760" lon="5.6501410">
        <ele>898.0</ele>
        <time>2022-07-25T14:24:00Z</time>
      </trkpt>
      <trkpt lat="46.0354740" lon="5.6501260">
        <ele>898.1</ele>
        <time>2022-07-25T14:24:01Z</time>
      </trkpt>
      <trkpt lat="46.0354670" lon="5.6500770">
        <ele>898.4</ele>
        <time>2022-07-25T14:24:02Z</time>
      </trkpt>
      <trkpt lat="46.0354650" lon="5.6500600">
        <ele>898.5</ele>
        <time>2022-07-25T14:24:03Z</time>
      </trkpt>
      <trkpt lat="46.0354660" lon="5.6500080">
        <ele>898.8</ele>
        <time>2022-07-25T14:24:04Z</time>
      </trkpt>
      <trkpt lat="46.0354660" lon="5.6499910">
        <ele>898.9</ele>
        <time>2022-07-25T14:24:05Z</time>
      </trkpt>
      <trkpt lat="46.0354670" lon="5.6499450">
        <ele>899.1</ele>
        <time>2022-07-25T14:24:06Z</time>
      </trkpt>
      <trkpt lat="46.0354670" lon="5.6499310">
        <ele>899.2</ele>
        <time>2022-07-25T14:24:07Z</time>
      </trkpt>
      <trkpt lat="46.0354670" lon="5.6499140">
        <ele>899.3</ele>
        <time>2022-07-25T14:24:08Z</time>
      </trkpt>
      <trkpt lat="46.0354710" lon="5.6498900">
        <ele>899.4</ele>
        <time>2022-07-25T14:24:09Z</time>
      </trkpt>
      <trkpt lat="46.0354760" lon="5.6498460">
        <ele>899.7</ele>
        <time>2022-07-25T14:24:10Z</time>
      </trkpt>
      <trkpt lat="46.0354770" lon="5.6498310">
        <ele>899.7</ele>
        <time>2022-07-25T14:24:11Z</time>
      </trkpt>
      <trkpt lat="46.0354850" lon="5.6497900">
        <ele>900.0</ele>
        <time>2022-07-25T14:24:12Z</time>
      </trkpt>
      <trkpt lat="46.0354890" lon="5.6497760">
        <ele>900.0</ele>
        <time>2022-07-25T14:24:13Z</time>
      </trkpt>
      <trkpt lat="46.0354920" lon="5.6497370">
        <ele>900.3</ele>
        <time>2022-07-25T14:24:14Z</time>
      </trkpt>
      <trkpt lat="46.0354920" lon="5.6497220">
        <ele>900.3</ele>
        <time>2022-07-25T14:24:15Z</time>
      </trkpt>
      <trkpt lat="46.0354890" lon="5.6496790">
        <ele>900.5</ele>
        <time>2022-07-25T14:24:16Z</time>
      </trkpt>
      <trkpt lat="46.0354880" lon="5.6496670">
        <ele>900.6</ele>
        <time>2022-07-25T14:24:17Z</time>
      </trkpt>
      <trkpt lat="46.0354830" lon="5.6496230">
        <ele>900.8</ele>
        <time>2022-07-25T14:24:18Z</time>
      </trkpt>
      <trkpt lat="46.0354810" lon="5.6496100">
        <ele>900.9</ele>
        <time>2022-07-25T14:24:19Z</time>
      </trkpt>
      <trkpt lat="46.0354800" lon="5.6495700">
        <ele>901.1</ele>
        <time>2022-07-25T14:24:20Z</time>
      </trkpt>
      <trkpt lat="46.0354790" lon="5.6495560">
        <ele>901.1</ele>
        <time>2022-07-25T14:24:21Z</time>
      </trkpt>
      <trkpt lat="46.0354770" lon="5.6495280">
        <ele>901.3</ele>
        <time>2022-07-25T14:24:22Z</time>
      </trkpt>
      <trkpt lat="46.0354750" lon="5.6495040">
        <ele>901.4</ele>
        <time>2022-07-25T14:24:23Z</time>
      </trkpt>
      <trkpt lat="46.0354730" lon="5.6494780">
        <ele>901.5</ele>
        <time>2022-07-25T14:24:24Z</time>
      </trkpt>
      <trkpt lat="46.0354700" lon="5.6494560">
        <ele>901.6</ele>
        <time>2022-07-25T14:24:25Z</time>
      </trkpt>
      <trkpt lat="46.0354650" lon="5.6494090">
        <ele>901.8</ele>
        <time>2022-07-25T14:24:26Z</time>
      </trkpt>
      <trkpt lat="46.0354630" lon="5.6493920">
        <ele>901.9</ele>
        <time>2022-07-25T14:24:27Z</time>
      </trkpt>
      <trkpt lat="46.0354600" lon="5.6493440">
        <ele>902.1</ele>
        <time>2022-07-25T14:24:28Z</time>
      </trkpt>
      <trkpt lat="46.0354590" lon="5.6493260">
        <ele>902.1</ele>
        <time>2022-07-25T14:24:29Z</time>
      </trkpt>
      <trkpt lat="46.0354550" lon="5.6492970">
        <ele>902.2</ele>
        <time>2022-07-25T14:24:30Z</time>
      </trkpt>
      <trkpt lat="46.0354530" lon="5.6492770">
        <ele>902.2</ele>
        <time>2022-07-25T14:24:31Z</time>
      </trkpt>
      <trkpt lat="46.0354510" lon="5.6492530">
        <ele>902.3</ele>
        <time>2022-07-25T14:24:32Z</time>
      </trkpt>
      <trkpt lat="46.0354490" lon="5.6492280">
        <ele>902.3</ele>
        <time>2022-07-25T14:24:33Z</time>
      </trkpt>
      <trkpt lat="46.0354430" lon="5.6491870">
        <ele>902.5</ele>
        <time>2022-07-25T14:24:34Z</time>
      </trkpt>
      <trkpt lat="46.0354420" lon="5.6491750">
        <ele>902.5</ele>
        <time>2022-07-25T14:24:35Z</time>
      </trkpt>
      <trkpt lat="46.0354380" lon="5.6491470">
        <ele>902.6</ele>
        <time>2022-07-25T14:24:36Z</time>
      </trkpt>
      <trkpt lat="46.0354380" lon="5.6491280">
        <ele>902.6</ele>
        <time>2022-07-25T14:24:37Z</time>
      </trkpt>
      <trkpt lat="46.0354420" lon="5.6490830">
        <ele>902.7</ele>
        <time>2022-07-25T14:24:38Z</time>
      </trkpt>
      <trkpt lat="46.0354440" lon="5.6490680">
        <ele>902.8</ele>
        <time>2022-07-25T14:24:39Z</time>
      </trkpt>
      <trkpt lat="46.0354440" lon="5.6490260">
        <ele>902.9</ele>
        <time>2022-07-25T14:24:40Z</time>
      </trkpt>
      <trkpt lat="46.0354440" lon="5.6490120">
        <ele>902.9</ele>
        <time>2022-07-25T14:24:41Z</time>
      </trkpt>
      <trkpt lat="46.0354420" lon="5.6489710">
        <ele>903.1</ele>
        <time>2022-07-25T14:24:42Z</time>
      </trkpt>
      <trkpt lat="46.0354420" lon="5.6489560">
        <ele>903.1</ele>
        <time>2022-07-25T14:24:43Z</time>
      </trkpt>
      <trkpt lat="46.0354400" lon="5.6489090">
        <ele>903.2</ele>
        <time>2022-07-25T14:24:44Z</time>
      </trkpt>
      <trkpt lat="46.0354390" lon="5.6488940">
        <ele>903.3</ele>
        <time>2022-07-25T14:24:45Z</time>
      </trkpt>
      <trkpt lat="46.0354370" lon="5.6488700">
        <ele>903.3</ele>
        <time>2022-07-25T14:24:46Z</time>
      </trkpt>
      <trkpt lat="46.0354390" lon="5.6488500">
        <ele>903.4</ele>
        <time>2022-07-25T14:24:47Z</time>
      </trkpt>
      <trkpt lat="46.0354410" lon="5.6488140">
        <ele>903.5</ele>
        <time>2022-07-25T14:24:48Z</time>
      </trkpt>
      <trkpt lat="46.0354440" lon="5.6487980">
        <ele>903.6</ele>
        <time>2022-07-25T14:24:49Z</time>
      </trkpt>
      <trkpt lat="46.0354470" lon="5.6487500">
        <ele>903.7</ele>
        <time>2022-07-25T14:24:50Z</time>
      </trkpt>
      <trkpt lat="46.0354480" lon="5.6487340">
        <ele>903.8</ele>
        <time>2022-07-25T14:24:51Z</time>
      </trkpt>
      <trkpt lat="46.0354510" lon="5.6486860">
        <ele>903.9</ele>
        <time>2022-07-25T14:24:52Z</time>
      </trkpt>
      <trkpt lat="46.0354510" lon="5.6486710">
        <ele>904.0</ele>
        <time>2022-07-25T14:24:53Z</time>
      </trkpt>
      <trkpt lat="46.0354490" lon="5.6486260">
        <ele>904.2</ele>
        <time>2022-07-25T14:24:54Z</time>
      </trkpt>
      <trkpt lat="46.0354480" lon="5.6486110">
        <ele>904.2</ele>
        <time>2022-07-25T14:24:55Z</time>
      </trkpt>
      <trkpt lat="46.0354460" lon="5.6485860">
        <ele>904.3</ele>
        <time>2022-07-25T14:24:56Z</time>
      </trkpt>
      <trkpt lat="46.0354450" lon="5.6485450">
        <ele>904.5</ele>
        <time>2022-07-25T14:24:58Z</time>
      </trkpt>
      <trkpt lat="46.0354430" lon="5.6484970">
        <ele>904.7</ele>
        <time>2022-07-25T14:24:59Z</time>
      </trkpt>
      <trkpt lat="46.0354330" lon="5.6484520">
        <ele>904.9</ele>
        <time>2022-07-25T14:25:00Z</time>
      </trkpt>
      <trkpt lat="46.0354300" lon="5.6484360">
        <ele>905.0</ele>
        <time>2022-07-25T14:25:01Z</time>
      </trkpt>
      <trkpt lat="46.0354210" lon="5.6483670">
        <ele>905.3</ele>
        <time>2022-07-25T14:25:03Z</time>
      </trkpt>
      <trkpt lat="46.0354180" lon="5.6483430">
        <ele>905.4</ele>
        <time>2022-07-25T14:25:04Z</time>
      </trkpt>
      <trkpt lat="46.0354120" lon="5.6483200">
        <ele>905.5</ele>
        <time>2022-07-25T14:25:05Z</time>
      </trkpt>
      <trkpt lat="46.0353980" lon="5.6482520">
        <ele>905.9</ele>
        <time>2022-07-25T14:25:07Z</time>
      </trkpt>
      <trkpt lat="46.0353940" lon="5.6482320">
        <ele>906.0</ele>
        <time>2022-07-25T14:25:08Z</time>
      </trkpt>
      <trkpt lat="46.0353890" lon="5.6482120">
        <ele>906.1</ele>
        <time>2022-07-25T14:25:09Z</time>
      </trkpt>
      <trkpt lat="46.0353790" lon="5.6481660">
        <ele>906.3</ele>
        <time>2022-07-25T14:25:10Z</time>
      </trkpt>
      <trkpt lat="46.0353770" lon="5.6481510">
        <ele>906.4</ele>
        <time>2022-07-25T14:25:11Z</time>
      </trkpt>
      <trkpt lat="46.0353740" lon="5.6481050">
        <ele>906.6</ele>
        <time>2022-07-25T14:25:12Z</time>
      </trkpt>
      <trkpt lat="46.0353750" lon="5.6480890">
        <ele>906.7</ele>
        <time>2022-07-25T14:25:13Z</time>
      </trkpt>
      <trkpt lat="46.0353720" lon="5.6480430">
        <ele>907.0</ele>
        <time>2022-07-25T14:25:14Z</time>
      </trkpt>
      <trkpt lat="46.0353720" lon="5.6480290">
        <ele>907.0</ele>
        <time>2022-07-25T14:25:15Z</time>
      </trkpt>
      <trkpt lat="46.0353800" lon="5.6479880">
        <ele>907.3</ele>
        <time>2022-07-25T14:25:16Z</time>
      </trkpt>
      <trkpt lat="46.0353830" lon="5.6479740">
        <ele>907.3</ele>
        <time>2022-07-25T14:25:17Z</time>
      </trkpt>
      <trkpt lat="46.0353830" lon="5.6479250">
        <ele>907.6</ele>
        <time>2022-07-25T14:25:18Z</time>
      </trkpt>
      <trkpt lat="46.0353820" lon="5.6479080">
        <ele>907.7</ele>
        <time>2022-07-25T14:25:19Z</time>
      </trkpt>
      <trkpt lat="46.0353800" lon="5.6478850">
        <ele>907.8</ele>
        <time>2022-07-25T14:25:20Z</time>
      </trkpt>
      <trkpt lat="46.0353790" lon="5.6478660">
        <ele>907.9</ele>
        <time>2022-07-25T14:25:21Z</time>
      </trkpt>
      <trkpt lat="46.0353760" lon="5.6478410">
        <ele>908.0</ele>
        <time>2022-07-25T14:25:22Z</time>
      </trkpt>
      <trkpt lat="46.0353730" lon="5.6478170">
        <ele>908.2</ele>
        <time>2022-07-25T14:25:23Z</time>
      </trkpt>
      <trkpt lat="46.0353750" lon="5.6477770">
        <ele>908.4</ele>
        <time>2022-07-25T14:25:24Z</time>
      </trkpt>
      <trkpt lat="46.0353760" lon="5.6477630">
        <ele>908.5</ele>
        <time>2022-07-25T14:25:25Z</time>
      </trkpt>
      <trkpt lat="46.0353770" lon="5.6477450">
        <ele>908.6</ele>
        <time>2022-07-25T14:25:26Z</time>
      </trkpt>
      <trkpt lat="46.0353800" lon="5.6477030">
        <ele>908.8</ele>
        <time>2022-07-25T14:25:28Z</time>
      </trkpt>
      <trkpt lat="46.0353790" lon="5.6476580">
        <ele>909.1</ele>
        <time>2022-07-25T14:25:29Z</time>
      </trkpt>
      <trkpt lat="46.0353830" lon="5.6476170">
        <ele>909.3</ele>
        <time>2022-07-25T14:25:30Z</time>
      </trkpt>
      <trkpt lat="46.0353840" lon="5.6476040">
        <ele>909.4</ele>
        <time>2022-07-25T14:25:31Z</time>
      </trkpt>
      <trkpt lat="46.0353870" lon="5.6475800">
        <ele>909.5</ele>
        <time>2022-07-25T14:25:32Z</time>
      </trkpt>
      <trkpt lat="46.0353890" lon="5.6475530">
        <ele>909.7</ele>
        <time>2022-07-25T14:25:33Z</time>
      </trkpt>
      <trkpt lat="46.0353930" lon="5.6475330">
        <ele>909.8</ele>
        <time>2022-07-25T14:25:34Z</time>
      </trkpt>
      <trkpt lat="46.0353970" lon="5.6475110">
        <ele>909.9</ele>
        <time>2022-07-25T14:25:35Z</time>
      </trkpt>
      <trkpt lat="46.0354010" lon="5.6474920">
        <ele>910.0</ele>
        <time>2022-07-25T14:25:36Z</time>
      </trkpt>
      <trkpt lat="46.0354050" lon="5.6474690">
        <ele>910.2</ele>
        <time>2022-07-25T14:25:37Z</time>
      </trkpt>
      <trkpt lat="46.0354080" lon="5.6474470">
        <ele>910.3</ele>
        <time>2022-07-25T14:25:38Z</time>
      </trkpt>
      <trkpt lat="46.0354080" lon="5.6474190">
        <ele>910.5</ele>
        <time>2022-07-25T14:25:39Z</time>
      </trkpt>
      <trkpt lat="46.0354050" lon="5.6473940">
        <ele>910.6</ele>
        <time>2022-07-25T14:25:40Z</time>
      </trkpt>
      <trkpt lat="46.0354050" lon="5.6473870">
        <ele>910.6</ele>
        <time>2022-07-25T14:25:41Z</time>
      </trkpt>
      <trkpt lat="46.0354010" lon="5.6473690">
        <ele>910.8</ele>
        <time>2022-07-25T14:25:42Z</time>
      </trkpt>
      <trkpt lat="46.0354000" lon="5.6473480">
        <ele>910.9</ele>
        <time>2022-07-25T14:25:43Z</time>
      </trkpt>
      <trkpt lat="46.0353980" lon="5.6473230">
        <ele>911.0</ele>
        <time>2022-07-25T14:25:44Z</time>
      </trkpt>
      <trkpt lat="46.0353990" lon="5.6472820">
        <ele>911.3</ele>
        <time>2022-07-25T14:25:45Z</time>
      </trkpt>
      <trkpt lat="46.0354000" lon="5.6472680">
        <ele>911.4</ele>
        <time>2022-07-25T14:25:46Z</time>
      </trkpt>
      <trkpt lat="46.0354040" lon="5.6472020">
        <ele>911.8</ele>
        <time>2022-07-25T14:25:47Z</time>
      </trkpt>
      <trkpt lat="46.0354060" lon="5.6471690">
        <ele>912.0</ele>
        <time>2022-07-25T14:25:48Z</time>
      </trkpt>
      <trkpt lat="46.0354060" lon="5.6471260">
        <ele>912.3</ele>
        <time>2022-07-25T14:25:49Z</time>
      </trkpt>
      <trkpt lat="46.0354020" lon="5.6470730">
        <ele>912.6</ele>
        <time>2022-07-25T14:25:50Z</time>
      </trkpt>
      <trkpt lat="46.0354010" lon="5.6470570">
        <ele>912.7</ele>
        <time>2022-07-25T14:25:51Z</time>
      </trkpt>
      <trkpt lat="46.0353980" lon="5.6470150">
        <ele>913.0</ele>
        <time>2022-07-25T14:25:52Z</time>
      </trkpt>
      <trkpt lat="46.0353970" lon="5.6470020">
        <ele>913.1</ele>
        <time>2022-07-25T14:25:53Z</time>
      </trkpt>
      <trkpt lat="46.0353940" lon="5.6469610">
        <ele>913.4</ele>
        <time>2022-07-25T14:25:54Z</time>
      </trkpt>
      <trkpt lat="46.0353930" lon="5.6469440">
        <ele>913.5</ele>
        <time>2022-07-25T14:25:55Z</time>
      </trkpt>
      <trkpt lat="46.0353900" lon="5.6469000">
        <ele>913.9</ele>
        <time>2022-07-25T14:25:56Z</time>
      </trkpt>
      <trkpt lat="46.0353880" lon="5.6468880">
        <ele>914.0</ele>
        <time>2022-07-25T14:25:57Z</time>
      </trkpt>
      <trkpt lat="46.0353800" lon="5.6468450">
        <ele>914.3</ele>
        <time>2022-07-25T14:25:58Z</time>
      </trkpt>
      <trkpt lat="46.0353760" lon="5.6468290">
        <ele>914.4</ele>
        <time>2022-07-25T14:25:59Z</time>
      </trkpt>
      <trkpt lat="46.0353710" lon="5.6467750">
        <ele>914.8</ele>
        <time>2022-07-25T14:26:00Z</time>
      </trkpt>
      <trkpt lat="46.0353710" lon="5.6467590">
        <ele>914.9</ele>
        <time>2022-07-25T14:26:01Z</time>
      </trkpt>
      <trkpt lat="46.0353710" lon="5.6467330">
        <ele>915.1</ele>
        <time>2022-07-25T14:26:02Z</time>
      </trkpt>
      <trkpt lat="46.0353730" lon="5.6467100">
        <ele>915.3</ele>
        <time>2022-07-25T14:26:03Z</time>
      </trkpt>
      <trkpt lat="46.0353720" lon="5.6466650">
        <ele>915.7</ele>
        <time>2022-07-25T14:26:04Z</time>
      </trkpt>
      <trkpt lat="46.0353700" lon="5.6466490">
        <ele>915.8</ele>
        <time>2022-07-25T14:26:05Z</time>
      </trkpt>
      <trkpt lat="46.0353680" lon="5.6466220">
        <ele>916.0</ele>
        <time>2022-07-25T14:26:06Z</time>
      </trkpt>
      <trkpt lat="46.0353670" lon="5.6465990">
        <ele>916.2</ele>
        <time>2022-07-25T14:26:07Z</time>
      </trkpt>
      <trkpt lat="46.0353660" lon="5.6465740">
        <ele>916.4</ele>
        <time>2022-07-25T14:26:08Z</time>
      </trkpt>
      <trkpt lat="46.0353630" lon="5.6465480">
        <ele>916.6</ele>
        <time>2022-07-25T14:26:09Z</time>
      </trkpt>
      <trkpt lat="46.0353600" lon="5.6465060">
        <ele>917.0</ele>
        <time>2022-07-25T14:26:10Z</time>
      </trkpt>
      <trkpt lat="46.0353590" lon="5.6464930">
        <ele>917.1</ele>
        <time>2022-07-25T14:26:11Z</time>
      </trkpt>
      <trkpt lat="46.0353580" lon="5.6464680">
        <ele>917.3</ele>
        <time>2022-07-25T14:26:12Z</time>
      </trkpt>
      <trkpt lat="46.0353580" lon="5.6464430">
        <ele>917.5</ele>
        <time>2022-07-25T14:26:13Z</time>
      </trkpt>
      <trkpt lat="46.0353570" lon="5.6464020">
        <ele>917.9</ele>
        <time>2022-07-25T14:26:14Z</time>
      </trkpt>
      <trkpt lat="46.0353560" lon="5.6463880">
        <ele>918.0</ele>
        <time>2022-07-25T14:26:15Z</time>
      </trkpt>
      <trkpt lat="46.0353540" lon="5.6463670">
        <ele>918.2</ele>
        <time>2022-07-25T14:26:16Z</time>
      </trkpt>
      <trkpt lat="46.0353520" lon="5.6463440">
        <ele>918.4</ele>
        <time>2022-07-25T14:26:17Z</time>
      </trkpt>
      <trkpt lat="46.0353500" lon="5.6463210">
        <ele>918.6</ele>
        <time>2022-07-25T14:26:18Z</time>
      </trkpt>
      <trkpt lat="46.0353500" lon="5.6462990">
        <ele>918.8</ele>
        <time>2022-07-25T14:26:19Z</time>
      </trkpt>
      <trkpt lat="46.0353470" lon="5.6462770">
        <ele>919.0</ele>
        <time>2022-07-25T14:26:20Z</time>
      </trkpt>
      <trkpt lat="46.0353440" lon="5.6462490">
        <ele>919.2</ele>
        <time>2022-07-25T14:26:21Z</time>
      </trkpt>
      <trkpt lat="46.0353390" lon="5.6462230">
        <ele>919.5</ele>
        <time>2022-07-25T14:26:22Z</time>
      </trkpt>
      <trkpt lat="46.0353360" lon="5.6461990">
        <ele>919.7</ele>
        <time>2022-07-25T14:26:23Z</time>
      </trkpt>
      <trkpt lat="46.0353330" lon="5.6461560">
        <ele>920.1</ele>
        <time>2022-07-25T14:26:24Z</time>
      </trkpt>
      <trkpt lat="46.0353320" lon="5.6461410">
        <ele>920.2</ele>
        <time>2022-07-25T14:26:25Z</time>
      </trkpt>
      <trkpt lat="46.0353350" lon="5.6461130">
        <ele>920.5</ele>
        <time>2022-07-25T14:26:26Z</time>
      </trkpt>
      <trkpt lat="46.0353370" lon="5.6460940">
        <ele>920.6</ele>
        <time>2022-07-25T14:26:27Z</time>
      </trkpt>
      <trkpt lat="46.0353350" lon="5.6460520">
        <ele>921.0</ele>
        <time>2022-07-25T14:26:28Z</time>
      </trkpt>
      <trkpt lat="46.0353330" lon="5.6460370">
        <ele>921.1</ele>
        <time>2022-07-25T14:26:29Z</time>
      </trkpt>
      <trkpt lat="46.0353300" lon="5.6459960">
        <ele>921.5</ele>
        <time>2022-07-25T14:26:30Z</time>
      </trkpt>
      <trkpt lat="46.0353290" lon="5.6459800">
        <ele>921.6</ele>
        <time>2022-07-25T14:26:31Z</time>
      </trkpt>
      <trkpt lat="46.0353250" lon="5.6459410">
        <ele>921.9</ele>
        <time>2022-07-25T14:26:32Z</time>
      </trkpt>
      <trkpt lat="46.0353230" lon="5.6459240">
        <ele>922.1</ele>
        <time>2022-07-25T14:26:33Z</time>
      </trkpt>
      <trkpt lat="46.0353130" lon="5.6458750">
        <ele>922.5</ele>
        <time>2022-07-25T14:26:34Z</time>
      </trkpt>
      <trkpt lat="46.0353100" lon="5.6458590">
        <ele>922.7</ele>
        <time>2022-07-25T14:26:35Z</time>
      </trkpt>
      <trkpt lat="46.0353040" lon="5.6458360">
        <ele>922.9</ele>
        <time>2022-07-25T14:26:36Z</time>
      </trkpt>
      <trkpt lat="46.0352990" lon="5.6458100">
        <ele>923.1</ele>
        <time>2022-07-25T14:26:37Z</time>
      </trkpt>
      <trkpt lat="46.0352960" lon="5.6457870">
        <ele>923.3</ele>
        <time>2022-07-25T14:26:38Z</time>
      </trkpt>
      <trkpt lat="46.0352930" lon="5.6457670">
        <ele>923.4</ele>
        <time>2022-07-25T14:26:39Z</time>
      </trkpt>
      <trkpt lat="46.0352880" lon="5.6457430">
        <ele>923.6</ele>
        <time>2022-07-25T14:26:40Z</time>
      </trkpt>
      <trkpt lat="46.0352810" lon="5.6457200">
        <ele>923.8</ele>
        <time>2022-07-25T14:26:41Z</time>
      </trkpt>
      <trkpt lat="46.0352750" lon="5.6456960">
        <ele>924.0</ele>
        <time>2022-07-25T14:26:42Z</time>
      </trkpt>
      <trkpt lat="46.0352730" lon="5.6456700">
        <ele>924.2</ele>
        <time>2022-07-25T14:26:43Z</time>
      </trkpt>
      <trkpt lat="46.0352790" lon="5.6456480">
        <ele>924.3</ele>
        <time>2022-07-25T14:26:44Z</time>
      </trkpt>
      <trkpt lat="46.0352710" lon="5.6456230">
        <ele>924.5</ele>
        <time>2022-07-25T14:26:45Z</time>
      </trkpt>
      <trkpt lat="46.0352620" lon="5.6455970">
        <ele>924.7</ele>
        <time>2022-07-25T14:26:46Z</time>
      </trkpt>
      <trkpt lat="46.0352560" lon="5.6455780">
        <ele>924.9</ele>
        <time>2022-07-25T14:26:47Z</time>
      </trkpt>
      <trkpt lat="46.0352410" lon="5.6455450">
        <ele>925.2</ele>
        <time>2022-07-25T14:26:48Z</time>
      </trkpt>
      <trkpt lat="46.0352350" lon="5.6455340">
        <ele>925.3</ele>
        <time>2022-07-25T14:26:49Z</time>
      </trkpt>
      <trkpt lat="46.0352250" lon="5.6455160">
        <ele>925.4</ele>
        <time>2022-07-25T14:26:50Z</time>
      </trkpt>
      <trkpt lat="46.0352140" lon="5.6454980">
        <ele>925.6</ele>
        <time>2022-07-25T14:26:51Z</time>
      </trkpt>
      <trkpt lat="46.0352050" lon="5.6454800">
        <ele>925.7</ele>
        <time>2022-07-25T14:26:52Z</time>
      </trkpt>
      <trkpt lat="46.0351950" lon="5.6454620">
        <ele>925.9</ele>
        <time>2022-07-25T14:26:53Z</time>
      </trkpt>
      <trkpt lat="46.0351830" lon="5.6454430">
        <ele>926.1</ele>
        <time>2022-07-25T14:26:54Z</time>
      </trkpt>
      <trkpt lat="46.0351700" lon="5.6454270">
        <ele>926.2</ele>
        <time>2022-07-25T14:26:55Z</time>
      </trkpt>
      <trkpt lat="46.0351490" lon="5.6453990">
        <ele>926.5</ele>
        <time>2022-07-25T14:26:56Z</time>
      </trkpt>
      <trkpt lat="46.0351430" lon="5.6453890">
        <ele>926.5</ele>
        <time>2022-07-25T14:26:57Z</time>
      </trkpt>
      <trkpt lat="46.0351230" lon="5.6453630">
        <ele>926.8</ele>
        <time>2022-07-25T14:26:58Z</time>
      </trkpt>
      <trkpt lat="46.0351130" lon="5.6453530">
        <ele>926.9</ele>
        <time>2022-07-25T14:26:59Z</time>
      </trkpt>
      <trkpt lat="46.0350790" lon="5.6453320">
        <ele>927.1</ele>
        <time>2022-07-25T14:27:00Z</time>
      </trkpt>
      <trkpt lat="46.0350680" lon="5.6453270">
        <ele>927.2</ele>
        <time>2022-07-25T14:27:01Z</time>
      </trkpt>
      <trkpt lat="46.0350310" lon="5.6453150">
        <ele>927.4</ele>
        <time>2022-07-25T14:27:02Z</time>
      </trkpt>
      <trkpt lat="46.0350190" lon="5.6453100">
        <ele>927.5</ele>
        <time>2022-07-25T14:27:03Z</time>
      </trkpt>
      <trkpt lat="46.0349840" lon="5.6453080">
        <ele>927.7</ele>
        <time>2022-07-25T14:27:04Z</time>
      </trkpt>
      <trkpt lat="46.0349700" lon="5.6453080">
        <ele>927.7</ele>
        <time>2022-07-25T14:27:05Z</time>
      </trkpt>
      <trkpt lat="46.0349350" lon="5.6453130">
        <ele>927.9</ele>
        <time>2022-07-25T14:27:06Z</time>
      </trkpt>
      <trkpt lat="46.0349230" lon="5.6453150">
        <ele>927.9</ele>
        <time>2022-07-25T14:27:07Z</time>
      </trkpt>
      <trkpt lat="46.0348940" lon="5.6453170">
        <ele>928.0</ele>
        <time>2022-07-25T14:27:08Z</time>
      </trkpt>
      <trkpt lat="46.0348560" lon="5.6453290">
        <ele>928.1</ele>
        <time>2022-07-25T14:27:09Z</time>
      </trkpt>
      <trkpt lat="46.0348440" lon="5.6453340">
        <ele>928.1</ele>
        <time>2022-07-25T14:27:10Z</time>
      </trkpt>
      <trkpt lat="46.0348080" lon="5.6453510">
        <ele>928.2</ele>
        <time>2022-07-25T14:27:11Z</time>
      </trkpt>
      <trkpt lat="46.0347960" lon="5.6453560">
        <ele>928.2</ele>
        <time>2022-07-25T14:27:12Z</time>
      </trkpt>
      <trkpt lat="46.0347660" lon="5.6453700">
        <ele>928.2</ele>
        <time>2022-07-25T14:27:13Z</time>
      </trkpt>
      <trkpt lat="46.0347560" lon="5.6453740">
        <ele>928.2</ele>
        <time>2022-07-25T14:27:14Z</time>
      </trkpt>
      <trkpt lat="46.0347270" lon="5.6453930">
        <ele>928.3</ele>
        <time>2022-07-25T14:27:15Z</time>
      </trkpt>
      <trkpt lat="46.0347170" lon="5.6453980">
        <ele>928.3</ele>
        <time>2022-07-25T14:27:16Z</time>
      </trkpt>
      <trkpt lat="46.0346900" lon="5.6454100">
        <ele>928.3</ele>
        <time>2022-07-25T14:27:17Z</time>
      </trkpt>
      <trkpt lat="46.0346800" lon="5.6454140">
        <ele>928.3</ele>
        <time>2022-07-25T14:27:18Z</time>
      </trkpt>
      <trkpt lat="46.0346630" lon="5.6454170">
        <ele>928.3</ele>
        <time>2022-07-25T14:27:19Z</time>
      </trkpt>
      <trkpt lat="46.0346480" lon="5.6454190">
        <ele>928.4</ele>
        <time>2022-07-25T14:27:20Z</time>
      </trkpt>
      <trkpt lat="46.0346160" lon="5.6454380">
        <ele>928.4</ele>
        <time>2022-07-25T14:27:21Z</time>
      </trkpt>
      <trkpt lat="46.0346030" lon="5.6454460">
        <ele>928.4</ele>
        <time>2022-07-25T14:27:22Z</time>
      </trkpt>
      <trkpt lat="46.0345750" lon="5.6454610">
        <ele>928.4</ele>
        <time>2022-07-25T14:27:23Z</time>
      </trkpt>
      <trkpt lat="46.0345670" lon="5.6454650">
        <ele>928.4</ele>
        <time>2022-07-25T14:27:24Z</time>
      </trkpt>
      <trkpt lat="46.0345370" lon="5.6454730">
        <ele>928.5</ele>
        <time>2022-07-25T14:27:25Z</time>
      </trkpt>
      <trkpt lat="46.0345260" lon="5.6454770">
        <ele>928.5</ele>
        <time>2022-07-25T14:27:26Z</time>
      </trkpt>
      <trkpt lat="46.0344930" lon="5.6455000">
        <ele>928.5</ele>
        <time>2022-07-25T14:27:27Z</time>
      </trkpt>
      <trkpt lat="46.0344840" lon="5.6455070">
        <ele>928.5</ele>
        <time>2022-07-25T14:27:28Z</time>
      </trkpt>
      <trkpt lat="46.0344590" lon="5.6455230">
        <ele>928.6</ele>
        <time>2022-07-25T14:27:29Z</time>
      </trkpt>
      <trkpt lat="46.0344470" lon="5.6455280">
        <ele>928.6</ele>
        <time>2022-07-25T14:27:30Z</time>
      </trkpt>
      <trkpt lat="46.0344150" lon="5.6455400">
        <ele>928.6</ele>
        <time>2022-07-25T14:27:31Z</time>
      </trkpt>
      <trkpt lat="46.0344040" lon="5.6455460">
        <ele>928.6</ele>
        <time>2022-07-25T14:27:32Z</time>
      </trkpt>
      <trkpt lat="46.0343720" lon="5.6455560">
        <ele>928.7</ele>
        <time>2022-07-25T14:27:33Z</time>
      </trkpt>
      <trkpt lat="46.0343620" lon="5.6455590">
        <ele>928.7</ele>
        <time>2022-07-25T14:27:34Z</time>
      </trkpt>
      <trkpt lat="46.0343300" lon="5.6455680">
        <ele>928.8</ele>
        <time>2022-07-25T14:27:35Z</time>
      </trkpt>
      <trkpt lat="46.0343160" lon="5.6455720">
        <ele>928.9</ele>
        <time>2022-07-25T14:27:36Z</time>
      </trkpt>
      <trkpt lat="46.0342810" lon="5.6455930">
        <ele>929.0</ele>
        <time>2022-07-25T14:27:37Z</time>
      </trkpt>
      <trkpt lat="46.0342700" lon="5.6456020">
        <ele>929.0</ele>
        <time>2022-07-25T14:27:38Z</time>
      </trkpt>
      <trkpt lat="46.0342490" lon="5.6456270">
        <ele>929.1</ele>
        <time>2022-07-25T14:27:39Z</time>
      </trkpt>
      <trkpt lat="46.0342410" lon="5.6456370">
        <ele>929.2</ele>
        <time>2022-07-25T14:27:40Z</time>
      </trkpt>
      <trkpt lat="46.0342130" lon="5.6456600">
        <ele>929.3</ele>
        <time>2022-07-25T14:27:41Z</time>
      </trkpt>
      <trkpt lat="46.0342050" lon="5.6456650">
        <ele>929.3</ele>
        <time>2022-07-25T14:27:42Z</time>
      </trkpt>
      <trkpt lat="46.0341700" lon="5.6456790">
        <ele>929.5</ele>
        <time>2022-07-25T14:27:43Z</time>
      </trkpt>
      <trkpt lat="46.0341600" lon="5.6456840">
        <ele>929.6</ele>
        <time>2022-07-25T14:27:44Z</time>
      </trkpt>
      <trkpt lat="46.0341280" lon="5.6457030">
        <ele>929.8</ele>
        <time>2022-07-25T14:27:45Z</time>
      </trkpt>
      <trkpt lat="46.0341180" lon="5.6457100">
        <ele>929.8</ele>
        <time>2022-07-25T14:27:46Z</time>
      </trkpt>
      <trkpt lat="46.0340840" lon="5.6457320">
        <ele>930.1</ele>
        <time>2022-07-25T14:27:47Z</time>
      </trkpt>
      <trkpt lat="46.0340720" lon="5.6457400">
        <ele>930.2</ele>
        <time>2022-07-25T14:27:48Z</time>
      </trkpt>
      <trkpt lat="46.0340260" lon="5.6457620">
        <ele>930.5</ele>
        <time>2022-07-25T14:27:50Z</time>
      </trkpt>
      <trkpt lat="46.0340140" lon="5.6457680">
        <ele>930.6</ele>
        <time>2022-07-25T14:27:51Z</time>
      </trkpt>
      <trkpt lat="46.0340020" lon="5.6457750">
        <ele>930.7</ele>
        <time>2022-07-25T14:27:52Z</time>
      </trkpt>
      <trkpt lat="46.0339640" lon="5.6457970">
        <ele>931.1</ele>
        <time>2022-07-25T14:27:54Z</time>
      </trkpt>
      <trkpt lat="46.0339380" lon="5.6458230">
        <ele>931.4</ele>
        <time>2022-07-25T14:27:55Z</time>
      </trkpt>
      <trkpt lat="46.0339290" lon="5.6458310">
        <ele>931.5</ele>
        <time>2022-07-25T14:27:56Z</time>
      </trkpt>
      <trkpt lat="46.0339010" lon="5.6458440">
        <ele>931.7</ele>
        <time>2022-07-25T14:27:57Z</time>
      </trkpt>
      <trkpt lat="46.0338920" lon="5.6458470">
        <ele>931.8</ele>
        <time>2022-07-25T14:27:58Z</time>
      </trkpt>
      <trkpt lat="46.0338630" lon="5.6458620">
        <ele>932.1</ele>
        <time>2022-07-25T14:27:59Z</time>
      </trkpt>
      <trkpt lat="46.0338520" lon="5.6458700">
        <ele>932.3</ele>
        <time>2022-07-25T14:28:00Z</time>
      </trkpt>
      <trkpt lat="46.0338220" lon="5.6458830">
        <ele>932.6</ele>
        <time>2022-07-25T14:28:01Z</time>
      </trkpt>
      <trkpt lat="46.0338150" lon="5.6458860">
        <ele>932.7</ele>
        <time>2022-07-25T14:28:02Z</time>
      </trkpt>
      <trkpt lat="46.0337810" lon="5.6459040">
        <ele>933.0</ele>
        <time>2022-07-25T14:28:04Z</time>
      </trkpt>
      <trkpt lat="46.0337610" lon="5.6459150">
        <ele>933.2</ele>
        <time>2022-07-25T14:28:05Z</time>
      </trkpt>
      <trkpt lat="46.0337180" lon="5.6459340">
        <ele>933.7</ele>
        <time>2022-07-25T14:28:07Z</time>
      </trkpt>
      <trkpt lat="46.0337040" lon="5.6459460">
        <ele>933.9</ele>
        <time>2022-07-25T14:28:08Z</time>
      </trkpt>
      <trkpt lat="46.0336900" lon="5.6459570">
        <ele>934.0</ele>
        <time>2022-07-25T14:28:09Z</time>
      </trkpt>
      <trkpt lat="46.0336710" lon="5.6459690">
        <ele>934.2</ele>
        <time>2022-07-25T14:28:10Z</time>
      </trkpt>
      <trkpt lat="46.0336580" lon="5.6459770">
        <ele>934.4</ele>
        <time>2022-07-25T14:28:11Z</time>
      </trkpt>
      <trkpt lat="46.0336280" lon="5.6459840">
        <ele>934.7</ele>
        <time>2022-07-25T14:28:12Z</time>
      </trkpt>
      <trkpt lat="46.0336190" lon="5.6459860">
        <ele>934.8</ele>
        <time>2022-07-25T14:28:13Z</time>
      </trkpt>
      <trkpt lat="46.0335860" lon="5.6459980">
        <ele>935.1</ele>
        <time>2022-07-25T14:28:14Z</time>
      </trkpt>
      <trkpt lat="46.0335750" lon="5.6460010">
        <ele>935.2</ele>
        <time>2022-07-25T14:28:15Z</time>
      </trkpt>
      <trkpt lat="46.0335430" lon="5.6460110">
        <ele>935.5</ele>
        <time>2022-07-25T14:28:16Z</time>
      </trkpt>
      <trkpt lat="46.0335320" lon="5.6460130">
        <ele>935.6</ele>
        <time>2022-07-25T14:28:17Z</time>
      </trkpt>
      <trkpt lat="46.0335020" lon="5.6460110">
        <ele>935.9</ele>
        <time>2022-07-25T14:28:18Z</time>
      </trkpt>
      <trkpt lat="46.0334670" lon="5.6459950">
        <ele>936.2</ele>
        <time>2022-07-25T14:28:19Z</time>
      </trkpt>
      <trkpt lat="46.0334540" lon="5.6459910">
        <ele>936.4</ele>
        <time>2022-07-25T14:28:20Z</time>
      </trkpt>
      <trkpt lat="46.0334200" lon="5.6459860">
        <ele>936.6</ele>
        <time>2022-07-25T14:28:21Z</time>
      </trkpt>
      <trkpt lat="46.0334100" lon="5.6459850">
        <ele>936.7</ele>
        <time>2022-07-25T14:28:22Z</time>
      </trkpt>
      <trkpt lat="46.0333820" lon="5.6459850">
        <ele>937.0</ele>
        <time>2022-07-25T14:28:23Z</time>
      </trkpt>
      <trkpt lat="46.0333730" lon="5.6459840">
        <ele>937.0</ele>
        <time>2022-07-25T14:28:24Z</time>
      </trkpt>
      <trkpt lat="46.0333580" lon="5.6459840">
        <ele>937.1</ele>
        <time>2022-07-25T14:28:25Z</time>
      </trkpt>
      <trkpt lat="46.0333460" lon="5.6459810">
        <ele>937.2</ele>
        <time>2022-07-25T14:28:26Z</time>
      </trkpt>
      <trkpt lat="46.0333210" lon="5.6459860">
        <ele>937.4</ele>
        <time>2022-07-25T14:28:27Z</time>
      </trkpt>
      <trkpt lat="46.0333080" lon="5.6459930">
        <ele>937.5</ele>
        <time>2022-07-25T14:28:28Z</time>
      </trkpt>
      <trkpt lat="46.0332780" lon="5.6459990">
        <ele>937.8</ele>
        <time>2022-07-25T14:28:29Z</time>
      </trkpt>
      <trkpt lat="46.0332690" lon="5.6459990">
        <ele>937.8</ele>
        <time>2022-07-25T14:28:30Z</time>
      </trkpt>
      <trkpt lat="46.0332540" lon="5.6459990">
        <ele>937.9</ele>
        <time>2022-07-25T14:28:31Z</time>
      </trkpt>
      <trkpt lat="46.0332410" lon="5.6459940">
        <ele>938.0</ele>
        <time>2022-07-25T14:28:32Z</time>
      </trkpt>
      <trkpt lat="46.0332270" lon="5.6459920">
        <ele>938.1</ele>
        <time>2022-07-25T14:28:33Z</time>
      </trkpt>
      <trkpt lat="46.0332140" lon="5.6459880">
        <ele>938.2</ele>
        <time>2022-07-25T14:28:34Z</time>
      </trkpt>
      <trkpt lat="46.0331870" lon="5.6459900">
        <ele>938.4</ele>
        <time>2022-07-25T14:28:35Z</time>
      </trkpt>
      <trkpt lat="46.0331770" lon="5.6459900">
        <ele>938.5</ele>
        <time>2022-07-25T14:28:36Z</time>
      </trkpt>
      <trkpt lat="46.0331660" lon="5.6459900">
        <ele>938.6</ele>
        <time>2022-07-25T14:28:37Z</time>
      </trkpt>
      <trkpt lat="46.0331490" lon="5.6459880">
        <ele>938.7</ele>
        <time>2022-07-25T14:28:38Z</time>
      </trkpt>
      <trkpt lat="46.0331310" lon="5.6459860">
        <ele>938.8</ele>
        <time>2022-07-25T14:28:39Z</time>
      </trkpt>
      <trkpt lat="46.0331170" lon="5.6459840">
        <ele>938.9</ele>
        <time>2022-07-25T14:28:40Z</time>
      </trkpt>
      <trkpt lat="46.0331030" lon="5.6459820">
        <ele>939.0</ele>
        <time>2022-07-25T14:28:41Z</time>
      </trkpt>
      <trkpt lat="46.0330800" lon="5.6459800">
        <ele>939.2</ele>
        <time>2022-07-25T14:28:42Z</time>
      </trkpt>
      <trkpt lat="46.0330690" lon="5.6459790">
        <ele>939.3</ele>
        <time>2022-07-25T14:28:43Z</time>
      </trkpt>
      <trkpt lat="46.0330590" lon="5.6459790">
        <ele>939.4</ele>
        <time>2022-07-25T14:28:44Z</time>
      </trkpt>
      <trkpt lat="46.0330470" lon="5.6459770">
        <ele>939.4</ele>
        <time>2022-07-25T14:28:45Z</time>
      </trkpt>
      <trkpt lat="46.0330240" lon="5.6459770">
        <ele>939.6</ele>
        <time>2022-07-25T14:28:46Z</time>
      </trkpt>
      <trkpt lat="46.0330140" lon="5.6459760">
        <ele>939.7</ele>
        <time>2022-07-25T14:28:47Z</time>
      </trkpt>
      <trkpt lat="46.0329960" lon="5.6459730">
        <ele>939.8</ele>
        <time>2022-07-25T14:28:48Z</time>
      </trkpt>
      <trkpt lat="46.0329800" lon="5.6459650">
        <ele>940.0</ele>
        <time>2022-07-25T14:28:49Z</time>
      </trkpt>
      <trkpt lat="46.0329630" lon="5.6459590">
        <ele>940.1</ele>
        <time>2022-07-25T14:28:50Z</time>
      </trkpt>
      <trkpt lat="46.0329310" lon="5.6459530">
        <ele>940.4</ele>
        <time>2022-07-25T14:28:51Z</time>
      </trkpt>
      <trkpt lat="46.0329180" lon="5.6459530">
        <ele>940.5</ele>
        <time>2022-07-25T14:28:52Z</time>
      </trkpt>
      <trkpt lat="46.0328860" lon="5.6459530">
        <ele>940.8</ele>
        <time>2022-07-25T14:28:53Z</time>
      </trkpt>
      <trkpt lat="46.0328760" lon="5.6459540">
        <ele>940.9</ele>
        <time>2022-07-25T14:28:54Z</time>
      </trkpt>
      <trkpt lat="46.0328470" lon="5.6459540">
        <ele>941.2</ele>
        <time>2022-07-25T14:28:55Z</time>
      </trkpt>
      <trkpt lat="46.0328370" lon="5.6459540">
        <ele>941.3</ele>
        <time>2022-07-25T14:28:56Z</time>
      </trkpt>
      <trkpt lat="46.0328190" lon="5.6459530">
        <ele>941.5</ele>
        <time>2022-07-25T14:28:57Z</time>
      </trkpt>
      <trkpt lat="46.0328020" lon="5.6459540">
        <ele>941.6</ele>
        <time>2022-07-25T14:28:58Z</time>
      </trkpt>
      <trkpt lat="46.0327740" lon="5.6459570">
        <ele>941.9</ele>
        <time>2022-07-25T14:28:59Z</time>
      </trkpt>
      <trkpt lat="46.0327650" lon="5.6459580">
        <ele>942.0</ele>
        <time>2022-07-25T14:29:00Z</time>
      </trkpt>
      <trkpt lat="46.0327380" lon="5.6459650">
        <ele>942.3</ele>
        <time>2022-07-25T14:29:01Z</time>
      </trkpt>
      <trkpt lat="46.0327290" lon="5.6459670">
        <ele>942.4</ele>
        <time>2022-07-25T14:29:02Z</time>
      </trkpt>
      <trkpt lat="46.0326960" lon="5.6459640">
        <ele>942.8</ele>
        <time>2022-07-25T14:29:03Z</time>
      </trkpt>
      <trkpt lat="46.0326850" lon="5.6459600">
        <ele>942.9</ele>
        <time>2022-07-25T14:29:04Z</time>
      </trkpt>
      <trkpt lat="46.0326570" lon="5.6459500">
        <ele>943.2</ele>
        <time>2022-07-25T14:29:05Z</time>
      </trkpt>
      <trkpt lat="46.0326470" lon="5.6459470">
        <ele>943.4</ele>
        <time>2022-07-25T14:29:06Z</time>
      </trkpt>
      <trkpt lat="46.0326190" lon="5.6459390">
        <ele>943.7</ele>
        <time>2022-07-25T14:29:07Z</time>
      </trkpt>
      <trkpt lat="46.0326110" lon="5.6459360">
        <ele>943.7</ele>
        <time>2022-07-25T14:29:08Z</time>
      </trkpt>
      <trkpt lat="46.0325940" lon="5.6459280">
        <ele>943.9</ele>
        <time>2022-07-25T14:29:09Z</time>
      </trkpt>
      <trkpt lat="46.0325790" lon="5.6459170">
        <ele>944.1</ele>
        <time>2022-07-25T14:29:10Z</time>
      </trkpt>
      <trkpt lat="46.0325590" lon="5.6459000">
        <ele>944.3</ele>
        <time>2022-07-25T14:29:11Z</time>
      </trkpt>
      <trkpt lat="46.0325520" lon="5.6458940">
        <ele>944.4</ele>
        <time>2022-07-25T14:29:12Z</time>
      </trkpt>
      <trkpt lat="46.0325440" lon="5.6458880">
        <ele>944.5</ele>
        <time>2022-07-25T14:29:13Z</time>
      </trkpt>
      <trkpt lat="46.0325280" lon="5.6458780">
        <ele>944.7</ele>
        <time>2022-07-25T14:29:14Z</time>
      </trkpt>
      <trkpt lat="46.0325130" lon="5.6458720">
        <ele>944.8</ele>
        <time>2022-07-25T14:29:15Z</time>
      </trkpt>
      <trkpt lat="46.0324870" lon="5.6458650">
        <ele>945.1</ele>
        <time>2022-07-25T14:29:16Z</time>
      </trkpt>
      <trkpt lat="46.0324760" lon="5.6458640">
        <ele>945.2</ele>
        <time>2022-07-25T14:29:17Z</time>
      </trkpt>
      <trkpt lat="46.0324560" lon="5.6458590">
        <ele>945.4</ele>
        <time>2022-07-25T14:29:18Z</time>
      </trkpt>
      <trkpt lat="46.0324420" lon="5.6458520">
        <ele>945.5</ele>
        <time>2022-07-25T14:29:19Z</time>
      </trkpt>
      <trkpt lat="46.0324290" lon="5.6458410">
        <ele>945.7</ele>
        <time>2022-07-25T14:29:20Z</time>
      </trkpt>
      <trkpt lat="46.0324150" lon="5.6458290">
        <ele>945.8</ele>
        <time>2022-07-25T14:29:21Z</time>
      </trkpt>
      <trkpt lat="46.0324000" lon="5.6458120">
        <ele>946.0</ele>
        <time>2022-07-25T14:29:22Z</time>
      </trkpt>
      <trkpt lat="46.0323700" lon="5.6457920">
        <ele>946.3</ele>
        <time>2022-07-25T14:29:24Z</time>
      </trkpt>
      <trkpt lat="46.0323530" lon="5.6457790">
        <ele>946.4</ele>
        <time>2022-07-25T14:29:25Z</time>
      </trkpt>
      <trkpt lat="46.0323420" lon="5.6457650">
        <ele>946.5</ele>
        <time>2022-07-25T14:29:26Z</time>
      </trkpt>
      <trkpt lat="46.0323300" lon="5.6457420">
        <ele>946.7</ele>
        <time>2022-07-25T14:29:27Z</time>
      </trkpt>
      <trkpt lat="46.0323210" lon="5.6457270">
        <ele>946.8</ele>
        <time>2022-07-25T14:29:28Z</time>
      </trkpt>
      <trkpt lat="46.0323130" lon="5.6457100">
        <ele>946.9</ele>
        <time>2022-07-25T14:29:29Z</time>
      </trkpt>
      <trkpt lat="46.0323050" lon="5.6456950">
        <ele>947.0</ele>
        <time>2022-07-25T14:29:30Z</time>
      </trkpt>
      <trkpt lat="46.0322920" lon="5.6456850">
        <ele>947.1</ele>
        <time>2022-07-25T14:29:31Z</time>
      </trkpt>
      <trkpt lat="46.0322800" lon="5.6456730">
        <ele>947.2</ele>
        <time>2022-07-25T14:29:32Z</time>
      </trkpt>
      <trkpt lat="46.0322690" lon="5.6456590">
        <ele>947.3</ele>
        <time>2022-07-25T14:29:33Z</time>
      </trkpt>
      <trkpt lat="46.0322580" lon="5.6456470">
        <ele>947.4</ele>
        <time>2022-07-25T14:29:34Z</time>
      </trkpt>
      <trkpt lat="46.0322410" lon="5.6456320">
        <ele>947.5</ele>
        <time>2022-07-25T14:29:35Z</time>
      </trkpt>
      <trkpt lat="46.0322300" lon="5.6456220">
        <ele>947.6</ele>
        <time>2022-07-25T14:29:36Z</time>
      </trkpt>
      <trkpt lat="46.0322160" lon="5.6456080">
        <ele>947.7</ele>
        <time>2022-07-25T14:29:37Z</time>
      </trkpt>
      <trkpt lat="46.0322010" lon="5.6455920">
        <ele>947.9</ele>
        <time>2022-07-25T14:29:38Z</time>
      </trkpt>
      <trkpt lat="46.0321730" lon="5.6455670">
        <ele>948.1</ele>
        <time>2022-07-25T14:29:39Z</time>
      </trkpt>
      <trkpt lat="46.0321660" lon="5.6455600">
        <ele>948.2</ele>
        <time>2022-07-25T14:29:40Z</time>
      </trkpt>
      <trkpt lat="46.0321520" lon="5.6455490">
        <ele>948.3</ele>
        <time>2022-07-25T14:29:41Z</time>
      </trkpt>
      <trkpt lat="46.0321360" lon="5.6455350">
        <ele>948.5</ele>
        <time>2022-07-25T14:29:42Z</time>
      </trkpt>
      <trkpt lat="46.0321210" lon="5.6455200">
        <ele>948.6</ele>
        <time>2022-07-25T14:29:43Z</time>
      </trkpt>
      <trkpt lat="46.0321110" lon="5.6455070">
        <ele>948.7</ele>
        <time>2022-07-25T14:29:44Z</time>
      </trkpt>
      <trkpt lat="46.0321010" lon="5.6454910">
        <ele>948.8</ele>
        <time>2022-07-25T14:29:45Z</time>
      </trkpt>
      <trkpt lat="46.0320920" lon="5.6454770">
        <ele>948.9</ele>
        <time>2022-07-25T14:29:46Z</time>
      </trkpt>
      <trkpt lat="46.0320830" lon="5.6454630">
        <ele>949.0</ele>
        <time>2022-07-25T14:29:47Z</time>
      </trkpt>
      <trkpt lat="46.0320730" lon="5.6454480">
        <ele>949.1</ele>
        <time>2022-07-25T14:29:48Z</time>
      </trkpt>
      <trkpt lat="46.0320620" lon="5.6454340">
        <ele>949.3</ele>
        <time>2022-07-25T14:29:49Z</time>
      </trkpt>
      <trkpt lat="46.0320510" lon="5.6454200">
        <ele>949.4</ele>
        <time>2022-07-25T14:29:50Z</time>
      </trkpt>
      <trkpt lat="46.0320330" lon="5.6454000">
        <ele>949.6</ele>
        <time>2022-07-25T14:29:51Z</time>
      </trkpt>
      <trkpt lat="46.0320260" lon="5.6453920">
        <ele>949.6</ele>
        <time>2022-07-25T14:29:52Z</time>
      </trkpt>
      <trkpt lat="46.0320190" lon="5.6453850">
        <ele>949.7</ele>
        <time>2022-07-25T14:29:53Z</time>
      </trkpt>
      <trkpt lat="46.0320080" lon="5.6453700">
        <ele>949.8</ele>
        <time>2022-07-25T14:29:54Z</time>
      </trkpt>
      <trkpt lat="46.0319980" lon="5.6453570">
        <ele>949.9</ele>
        <time>2022-07-25T14:29:55Z</time>
      </trkpt>
      <trkpt lat="46.0319780" lon="5.6453320">
        <ele>950.1</ele>
        <time>2022-07-25T14:29:56Z</time>
      </trkpt>
      <trkpt lat="46.0319700" lon="5.6453230">
        <ele>950.2</ele>
        <time>2022-07-25T14:29:57Z</time>
      </trkpt>
      <trkpt lat="46.0319540" lon="5.6453020">
        <ele>950.4</ele>
        <time>2022-07-25T14:29:58Z</time>
      </trkpt>
      <trkpt lat="46.0319470" lon="5.6452900">
        <ele>950.5</ele>
        <time>2022-07-25T14:29:59Z</time>
      </trkpt>
      <trkpt lat="46.0319280" lon="5.6452610">
        <ele>950.7</ele>
        <time>2022-07-25T14:30:00Z</time>
      </trkpt>
      <trkpt lat="46.0319220" lon="5.6452520">
        <ele>950.7</ele>
        <time>2022-07-25T14:30:01Z</time>
      </trkpt>
      <trkpt lat="46.0318990" lon="5.6452220">
        <ele>951.0</ele>
        <time>2022-07-25T14:30:02Z</time>
      </trkpt>
      <trkpt lat="46.0318940" lon="5.6452170">
        <ele>951.1</ele>
        <time>2022-07-25T14:30:03Z</time>
      </trkpt>
      <trkpt lat="46.0318820" lon="5.6452030">
        <ele>951.2</ele>
        <time>2022-07-25T14:30:04Z</time>
      </trkpt>
      <trkpt lat="46.0318670" lon="5.6451880">
        <ele>951.4</ele>
        <time>2022-07-25T14:30:05Z</time>
      </trkpt>
      <trkpt lat="46.0318530" lon="5.6451730">
        <ele>951.5</ele>
        <time>2022-07-25T14:30:06Z</time>
      </trkpt>
      <trkpt lat="46.0318440" lon="5.6451640">
        <ele>951.6</ele>
        <time>2022-07-25T14:30:07Z</time>
      </trkpt>
      <trkpt lat="46.0318210" lon="5.6451400">
        <ele>951.8</ele>
        <time>2022-07-25T14:30:08Z</time>
      </trkpt>
      <trkpt lat="46.0318140" lon="5.6451330">
        <ele>951.9</ele>
        <time>2022-07-25T14:30:09Z</time>
      </trkpt>
      <trkpt lat="46.0318060" lon="5.6451190">
        <ele>952.0</ele>
        <time>2022-07-25T14:30:10Z</time>
      </trkpt>
      <trkpt lat="46.0317930" lon="5.6450980">
        <ele>952.2</ele>
        <time>2022-07-25T14:30:11Z</time>
      </trkpt>
      <trkpt lat="46.0317740" lon="5.6450680">
        <ele>952.4</ele>
        <time>2022-07-25T14:30:12Z</time>
      </trkpt>
      <trkpt lat="46.0317670" lon="5.6450590">
        <ele>952.5</ele>
        <time>2022-07-25T14:30:13Z</time>
      </trkpt>
      <trkpt lat="46.0317470" lon="5.6450320">
        <ele>952.7</ele>
        <time>2022-07-25T14:30:14Z</time>
      </trkpt>
      <trkpt lat="46.0317410" lon="5.6450220">
        <ele>952.8</ele>
        <time>2022-07-25T14:30:15Z</time>
      </trkpt>
      <trkpt lat="46.0317340" lon="5.6450120">
        <ele>952.9</ele>
        <time>2022-07-25T14:30:16Z</time>
      </trkpt>
      <trkpt lat="46.0317180" lon="5.6449960">
        <ele>953.1</ele>
        <time>2022-07-25T14:30:17Z</time>
      </trkpt>
      <trkpt lat="46.0317040" lon="5.6449830">
        <ele>953.2</ele>
        <time>2022-07-25T14:30:18Z</time>
      </trkpt>
      <trkpt lat="46.0316930" lon="5.6449700">
        <ele>953.4</ele>
        <time>2022-07-25T14:30:19Z</time>
      </trkpt>
      <trkpt lat="46.0316660" lon="5.6449450">
        <ele>953.7</ele>
        <time>2022-07-25T14:30:20Z</time>
      </trkpt>
      <trkpt lat="46.0316560" lon="5.6449360">
        <ele>953.8</ele>
        <time>2022-07-25T14:30:21Z</time>
      </trkpt>
      <trkpt lat="46.0316280" lon="5.6449160">
        <ele>954.1</ele>
        <time>2022-07-25T14:30:22Z</time>
      </trkpt>
      <trkpt lat="46.0316220" lon="5.6449110">
        <ele>954.1</ele>
        <time>2022-07-25T14:30:23Z</time>
      </trkpt>
      <trkpt lat="46.0316060" lon="5.6449000">
        <ele>954.3</ele>
        <time>2022-07-25T14:30:24Z</time>
      </trkpt>
      <trkpt lat="46.0315920" lon="5.6448930">
        <ele>954.4</ele>
        <time>2022-07-25T14:30:25Z</time>
      </trkpt>
      <trkpt lat="46.0315710" lon="5.6448830">
        <ele>954.6</ele>
        <time>2022-07-25T14:30:26Z</time>
      </trkpt>
      <trkpt lat="46.0315600" lon="5.6448770">
        <ele>954.7</ele>
        <time>2022-07-25T14:30:27Z</time>
      </trkpt>
      <trkpt lat="46.0315490" lon="5.6448720">
        <ele>954.8</ele>
        <time>2022-07-25T14:30:28Z</time>
      </trkpt>
      <trkpt lat="46.0315350" lon="5.6448630">
        <ele>955.0</ele>
        <time>2022-07-25T14:30:29Z</time>
      </trkpt>
      <trkpt lat="46.0315190" lon="5.6448570">
        <ele>955.1</ele>
        <time>2022-07-25T14:30:30Z</time>
      </trkpt>
      <trkpt lat="46.0314980" lon="5.6448450">
        <ele>955.3</ele>
        <time>2022-07-25T14:30:31Z</time>
      </trkpt>
      <trkpt lat="46.0314900" lon="5.6448410">
        <ele>955.4</ele>
        <time>2022-07-25T14:30:32Z</time>
      </trkpt>
      <trkpt lat="46.0314820" lon="5.6448370">
        <ele>955.5</ele>
        <time>2022-07-25T14:30:33Z</time>
      </trkpt>
      <trkpt lat="46.0314750" lon="5.6448320">
        <ele>955.5</ele>
        <time>2022-07-25T14:30:34Z</time>
      </trkpt>
      <trkpt lat="46.0314690" lon="5.6448280">
        <ele>955.6</ele>
        <time>2022-07-25T14:30:35Z</time>
      </trkpt>
      <trkpt lat="46.0314560" lon="5.6448160">
        <ele>955.7</ele>
        <time>2022-07-25T14:30:36Z</time>
      </trkpt>
      <trkpt lat="46.0314430" lon="5.6448030">
        <ele>955.9</ele>
        <time>2022-07-25T14:30:37Z</time>
      </trkpt>
      <trkpt lat="46.0314270" lon="5.6447950">
        <ele>956.1</ele>
        <time>2022-07-25T14:30:38Z</time>
      </trkpt>
      <trkpt lat="46.0314140" lon="5.6447870">
        <ele>956.2</ele>
        <time>2022-07-25T14:30:39Z</time>
      </trkpt>
      <trkpt lat="46.0313940" lon="5.6447760">
        <ele>956.4</ele>
        <time>2022-07-25T14:30:40Z</time>
      </trkpt>
      <trkpt lat="46.0313780" lon="5.6447670">
        <ele>956.5</ele>
        <time>2022-07-25T14:30:41Z</time>
      </trkpt>
      <trkpt lat="46.0313670" lon="5.6447630">
        <ele>956.6</ele>
        <time>2022-07-25T14:30:42Z</time>
      </trkpt>
      <trkpt lat="46.0313450" lon="5.6447590">
        <ele>956.9</ele>
        <time>2022-07-25T14:30:43Z</time>
      </trkpt>
      <trkpt lat="46.0313330" lon="5.6447590">
        <ele>957.0</ele>
        <time>2022-07-25T14:30:44Z</time>
      </trkpt>
      <trkpt lat="46.0313210" lon="5.6447580">
        <ele>957.1</ele>
        <time>2022-07-25T14:30:45Z</time>
      </trkpt>
      <trkpt lat="46.0312930" lon="5.6447530">
        <ele>957.3</ele>
        <time>2022-07-25T14:30:46Z</time>
      </trkpt>
      <trkpt lat="46.0312840" lon="5.6447510">
        <ele>957.4</ele>
        <time>2022-07-25T14:30:47Z</time>
      </trkpt>
      <trkpt lat="46.0312660" lon="5.6447440">
        <ele>957.6</ele>
        <time>2022-07-25T14:30:48Z</time>
      </trkpt>
      <trkpt lat="46.0312520" lon="5.6447360">
        <ele>957.8</ele>
        <time>2022-07-25T14:30:49Z</time>
      </trkpt>
      <trkpt lat="46.0312230" lon="5.6447270">
        <ele>958.0</ele>
        <time>2022-07-25T14:30:50Z</time>
      </trkpt>
      <trkpt lat="46.0312130" lon="5.6447260">
        <ele>958.1</ele>
        <time>2022-07-25T14:30:51Z</time>
      </trkpt>
      <trkpt lat="46.0312040" lon="5.6447240">
        <ele>958.2</ele>
        <time>2022-07-25T14:30:52Z</time>
      </trkpt>
      <trkpt lat="46.0311920" lon="5.6447210">
        <ele>958.3</ele>
        <time>2022-07-25T14:30:53Z</time>
      </trkpt>
      <trkpt lat="46.0311840" lon="5.6447180">
        <ele>958.4</ele>
        <time>2022-07-25T14:30:54Z</time>
      </trkpt>
      <trkpt lat="46.0311730" lon="5.6447150">
        <ele>958.5</ele>
        <time>2022-07-25T14:30:55Z</time>
      </trkpt>
      <trkpt lat="46.0311570" lon="5.6447100">
        <ele>958.7</ele>
        <time>2022-07-25T14:30:56Z</time>
      </trkpt>
      <trkpt lat="46.0311380" lon="5.6447010">
        <ele>958.9</ele>
        <time>2022-07-25T14:30:57Z</time>
      </trkpt>
      <trkpt lat="46.0311260" lon="5.6446930">
        <ele>959.0</ele>
        <time>2022-07-25T14:30:58Z</time>
      </trkpt>
      <trkpt lat="46.0311110" lon="5.6446840">
        <ele>959.2</ele>
        <time>2022-07-25T14:30:59Z</time>
      </trkpt>
      <trkpt lat="46.0311000" lon="5.6446760">
        <ele>959.3</ele>
        <time>2022-07-25T14:31:00Z</time>
      </trkpt>
      <trkpt lat="46.0310850" lon="5.6446680">
        <ele>959.4</ele>
        <time>2022-07-25T14:31:01Z</time>
      </trkpt>
      <trkpt lat="46.0310710" lon="5.6446580">
        <ele>959.6</ele>
        <time>2022-07-25T14:31:02Z</time>
      </trkpt>
      <trkpt lat="46.0310530" lon="5.6446530">
        <ele>959.7</ele>
        <time>2022-07-25T14:31:03Z</time>
      </trkpt>
      <trkpt lat="46.0310400" lon="5.6446470">
        <ele>959.9</ele>
        <time>2022-07-25T14:31:04Z</time>
      </trkpt>
      <trkpt lat="46.0310320" lon="5.6446360">
        <ele>960.0</ele>
        <time>2022-07-25T14:31:05Z</time>
      </trkpt>
      <trkpt lat="46.0310230" lon="5.6446240">
        <ele>960.1</ele>
        <time>2022-07-25T14:31:06Z</time>
      </trkpt>
      <trkpt lat="46.0310170" lon="5.6446110">
        <ele>960.2</ele>
        <time>2022-07-25T14:31:07Z</time>
      </trkpt>
      <trkpt lat="46.0310130" lon="5.6445960">
        <ele>960.3</ele>
        <time>2022-07-25T14:31:08Z</time>
      </trkpt>
      <trkpt lat="46.0310100" lon="5.6445760">
        <ele>960.4</ele>
        <time>2022-07-25T14:31:09Z</time>
      </trkpt>
      <trkpt lat="46.0310070" lon="5.6445650">
        <ele>960.5</ele>
        <time>2022-07-25T14:31:10Z</time>
      </trkpt>
      <trkpt lat="46.0309810" lon="5.6445390">
        <ele>960.7</ele>
        <time>2022-07-25T14:31:11Z</time>
      </trkpt>
      <trkpt lat="46.0309710" lon="5.6445330">
        <ele>960.8</ele>
        <time>2022-07-25T14:31:12Z</time>
      </trkpt>
      <trkpt lat="46.0309450" lon="5.6445290">
        <ele>961.1</ele>
        <time>2022-07-25T14:31:13Z</time>
      </trkpt>
      <trkpt lat="46.0309350" lon="5.6445290">
        <ele>961.1</ele>
        <time>2022-07-25T14:31:14Z</time>
      </trkpt>
      <trkpt lat="46.0309060" lon="5.6445240">
        <ele>961.4</ele>
        <time>2022-07-25T14:31:15Z</time>
      </trkpt>
      <trkpt lat="46.0308970" lon="5.6445230">
        <ele>961.5</ele>
        <time>2022-07-25T14:31:16Z</time>
      </trkpt>
      <trkpt lat="46.0308690" lon="5.6445190">
        <ele>961.7</ele>
        <time>2022-07-25T14:31:17Z</time>
      </trkpt>
      <trkpt lat="46.0308600" lon="5.6445170">
        <ele>961.8</ele>
        <time>2022-07-25T14:31:18Z</time>
      </trkpt>
      <trkpt lat="46.0308480" lon="5.6445120">
        <ele>961.9</ele>
        <time>2022-07-25T14:31:19Z</time>
      </trkpt>
      <trkpt lat="46.0308320" lon="5.6445050">
        <ele>962.0</ele>
        <time>2022-07-25T14:31:20Z</time>
      </trkpt>
      <trkpt lat="46.0308170" lon="5.6444960">
        <ele>962.2</ele>
        <time>2022-07-25T14:31:21Z</time>
      </trkpt>
      <trkpt lat="46.0308040" lon="5.6444900">
        <ele>962.3</ele>
        <time>2022-07-25T14:31:22Z</time>
      </trkpt>
      <trkpt lat="46.0307860" lon="5.6444850">
        <ele>962.4</ele>
        <time>2022-07-25T14:31:23Z</time>
      </trkpt>
      <trkpt lat="46.0307690" lon="5.6444810">
        <ele>962.6</ele>
        <time>2022-07-25T14:31:24Z</time>
      </trkpt>
      <trkpt lat="46.0307540" lon="5.6444760">
        <ele>962.7</ele>
        <time>2022-07-25T14:31:25Z</time>
      </trkpt>
      <trkpt lat="46.0307380" lon="5.6444690">
        <ele>962.9</ele>
        <time>2022-07-25T14:31:26Z</time>
      </trkpt>
      <trkpt lat="46.0307210" lon="5.6444620">
        <ele>963.0</ele>
        <time>2022-07-25T14:31:27Z</time>
      </trkpt>
      <trkpt lat="46.0307060" lon="5.6444550">
        <ele>963.2</ele>
        <time>2022-07-25T14:31:28Z</time>
      </trkpt>
      <trkpt lat="46.0306900" lon="5.6444470">
        <ele>963.3</ele>
        <time>2022-07-25T14:31:29Z</time>
      </trkpt>
      <trkpt lat="46.0306730" lon="5.6444370">
        <ele>963.5</ele>
        <time>2022-07-25T14:31:30Z</time>
      </trkpt>
      <trkpt lat="46.0306480" lon="5.6444200">
        <ele>963.7</ele>
        <time>2022-07-25T14:31:31Z</time>
      </trkpt>
      <trkpt lat="46.0306390" lon="5.6444130">
        <ele>963.8</ele>
        <time>2022-07-25T14:31:32Z</time>
      </trkpt>
      <trkpt lat="46.0306160" lon="5.6443970">
        <ele>964.1</ele>
        <time>2022-07-25T14:31:33Z</time>
      </trkpt>
      <trkpt lat="46.0306070" lon="5.6443900">
        <ele>964.2</ele>
        <time>2022-07-25T14:31:34Z</time>
      </trkpt>
      <trkpt lat="46.0305900" lon="5.6443780">
        <ele>964.3</ele>
        <time>2022-07-25T14:31:35Z</time>
      </trkpt>
      <trkpt lat="46.0305780" lon="5.6443700">
        <ele>964.5</ele>
        <time>2022-07-25T14:31:36Z</time>
      </trkpt>
      <trkpt lat="46.0305630" lon="5.6443580">
        <ele>964.6</ele>
        <time>2022-07-25T14:31:37Z</time>
      </trkpt>
      <trkpt lat="46.0305550" lon="5.6443500">
        <ele>964.7</ele>
        <time>2022-07-25T14:31:38Z</time>
      </trkpt>
      <trkpt lat="46.0305460" lon="5.6443420">
        <ele>964.8</ele>
        <time>2022-07-25T14:31:39Z</time>
      </trkpt>
      <trkpt lat="46.0305360" lon="5.6443330">
        <ele>964.9</ele>
        <time>2022-07-25T14:31:40Z</time>
      </trkpt>
      <trkpt lat="46.0305210" lon="5.6443190">
        <ele>965.1</ele>
        <time>2022-07-25T14:31:41Z</time>
      </trkpt>
      <trkpt lat="46.0304940" lon="5.6442880">
        <ele>965.4</ele>
        <time>2022-07-25T14:31:42Z</time>
      </trkpt>
      <trkpt lat="46.0304860" lon="5.6442780">
        <ele>965.5</ele>
        <time>2022-07-25T14:31:43Z</time>
      </trkpt>
      <trkpt lat="46.0304620" lon="5.6442420">
        <ele>965.9</ele>
        <time>2022-07-25T14:31:44Z</time>
      </trkpt>
      <trkpt lat="46.0304570" lon="5.6442340">
        <ele>966.0</ele>
        <time>2022-07-25T14:31:45Z</time>
      </trkpt>
      <trkpt lat="46.0304490" lon="5.6442170">
        <ele>966.1</ele>
        <time>2022-07-25T14:31:46Z</time>
      </trkpt>
      <trkpt lat="46.0304380" lon="5.6441960">
        <ele>966.3</ele>
        <time>2022-07-25T14:31:47Z</time>
      </trkpt>
      <trkpt lat="46.0304270" lon="5.6441760">
        <ele>966.5</ele>
        <time>2022-07-25T14:31:48Z</time>
      </trkpt>
      <trkpt lat="46.0304160" lon="5.6441570">
        <ele>966.7</ele>
        <time>2022-07-25T14:31:49Z</time>
      </trkpt>
      <trkpt lat="46.0304040" lon="5.6441400">
        <ele>966.8</ele>
        <time>2022-07-25T14:31:50Z</time>
      </trkpt>
      <trkpt lat="46.0303960" lon="5.6441270">
        <ele>967.0</ele>
        <time>2022-07-25T14:31:51Z</time>
      </trkpt>
      <trkpt lat="46.0303810" lon="5.6441040">
        <ele>967.2</ele>
        <time>2022-07-25T14:31:52Z</time>
      </trkpt>
      <trkpt lat="46.0303760" lon="5.6440950">
        <ele>967.3</ele>
        <time>2022-07-25T14:31:53Z</time>
      </trkpt>
      <trkpt lat="46.0303710" lon="5.6440860">
        <ele>967.4</ele>
        <time>2022-07-25T14:31:54Z</time>
      </trkpt>
      <trkpt lat="46.0303690" lon="5.6440560">
        <ele>967.6</ele>
        <time>2022-07-25T14:31:55Z</time>
      </trkpt>
      <trkpt lat="46.0303670" lon="5.6440430">
        <ele>967.7</ele>
        <time>2022-07-25T14:31:56Z</time>
      </trkpt>
      <trkpt lat="46.0303660" lon="5.6440300">
        <ele>967.8</ele>
        <time>2022-07-25T14:31:57Z</time>
      </trkpt>
      <trkpt lat="46.0303630" lon="5.6440040">
        <ele>968.0</ele>
        <time>2022-07-25T14:31:58Z</time>
      </trkpt>
      <trkpt lat="46.0303620" lon="5.6439790">
        <ele>968.2</ele>
        <time>2022-07-25T14:31:59Z</time>
      </trkpt>
      <trkpt lat="46.0303640" lon="5.6439540">
        <ele>968.4</ele>
        <time>2022-07-25T14:32:00Z</time>
      </trkpt>
      <trkpt lat="46.0303670" lon="5.6439370">
        <ele>968.6</ele>
        <time>2022-07-25T14:32:01Z</time>
      </trkpt>
      <trkpt lat="46.0303720" lon="5.6439040">
        <ele>968.8</ele>
        <time>2022-07-25T14:32:02Z</time>
      </trkpt>
      <trkpt lat="46.0303740" lon="5.6438900">
        <ele>968.9</ele>
        <time>2022-07-25T14:32:03Z</time>
      </trkpt>
      <trkpt lat="46.0303760" lon="5.6438750">
        <ele>969.0</ele>
        <time>2022-07-25T14:32:04Z</time>
      </trkpt>
      <trkpt lat="46.0303780" lon="5.6438530">
        <ele>969.2</ele>
        <time>2022-07-25T14:32:05Z</time>
      </trkpt>
      <trkpt lat="46.0303790" lon="5.6438430">
        <ele>969.2</ele>
        <time>2022-07-25T14:32:06Z</time>
      </trkpt>
      <trkpt lat="46.0303840" lon="5.6438260">
        <ele>969.4</ele>
        <time>2022-07-25T14:32:07Z</time>
      </trkpt>
      <trkpt lat="46.0303870" lon="5.6438170">
        <ele>969.5</ele>
        <time>2022-07-25T14:32:08Z</time>
      </trkpt>
      <trkpt lat="46.0303930" lon="5.6438050">
        <ele>969.6</ele>
        <time>2022-07-25T14:32:09Z</time>
      </trkpt>
      <trkpt lat="46.0304010" lon="5.6437910">
        <ele>969.7</ele>
        <time>2022-07-25T14:32:10Z</time>
      </trkpt>
      <trkpt lat="46.0304110" lon="5.6437720">
        <ele>969.9</ele>
        <time>2022-07-25T14:32:11Z</time>
      </trkpt>
      <trkpt lat="46.0304150" lon="5.6437620">
        <ele>970.0</ele>
        <time>2022-07-25T14:32:12Z</time>
      </trkpt>
      <trkpt lat="46.0304180" lon="5.6437520">
        <ele>970.1</ele>
        <time>2022-07-25T14:32:13Z</time>
      </trkpt>
      <trkpt lat="46.0304220" lon="5.6437410">
        <ele>970.2</ele>
        <time>2022-07-25T14:32:14Z</time>
      </trkpt>
      <trkpt lat="46.0304260" lon="5.6437220">
        <ele>970.4</ele>
        <time>2022-07-25T14:32:15Z</time>
      </trkpt>
      <trkpt lat="46.0304310" lon="5.6437010">
        <ele>970.6</ele>
        <time>2022-07-25T14:32:16Z</time>
      </trkpt>
      <trkpt lat="46.0304390" lon="5.6436830">
        <ele>970.7</ele>
        <time>2022-07-25T14:32:17Z</time>
      </trkpt>
      <trkpt lat="46.0304480" lon="5.6436630">
        <ele>970.9</ele>
        <time>2022-07-25T14:32:18Z</time>
      </trkpt>
      <trkpt lat="46.0304650" lon="5.6436290">
        <ele>971.3</ele>
        <time>2022-07-25T14:32:19Z</time>
      </trkpt>
      <trkpt lat="46.0304700" lon="5.6436190">
        <ele>971.4</ele>
        <time>2022-07-25T14:32:20Z</time>
      </trkpt>
      <trkpt lat="46.0304800" lon="5.6436050">
        <ele>971.6</ele>
        <time>2022-07-25T14:32:21Z</time>
      </trkpt>
      <trkpt lat="46.0304890" lon="5.6435900">
        <ele>971.7</ele>
        <time>2022-07-25T14:32:22Z</time>
      </trkpt>
      <trkpt lat="46.0305020" lon="5.6435690">
        <ele>971.9</ele>
        <time>2022-07-25T14:32:23Z</time>
      </trkpt>
      <trkpt lat="46.0305070" lon="5.6435580">
        <ele>972.0</ele>
        <time>2022-07-25T14:32:24Z</time>
      </trkpt>
      <trkpt lat="46.0305120" lon="5.6435470">
        <ele>972.2</ele>
        <time>2022-07-25T14:32:25Z</time>
      </trkpt>
      <trkpt lat="46.0305190" lon="5.6435360">
        <ele>972.3</ele>
        <time>2022-07-25T14:32:26Z</time>
      </trkpt>
      <trkpt lat="46.0305280" lon="5.6435220">
        <ele>972.4</ele>
        <time>2022-07-25T14:32:27Z</time>
      </trkpt>
      <trkpt lat="46.0305360" lon="5.6435110">
        <ele>972.5</ele>
        <time>2022-07-25T14:32:28Z</time>
      </trkpt>
      <trkpt lat="46.0305470" lon="5.6434970">
        <ele>972.7</ele>
        <time>2022-07-25T14:32:29Z</time>
      </trkpt>
      <trkpt lat="46.0305580" lon="5.6434860">
        <ele>972.9</ele>
        <time>2022-07-25T14:32:30Z</time>
      </trkpt>
      <trkpt lat="46.0305730" lon="5.6434740">
        <ele>973.1</ele>
        <time>2022-07-25T14:32:31Z</time>
      </trkpt>
      <trkpt lat="46.0305840" lon="5.6434630">
        <ele>973.2</ele>
        <time>2022-07-25T14:32:32Z</time>
      </trkpt>
      <trkpt lat="46.0306010" lon="5.6434420">
        <ele>973.5</ele>
        <time>2022-07-25T14:32:33Z</time>
      </trkpt>
      <trkpt lat="46.0306080" lon="5.6434330">
        <ele>973.6</ele>
        <time>2022-07-25T14:32:34Z</time>
      </trkpt>
      <trkpt lat="46.0306150" lon="5.6434250">
        <ele>973.7</ele>
        <time>2022-07-25T14:32:35Z</time>
      </trkpt>
      <trkpt lat="46.0306220" lon="5.6434170">
        <ele>973.7</ele>
        <time>2022-07-25T14:32:36Z</time>
      </trkpt>
      <trkpt lat="46.0306290" lon="5.6434110">
        <ele>973.8</ele>
        <time>2022-07-25T14:32:37Z</time>
      </trkpt>
      <trkpt lat="46.0306420" lon="5.6434030">
        <ele>974.0</ele>
        <time>2022-07-25T14:32:38Z</time>
      </trkpt>
      <trkpt lat="46.0306540" lon="5.6433920">
        <ele>974.1</ele>
        <time>2022-07-25T14:32:39Z</time>
      </trkpt>
      <trkpt lat="46.0306680" lon="5.6433860">
        <ele>974.3</ele>
        <time>2022-07-25T14:32:40Z</time>
      </trkpt>
      <trkpt lat="46.0306820" lon="5.6433800">
        <ele>974.5</ele>
        <time>2022-07-25T14:32:41Z</time>
      </trkpt>
      <trkpt lat="46.0306990" lon="5.6433710">
        <ele>974.6</ele>
        <time>2022-07-25T14:32:42Z</time>
      </trkpt>
      <trkpt lat="46.0307130" lon="5.6433650">
        <ele>974.8</ele>
        <time>2022-07-25T14:32:43Z</time>
      </trkpt>
      <trkpt lat="46.0307290" lon="5.6433590">
        <ele>975.0</ele>
        <time>2022-07-25T14:32:44Z</time>
      </trkpt>
      <trkpt lat="46.0307430" lon="5.6433540">
        <ele>975.1</ele>
        <time>2022-07-25T14:32:45Z</time>
      </trkpt>
      <trkpt lat="46.0307590" lon="5.6433480">
        <ele>975.3</ele>
        <time>2022-07-25T14:32:46Z</time>
      </trkpt>
      <trkpt lat="46.0307700" lon="5.6433420">
        <ele>975.4</ele>
        <time>2022-07-25T14:32:47Z</time>
      </trkpt>
      <trkpt lat="46.0307860" lon="5.6433320">
        <ele>975.6</ele>
        <time>2022-07-25T14:32:48Z</time>
      </trkpt>
      <trkpt lat="46.0308100" lon="5.6433160">
        <ele>975.8</ele>
        <time>2022-07-25T14:32:49Z</time>
      </trkpt>
      <trkpt lat="46.0308190" lon="5.6433110">
        <ele>975.9</ele>
        <time>2022-07-25T14:32:50Z</time>
      </trkpt>
      <trkpt lat="46.0308370" lon="5.6433020">
        <ele>976.1</ele>
        <time>2022-07-25T14:32:51Z</time>
      </trkpt>
      <trkpt lat="46.0308460" lon="5.6432960">
        <ele>976.2</ele>
        <time>2022-07-25T14:32:52Z</time>
      </trkpt>
      <trkpt lat="46.0308630" lon="5.6432860">
        <ele>976.4</ele>
        <time>2022-07-25T14:32:53Z</time>
      </trkpt>
      <trkpt lat="46.0308780" lon="5.6432780">
        <ele>976.5</ele>
        <time>2022-07-25T14:32:54Z</time>
      </trkpt>
      <trkpt lat="46.0308930" lon="5.6432680">
        <ele>976.7</ele>
        <time>2022-07-25T14:32:55Z</time>
      </trkpt>
      <trkpt lat="46.0308970" lon="5.6432620">
        <ele>976.7</ele>
        <time>2022-07-25T14:32:56Z</time>
      </trkpt>
      <trkpt lat="46.0309060" lon="5.6432490">
        <ele>976.8</ele>
        <time>2022-07-25T14:32:57Z</time>
      </trkpt>
      <trkpt lat="46.0309130" lon="5.6432380">
        <ele>976.9</ele>
        <time>2022-07-25T14:32:58Z</time>
      </trkpt>
      <trkpt lat="46.0309250" lon="5.6432250">
        <ele>977.0</ele>
        <time>2022-07-25T14:32:59Z</time>
      </trkpt>
      <trkpt lat="46.0309330" lon="5.6432170">
        <ele>977.1</ele>
        <time>2022-07-25T14:33:00Z</time>
      </trkpt>
      <trkpt lat="46.0309460" lon="5.6432080">
        <ele>977.2</ele>
        <time>2022-07-25T14:33:01Z</time>
      </trkpt>
      <trkpt lat="46.0309600" lon="5.6432030">
        <ele>977.3</ele>
        <time>2022-07-25T14:33:02Z</time>
      </trkpt>
      <trkpt lat="46.0309760" lon="5.6431940">
        <ele>977.5</ele>
        <time>2022-07-25T14:33:03Z</time>
      </trkpt>
      <trkpt lat="46.0309920" lon="5.6431890">
        <ele>977.6</ele>
        <time>2022-07-25T14:33:04Z</time>
      </trkpt>
      <trkpt lat="46.0310080" lon="5.6431840">
        <ele>977.7</ele>
        <time>2022-07-25T14:33:05Z</time>
      </trkpt>
      <trkpt lat="46.0310250" lon="5.6431780">
        <ele>977.9</ele>
        <time>2022-07-25T14:33:06Z</time>
      </trkpt>
      <trkpt lat="46.0310530" lon="5.6431680">
        <ele>978.1</ele>
        <time>2022-07-25T14:33:07Z</time>
      </trkpt>
      <trkpt lat="46.0310630" lon="5.6431660">
        <ele>978.1</ele>
        <time>2022-07-25T14:33:08Z</time>
      </trkpt>
      <trkpt lat="46.0310910" lon="5.6431610">
        <ele>978.4</ele>
        <time>2022-07-25T14:33:09Z</time>
      </trkpt>
      <trkpt lat="46.0310990" lon="5.6431590">
        <ele>978.4</ele>
        <time>2022-07-25T14:33:10Z</time>
      </trkpt>
      <trkpt lat="46.0311100" lon="5.6431590">
        <ele>978.5</ele>
        <time>2022-07-25T14:33:11Z</time>
      </trkpt>
      <trkpt lat="46.0311190" lon="5.6431570">
        <ele>978.5</ele>
        <time>2022-07-25T14:33:12Z</time>
      </trkpt>
      <trkpt lat="46.0311300" lon="5.6431520">
        <ele>978.6</ele>
        <time>2022-07-25T14:33:13Z</time>
      </trkpt>
      <trkpt lat="46.0311380" lon="5.6431480">
        <ele>978.7</ele>
        <time>2022-07-25T14:33:14Z</time>
      </trkpt>
      <trkpt lat="46.0311490" lon="5.6431400">
        <ele>978.8</ele>
        <time>2022-07-25T14:33:15Z</time>
      </trkpt>
      <trkpt lat="46.0311600" lon="5.6431300">
        <ele>978.8</ele>
        <time>2022-07-25T14:33:16Z</time>
      </trkpt>
      <trkpt lat="46.0311830" lon="5.6431100">
        <ele>979.0</ele>
        <time>2022-07-25T14:33:17Z</time>
      </trkpt>
      <trkpt lat="46.0311920" lon="5.6431030">
        <ele>979.1</ele>
        <time>2022-07-25T14:33:18Z</time>
      </trkpt>
      <trkpt lat="46.0312130" lon="5.6430880">
        <ele>979.2</ele>
        <time>2022-07-25T14:33:19Z</time>
      </trkpt>
      <trkpt lat="46.0312230" lon="5.6430810">
        <ele>979.3</ele>
        <time>2022-07-25T14:33:20Z</time>
      </trkpt>
      <trkpt lat="46.0312330" lon="5.6430730">
        <ele>979.4</ele>
        <time>2022-07-25T14:33:21Z</time>
      </trkpt>
      <trkpt lat="46.0312460" lon="5.6430630">
        <ele>979.6</ele>
        <time>2022-07-25T14:33:22Z</time>
      </trkpt>
      <trkpt lat="46.0312610" lon="5.6430550">
        <ele>979.7</ele>
        <time>2022-07-25T14:33:23Z</time>
      </trkpt>
      <trkpt lat="46.0312960" lon="5.6430430">
        <ele>980.0</ele>
        <time>2022-07-25T14:33:24Z</time>
      </trkpt>
      <trkpt lat="46.0313080" lon="5.6430390">
        <ele>980.1</ele>
        <time>2022-07-25T14:33:25Z</time>
      </trkpt>
      <trkpt lat="46.0313340" lon="5.6430320">
        <ele>980.4</ele>
        <time>2022-07-25T14:33:26Z</time>
      </trkpt>
      <trkpt lat="46.0313430" lon="5.6430290">
        <ele>980.5</ele>
        <time>2022-07-25T14:33:27Z</time>
      </trkpt>
      <trkpt lat="46.0313750" lon="5.6430120">
        <ele>980.8</ele>
        <time>2022-07-25T14:33:28Z</time>
      </trkpt>
      <trkpt lat="46.0313840" lon="5.6430060">
        <ele>980.9</ele>
        <time>2022-07-25T14:33:29Z</time>
      </trkpt>
      <trkpt lat="46.0314130" lon="5.6429950">
        <ele>981.1</ele>
        <time>2022-07-25T14:33:30Z</time>
      </trkpt>
      <trkpt lat="46.0314230" lon="5.6429920">
        <ele>981.2</ele>
        <time>2022-07-25T14:33:31Z</time>
      </trkpt>
      <trkpt lat="46.0314360" lon="5.6429870">
        <ele>981.4</ele>
        <time>2022-07-25T14:33:32Z</time>
      </trkpt>
      <trkpt lat="46.0314540" lon="5.6429760">
        <ele>981.6</ele>
        <time>2022-07-25T14:33:33Z</time>
      </trkpt>
      <trkpt lat="46.0314690" lon="5.6429610">
        <ele>981.7</ele>
        <time>2022-07-25T14:33:34Z</time>
      </trkpt>
      <trkpt lat="46.0314840" lon="5.6429500">
        <ele>981.9</ele>
        <time>2022-07-25T14:33:35Z</time>
      </trkpt>
      <trkpt lat="46.0314990" lon="5.6429370">
        <ele>982.1</ele>
        <time>2022-07-25T14:33:36Z</time>
      </trkpt>
      <trkpt lat="46.0315160" lon="5.6429260">
        <ele>982.3</ele>
        <time>2022-07-25T14:33:37Z</time>
      </trkpt>
      <trkpt lat="46.0315290" lon="5.6429180">
        <ele>982.4</ele>
        <time>2022-07-25T14:33:38Z</time>
      </trkpt>
      <trkpt lat="46.0315430" lon="5.6429120">
        <ele>982.6</ele>
        <time>2022-07-25T14:33:39Z</time>
      </trkpt>
      <trkpt lat="46.0315560" lon="5.6429160">
        <ele>982.7</ele>
        <time>2022-07-25T14:33:40Z</time>
      </trkpt>
      <trkpt lat="46.0315710" lon="5.6429160">
        <ele>982.9</ele>
        <time>2022-07-25T14:33:41Z</time>
      </trkpt>
      <trkpt lat="46.0315820" lon="5.6429140">
        <ele>983.0</ele>
        <time>2022-07-25T14:33:42Z</time>
      </trkpt>
      <trkpt lat="46.0316000" lon="5.6429040">
        <ele>983.2</ele>
        <time>2022-07-25T14:33:43Z</time>
      </trkpt>
      <trkpt lat="46.0316150" lon="5.6428940">
        <ele>983.4</ele>
        <time>2022-07-25T14:33:44Z</time>
      </trkpt>
      <trkpt lat="46.0316260" lon="5.6428820">
        <ele>983.6</ele>
        <time>2022-07-25T14:33:45Z</time>
      </trkpt>
      <trkpt lat="46.0316370" lon="5.6428700">
        <ele>983.7</ele>
        <time>2022-07-25T14:33:46Z</time>
      </trkpt>
      <trkpt lat="46.0316500" lon="5.6428610">
        <ele>983.9</ele>
        <time>2022-07-25T14:33:47Z</time>
      </trkpt>
      <trkpt lat="46.0316570" lon="5.6428560">
        <ele>984.0</ele>
        <time>2022-07-25T14:33:48Z</time>
      </trkpt>
      <trkpt lat="46.0316630" lon="5.6428530">
        <ele>984.1</ele>
        <time>2022-07-25T14:33:49Z</time>
      </trkpt>
      <trkpt lat="46.0316680" lon="5.6428510">
        <ele>984.1</ele>
        <time>2022-07-25T14:33:50Z</time>
      </trkpt>
      <trkpt lat="46.0316700" lon="5.6428500">
        <ele>984.1</ele>
        <time>2022-07-25T14:33:51Z</time>
      </trkpt>
      <trkpt lat="46.0316770" lon="5.6428480">
        <ele>984.2</ele>
        <time>2022-07-25T14:33:52Z</time>
      </trkpt>
      <trkpt lat="46.0316910" lon="5.6428430">
        <ele>984.4</ele>
        <time>2022-07-25T14:33:53Z</time>
      </trkpt>
      <trkpt lat="46.0316990" lon="5.6428400">
        <ele>984.5</ele>
        <time>2022-07-25T14:33:54Z</time>
      </trkpt>
      <trkpt lat="46.0317080" lon="5.6428370">
        <ele>984.6</ele>
        <time>2022-07-25T14:33:55Z</time>
      </trkpt>
      <trkpt lat="46.0317160" lon="5.6428340">
        <ele>984.7</ele>
        <time>2022-07-25T14:33:56Z</time>
      </trkpt>
      <trkpt lat="46.0317340" lon="5.6428360">
        <ele>984.9</ele>
        <time>2022-07-25T14:33:57Z</time>
      </trkpt>
      <trkpt lat="46.0317440" lon="5.6428360">
        <ele>985.0</ele>
        <time>2022-07-25T14:33:58Z</time>
      </trkpt>
      <trkpt lat="46.0317600" lon="5.6428340">
        <ele>985.2</ele>
        <time>2022-07-25T14:33:59Z</time>
      </trkpt>
      <trkpt lat="46.0317770" lon="5.6428290">
        <ele>985.4</ele>
        <time>2022-07-25T14:34:00Z</time>
      </trkpt>
      <trkpt lat="46.0318030" lon="5.6428090">
        <ele>985.7</ele>
        <time>2022-07-25T14:34:01Z</time>
      </trkpt>
      <trkpt lat="46.0318120" lon="5.6428020">
        <ele>985.9</ele>
        <time>2022-07-25T14:34:02Z</time>
      </trkpt>
      <trkpt lat="46.0318380" lon="5.6427880">
        <ele>986.2</ele>
        <time>2022-07-25T14:34:03Z</time>
      </trkpt>
      <trkpt lat="46.0318470" lon="5.6427830">
        <ele>986.3</ele>
        <time>2022-07-25T14:34:04Z</time>
      </trkpt>
      <trkpt lat="46.0318590" lon="5.6427730">
        <ele>986.4</ele>
        <time>2022-07-25T14:34:05Z</time>
      </trkpt>
      <trkpt lat="46.0318670" lon="5.6427670">
        <ele>986.5</ele>
        <time>2022-07-25T14:34:06Z</time>
      </trkpt>
      <trkpt lat="46.0318770" lon="5.6427590">
        <ele>986.7</ele>
        <time>2022-07-25T14:34:07Z</time>
      </trkpt>
      <trkpt lat="46.0318940" lon="5.6427450">
        <ele>986.9</ele>
        <time>2022-07-25T14:34:08Z</time>
      </trkpt>
      <trkpt lat="46.0319020" lon="5.6427390">
        <ele>987.0</ele>
        <time>2022-07-25T14:34:09Z</time>
      </trkpt>
      <trkpt lat="46.0319100" lon="5.6427330">
        <ele>987.1</ele>
        <time>2022-07-25T14:34:10Z</time>
      </trkpt>
      <trkpt lat="46.0319180" lon="5.6427260">
        <ele>987.2</ele>
        <time>2022-07-25T14:34:11Z</time>
      </trkpt>
      <trkpt lat="46.0319250" lon="5.6427220">
        <ele>987.3</ele>
        <time>2022-07-25T14:34:12Z</time>
      </trkpt>
      <trkpt lat="46.0319380" lon="5.6427160">
        <ele>987.5</ele>
        <time>2022-07-25T14:34:13Z</time>
      </trkpt>
      <trkpt lat="46.0319530" lon="5.6427110">
        <ele>987.6</ele>
        <time>2022-07-25T14:34:14Z</time>
      </trkpt>
      <trkpt lat="46.0319660" lon="5.6427050">
        <ele>987.8</ele>
        <time>2022-07-25T14:34:15Z</time>
      </trkpt>
      <trkpt lat="46.0319880" lon="5.6426920">
        <ele>988.1</ele>
        <time>2022-07-25T14:34:16Z</time>
      </trkpt>
      <trkpt lat="46.0319980" lon="5.6426860">
        <ele>988.2</ele>
        <time>2022-07-25T14:34:17Z</time>
      </trkpt>
      <trkpt lat="46.0320090" lon="5.6426790">
        <ele>988.3</ele>
        <time>2022-07-25T14:34:18Z</time>
      </trkpt>
      <trkpt lat="46.0320300" lon="5.6426610">
        <ele>988.6</ele>
        <time>2022-07-25T14:34:19Z</time>
      </trkpt>
      <trkpt lat="46.0320380" lon="5.6426550">
        <ele>988.7</ele>
        <time>2022-07-25T14:34:20Z</time>
      </trkpt>
      <trkpt lat="46.0320460" lon="5.6426480">
        <ele>988.8</ele>
        <time>2022-07-25T14:34:21Z</time>
      </trkpt>
      <trkpt lat="46.0320600" lon="5.6426360">
        <ele>989.0</ele>
        <time>2022-07-25T14:34:22Z</time>
      </trkpt>
      <trkpt lat="46.0320750" lon="5.6426220">
        <ele>989.2</ele>
        <time>2022-07-25T14:34:23Z</time>
      </trkpt>
      <trkpt lat="46.0320880" lon="5.6426090">
        <ele>989.4</ele>
        <time>2022-07-25T14:34:24Z</time>
      </trkpt>
      <trkpt lat="46.0321040" lon="5.6425930">
        <ele>989.6</ele>
        <time>2022-07-25T14:34:25Z</time>
      </trkpt>
      <trkpt lat="46.0321160" lon="5.6425790">
        <ele>989.8</ele>
        <time>2022-07-25T14:34:26Z</time>
      </trkpt>
      <trkpt lat="46.0321290" lon="5.6425620">
        <ele>990.0</ele>
        <time>2022-07-25T14:34:27Z</time>
      </trkpt>
      <trkpt lat="46.0321400" lon="5.6425430">
        <ele>990.2</ele>
        <time>2022-07-25T14:34:28Z</time>
      </trkpt>
      <trkpt lat="46.0321460" lon="5.6425220">
        <ele>990.4</ele>
        <time>2022-07-25T14:34:29Z</time>
      </trkpt>
      <trkpt lat="46.0321520" lon="5.6424970">
        <ele>990.6</ele>
        <time>2022-07-25T14:34:30Z</time>
      </trkpt>
      <trkpt lat="46.0321600" lon="5.6424770">
        <ele>990.7</ele>
        <time>2022-07-25T14:34:31Z</time>
      </trkpt>
      <trkpt lat="46.0321830" lon="5.6424510">
        <ele>991.1</ele>
        <time>2022-07-25T14:34:32Z</time>
      </trkpt>
      <trkpt lat="46.0321920" lon="5.6424450">
        <ele>991.2</ele>
        <time>2022-07-25T14:34:33Z</time>
      </trkpt>
      <trkpt lat="46.0322010" lon="5.6424370">
        <ele>991.3</ele>
        <time>2022-07-25T14:34:34Z</time>
      </trkpt>
      <trkpt lat="46.0322120" lon="5.6424310">
        <ele>991.4</ele>
        <time>2022-07-25T14:34:35Z</time>
      </trkpt>
      <trkpt lat="46.0322210" lon="5.6424230">
        <ele>991.5</ele>
        <time>2022-07-25T14:34:36Z</time>
      </trkpt>
      <trkpt lat="46.0322480" lon="5.6424090">
        <ele>991.8</ele>
        <time>2022-07-25T14:34:37Z</time>
      </trkpt>
      <trkpt lat="46.0322590" lon="5.6424040">
        <ele>991.9</ele>
        <time>2022-07-25T14:34:38Z</time>
      </trkpt>
      <trkpt lat="46.0322900" lon="5.6423840">
        <ele>992.2</ele>
        <time>2022-07-25T14:34:39Z</time>
      </trkpt>
      <trkpt lat="46.0322970" lon="5.6423770">
        <ele>992.3</ele>
        <time>2022-07-25T14:34:40Z</time>
      </trkpt>
      <trkpt lat="46.0323120" lon="5.6423570">
        <ele>992.5</ele>
        <time>2022-07-25T14:34:41Z</time>
      </trkpt>
      <trkpt lat="46.0323190" lon="5.6423470">
        <ele>992.6</ele>
        <time>2022-07-25T14:34:42Z</time>
      </trkpt>
      <trkpt lat="46.0323250" lon="5.6423370">
        <ele>992.7</ele>
        <time>2022-07-25T14:34:43Z</time>
      </trkpt>
      <trkpt lat="46.0323340" lon="5.6423270">
        <ele>992.8</ele>
        <time>2022-07-25T14:34:44Z</time>
      </trkpt>
      <trkpt lat="46.0323440" lon="5.6423060">
        <ele>992.9</ele>
        <time>2022-07-25T14:34:45Z</time>
      </trkpt>
      <trkpt lat="46.0323540" lon="5.6422880">
        <ele>993.1</ele>
        <time>2022-07-25T14:34:46Z</time>
      </trkpt>
      <trkpt lat="46.0323610" lon="5.6422690">
        <ele>993.2</ele>
        <time>2022-07-25T14:34:47Z</time>
      </trkpt>
      <trkpt lat="46.0323710" lon="5.6422450">
        <ele>993.2</ele>
        <time>2022-07-25T14:34:48Z</time>
      </trkpt>
      <trkpt lat="46.0323780" lon="5.6422240">
        <ele>993.2</ele>
        <time>2022-07-25T14:34:49Z</time>
      </trkpt>
      <trkpt lat="46.0323900" lon="5.6421880">
        <ele>993.2</ele>
        <time>2022-07-25T14:34:50Z</time>
      </trkpt>
      <trkpt lat="46.0323940" lon="5.6421760">
        <ele>993.2</ele>
        <time>2022-07-25T14:34:51Z</time>
      </trkpt>
      <trkpt lat="46.0324110" lon="5.6421450">
        <ele>993.2</ele>
        <time>2022-07-25T14:34:52Z</time>
      </trkpt>
      <trkpt lat="46.0324170" lon="5.6421350">
        <ele>993.2</ele>
        <time>2022-07-25T14:34:53Z</time>
      </trkpt>
      <trkpt lat="46.0324380" lon="5.6421010">
        <ele>993.4</ele>
        <time>2022-07-25T14:34:54Z</time>
      </trkpt>
      <trkpt lat="46.0324440" lon="5.6420910">
        <ele>993.5</ele>
        <time>2022-07-25T14:34:55Z</time>
      </trkpt>
      <trkpt lat="46.0324580" lon="5.6420560">
        <ele>993.7</ele>
        <time>2022-07-25T14:34:56Z</time>
      </trkpt>
      <trkpt lat="46.0324620" lon="5.6420430">
        <ele>993.7</ele>
        <time>2022-07-25T14:34:57Z</time>
      </trkpt>
      <trkpt lat="46.0324760" lon="5.6420020">
        <ele>994.0</ele>
        <time>2022-07-25T14:34:58Z</time>
      </trkpt>
      <trkpt lat="46.0324800" lon="5.6419890">
        <ele>994.0</ele>
        <time>2022-07-25T14:34:59Z</time>
      </trkpt>
      <trkpt lat="46.0324860" lon="5.6419720">
        <ele>994.1</ele>
        <time>2022-07-25T14:35:00Z</time>
      </trkpt>
      <trkpt lat="46.0324950" lon="5.6419520">
        <ele>994.3</ele>
        <time>2022-07-25T14:35:01Z</time>
      </trkpt>
      <trkpt lat="46.0325030" lon="5.6419330">
        <ele>994.4</ele>
        <time>2022-07-25T14:35:02Z</time>
      </trkpt>
      <trkpt lat="46.0325100" lon="5.6419070">
        <ele>994.5</ele>
        <time>2022-07-25T14:35:03Z</time>
      </trkpt>
      <trkpt lat="46.0325200" lon="5.6418850">
        <ele>994.7</ele>
        <time>2022-07-25T14:35:04Z</time>
      </trkpt>
      <trkpt lat="46.0325260" lon="5.6418690">
        <ele>994.8</ele>
        <time>2022-07-25T14:35:05Z</time>
      </trkpt>
      <trkpt lat="46.0325380" lon="5.6418270">
        <ele>995.0</ele>
        <time>2022-07-25T14:35:06Z</time>
      </trkpt>
      <trkpt lat="46.0325410" lon="5.6418130">
        <ele>995.1</ele>
        <time>2022-07-25T14:35:07Z</time>
      </trkpt>
      <trkpt lat="46.0325450" lon="5.6417710">
        <ele>995.3</ele>
        <time>2022-07-25T14:35:08Z</time>
      </trkpt>
      <trkpt lat="46.0325450" lon="5.6417600">
        <ele>995.4</ele>
        <time>2022-07-25T14:35:09Z</time>
      </trkpt>
      <trkpt lat="46.0325440" lon="5.6417410">
        <ele>995.5</ele>
        <time>2022-07-25T14:35:10Z</time>
      </trkpt>
      <trkpt lat="46.0325470" lon="5.6417110">
        <ele>995.7</ele>
        <time>2022-07-25T14:35:11Z</time>
      </trkpt>
      <trkpt lat="46.0325520" lon="5.6416960">
        <ele>995.8</ele>
        <time>2022-07-25T14:35:12Z</time>
      </trkpt>
      <trkpt lat="46.0325620" lon="5.6416760">
        <ele>995.9</ele>
        <time>2022-07-25T14:35:13Z</time>
      </trkpt>
      <trkpt lat="46.0325760" lon="5.6416560">
        <ele>996.1</ele>
        <time>2022-07-25T14:35:14Z</time>
      </trkpt>
      <trkpt lat="46.0325860" lon="5.6416410">
        <ele>996.2</ele>
        <time>2022-07-25T14:35:15Z</time>
      </trkpt>
      <trkpt lat="46.0325980" lon="5.6416260">
        <ele>996.3</ele>
        <time>2022-07-25T14:35:16Z</time>
      </trkpt>
      <trkpt lat="46.0326090" lon="5.6416170">
        <ele>996.5</ele>
        <time>2022-07-25T14:35:17Z</time>
      </trkpt>
      <trkpt lat="46.0326210" lon="5.6416060">
        <ele>996.6</ele>
        <time>2022-07-25T14:35:18Z</time>
      </trkpt>
      <trkpt lat="46.0326370" lon="5.6415900">
        <ele>996.8</ele>
        <time>2022-07-25T14:35:19Z</time>
      </trkpt>
      <trkpt lat="46.0326470" lon="5.6415760">
        <ele>996.9</ele>
        <time>2022-07-25T14:35:20Z</time>
      </trkpt>
      <trkpt lat="46.0326530" lon="5.6415580">
        <ele>997.0</ele>
        <time>2022-07-25T14:35:21Z</time>
      </trkpt>
      <trkpt lat="46.0326580" lon="5.6415360">
        <ele>997.2</ele>
        <time>2022-07-25T14:35:22Z</time>
      </trkpt>
      <trkpt lat="46.0326630" lon="5.6415120">
        <ele>997.3</ele>
        <time>2022-07-25T14:35:23Z</time>
      </trkpt>
      <trkpt lat="46.0326680" lon="5.6414860">
        <ele>997.5</ele>
        <time>2022-07-25T14:35:24Z</time>
      </trkpt>
      <trkpt lat="46.0326740" lon="5.6414690">
        <ele>997.6</ele>
        <time>2022-07-25T14:35:25Z</time>
      </trkpt>
      <trkpt lat="46.0326770" lon="5.6414560">
        <ele>997.7</ele>
        <time>2022-07-25T14:35:26Z</time>
      </trkpt>
      <trkpt lat="46.0326870" lon="5.6414290">
        <ele>997.9</ele>
        <time>2022-07-25T14:35:27Z</time>
      </trkpt>
      <trkpt lat="46.0326960" lon="5.6414050">
        <ele>998.1</ele>
        <time>2022-07-25T14:35:28Z</time>
      </trkpt>
      <trkpt lat="46.0327050" lon="5.6413860">
        <ele>998.3</ele>
        <time>2022-07-25T14:35:29Z</time>
      </trkpt>
      <trkpt lat="46.0327140" lon="5.6413690">
        <ele>998.4</ele>
        <time>2022-07-25T14:35:30Z</time>
      </trkpt>
      <trkpt lat="46.0327230" lon="5.6413460">
        <ele>998.6</ele>
        <time>2022-07-25T14:35:31Z</time>
      </trkpt>
      <trkpt lat="46.0327340" lon="5.6413060">
        <ele>998.9</ele>
        <time>2022-07-25T14:35:32Z</time>
      </trkpt>
      <trkpt lat="46.0327360" lon="5.6412950">
        <ele>999.0</ele>
        <time>2022-07-25T14:35:33Z</time>
      </trkpt>
      <trkpt lat="46.0327420" lon="5.6412740">
        <ele>999.1</ele>
        <time>2022-07-25T14:35:34Z</time>
      </trkpt>
      <trkpt lat="46.0327540" lon="5.6412540">
        <ele>999.3</ele>
        <time>2022-07-25T14:35:35Z</time>
      </trkpt>
      <trkpt lat="46.0327620" lon="5.6412300">
        <ele>999.5</ele>
        <time>2022-07-25T14:35:36Z</time>
      </trkpt>
      <trkpt lat="46.0327670" lon="5.6412100">
        <ele>999.6</ele>
        <time>2022-07-25T14:35:37Z</time>
      </trkpt>
      <trkpt lat="46.0327720" lon="5.6411850">
        <ele>999.8</ele>
        <time>2022-07-25T14:35:38Z</time>
      </trkpt>
      <trkpt lat="46.0327750" lon="5.6411630">
        <ele>999.9</ele>
        <time>2022-07-25T14:35:39Z</time>
      </trkpt>
      <trkpt lat="46.0327800" lon="5.6411390">
        <ele>1000.1</ele>
        <time>2022-07-25T14:35:40Z</time>
      </trkpt>
      <trkpt lat="46.0327830" lon="5.6411200">
        <ele>1000.2</ele>
        <time>2022-07-25T14:35:41Z</time>
      </trkpt>
      <trkpt lat="46.0327870" lon="5.6410930">
        <ele>1000.4</ele>
        <time>2022-07-25T14:35:42Z</time>
      </trkpt>
      <trkpt lat="46.0327890" lon="5.6410780">
        <ele>1000.5</ele>
        <time>2022-07-25T14:35:43Z</time>
      </trkpt>
      <trkpt lat="46.0327910" lon="5.6410630">
        <ele>1000.6</ele>
        <time>2022-07-25T14:35:44Z</time>
      </trkpt>
      <trkpt lat="46.0327890" lon="5.6410380">
        <ele>1000.7</ele>
        <time>2022-07-25T14:35:45Z</time>
      </trkpt>
      <trkpt lat="46.0327880" lon="5.6410160">
        <ele>1000.8</ele>
        <time>2022-07-25T14:35:46Z</time>
      </trkpt>
      <trkpt lat="46.0327840" lon="5.6409950">
        <ele>1001.0</ele>
        <time>2022-07-25T14:35:47Z</time>
      </trkpt>
      <trkpt lat="46.0327820" lon="5.6409740">
        <ele>1001.1</ele>
        <time>2022-07-25T14:35:48Z</time>
      </trkpt>
      <trkpt lat="46.0327810" lon="5.6409480">
        <ele>1001.3</ele>
        <time>2022-07-25T14:35:49Z</time>
      </trkpt>
      <trkpt lat="46.0327820" lon="5.6409260">
        <ele>1001.4</ele>
        <time>2022-07-25T14:35:50Z</time>
      </trkpt>
      <trkpt lat="46.0327830" lon="5.6408880">
        <ele>1001.6</ele>
        <time>2022-07-25T14:35:51Z</time>
      </trkpt>
      <trkpt lat="46.0327840" lon="5.6408730">
        <ele>1001.7</ele>
        <time>2022-07-25T14:35:52Z</time>
      </trkpt>
      <trkpt lat="46.0327890" lon="5.6408290">
        <ele>1002.0</ele>
        <time>2022-07-25T14:35:53Z</time>
      </trkpt>
      <trkpt lat="46.0327900" lon="5.6408140">
        <ele>1002.0</ele>
        <time>2022-07-25T14:35:54Z</time>
      </trkpt>
      <trkpt lat="46.0327950" lon="5.6407910">
        <ele>1002.2</ele>
        <time>2022-07-25T14:35:55Z</time>
      </trkpt>
      <trkpt lat="46.0327960" lon="5.6407710">
        <ele>1002.3</ele>
        <time>2022-07-25T14:35:56Z</time>
      </trkpt>
      <trkpt lat="46.0327960" lon="5.6407500">
        <ele>1002.4</ele>
        <time>2022-07-25T14:35:57Z</time>
      </trkpt>
      <trkpt lat="46.0327950" lon="5.6407320">
        <ele>1002.5</ele>
        <time>2022-07-25T14:35:58Z</time>
      </trkpt>
      <trkpt lat="46.0327950" lon="5.6406910">
        <ele>1002.7</ele>
        <time>2022-07-25T14:35:59Z</time>
      </trkpt>
      <trkpt lat="46.0327940" lon="5.6406760">
        <ele>1002.8</ele>
        <time>2022-07-25T14:36:00Z</time>
      </trkpt>
      <trkpt lat="46.0327950" lon="5.6406500">
        <ele>1002.9</ele>
        <time>2022-07-25T14:36:01Z</time>
      </trkpt>
      <trkpt lat="46.0327980" lon="5.6406350">
        <ele>1003.0</ele>
        <time>2022-07-25T14:36:02Z</time>
      </trkpt>
      <trkpt lat="46.0327990" lon="5.6405920">
        <ele>1003.2</ele>
        <time>2022-07-25T14:36:03Z</time>
      </trkpt>
      <trkpt lat="46.0327980" lon="5.6405760">
        <ele>1003.3</ele>
        <time>2022-07-25T14:36:04Z</time>
      </trkpt>
      <trkpt lat="46.0327930" lon="5.6405320">
        <ele>1003.5</ele>
        <time>2022-07-25T14:36:05Z</time>
      </trkpt>
      <trkpt lat="46.0327900" lon="5.6405170">
        <ele>1003.6</ele>
        <time>2022-07-25T14:36:06Z</time>
      </trkpt>
      <trkpt lat="46.0327860" lon="5.6404930">
        <ele>1003.7</ele>
        <time>2022-07-25T14:36:07Z</time>
      </trkpt>
      <trkpt lat="46.0327830" lon="5.6404670">
        <ele>1003.8</ele>
        <time>2022-07-25T14:36:08Z</time>
      </trkpt>
      <trkpt lat="46.0327810" lon="5.6404250">
        <ele>1004.0</ele>
        <time>2022-07-25T14:36:09Z</time>
      </trkpt>
      <trkpt lat="46.0327830" lon="5.6404120">
        <ele>1004.1</ele>
        <time>2022-07-25T14:36:10Z</time>
      </trkpt>
      <trkpt lat="46.0327900" lon="5.6403670">
        <ele>1004.3</ele>
        <time>2022-07-25T14:36:11Z</time>
      </trkpt>
      <trkpt lat="46.0327930" lon="5.6403550">
        <ele>1004.3</ele>
        <time>2022-07-25T14:36:12Z</time>
      </trkpt>
      <trkpt lat="46.0327960" lon="5.6403140">
        <ele>1004.5</ele>
        <time>2022-07-25T14:36:13Z</time>
      </trkpt>
      <trkpt lat="46.0327970" lon="5.6402990">
        <ele>1004.6</ele>
        <time>2022-07-25T14:36:14Z</time>
      </trkpt>
      <trkpt lat="46.0327940" lon="5.6402720">
        <ele>1004.7</ele>
        <time>2022-07-25T14:36:15Z</time>
      </trkpt>
      <trkpt lat="46.0327920" lon="5.6402500">
        <ele>1004.8</ele>
        <time>2022-07-25T14:36:16Z</time>
      </trkpt>
      <trkpt lat="46.0327950" lon="5.6402350">
        <ele>1004.8</ele>
        <time>2022-07-25T14:36:17Z</time>
      </trkpt>
      <trkpt lat="46.0327960" lon="5.6402090">
        <ele>1005.0</ele>
        <time>2022-07-25T14:36:18Z</time>
      </trkpt>
      <trkpt lat="46.0327970" lon="5.6401900">
        <ele>1005.0</ele>
        <time>2022-07-25T14:36:19Z</time>
      </trkpt>
      <trkpt lat="46.0327980" lon="5.6401680">
        <ele>1005.1</ele>
        <time>2022-07-25T14:36:20Z</time>
      </trkpt>
      <trkpt lat="46.0328040" lon="5.6401440">
        <ele>1005.3</ele>
        <time>2022-07-25T14:36:21Z</time>
      </trkpt>
      <trkpt lat="46.0328060" lon="5.6401260">
        <ele>1005.3</ele>
        <time>2022-07-25T14:36:22Z</time>
      </trkpt>
      <trkpt lat="46.0328070" lon="5.6401050">
        <ele>1005.4</ele>
        <time>2022-07-25T14:36:23Z</time>
      </trkpt>
      <trkpt lat="46.0328070" lon="5.6400850">
        <ele>1005.5</ele>
        <time>2022-07-25T14:36:24Z</time>
      </trkpt>
      <trkpt lat="46.0328050" lon="5.6400460">
        <ele>1005.7</ele>
        <time>2022-07-25T14:36:25Z</time>
      </trkpt>
      <trkpt lat="46.0328040" lon="5.6400340">
        <ele>1005.8</ele>
        <time>2022-07-25T14:36:26Z</time>
      </trkpt>
      <trkpt lat="46.0328040" lon="5.6400090">
        <ele>1005.9</ele>
        <time>2022-07-25T14:36:27Z</time>
      </trkpt>
      <trkpt lat="46.0328030" lon="5.6399870">
        <ele>1006.0</ele>
        <time>2022-07-25T14:36:28Z</time>
      </trkpt>
      <trkpt lat="46.0328000" lon="5.6399420">
        <ele>1006.2</ele>
        <time>2022-07-25T14:36:29Z</time>
      </trkpt>
      <trkpt lat="46.0328000" lon="5.6399280">
        <ele>1006.3</ele>
        <time>2022-07-25T14:36:30Z</time>
      </trkpt>
      <trkpt lat="46.0327990" lon="5.6399090">
        <ele>1006.4</ele>
        <time>2022-07-25T14:36:31Z</time>
      </trkpt>
      <trkpt lat="46.0327960" lon="5.6398810">
        <ele>1006.6</ele>
        <time>2022-07-25T14:36:32Z</time>
      </trkpt>
      <trkpt lat="46.0327880" lon="5.6398430">
        <ele>1006.8</ele>
        <time>2022-07-25T14:36:33Z</time>
      </trkpt>
      <trkpt lat="46.0327840" lon="5.6398310">
        <ele>1006.8</ele>
        <time>2022-07-25T14:36:34Z</time>
      </trkpt>
      <trkpt lat="46.0327810" lon="5.6398120">
        <ele>1006.9</ele>
        <time>2022-07-25T14:36:35Z</time>
      </trkpt>
      <trkpt lat="46.0327800" lon="5.6398040">
        <ele>1007.0</ele>
        <time>2022-07-25T14:36:36Z</time>
      </trkpt>
      <trkpt lat="46.0327810" lon="5.6397900">
        <ele>1007.1</ele>
        <time>2022-07-25T14:36:37Z</time>
      </trkpt>
      <trkpt lat="46.0327830" lon="5.6397680">
        <ele>1007.2</ele>
        <time>2022-07-25T14:36:38Z</time>
      </trkpt>
      <trkpt lat="46.0327820" lon="5.6397470">
        <ele>1007.3</ele>
        <time>2022-07-25T14:36:39Z</time>
      </trkpt>
      <trkpt lat="46.0327810" lon="5.6397280">
        <ele>1007.4</ele>
        <time>2022-07-25T14:36:40Z</time>
      </trkpt>
      <trkpt lat="46.0327800" lon="5.6397150">
        <ele>1007.5</ele>
        <time>2022-07-25T14:36:41Z</time>
      </trkpt>
      <trkpt lat="46.0327730" lon="5.6396640">
        <ele>1007.8</ele>
        <time>2022-07-25T14:36:43Z</time>
      </trkpt>
      <trkpt lat="46.0327680" lon="5.6396430">
        <ele>1007.9</ele>
        <time>2022-07-25T14:36:44Z</time>
      </trkpt>
      <trkpt lat="46.0327620" lon="5.6396240">
        <ele>1008.0</ele>
        <time>2022-07-25T14:36:45Z</time>
      </trkpt>
      <trkpt lat="46.0327540" lon="5.6395650">
        <ele>1008.4</ele>
        <time>2022-07-25T14:36:47Z</time>
      </trkpt>
      <trkpt lat="46.0327530" lon="5.6395450">
        <ele>1008.5</ele>
        <time>2022-07-25T14:36:48Z</time>
      </trkpt>
      <trkpt lat="46.0327500" lon="5.6395230">
        <ele>1008.7</ele>
        <time>2022-07-25T14:36:49Z</time>
      </trkpt>
      <trkpt lat="46.0327470" lon="5.6394980">
        <ele>1008.8</ele>
        <time>2022-07-25T14:36:50Z</time>
      </trkpt>
      <trkpt lat="46.0327460" lon="5.6394750">
        <ele>1008.9</ele>
        <time>2022-07-25T14:36:51Z</time>
      </trkpt>
      <trkpt lat="46.0327430" lon="5.6394580">
        <ele>1009.0</ele>
        <time>2022-07-25T14:36:52Z</time>
      </trkpt>
      <trkpt lat="46.0327410" lon="5.6394340">
        <ele>1009.2</ele>
        <time>2022-07-25T14:36:53Z</time>
      </trkpt>
      <trkpt lat="46.0327440" lon="5.6394120">
        <ele>1009.3</ele>
        <time>2022-07-25T14:36:54Z</time>
      </trkpt>
      <trkpt lat="46.0327400" lon="5.6393890">
        <ele>1009.5</ele>
        <time>2022-07-25T14:36:55Z</time>
      </trkpt>
      <trkpt lat="46.0327310" lon="5.6393690">
        <ele>1009.6</ele>
        <time>2022-07-25T14:36:56Z</time>
      </trkpt>
      <trkpt lat="46.0327180" lon="5.6393310">
        <ele>1009.9</ele>
        <time>2022-07-25T14:36:58Z</time>
      </trkpt>
      <trkpt lat="46.0327120" lon="5.6393120">
        <ele>1010.0</ele>
        <time>2022-07-25T14:36:59Z</time>
      </trkpt>
      <trkpt lat="46.0327080" lon="5.6392920">
        <ele>1010.1</ele>
        <time>2022-07-25T14:37:00Z</time>
      </trkpt>
      <trkpt lat="46.0327010" lon="5.6392530">
        <ele>1010.4</ele>
        <time>2022-07-25T14:37:01Z</time>
      </trkpt>
      <trkpt lat="46.0326990" lon="5.6392390">
        <ele>1010.4</ele>
        <time>2022-07-25T14:37:02Z</time>
      </trkpt>
      <trkpt lat="46.0326980" lon="5.6392120">
        <ele>1010.6</ele>
        <time>2022-07-25T14:37:03Z</time>
      </trkpt>
      <trkpt lat="46.0326950" lon="5.6391890">
        <ele>1010.7</ele>
        <time>2022-07-25T14:37:04Z</time>
      </trkpt>
      <trkpt lat="46.0326950" lon="5.6391480">
        <ele>1011.0</ele>
        <time>2022-07-25T14:37:05Z</time>
      </trkpt>
      <trkpt lat="46.0326950" lon="5.6391340">
        <ele>1011.1</ele>
        <time>2022-07-25T14:37:06Z</time>
      </trkpt>
      <trkpt lat="46.0326960" lon="5.6391110">
        <ele>1011.2</ele>
        <time>2022-07-25T14:37:07Z</time>
      </trkpt>
      <trkpt lat="46.0326990" lon="5.6390930">
        <ele>1011.3</ele>
        <time>2022-07-25T14:37:08Z</time>
      </trkpt>
      <trkpt lat="46.0327010" lon="5.6390700">
        <ele>1011.5</ele>
        <time>2022-07-25T14:37:09Z</time>
      </trkpt>
      <trkpt lat="46.0327060" lon="5.6390470">
        <ele>1011.6</ele>
        <time>2022-07-25T14:37:10Z</time>
      </trkpt>
      <trkpt lat="46.0327060" lon="5.6390310">
        <ele>1011.7</ele>
        <time>2022-07-25T14:37:11Z</time>
      </trkpt>
      <trkpt lat="46.0327070" lon="5.6390070">
        <ele>1011.9</ele>
        <time>2022-07-25T14:37:12Z</time>
      </trkpt>
      <trkpt lat="46.0327070" lon="5.6389850">
        <ele>1012.0</ele>
        <time>2022-07-25T14:37:13Z</time>
      </trkpt>
      <trkpt lat="46.0327060" lon="5.6389650">
        <ele>1012.1</ele>
        <time>2022-07-25T14:37:14Z</time>
      </trkpt>
      <trkpt lat="46.0326860" lon="5.6389060">
        <ele>1012.5</ele>
        <time>2022-07-25T14:37:16Z</time>
      </trkpt>
      <trkpt lat="46.0326810" lon="5.6388860">
        <ele>1012.6</ele>
        <time>2022-07-25T14:37:17Z</time>
      </trkpt>
      <trkpt lat="46.0326770" lon="5.6388660">
        <ele>1012.7</ele>
        <time>2022-07-25T14:37:18Z</time>
      </trkpt>
      <trkpt lat="46.0326730" lon="5.6388440">
        <ele>1012.9</ele>
        <time>2022-07-25T14:37:19Z</time>
      </trkpt>
      <trkpt lat="46.0326690" lon="5.6388240">
        <ele>1013.0</ele>
        <time>2022-07-25T14:37:20Z</time>
      </trkpt>
      <trkpt lat="46.0326600" lon="5.6387930">
        <ele>1013.1</ele>
        <time>2022-07-25T14:37:21Z</time>
      </trkpt>
      <trkpt lat="46.0326560" lon="5.6387780">
        <ele>1013.2</ele>
        <time>2022-07-25T14:37:22Z</time>
      </trkpt>
      <trkpt lat="46.0326520" lon="5.6387640">
        <ele>1013.3</ele>
        <time>2022-07-25T14:37:23Z</time>
      </trkpt>
      <trkpt lat="46.0326530" lon="5.6387320">
        <ele>1013.5</ele>
        <time>2022-07-25T14:37:24Z</time>
      </trkpt>
      <trkpt lat="46.0326500" lon="5.6386590">
        <ele>1013.8</ele>
        <time>2022-07-25T14:37:26Z</time>
      </trkpt>
      <trkpt lat="46.0326500" lon="5.6386030">
        <ele>1014.0</ele>
        <time>2022-07-25T14:37:27Z</time>
      </trkpt>
      <trkpt lat="46.0326490" lon="5.6385830">
        <ele>1014.1</ele>
        <time>2022-07-25T14:37:28Z</time>
      </trkpt>
      <trkpt lat="46.0326400" lon="5.6385320">
        <ele>1014.3</ele>
        <time>2022-07-25T14:37:29Z</time>
      </trkpt>
      <trkpt lat="46.0326370" lon="5.6385160">
        <ele>1014.4</ele>
        <time>2022-07-25T14:37:30Z</time>
      </trkpt>
      <trkpt lat="46.0326310" lon="5.6384770">
        <ele>1014.5</ele>
        <time>2022-07-25T14:37:31Z</time>
      </trkpt>
      <trkpt lat="46.0326300" lon="5.6384630">
        <ele>1014.6</ele>
        <time>2022-07-25T14:37:32Z</time>
      </trkpt>
      <trkpt lat="46.0326290" lon="5.6384490">
        <ele>1014.6</ele>
        <time>2022-07-25T14:37:33Z</time>
      </trkpt>
      <trkpt lat="46.0326240" lon="5.6384020">
        <ele>1014.8</ele>
        <time>2022-07-25T14:37:34Z</time>
      </trkpt>
      <trkpt lat="46.0326160" lon="5.6383650">
        <ele>1014.9</ele>
        <time>2022-07-25T14:37:35Z</time>
      </trkpt>
      <trkpt lat="46.0326060" lon="5.6383150">
        <ele>1015.0</ele>
        <time>2022-07-25T14:37:36Z</time>
      </trkpt>
      <trkpt lat="46.0326040" lon="5.6382970">
        <ele>1015.1</ele>
        <time>2022-07-25T14:37:37Z</time>
      </trkpt>
      <trkpt lat="46.0325990" lon="5.6382580">
        <ele>1015.2</ele>
        <time>2022-07-25T14:37:38Z</time>
      </trkpt>
      <trkpt lat="46.0325950" lon="5.6382060">
        <ele>1015.3</ele>
        <time>2022-07-25T14:37:39Z</time>
      </trkpt>
      <trkpt lat="46.0325930" lon="5.6381910">
        <ele>1015.3</ele>
        <time>2022-07-25T14:37:40Z</time>
      </trkpt>
      <trkpt lat="46.0325900" lon="5.6381410">
        <ele>1015.4</ele>
        <time>2022-07-25T14:37:41Z</time>
      </trkpt>
      <trkpt lat="46.0325880" lon="5.6381240">
        <ele>1015.4</ele>
        <time>2022-07-25T14:37:42Z</time>
      </trkpt>
      <trkpt lat="46.0325810" lon="5.6380670">
        <ele>1015.5</ele>
        <time>2022-07-25T14:37:43Z</time>
      </trkpt>
      <trkpt lat="46.0325790" lon="5.6380480">
        <ele>1015.5</ele>
        <time>2022-07-25T14:37:44Z</time>
      </trkpt>
      <trkpt lat="46.0325790" lon="5.6379860">
        <ele>1015.6</ele>
        <time>2022-07-25T14:37:45Z</time>
      </trkpt>
      <trkpt lat="46.0325810" lon="5.6379630">
        <ele>1015.7</ele>
        <time>2022-07-25T14:37:46Z</time>
      </trkpt>
      <trkpt lat="46.0325870" lon="5.6379210">
        <ele>1015.7</ele>
        <time>2022-07-25T14:37:47Z</time>
      </trkpt>
      <trkpt lat="46.0325980" lon="5.6378630">
        <ele>1015.8</ele>
        <time>2022-07-25T14:37:48Z</time>
      </trkpt>
      <trkpt lat="46.0326010" lon="5.6378420">
        <ele>1015.8</ele>
        <time>2022-07-25T14:37:49Z</time>
      </trkpt>
      <trkpt lat="46.0326080" lon="5.6377890">
        <ele>1015.9</ele>
        <time>2022-07-25T14:37:50Z</time>
      </trkpt>
      <trkpt lat="46.0326080" lon="5.6377710">
        <ele>1015.9</ele>
        <time>2022-07-25T14:37:51Z</time>
      </trkpt>
      <trkpt lat="46.0326050" lon="5.6377150">
        <ele>1016.0</ele>
        <time>2022-07-25T14:37:52Z</time>
      </trkpt>
      <trkpt lat="46.0326030" lon="5.6376980">
        <ele>1016.0</ele>
        <time>2022-07-25T14:37:53Z</time>
      </trkpt>
      <trkpt lat="46.0325970" lon="5.6376570">
        <ele>1016.0</ele>
        <time>2022-07-25T14:37:54Z</time>
      </trkpt>
      <trkpt lat="46.0325940" lon="5.6376090">
        <ele>1016.1</ele>
        <time>2022-07-25T14:37:55Z</time>
      </trkpt>
      <trkpt lat="46.0325930" lon="5.6375930">
        <ele>1016.1</ele>
        <time>2022-07-25T14:37:56Z</time>
      </trkpt>
      <trkpt lat="46.0325950" lon="5.6375460">
        <ele>1016.1</ele>
        <time>2022-07-25T14:37:57Z</time>
      </trkpt>
      <trkpt lat="46.0325990" lon="5.6375020">
        <ele>1016.2</ele>
        <time>2022-07-25T14:37:58Z</time>
      </trkpt>
      <trkpt lat="46.0326040" lon="5.6374580">
        <ele>1016.2</ele>
        <time>2022-07-25T14:37:59Z</time>
      </trkpt>
      <trkpt lat="46.0326070" lon="5.6374190">
        <ele>1016.2</ele>
        <time>2022-07-25T14:38:00Z</time>
      </trkpt>
      <trkpt lat="46.0326100" lon="5.6373720">
        <ele>1016.3</ele>
        <time>2022-07-25T14:38:01Z</time>
      </trkpt>
      <trkpt lat="46.0326130" lon="5.6373260">
        <ele>1016.3</ele>
        <time>2022-07-25T14:38:02Z</time>
      </trkpt>
      <trkpt lat="46.0326170" lon="5.6372820">
        <ele>1016.3</ele>
        <time>2022-07-25T14:38:03Z</time>
      </trkpt>
      <trkpt lat="46.0326190" lon="5.6372430">
        <ele>1016.3</ele>
        <time>2022-07-25T14:38:04Z</time>
      </trkpt>
      <trkpt lat="46.0326200" lon="5.6372040">
        <ele>1016.4</ele>
        <time>2022-07-25T14:38:05Z</time>
      </trkpt>
      <trkpt lat="46.0326210" lon="5.6371590">
        <ele>1016.4</ele>
        <time>2022-07-25T14:38:06Z</time>
      </trkpt>
      <trkpt lat="46.0326240" lon="5.6371010">
        <ele>1016.4</ele>
        <time>2022-07-25T14:38:08Z</time>
      </trkpt>
      <trkpt lat="46.0326360" lon="5.6370640">
        <ele>1016.5</ele>
        <time>2022-07-25T14:38:09Z</time>
      </trkpt>
      <trkpt lat="46.0326490" lon="5.6370270">
        <ele>1016.5</ele>
        <time>2022-07-25T14:38:10Z</time>
      </trkpt>
      <trkpt lat="46.0326650" lon="5.6369410">
        <ele>1016.6</ele>
        <time>2022-07-25T14:38:12Z</time>
      </trkpt>
      <trkpt lat="46.0326700" lon="5.6368840">
        <ele>1016.6</ele>
        <time>2022-07-25T14:38:13Z</time>
      </trkpt>
      <trkpt lat="46.0326720" lon="5.6368630">
        <ele>1016.7</ele>
        <time>2022-07-25T14:38:14Z</time>
      </trkpt>
      <trkpt lat="46.0326720" lon="5.6367910">
        <ele>1016.7</ele>
        <time>2022-07-25T14:38:16Z</time>
      </trkpt>
      <trkpt lat="46.0326660" lon="5.6367370">
        <ele>1016.8</ele>
        <time>2022-07-25T14:38:17Z</time>
      </trkpt>
      <trkpt lat="46.0326610" lon="5.6366860">
        <ele>1016.9</ele>
        <time>2022-07-25T14:38:18Z</time>
      </trkpt>
      <trkpt lat="46.0326610" lon="5.6366340">
        <ele>1016.9</ele>
        <time>2022-07-25T14:38:19Z</time>
      </trkpt>
      <trkpt lat="46.0326620" lon="5.6365880">
        <ele>1017.0</ele>
        <time>2022-07-25T14:38:20Z</time>
      </trkpt>
      <trkpt lat="46.0326660" lon="5.6365290">
        <ele>1017.1</ele>
        <time>2022-07-25T14:38:21Z</time>
      </trkpt>
      <trkpt lat="46.0326660" lon="5.6364910">
        <ele>1017.2</ele>
        <time>2022-07-25T14:38:22Z</time>
      </trkpt>
      <trkpt lat="46.0326660" lon="5.6364270">
        <ele>1017.3</ele>
        <time>2022-07-25T14:38:24Z</time>
      </trkpt>
      <trkpt lat="46.0326690" lon="5.6363710">
        <ele>1017.4</ele>
        <time>2022-07-25T14:38:25Z</time>
      </trkpt>
      <trkpt lat="46.0326740" lon="5.6363320">
        <ele>1017.5</ele>
        <time>2022-07-25T14:38:26Z</time>
      </trkpt>
      <trkpt lat="46.0326750" lon="5.6362800">
        <ele>1017.7</ele>
        <time>2022-07-25T14:38:27Z</time>
      </trkpt>
      <trkpt lat="46.0326720" lon="5.6362650">
        <ele>1017.7</ele>
        <time>2022-07-25T14:38:28Z</time>
      </trkpt>
      <trkpt lat="46.0326580" lon="5.6362150">
        <ele>1017.9</ele>
        <time>2022-07-25T14:38:29Z</time>
      </trkpt>
      <trkpt lat="46.0326530" lon="5.6361970">
        <ele>1017.9</ele>
        <time>2022-07-25T14:38:30Z</time>
      </trkpt>
      <trkpt lat="46.0326360" lon="5.6361520">
        <ele>1018.1</ele>
        <time>2022-07-25T14:38:31Z</time>
      </trkpt>
      <trkpt lat="46.0326300" lon="5.6361360">
        <ele>1018.2</ele>
        <time>2022-07-25T14:38:32Z</time>
      </trkpt>
      <trkpt lat="46.0326100" lon="5.6361060">
        <ele>1018.3</ele>
        <time>2022-07-25T14:38:33Z</time>
      </trkpt>
      <trkpt lat="46.0325840" lon="5.6360650">
        <ele>1018.5</ele>
        <time>2022-07-25T14:38:34Z</time>
      </trkpt>
      <trkpt lat="46.0325770" lon="5.6360510">
        <ele>1018.6</ele>
        <time>2022-07-25T14:38:35Z</time>
      </trkpt>
      <trkpt lat="46.0325550" lon="5.6359940">
        <ele>1018.8</ele>
        <time>2022-07-25T14:38:37Z</time>
      </trkpt>
      <trkpt lat="46.0325490" lon="5.6359770">
        <ele>1018.9</ele>
        <time>2022-07-25T14:38:38Z</time>
      </trkpt>
      <trkpt lat="46.0325420" lon="5.6359610">
        <ele>1019.0</ele>
        <time>2022-07-25T14:38:39Z</time>
      </trkpt>
      <trkpt lat="46.0325340" lon="5.6359430">
        <ele>1019.0</ele>
        <time>2022-07-25T14:38:40Z</time>
      </trkpt>
      <trkpt lat="46.0325270" lon="5.6359220">
        <ele>1019.1</ele>
        <time>2022-07-25T14:38:41Z</time>
      </trkpt>
      <trkpt lat="46.0325230" lon="5.6358980">
        <ele>1019.2</ele>
        <time>2022-07-25T14:38:42Z</time>
      </trkpt>
      <trkpt lat="46.0325170" lon="5.6358650">
        <ele>1019.4</ele>
        <time>2022-07-25T14:38:44Z</time>
      </trkpt>
      <trkpt lat="46.0324970" lon="5.6358180">
        <ele>1019.6</ele>
        <time>2022-07-25T14:38:45Z</time>
      </trkpt>
      <trkpt lat="46.0324890" lon="5.6358050">
        <ele>1019.7</ele>
        <time>2022-07-25T14:38:46Z</time>
      </trkpt>
      <trkpt lat="46.0324670" lon="5.6357740">
        <ele>1019.9</ele>
        <time>2022-07-25T14:38:47Z</time>
      </trkpt>
      <trkpt lat="46.0324620" lon="5.6357660">
        <ele>1020.0</ele>
        <time>2022-07-25T14:38:48Z</time>
      </trkpt>
      <trkpt lat="46.0324490" lon="5.6357310">
        <ele>1020.2</ele>
        <time>2022-07-25T14:38:49Z</time>
      </trkpt>
      <trkpt lat="46.0324440" lon="5.6357190">
        <ele>1020.2</ele>
        <time>2022-07-25T14:38:50Z</time>
      </trkpt>
      <trkpt lat="46.0324340" lon="5.6357040">
        <ele>1020.3</ele>
        <time>2022-07-25T14:38:51Z</time>
      </trkpt>
      <trkpt lat="46.0324240" lon="5.6356870">
        <ele>1020.4</ele>
        <time>2022-07-25T14:38:52Z</time>
      </trkpt>
      <trkpt lat="46.0324030" lon="5.6356600">
        <ele>1020.6</ele>
        <time>2022-07-25T14:38:53Z</time>
      </trkpt>
      <trkpt lat="46.0323970" lon="5.6356500">
        <ele>1020.7</ele>
        <time>2022-07-25T14:38:54Z</time>
      </trkpt>
      <trkpt lat="46.0323780" lon="5.6356190">
        <ele>1020.9</ele>
        <time>2022-07-25T14:38:55Z</time>
      </trkpt>
      <trkpt lat="46.0323710" lon="5.6356080">
        <ele>1021.0</ele>
        <time>2022-07-25T14:38:56Z</time>
      </trkpt>
      <trkpt lat="46.0323480" lon="5.6355610">
        <ele>1021.3</ele>
        <time>2022-07-25T14:38:58Z</time>
      </trkpt>
      <trkpt lat="46.0323400" lon="5.6355470">
        <ele>1021.4</ele>
        <time>2022-07-25T14:38:59Z</time>
      </trkpt>
      <trkpt lat="46.0323320" lon="5.6355320">
        <ele>1021.5</ele>
        <time>2022-07-25T14:39:00Z</time>
      </trkpt>
      <trkpt lat="46.0323180" lon="5.6354970">
        <ele>1021.7</ele>
        <time>2022-07-25T14:39:01Z</time>
      </trkpt>
      <trkpt lat="46.0323130" lon="5.6354840">
        <ele>1021.8</ele>
        <time>2022-07-25T14:39:02Z</time>
      </trkpt>
      <trkpt lat="46.0323020" lon="5.6354650">
        <ele>1021.9</ele>
        <time>2022-07-25T14:39:03Z</time>
      </trkpt>
      <trkpt lat="46.0322950" lon="5.6354470">
        <ele>1022.0</ele>
        <time>2022-07-25T14:39:04Z</time>
      </trkpt>
      <trkpt lat="46.0322840" lon="5.6353980">
        <ele>1022.2</ele>
        <time>2022-07-25T14:39:05Z</time>
      </trkpt>
      <trkpt lat="46.0322800" lon="5.6353780">
        <ele>1022.4</ele>
        <time>2022-07-25T14:39:06Z</time>
      </trkpt>
      <trkpt lat="46.0322730" lon="5.6353610">
        <ele>1022.5</ele>
        <time>2022-07-25T14:39:07Z</time>
      </trkpt>
      <trkpt lat="46.0322670" lon="5.6353460">
        <ele>1022.5</ele>
        <time>2022-07-25T14:39:08Z</time>
      </trkpt>
      <trkpt lat="46.0322650" lon="5.6353390">
        <ele>1022.6</ele>
        <time>2022-07-25T14:39:09Z</time>
      </trkpt>
      <trkpt lat="46.0322620" lon="5.6353300">
        <ele>1022.6</ele>
        <time>2022-07-25T14:39:10Z</time>
      </trkpt>
      <trkpt lat="46.0322560" lon="5.6353220">
        <ele>1022.7</ele>
        <time>2022-07-25T14:39:11Z</time>
      </trkpt>
      <trkpt lat="46.0322490" lon="5.6353000">
        <ele>1022.8</ele>
        <time>2022-07-25T14:39:13Z</time>
      </trkpt>
      <trkpt lat="46.0322440" lon="5.6352870">
        <ele>1022.9</ele>
        <time>2022-07-25T14:39:14Z</time>
      </trkpt>
      <trkpt lat="46.0322390" lon="5.6352760">
        <ele>1023.0</ele>
        <time>2022-07-25T14:39:15Z</time>
      </trkpt>
      <trkpt lat="46.0322340" lon="5.6352660">
        <ele>1023.0</ele>
        <time>2022-07-25T14:39:16Z</time>
      </trkpt>
      <trkpt lat="46.0322270" lon="5.6352530">
        <ele>1023.1</ele>
        <time>2022-07-25T14:39:17Z</time>
      </trkpt>
      <trkpt lat="46.0322210" lon="5.6352400">
        <ele>1023.2</ele>
        <time>2022-07-25T14:39:18Z</time>
      </trkpt>
      <trkpt lat="46.0322160" lon="5.6352320">
        <ele>1023.2</ele>
        <time>2022-07-25T14:39:19Z</time>
      </trkpt>
      <trkpt lat="46.0322060" lon="5.6352200">
        <ele>1023.3</ele>
        <time>2022-07-25T14:39:20Z</time>
      </trkpt>
      <trkpt lat="46.0321890" lon="5.6352070">
        <ele>1023.5</ele>
        <time>2022-07-25T14:39:21Z</time>
      </trkpt>
      <trkpt lat="46.0321540" lon="5.6351820">
        <ele>1023.8</ele>
        <time>2022-07-25T14:39:22Z</time>
      </trkpt>
      <trkpt lat="46.0321430" lon="5.6351740">
        <ele>1023.9</ele>
        <time>2022-07-25T14:39:23Z</time>
      </trkpt>
      <trkpt lat="46.0321130" lon="5.6351480">
        <ele>1024.1</ele>
        <time>2022-07-25T14:39:24Z</time>
      </trkpt>
      <trkpt lat="46.0320860" lon="5.6351200">
        <ele>1024.3</ele>
        <time>2022-07-25T14:39:25Z</time>
      </trkpt>
      <trkpt lat="46.0320790" lon="5.6351100">
        <ele>1024.4</ele>
        <time>2022-07-25T14:39:26Z</time>
      </trkpt>
      <trkpt lat="46.0320650" lon="5.6350930">
        <ele>1024.5</ele>
        <time>2022-07-25T14:39:27Z</time>
      </trkpt>
      <trkpt lat="46.0320550" lon="5.6350850">
        <ele>1024.6</ele>
        <time>2022-07-25T14:39:28Z</time>
      </trkpt>
      <trkpt lat="46.0320450" lon="5.6350730">
        <ele>1024.7</ele>
        <time>2022-07-25T14:39:29Z</time>
      </trkpt>
      <trkpt lat="46.0320320" lon="5.6350580">
        <ele>1024.8</ele>
        <time>2022-07-25T14:39:30Z</time>
      </trkpt>
      <trkpt lat="46.0319980" lon="5.6350510">
        <ele>1025.1</ele>
        <time>2022-07-25T14:39:31Z</time>
      </trkpt>
      <trkpt lat="46.0319890" lon="5.6350470">
        <ele>1025.2</ele>
        <time>2022-07-25T14:39:32Z</time>
      </trkpt>
      <trkpt lat="46.0319610" lon="5.6350300">
        <ele>1025.4</ele>
        <time>2022-07-25T14:39:33Z</time>
      </trkpt>
      <trkpt lat="46.0319520" lon="5.6350240">
        <ele>1025.4</ele>
        <time>2022-07-25T14:39:34Z</time>
      </trkpt>
      <trkpt lat="46.0319170" lon="5.6349910">
        <ele>1025.7</ele>
        <time>2022-07-25T14:39:36Z</time>
      </trkpt>
      <trkpt lat="46.0318860" lon="5.6349550">
        <ele>1026.0</ele>
        <time>2022-07-25T14:39:37Z</time>
      </trkpt>
      <trkpt lat="46.0318750" lon="5.6349440">
        <ele>1026.1</ele>
        <time>2022-07-25T14:39:38Z</time>
      </trkpt>
      <trkpt lat="46.0318430" lon="5.6349130">
        <ele>1026.4</ele>
        <time>2022-07-25T14:39:39Z</time>
      </trkpt>
      <trkpt lat="46.0318320" lon="5.6349040">
        <ele>1026.4</ele>
        <time>2022-07-25T14:39:40Z</time>
      </trkpt>
      <trkpt lat="46.0318010" lon="5.6348760">
        <ele>1026.7</ele>
        <time>2022-07-25T14:39:41Z</time>
      </trkpt>
      <trkpt lat="46.0317910" lon="5.6348680">
        <ele>1026.8</ele>
        <time>2022-07-25T14:39:42Z</time>
      </trkpt>
      <trkpt lat="46.0317630" lon="5.6348430">
        <ele>1027.0</ele>
        <time>2022-07-25T14:39:43Z</time>
      </trkpt>
      <trkpt lat="46.0317370" lon="5.6348260">
        <ele>1027.2</ele>
        <time>2022-07-25T14:39:44Z</time>
      </trkpt>
      <trkpt lat="46.0317170" lon="5.6348020">
        <ele>1027.4</ele>
        <time>2022-07-25T14:39:45Z</time>
      </trkpt>
      <trkpt lat="46.0317100" lon="5.6347910">
        <ele>1027.5</ele>
        <time>2022-07-25T14:39:46Z</time>
      </trkpt>
      <trkpt lat="46.0316820" lon="5.6347620">
        <ele>1027.7</ele>
        <time>2022-07-25T14:39:47Z</time>
      </trkpt>
      <trkpt lat="46.0316560" lon="5.6347450">
        <ele>1027.9</ele>
        <time>2022-07-25T14:39:48Z</time>
      </trkpt>
      <trkpt lat="46.0316350" lon="5.6347390">
        <ele>1028.0</ele>
        <time>2022-07-25T14:39:49Z</time>
      </trkpt>
      <trkpt lat="46.0316040" lon="5.6347140">
        <ele>1028.3</ele>
        <time>2022-07-25T14:39:51Z</time>
      </trkpt>
      <trkpt lat="46.0315730" lon="5.6346970">
        <ele>1028.5</ele>
        <time>2022-07-25T14:39:52Z</time>
      </trkpt>
      <trkpt lat="46.0315610" lon="5.6346910">
        <ele>1028.5</ele>
        <time>2022-07-25T14:39:53Z</time>
      </trkpt>
      <trkpt lat="46.0315310" lon="5.6346710">
        <ele>1028.7</ele>
        <time>2022-07-25T14:39:54Z</time>
      </trkpt>
      <trkpt lat="46.0315220" lon="5.6346620">
        <ele>1028.8</ele>
        <time>2022-07-25T14:39:55Z</time>
      </trkpt>
      <trkpt lat="46.0315080" lon="5.6346530">
        <ele>1028.9</ele>
        <time>2022-07-25T14:39:56Z</time>
      </trkpt>
      <trkpt lat="46.0314760" lon="5.6346340">
        <ele>1029.1</ele>
        <time>2022-07-25T14:39:58Z</time>
      </trkpt>
      <trkpt lat="46.0314470" lon="5.6346230">
        <ele>1029.3</ele>
        <time>2022-07-25T14:39:59Z</time>
      </trkpt>
      <trkpt lat="46.0314360" lon="5.6346200">
        <ele>1029.3</ele>
        <time>2022-07-25T14:40:00Z</time>
      </trkpt>
      <trkpt lat="46.0313960" lon="5.6346090">
        <ele>1029.5</ele>
        <time>2022-07-25T14:40:02Z</time>
      </trkpt>
      <trkpt lat="46.0313670" lon="5.6346010">
        <ele>1029.7</ele>
        <time>2022-07-25T14:40:03Z</time>
      </trkpt>
      <trkpt lat="46.0313580" lon="5.6345990">
        <ele>1029.7</ele>
        <time>2022-07-25T14:40:04Z</time>
      </trkpt>
      <trkpt lat="46.0313380" lon="5.6345900">
        <ele>1029.8</ele>
        <time>2022-07-25T14:40:05Z</time>
      </trkpt>
      <trkpt lat="46.0313110" lon="5.6345750">
        <ele>1029.9</ele>
        <time>2022-07-25T14:40:07Z</time>
      </trkpt>
      <trkpt lat="46.0312740" lon="5.6345600">
        <ele>1030.0</ele>
        <time>2022-07-25T14:40:08Z</time>
      </trkpt>
      <trkpt lat="46.0312580" lon="5.6345530">
        <ele>1030.1</ele>
        <time>2022-07-25T14:40:09Z</time>
      </trkpt>
      <trkpt lat="46.0312440" lon="5.6345440">
        <ele>1030.2</ele>
        <time>2022-07-25T14:40:10Z</time>
      </trkpt>
      <trkpt lat="46.0312290" lon="5.6345370">
        <ele>1030.2</ele>
        <time>2022-07-25T14:40:11Z</time>
      </trkpt>
      <trkpt lat="46.0311980" lon="5.6345230">
        <ele>1030.3</ele>
        <time>2022-07-25T14:40:12Z</time>
      </trkpt>
      <trkpt lat="46.0311690" lon="5.6345180">
        <ele>1030.4</ele>
        <time>2022-07-25T14:40:14Z</time>
      </trkpt>
      <trkpt lat="46.0311360" lon="5.6345110">
        <ele>1030.5</ele>
        <time>2022-07-25T14:40:15Z</time>
      </trkpt>
      <trkpt lat="46.0311070" lon="5.6344990">
        <ele>1030.5</ele>
        <time>2022-07-25T14:40:16Z</time>
      </trkpt>
      <trkpt lat="46.0310680" lon="5.6344800">
        <ele>1030.6</ele>
        <time>2022-07-25T14:40:17Z</time>
      </trkpt>
      <trkpt lat="46.0310540" lon="5.6344720">
        <ele>1030.7</ele>
        <time>2022-07-25T14:40:18Z</time>
      </trkpt>
      <trkpt lat="46.0310260" lon="5.6344560">
        <ele>1030.7</ele>
        <time>2022-07-25T14:40:19Z</time>
      </trkpt>
      <trkpt lat="46.0309890" lon="5.6344370">
        <ele>1030.8</ele>
        <time>2022-07-25T14:40:20Z</time>
      </trkpt>
      <trkpt lat="46.0309760" lon="5.6344300">
        <ele>1030.8</ele>
        <time>2022-07-25T14:40:21Z</time>
      </trkpt>
      <trkpt lat="46.0309280" lon="5.6344020">
        <ele>1030.9</ele>
        <time>2022-07-25T14:40:23Z</time>
      </trkpt>
      <trkpt lat="46.0308890" lon="5.6343770">
        <ele>1031.0</ele>
        <time>2022-07-25T14:40:24Z</time>
      </trkpt>
      <trkpt lat="46.0308750" lon="5.6343690">
        <ele>1031.0</ele>
        <time>2022-07-25T14:40:25Z</time>
      </trkpt>
      <trkpt lat="46.0308230" lon="5.6343530">
        <ele>1031.1</ele>
        <time>2022-07-25T14:40:27Z</time>
      </trkpt>
      <trkpt lat="46.0307870" lon="5.6343380">
        <ele>1031.2</ele>
        <time>2022-07-25T14:40:28Z</time>
      </trkpt>
      <trkpt lat="46.0307710" lon="5.6343270">
        <ele>1031.2</ele>
        <time>2022-07-25T14:40:29Z</time>
      </trkpt>
      <trkpt lat="46.0307400" lon="5.6343060">
        <ele>1031.3</ele>
        <time>2022-07-25T14:40:30Z</time>
      </trkpt>
      <trkpt lat="46.0307110" lon="5.6342880">
        <ele>1031.3</ele>
        <time>2022-07-25T14:40:31Z</time>
      </trkpt>
      <trkpt lat="46.0306820" lon="5.6342710">
        <ele>1031.4</ele>
        <time>2022-07-25T14:40:32Z</time>
      </trkpt>
      <trkpt lat="46.0306510" lon="5.6342530">
        <ele>1031.4</ele>
        <time>2022-07-25T14:40:33Z</time>
      </trkpt>
      <trkpt lat="46.0306240" lon="5.6342390">
        <ele>1031.5</ele>
        <time>2022-07-25T14:40:34Z</time>
      </trkpt>
      <trkpt lat="46.0305930" lon="5.6342250">
        <ele>1031.5</ele>
        <time>2022-07-25T14:40:35Z</time>
      </trkpt>
      <trkpt lat="46.0305620" lon="5.6342120">
        <ele>1031.6</ele>
        <time>2022-07-25T14:40:36Z</time>
      </trkpt>
      <trkpt lat="46.0305230" lon="5.6341960">
        <ele>1031.6</ele>
        <time>2022-07-25T14:40:37Z</time>
      </trkpt>
      <trkpt lat="46.0305090" lon="5.6341900">
        <ele>1031.7</ele>
        <time>2022-07-25T14:40:38Z</time>
      </trkpt>
      <trkpt lat="46.0304810" lon="5.6341780">
        <ele>1031.7</ele>
        <time>2022-07-25T14:40:39Z</time>
      </trkpt>
      <trkpt lat="46.0304500" lon="5.6341630">
        <ele>1031.8</ele>
        <time>2022-07-25T14:40:40Z</time>
      </trkpt>
      <trkpt lat="46.0303970" lon="5.6341440">
        <ele>1031.9</ele>
        <time>2022-07-25T14:40:42Z</time>
      </trkpt>
      <trkpt lat="46.0303520" lon="5.6341300">
        <ele>1032.0</ele>
        <time>2022-07-25T14:40:43Z</time>
      </trkpt>
      <trkpt lat="46.0303210" lon="5.6341190">
        <ele>1032.1</ele>
        <time>2022-07-25T14:40:44Z</time>
      </trkpt>
      <trkpt lat="46.0302880" lon="5.6341060">
        <ele>1032.2</ele>
        <time>2022-07-25T14:40:45Z</time>
      </trkpt>
      <trkpt lat="46.0302600" lon="5.6340940">
        <ele>1032.3</ele>
        <time>2022-07-25T14:40:46Z</time>
      </trkpt>
      <trkpt lat="46.0302260" lon="5.6340790">
        <ele>1032.4</ele>
        <time>2022-07-25T14:40:47Z</time>
      </trkpt>
      <trkpt lat="46.0302130" lon="5.6340740">
        <ele>1032.4</ele>
        <time>2022-07-25T14:40:48Z</time>
      </trkpt>
      <trkpt lat="46.0301870" lon="5.6340610">
        <ele>1032.5</ele>
        <time>2022-07-25T14:40:49Z</time>
      </trkpt>
      <trkpt lat="46.0301520" lon="5.6340420">
        <ele>1032.7</ele>
        <time>2022-07-25T14:40:50Z</time>
      </trkpt>
      <trkpt lat="46.0301400" lon="5.6340350">
        <ele>1032.8</ele>
        <time>2022-07-25T14:40:51Z</time>
      </trkpt>
      <trkpt lat="46.0301120" lon="5.6340150">
        <ele>1032.9</ele>
        <time>2022-07-25T14:40:52Z</time>
      </trkpt>
      <trkpt lat="46.0300870" lon="5.6339950">
        <ele>1033.0</ele>
        <time>2022-07-25T14:40:53Z</time>
      </trkpt>
      <trkpt lat="46.0300610" lon="5.6339760">
        <ele>1033.2</ele>
        <time>2022-07-25T14:40:54Z</time>
      </trkpt>
      <trkpt lat="46.0300260" lon="5.6339520">
        <ele>1033.3</ele>
        <time>2022-07-25T14:40:55Z</time>
      </trkpt>
      <trkpt lat="46.0300150" lon="5.6339430">
        <ele>1033.4</ele>
        <time>2022-07-25T14:40:56Z</time>
      </trkpt>
      <trkpt lat="46.0299860" lon="5.6339160">
        <ele>1033.5</ele>
        <time>2022-07-25T14:40:57Z</time>
      </trkpt>
      <trkpt lat="46.0299740" lon="5.6339050">
        <ele>1033.6</ele>
        <time>2022-07-25T14:40:58Z</time>
      </trkpt>
      <trkpt lat="46.0299410" lon="5.6338710">
        <ele>1033.9</ele>
        <time>2022-07-25T14:40:59Z</time>
      </trkpt>
      <trkpt lat="46.0299300" lon="5.6338600">
        <ele>1033.9</ele>
        <time>2022-07-25T14:41:00Z</time>
      </trkpt>
      <trkpt lat="46.0299000" lon="5.6338280">
        <ele>1034.2</ele>
        <time>2022-07-25T14:41:01Z</time>
      </trkpt>
      <trkpt lat="46.0298910" lon="5.6338170">
        <ele>1034.2</ele>
        <time>2022-07-25T14:41:02Z</time>
      </trkpt>
      <trkpt lat="46.0298770" lon="5.6337880">
        <ele>1034.4</ele>
        <time>2022-07-25T14:41:03Z</time>
      </trkpt>
      <trkpt lat="46.0298700" lon="5.6337750">
        <ele>1034.5</ele>
        <time>2022-07-25T14:41:04Z</time>
      </trkpt>
      <trkpt lat="46.0298430" lon="5.6337380">
        <ele>1034.7</ele>
        <time>2022-07-25T14:41:06Z</time>
      </trkpt>
      <trkpt lat="46.0298190" lon="5.6337040">
        <ele>1034.9</ele>
        <time>2022-07-25T14:41:07Z</time>
      </trkpt>
      <trkpt lat="46.0298110" lon="5.6336960">
        <ele>1035.0</ele>
        <time>2022-07-25T14:41:08Z</time>
      </trkpt>
      <trkpt lat="46.0297970" lon="5.6336820">
        <ele>1035.1</ele>
        <time>2022-07-25T14:41:09Z</time>
      </trkpt>
      <trkpt lat="46.0297890" lon="5.6336720">
        <ele>1035.2</ele>
        <time>2022-07-25T14:41:10Z</time>
      </trkpt>
      <trkpt lat="46.0297770" lon="5.6336440">
        <ele>1035.4</ele>
        <time>2022-07-25T14:41:12Z</time>
      </trkpt>
      <trkpt lat="46.0297690" lon="5.6336300">
        <ele>1035.5</ele>
        <time>2022-07-25T14:41:13Z</time>
      </trkpt>
      <trkpt lat="46.0297490" lon="5.6335840">
        <ele>1035.8</ele>
        <time>2022-07-25T14:41:14Z</time>
      </trkpt>
      <trkpt lat="46.0297220" lon="5.6335310">
        <ele>1036.2</ele>
        <time>2022-07-25T14:41:16Z</time>
      </trkpt>
      <trkpt lat="46.0297130" lon="5.6335160">
        <ele>1036.3</ele>
        <time>2022-07-25T14:41:17Z</time>
      </trkpt>
      <trkpt lat="46.0297050" lon="5.6335010">
        <ele>1036.4</ele>
        <time>2022-07-25T14:41:18Z</time>
      </trkpt>
      <trkpt lat="46.0296810" lon="5.6334750">
        <ele>1036.7</ele>
        <time>2022-07-25T14:41:19Z</time>
      </trkpt>
      <trkpt lat="46.0296730" lon="5.6334670">
        <ele>1036.8</ele>
        <time>2022-07-25T14:41:20Z</time>
      </trkpt>
      <trkpt lat="46.0296610" lon="5.6334530">
        <ele>1036.9</ele>
        <time>2022-07-25T14:41:21Z</time>
      </trkpt>
      <trkpt lat="46.0296550" lon="5.6334340">
        <ele>1037.0</ele>
        <time>2022-07-25T14:41:22Z</time>
      </trkpt>
      <trkpt lat="46.0296480" lon="5.6334110">
        <ele>1037.2</ele>
        <time>2022-07-25T14:41:23Z</time>
      </trkpt>
      <trkpt lat="46.0296380" lon="5.6333740">
        <ele>1037.5</ele>
        <time>2022-07-25T14:41:25Z</time>
      </trkpt>
      <trkpt lat="46.0296250" lon="5.6333340">
        <ele>1037.7</ele>
        <time>2022-07-25T14:41:26Z</time>
      </trkpt>
      <trkpt lat="46.0296220" lon="5.6333260">
        <ele>1037.8</ele>
        <time>2022-07-25T14:41:27Z</time>
      </trkpt>
      <trkpt lat="46.0296160" lon="5.6333030">
        <ele>1037.9</ele>
        <time>2022-07-25T14:41:28Z</time>
      </trkpt>
      <trkpt lat="46.0296060" lon="5.6332540">
        <ele>1038.3</ele>
        <time>2022-07-25T14:41:30Z</time>
      </trkpt>
      <trkpt lat="46.0295980" lon="5.6332140">
        <ele>1038.5</ele>
        <time>2022-07-25T14:41:31Z</time>
      </trkpt>
      <trkpt lat="46.0295930" lon="5.6331930">
        <ele>1038.7</ele>
        <time>2022-07-25T14:41:33Z</time>
      </trkpt>
      <trkpt lat="46.0295910" lon="5.6331790">
        <ele>1038.8</ele>
        <time>2022-07-25T14:41:34Z</time>
      </trkpt>
      <trkpt lat="46.0295880" lon="5.6331650">
        <ele>1038.9</ele>
        <time>2022-07-25T14:41:35Z</time>
      </trkpt>
      <trkpt lat="46.0295870" lon="5.6331460">
        <ele>1039.0</ele>
        <time>2022-07-25T14:41:36Z</time>
      </trkpt>
      <trkpt lat="46.0295850" lon="5.6331240">
        <ele>1039.1</ele>
        <time>2022-07-25T14:41:37Z</time>
      </trkpt>
      <trkpt lat="46.0295830" lon="5.6331060">
        <ele>1039.2</ele>
        <time>2022-07-25T14:41:38Z</time>
      </trkpt>
      <trkpt lat="46.0295810" lon="5.6330830">
        <ele>1039.3</ele>
        <time>2022-07-25T14:41:39Z</time>
      </trkpt>
      <trkpt lat="46.0295790" lon="5.6330600">
        <ele>1039.5</ele>
        <time>2022-07-25T14:41:40Z</time>
      </trkpt>
      <trkpt lat="46.0295770" lon="5.6330350">
        <ele>1039.6</ele>
        <time>2022-07-25T14:41:41Z</time>
      </trkpt>
      <trkpt lat="46.0295750" lon="5.6329940">
        <ele>1039.9</ele>
        <time>2022-07-25T14:41:42Z</time>
      </trkpt>
      <trkpt lat="46.0295750" lon="5.6329810">
        <ele>1039.9</ele>
        <time>2022-07-25T14:41:43Z</time>
      </trkpt>
      <trkpt lat="46.0295750" lon="5.6329550">
        <ele>1040.1</ele>
        <time>2022-07-25T14:41:44Z</time>
      </trkpt>
      <trkpt lat="46.0295710" lon="5.6329300">
        <ele>1040.2</ele>
        <time>2022-07-25T14:41:45Z</time>
      </trkpt>
      <trkpt lat="46.0295610" lon="5.6329100">
        <ele>1040.4</ele>
        <time>2022-07-25T14:41:46Z</time>
      </trkpt>
      <trkpt lat="46.0295550" lon="5.6328870">
        <ele>1040.5</ele>
        <time>2022-07-25T14:41:47Z</time>
      </trkpt>
      <trkpt lat="46.0295500" lon="5.6328660">
        <ele>1040.6</ele>
        <time>2022-07-25T14:41:48Z</time>
      </trkpt>
      <trkpt lat="46.0295440" lon="5.6328470">
        <ele>1040.8</ele>
        <time>2022-07-25T14:41:49Z</time>
      </trkpt>
      <trkpt lat="46.0295330" lon="5.6328090">
        <ele>1041.0</ele>
        <time>2022-07-25T14:41:50Z</time>
      </trkpt>
      <trkpt lat="46.0295300" lon="5.6327940">
        <ele>1041.1</ele>
        <time>2022-07-25T14:41:51Z</time>
      </trkpt>
      <trkpt lat="46.0295200" lon="5.6327480">
        <ele>1041.3</ele>
        <time>2022-07-25T14:41:52Z</time>
      </trkpt>
      <trkpt lat="46.0295170" lon="5.6327320">
        <ele>1041.4</ele>
        <time>2022-07-25T14:41:53Z</time>
      </trkpt>
      <trkpt lat="46.0295090" lon="5.6326870">
        <ele>1041.7</ele>
        <time>2022-07-25T14:41:54Z</time>
      </trkpt>
      <trkpt lat="46.0295060" lon="5.6326730">
        <ele>1041.7</ele>
        <time>2022-07-25T14:41:55Z</time>
      </trkpt>
      <trkpt lat="46.0294980" lon="5.6326430">
        <ele>1041.9</ele>
        <time>2022-07-25T14:41:56Z</time>
      </trkpt>
      <trkpt lat="46.0294810" lon="5.6325850">
        <ele>1042.3</ele>
        <time>2022-07-25T14:41:58Z</time>
      </trkpt>
      <trkpt lat="46.0294770" lon="5.6325360">
        <ele>1042.5</ele>
        <time>2022-07-25T14:41:59Z</time>
      </trkpt>
      <trkpt lat="46.0294740" lon="5.6325220">
        <ele>1042.6</ele>
        <time>2022-07-25T14:42:00Z</time>
      </trkpt>
      <trkpt lat="46.0294690" lon="5.6324820">
        <ele>1042.8</ele>
        <time>2022-07-25T14:42:01Z</time>
      </trkpt>
      <trkpt lat="46.0294670" lon="5.6324660">
        <ele>1042.9</ele>
        <time>2022-07-25T14:42:02Z</time>
      </trkpt>
      <trkpt lat="46.0294610" lon="5.6324220">
        <ele>1043.2</ele>
        <time>2022-07-25T14:42:03Z</time>
      </trkpt>
      <trkpt lat="46.0294600" lon="5.6324060">
        <ele>1043.3</ele>
        <time>2022-07-25T14:42:04Z</time>
      </trkpt>
      <trkpt lat="46.0294540" lon="5.6323680">
        <ele>1043.5</ele>
        <time>2022-07-25T14:42:05Z</time>
      </trkpt>
      <trkpt lat="46.0294520" lon="5.6323550">
        <ele>1043.6</ele>
        <time>2022-07-25T14:42:06Z</time>
      </trkpt>
      <trkpt lat="46.0294510" lon="5.6323140">
        <ele>1043.8</ele>
        <time>2022-07-25T14:42:07Z</time>
      </trkpt>
      <trkpt lat="46.0294510" lon="5.6323020">
        <ele>1043.9</ele>
        <time>2022-07-25T14:42:08Z</time>
      </trkpt>
      <trkpt lat="46.0294480" lon="5.6322500">
        <ele>1044.2</ele>
        <time>2022-07-25T14:42:09Z</time>
      </trkpt>
      <trkpt lat="46.0294470" lon="5.6322360">
        <ele>1044.2</ele>
        <time>2022-07-25T14:42:10Z</time>
      </trkpt>
      <trkpt lat="46.0294460" lon="5.6321910">
        <ele>1044.5</ele>
        <time>2022-07-25T14:42:11Z</time>
      </trkpt>
      <trkpt lat="46.0294460" lon="5.6321750">
        <ele>1044.6</ele>
        <time>2022-07-25T14:42:12Z</time>
      </trkpt>
      <trkpt lat="46.0294450" lon="5.6321310">
        <ele>1044.8</ele>
        <time>2022-07-25T14:42:13Z</time>
      </trkpt>
      <trkpt lat="46.0294450" lon="5.6321130">
        <ele>1045.0</ele>
        <time>2022-07-25T14:42:14Z</time>
      </trkpt>
      <trkpt lat="46.0294460" lon="5.6320670">
        <ele>1045.2</ele>
        <time>2022-07-25T14:42:15Z</time>
      </trkpt>
      <trkpt lat="46.0294460" lon="5.6320500">
        <ele>1045.3</ele>
        <time>2022-07-25T14:42:16Z</time>
      </trkpt>
      <trkpt lat="46.0294450" lon="5.6320240">
        <ele>1045.5</ele>
        <time>2022-07-25T14:42:17Z</time>
      </trkpt>
      <trkpt lat="46.0294450" lon="5.6320050">
        <ele>1045.6</ele>
        <time>2022-07-25T14:42:18Z</time>
      </trkpt>
      <trkpt lat="46.0294480" lon="5.6319630">
        <ele>1045.9</ele>
        <time>2022-07-25T14:42:19Z</time>
      </trkpt>
      <trkpt lat="46.0294490" lon="5.6319500">
        <ele>1046.0</ele>
        <time>2022-07-25T14:42:20Z</time>
      </trkpt>
      <trkpt lat="46.0294520" lon="5.6319260">
        <ele>1046.1</ele>
        <time>2022-07-25T14:42:21Z</time>
      </trkpt>
      <trkpt lat="46.0294540" lon="5.6319090">
        <ele>1046.2</ele>
        <time>2022-07-25T14:42:22Z</time>
      </trkpt>
      <trkpt lat="46.0294580" lon="5.6318860">
        <ele>1046.4</ele>
        <time>2022-07-25T14:42:23Z</time>
      </trkpt>
      <trkpt lat="46.0294610" lon="5.6318640">
        <ele>1046.5</ele>
        <time>2022-07-25T14:42:24Z</time>
      </trkpt>
      <trkpt lat="46.0294620" lon="5.6318480">
        <ele>1046.6</ele>
        <time>2022-07-25T14:42:25Z</time>
      </trkpt>
      <trkpt lat="46.0294620" lon="5.6318230">
        <ele>1046.8</ele>
        <time>2022-07-25T14:42:26Z</time>
      </trkpt>
      <trkpt lat="46.0294610" lon="5.6317920">
        <ele>1047.0</ele>
        <time>2022-07-25T14:42:27Z</time>
      </trkpt>
      <trkpt lat="46.0294690" lon="5.6317350">
        <ele>1047.4</ele>
        <time>2022-07-25T14:42:29Z</time>
      </trkpt>
      <trkpt lat="46.0294750" lon="5.6316910">
        <ele>1047.6</ele>
        <time>2022-07-25T14:42:30Z</time>
      </trkpt>
      <trkpt lat="46.0294810" lon="5.6316520">
        <ele>1047.9</ele>
        <time>2022-07-25T14:42:31Z</time>
      </trkpt>
      <trkpt lat="46.0294840" lon="5.6316390">
        <ele>1048.0</ele>
        <time>2022-07-25T14:42:32Z</time>
      </trkpt>
      <trkpt lat="46.0294870" lon="5.6316150">
        <ele>1048.1</ele>
        <time>2022-07-25T14:42:33Z</time>
      </trkpt>
      <trkpt lat="46.0294890" lon="5.6315890">
        <ele>1048.3</ele>
        <time>2022-07-25T14:42:34Z</time>
      </trkpt>
      <trkpt lat="46.0294910" lon="5.6315490">
        <ele>1048.5</ele>
        <time>2022-07-25T14:42:35Z</time>
      </trkpt>
      <trkpt lat="46.0294920" lon="5.6315340">
        <ele>1048.6</ele>
        <time>2022-07-25T14:42:36Z</time>
      </trkpt>
      <trkpt lat="46.0294930" lon="5.6315060">
        <ele>1048.8</ele>
        <time>2022-07-25T14:42:37Z</time>
      </trkpt>
      <trkpt lat="46.0294950" lon="5.6314850">
        <ele>1048.9</ele>
        <time>2022-07-25T14:42:38Z</time>
      </trkpt>
      <trkpt lat="46.0294990" lon="5.6314370">
        <ele>1049.2</ele>
        <time>2022-07-25T14:42:39Z</time>
      </trkpt>
      <trkpt lat="46.0295010" lon="5.6314220">
        <ele>1049.3</ele>
        <time>2022-07-25T14:42:40Z</time>
      </trkpt>
      <trkpt lat="46.0295070" lon="5.6313730">
        <ele>1049.5</ele>
        <time>2022-07-25T14:42:41Z</time>
      </trkpt>
      <trkpt lat="46.0295090" lon="5.6313570">
        <ele>1049.6</ele>
        <time>2022-07-25T14:42:42Z</time>
      </trkpt>
      <trkpt lat="46.0295120" lon="5.6313160">
        <ele>1049.8</ele>
        <time>2022-07-25T14:42:43Z</time>
      </trkpt>
      <trkpt lat="46.0295130" lon="5.6313020">
        <ele>1049.9</ele>
        <time>2022-07-25T14:42:44Z</time>
      </trkpt>
      <trkpt lat="46.0295130" lon="5.6312810">
        <ele>1050.0</ele>
        <time>2022-07-25T14:42:45Z</time>
      </trkpt>
      <trkpt lat="46.0295100" lon="5.6312560">
        <ele>1050.1</ele>
        <time>2022-07-25T14:42:46Z</time>
      </trkpt>
      <trkpt lat="46.0295070" lon="5.6312080">
        <ele>1050.3</ele>
        <time>2022-07-25T14:42:47Z</time>
      </trkpt>
      <trkpt lat="46.0295060" lon="5.6311940">
        <ele>1050.4</ele>
        <time>2022-07-25T14:42:48Z</time>
      </trkpt>
      <trkpt lat="46.0295120" lon="5.6311530">
        <ele>1050.5</ele>
        <time>2022-07-25T14:42:49Z</time>
      </trkpt>
      <trkpt lat="46.0295150" lon="5.6311390">
        <ele>1050.6</ele>
        <time>2022-07-25T14:42:50Z</time>
      </trkpt>
      <trkpt lat="46.0295170" lon="5.6310870">
        <ele>1050.8</ele>
        <time>2022-07-25T14:42:51Z</time>
      </trkpt>
      <trkpt lat="46.0295170" lon="5.6310680">
        <ele>1050.9</ele>
        <time>2022-07-25T14:42:52Z</time>
      </trkpt>
      <trkpt lat="46.0295070" lon="5.6310230">
        <ele>1051.0</ele>
        <time>2022-07-25T14:42:53Z</time>
      </trkpt>
      <trkpt lat="46.0295040" lon="5.6310070">
        <ele>1051.1</ele>
        <time>2022-07-25T14:42:54Z</time>
      </trkpt>
      <trkpt lat="46.0294950" lon="5.6309580">
        <ele>1051.2</ele>
        <time>2022-07-25T14:42:55Z</time>
      </trkpt>
      <trkpt lat="46.0294920" lon="5.6309400">
        <ele>1051.3</ele>
        <time>2022-07-25T14:42:56Z</time>
      </trkpt>
      <trkpt lat="46.0294880" lon="5.6308870">
        <ele>1051.4</ele>
        <time>2022-07-25T14:42:57Z</time>
      </trkpt>
      <trkpt lat="46.0294880" lon="5.6308690">
        <ele>1051.4</ele>
        <time>2022-07-25T14:42:58Z</time>
      </trkpt>
      <trkpt lat="46.0294860" lon="5.6308150">
        <ele>1051.6</ele>
        <time>2022-07-25T14:42:59Z</time>
      </trkpt>
      <trkpt lat="46.0294850" lon="5.6307960">
        <ele>1051.6</ele>
        <time>2022-07-25T14:43:00Z</time>
      </trkpt>
      <trkpt lat="46.0294810" lon="5.6307560">
        <ele>1051.7</ele>
        <time>2022-07-25T14:43:01Z</time>
      </trkpt>
      <trkpt lat="46.0294790" lon="5.6307140">
        <ele>1051.8</ele>
        <time>2022-07-25T14:43:02Z</time>
      </trkpt>
      <trkpt lat="46.0294730" lon="5.6306580">
        <ele>1051.9</ele>
        <time>2022-07-25T14:43:03Z</time>
      </trkpt>
      <trkpt lat="46.0294710" lon="5.6306390">
        <ele>1051.9</ele>
        <time>2022-07-25T14:43:04Z</time>
      </trkpt>
      <trkpt lat="46.0294660" lon="5.6306000">
        <ele>1051.9</ele>
        <time>2022-07-25T14:43:05Z</time>
      </trkpt>
      <trkpt lat="46.0294620" lon="5.6305570">
        <ele>1052.0</ele>
        <time>2022-07-25T14:43:06Z</time>
      </trkpt>
      <trkpt lat="46.0294580" lon="5.6305130">
        <ele>1052.0</ele>
        <time>2022-07-25T14:43:07Z</time>
      </trkpt>
      <trkpt lat="46.0294570" lon="5.6304630">
        <ele>1052.1</ele>
        <time>2022-07-25T14:43:08Z</time>
      </trkpt>
      <trkpt lat="46.0294590" lon="5.6304170">
        <ele>1052.1</ele>
        <time>2022-07-25T14:43:09Z</time>
      </trkpt>
      <trkpt lat="46.0294600" lon="5.6303690">
        <ele>1052.1</ele>
        <time>2022-07-25T14:43:10Z</time>
      </trkpt>
      <trkpt lat="46.0294600" lon="5.6303230">
        <ele>1052.1</ele>
        <time>2022-07-25T14:43:11Z</time>
      </trkpt>
      <trkpt lat="46.0294580" lon="5.6302740">
        <ele>1052.1</ele>
        <time>2022-07-25T14:43:12Z</time>
      </trkpt>
      <trkpt lat="46.0294580" lon="5.6302270">
        <ele>1052.1</ele>
        <time>2022-07-25T14:43:13Z</time>
      </trkpt>
      <trkpt lat="46.0294550" lon="5.6301790">
        <ele>1052.1</ele>
        <time>2022-07-25T14:43:14Z</time>
      </trkpt>
      <trkpt lat="46.0294520" lon="5.6301320">
        <ele>1052.1</ele>
        <time>2022-07-25T14:43:15Z</time>
      </trkpt>
      <trkpt lat="46.0294490" lon="5.6300820">
        <ele>1052.1</ele>
        <time>2022-07-25T14:43:16Z</time>
      </trkpt>
      <trkpt lat="46.0294510" lon="5.6300260">
        <ele>1052.1</ele>
        <time>2022-07-25T14:43:17Z</time>
      </trkpt>
      <trkpt lat="46.0294520" lon="5.6300040">
        <ele>1052.0</ele>
        <time>2022-07-25T14:43:18Z</time>
      </trkpt>
      <trkpt lat="46.0294510" lon="5.6299490">
        <ele>1052.0</ele>
        <time>2022-07-25T14:43:19Z</time>
      </trkpt>
      <trkpt lat="46.0294480" lon="5.6299230">
        <ele>1052.0</ele>
        <time>2022-07-25T14:43:20Z</time>
      </trkpt>
      <trkpt lat="46.0294440" lon="5.6298750">
        <ele>1052.0</ele>
        <time>2022-07-25T14:43:21Z</time>
      </trkpt>
      <trkpt lat="46.0294400" lon="5.6298220">
        <ele>1051.9</ele>
        <time>2022-07-25T14:43:22Z</time>
      </trkpt>
      <trkpt lat="46.0294400" lon="5.6297700">
        <ele>1051.9</ele>
        <time>2022-07-25T14:43:23Z</time>
      </trkpt>
      <trkpt lat="46.0294440" lon="5.6297210">
        <ele>1051.9</ele>
        <time>2022-07-25T14:43:24Z</time>
      </trkpt>
      <trkpt lat="46.0294530" lon="5.6296610">
        <ele>1051.8</ele>
        <time>2022-07-25T14:43:25Z</time>
      </trkpt>
      <trkpt lat="46.0294640" lon="5.6296020">
        <ele>1051.8</ele>
        <time>2022-07-25T14:43:26Z</time>
      </trkpt>
      <trkpt lat="46.0294750" lon="5.6295470">
        <ele>1051.7</ele>
        <time>2022-07-25T14:43:27Z</time>
      </trkpt>
      <trkpt lat="46.0294820" lon="5.6295040">
        <ele>1051.7</ele>
        <time>2022-07-25T14:43:28Z</time>
      </trkpt>
      <trkpt lat="46.0294810" lon="5.6294590">
        <ele>1051.7</ele>
        <time>2022-07-25T14:43:29Z</time>
      </trkpt>
      <trkpt lat="46.0294760" lon="5.6293880">
        <ele>1051.6</ele>
        <time>2022-07-25T14:43:30Z</time>
      </trkpt>
      <trkpt lat="46.0294690" lon="5.6293290">
        <ele>1051.5</ele>
        <time>2022-07-25T14:43:32Z</time>
      </trkpt>
      <trkpt lat="46.0294650" lon="5.6292780">
        <ele>1051.5</ele>
        <time>2022-07-25T14:43:33Z</time>
      </trkpt>
      <trkpt lat="46.0294650" lon="5.6292150">
        <ele>1051.4</ele>
        <time>2022-07-25T14:43:34Z</time>
      </trkpt>
      <trkpt lat="46.0294720" lon="5.6291410">
        <ele>1051.3</ele>
        <time>2022-07-25T14:43:35Z</time>
      </trkpt>
      <trkpt lat="46.0294800" lon="5.6290770">
        <ele>1051.2</ele>
        <time>2022-07-25T14:43:36Z</time>
      </trkpt>
      <trkpt lat="46.0294860" lon="5.6290140">
        <ele>1051.1</ele>
        <time>2022-07-25T14:43:37Z</time>
      </trkpt>
      <trkpt lat="46.0294890" lon="5.6289570">
        <ele>1051.0</ele>
        <time>2022-07-25T14:43:38Z</time>
      </trkpt>
      <trkpt lat="46.0295130" lon="5.6288750">
        <ele>1050.9</ele>
        <time>2022-07-25T14:43:39Z</time>
      </trkpt>
      <trkpt lat="46.0295220" lon="5.6288100">
        <ele>1050.8</ele>
        <time>2022-07-25T14:43:40Z</time>
      </trkpt>
      <trkpt lat="46.0295390" lon="5.6287610">
        <ele>1050.7</ele>
        <time>2022-07-25T14:43:41Z</time>
      </trkpt>
      <trkpt lat="46.0295720" lon="5.6286760">
        <ele>1050.5</ele>
        <time>2022-07-25T14:43:42Z</time>
      </trkpt>
      <trkpt lat="46.0295860" lon="5.6286110">
        <ele>1050.4</ele>
        <time>2022-07-25T14:43:43Z</time>
      </trkpt>
      <trkpt lat="46.0295920" lon="5.6285560">
        <ele>1050.4</ele>
        <time>2022-07-25T14:43:44Z</time>
      </trkpt>
      <trkpt lat="46.0295850" lon="5.6284760">
        <ele>1050.2</ele>
        <time>2022-07-25T14:43:45Z</time>
      </trkpt>
      <trkpt lat="46.0295930" lon="5.6284000">
        <ele>1050.1</ele>
        <time>2022-07-25T14:43:46Z</time>
      </trkpt>
      <trkpt lat="46.0296050" lon="5.6283310">
        <ele>1050.0</ele>
        <time>2022-07-25T14:43:47Z</time>
      </trkpt>
      <trkpt lat="46.0296070" lon="5.6282560">
        <ele>1049.9</ele>
        <time>2022-07-25T14:43:48Z</time>
      </trkpt>
      <trkpt lat="46.0296150" lon="5.6281900">
        <ele>1049.8</ele>
        <time>2022-07-25T14:43:49Z</time>
      </trkpt>
      <trkpt lat="46.0296180" lon="5.6281320">
        <ele>1049.7</ele>
        <time>2022-07-25T14:43:50Z</time>
      </trkpt>
      <trkpt lat="46.0296310" lon="5.6280550">
        <ele>1049.6</ele>
        <time>2022-07-25T14:43:52Z</time>
      </trkpt>
      <trkpt lat="46.0296460" lon="5.6279940">
        <ele>1049.6</ele>
        <time>2022-07-25T14:43:53Z</time>
      </trkpt>
      <trkpt lat="46.0296580" lon="5.6279300">
        <ele>1049.5</ele>
        <time>2022-07-25T14:43:54Z</time>
      </trkpt>
      <trkpt lat="46.0296620" lon="5.6278650">
        <ele>1049.5</ele>
        <time>2022-07-25T14:43:55Z</time>
      </trkpt>
      <trkpt lat="46.0296720" lon="5.6278100">
        <ele>1049.5</ele>
        <time>2022-07-25T14:43:56Z</time>
      </trkpt>
      <trkpt lat="46.0296870" lon="5.6277560">
        <ele>1049.4</ele>
        <time>2022-07-25T14:43:57Z</time>
      </trkpt>
      <trkpt lat="46.0297110" lon="5.6276660">
        <ele>1049.4</ele>
        <time>2022-07-25T14:43:59Z</time>
      </trkpt>
      <trkpt lat="46.0297340" lon="5.6276070">
        <ele>1049.3</ele>
        <time>2022-07-25T14:44:00Z</time>
      </trkpt>
      <trkpt lat="46.0297680" lon="5.6275490">
        <ele>1049.3</ele>
        <time>2022-07-25T14:44:02Z</time>
      </trkpt>
      <trkpt lat="46.0297940" lon="5.6275030">
        <ele>1049.3</ele>
        <time>2022-07-25T14:44:03Z</time>
      </trkpt>
      <trkpt lat="46.0298210" lon="5.6274550">
        <ele>1049.3</ele>
        <time>2022-07-25T14:44:04Z</time>
      </trkpt>
      <trkpt lat="46.0298600" lon="5.6274050">
        <ele>1049.3</ele>
        <time>2022-07-25T14:44:05Z</time>
      </trkpt>
      <trkpt lat="46.0298960" lon="5.6273620">
        <ele>1049.3</ele>
        <time>2022-07-25T14:44:06Z</time>
      </trkpt>
      <trkpt lat="46.0299280" lon="5.6273270">
        <ele>1049.2</ele>
        <time>2022-07-25T14:44:07Z</time>
      </trkpt>
      <trkpt lat="46.0299610" lon="5.6272870">
        <ele>1049.2</ele>
        <time>2022-07-25T14:44:08Z</time>
      </trkpt>
      <trkpt lat="46.0300060" lon="5.6272300">
        <ele>1049.2</ele>
        <time>2022-07-25T14:44:09Z</time>
      </trkpt>
      <trkpt lat="46.0300440" lon="5.6271770">
        <ele>1049.2</ele>
        <time>2022-07-25T14:44:11Z</time>
      </trkpt>
      <trkpt lat="46.0301140" lon="5.6271090">
        <ele>1049.1</ele>
        <time>2022-07-25T14:44:12Z</time>
      </trkpt>
      <trkpt lat="46.0301470" lon="5.6270580">
        <ele>1049.1</ele>
        <time>2022-07-25T14:44:13Z</time>
      </trkpt>
      <trkpt lat="46.0301750" lon="5.6270190">
        <ele>1049.1</ele>
        <time>2022-07-25T14:44:14Z</time>
      </trkpt>
      <trkpt lat="46.0302080" lon="5.6269700">
        <ele>1049.0</ele>
        <time>2022-07-25T14:44:15Z</time>
      </trkpt>
      <trkpt lat="46.0302410" lon="5.6269250">
        <ele>1049.0</ele>
        <time>2022-07-25T14:44:16Z</time>
      </trkpt>
      <trkpt lat="46.0302730" lon="5.6268770">
        <ele>1048.9</ele>
        <time>2022-07-25T14:44:17Z</time>
      </trkpt>
      <trkpt lat="46.0303150" lon="5.6268250">
        <ele>1048.9</ele>
        <time>2022-07-25T14:44:18Z</time>
      </trkpt>
      <trkpt lat="46.0303420" lon="5.6267670">
        <ele>1048.9</ele>
        <time>2022-07-25T14:44:20Z</time>
      </trkpt>
      <trkpt lat="46.0303690" lon="5.6267030">
        <ele>1048.8</ele>
        <time>2022-07-25T14:44:21Z</time>
      </trkpt>
      <trkpt lat="46.0303940" lon="5.6266540">
        <ele>1048.8</ele>
        <time>2022-07-25T14:44:22Z</time>
      </trkpt>
      <trkpt lat="46.0304230" lon="5.6265970">
        <ele>1048.9</ele>
        <time>2022-07-25T14:44:23Z</time>
      </trkpt>
      <trkpt lat="46.0304660" lon="5.6265230">
        <ele>1048.9</ele>
        <time>2022-07-25T14:44:24Z</time>
      </trkpt>
      <trkpt lat="46.0305070" lon="5.6264520">
        <ele>1049.0</ele>
        <time>2022-07-25T14:44:26Z</time>
      </trkpt>
      <trkpt lat="46.0305320" lon="5.6264070">
        <ele>1049.0</ele>
        <time>2022-07-25T14:44:27Z</time>
      </trkpt>
      <trkpt lat="46.0306000" lon="5.6263130">
        <ele>1049.2</ele>
        <time>2022-07-25T14:44:28Z</time>
      </trkpt>
      <trkpt lat="46.0306330" lon="5.6262610">
        <ele>1049.3</ele>
        <time>2022-07-25T14:44:29Z</time>
      </trkpt>
      <trkpt lat="46.0306510" lon="5.6262160">
        <ele>1049.3</ele>
        <time>2022-07-25T14:44:30Z</time>
      </trkpt>
      <trkpt lat="46.0306730" lon="5.6261730">
        <ele>1049.4</ele>
        <time>2022-07-25T14:44:31Z</time>
      </trkpt>
      <trkpt lat="46.0307070" lon="5.6261380">
        <ele>1049.5</ele>
        <time>2022-07-25T14:44:32Z</time>
      </trkpt>
      <trkpt lat="46.0307360" lon="5.6260990">
        <ele>1049.6</ele>
        <time>2022-07-25T14:44:33Z</time>
      </trkpt>
      <trkpt lat="46.0307620" lon="5.6260670">
        <ele>1049.8</ele>
        <time>2022-07-25T14:44:34Z</time>
      </trkpt>
      <trkpt lat="46.0307940" lon="5.6260380">
        <ele>1049.9</ele>
        <time>2022-07-25T14:44:35Z</time>
      </trkpt>
      <trkpt lat="46.0308410" lon="5.6260050">
        <ele>1050.1</ele>
        <time>2022-07-25T14:44:37Z</time>
      </trkpt>
      <trkpt lat="46.0308670" lon="5.6259820">
        <ele>1050.2</ele>
        <time>2022-07-25T14:44:38Z</time>
      </trkpt>
      <trkpt lat="46.0309130" lon="5.6259520">
        <ele>1050.4</ele>
        <time>2022-07-25T14:44:39Z</time>
      </trkpt>
      <trkpt lat="46.0309510" lon="5.6259350">
        <ele>1050.6</ele>
        <time>2022-07-25T14:44:40Z</time>
      </trkpt>
      <trkpt lat="46.0309940" lon="5.6259080">
        <ele>1050.9</ele>
        <time>2022-07-25T14:44:42Z</time>
      </trkpt>
      <trkpt lat="46.0310240" lon="5.6258770">
        <ele>1051.1</ele>
        <time>2022-07-25T14:44:43Z</time>
      </trkpt>
      <trkpt lat="46.0310350" lon="5.6258640">
        <ele>1051.1</ele>
        <time>2022-07-25T14:44:44Z</time>
      </trkpt>
      <trkpt lat="46.0310590" lon="5.6258380">
        <ele>1051.3</ele>
        <time>2022-07-25T14:44:45Z</time>
      </trkpt>
      <trkpt lat="46.0310670" lon="5.6258300">
        <ele>1051.3</ele>
        <time>2022-07-25T14:44:46Z</time>
      </trkpt>
      <trkpt lat="46.0310910" lon="5.6258010">
        <ele>1051.5</ele>
        <time>2022-07-25T14:44:47Z</time>
      </trkpt>
      <trkpt lat="46.0310990" lon="5.6257920">
        <ele>1051.6</ele>
        <time>2022-07-25T14:44:48Z</time>
      </trkpt>
      <trkpt lat="46.0311310" lon="5.6257670">
        <ele>1051.7</ele>
        <time>2022-07-25T14:44:49Z</time>
      </trkpt>
      <trkpt lat="46.0311420" lon="5.6257610">
        <ele>1051.8</ele>
        <time>2022-07-25T14:44:50Z</time>
      </trkpt>
      <trkpt lat="46.0311660" lon="5.6257400">
        <ele>1052.0</ele>
        <time>2022-07-25T14:44:51Z</time>
      </trkpt>
      <trkpt lat="46.0311740" lon="5.6257320">
        <ele>1052.0</ele>
        <time>2022-07-25T14:44:52Z</time>
      </trkpt>
      <trkpt lat="46.0311970" lon="5.6257050">
        <ele>1052.2</ele>
        <time>2022-07-25T14:44:53Z</time>
      </trkpt>
      <trkpt lat="46.0312070" lon="5.6256960">
        <ele>1052.2</ele>
        <time>2022-07-25T14:44:54Z</time>
      </trkpt>
      <trkpt lat="46.0312340" lon="5.6256700">
        <ele>1052.4</ele>
        <time>2022-07-25T14:44:55Z</time>
      </trkpt>
      <trkpt lat="46.0312430" lon="5.6256620">
        <ele>1052.5</ele>
        <time>2022-07-25T14:44:56Z</time>
      </trkpt>
      <trkpt lat="46.0312710" lon="5.6256340">
        <ele>1052.7</ele>
        <time>2022-07-25T14:44:57Z</time>
      </trkpt>
      <trkpt lat="46.0312790" lon="5.6256240">
        <ele>1052.7</ele>
        <time>2022-07-25T14:44:58Z</time>
      </trkpt>
      <trkpt lat="46.0313060" lon="5.6255900">
        <ele>1052.9</ele>
        <time>2022-07-25T14:44:59Z</time>
      </trkpt>
      <trkpt lat="46.0313150" lon="5.6255800">
        <ele>1053.0</ele>
        <time>2022-07-25T14:45:00Z</time>
      </trkpt>
      <trkpt lat="46.0313350" lon="5.6255390">
        <ele>1053.2</ele>
        <time>2022-07-25T14:45:01Z</time>
      </trkpt>
      <trkpt lat="46.0313420" lon="5.6255200">
        <ele>1053.3</ele>
        <time>2022-07-25T14:45:02Z</time>
      </trkpt>
      <trkpt lat="46.0313580" lon="5.6254730">
        <ele>1053.5</ele>
        <time>2022-07-25T14:45:03Z</time>
      </trkpt>
      <trkpt lat="46.0313630" lon="5.6254580">
        <ele>1053.5</ele>
        <time>2022-07-25T14:45:04Z</time>
      </trkpt>
      <trkpt lat="46.0313820" lon="5.6254230">
        <ele>1053.7</ele>
        <time>2022-07-25T14:45:05Z</time>
      </trkpt>
      <trkpt lat="46.0313890" lon="5.6254100">
        <ele>1053.8</ele>
        <time>2022-07-25T14:45:06Z</time>
      </trkpt>
      <trkpt lat="46.0314120" lon="5.6253780">
        <ele>1053.9</ele>
        <time>2022-07-25T14:45:07Z</time>
      </trkpt>
      <trkpt lat="46.0314200" lon="5.6253690">
        <ele>1054.0</ele>
        <time>2022-07-25T14:45:08Z</time>
      </trkpt>
      <trkpt lat="46.0314390" lon="5.6253340">
        <ele>1054.2</ele>
        <time>2022-07-25T14:45:09Z</time>
      </trkpt>
      <trkpt lat="46.0314440" lon="5.6253210">
        <ele>1054.2</ele>
        <time>2022-07-25T14:45:10Z</time>
      </trkpt>
      <trkpt lat="46.0314500" lon="5.6252720">
        <ele>1054.4</ele>
        <time>2022-07-25T14:45:11Z</time>
      </trkpt>
      <trkpt lat="46.0314540" lon="5.6252550">
        <ele>1054.5</ele>
        <time>2022-07-25T14:45:12Z</time>
      </trkpt>
      <trkpt lat="46.0314750" lon="5.6252170">
        <ele>1054.7</ele>
        <time>2022-07-25T14:45:13Z</time>
      </trkpt>
      <trkpt lat="46.0314820" lon="5.6252080">
        <ele>1054.7</ele>
        <time>2022-07-25T14:45:14Z</time>
      </trkpt>
      <trkpt lat="46.0315050" lon="5.6251870">
        <ele>1054.9</ele>
        <time>2022-07-25T14:45:15Z</time>
      </trkpt>
      <trkpt lat="46.0315120" lon="5.6251780">
        <ele>1055.0</ele>
        <time>2022-07-25T14:45:16Z</time>
      </trkpt>
      <trkpt lat="46.0315270" lon="5.6251450">
        <ele>1055.1</ele>
        <time>2022-07-25T14:45:17Z</time>
      </trkpt>
      <trkpt lat="46.0315320" lon="5.6251320">
        <ele>1055.2</ele>
        <time>2022-07-25T14:45:18Z</time>
      </trkpt>
      <trkpt lat="46.0315470" lon="5.6250920">
        <ele>1055.4</ele>
        <time>2022-07-25T14:45:19Z</time>
      </trkpt>
      <trkpt lat="46.0315520" lon="5.6250790">
        <ele>1055.4</ele>
        <time>2022-07-25T14:45:20Z</time>
      </trkpt>
      <trkpt lat="46.0315650" lon="5.6250330">
        <ele>1055.6</ele>
        <time>2022-07-25T14:45:21Z</time>
      </trkpt>
      <trkpt lat="46.0315700" lon="5.6250170">
        <ele>1055.7</ele>
        <time>2022-07-25T14:45:22Z</time>
      </trkpt>
      <trkpt lat="46.0315880" lon="5.6249760">
        <ele>1055.9</ele>
        <time>2022-07-25T14:45:23Z</time>
      </trkpt>
      <trkpt lat="46.0315950" lon="5.6249620">
        <ele>1056.0</ele>
        <time>2022-07-25T14:45:24Z</time>
      </trkpt>
      <trkpt lat="46.0316140" lon="5.6249190">
        <ele>1056.2</ele>
        <time>2022-07-25T14:45:26Z</time>
      </trkpt>
      <trkpt lat="46.0316250" lon="5.6248780">
        <ele>1056.4</ele>
        <time>2022-07-25T14:45:27Z</time>
      </trkpt>
      <trkpt lat="46.0316310" lon="5.6248380">
        <ele>1056.5</ele>
        <time>2022-07-25T14:45:28Z</time>
      </trkpt>
      <trkpt lat="46.0316380" lon="5.6247920">
        <ele>1056.8</ele>
        <time>2022-07-25T14:45:29Z</time>
      </trkpt>
      <trkpt lat="46.0316400" lon="5.6247790">
        <ele>1056.8</ele>
        <time>2022-07-25T14:45:30Z</time>
      </trkpt>
      <trkpt lat="46.0316510" lon="5.6247260">
        <ele>1057.1</ele>
        <time>2022-07-25T14:45:32Z</time>
      </trkpt>
      <trkpt lat="46.0316560" lon="5.6246750">
        <ele>1057.3</ele>
        <time>2022-07-25T14:45:33Z</time>
      </trkpt>
      <trkpt lat="46.0316570" lon="5.6246570">
        <ele>1057.4</ele>
        <time>2022-07-25T14:45:34Z</time>
      </trkpt>
      <trkpt lat="46.0316640" lon="5.6246040">
        <ele>1057.7</ele>
        <time>2022-07-25T14:45:36Z</time>
      </trkpt>
      <trkpt lat="46.0316660" lon="5.6245910">
        <ele>1057.7</ele>
        <time>2022-07-25T14:45:37Z</time>
      </trkpt>
      <trkpt lat="46.0316670" lon="5.6245770">
        <ele>1057.8</ele>
        <time>2022-07-25T14:45:38Z</time>
      </trkpt>
      <trkpt lat="46.0316680" lon="5.6245630">
        <ele>1057.8</ele>
        <time>2022-07-25T14:45:39Z</time>
      </trkpt>
      <trkpt lat="46.0316640" lon="5.6245370">
        <ele>1058.0</ele>
        <time>2022-07-25T14:45:40Z</time>
      </trkpt>
      <trkpt lat="46.0316610" lon="5.6245130">
        <ele>1058.1</ele>
        <time>2022-07-25T14:45:41Z</time>
      </trkpt>
      <trkpt lat="46.0316610" lon="5.6244880">
        <ele>1058.2</ele>
        <time>2022-07-25T14:45:42Z</time>
      </trkpt>
      <trkpt lat="46.0316620" lon="5.6244670">
        <ele>1058.3</ele>
        <time>2022-07-25T14:45:43Z</time>
      </trkpt>
      <trkpt lat="46.0316640" lon="5.6244440">
        <ele>1058.4</ele>
        <time>2022-07-25T14:45:44Z</time>
      </trkpt>
      <trkpt lat="46.0316670" lon="5.6244250">
        <ele>1058.5</ele>
        <time>2022-07-25T14:45:45Z</time>
      </trkpt>
      <trkpt lat="46.0316690" lon="5.6244030">
        <ele>1058.6</ele>
        <time>2022-07-25T14:45:46Z</time>
      </trkpt>
      <trkpt lat="46.0316680" lon="5.6243790">
        <ele>1058.7</ele>
        <time>2022-07-25T14:45:47Z</time>
      </trkpt>
      <trkpt lat="46.0316690" lon="5.6243540">
        <ele>1058.8</ele>
        <time>2022-07-25T14:45:48Z</time>
      </trkpt>
      <trkpt lat="46.0316810" lon="5.6243100">
        <ele>1059.1</ele>
        <time>2022-07-25T14:45:50Z</time>
      </trkpt>
      <trkpt lat="46.0317010" lon="5.6242580">
        <ele>1059.3</ele>
        <time>2022-07-25T14:45:51Z</time>
      </trkpt>
      <trkpt lat="46.0317170" lon="5.6242280">
        <ele>1059.5</ele>
        <time>2022-07-25T14:45:52Z</time>
      </trkpt>
      <trkpt lat="46.0317400" lon="5.6241910">
        <ele>1059.7</ele>
        <time>2022-07-25T14:45:54Z</time>
      </trkpt>
      <trkpt lat="46.0317590" lon="5.6241580">
        <ele>1059.8</ele>
        <time>2022-07-25T14:45:55Z</time>
      </trkpt>
      <trkpt lat="46.0317770" lon="5.6241220">
        <ele>1060.0</ele>
        <time>2022-07-25T14:45:56Z</time>
      </trkpt>
      <trkpt lat="46.0317980" lon="5.6240710">
        <ele>1060.2</ele>
        <time>2022-07-25T14:45:57Z</time>
      </trkpt>
      <trkpt lat="46.0318140" lon="5.6240320">
        <ele>1060.3</ele>
        <time>2022-07-25T14:45:58Z</time>
      </trkpt>
      <trkpt lat="46.0318370" lon="5.6239860">
        <ele>1060.5</ele>
        <time>2022-07-25T14:45:59Z</time>
      </trkpt>
      <trkpt lat="46.0318440" lon="5.6239700">
        <ele>1060.6</ele>
        <time>2022-07-25T14:46:00Z</time>
      </trkpt>
      <trkpt lat="46.0318730" lon="5.6239230">
        <ele>1060.8</ele>
        <time>2022-07-25T14:46:01Z</time>
      </trkpt>
      <trkpt lat="46.0318860" lon="5.6239060">
        <ele>1060.9</ele>
        <time>2022-07-25T14:46:02Z</time>
      </trkpt>
      <trkpt lat="46.0319090" lon="5.6238790">
        <ele>1061.0</ele>
        <time>2022-07-25T14:46:03Z</time>
      </trkpt>
      <trkpt lat="46.0319350" lon="5.6238430">
        <ele>1061.2</ele>
        <time>2022-07-25T14:46:04Z</time>
      </trkpt>
      <trkpt lat="46.0319440" lon="5.6238300">
        <ele>1061.2</ele>
        <time>2022-07-25T14:46:05Z</time>
      </trkpt>
      <trkpt lat="46.0319640" lon="5.6238000">
        <ele>1061.4</ele>
        <time>2022-07-25T14:46:06Z</time>
      </trkpt>
      <trkpt lat="46.0319850" lon="5.6237630">
        <ele>1061.5</ele>
        <time>2022-07-25T14:46:07Z</time>
      </trkpt>
      <trkpt lat="46.0319890" lon="5.6237540">
        <ele>1061.6</ele>
        <time>2022-07-25T14:46:08Z</time>
      </trkpt>
      <trkpt lat="46.0320130" lon="5.6237120">
        <ele>1061.7</ele>
        <time>2022-07-25T14:46:10Z</time>
      </trkpt>
      <trkpt lat="46.0320520" lon="5.6236850">
        <ele>1061.9</ele>
        <time>2022-07-25T14:46:11Z</time>
      </trkpt>
      <trkpt lat="46.0320820" lon="5.6236560">
        <ele>1062.1</ele>
        <time>2022-07-25T14:46:12Z</time>
      </trkpt>
      <trkpt lat="46.0320910" lon="5.6236460">
        <ele>1062.1</ele>
        <time>2022-07-25T14:46:13Z</time>
      </trkpt>
      <trkpt lat="46.0321120" lon="5.6236020">
        <ele>1062.3</ele>
        <time>2022-07-25T14:46:14Z</time>
      </trkpt>
      <trkpt lat="46.0321180" lon="5.6235880">
        <ele>1062.3</ele>
        <time>2022-07-25T14:46:15Z</time>
      </trkpt>
      <trkpt lat="46.0321350" lon="5.6235460">
        <ele>1062.4</ele>
        <time>2022-07-25T14:46:16Z</time>
      </trkpt>
      <trkpt lat="46.0321410" lon="5.6235330">
        <ele>1062.5</ele>
        <time>2022-07-25T14:46:17Z</time>
      </trkpt>
      <trkpt lat="46.0321510" lon="5.6234970">
        <ele>1062.6</ele>
        <time>2022-07-25T14:46:18Z</time>
      </trkpt>
      <trkpt lat="46.0321690" lon="5.6234510">
        <ele>1062.7</ele>
        <time>2022-07-25T14:46:19Z</time>
      </trkpt>
      <trkpt lat="46.0321740" lon="5.6234370">
        <ele>1062.8</ele>
        <time>2022-07-25T14:46:20Z</time>
      </trkpt>
      <trkpt lat="46.0321960" lon="5.6234000">
        <ele>1062.9</ele>
        <time>2022-07-25T14:46:21Z</time>
      </trkpt>
      <trkpt lat="46.0322030" lon="5.6233890">
        <ele>1063.0</ele>
        <time>2022-07-25T14:46:22Z</time>
      </trkpt>
      <trkpt lat="46.0322240" lon="5.6233460">
        <ele>1063.1</ele>
        <time>2022-07-25T14:46:23Z</time>
      </trkpt>
      <trkpt lat="46.0322300" lon="5.6233270">
        <ele>1063.2</ele>
        <time>2022-07-25T14:46:24Z</time>
      </trkpt>
      <trkpt lat="46.0322450" lon="5.6232790">
        <ele>1063.3</ele>
        <time>2022-07-25T14:46:25Z</time>
      </trkpt>
      <trkpt lat="46.0322520" lon="5.6232600">
        <ele>1063.4</ele>
        <time>2022-07-25T14:46:26Z</time>
      </trkpt>
      <trkpt lat="46.0322700" lon="5.6232130">
        <ele>1063.6</ele>
        <time>2022-07-25T14:46:27Z</time>
      </trkpt>
      <trkpt lat="46.0322760" lon="5.6231980">
        <ele>1063.6</ele>
        <time>2022-07-25T14:46:28Z</time>
      </trkpt>
      <trkpt lat="46.0322920" lon="5.6231510">
        <ele>1063.8</ele>
        <time>2022-07-25T14:46:29Z</time>
      </trkpt>
      <trkpt lat="46.0322990" lon="5.6231340">
        <ele>1063.9</ele>
        <time>2022-07-25T14:46:30Z</time>
      </trkpt>
      <trkpt lat="46.0323090" lon="5.6230790">
        <ele>1064.0</ele>
        <time>2022-07-25T14:46:31Z</time>
      </trkpt>
      <trkpt lat="46.0323110" lon="5.6230610">
        <ele>1064.1</ele>
        <time>2022-07-25T14:46:32Z</time>
      </trkpt>
      <trkpt lat="46.0323150" lon="5.6230200">
        <ele>1064.2</ele>
        <time>2022-07-25T14:46:33Z</time>
      </trkpt>
      <trkpt lat="46.0323190" lon="5.6229560">
        <ele>1064.4</ele>
        <time>2022-07-25T14:46:34Z</time>
      </trkpt>
      <trkpt lat="46.0323180" lon="5.6229300">
        <ele>1064.5</ele>
        <time>2022-07-25T14:46:35Z</time>
      </trkpt>
      <trkpt lat="46.0323140" lon="5.6228810">
        <ele>1064.7</ele>
        <time>2022-07-25T14:46:36Z</time>
      </trkpt>
      <trkpt lat="46.0323100" lon="5.6228340">
        <ele>1064.9</ele>
        <time>2022-07-25T14:46:37Z</time>
      </trkpt>
      <trkpt lat="46.0323060" lon="5.6227860">
        <ele>1065.0</ele>
        <time>2022-07-25T14:46:38Z</time>
      </trkpt>
      <trkpt lat="46.0322970" lon="5.6227060">
        <ele>1065.3</ele>
        <time>2022-07-25T14:46:40Z</time>
      </trkpt>
      <trkpt lat="46.0322910" lon="5.6226640">
        <ele>1065.4</ele>
        <time>2022-07-25T14:46:41Z</time>
      </trkpt>
      <trkpt lat="46.0322810" lon="5.6226250">
        <ele>1065.6</ele>
        <time>2022-07-25T14:46:42Z</time>
      </trkpt>
      <trkpt lat="46.0322700" lon="5.6225870">
        <ele>1065.7</ele>
        <time>2022-07-25T14:46:43Z</time>
      </trkpt>
      <trkpt lat="46.0322470" lon="5.6225030">
        <ele>1066.0</ele>
        <time>2022-07-25T14:46:45Z</time>
      </trkpt>
      <trkpt lat="46.0322390" lon="5.6224640">
        <ele>1066.2</ele>
        <time>2022-07-25T14:46:46Z</time>
      </trkpt>
      <trkpt lat="46.0322250" lon="5.6224050">
        <ele>1066.3</ele>
        <time>2022-07-25T14:46:47Z</time>
      </trkpt>
      <trkpt lat="46.0322190" lon="5.6223820">
        <ele>1066.4</ele>
        <time>2022-07-25T14:46:48Z</time>
      </trkpt>
      <trkpt lat="46.0322030" lon="5.6223410">
        <ele>1066.5</ele>
        <time>2022-07-25T14:46:49Z</time>
      </trkpt>
      <trkpt lat="46.0321970" lon="5.6223270">
        <ele>1066.6</ele>
        <time>2022-07-25T14:46:50Z</time>
      </trkpt>
      <trkpt lat="46.0321790" lon="5.6222780">
        <ele>1066.7</ele>
        <time>2022-07-25T14:46:51Z</time>
      </trkpt>
      <trkpt lat="46.0321720" lon="5.6222600">
        <ele>1066.7</ele>
        <time>2022-07-25T14:46:52Z</time>
      </trkpt>
      <trkpt lat="46.0321580" lon="5.6222180">
        <ele>1066.8</ele>
        <time>2022-07-25T14:46:53Z</time>
      </trkpt>
      <trkpt lat="46.0321540" lon="5.6222050">
        <ele>1066.8</ele>
        <time>2022-07-25T14:46:54Z</time>
      </trkpt>
      <trkpt lat="46.0321300" lon="5.6221430">
        <ele>1066.9</ele>
        <time>2022-07-25T14:46:56Z</time>
      </trkpt>
      <trkpt lat="46.0321230" lon="5.6221260">
        <ele>1066.9</ele>
        <time>2022-07-25T14:46:57Z</time>
      </trkpt>
      <trkpt lat="46.0321150" lon="5.6221090">
        <ele>1066.9</ele>
        <time>2022-07-25T14:46:58Z</time>
      </trkpt>
      <trkpt lat="46.0321040" lon="5.6220830">
        <ele>1067.0</ele>
        <time>2022-07-25T14:46:59Z</time>
      </trkpt>
      <trkpt lat="46.0320870" lon="5.6220580">
        <ele>1067.1</ele>
        <time>2022-07-25T14:47:01Z</time>
      </trkpt>
      <trkpt lat="46.0320750" lon="5.6220450">
        <ele>1067.2</ele>
        <time>2022-07-25T14:47:02Z</time>
      </trkpt>
      <trkpt lat="46.0320630" lon="5.6220370">
        <ele>1067.3</ele>
        <time>2022-07-25T14:47:03Z</time>
      </trkpt>
      <trkpt lat="46.0320520" lon="5.6220260">
        <ele>1067.4</ele>
        <time>2022-07-25T14:47:04Z</time>
      </trkpt>
      <trkpt lat="46.0320480" lon="5.6220170">
        <ele>1067.4</ele>
        <time>2022-07-25T14:47:06Z</time>
      </trkpt>
      <trkpt lat="46.0320430" lon="5.6220080">
        <ele>1067.4</ele>
        <time>2022-07-25T14:47:07Z</time>
      </trkpt>
      <trkpt lat="46.0320380" lon="5.6220000">
        <ele>1067.5</ele>
        <time>2022-07-25T14:47:08Z</time>
      </trkpt>
      <trkpt lat="46.0320330" lon="5.6219910">
        <ele>1067.5</ele>
        <time>2022-07-25T14:47:09Z</time>
      </trkpt>
      <trkpt lat="46.0320270" lon="5.6219720">
        <ele>1067.6</ele>
        <time>2022-07-25T14:47:10Z</time>
      </trkpt>
      <trkpt lat="46.0320220" lon="5.6219610">
        <ele>1067.6</ele>
        <time>2022-07-25T14:47:11Z</time>
      </trkpt>
      <trkpt lat="46.0320150" lon="5.6219480">
        <ele>1067.7</ele>
        <time>2022-07-25T14:47:12Z</time>
      </trkpt>
      <trkpt lat="46.0320070" lon="5.6219260">
        <ele>1067.7</ele>
        <time>2022-07-25T14:47:14Z</time>
      </trkpt>
      <trkpt lat="46.0319980" lon="5.6219100">
        <ele>1067.8</ele>
        <time>2022-07-25T14:47:15Z</time>
      </trkpt>
      <trkpt lat="46.0319970" lon="5.6219080">
        <ele>1067.8</ele>
        <time>2022-07-25T14:47:16Z</time>
      </trkpt>
      <trkpt lat="46.0319980" lon="5.6219070">
        <ele>1067.8</ele>
        <time>2022-07-25T14:47:17Z</time>
      </trkpt>
      <trkpt lat="46.0320000" lon="5.6219090">
        <ele>1067.8</ele>
        <time>2022-07-25T14:47:18Z</time>
      </trkpt>
      <trkpt lat="46.0320020" lon="5.6219100">
        <ele>1067.8</ele>
        <time>2022-07-25T14:47:19Z</time>
      </trkpt>
      <trkpt lat="46.0320020" lon="5.6219100">
        <ele>1067.8</ele>
        <time>2022-07-25T14:47:20Z</time>
      </trkpt>
      <trkpt lat="46.0320020" lon="5.6219090">
        <ele>1067.8</ele>
        <time>2022-07-25T14:47:21Z</time>
      </trkpt>
      <trkpt lat="46.0320020" lon="5.6219090">
        <ele>1067.8</ele>
        <time>2022-07-25T14:47:22Z</time>
      </trkpt>
      <trkpt lat="46.0320030" lon="5.6219080">
        <ele>1067.8</ele>
        <time>2022-07-25T14:47:23Z</time>
      </trkpt>
      <trkpt lat="46.0320030" lon="5.6219070">
        <ele>1067.8</ele>
        <time>2022-07-25T14:47:24Z</time>
      </trkpt>
      <trkpt lat="46.0320030" lon="5.6219060">
        <ele>1067.8</ele>
        <time>2022-07-25T14:47:25Z</time>
      </trkpt>
      <trkpt lat="46.0320020" lon="5.6219040">
        <ele>1067.8</ele>
        <time>2022-07-25T14:47:26Z</time>
      </trkpt>
      <trkpt lat="46.0320060" lon="5.6218710">
        <ele>1067.8</ele>
        <time>2022-07-25T14:48:14Z</time>
      </trkpt>
      <trkpt lat="46.0320070" lon="5.6218680">
        <ele>1067.8</ele>
        <time>2022-07-25T14:48:15Z</time>
      </trkpt>
      <trkpt lat="46.0320060" lon="5.6218660">
        <ele>1067.8</ele>
        <time>2022-07-25T14:48:16Z</time>
      </trkpt>
      <trkpt lat="46.0320060" lon="5.6218650">
        <ele>1067.8</ele>
        <time>2022-07-25T14:48:17Z</time>
      </trkpt>
      <trkpt lat="46.0320060" lon="5.6218640">
        <ele>1067.8</ele>
        <time>2022-07-25T14:48:18Z</time>
      </trkpt>
      <trkpt lat="46.0320050" lon="5.6218620">
        <ele>1067.8</ele>
        <time>2022-07-25T14:48:19Z</time>
      </trkpt>
      <trkpt lat="46.0320050" lon="5.6218600">
        <ele>1067.8</ele>
        <time>2022-07-25T14:48:20Z</time>
      </trkpt>
      <trkpt lat="46.0320050" lon="5.6218600">
        <ele>1067.8</ele>
        <time>2022-07-25T14:48:21Z</time>
      </trkpt>
      <trkpt lat="46.0320060" lon="5.6218590">
        <ele>1067.8</ele>
        <time>2022-07-25T14:48:22Z</time>
      </trkpt>
      <trkpt lat="46.0320060" lon="5.6218590">
        <ele>1067.8</ele>
        <time>2022-07-25T14:48:23Z</time>
      </trkpt>
      <trkpt lat="46.0320060" lon="5.6218590">
        <ele>1067.8</ele>
        <time>2022-07-25T14:48:24Z</time>
      </trkpt>
      <trkpt lat="46.0320060" lon="5.6218590">
        <ele>1067.8</ele>
        <time>2022-07-25T14:48:25Z</time>
      </trkpt>
      <trkpt lat="46.0320040" lon="5.6218530">
        <ele>1067.9</ele>
        <time>2022-07-25T14:48:26Z</time>
      </trkpt>
      <trkpt lat="46.0320070" lon="5.6218540">
        <ele>1067.9</ele>
        <time>2022-07-25T14:48:27Z</time>
      </trkpt>
      <trkpt lat="46.0320130" lon="5.6218560">
        <ele>1067.9</ele>
        <time>2022-07-25T14:48:28Z</time>
      </trkpt>
      <trkpt lat="46.0320250" lon="5.6218670">
        <ele>1067.9</ele>
        <time>2022-07-25T14:48:29Z</time>
      </trkpt>
      <trkpt lat="46.0320370" lon="5.6218790">
        <ele>1067.9</ele>
        <time>2022-07-25T14:48:30Z</time>
      </trkpt>
      <trkpt lat="46.0320440" lon="5.6218880">
        <ele>1067.9</ele>
        <time>2022-07-25T14:48:31Z</time>
      </trkpt>
      <trkpt lat="46.0320480" lon="5.6218980">
        <ele>1067.9</ele>
        <time>2022-07-25T14:48:32Z</time>
      </trkpt>
      <trkpt lat="46.0320520" lon="5.6219040">
        <ele>1067.9</ele>
        <time>2022-07-25T14:48:33Z</time>
      </trkpt>
      <trkpt lat="46.0320540" lon="5.6219060">
        <ele>1067.9</ele>
        <time>2022-07-25T14:48:34Z</time>
      </trkpt>
      <trkpt lat="46.0320540" lon="5.6219050">
        <ele>1067.9</ele>
        <time>2022-07-25T14:48:35Z</time>
      </trkpt>
      <trkpt lat="46.0320530" lon="5.6219020">
        <ele>1067.8</ele>
        <time>2022-07-25T14:48:36Z</time>
      </trkpt>
      <trkpt lat="46.0320510" lon="5.6218990">
        <ele>1067.8</ele>
        <time>2022-07-25T14:48:37Z</time>
      </trkpt>
      <trkpt lat="46.0320500" lon="5.6218960">
        <ele>1067.8</ele>
        <time>2022-07-25T14:48:38Z</time>
      </trkpt>
      <trkpt lat="46.0320480" lon="5.6218940">
        <ele>1067.8</ele>
        <time>2022-07-25T14:48:39Z</time>
      </trkpt>
      <trkpt lat="46.0320470" lon="5.6218920">
        <ele>1067.8</ele>
        <time>2022-07-25T14:48:40Z</time>
      </trkpt>
      <trkpt lat="46.0320460" lon="5.6218880">
        <ele>1067.8</ele>
        <time>2022-07-25T14:48:41Z</time>
      </trkpt>
      <trkpt lat="46.0320450" lon="5.6218850">
        <ele>1067.8</ele>
        <time>2022-07-25T14:48:42Z</time>
      </trkpt>
      <trkpt lat="46.0320440" lon="5.6218820">
        <ele>1067.8</ele>
        <time>2022-07-25T14:48:43Z</time>
      </trkpt>
      <trkpt lat="46.0320430" lon="5.6218790">
        <ele>1067.8</ele>
        <time>2022-07-25T14:48:44Z</time>
      </trkpt>
      <trkpt lat="46.0320140" lon="5.6218430">
        <ele>1067.8</ele>
        <time>2022-07-25T14:50:14Z</time>
      </trkpt>
      <trkpt lat="46.0320020" lon="5.6218340">
        <ele>1067.7</ele>
        <time>2022-07-25T14:50:15Z</time>
      </trkpt>
      <trkpt lat="46.0319840" lon="5.6218260">
        <ele>1067.7</ele>
        <time>2022-07-25T14:50:16Z</time>
      </trkpt>
      <trkpt lat="46.0319550" lon="5.6218190">
        <ele>1067.6</ele>
        <time>2022-07-25T14:50:17Z</time>
      </trkpt>
      <trkpt lat="46.0319410" lon="5.6218140">
        <ele>1067.6</ele>
        <time>2022-07-25T14:50:18Z</time>
      </trkpt>
      <trkpt lat="46.0319100" lon="5.6218100">
        <ele>1067.5</ele>
        <time>2022-07-25T14:50:19Z</time>
      </trkpt>
      <trkpt lat="46.0319040" lon="5.6218120">
        <ele>1067.5</ele>
        <time>2022-07-25T14:50:20Z</time>
      </trkpt>
      <trkpt lat="46.0318960" lon="5.6218300">
        <ele>1067.5</ele>
        <time>2022-07-25T14:50:21Z</time>
      </trkpt>
      <trkpt lat="46.0318870" lon="5.6218260">
        <ele>1067.5</ele>
        <time>2022-07-25T14:50:22Z</time>
      </trkpt>
      <trkpt lat="46.0318700" lon="5.6218240">
        <ele>1067.5</ele>
        <time>2022-07-25T14:50:23Z</time>
      </trkpt>
      <trkpt lat="46.0318300" lon="5.6217940">
        <ele>1067.5</ele>
        <time>2022-07-25T14:50:25Z</time>
      </trkpt>
      <trkpt lat="46.0318200" lon="5.6217870">
        <ele>1067.6</ele>
        <time>2022-07-25T14:50:26Z</time>
      </trkpt>
      <trkpt lat="46.0318110" lon="5.6217800">
        <ele>1067.6</ele>
        <time>2022-07-25T14:50:27Z</time>
      </trkpt>
      <trkpt lat="46.0318020" lon="5.6217730">
        <ele>1067.6</ele>
        <time>2022-07-25T14:50:28Z</time>
      </trkpt>
      <trkpt lat="46.0317910" lon="5.6217630">
        <ele>1067.6</ele>
        <time>2022-07-25T14:50:29Z</time>
      </trkpt>
      <trkpt lat="46.0317810" lon="5.6217100">
        <ele>1067.7</ele>
        <time>2022-07-25T14:50:31Z</time>
      </trkpt>
      <trkpt lat="46.0317810" lon="5.6216910">
        <ele>1067.8</ele>
        <time>2022-07-25T14:50:33Z</time>
      </trkpt>
      <trkpt lat="46.0317840" lon="5.6216870">
        <ele>1067.8</ele>
        <time>2022-07-25T14:50:34Z</time>
      </trkpt>
      <trkpt lat="46.0317880" lon="5.6216870">
        <ele>1067.8</ele>
        <time>2022-07-25T14:50:36Z</time>
      </trkpt>
      <trkpt lat="46.0317900" lon="5.6216870">
        <ele>1067.8</ele>
        <time>2022-07-25T14:50:37Z</time>
      </trkpt>
      <trkpt lat="46.0317900" lon="5.6216860">
        <ele>1067.8</ele>
        <time>2022-07-25T14:50:38Z</time>
      </trkpt>
      <trkpt lat="46.0317900" lon="5.6216850">
        <ele>1067.8</ele>
        <time>2022-07-25T14:50:39Z</time>
      </trkpt>
      <trkpt lat="46.0317890" lon="5.6216820">
        <ele>1067.8</ele>
        <time>2022-07-25T14:50:41Z</time>
      </trkpt>
      <trkpt lat="46.0317880" lon="5.6216800">
        <ele>1067.8</ele>
        <time>2022-07-25T14:50:42Z</time>
      </trkpt>
      <trkpt lat="46.0317870" lon="5.6216780">
        <ele>1067.8</ele>
        <time>2022-07-25T14:50:43Z</time>
      </trkpt>
      <trkpt lat="46.0317640" lon="5.6216410">
        <ele>1068.0</ele>
        <time>2022-07-25T14:51:04Z</time>
      </trkpt>
      <trkpt lat="46.0317600" lon="5.6216390">
        <ele>1068.0</ele>
        <time>2022-07-25T14:51:05Z</time>
      </trkpt>
      <trkpt lat="46.0317570" lon="5.6216380">
        <ele>1068.0</ele>
        <time>2022-07-25T14:51:06Z</time>
      </trkpt>
      <trkpt lat="46.0317590" lon="5.6216390">
        <ele>1068.0</ele>
        <time>2022-07-25T14:51:07Z</time>
      </trkpt>
      <trkpt lat="46.0317610" lon="5.6216390">
        <ele>1068.0</ele>
        <time>2022-07-25T14:51:08Z</time>
      </trkpt>
      <trkpt lat="46.0317600" lon="5.6216390">
        <ele>1068.0</ele>
        <time>2022-07-25T14:51:09Z</time>
      </trkpt>
      <trkpt lat="46.0317610" lon="5.6216380">
        <ele>1068.0</ele>
        <time>2022-07-25T14:51:10Z</time>
      </trkpt>
      <trkpt lat="46.0317610" lon="5.6216360">
        <ele>1068.0</ele>
        <time>2022-07-25T14:51:11Z</time>
      </trkpt>
      <trkpt lat="46.0317610" lon="5.6216340">
        <ele>1068.0</ele>
        <time>2022-07-25T14:51:12Z</time>
      </trkpt>
      <trkpt lat="46.0317620" lon="5.6216330">
        <ele>1068.0</ele>
        <time>2022-07-25T14:51:13Z</time>
      </trkpt>
      <trkpt lat="46.0317610" lon="5.6216320">
        <ele>1068.0</ele>
        <time>2022-07-25T14:51:14Z</time>
      </trkpt>
      <trkpt lat="46.0317600" lon="5.6216310">
        <ele>1068.0</ele>
        <time>2022-07-25T14:51:15Z</time>
      </trkpt>
      <trkpt lat="46.0317400" lon="5.6216100">
        <ele>1068.2</ele>
        <time>2022-07-25T14:53:08Z</time>
      </trkpt>
      <trkpt lat="46.0317310" lon="5.6216000">
        <ele>1068.2</ele>
        <time>2022-07-25T14:53:09Z</time>
      </trkpt>
      <trkpt lat="46.0317270" lon="5.6215940">
        <ele>1068.2</ele>
        <time>2022-07-25T14:53:10Z</time>
      </trkpt>
      <trkpt lat="46.0317270" lon="5.6215910">
        <ele>1068.2</ele>
        <time>2022-07-25T14:53:11Z</time>
      </trkpt>
      <trkpt lat="46.0317260" lon="5.6215870">
        <ele>1068.3</ele>
        <time>2022-07-25T14:53:12Z</time>
      </trkpt>
      <trkpt lat="46.0317260" lon="5.6215850">
        <ele>1068.3</ele>
        <time>2022-07-25T14:53:13Z</time>
      </trkpt>
      <trkpt lat="46.0317260" lon="5.6215820">
        <ele>1068.3</ele>
        <time>2022-07-25T14:53:14Z</time>
      </trkpt>
      <trkpt lat="46.0317230" lon="5.6215800">
        <ele>1068.3</ele>
        <time>2022-07-25T14:53:15Z</time>
      </trkpt>
      <trkpt lat="46.0317200" lon="5.6215760">
        <ele>1068.3</ele>
        <time>2022-07-25T14:53:16Z</time>
      </trkpt>
      <trkpt lat="46.0317180" lon="5.6215710">
        <ele>1068.3</ele>
        <time>2022-07-25T14:53:17Z</time>
      </trkpt>
      <trkpt lat="46.0317160" lon="5.6215650">
        <ele>1068.4</ele>
        <time>2022-07-25T14:53:18Z</time>
      </trkpt>
      <trkpt lat="46.0317120" lon="5.6215610">
        <ele>1068.4</ele>
        <time>2022-07-25T14:53:19Z</time>
      </trkpt>
      <trkpt lat="46.0317060" lon="5.6215620">
        <ele>1068.4</ele>
        <time>2022-07-25T14:53:20Z</time>
      </trkpt>
      <trkpt lat="46.0316990" lon="5.6215670">
        <ele>1068.4</ele>
        <time>2022-07-25T14:53:21Z</time>
      </trkpt>
      <trkpt lat="46.0316920" lon="5.6215730">
        <ele>1068.5</ele>
        <time>2022-07-25T14:53:22Z</time>
      </trkpt>
      <trkpt lat="46.0316880" lon="5.6215750">
        <ele>1068.5</ele>
        <time>2022-07-25T14:53:23Z</time>
      </trkpt>
      <trkpt lat="46.0316890" lon="5.6215740">
        <ele>1068.5</ele>
        <time>2022-07-25T14:53:24Z</time>
      </trkpt>
      <trkpt lat="46.0316930" lon="5.6215700">
        <ele>1068.5</ele>
        <time>2022-07-25T14:53:25Z</time>
      </trkpt>
      <trkpt lat="46.0316960" lon="5.6215670">
        <ele>1068.5</ele>
        <time>2022-07-25T14:53:26Z</time>
      </trkpt>
      <trkpt lat="46.0316980" lon="5.6215640">
        <ele>1068.6</ele>
        <time>2022-07-25T14:53:27Z</time>
      </trkpt>
      <trkpt lat="46.0317000" lon="5.6215630">
        <ele>1068.6</ele>
        <time>2022-07-25T14:53:28Z</time>
      </trkpt>
      <trkpt lat="46.0317020" lon="5.6215640">
        <ele>1068.6</ele>
        <time>2022-07-25T14:53:29Z</time>
      </trkpt>
      <trkpt lat="46.0316880" lon="5.6215610">
        <ele>1068.6</ele>
        <time>2022-07-25T14:53:30Z</time>
      </trkpt>
      <trkpt lat="46.0317270" lon="5.6215540">
        <ele>1068.8</ele>
        <time>2022-07-25T14:53:32Z</time>
      </trkpt>
      <trkpt lat="46.0316940" lon="5.6215390">
        <ele>1068.8</ele>
        <time>2022-07-25T14:53:33Z</time>
      </trkpt>
      <trkpt lat="46.0316870" lon="5.6215360">
        <ele>1068.8</ele>
        <time>2022-07-25T14:53:34Z</time>
      </trkpt>
      <trkpt lat="46.0316680" lon="5.6215300">
        <ele>1068.8</ele>
        <time>2022-07-25T14:53:35Z</time>
      </trkpt>
      <trkpt lat="46.0316480" lon="5.6215240">
        <ele>1068.9</ele>
        <time>2022-07-25T14:53:37Z</time>
      </trkpt>
      <trkpt lat="46.0316180" lon="5.6215290">
        <ele>1068.8</ele>
        <time>2022-07-25T14:53:38Z</time>
      </trkpt>
      <trkpt lat="46.0316090" lon="5.6215290">
        <ele>1068.8</ele>
        <time>2022-07-25T14:53:39Z</time>
      </trkpt>
      <trkpt lat="46.0315900" lon="5.6215210">
        <ele>1068.8</ele>
        <time>2022-07-25T14:53:40Z</time>
      </trkpt>
      <trkpt lat="46.0315800" lon="5.6215160">
        <ele>1068.8</ele>
        <time>2022-07-25T14:53:42Z</time>
      </trkpt>
      <trkpt lat="46.0315710" lon="5.6215170">
        <ele>1068.8</ele>
        <time>2022-07-25T14:53:43Z</time>
      </trkpt>
      <trkpt lat="46.0315480" lon="5.6215220">
        <ele>1068.8</ele>
        <time>2022-07-25T14:53:44Z</time>
      </trkpt>
      <trkpt lat="46.0315410" lon="5.6215200">
        <ele>1068.7</ele>
        <time>2022-07-25T14:53:45Z</time>
      </trkpt>
      <trkpt lat="46.0315280" lon="5.6215120">
        <ele>1068.7</ele>
        <time>2022-07-25T14:53:47Z</time>
      </trkpt>
      <trkpt lat="46.0315180" lon="5.6215040">
        <ele>1068.7</ele>
        <time>2022-07-25T14:53:48Z</time>
      </trkpt>
      <trkpt lat="46.0315020" lon="5.6214930">
        <ele>1068.7</ele>
        <time>2022-07-25T14:53:49Z</time>
      </trkpt>
      <trkpt lat="46.0314900" lon="5.6214790">
        <ele>1068.7</ele>
        <time>2022-07-25T14:53:50Z</time>
      </trkpt>
      <trkpt lat="46.0314580" lon="5.6214500">
        <ele>1068.6</ele>
        <time>2022-07-25T14:53:52Z</time>
      </trkpt>
      <trkpt lat="46.0314450" lon="5.6214430">
        <ele>1068.6</ele>
        <time>2022-07-25T14:53:53Z</time>
      </trkpt>
      <trkpt lat="46.0314050" lon="5.6214300">
        <ele>1068.5</ele>
        <time>2022-07-25T14:53:54Z</time>
      </trkpt>
      <trkpt lat="46.0313650" lon="5.6214090">
        <ele>1068.4</ele>
        <time>2022-07-25T14:53:55Z</time>
      </trkpt>
      <trkpt lat="46.0313150" lon="5.6213760">
        <ele>1068.3</ele>
        <time>2022-07-25T14:53:57Z</time>
      </trkpt>
      <trkpt lat="46.0312350" lon="5.6212720">
        <ele>1068.1</ele>
        <time>2022-07-25T14:53:58Z</time>
      </trkpt>
      <trkpt lat="46.0312020" lon="5.6212220">
        <ele>1068.0</ele>
        <time>2022-07-25T14:53:59Z</time>
      </trkpt>
      <trkpt lat="46.0311760" lon="5.6211750">
        <ele>1067.9</ele>
        <time>2022-07-25T14:54:00Z</time>
      </trkpt>
      <trkpt lat="46.0311540" lon="5.6211290">
        <ele>1067.9</ele>
        <time>2022-07-25T14:54:01Z</time>
      </trkpt>
      <trkpt lat="46.0311090" lon="5.6210440">
        <ele>1067.8</ele>
        <time>2022-07-25T14:54:02Z</time>
      </trkpt>
      <trkpt lat="46.0310580" lon="5.6209440">
        <ele>1067.8</ele>
        <time>2022-07-25T14:54:03Z</time>
      </trkpt>
      <trkpt lat="46.0310110" lon="5.6208590">
        <ele>1067.9</ele>
        <time>2022-07-25T14:54:04Z</time>
      </trkpt>
      <trkpt lat="46.0309640" lon="5.6207810">
        <ele>1068.2</ele>
        <time>2022-07-25T14:54:05Z</time>
      </trkpt>
      <trkpt lat="46.0309270" lon="5.6207280">
        <ele>1068.5</ele>
        <time>2022-07-25T14:54:06Z</time>
      </trkpt>
      <trkpt lat="46.0309080" lon="5.6206850">
        <ele>1068.8</ele>
        <time>2022-07-25T14:54:08Z</time>
      </trkpt>
      <trkpt lat="46.0308810" lon="5.6206740">
        <ele>1069.0</ele>
        <time>2022-07-25T14:54:09Z</time>
      </trkpt>
      <trkpt lat="46.0308450" lon="5.6206680">
        <ele>1069.3</ele>
        <time>2022-07-25T14:54:10Z</time>
      </trkpt>
      <trkpt lat="46.0308230" lon="5.6206630">
        <ele>1069.5</ele>
        <time>2022-07-25T14:54:11Z</time>
      </trkpt>
      <trkpt lat="46.0307840" lon="5.6206570">
        <ele>1069.8</ele>
        <time>2022-07-25T14:54:13Z</time>
      </trkpt>
      <trkpt lat="46.0307480" lon="5.6206540">
        <ele>1070.2</ele>
        <time>2022-07-25T14:54:14Z</time>
      </trkpt>
      <trkpt lat="46.0307370" lon="5.6206540">
        <ele>1070.3</ele>
        <time>2022-07-25T14:54:15Z</time>
      </trkpt>
      <trkpt lat="46.0307080" lon="5.6206440">
        <ele>1070.6</ele>
        <time>2022-07-25T14:54:16Z</time>
      </trkpt>
      <trkpt lat="46.0306960" lon="5.6206360">
        <ele>1070.8</ele>
        <time>2022-07-25T14:54:17Z</time>
      </trkpt>
      <trkpt lat="46.0306790" lon="5.6206340">
        <ele>1071.0</ele>
        <time>2022-07-25T14:54:18Z</time>
      </trkpt>
      <trkpt lat="46.0306550" lon="5.6206330">
        <ele>1071.3</ele>
        <time>2022-07-25T14:54:20Z</time>
      </trkpt>
      <trkpt lat="46.0306360" lon="5.6206380">
        <ele>1071.5</ele>
        <time>2022-07-25T14:54:21Z</time>
      </trkpt>
      <trkpt lat="46.0306050" lon="5.6206480">
        <ele>1071.9</ele>
        <time>2022-07-25T14:54:23Z</time>
      </trkpt>
      <trkpt lat="46.0305870" lon="5.6206570">
        <ele>1072.1</ele>
        <time>2022-07-25T14:54:24Z</time>
      </trkpt>
      <trkpt lat="46.0305730" lon="5.6206640">
        <ele>1072.2</ele>
        <time>2022-07-25T14:54:25Z</time>
      </trkpt>
      <trkpt lat="46.0305590" lon="5.6206670">
        <ele>1072.4</ele>
        <time>2022-07-25T14:54:26Z</time>
      </trkpt>
      <trkpt lat="46.0305420" lon="5.6206690">
        <ele>1072.6</ele>
        <time>2022-07-25T14:54:27Z</time>
      </trkpt>
      <trkpt lat="46.0305300" lon="5.6206690">
        <ele>1072.7</ele>
        <time>2022-07-25T14:54:28Z</time>
      </trkpt>
      <trkpt lat="46.0304990" lon="5.6206790">
        <ele>1073.1</ele>
        <time>2022-07-25T14:54:30Z</time>
      </trkpt>
      <trkpt lat="46.0304720" lon="5.6207010">
        <ele>1073.4</ele>
        <time>2022-07-25T14:54:31Z</time>
      </trkpt>
      <trkpt lat="46.0304630" lon="5.6207110">
        <ele>1073.5</ele>
        <time>2022-07-25T14:54:32Z</time>
      </trkpt>
      <trkpt lat="46.0304540" lon="5.6207180">
        <ele>1073.6</ele>
        <time>2022-07-25T14:54:33Z</time>
      </trkpt>
      <trkpt lat="46.0304430" lon="5.6207220">
        <ele>1073.7</ele>
        <time>2022-07-25T14:54:34Z</time>
      </trkpt>
      <trkpt lat="46.0304130" lon="5.6207300">
        <ele>1074.0</ele>
        <time>2022-07-25T14:54:36Z</time>
      </trkpt>
      <trkpt lat="46.0303910" lon="5.6207350">
        <ele>1074.2</ele>
        <time>2022-07-25T14:54:37Z</time>
      </trkpt>
      <trkpt lat="46.0303840" lon="5.6207340">
        <ele>1074.2</ele>
        <time>2022-07-25T14:54:38Z</time>
      </trkpt>
      <trkpt lat="46.0303770" lon="5.6207330">
        <ele>1074.3</ele>
        <time>2022-07-25T14:54:39Z</time>
      </trkpt>
      <trkpt lat="46.0303570" lon="5.6207360">
        <ele>1074.4</ele>
        <time>2022-07-25T14:54:41Z</time>
      </trkpt>
      <trkpt lat="46.0303440" lon="5.6207360">
        <ele>1074.5</ele>
        <time>2022-07-25T14:54:42Z</time>
      </trkpt>
      <trkpt lat="46.0303270" lon="5.6207370">
        <ele>1074.7</ele>
        <time>2022-07-25T14:54:43Z</time>
      </trkpt>
      <trkpt lat="46.0303170" lon="5.6207400">
        <ele>1074.8</ele>
        <time>2022-07-25T14:54:44Z</time>
      </trkpt>
      <trkpt lat="46.0303030" lon="5.6207400">
        <ele>1074.9</ele>
        <time>2022-07-25T14:54:46Z</time>
      </trkpt>
      <trkpt lat="46.0302860" lon="5.6207390">
        <ele>1075.0</ele>
        <time>2022-07-25T14:54:47Z</time>
      </trkpt>
      <trkpt lat="46.0302700" lon="5.6207450">
        <ele>1075.2</ele>
        <time>2022-07-25T14:54:48Z</time>
      </trkpt>
      <trkpt lat="46.0302560" lon="5.6207540">
        <ele>1075.3</ele>
        <time>2022-07-25T14:54:49Z</time>
      </trkpt>
      <trkpt lat="46.0302420" lon="5.6207660">
        <ele>1075.4</ele>
        <time>2022-07-25T14:54:50Z</time>
      </trkpt>
      <trkpt lat="46.0302240" lon="5.6207830">
        <ele>1075.6</ele>
        <time>2022-07-25T14:54:51Z</time>
      </trkpt>
      <trkpt lat="46.0302090" lon="5.6207950">
        <ele>1075.8</ele>
        <time>2022-07-25T14:54:53Z</time>
      </trkpt>
      <trkpt lat="46.0301820" lon="5.6208040">
        <ele>1076.0</ele>
        <time>2022-07-25T14:54:54Z</time>
      </trkpt>
      <trkpt lat="46.0301710" lon="5.6208040">
        <ele>1076.1</ele>
        <time>2022-07-25T14:54:55Z</time>
      </trkpt>
      <trkpt lat="46.0301420" lon="5.6207990">
        <ele>1076.3</ele>
        <time>2022-07-25T14:54:56Z</time>
      </trkpt>
      <trkpt lat="46.0301330" lon="5.6207960">
        <ele>1076.4</ele>
        <time>2022-07-25T14:54:57Z</time>
      </trkpt>
      <trkpt lat="46.0301020" lon="5.6207930">
        <ele>1076.7</ele>
        <time>2022-07-25T14:54:58Z</time>
      </trkpt>
      <trkpt lat="46.0300910" lon="5.6207930">
        <ele>1076.8</ele>
        <time>2022-07-25T14:54:59Z</time>
      </trkpt>
      <trkpt lat="46.0300670" lon="5.6208040">
        <ele>1077.0</ele>
        <time>2022-07-25T14:55:00Z</time>
      </trkpt>
      <trkpt lat="46.0300400" lon="5.6208120">
        <ele>1077.2</ele>
        <time>2022-07-25T14:55:02Z</time>
      </trkpt>
      <trkpt lat="46.0300090" lon="5.6208100">
        <ele>1077.5</ele>
        <time>2022-07-25T14:55:03Z</time>
      </trkpt>
      <trkpt lat="46.0300020" lon="5.6208070">
        <ele>1077.5</ele>
        <time>2022-07-25T14:55:04Z</time>
      </trkpt>
      <trkpt lat="46.0299520" lon="5.6208110">
        <ele>1078.0</ele>
        <time>2022-07-25T14:55:06Z</time>
      </trkpt>
      <trkpt lat="46.0299360" lon="5.6208140">
        <ele>1078.1</ele>
        <time>2022-07-25T14:55:07Z</time>
      </trkpt>
      <trkpt lat="46.0299210" lon="5.6208170">
        <ele>1078.2</ele>
        <time>2022-07-25T14:55:08Z</time>
      </trkpt>
      <trkpt lat="46.0299040" lon="5.6208220">
        <ele>1078.4</ele>
        <time>2022-07-25T14:55:09Z</time>
      </trkpt>
      <trkpt lat="46.0298860" lon="5.6208270">
        <ele>1078.5</ele>
        <time>2022-07-25T14:55:10Z</time>
      </trkpt>
      <trkpt lat="46.0298660" lon="5.6208280">
        <ele>1078.6</ele>
        <time>2022-07-25T14:55:11Z</time>
      </trkpt>
      <trkpt lat="46.0298510" lon="5.6208270">
        <ele>1078.8</ele>
        <time>2022-07-25T14:55:12Z</time>
      </trkpt>
      <trkpt lat="46.0298370" lon="5.6208280">
        <ele>1078.9</ele>
        <time>2022-07-25T14:55:13Z</time>
      </trkpt>
      <trkpt lat="46.0298200" lon="5.6208270">
        <ele>1079.0</ele>
        <time>2022-07-25T14:55:14Z</time>
      </trkpt>
      <trkpt lat="46.0298030" lon="5.6208240">
        <ele>1079.1</ele>
        <time>2022-07-25T14:55:15Z</time>
      </trkpt>
      <trkpt lat="46.0297820" lon="5.6208150">
        <ele>1079.3</ele>
        <time>2022-07-25T14:55:17Z</time>
      </trkpt>
      <trkpt lat="46.0297480" lon="5.6207990">
        <ele>1079.5</ele>
        <time>2022-07-25T14:55:18Z</time>
      </trkpt>
      <trkpt lat="46.0297350" lon="5.6207960">
        <ele>1079.6</ele>
        <time>2022-07-25T14:55:19Z</time>
      </trkpt>
      <trkpt lat="46.0297070" lon="5.6207890">
        <ele>1079.8</ele>
        <time>2022-07-25T14:55:21Z</time>
      </trkpt>
      <trkpt lat="46.0296880" lon="5.6207860">
        <ele>1079.9</ele>
        <time>2022-07-25T14:55:22Z</time>
      </trkpt>
      <trkpt lat="46.0296710" lon="5.6207860">
        <ele>1080.0</ele>
        <time>2022-07-25T14:55:23Z</time>
      </trkpt>
      <trkpt lat="46.0296420" lon="5.6207830">
        <ele>1080.2</ele>
        <time>2022-07-25T14:55:24Z</time>
      </trkpt>
      <trkpt lat="46.0296080" lon="5.6207770">
        <ele>1080.4</ele>
        <time>2022-07-25T14:55:25Z</time>
      </trkpt>
      <trkpt lat="46.0295960" lon="5.6207760">
        <ele>1080.5</ele>
        <time>2022-07-25T14:55:26Z</time>
      </trkpt>
      <trkpt lat="46.0295680" lon="5.6207670">
        <ele>1080.8</ele>
        <time>2022-07-25T14:55:27Z</time>
      </trkpt>
      <trkpt lat="46.0295370" lon="5.6207640">
        <ele>1081.0</ele>
        <time>2022-07-25T14:55:29Z</time>
      </trkpt>
      <trkpt lat="46.0295120" lon="5.6207580">
        <ele>1081.2</ele>
        <time>2022-07-25T14:55:30Z</time>
      </trkpt>
      <trkpt lat="46.0294830" lon="5.6207490">
        <ele>1081.5</ele>
        <time>2022-07-25T14:55:32Z</time>
      </trkpt>
      <trkpt lat="46.0294530" lon="5.6207450">
        <ele>1081.7</ele>
        <time>2022-07-25T14:55:33Z</time>
      </trkpt>
      <trkpt lat="46.0294180" lon="5.6207610">
        <ele>1082.0</ele>
        <time>2022-07-25T14:55:34Z</time>
      </trkpt>
      <trkpt lat="46.0294060" lon="5.6207670">
        <ele>1082.1</ele>
        <time>2022-07-25T14:55:35Z</time>
      </trkpt>
      <trkpt lat="46.0293840" lon="5.6207760">
        <ele>1082.2</ele>
        <time>2022-07-25T14:55:36Z</time>
      </trkpt>
      <trkpt lat="46.0293570" lon="5.6207800">
        <ele>1082.3</ele>
        <time>2022-07-25T14:55:38Z</time>
      </trkpt>
      <trkpt lat="46.0293380" lon="5.6207780">
        <ele>1082.3</ele>
        <time>2022-07-25T14:55:39Z</time>
      </trkpt>
      <trkpt lat="46.0293220" lon="5.6207730">
        <ele>1082.4</ele>
        <time>2022-07-25T14:55:40Z</time>
      </trkpt>
      <trkpt lat="46.0292930" lon="5.6207750">
        <ele>1082.4</ele>
        <time>2022-07-25T14:55:41Z</time>
      </trkpt>
      <trkpt lat="46.0292770" lon="5.6207790">
        <ele>1082.4</ele>
        <time>2022-07-25T14:55:43Z</time>
      </trkpt>
      <trkpt lat="46.0292620" lon="5.6207820">
        <ele>1082.4</ele>
        <time>2022-07-25T14:55:44Z</time>
      </trkpt>
      <trkpt lat="46.0292470" lon="5.6207850">
        <ele>1082.4</ele>
        <time>2022-07-25T14:55:45Z</time>
      </trkpt>
      <trkpt lat="46.0292290" lon="5.6207860">
        <ele>1082.4</ele>
        <time>2022-07-25T14:55:46Z</time>
      </trkpt>
      <trkpt lat="46.0292170" lon="5.6207850">
        <ele>1082.4</ele>
        <time>2022-07-25T14:55:47Z</time>
      </trkpt>
      <trkpt lat="46.0292100" lon="5.6207840">
        <ele>1082.3</ele>
        <time>2022-07-25T14:55:48Z</time>
      </trkpt>
      <trkpt lat="46.0291950" lon="5.6207750">
        <ele>1082.3</ele>
        <time>2022-07-25T14:55:49Z</time>
      </trkpt>
      <trkpt lat="46.0291840" lon="5.6207680">
        <ele>1082.3</ele>
        <time>2022-07-25T14:55:50Z</time>
      </trkpt>
      <trkpt lat="46.0291550" lon="5.6207580">
        <ele>1082.2</ele>
        <time>2022-07-25T14:55:51Z</time>
      </trkpt>
      <trkpt lat="46.0291440" lon="5.6207540">
        <ele>1082.2</ele>
        <time>2022-07-25T14:55:52Z</time>
      </trkpt>
      <trkpt lat="46.0291070" lon="5.6207370">
        <ele>1082.1</ele>
        <time>2022-07-25T14:55:54Z</time>
      </trkpt>
      <trkpt lat="46.0290670" lon="5.6207200">
        <ele>1082.0</ele>
        <time>2022-07-25T14:55:55Z</time>
      </trkpt>
      <trkpt lat="46.0290330" lon="5.6207060">
        <ele>1081.9</ele>
        <time>2022-07-25T14:55:56Z</time>
      </trkpt>
      <trkpt lat="46.0290030" lon="5.6206950">
        <ele>1081.8</ele>
        <time>2022-07-25T14:55:57Z</time>
      </trkpt>
      <trkpt lat="46.0289600" lon="5.6206740">
        <ele>1081.7</ele>
        <time>2022-07-25T14:55:59Z</time>
      </trkpt>
      <trkpt lat="46.0289250" lon="5.6206620">
        <ele>1081.7</ele>
        <time>2022-07-25T14:56:00Z</time>
      </trkpt>
      <trkpt lat="46.0288940" lon="5.6206200">
        <ele>1081.6</ele>
        <time>2022-07-25T14:56:01Z</time>
      </trkpt>
      <trkpt lat="46.0288760" lon="5.6205800">
        <ele>1081.6</ele>
        <time>2022-07-25T14:56:02Z</time>
      </trkpt>
      <trkpt lat="46.0286660" lon="5.6205940">
        <ele>1081.9</ele>
        <time>2022-07-25T14:56:03Z</time>
      </trkpt>
      <trkpt lat="46.0286380" lon="5.6205940">
        <ele>1082.0</ele>
        <time>2022-07-25T14:56:04Z</time>
      </trkpt>
      <trkpt lat="46.0285760" lon="5.6205960">
        <ele>1082.2</ele>
        <time>2022-07-25T14:56:05Z</time>
      </trkpt>
      <trkpt lat="46.0285330" lon="5.6205990">
        <ele>1082.5</ele>
        <time>2022-07-25T14:56:06Z</time>
      </trkpt>
      <trkpt lat="46.0285000" lon="5.6206020">
        <ele>1082.7</ele>
        <time>2022-07-25T14:56:07Z</time>
      </trkpt>
      <trkpt lat="46.0284700" lon="5.6206030">
        <ele>1082.9</ele>
        <time>2022-07-25T14:56:08Z</time>
      </trkpt>
      <trkpt lat="46.0284290" lon="5.6206390">
        <ele>1083.2</ele>
        <time>2022-07-25T14:56:10Z</time>
      </trkpt>
      <trkpt lat="46.0283940" lon="5.6206500">
        <ele>1083.5</ele>
        <time>2022-07-25T14:56:11Z</time>
      </trkpt>
      <trkpt lat="46.0283830" lon="5.6206550">
        <ele>1083.6</ele>
        <time>2022-07-25T14:56:12Z</time>
      </trkpt>
      <trkpt lat="46.0283510" lon="5.6206480">
        <ele>1084.0</ele>
        <time>2022-07-25T14:56:14Z</time>
      </trkpt>
      <trkpt lat="46.0283400" lon="5.6206460">
        <ele>1084.1</ele>
        <time>2022-07-25T14:56:15Z</time>
      </trkpt>
      <trkpt lat="46.0283210" lon="5.6206460">
        <ele>1084.4</ele>
        <time>2022-07-25T14:56:16Z</time>
      </trkpt>
      <trkpt lat="46.0283090" lon="5.6206430">
        <ele>1084.6</ele>
        <time>2022-07-25T14:56:17Z</time>
      </trkpt>
      <trkpt lat="46.0283010" lon="5.6206420">
        <ele>1084.7</ele>
        <time>2022-07-25T14:56:18Z</time>
      </trkpt>
      <trkpt lat="46.0283130" lon="5.6206460">
        <ele>1084.9</ele>
        <time>2022-07-25T14:56:19Z</time>
      </trkpt>
      <trkpt lat="46.0283060" lon="5.6206550">
        <ele>1085.1</ele>
        <time>2022-07-25T14:56:20Z</time>
      </trkpt>
      <trkpt lat="46.0282960" lon="5.6206650">
        <ele>1085.3</ele>
        <time>2022-07-25T14:56:21Z</time>
      </trkpt>
      <trkpt lat="46.0282800" lon="5.6206730">
        <ele>1085.6</ele>
        <time>2022-07-25T14:56:22Z</time>
      </trkpt>
      <trkpt lat="46.0282650" lon="5.6206780">
        <ele>1085.9</ele>
        <time>2022-07-25T14:56:23Z</time>
      </trkpt>
      <trkpt lat="46.0282490" lon="5.6206820">
        <ele>1086.2</ele>
        <time>2022-07-25T14:56:24Z</time>
      </trkpt>
      <trkpt lat="46.0282290" lon="5.6206890">
        <ele>1086.6</ele>
        <time>2022-07-25T14:56:25Z</time>
      </trkpt>
      <trkpt lat="46.0282170" lon="5.6206980">
        <ele>1086.9</ele>
        <time>2022-07-25T14:56:26Z</time>
      </trkpt>
      <trkpt lat="46.0282100" lon="5.6207070">
        <ele>1087.1</ele>
        <time>2022-07-25T14:56:27Z</time>
      </trkpt>
      <trkpt lat="46.0282030" lon="5.6207160">
        <ele>1087.3</ele>
        <time>2022-07-25T14:56:28Z</time>
      </trkpt>
      <trkpt lat="46.0281920" lon="5.6207240">
        <ele>1087.5</ele>
        <time>2022-07-25T14:56:29Z</time>
      </trkpt>
      <trkpt lat="46.0281770" lon="5.6207350">
        <ele>1087.9</ele>
        <time>2022-07-25T14:56:30Z</time>
      </trkpt>
      <trkpt lat="46.0281660" lon="5.6207500">
        <ele>1088.2</ele>
        <time>2022-07-25T14:56:31Z</time>
      </trkpt>
      <trkpt lat="46.0281490" lon="5.6207660">
        <ele>1088.6</ele>
        <time>2022-07-25T14:56:32Z</time>
      </trkpt>
      <trkpt lat="46.0281420" lon="5.6207700">
        <ele>1088.7</ele>
        <time>2022-07-25T14:56:33Z</time>
      </trkpt>
      <trkpt lat="46.0281340" lon="5.6207740">
        <ele>1088.8</ele>
        <time>2022-07-25T14:56:34Z</time>
      </trkpt>
      <trkpt lat="46.0281220" lon="5.6207760">
        <ele>1089.0</ele>
        <time>2022-07-25T14:56:35Z</time>
      </trkpt>
      <trkpt lat="46.0281040" lon="5.6207770">
        <ele>1089.3</ele>
        <time>2022-07-25T14:56:36Z</time>
      </trkpt>
      <trkpt lat="46.0280820" lon="5.6207830">
        <ele>1089.7</ele>
        <time>2022-07-25T14:56:37Z</time>
      </trkpt>
      <trkpt lat="46.0280750" lon="5.6207850">
        <ele>1089.8</ele>
        <time>2022-07-25T14:56:38Z</time>
      </trkpt>
      <trkpt lat="46.0280680" lon="5.6207870">
        <ele>1089.9</ele>
        <time>2022-07-25T14:56:39Z</time>
      </trkpt>
      <trkpt lat="46.0280540" lon="5.6207900">
        <ele>1090.1</ele>
        <time>2022-07-25T14:56:40Z</time>
      </trkpt>
      <trkpt lat="46.0280450" lon="5.6207920">
        <ele>1090.2</ele>
        <time>2022-07-25T14:56:41Z</time>
      </trkpt>
      <trkpt lat="46.0280330" lon="5.6207940">
        <ele>1090.3</ele>
        <time>2022-07-25T14:56:42Z</time>
      </trkpt>
      <trkpt lat="46.0280200" lon="5.6207950">
        <ele>1090.4</ele>
        <time>2022-07-25T14:56:43Z</time>
      </trkpt>
      <trkpt lat="46.0280120" lon="5.6207950">
        <ele>1090.5</ele>
        <time>2022-07-25T14:56:44Z</time>
      </trkpt>
      <trkpt lat="46.0279990" lon="5.6207930">
        <ele>1090.6</ele>
        <time>2022-07-25T14:56:45Z</time>
      </trkpt>
      <trkpt lat="46.0279930" lon="5.6207900">
        <ele>1090.7</ele>
        <time>2022-07-25T14:56:46Z</time>
      </trkpt>
      <trkpt lat="46.0279860" lon="5.6207880">
        <ele>1090.7</ele>
        <time>2022-07-25T14:56:47Z</time>
      </trkpt>
      <trkpt lat="46.0279740" lon="5.6207890">
        <ele>1090.8</ele>
        <time>2022-07-25T14:56:48Z</time>
      </trkpt>
      <trkpt lat="46.0279640" lon="5.6207910">
        <ele>1090.9</ele>
        <time>2022-07-25T14:56:49Z</time>
      </trkpt>
      <trkpt lat="46.0279410" lon="5.6207960">
        <ele>1091.0</ele>
        <time>2022-07-25T14:56:50Z</time>
      </trkpt>
      <trkpt lat="46.0279330" lon="5.6207980">
        <ele>1091.1</ele>
        <time>2022-07-25T14:56:51Z</time>
      </trkpt>
      <trkpt lat="46.0279250" lon="5.6207990">
        <ele>1091.1</ele>
        <time>2022-07-25T14:56:52Z</time>
      </trkpt>
      <trkpt lat="46.0278940" lon="5.6208010">
        <ele>1091.3</ele>
        <time>2022-07-25T14:56:53Z</time>
      </trkpt>
      <trkpt lat="46.0278850" lon="5.6208020">
        <ele>1091.3</ele>
        <time>2022-07-25T14:56:54Z</time>
      </trkpt>
      <trkpt lat="46.0278750" lon="5.6208030">
        <ele>1091.3</ele>
        <time>2022-07-25T14:56:55Z</time>
      </trkpt>
      <trkpt lat="46.0278660" lon="5.6208060">
        <ele>1091.4</ele>
        <time>2022-07-25T14:56:56Z</time>
      </trkpt>
      <trkpt lat="46.0278540" lon="5.6208100">
        <ele>1091.4</ele>
        <time>2022-07-25T14:56:57Z</time>
      </trkpt>
      <trkpt lat="46.0278270" lon="5.6208180">
        <ele>1091.5</ele>
        <time>2022-07-25T14:56:58Z</time>
      </trkpt>
      <trkpt lat="46.0278180" lon="5.6208190">
        <ele>1091.5</ele>
        <time>2022-07-25T14:56:59Z</time>
      </trkpt>
      <trkpt lat="46.0277880" lon="5.6208170">
        <ele>1091.6</ele>
        <time>2022-07-25T14:57:00Z</time>
      </trkpt>
      <trkpt lat="46.0277750" lon="5.6208150">
        <ele>1091.6</ele>
        <time>2022-07-25T14:57:01Z</time>
      </trkpt>
      <trkpt lat="46.0277450" lon="5.6208110">
        <ele>1091.7</ele>
        <time>2022-07-25T14:57:02Z</time>
      </trkpt>
      <trkpt lat="46.0277090" lon="5.6208130">
        <ele>1091.7</ele>
        <time>2022-07-25T14:57:03Z</time>
      </trkpt>
      <trkpt lat="46.0276720" lon="5.6208250">
        <ele>1091.7</ele>
        <time>2022-07-25T14:57:04Z</time>
      </trkpt>
      <trkpt lat="46.0276430" lon="5.6208370">
        <ele>1091.7</ele>
        <time>2022-07-25T14:57:05Z</time>
      </trkpt>
      <trkpt lat="46.0276340" lon="5.6208400">
        <ele>1091.7</ele>
        <time>2022-07-25T14:57:06Z</time>
      </trkpt>
      <trkpt lat="46.0276000" lon="5.6208320">
        <ele>1091.7</ele>
        <time>2022-07-25T14:57:07Z</time>
      </trkpt>
      <trkpt lat="46.0275860" lon="5.6208270">
        <ele>1091.7</ele>
        <time>2022-07-25T14:57:08Z</time>
      </trkpt>
      <trkpt lat="46.0275530" lon="5.6208080">
        <ele>1091.6</ele>
        <time>2022-07-25T14:57:09Z</time>
      </trkpt>
      <trkpt lat="46.0275440" lon="5.6208040">
        <ele>1091.6</ele>
        <time>2022-07-25T14:57:10Z</time>
      </trkpt>
      <trkpt lat="46.0275340" lon="5.6208010">
        <ele>1091.6</ele>
        <time>2022-07-25T14:57:11Z</time>
      </trkpt>
      <trkpt lat="46.0275160" lon="5.6208040">
        <ele>1091.6</ele>
        <time>2022-07-25T14:57:12Z</time>
      </trkpt>
      <trkpt lat="46.0275000" lon="5.6208070">
        <ele>1091.6</ele>
        <time>2022-07-25T14:57:13Z</time>
      </trkpt>
      <trkpt lat="46.0274810" lon="5.6208110">
        <ele>1091.6</ele>
        <time>2022-07-25T14:57:14Z</time>
      </trkpt>
      <trkpt lat="46.0274490" lon="5.6208170">
        <ele>1091.5</ele>
        <time>2022-07-25T14:57:15Z</time>
      </trkpt>
      <trkpt lat="46.0274170" lon="5.6208250">
        <ele>1091.5</ele>
        <time>2022-07-25T14:57:16Z</time>
      </trkpt>
      <trkpt lat="46.0273620" lon="5.6208320">
        <ele>1091.5</ele>
        <time>2022-07-25T14:57:17Z</time>
      </trkpt>
      <trkpt lat="46.0272940" lon="5.6208300">
        <ele>1091.5</ele>
        <time>2022-07-25T14:57:18Z</time>
      </trkpt>
      <trkpt lat="46.0272320" lon="5.6208420">
        <ele>1091.6</ele>
        <time>2022-07-25T14:57:19Z</time>
      </trkpt>
      <trkpt lat="46.0271930" lon="5.6208590">
        <ele>1091.6</ele>
        <time>2022-07-25T14:57:20Z</time>
      </trkpt>
      <trkpt lat="46.0271560" lon="5.6208730">
        <ele>1091.7</ele>
        <time>2022-07-25T14:57:21Z</time>
      </trkpt>
      <trkpt lat="46.0271190" lon="5.6208710">
        <ele>1091.7</ele>
        <time>2022-07-25T14:57:22Z</time>
      </trkpt>
      <trkpt lat="46.0270850" lon="5.6208710">
        <ele>1091.8</ele>
        <time>2022-07-25T14:57:23Z</time>
      </trkpt>
      <trkpt lat="46.0270770" lon="5.6208720">
        <ele>1091.9</ele>
        <time>2022-07-25T14:57:24Z</time>
      </trkpt>
      <trkpt lat="46.0270390" lon="5.6208790">
        <ele>1092.0</ele>
        <time>2022-07-25T14:57:25Z</time>
      </trkpt>
      <trkpt lat="46.0270250" lon="5.6208810">
        <ele>1092.0</ele>
        <time>2022-07-25T14:57:26Z</time>
      </trkpt>
      <trkpt lat="46.0269900" lon="5.6208810">
        <ele>1092.2</ele>
        <time>2022-07-25T14:57:27Z</time>
      </trkpt>
      <trkpt lat="46.0269790" lon="5.6208800">
        <ele>1092.2</ele>
        <time>2022-07-25T14:57:28Z</time>
      </trkpt>
      <trkpt lat="46.0269440" lon="5.6208820">
        <ele>1092.4</ele>
        <time>2022-07-25T14:57:29Z</time>
      </trkpt>
      <trkpt lat="46.0269350" lon="5.6208840">
        <ele>1092.5</ele>
        <time>2022-07-25T14:57:30Z</time>
      </trkpt>
      <trkpt lat="46.0269200" lon="5.6208900">
        <ele>1092.6</ele>
        <time>2022-07-25T14:57:31Z</time>
      </trkpt>
      <trkpt lat="46.0269050" lon="5.6208990">
        <ele>1092.7</ele>
        <time>2022-07-25T14:57:32Z</time>
      </trkpt>
      <trkpt lat="46.0268900" lon="5.6209070">
        <ele>1092.8</ele>
        <time>2022-07-25T14:57:33Z</time>
      </trkpt>
      <trkpt lat="46.0268760" lon="5.6209140">
        <ele>1092.9</ele>
        <time>2022-07-25T14:57:34Z</time>
      </trkpt>
      <trkpt lat="46.0268490" lon="5.6209250">
        <ele>1093.2</ele>
        <time>2022-07-25T14:57:35Z</time>
      </trkpt>
      <trkpt lat="46.0268400" lon="5.6209270">
        <ele>1093.3</ele>
        <time>2022-07-25T14:57:36Z</time>
      </trkpt>
      <trkpt lat="46.0268110" lon="5.6209280">
        <ele>1093.5</ele>
        <time>2022-07-25T14:57:37Z</time>
      </trkpt>
      <trkpt lat="46.0268010" lon="5.6209280">
        <ele>1093.6</ele>
        <time>2022-07-25T14:57:38Z</time>
      </trkpt>
      <trkpt lat="46.0267690" lon="5.6209240">
        <ele>1093.9</ele>
        <time>2022-07-25T14:57:39Z</time>
      </trkpt>
      <trkpt lat="46.0267600" lon="5.6209230">
        <ele>1094.0</ele>
        <time>2022-07-25T14:57:40Z</time>
      </trkpt>
      <trkpt lat="46.0267380" lon="5.6209180">
        <ele>1094.3</ele>
        <time>2022-07-25T14:57:41Z</time>
      </trkpt>
      <trkpt lat="46.0267270" lon="5.6209150">
        <ele>1094.4</ele>
        <time>2022-07-25T14:57:42Z</time>
      </trkpt>
      <trkpt lat="46.0267060" lon="5.6209150">
        <ele>1094.6</ele>
        <time>2022-07-25T14:57:43Z</time>
      </trkpt>
      <trkpt lat="46.0266960" lon="5.6209160">
        <ele>1094.7</ele>
        <time>2022-07-25T14:57:44Z</time>
      </trkpt>
      <trkpt lat="46.0266850" lon="5.6209170">
        <ele>1094.8</ele>
        <time>2022-07-25T14:57:45Z</time>
      </trkpt>
      <trkpt lat="46.0266700" lon="5.6209220">
        <ele>1095.0</ele>
        <time>2022-07-25T14:57:46Z</time>
      </trkpt>
      <trkpt lat="46.0266550" lon="5.6209280">
        <ele>1095.2</ele>
        <time>2022-07-25T14:57:47Z</time>
      </trkpt>
      <trkpt lat="46.0266380" lon="5.6209350">
        <ele>1095.4</ele>
        <time>2022-07-25T14:57:48Z</time>
      </trkpt>
      <trkpt lat="46.0266240" lon="5.6209410">
        <ele>1095.5</ele>
        <time>2022-07-25T14:57:49Z</time>
      </trkpt>
      <trkpt lat="46.0265940" lon="5.6209540">
        <ele>1095.9</ele>
        <time>2022-07-25T14:57:51Z</time>
      </trkpt>
      <trkpt lat="46.0265870" lon="5.6209570">
        <ele>1096.0</ele>
        <time>2022-07-25T14:57:52Z</time>
      </trkpt>
      <trkpt lat="46.0265740" lon="5.6209630">
        <ele>1096.2</ele>
        <time>2022-07-25T14:57:53Z</time>
      </trkpt>
      <trkpt lat="46.0265610" lon="5.6209690">
        <ele>1096.3</ele>
        <time>2022-07-25T14:57:54Z</time>
      </trkpt>
      <trkpt lat="46.0265410" lon="5.6209720">
        <ele>1096.6</ele>
        <time>2022-07-25T14:57:55Z</time>
      </trkpt>
      <trkpt lat="46.0265320" lon="5.6209730">
        <ele>1096.7</ele>
        <time>2022-07-25T14:57:56Z</time>
      </trkpt>
      <trkpt lat="46.0265240" lon="5.6209750">
        <ele>1096.8</ele>
        <time>2022-07-25T14:57:57Z</time>
      </trkpt>
      <trkpt lat="46.0265070" lon="5.6209790">
        <ele>1097.1</ele>
        <time>2022-07-25T14:57:58Z</time>
      </trkpt>
      <trkpt lat="46.0264970" lon="5.6209830">
        <ele>1097.2</ele>
        <time>2022-07-25T14:58:00Z</time>
      </trkpt>
      <trkpt lat="46.0264860" lon="5.6209880">
        <ele>1097.4</ele>
        <time>2022-07-25T14:58:01Z</time>
      </trkpt>
      <trkpt lat="46.0264760" lon="5.6209920">
        <ele>1097.6</ele>
        <time>2022-07-25T14:58:02Z</time>
      </trkpt>
      <trkpt lat="46.0264670" lon="5.6209970">
        <ele>1097.7</ele>
        <time>2022-07-25T14:58:03Z</time>
      </trkpt>
      <trkpt lat="46.0264590" lon="5.6210070">
        <ele>1097.9</ele>
        <time>2022-07-25T14:58:04Z</time>
      </trkpt>
      <trkpt lat="46.0264520" lon="5.6210160">
        <ele>1098.1</ele>
        <time>2022-07-25T14:58:05Z</time>
      </trkpt>
      <trkpt lat="46.0264390" lon="5.6210320">
        <ele>1098.4</ele>
        <time>2022-07-25T14:58:06Z</time>
      </trkpt>
      <trkpt lat="46.0264290" lon="5.6210530">
        <ele>1098.7</ele>
        <time>2022-07-25T14:58:08Z</time>
      </trkpt>
      <trkpt lat="46.0264200" lon="5.6210790">
        <ele>1099.1</ele>
        <time>2022-07-25T14:58:09Z</time>
      </trkpt>
      <trkpt lat="46.0264160" lon="5.6210900">
        <ele>1099.2</ele>
        <time>2022-07-25T14:58:11Z</time>
      </trkpt>
      <trkpt lat="46.0264120" lon="5.6211000">
        <ele>1099.4</ele>
        <time>2022-07-25T14:58:12Z</time>
      </trkpt>
      <trkpt lat="46.0264080" lon="5.6211230">
        <ele>1099.7</ele>
        <time>2022-07-25T14:58:13Z</time>
      </trkpt>
      <trkpt lat="46.0264050" lon="5.6211370">
        <ele>1099.9</ele>
        <time>2022-07-25T14:58:14Z</time>
      </trkpt>
      <trkpt lat="46.0264030" lon="5.6211490">
        <ele>1100.1</ele>
        <time>2022-07-25T14:58:15Z</time>
      </trkpt>
      <trkpt lat="46.0264000" lon="5.6211740">
        <ele>1100.4</ele>
        <time>2022-07-25T14:58:17Z</time>
      </trkpt>
      <trkpt lat="46.0263970" lon="5.6211990">
        <ele>1100.8</ele>
        <time>2022-07-25T14:58:18Z</time>
      </trkpt>
      <trkpt lat="46.0263940" lon="5.6212280">
        <ele>1101.3</ele>
        <time>2022-07-25T14:58:19Z</time>
      </trkpt>
      <trkpt lat="46.0263910" lon="5.6212420">
        <ele>1101.5</ele>
        <time>2022-07-25T14:58:20Z</time>
      </trkpt>
      <trkpt lat="46.0263880" lon="5.6212560">
        <ele>1101.7</ele>
        <time>2022-07-25T14:58:21Z</time>
      </trkpt>
      <trkpt lat="46.0263820" lon="5.6212740">
        <ele>1102.1</ele>
        <time>2022-07-25T14:58:23Z</time>
      </trkpt>
      <trkpt lat="46.0263770" lon="5.6212880">
        <ele>1102.3</ele>
        <time>2022-07-25T14:58:24Z</time>
      </trkpt>
      <trkpt lat="46.0263740" lon="5.6212990">
        <ele>1102.5</ele>
        <time>2022-07-25T14:58:25Z</time>
      </trkpt>
      <trkpt lat="46.0263710" lon="5.6213110">
        <ele>1102.7</ele>
        <time>2022-07-25T14:58:26Z</time>
      </trkpt>
      <trkpt lat="46.0263690" lon="5.6213230">
        <ele>1103.0</ele>
        <time>2022-07-25T14:58:27Z</time>
      </trkpt>
      <trkpt lat="46.0263660" lon="5.6213360">
        <ele>1103.2</ele>
        <time>2022-07-25T14:58:28Z</time>
      </trkpt>
      <trkpt lat="46.0263590" lon="5.6213510">
        <ele>1103.6</ele>
        <time>2022-07-25T14:58:30Z</time>
      </trkpt>
      <trkpt lat="46.0263520" lon="5.6213620">
        <ele>1103.9</ele>
        <time>2022-07-25T14:58:31Z</time>
      </trkpt>
      <trkpt lat="46.0263440" lon="5.6213740">
        <ele>1104.2</ele>
        <time>2022-07-25T14:58:32Z</time>
      </trkpt>
      <trkpt lat="46.0263380" lon="5.6213810">
        <ele>1104.4</ele>
        <time>2022-07-25T14:58:33Z</time>
      </trkpt>
      <trkpt lat="46.0263310" lon="5.6214000">
        <ele>1104.8</ele>
        <time>2022-07-25T14:58:35Z</time>
      </trkpt>
      <trkpt lat="46.0263260" lon="5.6214190">
        <ele>1105.2</ele>
        <time>2022-07-25T14:58:36Z</time>
      </trkpt>
      <trkpt lat="46.0263220" lon="5.6214300">
        <ele>1105.4</ele>
        <time>2022-07-25T14:58:37Z</time>
      </trkpt>
      <trkpt lat="46.0263180" lon="5.6214430">
        <ele>1105.7</ele>
        <time>2022-07-25T14:58:38Z</time>
      </trkpt>
      <trkpt lat="46.0263130" lon="5.6214590">
        <ele>1106.0</ele>
        <time>2022-07-25T14:58:39Z</time>
      </trkpt>
      <trkpt lat="46.0263130" lon="5.6214730">
        <ele>1106.3</ele>
        <time>2022-07-25T14:58:41Z</time>
      </trkpt>
      <trkpt lat="46.0263120" lon="5.6214890">
        <ele>1106.6</ele>
        <time>2022-07-25T14:58:42Z</time>
      </trkpt>
      <trkpt lat="46.0263100" lon="5.6215070">
        <ele>1107.0</ele>
        <time>2022-07-25T14:58:43Z</time>
      </trkpt>
      <trkpt lat="46.0263100" lon="5.6215320">
        <ele>1107.5</ele>
        <time>2022-07-25T14:58:45Z</time>
      </trkpt>
      <trkpt lat="46.0263090" lon="5.6215390">
        <ele>1107.6</ele>
        <time>2022-07-25T14:58:46Z</time>
      </trkpt>
      <trkpt lat="46.0263080" lon="5.6215410">
        <ele>1107.7</ele>
        <time>2022-07-25T14:58:47Z</time>
      </trkpt>
      <trkpt lat="46.0263090" lon="5.6215410">
        <ele>1107.7</ele>
        <time>2022-07-25T14:58:48Z</time>
      </trkpt>
      <trkpt lat="46.0263120" lon="5.6215330">
        <ele>1107.9</ele>
        <time>2022-07-25T14:58:50Z</time>
      </trkpt>
      <trkpt lat="46.0263140" lon="5.6215320">
        <ele>1107.9</ele>
        <time>2022-07-25T14:58:51Z</time>
      </trkpt>
      <trkpt lat="46.0263130" lon="5.6215360">
        <ele>1108.0</ele>
        <time>2022-07-25T14:58:52Z</time>
      </trkpt>
      <trkpt lat="46.0263110" lon="5.6215410">
        <ele>1108.1</ele>
        <time>2022-07-25T14:58:53Z</time>
      </trkpt>
      <trkpt lat="46.0263100" lon="5.6215470">
        <ele>1108.2</ele>
        <time>2022-07-25T14:58:54Z</time>
      </trkpt>
      <trkpt lat="46.0263080" lon="5.6215510">
        <ele>1108.3</ele>
        <time>2022-07-25T14:58:55Z</time>
      </trkpt>
      <trkpt lat="46.0263060" lon="5.6215580">
        <ele>1108.5</ele>
        <time>2022-07-25T14:58:56Z</time>
      </trkpt>
      <trkpt lat="46.0263040" lon="5.6215710">
        <ele>1108.7</ele>
        <time>2022-07-25T14:58:57Z</time>
      </trkpt>
      <trkpt lat="46.0263010" lon="5.6215830">
        <ele>1109.0</ele>
        <time>2022-07-25T14:58:59Z</time>
      </trkpt>
      <trkpt lat="46.0262980" lon="5.6215930">
        <ele>1109.2</ele>
        <time>2022-07-25T14:59:00Z</time>
      </trkpt>
      <trkpt lat="46.0262970" lon="5.6216040">
        <ele>1109.4</ele>
        <time>2022-07-25T14:59:01Z</time>
      </trkpt>
      <trkpt lat="46.0262960" lon="5.6216100">
        <ele>1109.5</ele>
        <time>2022-07-25T14:59:02Z</time>
      </trkpt>
      <trkpt lat="46.0262940" lon="5.6216170">
        <ele>1109.6</ele>
        <time>2022-07-25T14:59:03Z</time>
      </trkpt>
      <trkpt lat="46.0262920" lon="5.6216310">
        <ele>1109.8</ele>
        <time>2022-07-25T14:59:04Z</time>
      </trkpt>
      <trkpt lat="46.0262880" lon="5.6216490">
        <ele>1110.1</ele>
        <time>2022-07-25T14:59:05Z</time>
      </trkpt>
      <trkpt lat="46.0262820" lon="5.6216800">
        <ele>1110.6</ele>
        <time>2022-07-25T14:59:07Z</time>
      </trkpt>
      <trkpt lat="46.0262800" lon="5.6216980">
        <ele>1110.9</ele>
        <time>2022-07-25T14:59:08Z</time>
      </trkpt>
      <trkpt lat="46.0262800" lon="5.6217070">
        <ele>1111.0</ele>
        <time>2022-07-25T14:59:09Z</time>
      </trkpt>
      <trkpt lat="46.0262790" lon="5.6217160">
        <ele>1111.1</ele>
        <time>2022-07-25T14:59:10Z</time>
      </trkpt>
      <trkpt lat="46.0262790" lon="5.6217280">
        <ele>1111.3</ele>
        <time>2022-07-25T14:59:11Z</time>
      </trkpt>
      <trkpt lat="46.0262780" lon="5.6217430">
        <ele>1111.5</ele>
        <time>2022-07-25T14:59:12Z</time>
      </trkpt>
      <trkpt lat="46.0262760" lon="5.6217560">
        <ele>1111.7</ele>
        <time>2022-07-25T14:59:13Z</time>
      </trkpt>
      <trkpt lat="46.0262730" lon="5.6217670">
        <ele>1111.8</ele>
        <time>2022-07-25T14:59:14Z</time>
      </trkpt>
      <trkpt lat="46.0262700" lon="5.6217780">
        <ele>1112.0</ele>
        <time>2022-07-25T14:59:15Z</time>
      </trkpt>
      <trkpt lat="46.0262680" lon="5.6217910">
        <ele>1112.2</ele>
        <time>2022-07-25T14:59:17Z</time>
      </trkpt>
      <trkpt lat="46.0262650" lon="5.6218030">
        <ele>1112.3</ele>
        <time>2022-07-25T14:59:18Z</time>
      </trkpt>
      <trkpt lat="46.0262630" lon="5.6218140">
        <ele>1112.5</ele>
        <time>2022-07-25T14:59:19Z</time>
      </trkpt>
      <trkpt lat="46.0262620" lon="5.6218170">
        <ele>1112.5</ele>
        <time>2022-07-25T14:59:20Z</time>
      </trkpt>
      <trkpt lat="46.0262610" lon="5.6218190">
        <ele>1112.5</ele>
        <time>2022-07-25T14:59:21Z</time>
      </trkpt>
      <trkpt lat="46.0262600" lon="5.6218220">
        <ele>1112.6</ele>
        <time>2022-07-25T14:59:22Z</time>
      </trkpt>
      <trkpt lat="46.0262600" lon="5.6218260">
        <ele>1112.6</ele>
        <time>2022-07-25T14:59:23Z</time>
      </trkpt>
      <trkpt lat="46.0262580" lon="5.6218340">
        <ele>1112.7</ele>
        <time>2022-07-25T14:59:24Z</time>
      </trkpt>
      <trkpt lat="46.0262520" lon="5.6218480">
        <ele>1112.9</ele>
        <time>2022-07-25T14:59:25Z</time>
      </trkpt>
      <trkpt lat="46.0262520" lon="5.6218470">
        <ele>1112.9</ele>
        <time>2022-07-25T14:59:26Z</time>
      </trkpt>
      <trkpt lat="46.0262510" lon="5.6218470">
        <ele>1112.9</ele>
        <time>2022-07-25T14:59:27Z</time>
      </trkpt>
      <trkpt lat="46.0262510" lon="5.6218480">
        <ele>1112.9</ele>
        <time>2022-07-25T14:59:28Z</time>
      </trkpt>
      <trkpt lat="46.0262510" lon="5.6218490">
        <ele>1113.0</ele>
        <time>2022-07-25T14:59:29Z</time>
      </trkpt>
      <trkpt lat="46.0262510" lon="5.6218520">
        <ele>1113.0</ele>
        <time>2022-07-25T14:59:30Z</time>
      </trkpt>
      <trkpt lat="46.0262510" lon="5.6218530">
        <ele>1113.0</ele>
        <time>2022-07-25T14:59:31Z</time>
      </trkpt>
      <trkpt lat="46.0262490" lon="5.6218640">
        <ele>1113.1</ele>
        <time>2022-07-25T14:59:32Z</time>
      </trkpt>
      <trkpt lat="46.0262470" lon="5.6218730">
        <ele>1113.2</ele>
        <time>2022-07-25T14:59:33Z</time>
      </trkpt>
      <trkpt lat="46.0262430" lon="5.6218830">
        <ele>1113.5</ele>
        <time>2022-07-25T14:59:34Z</time>
      </trkpt>
      <trkpt lat="46.0262380" lon="5.6218940">
        <ele>1113.6</ele>
        <time>2022-07-25T14:59:35Z</time>
      </trkpt>
      <trkpt lat="46.0262350" lon="5.6219020">
        <ele>1113.6</ele>
        <time>2022-07-25T14:59:36Z</time>
      </trkpt>
      <trkpt lat="46.0262320" lon="5.6219140">
        <ele>1113.7</ele>
        <time>2022-07-25T14:59:37Z</time>
      </trkpt>
      <trkpt lat="46.0262320" lon="5.6219300">
        <ele>1113.7</ele>
        <time>2022-07-25T14:59:38Z</time>
      </trkpt>
      <trkpt lat="46.0262330" lon="5.6219440">
        <ele>1113.8</ele>
        <time>2022-07-25T14:59:39Z</time>
      </trkpt>
      <trkpt lat="46.0262350" lon="5.6219560">
        <ele>1113.9</ele>
        <time>2022-07-25T14:59:40Z</time>
      </trkpt>
      <trkpt lat="46.0262370" lon="5.6219690">
        <ele>1113.9</ele>
        <time>2022-07-25T14:59:41Z</time>
      </trkpt>
      <trkpt lat="46.0262370" lon="5.6219780">
        <ele>1114.0</ele>
        <time>2022-07-25T14:59:42Z</time>
      </trkpt>
      <trkpt lat="46.0262360" lon="5.6219830">
        <ele>1114.0</ele>
        <time>2022-07-25T14:59:43Z</time>
      </trkpt>
      <trkpt lat="46.0262350" lon="5.6219890">
        <ele>1114.0</ele>
        <time>2022-07-25T14:59:44Z</time>
      </trkpt>
      <trkpt lat="46.0262340" lon="5.6219940">
        <ele>1114.1</ele>
        <time>2022-07-25T14:59:45Z</time>
      </trkpt>
      <trkpt lat="46.0262320" lon="5.6219990">
        <ele>1114.1</ele>
        <time>2022-07-25T14:59:46Z</time>
      </trkpt>
      <trkpt lat="46.0262310" lon="5.6220030">
        <ele>1114.1</ele>
        <time>2022-07-25T14:59:47Z</time>
      </trkpt>
      <trkpt lat="46.0262300" lon="5.6220060">
        <ele>1114.2</ele>
        <time>2022-07-25T14:59:48Z</time>
      </trkpt>
      <trkpt lat="46.0262300" lon="5.6220100">
        <ele>1114.2</ele>
        <time>2022-07-25T14:59:49Z</time>
      </trkpt>
      <trkpt lat="46.0262300" lon="5.6220130">
        <ele>1114.2</ele>
        <time>2022-07-25T14:59:50Z</time>
      </trkpt>
      <trkpt lat="46.0262290" lon="5.6220140">
        <ele>1114.2</ele>
        <time>2022-07-25T14:59:51Z</time>
      </trkpt>
      <trkpt lat="46.0262300" lon="5.6220240">
        <ele>1114.3</ele>
        <time>2022-07-25T14:59:54Z</time>
      </trkpt>
      <trkpt lat="46.0262350" lon="5.6220300">
        <ele>1114.3</ele>
        <time>2022-07-25T14:59:55Z</time>
      </trkpt>
      <trkpt lat="46.0262400" lon="5.6220390">
        <ele>1114.4</ele>
        <time>2022-07-25T14:59:56Z</time>
      </trkpt>
      <trkpt lat="46.0262450" lon="5.6220450">
        <ele>1114.5</ele>
        <time>2022-07-25T14:59:57Z</time>
      </trkpt>
      <trkpt lat="46.0262520" lon="5.6220550">
        <ele>1114.6</ele>
        <time>2022-07-25T14:59:58Z</time>
      </trkpt>
      <trkpt lat="46.0262620" lon="5.6220690">
        <ele>1114.7</ele>
        <time>2022-07-25T14:59:59Z</time>
      </trkpt>
      <trkpt lat="46.0262710" lon="5.6220930">
        <ele>1114.9</ele>
        <time>2022-07-25T15:00:00Z</time>
      </trkpt>
      <trkpt lat="46.0262840" lon="5.6221330">
        <ele>1115.3</ele>
        <time>2022-07-25T15:00:01Z</time>
      </trkpt>
      <trkpt lat="46.0262900" lon="5.6221540">
        <ele>1115.5</ele>
        <time>2022-07-25T15:00:02Z</time>
      </trkpt>
      <trkpt lat="46.0263030" lon="5.6221980">
        <ele>1115.9</ele>
        <time>2022-07-25T15:00:04Z</time>
      </trkpt>
      <trkpt lat="46.0263060" lon="5.6222070">
        <ele>1116.0</ele>
        <time>2022-07-25T15:00:05Z</time>
      </trkpt>
      <trkpt lat="46.0263130" lon="5.6222210">
        <ele>1116.2</ele>
        <time>2022-07-25T15:00:06Z</time>
      </trkpt>
      <trkpt lat="46.0263240" lon="5.6222390">
        <ele>1116.4</ele>
        <time>2022-07-25T15:00:07Z</time>
      </trkpt>
      <trkpt lat="46.0263360" lon="5.6222600">
        <ele>1116.7</ele>
        <time>2022-07-25T15:00:09Z</time>
      </trkpt>
      <trkpt lat="46.0263470" lon="5.6222740">
        <ele>1117.0</ele>
        <time>2022-07-25T15:00:10Z</time>
      </trkpt>
      <trkpt lat="46.0263590" lon="5.6222890">
        <ele>1117.2</ele>
        <time>2022-07-25T15:00:11Z</time>
      </trkpt>
      <trkpt lat="46.0263690" lon="5.6223020">
        <ele>1117.4</ele>
        <time>2022-07-25T15:00:12Z</time>
      </trkpt>
      <trkpt lat="46.0263830" lon="5.6223250">
        <ele>1117.8</ele>
        <time>2022-07-25T15:00:13Z</time>
      </trkpt>
      <trkpt lat="46.0263890" lon="5.6223330">
        <ele>1117.9</ele>
        <time>2022-07-25T15:00:14Z</time>
      </trkpt>
      <trkpt lat="46.0263950" lon="5.6223400">
        <ele>1118.0</ele>
        <time>2022-07-25T15:00:15Z</time>
      </trkpt>
      <trkpt lat="46.0264060" lon="5.6223520">
        <ele>1118.3</ele>
        <time>2022-07-25T15:00:16Z</time>
      </trkpt>
      <trkpt lat="46.0264180" lon="5.6223650">
        <ele>1118.5</ele>
        <time>2022-07-25T15:00:17Z</time>
      </trkpt>
      <trkpt lat="46.0264400" lon="5.6223800">
        <ele>1118.9</ele>
        <time>2022-07-25T15:00:18Z</time>
      </trkpt>
      <trkpt lat="46.0264480" lon="5.6223860">
        <ele>1119.0</ele>
        <time>2022-07-25T15:00:19Z</time>
      </trkpt>
      <trkpt lat="46.0264550" lon="5.6223920">
        <ele>1119.2</ele>
        <time>2022-07-25T15:00:20Z</time>
      </trkpt>
      <trkpt lat="46.0264680" lon="5.6224050">
        <ele>1119.4</ele>
        <time>2022-07-25T15:00:21Z</time>
      </trkpt>
      <trkpt lat="46.0264820" lon="5.6224130">
        <ele>1119.7</ele>
        <time>2022-07-25T15:00:22Z</time>
      </trkpt>
      <trkpt lat="46.0265010" lon="5.6224230">
        <ele>1120.0</ele>
        <time>2022-07-25T15:00:23Z</time>
      </trkpt>
      <trkpt lat="46.0265250" lon="5.6224380">
        <ele>1120.3</ele>
        <time>2022-07-25T15:00:25Z</time>
      </trkpt>
      <trkpt lat="46.0265560" lon="5.6224510">
        <ele>1120.8</ele>
        <time>2022-07-25T15:00:26Z</time>
      </trkpt>
      <trkpt lat="46.0265730" lon="5.6224610">
        <ele>1121.0</ele>
        <time>2022-07-25T15:00:27Z</time>
      </trkpt>
      <trkpt lat="46.0265860" lon="5.6224670">
        <ele>1121.2</ele>
        <time>2022-07-25T15:00:28Z</time>
      </trkpt>
      <trkpt lat="46.0265950" lon="5.6224710">
        <ele>1121.3</ele>
        <time>2022-07-25T15:00:29Z</time>
      </trkpt>
      <trkpt lat="46.0266010" lon="5.6224740">
        <ele>1121.3</ele>
        <time>2022-07-25T15:00:30Z</time>
      </trkpt>
      <trkpt lat="46.0266080" lon="5.6224780">
        <ele>1121.4</ele>
        <time>2022-07-25T15:00:31Z</time>
      </trkpt>
      <trkpt lat="46.0266170" lon="5.6224840">
        <ele>1121.5</ele>
        <time>2022-07-25T15:00:32Z</time>
      </trkpt>
      <trkpt lat="46.0266240" lon="5.6224880">
        <ele>1121.6</ele>
        <time>2022-07-25T15:00:33Z</time>
      </trkpt>
      <trkpt lat="46.0266340" lon="5.6224950">
        <ele>1121.7</ele>
        <time>2022-07-25T15:00:34Z</time>
      </trkpt>
      <trkpt lat="46.0266470" lon="5.6225020">
        <ele>1121.8</ele>
        <time>2022-07-25T15:00:35Z</time>
      </trkpt>
      <trkpt lat="46.0266640" lon="5.6225040">
        <ele>1122.0</ele>
        <time>2022-07-25T15:00:36Z</time>
      </trkpt>
      <trkpt lat="46.0266720" lon="5.6225030">
        <ele>1122.1</ele>
        <time>2022-07-25T15:00:37Z</time>
      </trkpt>
      <trkpt lat="46.0266800" lon="5.6225010">
        <ele>1122.1</ele>
        <time>2022-07-25T15:00:38Z</time>
      </trkpt>
      <trkpt lat="46.0266880" lon="5.6225000">
        <ele>1122.2</ele>
        <time>2022-07-25T15:00:39Z</time>
      </trkpt>
      <trkpt lat="46.0267080" lon="5.6224950">
        <ele>1122.4</ele>
        <time>2022-07-25T15:00:40Z</time>
      </trkpt>
      <trkpt lat="46.0267160" lon="5.6224920">
        <ele>1122.4</ele>
        <time>2022-07-25T15:00:41Z</time>
      </trkpt>
      <trkpt lat="46.0267250" lon="5.6224900">
        <ele>1122.5</ele>
        <time>2022-07-25T15:00:42Z</time>
      </trkpt>
      <trkpt lat="46.0267420" lon="5.6224860">
        <ele>1122.6</ele>
        <time>2022-07-25T15:00:43Z</time>
      </trkpt>
      <trkpt lat="46.0267590" lon="5.6224850">
        <ele>1122.7</ele>
        <time>2022-07-25T15:00:44Z</time>
      </trkpt>
      <trkpt lat="46.0267970" lon="5.6224770">
        <ele>1123.0</ele>
        <time>2022-07-25T15:00:45Z</time>
      </trkpt>
      <trkpt lat="46.0268170" lon="5.6224720">
        <ele>1123.1</ele>
        <time>2022-07-25T15:00:46Z</time>
      </trkpt>
      <trkpt lat="46.0268370" lon="5.6224740">
        <ele>1123.2</ele>
        <time>2022-07-25T15:00:47Z</time>
      </trkpt>
      <trkpt lat="46.0268500" lon="5.6224730">
        <ele>1123.3</ele>
        <time>2022-07-25T15:00:48Z</time>
      </trkpt>
      <trkpt lat="46.0268790" lon="5.6224790">
        <ele>1123.4</ele>
        <time>2022-07-25T15:00:49Z</time>
      </trkpt>
      <trkpt lat="46.0268900" lon="5.6224790">
        <ele>1123.5</ele>
        <time>2022-07-25T15:00:50Z</time>
      </trkpt>
      <trkpt lat="46.0269190" lon="5.6224740">
        <ele>1123.6</ele>
        <time>2022-07-25T15:00:51Z</time>
      </trkpt>
      <trkpt lat="46.0269270" lon="5.6224710">
        <ele>1123.7</ele>
        <time>2022-07-25T15:00:52Z</time>
      </trkpt>
      <trkpt lat="46.0269400" lon="5.6224630">
        <ele>1123.8</ele>
        <time>2022-07-25T15:00:53Z</time>
      </trkpt>
      <trkpt lat="46.0269570" lon="5.6224520">
        <ele>1123.9</ele>
        <time>2022-07-25T15:00:54Z</time>
      </trkpt>
      <trkpt lat="46.0269860" lon="5.6224420">
        <ele>1124.1</ele>
        <time>2022-07-25T15:00:55Z</time>
      </trkpt>
      <trkpt lat="46.0269960" lon="5.6224390">
        <ele>1124.1</ele>
        <time>2022-07-25T15:00:56Z</time>
      </trkpt>
      <trkpt lat="46.0270290" lon="5.6224340">
        <ele>1124.4</ele>
        <time>2022-07-25T15:00:57Z</time>
      </trkpt>
      <trkpt lat="46.0270380" lon="5.6224340">
        <ele>1124.5</ele>
        <time>2022-07-25T15:00:58Z</time>
      </trkpt>
      <trkpt lat="46.0270650" lon="5.6224370">
        <ele>1124.7</ele>
        <time>2022-07-25T15:00:59Z</time>
      </trkpt>
      <trkpt lat="46.0270760" lon="5.6224380">
        <ele>1124.8</ele>
        <time>2022-07-25T15:01:00Z</time>
      </trkpt>
      <trkpt lat="46.0270890" lon="5.6224410">
        <ele>1125.0</ele>
        <time>2022-07-25T15:01:01Z</time>
      </trkpt>
      <trkpt lat="46.0271060" lon="5.6224470">
        <ele>1125.1</ele>
        <time>2022-07-25T15:01:02Z</time>
      </trkpt>
      <trkpt lat="46.0271340" lon="5.6224660">
        <ele>1125.5</ele>
        <time>2022-07-25T15:01:03Z</time>
      </trkpt>
      <trkpt lat="46.0271430" lon="5.6224750">
        <ele>1125.6</ele>
        <time>2022-07-25T15:01:04Z</time>
      </trkpt>
      <trkpt lat="46.0271550" lon="5.6224910">
        <ele>1125.8</ele>
        <time>2022-07-25T15:01:05Z</time>
      </trkpt>
      <trkpt lat="46.0271640" lon="5.6225120">
        <ele>1126.0</ele>
        <time>2022-07-25T15:01:06Z</time>
      </trkpt>
      <trkpt lat="46.0271690" lon="5.6225340">
        <ele>1126.4</ele>
        <time>2022-07-25T15:01:07Z</time>
      </trkpt>
      <trkpt lat="46.0271700" lon="5.6225550">
        <ele>1126.6</ele>
        <time>2022-07-25T15:01:08Z</time>
      </trkpt>
      <trkpt lat="46.0271720" lon="5.6225730">
        <ele>1126.7</ele>
        <time>2022-07-25T15:01:09Z</time>
      </trkpt>
      <trkpt lat="46.0271730" lon="5.6225870">
        <ele>1126.8</ele>
        <time>2022-07-25T15:01:10Z</time>
      </trkpt>
      <trkpt lat="46.0271710" lon="5.6226060">
        <ele>1126.9</ele>
        <time>2022-07-25T15:01:11Z</time>
      </trkpt>
      <trkpt lat="46.0271660" lon="5.6226230">
        <ele>1127.1</ele>
        <time>2022-07-25T15:01:12Z</time>
      </trkpt>
      <trkpt lat="46.0271640" lon="5.6226350">
        <ele>1127.1</ele>
        <time>2022-07-25T15:01:13Z</time>
      </trkpt>
      <trkpt lat="46.0271610" lon="5.6226480">
        <ele>1127.2</ele>
        <time>2022-07-25T15:01:14Z</time>
      </trkpt>
      <trkpt lat="46.0271420" lon="5.6226690">
        <ele>1127.4</ele>
        <time>2022-07-25T15:01:15Z</time>
      </trkpt>
      <trkpt lat="46.0271310" lon="5.6226730">
        <ele>1127.5</ele>
        <time>2022-07-25T15:01:16Z</time>
      </trkpt>
      <trkpt lat="46.0271210" lon="5.6226770">
        <ele>1127.6</ele>
        <time>2022-07-25T15:01:17Z</time>
      </trkpt>
      <trkpt lat="46.0271080" lon="5.6226770">
        <ele>1127.7</ele>
        <time>2022-07-25T15:01:18Z</time>
      </trkpt>
      <trkpt lat="46.0270930" lon="5.6226800">
        <ele>1127.9</ele>
        <time>2022-07-25T15:01:19Z</time>
      </trkpt>
      <trkpt lat="46.0270790" lon="5.6226860">
        <ele>1128.0</ele>
        <time>2022-07-25T15:01:20Z</time>
      </trkpt>
      <trkpt lat="46.0270600" lon="5.6226920">
        <ele>1128.1</ele>
        <time>2022-07-25T15:01:21Z</time>
      </trkpt>
      <trkpt lat="46.0270300" lon="5.6226890">
        <ele>1128.3</ele>
        <time>2022-07-25T15:01:22Z</time>
      </trkpt>
      <trkpt lat="46.0270210" lon="5.6226880">
        <ele>1128.4</ele>
        <time>2022-07-25T15:01:23Z</time>
      </trkpt>
      <trkpt lat="46.0270070" lon="5.6226950">
        <ele>1128.5</ele>
        <time>2022-07-25T15:01:24Z</time>
      </trkpt>
      <trkpt lat="46.0269950" lon="5.6227030">
        <ele>1128.6</ele>
        <time>2022-07-25T15:01:25Z</time>
      </trkpt>
      <trkpt lat="46.0269760" lon="5.6227190">
        <ele>1128.7</ele>
        <time>2022-07-25T15:01:26Z</time>
      </trkpt>
      <trkpt lat="46.0269670" lon="5.6227260">
        <ele>1128.8</ele>
        <time>2022-07-25T15:01:27Z</time>
      </trkpt>
      <trkpt lat="46.0269570" lon="5.6227330">
        <ele>1128.9</ele>
        <time>2022-07-25T15:01:28Z</time>
      </trkpt>
      <trkpt lat="46.0269310" lon="5.6227420">
        <ele>1129.0</ele>
        <time>2022-07-25T15:01:29Z</time>
      </trkpt>
      <trkpt lat="46.0269220" lon="5.6227460">
        <ele>1129.1</ele>
        <time>2022-07-25T15:01:30Z</time>
      </trkpt>
      <trkpt lat="46.0269070" lon="5.6227530">
        <ele>1129.1</ele>
        <time>2022-07-25T15:01:31Z</time>
      </trkpt>
      <trkpt lat="46.0268920" lon="5.6227690">
        <ele>1129.2</ele>
        <time>2022-07-25T15:01:32Z</time>
      </trkpt>
      <trkpt lat="46.0268680" lon="5.6227990">
        <ele>1129.4</ele>
        <time>2022-07-25T15:01:33Z</time>
      </trkpt>
      <trkpt lat="46.0268580" lon="5.6228090">
        <ele>1129.4</ele>
        <time>2022-07-25T15:01:34Z</time>
      </trkpt>
      <trkpt lat="46.0268250" lon="5.6228240">
        <ele>1129.5</ele>
        <time>2022-07-25T15:01:35Z</time>
      </trkpt>
      <trkpt lat="46.0268140" lon="5.6228290">
        <ele>1129.5</ele>
        <time>2022-07-25T15:01:36Z</time>
      </trkpt>
      <trkpt lat="46.0267850" lon="5.6228340">
        <ele>1129.6</ele>
        <time>2022-07-25T15:01:37Z</time>
      </trkpt>
      <trkpt lat="46.0267770" lon="5.6228350">
        <ele>1129.6</ele>
        <time>2022-07-25T15:01:38Z</time>
      </trkpt>
      <trkpt lat="46.0267490" lon="5.6228440">
        <ele>1129.7</ele>
        <time>2022-07-25T15:01:39Z</time>
      </trkpt>
      <trkpt lat="46.0267380" lon="5.6228500">
        <ele>1129.7</ele>
        <time>2022-07-25T15:01:40Z</time>
      </trkpt>
      <trkpt lat="46.0267110" lon="5.6228620">
        <ele>1129.7</ele>
        <time>2022-07-25T15:01:41Z</time>
      </trkpt>
      <trkpt lat="46.0266820" lon="5.6228720">
        <ele>1129.7</ele>
        <time>2022-07-25T15:01:42Z</time>
      </trkpt>
      <trkpt lat="46.0266440" lon="5.6228880">
        <ele>1129.7</ele>
        <time>2022-07-25T15:01:43Z</time>
      </trkpt>
      <trkpt lat="46.0266120" lon="5.6228950">
        <ele>1129.7</ele>
        <time>2022-07-25T15:01:44Z</time>
      </trkpt>
      <trkpt lat="46.0265790" lon="5.6229010">
        <ele>1129.7</ele>
        <time>2022-07-25T15:01:45Z</time>
      </trkpt>
      <trkpt lat="46.0265510" lon="5.6229050">
        <ele>1129.7</ele>
        <time>2022-07-25T15:01:46Z</time>
      </trkpt>
      <trkpt lat="46.0265200" lon="5.6229110">
        <ele>1129.7</ele>
        <time>2022-07-25T15:01:47Z</time>
      </trkpt>
      <trkpt lat="46.0264910" lon="5.6229180">
        <ele>1129.7</ele>
        <time>2022-07-25T15:01:48Z</time>
      </trkpt>
      <trkpt lat="46.0264620" lon="5.6229290">
        <ele>1129.8</ele>
        <time>2022-07-25T15:01:49Z</time>
      </trkpt>
      <trkpt lat="46.0264340" lon="5.6229340">
        <ele>1129.8</ele>
        <time>2022-07-25T15:01:50Z</time>
      </trkpt>
      <trkpt lat="46.0264000" lon="5.6229440">
        <ele>1129.8</ele>
        <time>2022-07-25T15:01:51Z</time>
      </trkpt>
      <trkpt lat="46.0263620" lon="5.6229550">
        <ele>1129.8</ele>
        <time>2022-07-25T15:01:52Z</time>
      </trkpt>
      <trkpt lat="46.0263510" lon="5.6229600">
        <ele>1129.8</ele>
        <time>2022-07-25T15:01:53Z</time>
      </trkpt>
      <trkpt lat="46.0263240" lon="5.6229810">
        <ele>1129.9</ele>
        <time>2022-07-25T15:01:54Z</time>
      </trkpt>
      <trkpt lat="46.0262920" lon="5.6230060">
        <ele>1130.0</ele>
        <time>2022-07-25T15:01:55Z</time>
      </trkpt>
      <trkpt lat="46.0262570" lon="5.6230320">
        <ele>1130.1</ele>
        <time>2022-07-25T15:01:56Z</time>
      </trkpt>
      <trkpt lat="46.0262280" lon="5.6230530">
        <ele>1130.2</ele>
        <time>2022-07-25T15:01:57Z</time>
      </trkpt>
      <trkpt lat="46.0261970" lon="5.6230760">
        <ele>1130.3</ele>
        <time>2022-07-25T15:01:58Z</time>
      </trkpt>
      <trkpt lat="46.0261700" lon="5.6230910">
        <ele>1130.5</ele>
        <time>2022-07-25T15:01:59Z</time>
      </trkpt>
      <trkpt lat="46.0261400" lon="5.6231050">
        <ele>1130.7</ele>
        <time>2022-07-25T15:02:00Z</time>
      </trkpt>
      <trkpt lat="46.0261050" lon="5.6231320">
        <ele>1130.9</ele>
        <time>2022-07-25T15:02:01Z</time>
      </trkpt>
      <trkpt lat="46.0260940" lon="5.6231430">
        <ele>1131.0</ele>
        <time>2022-07-25T15:02:02Z</time>
      </trkpt>
      <trkpt lat="46.0260650" lon="5.6231780">
        <ele>1131.3</ele>
        <time>2022-07-25T15:02:03Z</time>
      </trkpt>
      <trkpt lat="46.0260570" lon="5.6231870">
        <ele>1131.3</ele>
        <time>2022-07-25T15:02:04Z</time>
      </trkpt>
      <trkpt lat="46.0260370" lon="5.6232140">
        <ele>1131.5</ele>
        <time>2022-07-25T15:02:05Z</time>
      </trkpt>
      <trkpt lat="46.0260300" lon="5.6232240">
        <ele>1131.6</ele>
        <time>2022-07-25T15:02:06Z</time>
      </trkpt>
      <trkpt lat="46.0260050" lon="5.6232600">
        <ele>1131.9</ele>
        <time>2022-07-25T15:02:07Z</time>
      </trkpt>
      <trkpt lat="46.0259970" lon="5.6232720">
        <ele>1132.0</ele>
        <time>2022-07-25T15:02:08Z</time>
      </trkpt>
      <trkpt lat="46.0259840" lon="5.6233090">
        <ele>1132.3</ele>
        <time>2022-07-25T15:02:09Z</time>
      </trkpt>
      <trkpt lat="46.0259820" lon="5.6233220">
        <ele>1132.4</ele>
        <time>2022-07-25T15:02:10Z</time>
      </trkpt>
      <trkpt lat="46.0259720" lon="5.6233610">
        <ele>1132.6</ele>
        <time>2022-07-25T15:02:11Z</time>
      </trkpt>
      <trkpt lat="46.0259690" lon="5.6233760">
        <ele>1132.7</ele>
        <time>2022-07-25T15:02:12Z</time>
      </trkpt>
      <trkpt lat="46.0259650" lon="5.6233990">
        <ele>1132.9</ele>
        <time>2022-07-25T15:02:13Z</time>
      </trkpt>
      <trkpt lat="46.0259620" lon="5.6234230">
        <ele>1133.1</ele>
        <time>2022-07-25T15:02:14Z</time>
      </trkpt>
      <trkpt lat="46.0259570" lon="5.6234450">
        <ele>1133.2</ele>
        <time>2022-07-25T15:02:15Z</time>
      </trkpt>
      <trkpt lat="46.0259500" lon="5.6234670">
        <ele>1133.4</ele>
        <time>2022-07-25T15:02:16Z</time>
      </trkpt>
      <trkpt lat="46.0259410" lon="5.6234860">
        <ele>1133.6</ele>
        <time>2022-07-25T15:02:17Z</time>
      </trkpt>
      <trkpt lat="46.0259280" lon="5.6235050">
        <ele>1133.8</ele>
        <time>2022-07-25T15:02:18Z</time>
      </trkpt>
      <trkpt lat="46.0259150" lon="5.6235250">
        <ele>1134.0</ele>
        <time>2022-07-25T15:02:19Z</time>
      </trkpt>
      <trkpt lat="46.0259080" lon="5.6235360">
        <ele>1134.1</ele>
        <time>2022-07-25T15:02:20Z</time>
      </trkpt>
      <trkpt lat="46.0258990" lon="5.6235500">
        <ele>1134.2</ele>
        <time>2022-07-25T15:02:21Z</time>
      </trkpt>
      <trkpt lat="46.0258880" lon="5.6235710">
        <ele>1134.4</ele>
        <time>2022-07-25T15:02:22Z</time>
      </trkpt>
      <trkpt lat="46.0258730" lon="5.6235870">
        <ele>1134.6</ele>
        <time>2022-07-25T15:02:23Z</time>
      </trkpt>
      <trkpt lat="46.0258520" lon="5.6236010">
        <ele>1134.8</ele>
        <time>2022-07-25T15:02:25Z</time>
      </trkpt>
      <trkpt lat="46.0258300" lon="5.6236180">
        <ele>1135.0</ele>
        <time>2022-07-25T15:02:26Z</time>
      </trkpt>
      <trkpt lat="46.0258210" lon="5.6236260">
        <ele>1135.2</ele>
        <time>2022-07-25T15:02:28Z</time>
      </trkpt>
      <trkpt lat="46.0258130" lon="5.6236340">
        <ele>1135.3</ele>
        <time>2022-07-25T15:02:29Z</time>
      </trkpt>
      <trkpt lat="46.0258050" lon="5.6236420">
        <ele>1135.3</ele>
        <time>2022-07-25T15:02:30Z</time>
      </trkpt>
      <trkpt lat="46.0257960" lon="5.6236500">
        <ele>1135.5</ele>
        <time>2022-07-25T15:02:31Z</time>
      </trkpt>
      <trkpt lat="46.0257850" lon="5.6236600">
        <ele>1135.6</ele>
        <time>2022-07-25T15:02:32Z</time>
      </trkpt>
      <trkpt lat="46.0257750" lon="5.6236650">
        <ele>1135.7</ele>
        <time>2022-07-25T15:02:33Z</time>
      </trkpt>
      <trkpt lat="46.0257610" lon="5.6236740">
        <ele>1135.8</ele>
        <time>2022-07-25T15:02:35Z</time>
      </trkpt>
      <trkpt lat="46.0257410" lon="5.6236880">
        <ele>1136.1</ele>
        <time>2022-07-25T15:02:36Z</time>
      </trkpt>
      <trkpt lat="46.0257330" lon="5.6236930">
        <ele>1136.2</ele>
        <time>2022-07-25T15:02:37Z</time>
      </trkpt>
      <trkpt lat="46.0257250" lon="5.6236990">
        <ele>1136.2</ele>
        <time>2022-07-25T15:02:38Z</time>
      </trkpt>
      <trkpt lat="46.0257180" lon="5.6237050">
        <ele>1136.3</ele>
        <time>2022-07-25T15:02:39Z</time>
      </trkpt>
      <trkpt lat="46.0257110" lon="5.6237140">
        <ele>1136.4</ele>
        <time>2022-07-25T15:02:40Z</time>
      </trkpt>
      <trkpt lat="46.0257030" lon="5.6237240">
        <ele>1136.5</ele>
        <time>2022-07-25T15:02:41Z</time>
      </trkpt>
      <trkpt lat="46.0256800" lon="5.6237410">
        <ele>1136.8</ele>
        <time>2022-07-25T15:02:42Z</time>
      </trkpt>
      <trkpt lat="46.0256700" lon="5.6237480">
        <ele>1136.9</ele>
        <time>2022-07-25T15:02:43Z</time>
      </trkpt>
      <trkpt lat="46.0256600" lon="5.6237550">
        <ele>1137.0</ele>
        <time>2022-07-25T15:02:44Z</time>
      </trkpt>
      <trkpt lat="46.0256470" lon="5.6237670">
        <ele>1137.2</ele>
        <time>2022-07-25T15:02:45Z</time>
      </trkpt>
      <trkpt lat="46.0256350" lon="5.6237830">
        <ele>1137.4</ele>
        <time>2022-07-25T15:02:46Z</time>
      </trkpt>
      <trkpt lat="46.0256230" lon="5.6238030">
        <ele>1137.5</ele>
        <time>2022-07-25T15:02:48Z</time>
      </trkpt>
      <trkpt lat="46.0256120" lon="5.6238220">
        <ele>1137.7</ele>
        <time>2022-07-25T15:02:49Z</time>
      </trkpt>
      <trkpt lat="46.0256000" lon="5.6238340">
        <ele>1137.9</ele>
        <time>2022-07-25T15:02:50Z</time>
      </trkpt>
      <trkpt lat="46.0255870" lon="5.6238440">
        <ele>1138.0</ele>
        <time>2022-07-25T15:02:51Z</time>
      </trkpt>
      <trkpt lat="46.0255720" lon="5.6238510">
        <ele>1138.2</ele>
        <time>2022-07-25T15:02:52Z</time>
      </trkpt>
      <trkpt lat="46.0255560" lon="5.6238570">
        <ele>1138.4</ele>
        <time>2022-07-25T15:02:53Z</time>
      </trkpt>
      <trkpt lat="46.0255440" lon="5.6238620">
        <ele>1138.5</ele>
        <time>2022-07-25T15:02:54Z</time>
      </trkpt>
      <trkpt lat="46.0255290" lon="5.6238690">
        <ele>1138.6</ele>
        <time>2022-07-25T15:02:55Z</time>
      </trkpt>
      <trkpt lat="46.0255140" lon="5.6238780">
        <ele>1138.8</ele>
        <time>2022-07-25T15:02:56Z</time>
      </trkpt>
      <trkpt lat="46.0254980" lon="5.6238900">
        <ele>1139.0</ele>
        <time>2022-07-25T15:02:57Z</time>
      </trkpt>
      <trkpt lat="46.0254830" lon="5.6239020">
        <ele>1139.1</ele>
        <time>2022-07-25T15:02:58Z</time>
      </trkpt>
      <trkpt lat="46.0254670" lon="5.6239080">
        <ele>1139.3</ele>
        <time>2022-07-25T15:02:59Z</time>
      </trkpt>
      <trkpt lat="46.0254520" lon="5.6239130">
        <ele>1139.4</ele>
        <time>2022-07-25T15:03:00Z</time>
      </trkpt>
      <trkpt lat="46.0254380" lon="5.6239260">
        <ele>1139.6</ele>
        <time>2022-07-25T15:03:01Z</time>
      </trkpt>
      <trkpt lat="46.0254280" lon="5.6239350">
        <ele>1139.7</ele>
        <time>2022-07-25T15:03:02Z</time>
      </trkpt>
      <trkpt lat="46.0254140" lon="5.6239440">
        <ele>1139.8</ele>
        <time>2022-07-25T15:03:03Z</time>
      </trkpt>
      <trkpt lat="46.0253870" lon="5.6239540">
        <ele>1140.0</ele>
        <time>2022-07-25T15:03:04Z</time>
      </trkpt>
      <trkpt lat="46.0253760" lon="5.6239560">
        <ele>1140.0</ele>
        <time>2022-07-25T15:03:05Z</time>
      </trkpt>
      <trkpt lat="46.0253320" lon="5.6239690">
        <ele>1140.3</ele>
        <time>2022-07-25T15:03:07Z</time>
      </trkpt>
      <trkpt lat="46.0253180" lon="5.6239730">
        <ele>1140.4</ele>
        <time>2022-07-25T15:03:08Z</time>
      </trkpt>
      <trkpt lat="46.0253030" lon="5.6239770">
        <ele>1140.4</ele>
        <time>2022-07-25T15:03:09Z</time>
      </trkpt>
      <trkpt lat="46.0252730" lon="5.6239830">
        <ele>1140.6</ele>
        <time>2022-07-25T15:03:10Z</time>
      </trkpt>
      <trkpt lat="46.0252630" lon="5.6239850">
        <ele>1140.6</ele>
        <time>2022-07-25T15:03:11Z</time>
      </trkpt>
      <trkpt lat="46.0252290" lon="5.6239960">
        <ele>1140.7</ele>
        <time>2022-07-25T15:03:12Z</time>
      </trkpt>
      <trkpt lat="46.0252170" lon="5.6240010">
        <ele>1140.8</ele>
        <time>2022-07-25T15:03:13Z</time>
      </trkpt>
      <trkpt lat="46.0251810" lon="5.6240190">
        <ele>1140.9</ele>
        <time>2022-07-25T15:03:14Z</time>
      </trkpt>
      <trkpt lat="46.0251680" lon="5.6240230">
        <ele>1140.9</ele>
        <time>2022-07-25T15:03:15Z</time>
      </trkpt>
      <trkpt lat="46.0251320" lon="5.6240320">
        <ele>1141.0</ele>
        <time>2022-07-25T15:03:16Z</time>
      </trkpt>
      <trkpt lat="46.0251210" lon="5.6240350">
        <ele>1141.0</ele>
        <time>2022-07-25T15:03:17Z</time>
      </trkpt>
      <trkpt lat="46.0250880" lon="5.6240420">
        <ele>1141.1</ele>
        <time>2022-07-25T15:03:18Z</time>
      </trkpt>
      <trkpt lat="46.0250470" lon="5.6240500">
        <ele>1141.1</ele>
        <time>2022-07-25T15:03:19Z</time>
      </trkpt>
      <trkpt lat="46.0250330" lon="5.6240530">
        <ele>1141.1</ele>
        <time>2022-07-25T15:03:20Z</time>
      </trkpt>
      <trkpt lat="46.0249880" lon="5.6240610">
        <ele>1141.2</ele>
        <time>2022-07-25T15:03:22Z</time>
      </trkpt>
      <trkpt lat="46.0249510" lon="5.6240690">
        <ele>1141.2</ele>
        <time>2022-07-25T15:03:23Z</time>
      </trkpt>
      <trkpt lat="46.0249130" lon="5.6240810">
        <ele>1141.3</ele>
        <time>2022-07-25T15:03:24Z</time>
      </trkpt>
      <trkpt lat="46.0248780" lon="5.6241010">
        <ele>1141.4</ele>
        <time>2022-07-25T15:03:25Z</time>
      </trkpt>
      <trkpt lat="46.0248360" lon="5.6241220">
        <ele>1141.5</ele>
        <time>2022-07-25T15:03:27Z</time>
      </trkpt>
      <trkpt lat="46.0247920" lon="5.6241450">
        <ele>1141.7</ele>
        <time>2022-07-25T15:03:28Z</time>
      </trkpt>
      <trkpt lat="46.0247630" lon="5.6241510">
        <ele>1141.8</ele>
        <time>2022-07-25T15:03:29Z</time>
      </trkpt>
      <trkpt lat="46.0247270" lon="5.6241640">
        <ele>1141.9</ele>
        <time>2022-07-25T15:03:30Z</time>
      </trkpt>
      <trkpt lat="46.0247140" lon="5.6241680">
        <ele>1142.0</ele>
        <time>2022-07-25T15:03:31Z</time>
      </trkpt>
      <trkpt lat="46.0246930" lon="5.6241790">
        <ele>1142.1</ele>
        <time>2022-07-25T15:03:32Z</time>
      </trkpt>
      <trkpt lat="46.0246590" lon="5.6241970">
        <ele>1142.2</ele>
        <time>2022-07-25T15:03:34Z</time>
      </trkpt>
      <trkpt lat="46.0246310" lon="5.6242200">
        <ele>1142.3</ele>
        <time>2022-07-25T15:03:35Z</time>
      </trkpt>
      <trkpt lat="46.0246150" lon="5.6242330">
        <ele>1142.4</ele>
        <time>2022-07-25T15:03:36Z</time>
      </trkpt>
      <trkpt lat="46.0245820" lon="5.6242590">
        <ele>1142.5</ele>
        <time>2022-07-25T15:03:38Z</time>
      </trkpt>
      <trkpt lat="46.0245470" lon="5.6242760">
        <ele>1142.6</ele>
        <time>2022-07-25T15:03:39Z</time>
      </trkpt>
      <trkpt lat="46.0245040" lon="5.6242970">
        <ele>1142.8</ele>
        <time>2022-07-25T15:03:40Z</time>
      </trkpt>
      <trkpt lat="46.0244660" lon="5.6243170">
        <ele>1142.8</ele>
        <time>2022-07-25T15:03:42Z</time>
      </trkpt>
      <trkpt lat="46.0244350" lon="5.6243540">
        <ele>1142.9</ele>
        <time>2022-07-25T15:03:43Z</time>
      </trkpt>
      <trkpt lat="46.0244180" lon="5.6243840">
        <ele>1142.9</ele>
        <time>2022-07-25T15:03:44Z</time>
      </trkpt>
      <trkpt lat="46.0243930" lon="5.6244130">
        <ele>1142.9</ele>
        <time>2022-07-25T15:03:45Z</time>
      </trkpt>
      <trkpt lat="46.0243580" lon="5.6244520">
        <ele>1142.9</ele>
        <time>2022-07-25T15:03:46Z</time>
      </trkpt>
      <trkpt lat="46.0243280" lon="5.6244910">
        <ele>1142.9</ele>
        <time>2022-07-25T15:03:47Z</time>
      </trkpt>
      <trkpt lat="46.0242930" lon="5.6245400">
        <ele>1142.9</ele>
        <time>2022-07-25T15:03:49Z</time>
      </trkpt>
      <trkpt lat="46.0242660" lon="5.6245810">
        <ele>1142.8</ele>
        <time>2022-07-25T15:03:50Z</time>
      </trkpt>
      <trkpt lat="46.0242420" lon="5.6246160">
        <ele>1142.8</ele>
        <time>2022-07-25T15:03:51Z</time>
      </trkpt>
      <trkpt lat="46.0242120" lon="5.6246570">
        <ele>1142.7</ele>
        <time>2022-07-25T15:03:52Z</time>
      </trkpt>
      <trkpt lat="46.0241620" lon="5.6247170">
        <ele>1142.6</ele>
        <time>2022-07-25T15:03:54Z</time>
      </trkpt>
      <trkpt lat="46.0241330" lon="5.6247460">
        <ele>1142.5</ele>
        <time>2022-07-25T15:03:55Z</time>
      </trkpt>
      <trkpt lat="46.0240330" lon="5.6248660">
        <ele>1142.4</ele>
        <time>2022-07-25T15:03:56Z</time>
      </trkpt>
      <trkpt lat="46.0239870" lon="5.6248900">
        <ele>1142.4</ele>
        <time>2022-07-25T15:03:57Z</time>
      </trkpt>
      <trkpt lat="46.0239540" lon="5.6249110">
        <ele>1142.4</ele>
        <time>2022-07-25T15:03:58Z</time>
      </trkpt>
      <trkpt lat="46.0239220" lon="5.6249160">
        <ele>1142.4</ele>
        <time>2022-07-25T15:03:59Z</time>
      </trkpt>
      <trkpt lat="46.0238910" lon="5.6249520">
        <ele>1142.5</ele>
        <time>2022-07-25T15:04:00Z</time>
      </trkpt>
      <trkpt lat="46.0238460" lon="5.6249770">
        <ele>1142.6</ele>
        <time>2022-07-25T15:04:01Z</time>
      </trkpt>
      <trkpt lat="46.0237980" lon="5.6249910">
        <ele>1142.7</ele>
        <time>2022-07-25T15:04:03Z</time>
      </trkpt>
      <trkpt lat="46.0237560" lon="5.6250410">
        <ele>1142.8</ele>
        <time>2022-07-25T15:04:04Z</time>
      </trkpt>
      <trkpt lat="46.0237060" lon="5.6250590">
        <ele>1142.9</ele>
        <time>2022-07-25T15:04:06Z</time>
      </trkpt>
      <trkpt lat="46.0236680" lon="5.6250790">
        <ele>1143.0</ele>
        <time>2022-07-25T15:04:07Z</time>
      </trkpt>
      <trkpt lat="46.0236170" lon="5.6250900">
        <ele>1143.0</ele>
        <time>2022-07-25T15:04:08Z</time>
      </trkpt>
      <trkpt lat="46.0235550" lon="5.6251090">
        <ele>1142.9</ele>
        <time>2022-07-25T15:04:10Z</time>
      </trkpt>
      <trkpt lat="46.0234580" lon="5.6251330">
        <ele>1142.8</ele>
        <time>2022-07-25T15:04:11Z</time>
      </trkpt>
      <trkpt lat="46.0234060" lon="5.6251040">
        <ele>1142.8</ele>
        <time>2022-07-25T15:04:13Z</time>
      </trkpt>
      <trkpt lat="46.0233660" lon="5.6251190">
        <ele>1142.7</ele>
        <time>2022-07-25T15:04:14Z</time>
      </trkpt>
      <trkpt lat="46.0233210" lon="5.6251470">
        <ele>1142.7</ele>
        <time>2022-07-25T15:04:15Z</time>
      </trkpt>
      <trkpt lat="46.0232780" lon="5.6251720">
        <ele>1142.7</ele>
        <time>2022-07-25T15:04:16Z</time>
      </trkpt>
      <trkpt lat="46.0232400" lon="5.6251930">
        <ele>1142.7</ele>
        <time>2022-07-25T15:04:17Z</time>
      </trkpt>
      <trkpt lat="46.0232040" lon="5.6252120">
        <ele>1142.7</ele>
        <time>2022-07-25T15:04:18Z</time>
      </trkpt>
      <trkpt lat="46.0231500" lon="5.6252380">
        <ele>1142.6</ele>
        <time>2022-07-25T15:04:20Z</time>
      </trkpt>
      <trkpt lat="46.0230830" lon="5.6252710">
        <ele>1142.6</ele>
        <time>2022-07-25T15:04:21Z</time>
      </trkpt>
      <trkpt lat="46.0230420" lon="5.6252800">
        <ele>1142.5</ele>
        <time>2022-07-25T15:04:22Z</time>
      </trkpt>
      <trkpt lat="46.0230040" lon="5.6253060">
        <ele>1142.5</ele>
        <time>2022-07-25T15:04:23Z</time>
      </trkpt>
      <trkpt lat="46.0229700" lon="5.6253310">
        <ele>1142.4</ele>
        <time>2022-07-25T15:04:24Z</time>
      </trkpt>
      <trkpt lat="46.0229350" lon="5.6253470">
        <ele>1142.3</ele>
        <time>2022-07-25T15:04:25Z</time>
      </trkpt>
      <trkpt lat="46.0228850" lon="5.6253670">
        <ele>1142.2</ele>
        <time>2022-07-25T15:04:27Z</time>
      </trkpt>
      <trkpt lat="46.0227810" lon="5.6254080">
        <ele>1141.9</ele>
        <time>2022-07-25T15:04:28Z</time>
      </trkpt>
      <trkpt lat="46.0227370" lon="5.6254380">
        <ele>1141.8</ele>
        <time>2022-07-25T15:04:29Z</time>
      </trkpt>
      <trkpt lat="46.0226950" lon="5.6254740">
        <ele>1141.7</ele>
        <time>2022-07-25T15:04:30Z</time>
      </trkpt>
      <trkpt lat="46.0226540" lon="5.6254450">
        <ele>1141.6</ele>
        <time>2022-07-25T15:04:32Z</time>
      </trkpt>
      <trkpt lat="46.0225730" lon="5.6255090">
        <ele>1141.4</ele>
        <time>2022-07-25T15:04:33Z</time>
      </trkpt>
      <trkpt lat="46.0225410" lon="5.6255100">
        <ele>1141.4</ele>
        <time>2022-07-25T15:04:34Z</time>
      </trkpt>
      <trkpt lat="46.0225130" lon="5.6255190">
        <ele>1141.3</ele>
        <time>2022-07-25T15:04:35Z</time>
      </trkpt>
      <trkpt lat="46.0224540" lon="5.6255570">
        <ele>1141.2</ele>
        <time>2022-07-25T15:04:37Z</time>
      </trkpt>
      <trkpt lat="46.0224090" lon="5.6255900">
        <ele>1141.2</ele>
        <time>2022-07-25T15:04:38Z</time>
      </trkpt>
      <trkpt lat="46.0223440" lon="5.6256380">
        <ele>1141.1</ele>
        <time>2022-07-25T15:04:39Z</time>
      </trkpt>
      <trkpt lat="46.0222950" lon="5.6256720">
        <ele>1141.1</ele>
        <time>2022-07-25T15:04:41Z</time>
      </trkpt>
      <trkpt lat="46.0222580" lon="5.6256990">
        <ele>1141.1</ele>
        <time>2022-07-25T15:04:42Z</time>
      </trkpt>
      <trkpt lat="46.0222270" lon="5.6257290">
        <ele>1141.1</ele>
        <time>2022-07-25T15:04:43Z</time>
      </trkpt>
      <trkpt lat="46.0221960" lon="5.6257530">
        <ele>1141.1</ele>
        <time>2022-07-25T15:04:44Z</time>
      </trkpt>
      <trkpt lat="46.0221550" lon="5.6257680">
        <ele>1141.1</ele>
        <time>2022-07-25T15:04:45Z</time>
      </trkpt>
      <trkpt lat="46.0221180" lon="5.6257860">
        <ele>1141.1</ele>
        <time>2022-07-25T15:04:46Z</time>
      </trkpt>
      <trkpt lat="46.0220860" lon="5.6258130">
        <ele>1141.1</ele>
        <time>2022-07-25T15:04:47Z</time>
      </trkpt>
      <trkpt lat="46.0220490" lon="5.6258840">
        <ele>1141.1</ele>
        <time>2022-07-25T15:04:49Z</time>
      </trkpt>
      <trkpt lat="46.0220080" lon="5.6259250">
        <ele>1141.1</ele>
        <time>2022-07-25T15:04:50Z</time>
      </trkpt>
      <trkpt lat="46.0219720" lon="5.6259580">
        <ele>1141.1</ele>
        <time>2022-07-25T15:04:51Z</time>
      </trkpt>
      <trkpt lat="46.0219350" lon="5.6259920">
        <ele>1141.1</ele>
        <time>2022-07-25T15:04:52Z</time>
      </trkpt>
      <trkpt lat="46.0218990" lon="5.6260430">
        <ele>1141.1</ele>
        <time>2022-07-25T15:04:53Z</time>
      </trkpt>
      <trkpt lat="46.0218670" lon="5.6260920">
        <ele>1141.1</ele>
        <time>2022-07-25T15:04:55Z</time>
      </trkpt>
      <trkpt lat="46.0218460" lon="5.6261240">
        <ele>1141.2</ele>
        <time>2022-07-25T15:04:56Z</time>
      </trkpt>
      <trkpt lat="46.0218150" lon="5.6261700">
        <ele>1141.2</ele>
        <time>2022-07-25T15:04:57Z</time>
      </trkpt>
      <trkpt lat="46.0217790" lon="5.6262210">
        <ele>1141.3</ele>
        <time>2022-07-25T15:04:59Z</time>
      </trkpt>
      <trkpt lat="46.0217550" lon="5.6262680">
        <ele>1141.3</ele>
        <time>2022-07-25T15:05:00Z</time>
      </trkpt>
      <trkpt lat="46.0217290" lon="5.6263290">
        <ele>1141.4</ele>
        <time>2022-07-25T15:05:01Z</time>
      </trkpt>
      <trkpt lat="46.0217030" lon="5.6263800">
        <ele>1141.4</ele>
        <time>2022-07-25T15:05:02Z</time>
      </trkpt>
      <trkpt lat="46.0216710" lon="5.6264170">
        <ele>1141.4</ele>
        <time>2022-07-25T15:05:03Z</time>
      </trkpt>
      <trkpt lat="46.0216360" lon="5.6264580">
        <ele>1141.4</ele>
        <time>2022-07-25T15:05:05Z</time>
      </trkpt>
      <trkpt lat="46.0215990" lon="5.6265000">
        <ele>1141.4</ele>
        <time>2022-07-25T15:05:06Z</time>
      </trkpt>
      <trkpt lat="46.0215580" lon="5.6265420">
        <ele>1141.5</ele>
        <time>2022-07-25T15:05:07Z</time>
      </trkpt>
      <trkpt lat="46.0214950" lon="5.6266020">
        <ele>1141.5</ele>
        <time>2022-07-25T15:05:09Z</time>
      </trkpt>
      <trkpt lat="46.0214570" lon="5.6266400">
        <ele>1141.5</ele>
        <time>2022-07-25T15:05:10Z</time>
      </trkpt>
      <trkpt lat="46.0214280" lon="5.6266750">
        <ele>1141.5</ele>
        <time>2022-07-25T15:05:11Z</time>
      </trkpt>
      <trkpt lat="46.0213820" lon="5.6266980">
        <ele>1141.6</ele>
        <time>2022-07-25T15:05:12Z</time>
      </trkpt>
      <trkpt lat="46.0213160" lon="5.6267210">
        <ele>1141.7</ele>
        <time>2022-07-25T15:05:14Z</time>
      </trkpt>
      <trkpt lat="46.0212670" lon="5.6267460">
        <ele>1141.7</ele>
        <time>2022-07-25T15:05:15Z</time>
      </trkpt>
      <trkpt lat="46.0212170" lon="5.6267720">
        <ele>1141.8</ele>
        <time>2022-07-25T15:05:16Z</time>
      </trkpt>
      <trkpt lat="46.0211600" lon="5.6267990">
        <ele>1141.9</ele>
        <time>2022-07-25T15:05:18Z</time>
      </trkpt>
      <trkpt lat="46.0211110" lon="5.6268200">
        <ele>1142.0</ele>
        <time>2022-07-25T15:05:19Z</time>
      </trkpt>
      <trkpt lat="46.0210780" lon="5.6268370">
        <ele>1142.1</ele>
        <time>2022-07-25T15:05:20Z</time>
      </trkpt>
      <trkpt lat="46.0210430" lon="5.6268670">
        <ele>1142.2</ele>
        <time>2022-07-25T15:05:21Z</time>
      </trkpt>
      <trkpt lat="46.0210180" lon="5.6268980">
        <ele>1142.3</ele>
        <time>2022-07-25T15:05:22Z</time>
      </trkpt>
      <trkpt lat="46.0209930" lon="5.6269310">
        <ele>1142.3</ele>
        <time>2022-07-25T15:05:23Z</time>
      </trkpt>
      <trkpt lat="46.0209530" lon="5.6269730">
        <ele>1142.5</ele>
        <time>2022-07-25T15:05:25Z</time>
      </trkpt>
      <trkpt lat="46.0209270" lon="5.6269970">
        <ele>1142.5</ele>
        <time>2022-07-25T15:05:26Z</time>
      </trkpt>
      <trkpt lat="46.0208860" lon="5.6270210">
        <ele>1142.7</ele>
        <time>2022-07-25T15:05:27Z</time>
      </trkpt>
      <trkpt lat="46.0208480" lon="5.6270470">
        <ele>1142.8</ele>
        <time>2022-07-25T15:05:28Z</time>
      </trkpt>
      <trkpt lat="46.0208200" lon="5.6270680">
        <ele>1142.9</ele>
        <time>2022-07-25T15:05:29Z</time>
      </trkpt>
      <trkpt lat="46.0207890" lon="5.6270910">
        <ele>1143.0</ele>
        <time>2022-07-25T15:05:30Z</time>
      </trkpt>
      <trkpt lat="46.0207500" lon="5.6271200">
        <ele>1143.1</ele>
        <time>2022-07-25T15:05:32Z</time>
      </trkpt>
      <trkpt lat="46.0207060" lon="5.6271540">
        <ele>1143.2</ele>
        <time>2022-07-25T15:05:33Z</time>
      </trkpt>
      <trkpt lat="46.0206550" lon="5.6271960">
        <ele>1143.4</ele>
        <time>2022-07-25T15:05:35Z</time>
      </trkpt>
      <trkpt lat="46.0206210" lon="5.6272310">
        <ele>1143.5</ele>
        <time>2022-07-25T15:05:36Z</time>
      </trkpt>
      <trkpt lat="46.0205870" lon="5.6272610">
        <ele>1143.6</ele>
        <time>2022-07-25T15:05:37Z</time>
      </trkpt>
      <trkpt lat="46.0205520" lon="5.6272830">
        <ele>1143.7</ele>
        <time>2022-07-25T15:05:38Z</time>
      </trkpt>
      <trkpt lat="46.0205180" lon="5.6273080">
        <ele>1143.8</ele>
        <time>2022-07-25T15:05:39Z</time>
      </trkpt>
      <trkpt lat="46.0204920" lon="5.6273370">
        <ele>1144.0</ele>
        <time>2022-07-25T15:05:40Z</time>
      </trkpt>
      <trkpt lat="46.0204680" lon="5.6273650">
        <ele>1144.1</ele>
        <time>2022-07-25T15:05:41Z</time>
      </trkpt>
      <trkpt lat="46.0204400" lon="5.6273890">
        <ele>1144.2</ele>
        <time>2022-07-25T15:05:42Z</time>
      </trkpt>
      <trkpt lat="46.0204000" lon="5.6274140">
        <ele>1144.5</ele>
        <time>2022-07-25T15:05:43Z</time>
      </trkpt>
      <trkpt lat="46.0203670" lon="5.6274410">
        <ele>1144.6</ele>
        <time>2022-07-25T15:05:45Z</time>
      </trkpt>
      <trkpt lat="46.0203360" lon="5.6274670">
        <ele>1144.8</ele>
        <time>2022-07-25T15:05:46Z</time>
      </trkpt>
      <trkpt lat="46.0203050" lon="5.6274900">
        <ele>1145.0</ele>
        <time>2022-07-25T15:05:47Z</time>
      </trkpt>
      <trkpt lat="46.0202760" lon="5.6275080">
        <ele>1145.2</ele>
        <time>2022-07-25T15:05:48Z</time>
      </trkpt>
      <trkpt lat="46.0202370" lon="5.6275440">
        <ele>1145.5</ele>
        <time>2022-07-25T15:05:50Z</time>
      </trkpt>
      <trkpt lat="46.0202120" lon="5.6275550">
        <ele>1145.6</ele>
        <time>2022-07-25T15:05:51Z</time>
      </trkpt>
      <trkpt lat="46.0201530" lon="5.6275780">
        <ele>1145.9</ele>
        <time>2022-07-25T15:05:53Z</time>
      </trkpt>
      <trkpt lat="46.0201170" lon="5.6276020">
        <ele>1146.1</ele>
        <time>2022-07-25T15:05:54Z</time>
      </trkpt>
      <trkpt lat="46.0201050" lon="5.6276120">
        <ele>1146.2</ele>
        <time>2022-07-25T15:05:55Z</time>
      </trkpt>
      <trkpt lat="46.0200830" lon="5.6276320">
        <ele>1146.3</ele>
        <time>2022-07-25T15:05:56Z</time>
      </trkpt>
      <trkpt lat="46.0200480" lon="5.6276530">
        <ele>1146.4</ele>
        <time>2022-07-25T15:05:58Z</time>
      </trkpt>
      <trkpt lat="46.0200110" lon="5.6276710">
        <ele>1146.6</ele>
        <time>2022-07-25T15:05:59Z</time>
      </trkpt>
      <trkpt lat="46.0199860" lon="5.6276860">
        <ele>1146.6</ele>
        <time>2022-07-25T15:06:00Z</time>
      </trkpt>
      <trkpt lat="46.0199560" lon="5.6277250">
        <ele>1146.7</ele>
        <time>2022-07-25T15:06:01Z</time>
      </trkpt>
      <trkpt lat="46.0199440" lon="5.6277390">
        <ele>1146.7</ele>
        <time>2022-07-25T15:06:02Z</time>
      </trkpt>
      <trkpt lat="46.0198990" lon="5.6277730">
        <ele>1146.7</ele>
        <time>2022-07-25T15:06:04Z</time>
      </trkpt>
      <trkpt lat="46.0198550" lon="5.6277930">
        <ele>1146.7</ele>
        <time>2022-07-25T15:06:05Z</time>
      </trkpt>
      <trkpt lat="46.0198120" lon="5.6278080">
        <ele>1146.6</ele>
        <time>2022-07-25T15:06:06Z</time>
      </trkpt>
      <trkpt lat="46.0197590" lon="5.6278250">
        <ele>1146.5</ele>
        <time>2022-07-25T15:06:07Z</time>
      </trkpt>
      <trkpt lat="46.0197250" lon="5.6278520">
        <ele>1146.4</ele>
        <time>2022-07-25T15:06:08Z</time>
      </trkpt>
      <trkpt lat="46.0196690" lon="5.6278750">
        <ele>1146.2</ele>
        <time>2022-07-25T15:06:09Z</time>
      </trkpt>
      <trkpt lat="46.0196050" lon="5.6278860">
        <ele>1146.0</ele>
        <time>2022-07-25T15:06:10Z</time>
      </trkpt>
      <trkpt lat="46.0195610" lon="5.6279000">
        <ele>1145.8</ele>
        <time>2022-07-25T15:06:11Z</time>
      </trkpt>
      <trkpt lat="46.0195270" lon="5.6279080">
        <ele>1145.6</ele>
        <time>2022-07-25T15:06:12Z</time>
      </trkpt>
      <trkpt lat="46.0194600" lon="5.6279090">
        <ele>1145.3</ele>
        <time>2022-07-25T15:06:13Z</time>
      </trkpt>
      <trkpt lat="46.0194120" lon="5.6279210">
        <ele>1145.1</ele>
        <time>2022-07-25T15:06:14Z</time>
      </trkpt>
      <trkpt lat="46.0193620" lon="5.6279530">
        <ele>1144.9</ele>
        <time>2022-07-25T15:06:15Z</time>
      </trkpt>
      <trkpt lat="46.0193130" lon="5.6279910">
        <ele>1144.6</ele>
        <time>2022-07-25T15:06:16Z</time>
      </trkpt>
      <trkpt lat="46.0192690" lon="5.6280110">
        <ele>1144.4</ele>
        <time>2022-07-25T15:06:17Z</time>
      </trkpt>
      <trkpt lat="46.0192180" lon="5.6280210">
        <ele>1144.1</ele>
        <time>2022-07-25T15:06:18Z</time>
      </trkpt>
      <trkpt lat="46.0191620" lon="5.6280310">
        <ele>1143.9</ele>
        <time>2022-07-25T15:06:19Z</time>
      </trkpt>
      <trkpt lat="46.0191060" lon="5.6280490">
        <ele>1143.6</ele>
        <time>2022-07-25T15:06:20Z</time>
      </trkpt>
      <trkpt lat="46.0190510" lon="5.6280690">
        <ele>1143.3</ele>
        <time>2022-07-25T15:06:21Z</time>
      </trkpt>
      <trkpt lat="46.0189910" lon="5.6280830">
        <ele>1143.0</ele>
        <time>2022-07-25T15:06:22Z</time>
      </trkpt>
      <trkpt lat="46.0189240" lon="5.6280950">
        <ele>1142.6</ele>
        <time>2022-07-25T15:06:23Z</time>
      </trkpt>
      <trkpt lat="46.0188620" lon="5.6281080">
        <ele>1142.2</ele>
        <time>2022-07-25T15:06:24Z</time>
      </trkpt>
      <trkpt lat="46.0188000" lon="5.6281270">
        <ele>1141.9</ele>
        <time>2022-07-25T15:06:25Z</time>
      </trkpt>
      <trkpt lat="46.0187380" lon="5.6281540">
        <ele>1141.6</ele>
        <time>2022-07-25T15:06:26Z</time>
      </trkpt>
      <trkpt lat="46.0186680" lon="5.6281890">
        <ele>1141.2</ele>
        <time>2022-07-25T15:06:27Z</time>
      </trkpt>
      <trkpt lat="46.0185980" lon="5.6282300">
        <ele>1140.9</ele>
        <time>2022-07-25T15:06:28Z</time>
      </trkpt>
      <trkpt lat="46.0185300" lon="5.6282690">
        <ele>1140.7</ele>
        <time>2022-07-25T15:06:29Z</time>
      </trkpt>
      <trkpt lat="46.0184590" lon="5.6283110">
        <ele>1140.6</ele>
        <time>2022-07-25T15:06:30Z</time>
      </trkpt>
      <trkpt lat="46.0183920" lon="5.6283320">
        <ele>1140.6</ele>
        <time>2022-07-25T15:06:31Z</time>
      </trkpt>
      <trkpt lat="46.0183250" lon="5.6283590">
        <ele>1140.8</ele>
        <time>2022-07-25T15:06:32Z</time>
      </trkpt>
      <trkpt lat="46.0182670" lon="5.6284080">
        <ele>1141.0</ele>
        <time>2022-07-25T15:06:33Z</time>
      </trkpt>
      <trkpt lat="46.0182190" lon="5.6284640">
        <ele>1141.3</ele>
        <time>2022-07-25T15:06:34Z</time>
      </trkpt>
      <trkpt lat="46.0181730" lon="5.6285140">
        <ele>1141.6</ele>
        <time>2022-07-25T15:06:35Z</time>
      </trkpt>
      <trkpt lat="46.0181370" lon="5.6285580">
        <ele>1141.8</ele>
        <time>2022-07-25T15:06:36Z</time>
      </trkpt>
      <trkpt lat="46.0181150" lon="5.6286210">
        <ele>1142.1</ele>
        <time>2022-07-25T15:06:37Z</time>
      </trkpt>
      <trkpt lat="46.0181040" lon="5.6286620">
        <ele>1142.3</ele>
        <time>2022-07-25T15:06:38Z</time>
      </trkpt>
      <trkpt lat="46.0180770" lon="5.6287000">
        <ele>1142.6</ele>
        <time>2022-07-25T15:06:39Z</time>
      </trkpt>
      <trkpt lat="46.0180570" lon="5.6287320">
        <ele>1142.8</ele>
        <time>2022-07-25T15:06:40Z</time>
      </trkpt>
      <trkpt lat="46.0180320" lon="5.6287640">
        <ele>1143.0</ele>
        <time>2022-07-25T15:06:41Z</time>
      </trkpt>
      <trkpt lat="46.0180080" lon="5.6287980">
        <ele>1143.1</ele>
        <time>2022-07-25T15:06:42Z</time>
      </trkpt>
      <trkpt lat="46.0179990" lon="5.6288050">
        <ele>1143.2</ele>
        <time>2022-07-25T15:06:43Z</time>
      </trkpt>
      <trkpt lat="46.0179840" lon="5.6288370">
        <ele>1143.3</ele>
        <time>2022-07-25T15:06:44Z</time>
      </trkpt>
      <trkpt lat="46.0179690" lon="5.6288830">
        <ele>1143.5</ele>
        <time>2022-07-25T15:06:46Z</time>
      </trkpt>
      <trkpt lat="46.0179410" lon="5.6289220">
        <ele>1143.7</ele>
        <time>2022-07-25T15:06:47Z</time>
      </trkpt>
      <trkpt lat="46.0179310" lon="5.6289440">
        <ele>1143.8</ele>
        <time>2022-07-25T15:06:48Z</time>
      </trkpt>
      <trkpt lat="46.0179120" lon="5.6289810">
        <ele>1143.9</ele>
        <time>2022-07-25T15:06:49Z</time>
      </trkpt>
      <trkpt lat="46.0178950" lon="5.6290130">
        <ele>1144.0</ele>
        <time>2022-07-25T15:06:51Z</time>
      </trkpt>
      <trkpt lat="46.0178700" lon="5.6290590">
        <ele>1144.2</ele>
        <time>2022-07-25T15:06:52Z</time>
      </trkpt>
      <trkpt lat="46.0178390" lon="5.6291020">
        <ele>1144.4</ele>
        <time>2022-07-25T15:06:53Z</time>
      </trkpt>
      <trkpt lat="46.0178250" lon="5.6291240">
        <ele>1144.4</ele>
        <time>2022-07-25T15:06:54Z</time>
      </trkpt>
      <trkpt lat="46.0178000" lon="5.6291610">
        <ele>1144.6</ele>
        <time>2022-07-25T15:06:55Z</time>
      </trkpt>
      <trkpt lat="46.0177910" lon="5.6291710">
        <ele>1144.6</ele>
        <time>2022-07-25T15:06:56Z</time>
      </trkpt>
      <trkpt lat="46.0177690" lon="5.6292010">
        <ele>1144.7</ele>
        <time>2022-07-25T15:06:57Z</time>
      </trkpt>
      <trkpt lat="46.0177490" lon="5.6292310">
        <ele>1144.8</ele>
        <time>2022-07-25T15:06:58Z</time>
      </trkpt>
      <trkpt lat="46.0177250" lon="5.6292620">
        <ele>1144.9</ele>
        <time>2022-07-25T15:06:59Z</time>
      </trkpt>
      <trkpt lat="46.0177030" lon="5.6292890">
        <ele>1144.9</ele>
        <time>2022-07-25T15:07:00Z</time>
      </trkpt>
      <trkpt lat="46.0176810" lon="5.6293140">
        <ele>1145.0</ele>
        <time>2022-07-25T15:07:01Z</time>
      </trkpt>
      <trkpt lat="46.0176490" lon="5.6293440">
        <ele>1145.1</ele>
        <time>2022-07-25T15:07:02Z</time>
      </trkpt>
      <trkpt lat="46.0176370" lon="5.6293540">
        <ele>1145.1</ele>
        <time>2022-07-25T15:07:03Z</time>
      </trkpt>
      <trkpt lat="46.0176040" lon="5.6293740">
        <ele>1145.1</ele>
        <time>2022-07-25T15:07:04Z</time>
      </trkpt>
      <trkpt lat="46.0175930" lon="5.6293810">
        <ele>1145.1</ele>
        <time>2022-07-25T15:07:05Z</time>
      </trkpt>
      <trkpt lat="46.0175580" lon="5.6294050">
        <ele>1145.1</ele>
        <time>2022-07-25T15:07:06Z</time>
      </trkpt>
      <trkpt lat="46.0175460" lon="5.6294130">
        <ele>1145.1</ele>
        <time>2022-07-25T15:07:07Z</time>
      </trkpt>
      <trkpt lat="46.0175200" lon="5.6294330">
        <ele>1145.1</ele>
        <time>2022-07-25T15:07:08Z</time>
      </trkpt>
      <trkpt lat="46.0174950" lon="5.6294570">
        <ele>1145.1</ele>
        <time>2022-07-25T15:07:09Z</time>
      </trkpt>
      <trkpt lat="46.0174700" lon="5.6294830">
        <ele>1145.1</ele>
        <time>2022-07-25T15:07:10Z</time>
      </trkpt>
      <trkpt lat="46.0174400" lon="5.6295170">
        <ele>1145.0</ele>
        <time>2022-07-25T15:07:11Z</time>
      </trkpt>
      <trkpt lat="46.0174150" lon="5.6295460">
        <ele>1145.0</ele>
        <time>2022-07-25T15:07:12Z</time>
      </trkpt>
      <trkpt lat="46.0173900" lon="5.6295720">
        <ele>1145.0</ele>
        <time>2022-07-25T15:07:13Z</time>
      </trkpt>
      <trkpt lat="46.0173630" lon="5.6296020">
        <ele>1145.0</ele>
        <time>2022-07-25T15:07:14Z</time>
      </trkpt>
      <trkpt lat="46.0173360" lon="5.6296320">
        <ele>1144.9</ele>
        <time>2022-07-25T15:07:15Z</time>
      </trkpt>
      <trkpt lat="46.0173080" lon="5.6296610">
        <ele>1144.9</ele>
        <time>2022-07-25T15:07:16Z</time>
      </trkpt>
      <trkpt lat="46.0172780" lon="5.6296920">
        <ele>1144.9</ele>
        <time>2022-07-25T15:07:17Z</time>
      </trkpt>
      <trkpt lat="46.0172540" lon="5.6297280">
        <ele>1144.8</ele>
        <time>2022-07-25T15:07:18Z</time>
      </trkpt>
      <trkpt lat="46.0172300" lon="5.6297730">
        <ele>1144.8</ele>
        <time>2022-07-25T15:07:19Z</time>
      </trkpt>
      <trkpt lat="46.0172010" lon="5.6298250">
        <ele>1144.7</ele>
        <time>2022-07-25T15:07:20Z</time>
      </trkpt>
      <trkpt lat="46.0171680" lon="5.6298600">
        <ele>1144.7</ele>
        <time>2022-07-25T15:07:21Z</time>
      </trkpt>
      <trkpt lat="46.0171340" lon="5.6298870">
        <ele>1144.7</ele>
        <time>2022-07-25T15:07:22Z</time>
      </trkpt>
      <trkpt lat="46.0171020" lon="5.6299140">
        <ele>1144.6</ele>
        <time>2022-07-25T15:07:23Z</time>
      </trkpt>
      <trkpt lat="46.0170730" lon="5.6299350">
        <ele>1144.6</ele>
        <time>2022-07-25T15:07:24Z</time>
      </trkpt>
      <trkpt lat="46.0170440" lon="5.6299560">
        <ele>1144.5</ele>
        <time>2022-07-25T15:07:25Z</time>
      </trkpt>
      <trkpt lat="46.0170050" lon="5.6300010">
        <ele>1144.5</ele>
        <time>2022-07-25T15:07:26Z</time>
      </trkpt>
      <trkpt lat="46.0169700" lon="5.6300470">
        <ele>1144.5</ele>
        <time>2022-07-25T15:07:27Z</time>
      </trkpt>
      <trkpt lat="46.0169370" lon="5.6300950">
        <ele>1144.4</ele>
        <time>2022-07-25T15:07:29Z</time>
      </trkpt>
      <trkpt lat="46.0169050" lon="5.6301440">
        <ele>1144.4</ele>
        <time>2022-07-25T15:07:30Z</time>
      </trkpt>
      <trkpt lat="46.0168720" lon="5.6301880">
        <ele>1144.4</ele>
        <time>2022-07-25T15:07:31Z</time>
      </trkpt>
      <trkpt lat="46.0168450" lon="5.6302290">
        <ele>1144.3</ele>
        <time>2022-07-25T15:07:32Z</time>
      </trkpt>
      <trkpt lat="46.0168180" lon="5.6302700">
        <ele>1144.3</ele>
        <time>2022-07-25T15:07:33Z</time>
      </trkpt>
      <trkpt lat="46.0167870" lon="5.6303330">
        <ele>1144.3</ele>
        <time>2022-07-25T15:07:34Z</time>
      </trkpt>
      <trkpt lat="46.0167520" lon="5.6303940">
        <ele>1144.2</ele>
        <time>2022-07-25T15:07:36Z</time>
      </trkpt>
      <trkpt lat="46.0166750" lon="5.6304930">
        <ele>1144.1</ele>
        <time>2022-07-25T15:07:37Z</time>
      </trkpt>
      <trkpt lat="46.0166520" lon="5.6305510">
        <ele>1144.1</ele>
        <time>2022-07-25T15:07:38Z</time>
      </trkpt>
      <trkpt lat="46.0166230" lon="5.6306000">
        <ele>1144.0</ele>
        <time>2022-07-25T15:07:39Z</time>
      </trkpt>
      <trkpt lat="46.0165960" lon="5.6306390">
        <ele>1143.9</ele>
        <time>2022-07-25T15:07:40Z</time>
      </trkpt>
      <trkpt lat="46.0165710" lon="5.6306830">
        <ele>1143.8</ele>
        <time>2022-07-25T15:07:42Z</time>
      </trkpt>
      <trkpt lat="46.0165410" lon="5.6307360">
        <ele>1143.7</ele>
        <time>2022-07-25T15:07:43Z</time>
      </trkpt>
      <trkpt lat="46.0165120" lon="5.6307550">
        <ele>1143.6</ele>
        <time>2022-07-25T15:07:44Z</time>
      </trkpt>
      <trkpt lat="46.0164850" lon="5.6307780">
        <ele>1143.5</ele>
        <time>2022-07-25T15:07:45Z</time>
      </trkpt>
      <trkpt lat="46.0164540" lon="5.6308140">
        <ele>1143.4</ele>
        <time>2022-07-25T15:07:46Z</time>
      </trkpt>
      <trkpt lat="46.0164270" lon="5.6308450">
        <ele>1143.3</ele>
        <time>2022-07-25T15:07:47Z</time>
      </trkpt>
      <trkpt lat="46.0163800" lon="5.6308960">
        <ele>1143.1</ele>
        <time>2022-07-25T15:07:48Z</time>
      </trkpt>
      <trkpt lat="46.0163510" lon="5.6309440">
        <ele>1143.0</ele>
        <time>2022-07-25T15:07:49Z</time>
      </trkpt>
      <trkpt lat="46.0163390" lon="5.6309730">
        <ele>1142.9</ele>
        <time>2022-07-25T15:07:50Z</time>
      </trkpt>
      <trkpt lat="46.0163360" lon="5.6309820">
        <ele>1142.9</ele>
        <time>2022-07-25T15:07:51Z</time>
      </trkpt>
      <trkpt lat="46.0163130" lon="5.6310330">
        <ele>1142.7</ele>
        <time>2022-07-25T15:07:52Z</time>
      </trkpt>
      <trkpt lat="46.0162860" lon="5.6310860">
        <ele>1142.6</ele>
        <time>2022-07-25T15:07:53Z</time>
      </trkpt>
      <trkpt lat="46.0162580" lon="5.6311420">
        <ele>1142.4</ele>
        <time>2022-07-25T15:07:54Z</time>
      </trkpt>
      <trkpt lat="46.0162300" lon="5.6312130">
        <ele>1142.3</ele>
        <time>2022-07-25T15:07:55Z</time>
      </trkpt>
      <trkpt lat="46.0162040" lon="5.6312810">
        <ele>1142.2</ele>
        <time>2022-07-25T15:07:57Z</time>
      </trkpt>
      <trkpt lat="46.0161840" lon="5.6313250">
        <ele>1142.2</ele>
        <time>2022-07-25T15:07:58Z</time>
      </trkpt>
      <trkpt lat="46.0161650" lon="5.6313730">
        <ele>1142.2</ele>
        <time>2022-07-25T15:07:59Z</time>
      </trkpt>
      <trkpt lat="46.0161510" lon="5.6314200">
        <ele>1142.1</ele>
        <time>2022-07-25T15:08:00Z</time>
      </trkpt>
      <trkpt lat="46.0161350" lon="5.6314600">
        <ele>1142.1</ele>
        <time>2022-07-25T15:08:01Z</time>
      </trkpt>
      <trkpt lat="46.0161090" lon="5.6315090">
        <ele>1142.1</ele>
        <time>2022-07-25T15:08:02Z</time>
      </trkpt>
      <trkpt lat="46.0160930" lon="5.6315510">
        <ele>1142.0</ele>
        <time>2022-07-25T15:08:03Z</time>
      </trkpt>
      <trkpt lat="46.0160700" lon="5.6316150">
        <ele>1142.0</ele>
        <time>2022-07-25T15:08:05Z</time>
      </trkpt>
      <trkpt lat="46.0160560" lon="5.6316930">
        <ele>1141.8</ele>
        <time>2022-07-25T15:08:06Z</time>
      </trkpt>
      <trkpt lat="46.0160460" lon="5.6317460">
        <ele>1141.7</ele>
        <time>2022-07-25T15:08:07Z</time>
      </trkpt>
      <trkpt lat="46.0160220" lon="5.6318220">
        <ele>1141.6</ele>
        <time>2022-07-25T15:08:09Z</time>
      </trkpt>
      <trkpt lat="46.0160040" lon="5.6318900">
        <ele>1141.4</ele>
        <time>2022-07-25T15:08:10Z</time>
      </trkpt>
      <trkpt lat="46.0159780" lon="5.6319650">
        <ele>1141.2</ele>
        <time>2022-07-25T15:08:11Z</time>
      </trkpt>
      <trkpt lat="46.0159310" lon="5.6320650">
        <ele>1141.0</ele>
        <time>2022-07-25T15:08:12Z</time>
      </trkpt>
      <trkpt lat="46.0159010" lon="5.6321040">
        <ele>1140.9</ele>
        <time>2022-07-25T15:08:13Z</time>
      </trkpt>
      <trkpt lat="46.0158680" lon="5.6321780">
        <ele>1140.8</ele>
        <time>2022-07-25T15:08:15Z</time>
      </trkpt>
      <trkpt lat="46.0158370" lon="5.6322600">
        <ele>1140.7</ele>
        <time>2022-07-25T15:08:16Z</time>
      </trkpt>
      <trkpt lat="46.0158130" lon="5.6323050">
        <ele>1140.6</ele>
        <time>2022-07-25T15:08:17Z</time>
      </trkpt>
      <trkpt lat="46.0157850" lon="5.6323320">
        <ele>1140.6</ele>
        <time>2022-07-25T15:08:18Z</time>
      </trkpt>
      <trkpt lat="46.0157570" lon="5.6323950">
        <ele>1140.6</ele>
        <time>2022-07-25T15:08:20Z</time>
      </trkpt>
      <trkpt lat="46.0157150" lon="5.6324490">
        <ele>1140.6</ele>
        <time>2022-07-25T15:08:21Z</time>
      </trkpt>
      <trkpt lat="46.0156890" lon="5.6324920">
        <ele>1140.6</ele>
        <time>2022-07-25T15:08:23Z</time>
      </trkpt>
      <trkpt lat="46.0156760" lon="5.6325450">
        <ele>1140.5</ele>
        <time>2022-07-25T15:08:24Z</time>
      </trkpt>
      <trkpt lat="46.0156690" lon="5.6325610">
        <ele>1140.5</ele>
        <time>2022-07-25T15:08:25Z</time>
      </trkpt>
      <trkpt lat="46.0156530" lon="5.6325960">
        <ele>1140.5</ele>
        <time>2022-07-25T15:08:26Z</time>
      </trkpt>
      <trkpt lat="46.0156260" lon="5.6326390">
        <ele>1140.4</ele>
        <time>2022-07-25T15:08:27Z</time>
      </trkpt>
      <trkpt lat="46.0156150" lon="5.6326540">
        <ele>1140.4</ele>
        <time>2022-07-25T15:08:28Z</time>
      </trkpt>
      <trkpt lat="46.0155920" lon="5.6326850">
        <ele>1140.3</ele>
        <time>2022-07-25T15:08:29Z</time>
      </trkpt>
      <trkpt lat="46.0155700" lon="5.6327220">
        <ele>1140.2</ele>
        <time>2022-07-25T15:08:30Z</time>
      </trkpt>
      <trkpt lat="46.0155450" lon="5.6327680">
        <ele>1140.0</ele>
        <time>2022-07-25T15:08:31Z</time>
      </trkpt>
      <trkpt lat="46.0155250" lon="5.6328090">
        <ele>1139.8</ele>
        <time>2022-07-25T15:08:32Z</time>
      </trkpt>
      <trkpt lat="46.0155030" lon="5.6328500">
        <ele>1139.6</ele>
        <time>2022-07-25T15:08:33Z</time>
      </trkpt>
      <trkpt lat="46.0154810" lon="5.6328910">
        <ele>1139.4</ele>
        <time>2022-07-25T15:08:34Z</time>
      </trkpt>
      <trkpt lat="46.0154590" lon="5.6329360">
        <ele>1139.1</ele>
        <time>2022-07-25T15:08:35Z</time>
      </trkpt>
      <trkpt lat="46.0154370" lon="5.6330040">
        <ele>1138.6</ele>
        <time>2022-07-25T15:08:36Z</time>
      </trkpt>
      <trkpt lat="46.0154060" lon="5.6330810">
        <ele>1138.1</ele>
        <time>2022-07-25T15:08:37Z</time>
      </trkpt>
      <trkpt lat="46.0153640" lon="5.6331590">
        <ele>1137.4</ele>
        <time>2022-07-25T15:08:38Z</time>
      </trkpt>
      <trkpt lat="46.0153300" lon="5.6332400">
        <ele>1136.6</ele>
        <time>2022-07-25T15:08:39Z</time>
      </trkpt>
      <trkpt lat="46.0152970" lon="5.6333100">
        <ele>1136.0</ele>
        <time>2022-07-25T15:08:40Z</time>
      </trkpt>
      <trkpt lat="46.0152640" lon="5.6333830">
        <ele>1135.3</ele>
        <time>2022-07-25T15:08:41Z</time>
      </trkpt>
      <trkpt lat="46.0152330" lon="5.6334720">
        <ele>1134.6</ele>
        <time>2022-07-25T15:08:42Z</time>
      </trkpt>
      <trkpt lat="46.0151970" lon="5.6335580">
        <ele>1133.8</ele>
        <time>2022-07-25T15:08:43Z</time>
      </trkpt>
      <trkpt lat="46.0151580" lon="5.6336360">
        <ele>1133.1</ele>
        <time>2022-07-25T15:08:44Z</time>
      </trkpt>
      <trkpt lat="46.0151230" lon="5.6337210">
        <ele>1132.4</ele>
        <time>2022-07-25T15:08:45Z</time>
      </trkpt>
      <trkpt lat="46.0150920" lon="5.6338110">
        <ele>1131.8</ele>
        <time>2022-07-25T15:08:46Z</time>
      </trkpt>
      <trkpt lat="46.0150520" lon="5.6339070">
        <ele>1131.1</ele>
        <time>2022-07-25T15:08:47Z</time>
      </trkpt>
      <trkpt lat="46.0150150" lon="5.6340040">
        <ele>1130.6</ele>
        <time>2022-07-25T15:08:48Z</time>
      </trkpt>
      <trkpt lat="46.0149950" lon="5.6341030">
        <ele>1130.2</ele>
        <time>2022-07-25T15:08:49Z</time>
      </trkpt>
      <trkpt lat="46.0149810" lon="5.6341980">
        <ele>1129.8</ele>
        <time>2022-07-25T15:08:50Z</time>
      </trkpt>
      <trkpt lat="46.0149470" lon="5.6342860">
        <ele>1129.4</ele>
        <time>2022-07-25T15:08:51Z</time>
      </trkpt>
      <trkpt lat="46.0149140" lon="5.6343630">
        <ele>1129.1</ele>
        <time>2022-07-25T15:08:52Z</time>
      </trkpt>
      <trkpt lat="46.0148710" lon="5.6344240">
        <ele>1128.7</ele>
        <time>2022-07-25T15:08:53Z</time>
      </trkpt>
      <trkpt lat="46.0148260" lon="5.6344890">
        <ele>1128.2</ele>
        <time>2022-07-25T15:08:54Z</time>
      </trkpt>
      <trkpt lat="46.0147840" lon="5.6345330">
        <ele>1127.8</ele>
        <time>2022-07-25T15:08:55Z</time>
      </trkpt>
      <trkpt lat="46.0147460" lon="5.6345500">
        <ele>1127.4</ele>
        <time>2022-07-25T15:08:56Z</time>
      </trkpt>
      <trkpt lat="46.0146910" lon="5.6345820">
        <ele>1126.9</ele>
        <time>2022-07-25T15:08:57Z</time>
      </trkpt>
      <trkpt lat="46.0146420" lon="5.6346200">
        <ele>1126.4</ele>
        <time>2022-07-25T15:08:58Z</time>
      </trkpt>
      <trkpt lat="46.0145950" lon="5.6346680">
        <ele>1125.8</ele>
        <time>2022-07-25T15:08:59Z</time>
      </trkpt>
      <trkpt lat="46.0145560" lon="5.6347250">
        <ele>1125.3</ele>
        <time>2022-07-25T15:09:00Z</time>
      </trkpt>
      <trkpt lat="46.0145290" lon="5.6347800">
        <ele>1124.9</ele>
        <time>2022-07-25T15:09:01Z</time>
      </trkpt>
      <trkpt lat="46.0145100" lon="5.6348380">
        <ele>1124.4</ele>
        <time>2022-07-25T15:09:02Z</time>
      </trkpt>
      <trkpt lat="46.0145060" lon="5.6349250">
        <ele>1123.9</ele>
        <time>2022-07-25T15:09:03Z</time>
      </trkpt>
      <trkpt lat="46.0145080" lon="5.6350150">
        <ele>1123.2</ele>
        <time>2022-07-25T15:09:04Z</time>
      </trkpt>
      <trkpt lat="46.0145240" lon="5.6350990">
        <ele>1122.7</ele>
        <time>2022-07-25T15:09:05Z</time>
      </trkpt>
      <trkpt lat="46.0145490" lon="5.6351520">
        <ele>1122.2</ele>
        <time>2022-07-25T15:09:06Z</time>
      </trkpt>
      <trkpt lat="46.0145750" lon="5.6352190">
        <ele>1121.7</ele>
        <time>2022-07-25T15:09:07Z</time>
      </trkpt>
      <trkpt lat="46.0146040" lon="5.6352700">
        <ele>1121.2</ele>
        <time>2022-07-25T15:09:08Z</time>
      </trkpt>
      <trkpt lat="46.0146250" lon="5.6353350">
        <ele>1120.7</ele>
        <time>2022-07-25T15:09:09Z</time>
      </trkpt>
      <trkpt lat="46.0146620" lon="5.6353680">
        <ele>1120.2</ele>
        <time>2022-07-25T15:09:10Z</time>
      </trkpt>
      <trkpt lat="46.0147030" lon="5.6354040">
        <ele>1119.7</ele>
        <time>2022-07-25T15:09:12Z</time>
      </trkpt>
      <trkpt lat="46.0147320" lon="5.6354350">
        <ele>1119.2</ele>
        <time>2022-07-25T15:09:13Z</time>
      </trkpt>
      <trkpt lat="46.0147950" lon="5.6354950">
        <ele>1118.3</ele>
        <time>2022-07-25T15:09:14Z</time>
      </trkpt>
      <trkpt lat="46.0148210" lon="5.6355060">
        <ele>1118.0</ele>
        <time>2022-07-25T15:09:15Z</time>
      </trkpt>
      <trkpt lat="46.0149160" lon="5.6355510">
        <ele>1116.8</ele>
        <time>2022-07-25T15:09:16Z</time>
      </trkpt>
      <trkpt lat="46.0149820" lon="5.6355920">
        <ele>1115.9</ele>
        <time>2022-07-25T15:09:17Z</time>
      </trkpt>
      <trkpt lat="46.0150320" lon="5.6356330">
        <ele>1115.2</ele>
        <time>2022-07-25T15:09:18Z</time>
      </trkpt>
      <trkpt lat="46.0150810" lon="5.6356840">
        <ele>1114.5</ele>
        <time>2022-07-25T15:09:19Z</time>
      </trkpt>
      <trkpt lat="46.0151170" lon="5.6357500">
        <ele>1113.9</ele>
        <time>2022-07-25T15:09:20Z</time>
      </trkpt>
      <trkpt lat="46.0151510" lon="5.6358220">
        <ele>1113.2</ele>
        <time>2022-07-25T15:09:21Z</time>
      </trkpt>
      <trkpt lat="46.0151860" lon="5.6359090">
        <ele>1112.5</ele>
        <time>2022-07-25T15:09:22Z</time>
      </trkpt>
      <trkpt lat="46.0152090" lon="5.6360020">
        <ele>1111.7</ele>
        <time>2022-07-25T15:09:23Z</time>
      </trkpt>
      <trkpt lat="46.0152300" lon="5.6361020">
        <ele>1111.0</ele>
        <time>2022-07-25T15:09:24Z</time>
      </trkpt>
      <trkpt lat="46.0152430" lon="5.6361880">
        <ele>1110.4</ele>
        <time>2022-07-25T15:09:25Z</time>
      </trkpt>
      <trkpt lat="46.0152370" lon="5.6362560">
        <ele>1110.0</ele>
        <time>2022-07-25T15:09:26Z</time>
      </trkpt>
      <trkpt lat="46.0152230" lon="5.6362990">
        <ele>1109.7</ele>
        <time>2022-07-25T15:09:27Z</time>
      </trkpt>
      <trkpt lat="46.0152180" lon="5.6363880">
        <ele>1109.2</ele>
        <time>2022-07-25T15:09:28Z</time>
      </trkpt>
      <trkpt lat="46.0152220" lon="5.6364720">
        <ele>1108.6</ele>
        <time>2022-07-25T15:09:29Z</time>
      </trkpt>
      <trkpt lat="46.0152190" lon="5.6365540">
        <ele>1108.1</ele>
        <time>2022-07-25T15:09:30Z</time>
      </trkpt>
      <trkpt lat="46.0152190" lon="5.6366380">
        <ele>1107.7</ele>
        <time>2022-07-25T15:09:31Z</time>
      </trkpt>
      <trkpt lat="46.0152360" lon="5.6367100">
        <ele>1107.2</ele>
        <time>2022-07-25T15:09:32Z</time>
      </trkpt>
      <trkpt lat="46.0152530" lon="5.6367940">
        <ele>1106.7</ele>
        <time>2022-07-25T15:09:33Z</time>
      </trkpt>
      <trkpt lat="46.0152730" lon="5.6368870">
        <ele>1106.1</ele>
        <time>2022-07-25T15:09:34Z</time>
      </trkpt>
      <trkpt lat="46.0152980" lon="5.6369680">
        <ele>1105.5</ele>
        <time>2022-07-25T15:09:35Z</time>
      </trkpt>
      <trkpt lat="46.0153280" lon="5.6370580">
        <ele>1104.9</ele>
        <time>2022-07-25T15:09:36Z</time>
      </trkpt>
      <trkpt lat="46.0153640" lon="5.6371560">
        <ele>1104.1</ele>
        <time>2022-07-25T15:09:37Z</time>
      </trkpt>
      <trkpt lat="46.0153920" lon="5.6372460">
        <ele>1103.5</ele>
        <time>2022-07-25T15:09:38Z</time>
      </trkpt>
      <trkpt lat="46.0154080" lon="5.6373360">
        <ele>1102.8</ele>
        <time>2022-07-25T15:09:39Z</time>
      </trkpt>
      <trkpt lat="46.0154320" lon="5.6374280">
        <ele>1102.2</ele>
        <time>2022-07-25T15:09:40Z</time>
      </trkpt>
      <trkpt lat="46.0154500" lon="5.6375260">
        <ele>1101.7</ele>
        <time>2022-07-25T15:09:41Z</time>
      </trkpt>
      <trkpt lat="46.0154860" lon="5.6376100">
        <ele>1101.2</ele>
        <time>2022-07-25T15:09:42Z</time>
      </trkpt>
      <trkpt lat="46.0155190" lon="5.6376900">
        <ele>1100.7</ele>
        <time>2022-07-25T15:09:43Z</time>
      </trkpt>
      <trkpt lat="46.0155530" lon="5.6377710">
        <ele>1100.3</ele>
        <time>2022-07-25T15:09:44Z</time>
      </trkpt>
      <trkpt lat="46.0155860" lon="5.6378530">
        <ele>1099.9</ele>
        <time>2022-07-25T15:09:45Z</time>
      </trkpt>
      <trkpt lat="46.0156130" lon="5.6379340">
        <ele>1099.4</ele>
        <time>2022-07-25T15:09:46Z</time>
      </trkpt>
      <trkpt lat="46.0156390" lon="5.6380050">
        <ele>1099.1</ele>
        <time>2022-07-25T15:09:47Z</time>
      </trkpt>
      <trkpt lat="46.0156690" lon="5.6380800">
        <ele>1098.6</ele>
        <time>2022-07-25T15:09:48Z</time>
      </trkpt>
      <trkpt lat="46.0156900" lon="5.6381670">
        <ele>1098.2</ele>
        <time>2022-07-25T15:09:49Z</time>
      </trkpt>
      <trkpt lat="46.0157060" lon="5.6382620">
        <ele>1097.6</ele>
        <time>2022-07-25T15:09:50Z</time>
      </trkpt>
      <trkpt lat="46.0157300" lon="5.6383530">
        <ele>1097.1</ele>
        <time>2022-07-25T15:09:51Z</time>
      </trkpt>
      <trkpt lat="46.0157550" lon="5.6384370">
        <ele>1096.7</ele>
        <time>2022-07-25T15:09:52Z</time>
      </trkpt>
      <trkpt lat="46.0157830" lon="5.6385260">
        <ele>1096.2</ele>
        <time>2022-07-25T15:09:53Z</time>
      </trkpt>
      <trkpt lat="46.0158130" lon="5.6386000">
        <ele>1095.7</ele>
        <time>2022-07-25T15:09:54Z</time>
      </trkpt>
      <trkpt lat="46.0158400" lon="5.6386340">
        <ele>1095.5</ele>
        <time>2022-07-25T15:09:55Z</time>
      </trkpt>
      <trkpt lat="46.0158690" lon="5.6386540">
        <ele>1095.2</ele>
        <time>2022-07-25T15:09:56Z</time>
      </trkpt>
      <trkpt lat="46.0159010" lon="5.6386530">
        <ele>1095.0</ele>
        <time>2022-07-25T15:09:57Z</time>
      </trkpt>
      <trkpt lat="46.0159490" lon="5.6386340">
        <ele>1094.5</ele>
        <time>2022-07-25T15:09:58Z</time>
      </trkpt>
      <trkpt lat="46.0160150" lon="5.6385990">
        <ele>1093.8</ele>
        <time>2022-07-25T15:09:59Z</time>
      </trkpt>
      <trkpt lat="46.0160740" lon="5.6385720">
        <ele>1093.1</ele>
        <time>2022-07-25T15:10:00Z</time>
      </trkpt>
      <trkpt lat="46.0161310" lon="5.6385540">
        <ele>1092.3</ele>
        <time>2022-07-25T15:10:01Z</time>
      </trkpt>
      <trkpt lat="46.0161720" lon="5.6385370">
        <ele>1091.8</ele>
        <time>2022-07-25T15:10:02Z</time>
      </trkpt>
      <trkpt lat="46.0162090" lon="5.6385570">
        <ele>1091.3</ele>
        <time>2022-07-25T15:10:03Z</time>
      </trkpt>
      <trkpt lat="46.0162670" lon="5.6385500">
        <ele>1090.6</ele>
        <time>2022-07-25T15:10:04Z</time>
      </trkpt>
      <trkpt lat="46.0163260" lon="5.6385660">
        <ele>1089.8</ele>
        <time>2022-07-25T15:10:05Z</time>
      </trkpt>
      <trkpt lat="46.0163870" lon="5.6385970">
        <ele>1089.0</ele>
        <time>2022-07-25T15:10:06Z</time>
      </trkpt>
      <trkpt lat="46.0164330" lon="5.6386410">
        <ele>1088.4</ele>
        <time>2022-07-25T15:10:07Z</time>
      </trkpt>
      <trkpt lat="46.0164620" lon="5.6386740">
        <ele>1087.9</ele>
        <time>2022-07-25T15:10:08Z</time>
      </trkpt>
      <trkpt lat="46.0164930" lon="5.6386680">
        <ele>1087.6</ele>
        <time>2022-07-25T15:10:09Z</time>
      </trkpt>
      <trkpt lat="46.0165250" lon="5.6387080">
        <ele>1087.1</ele>
        <time>2022-07-25T15:10:10Z</time>
      </trkpt>
      <trkpt lat="46.0165500" lon="5.6387480">
        <ele>1086.6</ele>
        <time>2022-07-25T15:10:11Z</time>
      </trkpt>
      <trkpt lat="46.0165580" lon="5.6387950">
        <ele>1086.3</ele>
        <time>2022-07-25T15:10:12Z</time>
      </trkpt>
      <trkpt lat="46.0165460" lon="5.6388460">
        <ele>1085.9</ele>
        <time>2022-07-25T15:10:13Z</time>
      </trkpt>
      <trkpt lat="46.0165390" lon="5.6388620">
        <ele>1085.8</ele>
        <time>2022-07-25T15:10:14Z</time>
      </trkpt>
      <trkpt lat="46.0165300" lon="5.6388800">
        <ele>1085.7</ele>
        <time>2022-07-25T15:10:15Z</time>
      </trkpt>
      <trkpt lat="46.0165190" lon="5.6389040">
        <ele>1085.5</ele>
        <time>2022-07-25T15:10:16Z</time>
      </trkpt>
      <trkpt lat="46.0165070" lon="5.6389270">
        <ele>1085.3</ele>
        <time>2022-07-25T15:10:17Z</time>
      </trkpt>
      <trkpt lat="46.0165030" lon="5.6389350">
        <ele>1085.3</ele>
        <time>2022-07-25T15:10:18Z</time>
      </trkpt>
      <trkpt lat="46.0165160" lon="5.6389250">
        <ele>1085.2</ele>
        <time>2022-07-25T15:10:19Z</time>
      </trkpt>
      <trkpt lat="46.0165310" lon="5.6389100">
        <ele>1085.0</ele>
        <time>2022-07-25T15:10:20Z</time>
      </trkpt>
      <trkpt lat="46.0165380" lon="5.6389050">
        <ele>1084.9</ele>
        <time>2022-07-25T15:10:21Z</time>
      </trkpt>
      <trkpt lat="46.0165420" lon="5.6389040">
        <ele>1084.9</ele>
        <time>2022-07-25T15:10:22Z</time>
      </trkpt>
      <trkpt lat="46.0165430" lon="5.6389050">
        <ele>1084.9</ele>
        <time>2022-07-25T15:10:23Z</time>
      </trkpt>
      <trkpt lat="46.0165440" lon="5.6389060">
        <ele>1084.9</ele>
        <time>2022-07-25T15:10:24Z</time>
      </trkpt>
      <trkpt lat="46.0165440" lon="5.6389070">
        <ele>1084.9</ele>
        <time>2022-07-25T15:10:25Z</time>
      </trkpt>
      <trkpt lat="46.0165450" lon="5.6389080">
        <ele>1084.9</ele>
        <time>2022-07-25T15:10:26Z</time>
      </trkpt>
      <trkpt lat="46.0165470" lon="5.6389110">
        <ele>1084.8</ele>
        <time>2022-07-25T15:10:27Z</time>
      </trkpt>
      <trkpt lat="46.0165420" lon="5.6389210">
        <ele>1084.8</ele>
        <time>2022-07-25T15:10:28Z</time>
      </trkpt>
      <trkpt lat="46.0165360" lon="5.6389290">
        <ele>1084.7</ele>
        <time>2022-07-25T15:10:41Z</time>
      </trkpt>
      <trkpt lat="46.0165300" lon="5.6389370">
        <ele>1084.6</ele>
        <time>2022-07-25T15:10:42Z</time>
      </trkpt>
      <trkpt lat="46.0165240" lon="5.6389450">
        <ele>1084.6</ele>
        <time>2022-07-25T15:10:43Z</time>
      </trkpt>
      <trkpt lat="46.0165180" lon="5.6389530">
        <ele>1084.5</ele>
        <time>2022-07-25T15:10:44Z</time>
      </trkpt>
      <trkpt lat="46.0165120" lon="5.6389620">
        <ele>1084.4</ele>
        <time>2022-07-25T15:10:45Z</time>
      </trkpt>
      <trkpt lat="46.0165060" lon="5.6389700">
        <ele>1084.4</ele>
        <time>2022-07-25T15:10:46Z</time>
      </trkpt>
      <trkpt lat="46.0165010" lon="5.6389780">
        <ele>1084.3</ele>
        <time>2022-07-25T15:10:47Z</time>
      </trkpt>
      <trkpt lat="46.0164950" lon="5.6389860">
        <ele>1084.3</ele>
        <time>2022-07-25T15:10:48Z</time>
      </trkpt>
      <trkpt lat="46.0164890" lon="5.6389940">
        <ele>1084.2</ele>
        <time>2022-07-25T15:10:49Z</time>
      </trkpt>
      <trkpt lat="46.0164830" lon="5.6390020">
        <ele>1084.1</ele>
        <time>2022-07-25T15:10:50Z</time>
      </trkpt>
      <trkpt lat="46.0164770" lon="5.6390100">
        <ele>1084.1</ele>
        <time>2022-07-25T15:10:51Z</time>
      </trkpt>
      <trkpt lat="46.0164710" lon="5.6390190">
        <ele>1084.0</ele>
        <time>2022-07-25T15:10:52Z</time>
      </trkpt>
      <trkpt lat="46.0164650" lon="5.6390270">
        <ele>1084.0</ele>
        <time>2022-07-25T15:13:10Z</time>
      </trkpt>
      <trkpt lat="46.0164590" lon="5.6390350">
        <ele>1083.9</ele>
        <time>2022-07-25T15:13:11Z</time>
      </trkpt>
      <trkpt lat="46.0164540" lon="5.6390430">
        <ele>1083.9</ele>
        <time>2022-07-25T15:13:12Z</time>
      </trkpt>
      <trkpt lat="46.0164280" lon="5.6390670">
        <ele>1083.6</ele>
        <time>2022-07-25T15:13:13Z</time>
      </trkpt>
      <trkpt lat="46.0164180" lon="5.6390760">
        <ele>1083.6</ele>
        <time>2022-07-25T15:13:14Z</time>
      </trkpt>
      <trkpt lat="46.0163950" lon="5.6391060">
        <ele>1083.4</ele>
        <time>2022-07-25T15:13:15Z</time>
      </trkpt>
      <trkpt lat="46.0163770" lon="5.6391380">
        <ele>1083.2</ele>
        <time>2022-07-25T15:13:16Z</time>
      </trkpt>
      <trkpt lat="46.0163710" lon="5.6391510">
        <ele>1083.1</ele>
        <time>2022-07-25T15:13:17Z</time>
      </trkpt>
      <trkpt lat="46.0163490" lon="5.6391810">
        <ele>1082.9</ele>
        <time>2022-07-25T15:13:18Z</time>
      </trkpt>
      <trkpt lat="46.0163190" lon="5.6392110">
        <ele>1082.7</ele>
        <time>2022-07-25T15:13:19Z</time>
      </trkpt>
      <trkpt lat="46.0162700" lon="5.6392520">
        <ele>1082.3</ele>
        <time>2022-07-25T15:13:20Z</time>
      </trkpt>
      <trkpt lat="46.0161570" lon="5.6393480">
        <ele>1081.4</ele>
        <time>2022-07-25T15:13:22Z</time>
      </trkpt>
      <trkpt lat="46.0161120" lon="5.6393940">
        <ele>1081.1</ele>
        <time>2022-07-25T15:13:23Z</time>
      </trkpt>
      <trkpt lat="46.0160790" lon="5.6394280">
        <ele>1080.8</ele>
        <time>2022-07-25T15:13:24Z</time>
      </trkpt>
      <trkpt lat="46.0160090" lon="5.6394630">
        <ele>1080.3</ele>
        <time>2022-07-25T15:13:25Z</time>
      </trkpt>
      <trkpt lat="46.0159530" lon="5.6394690">
        <ele>1080.0</ele>
        <time>2022-07-25T15:13:26Z</time>
      </trkpt>
      <trkpt lat="46.0158960" lon="5.6394650">
        <ele>1079.5</ele>
        <time>2022-07-25T15:13:27Z</time>
      </trkpt>
      <trkpt lat="46.0158450" lon="5.6394690">
        <ele>1079.0</ele>
        <time>2022-07-25T15:13:28Z</time>
      </trkpt>
      <trkpt lat="46.0158040" lon="5.6394910">
        <ele>1078.6</ele>
        <time>2022-07-25T15:13:29Z</time>
      </trkpt>
      <trkpt lat="46.0157630" lon="5.6394930">
        <ele>1078.2</ele>
        <time>2022-07-25T15:13:30Z</time>
      </trkpt>
      <trkpt lat="46.0157210" lon="5.6394740">
        <ele>1077.7</ele>
        <time>2022-07-25T15:13:32Z</time>
      </trkpt>
      <trkpt lat="46.0156430" lon="5.6394350">
        <ele>1076.8</ele>
        <time>2022-07-25T15:13:33Z</time>
      </trkpt>
      <trkpt lat="46.0155820" lon="5.6394390">
        <ele>1076.1</ele>
        <time>2022-07-25T15:13:34Z</time>
      </trkpt>
      <trkpt lat="46.0155050" lon="5.6394340">
        <ele>1075.2</ele>
        <time>2022-07-25T15:13:35Z</time>
      </trkpt>
      <trkpt lat="46.0154300" lon="5.6394180">
        <ele>1074.3</ele>
        <time>2022-07-25T15:13:36Z</time>
      </trkpt>
      <trkpt lat="46.0153700" lon="5.6394030">
        <ele>1073.5</ele>
        <time>2022-07-25T15:13:37Z</time>
      </trkpt>
      <trkpt lat="46.0153110" lon="5.6394020">
        <ele>1072.9</ele>
        <time>2022-07-25T15:13:38Z</time>
      </trkpt>
      <trkpt lat="46.0152610" lon="5.6393890">
        <ele>1072.3</ele>
        <time>2022-07-25T15:13:39Z</time>
      </trkpt>
      <trkpt lat="46.0152080" lon="5.6393660">
        <ele>1071.7</ele>
        <time>2022-07-25T15:13:40Z</time>
      </trkpt>
      <trkpt lat="46.0151390" lon="5.6393520">
        <ele>1071.1</ele>
        <time>2022-07-25T15:13:41Z</time>
      </trkpt>
      <trkpt lat="46.0150560" lon="5.6393540">
        <ele>1070.3</ele>
        <time>2022-07-25T15:13:42Z</time>
      </trkpt>
      <trkpt lat="46.0149780" lon="5.6393670">
        <ele>1069.6</ele>
        <time>2022-07-25T15:13:43Z</time>
      </trkpt>
      <trkpt lat="46.0149030" lon="5.6393770">
        <ele>1068.9</ele>
        <time>2022-07-25T15:13:44Z</time>
      </trkpt>
      <trkpt lat="46.0148390" lon="5.6393910">
        <ele>1068.4</ele>
        <time>2022-07-25T15:13:45Z</time>
      </trkpt>
      <trkpt lat="46.0147690" lon="5.6393910">
        <ele>1067.7</ele>
        <time>2022-07-25T15:13:46Z</time>
      </trkpt>
      <trkpt lat="46.0146920" lon="5.6393950">
        <ele>1067.0</ele>
        <time>2022-07-25T15:13:47Z</time>
      </trkpt>
      <trkpt lat="46.0146090" lon="5.6393910">
        <ele>1066.2</ele>
        <time>2022-07-25T15:13:48Z</time>
      </trkpt>
      <trkpt lat="46.0145200" lon="5.6393770">
        <ele>1065.4</ele>
        <time>2022-07-25T15:13:49Z</time>
      </trkpt>
      <trkpt lat="46.0144230" lon="5.6393580">
        <ele>1064.7</ele>
        <time>2022-07-25T15:13:50Z</time>
      </trkpt>
      <trkpt lat="46.0143240" lon="5.6393340">
        <ele>1064.1</ele>
        <time>2022-07-25T15:13:51Z</time>
      </trkpt>
      <trkpt lat="46.0142150" lon="5.6393210">
        <ele>1063.7</ele>
        <time>2022-07-25T15:13:52Z</time>
      </trkpt>
      <trkpt lat="46.0141170" lon="5.6393030">
        <ele>1063.5</ele>
        <time>2022-07-25T15:13:53Z</time>
      </trkpt>
      <trkpt lat="46.0140260" lon="5.6392620">
        <ele>1063.3</ele>
        <time>2022-07-25T15:13:54Z</time>
      </trkpt>
      <trkpt lat="46.0139400" lon="5.6392220">
        <ele>1063.2</ele>
        <time>2022-07-25T15:13:55Z</time>
      </trkpt>
      <trkpt lat="46.0138610" lon="5.6391770">
        <ele>1063.2</ele>
        <time>2022-07-25T15:13:56Z</time>
      </trkpt>
      <trkpt lat="46.0137920" lon="5.6391300">
        <ele>1063.1</ele>
        <time>2022-07-25T15:13:57Z</time>
      </trkpt>
      <trkpt lat="46.0137290" lon="5.6390840">
        <ele>1063.1</ele>
        <time>2022-07-25T15:13:58Z</time>
      </trkpt>
      <trkpt lat="46.0136660" lon="5.6390410">
        <ele>1063.1</ele>
        <time>2022-07-25T15:13:59Z</time>
      </trkpt>
      <trkpt lat="46.0135980" lon="5.6390030">
        <ele>1063.2</ele>
        <time>2022-07-25T15:14:00Z</time>
      </trkpt>
      <trkpt lat="46.0135360" lon="5.6389770">
        <ele>1063.4</ele>
        <time>2022-07-25T15:14:01Z</time>
      </trkpt>
      <trkpt lat="46.0134760" lon="5.6389580">
        <ele>1063.5</ele>
        <time>2022-07-25T15:14:02Z</time>
      </trkpt>
      <trkpt lat="46.0134150" lon="5.6389510">
        <ele>1063.7</ele>
        <time>2022-07-25T15:14:03Z</time>
      </trkpt>
      <trkpt lat="46.0133550" lon="5.6389440">
        <ele>1063.8</ele>
        <time>2022-07-25T15:14:04Z</time>
      </trkpt>
      <trkpt lat="46.0132980" lon="5.6389460">
        <ele>1063.8</ele>
        <time>2022-07-25T15:14:05Z</time>
      </trkpt>
      <trkpt lat="46.0132390" lon="5.6389420">
        <ele>1063.7</ele>
        <time>2022-07-25T15:14:06Z</time>
      </trkpt>
      <trkpt lat="46.0131830" lon="5.6389390">
        <ele>1063.6</ele>
        <time>2022-07-25T15:14:07Z</time>
      </trkpt>
      <trkpt lat="46.0131270" lon="5.6389360">
        <ele>1063.6</ele>
        <time>2022-07-25T15:14:08Z</time>
      </trkpt>
      <trkpt lat="46.0130730" lon="5.6389330">
        <ele>1063.5</ele>
        <time>2022-07-25T15:14:09Z</time>
      </trkpt>
      <trkpt lat="46.0130260" lon="5.6389310">
        <ele>1063.5</ele>
        <time>2022-07-25T15:14:10Z</time>
      </trkpt>
      <trkpt lat="46.0129840" lon="5.6389330">
        <ele>1063.5</ele>
        <time>2022-07-25T15:14:11Z</time>
      </trkpt>
      <trkpt lat="46.0129230" lon="5.6389420">
        <ele>1063.5</ele>
        <time>2022-07-25T15:14:12Z</time>
      </trkpt>
      <trkpt lat="46.0128690" lon="5.6389510">
        <ele>1063.5</ele>
        <time>2022-07-25T15:14:13Z</time>
      </trkpt>
      <trkpt lat="46.0128220" lon="5.6389660">
        <ele>1063.6</ele>
        <time>2022-07-25T15:14:14Z</time>
      </trkpt>
      <trkpt lat="46.0127850" lon="5.6389850">
        <ele>1063.6</ele>
        <time>2022-07-25T15:14:15Z</time>
      </trkpt>
      <trkpt lat="46.0127490" lon="5.6389970">
        <ele>1063.7</ele>
        <time>2022-07-25T15:14:16Z</time>
      </trkpt>
      <trkpt lat="46.0127140" lon="5.6390130">
        <ele>1063.8</ele>
        <time>2022-07-25T15:14:17Z</time>
      </trkpt>
      <trkpt lat="46.0126880" lon="5.6390240">
        <ele>1063.8</ele>
        <time>2022-07-25T15:14:18Z</time>
      </trkpt>
      <trkpt lat="46.0126510" lon="5.6390420">
        <ele>1063.9</ele>
        <time>2022-07-25T15:14:19Z</time>
      </trkpt>
      <trkpt lat="46.0126140" lon="5.6390630">
        <ele>1064.1</ele>
        <time>2022-07-25T15:14:20Z</time>
      </trkpt>
      <trkpt lat="46.0125820" lon="5.6390740">
        <ele>1064.2</ele>
        <time>2022-07-25T15:14:21Z</time>
      </trkpt>
      <trkpt lat="46.0125470" lon="5.6390780">
        <ele>1064.4</ele>
        <time>2022-07-25T15:14:22Z</time>
      </trkpt>
      <trkpt lat="46.0125160" lon="5.6390830">
        <ele>1064.5</ele>
        <time>2022-07-25T15:14:23Z</time>
      </trkpt>
      <trkpt lat="46.0124780" lon="5.6390990">
        <ele>1064.8</ele>
        <time>2022-07-25T15:14:24Z</time>
      </trkpt>
      <trkpt lat="46.0124480" lon="5.6391010">
        <ele>1065.0</ele>
        <time>2022-07-25T15:14:25Z</time>
      </trkpt>
      <trkpt lat="46.0124200" lon="5.6391040">
        <ele>1065.2</ele>
        <time>2022-07-25T15:14:26Z</time>
      </trkpt>
      <trkpt lat="46.0124030" lon="5.6391030">
        <ele>1065.4</ele>
        <time>2022-07-25T15:14:27Z</time>
      </trkpt>
      <trkpt lat="46.0123920" lon="5.6390990">
        <ele>1065.5</ele>
        <time>2022-07-25T15:14:28Z</time>
      </trkpt>
      <trkpt lat="46.0123830" lon="5.6390900">
        <ele>1065.6</ele>
        <time>2022-07-25T15:14:29Z</time>
      </trkpt>
      <trkpt lat="46.0123730" lon="5.6390760">
        <ele>1065.7</ele>
        <time>2022-07-25T15:14:30Z</time>
      </trkpt>
      <trkpt lat="46.0123670" lon="5.6390670">
        <ele>1065.8</ele>
        <time>2022-07-25T15:14:31Z</time>
      </trkpt>
      <trkpt lat="46.0123640" lon="5.6390600">
        <ele>1065.9</ele>
        <time>2022-07-25T15:14:32Z</time>
      </trkpt>
      <trkpt lat="46.0123540" lon="5.6390460">
        <ele>1066.0</ele>
        <time>2022-07-25T15:14:33Z</time>
      </trkpt>
      <trkpt lat="46.0123430" lon="5.6390380">
        <ele>1066.2</ele>
        <time>2022-07-25T15:14:34Z</time>
      </trkpt>
      <trkpt lat="46.0123370" lon="5.6390330">
        <ele>1066.2</ele>
        <time>2022-07-25T15:14:35Z</time>
      </trkpt>
      <trkpt lat="46.0123270" lon="5.6390310">
        <ele>1066.4</ele>
        <time>2022-07-25T15:14:36Z</time>
      </trkpt>
      <trkpt lat="46.0123150" lon="5.6390310">
        <ele>1066.5</ele>
        <time>2022-07-25T15:14:37Z</time>
      </trkpt>
      <trkpt lat="46.0123030" lon="5.6390330">
        <ele>1066.6</ele>
        <time>2022-07-25T15:14:38Z</time>
      </trkpt>
      <trkpt lat="46.0122890" lon="5.6390360">
        <ele>1066.8</ele>
        <time>2022-07-25T15:14:39Z</time>
      </trkpt>
      <trkpt lat="46.0122730" lon="5.6390360">
        <ele>1067.0</ele>
        <time>2022-07-25T15:14:40Z</time>
      </trkpt>
      <trkpt lat="46.0122570" lon="5.6390340">
        <ele>1067.2</ele>
        <time>2022-07-25T15:14:41Z</time>
      </trkpt>
      <trkpt lat="46.0122440" lon="5.6390300">
        <ele>1067.4</ele>
        <time>2022-07-25T15:14:42Z</time>
      </trkpt>
      <trkpt lat="46.0122370" lon="5.6390270">
        <ele>1067.5</ele>
        <time>2022-07-25T15:14:43Z</time>
      </trkpt>
      <trkpt lat="46.0122290" lon="5.6390200">
        <ele>1067.6</ele>
        <time>2022-07-25T15:14:44Z</time>
      </trkpt>
      <trkpt lat="46.0122110" lon="5.6390010">
        <ele>1067.9</ele>
        <time>2022-07-25T15:14:45Z</time>
      </trkpt>
      <trkpt lat="46.0122020" lon="5.6389950">
        <ele>1068.0</ele>
        <time>2022-07-25T15:14:46Z</time>
      </trkpt>
      <trkpt lat="46.0121940" lon="5.6389890">
        <ele>1068.1</ele>
        <time>2022-07-25T15:14:47Z</time>
      </trkpt>
      <trkpt lat="46.0121800" lon="5.6389830">
        <ele>1068.3</ele>
        <time>2022-07-25T15:14:48Z</time>
      </trkpt>
      <trkpt lat="46.0121660" lon="5.6389800">
        <ele>1068.5</ele>
        <time>2022-07-25T15:14:49Z</time>
      </trkpt>
      <trkpt lat="46.0121530" lon="5.6389760">
        <ele>1068.6</ele>
        <time>2022-07-25T15:14:50Z</time>
      </trkpt>
      <trkpt lat="46.0121390" lon="5.6389690">
        <ele>1068.8</ele>
        <time>2022-07-25T15:14:51Z</time>
      </trkpt>
      <trkpt lat="46.0121270" lon="5.6389560">
        <ele>1069.0</ele>
        <time>2022-07-25T15:14:52Z</time>
      </trkpt>
      <trkpt lat="46.0121130" lon="5.6389440">
        <ele>1069.2</ele>
        <time>2022-07-25T15:14:53Z</time>
      </trkpt>
      <trkpt lat="46.0120980" lon="5.6389260">
        <ele>1069.4</ele>
        <time>2022-07-25T15:14:54Z</time>
      </trkpt>
      <trkpt lat="46.0120910" lon="5.6389190">
        <ele>1069.5</ele>
        <time>2022-07-25T15:14:55Z</time>
      </trkpt>
      <trkpt lat="46.0120840" lon="5.6389120">
        <ele>1069.6</ele>
        <time>2022-07-25T15:14:56Z</time>
      </trkpt>
      <trkpt lat="46.0120760" lon="5.6389060">
        <ele>1069.7</ele>
        <time>2022-07-25T15:14:57Z</time>
      </trkpt>
      <trkpt lat="46.0120700" lon="5.6389000">
        <ele>1069.8</ele>
        <time>2022-07-25T15:14:58Z</time>
      </trkpt>
      <trkpt lat="46.0120590" lon="5.6388960">
        <ele>1069.9</ele>
        <time>2022-07-25T15:14:59Z</time>
      </trkpt>
      <trkpt lat="46.0120520" lon="5.6388940">
        <ele>1070.0</ele>
        <time>2022-07-25T15:15:00Z</time>
      </trkpt>
      <trkpt lat="46.0120440" lon="5.6388940">
        <ele>1070.1</ele>
        <time>2022-07-25T15:15:01Z</time>
      </trkpt>
      <trkpt lat="46.0120350" lon="5.6388980">
        <ele>1070.2</ele>
        <time>2022-07-25T15:15:02Z</time>
      </trkpt>
      <trkpt lat="46.0120250" lon="5.6389050">
        <ele>1070.3</ele>
        <time>2022-07-25T15:15:03Z</time>
      </trkpt>
      <trkpt lat="46.0120020" lon="5.6389130">
        <ele>1070.5</ele>
        <time>2022-07-25T15:15:04Z</time>
      </trkpt>
      <trkpt lat="46.0119910" lon="5.6389100">
        <ele>1070.6</ele>
        <time>2022-07-25T15:15:05Z</time>
      </trkpt>
      <trkpt lat="46.0119770" lon="5.6389020">
        <ele>1070.7</ele>
        <time>2022-07-25T15:15:06Z</time>
      </trkpt>
      <trkpt lat="46.0119650" lon="5.6388960">
        <ele>1070.8</ele>
        <time>2022-07-25T15:15:07Z</time>
      </trkpt>
      <trkpt lat="46.0119370" lon="5.6388810">
        <ele>1071.0</ele>
        <time>2022-07-25T15:15:08Z</time>
      </trkpt>
      <trkpt lat="46.0119260" lon="5.6388750">
        <ele>1071.1</ele>
        <time>2022-07-25T15:15:09Z</time>
      </trkpt>
      <trkpt lat="46.0118890" lon="5.6388630">
        <ele>1071.4</ele>
        <time>2022-07-25T15:15:10Z</time>
      </trkpt>
      <trkpt lat="46.0118760" lon="5.6388600">
        <ele>1071.4</ele>
        <time>2022-07-25T15:15:11Z</time>
      </trkpt>
      <trkpt lat="46.0118410" lon="5.6388590">
        <ele>1071.6</ele>
        <time>2022-07-25T15:15:12Z</time>
      </trkpt>
      <trkpt lat="46.0118300" lon="5.6388570">
        <ele>1071.6</ele>
        <time>2022-07-25T15:15:13Z</time>
      </trkpt>
      <trkpt lat="46.0118010" lon="5.6388480">
        <ele>1071.8</ele>
        <time>2022-07-25T15:15:14Z</time>
      </trkpt>
      <trkpt lat="46.0117920" lon="5.6388460">
        <ele>1071.8</ele>
        <time>2022-07-25T15:15:15Z</time>
      </trkpt>
      <trkpt lat="46.0117660" lon="5.6388420">
        <ele>1071.9</ele>
        <time>2022-07-25T15:15:16Z</time>
      </trkpt>
      <trkpt lat="46.0117560" lon="5.6388410">
        <ele>1071.9</ele>
        <time>2022-07-25T15:15:17Z</time>
      </trkpt>
      <trkpt lat="46.0117280" lon="5.6388300">
        <ele>1072.0</ele>
        <time>2022-07-25T15:15:18Z</time>
      </trkpt>
      <trkpt lat="46.0117210" lon="5.6388250">
        <ele>1072.1</ele>
        <time>2022-07-25T15:15:19Z</time>
      </trkpt>
      <trkpt lat="46.0116910" lon="5.6388060">
        <ele>1072.2</ele>
        <time>2022-07-25T15:15:20Z</time>
      </trkpt>
      <trkpt lat="46.0116810" lon="5.6387990">
        <ele>1072.2</ele>
        <time>2022-07-25T15:15:21Z</time>
      </trkpt>
      <trkpt lat="46.0116460" lon="5.6387830">
        <ele>1072.4</ele>
        <time>2022-07-25T15:15:22Z</time>
      </trkpt>
      <trkpt lat="46.0116340" lon="5.6387790">
        <ele>1072.4</ele>
        <time>2022-07-25T15:15:23Z</time>
      </trkpt>
      <trkpt lat="46.0116010" lon="5.6387760">
        <ele>1072.6</ele>
        <time>2022-07-25T15:15:24Z</time>
      </trkpt>
      <trkpt lat="46.0115880" lon="5.6387770">
        <ele>1072.6</ele>
        <time>2022-07-25T15:15:25Z</time>
      </trkpt>
      <trkpt lat="46.0115590" lon="5.6387750">
        <ele>1072.7</ele>
        <time>2022-07-25T15:15:26Z</time>
      </trkpt>
      <trkpt lat="46.0115480" lon="5.6387740">
        <ele>1072.8</ele>
        <time>2022-07-25T15:15:27Z</time>
      </trkpt>
      <trkpt lat="46.0115260" lon="5.6387750">
        <ele>1072.8</ele>
        <time>2022-07-25T15:15:28Z</time>
      </trkpt>
      <trkpt lat="46.0114990" lon="5.6387750">
        <ele>1072.9</ele>
        <time>2022-07-25T15:15:30Z</time>
      </trkpt>
      <trkpt lat="46.0114660" lon="5.6387700">
        <ele>1073.0</ele>
        <time>2022-07-25T15:15:31Z</time>
      </trkpt>
      <trkpt lat="46.0114310" lon="5.6387610">
        <ele>1073.0</ele>
        <time>2022-07-25T15:15:32Z</time>
      </trkpt>
      <trkpt lat="46.0114020" lon="5.6387540">
        <ele>1073.1</ele>
        <time>2022-07-25T15:15:33Z</time>
      </trkpt>
      <trkpt lat="46.0113750" lon="5.6387500">
        <ele>1073.1</ele>
        <time>2022-07-25T15:15:34Z</time>
      </trkpt>
      <trkpt lat="46.0113360" lon="5.6387410">
        <ele>1073.0</ele>
        <time>2022-07-25T15:15:35Z</time>
      </trkpt>
      <trkpt lat="46.0112840" lon="5.6387310">
        <ele>1072.9</ele>
        <time>2022-07-25T15:15:37Z</time>
      </trkpt>
      <trkpt lat="46.0112380" lon="5.6387200">
        <ele>1072.8</ele>
        <time>2022-07-25T15:15:38Z</time>
      </trkpt>
      <trkpt lat="46.0111980" lon="5.6387220">
        <ele>1072.7</ele>
        <time>2022-07-25T15:15:39Z</time>
      </trkpt>
      <trkpt lat="46.0111540" lon="5.6387240">
        <ele>1072.5</ele>
        <time>2022-07-25T15:15:40Z</time>
      </trkpt>
      <trkpt lat="46.0110490" lon="5.6387230">
        <ele>1071.9</ele>
        <time>2022-07-25T15:15:41Z</time>
      </trkpt>
      <trkpt lat="46.0109960" lon="5.6387190">
        <ele>1071.7</ele>
        <time>2022-07-25T15:15:42Z</time>
      </trkpt>
      <trkpt lat="46.0109430" lon="5.6387060">
        <ele>1071.4</ele>
        <time>2022-07-25T15:15:43Z</time>
      </trkpt>
      <trkpt lat="46.0108790" lon="5.6387220">
        <ele>1071.1</ele>
        <time>2022-07-25T15:15:44Z</time>
      </trkpt>
      <trkpt lat="46.0108180" lon="5.6387260">
        <ele>1070.9</ele>
        <time>2022-07-25T15:15:45Z</time>
      </trkpt>
      <trkpt lat="46.0107600" lon="5.6387170">
        <ele>1070.8</ele>
        <time>2022-07-25T15:15:46Z</time>
      </trkpt>
      <trkpt lat="46.0107070" lon="5.6387100">
        <ele>1070.8</ele>
        <time>2022-07-25T15:15:47Z</time>
      </trkpt>
      <trkpt lat="46.0106600" lon="5.6387220">
        <ele>1070.8</ele>
        <time>2022-07-25T15:15:48Z</time>
      </trkpt>
      <trkpt lat="46.0106160" lon="5.6387270">
        <ele>1070.9</ele>
        <time>2022-07-25T15:15:49Z</time>
      </trkpt>
      <trkpt lat="46.0105880" lon="5.6387180">
        <ele>1071.0</ele>
        <time>2022-07-25T15:15:50Z</time>
      </trkpt>
      <trkpt lat="46.0105530" lon="5.6386920">
        <ele>1071.1</ele>
        <time>2022-07-25T15:15:51Z</time>
      </trkpt>
      <trkpt lat="46.0105390" lon="5.6386840">
        <ele>1071.1</ele>
        <time>2022-07-25T15:15:52Z</time>
      </trkpt>
      <trkpt lat="46.0105050" lon="5.6386600">
        <ele>1071.2</ele>
        <time>2022-07-25T15:15:53Z</time>
      </trkpt>
      <trkpt lat="46.0104720" lon="5.6386460">
        <ele>1071.3</ele>
        <time>2022-07-25T15:15:54Z</time>
      </trkpt>
      <trkpt lat="46.0104430" lon="5.6386340">
        <ele>1071.4</ele>
        <time>2022-07-25T15:15:55Z</time>
      </trkpt>
      <trkpt lat="46.0103980" lon="5.6386240">
        <ele>1071.5</ele>
        <time>2022-07-25T15:15:57Z</time>
      </trkpt>
      <trkpt lat="46.0103640" lon="5.6386060">
        <ele>1071.5</ele>
        <time>2022-07-25T15:15:58Z</time>
      </trkpt>
      <trkpt lat="46.0103490" lon="5.6385960">
        <ele>1071.6</ele>
        <time>2022-07-25T15:15:59Z</time>
      </trkpt>
      <trkpt lat="46.0103100" lon="5.6385930">
        <ele>1071.6</ele>
        <time>2022-07-25T15:16:00Z</time>
      </trkpt>
      <trkpt lat="46.0102950" lon="5.6385960">
        <ele>1071.7</ele>
        <time>2022-07-25T15:16:01Z</time>
      </trkpt>
      <trkpt lat="46.0102600" lon="5.6385970">
        <ele>1071.7</ele>
        <time>2022-07-25T15:16:02Z</time>
      </trkpt>
      <trkpt lat="46.0102150" lon="5.6385900">
        <ele>1071.8</ele>
        <time>2022-07-25T15:16:03Z</time>
      </trkpt>
      <trkpt lat="46.0101800" lon="5.6385870">
        <ele>1071.8</ele>
        <time>2022-07-25T15:16:05Z</time>
      </trkpt>
      <trkpt lat="46.0101370" lon="5.6385890">
        <ele>1071.8</ele>
        <time>2022-07-25T15:16:06Z</time>
      </trkpt>
      <trkpt lat="46.0101000" lon="5.6385940">
        <ele>1071.8</ele>
        <time>2022-07-25T15:16:07Z</time>
      </trkpt>
      <trkpt lat="46.0100850" lon="5.6385960">
        <ele>1071.9</ele>
        <time>2022-07-25T15:16:08Z</time>
      </trkpt>
      <trkpt lat="46.0100500" lon="5.6385900">
        <ele>1071.9</ele>
        <time>2022-07-25T15:16:09Z</time>
      </trkpt>
      <trkpt lat="46.0100380" lon="5.6385880">
        <ele>1071.8</ele>
        <time>2022-07-25T15:16:10Z</time>
      </trkpt>
      <trkpt lat="46.0100090" lon="5.6385790">
        <ele>1071.8</ele>
        <time>2022-07-25T15:16:11Z</time>
      </trkpt>
      <trkpt lat="46.0099820" lon="5.6385700">
        <ele>1071.8</ele>
        <time>2022-07-25T15:16:12Z</time>
      </trkpt>
      <trkpt lat="46.0099500" lon="5.6385650">
        <ele>1071.8</ele>
        <time>2022-07-25T15:16:13Z</time>
      </trkpt>
      <trkpt lat="46.0099200" lon="5.6385640">
        <ele>1071.8</ele>
        <time>2022-07-25T15:16:14Z</time>
      </trkpt>
      <trkpt lat="46.0098600" lon="5.6385780">
        <ele>1071.7</ele>
        <time>2022-07-25T15:16:16Z</time>
      </trkpt>
      <trkpt lat="46.0098230" lon="5.6385840">
        <ele>1071.7</ele>
        <time>2022-07-25T15:16:17Z</time>
      </trkpt>
      <trkpt lat="46.0097900" lon="5.6385860">
        <ele>1071.6</ele>
        <time>2022-07-25T15:16:18Z</time>
      </trkpt>
      <trkpt lat="46.0097760" lon="5.6385840">
        <ele>1071.6</ele>
        <time>2022-07-25T15:16:19Z</time>
      </trkpt>
      <trkpt lat="46.0097380" lon="5.6385730">
        <ele>1071.5</ele>
        <time>2022-07-25T15:16:20Z</time>
      </trkpt>
      <trkpt lat="46.0097210" lon="5.6385670">
        <ele>1071.5</ele>
        <time>2022-07-25T15:16:21Z</time>
      </trkpt>
      <trkpt lat="46.0096930" lon="5.6385570">
        <ele>1071.4</ele>
        <time>2022-07-25T15:16:22Z</time>
      </trkpt>
      <trkpt lat="46.0096580" lon="5.6385590">
        <ele>1071.3</ele>
        <time>2022-07-25T15:16:23Z</time>
      </trkpt>
      <trkpt lat="46.0096460" lon="5.6385630">
        <ele>1071.3</ele>
        <time>2022-07-25T15:16:24Z</time>
      </trkpt>
      <trkpt lat="46.0095560" lon="5.6385380">
        <ele>1070.9</ele>
        <time>2022-07-25T15:16:25Z</time>
      </trkpt>
      <trkpt lat="46.0094910" lon="5.6385350">
        <ele>1070.7</ele>
        <time>2022-07-25T15:16:26Z</time>
      </trkpt>
      <trkpt lat="46.0094140" lon="5.6385450">
        <ele>1070.5</ele>
        <time>2022-07-25T15:16:27Z</time>
      </trkpt>
      <trkpt lat="46.0093500" lon="5.6385570">
        <ele>1070.3</ele>
        <time>2022-07-25T15:16:28Z</time>
      </trkpt>
      <trkpt lat="46.0093020" lon="5.6385660">
        <ele>1070.1</ele>
        <time>2022-07-25T15:16:29Z</time>
      </trkpt>
      <trkpt lat="46.0092630" lon="5.6385770">
        <ele>1070.0</ele>
        <time>2022-07-25T15:16:30Z</time>
      </trkpt>
      <trkpt lat="46.0092260" lon="5.6385750">
        <ele>1069.8</ele>
        <time>2022-07-25T15:16:31Z</time>
      </trkpt>
      <trkpt lat="46.0091890" lon="5.6385850">
        <ele>1069.7</ele>
        <time>2022-07-25T15:16:32Z</time>
      </trkpt>
      <trkpt lat="46.0091430" lon="5.6386100">
        <ele>1069.6</ele>
        <time>2022-07-25T15:16:33Z</time>
      </trkpt>
      <trkpt lat="46.0090650" lon="5.6385910">
        <ele>1069.4</ele>
        <time>2022-07-25T15:16:34Z</time>
      </trkpt>
      <trkpt lat="46.0089820" lon="5.6385840">
        <ele>1069.4</ele>
        <time>2022-07-25T15:16:35Z</time>
      </trkpt>
      <trkpt lat="46.0089290" lon="5.6385740">
        <ele>1069.6</ele>
        <time>2022-07-25T15:16:36Z</time>
      </trkpt>
      <trkpt lat="46.0088970" lon="5.6385900">
        <ele>1069.7</ele>
        <time>2022-07-25T15:16:37Z</time>
      </trkpt>
      <trkpt lat="46.0088520" lon="5.6385890">
        <ele>1069.8</ele>
        <time>2022-07-25T15:16:39Z</time>
      </trkpt>
      <trkpt lat="46.0088160" lon="5.6385660">
        <ele>1070.0</ele>
        <time>2022-07-25T15:16:40Z</time>
      </trkpt>
      <trkpt lat="46.0088040" lon="5.6385590">
        <ele>1070.1</ele>
        <time>2022-07-25T15:16:41Z</time>
      </trkpt>
      <trkpt lat="46.0087750" lon="5.6385380">
        <ele>1070.3</ele>
        <time>2022-07-25T15:16:42Z</time>
      </trkpt>
      <trkpt lat="46.0087520" lon="5.6385120">
        <ele>1070.4</ele>
        <time>2022-07-25T15:16:43Z</time>
      </trkpt>
      <trkpt lat="46.0087170" lon="5.6384920">
        <ele>1070.6</ele>
        <time>2022-07-25T15:16:44Z</time>
      </trkpt>
      <trkpt lat="46.0087060" lon="5.6384880">
        <ele>1070.7</ele>
        <time>2022-07-25T15:16:45Z</time>
      </trkpt>
      <trkpt lat="46.0086790" lon="5.6384820">
        <ele>1070.8</ele>
        <time>2022-07-25T15:16:46Z</time>
      </trkpt>
      <trkpt lat="46.0086240" lon="5.6384700">
        <ele>1071.2</ele>
        <time>2022-07-25T15:16:48Z</time>
      </trkpt>
      <trkpt lat="46.0085940" lon="5.6384640">
        <ele>1071.4</ele>
        <time>2022-07-25T15:16:49Z</time>
      </trkpt>
      <trkpt lat="46.0085590" lon="5.6384590">
        <ele>1071.6</ele>
        <time>2022-07-25T15:16:50Z</time>
      </trkpt>
      <trkpt lat="46.0085290" lon="5.6384500">
        <ele>1071.9</ele>
        <time>2022-07-25T15:16:51Z</time>
      </trkpt>
      <trkpt lat="46.0085040" lon="5.6384180">
        <ele>1072.1</ele>
        <time>2022-07-25T15:16:52Z</time>
      </trkpt>
      <trkpt lat="46.0084930" lon="5.6384050">
        <ele>1072.3</ele>
        <time>2022-07-25T15:16:53Z</time>
      </trkpt>
      <trkpt lat="46.0084830" lon="5.6383970">
        <ele>1072.3</ele>
        <time>2022-07-25T15:16:54Z</time>
      </trkpt>
      <trkpt lat="46.0084680" lon="5.6383950">
        <ele>1072.5</ele>
        <time>2022-07-25T15:16:55Z</time>
      </trkpt>
      <trkpt lat="46.0084490" lon="5.6383880">
        <ele>1072.6</ele>
        <time>2022-07-25T15:16:57Z</time>
      </trkpt>
      <trkpt lat="46.0084200" lon="5.6383740">
        <ele>1072.9</ele>
        <time>2022-07-25T15:16:58Z</time>
      </trkpt>
      <trkpt lat="46.0084090" lon="5.6383690">
        <ele>1073.0</ele>
        <time>2022-07-25T15:16:59Z</time>
      </trkpt>
      <trkpt lat="46.0083810" lon="5.6383550">
        <ele>1073.2</ele>
        <time>2022-07-25T15:17:00Z</time>
      </trkpt>
      <trkpt lat="46.0083550" lon="5.6383390">
        <ele>1073.4</ele>
        <time>2022-07-25T15:17:01Z</time>
      </trkpt>
      <trkpt lat="46.0083450" lon="5.6383330">
        <ele>1073.5</ele>
        <time>2022-07-25T15:17:02Z</time>
      </trkpt>
      <trkpt lat="46.0083130" lon="5.6383200">
        <ele>1073.7</ele>
        <time>2022-07-25T15:17:03Z</time>
      </trkpt>
      <trkpt lat="46.0083010" lon="5.6383160">
        <ele>1073.8</ele>
        <time>2022-07-25T15:17:04Z</time>
      </trkpt>
      <trkpt lat="46.0082660" lon="5.6383050">
        <ele>1074.0</ele>
        <time>2022-07-25T15:17:05Z</time>
      </trkpt>
      <trkpt lat="46.0082540" lon="5.6383030">
        <ele>1074.0</ele>
        <time>2022-07-25T15:17:06Z</time>
      </trkpt>
      <trkpt lat="46.0082080" lon="5.6382950">
        <ele>1074.3</ele>
        <time>2022-07-25T15:17:08Z</time>
      </trkpt>
      <trkpt lat="46.0081830" lon="5.6382930">
        <ele>1074.4</ele>
        <time>2022-07-25T15:17:09Z</time>
      </trkpt>
      <trkpt lat="46.0081720" lon="5.6382940">
        <ele>1074.4</ele>
        <time>2022-07-25T15:17:10Z</time>
      </trkpt>
      <trkpt lat="46.0081330" lon="5.6382960">
        <ele>1074.6</ele>
        <time>2022-07-25T15:17:11Z</time>
      </trkpt>
      <trkpt lat="46.0081200" lon="5.6382960">
        <ele>1074.6</ele>
        <time>2022-07-25T15:17:12Z</time>
      </trkpt>
      <trkpt lat="46.0080920" lon="5.6383010">
        <ele>1074.7</ele>
        <time>2022-07-25T15:17:13Z</time>
      </trkpt>
      <trkpt lat="46.0080640" lon="5.6383060">
        <ele>1074.8</ele>
        <time>2022-07-25T15:17:14Z</time>
      </trkpt>
      <trkpt lat="46.0080220" lon="5.6383070">
        <ele>1075.0</ele>
        <time>2022-07-25T15:17:15Z</time>
      </trkpt>
      <trkpt lat="46.0079850" lon="5.6383020">
        <ele>1075.1</ele>
        <time>2022-07-25T15:17:17Z</time>
      </trkpt>
      <trkpt lat="46.0079530" lon="5.6383060">
        <ele>1075.2</ele>
        <time>2022-07-25T15:17:18Z</time>
      </trkpt>
      <trkpt lat="46.0079190" lon="5.6383150">
        <ele>1075.3</ele>
        <time>2022-07-25T15:17:19Z</time>
      </trkpt>
      <trkpt lat="46.0078900" lon="5.6383240">
        <ele>1075.4</ele>
        <time>2022-07-25T15:17:20Z</time>
      </trkpt>
      <trkpt lat="46.0078620" lon="5.6383350">
        <ele>1075.5</ele>
        <time>2022-07-25T15:17:22Z</time>
      </trkpt>
      <trkpt lat="46.0078310" lon="5.6383410">
        <ele>1075.6</ele>
        <time>2022-07-25T15:17:23Z</time>
      </trkpt>
      <trkpt lat="46.0077970" lon="5.6383420">
        <ele>1075.6</ele>
        <time>2022-07-25T15:17:24Z</time>
      </trkpt>
      <trkpt lat="46.0077610" lon="5.6383470">
        <ele>1075.7</ele>
        <time>2022-07-25T15:17:25Z</time>
      </trkpt>
      <trkpt lat="46.0077500" lon="5.6383480">
        <ele>1075.7</ele>
        <time>2022-07-25T15:17:26Z</time>
      </trkpt>
      <trkpt lat="46.0077160" lon="5.6383510">
        <ele>1075.7</ele>
        <time>2022-07-25T15:17:27Z</time>
      </trkpt>
      <trkpt lat="46.0077030" lon="5.6383520">
        <ele>1075.7</ele>
        <time>2022-07-25T15:17:28Z</time>
      </trkpt>
      <trkpt lat="46.0076730" lon="5.6383530">
        <ele>1075.8</ele>
        <time>2022-07-25T15:17:29Z</time>
      </trkpt>
      <trkpt lat="46.0076400" lon="5.6383530">
        <ele>1075.8</ele>
        <time>2022-07-25T15:17:30Z</time>
      </trkpt>
      <trkpt lat="46.0076080" lon="5.6383490">
        <ele>1075.7</ele>
        <time>2022-07-25T15:17:31Z</time>
      </trkpt>
      <trkpt lat="46.0075740" lon="5.6383480">
        <ele>1075.7</ele>
        <time>2022-07-25T15:17:32Z</time>
      </trkpt>
      <trkpt lat="46.0075430" lon="5.6383410">
        <ele>1075.7</ele>
        <time>2022-07-25T15:17:33Z</time>
      </trkpt>
      <trkpt lat="46.0075150" lon="5.6383360">
        <ele>1075.7</ele>
        <time>2022-07-25T15:17:34Z</time>
      </trkpt>
      <trkpt lat="46.0074870" lon="5.6383330">
        <ele>1075.7</ele>
        <time>2022-07-25T15:17:35Z</time>
      </trkpt>
      <trkpt lat="46.0074570" lon="5.6383280">
        <ele>1075.7</ele>
        <time>2022-07-25T15:17:36Z</time>
      </trkpt>
      <trkpt lat="46.0074250" lon="5.6383220">
        <ele>1075.7</ele>
        <time>2022-07-25T15:17:37Z</time>
      </trkpt>
      <trkpt lat="46.0073860" lon="5.6383110">
        <ele>1075.7</ele>
        <time>2022-07-25T15:17:38Z</time>
      </trkpt>
      <trkpt lat="46.0073720" lon="5.6383070">
        <ele>1075.7</ele>
        <time>2022-07-25T15:17:39Z</time>
      </trkpt>
      <trkpt lat="46.0073370" lon="5.6382960">
        <ele>1075.7</ele>
        <time>2022-07-25T15:17:40Z</time>
      </trkpt>
      <trkpt lat="46.0072750" lon="5.6382850">
        <ele>1075.8</ele>
        <time>2022-07-25T15:17:42Z</time>
      </trkpt>
      <trkpt lat="46.0072470" lon="5.6382900">
        <ele>1075.8</ele>
        <time>2022-07-25T15:17:43Z</time>
      </trkpt>
      <trkpt lat="46.0072120" lon="5.6382970">
        <ele>1075.9</ele>
        <time>2022-07-25T15:17:44Z</time>
      </trkpt>
      <trkpt lat="46.0071810" lon="5.6382980">
        <ele>1076.0</ele>
        <time>2022-07-25T15:17:45Z</time>
      </trkpt>
      <trkpt lat="46.0071450" lon="5.6382970">
        <ele>1076.1</ele>
        <time>2022-07-25T15:17:47Z</time>
      </trkpt>
      <trkpt lat="46.0071040" lon="5.6382970">
        <ele>1076.2</ele>
        <time>2022-07-25T15:17:48Z</time>
      </trkpt>
      <trkpt lat="46.0070770" lon="5.6382950">
        <ele>1076.3</ele>
        <time>2022-07-25T15:17:49Z</time>
      </trkpt>
      <trkpt lat="46.0070560" lon="5.6382970">
        <ele>1076.3</ele>
        <time>2022-07-25T15:17:50Z</time>
      </trkpt>
      <trkpt lat="46.0070320" lon="5.6383030">
        <ele>1076.4</ele>
        <time>2022-07-25T15:17:52Z</time>
      </trkpt>
      <trkpt lat="46.0070040" lon="5.6383090">
        <ele>1076.4</ele>
        <time>2022-07-25T15:17:53Z</time>
      </trkpt>
      <trkpt lat="46.0069660" lon="5.6383160">
        <ele>1076.5</ele>
        <time>2022-07-25T15:17:54Z</time>
      </trkpt>
      <trkpt lat="46.0069210" lon="5.6383190">
        <ele>1076.6</ele>
        <time>2022-07-25T15:17:55Z</time>
      </trkpt>
      <trkpt lat="46.0068850" lon="5.6383180">
        <ele>1076.6</ele>
        <time>2022-07-25T15:17:56Z</time>
      </trkpt>
      <trkpt lat="46.0068210" lon="5.6383200">
        <ele>1076.8</ele>
        <time>2022-07-25T15:17:58Z</time>
      </trkpt>
      <trkpt lat="46.0067840" lon="5.6383200">
        <ele>1076.9</ele>
        <time>2022-07-25T15:17:59Z</time>
      </trkpt>
      <trkpt lat="46.0067620" lon="5.6383210">
        <ele>1077.0</ele>
        <time>2022-07-25T15:18:00Z</time>
      </trkpt>
      <trkpt lat="46.0067290" lon="5.6383310">
        <ele>1077.1</ele>
        <time>2022-07-25T15:18:02Z</time>
      </trkpt>
      <trkpt lat="46.0066980" lon="5.6383400">
        <ele>1077.1</ele>
        <time>2022-07-25T15:18:03Z</time>
      </trkpt>
      <trkpt lat="46.0066760" lon="5.6383430">
        <ele>1077.2</ele>
        <time>2022-07-25T15:18:04Z</time>
      </trkpt>
      <trkpt lat="46.0066520" lon="5.6383500">
        <ele>1077.1</ele>
        <time>2022-07-25T15:18:06Z</time>
      </trkpt>
      <trkpt lat="46.0066170" lon="5.6383660">
        <ele>1077.1</ele>
        <time>2022-07-25T15:18:07Z</time>
      </trkpt>
      <trkpt lat="46.0066090" lon="5.6383730">
        <ele>1077.0</ele>
        <time>2022-07-25T15:18:08Z</time>
      </trkpt>
      <trkpt lat="46.0065240" lon="5.6383640">
        <ele>1076.6</ele>
        <time>2022-07-25T15:18:09Z</time>
      </trkpt>
      <trkpt lat="46.0064580" lon="5.6383640">
        <ele>1076.1</ele>
        <time>2022-07-25T15:18:10Z</time>
      </trkpt>
      <trkpt lat="46.0063920" lon="5.6383600">
        <ele>1075.7</ele>
        <time>2022-07-25T15:18:11Z</time>
      </trkpt>
      <trkpt lat="46.0063320" lon="5.6383560">
        <ele>1075.3</ele>
        <time>2022-07-25T15:18:12Z</time>
      </trkpt>
      <trkpt lat="46.0062810" lon="5.6383480">
        <ele>1075.0</ele>
        <time>2022-07-25T15:18:13Z</time>
      </trkpt>
      <trkpt lat="46.0062450" lon="5.6383130">
        <ele>1074.9</ele>
        <time>2022-07-25T15:18:14Z</time>
      </trkpt>
      <trkpt lat="46.0061850" lon="5.6382940">
        <ele>1074.8</ele>
        <time>2022-07-25T15:18:15Z</time>
      </trkpt>
      <trkpt lat="46.0061140" lon="5.6382630">
        <ele>1075.0</ele>
        <time>2022-07-25T15:18:16Z</time>
      </trkpt>
      <trkpt lat="46.0060570" lon="5.6382260">
        <ele>1075.3</ele>
        <time>2022-07-25T15:18:17Z</time>
      </trkpt>
      <trkpt lat="46.0060110" lon="5.6381990">
        <ele>1075.7</ele>
        <time>2022-07-25T15:18:18Z</time>
      </trkpt>
      <trkpt lat="46.0059750" lon="5.6381780">
        <ele>1076.0</ele>
        <time>2022-07-25T15:18:19Z</time>
      </trkpt>
      <trkpt lat="46.0059500" lon="5.6381560">
        <ele>1076.2</ele>
        <time>2022-07-25T15:18:20Z</time>
      </trkpt>
      <trkpt lat="46.0059300" lon="5.6381430">
        <ele>1076.4</ele>
        <time>2022-07-25T15:18:21Z</time>
      </trkpt>
      <trkpt lat="46.0059220" lon="5.6381460">
        <ele>1076.5</ele>
        <time>2022-07-25T15:18:22Z</time>
      </trkpt>
      <trkpt lat="46.0059140" lon="5.6381520">
        <ele>1076.5</ele>
        <time>2022-07-25T15:18:23Z</time>
      </trkpt>
      <trkpt lat="46.0059030" lon="5.6381530">
        <ele>1076.6</ele>
        <time>2022-07-25T15:18:24Z</time>
      </trkpt>
      <trkpt lat="46.0058820" lon="5.6381410">
        <ele>1076.8</ele>
        <time>2022-07-25T15:18:26Z</time>
      </trkpt>
      <trkpt lat="46.0058510" lon="5.6381290">
        <ele>1077.0</ele>
        <time>2022-07-25T15:18:27Z</time>
      </trkpt>
      <trkpt lat="46.0058410" lon="5.6381290">
        <ele>1077.0</ele>
        <time>2022-07-25T15:18:28Z</time>
      </trkpt>
      <trkpt lat="46.0058280" lon="5.6381290">
        <ele>1077.1</ele>
        <time>2022-07-25T15:18:29Z</time>
      </trkpt>
      <trkpt lat="46.0058130" lon="5.6381270">
        <ele>1077.1</ele>
        <time>2022-07-25T15:18:30Z</time>
      </trkpt>
      <trkpt lat="46.0057970" lon="5.6381280">
        <ele>1077.2</ele>
        <time>2022-07-25T15:18:31Z</time>
      </trkpt>
      <trkpt lat="46.0057800" lon="5.6381330">
        <ele>1077.2</ele>
        <time>2022-07-25T15:18:32Z</time>
      </trkpt>
      <trkpt lat="46.0057530" lon="5.6381400">
        <ele>1077.3</ele>
        <time>2022-07-25T15:18:33Z</time>
      </trkpt>
      <trkpt lat="46.0057440" lon="5.6381420">
        <ele>1077.3</ele>
        <time>2022-07-25T15:18:34Z</time>
      </trkpt>
      <trkpt lat="46.0057130" lon="5.6381540">
        <ele>1077.3</ele>
        <time>2022-07-25T15:18:35Z</time>
      </trkpt>
      <trkpt lat="46.0057020" lon="5.6381590">
        <ele>1077.3</ele>
        <time>2022-07-25T15:18:36Z</time>
      </trkpt>
      <trkpt lat="46.0056640" lon="5.6381760">
        <ele>1077.3</ele>
        <time>2022-07-25T15:18:37Z</time>
      </trkpt>
      <trkpt lat="46.0056510" lon="5.6381810">
        <ele>1077.3</ele>
        <time>2022-07-25T15:18:38Z</time>
      </trkpt>
      <trkpt lat="46.0056200" lon="5.6381890">
        <ele>1077.3</ele>
        <time>2022-07-25T15:18:39Z</time>
      </trkpt>
      <trkpt lat="46.0055810" lon="5.6381990">
        <ele>1077.3</ele>
        <time>2022-07-25T15:18:40Z</time>
      </trkpt>
      <trkpt lat="46.0055210" lon="5.6382130">
        <ele>1077.3</ele>
        <time>2022-07-25T15:18:42Z</time>
      </trkpt>
      <trkpt lat="46.0054740" lon="5.6382210">
        <ele>1077.3</ele>
        <time>2022-07-25T15:18:43Z</time>
      </trkpt>
      <trkpt lat="46.0054250" lon="5.6382330">
        <ele>1077.4</ele>
        <time>2022-07-25T15:18:44Z</time>
      </trkpt>
      <trkpt lat="46.0053830" lon="5.6382450">
        <ele>1077.6</ele>
        <time>2022-07-25T15:18:45Z</time>
      </trkpt>
      <trkpt lat="46.0053420" lon="5.6382530">
        <ele>1077.7</ele>
        <time>2022-07-25T15:18:46Z</time>
      </trkpt>
      <trkpt lat="46.0053050" lon="5.6382670">
        <ele>1077.9</ele>
        <time>2022-07-25T15:18:47Z</time>
      </trkpt>
      <trkpt lat="46.0052650" lon="5.6382820">
        <ele>1078.2</ele>
        <time>2022-07-25T15:18:49Z</time>
      </trkpt>
      <trkpt lat="46.0052380" lon="5.6382950">
        <ele>1078.4</ele>
        <time>2022-07-25T15:18:50Z</time>
      </trkpt>
      <trkpt lat="46.0052050" lon="5.6383100">
        <ele>1078.7</ele>
        <time>2022-07-25T15:18:51Z</time>
      </trkpt>
      <trkpt lat="46.0051960" lon="5.6383130">
        <ele>1078.8</ele>
        <time>2022-07-25T15:18:52Z</time>
      </trkpt>
      <trkpt lat="46.0051670" lon="5.6383210">
        <ele>1079.1</ele>
        <time>2022-07-25T15:18:53Z</time>
      </trkpt>
      <trkpt lat="46.0051570" lon="5.6383240">
        <ele>1079.2</ele>
        <time>2022-07-25T15:18:54Z</time>
      </trkpt>
      <trkpt lat="46.0051150" lon="5.6383370">
        <ele>1079.6</ele>
        <time>2022-07-25T15:18:56Z</time>
      </trkpt>
      <trkpt lat="46.0051000" lon="5.6383420">
        <ele>1079.8</ele>
        <time>2022-07-25T15:18:57Z</time>
      </trkpt>
      <trkpt lat="46.0050850" lon="5.6383460">
        <ele>1080.0</ele>
        <time>2022-07-25T15:18:58Z</time>
      </trkpt>
      <trkpt lat="46.0050680" lon="5.6383530">
        <ele>1080.1</ele>
        <time>2022-07-25T15:18:59Z</time>
      </trkpt>
      <trkpt lat="46.0050430" lon="5.6383570">
        <ele>1080.4</ele>
        <time>2022-07-25T15:19:01Z</time>
      </trkpt>
      <trkpt lat="46.0050190" lon="5.6383530">
        <ele>1080.7</ele>
        <time>2022-07-25T15:19:02Z</time>
      </trkpt>
      <trkpt lat="46.0050090" lon="5.6383530">
        <ele>1080.8</ele>
        <time>2022-07-25T15:19:03Z</time>
      </trkpt>
      <trkpt lat="46.0049990" lon="5.6383540">
        <ele>1080.9</ele>
        <time>2022-07-25T15:19:04Z</time>
      </trkpt>
      <trkpt lat="46.0049800" lon="5.6383560">
        <ele>1081.1</ele>
        <time>2022-07-25T15:19:05Z</time>
      </trkpt>
      <trkpt lat="46.0049640" lon="5.6383590">
        <ele>1081.2</ele>
        <time>2022-07-25T15:19:06Z</time>
      </trkpt>
      <trkpt lat="46.0049500" lon="5.6383620">
        <ele>1081.4</ele>
        <time>2022-07-25T15:19:07Z</time>
      </trkpt>
      <trkpt lat="46.0049320" lon="5.6383670">
        <ele>1081.5</ele>
        <time>2022-07-25T15:19:08Z</time>
      </trkpt>
      <trkpt lat="46.0049150" lon="5.6383740">
        <ele>1081.7</ele>
        <time>2022-07-25T15:19:09Z</time>
      </trkpt>
      <trkpt lat="46.0049050" lon="5.6383750">
        <ele>1081.8</ele>
        <time>2022-07-25T15:19:10Z</time>
      </trkpt>
      <trkpt lat="46.0048850" lon="5.6383840">
        <ele>1082.0</ele>
        <time>2022-07-25T15:19:11Z</time>
      </trkpt>
      <trkpt lat="46.0048760" lon="5.6383890">
        <ele>1082.0</ele>
        <time>2022-07-25T15:19:12Z</time>
      </trkpt>
      <trkpt lat="46.0048660" lon="5.6383950">
        <ele>1082.1</ele>
        <time>2022-07-25T15:19:13Z</time>
      </trkpt>
      <trkpt lat="46.0048340" lon="5.6383930">
        <ele>1082.3</ele>
        <time>2022-07-25T15:19:14Z</time>
      </trkpt>
      <trkpt lat="46.0048230" lon="5.6383930">
        <ele>1082.4</ele>
        <time>2022-07-25T15:19:15Z</time>
      </trkpt>
      <trkpt lat="46.0047900" lon="5.6384040">
        <ele>1082.7</ele>
        <time>2022-07-25T15:19:16Z</time>
      </trkpt>
      <trkpt lat="46.0047800" lon="5.6384090">
        <ele>1082.7</ele>
        <time>2022-07-25T15:19:17Z</time>
      </trkpt>
      <trkpt lat="46.0047520" lon="5.6384200">
        <ele>1082.9</ele>
        <time>2022-07-25T15:19:18Z</time>
      </trkpt>
      <trkpt lat="46.0047220" lon="5.6384320">
        <ele>1083.2</ele>
        <time>2022-07-25T15:19:19Z</time>
      </trkpt>
      <trkpt lat="46.0046940" lon="5.6384450">
        <ele>1083.4</ele>
        <time>2022-07-25T15:19:20Z</time>
      </trkpt>
      <trkpt lat="46.0046540" lon="5.6384490">
        <ele>1083.8</ele>
        <time>2022-07-25T15:19:21Z</time>
      </trkpt>
      <trkpt lat="46.0046410" lon="5.6384450">
        <ele>1083.9</ele>
        <time>2022-07-25T15:19:22Z</time>
      </trkpt>
      <trkpt lat="46.0046100" lon="5.6384340">
        <ele>1084.2</ele>
        <time>2022-07-25T15:19:24Z</time>
      </trkpt>
      <trkpt lat="46.0046000" lon="5.6384320">
        <ele>1084.3</ele>
        <time>2022-07-25T15:19:25Z</time>
      </trkpt>
      <trkpt lat="46.0045820" lon="5.6384280">
        <ele>1084.4</ele>
        <time>2022-07-25T15:19:26Z</time>
      </trkpt>
      <trkpt lat="46.0045700" lon="5.6384240">
        <ele>1084.5</ele>
        <time>2022-07-25T15:19:27Z</time>
      </trkpt>
      <trkpt lat="46.0045560" lon="5.6384230">
        <ele>1084.6</ele>
        <time>2022-07-25T15:19:28Z</time>
      </trkpt>
      <trkpt lat="46.0045420" lon="5.6384240">
        <ele>1084.7</ele>
        <time>2022-07-25T15:19:29Z</time>
      </trkpt>
      <trkpt lat="46.0045280" lon="5.6384220">
        <ele>1084.9</ele>
        <time>2022-07-25T15:19:30Z</time>
      </trkpt>
      <trkpt lat="46.0045110" lon="5.6384180">
        <ele>1085.0</ele>
        <time>2022-07-25T15:19:31Z</time>
      </trkpt>
      <trkpt lat="46.0044750" lon="5.6384060">
        <ele>1085.2</ele>
        <time>2022-07-25T15:19:33Z</time>
      </trkpt>
      <trkpt lat="46.0044590" lon="5.6384000">
        <ele>1085.3</ele>
        <time>2022-07-25T15:19:34Z</time>
      </trkpt>
      <trkpt lat="46.0044330" lon="5.6383920">
        <ele>1085.5</ele>
        <time>2022-07-25T15:19:35Z</time>
      </trkpt>
      <trkpt lat="46.0044020" lon="5.6383890">
        <ele>1085.7</ele>
        <time>2022-07-25T15:19:36Z</time>
      </trkpt>
      <trkpt lat="46.0043700" lon="5.6383780">
        <ele>1085.9</ele>
        <time>2022-07-25T15:19:37Z</time>
      </trkpt>
      <trkpt lat="46.0043610" lon="5.6383730">
        <ele>1085.9</ele>
        <time>2022-07-25T15:19:38Z</time>
      </trkpt>
      <trkpt lat="46.0043330" lon="5.6383580">
        <ele>1086.1</ele>
        <time>2022-07-25T15:19:39Z</time>
      </trkpt>
      <trkpt lat="46.0043240" lon="5.6383550">
        <ele>1086.2</ele>
        <time>2022-07-25T15:19:40Z</time>
      </trkpt>
      <trkpt lat="46.0042820" lon="5.6383570">
        <ele>1086.4</ele>
        <time>2022-07-25T15:19:42Z</time>
      </trkpt>
      <trkpt lat="46.0042700" lon="5.6383570">
        <ele>1086.5</ele>
        <time>2022-07-25T15:19:43Z</time>
      </trkpt>
      <trkpt lat="46.0042570" lon="5.6383570">
        <ele>1086.6</ele>
        <time>2022-07-25T15:19:44Z</time>
      </trkpt>
      <trkpt lat="46.0042310" lon="5.6383560">
        <ele>1086.7</ele>
        <time>2022-07-25T15:19:45Z</time>
      </trkpt>
      <trkpt lat="46.0042200" lon="5.6383590">
        <ele>1086.8</ele>
        <time>2022-07-25T15:19:46Z</time>
      </trkpt>
      <trkpt lat="46.0041950" lon="5.6383710">
        <ele>1087.0</ele>
        <time>2022-07-25T15:19:47Z</time>
      </trkpt>
      <trkpt lat="46.0041850" lon="5.6383750">
        <ele>1087.1</ele>
        <time>2022-07-25T15:19:48Z</time>
      </trkpt>
      <trkpt lat="46.0041520" lon="5.6383900">
        <ele>1087.3</ele>
        <time>2022-07-25T15:19:49Z</time>
      </trkpt>
      <trkpt lat="46.0041400" lon="5.6383950">
        <ele>1087.4</ele>
        <time>2022-07-25T15:19:50Z</time>
      </trkpt>
      <trkpt lat="46.0041040" lon="5.6384020">
        <ele>1087.7</ele>
        <time>2022-07-25T15:19:51Z</time>
      </trkpt>
      <trkpt lat="46.0040930" lon="5.6384020">
        <ele>1087.7</ele>
        <time>2022-07-25T15:19:52Z</time>
      </trkpt>
      <trkpt lat="46.0040470" lon="5.6383940">
        <ele>1088.1</ele>
        <time>2022-07-25T15:19:54Z</time>
      </trkpt>
      <trkpt lat="46.0040290" lon="5.6383910">
        <ele>1088.2</ele>
        <time>2022-07-25T15:19:55Z</time>
      </trkpt>
      <trkpt lat="46.0040120" lon="5.6383870">
        <ele>1088.3</ele>
        <time>2022-07-25T15:19:56Z</time>
      </trkpt>
      <trkpt lat="46.0039830" lon="5.6383890">
        <ele>1088.5</ele>
        <time>2022-07-25T15:19:58Z</time>
      </trkpt>
      <trkpt lat="46.0039670" lon="5.6383910">
        <ele>1088.6</ele>
        <time>2022-07-25T15:19:59Z</time>
      </trkpt>
      <trkpt lat="46.0039490" lon="5.6383930">
        <ele>1088.7</ele>
        <time>2022-07-25T15:20:00Z</time>
      </trkpt>
      <trkpt lat="46.0039150" lon="5.6383930">
        <ele>1088.9</ele>
        <time>2022-07-25T15:20:01Z</time>
      </trkpt>
      <trkpt lat="46.0039000" lon="5.6383920">
        <ele>1088.9</ele>
        <time>2022-07-25T15:20:02Z</time>
      </trkpt>
      <trkpt lat="46.0038630" lon="5.6383890">
        <ele>1089.0</ele>
        <time>2022-07-25T15:20:04Z</time>
      </trkpt>
      <trkpt lat="46.0038530" lon="5.6383880">
        <ele>1089.1</ele>
        <time>2022-07-25T15:20:05Z</time>
      </trkpt>
      <trkpt lat="46.0038240" lon="5.6383880">
        <ele>1089.1</ele>
        <time>2022-07-25T15:20:06Z</time>
      </trkpt>
      <trkpt lat="46.0037880" lon="5.6383910">
        <ele>1089.2</ele>
        <time>2022-07-25T15:20:07Z</time>
      </trkpt>
      <trkpt lat="46.0037780" lon="5.6383910">
        <ele>1089.2</ele>
        <time>2022-07-25T15:20:08Z</time>
      </trkpt>
      <trkpt lat="46.0037510" lon="5.6383880">
        <ele>1089.2</ele>
        <time>2022-07-25T15:20:09Z</time>
      </trkpt>
      <trkpt lat="46.0037390" lon="5.6383880">
        <ele>1089.2</ele>
        <time>2022-07-25T15:20:10Z</time>
      </trkpt>
      <trkpt lat="46.0036840" lon="5.6383980">
        <ele>1089.2</ele>
        <time>2022-07-25T15:20:12Z</time>
      </trkpt>
      <trkpt lat="46.0036530" lon="5.6384100">
        <ele>1089.1</ele>
        <time>2022-07-25T15:20:13Z</time>
      </trkpt>
      <trkpt lat="46.0036170" lon="5.6384190">
        <ele>1089.0</ele>
        <time>2022-07-25T15:20:14Z</time>
      </trkpt>
      <trkpt lat="46.0036050" lon="5.6384210">
        <ele>1089.0</ele>
        <time>2022-07-25T15:20:15Z</time>
      </trkpt>
      <trkpt lat="46.0035720" lon="5.6384300">
        <ele>1088.8</ele>
        <time>2022-07-25T15:20:16Z</time>
      </trkpt>
      <trkpt lat="46.0035630" lon="5.6384330">
        <ele>1088.8</ele>
        <time>2022-07-25T15:20:17Z</time>
      </trkpt>
      <trkpt lat="46.0035280" lon="5.6384480">
        <ele>1088.6</ele>
        <time>2022-07-25T15:20:18Z</time>
      </trkpt>
      <trkpt lat="46.0035130" lon="5.6384560">
        <ele>1088.5</ele>
        <time>2022-07-25T15:20:19Z</time>
      </trkpt>
      <trkpt lat="46.0034780" lon="5.6384720">
        <ele>1088.2</ele>
        <time>2022-07-25T15:20:21Z</time>
      </trkpt>
      <trkpt lat="46.0034460" lon="5.6384830">
        <ele>1088.0</ele>
        <time>2022-07-25T15:20:22Z</time>
      </trkpt>
      <trkpt lat="46.0033710" lon="5.6385300">
        <ele>1087.1</ele>
        <time>2022-07-25T15:20:23Z</time>
      </trkpt>
      <trkpt lat="46.0033120" lon="5.6385770">
        <ele>1086.3</ele>
        <time>2022-07-25T15:20:24Z</time>
      </trkpt>
      <trkpt lat="46.0032510" lon="5.6386230">
        <ele>1085.4</ele>
        <time>2022-07-25T15:20:25Z</time>
      </trkpt>
      <trkpt lat="46.0031860" lon="5.6386600">
        <ele>1084.5</ele>
        <time>2022-07-25T15:20:26Z</time>
      </trkpt>
      <trkpt lat="46.0031160" lon="5.6387070">
        <ele>1083.4</ele>
        <time>2022-07-25T15:20:27Z</time>
      </trkpt>
      <trkpt lat="46.0030500" lon="5.6387450">
        <ele>1082.4</ele>
        <time>2022-07-25T15:20:28Z</time>
      </trkpt>
      <trkpt lat="46.0029910" lon="5.6387760">
        <ele>1081.5</ele>
        <time>2022-07-25T15:20:29Z</time>
      </trkpt>
      <trkpt lat="46.0029310" lon="5.6388010">
        <ele>1080.7</ele>
        <time>2022-07-25T15:20:30Z</time>
      </trkpt>
      <trkpt lat="46.0028620" lon="5.6388360">
        <ele>1079.7</ele>
        <time>2022-07-25T15:20:31Z</time>
      </trkpt>
      <trkpt lat="46.0027890" lon="5.6388800">
        <ele>1078.7</ele>
        <time>2022-07-25T15:20:32Z</time>
      </trkpt>
      <trkpt lat="46.0027100" lon="5.6389320">
        <ele>1077.8</ele>
        <time>2022-07-25T15:20:33Z</time>
      </trkpt>
      <trkpt lat="46.0026390" lon="5.6389780">
        <ele>1077.1</ele>
        <time>2022-07-25T15:20:34Z</time>
      </trkpt>
      <trkpt lat="46.0025670" lon="5.6390160">
        <ele>1076.5</ele>
        <time>2022-07-25T15:20:35Z</time>
      </trkpt>
      <trkpt lat="46.0025040" lon="5.6390330">
        <ele>1076.4</ele>
        <time>2022-07-25T15:20:36Z</time>
      </trkpt>
      <trkpt lat="46.0024410" lon="5.6390520">
        <ele>1076.3</ele>
        <time>2022-07-25T15:20:37Z</time>
      </trkpt>
      <trkpt lat="46.0023810" lon="5.6390790">
        <ele>1076.3</ele>
        <time>2022-07-25T15:20:38Z</time>
      </trkpt>
      <trkpt lat="46.0023200" lon="5.6390980">
        <ele>1076.3</ele>
        <time>2022-07-25T15:20:39Z</time>
      </trkpt>
      <trkpt lat="46.0022600" lon="5.6390930">
        <ele>1076.3</ele>
        <time>2022-07-25T15:20:40Z</time>
      </trkpt>
      <trkpt lat="46.0022050" lon="5.6390950">
        <ele>1076.4</ele>
        <time>2022-07-25T15:20:41Z</time>
      </trkpt>
      <trkpt lat="46.0021590" lon="5.6391030">
        <ele>1076.4</ele>
        <time>2022-07-25T15:20:42Z</time>
      </trkpt>
      <trkpt lat="46.0021150" lon="5.6391080">
        <ele>1076.5</ele>
        <time>2022-07-25T15:20:43Z</time>
      </trkpt>
      <trkpt lat="46.0020740" lon="5.6391260">
        <ele>1076.5</ele>
        <time>2022-07-25T15:20:44Z</time>
      </trkpt>
      <trkpt lat="46.0020330" lon="5.6391680">
        <ele>1076.6</ele>
        <time>2022-07-25T15:20:45Z</time>
      </trkpt>
      <trkpt lat="46.0020010" lon="5.6391900">
        <ele>1076.6</ele>
        <time>2022-07-25T15:20:46Z</time>
      </trkpt>
      <trkpt lat="46.0019520" lon="5.6392060">
        <ele>1076.7</ele>
        <time>2022-07-25T15:20:47Z</time>
      </trkpt>
      <trkpt lat="46.0019050" lon="5.6392240">
        <ele>1076.8</ele>
        <time>2022-07-25T15:20:48Z</time>
      </trkpt>
      <trkpt lat="46.0018590" lon="5.6392470">
        <ele>1076.9</ele>
        <time>2022-07-25T15:20:49Z</time>
      </trkpt>
      <trkpt lat="46.0018270" lon="5.6392690">
        <ele>1077.0</ele>
        <time>2022-07-25T15:20:50Z</time>
      </trkpt>
      <trkpt lat="46.0017910" lon="5.6392860">
        <ele>1077.1</ele>
        <time>2022-07-25T15:20:51Z</time>
      </trkpt>
      <trkpt lat="46.0017590" lon="5.6392700">
        <ele>1077.2</ele>
        <time>2022-07-25T15:20:53Z</time>
      </trkpt>
      <trkpt lat="46.0017270" lon="5.6392750">
        <ele>1077.3</ele>
        <time>2022-07-25T15:20:54Z</time>
      </trkpt>
      <trkpt lat="46.0016820" lon="5.6392880">
        <ele>1077.5</ele>
        <time>2022-07-25T15:20:55Z</time>
      </trkpt>
      <trkpt lat="46.0016470" lon="5.6392950">
        <ele>1077.6</ele>
        <time>2022-07-25T15:20:56Z</time>
      </trkpt>
      <trkpt lat="46.0015790" lon="5.6393180">
        <ele>1077.8</ele>
        <time>2022-07-25T15:20:58Z</time>
      </trkpt>
      <trkpt lat="46.0015390" lon="5.6393370">
        <ele>1077.9</ele>
        <time>2022-07-25T15:21:00Z</time>
      </trkpt>
      <trkpt lat="46.0014810" lon="5.6393520">
        <ele>1078.0</ele>
        <time>2022-07-25T15:21:01Z</time>
      </trkpt>
      <trkpt lat="46.0014230" lon="5.6393720">
        <ele>1078.2</ele>
        <time>2022-07-25T15:21:03Z</time>
      </trkpt>
      <trkpt lat="46.0013780" lon="5.6393890">
        <ele>1078.3</ele>
        <time>2022-07-25T15:21:04Z</time>
      </trkpt>
      <trkpt lat="46.0013410" lon="5.6394050">
        <ele>1078.4</ele>
        <time>2022-07-25T15:21:05Z</time>
      </trkpt>
      <trkpt lat="46.0013170" lon="5.6394140">
        <ele>1078.5</ele>
        <time>2022-07-25T15:21:06Z</time>
      </trkpt>
      <trkpt lat="46.0013060" lon="5.6394160">
        <ele>1078.6</ele>
        <time>2022-07-25T15:21:07Z</time>
      </trkpt>
      <trkpt lat="46.0012940" lon="5.6394200">
        <ele>1078.7</ele>
        <time>2022-07-25T15:21:08Z</time>
      </trkpt>
      <trkpt lat="46.0012740" lon="5.6394220">
        <ele>1078.8</ele>
        <time>2022-07-25T15:21:10Z</time>
      </trkpt>
      <trkpt lat="46.0012530" lon="5.6394230">
        <ele>1079.0</ele>
        <time>2022-07-25T15:21:11Z</time>
      </trkpt>
      <trkpt lat="46.0012400" lon="5.6394230">
        <ele>1079.1</ele>
        <time>2022-07-25T15:21:12Z</time>
      </trkpt>
      <trkpt lat="46.0012180" lon="5.6394250">
        <ele>1079.3</ele>
        <time>2022-07-25T15:21:13Z</time>
      </trkpt>
      <trkpt lat="46.0012080" lon="5.6394270">
        <ele>1079.4</ele>
        <time>2022-07-25T15:21:15Z</time>
      </trkpt>
      <trkpt lat="46.0011990" lon="5.6394280">
        <ele>1079.5</ele>
        <time>2022-07-25T15:21:16Z</time>
      </trkpt>
      <trkpt lat="46.0011890" lon="5.6394300">
        <ele>1079.6</ele>
        <time>2022-07-25T15:21:17Z</time>
      </trkpt>
      <trkpt lat="46.0011790" lon="5.6394320">
        <ele>1079.7</ele>
        <time>2022-07-25T15:21:18Z</time>
      </trkpt>
      <trkpt lat="46.0011690" lon="5.6394330">
        <ele>1079.8</ele>
        <time>2022-07-25T15:21:19Z</time>
      </trkpt>
      <trkpt lat="46.0011590" lon="5.6394390">
        <ele>1079.9</ele>
        <time>2022-07-25T15:21:20Z</time>
      </trkpt>
      <trkpt lat="46.0011490" lon="5.6394410">
        <ele>1080.1</ele>
        <time>2022-07-25T15:21:21Z</time>
      </trkpt>
      <trkpt lat="46.0011370" lon="5.6394410">
        <ele>1080.2</ele>
        <time>2022-07-25T15:21:22Z</time>
      </trkpt>
      <trkpt lat="46.0011270" lon="5.6394420">
        <ele>1080.3</ele>
        <time>2022-07-25T15:21:23Z</time>
      </trkpt>
      <trkpt lat="46.0011180" lon="5.6394430">
        <ele>1080.4</ele>
        <time>2022-07-25T15:21:24Z</time>
      </trkpt>
      <trkpt lat="46.0011120" lon="5.6394450">
        <ele>1080.5</ele>
        <time>2022-07-25T15:21:25Z</time>
      </trkpt>
      <trkpt lat="46.0011040" lon="5.6394470">
        <ele>1080.6</ele>
        <time>2022-07-25T15:21:26Z</time>
      </trkpt>
      <trkpt lat="46.0010850" lon="5.6394540">
        <ele>1080.8</ele>
        <time>2022-07-25T15:21:27Z</time>
      </trkpt>
      <trkpt lat="46.0010760" lon="5.6394560">
        <ele>1080.9</ele>
        <time>2022-07-25T15:21:29Z</time>
      </trkpt>
      <trkpt lat="46.0010670" lon="5.6394570">
        <ele>1081.0</ele>
        <time>2022-07-25T15:21:30Z</time>
      </trkpt>
      <trkpt lat="46.0010490" lon="5.6394580">
        <ele>1081.3</ele>
        <time>2022-07-25T15:21:31Z</time>
      </trkpt>
      <trkpt lat="46.0010350" lon="5.6394660">
        <ele>1081.4</ele>
        <time>2022-07-25T15:21:33Z</time>
      </trkpt>
      <trkpt lat="46.0010250" lon="5.6394720">
        <ele>1081.6</ele>
        <time>2022-07-25T15:21:34Z</time>
      </trkpt>
      <trkpt lat="46.0010150" lon="5.6394780">
        <ele>1081.7</ele>
        <time>2022-07-25T15:21:35Z</time>
      </trkpt>
      <trkpt lat="46.0010050" lon="5.6394840">
        <ele>1081.8</ele>
        <time>2022-07-25T15:21:36Z</time>
      </trkpt>
      <trkpt lat="46.0009860" lon="5.6394900">
        <ele>1082.0</ele>
        <time>2022-07-25T15:21:37Z</time>
      </trkpt>
      <trkpt lat="46.0009760" lon="5.6394910">
        <ele>1082.1</ele>
        <time>2022-07-25T15:21:38Z</time>
      </trkpt>
      <trkpt lat="46.0009660" lon="5.6394920">
        <ele>1082.2</ele>
        <time>2022-07-25T15:21:39Z</time>
      </trkpt>
      <trkpt lat="46.0009370" lon="5.6394990">
        <ele>1082.6</ele>
        <time>2022-07-25T15:21:40Z</time>
      </trkpt>
      <trkpt lat="46.0009270" lon="5.6395010">
        <ele>1082.7</ele>
        <time>2022-07-25T15:21:41Z</time>
      </trkpt>
      <trkpt lat="46.0009000" lon="5.6395020">
        <ele>1082.9</ele>
        <time>2022-07-25T15:21:43Z</time>
      </trkpt>
      <trkpt lat="46.0008830" lon="5.6395030">
        <ele>1083.1</ele>
        <time>2022-07-25T15:21:44Z</time>
      </trkpt>
      <trkpt lat="46.0008660" lon="5.6395010">
        <ele>1083.3</ele>
        <time>2022-07-25T15:21:45Z</time>
      </trkpt>
      <trkpt lat="46.0008370" lon="5.6394980">
        <ele>1083.6</ele>
        <time>2022-07-25T15:21:46Z</time>
      </trkpt>
      <trkpt lat="46.0008250" lon="5.6394970">
        <ele>1083.8</ele>
        <time>2022-07-25T15:21:47Z</time>
      </trkpt>
      <trkpt lat="46.0008070" lon="5.6394930">
        <ele>1084.0</ele>
        <time>2022-07-25T15:21:48Z</time>
      </trkpt>
      <trkpt lat="46.0007960" lon="5.6394870">
        <ele>1084.1</ele>
        <time>2022-07-25T15:21:49Z</time>
      </trkpt>
      <trkpt lat="46.0007790" lon="5.6394800">
        <ele>1084.4</ele>
        <time>2022-07-25T15:21:51Z</time>
      </trkpt>
      <trkpt lat="46.0007630" lon="5.6394770">
        <ele>1084.6</ele>
        <time>2022-07-25T15:21:52Z</time>
      </trkpt>
      <trkpt lat="46.0007400" lon="5.6394800">
        <ele>1084.9</ele>
        <time>2022-07-25T15:21:53Z</time>
      </trkpt>
      <trkpt lat="46.0007310" lon="5.6394810">
        <ele>1085.0</ele>
        <time>2022-07-25T15:21:54Z</time>
      </trkpt>
      <trkpt lat="46.0007210" lon="5.6394830">
        <ele>1085.2</ele>
        <time>2022-07-25T15:21:55Z</time>
      </trkpt>
      <trkpt lat="46.0007000" lon="5.6394860">
        <ele>1085.5</ele>
        <time>2022-07-25T15:21:57Z</time>
      </trkpt>
      <trkpt lat="46.0006880" lon="5.6394930">
        <ele>1085.7</ele>
        <time>2022-07-25T15:21:58Z</time>
      </trkpt>
      <trkpt lat="46.0006800" lon="5.6395030">
        <ele>1085.9</ele>
        <time>2022-07-25T15:21:59Z</time>
      </trkpt>
      <trkpt lat="46.0006690" lon="5.6395050">
        <ele>1086.0</ele>
        <time>2022-07-25T15:22:00Z</time>
      </trkpt>
      <trkpt lat="46.0006570" lon="5.6395070">
        <ele>1086.2</ele>
        <time>2022-07-25T15:22:01Z</time>
      </trkpt>
      <trkpt lat="46.0006370" lon="5.6395120">
        <ele>1086.6</ele>
        <time>2022-07-25T15:22:03Z</time>
      </trkpt>
      <trkpt lat="46.0006260" lon="5.6395180">
        <ele>1086.8</ele>
        <time>2022-07-25T15:22:04Z</time>
      </trkpt>
      <trkpt lat="46.0006170" lon="5.6395220">
        <ele>1086.9</ele>
        <time>2022-07-25T15:22:05Z</time>
      </trkpt>
      <trkpt lat="46.0006010" lon="5.6395280">
        <ele>1087.2</ele>
        <time>2022-07-25T15:22:06Z</time>
      </trkpt>
      <trkpt lat="46.0005830" lon="5.6395370">
        <ele>1087.5</ele>
        <time>2022-07-25T15:22:08Z</time>
      </trkpt>
      <trkpt lat="46.0005740" lon="5.6395410">
        <ele>1087.6</ele>
        <time>2022-07-25T15:22:09Z</time>
      </trkpt>
      <trkpt lat="46.0005680" lon="5.6395420">
        <ele>1087.7</ele>
        <time>2022-07-25T15:22:10Z</time>
      </trkpt>
      <trkpt lat="46.0005320" lon="5.6395500">
        <ele>1088.3</ele>
        <time>2022-07-25T15:22:12Z</time>
      </trkpt>
      <trkpt lat="46.0005190" lon="5.6395490">
        <ele>1088.4</ele>
        <time>2022-07-25T15:22:13Z</time>
      </trkpt>
      <trkpt lat="46.0005040" lon="5.6395410">
        <ele>1088.6</ele>
        <time>2022-07-25T15:22:14Z</time>
      </trkpt>
      <trkpt lat="46.0004750" lon="5.6395400">
        <ele>1089.0</ele>
        <time>2022-07-25T15:22:15Z</time>
      </trkpt>
      <trkpt lat="46.0004660" lon="5.6395400">
        <ele>1089.1</ele>
        <time>2022-07-25T15:22:16Z</time>
      </trkpt>
      <trkpt lat="46.0004500" lon="5.6395390">
        <ele>1089.3</ele>
        <time>2022-07-25T15:22:17Z</time>
      </trkpt>
      <trkpt lat="46.0004340" lon="5.6395340">
        <ele>1089.4</ele>
        <time>2022-07-25T15:22:18Z</time>
      </trkpt>
      <trkpt lat="46.0004190" lon="5.6395270">
        <ele>1089.6</ele>
        <time>2022-07-25T15:22:19Z</time>
      </trkpt>
      <trkpt lat="46.0004100" lon="5.6395100">
        <ele>1089.7</ele>
        <time>2022-07-25T15:22:20Z</time>
      </trkpt>
      <trkpt lat="46.0004030" lon="5.6395060">
        <ele>1089.7</ele>
        <time>2022-07-25T15:22:21Z</time>
      </trkpt>
      <trkpt lat="46.0003990" lon="5.6395090">
        <ele>1089.8</ele>
        <time>2022-07-25T15:22:22Z</time>
      </trkpt>
      <trkpt lat="46.0003950" lon="5.6395130">
        <ele>1089.8</ele>
        <time>2022-07-25T15:22:23Z</time>
      </trkpt>
      <trkpt lat="46.0003910" lon="5.6395160">
        <ele>1089.8</ele>
        <time>2022-07-25T15:22:24Z</time>
      </trkpt>
      <trkpt lat="46.0003870" lon="5.6395190">
        <ele>1089.9</ele>
        <time>2022-07-25T15:22:25Z</time>
      </trkpt>
      <trkpt lat="46.0003830" lon="5.6395230">
        <ele>1089.9</ele>
        <time>2022-07-25T15:22:26Z</time>
      </trkpt>
      <trkpt lat="46.0003790" lon="5.6395260">
        <ele>1089.9</ele>
        <time>2022-07-25T15:22:27Z</time>
      </trkpt>
      <trkpt lat="46.0003740" lon="5.6395290">
        <ele>1090.0</ele>
        <time>2022-07-25T15:22:28Z</time>
      </trkpt>
      <trkpt lat="46.0003700" lon="5.6395330">
        <ele>1090.0</ele>
        <time>2022-07-25T15:22:29Z</time>
      </trkpt>
      <trkpt lat="46.0003660" lon="5.6395360">
        <ele>1090.0</ele>
        <time>2022-07-25T15:22:30Z</time>
      </trkpt>
      <trkpt lat="46.0003620" lon="5.6395400">
        <ele>1090.0</ele>
        <time>2022-07-25T15:22:31Z</time>
      </trkpt>
      <trkpt lat="46.0003580" lon="5.6395430">
        <ele>1090.1</ele>
        <time>2022-07-25T15:23:21Z</time>
      </trkpt>
      <trkpt lat="46.0003540" lon="5.6395460">
        <ele>1090.1</ele>
        <time>2022-07-25T15:23:22Z</time>
      </trkpt>
      <trkpt lat="46.0003500" lon="5.6395500">
        <ele>1090.1</ele>
        <time>2022-07-25T15:23:23Z</time>
      </trkpt>
      <trkpt lat="46.0003410" lon="5.6395520">
        <ele>1090.2</ele>
        <time>2022-07-25T15:23:24Z</time>
      </trkpt>
      <trkpt lat="46.0003350" lon="5.6395520">
        <ele>1090.2</ele>
        <time>2022-07-25T15:23:25Z</time>
      </trkpt>
      <trkpt lat="46.0003230" lon="5.6395530">
        <ele>1090.2</ele>
        <time>2022-07-25T15:23:26Z</time>
      </trkpt>
      <trkpt lat="46.0003140" lon="5.6395550">
        <ele>1090.2</ele>
        <time>2022-07-25T15:23:27Z</time>
      </trkpt>
      <trkpt lat="46.0003030" lon="5.6395610">
        <ele>1090.3</ele>
        <time>2022-07-25T15:23:28Z</time>
      </trkpt>
      <trkpt lat="46.0003000" lon="5.6395630">
        <ele>1090.3</ele>
        <time>2022-07-25T15:23:29Z</time>
      </trkpt>
      <trkpt lat="46.0003020" lon="5.6395640">
        <ele>1090.3</ele>
        <time>2022-07-25T15:23:30Z</time>
      </trkpt>
      <trkpt lat="46.0003060" lon="5.6395620">
        <ele>1090.3</ele>
        <time>2022-07-25T15:23:31Z</time>
      </trkpt>
      <trkpt lat="46.0003120" lon="5.6395610">
        <ele>1090.3</ele>
        <time>2022-07-25T15:23:32Z</time>
      </trkpt>
      <trkpt lat="46.0003170" lon="5.6395600">
        <ele>1090.3</ele>
        <time>2022-07-25T15:23:33Z</time>
      </trkpt>
      <trkpt lat="46.0003210" lon="5.6395600">
        <ele>1090.3</ele>
        <time>2022-07-25T15:23:34Z</time>
      </trkpt>
      <trkpt lat="46.0003220" lon="5.6395610">
        <ele>1090.3</ele>
        <time>2022-07-25T15:23:35Z</time>
      </trkpt>
      <trkpt lat="46.0003230" lon="5.6395620">
        <ele>1090.3</ele>
        <time>2022-07-25T15:23:36Z</time>
      </trkpt>
      <trkpt lat="46.0003230" lon="5.6395620">
        <ele>1090.3</ele>
        <time>2022-07-25T15:23:37Z</time>
      </trkpt>
      <trkpt lat="46.0003240" lon="5.6395620">
        <ele>1090.3</ele>
        <time>2022-07-25T15:23:38Z</time>
      </trkpt>
      <trkpt lat="46.0003240" lon="5.6395620">
        <ele>1090.3</ele>
        <time>2022-07-25T15:23:39Z</time>
      </trkpt>
      <trkpt lat="46.0003300" lon="5.6395590">
        <ele>1090.3</ele>
        <time>2022-07-25T15:23:40Z</time>
      </trkpt>
      <trkpt lat="46.0003370" lon="5.6395540">
        <ele>1090.3</ele>
        <time>2022-07-25T15:23:41Z</time>
      </trkpt>
      <trkpt lat="46.0003430" lon="5.6395500">
        <ele>1090.3</ele>
        <time>2022-07-25T15:23:42Z</time>
      </trkpt>
      <trkpt lat="46.0003510" lon="5.6395450">
        <ele>1090.3</ele>
        <time>2022-07-25T15:23:43Z</time>
      </trkpt>
      <trkpt lat="46.0003630" lon="5.6395370">
        <ele>1090.3</ele>
        <time>2022-07-25T15:23:44Z</time>
      </trkpt>
      <trkpt lat="46.0003710" lon="5.6395320">
        <ele>1090.2</ele>
        <time>2022-07-25T15:23:45Z</time>
      </trkpt>
      <trkpt lat="46.0003770" lon="5.6395280">
        <ele>1090.2</ele>
        <time>2022-07-25T15:23:46Z</time>
      </trkpt>
      <trkpt lat="46.0003750" lon="5.6395280">
        <ele>1090.2</ele>
        <time>2022-07-25T15:23:47Z</time>
      </trkpt>
      <trkpt lat="46.0003700" lon="5.6395290">
        <ele>1090.2</ele>
        <time>2022-07-25T15:23:48Z</time>
      </trkpt>
      <trkpt lat="46.0003650" lon="5.6395300">
        <ele>1090.2</ele>
        <time>2022-07-25T15:23:49Z</time>
      </trkpt>
      <trkpt lat="46.0003600" lon="5.6395310">
        <ele>1090.2</ele>
        <time>2022-07-25T15:23:50Z</time>
      </trkpt>
      <trkpt lat="46.0003550" lon="5.6395320">
        <ele>1090.2</ele>
        <time>2022-07-25T15:23:51Z</time>
      </trkpt>
      <trkpt lat="46.0003500" lon="5.6395330">
        <ele>1090.2</ele>
        <time>2022-07-25T15:23:52Z</time>
      </trkpt>
      <trkpt lat="46.0003460" lon="5.6395340">
        <ele>1090.1</ele>
        <time>2022-07-25T15:23:53Z</time>
      </trkpt>
      <trkpt lat="46.0003410" lon="5.6395350">
        <ele>1090.1</ele>
        <time>2022-07-25T15:23:54Z</time>
      </trkpt>
      <trkpt lat="46.0003360" lon="5.6395360">
        <ele>1090.1</ele>
        <time>2022-07-25T15:23:55Z</time>
      </trkpt>
      <trkpt lat="46.0002920" lon="5.6395260">
        <ele>1089.9</ele>
        <time>2022-07-25T15:23:56Z</time>
      </trkpt>
      <trkpt lat="46.0002740" lon="5.6395190">
        <ele>1089.8</ele>
        <time>2022-07-25T15:23:57Z</time>
      </trkpt>
      <trkpt lat="46.0002390" lon="5.6395010">
        <ele>1089.6</ele>
        <time>2022-07-25T15:23:58Z</time>
      </trkpt>
      <trkpt lat="46.0002060" lon="5.6395090">
        <ele>1089.5</ele>
        <time>2022-07-25T15:23:59Z</time>
      </trkpt>
      <trkpt lat="46.0001440" lon="5.6394530">
        <ele>1089.1</ele>
        <time>2022-07-25T15:24:00Z</time>
      </trkpt>
      <trkpt lat="46.0001040" lon="5.6394260">
        <ele>1089.0</ele>
        <time>2022-07-25T15:24:01Z</time>
      </trkpt>
      <trkpt lat="46.0000810" lon="5.6393740">
        <ele>1088.8</ele>
        <time>2022-07-25T15:24:02Z</time>
      </trkpt>
      <trkpt lat="46.0000470" lon="5.6393290">
        <ele>1088.7</ele>
        <time>2022-07-25T15:24:03Z</time>
      </trkpt>
      <trkpt lat="46.0000020" lon="5.6392730">
        <ele>1088.7</ele>
        <time>2022-07-25T15:24:05Z</time>
      </trkpt>
      <trkpt lat="45.9999790" lon="5.6392240">
        <ele>1088.7</ele>
        <time>2022-07-25T15:24:06Z</time>
      </trkpt>
      <trkpt lat="45.9999790" lon="5.6391630">
        <ele>1088.8</ele>
        <time>2022-07-25T15:24:07Z</time>
      </trkpt>
      <trkpt lat="45.9999700" lon="5.6391080">
        <ele>1088.9</ele>
        <time>2022-07-25T15:24:08Z</time>
      </trkpt>
      <trkpt lat="45.9999480" lon="5.6390770">
        <ele>1089.0</ele>
        <time>2022-07-25T15:24:09Z</time>
      </trkpt>
      <trkpt lat="45.9999230" lon="5.6390260">
        <ele>1089.3</ele>
        <time>2022-07-25T15:24:10Z</time>
      </trkpt>
      <trkpt lat="45.9999090" lon="5.6389820">
        <ele>1089.6</ele>
        <time>2022-07-25T15:24:12Z</time>
      </trkpt>
      <trkpt lat="45.9999060" lon="5.6389720">
        <ele>1089.6</ele>
        <time>2022-07-25T15:24:13Z</time>
      </trkpt>
      <trkpt lat="45.9998890" lon="5.6389490">
        <ele>1089.9</ele>
        <time>2022-07-25T15:24:14Z</time>
      </trkpt>
      <trkpt lat="45.9998850" lon="5.6389190">
        <ele>1090.1</ele>
        <time>2022-07-25T15:24:16Z</time>
      </trkpt>
      <trkpt lat="45.9998820" lon="5.6388990">
        <ele>1090.3</ele>
        <time>2022-07-25T15:24:17Z</time>
      </trkpt>
      <trkpt lat="45.9998780" lon="5.6388690">
        <ele>1090.5</ele>
        <time>2022-07-25T15:24:18Z</time>
      </trkpt>
      <trkpt lat="45.9998780" lon="5.6388470">
        <ele>1090.7</ele>
        <time>2022-07-25T15:24:19Z</time>
      </trkpt>
      <trkpt lat="45.9998750" lon="5.6388150">
        <ele>1091.0</ele>
        <time>2022-07-25T15:24:21Z</time>
      </trkpt>
      <trkpt lat="45.9998710" lon="5.6387890">
        <ele>1091.3</ele>
        <time>2022-07-25T15:24:22Z</time>
      </trkpt>
      <trkpt lat="45.9998670" lon="5.6387680">
        <ele>1091.5</ele>
        <time>2022-07-25T15:24:23Z</time>
      </trkpt>
      <trkpt lat="45.9998580" lon="5.6387550">
        <ele>1091.7</ele>
        <time>2022-07-25T15:24:25Z</time>
      </trkpt>
      <trkpt lat="45.9998560" lon="5.6387520">
        <ele>1091.8</ele>
        <time>2022-07-25T15:24:26Z</time>
      </trkpt>
      <trkpt lat="45.9998540" lon="5.6387530">
        <ele>1091.8</ele>
        <time>2022-07-25T15:24:27Z</time>
      </trkpt>
      <trkpt lat="45.9998520" lon="5.6387540">
        <ele>1091.9</ele>
        <time>2022-07-25T15:24:28Z</time>
      </trkpt>
      <trkpt lat="45.9998520" lon="5.6387580">
        <ele>1091.9</ele>
        <time>2022-07-25T15:24:29Z</time>
      </trkpt>
      <trkpt lat="45.9998510" lon="5.6387610">
        <ele>1091.9</ele>
        <time>2022-07-25T15:24:30Z</time>
      </trkpt>
      <trkpt lat="45.9998510" lon="5.6387640">
        <ele>1092.0</ele>
        <time>2022-07-25T15:24:31Z</time>
      </trkpt>
      <trkpt lat="45.9998520" lon="5.6387680">
        <ele>1092.0</ele>
        <time>2022-07-25T15:24:32Z</time>
      </trkpt>
      <trkpt lat="45.9998540" lon="5.6387690">
        <ele>1092.1</ele>
        <time>2022-07-25T15:24:33Z</time>
      </trkpt>
      <trkpt lat="45.9998550" lon="5.6387690">
        <ele>1092.1</ele>
        <time>2022-07-25T15:24:34Z</time>
      </trkpt>
      <trkpt lat="45.9998570" lon="5.6387690">
        <ele>1092.1</ele>
        <time>2022-07-25T15:24:35Z</time>
      </trkpt>
      <trkpt lat="45.9998580" lon="5.6387680">
        <ele>1092.1</ele>
        <time>2022-07-25T15:24:36Z</time>
      </trkpt>
      <trkpt lat="45.9998600" lon="5.6387630">
        <ele>1092.2</ele>
        <time>2022-07-25T15:24:38Z</time>
      </trkpt>
      <trkpt lat="45.9998590" lon="5.6387590">
        <ele>1092.2</ele>
        <time>2022-07-25T15:24:39Z</time>
      </trkpt>
      <trkpt lat="45.9998580" lon="5.6387540">
        <ele>1092.3</ele>
        <time>2022-07-25T15:24:40Z</time>
      </trkpt>
      <trkpt lat="45.9998590" lon="5.6387520">
        <ele>1092.3</ele>
        <time>2022-07-25T15:24:41Z</time>
      </trkpt>
      <trkpt lat="45.9998580" lon="5.6387460">
        <ele>1092.4</ele>
        <time>2022-07-25T15:24:42Z</time>
      </trkpt>
      <trkpt lat="45.9998580" lon="5.6387370">
        <ele>1092.5</ele>
        <time>2022-07-25T15:24:44Z</time>
      </trkpt>
      <trkpt lat="45.9998600" lon="5.6387250">
        <ele>1092.6</ele>
        <time>2022-07-25T15:24:45Z</time>
      </trkpt>
      <trkpt lat="45.9998610" lon="5.6387120">
        <ele>1092.8</ele>
        <time>2022-07-25T15:24:46Z</time>
      </trkpt>
      <trkpt lat="45.9998610" lon="5.6387020">
        <ele>1092.9</ele>
        <time>2022-07-25T15:24:47Z</time>
      </trkpt>
      <trkpt lat="45.9998620" lon="5.6386890">
        <ele>1093.0</ele>
        <time>2022-07-25T15:24:48Z</time>
      </trkpt>
      <trkpt lat="45.9998630" lon="5.6386750">
        <ele>1093.2</ele>
        <time>2022-07-25T15:24:49Z</time>
      </trkpt>
      <trkpt lat="45.9998630" lon="5.6386610">
        <ele>1093.4</ele>
        <time>2022-07-25T15:24:50Z</time>
      </trkpt>
      <trkpt lat="45.9998630" lon="5.6386510">
        <ele>1093.5</ele>
        <time>2022-07-25T15:24:51Z</time>
      </trkpt>
      <trkpt lat="45.9998630" lon="5.6386420">
        <ele>1093.6</ele>
        <time>2022-07-25T15:24:52Z</time>
      </trkpt>
      <trkpt lat="45.9998640" lon="5.6386320">
        <ele>1093.7</ele>
        <time>2022-07-25T15:24:53Z</time>
      </trkpt>
      <trkpt lat="45.9998670" lon="5.6386210">
        <ele>1093.9</ele>
        <time>2022-07-25T15:24:54Z</time>
      </trkpt>
      <trkpt lat="45.9998690" lon="5.6386120">
        <ele>1094.0</ele>
        <time>2022-07-25T15:24:55Z</time>
      </trkpt>
      <trkpt lat="45.9998700" lon="5.6386020">
        <ele>1094.1</ele>
        <time>2022-07-25T15:24:57Z</time>
      </trkpt>
      <trkpt lat="45.9998670" lon="5.6385900">
        <ele>1094.2</ele>
        <time>2022-07-25T15:24:58Z</time>
      </trkpt>
      <trkpt lat="45.9998640" lon="5.6385800">
        <ele>1094.4</ele>
        <time>2022-07-25T15:24:59Z</time>
      </trkpt>
      <trkpt lat="45.9998590" lon="5.6385740">
        <ele>1094.5</ele>
        <time>2022-07-25T15:25:00Z</time>
      </trkpt>
      <trkpt lat="45.9998450" lon="5.6385640">
        <ele>1094.8</ele>
        <time>2022-07-25T15:25:01Z</time>
      </trkpt>
      <trkpt lat="45.9998360" lon="5.6385590">
        <ele>1094.9</ele>
        <time>2022-07-25T15:25:02Z</time>
      </trkpt>
      <trkpt lat="45.9998280" lon="5.6385510">
        <ele>1095.1</ele>
        <time>2022-07-25T15:25:04Z</time>
      </trkpt>
      <trkpt lat="45.9998220" lon="5.6385430">
        <ele>1095.2</ele>
        <time>2022-07-25T15:25:05Z</time>
      </trkpt>
      <trkpt lat="45.9998170" lon="5.6385340">
        <ele>1095.4</ele>
        <time>2022-07-25T15:25:06Z</time>
      </trkpt>
      <trkpt lat="45.9998100" lon="5.6385240">
        <ele>1095.5</ele>
        <time>2022-07-25T15:25:07Z</time>
      </trkpt>
      <trkpt lat="45.9998040" lon="5.6385170">
        <ele>1095.7</ele>
        <time>2022-07-25T15:25:08Z</time>
      </trkpt>
      <trkpt lat="45.9997910" lon="5.6385030">
        <ele>1096.0</ele>
        <time>2022-07-25T15:25:10Z</time>
      </trkpt>
      <trkpt lat="45.9997820" lon="5.6384910">
        <ele>1096.2</ele>
        <time>2022-07-25T15:25:11Z</time>
      </trkpt>
      <trkpt lat="45.9997740" lon="5.6384800">
        <ele>1096.3</ele>
        <time>2022-07-25T15:25:12Z</time>
      </trkpt>
      <trkpt lat="45.9997700" lon="5.6384710">
        <ele>1096.5</ele>
        <time>2022-07-25T15:25:13Z</time>
      </trkpt>
      <trkpt lat="45.9997680" lon="5.6384620">
        <ele>1096.6</ele>
        <time>2022-07-25T15:25:15Z</time>
      </trkpt>
      <trkpt lat="45.9997620" lon="5.6384500">
        <ele>1098.1</ele>
        <time>2022-07-25T15:25:16Z</time>
      </trkpt>
      <trkpt lat="45.9997600" lon="5.6384410">
        <ele>1098.1</ele>
        <time>2022-07-25T15:25:17Z</time>
      </trkpt>
      <trkpt lat="45.9997590" lon="5.6384290">
        <ele>1098.1</ele>
        <time>2022-07-25T15:25:18Z</time>
      </trkpt>
      <trkpt lat="45.9997520" lon="5.6384080">
        <ele>1098.1</ele>
        <time>2022-07-25T15:25:20Z</time>
      </trkpt>
      <trkpt lat="45.9997490" lon="5.6384010">
        <ele>1098.1</ele>
        <time>2022-07-25T15:25:21Z</time>
      </trkpt>
      <trkpt lat="45.9997480" lon="5.6383950">
        <ele>1098.1</ele>
        <time>2022-07-25T15:25:22Z</time>
      </trkpt>
      <trkpt lat="45.9997460" lon="5.6383910">
        <ele>1098.1</ele>
        <time>2022-07-25T15:25:23Z</time>
      </trkpt>
      <trkpt lat="45.9997420" lon="5.6383890">
        <ele>1098.1</ele>
        <time>2022-07-25T15:25:24Z</time>
      </trkpt>
      <trkpt lat="45.9997350" lon="5.6383860">
        <ele>1098.1</ele>
        <time>2022-07-25T15:25:26Z</time>
      </trkpt>
      <trkpt lat="45.9997310" lon="5.6383880">
        <ele>1098.1</ele>
        <time>2022-07-25T15:25:27Z</time>
      </trkpt>
      <trkpt lat="45.9997250" lon="5.6383890">
        <ele>1098.1</ele>
        <time>2022-07-25T15:25:28Z</time>
      </trkpt>
      <trkpt lat="45.9997240" lon="5.6383920">
        <ele>1098.1</ele>
        <time>2022-07-25T15:25:29Z</time>
      </trkpt>
      <trkpt lat="45.9997220" lon="5.6383930">
        <ele>1098.1</ele>
        <time>2022-07-25T15:25:30Z</time>
      </trkpt>
      <trkpt lat="45.9997200" lon="5.6383940">
        <ele>1098.1</ele>
        <time>2022-07-25T15:25:31Z</time>
      </trkpt>
      <trkpt lat="45.9997170" lon="5.6383940">
        <ele>1098.1</ele>
        <time>2022-07-25T15:25:32Z</time>
      </trkpt>
      <trkpt lat="45.9997140" lon="5.6383930">
        <ele>1098.1</ele>
        <time>2022-07-25T15:25:33Z</time>
      </trkpt>
      <trkpt lat="45.9997070" lon="5.6383870">
        <ele>1098.1</ele>
        <time>2022-07-25T15:25:34Z</time>
      </trkpt>
      <trkpt lat="45.9996990" lon="5.6383760">
        <ele>1098.1</ele>
        <time>2022-07-25T15:25:35Z</time>
      </trkpt>
      <trkpt lat="45.9996920" lon="5.6383640">
        <ele>1101.0</ele>
        <time>2022-07-25T15:25:36Z</time>
      </trkpt>
      <trkpt lat="45.9996740" lon="5.6383160">
        <ele>1100.8</ele>
        <time>2022-07-25T15:25:38Z</time>
      </trkpt>
      <trkpt lat="45.9996690" lon="5.6382970">
        <ele>1100.7</ele>
        <time>2022-07-25T15:25:39Z</time>
      </trkpt>
      <trkpt lat="45.9996430" lon="5.6382460">
        <ele>1100.5</ele>
        <time>2022-07-25T15:25:40Z</time>
      </trkpt>
      <trkpt lat="45.9996130" lon="5.6382020">
        <ele>1100.2</ele>
        <time>2022-07-25T15:25:42Z</time>
      </trkpt>
      <trkpt lat="45.9996030" lon="5.6381880">
        <ele>1100.1</ele>
        <time>2022-07-25T15:25:43Z</time>
      </trkpt>
      <trkpt lat="45.9995980" lon="5.6381690">
        <ele>1100.0</ele>
        <time>2022-07-25T15:25:44Z</time>
      </trkpt>
      <trkpt lat="45.9995990" lon="5.6381550">
        <ele>1099.9</ele>
        <time>2022-07-25T15:25:45Z</time>
      </trkpt>
      <trkpt lat="45.9996000" lon="5.6381510">
        <ele>1099.9</ele>
        <time>2022-07-25T15:25:46Z</time>
      </trkpt>
      <trkpt lat="45.9996010" lon="5.6381480">
        <ele>1099.9</ele>
        <time>2022-07-25T15:25:47Z</time>
      </trkpt>
      <trkpt lat="45.9996030" lon="5.6381440">
        <ele>1099.8</ele>
        <time>2022-07-25T15:25:48Z</time>
      </trkpt>
      <trkpt lat="45.9996040" lon="5.6381410">
        <ele>1099.8</ele>
        <time>2022-07-25T15:25:49Z</time>
      </trkpt>
      <trkpt lat="45.9996050" lon="5.6381380">
        <ele>1099.8</ele>
        <time>2022-07-25T15:25:50Z</time>
      </trkpt>
      <trkpt lat="45.9996060" lon="5.6381350">
        <ele>1099.8</ele>
        <time>2022-07-25T15:25:51Z</time>
      </trkpt>
      <trkpt lat="45.9996070" lon="5.6381320">
        <ele>1099.8</ele>
        <time>2022-07-25T15:25:52Z</time>
      </trkpt>
      <trkpt lat="45.9996080" lon="5.6381290">
        <ele>1099.8</ele>
        <time>2022-07-25T15:25:53Z</time>
      </trkpt>
      <trkpt lat="45.9996230" lon="5.6380790">
        <ele>1099.5</ele>
        <time>2022-07-25T15:25:58Z</time>
      </trkpt>
      <trkpt lat="45.9996320" lon="5.6380410">
        <ele>1099.3</ele>
        <time>2022-07-25T15:26:00Z</time>
      </trkpt>
      <trkpt lat="45.9996420" lon="5.6379900">
        <ele>1099.0</ele>
        <time>2022-07-25T15:26:01Z</time>
      </trkpt>
      <trkpt lat="45.9996540" lon="5.6379330">
        <ele>1098.8</ele>
        <time>2022-07-25T15:26:02Z</time>
      </trkpt>
      <trkpt lat="45.9996650" lon="5.6378830">
        <ele>1098.5</ele>
        <time>2022-07-25T15:26:04Z</time>
      </trkpt>
      <trkpt lat="45.9996680" lon="5.6378640">
        <ele>1098.4</ele>
        <time>2022-07-25T15:26:05Z</time>
      </trkpt>
      <trkpt lat="45.9996760" lon="5.6378170">
        <ele>1098.2</ele>
        <time>2022-07-25T15:26:06Z</time>
      </trkpt>
      <trkpt lat="45.9996780" lon="5.6378030">
        <ele>1098.2</ele>
        <time>2022-07-25T15:26:07Z</time>
      </trkpt>
      <trkpt lat="45.9996830" lon="5.6377530">
        <ele>1097.9</ele>
        <time>2022-07-25T15:26:08Z</time>
      </trkpt>
      <trkpt lat="45.9996820" lon="5.6377150">
        <ele>1097.8</ele>
        <time>2022-07-25T15:26:09Z</time>
      </trkpt>
      <trkpt lat="45.9996780" lon="5.6376640">
        <ele>1097.6</ele>
        <time>2022-07-25T15:26:11Z</time>
      </trkpt>
      <trkpt lat="45.9996610" lon="5.6376150">
        <ele>1097.4</ele>
        <time>2022-07-25T15:26:12Z</time>
      </trkpt>
      <trkpt lat="45.9996510" lon="5.6376010">
        <ele>1097.4</ele>
        <time>2022-07-25T15:26:13Z</time>
      </trkpt>
      <trkpt lat="45.9996270" lon="5.6375550">
        <ele>1097.5</ele>
        <time>2022-07-25T15:26:14Z</time>
      </trkpt>
      <trkpt lat="45.9996200" lon="5.6375350">
        <ele>1097.5</ele>
        <time>2022-07-25T15:26:15Z</time>
      </trkpt>
      <trkpt lat="45.9996090" lon="5.6374990">
        <ele>1097.5</ele>
        <time>2022-07-25T15:26:16Z</time>
      </trkpt>
      <trkpt lat="45.9995970" lon="5.6374620">
        <ele>1097.6</ele>
        <time>2022-07-25T15:26:18Z</time>
      </trkpt>
      <trkpt lat="45.9995850" lon="5.6374270">
        <ele>1097.7</ele>
        <time>2022-07-25T15:26:19Z</time>
      </trkpt>
      <trkpt lat="45.9995700" lon="5.6373920">
        <ele>1097.7</ele>
        <time>2022-07-25T15:26:20Z</time>
      </trkpt>
      <trkpt lat="45.9995660" lon="5.6373770">
        <ele>1097.8</ele>
        <time>2022-07-25T15:26:21Z</time>
      </trkpt>
      <trkpt lat="45.9995610" lon="5.6373460">
        <ele>1097.8</ele>
        <time>2022-07-25T15:26:22Z</time>
      </trkpt>
      <trkpt lat="45.9995520" lon="5.6373130">
        <ele>1097.9</ele>
        <time>2022-07-25T15:26:24Z</time>
      </trkpt>
      <trkpt lat="45.9995470" lon="5.6372920">
        <ele>1098.0</ele>
        <time>2022-07-25T15:26:25Z</time>
      </trkpt>
      <trkpt lat="45.9995360" lon="5.6372710">
        <ele>1098.0</ele>
        <time>2022-07-25T15:26:26Z</time>
      </trkpt>
      <trkpt lat="45.9995270" lon="5.6372530">
        <ele>1098.1</ele>
        <time>2022-07-25T15:26:27Z</time>
      </trkpt>
      <trkpt lat="45.9995200" lon="5.6372320">
        <ele>1098.1</ele>
        <time>2022-07-25T15:26:28Z</time>
      </trkpt>
      <trkpt lat="45.9995130" lon="5.6371760">
        <ele>1098.3</ele>
        <time>2022-07-25T15:26:30Z</time>
      </trkpt>
      <trkpt lat="45.9995130" lon="5.6371620">
        <ele>1098.3</ele>
        <time>2022-07-25T15:26:31Z</time>
      </trkpt>
      <trkpt lat="45.9995130" lon="5.6371480">
        <ele>1098.3</ele>
        <time>2022-07-25T15:26:32Z</time>
      </trkpt>
      <trkpt lat="45.9995140" lon="5.6371350">
        <ele>1098.3</ele>
        <time>2022-07-25T15:26:33Z</time>
      </trkpt>
      <trkpt lat="45.9995130" lon="5.6371160">
        <ele>1098.4</ele>
        <time>2022-07-25T15:26:34Z</time>
      </trkpt>
      <trkpt lat="45.9995170" lon="5.6370780">
        <ele>1098.5</ele>
        <time>2022-07-25T15:26:36Z</time>
      </trkpt>
      <trkpt lat="45.9995120" lon="5.6370280">
        <ele>1098.6</ele>
        <time>2022-07-25T15:26:37Z</time>
      </trkpt>
      <trkpt lat="45.9995100" lon="5.6370060">
        <ele>1098.6</ele>
        <time>2022-07-25T15:26:38Z</time>
      </trkpt>
      <trkpt lat="45.9995080" lon="5.6369740">
        <ele>1098.7</ele>
        <time>2022-07-25T15:26:39Z</time>
      </trkpt>
      <trkpt lat="45.9995030" lon="5.6369420">
        <ele>1098.7</ele>
        <time>2022-07-25T15:26:41Z</time>
      </trkpt>
      <trkpt lat="45.9995000" lon="5.6369130">
        <ele>1098.8</ele>
        <time>2022-07-25T15:26:42Z</time>
      </trkpt>
      <trkpt lat="45.9994980" lon="5.6368960">
        <ele>1098.8</ele>
        <time>2022-07-25T15:26:43Z</time>
      </trkpt>
      <trkpt lat="45.9995020" lon="5.6368550">
        <ele>1098.9</ele>
        <time>2022-07-25T15:26:44Z</time>
      </trkpt>
      <trkpt lat="45.9995050" lon="5.6368420">
        <ele>1098.9</ele>
        <time>2022-07-25T15:26:45Z</time>
      </trkpt>
      <trkpt lat="45.9995110" lon="5.6368080">
        <ele>1099.0</ele>
        <time>2022-07-25T15:26:46Z</time>
      </trkpt>
      <trkpt lat="45.9995170" lon="5.6367770">
        <ele>1099.1</ele>
        <time>2022-07-25T15:26:48Z</time>
      </trkpt>
      <trkpt lat="45.9995120" lon="5.6367220">
        <ele>1099.2</ele>
        <time>2022-07-25T15:26:49Z</time>
      </trkpt>
      <trkpt lat="45.9995110" lon="5.6367050">
        <ele>1099.2</ele>
        <time>2022-07-25T15:26:50Z</time>
      </trkpt>
      <trkpt lat="45.9995130" lon="5.6366620">
        <ele>1099.3</ele>
        <time>2022-07-25T15:26:52Z</time>
      </trkpt>
      <trkpt lat="45.9995140" lon="5.6366200">
        <ele>1099.4</ele>
        <time>2022-07-25T15:26:53Z</time>
      </trkpt>
      <trkpt lat="45.9995130" lon="5.6365770">
        <ele>1099.5</ele>
        <time>2022-07-25T15:26:54Z</time>
      </trkpt>
      <trkpt lat="45.9995050" lon="5.6365240">
        <ele>1099.6</ele>
        <time>2022-07-25T15:26:55Z</time>
      </trkpt>
      <trkpt lat="45.9995000" lon="5.6365050">
        <ele>1099.6</ele>
        <time>2022-07-25T15:26:56Z</time>
      </trkpt>
      <trkpt lat="45.9994820" lon="5.6364580">
        <ele>1099.7</ele>
        <time>2022-07-25T15:26:58Z</time>
      </trkpt>
      <trkpt lat="45.9994660" lon="5.6364210">
        <ele>1099.9</ele>
        <time>2022-07-25T15:26:59Z</time>
      </trkpt>
      <trkpt lat="45.9994500" lon="5.6363800">
        <ele>1100.0</ele>
        <time>2022-07-25T15:27:00Z</time>
      </trkpt>
      <trkpt lat="45.9994300" lon="5.6363110">
        <ele>1100.2</ele>
        <time>2022-07-25T15:27:02Z</time>
      </trkpt>
      <trkpt lat="45.9994210" lon="5.6362880">
        <ele>1100.2</ele>
        <time>2022-07-25T15:27:03Z</time>
      </trkpt>
      <trkpt lat="45.9994130" lon="5.6362650">
        <ele>1100.3</ele>
        <time>2022-07-25T15:27:04Z</time>
      </trkpt>
      <trkpt lat="45.9994070" lon="5.6362200">
        <ele>1100.4</ele>
        <time>2022-07-25T15:27:05Z</time>
      </trkpt>
      <trkpt lat="45.9994040" lon="5.6362020">
        <ele>1100.5</ele>
        <time>2022-07-25T15:27:06Z</time>
      </trkpt>
      <trkpt lat="45.9993970" lon="5.6361700">
        <ele>1100.6</ele>
        <time>2022-07-25T15:27:07Z</time>
      </trkpt>
      <trkpt lat="45.9993840" lon="5.6361240">
        <ele>1100.7</ele>
        <time>2022-07-25T15:27:09Z</time>
      </trkpt>
      <trkpt lat="45.9993660" lon="5.6360840">
        <ele>1100.9</ele>
        <time>2022-07-25T15:27:10Z</time>
      </trkpt>
      <trkpt lat="45.9993610" lon="5.6360740">
        <ele>1100.9</ele>
        <time>2022-07-25T15:27:11Z</time>
      </trkpt>
      <trkpt lat="45.9993310" lon="5.6360400">
        <ele>1101.1</ele>
        <time>2022-07-25T15:27:12Z</time>
      </trkpt>
      <trkpt lat="45.9993200" lon="5.6360270">
        <ele>1101.1</ele>
        <time>2022-07-25T15:27:13Z</time>
      </trkpt>
      <trkpt lat="45.9992930" lon="5.6359830">
        <ele>1101.3</ele>
        <time>2022-07-25T15:27:14Z</time>
      </trkpt>
      <trkpt lat="45.9992650" lon="5.6359600">
        <ele>1101.4</ele>
        <time>2022-07-25T15:27:16Z</time>
      </trkpt>
      <trkpt lat="45.9992330" lon="5.6359390">
        <ele>1101.6</ele>
        <time>2022-07-25T15:27:17Z</time>
      </trkpt>
      <trkpt lat="45.9992070" lon="5.6359150">
        <ele>1101.7</ele>
        <time>2022-07-25T15:27:18Z</time>
      </trkpt>
      <trkpt lat="45.9991770" lon="5.6358740">
        <ele>1101.9</ele>
        <time>2022-07-25T15:27:19Z</time>
      </trkpt>
      <trkpt lat="45.9991670" lon="5.6358590">
        <ele>1102.0</ele>
        <time>2022-07-25T15:27:20Z</time>
      </trkpt>
      <trkpt lat="45.9991420" lon="5.6358250">
        <ele>1102.1</ele>
        <time>2022-07-25T15:27:21Z</time>
      </trkpt>
      <trkpt lat="45.9991350" lon="5.6358160">
        <ele>1102.2</ele>
        <time>2022-07-25T15:27:22Z</time>
      </trkpt>
      <trkpt lat="45.9991210" lon="5.6358030">
        <ele>1102.2</ele>
        <time>2022-07-25T15:27:23Z</time>
      </trkpt>
      <trkpt lat="45.9990940" lon="5.6357870">
        <ele>1102.4</ele>
        <time>2022-07-25T15:27:25Z</time>
      </trkpt>
      <trkpt lat="45.9990570" lon="5.6357600">
        <ele>1102.5</ele>
        <time>2022-07-25T15:27:26Z</time>
      </trkpt>
      <trkpt lat="45.9990420" lon="5.6357490">
        <ele>1102.6</ele>
        <time>2022-07-25T15:27:27Z</time>
      </trkpt>
      <trkpt lat="45.9990180" lon="5.6357320">
        <ele>1102.7</ele>
        <time>2022-07-25T15:27:28Z</time>
      </trkpt>
      <trkpt lat="45.9989780" lon="5.6357110">
        <ele>1102.9</ele>
        <time>2022-07-25T15:27:29Z</time>
      </trkpt>
      <trkpt lat="45.9989630" lon="5.6357020">
        <ele>1103.0</ele>
        <time>2022-07-25T15:27:30Z</time>
      </trkpt>
      <trkpt lat="45.9989270" lon="5.6356770">
        <ele>1103.1</ele>
        <time>2022-07-25T15:27:32Z</time>
      </trkpt>
      <trkpt lat="45.9988930" lon="5.6356570">
        <ele>1103.3</ele>
        <time>2022-07-25T15:27:33Z</time>
      </trkpt>
      <trkpt lat="45.9988820" lon="5.6356520">
        <ele>1103.3</ele>
        <time>2022-07-25T15:27:34Z</time>
      </trkpt>
      <trkpt lat="45.9988490" lon="5.6356310">
        <ele>1103.4</ele>
        <time>2022-07-25T15:27:35Z</time>
      </trkpt>
      <trkpt lat="45.9988180" lon="5.6356130">
        <ele>1103.6</ele>
        <time>2022-07-25T15:27:37Z</time>
      </trkpt>
      <trkpt lat="45.9987850" lon="5.6355950">
        <ele>1103.7</ele>
        <time>2022-07-25T15:27:38Z</time>
      </trkpt>
      <trkpt lat="45.9987560" lon="5.6355740">
        <ele>1103.8</ele>
        <time>2022-07-25T15:27:39Z</time>
      </trkpt>
      <trkpt lat="45.9987210" lon="5.6355560">
        <ele>1104.0</ele>
        <time>2022-07-25T15:27:40Z</time>
      </trkpt>
      <trkpt lat="45.9987100" lon="5.6355530">
        <ele>1104.0</ele>
        <time>2022-07-25T15:27:41Z</time>
      </trkpt>
      <trkpt lat="45.9986740" lon="5.6355400">
        <ele>1104.1</ele>
        <time>2022-07-25T15:27:42Z</time>
      </trkpt>
      <trkpt lat="45.9986620" lon="5.6355350">
        <ele>1104.2</ele>
        <time>2022-07-25T15:27:43Z</time>
      </trkpt>
      <trkpt lat="45.9986360" lon="5.6355250">
        <ele>1104.3</ele>
        <time>2022-07-25T15:27:44Z</time>
      </trkpt>
      <trkpt lat="45.9986040" lon="5.6355180">
        <ele>1104.4</ele>
        <time>2022-07-25T15:27:45Z</time>
      </trkpt>
      <trkpt lat="45.9985660" lon="5.6355030">
        <ele>1104.5</ele>
        <time>2022-07-25T15:27:47Z</time>
      </trkpt>
      <trkpt lat="45.9985330" lon="5.6354870">
        <ele>1104.7</ele>
        <time>2022-07-25T15:27:48Z</time>
      </trkpt>
      <trkpt lat="45.9985080" lon="5.6354720">
        <ele>1104.8</ele>
        <time>2022-07-25T15:27:49Z</time>
      </trkpt>
      <trkpt lat="45.9984860" lon="5.6354570">
        <ele>1104.8</ele>
        <time>2022-07-25T15:27:50Z</time>
      </trkpt>
      <trkpt lat="45.9984580" lon="5.6354450">
        <ele>1105.0</ele>
        <time>2022-07-25T15:27:52Z</time>
      </trkpt>
      <trkpt lat="45.9984170" lon="5.6354350">
        <ele>1105.1</ele>
        <time>2022-07-25T15:27:53Z</time>
      </trkpt>
      <trkpt lat="45.9983990" lon="5.6354320">
        <ele>1105.2</ele>
        <time>2022-07-25T15:27:54Z</time>
      </trkpt>
      <trkpt lat="45.9983670" lon="5.6354290">
        <ele>1105.3</ele>
        <time>2022-07-25T15:27:55Z</time>
      </trkpt>
      <trkpt lat="45.9983570" lon="5.6354280">
        <ele>1105.3</ele>
        <time>2022-07-25T15:27:56Z</time>
      </trkpt>
      <trkpt lat="45.9983360" lon="5.6354290">
        <ele>1105.4</ele>
        <time>2022-07-25T15:27:57Z</time>
      </trkpt>
      <trkpt lat="45.9983000" lon="5.6354430">
        <ele>1105.5</ele>
        <time>2022-07-25T15:27:59Z</time>
      </trkpt>
      <trkpt lat="45.9982660" lon="5.6354540">
        <ele>1105.6</ele>
        <time>2022-07-25T15:28:00Z</time>
      </trkpt>
      <trkpt lat="45.9982350" lon="5.6354550">
        <ele>1105.6</ele>
        <time>2022-07-25T15:28:01Z</time>
      </trkpt>
      <trkpt lat="45.9982060" lon="5.6354460">
        <ele>1105.7</ele>
        <time>2022-07-25T15:28:02Z</time>
      </trkpt>
      <trkpt lat="45.9981680" lon="5.6354310">
        <ele>1105.8</ele>
        <time>2022-07-25T15:28:03Z</time>
      </trkpt>
      <trkpt lat="45.9981550" lon="5.6354250">
        <ele>1105.8</ele>
        <time>2022-07-25T15:28:04Z</time>
      </trkpt>
      <trkpt lat="45.9981190" lon="5.6354180">
        <ele>1105.8</ele>
        <time>2022-07-25T15:28:06Z</time>
      </trkpt>
      <trkpt lat="45.9980880" lon="5.6354150">
        <ele>1105.9</ele>
        <time>2022-07-25T15:28:07Z</time>
      </trkpt>
      <trkpt lat="45.9980580" lon="5.6354040">
        <ele>1105.9</ele>
        <time>2022-07-25T15:28:08Z</time>
      </trkpt>
      <trkpt lat="45.9980220" lon="5.6353950">
        <ele>1105.9</ele>
        <time>2022-07-25T15:28:09Z</time>
      </trkpt>
      <trkpt lat="45.9979950" lon="5.6353890">
        <ele>1105.9</ele>
        <time>2022-07-25T15:28:10Z</time>
      </trkpt>
      <trkpt lat="45.9979680" lon="5.6353810">
        <ele>1105.9</ele>
        <time>2022-07-25T15:28:11Z</time>
      </trkpt>
      <trkpt lat="45.9979270" lon="5.6353650">
        <ele>1105.9</ele>
        <time>2022-07-25T15:28:13Z</time>
      </trkpt>
      <trkpt lat="45.9978830" lon="5.6353570">
        <ele>1105.9</ele>
        <time>2022-07-25T15:28:14Z</time>
      </trkpt>
      <trkpt lat="45.9978410" lon="5.6353480">
        <ele>1105.9</ele>
        <time>2022-07-25T15:28:15Z</time>
      </trkpt>
      <trkpt lat="45.9978040" lon="5.6353380">
        <ele>1106.0</ele>
        <time>2022-07-25T15:28:16Z</time>
      </trkpt>
      <trkpt lat="45.9977530" lon="5.6353250">
        <ele>1106.0</ele>
        <time>2022-07-25T15:28:18Z</time>
      </trkpt>
      <trkpt lat="45.9977210" lon="5.6353200">
        <ele>1106.0</ele>
        <time>2022-07-25T15:28:19Z</time>
      </trkpt>
      <trkpt lat="45.9976790" lon="5.6353180">
        <ele>1106.1</ele>
        <time>2022-07-25T15:28:20Z</time>
      </trkpt>
      <trkpt lat="45.9976390" lon="5.6353100">
        <ele>1106.1</ele>
        <time>2022-07-25T15:28:21Z</time>
      </trkpt>
      <trkpt lat="45.9975990" lon="5.6353060">
        <ele>1106.1</ele>
        <time>2022-07-25T15:28:22Z</time>
      </trkpt>
      <trkpt lat="45.9975660" lon="5.6353040">
        <ele>1106.1</ele>
        <time>2022-07-25T15:28:23Z</time>
      </trkpt>
      <trkpt lat="45.9975100" lon="5.6353060">
        <ele>1106.1</ele>
        <time>2022-07-25T15:28:25Z</time>
      </trkpt>
      <trkpt lat="45.9974740" lon="5.6353030">
        <ele>1106.1</ele>
        <time>2022-07-25T15:28:26Z</time>
      </trkpt>
      <trkpt lat="45.9974350" lon="5.6352930">
        <ele>1106.2</ele>
        <time>2022-07-25T15:28:27Z</time>
      </trkpt>
      <trkpt lat="45.9974200" lon="5.6352870">
        <ele>1106.2</ele>
        <time>2022-07-25T15:28:28Z</time>
      </trkpt>
      <trkpt lat="45.9974070" lon="5.6352770">
        <ele>1106.2</ele>
        <time>2022-07-25T15:28:29Z</time>
      </trkpt>
      <trkpt lat="45.9973680" lon="5.6352530">
        <ele>1106.2</ele>
        <time>2022-07-25T15:28:30Z</time>
      </trkpt>
      <trkpt lat="45.9973490" lon="5.6352460">
        <ele>1106.2</ele>
        <time>2022-07-25T15:28:31Z</time>
      </trkpt>
      <trkpt lat="45.9973120" lon="5.6352370">
        <ele>1106.2</ele>
        <time>2022-07-25T15:28:32Z</time>
      </trkpt>
      <trkpt lat="45.9972620" lon="5.6352260">
        <ele>1106.2</ele>
        <time>2022-07-25T15:28:34Z</time>
      </trkpt>
      <trkpt lat="45.9972130" lon="5.6352160">
        <ele>1106.2</ele>
        <time>2022-07-25T15:28:35Z</time>
      </trkpt>
      <trkpt lat="45.9971820" lon="5.6352090">
        <ele>1106.2</ele>
        <time>2022-07-25T15:28:36Z</time>
      </trkpt>
      <trkpt lat="45.9971460" lon="5.6352070">
        <ele>1106.1</ele>
        <time>2022-07-25T15:28:37Z</time>
      </trkpt>
      <trkpt lat="45.9971010" lon="5.6352060">
        <ele>1106.1</ele>
        <time>2022-07-25T15:28:38Z</time>
      </trkpt>
      <trkpt lat="45.9970590" lon="5.6352110">
        <ele>1106.0</ele>
        <time>2022-07-25T15:28:40Z</time>
      </trkpt>
      <trkpt lat="45.9970180" lon="5.6352090">
        <ele>1106.0</ele>
        <time>2022-07-25T15:28:41Z</time>
      </trkpt>
      <trkpt lat="45.9969780" lon="5.6352080">
        <ele>1105.9</ele>
        <time>2022-07-25T15:28:42Z</time>
      </trkpt>
      <trkpt lat="45.9969300" lon="5.6351960">
        <ele>1105.7</ele>
        <time>2022-07-25T15:28:43Z</time>
      </trkpt>
      <trkpt lat="45.9968890" lon="5.6351780">
        <ele>1105.6</ele>
        <time>2022-07-25T15:28:44Z</time>
      </trkpt>
      <trkpt lat="45.9968290" lon="5.6351580">
        <ele>1105.5</ele>
        <time>2022-07-25T15:28:46Z</time>
      </trkpt>
      <trkpt lat="45.9967890" lon="5.6351440">
        <ele>1105.4</ele>
        <time>2022-07-25T15:28:47Z</time>
      </trkpt>
      <trkpt lat="45.9967310" lon="5.6351330">
        <ele>1105.3</ele>
        <time>2022-07-25T15:28:48Z</time>
      </trkpt>
      <trkpt lat="45.9966880" lon="5.6351220">
        <ele>1105.2</ele>
        <time>2022-07-25T15:28:49Z</time>
      </trkpt>
      <trkpt lat="45.9966300" lon="5.6351100">
        <ele>1105.2</ele>
        <time>2022-07-25T15:28:51Z</time>
      </trkpt>
      <trkpt lat="45.9965740" lon="5.6351030">
        <ele>1105.2</ele>
        <time>2022-07-25T15:28:52Z</time>
      </trkpt>
      <trkpt lat="45.9965330" lon="5.6351010">
        <ele>1105.3</ele>
        <time>2022-07-25T15:28:53Z</time>
      </trkpt>
      <trkpt lat="45.9964920" lon="5.6350940">
        <ele>1105.3</ele>
        <time>2022-07-25T15:28:54Z</time>
      </trkpt>
      <trkpt lat="45.9964550" lon="5.6350840">
        <ele>1105.4</ele>
        <time>2022-07-25T15:28:55Z</time>
      </trkpt>
      <trkpt lat="45.9963780" lon="5.6350520">
        <ele>1105.6</ele>
        <time>2022-07-25T15:28:57Z</time>
      </trkpt>
      <trkpt lat="45.9963330" lon="5.6350310">
        <ele>1105.8</ele>
        <time>2022-07-25T15:28:59Z</time>
      </trkpt>
      <trkpt lat="45.9963010" lon="5.6350140">
        <ele>1105.9</ele>
        <time>2022-07-25T15:29:00Z</time>
      </trkpt>
      <trkpt lat="45.9962640" lon="5.6350080">
        <ele>1106.0</ele>
        <time>2022-07-25T15:29:01Z</time>
      </trkpt>
      <trkpt lat="45.9962150" lon="5.6350040">
        <ele>1106.2</ele>
        <time>2022-07-25T15:29:03Z</time>
      </trkpt>
      <trkpt lat="45.9961830" lon="5.6349930">
        <ele>1106.4</ele>
        <time>2022-07-25T15:29:04Z</time>
      </trkpt>
      <trkpt lat="45.9961550" lon="5.6349800">
        <ele>1106.5</ele>
        <time>2022-07-25T15:29:05Z</time>
      </trkpt>
      <trkpt lat="45.9961270" lon="5.6349710">
        <ele>1106.7</ele>
        <time>2022-07-25T15:29:06Z</time>
      </trkpt>
      <trkpt lat="45.9960800" lon="5.6349590">
        <ele>1106.9</ele>
        <time>2022-07-25T15:29:08Z</time>
      </trkpt>
      <trkpt lat="45.9960460" lon="5.6349440">
        <ele>1107.1</ele>
        <time>2022-07-25T15:29:09Z</time>
      </trkpt>
      <trkpt lat="45.9960340" lon="5.6349390">
        <ele>1107.2</ele>
        <time>2022-07-25T15:29:10Z</time>
      </trkpt>
      <trkpt lat="45.9960060" lon="5.6349280">
        <ele>1107.3</ele>
        <time>2022-07-25T15:29:11Z</time>
      </trkpt>
      <trkpt lat="45.9959660" lon="5.6349190">
        <ele>1107.5</ele>
        <time>2022-07-25T15:29:12Z</time>
      </trkpt>
      <trkpt lat="45.9959510" lon="5.6349160">
        <ele>1107.6</ele>
        <time>2022-07-25T15:29:13Z</time>
      </trkpt>
      <trkpt lat="45.9959060" lon="5.6349120">
        <ele>1107.8</ele>
        <time>2022-07-25T15:29:15Z</time>
      </trkpt>
      <trkpt lat="45.9958800" lon="5.6349060">
        <ele>1108.0</ele>
        <time>2022-07-25T15:29:16Z</time>
      </trkpt>
      <trkpt lat="45.9958430" lon="5.6349010">
        <ele>1108.2</ele>
        <time>2022-07-25T15:29:18Z</time>
      </trkpt>
      <trkpt lat="45.9958050" lon="5.6348990">
        <ele>1108.4</ele>
        <time>2022-07-25T15:29:19Z</time>
      </trkpt>
      <trkpt lat="45.9957720" lon="5.6349010">
        <ele>1108.6</ele>
        <time>2022-07-25T15:29:20Z</time>
      </trkpt>
      <trkpt lat="45.9957440" lon="5.6349020">
        <ele>1108.8</ele>
        <time>2022-07-25T15:29:21Z</time>
      </trkpt>
      <trkpt lat="45.9957010" lon="5.6348720">
        <ele>1109.1</ele>
        <time>2022-07-25T15:29:23Z</time>
      </trkpt>
      <trkpt lat="45.9956910" lon="5.6348580">
        <ele>1109.2</ele>
        <time>2022-07-25T15:29:24Z</time>
      </trkpt>
      <trkpt lat="45.9956800" lon="5.6348450">
        <ele>1109.3</ele>
        <time>2022-07-25T15:29:25Z</time>
      </trkpt>
      <trkpt lat="45.9956460" lon="5.6348280">
        <ele>1109.5</ele>
        <time>2022-07-25T15:29:27Z</time>
      </trkpt>
      <trkpt lat="45.9956360" lon="5.6348250">
        <ele>1109.5</ele>
        <time>2022-07-25T15:29:28Z</time>
      </trkpt>
      <trkpt lat="45.9956040" lon="5.6348170">
        <ele>1109.7</ele>
        <time>2022-07-25T15:29:29Z</time>
      </trkpt>
      <trkpt lat="45.9955960" lon="5.6348140">
        <ele>1109.8</ele>
        <time>2022-07-25T15:29:30Z</time>
      </trkpt>
      <trkpt lat="45.9955820" lon="5.6348050">
        <ele>1109.9</ele>
        <time>2022-07-25T15:29:31Z</time>
      </trkpt>
      <trkpt lat="45.9955670" lon="5.6347910">
        <ele>1110.0</ele>
        <time>2022-07-25T15:29:32Z</time>
      </trkpt>
      <trkpt lat="45.9955560" lon="5.6347790">
        <ele>1110.1</ele>
        <time>2022-07-25T15:29:34Z</time>
      </trkpt>
      <trkpt lat="45.9955380" lon="5.6347620">
        <ele>1110.2</ele>
        <time>2022-07-25T15:29:35Z</time>
      </trkpt>
      <trkpt lat="45.9955290" lon="5.6347540">
        <ele>1110.3</ele>
        <time>2022-07-25T15:29:36Z</time>
      </trkpt>
      <trkpt lat="45.9955110" lon="5.6347340">
        <ele>1110.4</ele>
        <time>2022-07-25T15:29:37Z</time>
      </trkpt>
      <trkpt lat="45.9954850" lon="5.6347040">
        <ele>1110.6</ele>
        <time>2022-07-25T15:29:38Z</time>
      </trkpt>
      <trkpt lat="45.9954760" lon="5.6346930">
        <ele>1110.7</ele>
        <time>2022-07-25T15:29:39Z</time>
      </trkpt>
      <trkpt lat="45.9954440" lon="5.6346670">
        <ele>1110.8</ele>
        <time>2022-07-25T15:29:40Z</time>
      </trkpt>
      <trkpt lat="45.9954320" lon="5.6346570">
        <ele>1110.9</ele>
        <time>2022-07-25T15:29:41Z</time>
      </trkpt>
      <trkpt lat="45.9953960" lon="5.6346350">
        <ele>1111.3</ele>
        <time>2022-07-25T15:29:42Z</time>
      </trkpt>
      <trkpt lat="45.9953660" lon="5.6346230">
        <ele>1111.5</ele>
        <time>2022-07-25T15:29:43Z</time>
      </trkpt>
      <trkpt lat="45.9953310" lon="5.6346160">
        <ele>1111.6</ele>
        <time>2022-07-25T15:29:44Z</time>
      </trkpt>
      <trkpt lat="45.9952980" lon="5.6346040">
        <ele>1111.8</ele>
        <time>2022-07-25T15:29:46Z</time>
      </trkpt>
      <trkpt lat="45.9952650" lon="5.6345890">
        <ele>1112.0</ele>
        <time>2022-07-25T15:29:47Z</time>
      </trkpt>
      <trkpt lat="45.9952250" lon="5.6345720">
        <ele>1112.1</ele>
        <time>2022-07-25T15:29:48Z</time>
      </trkpt>
      <trkpt lat="45.9952110" lon="5.6345640">
        <ele>1112.2</ele>
        <time>2022-07-25T15:29:49Z</time>
      </trkpt>
      <trkpt lat="45.9951870" lon="5.6345510">
        <ele>1112.3</ele>
        <time>2022-07-25T15:29:50Z</time>
      </trkpt>
      <trkpt lat="45.9951510" lon="5.6345330">
        <ele>1112.4</ele>
        <time>2022-07-25T15:29:52Z</time>
      </trkpt>
      <trkpt lat="45.9951230" lon="5.6345250">
        <ele>1112.5</ele>
        <time>2022-07-25T15:29:53Z</time>
      </trkpt>
      <trkpt lat="45.9950860" lon="5.6345160">
        <ele>1112.6</ele>
        <time>2022-07-25T15:29:54Z</time>
      </trkpt>
      <trkpt lat="45.9950740" lon="5.6345130">
        <ele>1112.7</ele>
        <time>2022-07-25T15:29:55Z</time>
      </trkpt>
      <trkpt lat="45.9950410" lon="5.6345000">
        <ele>1112.7</ele>
        <time>2022-07-25T15:29:56Z</time>
      </trkpt>
      <trkpt lat="45.9950290" lon="5.6344940">
        <ele>1112.8</ele>
        <time>2022-07-25T15:29:57Z</time>
      </trkpt>
      <trkpt lat="45.9949940" lon="5.6344680">
        <ele>1112.9</ele>
        <time>2022-07-25T15:29:59Z</time>
      </trkpt>
      <trkpt lat="45.9949630" lon="5.6344240">
        <ele>1113.0</ele>
        <time>2022-07-25T15:30:00Z</time>
      </trkpt>
      <trkpt lat="45.9949510" lon="5.6344060">
        <ele>1113.0</ele>
        <time>2022-07-25T15:30:01Z</time>
      </trkpt>
      <trkpt lat="45.9949280" lon="5.6343770">
        <ele>1113.1</ele>
        <time>2022-07-25T15:30:02Z</time>
      </trkpt>
      <trkpt lat="45.9949030" lon="5.6343480">
        <ele>1113.2</ele>
        <time>2022-07-25T15:30:03Z</time>
      </trkpt>
      <trkpt lat="45.9948720" lon="5.6343100">
        <ele>1113.3</ele>
        <time>2022-07-25T15:30:05Z</time>
      </trkpt>
      <trkpt lat="45.9948430" lon="5.6342820">
        <ele>1113.3</ele>
        <time>2022-07-25T15:30:06Z</time>
      </trkpt>
      <trkpt lat="45.9948240" lon="5.6342670">
        <ele>1113.4</ele>
        <time>2022-07-25T15:30:07Z</time>
      </trkpt>
      <trkpt lat="45.9947810" lon="5.6342350">
        <ele>1113.5</ele>
        <time>2022-07-25T15:30:09Z</time>
      </trkpt>
      <trkpt lat="45.9947500" lon="5.6342250">
        <ele>1113.5</ele>
        <time>2022-07-25T15:30:10Z</time>
      </trkpt>
      <trkpt lat="45.9947120" lon="5.6342160">
        <ele>1113.6</ele>
        <time>2022-07-25T15:30:11Z</time>
      </trkpt>
      <trkpt lat="45.9946670" lon="5.6342040">
        <ele>1113.7</ele>
        <time>2022-07-25T15:30:13Z</time>
      </trkpt>
      <trkpt lat="45.9946400" lon="5.6341950">
        <ele>1113.7</ele>
        <time>2022-07-25T15:30:14Z</time>
      </trkpt>
      <trkpt lat="45.9946080" lon="5.6341730">
        <ele>1113.8</ele>
        <time>2022-07-25T15:30:15Z</time>
      </trkpt>
      <trkpt lat="45.9945830" lon="5.6341540">
        <ele>1113.8</ele>
        <time>2022-07-25T15:30:16Z</time>
      </trkpt>
      <trkpt lat="45.9945360" lon="5.6341160">
        <ele>1114.0</ele>
        <time>2022-07-25T15:30:18Z</time>
      </trkpt>
      <trkpt lat="45.9945070" lon="5.6340860">
        <ele>1114.0</ele>
        <time>2022-07-25T15:30:19Z</time>
      </trkpt>
      <trkpt lat="45.9944720" lon="5.6340420">
        <ele>1114.1</ele>
        <time>2022-07-25T15:30:21Z</time>
      </trkpt>
      <trkpt lat="45.9944520" lon="5.6340070">
        <ele>1114.2</ele>
        <time>2022-07-25T15:30:22Z</time>
      </trkpt>
      <trkpt lat="45.9944280" lon="5.6339660">
        <ele>1114.3</ele>
        <time>2022-07-25T15:30:23Z</time>
      </trkpt>
      <trkpt lat="45.9944200" lon="5.6339530">
        <ele>1114.4</ele>
        <time>2022-07-25T15:30:24Z</time>
      </trkpt>
      <trkpt lat="45.9943950" lon="5.6339170">
        <ele>1114.4</ele>
        <time>2022-07-25T15:30:25Z</time>
      </trkpt>
      <trkpt lat="45.9943860" lon="5.6339040">
        <ele>1114.5</ele>
        <time>2022-07-25T15:30:26Z</time>
      </trkpt>
      <trkpt lat="45.9943710" lon="5.6338780">
        <ele>1114.6</ele>
        <time>2022-07-25T15:30:27Z</time>
      </trkpt>
      <trkpt lat="45.9943500" lon="5.6338390">
        <ele>1114.7</ele>
        <time>2022-07-25T15:30:29Z</time>
      </trkpt>
      <trkpt lat="45.9943170" lon="5.6337970">
        <ele>1114.8</ele>
        <time>2022-07-25T15:30:30Z</time>
      </trkpt>
      <trkpt lat="45.9943030" lon="5.6337780">
        <ele>1114.9</ele>
        <time>2022-07-25T15:30:31Z</time>
      </trkpt>
      <trkpt lat="45.9942840" lon="5.6337550">
        <ele>1115.0</ele>
        <time>2022-07-25T15:30:32Z</time>
      </trkpt>
      <trkpt lat="45.9942580" lon="5.6337250">
        <ele>1115.2</ele>
        <time>2022-07-25T15:30:34Z</time>
      </trkpt>
      <trkpt lat="45.9942340" lon="5.6336920">
        <ele>1115.3</ele>
        <time>2022-07-25T15:30:35Z</time>
      </trkpt>
      <trkpt lat="45.9942280" lon="5.6336800">
        <ele>1115.4</ele>
        <time>2022-07-25T15:30:36Z</time>
      </trkpt>
      <trkpt lat="45.9942070" lon="5.6336480">
        <ele>1115.5</ele>
        <time>2022-07-25T15:30:37Z</time>
      </trkpt>
      <trkpt lat="45.9942020" lon="5.6336410">
        <ele>1115.6</ele>
        <time>2022-07-25T15:30:38Z</time>
      </trkpt>
      <trkpt lat="45.9941590" lon="5.6335970">
        <ele>1115.8</ele>
        <time>2022-07-25T15:30:40Z</time>
      </trkpt>
      <trkpt lat="45.9941450" lon="5.6335820">
        <ele>1115.9</ele>
        <time>2022-07-25T15:30:41Z</time>
      </trkpt>
      <trkpt lat="45.9941310" lon="5.6335680">
        <ele>1116.0</ele>
        <time>2022-07-25T15:30:42Z</time>
      </trkpt>
      <trkpt lat="45.9940990" lon="5.6335440">
        <ele>1116.1</ele>
        <time>2022-07-25T15:30:43Z</time>
      </trkpt>
      <trkpt lat="45.9940650" lon="5.6335090">
        <ele>1116.3</ele>
        <time>2022-07-25T15:30:45Z</time>
      </trkpt>
      <trkpt lat="45.9940530" lon="5.6334920">
        <ele>1116.3</ele>
        <time>2022-07-25T15:30:46Z</time>
      </trkpt>
      <trkpt lat="45.9940320" lon="5.6334510">
        <ele>1116.4</ele>
        <time>2022-07-25T15:30:47Z</time>
      </trkpt>
      <trkpt lat="45.9940120" lon="5.6333970">
        <ele>1116.5</ele>
        <time>2022-07-25T15:30:49Z</time>
      </trkpt>
      <trkpt lat="45.9939950" lon="5.6333600">
        <ele>1116.6</ele>
        <time>2022-07-25T15:30:50Z</time>
      </trkpt>
      <trkpt lat="45.9939790" lon="5.6333230">
        <ele>1116.6</ele>
        <time>2022-07-25T15:30:51Z</time>
      </trkpt>
      <trkpt lat="45.9939660" lon="5.6332820">
        <ele>1116.7</ele>
        <time>2022-07-25T15:30:52Z</time>
      </trkpt>
      <trkpt lat="45.9939540" lon="5.6332440">
        <ele>1116.7</ele>
        <time>2022-07-25T15:30:53Z</time>
      </trkpt>
      <trkpt lat="45.9939410" lon="5.6331880">
        <ele>1116.6</ele>
        <time>2022-07-25T15:30:54Z</time>
      </trkpt>
      <trkpt lat="45.9939300" lon="5.6331380">
        <ele>1116.6</ele>
        <time>2022-07-25T15:30:55Z</time>
      </trkpt>
      <trkpt lat="45.9939160" lon="5.6330860">
        <ele>1116.5</ele>
        <time>2022-07-25T15:30:56Z</time>
      </trkpt>
      <trkpt lat="45.9939030" lon="5.6330360">
        <ele>1116.3</ele>
        <time>2022-07-25T15:30:57Z</time>
      </trkpt>
      <trkpt lat="45.9938870" lon="5.6329870">
        <ele>1116.2</ele>
        <time>2022-07-25T15:30:58Z</time>
      </trkpt>
      <trkpt lat="45.9938630" lon="5.6329380">
        <ele>1116.0</ele>
        <time>2022-07-25T15:30:59Z</time>
      </trkpt>
      <trkpt lat="45.9938200" lon="5.6328690">
        <ele>1115.6</ele>
        <time>2022-07-25T15:31:00Z</time>
      </trkpt>
      <trkpt lat="45.9937900" lon="5.6328020">
        <ele>1115.1</ele>
        <time>2022-07-25T15:31:01Z</time>
      </trkpt>
      <trkpt lat="45.9937620" lon="5.6327290">
        <ele>1114.7</ele>
        <time>2022-07-25T15:31:02Z</time>
      </trkpt>
      <trkpt lat="45.9937330" lon="5.6326480">
        <ele>1114.1</ele>
        <time>2022-07-25T15:31:03Z</time>
      </trkpt>
      <trkpt lat="45.9937090" lon="5.6325480">
        <ele>1113.3</ele>
        <time>2022-07-25T15:31:04Z</time>
      </trkpt>
      <trkpt lat="45.9936950" lon="5.6324380">
        <ele>1112.4</ele>
        <time>2022-07-25T15:31:05Z</time>
      </trkpt>
      <trkpt lat="45.9936670" lon="5.6323340">
        <ele>1111.5</ele>
        <time>2022-07-25T15:31:06Z</time>
      </trkpt>
      <trkpt lat="45.9936490" lon="5.6322360">
        <ele>1110.7</ele>
        <time>2022-07-25T15:31:07Z</time>
      </trkpt>
      <trkpt lat="45.9936360" lon="5.6321400">
        <ele>1110.0</ele>
        <time>2022-07-25T15:31:08Z</time>
      </trkpt>
      <trkpt lat="45.9936130" lon="5.6320140">
        <ele>1109.1</ele>
        <time>2022-07-25T15:31:09Z</time>
      </trkpt>
      <trkpt lat="45.9935810" lon="5.6318930">
        <ele>1108.4</ele>
        <time>2022-07-25T15:31:10Z</time>
      </trkpt>
      <trkpt lat="45.9935540" lon="5.6317670">
        <ele>1107.8</ele>
        <time>2022-07-25T15:31:11Z</time>
      </trkpt>
      <trkpt lat="45.9935390" lon="5.6316430">
        <ele>1107.3</ele>
        <time>2022-07-25T15:31:12Z</time>
      </trkpt>
      <trkpt lat="45.9935330" lon="5.6315300">
        <ele>1107.0</ele>
        <time>2022-07-25T15:31:13Z</time>
      </trkpt>
      <trkpt lat="45.9935260" lon="5.6314140">
        <ele>1106.7</ele>
        <time>2022-07-25T15:31:14Z</time>
      </trkpt>
      <trkpt lat="45.9935230" lon="5.6312990">
        <ele>1106.5</ele>
        <time>2022-07-25T15:31:15Z</time>
      </trkpt>
      <trkpt lat="45.9935230" lon="5.6311840">
        <ele>1106.4</ele>
        <time>2022-07-25T15:31:16Z</time>
      </trkpt>
      <trkpt lat="45.9935250" lon="5.6310820">
        <ele>1106.3</ele>
        <time>2022-07-25T15:31:17Z</time>
      </trkpt>
      <trkpt lat="45.9935290" lon="5.6309780">
        <ele>1106.4</ele>
        <time>2022-07-25T15:31:18Z</time>
      </trkpt>
      <trkpt lat="45.9935340" lon="5.6308790">
        <ele>1106.4</ele>
        <time>2022-07-25T15:31:19Z</time>
      </trkpt>
      <trkpt lat="45.9935350" lon="5.6307900">
        <ele>1106.5</ele>
        <time>2022-07-25T15:31:20Z</time>
      </trkpt>
      <trkpt lat="45.9935400" lon="5.6307090">
        <ele>1106.6</ele>
        <time>2022-07-25T15:31:21Z</time>
      </trkpt>
      <trkpt lat="45.9935420" lon="5.6306400">
        <ele>1106.7</ele>
        <time>2022-07-25T15:31:22Z</time>
      </trkpt>
      <trkpt lat="45.9935450" lon="5.6305980">
        <ele>1106.8</ele>
        <time>2022-07-25T15:31:23Z</time>
      </trkpt>
      <trkpt lat="45.9935460" lon="5.6305580">
        <ele>1106.8</ele>
        <time>2022-07-25T15:31:24Z</time>
      </trkpt>
      <trkpt lat="45.9935400" lon="5.6305430">
        <ele>1106.8</ele>
        <time>2022-07-25T15:31:25Z</time>
      </trkpt>
      <trkpt lat="45.9935330" lon="5.6305350">
        <ele>1106.7</ele>
        <time>2022-07-25T15:31:26Z</time>
      </trkpt>
      <trkpt lat="45.9935310" lon="5.6305270">
        <ele>1106.7</ele>
        <time>2022-07-25T15:31:27Z</time>
      </trkpt>
      <trkpt lat="45.9935290" lon="5.6305170">
        <ele>1106.6</ele>
        <time>2022-07-25T15:31:28Z</time>
      </trkpt>
      <trkpt lat="45.9935280" lon="5.6305120">
        <ele>1106.6</ele>
        <time>2022-07-25T15:31:29Z</time>
      </trkpt>
      <trkpt lat="45.9935300" lon="5.6305150">
        <ele>1106.6</ele>
        <time>2022-07-25T15:31:30Z</time>
      </trkpt>
      <trkpt lat="45.9935300" lon="5.6305160">
        <ele>1106.6</ele>
        <time>2022-07-25T15:31:31Z</time>
      </trkpt>
      <trkpt lat="45.9935300" lon="5.6305150">
        <ele>1106.6</ele>
        <time>2022-07-25T15:31:32Z</time>
      </trkpt>
      <trkpt lat="45.9935270" lon="5.6305160">
        <ele>1106.6</ele>
        <time>2022-07-25T15:31:33Z</time>
      </trkpt>
      <trkpt lat="45.9935250" lon="5.6305170">
        <ele>1106.6</ele>
        <time>2022-07-25T15:31:34Z</time>
      </trkpt>
      <trkpt lat="45.9935230" lon="5.6305180">
        <ele>1106.6</ele>
        <time>2022-07-25T15:31:35Z</time>
      </trkpt>
      <trkpt lat="45.9935200" lon="5.6305190">
        <ele>1106.5</ele>
        <time>2022-07-25T15:31:36Z</time>
      </trkpt>
      <trkpt lat="45.9935180" lon="5.6305200">
        <ele>1106.5</ele>
        <time>2022-07-25T15:31:37Z</time>
      </trkpt>
      <trkpt lat="45.9935170" lon="5.6305200">
        <ele>1106.5</ele>
        <time>2022-07-25T15:31:38Z</time>
      </trkpt>
      <trkpt lat="45.9935150" lon="5.6305220">
        <ele>1106.5</ele>
        <time>2022-07-25T15:31:39Z</time>
      </trkpt>
      <trkpt lat="45.9934610" lon="5.6304840">
        <ele>1106.2</ele>
        <time>2022-07-25T15:32:02Z</time>
      </trkpt>
      <trkpt lat="45.9934370" lon="5.6304850">
        <ele>1106.0</ele>
        <time>2022-07-25T15:32:03Z</time>
      </trkpt>
      <trkpt lat="45.9934070" lon="5.6305050">
        <ele>1105.9</ele>
        <time>2022-07-25T15:32:05Z</time>
      </trkpt>
      <trkpt lat="45.9933670" lon="5.6305440">
        <ele>1105.6</ele>
        <time>2022-07-25T15:32:06Z</time>
      </trkpt>
      <trkpt lat="45.9933480" lon="5.6305620">
        <ele>1105.5</ele>
        <time>2022-07-25T15:32:07Z</time>
      </trkpt>
      <trkpt lat="45.9933120" lon="5.6306120">
        <ele>1105.2</ele>
        <time>2022-07-25T15:32:08Z</time>
      </trkpt>
      <trkpt lat="45.9932540" lon="5.6306690">
        <ele>1104.9</ele>
        <time>2022-07-25T15:32:10Z</time>
      </trkpt>
      <trkpt lat="45.9932230" lon="5.6307110">
        <ele>1104.7</ele>
        <time>2022-07-25T15:32:11Z</time>
      </trkpt>
      <trkpt lat="45.9931830" lon="5.6307580">
        <ele>1104.5</ele>
        <time>2022-07-25T15:32:12Z</time>
      </trkpt>
      <trkpt lat="45.9931420" lon="5.6308000">
        <ele>1104.4</ele>
        <time>2022-07-25T15:32:13Z</time>
      </trkpt>
      <trkpt lat="45.9930800" lon="5.6308580">
        <ele>1104.2</ele>
        <time>2022-07-25T15:32:15Z</time>
      </trkpt>
      <trkpt lat="45.9930430" lon="5.6308870">
        <ele>1104.2</ele>
        <time>2022-07-25T15:32:16Z</time>
      </trkpt>
      <trkpt lat="45.9930160" lon="5.6309090">
        <ele>1104.1</ele>
        <time>2022-07-25T15:32:17Z</time>
      </trkpt>
      <trkpt lat="45.9929910" lon="5.6309280">
        <ele>1104.1</ele>
        <time>2022-07-25T15:32:18Z</time>
      </trkpt>
      <trkpt lat="45.9929660" lon="5.6309620">
        <ele>1104.0</ele>
        <time>2022-07-25T15:32:19Z</time>
      </trkpt>
      <trkpt lat="45.9929590" lon="5.6309750">
        <ele>1104.0</ele>
        <time>2022-07-25T15:32:20Z</time>
      </trkpt>
      <trkpt lat="45.9929340" lon="5.6310030">
        <ele>1104.0</ele>
        <time>2022-07-25T15:32:21Z</time>
      </trkpt>
      <trkpt lat="45.9929010" lon="5.6310340">
        <ele>1104.0</ele>
        <time>2022-07-25T15:32:23Z</time>
      </trkpt>
      <trkpt lat="45.9928750" lon="5.6310640">
        <ele>1104.0</ele>
        <time>2022-07-25T15:32:24Z</time>
      </trkpt>
      <trkpt lat="45.9928540" lon="5.6310840">
        <ele>1103.9</ele>
        <time>2022-07-25T15:32:25Z</time>
      </trkpt>
      <trkpt lat="45.9928140" lon="5.6311240">
        <ele>1103.9</ele>
        <time>2022-07-25T15:32:27Z</time>
      </trkpt>
      <trkpt lat="45.9927890" lon="5.6311500">
        <ele>1103.9</ele>
        <time>2022-07-25T15:32:28Z</time>
      </trkpt>
      <trkpt lat="45.9927640" lon="5.6311820">
        <ele>1103.9</ele>
        <time>2022-07-25T15:32:29Z</time>
      </trkpt>
      <trkpt lat="45.9927290" lon="5.6312170">
        <ele>1103.9</ele>
        <time>2022-07-25T15:32:30Z</time>
      </trkpt>
      <trkpt lat="45.9927050" lon="5.6312360">
        <ele>1103.9</ele>
        <time>2022-07-25T15:32:31Z</time>
      </trkpt>
      <trkpt lat="45.9926710" lon="5.6312670">
        <ele>1103.9</ele>
        <time>2022-07-25T15:32:33Z</time>
      </trkpt>
      <trkpt lat="45.9926370" lon="5.6313080">
        <ele>1104.0</ele>
        <time>2022-07-25T15:32:34Z</time>
      </trkpt>
      <trkpt lat="45.9926250" lon="5.6313250">
        <ele>1104.0</ele>
        <time>2022-07-25T15:32:35Z</time>
      </trkpt>
      <trkpt lat="45.9925910" lon="5.6313680">
        <ele>1104.0</ele>
        <time>2022-07-25T15:32:37Z</time>
      </trkpt>
      <trkpt lat="45.9925640" lon="5.6313970">
        <ele>1104.1</ele>
        <time>2022-07-25T15:32:38Z</time>
      </trkpt>
      <trkpt lat="45.9925570" lon="5.6314050">
        <ele>1104.1</ele>
        <time>2022-07-25T15:32:39Z</time>
      </trkpt>
      <trkpt lat="45.9925330" lon="5.6314300">
        <ele>1104.1</ele>
        <time>2022-07-25T15:32:40Z</time>
      </trkpt>
      <trkpt lat="45.9925230" lon="5.6314410">
        <ele>1104.1</ele>
        <time>2022-07-25T15:32:41Z</time>
      </trkpt>
      <trkpt lat="45.9925030" lon="5.6314640">
        <ele>1104.2</ele>
        <time>2022-07-25T15:32:42Z</time>
      </trkpt>
      <trkpt lat="45.9924830" lon="5.6314880">
        <ele>1104.2</ele>
        <time>2022-07-25T15:32:44Z</time>
      </trkpt>
      <trkpt lat="45.9924610" lon="5.6315230">
        <ele>1104.2</ele>
        <time>2022-07-25T15:32:45Z</time>
      </trkpt>
      <trkpt lat="45.9924370" lon="5.6315630">
        <ele>1104.3</ele>
        <time>2022-07-25T15:32:46Z</time>
      </trkpt>
      <trkpt lat="45.9924290" lon="5.6315770">
        <ele>1104.3</ele>
        <time>2022-07-25T15:32:47Z</time>
      </trkpt>
      <trkpt lat="45.9924090" lon="5.6316040">
        <ele>1104.3</ele>
        <time>2022-07-25T15:32:48Z</time>
      </trkpt>
      <trkpt lat="45.9923860" lon="5.6316330">
        <ele>1104.4</ele>
        <time>2022-07-25T15:32:49Z</time>
      </trkpt>
      <trkpt lat="45.9923650" lon="5.6316590">
        <ele>1104.4</ele>
        <time>2022-07-25T15:32:50Z</time>
      </trkpt>
      <trkpt lat="45.9923400" lon="5.6316910">
        <ele>1104.5</ele>
        <time>2022-07-25T15:32:51Z</time>
      </trkpt>
      <trkpt lat="45.9923140" lon="5.6317330">
        <ele>1104.6</ele>
        <time>2022-07-25T15:32:53Z</time>
      </trkpt>
      <trkpt lat="45.9923000" lon="5.6317680">
        <ele>1104.6</ele>
        <time>2022-07-25T15:32:54Z</time>
      </trkpt>
      <trkpt lat="45.9922860" lon="5.6317970">
        <ele>1104.7</ele>
        <time>2022-07-25T15:32:55Z</time>
      </trkpt>
      <trkpt lat="45.9922660" lon="5.6318320">
        <ele>1104.8</ele>
        <time>2022-07-25T15:32:57Z</time>
      </trkpt>
      <trkpt lat="45.9922450" lon="5.6318690">
        <ele>1105.0</ele>
        <time>2022-07-25T15:32:58Z</time>
      </trkpt>
      <trkpt lat="45.9922380" lon="5.6318820">
        <ele>1105.0</ele>
        <time>2022-07-25T15:32:59Z</time>
      </trkpt>
      <trkpt lat="45.9922250" lon="5.6319000">
        <ele>1105.1</ele>
        <time>2022-07-25T15:33:00Z</time>
      </trkpt>
      <trkpt lat="45.9922120" lon="5.6319170">
        <ele>1105.2</ele>
        <time>2022-07-25T15:33:01Z</time>
      </trkpt>
      <trkpt lat="45.9921900" lon="5.6319550">
        <ele>1105.3</ele>
        <time>2022-07-25T15:33:03Z</time>
      </trkpt>
      <trkpt lat="45.9921630" lon="5.6319860">
        <ele>1105.4</ele>
        <time>2022-07-25T15:33:04Z</time>
      </trkpt>
      <trkpt lat="45.9921290" lon="5.6320160">
        <ele>1105.5</ele>
        <time>2022-07-25T15:33:05Z</time>
      </trkpt>
      <trkpt lat="45.9921160" lon="5.6320260">
        <ele>1105.5</ele>
        <time>2022-07-25T15:33:06Z</time>
      </trkpt>
      <trkpt lat="45.9920840" lon="5.6320520">
        <ele>1105.6</ele>
        <time>2022-07-25T15:33:08Z</time>
      </trkpt>
      <trkpt lat="45.9920580" lon="5.6320800">
        <ele>1105.6</ele>
        <time>2022-07-25T15:33:09Z</time>
      </trkpt>
      <trkpt lat="45.9920280" lon="5.6321100">
        <ele>1105.6</ele>
        <time>2022-07-25T15:33:10Z</time>
      </trkpt>
      <trkpt lat="45.9920170" lon="5.6321200">
        <ele>1105.6</ele>
        <time>2022-07-25T15:33:11Z</time>
      </trkpt>
      <trkpt lat="45.9919950" lon="5.6321350">
        <ele>1105.6</ele>
        <time>2022-07-25T15:33:12Z</time>
      </trkpt>
      <trkpt lat="45.9919700" lon="5.6321530">
        <ele>1105.6</ele>
        <time>2022-07-25T15:33:14Z</time>
      </trkpt>
      <trkpt lat="45.9919340" lon="5.6321710">
        <ele>1105.6</ele>
        <time>2022-07-25T15:33:15Z</time>
      </trkpt>
      <trkpt lat="45.9919160" lon="5.6321780">
        <ele>1105.6</ele>
        <time>2022-07-25T15:33:16Z</time>
      </trkpt>
      <trkpt lat="45.9918840" lon="5.6322000">
        <ele>1105.6</ele>
        <time>2022-07-25T15:33:17Z</time>
      </trkpt>
      <trkpt lat="45.9918740" lon="5.6322070">
        <ele>1105.6</ele>
        <time>2022-07-25T15:33:18Z</time>
      </trkpt>
      <trkpt lat="45.9918510" lon="5.6322210">
        <ele>1105.6</ele>
        <time>2022-07-25T15:33:19Z</time>
      </trkpt>
      <trkpt lat="45.9918220" lon="5.6322380">
        <ele>1105.5</ele>
        <time>2022-07-25T15:33:21Z</time>
      </trkpt>
      <trkpt lat="45.9917780" lon="5.6322560">
        <ele>1105.5</ele>
        <time>2022-07-25T15:33:22Z</time>
      </trkpt>
      <trkpt lat="45.9917360" lon="5.6322800">
        <ele>1105.5</ele>
        <time>2022-07-25T15:33:23Z</time>
      </trkpt>
      <trkpt lat="45.9917000" lon="5.6323010">
        <ele>1105.5</ele>
        <time>2022-07-25T15:33:24Z</time>
      </trkpt>
      <trkpt lat="45.9916680" lon="5.6323270">
        <ele>1105.4</ele>
        <time>2022-07-25T15:33:25Z</time>
      </trkpt>
      <trkpt lat="45.9916320" lon="5.6323580">
        <ele>1105.4</ele>
        <time>2022-07-25T15:33:26Z</time>
      </trkpt>
      <trkpt lat="45.9915680" lon="5.6324060">
        <ele>1105.3</ele>
        <time>2022-07-25T15:33:28Z</time>
      </trkpt>
      <trkpt lat="45.9915210" lon="5.6324410">
        <ele>1105.3</ele>
        <time>2022-07-25T15:33:29Z</time>
      </trkpt>
      <trkpt lat="45.9914910" lon="5.6324680">
        <ele>1105.2</ele>
        <time>2022-07-25T15:33:30Z</time>
      </trkpt>
      <trkpt lat="45.9914420" lon="5.6324930">
        <ele>1105.2</ele>
        <time>2022-07-25T15:33:31Z</time>
      </trkpt>
      <trkpt lat="45.9913900" lon="5.6325170">
        <ele>1105.2</ele>
        <time>2022-07-25T15:33:32Z</time>
      </trkpt>
      <trkpt lat="45.9913430" lon="5.6325360">
        <ele>1105.1</ele>
        <time>2022-07-25T15:33:33Z</time>
      </trkpt>
      <trkpt lat="45.9912990" lon="5.6325480">
        <ele>1105.1</ele>
        <time>2022-07-25T15:33:34Z</time>
      </trkpt>
      <trkpt lat="45.9912600" lon="5.6325520">
        <ele>1105.1</ele>
        <time>2022-07-25T15:33:35Z</time>
      </trkpt>
      <trkpt lat="45.9912030" lon="5.6325460">
        <ele>1105.1</ele>
        <time>2022-07-25T15:33:37Z</time>
      </trkpt>
      <trkpt lat="45.9911570" lon="5.6325350">
        <ele>1105.1</ele>
        <time>2022-07-25T15:33:38Z</time>
      </trkpt>
      <trkpt lat="45.9911180" lon="5.6325220">
        <ele>1105.1</ele>
        <time>2022-07-25T15:33:39Z</time>
      </trkpt>
      <trkpt lat="45.9910870" lon="5.6325130">
        <ele>1105.1</ele>
        <time>2022-07-25T15:33:40Z</time>
      </trkpt>
      <trkpt lat="45.9910530" lon="5.6325060">
        <ele>1105.1</ele>
        <time>2022-07-25T15:33:41Z</time>
      </trkpt>
      <trkpt lat="45.9910240" lon="5.6324960">
        <ele>1105.1</ele>
        <time>2022-07-25T15:33:42Z</time>
      </trkpt>
      <trkpt lat="45.9909970" lon="5.6324890">
        <ele>1105.1</ele>
        <time>2022-07-25T15:33:43Z</time>
      </trkpt>
      <trkpt lat="45.9909770" lon="5.6324810">
        <ele>1105.2</ele>
        <time>2022-07-25T15:33:44Z</time>
      </trkpt>
      <trkpt lat="45.9909490" lon="5.6324640">
        <ele>1105.2</ele>
        <time>2022-07-25T15:33:46Z</time>
      </trkpt>
      <trkpt lat="45.9909220" lon="5.6324430">
        <ele>1105.2</ele>
        <time>2022-07-25T15:33:47Z</time>
      </trkpt>
      <trkpt lat="45.9909150" lon="5.6324380">
        <ele>1105.2</ele>
        <time>2022-07-25T15:33:48Z</time>
      </trkpt>
      <trkpt lat="45.9908960" lon="5.6324320">
        <ele>1105.3</ele>
        <time>2022-07-25T15:33:49Z</time>
      </trkpt>
      <trkpt lat="45.9908900" lon="5.6324310">
        <ele>1105.3</ele>
        <time>2022-07-25T15:33:50Z</time>
      </trkpt>
      <trkpt lat="45.9908830" lon="5.6324290">
        <ele>1105.3</ele>
        <time>2022-07-25T15:33:51Z</time>
      </trkpt>
      <trkpt lat="45.9908770" lon="5.6324270">
        <ele>1105.3</ele>
        <time>2022-07-25T15:33:52Z</time>
      </trkpt>
      <trkpt lat="45.9908710" lon="5.6324250">
        <ele>1105.3</ele>
        <time>2022-07-25T15:33:53Z</time>
      </trkpt>
      <trkpt lat="45.9908650" lon="5.6324230">
        <ele>1105.3</ele>
        <time>2022-07-25T15:33:54Z</time>
      </trkpt>
      <trkpt lat="45.9908590" lon="5.6324220">
        <ele>1105.3</ele>
        <time>2022-07-25T15:33:55Z</time>
      </trkpt>
      <trkpt lat="45.9908530" lon="5.6324200">
        <ele>1105.3</ele>
        <time>2022-07-25T15:33:56Z</time>
      </trkpt>
      <trkpt lat="45.9908460" lon="5.6324180">
        <ele>1105.3</ele>
        <time>2022-07-25T15:33:57Z</time>
      </trkpt>
      <trkpt lat="45.9908400" lon="5.6324160">
        <ele>1105.3</ele>
        <time>2022-07-25T15:33:58Z</time>
      </trkpt>
      <trkpt lat="45.9908340" lon="5.6324140">
        <ele>1105.4</ele>
        <time>2022-07-25T15:35:00Z</time>
      </trkpt>
      <trkpt lat="45.9908280" lon="5.6324130">
        <ele>1105.4</ele>
        <time>2022-07-25T15:35:01Z</time>
      </trkpt>
      <trkpt lat="45.9908220" lon="5.6324110">
        <ele>1105.4</ele>
        <time>2022-07-25T15:35:02Z</time>
      </trkpt>
      <trkpt lat="45.9907980" lon="5.6323880">
        <ele>1105.4</ele>
        <time>2022-07-25T15:35:03Z</time>
      </trkpt>
      <trkpt lat="45.9907710" lon="5.6323640">
        <ele>1105.5</ele>
        <time>2022-07-25T15:35:04Z</time>
      </trkpt>
      <trkpt lat="45.9907470" lon="5.6323530">
        <ele>1105.5</ele>
        <time>2022-07-25T15:35:05Z</time>
      </trkpt>
      <trkpt lat="45.9907200" lon="5.6323560">
        <ele>1105.6</ele>
        <time>2022-07-25T15:35:07Z</time>
      </trkpt>
      <trkpt lat="45.9906920" lon="5.6323470">
        <ele>1105.7</ele>
        <time>2022-07-25T15:35:08Z</time>
      </trkpt>
      <trkpt lat="45.9906850" lon="5.6323440">
        <ele>1105.7</ele>
        <time>2022-07-25T15:35:09Z</time>
      </trkpt>
      <trkpt lat="45.9906580" lon="5.6323340">
        <ele>1105.8</ele>
        <time>2022-07-25T15:35:10Z</time>
      </trkpt>
      <trkpt lat="45.9906300" lon="5.6323240">
        <ele>1105.8</ele>
        <time>2022-07-25T15:35:11Z</time>
      </trkpt>
      <trkpt lat="45.9905930" lon="5.6323060">
        <ele>1106.0</ele>
        <time>2022-07-25T15:35:12Z</time>
      </trkpt>
      <trkpt lat="45.9905820" lon="5.6323000">
        <ele>1106.0</ele>
        <time>2022-07-25T15:35:13Z</time>
      </trkpt>
      <trkpt lat="45.9905500" lon="5.6322840">
        <ele>1106.1</ele>
        <time>2022-07-25T15:35:15Z</time>
      </trkpt>
      <trkpt lat="45.9905410" lon="5.6322800">
        <ele>1106.2</ele>
        <time>2022-07-25T15:35:16Z</time>
      </trkpt>
      <trkpt lat="45.9905360" lon="5.6322820">
        <ele>1106.2</ele>
        <time>2022-07-25T15:35:17Z</time>
      </trkpt>
      <trkpt lat="45.9905350" lon="5.6322880">
        <ele>1106.2</ele>
        <time>2022-07-25T15:35:18Z</time>
      </trkpt>
      <trkpt lat="45.9905350" lon="5.6322910">
        <ele>1106.2</ele>
        <time>2022-07-25T15:35:19Z</time>
      </trkpt>
      <trkpt lat="45.9905360" lon="5.6322960">
        <ele>1106.2</ele>
        <time>2022-07-25T15:35:20Z</time>
      </trkpt>
      <trkpt lat="45.9905370" lon="5.6322980">
        <ele>1106.2</ele>
        <time>2022-07-25T15:35:21Z</time>
      </trkpt>
      <trkpt lat="45.9905370" lon="5.6323000">
        <ele>1106.2</ele>
        <time>2022-07-25T15:35:22Z</time>
      </trkpt>
      <trkpt lat="45.9905380" lon="5.6323030">
        <ele>1106.2</ele>
        <time>2022-07-25T15:35:23Z</time>
      </trkpt>
      <trkpt lat="45.9905380" lon="5.6323040">
        <ele>1106.2</ele>
        <time>2022-07-25T15:35:24Z</time>
      </trkpt>
      <trkpt lat="45.9905380" lon="5.6323060">
        <ele>1106.3</ele>
        <time>2022-07-25T15:35:25Z</time>
      </trkpt>
      <trkpt lat="45.9905380" lon="5.6323060">
        <ele>1106.3</ele>
        <time>2022-07-25T15:35:26Z</time>
      </trkpt>
      <trkpt lat="45.9905070" lon="5.6323350">
        <ele>1106.4</ele>
        <time>2022-07-25T15:36:03Z</time>
      </trkpt>
      <trkpt lat="45.9905000" lon="5.6323310">
        <ele>1106.4</ele>
        <time>2022-07-25T15:36:04Z</time>
      </trkpt>
      <trkpt lat="45.9904880" lon="5.6323290">
        <ele>1106.4</ele>
        <time>2022-07-25T15:36:05Z</time>
      </trkpt>
      <trkpt lat="45.9904750" lon="5.6323290">
        <ele>1106.5</ele>
        <time>2022-07-25T15:36:06Z</time>
      </trkpt>
      <trkpt lat="45.9904700" lon="5.6323370">
        <ele>1106.5</ele>
        <time>2022-07-25T15:36:07Z</time>
      </trkpt>
      <trkpt lat="45.9904300" lon="5.6323530">
        <ele>1106.7</ele>
        <time>2022-07-25T15:36:09Z</time>
      </trkpt>
      <trkpt lat="45.9903980" lon="5.6323450">
        <ele>1106.8</ele>
        <time>2022-07-25T15:36:10Z</time>
      </trkpt>
      <trkpt lat="45.9903660" lon="5.6323420">
        <ele>1106.9</ele>
        <time>2022-07-25T15:36:11Z</time>
      </trkpt>
      <trkpt lat="45.9903320" lon="5.6323330">
        <ele>1107.0</ele>
        <time>2022-07-25T15:36:12Z</time>
      </trkpt>
      <trkpt lat="45.9902990" lon="5.6323210">
        <ele>1107.1</ele>
        <time>2022-07-25T15:36:13Z</time>
      </trkpt>
      <trkpt lat="45.9902570" lon="5.6323100">
        <ele>1107.2</ele>
        <time>2022-07-25T15:36:15Z</time>
      </trkpt>
      <trkpt lat="45.9902170" lon="5.6323000">
        <ele>1107.4</ele>
        <time>2022-07-25T15:36:16Z</time>
      </trkpt>
      <trkpt lat="45.9902020" lon="5.6322950">
        <ele>1107.4</ele>
        <time>2022-07-25T15:36:17Z</time>
      </trkpt>
      <trkpt lat="45.9901550" lon="5.6322920">
        <ele>1107.5</ele>
        <time>2022-07-25T15:36:19Z</time>
      </trkpt>
      <trkpt lat="45.9901150" lon="5.6322940">
        <ele>1107.6</ele>
        <time>2022-07-25T15:36:20Z</time>
      </trkpt>
      <trkpt lat="45.9901020" lon="5.6322960">
        <ele>1107.7</ele>
        <time>2022-07-25T15:36:21Z</time>
      </trkpt>
      <trkpt lat="45.9900630" lon="5.6322990">
        <ele>1107.7</ele>
        <time>2022-07-25T15:36:22Z</time>
      </trkpt>
      <trkpt lat="45.9900320" lon="5.6322990">
        <ele>1107.8</ele>
        <time>2022-07-25T15:36:23Z</time>
      </trkpt>
      <trkpt lat="45.9900030" lon="5.6322990">
        <ele>1107.8</ele>
        <time>2022-07-25T15:36:24Z</time>
      </trkpt>
      <trkpt lat="45.9899730" lon="5.6322970">
        <ele>1107.9</ele>
        <time>2022-07-25T15:36:25Z</time>
      </trkpt>
      <trkpt lat="45.9899370" lon="5.6323010">
        <ele>1107.9</ele>
        <time>2022-07-25T15:36:26Z</time>
      </trkpt>
      <trkpt lat="45.9898990" lon="5.6323060">
        <ele>1107.9</ele>
        <time>2022-07-25T15:36:27Z</time>
      </trkpt>
      <trkpt lat="45.9898590" lon="5.6323060">
        <ele>1107.8</ele>
        <time>2022-07-25T15:36:28Z</time>
      </trkpt>
      <trkpt lat="45.9898210" lon="5.6323130">
        <ele>1107.8</ele>
        <time>2022-07-25T15:36:29Z</time>
      </trkpt>
      <trkpt lat="45.9897710" lon="5.6323180">
        <ele>1107.8</ele>
        <time>2022-07-25T15:36:30Z</time>
      </trkpt>
      <trkpt lat="45.9897310" lon="5.6323300">
        <ele>1107.7</ele>
        <time>2022-07-25T15:36:32Z</time>
      </trkpt>
      <trkpt lat="45.9896830" lon="5.6323440">
        <ele>1107.7</ele>
        <time>2022-07-25T15:36:33Z</time>
      </trkpt>
      <trkpt lat="45.9896400" lon="5.6323540">
        <ele>1107.6</ele>
        <time>2022-07-25T15:36:34Z</time>
      </trkpt>
      <trkpt lat="45.9896030" lon="5.6323640">
        <ele>1107.5</ele>
        <time>2022-07-25T15:36:35Z</time>
      </trkpt>
      <trkpt lat="45.9895520" lon="5.6323750">
        <ele>1107.5</ele>
        <time>2022-07-25T15:36:37Z</time>
      </trkpt>
      <trkpt lat="45.9895150" lon="5.6323830">
        <ele>1107.4</ele>
        <time>2022-07-25T15:36:38Z</time>
      </trkpt>
      <trkpt lat="45.9894790" lon="5.6323940">
        <ele>1107.3</ele>
        <time>2022-07-25T15:36:39Z</time>
      </trkpt>
      <trkpt lat="45.9894460" lon="5.6324050">
        <ele>1107.2</ele>
        <time>2022-07-25T15:36:40Z</time>
      </trkpt>
      <trkpt lat="45.9894020" lon="5.6324190">
        <ele>1107.1</ele>
        <time>2022-07-25T15:36:41Z</time>
      </trkpt>
      <trkpt lat="45.9893560" lon="5.6324410">
        <ele>1106.9</ele>
        <time>2022-07-25T15:36:42Z</time>
      </trkpt>
      <trkpt lat="45.9893220" lon="5.6324660">
        <ele>1106.8</ele>
        <time>2022-07-25T15:36:43Z</time>
      </trkpt>
      <trkpt lat="45.9892740" lon="5.6324940">
        <ele>1106.6</ele>
        <time>2022-07-25T15:36:44Z</time>
      </trkpt>
      <trkpt lat="45.9891850" lon="5.6325360">
        <ele>1106.3</ele>
        <time>2022-07-25T15:36:45Z</time>
      </trkpt>
      <trkpt lat="45.9891370" lon="5.6325660">
        <ele>1106.1</ele>
        <time>2022-07-25T15:36:46Z</time>
      </trkpt>
      <trkpt lat="45.9890870" lon="5.6326000">
        <ele>1105.9</ele>
        <time>2022-07-25T15:36:47Z</time>
      </trkpt>
      <trkpt lat="45.9890330" lon="5.6326330">
        <ele>1105.7</ele>
        <time>2022-07-25T15:36:48Z</time>
      </trkpt>
      <trkpt lat="45.9889810" lon="5.6326590">
        <ele>1105.5</ele>
        <time>2022-07-25T15:36:49Z</time>
      </trkpt>
      <trkpt lat="45.9889250" lon="5.6326800">
        <ele>1105.3</ele>
        <time>2022-07-25T15:36:50Z</time>
      </trkpt>
      <trkpt lat="45.9888660" lon="5.6326870">
        <ele>1105.1</ele>
        <time>2022-07-25T15:36:51Z</time>
      </trkpt>
      <trkpt lat="45.9888060" lon="5.6326830">
        <ele>1105.0</ele>
        <time>2022-07-25T15:36:52Z</time>
      </trkpt>
      <trkpt lat="45.9887460" lon="5.6326770">
        <ele>1104.8</ele>
        <time>2022-07-25T15:36:53Z</time>
      </trkpt>
      <trkpt lat="45.9886860" lon="5.6326640">
        <ele>1104.6</ele>
        <time>2022-07-25T15:36:54Z</time>
      </trkpt>
      <trkpt lat="45.9886270" lon="5.6326480">
        <ele>1104.5</ele>
        <time>2022-07-25T15:36:55Z</time>
      </trkpt>
      <trkpt lat="45.9885710" lon="5.6326460">
        <ele>1104.5</ele>
        <time>2022-07-25T15:36:56Z</time>
      </trkpt>
      <trkpt lat="45.9885150" lon="5.6326450">
        <ele>1104.4</ele>
        <time>2022-07-25T15:36:57Z</time>
      </trkpt>
      <trkpt lat="45.9884580" lon="5.6326480">
        <ele>1104.3</ele>
        <time>2022-07-25T15:36:58Z</time>
      </trkpt>
      <trkpt lat="45.9884030" lon="5.6326650">
        <ele>1104.3</ele>
        <time>2022-07-25T15:36:59Z</time>
      </trkpt>
      <trkpt lat="45.9883520" lon="5.6326890">
        <ele>1104.2</ele>
        <time>2022-07-25T15:37:00Z</time>
      </trkpt>
      <trkpt lat="45.9883060" lon="5.6327050">
        <ele>1104.1</ele>
        <time>2022-07-25T15:37:01Z</time>
      </trkpt>
      <trkpt lat="45.9882590" lon="5.6327190">
        <ele>1104.1</ele>
        <time>2022-07-25T15:37:02Z</time>
      </trkpt>
      <trkpt lat="45.9882120" lon="5.6327150">
        <ele>1104.0</ele>
        <time>2022-07-25T15:37:03Z</time>
      </trkpt>
      <trkpt lat="45.9881630" lon="5.6327320">
        <ele>1104.0</ele>
        <time>2022-07-25T15:37:04Z</time>
      </trkpt>
      <trkpt lat="45.9881120" lon="5.6327530">
        <ele>1103.9</ele>
        <time>2022-07-25T15:37:05Z</time>
      </trkpt>
      <trkpt lat="45.9880610" lon="5.6327570">
        <ele>1103.8</ele>
        <time>2022-07-25T15:37:06Z</time>
      </trkpt>
      <trkpt lat="45.9880090" lon="5.6327650">
        <ele>1103.8</ele>
        <time>2022-07-25T15:37:07Z</time>
      </trkpt>
      <trkpt lat="45.9879590" lon="5.6327720">
        <ele>1103.7</ele>
        <time>2022-07-25T15:37:08Z</time>
      </trkpt>
      <trkpt lat="45.9879090" lon="5.6327820">
        <ele>1103.7</ele>
        <time>2022-07-25T15:37:09Z</time>
      </trkpt>
      <trkpt lat="45.9878590" lon="5.6328040">
        <ele>1103.6</ele>
        <time>2022-07-25T15:37:10Z</time>
      </trkpt>
      <trkpt lat="45.9878080" lon="5.6328080">
        <ele>1103.5</ele>
        <time>2022-07-25T15:37:11Z</time>
      </trkpt>
      <trkpt lat="45.9877580" lon="5.6328040">
        <ele>1103.5</ele>
        <time>2022-07-25T15:37:12Z</time>
      </trkpt>
      <trkpt lat="45.9877050" lon="5.6328150">
        <ele>1103.5</ele>
        <time>2022-07-25T15:37:13Z</time>
      </trkpt>
      <trkpt lat="45.9876530" lon="5.6328350">
        <ele>1103.4</ele>
        <time>2022-07-25T15:37:14Z</time>
      </trkpt>
      <trkpt lat="45.9876020" lon="5.6328460">
        <ele>1103.5</ele>
        <time>2022-07-25T15:37:15Z</time>
      </trkpt>
      <trkpt lat="45.9875520" lon="5.6328510">
        <ele>1103.5</ele>
        <time>2022-07-25T15:37:16Z</time>
      </trkpt>
      <trkpt lat="45.9875190" lon="5.6328430">
        <ele>1103.6</ele>
        <time>2022-07-25T15:37:17Z</time>
      </trkpt>
      <trkpt lat="45.9874860" lon="5.6328350">
        <ele>1103.7</ele>
        <time>2022-07-25T15:37:18Z</time>
      </trkpt>
      <trkpt lat="45.9874580" lon="5.6328330">
        <ele>1103.7</ele>
        <time>2022-07-25T15:37:19Z</time>
      </trkpt>
      <trkpt lat="45.9874290" lon="5.6328360">
        <ele>1103.8</ele>
        <time>2022-07-25T15:37:20Z</time>
      </trkpt>
      <trkpt lat="45.9873980" lon="5.6328400">
        <ele>1103.8</ele>
        <time>2022-07-25T15:37:21Z</time>
      </trkpt>
      <trkpt lat="45.9873650" lon="5.6328460">
        <ele>1103.9</ele>
        <time>2022-07-25T15:37:22Z</time>
      </trkpt>
      <trkpt lat="45.9873340" lon="5.6328560">
        <ele>1103.9</ele>
        <time>2022-07-25T15:37:23Z</time>
      </trkpt>
      <trkpt lat="45.9873840" lon="5.6328700">
        <ele>1103.9</ele>
        <time>2022-07-25T15:37:25Z</time>
      </trkpt>
      <trkpt lat="45.9872610" lon="5.6328940">
        <ele>1103.4</ele>
        <time>2022-07-25T15:37:26Z</time>
      </trkpt>
      <trkpt lat="45.9871870" lon="5.6329140">
        <ele>1103.1</ele>
        <time>2022-07-25T15:37:27Z</time>
      </trkpt>
      <trkpt lat="45.9871100" lon="5.6329340">
        <ele>1102.6</ele>
        <time>2022-07-25T15:37:28Z</time>
      </trkpt>
      <trkpt lat="45.9870380" lon="5.6329390">
        <ele>1102.3</ele>
        <time>2022-07-25T15:37:29Z</time>
      </trkpt>
      <trkpt lat="45.9869700" lon="5.6329250">
        <ele>1102.0</ele>
        <time>2022-07-25T15:37:30Z</time>
      </trkpt>
      <trkpt lat="45.9869060" lon="5.6328980">
        <ele>1101.7</ele>
        <time>2022-07-25T15:37:31Z</time>
      </trkpt>
      <trkpt lat="45.9868450" lon="5.6328720">
        <ele>1101.5</ele>
        <time>2022-07-25T15:37:32Z</time>
      </trkpt>
      <trkpt lat="45.9867840" lon="5.6328390">
        <ele>1101.3</ele>
        <time>2022-07-25T15:37:33Z</time>
      </trkpt>
      <trkpt lat="45.9867230" lon="5.6328140">
        <ele>1101.2</ele>
        <time>2022-07-25T15:37:34Z</time>
      </trkpt>
      <trkpt lat="45.9866610" lon="5.6327970">
        <ele>1101.0</ele>
        <time>2022-07-25T15:37:35Z</time>
      </trkpt>
      <trkpt lat="45.9865950" lon="5.6327820">
        <ele>1100.9</ele>
        <time>2022-07-25T15:37:36Z</time>
      </trkpt>
      <trkpt lat="45.9865330" lon="5.6327750">
        <ele>1100.8</ele>
        <time>2022-07-25T15:37:37Z</time>
      </trkpt>
      <trkpt lat="45.9864780" lon="5.6327600">
        <ele>1100.7</ele>
        <time>2022-07-25T15:37:38Z</time>
      </trkpt>
      <trkpt lat="45.9864240" lon="5.6327580">
        <ele>1100.7</ele>
        <time>2022-07-25T15:37:39Z</time>
      </trkpt>
      <trkpt lat="45.9863730" lon="5.6327640">
        <ele>1100.7</ele>
        <time>2022-07-25T15:37:40Z</time>
      </trkpt>
      <trkpt lat="45.9863230" lon="5.6327670">
        <ele>1100.7</ele>
        <time>2022-07-25T15:37:41Z</time>
      </trkpt>
      <trkpt lat="45.9862750" lon="5.6327630">
        <ele>1100.6</ele>
        <time>2022-07-25T15:37:42Z</time>
      </trkpt>
      <trkpt lat="45.9862290" lon="5.6327500">
        <ele>1100.6</ele>
        <time>2022-07-25T15:37:43Z</time>
      </trkpt>
      <trkpt lat="45.9861840" lon="5.6327340">
        <ele>1100.7</ele>
        <time>2022-07-25T15:37:44Z</time>
      </trkpt>
      <trkpt lat="45.9861540" lon="5.6327140">
        <ele>1100.7</ele>
        <time>2022-07-25T15:37:45Z</time>
      </trkpt>
      <trkpt lat="45.9861100" lon="5.6327000">
        <ele>1100.7</ele>
        <time>2022-07-25T15:37:46Z</time>
      </trkpt>
      <trkpt lat="45.9860770" lon="5.6326850">
        <ele>1100.7</ele>
        <time>2022-07-25T15:37:47Z</time>
      </trkpt>
      <trkpt lat="45.9860360" lon="5.6326720">
        <ele>1100.7</ele>
        <time>2022-07-25T15:37:48Z</time>
      </trkpt>
      <trkpt lat="45.9859910" lon="5.6326730">
        <ele>1100.6</ele>
        <time>2022-07-25T15:37:49Z</time>
      </trkpt>
      <trkpt lat="45.9859560" lon="5.6326720">
        <ele>1100.6</ele>
        <time>2022-07-25T15:37:50Z</time>
      </trkpt>
      <trkpt lat="45.9859150" lon="5.6326690">
        <ele>1100.6</ele>
        <time>2022-07-25T15:37:51Z</time>
      </trkpt>
      <trkpt lat="45.9858780" lon="5.6326710">
        <ele>1100.6</ele>
        <time>2022-07-25T15:37:52Z</time>
      </trkpt>
      <trkpt lat="45.9858440" lon="5.6326820">
        <ele>1100.6</ele>
        <time>2022-07-25T15:37:53Z</time>
      </trkpt>
      <trkpt lat="45.9857940" lon="5.6327060">
        <ele>1100.5</ele>
        <time>2022-07-25T15:37:54Z</time>
      </trkpt>
      <trkpt lat="45.9857450" lon="5.6327290">
        <ele>1100.4</ele>
        <time>2022-07-25T15:37:55Z</time>
      </trkpt>
      <trkpt lat="45.9857080" lon="5.6327510">
        <ele>1100.3</ele>
        <time>2022-07-25T15:37:56Z</time>
      </trkpt>
      <trkpt lat="45.9856800" lon="5.6327710">
        <ele>1100.2</ele>
        <time>2022-07-25T15:37:57Z</time>
      </trkpt>
      <trkpt lat="45.9856330" lon="5.6328000">
        <ele>1100.1</ele>
        <time>2022-07-25T15:37:58Z</time>
      </trkpt>
      <trkpt lat="45.9855940" lon="5.6328240">
        <ele>1099.9</ele>
        <time>2022-07-25T15:37:59Z</time>
      </trkpt>
      <trkpt lat="45.9855460" lon="5.6328560">
        <ele>1099.7</ele>
        <time>2022-07-25T15:38:00Z</time>
      </trkpt>
      <trkpt lat="45.9854980" lon="5.6328900">
        <ele>1099.4</ele>
        <time>2022-07-25T15:38:01Z</time>
      </trkpt>
      <trkpt lat="45.9854540" lon="5.6329080">
        <ele>1099.2</ele>
        <time>2022-07-25T15:38:02Z</time>
      </trkpt>
      <trkpt lat="45.9854220" lon="5.6329200">
        <ele>1099.0</ele>
        <time>2022-07-25T15:38:03Z</time>
      </trkpt>
      <trkpt lat="45.9853850" lon="5.6329380">
        <ele>1098.8</ele>
        <time>2022-07-25T15:38:04Z</time>
      </trkpt>
      <trkpt lat="45.9853690" lon="5.6329450">
        <ele>1098.8</ele>
        <time>2022-07-25T15:38:05Z</time>
      </trkpt>
      <trkpt lat="45.9853250" lon="5.6329680">
        <ele>1098.5</ele>
        <time>2022-07-25T15:38:06Z</time>
      </trkpt>
      <trkpt lat="45.9852990" lon="5.6329820">
        <ele>1098.4</ele>
        <time>2022-07-25T15:38:07Z</time>
      </trkpt>
      <trkpt lat="45.9852680" lon="5.6329970">
        <ele>1098.2</ele>
        <time>2022-07-25T15:38:08Z</time>
      </trkpt>
      <trkpt lat="45.9852520" lon="5.6330080">
        <ele>1098.1</ele>
        <time>2022-07-25T15:38:09Z</time>
      </trkpt>
      <trkpt lat="45.9852230" lon="5.6330340">
        <ele>1098.0</ele>
        <time>2022-07-25T15:38:10Z</time>
      </trkpt>
      <trkpt lat="45.9851980" lon="5.6330500">
        <ele>1097.8</ele>
        <time>2022-07-25T15:38:11Z</time>
      </trkpt>
      <trkpt lat="45.9851660" lon="5.6330660">
        <ele>1097.7</ele>
        <time>2022-07-25T15:38:12Z</time>
      </trkpt>
      <trkpt lat="45.9851340" lon="5.6330940">
        <ele>1097.6</ele>
        <time>2022-07-25T15:38:13Z</time>
      </trkpt>
      <trkpt lat="45.9851110" lon="5.6331200">
        <ele>1097.5</ele>
        <time>2022-07-25T15:38:14Z</time>
      </trkpt>
      <trkpt lat="45.9850810" lon="5.6331520">
        <ele>1097.3</ele>
        <time>2022-07-25T15:38:15Z</time>
      </trkpt>
      <trkpt lat="45.9850510" lon="5.6331860">
        <ele>1097.2</ele>
        <time>2022-07-25T15:38:16Z</time>
      </trkpt>
      <trkpt lat="45.9850190" lon="5.6332180">
        <ele>1097.1</ele>
        <time>2022-07-25T15:38:17Z</time>
      </trkpt>
      <trkpt lat="45.9849780" lon="5.6332550">
        <ele>1096.9</ele>
        <time>2022-07-25T15:38:18Z</time>
      </trkpt>
      <trkpt lat="45.9849540" lon="5.6332850">
        <ele>1096.7</ele>
        <time>2022-07-25T15:38:19Z</time>
      </trkpt>
      <trkpt lat="45.9849260" lon="5.6333130">
        <ele>1096.5</ele>
        <time>2022-07-25T15:38:20Z</time>
      </trkpt>
      <trkpt lat="45.9848990" lon="5.6333420">
        <ele>1096.4</ele>
        <time>2022-07-25T15:38:21Z</time>
      </trkpt>
      <trkpt lat="45.9848890" lon="5.6333880">
        <ele>1096.2</ele>
        <time>2022-07-25T15:38:22Z</time>
      </trkpt>
      <trkpt lat="45.9848890" lon="5.6334020">
        <ele>1096.2</ele>
        <time>2022-07-25T15:38:23Z</time>
      </trkpt>
      <trkpt lat="45.9848740" lon="5.6334520">
        <ele>1096.0</ele>
        <time>2022-07-25T15:38:24Z</time>
      </trkpt>
      <trkpt lat="45.9848600" lon="5.6334910">
        <ele>1095.8</ele>
        <time>2022-07-25T15:38:25Z</time>
      </trkpt>
      <trkpt lat="45.9848430" lon="5.6335300">
        <ele>1095.6</ele>
        <time>2022-07-25T15:38:26Z</time>
      </trkpt>
      <trkpt lat="45.9848230" lon="5.6335860">
        <ele>1095.3</ele>
        <time>2022-07-25T15:38:27Z</time>
      </trkpt>
      <trkpt lat="45.9848000" lon="5.6336470">
        <ele>1095.0</ele>
        <time>2022-07-25T15:38:28Z</time>
      </trkpt>
      <trkpt lat="45.9847670" lon="5.6337180">
        <ele>1094.6</ele>
        <time>2022-07-25T15:38:29Z</time>
      </trkpt>
      <trkpt lat="45.9847300" lon="5.6337910">
        <ele>1094.1</ele>
        <time>2022-07-25T15:38:30Z</time>
      </trkpt>
      <trkpt lat="45.9846920" lon="5.6338650">
        <ele>1093.6</ele>
        <time>2022-07-25T15:38:31Z</time>
      </trkpt>
      <trkpt lat="45.9846480" lon="5.6339340">
        <ele>1093.0</ele>
        <time>2022-07-25T15:38:32Z</time>
      </trkpt>
      <trkpt lat="45.9845980" lon="5.6339930">
        <ele>1092.4</ele>
        <time>2022-07-25T15:38:33Z</time>
      </trkpt>
      <trkpt lat="45.9845570" lon="5.6340590">
        <ele>1091.8</ele>
        <time>2022-07-25T15:38:34Z</time>
      </trkpt>
      <trkpt lat="45.9845290" lon="5.6341330">
        <ele>1091.2</ele>
        <time>2022-07-25T15:38:35Z</time>
      </trkpt>
      <trkpt lat="45.9844800" lon="5.6342010">
        <ele>1090.6</ele>
        <time>2022-07-25T15:38:36Z</time>
      </trkpt>
      <trkpt lat="45.9844230" lon="5.6342640">
        <ele>1089.8</ele>
        <time>2022-07-25T15:38:37Z</time>
      </trkpt>
      <trkpt lat="45.9843560" lon="5.6343240">
        <ele>1089.0</ele>
        <time>2022-07-25T15:38:38Z</time>
      </trkpt>
      <trkpt lat="45.9842860" lon="5.6343780">
        <ele>1088.7</ele>
        <time>2022-07-25T15:38:39Z</time>
      </trkpt>
      <trkpt lat="45.9842170" lon="5.6344380">
        <ele>1088.4</ele>
        <time>2022-07-25T15:38:40Z</time>
      </trkpt>
      <trkpt lat="45.9841310" lon="5.6344880">
        <ele>1088.1</ele>
        <time>2022-07-25T15:38:41Z</time>
      </trkpt>
      <trkpt lat="45.9840710" lon="5.6345290">
        <ele>1087.9</ele>
        <time>2022-07-25T15:38:42Z</time>
      </trkpt>
      <trkpt lat="45.9839990" lon="5.6345450">
        <ele>1087.7</ele>
        <time>2022-07-25T15:38:43Z</time>
      </trkpt>
      <trkpt lat="45.9839300" lon="5.6345580">
        <ele>1087.5</ele>
        <time>2022-07-25T15:38:44Z</time>
      </trkpt>
      <trkpt lat="45.9838580" lon="5.6345680">
        <ele>1087.2</ele>
        <time>2022-07-25T15:38:45Z</time>
      </trkpt>
      <trkpt lat="45.9837830" lon="5.6345790">
        <ele>1087.0</ele>
        <time>2022-07-25T15:38:46Z</time>
      </trkpt>
      <trkpt lat="45.9837150" lon="5.6345870">
        <ele>1086.7</ele>
        <time>2022-07-25T15:38:47Z</time>
      </trkpt>
      <trkpt lat="45.9836430" lon="5.6345870">
        <ele>1086.5</ele>
        <time>2022-07-25T15:38:48Z</time>
      </trkpt>
      <trkpt lat="45.9835770" lon="5.6345920">
        <ele>1086.4</ele>
        <time>2022-07-25T15:38:49Z</time>
      </trkpt>
      <trkpt lat="45.9835230" lon="5.6346070">
        <ele>1086.2</ele>
        <time>2022-07-25T15:38:50Z</time>
      </trkpt>
      <trkpt lat="45.9834590" lon="5.6346150">
        <ele>1086.1</ele>
        <time>2022-07-25T15:38:51Z</time>
      </trkpt>
      <trkpt lat="45.9833930" lon="5.6346170">
        <ele>1085.9</ele>
        <time>2022-07-25T15:38:52Z</time>
      </trkpt>
      <trkpt lat="45.9833320" lon="5.6346060">
        <ele>1085.8</ele>
        <time>2022-07-25T15:38:53Z</time>
      </trkpt>
      <trkpt lat="45.9832750" lon="5.6345690">
        <ele>1085.7</ele>
        <time>2022-07-25T15:38:54Z</time>
      </trkpt>
      <trkpt lat="45.9832210" lon="5.6345190">
        <ele>1085.7</ele>
        <time>2022-07-25T15:38:55Z</time>
      </trkpt>
      <trkpt lat="45.9831760" lon="5.6344750">
        <ele>1085.6</ele>
        <time>2022-07-25T15:38:56Z</time>
      </trkpt>
      <trkpt lat="45.9831280" lon="5.6344340">
        <ele>1085.6</ele>
        <time>2022-07-25T15:38:57Z</time>
      </trkpt>
      <trkpt lat="45.9830840" lon="5.6344060">
        <ele>1085.6</ele>
        <time>2022-07-25T15:38:58Z</time>
      </trkpt>
      <trkpt lat="45.9830350" lon="5.6343830">
        <ele>1085.7</ele>
        <time>2022-07-25T15:38:59Z</time>
      </trkpt>
      <trkpt lat="45.9829980" lon="5.6343630">
        <ele>1085.7</ele>
        <time>2022-07-25T15:39:00Z</time>
      </trkpt>
      <trkpt lat="45.9829660" lon="5.6343470">
        <ele>1085.7</ele>
        <time>2022-07-25T15:39:01Z</time>
      </trkpt>
      <trkpt lat="45.9829310" lon="5.6343280">
        <ele>1085.7</ele>
        <time>2022-07-25T15:39:02Z</time>
      </trkpt>
      <trkpt lat="45.9828920" lon="5.6343060">
        <ele>1085.7</ele>
        <time>2022-07-25T15:39:03Z</time>
      </trkpt>
      <trkpt lat="45.9828770" lon="5.6342990">
        <ele>1085.7</ele>
        <time>2022-07-25T15:39:04Z</time>
      </trkpt>
      <trkpt lat="45.9828470" lon="5.6342700">
        <ele>1085.7</ele>
        <time>2022-07-25T15:39:05Z</time>
      </trkpt>
      <trkpt lat="45.9828370" lon="5.6342650">
        <ele>1085.7</ele>
        <time>2022-07-25T15:39:06Z</time>
      </trkpt>
      <trkpt lat="45.9828120" lon="5.6342750">
        <ele>1085.6</ele>
        <time>2022-07-25T15:39:07Z</time>
      </trkpt>
      <trkpt lat="45.9827770" lon="5.6343090">
        <ele>1085.5</ele>
        <time>2022-07-25T15:39:09Z</time>
      </trkpt>
      <trkpt lat="45.9827420" lon="5.6343420">
        <ele>1085.3</ele>
        <time>2022-07-25T15:39:10Z</time>
      </trkpt>
      <trkpt lat="45.9827080" lon="5.6343750">
        <ele>1085.2</ele>
        <time>2022-07-25T15:39:11Z</time>
      </trkpt>
      <trkpt lat="45.9826760" lon="5.6344080">
        <ele>1085.0</ele>
        <time>2022-07-25T15:39:12Z</time>
      </trkpt>
      <trkpt lat="45.9826390" lon="5.6344470">
        <ele>1084.8</ele>
        <time>2022-07-25T15:39:13Z</time>
      </trkpt>
      <trkpt lat="45.9826180" lon="5.6344740">
        <ele>1084.7</ele>
        <time>2022-07-25T15:39:14Z</time>
      </trkpt>
      <trkpt lat="45.9825940" lon="5.6345090">
        <ele>1084.7</ele>
        <time>2022-07-25T15:39:15Z</time>
      </trkpt>
      <trkpt lat="45.9825860" lon="5.6345200">
        <ele>1084.7</ele>
        <time>2022-07-25T15:39:16Z</time>
      </trkpt>
      <trkpt lat="45.9825700" lon="5.6345340">
        <ele>1084.7</ele>
        <time>2022-07-25T15:39:17Z</time>
      </trkpt>
      <trkpt lat="45.9825570" lon="5.6345670">
        <ele>1084.7</ele>
        <time>2022-07-25T15:39:19Z</time>
      </trkpt>
      <trkpt lat="45.9825550" lon="5.6345820">
        <ele>1084.7</ele>
        <time>2022-07-25T15:39:20Z</time>
      </trkpt>
      <trkpt lat="45.9825680" lon="5.6346170">
        <ele>1084.6</ele>
        <time>2022-07-25T15:39:22Z</time>
      </trkpt>
      <trkpt lat="45.9825670" lon="5.6346190">
        <ele>1084.6</ele>
        <time>2022-07-25T15:39:23Z</time>
      </trkpt>
      <trkpt lat="45.9825790" lon="5.6345830">
        <ele>1084.6</ele>
        <time>2022-07-25T15:39:24Z</time>
      </trkpt>
      <trkpt lat="45.9825870" lon="5.6345040">
        <ele>1084.5</ele>
        <time>2022-07-25T15:39:26Z</time>
      </trkpt>
      <trkpt lat="45.9825540" lon="5.6344980">
        <ele>1084.4</ele>
        <time>2022-07-25T15:39:27Z</time>
      </trkpt>
      <trkpt lat="45.9825390" lon="5.6345000">
        <ele>1084.4</ele>
        <time>2022-07-25T15:39:28Z</time>
      </trkpt>
      <trkpt lat="45.9825040" lon="5.6344990">
        <ele>1084.3</ele>
        <time>2022-07-25T15:39:29Z</time>
      </trkpt>
      <trkpt lat="45.9824700" lon="5.6344960">
        <ele>1084.3</ele>
        <time>2022-07-25T15:39:30Z</time>
      </trkpt>
      <trkpt lat="45.9824360" lon="5.6344980">
        <ele>1084.2</ele>
        <time>2022-07-25T15:39:31Z</time>
      </trkpt>
      <trkpt lat="45.9824090" lon="5.6345150">
        <ele>1084.2</ele>
        <time>2022-07-25T15:39:32Z</time>
      </trkpt>
      <trkpt lat="45.9823800" lon="5.6345420">
        <ele>1084.1</ele>
        <time>2022-07-25T15:39:33Z</time>
      </trkpt>
      <trkpt lat="45.9823540" lon="5.6345760">
        <ele>1084.0</ele>
        <time>2022-07-25T15:39:34Z</time>
      </trkpt>
      <trkpt lat="45.9823460" lon="5.6345870">
        <ele>1084.0</ele>
        <time>2022-07-25T15:39:35Z</time>
      </trkpt>
      <trkpt lat="45.9823360" lon="5.6346170">
        <ele>1084.0</ele>
        <time>2022-07-25T15:39:36Z</time>
      </trkpt>
      <trkpt lat="45.9823350" lon="5.6346310">
        <ele>1083.9</ele>
        <time>2022-07-25T15:39:37Z</time>
      </trkpt>
      <trkpt lat="45.9823340" lon="5.6346440">
        <ele>1083.9</ele>
        <time>2022-07-25T15:39:38Z</time>
      </trkpt>
      <trkpt lat="45.9823390" lon="5.6346950">
        <ele>1083.9</ele>
        <time>2022-07-25T15:39:39Z</time>
      </trkpt>
      <trkpt lat="45.9823400" lon="5.6347130">
        <ele>1083.9</ele>
        <time>2022-07-25T15:39:40Z</time>
      </trkpt>
      <trkpt lat="45.9823470" lon="5.6347340">
        <ele>1083.9</ele>
        <time>2022-07-25T15:39:41Z</time>
      </trkpt>
      <trkpt lat="45.9823590" lon="5.6347520">
        <ele>1083.9</ele>
        <time>2022-07-25T15:39:42Z</time>
      </trkpt>
      <trkpt lat="45.9823790" lon="5.6347630">
        <ele>1083.9</ele>
        <time>2022-07-25T15:39:43Z</time>
      </trkpt>
      <trkpt lat="45.9823880" lon="5.6347690">
        <ele>1083.9</ele>
        <time>2022-07-25T15:39:44Z</time>
      </trkpt>
      <trkpt lat="45.9823970" lon="5.6347760">
        <ele>1083.9</ele>
        <time>2022-07-25T15:39:45Z</time>
      </trkpt>
      <trkpt lat="45.9824150" lon="5.6347900">
        <ele>1083.9</ele>
        <time>2022-07-25T15:39:46Z</time>
      </trkpt>
      <trkpt lat="45.9824270" lon="5.6348000">
        <ele>1083.9</ele>
        <time>2022-07-25T15:39:47Z</time>
      </trkpt>
      <trkpt lat="45.9824400" lon="5.6348180">
        <ele>1083.9</ele>
        <time>2022-07-25T15:39:48Z</time>
      </trkpt>
      <trkpt lat="45.9824530" lon="5.6348350">
        <ele>1083.9</ele>
        <time>2022-07-25T15:39:49Z</time>
      </trkpt>
      <trkpt lat="45.9824640" lon="5.6348400">
        <ele>1083.9</ele>
        <time>2022-07-25T15:39:50Z</time>
      </trkpt>
      <trkpt lat="45.9824770" lon="5.6348310">
        <ele>1083.9</ele>
        <time>2022-07-25T15:39:51Z</time>
      </trkpt>
      <trkpt lat="45.9824810" lon="5.6348240">
        <ele>1083.9</ele>
        <time>2022-07-25T15:39:52Z</time>
      </trkpt>
      <trkpt lat="45.9824820" lon="5.6348150">
        <ele>1083.9</ele>
        <time>2022-07-25T15:39:53Z</time>
      </trkpt>
      <trkpt lat="45.9824760" lon="5.6348100">
        <ele>1083.9</ele>
        <time>2022-07-25T15:39:54Z</time>
      </trkpt>
      <trkpt lat="45.9824720" lon="5.6348070">
        <ele>1083.9</ele>
        <time>2022-07-25T15:39:55Z</time>
      </trkpt>
      <trkpt lat="45.9824670" lon="5.6348040">
        <ele>1083.9</ele>
        <time>2022-07-25T15:39:56Z</time>
      </trkpt>
      <trkpt lat="45.9824630" lon="5.6348000">
        <ele>1083.9</ele>
        <time>2022-07-25T15:39:57Z</time>
      </trkpt>
      <trkpt lat="45.9824610" lon="5.6347980">
        <ele>1083.9</ele>
        <time>2022-07-25T15:39:58Z</time>
      </trkpt>
      <trkpt lat="45.9824600" lon="5.6347970">
        <ele>1083.9</ele>
        <time>2022-07-25T15:39:59Z</time>
      </trkpt>
      <trkpt lat="45.9824590" lon="5.6347960">
        <ele>1083.9</ele>
        <time>2022-07-25T15:40:00Z</time>
      </trkpt>
      <trkpt lat="45.9824590" lon="5.6347950">
        <ele>1083.9</ele>
        <time>2022-07-25T15:40:01Z</time>
      </trkpt>
      <trkpt lat="45.9824560" lon="5.6347940">
        <ele>1083.9</ele>
        <time>2022-07-25T15:40:02Z</time>
      </trkpt>
      <trkpt lat="45.9824560" lon="5.6347920">
        <ele>1083.9</ele>
        <time>2022-07-25T15:40:03Z</time>
      </trkpt>
      <trkpt lat="45.9824550" lon="5.6347900">
        <ele>1083.9</ele>
        <time>2022-07-25T15:40:04Z</time>
      </trkpt>
      <trkpt lat="45.9824550" lon="5.6347810">
        <ele>1083.9</ele>
        <time>2022-07-25T15:40:05Z</time>
      </trkpt>
      <trkpt lat="45.9824490" lon="5.6347570">
        <ele>1083.9</ele>
        <time>2022-07-25T15:40:06Z</time>
      </trkpt>
      <trkpt lat="45.9824320" lon="5.6347390">
        <ele>1083.9</ele>
        <time>2022-07-25T15:40:07Z</time>
      </trkpt>
      <trkpt lat="45.9824240" lon="5.6347340">
        <ele>1083.9</ele>
        <time>2022-07-25T15:40:08Z</time>
      </trkpt>
      <trkpt lat="45.9824150" lon="5.6347290">
        <ele>1083.9</ele>
        <time>2022-07-25T15:40:09Z</time>
      </trkpt>
      <trkpt lat="45.9823870" lon="5.6347120">
        <ele>1083.9</ele>
        <time>2022-07-25T15:40:10Z</time>
      </trkpt>
      <trkpt lat="45.9823750" lon="5.6347020">
        <ele>1083.9</ele>
        <time>2022-07-25T15:40:11Z</time>
      </trkpt>
      <trkpt lat="45.9823500" lon="5.6346710">
        <ele>1083.9</ele>
        <time>2022-07-25T15:40:12Z</time>
      </trkpt>
      <trkpt lat="45.9823260" lon="5.6346280">
        <ele>1083.9</ele>
        <time>2022-07-25T15:40:13Z</time>
      </trkpt>
      <trkpt lat="45.9823180" lon="5.6346100">
        <ele>1083.9</ele>
        <time>2022-07-25T15:40:14Z</time>
      </trkpt>
      <trkpt lat="45.9823120" lon="5.6345590">
        <ele>1083.9</ele>
        <time>2022-07-25T15:40:15Z</time>
      </trkpt>
      <trkpt lat="45.9823150" lon="5.6345450">
        <ele>1083.9</ele>
        <time>2022-07-25T15:40:16Z</time>
      </trkpt>
      <trkpt lat="45.9823480" lon="5.6345010">
        <ele>1084.0</ele>
        <time>2022-07-25T15:40:17Z</time>
      </trkpt>
      <trkpt lat="45.9823630" lon="5.6344850">
        <ele>1084.1</ele>
        <time>2022-07-25T15:40:18Z</time>
      </trkpt>
      <trkpt lat="45.9824040" lon="5.6344550">
        <ele>1084.2</ele>
        <time>2022-07-25T15:40:19Z</time>
      </trkpt>
      <trkpt lat="45.9824460" lon="5.6344330">
        <ele>1084.3</ele>
        <time>2022-07-25T15:40:20Z</time>
      </trkpt>
      <trkpt lat="45.9824840" lon="5.6344250">
        <ele>1084.4</ele>
        <time>2022-07-25T15:40:21Z</time>
      </trkpt>
      <trkpt lat="45.9825270" lon="5.6344310">
        <ele>1084.6</ele>
        <time>2022-07-25T15:40:22Z</time>
      </trkpt>
      <trkpt lat="45.9825740" lon="5.6344450">
        <ele>1084.7</ele>
        <time>2022-07-25T15:40:23Z</time>
      </trkpt>
      <trkpt lat="45.9826090" lon="5.6344640">
        <ele>1084.7</ele>
        <time>2022-07-25T15:40:24Z</time>
      </trkpt>
      <trkpt lat="45.9826540" lon="5.6344760">
        <ele>1084.7</ele>
        <time>2022-07-25T15:40:25Z</time>
      </trkpt>
      <trkpt lat="45.9826980" lon="5.6344840">
        <ele>1084.7</ele>
        <time>2022-07-25T15:40:26Z</time>
      </trkpt>
      <trkpt lat="45.9827420" lon="5.6344890">
        <ele>1084.6</ele>
        <time>2022-07-25T15:40:27Z</time>
      </trkpt>
      <trkpt lat="45.9827740" lon="5.6344930">
        <ele>1084.6</ele>
        <time>2022-07-25T15:40:28Z</time>
      </trkpt>
      <trkpt lat="45.9828110" lon="5.6344950">
        <ele>1084.6</ele>
        <time>2022-07-25T15:40:29Z</time>
      </trkpt>
      <trkpt lat="45.9828420" lon="5.6344920">
        <ele>1084.5</ele>
        <time>2022-07-25T15:40:30Z</time>
      </trkpt>
      <trkpt lat="45.9828550" lon="5.6344960">
        <ele>1084.5</ele>
        <time>2022-07-25T15:40:31Z</time>
      </trkpt>
      <trkpt lat="45.9828730" lon="5.6344990">
        <ele>1084.5</ele>
        <time>2022-07-25T15:40:32Z</time>
      </trkpt>
      <trkpt lat="45.9828980" lon="5.6345070">
        <ele>1084.5</ele>
        <time>2022-07-25T15:40:33Z</time>
      </trkpt>
      <trkpt lat="45.9829090" lon="5.6345100">
        <ele>1084.5</ele>
        <time>2022-07-25T15:40:34Z</time>
      </trkpt>
      <trkpt lat="45.9829430" lon="5.6345120">
        <ele>1084.5</ele>
        <time>2022-07-25T15:40:35Z</time>
      </trkpt>
      <trkpt lat="45.9829550" lon="5.6345120">
        <ele>1084.5</ele>
        <time>2022-07-25T15:40:36Z</time>
      </trkpt>
      <trkpt lat="45.9829870" lon="5.6345050">
        <ele>1084.5</ele>
        <time>2022-07-25T15:40:37Z</time>
      </trkpt>
      <trkpt lat="45.9830240" lon="5.6345100">
        <ele>1084.6</ele>
        <time>2022-07-25T15:40:38Z</time>
      </trkpt>
      <trkpt lat="45.9830380" lon="5.6345120">
        <ele>1084.6</ele>
        <time>2022-07-25T15:40:39Z</time>
      </trkpt>
      <trkpt lat="45.9830670" lon="5.6345300">
        <ele>1084.6</ele>
        <time>2022-07-25T15:40:40Z</time>
      </trkpt>
      <trkpt lat="45.9830780" lon="5.6345370">
        <ele>1084.6</ele>
        <time>2022-07-25T15:40:41Z</time>
      </trkpt>
      <trkpt lat="45.9831050" lon="5.6345540">
        <ele>1084.6</ele>
        <time>2022-07-25T15:40:42Z</time>
      </trkpt>
      <trkpt lat="45.9831340" lon="5.6345730">
        <ele>1084.6</ele>
        <time>2022-07-25T15:40:43Z</time>
      </trkpt>
      <trkpt lat="45.9831410" lon="5.6345760">
        <ele>1084.6</ele>
        <time>2022-07-25T15:40:44Z</time>
      </trkpt>
      <trkpt lat="45.9831560" lon="5.6345830">
        <ele>1084.7</ele>
        <time>2022-07-25T15:40:45Z</time>
      </trkpt>
      <trkpt lat="45.9831700" lon="5.6345880">
        <ele>1084.8</ele>
        <time>2022-07-25T15:40:46Z</time>
      </trkpt>
      <trkpt lat="45.9831850" lon="5.6345900">
        <ele>1084.8</ele>
        <time>2022-07-25T15:40:47Z</time>
      </trkpt>
      <trkpt lat="45.9831990" lon="5.6345890">
        <ele>1084.8</ele>
        <time>2022-07-25T15:40:48Z</time>
      </trkpt>
      <trkpt lat="45.9832150" lon="5.6345880">
        <ele>1084.8</ele>
        <time>2022-07-25T15:40:49Z</time>
      </trkpt>
      <trkpt lat="45.9832190" lon="5.6345910">
        <ele>1084.8</ele>
        <time>2022-07-25T15:40:50Z</time>
      </trkpt>
      <trkpt lat="45.9832180" lon="5.6345940">
        <ele>1084.8</ele>
        <time>2022-07-25T15:40:51Z</time>
      </trkpt>
      <trkpt lat="45.9832140" lon="5.6346000">
        <ele>1084.8</ele>
        <time>2022-07-25T15:40:52Z</time>
      </trkpt>
      <trkpt lat="45.9832040" lon="5.6346060">
        <ele>1084.8</ele>
        <time>2022-07-25T15:40:53Z</time>
      </trkpt>
      <trkpt lat="45.9831890" lon="5.6346110">
        <ele>1084.8</ele>
        <time>2022-07-25T15:40:54Z</time>
      </trkpt>
      <trkpt lat="45.9831750" lon="5.6346140">
        <ele>1084.8</ele>
        <time>2022-07-25T15:40:55Z</time>
      </trkpt>
      <trkpt lat="45.9831650" lon="5.6346170">
        <ele>1084.8</ele>
        <time>2022-07-25T15:40:56Z</time>
      </trkpt>
      <trkpt lat="45.9831570" lon="5.6346230">
        <ele>1084.8</ele>
        <time>2022-07-25T15:40:57Z</time>
      </trkpt>
      <trkpt lat="45.9831530" lon="5.6346290">
        <ele>1084.8</ele>
        <time>2022-07-25T15:40:58Z</time>
      </trkpt>
      <trkpt lat="45.9831520" lon="5.6346340">
        <ele>1084.8</ele>
        <time>2022-07-25T15:40:59Z</time>
      </trkpt>
      <trkpt lat="45.9831560" lon="5.6346370">
        <ele>1084.8</ele>
        <time>2022-07-25T15:41:00Z</time>
      </trkpt>
      <trkpt lat="45.9831640" lon="5.6346390">
        <ele>1084.8</ele>
        <time>2022-07-25T15:41:01Z</time>
      </trkpt>
      <trkpt lat="45.9831740" lon="5.6346390">
        <ele>1084.8</ele>
        <time>2022-07-25T15:41:02Z</time>
      </trkpt>
      <trkpt lat="45.9831850" lon="5.6346340">
        <ele>1084.8</ele>
        <time>2022-07-25T15:41:03Z</time>
      </trkpt>
      <trkpt lat="45.9831910" lon="5.6346300">
        <ele>1084.8</ele>
        <time>2022-07-25T15:41:04Z</time>
      </trkpt>
      <trkpt lat="45.9831930" lon="5.6346290">
        <ele>1084.8</ele>
        <time>2022-07-25T15:41:05Z</time>
      </trkpt>
      <trkpt lat="45.9831930" lon="5.6346290">
        <ele>1084.8</ele>
        <time>2022-07-25T15:41:06Z</time>
      </trkpt>
      <trkpt lat="45.9831930" lon="5.6346330">
        <ele>1084.8</ele>
        <time>2022-07-25T15:41:07Z</time>
      </trkpt>
      <trkpt lat="45.9831910" lon="5.6346350">
        <ele>1084.8</ele>
        <time>2022-07-25T15:41:08Z</time>
      </trkpt>
      <trkpt lat="45.9831880" lon="5.6346370">
        <ele>1084.8</ele>
        <time>2022-07-25T15:41:09Z</time>
      </trkpt>
      <trkpt lat="45.9831870" lon="5.6346400">
        <ele>1084.8</ele>
        <time>2022-07-25T15:41:10Z</time>
      </trkpt>
      <trkpt lat="45.9831860" lon="5.6346430">
        <ele>1084.8</ele>
        <time>2022-07-25T15:41:11Z</time>
      </trkpt>
      <trkpt lat="45.9831860" lon="5.6346430">
        <ele>1084.8</ele>
        <time>2022-07-25T15:41:12Z</time>
      </trkpt>
      <trkpt lat="45.9831860" lon="5.6346440">
        <ele>1084.8</ele>
        <time>2022-07-25T15:41:13Z</time>
      </trkpt>
      <trkpt lat="45.9831850" lon="5.6346440">
        <ele>1084.8</ele>
        <time>2022-07-25T15:41:14Z</time>
      </trkpt>
      <trkpt lat="45.9831850" lon="5.6346440">
        <ele>1084.8</ele>
        <time>2022-07-25T15:41:15Z</time>
      </trkpt>
      <trkpt lat="45.9832010" lon="5.6346360">
        <ele>1084.8</ele>
        <time>2022-07-25T15:41:36Z</time>
      </trkpt>
      <trkpt lat="45.9832050" lon="5.6346390">
        <ele>1084.8</ele>
        <time>2022-07-25T15:41:37Z</time>
      </trkpt>
      <trkpt lat="45.9832050" lon="5.6346420">
        <ele>1084.8</ele>
        <time>2022-07-25T15:41:38Z</time>
      </trkpt>
      <trkpt lat="45.9832010" lon="5.6346400">
        <ele>1084.8</ele>
        <time>2022-07-25T15:41:39Z</time>
      </trkpt>
      <trkpt lat="45.9831960" lon="5.6346380">
        <ele>1084.8</ele>
        <time>2022-07-25T15:41:40Z</time>
      </trkpt>
      <trkpt lat="45.9831870" lon="5.6346380">
        <ele>1084.8</ele>
        <time>2022-07-25T15:41:41Z</time>
      </trkpt>
      <trkpt lat="45.9831780" lon="5.6346390">
        <ele>1084.8</ele>
        <time>2022-07-25T15:41:42Z</time>
      </trkpt>
      <trkpt lat="45.9831740" lon="5.6346390">
        <ele>1084.8</ele>
        <time>2022-07-25T15:41:43Z</time>
      </trkpt>
      <trkpt lat="45.9831700" lon="5.6346390">
        <ele>1084.8</ele>
        <time>2022-07-25T15:41:44Z</time>
      </trkpt>
      <trkpt lat="45.9831680" lon="5.6346380">
        <ele>1084.8</ele>
        <time>2022-07-25T15:41:45Z</time>
      </trkpt>
      <trkpt lat="45.9831670" lon="5.6346370">
        <ele>1084.8</ele>
        <time>2022-07-25T15:41:46Z</time>
      </trkpt>
      <trkpt lat="45.9831660" lon="5.6346350">
        <ele>1084.8</ele>
        <time>2022-07-25T15:41:47Z</time>
      </trkpt>
      <trkpt lat="45.9831620" lon="5.6346330">
        <ele>1084.8</ele>
        <time>2022-07-25T15:41:48Z</time>
      </trkpt>
      <trkpt lat="45.9831690" lon="5.6346320">
        <ele>1084.8</ele>
        <time>2022-07-25T15:41:49Z</time>
      </trkpt>
      <trkpt lat="45.9831770" lon="5.6346320">
        <ele>1084.8</ele>
        <time>2022-07-25T15:41:50Z</time>
      </trkpt>
      <trkpt lat="45.9831830" lon="5.6346310">
        <ele>1084.8</ele>
        <time>2022-07-25T15:41:51Z</time>
      </trkpt>
      <trkpt lat="45.9831870" lon="5.6346310">
        <ele>1084.8</ele>
        <time>2022-07-25T15:41:52Z</time>
      </trkpt>
      <trkpt lat="45.9831880" lon="5.6346310">
        <ele>1084.8</ele>
        <time>2022-07-25T15:41:53Z</time>
      </trkpt>
      <trkpt lat="45.9831890" lon="5.6346310">
        <ele>1084.8</ele>
        <time>2022-07-25T15:41:54Z</time>
      </trkpt>
      <trkpt lat="45.9831890" lon="5.6346310">
        <ele>1084.8</ele>
        <time>2022-07-25T15:41:55Z</time>
      </trkpt>
      <trkpt lat="45.9831880" lon="5.6346310">
        <ele>1084.8</ele>
        <time>2022-07-25T15:41:56Z</time>
      </trkpt>
      <trkpt lat="45.9831880" lon="5.6346310">
        <ele>1084.8</ele>
        <time>2022-07-25T15:41:57Z</time>
      </trkpt>
      <trkpt lat="45.9831880" lon="5.6346310">
        <ele>1084.8</ele>
        <time>2022-07-25T15:41:58Z</time>
      </trkpt>
      <trkpt lat="45.9831870" lon="5.6346310">
        <ele>1084.8</ele>
        <time>2022-07-25T15:41:59Z</time>
      </trkpt>
      <trkpt lat="45.9831870" lon="5.6346310">
        <ele>1084.8</ele>
        <time>2022-07-25T15:42:00Z</time>
      </trkpt>
      <trkpt lat="45.9831870" lon="5.6346310">
        <ele>1084.8</ele>
        <time>2022-07-25T15:42:01Z</time>
      </trkpt>
      <trkpt lat="45.9831870" lon="5.6346310">
        <ele>1084.8</ele>
        <time>2022-07-25T15:42:02Z</time>
      </trkpt>
      <trkpt lat="45.9831870" lon="5.6346310">
        <ele>1084.8</ele>
        <time>2022-07-25T15:42:03Z</time>
      </trkpt>
      <trkpt lat="45.9831840" lon="5.6345890">
        <ele>1084.8</ele>
        <time>2022-07-25T15:44:06Z</time>
      </trkpt>
      <trkpt lat="45.9831750" lon="5.6345760">
        <ele>1084.8</ele>
        <time>2022-07-25T15:44:07Z</time>
      </trkpt>
      <trkpt lat="45.9831700" lon="5.6345670">
        <ele>1084.8</ele>
        <time>2022-07-25T15:44:08Z</time>
      </trkpt>
      <trkpt lat="45.9831740" lon="5.6345640">
        <ele>1084.8</ele>
        <time>2022-07-25T15:44:09Z</time>
      </trkpt>
      <trkpt lat="45.9831790" lon="5.6345640">
        <ele>1084.8</ele>
        <time>2022-07-25T15:44:10Z</time>
      </trkpt>
      <trkpt lat="45.9831820" lon="5.6345660">
        <ele>1084.8</ele>
        <time>2022-07-25T15:44:11Z</time>
      </trkpt>
      <trkpt lat="45.9831850" lon="5.6345690">
        <ele>1084.8</ele>
        <time>2022-07-25T15:44:12Z</time>
      </trkpt>
      <trkpt lat="45.9831860" lon="5.6345730">
        <ele>1084.8</ele>
        <time>2022-07-25T15:44:13Z</time>
      </trkpt>
      <trkpt lat="45.9831860" lon="5.6345760">
        <ele>1084.8</ele>
        <time>2022-07-25T15:44:14Z</time>
      </trkpt>
      <trkpt lat="45.9831860" lon="5.6345790">
        <ele>1084.8</ele>
        <time>2022-07-25T15:44:15Z</time>
      </trkpt>
      <trkpt lat="45.9831860" lon="5.6345820">
        <ele>1084.8</ele>
        <time>2022-07-25T15:44:16Z</time>
      </trkpt>
      <trkpt lat="45.9831850" lon="5.6345830">
        <ele>1084.8</ele>
        <time>2022-07-25T15:44:17Z</time>
      </trkpt>
      <trkpt lat="45.9831840" lon="5.6345840">
        <ele>1084.8</ele>
        <time>2022-07-25T15:44:18Z</time>
      </trkpt>
      <trkpt lat="45.9831830" lon="5.6345840">
        <ele>1084.8</ele>
        <time>2022-07-25T15:44:19Z</time>
      </trkpt>
      <trkpt lat="45.9832120" lon="5.6346110">
        <ele>1084.8</ele>
        <time>2022-07-25T15:46:33Z</time>
      </trkpt>
      <trkpt lat="45.9832150" lon="5.6346210">
        <ele>1084.8</ele>
        <time>2022-07-25T15:46:34Z</time>
      </trkpt>
      <trkpt lat="45.9832160" lon="5.6346270">
        <ele>1084.8</ele>
        <time>2022-07-25T15:46:35Z</time>
      </trkpt>
      <trkpt lat="45.9832160" lon="5.6346290">
        <ele>1084.8</ele>
        <time>2022-07-25T15:46:36Z</time>
      </trkpt>
      <trkpt lat="45.9832160" lon="5.6346270">
        <ele>1084.8</ele>
        <time>2022-07-25T15:46:37Z</time>
      </trkpt>
      <trkpt lat="45.9832150" lon="5.6346240">
        <ele>1084.8</ele>
        <time>2022-07-25T15:46:38Z</time>
      </trkpt>
      <trkpt lat="45.9832140" lon="5.6346240">
        <ele>1084.8</ele>
        <time>2022-07-25T15:46:39Z</time>
      </trkpt>
      <trkpt lat="45.9832150" lon="5.6346220">
        <ele>1084.8</ele>
        <time>2022-07-25T15:46:40Z</time>
      </trkpt>
      <trkpt lat="45.9832180" lon="5.6346210">
        <ele>1084.8</ele>
        <time>2022-07-25T15:46:41Z</time>
      </trkpt>
      <trkpt lat="45.9832200" lon="5.6346200">
        <ele>1084.8</ele>
        <time>2022-07-25T15:46:42Z</time>
      </trkpt>
      <trkpt lat="45.9832210" lon="5.6346190">
        <ele>1084.8</ele>
        <time>2022-07-25T15:46:43Z</time>
      </trkpt>
      <trkpt lat="45.9832220" lon="5.6346200">
        <ele>1084.8</ele>
        <time>2022-07-25T15:46:44Z</time>
      </trkpt>
      <trkpt lat="45.9832220" lon="5.6346200">
        <ele>1084.8</ele>
        <time>2022-07-25T15:46:45Z</time>
      </trkpt>
      <trkpt lat="45.9832220" lon="5.6346200">
        <ele>1084.8</ele>
        <time>2022-07-25T15:46:46Z</time>
      </trkpt>
      <trkpt lat="45.9832350" lon="5.6345890">
        <ele>1084.8</ele>
        <time>2022-07-25T15:47:19Z</time>
      </trkpt>
      <trkpt lat="45.9832390" lon="5.6345890">
        <ele>1084.8</ele>
        <time>2022-07-25T15:47:20Z</time>
      </trkpt>
      <trkpt lat="45.9832440" lon="5.6345910">
        <ele>1084.8</ele>
        <time>2022-07-25T15:47:21Z</time>
      </trkpt>
      <trkpt lat="45.9832460" lon="5.6345900">
        <ele>1084.8</ele>
        <time>2022-07-25T15:47:22Z</time>
      </trkpt>
      <trkpt lat="45.9832460" lon="5.6345900">
        <ele>1084.8</ele>
        <time>2022-07-25T15:47:23Z</time>
      </trkpt>
      <trkpt lat="45.9832450" lon="5.6345890">
        <ele>1084.8</ele>
        <time>2022-07-25T15:47:24Z</time>
      </trkpt>
      <trkpt lat="45.9832440" lon="5.6345890">
        <ele>1084.8</ele>
        <time>2022-07-25T15:47:25Z</time>
      </trkpt>
      <trkpt lat="45.9832430" lon="5.6345890">
        <ele>1084.8</ele>
        <time>2022-07-25T15:47:26Z</time>
      </trkpt>
      <trkpt lat="45.9832430" lon="5.6345880">
        <ele>1084.8</ele>
        <time>2022-07-25T15:47:27Z</time>
      </trkpt>
      <trkpt lat="45.9832430" lon="5.6345890">
        <ele>1084.8</ele>
        <time>2022-07-25T15:47:28Z</time>
      </trkpt>
      <trkpt lat="45.9832430" lon="5.6345890">
        <ele>1084.8</ele>
        <time>2022-07-25T15:47:29Z</time>
      </trkpt>
      <trkpt lat="45.9832430" lon="5.6345890">
        <ele>1084.8</ele>
        <time>2022-07-25T15:47:30Z</time>
      </trkpt>
      <trkpt lat="45.9832430" lon="5.6345890">
        <ele>1084.8</ele>
        <time>2022-07-25T15:47:31Z</time>
      </trkpt>
      <trkpt lat="45.9832430" lon="5.6345890">
        <ele>1084.8</ele>
        <time>2022-07-25T15:47:32Z</time>
      </trkpt>
      <trkpt lat="45.9832090" lon="5.6345690">
        <ele>1084.8</ele>
        <time>2022-07-25T15:48:18Z</time>
      </trkpt>
      <trkpt lat="45.9832040" lon="5.6345640">
        <ele>1084.8</ele>
        <time>2022-07-25T15:48:19Z</time>
      </trkpt>
      <trkpt lat="45.9832010" lon="5.6345570">
        <ele>1084.8</ele>
        <time>2022-07-25T15:48:20Z</time>
      </trkpt>
      <trkpt lat="45.9832010" lon="5.6345510">
        <ele>1084.8</ele>
        <time>2022-07-25T15:48:21Z</time>
      </trkpt>
      <trkpt lat="45.9832030" lon="5.6345450">
        <ele>1084.8</ele>
        <time>2022-07-25T15:48:22Z</time>
      </trkpt>
      <trkpt lat="45.9832010" lon="5.6345400">
        <ele>1084.8</ele>
        <time>2022-07-25T15:48:23Z</time>
      </trkpt>
      <trkpt lat="45.9831960" lon="5.6345380">
        <ele>1084.8</ele>
        <time>2022-07-25T15:48:24Z</time>
      </trkpt>
      <trkpt lat="45.9831910" lon="5.6345370">
        <ele>1084.8</ele>
        <time>2022-07-25T15:48:25Z</time>
      </trkpt>
      <trkpt lat="45.9831890" lon="5.6345380">
        <ele>1084.8</ele>
        <time>2022-07-25T15:48:26Z</time>
      </trkpt>
      <trkpt lat="45.9831860" lon="5.6345410">
        <ele>1084.8</ele>
        <time>2022-07-25T15:48:27Z</time>
      </trkpt>
      <trkpt lat="45.9831830" lon="5.6345420">
        <ele>1084.8</ele>
        <time>2022-07-25T15:48:28Z</time>
      </trkpt>
      <trkpt lat="45.9831820" lon="5.6345440">
        <ele>1084.8</ele>
        <time>2022-07-25T15:48:29Z</time>
      </trkpt>
      <trkpt lat="45.9831820" lon="5.6345450">
        <ele>1084.8</ele>
        <time>2022-07-25T15:48:30Z</time>
      </trkpt>
      <trkpt lat="45.9831830" lon="5.6345460">
        <ele>1084.8</ele>
        <time>2022-07-25T15:48:31Z</time>
      </trkpt>
      <trkpt lat="45.9831830" lon="5.6345460">
        <ele>1084.8</ele>
        <time>2022-07-25T15:48:32Z</time>
      </trkpt>
      <trkpt lat="45.9831830" lon="5.6345460">
        <ele>1084.8</ele>
        <time>2022-07-25T15:48:33Z</time>
      </trkpt>
      <trkpt lat="45.9831830" lon="5.6345460">
        <ele>1084.8</ele>
        <time>2022-07-25T15:48:34Z</time>
      </trkpt>
      <trkpt lat="45.9831840" lon="5.6345460">
        <ele>1084.8</ele>
        <time>2022-07-25T15:48:35Z</time>
      </trkpt>
      <trkpt lat="45.9831840" lon="5.6345460">
        <ele>1084.8</ele>
        <time>2022-07-25T15:48:36Z</time>
      </trkpt>
      <trkpt lat="45.9831840" lon="5.6345460">
        <ele>1084.8</ele>
        <time>2022-07-25T15:48:37Z</time>
      </trkpt>
      <trkpt lat="45.9832010" lon="5.6345790">
        <ele>1084.8</ele>
        <time>2022-07-25T15:49:31Z</time>
      </trkpt>
      <trkpt lat="45.9832010" lon="5.6345830">
        <ele>1084.8</ele>
        <time>2022-07-25T15:49:32Z</time>
      </trkpt>
      <trkpt lat="45.9831990" lon="5.6345850">
        <ele>1084.8</ele>
        <time>2022-07-25T15:49:33Z</time>
      </trkpt>
      <trkpt lat="45.9831950" lon="5.6345850">
        <ele>1084.8</ele>
        <time>2022-07-25T15:49:34Z</time>
      </trkpt>
      <trkpt lat="45.9831920" lon="5.6345840">
        <ele>1084.8</ele>
        <time>2022-07-25T15:49:35Z</time>
      </trkpt>
      <trkpt lat="45.9831900" lon="5.6345830">
        <ele>1084.8</ele>
        <time>2022-07-25T15:49:36Z</time>
      </trkpt>
      <trkpt lat="45.9831880" lon="5.6345820">
        <ele>1084.8</ele>
        <time>2022-07-25T15:49:37Z</time>
      </trkpt>
      <trkpt lat="45.9831880" lon="5.6345810">
        <ele>1084.8</ele>
        <time>2022-07-25T15:49:38Z</time>
      </trkpt>
      <trkpt lat="45.9831880" lon="5.6345810">
        <ele>1084.8</ele>
        <time>2022-07-25T15:49:39Z</time>
      </trkpt>
      <trkpt lat="45.9831880" lon="5.6345810">
        <ele>1084.8</ele>
        <time>2022-07-25T15:49:40Z</time>
      </trkpt>
      <trkpt lat="45.9831880" lon="5.6345810">
        <ele>1084.8</ele>
        <time>2022-07-25T15:49:41Z</time>
      </trkpt>
      <trkpt lat="45.9831880" lon="5.6345810">
        <ele>1084.8</ele>
        <time>2022-07-25T15:49:42Z</time>
      </trkpt>
      <trkpt lat="45.9831760" lon="5.6345560">
        <ele>1084.8</ele>
        <time>2022-07-25T15:49:57Z</time>
      </trkpt>
      <trkpt lat="45.9831680" lon="5.6345510">
        <ele>1084.8</ele>
        <time>2022-07-25T15:49:58Z</time>
      </trkpt>
      <trkpt lat="45.9831620" lon="5.6345480">
        <ele>1084.8</ele>
        <time>2022-07-25T15:49:59Z</time>
      </trkpt>
      <trkpt lat="45.9831590" lon="5.6345450">
        <ele>1084.8</ele>
        <time>2022-07-25T15:50:00Z</time>
      </trkpt>
      <trkpt lat="45.9831550" lon="5.6345430">
        <ele>1084.8</ele>
        <time>2022-07-25T15:50:01Z</time>
      </trkpt>
      <trkpt lat="45.9831510" lon="5.6345410">
        <ele>1084.8</ele>
        <time>2022-07-25T15:50:02Z</time>
      </trkpt>
      <trkpt lat="45.9831480" lon="5.6345400">
        <ele>1084.8</ele>
        <time>2022-07-25T15:50:03Z</time>
      </trkpt>
      <trkpt lat="45.9831470" lon="5.6345390">
        <ele>1084.8</ele>
        <time>2022-07-25T15:50:04Z</time>
      </trkpt>
      <trkpt lat="45.9831470" lon="5.6345390">
        <ele>1084.8</ele>
        <time>2022-07-25T15:50:05Z</time>
      </trkpt>
      <trkpt lat="45.9831470" lon="5.6345390">
        <ele>1084.8</ele>
        <time>2022-07-25T15:50:06Z</time>
      </trkpt>
      <trkpt lat="45.9831470" lon="5.6345390">
        <ele>1084.8</ele>
        <time>2022-07-25T15:50:07Z</time>
      </trkpt>
      <trkpt lat="45.9831470" lon="5.6345390">
        <ele>1084.8</ele>
        <time>2022-07-25T15:50:08Z</time>
      </trkpt>
      <trkpt lat="45.9831470" lon="5.6345390">
        <ele>1084.8</ele>
        <time>2022-07-25T15:50:09Z</time>
      </trkpt>
      <trkpt lat="45.9831470" lon="5.6345390">
        <ele>1084.8</ele>
        <time>2022-07-25T15:50:10Z</time>
      </trkpt>
      <trkpt lat="45.9831470" lon="5.6345390">
        <ele>1084.8</ele>
        <time>2022-07-25T15:50:11Z</time>
      </trkpt>
      <trkpt lat="45.9831470" lon="5.6345390">
        <ele>1084.8</ele>
        <time>2022-07-25T15:50:12Z</time>
      </trkpt>
      <trkpt lat="45.9831470" lon="5.6345400">
        <ele>1084.8</ele>
        <time>2022-07-25T15:50:13Z</time>
      </trkpt>
      <trkpt lat="45.9831190" lon="5.6345300">
        <ele>1084.8</ele>
        <time>2022-07-25T15:50:22Z</time>
      </trkpt>
      <trkpt lat="45.9831160" lon="5.6345280">
        <ele>1084.8</ele>
        <time>2022-07-25T15:50:23Z</time>
      </trkpt>
      <trkpt lat="45.9831140" lon="5.6345280">
        <ele>1084.8</ele>
        <time>2022-07-25T15:50:24Z</time>
      </trkpt>
      <trkpt lat="45.9831110" lon="5.6345280">
        <ele>1084.8</ele>
        <time>2022-07-25T15:50:25Z</time>
      </trkpt>
      <trkpt lat="45.9831090" lon="5.6345280">
        <ele>1084.8</ele>
        <time>2022-07-25T15:50:26Z</time>
      </trkpt>
      <trkpt lat="45.9831080" lon="5.6345280">
        <ele>1084.8</ele>
        <time>2022-07-25T15:50:27Z</time>
      </trkpt>
      <trkpt lat="45.9831070" lon="5.6345290">
        <ele>1084.8</ele>
        <time>2022-07-25T15:50:28Z</time>
      </trkpt>
      <trkpt lat="45.9831080" lon="5.6345290">
        <ele>1084.8</ele>
        <time>2022-07-25T15:50:29Z</time>
      </trkpt>
      <trkpt lat="45.9831080" lon="5.6345290">
        <ele>1084.8</ele>
        <time>2022-07-25T15:50:30Z</time>
      </trkpt>
      <trkpt lat="45.9831080" lon="5.6345300">
        <ele>1084.8</ele>
        <time>2022-07-25T15:50:31Z</time>
      </trkpt>
      <trkpt lat="45.9831080" lon="5.6345300">
        <ele>1084.8</ele>
        <time>2022-07-25T15:50:32Z</time>
      </trkpt>
      <trkpt lat="45.9831080" lon="5.6345300">
        <ele>1084.8</ele>
        <time>2022-07-25T15:50:33Z</time>
      </trkpt>
      <trkpt lat="45.9831080" lon="5.6345300">
        <ele>1084.8</ele>
        <time>2022-07-25T15:50:34Z</time>
      </trkpt>
      <trkpt lat="45.9831290" lon="5.6345950">
        <ele>1084.8</ele>
        <time>2022-07-25T15:54:58Z</time>
      </trkpt>
      <trkpt lat="45.9831310" lon="5.6345970">
        <ele>1084.8</ele>
        <time>2022-07-25T15:54:59Z</time>
      </trkpt>
      <trkpt lat="45.9831290" lon="5.6345960">
        <ele>1084.8</ele>
        <time>2022-07-25T15:55:00Z</time>
      </trkpt>
      <trkpt lat="45.9831270" lon="5.6345950">
        <ele>1084.8</ele>
        <time>2022-07-25T15:55:01Z</time>
      </trkpt>
      <trkpt lat="45.9831250" lon="5.6345940">
        <ele>1084.8</ele>
        <time>2022-07-25T15:55:02Z</time>
      </trkpt>
      <trkpt lat="45.9831240" lon="5.6345940">
        <ele>1084.8</ele>
        <time>2022-07-25T15:55:03Z</time>
      </trkpt>
      <trkpt lat="45.9831230" lon="5.6345930">
        <ele>1084.8</ele>
        <time>2022-07-25T15:55:04Z</time>
      </trkpt>
      <trkpt lat="45.9831230" lon="5.6345930">
        <ele>1084.8</ele>
        <time>2022-07-25T15:55:05Z</time>
      </trkpt>
      <trkpt lat="45.9831220" lon="5.6345920">
        <ele>1084.8</ele>
        <time>2022-07-25T15:55:06Z</time>
      </trkpt>
      <trkpt lat="45.9831210" lon="5.6345920">
        <ele>1084.8</ele>
        <time>2022-07-25T15:55:07Z</time>
      </trkpt>
      <trkpt lat="45.9831210" lon="5.6345920">
        <ele>1084.8</ele>
        <time>2022-07-25T15:55:08Z</time>
      </trkpt>
      <trkpt lat="45.9831210" lon="5.6345920">
        <ele>1084.8</ele>
        <time>2022-07-25T15:55:09Z</time>
      </trkpt>
      <trkpt lat="45.9831630" lon="5.6346270">
        <ele>1084.8</ele>
        <time>2022-07-25T15:55:32Z</time>
      </trkpt>
      <trkpt lat="45.9831640" lon="5.6346310">
        <ele>1084.8</ele>
        <time>2022-07-25T15:55:33Z</time>
      </trkpt>
      <trkpt lat="45.9831590" lon="5.6346310">
        <ele>1084.8</ele>
        <time>2022-07-25T15:55:34Z</time>
      </trkpt>
      <trkpt lat="45.9831530" lon="5.6346300">
        <ele>1084.8</ele>
        <time>2022-07-25T15:55:35Z</time>
      </trkpt>
      <trkpt lat="45.9831500" lon="5.6346300">
        <ele>1084.8</ele>
        <time>2022-07-25T15:55:36Z</time>
      </trkpt>
      <trkpt lat="45.9831470" lon="5.6346300">
        <ele>1084.8</ele>
        <time>2022-07-25T15:55:37Z</time>
      </trkpt>
      <trkpt lat="45.9831420" lon="5.6346270">
        <ele>1084.8</ele>
        <time>2022-07-25T15:55:38Z</time>
      </trkpt>
      <trkpt lat="45.9831370" lon="5.6346240">
        <ele>1084.8</ele>
        <time>2022-07-25T15:55:39Z</time>
      </trkpt>
      <trkpt lat="45.9831340" lon="5.6346210">
        <ele>1084.8</ele>
        <time>2022-07-25T15:55:40Z</time>
      </trkpt>
      <trkpt lat="45.9831320" lon="5.6346190">
        <ele>1084.8</ele>
        <time>2022-07-25T15:55:41Z</time>
      </trkpt>
      <trkpt lat="45.9831310" lon="5.6346170">
        <ele>1084.8</ele>
        <time>2022-07-25T15:55:42Z</time>
      </trkpt>
      <trkpt lat="45.9831310" lon="5.6346170">
        <ele>1084.8</ele>
        <time>2022-07-25T15:55:43Z</time>
      </trkpt>
      <trkpt lat="45.9831310" lon="5.6346170">
        <ele>1084.8</ele>
        <time>2022-07-25T15:55:44Z</time>
      </trkpt>
      <trkpt lat="45.9831320" lon="5.6346170">
        <ele>1084.8</ele>
        <time>2022-07-25T15:55:45Z</time>
      </trkpt>
      <trkpt lat="45.9831320" lon="5.6346170">
        <ele>1084.8</ele>
        <time>2022-07-25T15:55:46Z</time>
      </trkpt>
      <trkpt lat="45.9831320" lon="5.6346170">
        <ele>1084.8</ele>
        <time>2022-07-25T15:55:47Z</time>
      </trkpt>
      <trkpt lat="45.9831320" lon="5.6346170">
        <ele>1084.8</ele>
        <time>2022-07-25T15:55:48Z</time>
      </trkpt>
      <trkpt lat="45.9831320" lon="5.6346170">
        <ele>1084.8</ele>
        <time>2022-07-25T15:55:49Z</time>
      </trkpt>
      <trkpt lat="45.9831320" lon="5.6346170">
        <ele>1084.8</ele>
        <time>2022-07-25T15:55:50Z</time>
      </trkpt>
      <trkpt lat="45.9831320" lon="5.6346170">
        <ele>1084.8</ele>
        <time>2022-07-25T15:55:51Z</time>
      </trkpt>
      <trkpt lat="45.9831600" lon="5.6346110">
        <ele>1084.8</ele>
        <time>2022-07-25T15:56:24Z</time>
      </trkpt>
      <trkpt lat="45.9831610" lon="5.6346080">
        <ele>1084.8</ele>
        <time>2022-07-25T15:56:25Z</time>
      </trkpt>
      <trkpt lat="45.9831600" lon="5.6346060">
        <ele>1084.8</ele>
        <time>2022-07-25T15:56:26Z</time>
      </trkpt>
      <trkpt lat="45.9831580" lon="5.6346060">
        <ele>1084.8</ele>
        <time>2022-07-25T15:56:27Z</time>
      </trkpt>
      <trkpt lat="45.9831560" lon="5.6346040">
        <ele>1084.8</ele>
        <time>2022-07-25T15:56:28Z</time>
      </trkpt>
      <trkpt lat="45.9831540" lon="5.6346020">
        <ele>1084.8</ele>
        <time>2022-07-25T15:56:29Z</time>
      </trkpt>
      <trkpt lat="45.9831550" lon="5.6346000">
        <ele>1084.8</ele>
        <time>2022-07-25T15:56:30Z</time>
      </trkpt>
      <trkpt lat="45.9831580" lon="5.6345990">
        <ele>1084.8</ele>
        <time>2022-07-25T15:56:31Z</time>
      </trkpt>
      <trkpt lat="45.9831620" lon="5.6345990">
        <ele>1084.8</ele>
        <time>2022-07-25T15:56:32Z</time>
      </trkpt>
      <trkpt lat="45.9831650" lon="5.6345980">
        <ele>1084.8</ele>
        <time>2022-07-25T15:56:33Z</time>
      </trkpt>
      <trkpt lat="45.9831690" lon="5.6345990">
        <ele>1084.8</ele>
        <time>2022-07-25T15:56:34Z</time>
      </trkpt>
      <trkpt lat="45.9831730" lon="5.6346020">
        <ele>1084.8</ele>
        <time>2022-07-25T15:56:35Z</time>
      </trkpt>
      <trkpt lat="45.9831760" lon="5.6346050">
        <ele>1084.8</ele>
        <time>2022-07-25T15:56:36Z</time>
      </trkpt>
      <trkpt lat="45.9831770" lon="5.6346070">
        <ele>1084.8</ele>
        <time>2022-07-25T15:56:37Z</time>
      </trkpt>
      <trkpt lat="45.9831770" lon="5.6346080">
        <ele>1084.8</ele>
        <time>2022-07-25T15:56:38Z</time>
      </trkpt>
      <trkpt lat="45.9831760" lon="5.6346090">
        <ele>1084.8</ele>
        <time>2022-07-25T15:56:39Z</time>
      </trkpt>
      <trkpt lat="45.9831760" lon="5.6346090">
        <ele>1084.8</ele>
        <time>2022-07-25T15:56:40Z</time>
      </trkpt>
      <trkpt lat="45.9831760" lon="5.6346090">
        <ele>1084.8</ele>
        <time>2022-07-25T15:56:41Z</time>
      </trkpt>
      <trkpt lat="45.9831750" lon="5.6346100">
        <ele>1084.8</ele>
        <time>2022-07-25T15:56:42Z</time>
      </trkpt>
      <trkpt lat="45.9831750" lon="5.6346090">
        <ele>1084.8</ele>
        <time>2022-07-25T15:56:43Z</time>
      </trkpt>
      <trkpt lat="45.9831750" lon="5.6346090">
        <ele>1084.8</ele>
        <time>2022-07-25T15:56:44Z</time>
      </trkpt>
      <trkpt lat="45.9831750" lon="5.6346090">
        <ele>1084.8</ele>
        <time>2022-07-25T15:56:45Z</time>
      </trkpt>
      <trkpt lat="45.9831750" lon="5.6346090">
        <ele>1084.8</ele>
        <time>2022-07-25T15:56:46Z</time>
      </trkpt>
      <trkpt lat="45.9831890" lon="5.6346270">
        <ele>1084.8</ele>
        <time>2022-07-25T15:57:38Z</time>
      </trkpt>
      <trkpt lat="45.9831970" lon="5.6346280">
        <ele>1084.8</ele>
        <time>2022-07-25T15:57:39Z</time>
      </trkpt>
      <trkpt lat="45.9832000" lon="5.6346250">
        <ele>1084.8</ele>
        <time>2022-07-25T15:57:40Z</time>
      </trkpt>
      <trkpt lat="45.9832030" lon="5.6346220">
        <ele>1084.8</ele>
        <time>2022-07-25T15:57:41Z</time>
      </trkpt>
      <trkpt lat="45.9832040" lon="5.6346200">
        <ele>1084.8</ele>
        <time>2022-07-25T15:57:42Z</time>
      </trkpt>
      <trkpt lat="45.9832050" lon="5.6346180">
        <ele>1084.8</ele>
        <time>2022-07-25T15:57:43Z</time>
      </trkpt>
      <trkpt lat="45.9832060" lon="5.6346160">
        <ele>1084.8</ele>
        <time>2022-07-25T15:57:44Z</time>
      </trkpt>
      <trkpt lat="45.9832060" lon="5.6346140">
        <ele>1084.8</ele>
        <time>2022-07-25T15:57:45Z</time>
      </trkpt>
      <trkpt lat="45.9832070" lon="5.6346130">
        <ele>1084.8</ele>
        <time>2022-07-25T15:57:46Z</time>
      </trkpt>
      <trkpt lat="45.9832070" lon="5.6346120">
        <ele>1084.8</ele>
        <time>2022-07-25T15:57:47Z</time>
      </trkpt>
      <trkpt lat="45.9832050" lon="5.6346070">
        <ele>1084.8</ele>
        <time>2022-07-25T15:57:48Z</time>
      </trkpt>
      <trkpt lat="45.9832030" lon="5.6346030">
        <ele>1084.8</ele>
        <time>2022-07-25T15:57:49Z</time>
      </trkpt>
      <trkpt lat="45.9832010" lon="5.6346020">
        <ele>1084.8</ele>
        <time>2022-07-25T15:57:50Z</time>
      </trkpt>
      <trkpt lat="45.9832020" lon="5.6346070">
        <ele>1084.8</ele>
        <time>2022-07-25T15:57:51Z</time>
      </trkpt>
      <trkpt lat="45.9832010" lon="5.6346130">
        <ele>1084.8</ele>
        <time>2022-07-25T15:57:52Z</time>
      </trkpt>
      <trkpt lat="45.9831960" lon="5.6346160">
        <ele>1084.8</ele>
        <time>2022-07-25T15:57:53Z</time>
      </trkpt>
      <trkpt lat="45.9831910" lon="5.6346160">
        <ele>1084.8</ele>
        <time>2022-07-25T15:57:54Z</time>
      </trkpt>
      <trkpt lat="45.9831870" lon="5.6346160">
        <ele>1084.8</ele>
        <time>2022-07-25T15:57:55Z</time>
      </trkpt>
      <trkpt lat="45.9831830" lon="5.6346170">
        <ele>1084.8</ele>
        <time>2022-07-25T15:57:56Z</time>
      </trkpt>
      <trkpt lat="45.9831810" lon="5.6346160">
        <ele>1084.8</ele>
        <time>2022-07-25T15:57:57Z</time>
      </trkpt>
      <trkpt lat="45.9831800" lon="5.6346160">
        <ele>1084.8</ele>
        <time>2022-07-25T15:57:58Z</time>
      </trkpt>
      <trkpt lat="45.9831790" lon="5.6346160">
        <ele>1084.8</ele>
        <time>2022-07-25T15:57:59Z</time>
      </trkpt>
      <trkpt lat="45.9831780" lon="5.6346160">
        <ele>1084.8</ele>
        <time>2022-07-25T15:58:00Z</time>
      </trkpt>
      <trkpt lat="45.9831780" lon="5.6346160">
        <ele>1084.8</ele>
        <time>2022-07-25T15:58:01Z</time>
      </trkpt>
      <trkpt lat="45.9831770" lon="5.6346160">
        <ele>1084.8</ele>
        <time>2022-07-25T15:58:02Z</time>
      </trkpt>
      <trkpt lat="45.9831770" lon="5.6346160">
        <ele>1084.8</ele>
        <time>2022-07-25T15:58:03Z</time>
      </trkpt>
      <trkpt lat="45.9831770" lon="5.6346160">
        <ele>1084.8</ele>
        <time>2022-07-25T15:58:04Z</time>
      </trkpt>
      <trkpt lat="45.9831770" lon="5.6346150">
        <ele>1084.8</ele>
        <time>2022-07-25T15:58:05Z</time>
      </trkpt>
      <trkpt lat="45.9831790" lon="5.6346180">
        <ele>1084.8</ele>
        <time>2022-07-25T15:58:06Z</time>
      </trkpt>
      <trkpt lat="45.9831820" lon="5.6346200">
        <ele>1084.8</ele>
        <time>2022-07-25T15:58:07Z</time>
      </trkpt>
      <trkpt lat="45.9832010" lon="5.6346020">
        <ele>1084.8</ele>
        <time>2022-07-25T16:07:28Z</time>
      </trkpt>
      <trkpt lat="45.9832030" lon="5.6346040">
        <ele>1084.8</ele>
        <time>2022-07-25T16:07:29Z</time>
      </trkpt>
      <trkpt lat="45.9832040" lon="5.6346060">
        <ele>1084.8</ele>
        <time>2022-07-25T16:07:30Z</time>
      </trkpt>
      <trkpt lat="45.9832030" lon="5.6346060">
        <ele>1084.8</ele>
        <time>2022-07-25T16:07:31Z</time>
      </trkpt>
      <trkpt lat="45.9832030" lon="5.6346100">
        <ele>1084.8</ele>
        <time>2022-07-25T16:07:32Z</time>
      </trkpt>
      <trkpt lat="45.9832040" lon="5.6346190">
        <ele>1084.8</ele>
        <time>2022-07-25T16:07:33Z</time>
      </trkpt>
      <trkpt lat="45.9832040" lon="5.6346240">
        <ele>1084.8</ele>
        <time>2022-07-25T16:07:34Z</time>
      </trkpt>
      <trkpt lat="45.9832010" lon="5.6346270">
        <ele>1084.8</ele>
        <time>2022-07-25T16:07:35Z</time>
      </trkpt>
      <trkpt lat="45.9831980" lon="5.6346280">
        <ele>1084.8</ele>
        <time>2022-07-25T16:07:36Z</time>
      </trkpt>
      <trkpt lat="45.9831950" lon="5.6346310">
        <ele>1084.8</ele>
        <time>2022-07-25T16:07:37Z</time>
      </trkpt>
      <trkpt lat="45.9831940" lon="5.6346330">
        <ele>1084.8</ele>
        <time>2022-07-25T16:07:38Z</time>
      </trkpt>
      <trkpt lat="45.9831920" lon="5.6346350">
        <ele>1084.8</ele>
        <time>2022-07-25T16:07:39Z</time>
      </trkpt>
      <trkpt lat="45.9831900" lon="5.6346350">
        <ele>1084.8</ele>
        <time>2022-07-25T16:07:40Z</time>
      </trkpt>
      <trkpt lat="45.9831880" lon="5.6346350">
        <ele>1084.8</ele>
        <time>2022-07-25T16:07:41Z</time>
      </trkpt>
      <trkpt lat="45.9831860" lon="5.6346340">
        <ele>1084.8</ele>
        <time>2022-07-25T16:07:42Z</time>
      </trkpt>
      <trkpt lat="45.9831850" lon="5.6346340">
        <ele>1084.8</ele>
        <time>2022-07-25T16:07:43Z</time>
      </trkpt>
      <trkpt lat="45.9831840" lon="5.6346330">
        <ele>1084.8</ele>
        <time>2022-07-25T16:07:44Z</time>
      </trkpt>
      <trkpt lat="45.9831840" lon="5.6346330">
        <ele>1084.8</ele>
        <time>2022-07-25T16:07:45Z</time>
      </trkpt>
      <trkpt lat="45.9831840" lon="5.6346330">
        <ele>1084.8</ele>
        <time>2022-07-25T16:07:46Z</time>
      </trkpt>
      <trkpt lat="45.9831840" lon="5.6346320">
        <ele>1084.8</ele>
        <time>2022-07-25T16:07:47Z</time>
      </trkpt>
      <trkpt lat="45.9831610" lon="5.6346070">
        <ele>1084.8</ele>
        <time>2022-07-25T16:08:21Z</time>
      </trkpt>
      <trkpt lat="45.9831550" lon="5.6346020">
        <ele>1084.8</ele>
        <time>2022-07-25T16:08:22Z</time>
      </trkpt>
      <trkpt lat="45.9831500" lon="5.6345970">
        <ele>1084.8</ele>
        <time>2022-07-25T16:08:23Z</time>
      </trkpt>
      <trkpt lat="45.9831460" lon="5.6345950">
        <ele>1084.8</ele>
        <time>2022-07-25T16:08:24Z</time>
      </trkpt>
      <trkpt lat="45.9831430" lon="5.6345930">
        <ele>1084.8</ele>
        <time>2022-07-25T16:08:25Z</time>
      </trkpt>
      <trkpt lat="45.9831430" lon="5.6345920">
        <ele>1084.8</ele>
        <time>2022-07-25T16:08:26Z</time>
      </trkpt>
      <trkpt lat="45.9831440" lon="5.6345920">
        <ele>1084.8</ele>
        <time>2022-07-25T16:08:27Z</time>
      </trkpt>
      <trkpt lat="45.9831450" lon="5.6345930">
        <ele>1084.8</ele>
        <time>2022-07-25T16:08:28Z</time>
      </trkpt>
      <trkpt lat="45.9831460" lon="5.6345940">
        <ele>1084.8</ele>
        <time>2022-07-25T16:08:29Z</time>
      </trkpt>
      <trkpt lat="45.9831460" lon="5.6345950">
        <ele>1084.8</ele>
        <time>2022-07-25T16:08:30Z</time>
      </trkpt>
      <trkpt lat="45.9831470" lon="5.6345950">
        <ele>1084.8</ele>
        <time>2022-07-25T16:08:31Z</time>
      </trkpt>
      <trkpt lat="45.9831470" lon="5.6345950">
        <ele>1084.8</ele>
        <time>2022-07-25T16:08:32Z</time>
      </trkpt>
      <trkpt lat="45.9831470" lon="5.6345950">
        <ele>1084.8</ele>
        <time>2022-07-25T16:08:33Z</time>
      </trkpt>
      <trkpt lat="45.9831470" lon="5.6345950">
        <ele>1084.8</ele>
        <time>2022-07-25T16:08:34Z</time>
      </trkpt>
      <trkpt lat="45.9831470" lon="5.6345950">
        <ele>1084.8</ele>
        <time>2022-07-25T16:08:35Z</time>
      </trkpt>
      <trkpt lat="45.9831940" lon="5.6346350">
        <ele>1084.8</ele>
        <time>2022-07-25T16:09:24Z</time>
      </trkpt>
      <trkpt lat="45.9831980" lon="5.6346380">
        <ele>1084.8</ele>
        <time>2022-07-25T16:09:25Z</time>
      </trkpt>
      <trkpt lat="45.9831970" lon="5.6346390">
        <ele>1084.8</ele>
        <time>2022-07-25T16:09:26Z</time>
      </trkpt>
      <trkpt lat="45.9831940" lon="5.6346360">
        <ele>1084.8</ele>
        <time>2022-07-25T16:09:27Z</time>
      </trkpt>
      <trkpt lat="45.9831920" lon="5.6346330">
        <ele>1084.8</ele>
        <time>2022-07-25T16:09:28Z</time>
      </trkpt>
      <trkpt lat="45.9831880" lon="5.6346300">
        <ele>1084.8</ele>
        <time>2022-07-25T16:09:29Z</time>
      </trkpt>
      <trkpt lat="45.9831890" lon="5.6346270">
        <ele>1084.8</ele>
        <time>2022-07-25T16:09:30Z</time>
      </trkpt>
      <trkpt lat="45.9831910" lon="5.6346240">
        <ele>1084.8</ele>
        <time>2022-07-25T16:09:31Z</time>
      </trkpt>
      <trkpt lat="45.9831930" lon="5.6346230">
        <ele>1084.8</ele>
        <time>2022-07-25T16:09:32Z</time>
      </trkpt>
      <trkpt lat="45.9831940" lon="5.6346220">
        <ele>1084.8</ele>
        <time>2022-07-25T16:09:33Z</time>
      </trkpt>
      <trkpt lat="45.9831940" lon="5.6346210">
        <ele>1084.8</ele>
        <time>2022-07-25T16:09:34Z</time>
      </trkpt>
      <trkpt lat="45.9831940" lon="5.6346210">
        <ele>1084.8</ele>
        <time>2022-07-25T16:09:35Z</time>
      </trkpt>
      <trkpt lat="45.9831940" lon="5.6346210">
        <ele>1084.8</ele>
        <time>2022-07-25T16:09:36Z</time>
      </trkpt>
      <trkpt lat="45.9832240" lon="5.6346560">
        <ele>1084.8</ele>
        <time>2022-07-25T16:10:07Z</time>
      </trkpt>
      <trkpt lat="45.9832320" lon="5.6346640">
        <ele>1084.8</ele>
        <time>2022-07-25T16:10:08Z</time>
      </trkpt>
      <trkpt lat="45.9832360" lon="5.6346710">
        <ele>1084.8</ele>
        <time>2022-07-25T16:10:09Z</time>
      </trkpt>
      <trkpt lat="45.9832380" lon="5.6346740">
        <ele>1084.8</ele>
        <time>2022-07-25T16:10:10Z</time>
      </trkpt>
      <trkpt lat="45.9832390" lon="5.6346760">
        <ele>1084.8</ele>
        <time>2022-07-25T16:10:11Z</time>
      </trkpt>
      <trkpt lat="45.9832400" lon="5.6346760">
        <ele>1084.8</ele>
        <time>2022-07-25T16:10:12Z</time>
      </trkpt>
      <trkpt lat="45.9832400" lon="5.6346760">
        <ele>1084.8</ele>
        <time>2022-07-25T16:10:13Z</time>
      </trkpt>
      <trkpt lat="45.9832400" lon="5.6346760">
        <ele>1084.8</ele>
        <time>2022-07-25T16:10:14Z</time>
      </trkpt>
      <trkpt lat="45.9832390" lon="5.6346770">
        <ele>1084.8</ele>
        <time>2022-07-25T16:10:15Z</time>
      </trkpt>
      <trkpt lat="45.9832390" lon="5.6346770">
        <ele>1084.8</ele>
        <time>2022-07-25T16:10:16Z</time>
      </trkpt>
      <trkpt lat="45.9832390" lon="5.6346770">
        <ele>1084.8</ele>
        <time>2022-07-25T16:10:17Z</time>
      </trkpt>
      <trkpt lat="45.9832390" lon="5.6346770">
        <ele>1084.8</ele>
        <time>2022-07-25T16:10:18Z</time>
      </trkpt>
      <trkpt lat="45.9832390" lon="5.6346770">
        <ele>1084.8</ele>
        <time>2022-07-25T16:10:19Z</time>
      </trkpt>
      <trkpt lat="45.9832390" lon="5.6346770">
        <ele>1084.8</ele>
        <time>2022-07-25T16:10:20Z</time>
      </trkpt>
      <trkpt lat="45.9832390" lon="5.6346770">
        <ele>1084.8</ele>
        <time>2022-07-25T16:10:21Z</time>
      </trkpt>
      <trkpt lat="45.9832590" lon="5.6346820">
        <ele>1084.8</ele>
        <time>2022-07-25T16:11:06Z</time>
      </trkpt>
      <trkpt lat="45.9832680" lon="5.6346890">
        <ele>1084.8</ele>
        <time>2022-07-25T16:11:07Z</time>
      </trkpt>
      <trkpt lat="45.9832720" lon="5.6346930">
        <ele>1084.8</ele>
        <time>2022-07-25T16:11:08Z</time>
      </trkpt>
      <trkpt lat="45.9832720" lon="5.6346960">
        <ele>1084.8</ele>
        <time>2022-07-25T16:11:09Z</time>
      </trkpt>
      <trkpt lat="45.9832720" lon="5.6346980">
        <ele>1084.8</ele>
        <time>2022-07-25T16:11:10Z</time>
      </trkpt>
      <trkpt lat="45.9832710" lon="5.6346990">
        <ele>1084.8</ele>
        <time>2022-07-25T16:11:11Z</time>
      </trkpt>
      <trkpt lat="45.9832710" lon="5.6347010">
        <ele>1084.8</ele>
        <time>2022-07-25T16:11:12Z</time>
      </trkpt>
      <trkpt lat="45.9832740" lon="5.6347060">
        <ele>1084.8</ele>
        <time>2022-07-25T16:11:13Z</time>
      </trkpt>
      <trkpt lat="45.9832770" lon="5.6347100">
        <ele>1084.8</ele>
        <time>2022-07-25T16:11:14Z</time>
      </trkpt>
      <trkpt lat="45.9832790" lon="5.6347120">
        <ele>1084.8</ele>
        <time>2022-07-25T16:11:15Z</time>
      </trkpt>
      <trkpt lat="45.9832740" lon="5.6347100">
        <ele>1084.8</ele>
        <time>2022-07-25T16:11:16Z</time>
      </trkpt>
      <trkpt lat="45.9832700" lon="5.6347080">
        <ele>1084.8</ele>
        <time>2022-07-25T16:11:17Z</time>
      </trkpt>
      <trkpt lat="45.9832660" lon="5.6347060">
        <ele>1084.8</ele>
        <time>2022-07-25T16:11:18Z</time>
      </trkpt>
      <trkpt lat="45.9832620" lon="5.6347040">
        <ele>1084.8</ele>
        <time>2022-07-25T16:11:19Z</time>
      </trkpt>
      <trkpt lat="45.9832570" lon="5.6347020">
        <ele>1084.8</ele>
        <time>2022-07-25T16:11:20Z</time>
      </trkpt>
      <trkpt lat="45.9832530" lon="5.6347000">
        <ele>1084.8</ele>
        <time>2022-07-25T16:11:21Z</time>
      </trkpt>
      <trkpt lat="45.9832490" lon="5.6346980">
        <ele>1084.8</ele>
        <time>2022-07-25T16:11:22Z</time>
      </trkpt>
      <trkpt lat="45.9832450" lon="5.6346950">
        <ele>1084.8</ele>
        <time>2022-07-25T16:11:23Z</time>
      </trkpt>
      <trkpt lat="45.9832410" lon="5.6346930">
        <ele>1084.8</ele>
        <time>2022-07-25T16:11:24Z</time>
      </trkpt>
      <trkpt lat="45.9832360" lon="5.6346910">
        <ele>1084.8</ele>
        <time>2022-07-25T16:13:42Z</time>
      </trkpt>
      <trkpt lat="45.9832320" lon="5.6346890">
        <ele>1084.8</ele>
        <time>2022-07-25T16:13:43Z</time>
      </trkpt>
      <trkpt lat="45.9832280" lon="5.6346870">
        <ele>1084.8</ele>
        <time>2022-07-25T16:13:44Z</time>
      </trkpt>
      <trkpt lat="45.9832240" lon="5.6346850">
        <ele>1084.8</ele>
        <time>2022-07-25T16:13:45Z</time>
      </trkpt>
      <trkpt lat="45.9832190" lon="5.6346830">
        <ele>1084.8</ele>
        <time>2022-07-25T16:13:46Z</time>
      </trkpt>
      <trkpt lat="45.9832150" lon="5.6346810">
        <ele>1084.8</ele>
        <time>2022-07-25T16:13:47Z</time>
      </trkpt>
      <trkpt lat="45.9832110" lon="5.6346790">
        <ele>1084.8</ele>
        <time>2022-07-25T16:13:48Z</time>
      </trkpt>
      <trkpt lat="45.9832070" lon="5.6346770">
        <ele>1084.8</ele>
        <time>2022-07-25T16:13:49Z</time>
      </trkpt>
      <trkpt lat="45.9832030" lon="5.6346750">
        <ele>1084.8</ele>
        <time>2022-07-25T16:13:50Z</time>
      </trkpt>
      <trkpt lat="45.9831980" lon="5.6346730">
        <ele>1084.8</ele>
        <time>2022-07-25T16:13:51Z</time>
      </trkpt>
      <trkpt lat="45.9831940" lon="5.6346710">
        <ele>1084.8</ele>
        <time>2022-07-25T16:13:52Z</time>
      </trkpt>
      <trkpt lat="45.9831900" lon="5.6346690">
        <ele>1084.8</ele>
        <time>2022-07-25T16:13:53Z</time>
      </trkpt>
      <trkpt lat="45.9831860" lon="5.6346670">
        <ele>1084.8</ele>
        <time>2022-07-25T16:13:54Z</time>
      </trkpt>
      <trkpt lat="45.9831810" lon="5.6346640">
        <ele>1084.8</ele>
        <time>2022-07-25T16:13:55Z</time>
      </trkpt>
      <trkpt lat="45.9831770" lon="5.6346620">
        <ele>1084.8</ele>
        <time>2022-07-25T16:21:00Z</time>
      </trkpt>
      <trkpt lat="45.9831730" lon="5.6346600">
        <ele>1084.8</ele>
        <time>2022-07-25T16:21:01Z</time>
      </trkpt>
      <trkpt lat="45.9831690" lon="5.6346580">
        <ele>1084.8</ele>
        <time>2022-07-25T16:21:02Z</time>
      </trkpt>
      <trkpt lat="45.9831570" lon="5.6346580">
        <ele>1084.8</ele>
        <time>2022-07-25T16:21:03Z</time>
      </trkpt>
      <trkpt lat="45.9831440" lon="5.6346560">
        <ele>1084.8</ele>
        <time>2022-07-25T16:21:04Z</time>
      </trkpt>
      <trkpt lat="45.9831330" lon="5.6346540">
        <ele>1084.8</ele>
        <time>2022-07-25T16:21:05Z</time>
      </trkpt>
      <trkpt lat="45.9831210" lon="5.6346520">
        <ele>1084.8</ele>
        <time>2022-07-25T16:21:06Z</time>
      </trkpt>
      <trkpt lat="45.9831080" lon="5.6346510">
        <ele>1084.8</ele>
        <time>2022-07-25T16:21:07Z</time>
      </trkpt>
      <trkpt lat="45.9830980" lon="5.6346490">
        <ele>1084.8</ele>
        <time>2022-07-25T16:21:08Z</time>
      </trkpt>
      <trkpt lat="45.9830870" lon="5.6346480">
        <ele>1084.8</ele>
        <time>2022-07-25T16:21:09Z</time>
      </trkpt>
      <trkpt lat="45.9830750" lon="5.6346470">
        <ele>1084.8</ele>
        <time>2022-07-25T16:21:10Z</time>
      </trkpt>
      <trkpt lat="45.9830650" lon="5.6346460">
        <ele>1084.8</ele>
        <time>2022-07-25T16:21:11Z</time>
      </trkpt>
      <trkpt lat="45.9830550" lon="5.6346450">
        <ele>1084.8</ele>
        <time>2022-07-25T16:21:12Z</time>
      </trkpt>
      <trkpt lat="45.9830460" lon="5.6346450">
        <ele>1084.8</ele>
        <time>2022-07-25T16:21:13Z</time>
      </trkpt>
      <trkpt lat="45.9830360" lon="5.6346460">
        <ele>1084.8</ele>
        <time>2022-07-25T16:21:14Z</time>
      </trkpt>
      <trkpt lat="45.9830270" lon="5.6346460">
        <ele>1084.8</ele>
        <time>2022-07-25T16:21:15Z</time>
      </trkpt>
      <trkpt lat="45.9830170" lon="5.6346470">
        <ele>1084.8</ele>
        <time>2022-07-25T16:21:16Z</time>
      </trkpt>
      <trkpt lat="45.9830070" lon="5.6346480">
        <ele>1084.8</ele>
        <time>2022-07-25T16:21:17Z</time>
      </trkpt>
      <trkpt lat="45.9829980" lon="5.6346500">
        <ele>1084.8</ele>
        <time>2022-07-25T16:21:18Z</time>
      </trkpt>
      <trkpt lat="45.9829900" lon="5.6346530">
        <ele>1084.8</ele>
        <time>2022-07-25T16:21:19Z</time>
      </trkpt>
      <trkpt lat="45.9829810" lon="5.6346560">
        <ele>1084.8</ele>
        <time>2022-07-25T16:21:20Z</time>
      </trkpt>
      <trkpt lat="45.9829730" lon="5.6346570">
        <ele>1084.8</ele>
        <time>2022-07-25T16:21:21Z</time>
      </trkpt>
      <trkpt lat="45.9829650" lon="5.6346580">
        <ele>1084.8</ele>
        <time>2022-07-25T16:21:22Z</time>
      </trkpt>
      <trkpt lat="45.9829580" lon="5.6346600">
        <ele>1084.8</ele>
        <time>2022-07-25T16:21:23Z</time>
      </trkpt>
      <trkpt lat="45.9829490" lon="5.6346650">
        <ele>1084.8</ele>
        <time>2022-07-25T16:21:24Z</time>
      </trkpt>
      <trkpt lat="45.9829420" lon="5.6346710">
        <ele>1084.8</ele>
        <time>2022-07-25T16:21:25Z</time>
      </trkpt>
      <trkpt lat="45.9829360" lon="5.6346740">
        <ele>1084.8</ele>
        <time>2022-07-25T16:21:26Z</time>
      </trkpt>
      <trkpt lat="45.9829340" lon="5.6346770">
        <ele>1084.8</ele>
        <time>2022-07-25T16:21:27Z</time>
      </trkpt>
      <trkpt lat="45.9829340" lon="5.6346780">
        <ele>1084.8</ele>
        <time>2022-07-25T16:21:28Z</time>
      </trkpt>
      <trkpt lat="45.9829340" lon="5.6346780">
        <ele>1084.8</ele>
        <time>2022-07-25T16:21:29Z</time>
      </trkpt>
      <trkpt lat="45.9829330" lon="5.6346780">
        <ele>1084.8</ele>
        <time>2022-07-25T16:21:30Z</time>
      </trkpt>
      <trkpt lat="45.9829320" lon="5.6346770">
        <ele>1084.8</ele>
        <time>2022-07-25T16:21:31Z</time>
      </trkpt>
      <trkpt lat="45.9829300" lon="5.6346800">
        <ele>1084.8</ele>
        <time>2022-07-25T16:21:32Z</time>
      </trkpt>
      <trkpt lat="45.9829250" lon="5.6346840">
        <ele>1084.8</ele>
        <time>2022-07-25T16:21:33Z</time>
      </trkpt>
      <trkpt lat="45.9829180" lon="5.6346870">
        <ele>1084.8</ele>
        <time>2022-07-25T16:21:34Z</time>
      </trkpt>
      <trkpt lat="45.9829120" lon="5.6346880">
        <ele>1084.8</ele>
        <time>2022-07-25T16:21:35Z</time>
      </trkpt>
      <trkpt lat="45.9829050" lon="5.6346890">
        <ele>1084.8</ele>
        <time>2022-07-25T16:21:36Z</time>
      </trkpt>
      <trkpt lat="45.9828990" lon="5.6346880">
        <ele>1084.8</ele>
        <time>2022-07-25T16:21:37Z</time>
      </trkpt>
      <trkpt lat="45.9828890" lon="5.6346870">
        <ele>1084.8</ele>
        <time>2022-07-25T16:21:38Z</time>
      </trkpt>
      <trkpt lat="45.9828820" lon="5.6346840">
        <ele>1084.8</ele>
        <time>2022-07-25T16:21:39Z</time>
      </trkpt>
      <trkpt lat="45.9828730" lon="5.6346800">
        <ele>1084.8</ele>
        <time>2022-07-25T16:21:40Z</time>
      </trkpt>
      <trkpt lat="45.9828630" lon="5.6346740">
        <ele>1084.8</ele>
        <time>2022-07-25T16:21:41Z</time>
      </trkpt>
      <trkpt lat="45.9828510" lon="5.6346720">
        <ele>1084.8</ele>
        <time>2022-07-25T16:21:42Z</time>
      </trkpt>
      <trkpt lat="45.9828390" lon="5.6346720">
        <ele>1084.8</ele>
        <time>2022-07-25T16:21:43Z</time>
      </trkpt>
      <trkpt lat="45.9828290" lon="5.6346730">
        <ele>1084.8</ele>
        <time>2022-07-25T16:21:44Z</time>
      </trkpt>
      <trkpt lat="45.9828210" lon="5.6346700">
        <ele>1084.8</ele>
        <time>2022-07-25T16:21:45Z</time>
      </trkpt>
      <trkpt lat="45.9828130" lon="5.6346660">
        <ele>1084.8</ele>
        <time>2022-07-25T16:21:46Z</time>
      </trkpt>
      <trkpt lat="45.9828050" lon="5.6346660">
        <ele>1084.8</ele>
        <time>2022-07-25T16:21:47Z</time>
      </trkpt>
      <trkpt lat="45.9827970" lon="5.6346710">
        <ele>1084.8</ele>
        <time>2022-07-25T16:21:48Z</time>
      </trkpt>
      <trkpt lat="45.9827930" lon="5.6346780">
        <ele>1084.8</ele>
        <time>2022-07-25T16:21:49Z</time>
      </trkpt>
      <trkpt lat="45.9827880" lon="5.6346890">
        <ele>1084.8</ele>
        <time>2022-07-25T16:21:50Z</time>
      </trkpt>
      <trkpt lat="45.9827840" lon="5.6346960">
        <ele>1084.8</ele>
        <time>2022-07-25T16:21:51Z</time>
      </trkpt>
      <trkpt lat="45.9827810" lon="5.6346990">
        <ele>1084.8</ele>
        <time>2022-07-25T16:21:52Z</time>
      </trkpt>
      <trkpt lat="45.9827800" lon="5.6347010">
        <ele>1084.8</ele>
        <time>2022-07-25T16:21:53Z</time>
      </trkpt>
      <trkpt lat="45.9827810" lon="5.6347030">
        <ele>1084.8</ele>
        <time>2022-07-25T16:21:54Z</time>
      </trkpt>
      <trkpt lat="45.9827850" lon="5.6347060">
        <ele>1084.8</ele>
        <time>2022-07-25T16:21:55Z</time>
      </trkpt>
      <trkpt lat="45.9827900" lon="5.6347070">
        <ele>1084.8</ele>
        <time>2022-07-25T16:21:56Z</time>
      </trkpt>
      <trkpt lat="45.9827950" lon="5.6347060">
        <ele>1084.8</ele>
        <time>2022-07-25T16:21:57Z</time>
      </trkpt>
      <trkpt lat="45.9828000" lon="5.6347050">
        <ele>1084.8</ele>
        <time>2022-07-25T16:21:58Z</time>
      </trkpt>
      <trkpt lat="45.9828040" lon="5.6347000">
        <ele>1084.8</ele>
        <time>2022-07-25T16:21:59Z</time>
      </trkpt>
      <trkpt lat="45.9828060" lon="5.6346950">
        <ele>1084.8</ele>
        <time>2022-07-25T16:22:00Z</time>
      </trkpt>
      <trkpt lat="45.9828090" lon="5.6346910">
        <ele>1084.8</ele>
        <time>2022-07-25T16:22:01Z</time>
      </trkpt>
      <trkpt lat="45.9828120" lon="5.6346880">
        <ele>1084.8</ele>
        <time>2022-07-25T16:22:02Z</time>
      </trkpt>
      <trkpt lat="45.9828150" lon="5.6346860">
        <ele>1084.8</ele>
        <time>2022-07-25T16:22:03Z</time>
      </trkpt>
      <trkpt lat="45.9828170" lon="5.6346820">
        <ele>1084.8</ele>
        <time>2022-07-25T16:22:04Z</time>
      </trkpt>
      <trkpt lat="45.9828180" lon="5.6346790">
        <ele>1084.8</ele>
        <time>2022-07-25T16:22:05Z</time>
      </trkpt>
      <trkpt lat="45.9828190" lon="5.6346770">
        <ele>1084.8</ele>
        <time>2022-07-25T16:22:06Z</time>
      </trkpt>
      <trkpt lat="45.9828210" lon="5.6346750">
        <ele>1084.8</ele>
        <time>2022-07-25T16:22:07Z</time>
      </trkpt>
      <trkpt lat="45.9828220" lon="5.6346750">
        <ele>1084.8</ele>
        <time>2022-07-25T16:22:08Z</time>
      </trkpt>
      <trkpt lat="45.9828240" lon="5.6346750">
        <ele>1084.8</ele>
        <time>2022-07-25T16:22:09Z</time>
      </trkpt>
      <trkpt lat="45.9828260" lon="5.6346760">
        <ele>1084.8</ele>
        <time>2022-07-25T16:22:10Z</time>
      </trkpt>
      <trkpt lat="45.9828270" lon="5.6346760">
        <ele>1084.8</ele>
        <time>2022-07-25T16:22:11Z</time>
      </trkpt>
      <trkpt lat="45.9828280" lon="5.6346770">
        <ele>1084.8</ele>
        <time>2022-07-25T16:22:12Z</time>
      </trkpt>
      <trkpt lat="45.9828290" lon="5.6346770">
        <ele>1084.8</ele>
        <time>2022-07-25T16:22:13Z</time>
      </trkpt>
      <trkpt lat="45.9828290" lon="5.6346770">
        <ele>1084.8</ele>
        <time>2022-07-25T16:22:14Z</time>
      </trkpt>
      <trkpt lat="45.9828300" lon="5.6346770">
        <ele>1084.8</ele>
        <time>2022-07-25T16:22:15Z</time>
      </trkpt>
      <trkpt lat="45.9828680" lon="5.6347040">
        <ele>1084.8</ele>
        <time>2022-07-25T16:31:10Z</time>
      </trkpt>
      <trkpt lat="45.9828700" lon="5.6347100">
        <ele>1084.8</ele>
        <time>2022-07-25T16:31:11Z</time>
      </trkpt>
      <trkpt lat="45.9828720" lon="5.6347160">
        <ele>1084.8</ele>
        <time>2022-07-25T16:31:12Z</time>
      </trkpt>
      <trkpt lat="45.9828740" lon="5.6347210">
        <ele>1084.8</ele>
        <time>2022-07-25T16:31:13Z</time>
      </trkpt>
      <trkpt lat="45.9828750" lon="5.6347260">
        <ele>1084.8</ele>
        <time>2022-07-25T16:31:14Z</time>
      </trkpt>
      <trkpt lat="45.9828760" lon="5.6347290">
        <ele>1084.8</ele>
        <time>2022-07-25T16:31:15Z</time>
      </trkpt>
      <trkpt lat="45.9828760" lon="5.6347340">
        <ele>1084.8</ele>
        <time>2022-07-25T16:31:16Z</time>
      </trkpt>
      <trkpt lat="45.9828760" lon="5.6347370">
        <ele>1084.8</ele>
        <time>2022-07-25T16:31:17Z</time>
      </trkpt>
      <trkpt lat="45.9828710" lon="5.6347380">
        <ele>1084.8</ele>
        <time>2022-07-25T16:31:18Z</time>
      </trkpt>
      <trkpt lat="45.9828670" lon="5.6347430">
        <ele>1084.8</ele>
        <time>2022-07-25T16:31:19Z</time>
      </trkpt>
      <trkpt lat="45.9828640" lon="5.6347440">
        <ele>1084.8</ele>
        <time>2022-07-25T16:31:20Z</time>
      </trkpt>
      <trkpt lat="45.9828580" lon="5.6347420">
        <ele>1084.8</ele>
        <time>2022-07-25T16:31:21Z</time>
      </trkpt>
      <trkpt lat="45.9828550" lon="5.6347340">
        <ele>1084.8</ele>
        <time>2022-07-25T16:31:22Z</time>
      </trkpt>
      <trkpt lat="45.9828550" lon="5.6347210">
        <ele>1084.8</ele>
        <time>2022-07-25T16:31:23Z</time>
      </trkpt>
      <trkpt lat="45.9828560" lon="5.6347170">
        <ele>1084.8</ele>
        <time>2022-07-25T16:31:24Z</time>
      </trkpt>
      <trkpt lat="45.9828560" lon="5.6347140">
        <ele>1084.8</ele>
        <time>2022-07-25T16:31:25Z</time>
      </trkpt>
      <trkpt lat="45.9828560" lon="5.6347140">
        <ele>1084.8</ele>
        <time>2022-07-25T16:31:26Z</time>
      </trkpt>
      <trkpt lat="45.9828550" lon="5.6347160">
        <ele>1084.8</ele>
        <time>2022-07-25T16:31:27Z</time>
      </trkpt>
      <trkpt lat="45.9828530" lon="5.6347180">
        <ele>1084.8</ele>
        <time>2022-07-25T16:31:28Z</time>
      </trkpt>
      <trkpt lat="45.9828510" lon="5.6347200">
        <ele>1084.8</ele>
        <time>2022-07-25T16:31:29Z</time>
      </trkpt>
      <trkpt lat="45.9828510" lon="5.6347210">
        <ele>1084.8</ele>
        <time>2022-07-25T16:31:30Z</time>
      </trkpt>
      <trkpt lat="45.9828520" lon="5.6347220">
        <ele>1084.8</ele>
        <time>2022-07-25T16:31:31Z</time>
      </trkpt>
      <trkpt lat="45.9828530" lon="5.6347210">
        <ele>1084.8</ele>
        <time>2022-07-25T16:31:32Z</time>
      </trkpt>
      <trkpt lat="45.9828540" lon="5.6347210">
        <ele>1084.8</ele>
        <time>2022-07-25T16:31:33Z</time>
      </trkpt>
      <trkpt lat="45.9828550" lon="5.6347200">
        <ele>1084.8</ele>
        <time>2022-07-25T16:31:34Z</time>
      </trkpt>
      <trkpt lat="45.9414650" lon="5.6283690">
        <ele>1045.7</ele>
        <time>2022-07-26T08:27:25Z</time>
      </trkpt>
      <trkpt lat="45.9414950" lon="5.6283950">
        <ele>1045.6</ele>
        <time>2022-07-26T08:27:26Z</time>
      </trkpt>
      <trkpt lat="45.9414890" lon="5.6284090">
        <ele>1045.6</ele>
        <time>2022-07-26T08:27:27Z</time>
      </trkpt>
      <trkpt lat="45.9414770" lon="5.6284090">
        <ele>1045.5</ele>
        <time>2022-07-26T08:27:28Z</time>
      </trkpt>
      <trkpt lat="45.9414710" lon="5.6284060">
        <ele>1045.5</ele>
        <time>2022-07-26T08:27:29Z</time>
      </trkpt>
      <trkpt lat="45.9414700" lon="5.6283970">
        <ele>1045.5</ele>
        <time>2022-07-26T08:27:30Z</time>
      </trkpt>
      <trkpt lat="45.9414710" lon="5.6283940">
        <ele>1045.5</ele>
        <time>2022-07-26T08:27:31Z</time>
      </trkpt>
      <trkpt lat="45.9414710" lon="5.6283950">
        <ele>1045.5</ele>
        <time>2022-07-26T08:27:32Z</time>
      </trkpt>
      <trkpt lat="45.9414690" lon="5.6283920">
        <ele>1045.5</ele>
        <time>2022-07-26T08:27:33Z</time>
      </trkpt>
      <trkpt lat="45.9414650" lon="5.6283800">
        <ele>1045.5</ele>
        <time>2022-07-26T08:27:34Z</time>
      </trkpt>
      <trkpt lat="45.9414460" lon="5.6283370">
        <ele>1045.4</ele>
        <time>2022-07-26T08:27:36Z</time>
      </trkpt>
      <trkpt lat="45.9414350" lon="5.6282850">
        <ele>1045.3</ele>
        <time>2022-07-26T08:27:37Z</time>
      </trkpt>
      <trkpt lat="45.9414160" lon="5.6282380">
        <ele>1045.2</ele>
        <time>2022-07-26T08:27:38Z</time>
      </trkpt>
      <trkpt lat="45.9414040" lon="5.6281820">
        <ele>1045.1</ele>
        <time>2022-07-26T08:27:40Z</time>
      </trkpt>
      <trkpt lat="45.9413940" lon="5.6281300">
        <ele>1045.1</ele>
        <time>2022-07-26T08:27:41Z</time>
      </trkpt>
      <trkpt lat="45.9413860" lon="5.6280770">
        <ele>1045.0</ele>
        <time>2022-07-26T08:27:42Z</time>
      </trkpt>
      <trkpt lat="45.9413700" lon="5.6280250">
        <ele>1044.9</ele>
        <time>2022-07-26T08:27:43Z</time>
      </trkpt>
      <trkpt lat="45.9413620" lon="5.6279660">
        <ele>1044.4</ele>
        <time>2022-07-26T08:27:44Z</time>
      </trkpt>
      <trkpt lat="45.9413600" lon="5.6279080">
        <ele>1043.9</ele>
        <time>2022-07-26T08:27:45Z</time>
      </trkpt>
      <trkpt lat="45.9413590" lon="5.6278670">
        <ele>1043.5</ele>
        <time>2022-07-26T08:27:46Z</time>
      </trkpt>
      <trkpt lat="45.9413560" lon="5.6278110">
        <ele>1043.0</ele>
        <time>2022-07-26T08:27:47Z</time>
      </trkpt>
      <trkpt lat="45.9413540" lon="5.6277910">
        <ele>1042.9</ele>
        <time>2022-07-26T08:27:48Z</time>
      </trkpt>
      <trkpt lat="45.9413470" lon="5.6277530">
        <ele>1042.5</ele>
        <time>2022-07-26T08:27:49Z</time>
      </trkpt>
      <trkpt lat="45.9413360" lon="5.6276860">
        <ele>1042.0</ele>
        <time>2022-07-26T08:27:50Z</time>
      </trkpt>
      <trkpt lat="45.9413250" lon="5.6276190">
        <ele>1041.4</ele>
        <time>2022-07-26T08:27:52Z</time>
      </trkpt>
      <trkpt lat="45.9413130" lon="5.6275530">
        <ele>1040.9</ele>
        <time>2022-07-26T08:27:53Z</time>
      </trkpt>
      <trkpt lat="45.9413030" lon="5.6274830">
        <ele>1040.3</ele>
        <time>2022-07-26T08:27:54Z</time>
      </trkpt>
      <trkpt lat="45.9412900" lon="5.6273820">
        <ele>1039.4</ele>
        <time>2022-07-26T08:27:56Z</time>
      </trkpt>
      <trkpt lat="45.9412850" lon="5.6273190">
        <ele>1038.9</ele>
        <time>2022-07-26T08:27:57Z</time>
      </trkpt>
      <trkpt lat="45.9412820" lon="5.6272550">
        <ele>1038.4</ele>
        <time>2022-07-26T08:27:58Z</time>
      </trkpt>
      <trkpt lat="45.9412720" lon="5.6271800">
        <ele>1037.7</ele>
        <time>2022-07-26T08:27:59Z</time>
      </trkpt>
      <trkpt lat="45.9412420" lon="5.6270400">
        <ele>1036.6</ele>
        <time>2022-07-26T08:28:01Z</time>
      </trkpt>
      <trkpt lat="45.9412340" lon="5.6269890">
        <ele>1036.2</ele>
        <time>2022-07-26T08:28:02Z</time>
      </trkpt>
      <trkpt lat="45.9412260" lon="5.6269460">
        <ele>1035.9</ele>
        <time>2022-07-26T08:28:04Z</time>
      </trkpt>
      <trkpt lat="45.9412220" lon="5.6268970">
        <ele>1035.5</ele>
        <time>2022-07-26T08:28:05Z</time>
      </trkpt>
      <trkpt lat="45.9412100" lon="5.6268200">
        <ele>1034.9</ele>
        <time>2022-07-26T08:28:06Z</time>
      </trkpt>
      <trkpt lat="45.9412030" lon="5.6267800">
        <ele>1034.6</ele>
        <time>2022-07-26T08:28:07Z</time>
      </trkpt>
      <trkpt lat="45.9411910" lon="5.6267160">
        <ele>1034.0</ele>
        <time>2022-07-26T08:28:09Z</time>
      </trkpt>
      <trkpt lat="45.9411860" lon="5.6266550">
        <ele>1033.5</ele>
        <time>2022-07-26T08:28:10Z</time>
      </trkpt>
      <trkpt lat="45.9411830" lon="5.6265960">
        <ele>1033.0</ele>
        <time>2022-07-26T08:28:11Z</time>
      </trkpt>
      <trkpt lat="45.9411840" lon="5.6265510">
        <ele>1032.6</ele>
        <time>2022-07-26T08:28:12Z</time>
      </trkpt>
      <trkpt lat="45.9411890" lon="5.6265050">
        <ele>1032.2</ele>
        <time>2022-07-26T08:28:13Z</time>
      </trkpt>
      <trkpt lat="45.9411890" lon="5.6264360">
        <ele>1031.5</ele>
        <time>2022-07-26T08:28:15Z</time>
      </trkpt>
      <trkpt lat="45.9411900" lon="5.6264110">
        <ele>1031.3</ele>
        <time>2022-07-26T08:28:16Z</time>
      </trkpt>
      <trkpt lat="45.9411910" lon="5.6263870">
        <ele>1031.0</ele>
        <time>2022-07-26T08:28:17Z</time>
      </trkpt>
      <trkpt lat="45.9411900" lon="5.6263480">
        <ele>1030.6</ele>
        <time>2022-07-26T08:28:18Z</time>
      </trkpt>
      <trkpt lat="45.9411880" lon="5.6263060">
        <ele>1030.2</ele>
        <time>2022-07-26T08:28:19Z</time>
      </trkpt>
      <trkpt lat="45.9411820" lon="5.6262620">
        <ele>1029.6</ele>
        <time>2022-07-26T08:28:20Z</time>
      </trkpt>
      <trkpt lat="45.9411790" lon="5.6262490">
        <ele>1029.4</ele>
        <time>2022-07-26T08:28:21Z</time>
      </trkpt>
      <trkpt lat="45.9411660" lon="5.6261870">
        <ele>1028.5</ele>
        <time>2022-07-26T08:28:22Z</time>
      </trkpt>
      <trkpt lat="45.9411540" lon="5.6261410">
        <ele>1027.9</ele>
        <time>2022-07-26T08:28:23Z</time>
      </trkpt>
      <trkpt lat="45.9411420" lon="5.6260950">
        <ele>1027.2</ele>
        <time>2022-07-26T08:28:24Z</time>
      </trkpt>
      <trkpt lat="45.9411300" lon="5.6260490">
        <ele>1026.6</ele>
        <time>2022-07-26T08:28:25Z</time>
      </trkpt>
      <trkpt lat="45.9411180" lon="5.6260020">
        <ele>1025.9</ele>
        <time>2022-07-26T08:28:26Z</time>
      </trkpt>
      <trkpt lat="45.9411060" lon="5.6259560">
        <ele>1025.3</ele>
        <time>2022-07-26T08:28:27Z</time>
      </trkpt>
      <trkpt lat="45.9410940" lon="5.6259100">
        <ele>1024.7</ele>
        <time>2022-07-26T08:28:29Z</time>
      </trkpt>
      <trkpt lat="45.9410820" lon="5.6258640">
        <ele>1024.1</ele>
        <time>2022-07-26T08:28:30Z</time>
      </trkpt>
      <trkpt lat="45.9410700" lon="5.6258180">
        <ele>1023.5</ele>
        <time>2022-07-26T08:28:31Z</time>
      </trkpt>
      <trkpt lat="45.9410390" lon="5.6256600">
        <ele>1021.7</ele>
        <time>2022-07-26T08:28:32Z</time>
      </trkpt>
      <trkpt lat="45.9410140" lon="5.6255190">
        <ele>1020.2</ele>
        <time>2022-07-26T08:28:33Z</time>
      </trkpt>
      <trkpt lat="45.9409840" lon="5.6254100">
        <ele>1019.1</ele>
        <time>2022-07-26T08:28:34Z</time>
      </trkpt>
      <trkpt lat="45.9409430" lon="5.6252910">
        <ele>1017.9</ele>
        <time>2022-07-26T08:28:35Z</time>
      </trkpt>
      <trkpt lat="45.9408940" lon="5.6251800">
        <ele>1016.9</ele>
        <time>2022-07-26T08:28:36Z</time>
      </trkpt>
      <trkpt lat="45.9408400" lon="5.6250710">
        <ele>1015.9</ele>
        <time>2022-07-26T08:28:37Z</time>
      </trkpt>
      <trkpt lat="45.9407910" lon="5.6249850">
        <ele>1015.3</ele>
        <time>2022-07-26T08:28:38Z</time>
      </trkpt>
      <trkpt lat="45.9407380" lon="5.6248910">
        <ele>1014.8</ele>
        <time>2022-07-26T08:28:39Z</time>
      </trkpt>
      <trkpt lat="45.9406930" lon="5.6248110">
        <ele>1014.6</ele>
        <time>2022-07-26T08:28:40Z</time>
      </trkpt>
      <trkpt lat="45.9406540" lon="5.6247500">
        <ele>1014.4</ele>
        <time>2022-07-26T08:28:41Z</time>
      </trkpt>
      <trkpt lat="45.9406270" lon="5.6247260">
        <ele>1014.3</ele>
        <time>2022-07-26T08:28:42Z</time>
      </trkpt>
      <trkpt lat="45.9405970" lon="5.6246750">
        <ele>1014.2</ele>
        <time>2022-07-26T08:28:43Z</time>
      </trkpt>
      <trkpt lat="45.9405780" lon="5.6246310">
        <ele>1013.4</ele>
        <time>2022-07-26T08:28:44Z</time>
      </trkpt>
      <trkpt lat="45.9405550" lon="5.6246030">
        <ele>1013.3</ele>
        <time>2022-07-26T08:28:45Z</time>
      </trkpt>
      <trkpt lat="45.9405450" lon="5.6245950">
        <ele>1013.3</ele>
        <time>2022-07-26T08:28:46Z</time>
      </trkpt>
      <trkpt lat="45.9405290" lon="5.6245900">
        <ele>1013.2</ele>
        <time>2022-07-26T08:28:47Z</time>
      </trkpt>
      <trkpt lat="45.9405230" lon="5.6245820">
        <ele>1013.2</ele>
        <time>2022-07-26T08:28:48Z</time>
      </trkpt>
      <trkpt lat="45.9405230" lon="5.6245740">
        <ele>1013.2</ele>
        <time>2022-07-26T08:28:49Z</time>
      </trkpt>
      <trkpt lat="45.9405300" lon="5.6245560">
        <ele>1013.1</ele>
        <time>2022-07-26T08:28:50Z</time>
      </trkpt>
      <trkpt lat="45.9405540" lon="5.6246340">
        <ele>1012.8</ele>
        <time>2022-07-26T08:28:51Z</time>
      </trkpt>
      <trkpt lat="45.9405650" lon="5.6246890">
        <ele>1012.6</ele>
        <time>2022-07-26T08:28:52Z</time>
      </trkpt>
      <trkpt lat="45.9405810" lon="5.6247930">
        <ele>1012.2</ele>
        <time>2022-07-26T08:28:53Z</time>
      </trkpt>
      <trkpt lat="45.9405930" lon="5.6248930">
        <ele>1012.0</ele>
        <time>2022-07-26T08:28:54Z</time>
      </trkpt>
      <trkpt lat="45.9406020" lon="5.6249830">
        <ele>1011.8</ele>
        <time>2022-07-26T08:28:55Z</time>
      </trkpt>
      <trkpt lat="45.9406150" lon="5.6250690">
        <ele>1011.6</ele>
        <time>2022-07-26T08:28:56Z</time>
      </trkpt>
      <trkpt lat="45.9406350" lon="5.6251440">
        <ele>1011.5</ele>
        <time>2022-07-26T08:28:57Z</time>
      </trkpt>
      <trkpt lat="45.9406560" lon="5.6252130">
        <ele>1011.4</ele>
        <time>2022-07-26T08:28:58Z</time>
      </trkpt>
      <trkpt lat="45.9406590" lon="5.6252970">
        <ele>1011.3</ele>
        <time>2022-07-26T08:28:59Z</time>
      </trkpt>
      <trkpt lat="45.9406550" lon="5.6253440">
        <ele>1011.2</ele>
        <time>2022-07-26T08:29:00Z</time>
      </trkpt>
      <trkpt lat="45.9406360" lon="5.6254490">
        <ele>1011.2</ele>
        <time>2022-07-26T08:29:01Z</time>
      </trkpt>
      <trkpt lat="45.9406050" lon="5.6255700">
        <ele>1011.1</ele>
        <time>2022-07-26T08:29:02Z</time>
      </trkpt>
      <trkpt lat="45.9405680" lon="5.6256970">
        <ele>1011.2</ele>
        <time>2022-07-26T08:29:03Z</time>
      </trkpt>
      <trkpt lat="45.9405370" lon="5.6258020">
        <ele>1011.3</ele>
        <time>2022-07-26T08:29:04Z</time>
      </trkpt>
      <trkpt lat="45.9404980" lon="5.6258810">
        <ele>1011.4</ele>
        <time>2022-07-26T08:29:05Z</time>
      </trkpt>
      <trkpt lat="45.9404550" lon="5.6259600">
        <ele>1011.5</ele>
        <time>2022-07-26T08:29:06Z</time>
      </trkpt>
      <trkpt lat="45.9404070" lon="5.6260300">
        <ele>1011.7</ele>
        <time>2022-07-26T08:29:07Z</time>
      </trkpt>
      <trkpt lat="45.9403610" lon="5.6260840">
        <ele>1012.0</ele>
        <time>2022-07-26T08:29:08Z</time>
      </trkpt>
      <trkpt lat="45.9403200" lon="5.6261320">
        <ele>1012.3</ele>
        <time>2022-07-26T08:29:09Z</time>
      </trkpt>
      <trkpt lat="45.9402870" lon="5.6261850">
        <ele>1012.6</ele>
        <time>2022-07-26T08:29:10Z</time>
      </trkpt>
      <trkpt lat="45.9402510" lon="5.6262300">
        <ele>1012.9</ele>
        <time>2022-07-26T08:29:11Z</time>
      </trkpt>
      <trkpt lat="45.9402260" lon="5.6262600">
        <ele>1013.2</ele>
        <time>2022-07-26T08:29:12Z</time>
      </trkpt>
      <trkpt lat="45.9402070" lon="5.6262990">
        <ele>1013.4</ele>
        <time>2022-07-26T08:29:13Z</time>
      </trkpt>
      <trkpt lat="45.9401860" lon="5.6263390">
        <ele>1013.7</ele>
        <time>2022-07-26T08:29:14Z</time>
      </trkpt>
      <trkpt lat="45.9401620" lon="5.6263700">
        <ele>1014.0</ele>
        <time>2022-07-26T08:29:15Z</time>
      </trkpt>
      <trkpt lat="45.9401450" lon="5.6264080">
        <ele>1014.3</ele>
        <time>2022-07-26T08:29:16Z</time>
      </trkpt>
      <trkpt lat="45.9401390" lon="5.6264200">
        <ele>1014.4</ele>
        <time>2022-07-26T08:29:17Z</time>
      </trkpt>
      <trkpt lat="45.9401180" lon="5.6264470">
        <ele>1014.7</ele>
        <time>2022-07-26T08:29:18Z</time>
      </trkpt>
      <trkpt lat="45.9401100" lon="5.6264550">
        <ele>1014.8</ele>
        <time>2022-07-26T08:29:19Z</time>
      </trkpt>
      <trkpt lat="45.9400970" lon="5.6264670">
        <ele>1015.0</ele>
        <time>2022-07-26T08:29:20Z</time>
      </trkpt>
      <trkpt lat="45.9400880" lon="5.6264830">
        <ele>1015.1</ele>
        <time>2022-07-26T08:29:21Z</time>
      </trkpt>
      <trkpt lat="45.9400810" lon="5.6265010">
        <ele>1015.3</ele>
        <time>2022-07-26T08:29:22Z</time>
      </trkpt>
      <trkpt lat="45.9400720" lon="5.6265240">
        <ele>1015.5</ele>
        <time>2022-07-26T08:29:23Z</time>
      </trkpt>
      <trkpt lat="45.9400640" lon="5.6265440">
        <ele>1015.7</ele>
        <time>2022-07-26T08:29:24Z</time>
      </trkpt>
      <trkpt lat="45.9400540" lon="5.6265600">
        <ele>1015.9</ele>
        <time>2022-07-26T08:29:25Z</time>
      </trkpt>
      <trkpt lat="45.9400430" lon="5.6265740">
        <ele>1016.0</ele>
        <time>2022-07-26T08:29:26Z</time>
      </trkpt>
      <trkpt lat="45.9400280" lon="5.6265910">
        <ele>1016.2</ele>
        <time>2022-07-26T08:29:27Z</time>
      </trkpt>
      <trkpt lat="45.9400140" lon="5.6266050">
        <ele>1016.4</ele>
        <time>2022-07-26T08:29:28Z</time>
      </trkpt>
      <trkpt lat="45.9400010" lon="5.6266170">
        <ele>1016.6</ele>
        <time>2022-07-26T08:29:29Z</time>
      </trkpt>
      <trkpt lat="45.9399740" lon="5.6266440">
        <ele>1016.8</ele>
        <time>2022-07-26T08:29:30Z</time>
      </trkpt>
      <trkpt lat="45.9399630" lon="5.6266540">
        <ele>1016.8</ele>
        <time>2022-07-26T08:29:31Z</time>
      </trkpt>
      <trkpt lat="45.9399410" lon="5.6266830">
        <ele>1016.9</ele>
        <time>2022-07-26T08:29:32Z</time>
      </trkpt>
      <trkpt lat="45.9399330" lon="5.6266950">
        <ele>1016.9</ele>
        <time>2022-07-26T08:29:33Z</time>
      </trkpt>
      <trkpt lat="45.9399110" lon="5.6267350">
        <ele>1017.0</ele>
        <time>2022-07-26T08:29:34Z</time>
      </trkpt>
      <trkpt lat="45.9399050" lon="5.6267450">
        <ele>1017.0</ele>
        <time>2022-07-26T08:29:35Z</time>
      </trkpt>
      <trkpt lat="45.9398910" lon="5.6267680">
        <ele>1017.0</ele>
        <time>2022-07-26T08:29:36Z</time>
      </trkpt>
      <trkpt lat="45.9398840" lon="5.6267850">
        <ele>1017.1</ele>
        <time>2022-07-26T08:29:37Z</time>
      </trkpt>
      <trkpt lat="45.9398740" lon="5.6268050">
        <ele>1017.1</ele>
        <time>2022-07-26T08:29:38Z</time>
      </trkpt>
      <trkpt lat="45.9398670" lon="5.6268210">
        <ele>1017.1</ele>
        <time>2022-07-26T08:29:39Z</time>
      </trkpt>
      <trkpt lat="45.9398650" lon="5.6268420">
        <ele>1017.1</ele>
        <time>2022-07-26T08:29:40Z</time>
      </trkpt>
      <trkpt lat="45.9398650" lon="5.6268690">
        <ele>1017.2</ele>
        <time>2022-07-26T08:29:41Z</time>
      </trkpt>
      <trkpt lat="45.9398610" lon="5.6268870">
        <ele>1017.2</ele>
        <time>2022-07-26T08:29:42Z</time>
      </trkpt>
      <trkpt lat="45.9398560" lon="5.6269140">
        <ele>1017.2</ele>
        <time>2022-07-26T08:29:43Z</time>
      </trkpt>
      <trkpt lat="45.9398530" lon="5.6269550">
        <ele>1017.3</ele>
        <time>2022-07-26T08:29:44Z</time>
      </trkpt>
      <trkpt lat="45.9398510" lon="5.6269680">
        <ele>1017.3</ele>
        <time>2022-07-26T08:29:45Z</time>
      </trkpt>
      <trkpt lat="45.9398480" lon="5.6269880">
        <ele>1017.4</ele>
        <time>2022-07-26T08:29:46Z</time>
      </trkpt>
      <trkpt lat="45.9398440" lon="5.6270080">
        <ele>1017.5</ele>
        <time>2022-07-26T08:29:47Z</time>
      </trkpt>
      <trkpt lat="45.9398400" lon="5.6270290">
        <ele>1017.7</ele>
        <time>2022-07-26T08:29:48Z</time>
      </trkpt>
      <trkpt lat="45.9398340" lon="5.6270530">
        <ele>1017.8</ele>
        <time>2022-07-26T08:29:49Z</time>
      </trkpt>
      <trkpt lat="45.9398180" lon="5.6270870">
        <ele>1018.0</ele>
        <time>2022-07-26T08:29:50Z</time>
      </trkpt>
      <trkpt lat="45.9398110" lon="5.6270980">
        <ele>1018.1</ele>
        <time>2022-07-26T08:29:51Z</time>
      </trkpt>
      <trkpt lat="45.9397910" lon="5.6271310">
        <ele>1018.3</ele>
        <time>2022-07-26T08:29:52Z</time>
      </trkpt>
      <trkpt lat="45.9397830" lon="5.6271450">
        <ele>1018.4</ele>
        <time>2022-07-26T08:29:53Z</time>
      </trkpt>
      <trkpt lat="45.9397670" lon="5.6271880">
        <ele>1018.6</ele>
        <time>2022-07-26T08:29:54Z</time>
      </trkpt>
      <trkpt lat="45.9397610" lon="5.6272010">
        <ele>1018.7</ele>
        <time>2022-07-26T08:29:55Z</time>
      </trkpt>
      <trkpt lat="45.9397460" lon="5.6272360">
        <ele>1018.9</ele>
        <time>2022-07-26T08:29:56Z</time>
      </trkpt>
      <trkpt lat="45.9397260" lon="5.6272820">
        <ele>1019.1</ele>
        <time>2022-07-26T08:29:57Z</time>
      </trkpt>
      <trkpt lat="45.9397200" lon="5.6272970">
        <ele>1019.2</ele>
        <time>2022-07-26T08:29:58Z</time>
      </trkpt>
      <trkpt lat="45.9397060" lon="5.6273400">
        <ele>1019.4</ele>
        <time>2022-07-26T08:29:59Z</time>
      </trkpt>
      <trkpt lat="45.9397010" lon="5.6273490">
        <ele>1019.5</ele>
        <time>2022-07-26T08:30:00Z</time>
      </trkpt>
      <trkpt lat="45.9396850" lon="5.6273840">
        <ele>1019.6</ele>
        <time>2022-07-26T08:30:01Z</time>
      </trkpt>
      <trkpt lat="45.9396790" lon="5.6273970">
        <ele>1019.7</ele>
        <time>2022-07-26T08:30:02Z</time>
      </trkpt>
      <trkpt lat="45.9396570" lon="5.6274410">
        <ele>1019.9</ele>
        <time>2022-07-26T08:30:03Z</time>
      </trkpt>
      <trkpt lat="45.9396490" lon="5.6274570">
        <ele>1020.0</ele>
        <time>2022-07-26T08:30:04Z</time>
      </trkpt>
      <trkpt lat="45.9396280" lon="5.6274980">
        <ele>1020.2</ele>
        <time>2022-07-26T08:30:05Z</time>
      </trkpt>
      <trkpt lat="45.9396220" lon="5.6275100">
        <ele>1020.3</ele>
        <time>2022-07-26T08:30:06Z</time>
      </trkpt>
      <trkpt lat="45.9396000" lon="5.6275440">
        <ele>1020.5</ele>
        <time>2022-07-26T08:30:07Z</time>
      </trkpt>
      <trkpt lat="45.9395930" lon="5.6275530">
        <ele>1020.5</ele>
        <time>2022-07-26T08:30:08Z</time>
      </trkpt>
      <trkpt lat="45.9395800" lon="5.6275690">
        <ele>1020.6</ele>
        <time>2022-07-26T08:30:09Z</time>
      </trkpt>
      <trkpt lat="45.9395690" lon="5.6275880">
        <ele>1020.7</ele>
        <time>2022-07-26T08:30:10Z</time>
      </trkpt>
      <trkpt lat="45.9395600" lon="5.6276040">
        <ele>1020.8</ele>
        <time>2022-07-26T08:30:11Z</time>
      </trkpt>
      <trkpt lat="45.9395490" lon="5.6276210">
        <ele>1020.9</ele>
        <time>2022-07-26T08:30:12Z</time>
      </trkpt>
      <trkpt lat="45.9395180" lon="5.6276480">
        <ele>1021.1</ele>
        <time>2022-07-26T08:30:13Z</time>
      </trkpt>
      <trkpt lat="45.9395040" lon="5.6276590">
        <ele>1021.1</ele>
        <time>2022-07-26T08:30:14Z</time>
      </trkpt>
      <trkpt lat="45.9394680" lon="5.6276940">
        <ele>1021.4</ele>
        <time>2022-07-26T08:30:16Z</time>
      </trkpt>
      <trkpt lat="45.9394570" lon="5.6277090">
        <ele>1021.4</ele>
        <time>2022-07-26T08:30:17Z</time>
      </trkpt>
      <trkpt lat="45.9394470" lon="5.6277250">
        <ele>1021.5</ele>
        <time>2022-07-26T08:30:18Z</time>
      </trkpt>
      <trkpt lat="45.9394280" lon="5.6277730">
        <ele>1021.7</ele>
        <time>2022-07-26T08:30:19Z</time>
      </trkpt>
      <trkpt lat="45.9394120" lon="5.6278080">
        <ele>1021.8</ele>
        <time>2022-07-26T08:30:20Z</time>
      </trkpt>
      <trkpt lat="45.9393930" lon="5.6278550">
        <ele>1022.0</ele>
        <time>2022-07-26T08:30:22Z</time>
      </trkpt>
      <trkpt lat="45.9393780" lon="5.6278950">
        <ele>1022.1</ele>
        <time>2022-07-26T08:30:23Z</time>
      </trkpt>
      <trkpt lat="45.9393750" lon="5.6279040">
        <ele>1022.1</ele>
        <time>2022-07-26T08:30:24Z</time>
      </trkpt>
      <trkpt lat="45.9393700" lon="5.6279200">
        <ele>1022.2</ele>
        <time>2022-07-26T08:30:25Z</time>
      </trkpt>
      <trkpt lat="45.9393610" lon="5.6279470">
        <ele>1022.3</ele>
        <time>2022-07-26T08:30:26Z</time>
      </trkpt>
      <trkpt lat="45.9393430" lon="5.6280030">
        <ele>1022.4</ele>
        <time>2022-07-26T08:30:27Z</time>
      </trkpt>
      <trkpt lat="45.9393310" lon="5.6280440">
        <ele>1022.6</ele>
        <time>2022-07-26T08:30:28Z</time>
      </trkpt>
      <trkpt lat="45.9393140" lon="5.6280970">
        <ele>1022.7</ele>
        <time>2022-07-26T08:30:30Z</time>
      </trkpt>
      <trkpt lat="45.9393020" lon="5.6281330">
        <ele>1022.8</ele>
        <time>2022-07-26T08:30:31Z</time>
      </trkpt>
      <trkpt lat="45.9392890" lon="5.6281660">
        <ele>1022.9</ele>
        <time>2022-07-26T08:30:32Z</time>
      </trkpt>
      <trkpt lat="45.9392750" lon="5.6282120">
        <ele>1023.1</ele>
        <time>2022-07-26T08:30:33Z</time>
      </trkpt>
      <trkpt lat="45.9392610" lon="5.6282540">
        <ele>1023.2</ele>
        <time>2022-07-26T08:30:34Z</time>
      </trkpt>
      <trkpt lat="45.9392470" lon="5.6283050">
        <ele>1023.4</ele>
        <time>2022-07-26T08:30:36Z</time>
      </trkpt>
      <trkpt lat="45.9392340" lon="5.6283460">
        <ele>1023.5</ele>
        <time>2022-07-26T08:30:37Z</time>
      </trkpt>
      <trkpt lat="45.9392170" lon="5.6283960">
        <ele>1023.7</ele>
        <time>2022-07-26T08:30:38Z</time>
      </trkpt>
      <trkpt lat="45.9392100" lon="5.6284150">
        <ele>1023.8</ele>
        <time>2022-07-26T08:30:39Z</time>
      </trkpt>
      <trkpt lat="45.9391890" lon="5.6284700">
        <ele>1024.0</ele>
        <time>2022-07-26T08:30:41Z</time>
      </trkpt>
      <trkpt lat="45.9391810" lon="5.6284890">
        <ele>1024.1</ele>
        <time>2022-07-26T08:30:42Z</time>
      </trkpt>
      <trkpt lat="45.9391730" lon="5.6285090">
        <ele>1024.2</ele>
        <time>2022-07-26T08:30:43Z</time>
      </trkpt>
      <trkpt lat="45.9391580" lon="5.6285620">
        <ele>1024.4</ele>
        <time>2022-07-26T08:30:44Z</time>
      </trkpt>
      <trkpt lat="45.9391520" lon="5.6285790">
        <ele>1024.5</ele>
        <time>2022-07-26T08:30:45Z</time>
      </trkpt>
      <trkpt lat="45.9391390" lon="5.6286140">
        <ele>1024.7</ele>
        <time>2022-07-26T08:30:46Z</time>
      </trkpt>
      <trkpt lat="45.9391240" lon="5.6286480">
        <ele>1024.8</ele>
        <time>2022-07-26T08:30:47Z</time>
      </trkpt>
      <trkpt lat="45.9391050" lon="5.6287130">
        <ele>1025.1</ele>
        <time>2022-07-26T08:30:49Z</time>
      </trkpt>
      <trkpt lat="45.9390940" lon="5.6287540">
        <ele>1025.3</ele>
        <time>2022-07-26T08:30:50Z</time>
      </trkpt>
      <trkpt lat="45.9390830" lon="5.6288080">
        <ele>1025.6</ele>
        <time>2022-07-26T08:30:51Z</time>
      </trkpt>
      <trkpt lat="45.9390790" lon="5.6288240">
        <ele>1025.6</ele>
        <time>2022-07-26T08:30:52Z</time>
      </trkpt>
      <trkpt lat="45.9390700" lon="5.6288770">
        <ele>1025.9</ele>
        <time>2022-07-26T08:30:53Z</time>
      </trkpt>
      <trkpt lat="45.9390660" lon="5.6288980">
        <ele>1026.0</ele>
        <time>2022-07-26T08:30:54Z</time>
      </trkpt>
      <trkpt lat="45.9390590" lon="5.6289330">
        <ele>1026.1</ele>
        <time>2022-07-26T08:30:55Z</time>
      </trkpt>
      <trkpt lat="45.9390540" lon="5.6289720">
        <ele>1026.3</ele>
        <time>2022-07-26T08:30:57Z</time>
      </trkpt>
      <trkpt lat="45.9390520" lon="5.6290170">
        <ele>1026.4</ele>
        <time>2022-07-26T08:30:58Z</time>
      </trkpt>
      <trkpt lat="45.9390490" lon="5.6290630">
        <ele>1026.6</ele>
        <time>2022-07-26T08:30:59Z</time>
      </trkpt>
      <trkpt lat="45.9390440" lon="5.6290990">
        <ele>1026.7</ele>
        <time>2022-07-26T08:31:00Z</time>
      </trkpt>
      <trkpt lat="45.9390360" lon="5.6291440">
        <ele>1026.9</ele>
        <time>2022-07-26T08:31:02Z</time>
      </trkpt>
      <trkpt lat="45.9390280" lon="5.6291920">
        <ele>1027.1</ele>
        <time>2022-07-26T08:31:03Z</time>
      </trkpt>
      <trkpt lat="45.9390260" lon="5.6292100">
        <ele>1027.1</ele>
        <time>2022-07-26T08:31:04Z</time>
      </trkpt>
      <trkpt lat="45.9390210" lon="5.6292380">
        <ele>1027.2</ele>
        <time>2022-07-26T08:31:05Z</time>
      </trkpt>
      <trkpt lat="45.9390110" lon="5.6292720">
        <ele>1027.3</ele>
        <time>2022-07-26T08:31:07Z</time>
      </trkpt>
      <trkpt lat="45.9389970" lon="5.6293300">
        <ele>1027.4</ele>
        <time>2022-07-26T08:31:08Z</time>
      </trkpt>
      <trkpt lat="45.9389920" lon="5.6293540">
        <ele>1027.4</ele>
        <time>2022-07-26T08:31:09Z</time>
      </trkpt>
      <trkpt lat="45.9389790" lon="5.6293970">
        <ele>1027.4</ele>
        <time>2022-07-26T08:31:10Z</time>
      </trkpt>
      <trkpt lat="45.9389700" lon="5.6294420">
        <ele>1027.5</ele>
        <time>2022-07-26T08:31:11Z</time>
      </trkpt>
      <trkpt lat="45.9389690" lon="5.6294560">
        <ele>1027.5</ele>
        <time>2022-07-26T08:31:12Z</time>
      </trkpt>
      <trkpt lat="45.9389670" lon="5.6295150">
        <ele>1027.5</ele>
        <time>2022-07-26T08:31:13Z</time>
      </trkpt>
      <trkpt lat="45.9389660" lon="5.6295370">
        <ele>1027.5</ele>
        <time>2022-07-26T08:31:14Z</time>
      </trkpt>
      <trkpt lat="45.9389630" lon="5.6295840">
        <ele>1027.5</ele>
        <time>2022-07-26T08:31:15Z</time>
      </trkpt>
      <trkpt lat="45.9389570" lon="5.6296340">
        <ele>1027.5</ele>
        <time>2022-07-26T08:31:16Z</time>
      </trkpt>
      <trkpt lat="45.9389520" lon="5.6296780">
        <ele>1027.5</ele>
        <time>2022-07-26T08:31:17Z</time>
      </trkpt>
      <trkpt lat="45.9389470" lon="5.6297230">
        <ele>1027.5</ele>
        <time>2022-07-26T08:31:18Z</time>
      </trkpt>
      <trkpt lat="45.9389440" lon="5.6297620">
        <ele>1027.5</ele>
        <time>2022-07-26T08:31:19Z</time>
      </trkpt>
      <trkpt lat="45.9389350" lon="5.6298460">
        <ele>1027.5</ele>
        <time>2022-07-26T08:31:20Z</time>
      </trkpt>
      <trkpt lat="45.9389320" lon="5.6299220">
        <ele>1027.4</ele>
        <time>2022-07-26T08:31:21Z</time>
      </trkpt>
      <trkpt lat="45.9389520" lon="5.6300750">
        <ele>1027.4</ele>
        <time>2022-07-26T08:31:23Z</time>
      </trkpt>
      <trkpt lat="45.9389490" lon="5.6301290">
        <ele>1027.4</ele>
        <time>2022-07-26T08:31:24Z</time>
      </trkpt>
      <trkpt lat="45.9389240" lon="5.6301820">
        <ele>1027.4</ele>
        <time>2022-07-26T08:31:25Z</time>
      </trkpt>
      <trkpt lat="45.9389190" lon="5.6302130">
        <ele>1027.4</ele>
        <time>2022-07-26T08:31:26Z</time>
      </trkpt>
      <trkpt lat="45.9389220" lon="5.6302790">
        <ele>1027.4</ele>
        <time>2022-07-26T08:31:28Z</time>
      </trkpt>
      <trkpt lat="45.9389170" lon="5.6303310">
        <ele>1027.4</ele>
        <time>2022-07-26T08:31:29Z</time>
      </trkpt>
      <trkpt lat="45.9389190" lon="5.6303780">
        <ele>1027.5</ele>
        <time>2022-07-26T08:31:30Z</time>
      </trkpt>
      <trkpt lat="45.9389200" lon="5.6304160">
        <ele>1027.5</ele>
        <time>2022-07-26T08:31:31Z</time>
      </trkpt>
      <trkpt lat="45.9389290" lon="5.6304630">
        <ele>1027.6</ele>
        <time>2022-07-26T08:31:33Z</time>
      </trkpt>
      <trkpt lat="45.9389270" lon="5.6304870">
        <ele>1027.6</ele>
        <time>2022-07-26T08:31:34Z</time>
      </trkpt>
      <trkpt lat="45.9389110" lon="5.6304980">
        <ele>1027.6</ele>
        <time>2022-07-26T08:31:35Z</time>
      </trkpt>
      <trkpt lat="45.9388850" lon="5.6305020">
        <ele>1027.6</ele>
        <time>2022-07-26T08:31:36Z</time>
      </trkpt>
      <trkpt lat="45.9388460" lon="5.6305020">
        <ele>1027.5</ele>
        <time>2022-07-26T08:31:38Z</time>
      </trkpt>
      <trkpt lat="45.9388080" lon="5.6305070">
        <ele>1027.4</ele>
        <time>2022-07-26T08:31:39Z</time>
      </trkpt>
      <trkpt lat="45.9387960" lon="5.6305070">
        <ele>1027.4</ele>
        <time>2022-07-26T08:31:40Z</time>
      </trkpt>
      <trkpt lat="45.9387660" lon="5.6305070">
        <ele>1027.3</ele>
        <time>2022-07-26T08:31:41Z</time>
      </trkpt>
      <trkpt lat="45.9387310" lon="5.6305070">
        <ele>1027.1</ele>
        <time>2022-07-26T08:31:42Z</time>
      </trkpt>
      <trkpt lat="45.9386980" lon="5.6305090">
        <ele>1026.9</ele>
        <time>2022-07-26T08:31:43Z</time>
      </trkpt>
      <trkpt lat="45.9386740" lon="5.6305070">
        <ele>1026.7</ele>
        <time>2022-07-26T08:31:44Z</time>
      </trkpt>
      <trkpt lat="45.9386620" lon="5.6305070">
        <ele>1026.7</ele>
        <time>2022-07-26T08:31:46Z</time>
      </trkpt>
      <trkpt lat="45.9386350" lon="5.6305030">
        <ele>1026.4</ele>
        <time>2022-07-26T08:31:47Z</time>
      </trkpt>
      <trkpt lat="45.9386250" lon="5.6305040">
        <ele>1026.4</ele>
        <time>2022-07-26T08:31:48Z</time>
      </trkpt>
      <trkpt lat="45.9385960" lon="5.6304990">
        <ele>1026.1</ele>
        <time>2022-07-26T08:31:49Z</time>
      </trkpt>
      <trkpt lat="45.9385670" lon="5.6304930">
        <ele>1025.9</ele>
        <time>2022-07-26T08:31:50Z</time>
      </trkpt>
      <trkpt lat="45.9385340" lon="5.6304850">
        <ele>1025.6</ele>
        <time>2022-07-26T08:31:51Z</time>
      </trkpt>
      <trkpt lat="45.9385240" lon="5.6304830">
        <ele>1025.5</ele>
        <time>2022-07-26T08:31:52Z</time>
      </trkpt>
      <trkpt lat="45.9384960" lon="5.6304900">
        <ele>1025.2</ele>
        <time>2022-07-26T08:31:53Z</time>
      </trkpt>
      <trkpt lat="45.9384870" lon="5.6304930">
        <ele>1025.1</ele>
        <time>2022-07-26T08:31:54Z</time>
      </trkpt>
      <trkpt lat="45.9384420" lon="5.6305010">
        <ele>1024.7</ele>
        <time>2022-07-26T08:31:55Z</time>
      </trkpt>
      <trkpt lat="45.9384240" lon="5.6305040">
        <ele>1024.5</ele>
        <time>2022-07-26T08:31:56Z</time>
      </trkpt>
      <trkpt lat="45.9383910" lon="5.6305130">
        <ele>1024.2</ele>
        <time>2022-07-26T08:31:57Z</time>
      </trkpt>
      <trkpt lat="45.9383500" lon="5.6305290">
        <ele>1023.8</ele>
        <time>2022-07-26T08:31:58Z</time>
      </trkpt>
      <trkpt lat="45.9383010" lon="5.6305500">
        <ele>1023.3</ele>
        <time>2022-07-26T08:32:00Z</time>
      </trkpt>
      <trkpt lat="45.9382420" lon="5.6305710">
        <ele>1022.7</ele>
        <time>2022-07-26T08:32:01Z</time>
      </trkpt>
      <trkpt lat="45.9382020" lon="5.6305930">
        <ele>1022.4</ele>
        <time>2022-07-26T08:32:02Z</time>
      </trkpt>
      <trkpt lat="45.9380660" lon="5.6306410">
        <ele>1021.1</ele>
        <time>2022-07-26T08:32:03Z</time>
      </trkpt>
      <trkpt lat="45.9380180" lon="5.6306720">
        <ele>1020.8</ele>
        <time>2022-07-26T08:32:04Z</time>
      </trkpt>
      <trkpt lat="45.9379760" lon="5.6307010">
        <ele>1020.5</ele>
        <time>2022-07-26T08:32:05Z</time>
      </trkpt>
      <trkpt lat="45.9379170" lon="5.6307110">
        <ele>1020.2</ele>
        <time>2022-07-26T08:32:06Z</time>
      </trkpt>
      <trkpt lat="45.9378820" lon="5.6307160">
        <ele>1020.0</ele>
        <time>2022-07-26T08:32:07Z</time>
      </trkpt>
      <trkpt lat="45.9378470" lon="5.6307220">
        <ele>1019.8</ele>
        <time>2022-07-26T08:32:08Z</time>
      </trkpt>
      <trkpt lat="45.9378030" lon="5.6307320">
        <ele>1019.6</ele>
        <time>2022-07-26T08:32:09Z</time>
      </trkpt>
      <trkpt lat="45.9377600" lon="5.6307600">
        <ele>1019.3</ele>
        <time>2022-07-26T08:32:10Z</time>
      </trkpt>
      <trkpt lat="45.9377260" lon="5.6307900">
        <ele>1019.1</ele>
        <time>2022-07-26T08:32:11Z</time>
      </trkpt>
      <trkpt lat="45.9376870" lon="5.6308200">
        <ele>1018.9</ele>
        <time>2022-07-26T08:32:13Z</time>
      </trkpt>
      <trkpt lat="45.9376640" lon="5.6308520">
        <ele>1018.7</ele>
        <time>2022-07-26T08:32:14Z</time>
      </trkpt>
      <trkpt lat="45.9376420" lon="5.6308890">
        <ele>1018.5</ele>
        <time>2022-07-26T08:32:15Z</time>
      </trkpt>
      <trkpt lat="45.9376170" lon="5.6309150">
        <ele>1018.3</ele>
        <time>2022-07-26T08:32:16Z</time>
      </trkpt>
      <trkpt lat="45.9375910" lon="5.6309420">
        <ele>1018.0</ele>
        <time>2022-07-26T08:32:17Z</time>
      </trkpt>
      <trkpt lat="45.9375690" lon="5.6309670">
        <ele>1017.8</ele>
        <time>2022-07-26T08:32:18Z</time>
      </trkpt>
      <trkpt lat="45.9375220" lon="5.6310120">
        <ele>1017.4</ele>
        <time>2022-07-26T08:32:19Z</time>
      </trkpt>
      <trkpt lat="45.9374790" lon="5.6310360">
        <ele>1017.2</ele>
        <time>2022-07-26T08:32:20Z</time>
      </trkpt>
      <trkpt lat="45.9374680" lon="5.6310510">
        <ele>1017.1</ele>
        <time>2022-07-26T08:32:21Z</time>
      </trkpt>
      <trkpt lat="45.9374590" lon="5.6310700">
        <ele>1017.0</ele>
        <time>2022-07-26T08:32:22Z</time>
      </trkpt>
      <trkpt lat="45.9374320" lon="5.6310920">
        <ele>1016.9</ele>
        <time>2022-07-26T08:32:23Z</time>
      </trkpt>
      <trkpt lat="45.9374050" lon="5.6311070">
        <ele>1016.8</ele>
        <time>2022-07-26T08:32:24Z</time>
      </trkpt>
      <trkpt lat="45.9373830" lon="5.6311430">
        <ele>1016.8</ele>
        <time>2022-07-26T08:32:25Z</time>
      </trkpt>
      <trkpt lat="45.9373820" lon="5.6311590">
        <ele>1016.7</ele>
        <time>2022-07-26T08:32:26Z</time>
      </trkpt>
      <trkpt lat="45.9373730" lon="5.6311970">
        <ele>1016.7</ele>
        <time>2022-07-26T08:32:27Z</time>
      </trkpt>
      <trkpt lat="45.9373560" lon="5.6312440">
        <ele>1016.6</ele>
        <time>2022-07-26T08:32:29Z</time>
      </trkpt>
      <trkpt lat="45.9373490" lon="5.6312640">
        <ele>1016.5</ele>
        <time>2022-07-26T08:32:30Z</time>
      </trkpt>
      <trkpt lat="45.9373430" lon="5.6312780">
        <ele>1016.5</ele>
        <time>2022-07-26T08:32:31Z</time>
      </trkpt>
      <trkpt lat="45.9373350" lon="5.6313020">
        <ele>1016.4</ele>
        <time>2022-07-26T08:32:32Z</time>
      </trkpt>
      <trkpt lat="45.9373300" lon="5.6313130">
        <ele>1016.3</ele>
        <time>2022-07-26T08:32:33Z</time>
      </trkpt>
      <trkpt lat="45.9373250" lon="5.6313240">
        <ele>1016.3</ele>
        <time>2022-07-26T08:32:35Z</time>
      </trkpt>
      <trkpt lat="45.9373190" lon="5.6313340">
        <ele>1016.2</ele>
        <time>2022-07-26T08:32:36Z</time>
      </trkpt>
      <trkpt lat="45.9373140" lon="5.6313450">
        <ele>1016.1</ele>
        <time>2022-07-26T08:32:37Z</time>
      </trkpt>
      <trkpt lat="45.9373090" lon="5.6313560">
        <ele>1016.1</ele>
        <time>2022-07-26T08:32:39Z</time>
      </trkpt>
      <trkpt lat="45.9373040" lon="5.6313670">
        <ele>1016.0</ele>
        <time>2022-07-26T08:32:40Z</time>
      </trkpt>
      <trkpt lat="45.9372990" lon="5.6313780">
        <ele>1015.9</ele>
        <time>2022-07-26T08:32:41Z</time>
      </trkpt>
      <trkpt lat="45.9372940" lon="5.6313890">
        <ele>1015.9</ele>
        <time>2022-07-26T08:32:42Z</time>
      </trkpt>
      <trkpt lat="45.9372880" lon="5.6313990">
        <ele>1015.8</ele>
        <time>2022-07-26T08:32:43Z</time>
      </trkpt>
      <trkpt lat="45.9372830" lon="5.6314100">
        <ele>1015.7</ele>
        <time>2022-07-26T08:32:57Z</time>
      </trkpt>
      <trkpt lat="45.9372780" lon="5.6314210">
        <ele>1015.6</ele>
        <time>2022-07-26T08:32:58Z</time>
      </trkpt>
      <trkpt lat="45.9372730" lon="5.6314320">
        <ele>1015.5</ele>
        <time>2022-07-26T08:32:59Z</time>
      </trkpt>
      <trkpt lat="45.9372580" lon="5.6314770">
        <ele>1015.1</ele>
        <time>2022-07-26T08:33:00Z</time>
      </trkpt>
      <trkpt lat="45.9372540" lon="5.6314910">
        <ele>1015.0</ele>
        <time>2022-07-26T08:33:01Z</time>
      </trkpt>
      <trkpt lat="45.9372460" lon="5.6315390">
        <ele>1014.6</ele>
        <time>2022-07-26T08:33:02Z</time>
      </trkpt>
      <trkpt lat="45.9372440" lon="5.6315530">
        <ele>1014.5</ele>
        <time>2022-07-26T08:33:03Z</time>
      </trkpt>
      <trkpt lat="45.9372380" lon="5.6315920">
        <ele>1014.1</ele>
        <time>2022-07-26T08:33:04Z</time>
      </trkpt>
      <trkpt lat="45.9372310" lon="5.6316450">
        <ele>1013.5</ele>
        <time>2022-07-26T08:33:06Z</time>
      </trkpt>
      <trkpt lat="45.9372280" lon="5.6316650">
        <ele>1013.3</ele>
        <time>2022-07-26T08:33:07Z</time>
      </trkpt>
      <trkpt lat="45.9372130" lon="5.6317460">
        <ele>1012.3</ele>
        <time>2022-07-26T08:33:08Z</time>
      </trkpt>
      <trkpt lat="45.9372070" lon="5.6317960">
        <ele>1011.8</ele>
        <time>2022-07-26T08:33:10Z</time>
      </trkpt>
      <trkpt lat="45.9372030" lon="5.6318340">
        <ele>1011.3</ele>
        <time>2022-07-26T08:33:11Z</time>
      </trkpt>
      <trkpt lat="45.9371970" lon="5.6318720">
        <ele>1010.9</ele>
        <time>2022-07-26T08:33:12Z</time>
      </trkpt>
      <trkpt lat="45.9371880" lon="5.6319080">
        <ele>1010.4</ele>
        <time>2022-07-26T08:33:13Z</time>
      </trkpt>
      <trkpt lat="45.9371730" lon="5.6319540">
        <ele>1009.8</ele>
        <time>2022-07-26T08:33:15Z</time>
      </trkpt>
      <trkpt lat="45.9371690" lon="5.6319790">
        <ele>1009.5</ele>
        <time>2022-07-26T08:33:16Z</time>
      </trkpt>
      <trkpt lat="45.9371670" lon="5.6319900">
        <ele>1009.4</ele>
        <time>2022-07-26T08:33:17Z</time>
      </trkpt>
      <trkpt lat="45.9371660" lon="5.6320020">
        <ele>1009.2</ele>
        <time>2022-07-26T08:33:18Z</time>
      </trkpt>
      <trkpt lat="45.9371650" lon="5.6320130">
        <ele>1009.1</ele>
        <time>2022-07-26T08:33:19Z</time>
      </trkpt>
      <trkpt lat="45.9371630" lon="5.6320240">
        <ele>1009.0</ele>
        <time>2022-07-26T08:33:20Z</time>
      </trkpt>
      <trkpt lat="45.9371620" lon="5.6320350">
        <ele>1008.8</ele>
        <time>2022-07-26T08:33:21Z</time>
      </trkpt>
      <trkpt lat="45.9371600" lon="5.6320470">
        <ele>1008.7</ele>
        <time>2022-07-26T08:33:22Z</time>
      </trkpt>
      <trkpt lat="45.9371590" lon="5.6320580">
        <ele>1008.5</ele>
        <time>2022-07-26T08:33:23Z</time>
      </trkpt>
      <trkpt lat="45.9371570" lon="5.6320690">
        <ele>1008.4</ele>
        <time>2022-07-26T08:33:24Z</time>
      </trkpt>
      <trkpt lat="45.9371560" lon="5.6320800">
        <ele>1008.3</ele>
        <time>2022-07-26T08:33:25Z</time>
      </trkpt>
      <trkpt lat="45.9371550" lon="5.6320920">
        <ele>1008.1</ele>
        <time>2022-07-26T08:33:26Z</time>
      </trkpt>
      <trkpt lat="45.9371530" lon="5.6321030">
        <ele>1008.0</ele>
        <time>2022-07-26T08:34:23Z</time>
      </trkpt>
      <trkpt lat="45.9371520" lon="5.6321140">
        <ele>1007.8</ele>
        <time>2022-07-26T08:34:24Z</time>
      </trkpt>
      <trkpt lat="45.9371500" lon="5.6321250">
        <ele>1007.7</ele>
        <time>2022-07-26T08:34:25Z</time>
      </trkpt>
      <trkpt lat="45.9371490" lon="5.6321370">
        <ele>1007.5</ele>
        <time>2022-07-26T08:34:26Z</time>
      </trkpt>
      <trkpt lat="45.9371360" lon="5.6321830">
        <ele>1006.8</ele>
        <time>2022-07-26T08:34:27Z</time>
      </trkpt>
      <trkpt lat="45.9371320" lon="5.6321980">
        <ele>1006.6</ele>
        <time>2022-07-26T08:34:28Z</time>
      </trkpt>
      <trkpt lat="45.9371170" lon="5.6322470">
        <ele>1005.9</ele>
        <time>2022-07-26T08:34:29Z</time>
      </trkpt>
      <trkpt lat="45.9371100" lon="5.6322700">
        <ele>1005.6</ele>
        <time>2022-07-26T08:34:30Z</time>
      </trkpt>
      <trkpt lat="45.9370840" lon="5.6323120">
        <ele>1004.8</ele>
        <time>2022-07-26T08:34:32Z</time>
      </trkpt>
      <trkpt lat="45.9370480" lon="5.6323510">
        <ele>1004.0</ele>
        <time>2022-07-26T08:34:33Z</time>
      </trkpt>
      <trkpt lat="45.9370180" lon="5.6323790">
        <ele>1003.4</ele>
        <time>2022-07-26T08:34:34Z</time>
      </trkpt>
      <trkpt lat="45.9369880" lon="5.6324010">
        <ele>1002.8</ele>
        <time>2022-07-26T08:34:35Z</time>
      </trkpt>
      <trkpt lat="45.9369600" lon="5.6324180">
        <ele>1002.4</ele>
        <time>2022-07-26T08:34:37Z</time>
      </trkpt>
      <trkpt lat="45.9369540" lon="5.6324230">
        <ele>1002.2</ele>
        <time>2022-07-26T08:34:38Z</time>
      </trkpt>
      <trkpt lat="45.9369450" lon="5.6324250">
        <ele>1002.1</ele>
        <time>2022-07-26T08:34:39Z</time>
      </trkpt>
      <trkpt lat="45.9369280" lon="5.6324260">
        <ele>1001.8</ele>
        <time>2022-07-26T08:34:40Z</time>
      </trkpt>
      <trkpt lat="45.9369180" lon="5.6324270">
        <ele>1001.7</ele>
        <time>2022-07-26T08:34:41Z</time>
      </trkpt>
      <trkpt lat="45.9369090" lon="5.6324310">
        <ele>1001.5</ele>
        <time>2022-07-26T08:34:43Z</time>
      </trkpt>
      <trkpt lat="45.9369020" lon="5.6324350">
        <ele>1001.4</ele>
        <time>2022-07-26T08:34:44Z</time>
      </trkpt>
      <trkpt lat="45.9368970" lon="5.6324420">
        <ele>1001.3</ele>
        <time>2022-07-26T08:34:45Z</time>
      </trkpt>
      <trkpt lat="45.9368910" lon="5.6324460">
        <ele>1001.2</ele>
        <time>2022-07-26T08:34:46Z</time>
      </trkpt>
      <trkpt lat="45.9368870" lon="5.6324520">
        <ele>1001.1</ele>
        <time>2022-07-26T08:34:47Z</time>
      </trkpt>
      <trkpt lat="45.9368830" lon="5.6324560">
        <ele>1001.0</ele>
        <time>2022-07-26T08:34:48Z</time>
      </trkpt>
      <trkpt lat="45.9368790" lon="5.6324610">
        <ele>1000.9</ele>
        <time>2022-07-26T08:34:49Z</time>
      </trkpt>
      <trkpt lat="45.9368710" lon="5.6324680">
        <ele>1000.7</ele>
        <time>2022-07-26T08:34:50Z</time>
      </trkpt>
      <trkpt lat="45.9368630" lon="5.6324720">
        <ele>1000.6</ele>
        <time>2022-07-26T08:34:51Z</time>
      </trkpt>
      <trkpt lat="45.9368500" lon="5.6324760">
        <ele>1000.4</ele>
        <time>2022-07-26T08:34:52Z</time>
      </trkpt>
      <trkpt lat="45.9368420" lon="5.6324790">
        <ele>1000.2</ele>
        <time>2022-07-26T08:34:53Z</time>
      </trkpt>
      <trkpt lat="45.9368350" lon="5.6324810">
        <ele>1000.1</ele>
        <time>2022-07-26T08:34:55Z</time>
      </trkpt>
      <trkpt lat="45.9368270" lon="5.6324830">
        <ele>999.9</ele>
        <time>2022-07-26T08:34:56Z</time>
      </trkpt>
      <trkpt lat="45.9368130" lon="5.6324850">
        <ele>999.7</ele>
        <time>2022-07-26T08:34:57Z</time>
      </trkpt>
      <trkpt lat="45.9368020" lon="5.6324850">
        <ele>999.5</ele>
        <time>2022-07-26T08:34:58Z</time>
      </trkpt>
      <trkpt lat="45.9367920" lon="5.6324840">
        <ele>999.3</ele>
        <time>2022-07-26T08:34:59Z</time>
      </trkpt>
      <trkpt lat="45.9367660" lon="5.6324820">
        <ele>998.7</ele>
        <time>2022-07-26T08:35:00Z</time>
      </trkpt>
      <trkpt lat="45.9367510" lon="5.6324820">
        <ele>998.4</ele>
        <time>2022-07-26T08:35:01Z</time>
      </trkpt>
      <trkpt lat="45.9367030" lon="5.6324890">
        <ele>997.5</ele>
        <time>2022-07-26T08:35:03Z</time>
      </trkpt>
      <trkpt lat="45.9366880" lon="5.6324880">
        <ele>997.2</ele>
        <time>2022-07-26T08:35:04Z</time>
      </trkpt>
      <trkpt lat="45.9366740" lon="5.6324880">
        <ele>996.9</ele>
        <time>2022-07-26T08:35:05Z</time>
      </trkpt>
      <trkpt lat="45.9366560" lon="5.6324880">
        <ele>996.6</ele>
        <time>2022-07-26T08:35:06Z</time>
      </trkpt>
      <trkpt lat="45.9366450" lon="5.6324880">
        <ele>996.4</ele>
        <time>2022-07-26T08:35:07Z</time>
      </trkpt>
      <trkpt lat="45.9366240" lon="5.6324830">
        <ele>995.9</ele>
        <time>2022-07-26T08:35:08Z</time>
      </trkpt>
      <trkpt lat="45.9366120" lon="5.6324760">
        <ele>995.7</ele>
        <time>2022-07-26T08:35:09Z</time>
      </trkpt>
      <trkpt lat="45.9366010" lon="5.6324680">
        <ele>995.5</ele>
        <time>2022-07-26T08:35:10Z</time>
      </trkpt>
      <trkpt lat="45.9365960" lon="5.6324610">
        <ele>995.4</ele>
        <time>2022-07-26T08:35:11Z</time>
      </trkpt>
      <trkpt lat="45.9365940" lon="5.6324590">
        <ele>995.3</ele>
        <time>2022-07-26T08:35:12Z</time>
      </trkpt>
      <trkpt lat="45.9365910" lon="5.6324560">
        <ele>995.3</ele>
        <time>2022-07-26T08:35:13Z</time>
      </trkpt>
      <trkpt lat="45.9365880" lon="5.6324520">
        <ele>995.2</ele>
        <time>2022-07-26T08:35:14Z</time>
      </trkpt>
      <trkpt lat="45.9365840" lon="5.6324500">
        <ele>995.1</ele>
        <time>2022-07-26T08:35:15Z</time>
      </trkpt>
      <trkpt lat="45.9365820" lon="5.6324500">
        <ele>995.1</ele>
        <time>2022-07-26T08:35:17Z</time>
      </trkpt>
      <trkpt lat="45.9365600" lon="5.6324540">
        <ele>994.7</ele>
        <time>2022-07-26T08:35:21Z</time>
      </trkpt>
      <trkpt lat="45.9365480" lon="5.6324510">
        <ele>994.5</ele>
        <time>2022-07-26T08:35:22Z</time>
      </trkpt>
      <trkpt lat="45.9365360" lon="5.6324440">
        <ele>994.3</ele>
        <time>2022-07-26T08:35:23Z</time>
      </trkpt>
      <trkpt lat="45.9365260" lon="5.6324380">
        <ele>994.1</ele>
        <time>2022-07-26T08:35:24Z</time>
      </trkpt>
      <trkpt lat="45.9365120" lon="5.6324310">
        <ele>993.8</ele>
        <time>2022-07-26T08:35:26Z</time>
      </trkpt>
      <trkpt lat="45.9364960" lon="5.6324230">
        <ele>993.5</ele>
        <time>2022-07-26T08:35:27Z</time>
      </trkpt>
      <trkpt lat="45.9364820" lon="5.6324160">
        <ele>993.2</ele>
        <time>2022-07-26T08:35:28Z</time>
      </trkpt>
      <trkpt lat="45.9364690" lon="5.6324090">
        <ele>993.0</ele>
        <time>2022-07-26T08:35:29Z</time>
      </trkpt>
      <trkpt lat="45.9364430" lon="5.6323950">
        <ele>992.5</ele>
        <time>2022-07-26T08:35:30Z</time>
      </trkpt>
      <trkpt lat="45.9364340" lon="5.6323900">
        <ele>992.3</ele>
        <time>2022-07-26T08:35:31Z</time>
      </trkpt>
      <trkpt lat="45.9364180" lon="5.6323860">
        <ele>992.0</ele>
        <time>2022-07-26T08:35:33Z</time>
      </trkpt>
      <trkpt lat="45.9364020" lon="5.6323870">
        <ele>991.8</ele>
        <time>2022-07-26T08:35:34Z</time>
      </trkpt>
      <trkpt lat="45.9363890" lon="5.6323890">
        <ele>991.5</ele>
        <time>2022-07-26T08:35:35Z</time>
      </trkpt>
      <trkpt lat="45.9363760" lon="5.6323940">
        <ele>991.3</ele>
        <time>2022-07-26T08:35:36Z</time>
      </trkpt>
      <trkpt lat="45.9363690" lon="5.6323940">
        <ele>991.2</ele>
        <time>2022-07-26T08:35:37Z</time>
      </trkpt>
      <trkpt lat="45.9363440" lon="5.6323990">
        <ele>990.7</ele>
        <time>2022-07-26T08:35:38Z</time>
      </trkpt>
      <trkpt lat="45.9363330" lon="5.6324040">
        <ele>990.5</ele>
        <time>2022-07-26T08:35:40Z</time>
      </trkpt>
      <trkpt lat="45.9363230" lon="5.6324090">
        <ele>990.3</ele>
        <time>2022-07-26T08:35:41Z</time>
      </trkpt>
      <trkpt lat="45.9363120" lon="5.6324140">
        <ele>990.0</ele>
        <time>2022-07-26T08:35:42Z</time>
      </trkpt>
      <trkpt lat="45.9363020" lon="5.6324190">
        <ele>989.8</ele>
        <time>2022-07-26T08:35:43Z</time>
      </trkpt>
      <trkpt lat="45.9362820" lon="5.6324290">
        <ele>989.4</ele>
        <time>2022-07-26T08:35:44Z</time>
      </trkpt>
      <trkpt lat="45.9362730" lon="5.6324370">
        <ele>989.2</ele>
        <time>2022-07-26T08:35:45Z</time>
      </trkpt>
      <trkpt lat="45.9362600" lon="5.6324480">
        <ele>988.9</ele>
        <time>2022-07-26T08:35:46Z</time>
      </trkpt>
      <trkpt lat="45.9362520" lon="5.6324550">
        <ele>988.8</ele>
        <time>2022-07-26T08:35:48Z</time>
      </trkpt>
      <trkpt lat="45.9362490" lon="5.6324590">
        <ele>988.7</ele>
        <time>2022-07-26T08:35:49Z</time>
      </trkpt>
      <trkpt lat="45.9362460" lon="5.6324700">
        <ele>988.5</ele>
        <time>2022-07-26T08:35:50Z</time>
      </trkpt>
      <trkpt lat="45.9362450" lon="5.6324770">
        <ele>988.4</ele>
        <time>2022-07-26T08:35:51Z</time>
      </trkpt>
      <trkpt lat="45.9362450" lon="5.6324840">
        <ele>988.3</ele>
        <time>2022-07-26T08:35:52Z</time>
      </trkpt>
      <trkpt lat="45.9362440" lon="5.6324900">
        <ele>988.2</ele>
        <time>2022-07-26T08:35:53Z</time>
      </trkpt>
      <trkpt lat="45.9362430" lon="5.6324970">
        <ele>988.2</ele>
        <time>2022-07-26T08:35:54Z</time>
      </trkpt>
      <trkpt lat="45.9362420" lon="5.6325040">
        <ele>988.1</ele>
        <time>2022-07-26T08:35:55Z</time>
      </trkpt>
      <trkpt lat="45.9362410" lon="5.6325110">
        <ele>988.0</ele>
        <time>2022-07-26T08:35:57Z</time>
      </trkpt>
      <trkpt lat="45.9362400" lon="5.6325180">
        <ele>987.9</ele>
        <time>2022-07-26T08:35:58Z</time>
      </trkpt>
      <trkpt lat="45.9362390" lon="5.6325250">
        <ele>987.8</ele>
        <time>2022-07-26T08:35:59Z</time>
      </trkpt>
      <trkpt lat="45.9362150" lon="5.6325520">
        <ele>987.2</ele>
        <time>2022-07-26T08:36:00Z</time>
      </trkpt>
      <trkpt lat="45.9361610" lon="5.6326230">
        <ele>985.9</ele>
        <time>2022-07-26T08:36:02Z</time>
      </trkpt>
      <trkpt lat="45.9361300" lon="5.6326700">
        <ele>985.2</ele>
        <time>2022-07-26T08:36:03Z</time>
      </trkpt>
      <trkpt lat="45.9361080" lon="5.6327040">
        <ele>984.7</ele>
        <time>2022-07-26T08:36:04Z</time>
      </trkpt>
      <trkpt lat="45.9360840" lon="5.6327410">
        <ele>984.2</ele>
        <time>2022-07-26T08:36:05Z</time>
      </trkpt>
      <trkpt lat="45.9360630" lon="5.6327850">
        <ele>983.7</ele>
        <time>2022-07-26T08:36:06Z</time>
      </trkpt>
      <trkpt lat="45.9360550" lon="5.6328000">
        <ele>983.5</ele>
        <time>2022-07-26T08:36:07Z</time>
      </trkpt>
      <trkpt lat="45.9360400" lon="5.6328140">
        <ele>983.2</ele>
        <time>2022-07-26T08:36:08Z</time>
      </trkpt>
      <trkpt lat="45.9360040" lon="5.6328440">
        <ele>982.7</ele>
        <time>2022-07-26T08:36:10Z</time>
      </trkpt>
      <trkpt lat="45.9359760" lon="5.6328660">
        <ele>982.2</ele>
        <time>2022-07-26T08:36:11Z</time>
      </trkpt>
      <trkpt lat="45.9359690" lon="5.6328710">
        <ele>982.1</ele>
        <time>2022-07-26T08:36:12Z</time>
      </trkpt>
      <trkpt lat="45.9359590" lon="5.6328790">
        <ele>981.9</ele>
        <time>2022-07-26T08:36:13Z</time>
      </trkpt>
      <trkpt lat="45.9359450" lon="5.6328900">
        <ele>981.7</ele>
        <time>2022-07-26T08:36:14Z</time>
      </trkpt>
      <trkpt lat="45.9359320" lon="5.6329010">
        <ele>981.4</ele>
        <time>2022-07-26T08:36:15Z</time>
      </trkpt>
      <trkpt lat="45.9359190" lon="5.6329090">
        <ele>981.2</ele>
        <time>2022-07-26T08:36:16Z</time>
      </trkpt>
      <trkpt lat="45.9359040" lon="5.6329150">
        <ele>980.9</ele>
        <time>2022-07-26T08:36:18Z</time>
      </trkpt>
      <trkpt lat="45.9358930" lon="5.6329190">
        <ele>980.7</ele>
        <time>2022-07-26T08:36:19Z</time>
      </trkpt>
      <trkpt lat="45.9358630" lon="5.6329290">
        <ele>980.2</ele>
        <time>2022-07-26T08:36:20Z</time>
      </trkpt>
      <trkpt lat="45.9358520" lon="5.6329320">
        <ele>980.0</ele>
        <time>2022-07-26T08:36:21Z</time>
      </trkpt>
      <trkpt lat="45.9358380" lon="5.6329330">
        <ele>979.7</ele>
        <time>2022-07-26T08:36:22Z</time>
      </trkpt>
      <trkpt lat="45.9358230" lon="5.6329340">
        <ele>979.4</ele>
        <time>2022-07-26T08:36:23Z</time>
      </trkpt>
      <trkpt lat="45.9357910" lon="5.6329380">
        <ele>978.8</ele>
        <time>2022-07-26T08:36:25Z</time>
      </trkpt>
      <trkpt lat="45.9357850" lon="5.6329390">
        <ele>978.6</ele>
        <time>2022-07-26T08:36:26Z</time>
      </trkpt>
      <trkpt lat="45.9357890" lon="5.6329380">
        <ele>978.5</ele>
        <time>2022-07-26T08:36:27Z</time>
      </trkpt>
      <trkpt lat="45.9357920" lon="5.6329330">
        <ele>978.5</ele>
        <time>2022-07-26T08:36:28Z</time>
      </trkpt>
      <trkpt lat="45.9357890" lon="5.6329210">
        <ele>978.3</ele>
        <time>2022-07-26T08:36:29Z</time>
      </trkpt>
      <trkpt lat="45.9357810" lon="5.6329140">
        <ele>978.1</ele>
        <time>2022-07-26T08:36:30Z</time>
      </trkpt>
      <trkpt lat="45.9357670" lon="5.6329030">
        <ele>977.7</ele>
        <time>2022-07-26T08:36:31Z</time>
      </trkpt>
      <trkpt lat="45.9357430" lon="5.6329020">
        <ele>977.2</ele>
        <time>2022-07-26T08:36:33Z</time>
      </trkpt>
      <trkpt lat="45.9357220" lon="5.6329020">
        <ele>976.8</ele>
        <time>2022-07-26T08:36:35Z</time>
      </trkpt>
      <trkpt lat="45.9356890" lon="5.6329000">
        <ele>976.0</ele>
        <time>2022-07-26T08:36:36Z</time>
      </trkpt>
      <trkpt lat="45.9356810" lon="5.6328990">
        <ele>975.8</ele>
        <time>2022-07-26T08:36:37Z</time>
      </trkpt>
      <trkpt lat="45.9356540" lon="5.6328930">
        <ele>975.2</ele>
        <time>2022-07-26T08:36:38Z</time>
      </trkpt>
      <trkpt lat="45.9356440" lon="5.6328910">
        <ele>975.0</ele>
        <time>2022-07-26T08:36:39Z</time>
      </trkpt>
      <trkpt lat="45.9356300" lon="5.6328910">
        <ele>974.7</ele>
        <time>2022-07-26T08:36:40Z</time>
      </trkpt>
      <trkpt lat="45.9356190" lon="5.6328920">
        <ele>974.4</ele>
        <time>2022-07-26T08:36:41Z</time>
      </trkpt>
      <trkpt lat="45.9356080" lon="5.6328950">
        <ele>974.2</ele>
        <time>2022-07-26T08:36:42Z</time>
      </trkpt>
      <trkpt lat="45.9356020" lon="5.6328960">
        <ele>974.1</ele>
        <time>2022-07-26T08:36:43Z</time>
      </trkpt>
      <trkpt lat="45.9355950" lon="5.6328980">
        <ele>973.9</ele>
        <time>2022-07-26T08:36:44Z</time>
      </trkpt>
      <trkpt lat="45.9355880" lon="5.6328950">
        <ele>973.7</ele>
        <time>2022-07-26T08:36:46Z</time>
      </trkpt>
      <trkpt lat="45.9355750" lon="5.6328900">
        <ele>973.5</ele>
        <time>2022-07-26T08:36:47Z</time>
      </trkpt>
      <trkpt lat="45.9355640" lon="5.6328870">
        <ele>973.2</ele>
        <time>2022-07-26T08:36:48Z</time>
      </trkpt>
      <trkpt lat="45.9355560" lon="5.6328840">
        <ele>973.1</ele>
        <time>2022-07-26T08:36:49Z</time>
      </trkpt>
      <trkpt lat="45.9355480" lon="5.6328810">
        <ele>972.9</ele>
        <time>2022-07-26T08:36:51Z</time>
      </trkpt>
      <trkpt lat="45.9355390" lon="5.6328770">
        <ele>972.7</ele>
        <time>2022-07-26T08:36:52Z</time>
      </trkpt>
      <trkpt lat="45.9355300" lon="5.6328720">
        <ele>972.5</ele>
        <time>2022-07-26T08:36:53Z</time>
      </trkpt>
      <trkpt lat="45.9355210" lon="5.6328670">
        <ele>972.3</ele>
        <time>2022-07-26T08:36:54Z</time>
      </trkpt>
      <trkpt lat="45.9355060" lon="5.6328570">
        <ele>972.0</ele>
        <time>2022-07-26T08:36:56Z</time>
      </trkpt>
      <trkpt lat="45.9354940" lon="5.6328490">
        <ele>971.7</ele>
        <time>2022-07-26T08:36:57Z</time>
      </trkpt>
      <trkpt lat="45.9354810" lon="5.6328440">
        <ele>971.5</ele>
        <time>2022-07-26T08:36:58Z</time>
      </trkpt>
      <trkpt lat="45.9354670" lon="5.6328410">
        <ele>971.2</ele>
        <time>2022-07-26T08:36:59Z</time>
      </trkpt>
      <trkpt lat="45.9354510" lon="5.6328360">
        <ele>970.9</ele>
        <time>2022-07-26T08:37:00Z</time>
      </trkpt>
      <trkpt lat="45.9354390" lon="5.6328320">
        <ele>970.7</ele>
        <time>2022-07-26T08:37:02Z</time>
      </trkpt>
      <trkpt lat="45.9354170" lon="5.6328250">
        <ele>970.4</ele>
        <time>2022-07-26T08:37:03Z</time>
      </trkpt>
      <trkpt lat="45.9354050" lon="5.6328240">
        <ele>970.2</ele>
        <time>2022-07-26T08:37:04Z</time>
      </trkpt>
      <trkpt lat="45.9353940" lon="5.6328240">
        <ele>970.0</ele>
        <time>2022-07-26T08:37:05Z</time>
      </trkpt>
      <trkpt lat="45.9353820" lon="5.6328190">
        <ele>969.8</ele>
        <time>2022-07-26T08:37:07Z</time>
      </trkpt>
      <trkpt lat="45.9353710" lon="5.6328130">
        <ele>969.6</ele>
        <time>2022-07-26T08:37:08Z</time>
      </trkpt>
      <trkpt lat="45.9353620" lon="5.6328100">
        <ele>969.4</ele>
        <time>2022-07-26T08:37:09Z</time>
      </trkpt>
      <trkpt lat="45.9353520" lon="5.6328080">
        <ele>969.3</ele>
        <time>2022-07-26T08:37:10Z</time>
      </trkpt>
      <trkpt lat="45.9353400" lon="5.6328060">
        <ele>969.1</ele>
        <time>2022-07-26T08:37:11Z</time>
      </trkpt>
      <trkpt lat="45.9353300" lon="5.6328040">
        <ele>968.9</ele>
        <time>2022-07-26T08:37:12Z</time>
      </trkpt>
      <trkpt lat="45.9353190" lon="5.6328020">
        <ele>968.7</ele>
        <time>2022-07-26T08:37:13Z</time>
      </trkpt>
      <trkpt lat="45.9353070" lon="5.6327990">
        <ele>968.5</ele>
        <time>2022-07-26T08:37:15Z</time>
      </trkpt>
      <trkpt lat="45.9352980" lon="5.6328010">
        <ele>968.4</ele>
        <time>2022-07-26T08:37:16Z</time>
      </trkpt>
      <trkpt lat="45.9352950" lon="5.6328060">
        <ele>968.3</ele>
        <time>2022-07-26T08:37:17Z</time>
      </trkpt>
      <trkpt lat="45.9352930" lon="5.6328120">
        <ele>968.3</ele>
        <time>2022-07-26T08:37:18Z</time>
      </trkpt>
      <trkpt lat="45.9352890" lon="5.6328150">
        <ele>968.2</ele>
        <time>2022-07-26T08:37:19Z</time>
      </trkpt>
      <trkpt lat="45.9352800" lon="5.6328170">
        <ele>968.0</ele>
        <time>2022-07-26T08:37:20Z</time>
      </trkpt>
      <trkpt lat="45.9352690" lon="5.6328110">
        <ele>967.8</ele>
        <time>2022-07-26T08:37:21Z</time>
      </trkpt>
      <trkpt lat="45.9352650" lon="5.6328040">
        <ele>967.7</ele>
        <time>2022-07-26T08:37:23Z</time>
      </trkpt>
      <trkpt lat="45.9352610" lon="5.6327970">
        <ele>967.6</ele>
        <time>2022-07-26T08:37:24Z</time>
      </trkpt>
      <trkpt lat="45.9352570" lon="5.6327900">
        <ele>967.5</ele>
        <time>2022-07-26T08:37:25Z</time>
      </trkpt>
      <trkpt lat="45.9352530" lon="5.6327820">
        <ele>967.4</ele>
        <time>2022-07-26T08:37:26Z</time>
      </trkpt>
      <trkpt lat="45.9352490" lon="5.6327750">
        <ele>967.3</ele>
        <time>2022-07-26T08:37:27Z</time>
      </trkpt>
      <trkpt lat="45.9352240" lon="5.6327430">
        <ele>966.8</ele>
        <time>2022-07-26T08:37:29Z</time>
      </trkpt>
      <trkpt lat="45.9352150" lon="5.6327360">
        <ele>966.7</ele>
        <time>2022-07-26T08:37:30Z</time>
      </trkpt>
      <trkpt lat="45.9352060" lon="5.6327260">
        <ele>966.5</ele>
        <time>2022-07-26T08:37:31Z</time>
      </trkpt>
      <trkpt lat="45.9351880" lon="5.6327200">
        <ele>966.2</ele>
        <time>2022-07-26T08:37:32Z</time>
      </trkpt>
      <trkpt lat="45.9351630" lon="5.6327110">
        <ele>965.8</ele>
        <time>2022-07-26T08:37:33Z</time>
      </trkpt>
      <trkpt lat="45.9351470" lon="5.6327090">
        <ele>965.5</ele>
        <time>2022-07-26T08:37:35Z</time>
      </trkpt>
      <trkpt lat="45.9351250" lon="5.6327080">
        <ele>965.2</ele>
        <time>2022-07-26T08:37:36Z</time>
      </trkpt>
      <trkpt lat="45.9351130" lon="5.6327030">
        <ele>965.0</ele>
        <time>2022-07-26T08:37:37Z</time>
      </trkpt>
      <trkpt lat="45.9350860" lon="5.6326910">
        <ele>964.6</ele>
        <time>2022-07-26T08:37:38Z</time>
      </trkpt>
      <trkpt lat="45.9350650" lon="5.6326840">
        <ele>964.2</ele>
        <time>2022-07-26T08:37:39Z</time>
      </trkpt>
      <trkpt lat="45.9350340" lon="5.6326750">
        <ele>963.7</ele>
        <time>2022-07-26T08:37:41Z</time>
      </trkpt>
      <trkpt lat="45.9350230" lon="5.6326740">
        <ele>963.6</ele>
        <time>2022-07-26T08:37:42Z</time>
      </trkpt>
      <trkpt lat="45.9350040" lon="5.6326720">
        <ele>963.3</ele>
        <time>2022-07-26T08:37:43Z</time>
      </trkpt>
      <trkpt lat="45.9349720" lon="5.6326630">
        <ele>962.8</ele>
        <time>2022-07-26T08:37:45Z</time>
      </trkpt>
      <trkpt lat="45.9349580" lon="5.6326600">
        <ele>962.5</ele>
        <time>2022-07-26T08:37:46Z</time>
      </trkpt>
      <trkpt lat="45.9349380" lon="5.6326520">
        <ele>962.2</ele>
        <time>2022-07-26T08:37:47Z</time>
      </trkpt>
      <trkpt lat="45.9348970" lon="5.6326370">
        <ele>961.6</ele>
        <time>2022-07-26T08:37:48Z</time>
      </trkpt>
      <trkpt lat="45.9348500" lon="5.6326270">
        <ele>960.8</ele>
        <time>2022-07-26T08:37:50Z</time>
      </trkpt>
      <trkpt lat="45.9348170" lon="5.6326260">
        <ele>960.3</ele>
        <time>2022-07-26T08:37:51Z</time>
      </trkpt>
      <trkpt lat="45.9347780" lon="5.6326210">
        <ele>959.7</ele>
        <time>2022-07-26T08:37:52Z</time>
      </trkpt>
      <trkpt lat="45.9347660" lon="5.6326190">
        <ele>959.5</ele>
        <time>2022-07-26T08:37:54Z</time>
      </trkpt>
      <trkpt lat="45.9347450" lon="5.6326170">
        <ele>959.2</ele>
        <time>2022-07-26T08:37:55Z</time>
      </trkpt>
      <trkpt lat="45.9347200" lon="5.6326140">
        <ele>958.8</ele>
        <time>2022-07-26T08:37:56Z</time>
      </trkpt>
      <trkpt lat="45.9347090" lon="5.6326110">
        <ele>958.6</ele>
        <time>2022-07-26T08:37:57Z</time>
      </trkpt>
      <trkpt lat="45.9346900" lon="5.6326080">
        <ele>958.2</ele>
        <time>2022-07-26T08:37:58Z</time>
      </trkpt>
      <trkpt lat="45.9346770" lon="5.6326080">
        <ele>958.0</ele>
        <time>2022-07-26T08:37:59Z</time>
      </trkpt>
      <trkpt lat="45.9346640" lon="5.6326100">
        <ele>957.8</ele>
        <time>2022-07-26T08:38:00Z</time>
      </trkpt>
      <trkpt lat="45.9346500" lon="5.6326120">
        <ele>957.5</ele>
        <time>2022-07-26T08:38:02Z</time>
      </trkpt>
      <trkpt lat="45.9346430" lon="5.6326130">
        <ele>957.4</ele>
        <time>2022-07-26T08:38:03Z</time>
      </trkpt>
      <trkpt lat="45.9346250" lon="5.6326130">
        <ele>957.0</ele>
        <time>2022-07-26T08:38:04Z</time>
      </trkpt>
      <trkpt lat="45.9346060" lon="5.6326140">
        <ele>956.6</ele>
        <time>2022-07-26T08:38:06Z</time>
      </trkpt>
      <trkpt lat="45.9346020" lon="5.6326140">
        <ele>956.5</ele>
        <time>2022-07-26T08:38:07Z</time>
      </trkpt>
      <trkpt lat="45.9345970" lon="5.6326140">
        <ele>956.4</ele>
        <time>2022-07-26T08:38:08Z</time>
      </trkpt>
      <trkpt lat="45.9345930" lon="5.6326150">
        <ele>956.4</ele>
        <time>2022-07-26T08:38:09Z</time>
      </trkpt>
      <trkpt lat="45.9345870" lon="5.6326160">
        <ele>956.2</ele>
        <time>2022-07-26T08:38:10Z</time>
      </trkpt>
      <trkpt lat="45.9345830" lon="5.6326160">
        <ele>956.2</ele>
        <time>2022-07-26T08:38:11Z</time>
      </trkpt>
      <trkpt lat="45.9345740" lon="5.6326160">
        <ele>956.0</ele>
        <time>2022-07-26T08:38:12Z</time>
      </trkpt>
      <trkpt lat="45.9345630" lon="5.6326160">
        <ele>955.7</ele>
        <time>2022-07-26T08:38:13Z</time>
      </trkpt>
      <trkpt lat="45.9345560" lon="5.6326160">
        <ele>955.5</ele>
        <time>2022-07-26T08:38:14Z</time>
      </trkpt>
      <trkpt lat="45.9345500" lon="5.6326160">
        <ele>955.4</ele>
        <time>2022-07-26T08:38:15Z</time>
      </trkpt>
      <trkpt lat="45.9345470" lon="5.6326160">
        <ele>955.3</ele>
        <time>2022-07-26T08:38:16Z</time>
      </trkpt>
      <trkpt lat="45.9345430" lon="5.6326160">
        <ele>955.3</ele>
        <time>2022-07-26T08:38:17Z</time>
      </trkpt>
      <trkpt lat="45.9345330" lon="5.6326140">
        <ele>955.0</ele>
        <time>2022-07-26T08:38:18Z</time>
      </trkpt>
      <trkpt lat="45.9345160" lon="5.6326110">
        <ele>954.6</ele>
        <time>2022-07-26T08:38:19Z</time>
      </trkpt>
      <trkpt lat="45.9344970" lon="5.6326100">
        <ele>954.2</ele>
        <time>2022-07-26T08:38:21Z</time>
      </trkpt>
      <trkpt lat="45.9344810" lon="5.6326100">
        <ele>953.8</ele>
        <time>2022-07-26T08:38:22Z</time>
      </trkpt>
      <trkpt lat="45.9344460" lon="5.6326080">
        <ele>953.0</ele>
        <time>2022-07-26T08:38:23Z</time>
      </trkpt>
      <trkpt lat="45.9344300" lon="5.6326070">
        <ele>952.6</ele>
        <time>2022-07-26T08:38:24Z</time>
      </trkpt>
      <trkpt lat="45.9344010" lon="5.6326080">
        <ele>951.9</ele>
        <time>2022-07-26T08:38:26Z</time>
      </trkpt>
      <trkpt lat="45.9343890" lon="5.6326090">
        <ele>951.6</ele>
        <time>2022-07-26T08:38:27Z</time>
      </trkpt>
      <trkpt lat="45.9343570" lon="5.6326130">
        <ele>950.8</ele>
        <time>2022-07-26T08:38:28Z</time>
      </trkpt>
      <trkpt lat="45.9343480" lon="5.6326140">
        <ele>950.6</ele>
        <time>2022-07-26T08:38:29Z</time>
      </trkpt>
      <trkpt lat="45.9343320" lon="5.6326140">
        <ele>950.2</ele>
        <time>2022-07-26T08:38:30Z</time>
      </trkpt>
      <trkpt lat="45.9343180" lon="5.6326130">
        <ele>949.9</ele>
        <time>2022-07-26T08:38:31Z</time>
      </trkpt>
      <trkpt lat="45.9343060" lon="5.6326120">
        <ele>949.6</ele>
        <time>2022-07-26T08:38:32Z</time>
      </trkpt>
      <trkpt lat="45.9342920" lon="5.6326090">
        <ele>949.2</ele>
        <time>2022-07-26T08:38:33Z</time>
      </trkpt>
      <trkpt lat="45.9342780" lon="5.6326110">
        <ele>948.9</ele>
        <time>2022-07-26T08:38:35Z</time>
      </trkpt>
      <trkpt lat="45.9342550" lon="5.6326140">
        <ele>948.4</ele>
        <time>2022-07-26T08:38:36Z</time>
      </trkpt>
      <trkpt lat="45.9342450" lon="5.6326150">
        <ele>948.1</ele>
        <time>2022-07-26T08:38:37Z</time>
      </trkpt>
      <trkpt lat="45.9342360" lon="5.6326160">
        <ele>947.9</ele>
        <time>2022-07-26T08:38:38Z</time>
      </trkpt>
      <trkpt lat="45.9342160" lon="5.6326150">
        <ele>947.4</ele>
        <time>2022-07-26T08:38:39Z</time>
      </trkpt>
      <trkpt lat="45.9342000" lon="5.6326130">
        <ele>947.1</ele>
        <time>2022-07-26T08:38:40Z</time>
      </trkpt>
      <trkpt lat="45.9341860" lon="5.6326110">
        <ele>946.7</ele>
        <time>2022-07-26T08:38:41Z</time>
      </trkpt>
      <trkpt lat="45.9341660" lon="5.6326070">
        <ele>946.3</ele>
        <time>2022-07-26T08:38:42Z</time>
      </trkpt>
      <trkpt lat="45.9341510" lon="5.6326040">
        <ele>945.9</ele>
        <time>2022-07-26T08:38:43Z</time>
      </trkpt>
      <trkpt lat="45.9341400" lon="5.6326070">
        <ele>945.6</ele>
        <time>2022-07-26T08:38:45Z</time>
      </trkpt>
      <trkpt lat="45.9341260" lon="5.6326090">
        <ele>945.3</ele>
        <time>2022-07-26T08:38:47Z</time>
      </trkpt>
      <trkpt lat="45.9341130" lon="5.6326100">
        <ele>945.0</ele>
        <time>2022-07-26T08:38:48Z</time>
      </trkpt>
      <trkpt lat="45.9340930" lon="5.6326120">
        <ele>944.5</ele>
        <time>2022-07-26T08:38:49Z</time>
      </trkpt>
      <trkpt lat="45.9340780" lon="5.6326130">
        <ele>944.2</ele>
        <time>2022-07-26T08:38:50Z</time>
      </trkpt>
      <trkpt lat="45.9340670" lon="5.6326150">
        <ele>943.9</ele>
        <time>2022-07-26T08:38:51Z</time>
      </trkpt>
      <trkpt lat="45.9340580" lon="5.6326180">
        <ele>943.7</ele>
        <time>2022-07-26T08:38:52Z</time>
      </trkpt>
      <trkpt lat="45.9340430" lon="5.6326250">
        <ele>943.3</ele>
        <time>2022-07-26T08:38:54Z</time>
      </trkpt>
      <trkpt lat="45.9340290" lon="5.6326290">
        <ele>942.9</ele>
        <time>2022-07-26T08:38:55Z</time>
      </trkpt>
      <trkpt lat="45.9340160" lon="5.6326320">
        <ele>942.6</ele>
        <time>2022-07-26T08:38:56Z</time>
      </trkpt>
      <trkpt lat="45.9340020" lon="5.6326350">
        <ele>942.3</ele>
        <time>2022-07-26T08:38:57Z</time>
      </trkpt>
      <trkpt lat="45.9339830" lon="5.6326380">
        <ele>941.8</ele>
        <time>2022-07-26T08:38:58Z</time>
      </trkpt>
      <trkpt lat="45.9339690" lon="5.6326400">
        <ele>941.4</ele>
        <time>2022-07-26T08:39:00Z</time>
      </trkpt>
      <trkpt lat="45.9339520" lon="5.6326420">
        <ele>941.0</ele>
        <time>2022-07-26T08:39:01Z</time>
      </trkpt>
      <trkpt lat="45.9339300" lon="5.6326410">
        <ele>940.5</ele>
        <time>2022-07-26T08:39:03Z</time>
      </trkpt>
      <trkpt lat="45.9339160" lon="5.6326420">
        <ele>940.1</ele>
        <time>2022-07-26T08:39:04Z</time>
      </trkpt>
      <trkpt lat="45.9338960" lon="5.6326430">
        <ele>939.6</ele>
        <time>2022-07-26T08:39:05Z</time>
      </trkpt>
      <trkpt lat="45.9338790" lon="5.6326420">
        <ele>939.2</ele>
        <time>2022-07-26T08:39:06Z</time>
      </trkpt>
      <trkpt lat="45.9338650" lon="5.6326440">
        <ele>938.9</ele>
        <time>2022-07-26T08:39:07Z</time>
      </trkpt>
      <trkpt lat="45.9338480" lon="5.6326470">
        <ele>938.5</ele>
        <time>2022-07-26T08:39:09Z</time>
      </trkpt>
      <trkpt lat="45.9338330" lon="5.6326480">
        <ele>938.1</ele>
        <time>2022-07-26T08:39:10Z</time>
      </trkpt>
      <trkpt lat="45.9338040" lon="5.6326480">
        <ele>937.4</ele>
        <time>2022-07-26T08:39:11Z</time>
      </trkpt>
      <trkpt lat="45.9337930" lon="5.6326480">
        <ele>937.1</ele>
        <time>2022-07-26T08:39:12Z</time>
      </trkpt>
      <trkpt lat="45.9337790" lon="5.6326520">
        <ele>936.8</ele>
        <time>2022-07-26T08:39:14Z</time>
      </trkpt>
      <trkpt lat="45.9337670" lon="5.6326510">
        <ele>936.5</ele>
        <time>2022-07-26T08:39:15Z</time>
      </trkpt>
      <trkpt lat="45.9337530" lon="5.6326490">
        <ele>936.2</ele>
        <time>2022-07-26T08:39:16Z</time>
      </trkpt>
      <trkpt lat="45.9337430" lon="5.6326490">
        <ele>936.0</ele>
        <time>2022-07-26T08:39:17Z</time>
      </trkpt>
      <trkpt lat="45.9337330" lon="5.6326490">
        <ele>935.7</ele>
        <time>2022-07-26T08:39:18Z</time>
      </trkpt>
      <trkpt lat="45.9337140" lon="5.6326520">
        <ele>935.3</ele>
        <time>2022-07-26T08:39:20Z</time>
      </trkpt>
      <trkpt lat="45.9337030" lon="5.6326580">
        <ele>935.0</ele>
        <time>2022-07-26T08:39:21Z</time>
      </trkpt>
      <trkpt lat="45.9336910" lon="5.6326640">
        <ele>934.8</ele>
        <time>2022-07-26T08:39:22Z</time>
      </trkpt>
      <trkpt lat="45.9336820" lon="5.6326680">
        <ele>934.6</ele>
        <time>2022-07-26T08:39:23Z</time>
      </trkpt>
      <trkpt lat="45.9336800" lon="5.6326670">
        <ele>934.5</ele>
        <time>2022-07-26T08:39:24Z</time>
      </trkpt>
      <trkpt lat="45.9336790" lon="5.6326670">
        <ele>934.5</ele>
        <time>2022-07-26T08:39:25Z</time>
      </trkpt>
      <trkpt lat="45.9336790" lon="5.6326680">
        <ele>934.5</ele>
        <time>2022-07-26T08:39:26Z</time>
      </trkpt>
      <trkpt lat="45.9336800" lon="5.6326690">
        <ele>934.5</ele>
        <time>2022-07-26T08:39:27Z</time>
      </trkpt>
      <trkpt lat="45.9336800" lon="5.6326700">
        <ele>934.4</ele>
        <time>2022-07-26T08:39:28Z</time>
      </trkpt>
      <trkpt lat="45.9336790" lon="5.6326710">
        <ele>934.4</ele>
        <time>2022-07-26T08:39:29Z</time>
      </trkpt>
      <trkpt lat="45.9336790" lon="5.6326710">
        <ele>934.4</ele>
        <time>2022-07-26T08:39:30Z</time>
      </trkpt>
      <trkpt lat="45.9336780" lon="5.6326720">
        <ele>934.4</ele>
        <time>2022-07-26T08:39:31Z</time>
      </trkpt>
      <trkpt lat="45.9336760" lon="5.6326720">
        <ele>934.3</ele>
        <time>2022-07-26T08:39:32Z</time>
      </trkpt>
      <trkpt lat="45.9336520" lon="5.6326520">
        <ele>933.8</ele>
        <time>2022-07-26T08:39:44Z</time>
      </trkpt>
      <trkpt lat="45.9336480" lon="5.6326520">
        <ele>933.7</ele>
        <time>2022-07-26T08:39:45Z</time>
      </trkpt>
      <trkpt lat="45.9336490" lon="5.6326520">
        <ele>933.7</ele>
        <time>2022-07-26T08:39:46Z</time>
      </trkpt>
      <trkpt lat="45.9336480" lon="5.6326530">
        <ele>933.7</ele>
        <time>2022-07-26T08:39:47Z</time>
      </trkpt>
      <trkpt lat="45.9336430" lon="5.6326530">
        <ele>933.6</ele>
        <time>2022-07-26T08:39:48Z</time>
      </trkpt>
      <trkpt lat="45.9336380" lon="5.6326490">
        <ele>933.4</ele>
        <time>2022-07-26T08:39:49Z</time>
      </trkpt>
      <trkpt lat="45.9336300" lon="5.6326430">
        <ele>933.3</ele>
        <time>2022-07-26T08:39:51Z</time>
      </trkpt>
      <trkpt lat="45.9336260" lon="5.6326390">
        <ele>933.2</ele>
        <time>2022-07-26T08:39:52Z</time>
      </trkpt>
      <trkpt lat="45.9336190" lon="5.6326360">
        <ele>933.0</ele>
        <time>2022-07-26T08:39:53Z</time>
      </trkpt>
      <trkpt lat="45.9336140" lon="5.6326350">
        <ele>932.9</ele>
        <time>2022-07-26T08:39:54Z</time>
      </trkpt>
      <trkpt lat="45.9336070" lon="5.6326350">
        <ele>932.8</ele>
        <time>2022-07-26T08:39:55Z</time>
      </trkpt>
      <trkpt lat="45.9335930" lon="5.6326370">
        <ele>932.5</ele>
        <time>2022-07-26T08:39:56Z</time>
      </trkpt>
      <trkpt lat="45.9335740" lon="5.6326460">
        <ele>932.1</ele>
        <time>2022-07-26T08:39:57Z</time>
      </trkpt>
      <trkpt lat="45.9335640" lon="5.6326560">
        <ele>931.9</ele>
        <time>2022-07-26T08:39:58Z</time>
      </trkpt>
      <trkpt lat="45.9335540" lon="5.6326640">
        <ele>931.7</ele>
        <time>2022-07-26T08:40:00Z</time>
      </trkpt>
      <trkpt lat="45.9335430" lon="5.6326690">
        <ele>931.5</ele>
        <time>2022-07-26T08:40:01Z</time>
      </trkpt>
      <trkpt lat="45.9335360" lon="5.6326720">
        <ele>931.3</ele>
        <time>2022-07-26T08:40:02Z</time>
      </trkpt>
      <trkpt lat="45.9335230" lon="5.6326760">
        <ele>931.1</ele>
        <time>2022-07-26T08:40:03Z</time>
      </trkpt>
      <trkpt lat="45.9335030" lon="5.6326750">
        <ele>930.7</ele>
        <time>2022-07-26T08:40:04Z</time>
      </trkpt>
      <trkpt lat="45.9334740" lon="5.6326700">
        <ele>930.2</ele>
        <time>2022-07-26T08:40:05Z</time>
      </trkpt>
      <trkpt lat="45.9334440" lon="5.6326630">
        <ele>929.6</ele>
        <time>2022-07-26T08:40:06Z</time>
      </trkpt>
      <trkpt lat="45.9334000" lon="5.6326570">
        <ele>928.8</ele>
        <time>2022-07-26T08:40:07Z</time>
      </trkpt>
      <trkpt lat="45.9333610" lon="5.6326540">
        <ele>928.1</ele>
        <time>2022-07-26T08:40:09Z</time>
      </trkpt>
      <trkpt lat="45.9333240" lon="5.6326560">
        <ele>927.5</ele>
        <time>2022-07-26T08:40:10Z</time>
      </trkpt>
      <trkpt lat="45.9332720" lon="5.6326500">
        <ele>926.7</ele>
        <time>2022-07-26T08:40:11Z</time>
      </trkpt>
      <trkpt lat="45.9332370" lon="5.6326440">
        <ele>926.2</ele>
        <time>2022-07-26T08:40:12Z</time>
      </trkpt>
      <trkpt lat="45.9331930" lon="5.6326300">
        <ele>925.6</ele>
        <time>2022-07-26T08:40:13Z</time>
      </trkpt>
      <trkpt lat="45.9331550" lon="5.6326100">
        <ele>925.1</ele>
        <time>2022-07-26T08:40:15Z</time>
      </trkpt>
      <trkpt lat="45.9331250" lon="5.6325970">
        <ele>924.7</ele>
        <time>2022-07-26T08:40:16Z</time>
      </trkpt>
      <trkpt lat="45.9331060" lon="5.6325930">
        <ele>924.4</ele>
        <time>2022-07-26T08:40:17Z</time>
      </trkpt>
      <trkpt lat="45.9330920" lon="5.6325900">
        <ele>924.2</ele>
        <time>2022-07-26T08:40:18Z</time>
      </trkpt>
      <trkpt lat="45.9330770" lon="5.6325870">
        <ele>924.0</ele>
        <time>2022-07-26T08:40:19Z</time>
      </trkpt>
      <trkpt lat="45.9330630" lon="5.6325850">
        <ele>923.8</ele>
        <time>2022-07-26T08:40:20Z</time>
      </trkpt>
      <trkpt lat="45.9330260" lon="5.6325700">
        <ele>923.3</ele>
        <time>2022-07-26T08:40:21Z</time>
      </trkpt>
      <trkpt lat="45.9330100" lon="5.6325610">
        <ele>923.0</ele>
        <time>2022-07-26T08:40:22Z</time>
      </trkpt>
      <trkpt lat="45.9329840" lon="5.6325460">
        <ele>922.6</ele>
        <time>2022-07-26T08:40:23Z</time>
      </trkpt>
      <trkpt lat="45.9329360" lon="5.6325090">
        <ele>922.1</ele>
        <time>2022-07-26T08:40:25Z</time>
      </trkpt>
      <trkpt lat="45.9329210" lon="5.6324960">
        <ele>922.2</ele>
        <time>2022-07-26T08:40:26Z</time>
      </trkpt>
      <trkpt lat="45.9329050" lon="5.6324830">
        <ele>922.3</ele>
        <time>2022-07-26T08:40:27Z</time>
      </trkpt>
      <trkpt lat="45.9328790" lon="5.6324570">
        <ele>922.5</ele>
        <time>2022-07-26T08:40:28Z</time>
      </trkpt>
      <trkpt lat="45.9328720" lon="5.6324480">
        <ele>922.6</ele>
        <time>2022-07-26T08:40:29Z</time>
      </trkpt>
      <trkpt lat="45.9328630" lon="5.6324280">
        <ele>922.7</ele>
        <time>2022-07-26T08:40:30Z</time>
      </trkpt>
      <trkpt lat="45.9328550" lon="5.6324080">
        <ele>922.8</ele>
        <time>2022-07-26T08:40:31Z</time>
      </trkpt>
      <trkpt lat="45.9328560" lon="5.6324030">
        <ele>922.9</ele>
        <time>2022-07-26T08:40:32Z</time>
      </trkpt>
      <trkpt lat="45.9328640" lon="5.6324120">
        <ele>922.9</ele>
        <time>2022-07-26T08:40:33Z</time>
      </trkpt>
      <trkpt lat="45.9328710" lon="5.6324200">
        <ele>923.0</ele>
        <time>2022-07-26T08:40:34Z</time>
      </trkpt>
      <trkpt lat="45.9328730" lon="5.6324230">
        <ele>923.0</ele>
        <time>2022-07-26T08:40:36Z</time>
      </trkpt>
      <trkpt lat="45.9328710" lon="5.6324220">
        <ele>923.0</ele>
        <time>2022-07-26T08:40:37Z</time>
      </trkpt>
      <trkpt lat="45.9328680" lon="5.6324190">
        <ele>923.1</ele>
        <time>2022-07-26T08:40:39Z</time>
      </trkpt>
      <trkpt lat="45.9328640" lon="5.6324150">
        <ele>923.1</ele>
        <time>2022-07-26T08:40:40Z</time>
      </trkpt>
      <trkpt lat="45.9328580" lon="5.6324040">
        <ele>923.2</ele>
        <time>2022-07-26T08:40:41Z</time>
      </trkpt>
      <trkpt lat="45.9327960" lon="5.6323250">
        <ele>923.8</ele>
        <time>2022-07-26T08:40:44Z</time>
      </trkpt>
      <trkpt lat="45.9327770" lon="5.6322930">
        <ele>924.0</ele>
        <time>2022-07-26T08:40:46Z</time>
      </trkpt>
      <trkpt lat="45.9327580" lon="5.6322540">
        <ele>924.2</ele>
        <time>2022-07-26T08:40:47Z</time>
      </trkpt>
      <trkpt lat="45.9327270" lon="5.6322150">
        <ele>924.5</ele>
        <time>2022-07-26T08:40:48Z</time>
      </trkpt>
      <trkpt lat="45.9326880" lon="5.6321650">
        <ele>924.9</ele>
        <time>2022-07-26T08:40:50Z</time>
      </trkpt>
      <trkpt lat="45.9326630" lon="5.6321270">
        <ele>925.2</ele>
        <time>2022-07-26T08:40:51Z</time>
      </trkpt>
      <trkpt lat="45.9326570" lon="5.6321170">
        <ele>925.2</ele>
        <time>2022-07-26T08:40:52Z</time>
      </trkpt>
      <trkpt lat="45.9326470" lon="5.6320940">
        <ele>925.4</ele>
        <time>2022-07-26T08:40:53Z</time>
      </trkpt>
      <trkpt lat="45.9326360" lon="5.6320670">
        <ele>925.5</ele>
        <time>2022-07-26T08:40:55Z</time>
      </trkpt>
      <trkpt lat="45.9326320" lon="5.6320240">
        <ele>925.8</ele>
        <time>2022-07-26T08:40:56Z</time>
      </trkpt>
      <trkpt lat="45.9326290" lon="5.6320080">
        <ele>925.8</ele>
        <time>2022-07-26T08:40:57Z</time>
      </trkpt>
      <trkpt lat="45.9326120" lon="5.6319610">
        <ele>926.1</ele>
        <time>2022-07-26T08:40:58Z</time>
      </trkpt>
      <trkpt lat="45.9326060" lon="5.6319460">
        <ele>926.2</ele>
        <time>2022-07-26T08:40:59Z</time>
      </trkpt>
      <trkpt lat="45.9325890" lon="5.6319140">
        <ele>926.4</ele>
        <time>2022-07-26T08:41:00Z</time>
      </trkpt>
      <trkpt lat="45.9325700" lon="5.6318740">
        <ele>926.6</ele>
        <time>2022-07-26T08:41:01Z</time>
      </trkpt>
      <trkpt lat="45.9325390" lon="5.6318110">
        <ele>926.9</ele>
        <time>2022-07-26T08:41:03Z</time>
      </trkpt>
      <trkpt lat="45.9325220" lon="5.6317770">
        <ele>927.1</ele>
        <time>2022-07-26T08:41:04Z</time>
      </trkpt>
      <trkpt lat="45.9325000" lon="5.6317420">
        <ele>927.3</ele>
        <time>2022-07-26T08:41:05Z</time>
      </trkpt>
      <trkpt lat="45.9324940" lon="5.6317340">
        <ele>927.4</ele>
        <time>2022-07-26T08:41:06Z</time>
      </trkpt>
      <trkpt lat="45.9324730" lon="5.6317010">
        <ele>927.6</ele>
        <time>2022-07-26T08:41:07Z</time>
      </trkpt>
      <trkpt lat="45.9324650" lon="5.6316910">
        <ele>927.7</ele>
        <time>2022-07-26T08:41:08Z</time>
      </trkpt>
      <trkpt lat="45.9324410" lon="5.6316670">
        <ele>928.0</ele>
        <time>2022-07-26T08:41:09Z</time>
      </trkpt>
      <trkpt lat="45.9324200" lon="5.6316410">
        <ele>928.2</ele>
        <time>2022-07-26T08:41:10Z</time>
      </trkpt>
      <trkpt lat="45.9323930" lon="5.6316050">
        <ele>928.5</ele>
        <time>2022-07-26T08:41:12Z</time>
      </trkpt>
      <trkpt lat="45.9323730" lon="5.6315740">
        <ele>928.8</ele>
        <time>2022-07-26T08:41:13Z</time>
      </trkpt>
      <trkpt lat="45.9323490" lon="5.6315470">
        <ele>929.2</ele>
        <time>2022-07-26T08:41:14Z</time>
      </trkpt>
      <trkpt lat="45.9323420" lon="5.6315410">
        <ele>929.3</ele>
        <time>2022-07-26T08:41:15Z</time>
      </trkpt>
      <trkpt lat="45.9323310" lon="5.6315330">
        <ele>929.4</ele>
        <time>2022-07-26T08:41:16Z</time>
      </trkpt>
      <trkpt lat="45.9323160" lon="5.6315210">
        <ele>929.6</ele>
        <time>2022-07-26T08:41:17Z</time>
      </trkpt>
      <trkpt lat="45.9322870" lon="5.6315010">
        <ele>930.0</ele>
        <time>2022-07-26T08:41:19Z</time>
      </trkpt>
      <trkpt lat="45.9322780" lon="5.6314950">
        <ele>930.1</ele>
        <time>2022-07-26T08:41:20Z</time>
      </trkpt>
      <trkpt lat="45.9322660" lon="5.6314860">
        <ele>930.3</ele>
        <time>2022-07-26T08:41:21Z</time>
      </trkpt>
      <trkpt lat="45.9322540" lon="5.6314760">
        <ele>930.4</ele>
        <time>2022-07-26T08:41:22Z</time>
      </trkpt>
      <trkpt lat="45.9322240" lon="5.6314510">
        <ele>930.9</ele>
        <time>2022-07-26T08:41:23Z</time>
      </trkpt>
      <trkpt lat="45.9322180" lon="5.6314460">
        <ele>931.0</ele>
        <time>2022-07-26T08:41:24Z</time>
      </trkpt>
      <trkpt lat="45.9322060" lon="5.6314370">
        <ele>931.1</ele>
        <time>2022-07-26T08:41:25Z</time>
      </trkpt>
      <trkpt lat="45.9321820" lon="5.6314240">
        <ele>931.5</ele>
        <time>2022-07-26T08:41:27Z</time>
      </trkpt>
      <trkpt lat="45.9321650" lon="5.6314150">
        <ele>931.7</ele>
        <time>2022-07-26T08:41:29Z</time>
      </trkpt>
      <trkpt lat="45.9321500" lon="5.6314120">
        <ele>931.9</ele>
        <time>2022-07-26T08:41:30Z</time>
      </trkpt>
      <trkpt lat="45.9321310" lon="5.6314090">
        <ele>932.2</ele>
        <time>2022-07-26T08:41:31Z</time>
      </trkpt>
      <trkpt lat="45.9321120" lon="5.6314020">
        <ele>932.4</ele>
        <time>2022-07-26T08:41:33Z</time>
      </trkpt>
      <trkpt lat="45.9320970" lon="5.6313930">
        <ele>932.7</ele>
        <time>2022-07-26T08:41:34Z</time>
      </trkpt>
      <trkpt lat="45.9320830" lon="5.6313870">
        <ele>932.9</ele>
        <time>2022-07-26T08:41:35Z</time>
      </trkpt>
      <trkpt lat="45.9320590" lon="5.6313750">
        <ele>933.2</ele>
        <time>2022-07-26T08:41:36Z</time>
      </trkpt>
      <trkpt lat="45.9320480" lon="5.6313700">
        <ele>933.4</ele>
        <time>2022-07-26T08:41:37Z</time>
      </trkpt>
      <trkpt lat="45.9320320" lon="5.6313510">
        <ele>933.7</ele>
        <time>2022-07-26T08:41:39Z</time>
      </trkpt>
      <trkpt lat="45.9320220" lon="5.6313440">
        <ele>933.8</ele>
        <time>2022-07-26T08:41:40Z</time>
      </trkpt>
      <trkpt lat="45.9319920" lon="5.6313510">
        <ele>934.2</ele>
        <time>2022-07-26T08:41:41Z</time>
      </trkpt>
      <trkpt lat="45.9319810" lon="5.6313540">
        <ele>934.4</ele>
        <time>2022-07-26T08:41:42Z</time>
      </trkpt>
      <trkpt lat="45.9319680" lon="5.6313530">
        <ele>934.5</ele>
        <time>2022-07-26T08:41:43Z</time>
      </trkpt>
      <trkpt lat="45.9319560" lon="5.6313500">
        <ele>934.7</ele>
        <time>2022-07-26T08:41:44Z</time>
      </trkpt>
      <trkpt lat="45.9319430" lon="5.6313410">
        <ele>934.9</ele>
        <time>2022-07-26T08:41:46Z</time>
      </trkpt>
      <trkpt lat="45.9319240" lon="5.6313270">
        <ele>935.2</ele>
        <time>2022-07-26T08:41:47Z</time>
      </trkpt>
      <trkpt lat="45.9319170" lon="5.6313210">
        <ele>935.3</ele>
        <time>2022-07-26T08:41:48Z</time>
      </trkpt>
      <trkpt lat="45.9319100" lon="5.6313150">
        <ele>935.4</ele>
        <time>2022-07-26T08:41:49Z</time>
      </trkpt>
      <trkpt lat="45.9318980" lon="5.6313030">
        <ele>935.6</ele>
        <time>2022-07-26T08:41:51Z</time>
      </trkpt>
      <trkpt lat="45.9318880" lon="5.6312910">
        <ele>935.7</ele>
        <time>2022-07-26T08:41:52Z</time>
      </trkpt>
      <trkpt lat="45.9318780" lon="5.6312810">
        <ele>935.9</ele>
        <time>2022-07-26T08:41:53Z</time>
      </trkpt>
      <trkpt lat="45.9318680" lon="5.6312710">
        <ele>936.0</ele>
        <time>2022-07-26T08:41:54Z</time>
      </trkpt>
      <trkpt lat="45.9318540" lon="5.6312600">
        <ele>936.2</ele>
        <time>2022-07-26T08:41:56Z</time>
      </trkpt>
      <trkpt lat="45.9318390" lon="5.6312490">
        <ele>936.4</ele>
        <time>2022-07-26T08:41:57Z</time>
      </trkpt>
      <trkpt lat="45.9318290" lon="5.6312430">
        <ele>936.5</ele>
        <time>2022-07-26T08:41:58Z</time>
      </trkpt>
      <trkpt lat="45.9318170" lon="5.6312320">
        <ele>936.7</ele>
        <time>2022-07-26T08:41:59Z</time>
      </trkpt>
      <trkpt lat="45.9317840" lon="5.6312150">
        <ele>937.1</ele>
        <time>2022-07-26T08:42:01Z</time>
      </trkpt>
      <trkpt lat="45.9317590" lon="5.6312020">
        <ele>937.4</ele>
        <time>2022-07-26T08:42:02Z</time>
      </trkpt>
      <trkpt lat="45.9317460" lon="5.6311960">
        <ele>937.5</ele>
        <time>2022-07-26T08:42:03Z</time>
      </trkpt>
      <trkpt lat="45.9317310" lon="5.6311880">
        <ele>937.7</ele>
        <time>2022-07-26T08:42:05Z</time>
      </trkpt>
      <trkpt lat="45.9317140" lon="5.6311780">
        <ele>937.9</ele>
        <time>2022-07-26T08:42:06Z</time>
      </trkpt>
      <trkpt lat="45.9317040" lon="5.6311700">
        <ele>938.0</ele>
        <time>2022-07-26T08:42:07Z</time>
      </trkpt>
      <trkpt lat="45.9316960" lon="5.6311620">
        <ele>938.1</ele>
        <time>2022-07-26T08:42:08Z</time>
      </trkpt>
      <trkpt lat="45.9316880" lon="5.6311550">
        <ele>938.2</ele>
        <time>2022-07-26T08:42:09Z</time>
      </trkpt>
      <trkpt lat="45.9316760" lon="5.6311440">
        <ele>938.3</ele>
        <time>2022-07-26T08:42:10Z</time>
      </trkpt>
      <trkpt lat="45.9316600" lon="5.6311310">
        <ele>938.5</ele>
        <time>2022-07-26T08:42:11Z</time>
      </trkpt>
      <trkpt lat="45.9316460" lon="5.6311210">
        <ele>938.6</ele>
        <time>2022-07-26T08:42:13Z</time>
      </trkpt>
      <trkpt lat="45.9316340" lon="5.6311110">
        <ele>938.7</ele>
        <time>2022-07-26T08:42:14Z</time>
      </trkpt>
      <trkpt lat="45.9316230" lon="5.6311020">
        <ele>938.9</ele>
        <time>2022-07-26T08:42:15Z</time>
      </trkpt>
      <trkpt lat="45.9316060" lon="5.6310880">
        <ele>939.0</ele>
        <time>2022-07-26T08:42:16Z</time>
      </trkpt>
      <trkpt lat="45.9315750" lon="5.6310680">
        <ele>939.3</ele>
        <time>2022-07-26T08:42:17Z</time>
      </trkpt>
      <trkpt lat="45.9315650" lon="5.6310620">
        <ele>939.4</ele>
        <time>2022-07-26T08:42:18Z</time>
      </trkpt>
      <trkpt lat="45.9315360" lon="5.6310410">
        <ele>939.7</ele>
        <time>2022-07-26T08:42:20Z</time>
      </trkpt>
      <trkpt lat="45.9315240" lon="5.6310320">
        <ele>939.8</ele>
        <time>2022-07-26T08:42:21Z</time>
      </trkpt>
      <trkpt lat="45.9314980" lon="5.6310110">
        <ele>940.0</ele>
        <time>2022-07-26T08:42:22Z</time>
      </trkpt>
      <trkpt lat="45.9314740" lon="5.6309900">
        <ele>940.3</ele>
        <time>2022-07-26T08:42:23Z</time>
      </trkpt>
      <trkpt lat="45.9314660" lon="5.6309830">
        <ele>940.4</ele>
        <time>2022-07-26T08:42:24Z</time>
      </trkpt>
      <trkpt lat="45.9314390" lon="5.6309610">
        <ele>940.6</ele>
        <time>2022-07-26T08:42:25Z</time>
      </trkpt>
      <trkpt lat="45.9314290" lon="5.6309530">
        <ele>940.7</ele>
        <time>2022-07-26T08:42:26Z</time>
      </trkpt>
      <trkpt lat="45.9314130" lon="5.6309410">
        <ele>940.9</ele>
        <time>2022-07-26T08:42:27Z</time>
      </trkpt>
      <trkpt lat="45.9313970" lon="5.6309320">
        <ele>941.0</ele>
        <time>2022-07-26T08:42:28Z</time>
      </trkpt>
      <trkpt lat="45.9313860" lon="5.6309250">
        <ele>941.1</ele>
        <time>2022-07-26T08:42:29Z</time>
      </trkpt>
      <trkpt lat="45.9313690" lon="5.6309230">
        <ele>941.3</ele>
        <time>2022-07-26T08:42:30Z</time>
      </trkpt>
      <trkpt lat="45.9313540" lon="5.6309230">
        <ele>941.4</ele>
        <time>2022-07-26T08:42:31Z</time>
      </trkpt>
      <trkpt lat="45.9313380" lon="5.6309210">
        <ele>941.6</ele>
        <time>2022-07-26T08:42:32Z</time>
      </trkpt>
      <trkpt lat="45.9313080" lon="5.6309180">
        <ele>941.8</ele>
        <time>2022-07-26T08:42:33Z</time>
      </trkpt>
      <trkpt lat="45.9312960" lon="5.6309140">
        <ele>941.9</ele>
        <time>2022-07-26T08:42:34Z</time>
      </trkpt>
      <trkpt lat="45.9312670" lon="5.6308840">
        <ele>942.2</ele>
        <time>2022-07-26T08:42:35Z</time>
      </trkpt>
      <trkpt lat="45.9312480" lon="5.6308570">
        <ele>942.4</ele>
        <time>2022-07-26T08:42:37Z</time>
      </trkpt>
      <trkpt lat="45.9312410" lon="5.6308460">
        <ele>942.5</ele>
        <time>2022-07-26T08:42:38Z</time>
      </trkpt>
      <trkpt lat="45.9312220" lon="5.6308140">
        <ele>942.7</ele>
        <time>2022-07-26T08:42:39Z</time>
      </trkpt>
      <trkpt lat="45.9312140" lon="5.6308010">
        <ele>942.8</ele>
        <time>2022-07-26T08:42:40Z</time>
      </trkpt>
      <trkpt lat="45.9312030" lon="5.6307830">
        <ele>942.9</ele>
        <time>2022-07-26T08:42:41Z</time>
      </trkpt>
      <trkpt lat="45.9311910" lon="5.6307680">
        <ele>943.0</ele>
        <time>2022-07-26T08:42:42Z</time>
      </trkpt>
      <trkpt lat="45.9311700" lon="5.6307430">
        <ele>943.2</ele>
        <time>2022-07-26T08:42:43Z</time>
      </trkpt>
      <trkpt lat="45.9311430" lon="5.6307130">
        <ele>943.4</ele>
        <time>2022-07-26T08:42:44Z</time>
      </trkpt>
      <trkpt lat="45.9311220" lon="5.6306950">
        <ele>943.5</ele>
        <time>2022-07-26T08:42:45Z</time>
      </trkpt>
      <trkpt lat="45.9310940" lon="5.6306850">
        <ele>943.6</ele>
        <time>2022-07-26T08:42:47Z</time>
      </trkpt>
      <trkpt lat="45.9310620" lon="5.6306660">
        <ele>943.8</ele>
        <time>2022-07-26T08:42:48Z</time>
      </trkpt>
      <trkpt lat="45.9310500" lon="5.6306580">
        <ele>943.9</ele>
        <time>2022-07-26T08:42:49Z</time>
      </trkpt>
      <trkpt lat="45.9310180" lon="5.6306320">
        <ele>944.1</ele>
        <time>2022-07-26T08:42:51Z</time>
      </trkpt>
      <trkpt lat="45.9309840" lon="5.6306040">
        <ele>944.2</ele>
        <time>2022-07-26T08:42:52Z</time>
      </trkpt>
      <trkpt lat="45.9309730" lon="5.6305950">
        <ele>944.3</ele>
        <time>2022-07-26T08:42:53Z</time>
      </trkpt>
      <trkpt lat="45.9309370" lon="5.6305690">
        <ele>944.5</ele>
        <time>2022-07-26T08:42:54Z</time>
      </trkpt>
      <trkpt lat="45.9309200" lon="5.6305590">
        <ele>944.5</ele>
        <time>2022-07-26T08:42:55Z</time>
      </trkpt>
      <trkpt lat="45.9308890" lon="5.6305410">
        <ele>944.7</ele>
        <time>2022-07-26T08:42:56Z</time>
      </trkpt>
      <trkpt lat="45.9308470" lon="5.6305150">
        <ele>944.8</ele>
        <time>2022-07-26T08:42:58Z</time>
      </trkpt>
      <trkpt lat="45.9308130" lon="5.6304880">
        <ele>944.9</ele>
        <time>2022-07-26T08:42:59Z</time>
      </trkpt>
      <trkpt lat="45.9307820" lon="5.6304610">
        <ele>944.9</ele>
        <time>2022-07-26T08:43:00Z</time>
      </trkpt>
      <trkpt lat="45.9307580" lon="5.6304390">
        <ele>944.9</ele>
        <time>2022-07-26T08:43:01Z</time>
      </trkpt>
      <trkpt lat="45.9307310" lon="5.6304200">
        <ele>944.9</ele>
        <time>2022-07-26T08:43:02Z</time>
      </trkpt>
      <trkpt lat="45.9307010" lon="5.6303990">
        <ele>944.9</ele>
        <time>2022-07-26T08:43:03Z</time>
      </trkpt>
      <trkpt lat="45.9306680" lon="5.6303600">
        <ele>944.9</ele>
        <time>2022-07-26T08:43:04Z</time>
      </trkpt>
      <trkpt lat="45.9306360" lon="5.6303220">
        <ele>944.9</ele>
        <time>2022-07-26T08:43:06Z</time>
      </trkpt>
      <trkpt lat="45.9306060" lon="5.6302800">
        <ele>944.9</ele>
        <time>2022-07-26T08:43:07Z</time>
      </trkpt>
      <trkpt lat="45.9305720" lon="5.6302420">
        <ele>944.8</ele>
        <time>2022-07-26T08:43:08Z</time>
      </trkpt>
      <trkpt lat="45.9305490" lon="5.6302200">
        <ele>944.8</ele>
        <time>2022-07-26T08:43:09Z</time>
      </trkpt>
      <trkpt lat="45.9305170" lon="5.6301960">
        <ele>944.8</ele>
        <time>2022-07-26T08:43:10Z</time>
      </trkpt>
      <trkpt lat="45.9304850" lon="5.6301650">
        <ele>944.8</ele>
        <time>2022-07-26T08:43:11Z</time>
      </trkpt>
      <trkpt lat="45.9304610" lon="5.6301390">
        <ele>944.7</ele>
        <time>2022-07-26T08:43:12Z</time>
      </trkpt>
      <trkpt lat="45.9304200" lon="5.6300970">
        <ele>944.7</ele>
        <time>2022-07-26T08:43:13Z</time>
      </trkpt>
      <trkpt lat="45.9303800" lon="5.6300650">
        <ele>944.7</ele>
        <time>2022-07-26T08:43:15Z</time>
      </trkpt>
      <trkpt lat="45.9303340" lon="5.6300310">
        <ele>944.6</ele>
        <time>2022-07-26T08:43:16Z</time>
      </trkpt>
      <trkpt lat="45.9303040" lon="5.6300100">
        <ele>944.5</ele>
        <time>2022-07-26T08:43:17Z</time>
      </trkpt>
      <trkpt lat="45.9302760" lon="5.6299830">
        <ele>944.4</ele>
        <time>2022-07-26T08:43:19Z</time>
      </trkpt>
      <trkpt lat="45.9302770" lon="5.6299760">
        <ele>944.3</ele>
        <time>2022-07-26T08:43:20Z</time>
      </trkpt>
      <trkpt lat="45.9302820" lon="5.6299630">
        <ele>944.3</ele>
        <time>2022-07-26T08:43:21Z</time>
      </trkpt>
      <trkpt lat="45.9303000" lon="5.6299440">
        <ele>944.2</ele>
        <time>2022-07-26T08:43:23Z</time>
      </trkpt>
      <trkpt lat="45.9303120" lon="5.6299400">
        <ele>944.1</ele>
        <time>2022-07-26T08:43:24Z</time>
      </trkpt>
      <trkpt lat="45.9303230" lon="5.6299380">
        <ele>944.1</ele>
        <time>2022-07-26T08:43:25Z</time>
      </trkpt>
      <trkpt lat="45.9303300" lon="5.6299350">
        <ele>944.0</ele>
        <time>2022-07-26T08:43:26Z</time>
      </trkpt>
      <trkpt lat="45.9303270" lon="5.6299440">
        <ele>944.0</ele>
        <time>2022-07-26T08:43:27Z</time>
      </trkpt>
      <trkpt lat="45.9303240" lon="5.6299470">
        <ele>944.0</ele>
        <time>2022-07-26T08:43:28Z</time>
      </trkpt>
      <trkpt lat="45.9303210" lon="5.6299510">
        <ele>944.0</ele>
        <time>2022-07-26T08:43:29Z</time>
      </trkpt>
      <trkpt lat="45.9303190" lon="5.6299540">
        <ele>943.9</ele>
        <time>2022-07-26T08:43:30Z</time>
      </trkpt>
      <trkpt lat="45.9303160" lon="5.6299580">
        <ele>943.9</ele>
        <time>2022-07-26T08:43:31Z</time>
      </trkpt>
      <trkpt lat="45.9303140" lon="5.6299620">
        <ele>943.9</ele>
        <time>2022-07-26T08:43:32Z</time>
      </trkpt>
      <trkpt lat="45.9303110" lon="5.6299650">
        <ele>943.9</ele>
        <time>2022-07-26T08:43:33Z</time>
      </trkpt>
      <trkpt lat="45.9303080" lon="5.6299690">
        <ele>943.9</ele>
        <time>2022-07-26T08:43:34Z</time>
      </trkpt>
      <trkpt lat="45.9303060" lon="5.6299720">
        <ele>943.8</ele>
        <time>2022-07-26T08:43:35Z</time>
      </trkpt>
      <trkpt lat="45.9303030" lon="5.6299760">
        <ele>943.8</ele>
        <time>2022-07-26T08:43:41Z</time>
      </trkpt>
      <trkpt lat="45.9303000" lon="5.6299790">
        <ele>943.8</ele>
        <time>2022-07-26T08:43:42Z</time>
      </trkpt>
      <trkpt lat="45.9302980" lon="5.6299830">
        <ele>943.8</ele>
        <time>2022-07-26T08:43:43Z</time>
      </trkpt>
      <trkpt lat="45.9302950" lon="5.6299860">
        <ele>943.8</ele>
        <time>2022-07-26T08:43:44Z</time>
      </trkpt>
      <trkpt lat="45.9302930" lon="5.6299900">
        <ele>943.7</ele>
        <time>2022-07-26T08:43:45Z</time>
      </trkpt>
      <trkpt lat="45.9302900" lon="5.6299930">
        <ele>943.7</ele>
        <time>2022-07-26T08:43:46Z</time>
      </trkpt>
      <trkpt lat="45.9302870" lon="5.6299970">
        <ele>943.7</ele>
        <time>2022-07-26T08:43:47Z</time>
      </trkpt>
      <trkpt lat="45.9302850" lon="5.6300000">
        <ele>943.7</ele>
        <time>2022-07-26T08:43:48Z</time>
      </trkpt>
      <trkpt lat="45.9302820" lon="5.6300040">
        <ele>943.6</ele>
        <time>2022-07-26T08:43:49Z</time>
      </trkpt>
      <trkpt lat="45.9302800" lon="5.6300070">
        <ele>943.6</ele>
        <time>2022-07-26T08:43:50Z</time>
      </trkpt>
      <trkpt lat="45.9302770" lon="5.6300110">
        <ele>943.6</ele>
        <time>2022-07-26T08:43:51Z</time>
      </trkpt>
      <trkpt lat="45.9302740" lon="5.6300140">
        <ele>943.6</ele>
        <time>2022-07-26T08:43:52Z</time>
      </trkpt>
      <trkpt lat="45.9302720" lon="5.6300180">
        <ele>943.6</ele>
        <time>2022-07-26T08:43:53Z</time>
      </trkpt>
      <trkpt lat="45.9302690" lon="5.6300220">
        <ele>943.5</ele>
        <time>2022-07-26T08:43:54Z</time>
      </trkpt>
      <trkpt lat="45.9302670" lon="5.6300250">
        <ele>943.5</ele>
        <time>2022-07-26T08:43:55Z</time>
      </trkpt>
      <trkpt lat="45.9302640" lon="5.6300290">
        <ele>943.5</ele>
        <time>2022-07-26T08:43:56Z</time>
      </trkpt>
      <trkpt lat="45.9302610" lon="5.6300320">
        <ele>943.5</ele>
        <time>2022-07-26T08:43:57Z</time>
      </trkpt>
      <trkpt lat="45.9302590" lon="5.6300360">
        <ele>943.4</ele>
        <time>2022-07-26T08:43:58Z</time>
      </trkpt>
      <trkpt lat="45.9302560" lon="5.6300390">
        <ele>943.4</ele>
        <time>2022-07-26T08:43:59Z</time>
      </trkpt>
      <trkpt lat="45.9302530" lon="5.6300430">
        <ele>943.4</ele>
        <time>2022-07-26T08:44:00Z</time>
      </trkpt>
      <trkpt lat="45.9302510" lon="5.6300460">
        <ele>943.4</ele>
        <time>2022-07-26T08:47:54Z</time>
      </trkpt>
      <trkpt lat="45.9302480" lon="5.6300500">
        <ele>943.3</ele>
        <time>2022-07-26T08:47:55Z</time>
      </trkpt>
      <trkpt lat="45.9302050" lon="5.6300390">
        <ele>943.0</ele>
        <time>2022-07-26T08:47:56Z</time>
      </trkpt>
      <trkpt lat="45.9301580" lon="5.6300240">
        <ele>942.6</ele>
        <time>2022-07-26T08:47:57Z</time>
      </trkpt>
      <trkpt lat="45.9300910" lon="5.6299890">
        <ele>942.0</ele>
        <time>2022-07-26T08:47:58Z</time>
      </trkpt>
      <trkpt lat="45.9300220" lon="5.6299620">
        <ele>941.4</ele>
        <time>2022-07-26T08:47:59Z</time>
      </trkpt>
      <trkpt lat="45.9299530" lon="5.6299360">
        <ele>940.8</ele>
        <time>2022-07-26T08:48:00Z</time>
      </trkpt>
      <trkpt lat="45.9298840" lon="5.6299090">
        <ele>940.2</ele>
        <time>2022-07-26T08:48:01Z</time>
      </trkpt>
      <trkpt lat="45.9297760" lon="5.6298540">
        <ele>939.5</ele>
        <time>2022-07-26T08:48:02Z</time>
      </trkpt>
      <trkpt lat="45.9296920" lon="5.6298060">
        <ele>939.1</ele>
        <time>2022-07-26T08:48:03Z</time>
      </trkpt>
      <trkpt lat="45.9296210" lon="5.6297540">
        <ele>939.0</ele>
        <time>2022-07-26T08:48:04Z</time>
      </trkpt>
      <trkpt lat="45.9295500" lon="5.6296870">
        <ele>938.8</ele>
        <time>2022-07-26T08:48:05Z</time>
      </trkpt>
      <trkpt lat="45.9294800" lon="5.6296180">
        <ele>938.6</ele>
        <time>2022-07-26T08:48:06Z</time>
      </trkpt>
      <trkpt lat="45.9294070" lon="5.6295560">
        <ele>938.4</ele>
        <time>2022-07-26T08:48:07Z</time>
      </trkpt>
      <trkpt lat="45.9293350" lon="5.6294960">
        <ele>938.2</ele>
        <time>2022-07-26T08:48:08Z</time>
      </trkpt>
      <trkpt lat="45.9292630" lon="5.6294410">
        <ele>937.9</ele>
        <time>2022-07-26T08:48:09Z</time>
      </trkpt>
      <trkpt lat="45.9291960" lon="5.6293810">
        <ele>937.6</ele>
        <time>2022-07-26T08:48:10Z</time>
      </trkpt>
      <trkpt lat="45.9291290" lon="5.6293310">
        <ele>937.3</ele>
        <time>2022-07-26T08:48:11Z</time>
      </trkpt>
      <trkpt lat="45.9290540" lon="5.6292790">
        <ele>937.0</ele>
        <time>2022-07-26T08:48:12Z</time>
      </trkpt>
      <trkpt lat="45.9289840" lon="5.6292300">
        <ele>936.7</ele>
        <time>2022-07-26T08:48:13Z</time>
      </trkpt>
      <trkpt lat="45.9289150" lon="5.6291820">
        <ele>936.5</ele>
        <time>2022-07-26T08:48:14Z</time>
      </trkpt>
      <trkpt lat="45.9288410" lon="5.6291310">
        <ele>936.3</ele>
        <time>2022-07-26T08:48:15Z</time>
      </trkpt>
      <trkpt lat="45.9287680" lon="5.6290800">
        <ele>936.3</ele>
        <time>2022-07-26T08:48:16Z</time>
      </trkpt>
      <trkpt lat="45.9286890" lon="5.6290170">
        <ele>936.2</ele>
        <time>2022-07-26T08:48:17Z</time>
      </trkpt>
      <trkpt lat="45.9286130" lon="5.6289610">
        <ele>936.2</ele>
        <time>2022-07-26T08:48:18Z</time>
      </trkpt>
      <trkpt lat="45.9285400" lon="5.6289140">
        <ele>936.3</ele>
        <time>2022-07-26T08:48:19Z</time>
      </trkpt>
      <trkpt lat="45.9284720" lon="5.6288760">
        <ele>936.5</ele>
        <time>2022-07-26T08:48:20Z</time>
      </trkpt>
      <trkpt lat="45.9284120" lon="5.6288450">
        <ele>936.8</ele>
        <time>2022-07-26T08:48:21Z</time>
      </trkpt>
      <trkpt lat="45.9283530" lon="5.6288230">
        <ele>937.1</ele>
        <time>2022-07-26T08:48:22Z</time>
      </trkpt>
      <trkpt lat="45.9282880" lon="5.6288070">
        <ele>937.5</ele>
        <time>2022-07-26T08:48:23Z</time>
      </trkpt>
      <trkpt lat="45.9282330" lon="5.6287810">
        <ele>937.9</ele>
        <time>2022-07-26T08:48:24Z</time>
      </trkpt>
      <trkpt lat="45.9281730" lon="5.6287680">
        <ele>938.4</ele>
        <time>2022-07-26T08:48:25Z</time>
      </trkpt>
      <trkpt lat="45.9281220" lon="5.6287390">
        <ele>938.9</ele>
        <time>2022-07-26T08:48:26Z</time>
      </trkpt>
      <trkpt lat="45.9280840" lon="5.6287100">
        <ele>939.3</ele>
        <time>2022-07-26T08:48:27Z</time>
      </trkpt>
      <trkpt lat="45.9280530" lon="5.6286810">
        <ele>939.6</ele>
        <time>2022-07-26T08:48:28Z</time>
      </trkpt>
      <trkpt lat="45.9280410" lon="5.6286740">
        <ele>939.7</ele>
        <time>2022-07-26T08:48:29Z</time>
      </trkpt>
      <trkpt lat="45.9280180" lon="5.6286530">
        <ele>940.0</ele>
        <time>2022-07-26T08:48:30Z</time>
      </trkpt>
      <trkpt lat="45.9279870" lon="5.6286390">
        <ele>940.3</ele>
        <time>2022-07-26T08:48:31Z</time>
      </trkpt>
      <trkpt lat="45.9279550" lon="5.6286200">
        <ele>940.6</ele>
        <time>2022-07-26T08:48:32Z</time>
      </trkpt>
      <trkpt lat="45.9279440" lon="5.6286130">
        <ele>940.7</ele>
        <time>2022-07-26T08:48:33Z</time>
      </trkpt>
      <trkpt lat="45.9279270" lon="5.6285920">
        <ele>940.8</ele>
        <time>2022-07-26T08:48:34Z</time>
      </trkpt>
      <trkpt lat="45.9279300" lon="5.6285780">
        <ele>940.9</ele>
        <time>2022-07-26T08:48:35Z</time>
      </trkpt>
      <trkpt lat="45.9279330" lon="5.6285630">
        <ele>941.0</ele>
        <time>2022-07-26T08:48:36Z</time>
      </trkpt>
      <trkpt lat="45.9279160" lon="5.6285510">
        <ele>941.1</ele>
        <time>2022-07-26T08:48:37Z</time>
      </trkpt>
      <trkpt lat="45.9279000" lon="5.6285380">
        <ele>941.3</ele>
        <time>2022-07-26T08:48:39Z</time>
      </trkpt>
      <trkpt lat="45.9278740" lon="5.6285150">
        <ele>941.5</ele>
        <time>2022-07-26T08:48:40Z</time>
      </trkpt>
      <trkpt lat="45.9278390" lon="5.6284980">
        <ele>941.7</ele>
        <time>2022-07-26T08:48:42Z</time>
      </trkpt>
      <trkpt lat="45.9278050" lon="5.6284830">
        <ele>941.8</ele>
        <time>2022-07-26T08:48:43Z</time>
      </trkpt>
      <trkpt lat="45.9277930" lon="5.6284770">
        <ele>941.9</ele>
        <time>2022-07-26T08:48:44Z</time>
      </trkpt>
      <trkpt lat="45.9277650" lon="5.6284610">
        <ele>942.0</ele>
        <time>2022-07-26T08:48:45Z</time>
      </trkpt>
      <trkpt lat="45.9277230" lon="5.6284360">
        <ele>942.1</ele>
        <time>2022-07-26T08:48:47Z</time>
      </trkpt>
      <trkpt lat="45.9276940" lon="5.6284160">
        <ele>942.2</ele>
        <time>2022-07-26T08:48:48Z</time>
      </trkpt>
      <trkpt lat="45.9276560" lon="5.6283970">
        <ele>942.2</ele>
        <time>2022-07-26T08:48:49Z</time>
      </trkpt>
      <trkpt lat="45.9276240" lon="5.6283780">
        <ele>942.3</ele>
        <time>2022-07-26T08:48:50Z</time>
      </trkpt>
      <trkpt lat="45.9275910" lon="5.6283600">
        <ele>942.3</ele>
        <time>2022-07-26T08:48:52Z</time>
      </trkpt>
      <trkpt lat="45.9275620" lon="5.6283430">
        <ele>942.2</ele>
        <time>2022-07-26T08:48:53Z</time>
      </trkpt>
      <trkpt lat="45.9275180" lon="5.6283050">
        <ele>942.0</ele>
        <time>2022-07-26T08:48:54Z</time>
      </trkpt>
      <trkpt lat="45.9274390" lon="5.6282520">
        <ele>941.6</ele>
        <time>2022-07-26T08:48:55Z</time>
      </trkpt>
      <trkpt lat="45.9273950" lon="5.6282280">
        <ele>941.4</ele>
        <time>2022-07-26T08:48:56Z</time>
      </trkpt>
      <trkpt lat="45.9273400" lon="5.6282010">
        <ele>941.2</ele>
        <time>2022-07-26T08:48:57Z</time>
      </trkpt>
      <trkpt lat="45.9272900" lon="5.6281620">
        <ele>941.0</ele>
        <time>2022-07-26T08:48:58Z</time>
      </trkpt>
      <trkpt lat="45.9272440" lon="5.6281280">
        <ele>940.8</ele>
        <time>2022-07-26T08:48:59Z</time>
      </trkpt>
      <trkpt lat="45.9272030" lon="5.6280920">
        <ele>940.7</ele>
        <time>2022-07-26T08:49:00Z</time>
      </trkpt>
      <trkpt lat="45.9271530" lon="5.6280410">
        <ele>940.5</ele>
        <time>2022-07-26T08:49:01Z</time>
      </trkpt>
      <trkpt lat="45.9271050" lon="5.6280000">
        <ele>940.5</ele>
        <time>2022-07-26T08:49:02Z</time>
      </trkpt>
      <trkpt lat="45.9270620" lon="5.6279800">
        <ele>940.4</ele>
        <time>2022-07-26T08:49:03Z</time>
      </trkpt>
      <trkpt lat="45.9270200" lon="5.6279660">
        <ele>940.4</ele>
        <time>2022-07-26T08:49:04Z</time>
      </trkpt>
      <trkpt lat="45.9269650" lon="5.6279470">
        <ele>940.3</ele>
        <time>2022-07-26T08:49:05Z</time>
      </trkpt>
      <trkpt lat="45.9269040" lon="5.6279490">
        <ele>940.3</ele>
        <time>2022-07-26T08:49:07Z</time>
      </trkpt>
      <trkpt lat="45.9268650" lon="5.6279470">
        <ele>940.2</ele>
        <time>2022-07-26T08:49:08Z</time>
      </trkpt>
      <trkpt lat="45.9268120" lon="5.6279430">
        <ele>940.1</ele>
        <time>2022-07-26T08:49:09Z</time>
      </trkpt>
      <trkpt lat="45.9267550" lon="5.6279390">
        <ele>940.0</ele>
        <time>2022-07-26T08:49:11Z</time>
      </trkpt>
      <trkpt lat="45.9267010" lon="5.6279300">
        <ele>939.9</ele>
        <time>2022-07-26T08:49:12Z</time>
      </trkpt>
      <trkpt lat="45.9266580" lon="5.6278940">
        <ele>939.9</ele>
        <time>2022-07-26T08:49:14Z</time>
      </trkpt>
      <trkpt lat="45.9266160" lon="5.6278850">
        <ele>939.8</ele>
        <time>2022-07-26T08:49:15Z</time>
      </trkpt>
      <trkpt lat="45.9265590" lon="5.6278740">
        <ele>939.8</ele>
        <time>2022-07-26T08:49:16Z</time>
      </trkpt>
      <trkpt lat="45.9264970" lon="5.6278650">
        <ele>939.6</ele>
        <time>2022-07-26T08:49:18Z</time>
      </trkpt>
      <trkpt lat="45.9264510" lon="5.6278560">
        <ele>939.5</ele>
        <time>2022-07-26T08:49:19Z</time>
      </trkpt>
      <trkpt lat="45.9263580" lon="5.6278530">
        <ele>939.1</ele>
        <time>2022-07-26T08:49:20Z</time>
      </trkpt>
      <trkpt lat="45.9263080" lon="5.6278490">
        <ele>938.9</ele>
        <time>2022-07-26T08:49:21Z</time>
      </trkpt>
      <trkpt lat="45.9262700" lon="5.6278350">
        <ele>938.8</ele>
        <time>2022-07-26T08:49:22Z</time>
      </trkpt>
      <trkpt lat="45.9262330" lon="5.6278250">
        <ele>938.6</ele>
        <time>2022-07-26T08:49:23Z</time>
      </trkpt>
      <trkpt lat="45.9261900" lon="5.6278150">
        <ele>938.5</ele>
        <time>2022-07-26T08:49:25Z</time>
      </trkpt>
      <trkpt lat="45.9261470" lon="5.6278040">
        <ele>938.3</ele>
        <time>2022-07-26T08:49:26Z</time>
      </trkpt>
      <trkpt lat="45.9261090" lon="5.6277980">
        <ele>938.2</ele>
        <time>2022-07-26T08:49:27Z</time>
      </trkpt>
      <trkpt lat="45.9260670" lon="5.6277930">
        <ele>938.1</ele>
        <time>2022-07-26T08:49:28Z</time>
      </trkpt>
      <trkpt lat="45.9260000" lon="5.6277770">
        <ele>937.9</ele>
        <time>2022-07-26T08:49:29Z</time>
      </trkpt>
      <trkpt lat="45.9259520" lon="5.6277720">
        <ele>937.8</ele>
        <time>2022-07-26T08:49:30Z</time>
      </trkpt>
      <trkpt lat="45.9259040" lon="5.6277670">
        <ele>937.6</ele>
        <time>2022-07-26T08:49:31Z</time>
      </trkpt>
      <trkpt lat="45.9258420" lon="5.6277560">
        <ele>937.4</ele>
        <time>2022-07-26T08:49:32Z</time>
      </trkpt>
      <trkpt lat="45.9257970" lon="5.6277530">
        <ele>937.3</ele>
        <time>2022-07-26T08:49:33Z</time>
      </trkpt>
      <trkpt lat="45.9257310" lon="5.6277400">
        <ele>937.2</ele>
        <time>2022-07-26T08:49:34Z</time>
      </trkpt>
      <trkpt lat="45.9256880" lon="5.6277320">
        <ele>937.1</ele>
        <time>2022-07-26T08:49:36Z</time>
      </trkpt>
      <trkpt lat="45.9256390" lon="5.6277290">
        <ele>937.0</ele>
        <time>2022-07-26T08:49:37Z</time>
      </trkpt>
      <trkpt lat="45.9256020" lon="5.6277240">
        <ele>936.9</ele>
        <time>2022-07-26T08:49:38Z</time>
      </trkpt>
      <trkpt lat="45.9255630" lon="5.6277190">
        <ele>936.8</ele>
        <time>2022-07-26T08:49:39Z</time>
      </trkpt>
      <trkpt lat="45.9255020" lon="5.6277130">
        <ele>936.7</ele>
        <time>2022-07-26T08:49:40Z</time>
      </trkpt>
      <trkpt lat="45.9254580" lon="5.6277120">
        <ele>936.6</ele>
        <time>2022-07-26T08:49:41Z</time>
      </trkpt>
      <trkpt lat="45.9254020" lon="5.6277180">
        <ele>936.5</ele>
        <time>2022-07-26T08:49:43Z</time>
      </trkpt>
      <trkpt lat="45.9253540" lon="5.6277160">
        <ele>936.4</ele>
        <time>2022-07-26T08:49:44Z</time>
      </trkpt>
      <trkpt lat="45.9253020" lon="5.6277220">
        <ele>936.3</ele>
        <time>2022-07-26T08:49:45Z</time>
      </trkpt>
      <trkpt lat="45.9252560" lon="5.6277220">
        <ele>936.2</ele>
        <time>2022-07-26T08:49:46Z</time>
      </trkpt>
      <trkpt lat="45.9252170" lon="5.6277180">
        <ele>936.1</ele>
        <time>2022-07-26T08:49:47Z</time>
      </trkpt>
      <trkpt lat="45.9251780" lon="5.6277160">
        <ele>936.1</ele>
        <time>2022-07-26T08:49:48Z</time>
      </trkpt>
      <trkpt lat="45.9251280" lon="5.6277080">
        <ele>936.0</ele>
        <time>2022-07-26T08:49:50Z</time>
      </trkpt>
      <trkpt lat="45.9250760" lon="5.6276820">
        <ele>935.9</ele>
        <time>2022-07-26T08:49:51Z</time>
      </trkpt>
      <trkpt lat="45.9250260" lon="5.6276470">
        <ele>935.9</ele>
        <time>2022-07-26T08:49:53Z</time>
      </trkpt>
      <trkpt lat="45.9249920" lon="5.6276230">
        <ele>935.8</ele>
        <time>2022-07-26T08:49:54Z</time>
      </trkpt>
      <trkpt lat="45.9249410" lon="5.6276170">
        <ele>935.7</ele>
        <time>2022-07-26T08:49:55Z</time>
      </trkpt>
      <trkpt lat="45.9248980" lon="5.6276250">
        <ele>935.6</ele>
        <time>2022-07-26T08:49:56Z</time>
      </trkpt>
      <trkpt lat="45.9248770" lon="5.6276240">
        <ele>935.6</ele>
        <time>2022-07-26T08:49:57Z</time>
      </trkpt>
      <trkpt lat="45.9248320" lon="5.6275960">
        <ele>935.6</ele>
        <time>2022-07-26T08:49:59Z</time>
      </trkpt>
      <trkpt lat="45.9248000" lon="5.6275730">
        <ele>935.6</ele>
        <time>2022-07-26T08:50:00Z</time>
      </trkpt>
      <trkpt lat="45.9247510" lon="5.6275580">
        <ele>935.5</ele>
        <time>2022-07-26T08:50:01Z</time>
      </trkpt>
      <trkpt lat="45.9246830" lon="5.6275420">
        <ele>935.5</ele>
        <time>2022-07-26T08:50:02Z</time>
      </trkpt>
      <trkpt lat="45.9246240" lon="5.6275310">
        <ele>935.4</ele>
        <time>2022-07-26T08:50:03Z</time>
      </trkpt>
      <trkpt lat="45.9245530" lon="5.6275230">
        <ele>935.3</ele>
        <time>2022-07-26T08:50:05Z</time>
      </trkpt>
      <trkpt lat="45.9245010" lon="5.6275170">
        <ele>935.2</ele>
        <time>2022-07-26T08:50:06Z</time>
      </trkpt>
      <trkpt lat="45.9244530" lon="5.6275150">
        <ele>935.2</ele>
        <time>2022-07-26T08:50:07Z</time>
      </trkpt>
      <trkpt lat="45.9243930" lon="5.6275130">
        <ele>935.2</ele>
        <time>2022-07-26T08:50:09Z</time>
      </trkpt>
      <trkpt lat="45.9243530" lon="5.6275050">
        <ele>935.2</ele>
        <time>2022-07-26T08:50:10Z</time>
      </trkpt>
      <trkpt lat="45.9243200" lon="5.6274990">
        <ele>935.2</ele>
        <time>2022-07-26T08:50:11Z</time>
      </trkpt>
      <trkpt lat="45.9242900" lon="5.6274890">
        <ele>935.2</ele>
        <time>2022-07-26T08:50:12Z</time>
      </trkpt>
      <trkpt lat="45.9242810" lon="5.6274880">
        <ele>935.2</ele>
        <time>2022-07-26T08:50:13Z</time>
      </trkpt>
      <trkpt lat="45.9242480" lon="5.6274740">
        <ele>935.2</ele>
        <time>2022-07-26T08:50:14Z</time>
      </trkpt>
      <trkpt lat="45.9242060" lon="5.6274490">
        <ele>935.1</ele>
        <time>2022-07-26T08:50:15Z</time>
      </trkpt>
      <trkpt lat="45.9241640" lon="5.6274240">
        <ele>935.0</ele>
        <time>2022-07-26T08:50:16Z</time>
      </trkpt>
      <trkpt lat="45.9241260" lon="5.6274050">
        <ele>934.9</ele>
        <time>2022-07-26T08:50:17Z</time>
      </trkpt>
      <trkpt lat="45.9240970" lon="5.6273910">
        <ele>934.8</ele>
        <time>2022-07-26T08:50:18Z</time>
      </trkpt>
      <trkpt lat="45.9240650" lon="5.6273600">
        <ele>934.7</ele>
        <time>2022-07-26T08:50:19Z</time>
      </trkpt>
      <trkpt lat="45.9240300" lon="5.6273350">
        <ele>934.6</ele>
        <time>2022-07-26T08:50:20Z</time>
      </trkpt>
      <trkpt lat="45.9239730" lon="5.6273240">
        <ele>934.4</ele>
        <time>2022-07-26T08:50:22Z</time>
      </trkpt>
      <trkpt lat="45.9239300" lon="5.6273220">
        <ele>934.3</ele>
        <time>2022-07-26T08:50:23Z</time>
      </trkpt>
      <trkpt lat="45.9238750" lon="5.6273220">
        <ele>934.2</ele>
        <time>2022-07-26T08:50:24Z</time>
      </trkpt>
      <trkpt lat="45.9238200" lon="5.6273110">
        <ele>934.1</ele>
        <time>2022-07-26T08:50:26Z</time>
      </trkpt>
      <trkpt lat="45.9237740" lon="5.6273070">
        <ele>933.9</ele>
        <time>2022-07-26T08:50:27Z</time>
      </trkpt>
      <trkpt lat="45.9237260" lon="5.6273070">
        <ele>933.7</ele>
        <time>2022-07-26T08:50:28Z</time>
      </trkpt>
      <trkpt lat="45.9236760" lon="5.6273100">
        <ele>933.5</ele>
        <time>2022-07-26T08:50:29Z</time>
      </trkpt>
      <trkpt lat="45.9236100" lon="5.6273240">
        <ele>933.3</ele>
        <time>2022-07-26T08:50:30Z</time>
      </trkpt>
      <trkpt lat="45.9235540" lon="5.6273280">
        <ele>933.0</ele>
        <time>2022-07-26T08:50:31Z</time>
      </trkpt>
      <trkpt lat="45.9234980" lon="5.6273340">
        <ele>932.8</ele>
        <time>2022-07-26T08:50:32Z</time>
      </trkpt>
      <trkpt lat="45.9234340" lon="5.6273310">
        <ele>932.6</ele>
        <time>2022-07-26T08:50:34Z</time>
      </trkpt>
      <trkpt lat="45.9233560" lon="5.6273260">
        <ele>932.3</ele>
        <time>2022-07-26T08:50:36Z</time>
      </trkpt>
      <trkpt lat="45.9232720" lon="5.6273680">
        <ele>932.0</ele>
        <time>2022-07-26T08:50:37Z</time>
      </trkpt>
      <trkpt lat="45.9232140" lon="5.6273740">
        <ele>931.8</ele>
        <time>2022-07-26T08:50:38Z</time>
      </trkpt>
      <trkpt lat="45.9231660" lon="5.6273700">
        <ele>931.5</ele>
        <time>2022-07-26T08:50:39Z</time>
      </trkpt>
      <trkpt lat="45.9231390" lon="5.6273670">
        <ele>931.4</ele>
        <time>2022-07-26T08:50:40Z</time>
      </trkpt>
      <trkpt lat="45.9230980" lon="5.6273890">
        <ele>931.2</ele>
        <time>2022-07-26T08:50:41Z</time>
      </trkpt>
      <trkpt lat="45.9230770" lon="5.6273880">
        <ele>931.1</ele>
        <time>2022-07-26T08:50:42Z</time>
      </trkpt>
      <trkpt lat="45.9230300" lon="5.6273840">
        <ele>930.9</ele>
        <time>2022-07-26T08:50:43Z</time>
      </trkpt>
      <trkpt lat="45.9229830" lon="5.6273730">
        <ele>930.6</ele>
        <time>2022-07-26T08:50:44Z</time>
      </trkpt>
      <trkpt lat="45.9228970" lon="5.6273630">
        <ele>930.2</ele>
        <time>2022-07-26T08:50:45Z</time>
      </trkpt>
      <trkpt lat="45.9228250" lon="5.6273690">
        <ele>929.9</ele>
        <time>2022-07-26T08:50:46Z</time>
      </trkpt>
      <trkpt lat="45.9227770" lon="5.6273700">
        <ele>929.7</ele>
        <time>2022-07-26T08:50:47Z</time>
      </trkpt>
      <trkpt lat="45.9227170" lon="5.6273400">
        <ele>929.4</ele>
        <time>2022-07-26T08:50:48Z</time>
      </trkpt>
      <trkpt lat="45.9226600" lon="5.6273170">
        <ele>929.1</ele>
        <time>2022-07-26T08:50:49Z</time>
      </trkpt>
      <trkpt lat="45.9226000" lon="5.6273070">
        <ele>928.8</ele>
        <time>2022-07-26T08:50:50Z</time>
      </trkpt>
      <trkpt lat="45.9225400" lon="5.6273040">
        <ele>928.5</ele>
        <time>2022-07-26T08:50:51Z</time>
      </trkpt>
      <trkpt lat="45.9224760" lon="5.6272840">
        <ele>928.1</ele>
        <time>2022-07-26T08:50:52Z</time>
      </trkpt>
      <trkpt lat="45.9224130" lon="5.6272720">
        <ele>927.7</ele>
        <time>2022-07-26T08:50:53Z</time>
      </trkpt>
      <trkpt lat="45.9223550" lon="5.6272640">
        <ele>927.4</ele>
        <time>2022-07-26T08:50:54Z</time>
      </trkpt>
      <trkpt lat="45.9223200" lon="5.6272780">
        <ele>927.2</ele>
        <time>2022-07-26T08:50:55Z</time>
      </trkpt>
      <trkpt lat="45.9223100" lon="5.6273200">
        <ele>927.1</ele>
        <time>2022-07-26T08:50:56Z</time>
      </trkpt>
      <trkpt lat="45.9222480" lon="5.6272690">
        <ele>926.8</ele>
        <time>2022-07-26T08:50:57Z</time>
      </trkpt>
      <trkpt lat="45.9221810" lon="5.6272800">
        <ele>926.5</ele>
        <time>2022-07-26T08:50:58Z</time>
      </trkpt>
      <trkpt lat="45.9221010" lon="5.6272900">
        <ele>926.1</ele>
        <time>2022-07-26T08:50:59Z</time>
      </trkpt>
      <trkpt lat="45.9220320" lon="5.6272930">
        <ele>925.8</ele>
        <time>2022-07-26T08:51:00Z</time>
      </trkpt>
      <trkpt lat="45.9219590" lon="5.6272990">
        <ele>925.3</ele>
        <time>2022-07-26T08:51:01Z</time>
      </trkpt>
      <trkpt lat="45.9218980" lon="5.6272930">
        <ele>924.9</ele>
        <time>2022-07-26T08:51:02Z</time>
      </trkpt>
      <trkpt lat="45.9218480" lon="5.6272790">
        <ele>924.6</ele>
        <time>2022-07-26T08:51:03Z</time>
      </trkpt>
      <trkpt lat="45.9218000" lon="5.6272690">
        <ele>924.2</ele>
        <time>2022-07-26T08:51:04Z</time>
      </trkpt>
      <trkpt lat="45.9217600" lon="5.6272730">
        <ele>923.9</ele>
        <time>2022-07-26T08:51:05Z</time>
      </trkpt>
      <trkpt lat="45.9217150" lon="5.6272710">
        <ele>923.6</ele>
        <time>2022-07-26T08:51:06Z</time>
      </trkpt>
      <trkpt lat="45.9215800" lon="5.6272350">
        <ele>922.5</ele>
        <time>2022-07-26T08:51:08Z</time>
      </trkpt>
      <trkpt lat="45.9215150" lon="5.6272230">
        <ele>921.8</ele>
        <time>2022-07-26T08:51:09Z</time>
      </trkpt>
      <trkpt lat="45.9214680" lon="5.6272360">
        <ele>921.2</ele>
        <time>2022-07-26T08:51:10Z</time>
      </trkpt>
      <trkpt lat="45.9213970" lon="5.6272280">
        <ele>919.9</ele>
        <time>2022-07-26T08:51:11Z</time>
      </trkpt>
      <trkpt lat="45.9213560" lon="5.6272380">
        <ele>919.1</ele>
        <time>2022-07-26T08:51:12Z</time>
      </trkpt>
      <trkpt lat="45.9213180" lon="5.6272550">
        <ele>918.5</ele>
        <time>2022-07-26T08:51:13Z</time>
      </trkpt>
      <trkpt lat="45.9212360" lon="5.6272500">
        <ele>917.7</ele>
        <time>2022-07-26T08:51:14Z</time>
      </trkpt>
      <trkpt lat="45.9211700" lon="5.6272520">
        <ele>917.3</ele>
        <time>2022-07-26T08:51:15Z</time>
      </trkpt>
      <trkpt lat="45.9211040" lon="5.6272580">
        <ele>917.1</ele>
        <time>2022-07-26T08:51:16Z</time>
      </trkpt>
      <trkpt lat="45.9210270" lon="5.6272550">
        <ele>916.6</ele>
        <time>2022-07-26T08:51:17Z</time>
      </trkpt>
      <trkpt lat="45.9209700" lon="5.6272600">
        <ele>916.3</ele>
        <time>2022-07-26T08:51:18Z</time>
      </trkpt>
      <trkpt lat="45.9209100" lon="5.6272470">
        <ele>915.8</ele>
        <time>2022-07-26T08:51:19Z</time>
      </trkpt>
      <trkpt lat="45.9208580" lon="5.6272370">
        <ele>915.4</ele>
        <time>2022-07-26T08:51:20Z</time>
      </trkpt>
      <trkpt lat="45.9208100" lon="5.6272340">
        <ele>915.0</ele>
        <time>2022-07-26T08:51:21Z</time>
      </trkpt>
      <trkpt lat="45.9207740" lon="5.6272410">
        <ele>914.7</ele>
        <time>2022-07-26T08:51:22Z</time>
      </trkpt>
      <trkpt lat="45.9207310" lon="5.6272500">
        <ele>914.3</ele>
        <time>2022-07-26T08:51:23Z</time>
      </trkpt>
      <trkpt lat="45.9206730" lon="5.6272550">
        <ele>913.8</ele>
        <time>2022-07-26T08:51:24Z</time>
      </trkpt>
      <trkpt lat="45.9206220" lon="5.6272500">
        <ele>913.3</ele>
        <time>2022-07-26T08:51:25Z</time>
      </trkpt>
      <trkpt lat="45.9205440" lon="5.6272320">
        <ele>912.6</ele>
        <time>2022-07-26T08:51:26Z</time>
      </trkpt>
      <trkpt lat="45.9204900" lon="5.6272200">
        <ele>912.1</ele>
        <time>2022-07-26T08:51:27Z</time>
      </trkpt>
      <trkpt lat="45.9204120" lon="5.6272170">
        <ele>911.3</ele>
        <time>2022-07-26T08:51:28Z</time>
      </trkpt>
      <trkpt lat="45.9203450" lon="5.6272230">
        <ele>910.5</ele>
        <time>2022-07-26T08:51:29Z</time>
      </trkpt>
      <trkpt lat="45.9202700" lon="5.6272320">
        <ele>909.5</ele>
        <time>2022-07-26T08:51:30Z</time>
      </trkpt>
      <trkpt lat="45.9201630" lon="5.6272320">
        <ele>908.3</ele>
        <time>2022-07-26T08:51:31Z</time>
      </trkpt>
      <trkpt lat="45.9200670" lon="5.6272450">
        <ele>907.3</ele>
        <time>2022-07-26T08:51:32Z</time>
      </trkpt>
      <trkpt lat="45.9199860" lon="5.6272550">
        <ele>906.4</ele>
        <time>2022-07-26T08:51:33Z</time>
      </trkpt>
      <trkpt lat="45.9199080" lon="5.6272630">
        <ele>905.5</ele>
        <time>2022-07-26T08:51:34Z</time>
      </trkpt>
      <trkpt lat="45.9198310" lon="5.6272710">
        <ele>904.6</ele>
        <time>2022-07-26T08:51:35Z</time>
      </trkpt>
      <trkpt lat="45.9197570" lon="5.6272760">
        <ele>903.7</ele>
        <time>2022-07-26T08:51:36Z</time>
      </trkpt>
      <trkpt lat="45.9197090" lon="5.6272810">
        <ele>903.2</ele>
        <time>2022-07-26T08:51:37Z</time>
      </trkpt>
      <trkpt lat="45.9196660" lon="5.6272800">
        <ele>902.7</ele>
        <time>2022-07-26T08:51:38Z</time>
      </trkpt>
      <trkpt lat="45.9196110" lon="5.6272810">
        <ele>902.1</ele>
        <time>2022-07-26T08:51:39Z</time>
      </trkpt>
      <trkpt lat="45.9195390" lon="5.6272750">
        <ele>901.3</ele>
        <time>2022-07-26T08:51:40Z</time>
      </trkpt>
      <trkpt lat="45.9194670" lon="5.6272750">
        <ele>900.5</ele>
        <time>2022-07-26T08:51:41Z</time>
      </trkpt>
      <trkpt lat="45.9194000" lon="5.6272670">
        <ele>899.6</ele>
        <time>2022-07-26T08:51:42Z</time>
      </trkpt>
      <trkpt lat="45.9193300" lon="5.6272620">
        <ele>898.6</ele>
        <time>2022-07-26T08:51:43Z</time>
      </trkpt>
      <trkpt lat="45.9192590" lon="5.6272600">
        <ele>897.6</ele>
        <time>2022-07-26T08:51:44Z</time>
      </trkpt>
      <trkpt lat="45.9192030" lon="5.6272610">
        <ele>896.8</ele>
        <time>2022-07-26T08:51:45Z</time>
      </trkpt>
      <trkpt lat="45.9191550" lon="5.6272570">
        <ele>896.1</ele>
        <time>2022-07-26T08:51:46Z</time>
      </trkpt>
      <trkpt lat="45.9190820" lon="5.6272490">
        <ele>895.1</ele>
        <time>2022-07-26T08:51:47Z</time>
      </trkpt>
      <trkpt lat="45.9189970" lon="5.6272530">
        <ele>894.0</ele>
        <time>2022-07-26T08:51:48Z</time>
      </trkpt>
      <trkpt lat="45.9189040" lon="5.6272570">
        <ele>892.8</ele>
        <time>2022-07-26T08:51:49Z</time>
      </trkpt>
      <trkpt lat="45.9188160" lon="5.6272690">
        <ele>891.8</ele>
        <time>2022-07-26T08:51:50Z</time>
      </trkpt>
      <trkpt lat="45.9187390" lon="5.6272820">
        <ele>890.7</ele>
        <time>2022-07-26T08:51:51Z</time>
      </trkpt>
      <trkpt lat="45.9186630" lon="5.6272970">
        <ele>889.6</ele>
        <time>2022-07-26T08:51:52Z</time>
      </trkpt>
      <trkpt lat="45.9185920" lon="5.6273000">
        <ele>888.7</ele>
        <time>2022-07-26T08:51:53Z</time>
      </trkpt>
      <trkpt lat="45.9185100" lon="5.6272990">
        <ele>887.9</ele>
        <time>2022-07-26T08:51:54Z</time>
      </trkpt>
      <trkpt lat="45.9184420" lon="5.6273010">
        <ele>887.3</ele>
        <time>2022-07-26T08:51:55Z</time>
      </trkpt>
      <trkpt lat="45.9183580" lon="5.6272940">
        <ele>886.5</ele>
        <time>2022-07-26T08:51:56Z</time>
      </trkpt>
      <trkpt lat="45.9182800" lon="5.6273000">
        <ele>885.8</ele>
        <time>2022-07-26T08:51:57Z</time>
      </trkpt>
      <trkpt lat="45.9182030" lon="5.6273070">
        <ele>885.0</ele>
        <time>2022-07-26T08:51:58Z</time>
      </trkpt>
      <trkpt lat="45.9181250" lon="5.6273090">
        <ele>884.3</ele>
        <time>2022-07-26T08:51:59Z</time>
      </trkpt>
      <trkpt lat="45.9180460" lon="5.6273030">
        <ele>883.6</ele>
        <time>2022-07-26T08:52:00Z</time>
      </trkpt>
      <trkpt lat="45.9179580" lon="5.6272960">
        <ele>882.8</ele>
        <time>2022-07-26T08:52:01Z</time>
      </trkpt>
      <trkpt lat="45.9178850" lon="5.6272970">
        <ele>882.0</ele>
        <time>2022-07-26T08:52:02Z</time>
      </trkpt>
      <trkpt lat="45.9178110" lon="5.6272990">
        <ele>881.3</ele>
        <time>2022-07-26T08:52:03Z</time>
      </trkpt>
      <trkpt lat="45.9177220" lon="5.6273000">
        <ele>880.3</ele>
        <time>2022-07-26T08:52:04Z</time>
      </trkpt>
      <trkpt lat="45.9176360" lon="5.6272830">
        <ele>879.4</ele>
        <time>2022-07-26T08:52:05Z</time>
      </trkpt>
      <trkpt lat="45.9175530" lon="5.6272680">
        <ele>878.5</ele>
        <time>2022-07-26T08:52:06Z</time>
      </trkpt>
      <trkpt lat="45.9174670" lon="5.6272540">
        <ele>877.6</ele>
        <time>2022-07-26T08:52:07Z</time>
      </trkpt>
      <trkpt lat="45.9173880" lon="5.6272340">
        <ele>876.8</ele>
        <time>2022-07-26T08:52:08Z</time>
      </trkpt>
      <trkpt lat="45.9173100" lon="5.6272130">
        <ele>876.0</ele>
        <time>2022-07-26T08:52:09Z</time>
      </trkpt>
      <trkpt lat="45.9172270" lon="5.6271900">
        <ele>875.3</ele>
        <time>2022-07-26T08:52:10Z</time>
      </trkpt>
      <trkpt lat="45.9171450" lon="5.6271710">
        <ele>874.6</ele>
        <time>2022-07-26T08:52:11Z</time>
      </trkpt>
      <trkpt lat="45.9170670" lon="5.6271510">
        <ele>873.9</ele>
        <time>2022-07-26T08:52:12Z</time>
      </trkpt>
      <trkpt lat="45.9169850" lon="5.6271270">
        <ele>873.1</ele>
        <time>2022-07-26T08:52:13Z</time>
      </trkpt>
      <trkpt lat="45.9169040" lon="5.6271080">
        <ele>872.4</ele>
        <time>2022-07-26T08:52:14Z</time>
      </trkpt>
      <trkpt lat="45.9168210" lon="5.6270800">
        <ele>871.7</ele>
        <time>2022-07-26T08:52:15Z</time>
      </trkpt>
      <trkpt lat="45.9167390" lon="5.6270480">
        <ele>871.2</ele>
        <time>2022-07-26T08:52:16Z</time>
      </trkpt>
      <trkpt lat="45.9166520" lon="5.6270210">
        <ele>870.8</ele>
        <time>2022-07-26T08:52:17Z</time>
      </trkpt>
      <trkpt lat="45.9165650" lon="5.6269920">
        <ele>870.6</ele>
        <time>2022-07-26T08:52:18Z</time>
      </trkpt>
      <trkpt lat="45.9164830" lon="5.6269590">
        <ele>870.5</ele>
        <time>2022-07-26T08:52:19Z</time>
      </trkpt>
      <trkpt lat="45.9164070" lon="5.6269320">
        <ele>870.5</ele>
        <time>2022-07-26T08:52:20Z</time>
      </trkpt>
      <trkpt lat="45.9163350" lon="5.6269000">
        <ele>870.6</ele>
        <time>2022-07-26T08:52:21Z</time>
      </trkpt>
      <trkpt lat="45.9162640" lon="5.6268730">
        <ele>870.8</ele>
        <time>2022-07-26T08:52:22Z</time>
      </trkpt>
      <trkpt lat="45.9161990" lon="5.6268460">
        <ele>870.8</ele>
        <time>2022-07-26T08:52:23Z</time>
      </trkpt>
      <trkpt lat="45.9161430" lon="5.6268130">
        <ele>870.8</ele>
        <time>2022-07-26T08:52:24Z</time>
      </trkpt>
      <trkpt lat="45.9160900" lon="5.6267680">
        <ele>870.7</ele>
        <time>2022-07-26T08:52:25Z</time>
      </trkpt>
      <trkpt lat="45.9160490" lon="5.6267130">
        <ele>870.7</ele>
        <time>2022-07-26T08:52:26Z</time>
      </trkpt>
      <trkpt lat="45.9159980" lon="5.6266640">
        <ele>870.6</ele>
        <time>2022-07-26T08:52:27Z</time>
      </trkpt>
      <trkpt lat="45.9159500" lon="5.6266250">
        <ele>870.6</ele>
        <time>2022-07-26T08:52:28Z</time>
      </trkpt>
      <trkpt lat="45.9159080" lon="5.6265950">
        <ele>870.5</ele>
        <time>2022-07-26T08:52:29Z</time>
      </trkpt>
      <trkpt lat="45.9158710" lon="5.6265640">
        <ele>870.4</ele>
        <time>2022-07-26T08:52:30Z</time>
      </trkpt>
      <trkpt lat="45.9158370" lon="5.6265450">
        <ele>870.3</ele>
        <time>2022-07-26T08:52:31Z</time>
      </trkpt>
      <trkpt lat="45.9158200" lon="5.6265340">
        <ele>870.3</ele>
        <time>2022-07-26T08:52:32Z</time>
      </trkpt>
      <trkpt lat="45.9157900" lon="5.6265240">
        <ele>870.1</ele>
        <time>2022-07-26T08:52:33Z</time>
      </trkpt>
      <trkpt lat="45.9157530" lon="5.6265200">
        <ele>869.9</ele>
        <time>2022-07-26T08:52:34Z</time>
      </trkpt>
      <trkpt lat="45.9157390" lon="5.6265120">
        <ele>869.9</ele>
        <time>2022-07-26T08:52:35Z</time>
      </trkpt>
      <trkpt lat="45.9157070" lon="5.6264860">
        <ele>869.7</ele>
        <time>2022-07-26T08:52:36Z</time>
      </trkpt>
      <trkpt lat="45.9156960" lon="5.6264820">
        <ele>869.6</ele>
        <time>2022-07-26T08:52:37Z</time>
      </trkpt>
      <trkpt lat="45.9156630" lon="5.6264820">
        <ele>869.3</ele>
        <time>2022-07-26T08:52:38Z</time>
      </trkpt>
      <trkpt lat="45.9156520" lon="5.6264820">
        <ele>869.3</ele>
        <time>2022-07-26T08:52:39Z</time>
      </trkpt>
      <trkpt lat="45.9156400" lon="5.6264830">
        <ele>869.2</ele>
        <time>2022-07-26T08:52:40Z</time>
      </trkpt>
      <trkpt lat="45.9156310" lon="5.6264820">
        <ele>869.1</ele>
        <time>2022-07-26T08:52:41Z</time>
      </trkpt>
      <trkpt lat="45.9156230" lon="5.6264810">
        <ele>869.1</ele>
        <time>2022-07-26T08:52:42Z</time>
      </trkpt>
      <trkpt lat="45.9156070" lon="5.6264820">
        <ele>868.9</ele>
        <time>2022-07-26T08:52:43Z</time>
      </trkpt>
      <trkpt lat="45.9155990" lon="5.6264840">
        <ele>868.9</ele>
        <time>2022-07-26T08:52:44Z</time>
      </trkpt>
      <trkpt lat="45.9155910" lon="5.6264850">
        <ele>868.8</ele>
        <time>2022-07-26T08:52:45Z</time>
      </trkpt>
      <trkpt lat="45.9155830" lon="5.6264870">
        <ele>868.8</ele>
        <time>2022-07-26T08:52:46Z</time>
      </trkpt>
      <trkpt lat="45.9155660" lon="5.6264890">
        <ele>868.6</ele>
        <time>2022-07-26T08:52:47Z</time>
      </trkpt>
      <trkpt lat="45.9155550" lon="5.6264910">
        <ele>868.6</ele>
        <time>2022-07-26T08:52:48Z</time>
      </trkpt>
      <trkpt lat="45.9155520" lon="5.6264940">
        <ele>868.5</ele>
        <time>2022-07-26T08:52:49Z</time>
      </trkpt>
      <trkpt lat="45.9155520" lon="5.6264970">
        <ele>868.5</ele>
        <time>2022-07-26T08:52:50Z</time>
      </trkpt>
      <trkpt lat="45.9155530" lon="5.6265000">
        <ele>868.5</ele>
        <time>2022-07-26T08:52:51Z</time>
      </trkpt>
      <trkpt lat="45.9155540" lon="5.6265010">
        <ele>868.5</ele>
        <time>2022-07-26T08:52:52Z</time>
      </trkpt>
      <trkpt lat="45.9155540" lon="5.6265010">
        <ele>868.5</ele>
        <time>2022-07-26T08:52:53Z</time>
      </trkpt>
      <trkpt lat="45.9155530" lon="5.6265000">
        <ele>868.5</ele>
        <time>2022-07-26T08:52:54Z</time>
      </trkpt>
      <trkpt lat="45.9155490" lon="5.6264950">
        <ele>868.4</ele>
        <time>2022-07-26T08:52:55Z</time>
      </trkpt>
      <trkpt lat="45.9155470" lon="5.6264930">
        <ele>868.4</ele>
        <time>2022-07-26T08:52:56Z</time>
      </trkpt>
      <trkpt lat="45.9155460" lon="5.6264940">
        <ele>868.4</ele>
        <time>2022-07-26T08:52:57Z</time>
      </trkpt>
      <trkpt lat="45.9155440" lon="5.6264940">
        <ele>868.4</ele>
        <time>2022-07-26T08:52:58Z</time>
      </trkpt>
      <trkpt lat="45.9155420" lon="5.6264950">
        <ele>868.4</ele>
        <time>2022-07-26T08:52:59Z</time>
      </trkpt>
      <trkpt lat="45.9155420" lon="5.6264960">
        <ele>868.4</ele>
        <time>2022-07-26T08:53:00Z</time>
      </trkpt>
      <trkpt lat="45.9155410" lon="5.6264950">
        <ele>868.4</ele>
        <time>2022-07-26T08:53:01Z</time>
      </trkpt>
      <trkpt lat="45.9155410" lon="5.6264950">
        <ele>868.4</ele>
        <time>2022-07-26T08:53:02Z</time>
      </trkpt>
      <trkpt lat="45.9155410" lon="5.6264940">
        <ele>868.4</ele>
        <time>2022-07-26T08:53:03Z</time>
      </trkpt>
      <trkpt lat="45.9155410" lon="5.6264940">
        <ele>868.4</ele>
        <time>2022-07-26T08:53:04Z</time>
      </trkpt>
      <trkpt lat="45.9155410" lon="5.6264940">
        <ele>868.4</ele>
        <time>2022-07-26T08:53:05Z</time>
      </trkpt>
      <trkpt lat="45.9155410" lon="5.6264940">
        <ele>868.4</ele>
        <time>2022-07-26T08:53:06Z</time>
      </trkpt>
      <trkpt lat="45.9155280" lon="5.6265060">
        <ele>868.3</ele>
        <time>2022-07-26T08:53:17Z</time>
      </trkpt>
      <trkpt lat="45.9155150" lon="5.6265090">
        <ele>868.2</ele>
        <time>2022-07-26T08:53:18Z</time>
      </trkpt>
      <trkpt lat="45.9154950" lon="5.6265100">
        <ele>868.1</ele>
        <time>2022-07-26T08:53:19Z</time>
      </trkpt>
      <trkpt lat="45.9154630" lon="5.6265100">
        <ele>868.0</ele>
        <time>2022-07-26T08:53:20Z</time>
      </trkpt>
      <trkpt lat="45.9154490" lon="5.6265100">
        <ele>867.9</ele>
        <time>2022-07-26T08:53:21Z</time>
      </trkpt>
      <trkpt lat="45.9154180" lon="5.6265030">
        <ele>867.8</ele>
        <time>2022-07-26T08:53:22Z</time>
      </trkpt>
      <trkpt lat="45.9154060" lon="5.6265000">
        <ele>867.7</ele>
        <time>2022-07-26T08:53:23Z</time>
      </trkpt>
      <trkpt lat="45.9153680" lon="5.6264820">
        <ele>867.6</ele>
        <time>2022-07-26T08:53:24Z</time>
      </trkpt>
      <trkpt lat="45.9153540" lon="5.6264760">
        <ele>867.6</ele>
        <time>2022-07-26T08:53:25Z</time>
      </trkpt>
      <trkpt lat="45.9153130" lon="5.6264680">
        <ele>867.4</ele>
        <time>2022-07-26T08:53:26Z</time>
      </trkpt>
      <trkpt lat="45.9152980" lon="5.6264660">
        <ele>867.4</ele>
        <time>2022-07-26T08:53:27Z</time>
      </trkpt>
      <trkpt lat="45.9152620" lon="5.6264580">
        <ele>867.2</ele>
        <time>2022-07-26T08:53:28Z</time>
      </trkpt>
      <trkpt lat="45.9152280" lon="5.6264470">
        <ele>867.1</ele>
        <time>2022-07-26T08:53:29Z</time>
      </trkpt>
      <trkpt lat="45.9151960" lon="5.6264380">
        <ele>867.0</ele>
        <time>2022-07-26T08:53:30Z</time>
      </trkpt>
      <trkpt lat="45.9151600" lon="5.6264250">
        <ele>866.8</ele>
        <time>2022-07-26T08:53:31Z</time>
      </trkpt>
      <trkpt lat="45.9151190" lon="5.6264050">
        <ele>866.6</ele>
        <time>2022-07-26T08:53:32Z</time>
      </trkpt>
      <trkpt lat="45.9150840" lon="5.6263840">
        <ele>866.4</ele>
        <time>2022-07-26T08:53:33Z</time>
      </trkpt>
      <trkpt lat="45.9150400" lon="5.6263570">
        <ele>866.1</ele>
        <time>2022-07-26T08:53:34Z</time>
      </trkpt>
      <trkpt lat="45.9149980" lon="5.6263270">
        <ele>865.9</ele>
        <time>2022-07-26T08:53:35Z</time>
      </trkpt>
      <trkpt lat="45.9149500" lon="5.6262790">
        <ele>865.6</ele>
        <time>2022-07-26T08:53:36Z</time>
      </trkpt>
      <trkpt lat="45.9148930" lon="5.6262490">
        <ele>865.3</ele>
        <time>2022-07-26T08:53:37Z</time>
      </trkpt>
      <trkpt lat="45.9148270" lon="5.6262460">
        <ele>865.1</ele>
        <time>2022-07-26T08:53:38Z</time>
      </trkpt>
      <trkpt lat="45.9147610" lon="5.6262560">
        <ele>865.0</ele>
        <time>2022-07-26T08:53:39Z</time>
      </trkpt>
      <trkpt lat="45.9147020" lon="5.6262680">
        <ele>865.1</ele>
        <time>2022-07-26T08:53:40Z</time>
      </trkpt>
      <trkpt lat="45.9146540" lon="5.6262820">
        <ele>865.1</ele>
        <time>2022-07-26T08:53:41Z</time>
      </trkpt>
      <trkpt lat="45.9146240" lon="5.6263070">
        <ele>865.2</ele>
        <time>2022-07-26T08:53:42Z</time>
      </trkpt>
      <trkpt lat="45.9145790" lon="5.6263310">
        <ele>865.3</ele>
        <time>2022-07-26T08:53:43Z</time>
      </trkpt>
      <trkpt lat="45.9145480" lon="5.6263420">
        <ele>865.4</ele>
        <time>2022-07-26T08:53:44Z</time>
      </trkpt>
      <trkpt lat="45.9145070" lon="5.6263520">
        <ele>865.4</ele>
        <time>2022-07-26T08:53:45Z</time>
      </trkpt>
      <trkpt lat="45.9144780" lon="5.6263660">
        <ele>865.5</ele>
        <time>2022-07-26T08:53:46Z</time>
      </trkpt>
      <trkpt lat="45.9144480" lon="5.6263790">
        <ele>865.5</ele>
        <time>2022-07-26T08:53:47Z</time>
      </trkpt>
      <trkpt lat="45.9144120" lon="5.6263890">
        <ele>865.5</ele>
        <time>2022-07-26T08:53:48Z</time>
      </trkpt>
      <trkpt lat="45.9143830" lon="5.6264020">
        <ele>865.5</ele>
        <time>2022-07-26T08:53:49Z</time>
      </trkpt>
      <trkpt lat="45.9143480" lon="5.6264130">
        <ele>865.5</ele>
        <time>2022-07-26T08:53:50Z</time>
      </trkpt>
      <trkpt lat="45.9143170" lon="5.6264320">
        <ele>865.5</ele>
        <time>2022-07-26T08:53:51Z</time>
      </trkpt>
      <trkpt lat="45.9142820" lon="5.6264510">
        <ele>865.5</ele>
        <time>2022-07-26T08:53:52Z</time>
      </trkpt>
      <trkpt lat="45.9142380" lon="5.6264600">
        <ele>865.5</ele>
        <time>2022-07-26T08:53:53Z</time>
      </trkpt>
      <trkpt lat="45.9142020" lon="5.6264620">
        <ele>865.5</ele>
        <time>2022-07-26T08:53:54Z</time>
      </trkpt>
      <trkpt lat="45.9141550" lon="5.6264660">
        <ele>865.5</ele>
        <time>2022-07-26T08:53:55Z</time>
      </trkpt>
      <trkpt lat="45.9141140" lon="5.6264670">
        <ele>865.5</ele>
        <time>2022-07-26T08:53:56Z</time>
      </trkpt>
      <trkpt lat="45.9140780" lon="5.6264680">
        <ele>865.5</ele>
        <time>2022-07-26T08:53:57Z</time>
      </trkpt>
      <trkpt lat="45.9140370" lon="5.6264630">
        <ele>865.5</ele>
        <time>2022-07-26T08:53:58Z</time>
      </trkpt>
      <trkpt lat="45.9139990" lon="5.6264540">
        <ele>865.5</ele>
        <time>2022-07-26T08:53:59Z</time>
      </trkpt>
      <trkpt lat="45.9139680" lon="5.6264460">
        <ele>865.5</ele>
        <time>2022-07-26T08:54:00Z</time>
      </trkpt>
      <trkpt lat="45.9139340" lon="5.6264360">
        <ele>865.5</ele>
        <time>2022-07-26T08:54:01Z</time>
      </trkpt>
      <trkpt lat="45.9138940" lon="5.6264270">
        <ele>865.4</ele>
        <time>2022-07-26T08:54:02Z</time>
      </trkpt>
      <trkpt lat="45.9138590" lon="5.6264200">
        <ele>865.4</ele>
        <time>2022-07-26T08:54:03Z</time>
      </trkpt>
      <trkpt lat="45.9138210" lon="5.6264110">
        <ele>865.3</ele>
        <time>2022-07-26T08:54:04Z</time>
      </trkpt>
      <trkpt lat="45.9137800" lon="5.6263950">
        <ele>865.2</ele>
        <time>2022-07-26T08:54:05Z</time>
      </trkpt>
      <trkpt lat="45.9137420" lon="5.6263780">
        <ele>865.1</ele>
        <time>2022-07-26T08:54:06Z</time>
      </trkpt>
      <trkpt lat="45.9137040" lon="5.6263590">
        <ele>864.9</ele>
        <time>2022-07-26T08:54:07Z</time>
      </trkpt>
      <trkpt lat="45.9136500" lon="5.6263260">
        <ele>864.7</ele>
        <time>2022-07-26T08:54:08Z</time>
      </trkpt>
      <trkpt lat="45.9135730" lon="5.6262130">
        <ele>864.2</ele>
        <time>2022-07-26T08:54:10Z</time>
      </trkpt>
      <trkpt lat="45.9135230" lon="5.6261580">
        <ele>863.9</ele>
        <time>2022-07-26T08:54:11Z</time>
      </trkpt>
      <trkpt lat="45.9134700" lon="5.6261070">
        <ele>863.6</ele>
        <time>2022-07-26T08:54:12Z</time>
      </trkpt>
      <trkpt lat="45.9134260" lon="5.6260560">
        <ele>863.4</ele>
        <time>2022-07-26T08:54:13Z</time>
      </trkpt>
      <trkpt lat="45.9133770" lon="5.6260140">
        <ele>863.3</ele>
        <time>2022-07-26T08:54:14Z</time>
      </trkpt>
      <trkpt lat="45.9133210" lon="5.6259800">
        <ele>863.2</ele>
        <time>2022-07-26T08:54:15Z</time>
      </trkpt>
      <trkpt lat="45.9132650" lon="5.6259670">
        <ele>863.2</ele>
        <time>2022-07-26T08:54:16Z</time>
      </trkpt>
      <trkpt lat="45.9132050" lon="5.6259500">
        <ele>863.2</ele>
        <time>2022-07-26T08:54:17Z</time>
      </trkpt>
      <trkpt lat="45.9131530" lon="5.6259300">
        <ele>863.2</ele>
        <time>2022-07-26T08:54:18Z</time>
      </trkpt>
      <trkpt lat="45.9131080" lon="5.6259130">
        <ele>863.2</ele>
        <time>2022-07-26T08:54:19Z</time>
      </trkpt>
      <trkpt lat="45.9130510" lon="5.6259650">
        <ele>863.2</ele>
        <time>2022-07-26T08:54:21Z</time>
      </trkpt>
      <trkpt lat="45.9130120" lon="5.6259440">
        <ele>863.1</ele>
        <time>2022-07-26T08:54:22Z</time>
      </trkpt>
      <trkpt lat="45.9129750" lon="5.6259080">
        <ele>863.1</ele>
        <time>2022-07-26T08:54:23Z</time>
      </trkpt>
      <trkpt lat="45.9129370" lon="5.6258770">
        <ele>862.9</ele>
        <time>2022-07-26T08:54:24Z</time>
      </trkpt>
      <trkpt lat="45.9129000" lon="5.6258560">
        <ele>862.8</ele>
        <time>2022-07-26T08:54:25Z</time>
      </trkpt>
      <trkpt lat="45.9128490" lon="5.6258250">
        <ele>862.6</ele>
        <time>2022-07-26T08:54:26Z</time>
      </trkpt>
      <trkpt lat="45.9128000" lon="5.6258030">
        <ele>862.4</ele>
        <time>2022-07-26T08:54:27Z</time>
      </trkpt>
      <trkpt lat="45.9127520" lon="5.6257850">
        <ele>862.2</ele>
        <time>2022-07-26T08:54:28Z</time>
      </trkpt>
      <trkpt lat="45.9127050" lon="5.6257620">
        <ele>862.0</ele>
        <time>2022-07-26T08:54:29Z</time>
      </trkpt>
      <trkpt lat="45.9126590" lon="5.6257460">
        <ele>861.8</ele>
        <time>2022-07-26T08:54:30Z</time>
      </trkpt>
      <trkpt lat="45.9126280" lon="5.6257270">
        <ele>861.7</ele>
        <time>2022-07-26T08:54:31Z</time>
      </trkpt>
      <trkpt lat="45.9125750" lon="5.6256790">
        <ele>861.3</ele>
        <time>2022-07-26T08:54:33Z</time>
      </trkpt>
      <trkpt lat="45.9125320" lon="5.6256630">
        <ele>861.0</ele>
        <time>2022-07-26T08:54:34Z</time>
      </trkpt>
      <trkpt lat="45.9124600" lon="5.6256620">
        <ele>860.5</ele>
        <time>2022-07-26T08:54:35Z</time>
      </trkpt>
      <trkpt lat="45.9123970" lon="5.6256520">
        <ele>859.9</ele>
        <time>2022-07-26T08:54:36Z</time>
      </trkpt>
      <trkpt lat="45.9123330" lon="5.6256390">
        <ele>859.3</ele>
        <time>2022-07-26T08:54:37Z</time>
      </trkpt>
      <trkpt lat="45.9122680" lon="5.6256540">
        <ele>858.7</ele>
        <time>2022-07-26T08:54:38Z</time>
      </trkpt>
      <trkpt lat="45.9122020" lon="5.6256930">
        <ele>858.0</ele>
        <time>2022-07-26T08:54:39Z</time>
      </trkpt>
      <trkpt lat="45.9121450" lon="5.6257520">
        <ele>857.3</ele>
        <time>2022-07-26T08:54:40Z</time>
      </trkpt>
      <trkpt lat="45.9120890" lon="5.6258300">
        <ele>856.5</ele>
        <time>2022-07-26T08:54:41Z</time>
      </trkpt>
      <trkpt lat="45.9120380" lon="5.6259110">
        <ele>855.8</ele>
        <time>2022-07-26T08:54:42Z</time>
      </trkpt>
      <trkpt lat="45.9119820" lon="5.6259860">
        <ele>855.2</ele>
        <time>2022-07-26T08:54:43Z</time>
      </trkpt>
      <trkpt lat="45.9119250" lon="5.6260540">
        <ele>854.6</ele>
        <time>2022-07-26T08:54:44Z</time>
      </trkpt>
      <trkpt lat="45.9118400" lon="5.6260900">
        <ele>854.1</ele>
        <time>2022-07-26T08:54:45Z</time>
      </trkpt>
      <trkpt lat="45.9117510" lon="5.6261210">
        <ele>853.6</ele>
        <time>2022-07-26T08:54:46Z</time>
      </trkpt>
      <trkpt lat="45.9116700" lon="5.6261460">
        <ele>853.2</ele>
        <time>2022-07-26T08:54:47Z</time>
      </trkpt>
      <trkpt lat="45.9115980" lon="5.6261740">
        <ele>852.9</ele>
        <time>2022-07-26T08:54:48Z</time>
      </trkpt>
      <trkpt lat="45.9115240" lon="5.6261810">
        <ele>852.5</ele>
        <time>2022-07-26T08:54:49Z</time>
      </trkpt>
      <trkpt lat="45.9114510" lon="5.6261630">
        <ele>852.1</ele>
        <time>2022-07-26T08:54:50Z</time>
      </trkpt>
      <trkpt lat="45.9113740" lon="5.6261340">
        <ele>851.8</ele>
        <time>2022-07-26T08:54:51Z</time>
      </trkpt>
      <trkpt lat="45.9112990" lon="5.6261010">
        <ele>851.4</ele>
        <time>2022-07-26T08:54:52Z</time>
      </trkpt>
      <trkpt lat="45.9112240" lon="5.6260720">
        <ele>851.1</ele>
        <time>2022-07-26T08:54:53Z</time>
      </trkpt>
      <trkpt lat="45.9111460" lon="5.6260460">
        <ele>850.7</ele>
        <time>2022-07-26T08:54:54Z</time>
      </trkpt>
      <trkpt lat="45.9110680" lon="5.6260210">
        <ele>850.3</ele>
        <time>2022-07-26T08:54:55Z</time>
      </trkpt>
      <trkpt lat="45.9110010" lon="5.6260030">
        <ele>850.0</ele>
        <time>2022-07-26T08:54:56Z</time>
      </trkpt>
      <trkpt lat="45.9109360" lon="5.6259870">
        <ele>849.6</ele>
        <time>2022-07-26T08:54:57Z</time>
      </trkpt>
      <trkpt lat="45.9108690" lon="5.6259660">
        <ele>849.2</ele>
        <time>2022-07-26T08:54:58Z</time>
      </trkpt>
      <trkpt lat="45.9107920" lon="5.6259570">
        <ele>848.9</ele>
        <time>2022-07-26T08:54:59Z</time>
      </trkpt>
      <trkpt lat="45.9107190" lon="5.6259730">
        <ele>848.6</ele>
        <time>2022-07-26T08:55:00Z</time>
      </trkpt>
      <trkpt lat="45.9106520" lon="5.6260010">
        <ele>848.4</ele>
        <time>2022-07-26T08:55:01Z</time>
      </trkpt>
      <trkpt lat="45.9105840" lon="5.6260300">
        <ele>848.2</ele>
        <time>2022-07-26T08:55:02Z</time>
      </trkpt>
      <trkpt lat="45.9105180" lon="5.6260570">
        <ele>848.1</ele>
        <time>2022-07-26T08:55:03Z</time>
      </trkpt>
      <trkpt lat="45.9104650" lon="5.6261170">
        <ele>848.0</ele>
        <time>2022-07-26T08:55:04Z</time>
      </trkpt>
      <trkpt lat="45.9104350" lon="5.6262010">
        <ele>847.9</ele>
        <time>2022-07-26T08:55:05Z</time>
      </trkpt>
      <trkpt lat="45.9103980" lon="5.6262740">
        <ele>847.8</ele>
        <time>2022-07-26T08:55:06Z</time>
      </trkpt>
      <trkpt lat="45.9103640" lon="5.6263340">
        <ele>847.7</ele>
        <time>2022-07-26T08:55:07Z</time>
      </trkpt>
      <trkpt lat="45.9103240" lon="5.6263940">
        <ele>847.6</ele>
        <time>2022-07-26T08:55:08Z</time>
      </trkpt>
      <trkpt lat="45.9102740" lon="5.6264560">
        <ele>847.6</ele>
        <time>2022-07-26T08:55:09Z</time>
      </trkpt>
      <trkpt lat="45.9102310" lon="5.6265070">
        <ele>847.5</ele>
        <time>2022-07-26T08:55:10Z</time>
      </trkpt>
      <trkpt lat="45.9101940" lon="5.6265550">
        <ele>847.5</ele>
        <time>2022-07-26T08:55:11Z</time>
      </trkpt>
      <trkpt lat="45.9101790" lon="5.6265660">
        <ele>847.5</ele>
        <time>2022-07-26T08:55:12Z</time>
      </trkpt>
      <trkpt lat="45.9101680" lon="5.6265690">
        <ele>847.5</ele>
        <time>2022-07-26T08:55:13Z</time>
      </trkpt>
      <trkpt lat="45.9101410" lon="5.6265940">
        <ele>847.5</ele>
        <time>2022-07-26T08:55:14Z</time>
      </trkpt>
      <trkpt lat="45.9101200" lon="5.6266050">
        <ele>847.5</ele>
        <time>2022-07-26T08:55:15Z</time>
      </trkpt>
      <trkpt lat="45.9101100" lon="5.6266050">
        <ele>847.5</ele>
        <time>2022-07-26T08:55:16Z</time>
      </trkpt>
      <trkpt lat="45.9101000" lon="5.6266050">
        <ele>847.5</ele>
        <time>2022-07-26T08:55:17Z</time>
      </trkpt>
      <trkpt lat="45.9100860" lon="5.6266180">
        <ele>847.5</ele>
        <time>2022-07-26T08:55:18Z</time>
      </trkpt>
      <trkpt lat="45.9100730" lon="5.6266230">
        <ele>847.5</ele>
        <time>2022-07-26T08:55:19Z</time>
      </trkpt>
      <trkpt lat="45.9100620" lon="5.6266260">
        <ele>847.5</ele>
        <time>2022-07-26T08:55:20Z</time>
      </trkpt>
      <trkpt lat="45.9100550" lon="5.6266310">
        <ele>847.4</ele>
        <time>2022-07-26T08:55:21Z</time>
      </trkpt>
      <trkpt lat="45.9100590" lon="5.6266400">
        <ele>847.4</ele>
        <time>2022-07-26T08:55:22Z</time>
      </trkpt>
      <trkpt lat="45.9100620" lon="5.6266490">
        <ele>847.4</ele>
        <time>2022-07-26T08:55:23Z</time>
      </trkpt>
      <trkpt lat="45.9100640" lon="5.6266550">
        <ele>847.4</ele>
        <time>2022-07-26T08:55:24Z</time>
      </trkpt>
      <trkpt lat="45.9100620" lon="5.6266590">
        <ele>847.4</ele>
        <time>2022-07-26T08:55:25Z</time>
      </trkpt>
      <trkpt lat="45.9100510" lon="5.6266620">
        <ele>847.4</ele>
        <time>2022-07-26T08:55:26Z</time>
      </trkpt>
      <trkpt lat="45.9100420" lon="5.6266660">
        <ele>847.4</ele>
        <time>2022-07-26T08:55:27Z</time>
      </trkpt>
      <trkpt lat="45.9100350" lon="5.6266670">
        <ele>847.3</ele>
        <time>2022-07-26T08:55:28Z</time>
      </trkpt>
      <trkpt lat="45.9100330" lon="5.6266680">
        <ele>847.3</ele>
        <time>2022-07-26T08:55:29Z</time>
      </trkpt>
      <trkpt lat="45.9100340" lon="5.6266670">
        <ele>847.3</ele>
        <time>2022-07-26T08:55:30Z</time>
      </trkpt>
      <trkpt lat="45.9100350" lon="5.6266660">
        <ele>847.3</ele>
        <time>2022-07-26T08:55:31Z</time>
      </trkpt>
      <trkpt lat="45.9100350" lon="5.6266610">
        <ele>847.3</ele>
        <time>2022-07-26T08:55:32Z</time>
      </trkpt>
      <trkpt lat="45.9100340" lon="5.6266590">
        <ele>847.3</ele>
        <time>2022-07-26T08:55:33Z</time>
      </trkpt>
      <trkpt lat="45.9100330" lon="5.6266580">
        <ele>847.3</ele>
        <time>2022-07-26T08:55:34Z</time>
      </trkpt>
      <trkpt lat="45.9100340" lon="5.6266570">
        <ele>847.3</ele>
        <time>2022-07-26T08:55:35Z</time>
      </trkpt>
      <trkpt lat="45.9100340" lon="5.6266570">
        <ele>847.3</ele>
        <time>2022-07-26T08:55:36Z</time>
      </trkpt>
      <trkpt lat="45.9100230" lon="5.6266600">
        <ele>847.3</ele>
        <time>2022-07-26T08:55:37Z</time>
      </trkpt>
      <trkpt lat="45.9100060" lon="5.6266730">
        <ele>847.2</ele>
        <time>2022-07-26T08:55:38Z</time>
      </trkpt>
      <trkpt lat="45.9099730" lon="5.6267160">
        <ele>846.9</ele>
        <time>2022-07-26T08:55:39Z</time>
      </trkpt>
      <trkpt lat="45.9099600" lon="5.6267350">
        <ele>846.8</ele>
        <time>2022-07-26T08:55:40Z</time>
      </trkpt>
      <trkpt lat="45.9099360" lon="5.6267770">
        <ele>846.6</ele>
        <time>2022-07-26T08:55:41Z</time>
      </trkpt>
      <trkpt lat="45.9099130" lon="5.6268200">
        <ele>846.4</ele>
        <time>2022-07-26T08:55:42Z</time>
      </trkpt>
      <trkpt lat="45.9099010" lon="5.6269060">
        <ele>846.0</ele>
        <time>2022-07-26T08:55:43Z</time>
      </trkpt>
      <trkpt lat="45.9098870" lon="5.6270060">
        <ele>845.6</ele>
        <time>2022-07-26T08:55:44Z</time>
      </trkpt>
      <trkpt lat="45.9098570" lon="5.6270860">
        <ele>845.2</ele>
        <time>2022-07-26T08:55:45Z</time>
      </trkpt>
      <trkpt lat="45.9098220" lon="5.6271590">
        <ele>844.9</ele>
        <time>2022-07-26T08:55:46Z</time>
      </trkpt>
      <trkpt lat="45.9097890" lon="5.6272410">
        <ele>844.5</ele>
        <time>2022-07-26T08:55:47Z</time>
      </trkpt>
      <trkpt lat="45.9097560" lon="5.6273300">
        <ele>844.1</ele>
        <time>2022-07-26T08:55:48Z</time>
      </trkpt>
      <trkpt lat="45.9097160" lon="5.6274130">
        <ele>843.7</ele>
        <time>2022-07-26T08:55:49Z</time>
      </trkpt>
      <trkpt lat="45.9096700" lon="5.6274920">
        <ele>843.3</ele>
        <time>2022-07-26T08:55:50Z</time>
      </trkpt>
      <trkpt lat="45.9096290" lon="5.6275710">
        <ele>842.9</ele>
        <time>2022-07-26T08:55:51Z</time>
      </trkpt>
      <trkpt lat="45.9095910" lon="5.6276510">
        <ele>842.6</ele>
        <time>2022-07-26T08:55:52Z</time>
      </trkpt>
      <trkpt lat="45.9095510" lon="5.6277410">
        <ele>842.2</ele>
        <time>2022-07-26T08:55:53Z</time>
      </trkpt>
      <trkpt lat="45.9095100" lon="5.6278240">
        <ele>841.8</ele>
        <time>2022-07-26T08:55:54Z</time>
      </trkpt>
      <trkpt lat="45.9094720" lon="5.6279040">
        <ele>841.4</ele>
        <time>2022-07-26T08:55:55Z</time>
      </trkpt>
      <trkpt lat="45.9094380" lon="5.6279920">
        <ele>841.0</ele>
        <time>2022-07-26T08:55:56Z</time>
      </trkpt>
      <trkpt lat="45.9094090" lon="5.6280790">
        <ele>840.7</ele>
        <time>2022-07-26T08:55:57Z</time>
      </trkpt>
      <trkpt lat="45.9093800" lon="5.6281620">
        <ele>840.3</ele>
        <time>2022-07-26T08:55:58Z</time>
      </trkpt>
      <trkpt lat="45.9093640" lon="5.6282440">
        <ele>839.9</ele>
        <time>2022-07-26T08:55:59Z</time>
      </trkpt>
      <trkpt lat="45.9093570" lon="5.6283220">
        <ele>839.6</ele>
        <time>2022-07-26T08:56:00Z</time>
      </trkpt>
      <trkpt lat="45.9093620" lon="5.6284030">
        <ele>839.3</ele>
        <time>2022-07-26T08:56:01Z</time>
      </trkpt>
      <trkpt lat="45.9093710" lon="5.6284720">
        <ele>839.0</ele>
        <time>2022-07-26T08:56:02Z</time>
      </trkpt>
      <trkpt lat="45.9093920" lon="5.6285320">
        <ele>838.8</ele>
        <time>2022-07-26T08:56:03Z</time>
      </trkpt>
      <trkpt lat="45.9094160" lon="5.6285860">
        <ele>838.6</ele>
        <time>2022-07-26T08:56:04Z</time>
      </trkpt>
      <trkpt lat="45.9094370" lon="5.6286390">
        <ele>838.3</ele>
        <time>2022-07-26T08:56:05Z</time>
      </trkpt>
      <trkpt lat="45.9094510" lon="5.6286900">
        <ele>838.2</ele>
        <time>2022-07-26T08:56:06Z</time>
      </trkpt>
      <trkpt lat="45.9094540" lon="5.6287450">
        <ele>838.9</ele>
        <time>2022-07-26T08:56:07Z</time>
      </trkpt>
      <trkpt lat="45.9094550" lon="5.6287690">
        <ele>839.1</ele>
        <time>2022-07-26T08:56:08Z</time>
      </trkpt>
      <trkpt lat="45.9094410" lon="5.6288060">
        <ele>839.5</ele>
        <time>2022-07-26T08:56:09Z</time>
      </trkpt>
      <trkpt lat="45.9094110" lon="5.6288320">
        <ele>840.0</ele>
        <time>2022-07-26T08:56:10Z</time>
      </trkpt>
      <trkpt lat="45.9094010" lon="5.6288350">
        <ele>840.1</ele>
        <time>2022-07-26T08:56:11Z</time>
      </trkpt>
      <trkpt lat="45.9093690" lon="5.6288400">
        <ele>840.6</ele>
        <time>2022-07-26T08:56:12Z</time>
      </trkpt>
      <trkpt lat="45.9093590" lon="5.6288390">
        <ele>840.7</ele>
        <time>2022-07-26T08:56:13Z</time>
      </trkpt>
      <trkpt lat="45.9093430" lon="5.6288400">
        <ele>841.0</ele>
        <time>2022-07-26T08:56:14Z</time>
      </trkpt>
      <trkpt lat="45.9093310" lon="5.6288410">
        <ele>841.2</ele>
        <time>2022-07-26T08:56:15Z</time>
      </trkpt>
      <trkpt lat="45.9093090" lon="5.6288440">
        <ele>841.5</ele>
        <time>2022-07-26T08:56:16Z</time>
      </trkpt>
      <trkpt lat="45.9093010" lon="5.6288450">
        <ele>841.6</ele>
        <time>2022-07-26T08:56:17Z</time>
      </trkpt>
      <trkpt lat="45.9092940" lon="5.6288460">
        <ele>841.8</ele>
        <time>2022-07-26T08:56:18Z</time>
      </trkpt>
      <trkpt lat="45.9092720" lon="5.6288440">
        <ele>842.1</ele>
        <time>2022-07-26T08:56:19Z</time>
      </trkpt>
      <trkpt lat="45.9092630" lon="5.6288420">
        <ele>842.3</ele>
        <time>2022-07-26T08:56:20Z</time>
      </trkpt>
      <trkpt lat="45.9092540" lon="5.6288410">
        <ele>842.4</ele>
        <time>2022-07-26T08:56:21Z</time>
      </trkpt>
      <trkpt lat="45.9092420" lon="5.6288370">
        <ele>842.6</ele>
        <time>2022-07-26T08:56:22Z</time>
      </trkpt>
      <trkpt lat="45.9092290" lon="5.6288330">
        <ele>842.8</ele>
        <time>2022-07-26T08:56:23Z</time>
      </trkpt>
      <trkpt lat="45.9092210" lon="5.6288310">
        <ele>843.0</ele>
        <time>2022-07-26T08:56:24Z</time>
      </trkpt>
      <trkpt lat="45.9092030" lon="5.6288290">
        <ele>843.3</ele>
        <time>2022-07-26T08:56:25Z</time>
      </trkpt>
      <trkpt lat="45.9091900" lon="5.6288260">
        <ele>843.5</ele>
        <time>2022-07-26T08:56:26Z</time>
      </trkpt>
      <trkpt lat="45.9091700" lon="5.6288240">
        <ele>843.8</ele>
        <time>2022-07-26T08:56:27Z</time>
      </trkpt>
      <trkpt lat="45.9091600" lon="5.6288230">
        <ele>844.0</ele>
        <time>2022-07-26T08:56:28Z</time>
      </trkpt>
      <trkpt lat="45.9091500" lon="5.6288230">
        <ele>844.1</ele>
        <time>2022-07-26T08:56:29Z</time>
      </trkpt>
      <trkpt lat="45.9091370" lon="5.6288220">
        <ele>844.3</ele>
        <time>2022-07-26T08:56:30Z</time>
      </trkpt>
      <trkpt lat="45.9091210" lon="5.6288220">
        <ele>844.6</ele>
        <time>2022-07-26T08:56:31Z</time>
      </trkpt>
      <trkpt lat="45.9091040" lon="5.6288230">
        <ele>844.9</ele>
        <time>2022-07-26T08:56:32Z</time>
      </trkpt>
      <trkpt lat="45.9090920" lon="5.6288250">
        <ele>845.1</ele>
        <time>2022-07-26T08:56:33Z</time>
      </trkpt>
      <trkpt lat="45.9090770" lon="5.6288280">
        <ele>845.3</ele>
        <time>2022-07-26T08:56:34Z</time>
      </trkpt>
      <trkpt lat="45.9090630" lon="5.6288300">
        <ele>845.5</ele>
        <time>2022-07-26T08:56:35Z</time>
      </trkpt>
      <trkpt lat="45.9090360" lon="5.6288350">
        <ele>845.9</ele>
        <time>2022-07-26T08:56:36Z</time>
      </trkpt>
      <trkpt lat="45.9090270" lon="5.6288380">
        <ele>846.1</ele>
        <time>2022-07-26T08:56:37Z</time>
      </trkpt>
      <trkpt lat="45.9090090" lon="5.6288430">
        <ele>846.3</ele>
        <time>2022-07-26T08:56:38Z</time>
      </trkpt>
      <trkpt lat="45.9089990" lon="5.6288460">
        <ele>846.4</ele>
        <time>2022-07-26T08:56:39Z</time>
      </trkpt>
      <trkpt lat="45.9089850" lon="5.6288480">
        <ele>846.6</ele>
        <time>2022-07-26T08:56:40Z</time>
      </trkpt>
      <trkpt lat="45.9089740" lon="5.6288490">
        <ele>846.8</ele>
        <time>2022-07-26T08:56:41Z</time>
      </trkpt>
      <trkpt lat="45.9089640" lon="5.6288540">
        <ele>846.9</ele>
        <time>2022-07-26T08:56:42Z</time>
      </trkpt>
      <trkpt lat="45.9089580" lon="5.6288590">
        <ele>847.0</ele>
        <time>2022-07-26T08:56:43Z</time>
      </trkpt>
      <trkpt lat="45.9089460" lon="5.6288660">
        <ele>847.2</ele>
        <time>2022-07-26T08:56:44Z</time>
      </trkpt>
      <trkpt lat="45.9089330" lon="5.6288740">
        <ele>847.4</ele>
        <time>2022-07-26T08:56:45Z</time>
      </trkpt>
      <trkpt lat="45.9089200" lon="5.6288840">
        <ele>847.6</ele>
        <time>2022-07-26T08:56:46Z</time>
      </trkpt>
      <trkpt lat="45.9089110" lon="5.6288930">
        <ele>847.7</ele>
        <time>2022-07-26T08:56:47Z</time>
      </trkpt>
      <trkpt lat="45.9089010" lon="5.6288980">
        <ele>847.9</ele>
        <time>2022-07-26T08:56:48Z</time>
      </trkpt>
      <trkpt lat="45.9088930" lon="5.6289030">
        <ele>848.0</ele>
        <time>2022-07-26T08:56:49Z</time>
      </trkpt>
      <trkpt lat="45.9088860" lon="5.6289090">
        <ele>848.1</ele>
        <time>2022-07-26T08:56:50Z</time>
      </trkpt>
      <trkpt lat="45.9088770" lon="5.6289150">
        <ele>848.2</ele>
        <time>2022-07-26T08:56:51Z</time>
      </trkpt>
      <trkpt lat="45.9088600" lon="5.6289230">
        <ele>848.5</ele>
        <time>2022-07-26T08:56:52Z</time>
      </trkpt>
      <trkpt lat="45.9088520" lon="5.6289260">
        <ele>848.6</ele>
        <time>2022-07-26T08:56:53Z</time>
      </trkpt>
      <trkpt lat="45.9088430" lon="5.6289290">
        <ele>848.7</ele>
        <time>2022-07-26T08:56:54Z</time>
      </trkpt>
      <trkpt lat="45.9088360" lon="5.6289340">
        <ele>848.8</ele>
        <time>2022-07-26T08:56:55Z</time>
      </trkpt>
      <trkpt lat="45.9088250" lon="5.6289430">
        <ele>849.0</ele>
        <time>2022-07-26T08:56:56Z</time>
      </trkpt>
      <trkpt lat="45.9088150" lon="5.6289490">
        <ele>849.1</ele>
        <time>2022-07-26T08:56:57Z</time>
      </trkpt>
      <trkpt lat="45.9088010" lon="5.6289580">
        <ele>849.4</ele>
        <time>2022-07-26T08:56:58Z</time>
      </trkpt>
      <trkpt lat="45.9087850" lon="5.6289670">
        <ele>849.6</ele>
        <time>2022-07-26T08:56:59Z</time>
      </trkpt>
      <trkpt lat="45.9087680" lon="5.6289740">
        <ele>849.8</ele>
        <time>2022-07-26T08:57:00Z</time>
      </trkpt>
      <trkpt lat="45.9087590" lon="5.6289770">
        <ele>850.0</ele>
        <time>2022-07-26T08:57:01Z</time>
      </trkpt>
      <trkpt lat="45.9087510" lon="5.6289820">
        <ele>850.1</ele>
        <time>2022-07-26T08:57:02Z</time>
      </trkpt>
      <trkpt lat="45.9087410" lon="5.6289900">
        <ele>850.3</ele>
        <time>2022-07-26T08:57:03Z</time>
      </trkpt>
      <trkpt lat="45.9087350" lon="5.6289980">
        <ele>850.4</ele>
        <time>2022-07-26T08:57:04Z</time>
      </trkpt>
      <trkpt lat="45.9087210" lon="5.6290120">
        <ele>850.7</ele>
        <time>2022-07-26T08:57:05Z</time>
      </trkpt>
      <trkpt lat="45.9087090" lon="5.6290200">
        <ele>850.8</ele>
        <time>2022-07-26T08:57:06Z</time>
      </trkpt>
      <trkpt lat="45.9086840" lon="5.6290370">
        <ele>851.3</ele>
        <time>2022-07-26T08:57:07Z</time>
      </trkpt>
      <trkpt lat="45.9086760" lon="5.6290420">
        <ele>851.4</ele>
        <time>2022-07-26T08:57:08Z</time>
      </trkpt>
      <trkpt lat="45.9086580" lon="5.6290500">
        <ele>851.7</ele>
        <time>2022-07-26T08:57:09Z</time>
      </trkpt>
      <trkpt lat="45.9086460" lon="5.6290550">
        <ele>851.8</ele>
        <time>2022-07-26T08:57:10Z</time>
      </trkpt>
      <trkpt lat="45.9086310" lon="5.6290590">
        <ele>852.1</ele>
        <time>2022-07-26T08:57:11Z</time>
      </trkpt>
      <trkpt lat="45.9086170" lon="5.6290640">
        <ele>852.3</ele>
        <time>2022-07-26T08:57:12Z</time>
      </trkpt>
      <trkpt lat="45.9086050" lon="5.6290700">
        <ele>852.5</ele>
        <time>2022-07-26T08:57:13Z</time>
      </trkpt>
      <trkpt lat="45.9085890" lon="5.6290790">
        <ele>852.8</ele>
        <time>2022-07-26T08:57:14Z</time>
      </trkpt>
      <trkpt lat="45.9085710" lon="5.6290890">
        <ele>853.1</ele>
        <time>2022-07-26T08:57:15Z</time>
      </trkpt>
      <trkpt lat="45.9085590" lon="5.6290960">
        <ele>853.3</ele>
        <time>2022-07-26T08:57:16Z</time>
      </trkpt>
      <trkpt lat="45.9085500" lon="5.6291020">
        <ele>853.4</ele>
        <time>2022-07-26T08:57:17Z</time>
      </trkpt>
      <trkpt lat="45.9085430" lon="5.6291080">
        <ele>853.5</ele>
        <time>2022-07-26T08:57:18Z</time>
      </trkpt>
      <trkpt lat="45.9085310" lon="5.6291170">
        <ele>853.7</ele>
        <time>2022-07-26T08:57:19Z</time>
      </trkpt>
      <trkpt lat="45.9085240" lon="5.6291230">
        <ele>853.9</ele>
        <time>2022-07-26T08:57:20Z</time>
      </trkpt>
      <trkpt lat="45.9085150" lon="5.6291300">
        <ele>854.0</ele>
        <time>2022-07-26T08:57:21Z</time>
      </trkpt>
      <trkpt lat="45.9085030" lon="5.6291400">
        <ele>854.2</ele>
        <time>2022-07-26T08:57:22Z</time>
      </trkpt>
      <trkpt lat="45.9084830" lon="5.6291510">
        <ele>854.6</ele>
        <time>2022-07-26T08:57:23Z</time>
      </trkpt>
      <trkpt lat="45.9084750" lon="5.6291540">
        <ele>854.7</ele>
        <time>2022-07-26T08:57:24Z</time>
      </trkpt>
      <trkpt lat="45.9084680" lon="5.6291570">
        <ele>854.8</ele>
        <time>2022-07-26T08:57:25Z</time>
      </trkpt>
      <trkpt lat="45.9084560" lon="5.6291620">
        <ele>855.0</ele>
        <time>2022-07-26T08:57:26Z</time>
      </trkpt>
      <trkpt lat="45.9084420" lon="5.6291690">
        <ele>855.2</ele>
        <time>2022-07-26T08:57:27Z</time>
      </trkpt>
      <trkpt lat="45.9084280" lon="5.6291840">
        <ele>855.4</ele>
        <time>2022-07-26T08:57:28Z</time>
      </trkpt>
      <trkpt lat="45.9084130" lon="5.6291970">
        <ele>855.7</ele>
        <time>2022-07-26T08:57:29Z</time>
      </trkpt>
      <trkpt lat="45.9084000" lon="5.6292050">
        <ele>855.9</ele>
        <time>2022-07-26T08:57:30Z</time>
      </trkpt>
      <trkpt lat="45.9083900" lon="5.6292110">
        <ele>856.0</ele>
        <time>2022-07-26T08:57:31Z</time>
      </trkpt>
      <trkpt lat="45.9083800" lon="5.6292160">
        <ele>856.2</ele>
        <time>2022-07-26T08:57:32Z</time>
      </trkpt>
      <trkpt lat="45.9083630" lon="5.6292260">
        <ele>856.4</ele>
        <time>2022-07-26T08:57:33Z</time>
      </trkpt>
      <trkpt lat="45.9083540" lon="5.6292320">
        <ele>856.5</ele>
        <time>2022-07-26T08:57:34Z</time>
      </trkpt>
      <trkpt lat="45.9083440" lon="5.6292380">
        <ele>856.7</ele>
        <time>2022-07-26T08:57:35Z</time>
      </trkpt>
      <trkpt lat="45.9083180" lon="5.6292570">
        <ele>857.1</ele>
        <time>2022-07-26T08:57:36Z</time>
      </trkpt>
      <trkpt lat="45.9083090" lon="5.6292640">
        <ele>857.2</ele>
        <time>2022-07-26T08:57:37Z</time>
      </trkpt>
      <trkpt lat="45.9082820" lon="5.6292820">
        <ele>857.6</ele>
        <time>2022-07-26T08:57:38Z</time>
      </trkpt>
      <trkpt lat="45.9082730" lon="5.6292870">
        <ele>857.7</ele>
        <time>2022-07-26T08:57:39Z</time>
      </trkpt>
      <trkpt lat="45.9082530" lon="5.6293000">
        <ele>858.0</ele>
        <time>2022-07-26T08:57:40Z</time>
      </trkpt>
      <trkpt lat="45.9082440" lon="5.6293050">
        <ele>858.1</ele>
        <time>2022-07-26T08:57:41Z</time>
      </trkpt>
      <trkpt lat="45.9082340" lon="5.6293100">
        <ele>858.2</ele>
        <time>2022-07-26T08:57:42Z</time>
      </trkpt>
      <trkpt lat="45.9082060" lon="5.6293230">
        <ele>858.6</ele>
        <time>2022-07-26T08:57:43Z</time>
      </trkpt>
      <trkpt lat="45.9081960" lon="5.6293280">
        <ele>858.7</ele>
        <time>2022-07-26T08:57:44Z</time>
      </trkpt>
      <trkpt lat="45.9081790" lon="5.6293390">
        <ele>858.9</ele>
        <time>2022-07-26T08:57:45Z</time>
      </trkpt>
      <trkpt lat="45.9081670" lon="5.6293480">
        <ele>859.1</ele>
        <time>2022-07-26T08:57:46Z</time>
      </trkpt>
      <trkpt lat="45.9081410" lon="5.6293610">
        <ele>859.4</ele>
        <time>2022-07-26T08:57:47Z</time>
      </trkpt>
      <trkpt lat="45.9081300" lon="5.6293650">
        <ele>859.5</ele>
        <time>2022-07-26T08:57:48Z</time>
      </trkpt>
      <trkpt lat="45.9081170" lon="5.6293730">
        <ele>859.6</ele>
        <time>2022-07-26T08:57:49Z</time>
      </trkpt>
      <trkpt lat="45.9081000" lon="5.6293770">
        <ele>859.8</ele>
        <time>2022-07-26T08:57:50Z</time>
      </trkpt>
      <trkpt lat="45.9080880" lon="5.6293800">
        <ele>859.9</ele>
        <time>2022-07-26T08:57:51Z</time>
      </trkpt>
      <trkpt lat="45.9080790" lon="5.6293810">
        <ele>860.0</ele>
        <time>2022-07-26T08:57:52Z</time>
      </trkpt>
      <trkpt lat="45.9080670" lon="5.6293820">
        <ele>860.2</ele>
        <time>2022-07-26T08:57:53Z</time>
      </trkpt>
      <trkpt lat="45.9080390" lon="5.6293850">
        <ele>860.4</ele>
        <time>2022-07-26T08:57:54Z</time>
      </trkpt>
      <trkpt lat="45.9080300" lon="5.6293860">
        <ele>860.5</ele>
        <time>2022-07-26T08:57:55Z</time>
      </trkpt>
      <trkpt lat="45.9080160" lon="5.6293870">
        <ele>860.7</ele>
        <time>2022-07-26T08:57:56Z</time>
      </trkpt>
      <trkpt lat="45.9080020" lon="5.6293900">
        <ele>860.8</ele>
        <time>2022-07-26T08:57:57Z</time>
      </trkpt>
      <trkpt lat="45.9079850" lon="5.6293910">
        <ele>861.0</ele>
        <time>2022-07-26T08:57:58Z</time>
      </trkpt>
      <trkpt lat="45.9079740" lon="5.6293930">
        <ele>861.1</ele>
        <time>2022-07-26T08:57:59Z</time>
      </trkpt>
      <trkpt lat="45.9079600" lon="5.6294010">
        <ele>861.2</ele>
        <time>2022-07-26T08:58:00Z</time>
      </trkpt>
      <trkpt lat="45.9079540" lon="5.6294080">
        <ele>861.2</ele>
        <time>2022-07-26T08:58:01Z</time>
      </trkpt>
      <trkpt lat="45.9079480" lon="5.6294150">
        <ele>861.3</ele>
        <time>2022-07-26T08:58:02Z</time>
      </trkpt>
      <trkpt lat="45.9079420" lon="5.6294220">
        <ele>861.4</ele>
        <time>2022-07-26T08:58:03Z</time>
      </trkpt>
      <trkpt lat="45.9079170" lon="5.6294420">
        <ele>861.6</ele>
        <time>2022-07-26T08:58:05Z</time>
      </trkpt>
      <trkpt lat="45.9079060" lon="5.6294480">
        <ele>861.7</ele>
        <time>2022-07-26T08:58:06Z</time>
      </trkpt>
      <trkpt lat="45.9078790" lon="5.6294600">
        <ele>861.9</ele>
        <time>2022-07-26T08:58:07Z</time>
      </trkpt>
      <trkpt lat="45.9078700" lon="5.6294620">
        <ele>861.9</ele>
        <time>2022-07-26T08:58:08Z</time>
      </trkpt>
      <trkpt lat="45.9078480" lon="5.6294660">
        <ele>862.0</ele>
        <time>2022-07-26T08:58:09Z</time>
      </trkpt>
      <trkpt lat="45.9078200" lon="5.6294750">
        <ele>862.2</ele>
        <time>2022-07-26T08:58:11Z</time>
      </trkpt>
      <trkpt lat="45.9078020" lon="5.6294820">
        <ele>862.3</ele>
        <time>2022-07-26T08:58:12Z</time>
      </trkpt>
      <trkpt lat="45.9077900" lon="5.6294880">
        <ele>862.4</ele>
        <time>2022-07-26T08:58:13Z</time>
      </trkpt>
      <trkpt lat="45.9077580" lon="5.6295000">
        <ele>862.5</ele>
        <time>2022-07-26T08:58:14Z</time>
      </trkpt>
      <trkpt lat="45.9077490" lon="5.6295010">
        <ele>862.6</ele>
        <time>2022-07-26T08:58:15Z</time>
      </trkpt>
      <trkpt lat="45.9077360" lon="5.6295010">
        <ele>862.7</ele>
        <time>2022-07-26T08:58:16Z</time>
      </trkpt>
      <trkpt lat="45.9077170" lon="5.6295040">
        <ele>862.8</ele>
        <time>2022-07-26T08:58:18Z</time>
      </trkpt>
      <trkpt lat="45.9076940" lon="5.6295100">
        <ele>862.9</ele>
        <time>2022-07-26T08:58:19Z</time>
      </trkpt>
      <trkpt lat="45.9076760" lon="5.6295130">
        <ele>862.9</ele>
        <time>2022-07-26T08:58:21Z</time>
      </trkpt>
      <trkpt lat="45.9076650" lon="5.6295150">
        <ele>863.0</ele>
        <time>2022-07-26T08:58:22Z</time>
      </trkpt>
      <trkpt lat="45.9076570" lon="5.6295170">
        <ele>863.0</ele>
        <time>2022-07-26T08:58:23Z</time>
      </trkpt>
      <trkpt lat="45.9076270" lon="5.6295270">
        <ele>863.1</ele>
        <time>2022-07-26T08:58:25Z</time>
      </trkpt>
      <trkpt lat="45.9076100" lon="5.6295290">
        <ele>863.1</ele>
        <time>2022-07-26T08:58:26Z</time>
      </trkpt>
      <trkpt lat="45.9076060" lon="5.6295310">
        <ele>863.1</ele>
        <time>2022-07-26T08:58:27Z</time>
      </trkpt>
      <trkpt lat="45.9076020" lon="5.6295320">
        <ele>863.1</ele>
        <time>2022-07-26T08:58:28Z</time>
      </trkpt>
      <trkpt lat="45.9075980" lon="5.6295340">
        <ele>863.1</ele>
        <time>2022-07-26T08:58:29Z</time>
      </trkpt>
      <trkpt lat="45.9075940" lon="5.6295360">
        <ele>863.1</ele>
        <time>2022-07-26T08:58:30Z</time>
      </trkpt>
      <trkpt lat="45.9075890" lon="5.6295370">
        <ele>863.1</ele>
        <time>2022-07-26T08:58:31Z</time>
      </trkpt>
      <trkpt lat="45.9075850" lon="5.6295390">
        <ele>863.1</ele>
        <time>2022-07-26T08:58:32Z</time>
      </trkpt>
      <trkpt lat="45.9075810" lon="5.6295400">
        <ele>863.1</ele>
        <time>2022-07-26T08:58:33Z</time>
      </trkpt>
      <trkpt lat="45.9075770" lon="5.6295420">
        <ele>863.1</ele>
        <time>2022-07-26T08:58:34Z</time>
      </trkpt>
      <trkpt lat="45.9075730" lon="5.6295440">
        <ele>863.1</ele>
        <time>2022-07-26T08:58:35Z</time>
      </trkpt>
      <trkpt lat="45.9075690" lon="5.6295450">
        <ele>863.1</ele>
        <time>2022-07-26T08:58:36Z</time>
      </trkpt>
      <trkpt lat="45.9075650" lon="5.6295470">
        <ele>863.1</ele>
        <time>2022-07-26T08:58:37Z</time>
      </trkpt>
      <trkpt lat="45.9075600" lon="5.6295490">
        <ele>863.1</ele>
        <time>2022-07-26T08:58:50Z</time>
      </trkpt>
      <trkpt lat="45.9075560" lon="5.6295500">
        <ele>863.1</ele>
        <time>2022-07-26T08:58:51Z</time>
      </trkpt>
      <trkpt lat="45.9075520" lon="5.6295520">
        <ele>863.1</ele>
        <time>2022-07-26T08:58:52Z</time>
      </trkpt>
      <trkpt lat="45.9075150" lon="5.6295620">
        <ele>863.1</ele>
        <time>2022-07-26T08:58:53Z</time>
      </trkpt>
      <trkpt lat="45.9075040" lon="5.6295650">
        <ele>863.1</ele>
        <time>2022-07-26T08:58:54Z</time>
      </trkpt>
      <trkpt lat="45.9074720" lon="5.6295760">
        <ele>863.1</ele>
        <time>2022-07-26T08:58:56Z</time>
      </trkpt>
      <trkpt lat="45.9074310" lon="5.6295950">
        <ele>863.1</ele>
        <time>2022-07-26T08:58:57Z</time>
      </trkpt>
      <trkpt lat="45.9074000" lon="5.6296100">
        <ele>863.1</ele>
        <time>2022-07-26T08:58:58Z</time>
      </trkpt>
      <trkpt lat="45.9073730" lon="5.6296290">
        <ele>863.1</ele>
        <time>2022-07-26T08:58:59Z</time>
      </trkpt>
      <trkpt lat="45.9073340" lon="5.6296480">
        <ele>863.1</ele>
        <time>2022-07-26T08:59:00Z</time>
      </trkpt>
      <trkpt lat="45.9073180" lon="5.6296560">
        <ele>863.1</ele>
        <time>2022-07-26T08:59:01Z</time>
      </trkpt>
      <trkpt lat="45.9072770" lon="5.6296710">
        <ele>863.2</ele>
        <time>2022-07-26T08:59:03Z</time>
      </trkpt>
      <trkpt lat="45.9072500" lon="5.6296780">
        <ele>863.2</ele>
        <time>2022-07-26T08:59:04Z</time>
      </trkpt>
      <trkpt lat="45.9072160" lon="5.6296840">
        <ele>863.3</ele>
        <time>2022-07-26T08:59:05Z</time>
      </trkpt>
      <trkpt lat="45.9071720" lon="5.6296900">
        <ele>863.3</ele>
        <time>2022-07-26T08:59:06Z</time>
      </trkpt>
      <trkpt lat="45.9071540" lon="5.6296920">
        <ele>863.4</ele>
        <time>2022-07-26T08:59:07Z</time>
      </trkpt>
      <trkpt lat="45.9071170" lon="5.6297020">
        <ele>863.5</ele>
        <time>2022-07-26T08:59:08Z</time>
      </trkpt>
      <trkpt lat="45.9070800" lon="5.6297140">
        <ele>863.6</ele>
        <time>2022-07-26T08:59:10Z</time>
      </trkpt>
      <trkpt lat="45.9070300" lon="5.6297240">
        <ele>863.7</ele>
        <time>2022-07-26T08:59:11Z</time>
      </trkpt>
      <trkpt lat="45.9070050" lon="5.6297300">
        <ele>863.7</ele>
        <time>2022-07-26T08:59:12Z</time>
      </trkpt>
      <trkpt lat="45.9069730" lon="5.6297440">
        <ele>863.7</ele>
        <time>2022-07-26T08:59:13Z</time>
      </trkpt>
      <trkpt lat="45.9069460" lon="5.6297540">
        <ele>863.7</ele>
        <time>2022-07-26T08:59:14Z</time>
      </trkpt>
      <trkpt lat="45.9069080" lon="5.6297770">
        <ele>863.7</ele>
        <time>2022-07-26T08:59:15Z</time>
      </trkpt>
      <trkpt lat="45.9068930" lon="5.6297880">
        <ele>863.7</ele>
        <time>2022-07-26T08:59:16Z</time>
      </trkpt>
      <trkpt lat="45.9068690" lon="5.6298020">
        <ele>863.8</ele>
        <time>2022-07-26T08:59:17Z</time>
      </trkpt>
      <trkpt lat="45.9068340" lon="5.6298300">
        <ele>863.8</ele>
        <time>2022-07-26T08:59:19Z</time>
      </trkpt>
      <trkpt lat="45.9068050" lon="5.6298610">
        <ele>863.8</ele>
        <time>2022-07-26T08:59:20Z</time>
      </trkpt>
      <trkpt lat="45.9067830" lon="5.6298880">
        <ele>863.8</ele>
        <time>2022-07-26T08:59:21Z</time>
      </trkpt>
      <trkpt lat="45.9067470" lon="5.6299130">
        <ele>863.9</ele>
        <time>2022-07-26T08:59:23Z</time>
      </trkpt>
      <trkpt lat="45.9067140" lon="5.6299300">
        <ele>864.0</ele>
        <time>2022-07-26T08:59:24Z</time>
      </trkpt>
      <trkpt lat="45.9066890" lon="5.6299460">
        <ele>864.1</ele>
        <time>2022-07-26T08:59:25Z</time>
      </trkpt>
      <trkpt lat="45.9066570" lon="5.6299640">
        <ele>864.1</ele>
        <time>2022-07-26T08:59:26Z</time>
      </trkpt>
      <trkpt lat="45.9066310" lon="5.6299790">
        <ele>864.2</ele>
        <time>2022-07-26T08:59:27Z</time>
      </trkpt>
      <trkpt lat="45.9066030" lon="5.6299930">
        <ele>864.3</ele>
        <time>2022-07-26T08:59:28Z</time>
      </trkpt>
      <trkpt lat="45.9065760" lon="5.6300090">
        <ele>864.4</ele>
        <time>2022-07-26T08:59:29Z</time>
      </trkpt>
      <trkpt lat="45.9065460" lon="5.6300170">
        <ele>864.4</ele>
        <time>2022-07-26T08:59:30Z</time>
      </trkpt>
      <trkpt lat="45.9065360" lon="5.6300190">
        <ele>864.5</ele>
        <time>2022-07-26T08:59:31Z</time>
      </trkpt>
      <trkpt lat="45.9065060" lon="5.6300190">
        <ele>864.6</ele>
        <time>2022-07-26T08:59:32Z</time>
      </trkpt>
      <trkpt lat="45.9064940" lon="5.6300180">
        <ele>864.6</ele>
        <time>2022-07-26T08:59:34Z</time>
      </trkpt>
      <trkpt lat="45.9064810" lon="5.6300170">
        <ele>864.7</ele>
        <time>2022-07-26T08:59:35Z</time>
      </trkpt>
      <trkpt lat="45.9064690" lon="5.6300160">
        <ele>864.7</ele>
        <time>2022-07-26T08:59:36Z</time>
      </trkpt>
      <trkpt lat="45.9064560" lon="5.6300150">
        <ele>864.8</ele>
        <time>2022-07-26T08:59:37Z</time>
      </trkpt>
      <trkpt lat="45.9064250" lon="5.6300270">
        <ele>864.9</ele>
        <time>2022-07-26T08:59:39Z</time>
      </trkpt>
      <trkpt lat="45.9064160" lon="5.6300310">
        <ele>865.0</ele>
        <time>2022-07-26T08:59:40Z</time>
      </trkpt>
      <trkpt lat="45.9063890" lon="5.6300430">
        <ele>865.1</ele>
        <time>2022-07-26T08:59:41Z</time>
      </trkpt>
      <trkpt lat="45.9063620" lon="5.6300560">
        <ele>865.3</ele>
        <time>2022-07-26T08:59:42Z</time>
      </trkpt>
      <trkpt lat="45.9063300" lon="5.6300740">
        <ele>865.4</ele>
        <time>2022-07-26T08:59:43Z</time>
      </trkpt>
      <trkpt lat="45.9063200" lon="5.6300810">
        <ele>865.5</ele>
        <time>2022-07-26T08:59:44Z</time>
      </trkpt>
      <trkpt lat="45.9062860" lon="5.6300990">
        <ele>865.7</ele>
        <time>2022-07-26T08:59:45Z</time>
      </trkpt>
      <trkpt lat="45.9062560" lon="5.6301140">
        <ele>865.8</ele>
        <time>2022-07-26T08:59:47Z</time>
      </trkpt>
      <trkpt lat="45.9062230" lon="5.6301310">
        <ele>866.0</ele>
        <time>2022-07-26T08:59:48Z</time>
      </trkpt>
      <trkpt lat="45.9061890" lon="5.6301440">
        <ele>866.2</ele>
        <time>2022-07-26T08:59:49Z</time>
      </trkpt>
      <trkpt lat="45.9061540" lon="5.6301530">
        <ele>866.3</ele>
        <time>2022-07-26T08:59:50Z</time>
      </trkpt>
      <trkpt lat="45.9061450" lon="5.6301570">
        <ele>866.4</ele>
        <time>2022-07-26T08:59:51Z</time>
      </trkpt>
      <trkpt lat="45.9061020" lon="5.6301790">
        <ele>866.6</ele>
        <time>2022-07-26T08:59:52Z</time>
      </trkpt>
      <trkpt lat="45.9060560" lon="5.6301980">
        <ele>866.8</ele>
        <time>2022-07-26T08:59:54Z</time>
      </trkpt>
      <trkpt lat="45.9060300" lon="5.6302110">
        <ele>867.0</ele>
        <time>2022-07-26T08:59:55Z</time>
      </trkpt>
      <trkpt lat="45.9059840" lon="5.6302240">
        <ele>867.2</ele>
        <time>2022-07-26T08:59:56Z</time>
      </trkpt>
      <trkpt lat="45.9059610" lon="5.6302260">
        <ele>867.4</ele>
        <time>2022-07-26T08:59:57Z</time>
      </trkpt>
      <trkpt lat="45.9059280" lon="5.6302330">
        <ele>867.6</ele>
        <time>2022-07-26T08:59:59Z</time>
      </trkpt>
      <trkpt lat="45.9059000" lon="5.6302400">
        <ele>867.8</ele>
        <time>2022-07-26T09:00:00Z</time>
      </trkpt>
      <trkpt lat="45.9058780" lon="5.6302440">
        <ele>868.0</ele>
        <time>2022-07-26T09:00:01Z</time>
      </trkpt>
      <trkpt lat="45.9058640" lon="5.6302480">
        <ele>868.1</ele>
        <time>2022-07-26T09:00:02Z</time>
      </trkpt>
      <trkpt lat="45.9058390" lon="5.6302590">
        <ele>868.4</ele>
        <time>2022-07-26T09:00:03Z</time>
      </trkpt>
      <trkpt lat="45.9058280" lon="5.6302620">
        <ele>868.4</ele>
        <time>2022-07-26T09:00:04Z</time>
      </trkpt>
      <trkpt lat="45.9058010" lon="5.6302690">
        <ele>868.7</ele>
        <time>2022-07-26T09:00:05Z</time>
      </trkpt>
      <trkpt lat="45.9057670" lon="5.6302860">
        <ele>868.9</ele>
        <time>2022-07-26T09:00:07Z</time>
      </trkpt>
      <trkpt lat="45.9057380" lon="5.6303000">
        <ele>869.2</ele>
        <time>2022-07-26T09:00:08Z</time>
      </trkpt>
      <trkpt lat="45.9057070" lon="5.6303130">
        <ele>869.4</ele>
        <time>2022-07-26T09:00:09Z</time>
      </trkpt>
      <trkpt lat="45.9056990" lon="5.6303150">
        <ele>869.5</ele>
        <time>2022-07-26T09:00:10Z</time>
      </trkpt>
      <trkpt lat="45.9056900" lon="5.6303230">
        <ele>869.6</ele>
        <time>2022-07-26T09:00:11Z</time>
      </trkpt>
      <trkpt lat="45.9056590" lon="5.6303420">
        <ele>869.9</ele>
        <time>2022-07-26T09:00:13Z</time>
      </trkpt>
      <trkpt lat="45.9056420" lon="5.6303530">
        <ele>870.0</ele>
        <time>2022-07-26T09:00:14Z</time>
      </trkpt>
      <trkpt lat="45.9056310" lon="5.6303580">
        <ele>870.1</ele>
        <time>2022-07-26T09:00:15Z</time>
      </trkpt>
      <trkpt lat="45.9056170" lon="5.6303660">
        <ele>870.2</ele>
        <time>2022-07-26T09:00:16Z</time>
      </trkpt>
      <trkpt lat="45.9056070" lon="5.6303730">
        <ele>870.3</ele>
        <time>2022-07-26T09:00:17Z</time>
      </trkpt>
      <trkpt lat="45.9056020" lon="5.6303760">
        <ele>870.4</ele>
        <time>2022-07-26T09:00:18Z</time>
      </trkpt>
      <trkpt lat="45.9055960" lon="5.6303800">
        <ele>870.4</ele>
        <time>2022-07-26T09:00:19Z</time>
      </trkpt>
      <trkpt lat="45.9055860" lon="5.6303850">
        <ele>870.5</ele>
        <time>2022-07-26T09:00:21Z</time>
      </trkpt>
      <trkpt lat="45.9055760" lon="5.6303900">
        <ele>870.6</ele>
        <time>2022-07-26T09:00:22Z</time>
      </trkpt>
      <trkpt lat="45.9055660" lon="5.6303980">
        <ele>870.7</ele>
        <time>2022-07-26T09:00:23Z</time>
      </trkpt>
      <trkpt lat="45.9055560" lon="5.6304060">
        <ele>870.8</ele>
        <time>2022-07-26T09:00:24Z</time>
      </trkpt>
      <trkpt lat="45.9055470" lon="5.6304150">
        <ele>870.9</ele>
        <time>2022-07-26T09:00:25Z</time>
      </trkpt>
      <trkpt lat="45.9055330" lon="5.6304250">
        <ele>871.0</ele>
        <time>2022-07-26T09:00:26Z</time>
      </trkpt>
      <trkpt lat="45.9055160" lon="5.6304350">
        <ele>871.1</ele>
        <time>2022-07-26T09:00:28Z</time>
      </trkpt>
      <trkpt lat="45.9054900" lon="5.6304520">
        <ele>871.3</ele>
        <time>2022-07-26T09:00:29Z</time>
      </trkpt>
      <trkpt lat="45.9054640" lon="5.6304670">
        <ele>871.5</ele>
        <time>2022-07-26T09:00:30Z</time>
      </trkpt>
      <trkpt lat="45.9054560" lon="5.6304710">
        <ele>871.6</ele>
        <time>2022-07-26T09:00:31Z</time>
      </trkpt>
      <trkpt lat="45.9054070" lon="5.6304890">
        <ele>872.0</ele>
        <time>2022-07-26T09:00:33Z</time>
      </trkpt>
      <trkpt lat="45.9053730" lon="5.6305140">
        <ele>872.2</ele>
        <time>2022-07-26T09:00:34Z</time>
      </trkpt>
      <trkpt lat="45.9053380" lon="5.6305440">
        <ele>872.6</ele>
        <time>2022-07-26T09:00:35Z</time>
      </trkpt>
      <trkpt lat="45.9053020" lon="5.6305710">
        <ele>872.9</ele>
        <time>2022-07-26T09:00:37Z</time>
      </trkpt>
      <trkpt lat="45.9052760" lon="5.6305920">
        <ele>873.1</ele>
        <time>2022-07-26T09:00:38Z</time>
      </trkpt>
      <trkpt lat="45.9052450" lon="5.6306170">
        <ele>873.4</ele>
        <time>2022-07-26T09:00:39Z</time>
      </trkpt>
      <trkpt lat="45.9052360" lon="5.6306240">
        <ele>873.5</ele>
        <time>2022-07-26T09:00:40Z</time>
      </trkpt>
      <trkpt lat="45.9052090" lon="5.6306400">
        <ele>873.7</ele>
        <time>2022-07-26T09:00:41Z</time>
      </trkpt>
      <trkpt lat="45.9051960" lon="5.6306460">
        <ele>873.9</ele>
        <time>2022-07-26T09:00:42Z</time>
      </trkpt>
      <trkpt lat="45.9051770" lon="5.6306580">
        <ele>874.1</ele>
        <time>2022-07-26T09:00:44Z</time>
      </trkpt>
      <trkpt lat="45.9051680" lon="5.6306780">
        <ele>874.2</ele>
        <time>2022-07-26T09:00:45Z</time>
      </trkpt>
      <trkpt lat="45.9051440" lon="5.6307120">
        <ele>874.5</ele>
        <time>2022-07-26T09:00:47Z</time>
      </trkpt>
      <trkpt lat="45.9051330" lon="5.6307270">
        <ele>874.7</ele>
        <time>2022-07-26T09:00:48Z</time>
      </trkpt>
      <trkpt lat="45.9051280" lon="5.6307360">
        <ele>874.8</ele>
        <time>2022-07-26T09:00:49Z</time>
      </trkpt>
      <trkpt lat="45.9051240" lon="5.6307420">
        <ele>874.8</ele>
        <time>2022-07-26T09:00:50Z</time>
      </trkpt>
      <trkpt lat="45.9051080" lon="5.6307610">
        <ele>875.0</ele>
        <time>2022-07-26T09:00:51Z</time>
      </trkpt>
      <trkpt lat="45.9050970" lon="5.6307680">
        <ele>875.1</ele>
        <time>2022-07-26T09:00:53Z</time>
      </trkpt>
      <trkpt lat="45.9050860" lon="5.6307760">
        <ele>875.2</ele>
        <time>2022-07-26T09:00:54Z</time>
      </trkpt>
      <trkpt lat="45.9050750" lon="5.6307840">
        <ele>875.3</ele>
        <time>2022-07-26T09:00:55Z</time>
      </trkpt>
      <trkpt lat="45.9050640" lon="5.6307920">
        <ele>875.4</ele>
        <time>2022-07-26T09:00:56Z</time>
      </trkpt>
      <trkpt lat="45.9050270" lon="5.6308120">
        <ele>875.6</ele>
        <time>2022-07-26T09:00:57Z</time>
      </trkpt>
      <trkpt lat="45.9050080" lon="5.6308190">
        <ele>875.8</ele>
        <time>2022-07-26T09:00:58Z</time>
      </trkpt>
      <trkpt lat="45.9049750" lon="5.6308360">
        <ele>875.9</ele>
        <time>2022-07-26T09:01:00Z</time>
      </trkpt>
      <trkpt lat="45.9049390" lon="5.6308560">
        <ele>876.1</ele>
        <time>2022-07-26T09:01:01Z</time>
      </trkpt>
      <trkpt lat="45.9049120" lon="5.6308730">
        <ele>876.1</ele>
        <time>2022-07-26T09:01:02Z</time>
      </trkpt>
      <trkpt lat="45.9048890" lon="5.6308900">
        <ele>876.2</ele>
        <time>2022-07-26T09:01:03Z</time>
      </trkpt>
      <trkpt lat="45.9048460" lon="5.6309480">
        <ele>876.1</ele>
        <time>2022-07-26T09:01:05Z</time>
      </trkpt>
      <trkpt lat="45.9048200" lon="5.6309840">
        <ele>876.1</ele>
        <time>2022-07-26T09:01:06Z</time>
      </trkpt>
      <trkpt lat="45.9047980" lon="5.6310160">
        <ele>875.9</ele>
        <time>2022-07-26T09:01:07Z</time>
      </trkpt>
      <trkpt lat="45.9047770" lon="5.6310470">
        <ele>875.7</ele>
        <time>2022-07-26T09:01:08Z</time>
      </trkpt>
      <trkpt lat="45.9047540" lon="5.6310800">
        <ele>875.4</ele>
        <time>2022-07-26T09:01:10Z</time>
      </trkpt>
      <trkpt lat="45.9047350" lon="5.6311170">
        <ele>875.0</ele>
        <time>2022-07-26T09:01:11Z</time>
      </trkpt>
      <trkpt lat="45.9047140" lon="5.6311520">
        <ele>874.7</ele>
        <time>2022-07-26T09:01:12Z</time>
      </trkpt>
      <trkpt lat="45.9047100" lon="5.6311590">
        <ele>874.6</ele>
        <time>2022-07-26T09:01:13Z</time>
      </trkpt>
      <trkpt lat="45.9046930" lon="5.6311940">
        <ele>874.3</ele>
        <time>2022-07-26T09:01:14Z</time>
      </trkpt>
      <trkpt lat="45.9046860" lon="5.6312090">
        <ele>874.1</ele>
        <time>2022-07-26T09:01:15Z</time>
      </trkpt>
      <trkpt lat="45.9046570" lon="5.6312500">
        <ele>873.6</ele>
        <time>2022-07-26T09:01:16Z</time>
      </trkpt>
      <trkpt lat="45.9046450" lon="5.6312660">
        <ele>873.5</ele>
        <time>2022-07-26T09:01:17Z</time>
      </trkpt>
      <trkpt lat="45.9046160" lon="5.6313030">
        <ele>873.0</ele>
        <time>2022-07-26T09:01:18Z</time>
      </trkpt>
      <trkpt lat="45.9045760" lon="5.6313530">
        <ele>872.3</ele>
        <time>2022-07-26T09:01:20Z</time>
      </trkpt>
      <trkpt lat="45.9045380" lon="5.6314150">
        <ele>871.6</ele>
        <time>2022-07-26T09:01:21Z</time>
      </trkpt>
      <trkpt lat="45.9045060" lon="5.6314610">
        <ele>871.1</ele>
        <time>2022-07-26T09:01:22Z</time>
      </trkpt>
      <trkpt lat="45.9044660" lon="5.6315100">
        <ele>870.4</ele>
        <time>2022-07-26T09:01:23Z</time>
      </trkpt>
      <trkpt lat="45.9044420" lon="5.6315400">
        <ele>870.0</ele>
        <time>2022-07-26T09:01:24Z</time>
      </trkpt>
      <trkpt lat="45.9043170" lon="5.6316820">
        <ele>868.2</ele>
        <time>2022-07-26T09:01:25Z</time>
      </trkpt>
      <trkpt lat="45.9042870" lon="5.6317290">
        <ele>867.8</ele>
        <time>2022-07-26T09:01:26Z</time>
      </trkpt>
      <trkpt lat="45.9042670" lon="5.6317750">
        <ele>867.4</ele>
        <time>2022-07-26T09:01:27Z</time>
      </trkpt>
      <trkpt lat="45.9041060" lon="5.6318950">
        <ele>865.5</ele>
        <time>2022-07-26T09:01:29Z</time>
      </trkpt>
      <trkpt lat="45.9040370" lon="5.6319330">
        <ele>864.9</ele>
        <time>2022-07-26T09:01:30Z</time>
      </trkpt>
      <trkpt lat="45.9039730" lon="5.6319750">
        <ele>864.3</ele>
        <time>2022-07-26T09:01:31Z</time>
      </trkpt>
      <trkpt lat="45.9039070" lon="5.6320220">
        <ele>863.7</ele>
        <time>2022-07-26T09:01:32Z</time>
      </trkpt>
      <trkpt lat="45.9038220" lon="5.6320740">
        <ele>863.0</ele>
        <time>2022-07-26T09:01:33Z</time>
      </trkpt>
      <trkpt lat="45.9037410" lon="5.6321240">
        <ele>862.3</ele>
        <time>2022-07-26T09:01:34Z</time>
      </trkpt>
      <trkpt lat="45.9036830" lon="5.6321550">
        <ele>861.9</ele>
        <time>2022-07-26T09:01:35Z</time>
      </trkpt>
      <trkpt lat="45.9036260" lon="5.6322000">
        <ele>861.5</ele>
        <time>2022-07-26T09:01:36Z</time>
      </trkpt>
      <trkpt lat="45.9035650" lon="5.6322460">
        <ele>861.1</ele>
        <time>2022-07-26T09:01:37Z</time>
      </trkpt>
      <trkpt lat="45.9035150" lon="5.6322730">
        <ele>860.7</ele>
        <time>2022-07-26T09:01:38Z</time>
      </trkpt>
      <trkpt lat="45.9034630" lon="5.6323170">
        <ele>860.3</ele>
        <time>2022-07-26T09:01:39Z</time>
      </trkpt>
      <trkpt lat="45.9034180" lon="5.6323450">
        <ele>859.9</ele>
        <time>2022-07-26T09:01:40Z</time>
      </trkpt>
      <trkpt lat="45.9033860" lon="5.6323820">
        <ele>859.6</ele>
        <time>2022-07-26T09:01:41Z</time>
      </trkpt>
      <trkpt lat="45.9033660" lon="5.6323930">
        <ele>859.4</ele>
        <time>2022-07-26T09:01:42Z</time>
      </trkpt>
      <trkpt lat="45.9032930" lon="5.6324520">
        <ele>858.7</ele>
        <time>2022-07-26T09:01:44Z</time>
      </trkpt>
      <trkpt lat="45.9032580" lon="5.6324760">
        <ele>858.4</ele>
        <time>2022-07-26T09:01:45Z</time>
      </trkpt>
      <trkpt lat="45.9032080" lon="5.6325110">
        <ele>857.8</ele>
        <time>2022-07-26T09:01:46Z</time>
      </trkpt>
      <trkpt lat="45.9031630" lon="5.6325520">
        <ele>857.1</ele>
        <time>2022-07-26T09:01:47Z</time>
      </trkpt>
      <trkpt lat="45.9031250" lon="5.6325930">
        <ele>856.5</ele>
        <time>2022-07-26T09:01:48Z</time>
      </trkpt>
      <trkpt lat="45.9030570" lon="5.6326400">
        <ele>855.6</ele>
        <time>2022-07-26T09:01:50Z</time>
      </trkpt>
      <trkpt lat="45.9029960" lon="5.6326810">
        <ele>854.8</ele>
        <time>2022-07-26T09:01:51Z</time>
      </trkpt>
      <trkpt lat="45.9029570" lon="5.6327090">
        <ele>854.3</ele>
        <time>2022-07-26T09:01:52Z</time>
      </trkpt>
      <trkpt lat="45.9029190" lon="5.6327330">
        <ele>853.8</ele>
        <time>2022-07-26T09:01:54Z</time>
      </trkpt>
      <trkpt lat="45.9028870" lon="5.6327570">
        <ele>853.3</ele>
        <time>2022-07-26T09:01:55Z</time>
      </trkpt>
      <trkpt lat="45.9028490" lon="5.6328040">
        <ele>852.7</ele>
        <time>2022-07-26T09:01:57Z</time>
      </trkpt>
      <trkpt lat="45.9028370" lon="5.6328190">
        <ele>852.5</ele>
        <time>2022-07-26T09:01:58Z</time>
      </trkpt>
      <trkpt lat="45.9028260" lon="5.6328340">
        <ele>852.3</ele>
        <time>2022-07-26T09:01:59Z</time>
      </trkpt>
      <trkpt lat="45.9028030" lon="5.6328620">
        <ele>851.9</ele>
        <time>2022-07-26T09:02:00Z</time>
      </trkpt>
      <trkpt lat="45.9027640" lon="5.6329070">
        <ele>851.1</ele>
        <time>2022-07-26T09:02:01Z</time>
      </trkpt>
      <trkpt lat="45.9027210" lon="5.6329580">
        <ele>850.3</ele>
        <time>2022-07-26T09:02:03Z</time>
      </trkpt>
      <trkpt lat="45.9025920" lon="5.6330700">
        <ele>848.3</ele>
        <time>2022-07-26T09:02:04Z</time>
      </trkpt>
      <trkpt lat="45.9025290" lon="5.6330960">
        <ele>847.5</ele>
        <time>2022-07-26T09:02:05Z</time>
      </trkpt>
      <trkpt lat="45.9024630" lon="5.6331150">
        <ele>846.9</ele>
        <time>2022-07-26T09:02:06Z</time>
      </trkpt>
      <trkpt lat="45.9023980" lon="5.6331430">
        <ele>846.3</ele>
        <time>2022-07-26T09:02:07Z</time>
      </trkpt>
      <trkpt lat="45.9023440" lon="5.6331690">
        <ele>845.9</ele>
        <time>2022-07-26T09:02:08Z</time>
      </trkpt>
      <trkpt lat="45.9022860" lon="5.6331810">
        <ele>845.6</ele>
        <time>2022-07-26T09:02:09Z</time>
      </trkpt>
      <trkpt lat="45.9022160" lon="5.6332060">
        <ele>845.3</ele>
        <time>2022-07-26T09:02:10Z</time>
      </trkpt>
      <trkpt lat="45.9021590" lon="5.6332250">
        <ele>845.1</ele>
        <time>2022-07-26T09:02:11Z</time>
      </trkpt>
      <trkpt lat="45.9021120" lon="5.6332440">
        <ele>845.0</ele>
        <time>2022-07-26T09:02:12Z</time>
      </trkpt>
      <trkpt lat="45.9020660" lon="5.6332700">
        <ele>844.9</ele>
        <time>2022-07-26T09:02:13Z</time>
      </trkpt>
      <trkpt lat="45.9020230" lon="5.6332900">
        <ele>844.8</ele>
        <time>2022-07-26T09:02:14Z</time>
      </trkpt>
      <trkpt lat="45.9019960" lon="5.6333000">
        <ele>844.7</ele>
        <time>2022-07-26T09:02:15Z</time>
      </trkpt>
      <trkpt lat="45.9019420" lon="5.6333190">
        <ele>844.6</ele>
        <time>2022-07-26T09:02:16Z</time>
      </trkpt>
      <trkpt lat="45.9018820" lon="5.6333370">
        <ele>844.5</ele>
        <time>2022-07-26T09:02:17Z</time>
      </trkpt>
      <trkpt lat="45.9018310" lon="5.6333530">
        <ele>844.4</ele>
        <time>2022-07-26T09:02:18Z</time>
      </trkpt>
      <trkpt lat="45.9017790" lon="5.6333660">
        <ele>844.3</ele>
        <time>2022-07-26T09:02:19Z</time>
      </trkpt>
      <trkpt lat="45.9017330" lon="5.6333850">
        <ele>844.3</ele>
        <time>2022-07-26T09:02:20Z</time>
      </trkpt>
      <trkpt lat="45.9016950" lon="5.6334020">
        <ele>844.3</ele>
        <time>2022-07-26T09:02:21Z</time>
      </trkpt>
      <trkpt lat="45.9016780" lon="5.6334270">
        <ele>844.3</ele>
        <time>2022-07-26T09:02:22Z</time>
      </trkpt>
      <trkpt lat="45.9016640" lon="5.6334440">
        <ele>844.3</ele>
        <time>2022-07-26T09:02:23Z</time>
      </trkpt>
      <trkpt lat="45.9016150" lon="5.6334740">
        <ele>844.3</ele>
        <time>2022-07-26T09:02:24Z</time>
      </trkpt>
      <trkpt lat="45.9015680" lon="5.6334910">
        <ele>844.3</ele>
        <time>2022-07-26T09:02:26Z</time>
      </trkpt>
      <trkpt lat="45.9015270" lon="5.6334950">
        <ele>844.3</ele>
        <time>2022-07-26T09:02:27Z</time>
      </trkpt>
      <trkpt lat="45.9014930" lon="5.6335030">
        <ele>844.4</ele>
        <time>2022-07-26T09:02:28Z</time>
      </trkpt>
      <trkpt lat="45.9014590" lon="5.6335100">
        <ele>844.4</ele>
        <time>2022-07-26T09:02:30Z</time>
      </trkpt>
      <trkpt lat="45.9014190" lon="5.6335170">
        <ele>844.4</ele>
        <time>2022-07-26T09:02:31Z</time>
      </trkpt>
      <trkpt lat="45.9013840" lon="5.6335180">
        <ele>844.4</ele>
        <time>2022-07-26T09:02:32Z</time>
      </trkpt>
      <trkpt lat="45.9013560" lon="5.6335160">
        <ele>844.4</ele>
        <time>2022-07-26T09:02:33Z</time>
      </trkpt>
      <trkpt lat="45.9013170" lon="5.6335180">
        <ele>844.4</ele>
        <time>2022-07-26T09:02:34Z</time>
      </trkpt>
      <trkpt lat="45.9012840" lon="5.6335260">
        <ele>844.3</ele>
        <time>2022-07-26T09:02:36Z</time>
      </trkpt>
      <trkpt lat="45.9012470" lon="5.6335400">
        <ele>844.2</ele>
        <time>2022-07-26T09:02:37Z</time>
      </trkpt>
      <trkpt lat="45.9012080" lon="5.6335630">
        <ele>844.0</ele>
        <time>2022-07-26T09:02:38Z</time>
      </trkpt>
      <trkpt lat="45.9011580" lon="5.6335890">
        <ele>843.7</ele>
        <time>2022-07-26T09:02:40Z</time>
      </trkpt>
      <trkpt lat="45.9011240" lon="5.6336230">
        <ele>843.5</ele>
        <time>2022-07-26T09:02:41Z</time>
      </trkpt>
      <trkpt lat="45.9010930" lon="5.6336540">
        <ele>843.2</ele>
        <time>2022-07-26T09:02:42Z</time>
      </trkpt>
      <trkpt lat="45.9010630" lon="5.6336800">
        <ele>842.9</ele>
        <time>2022-07-26T09:02:43Z</time>
      </trkpt>
      <trkpt lat="45.9010540" lon="5.6336860">
        <ele>842.9</ele>
        <time>2022-07-26T09:02:44Z</time>
      </trkpt>
      <trkpt lat="45.9010360" lon="5.6336970">
        <ele>842.7</ele>
        <time>2022-07-26T09:02:45Z</time>
      </trkpt>
      <trkpt lat="45.9010170" lon="5.6337030">
        <ele>842.6</ele>
        <time>2022-07-26T09:02:47Z</time>
      </trkpt>
      <trkpt lat="45.9009820" lon="5.6337130">
        <ele>842.3</ele>
        <time>2022-07-26T09:02:48Z</time>
      </trkpt>
      <trkpt lat="45.9009370" lon="5.6337260">
        <ele>841.9</ele>
        <time>2022-07-26T09:02:49Z</time>
      </trkpt>
      <trkpt lat="45.9008890" lon="5.6337490">
        <ele>841.6</ele>
        <time>2022-07-26T09:02:51Z</time>
      </trkpt>
      <trkpt lat="45.9007840" lon="5.6337710">
        <ele>841.1</ele>
        <time>2022-07-26T09:02:52Z</time>
      </trkpt>
      <trkpt lat="45.9007380" lon="5.6337790">
        <ele>840.9</ele>
        <time>2022-07-26T09:02:53Z</time>
      </trkpt>
      <trkpt lat="45.9006880" lon="5.6338010">
        <ele>840.8</ele>
        <time>2022-07-26T09:02:54Z</time>
      </trkpt>
      <trkpt lat="45.9006460" lon="5.6338250">
        <ele>840.7</ele>
        <time>2022-07-26T09:02:55Z</time>
      </trkpt>
      <trkpt lat="45.9006090" lon="5.6338160">
        <ele>840.6</ele>
        <time>2022-07-26T09:02:56Z</time>
      </trkpt>
      <trkpt lat="45.9005850" lon="5.6337900">
        <ele>840.5</ele>
        <time>2022-07-26T09:02:57Z</time>
      </trkpt>
      <trkpt lat="45.9005520" lon="5.6338090">
        <ele>840.3</ele>
        <time>2022-07-26T09:02:58Z</time>
      </trkpt>
      <trkpt lat="45.9005010" lon="5.6338440">
        <ele>840.0</ele>
        <time>2022-07-26T09:03:00Z</time>
      </trkpt>
      <trkpt lat="45.9004450" lon="5.6338810">
        <ele>839.7</ele>
        <time>2022-07-26T09:03:01Z</time>
      </trkpt>
      <trkpt lat="45.9004050" lon="5.6339080">
        <ele>839.5</ele>
        <time>2022-07-26T09:03:02Z</time>
      </trkpt>
      <trkpt lat="45.9003780" lon="5.6339210">
        <ele>839.3</ele>
        <time>2022-07-26T09:03:03Z</time>
      </trkpt>
      <trkpt lat="45.9003370" lon="5.6339370">
        <ele>839.1</ele>
        <time>2022-07-26T09:03:04Z</time>
      </trkpt>
      <trkpt lat="45.9003000" lon="5.6339560">
        <ele>838.9</ele>
        <time>2022-07-26T09:03:05Z</time>
      </trkpt>
      <trkpt lat="45.9002650" lon="5.6339610">
        <ele>838.6</ele>
        <time>2022-07-26T09:03:06Z</time>
      </trkpt>
      <trkpt lat="45.9002300" lon="5.6339610">
        <ele>838.4</ele>
        <time>2022-07-26T09:03:07Z</time>
      </trkpt>
      <trkpt lat="45.9001930" lon="5.6339640">
        <ele>838.0</ele>
        <time>2022-07-26T09:03:08Z</time>
      </trkpt>
      <trkpt lat="45.9001600" lon="5.6339750">
        <ele>837.7</ele>
        <time>2022-07-26T09:03:09Z</time>
      </trkpt>
      <trkpt lat="45.9001040" lon="5.6339940">
        <ele>837.0</ele>
        <time>2022-07-26T09:03:11Z</time>
      </trkpt>
      <trkpt lat="45.9000770" lon="5.6340140">
        <ele>836.6</ele>
        <time>2022-07-26T09:03:12Z</time>
      </trkpt>
      <trkpt lat="45.9000140" lon="5.6340510">
        <ele>835.5</ele>
        <time>2022-07-26T09:03:13Z</time>
      </trkpt>
      <trkpt lat="45.8999700" lon="5.6340660">
        <ele>834.7</ele>
        <time>2022-07-26T09:03:14Z</time>
      </trkpt>
      <trkpt lat="45.8999320" lon="5.6340740">
        <ele>833.9</ele>
        <time>2022-07-26T09:03:15Z</time>
      </trkpt>
      <trkpt lat="45.8999000" lon="5.6340620">
        <ele>833.0</ele>
        <time>2022-07-26T09:03:16Z</time>
      </trkpt>
      <trkpt lat="45.8998810" lon="5.6340490">
        <ele>832.5</ele>
        <time>2022-07-26T09:03:17Z</time>
      </trkpt>
      <trkpt lat="45.8998180" lon="5.6340600">
        <ele>830.8</ele>
        <time>2022-07-26T09:03:18Z</time>
      </trkpt>
      <trkpt lat="45.8997630" lon="5.6340830">
        <ele>829.3</ele>
        <time>2022-07-26T09:03:20Z</time>
      </trkpt>
      <trkpt lat="45.8996850" lon="5.6341150">
        <ele>827.2</ele>
        <time>2022-07-26T09:03:21Z</time>
      </trkpt>
      <trkpt lat="45.8996090" lon="5.6341610">
        <ele>825.4</ele>
        <time>2022-07-26T09:03:22Z</time>
      </trkpt>
      <trkpt lat="45.8995310" lon="5.6341980">
        <ele>823.5</ele>
        <time>2022-07-26T09:03:23Z</time>
      </trkpt>
      <trkpt lat="45.8994190" lon="5.6342420">
        <ele>820.7</ele>
        <time>2022-07-26T09:03:24Z</time>
      </trkpt>
      <trkpt lat="45.8993270" lon="5.6342650">
        <ele>818.4</ele>
        <time>2022-07-26T09:03:25Z</time>
      </trkpt>
      <trkpt lat="45.8992380" lon="5.6342900">
        <ele>816.3</ele>
        <time>2022-07-26T09:03:26Z</time>
      </trkpt>
      <trkpt lat="45.8991550" lon="5.6343040">
        <ele>814.5</ele>
        <time>2022-07-26T09:03:27Z</time>
      </trkpt>
      <trkpt lat="45.8990740" lon="5.6343080">
        <ele>812.8</ele>
        <time>2022-07-26T09:03:28Z</time>
      </trkpt>
      <trkpt lat="45.8989850" lon="5.6343350">
        <ele>810.9</ele>
        <time>2022-07-26T09:03:29Z</time>
      </trkpt>
      <trkpt lat="45.8989100" lon="5.6343640">
        <ele>809.4</ele>
        <time>2022-07-26T09:03:30Z</time>
      </trkpt>
      <trkpt lat="45.8988420" lon="5.6343930">
        <ele>808.0</ele>
        <time>2022-07-26T09:03:31Z</time>
      </trkpt>
      <trkpt lat="45.8987730" lon="5.6344220">
        <ele>806.6</ele>
        <time>2022-07-26T09:03:32Z</time>
      </trkpt>
      <trkpt lat="45.8987150" lon="5.6344400">
        <ele>805.5</ele>
        <time>2022-07-26T09:03:33Z</time>
      </trkpt>
      <trkpt lat="45.8986680" lon="5.6344550">
        <ele>804.6</ele>
        <time>2022-07-26T09:03:34Z</time>
      </trkpt>
      <trkpt lat="45.8986290" lon="5.6344730">
        <ele>803.9</ele>
        <time>2022-07-26T09:03:35Z</time>
      </trkpt>
      <trkpt lat="45.8985940" lon="5.6344970">
        <ele>803.2</ele>
        <time>2022-07-26T09:03:36Z</time>
      </trkpt>
      <trkpt lat="45.8985520" lon="5.6345300">
        <ele>802.3</ele>
        <time>2022-07-26T09:03:37Z</time>
      </trkpt>
      <trkpt lat="45.8985120" lon="5.6345600">
        <ele>801.4</ele>
        <time>2022-07-26T09:03:38Z</time>
      </trkpt>
      <trkpt lat="45.8984810" lon="5.6345810">
        <ele>800.8</ele>
        <time>2022-07-26T09:03:39Z</time>
      </trkpt>
      <trkpt lat="45.8984530" lon="5.6345980">
        <ele>800.1</ele>
        <time>2022-07-26T09:03:40Z</time>
      </trkpt>
      <trkpt lat="45.8984300" lon="5.6345720">
        <ele>799.6</ele>
        <time>2022-07-26T09:03:41Z</time>
      </trkpt>
      <trkpt lat="45.8984240" lon="5.6345610">
        <ele>799.4</ele>
        <time>2022-07-26T09:03:42Z</time>
      </trkpt>
      <trkpt lat="45.8984080" lon="5.6345700">
        <ele>798.7</ele>
        <time>2022-07-26T09:03:44Z</time>
      </trkpt>
      <trkpt lat="45.8983920" lon="5.6345840">
        <ele>798.5</ele>
        <time>2022-07-26T09:03:45Z</time>
      </trkpt>
      <trkpt lat="45.8983720" lon="5.6346010">
        <ele>798.2</ele>
        <time>2022-07-26T09:03:46Z</time>
      </trkpt>
      <trkpt lat="45.8983490" lon="5.6346160">
        <ele>797.9</ele>
        <time>2022-07-26T09:03:48Z</time>
      </trkpt>
      <trkpt lat="45.8983390" lon="5.6346230">
        <ele>797.8</ele>
        <time>2022-07-26T09:03:49Z</time>
      </trkpt>
      <trkpt lat="45.8983350" lon="5.6346250">
        <ele>797.7</ele>
        <time>2022-07-26T09:03:50Z</time>
      </trkpt>
      <trkpt lat="45.8983370" lon="5.6346240">
        <ele>797.7</ele>
        <time>2022-07-26T09:03:51Z</time>
      </trkpt>
      <trkpt lat="45.8983380" lon="5.6346220">
        <ele>797.7</ele>
        <time>2022-07-26T09:03:52Z</time>
      </trkpt>
      <trkpt lat="45.8983380" lon="5.6346200">
        <ele>797.6</ele>
        <time>2022-07-26T09:03:53Z</time>
      </trkpt>
      <trkpt lat="45.8983380" lon="5.6346180">
        <ele>797.6</ele>
        <time>2022-07-26T09:03:54Z</time>
      </trkpt>
      <trkpt lat="45.8983380" lon="5.6346160">
        <ele>797.6</ele>
        <time>2022-07-26T09:03:55Z</time>
      </trkpt>
      <trkpt lat="45.8983390" lon="5.6346150">
        <ele>797.6</ele>
        <time>2022-07-26T09:03:56Z</time>
      </trkpt>
      <trkpt lat="45.8983380" lon="5.6346140">
        <ele>797.6</ele>
        <time>2022-07-26T09:03:57Z</time>
      </trkpt>
      <trkpt lat="45.8983370" lon="5.6346140">
        <ele>797.6</ele>
        <time>2022-07-26T09:03:58Z</time>
      </trkpt>
      <trkpt lat="45.8983370" lon="5.6346130">
        <ele>797.6</ele>
        <time>2022-07-26T09:03:59Z</time>
      </trkpt>
      <trkpt lat="45.8983220" lon="5.6346240">
        <ele>797.3</ele>
        <time>2022-07-26T09:05:42Z</time>
      </trkpt>
      <trkpt lat="45.8983160" lon="5.6346370">
        <ele>797.2</ele>
        <time>2022-07-26T09:05:43Z</time>
      </trkpt>
      <trkpt lat="45.8983140" lon="5.6346490">
        <ele>797.0</ele>
        <time>2022-07-26T09:05:44Z</time>
      </trkpt>
      <trkpt lat="45.8983150" lon="5.6346570">
        <ele>797.0</ele>
        <time>2022-07-26T09:05:45Z</time>
      </trkpt>
      <trkpt lat="45.8983200" lon="5.6346520">
        <ele>796.9</ele>
        <time>2022-07-26T09:05:46Z</time>
      </trkpt>
      <trkpt lat="45.8983250" lon="5.6346430">
        <ele>796.8</ele>
        <time>2022-07-26T09:05:47Z</time>
      </trkpt>
      <trkpt lat="45.8983270" lon="5.6346370">
        <ele>796.7</ele>
        <time>2022-07-26T09:05:48Z</time>
      </trkpt>
      <trkpt lat="45.8983290" lon="5.6346350">
        <ele>796.7</ele>
        <time>2022-07-26T09:05:49Z</time>
      </trkpt>
      <trkpt lat="45.8983300" lon="5.6346340">
        <ele>796.7</ele>
        <time>2022-07-26T09:05:50Z</time>
      </trkpt>
      <trkpt lat="45.8983310" lon="5.6346370">
        <ele>796.6</ele>
        <time>2022-07-26T09:05:51Z</time>
      </trkpt>
      <trkpt lat="45.8983310" lon="5.6346400">
        <ele>796.6</ele>
        <time>2022-07-26T09:05:52Z</time>
      </trkpt>
      <trkpt lat="45.8983300" lon="5.6346430">
        <ele>796.6</ele>
        <time>2022-07-26T09:05:53Z</time>
      </trkpt>
      <trkpt lat="45.8983260" lon="5.6346460">
        <ele>796.5</ele>
        <time>2022-07-26T09:05:54Z</time>
      </trkpt>
      <trkpt lat="45.8983220" lon="5.6346510">
        <ele>796.4</ele>
        <time>2022-07-26T09:05:55Z</time>
      </trkpt>
      <trkpt lat="45.8983200" lon="5.6346560">
        <ele>796.4</ele>
        <time>2022-07-26T09:05:56Z</time>
      </trkpt>
      <trkpt lat="45.8983200" lon="5.6346580">
        <ele>796.4</ele>
        <time>2022-07-26T09:05:57Z</time>
      </trkpt>
      <trkpt lat="45.8983200" lon="5.6346570">
        <ele>796.3</ele>
        <time>2022-07-26T09:05:58Z</time>
      </trkpt>
      <trkpt lat="45.8983210" lon="5.6346560">
        <ele>796.3</ele>
        <time>2022-07-26T09:05:59Z</time>
      </trkpt>
      <trkpt lat="45.8983220" lon="5.6346550">
        <ele>796.3</ele>
        <time>2022-07-26T09:06:00Z</time>
      </trkpt>
      <trkpt lat="45.8983220" lon="5.6346550">
        <ele>796.3</ele>
        <time>2022-07-26T09:06:01Z</time>
      </trkpt>
      <trkpt lat="45.8983230" lon="5.6346550">
        <ele>796.3</ele>
        <time>2022-07-26T09:06:02Z</time>
      </trkpt>
      <trkpt lat="45.8983240" lon="5.6346550">
        <ele>796.3</ele>
        <time>2022-07-26T09:06:03Z</time>
      </trkpt>
      <trkpt lat="45.8983240" lon="5.6346550">
        <ele>796.3</ele>
        <time>2022-07-26T09:06:04Z</time>
      </trkpt>
      <trkpt lat="45.8983230" lon="5.6346550">
        <ele>796.3</ele>
        <time>2022-07-26T09:06:05Z</time>
      </trkpt>
      <trkpt lat="45.8983230" lon="5.6346550">
        <ele>796.3</ele>
        <time>2022-07-26T09:06:06Z</time>
      </trkpt>
      <trkpt lat="45.8982950" lon="5.6346320">
        <ele>795.9</ele>
        <time>2022-07-26T09:06:51Z</time>
      </trkpt>
      <trkpt lat="45.8982930" lon="5.6346240">
        <ele>795.8</ele>
        <time>2022-07-26T09:06:52Z</time>
      </trkpt>
      <trkpt lat="45.8982930" lon="5.6346220">
        <ele>795.8</ele>
        <time>2022-07-26T09:06:53Z</time>
      </trkpt>
      <trkpt lat="45.8982930" lon="5.6346230">
        <ele>795.8</ele>
        <time>2022-07-26T09:06:54Z</time>
      </trkpt>
      <trkpt lat="45.8982910" lon="5.6346230">
        <ele>795.8</ele>
        <time>2022-07-26T09:06:55Z</time>
      </trkpt>
      <trkpt lat="45.8982920" lon="5.6346270">
        <ele>795.8</ele>
        <time>2022-07-26T09:06:56Z</time>
      </trkpt>
      <trkpt lat="45.8982930" lon="5.6346320">
        <ele>795.7</ele>
        <time>2022-07-26T09:06:57Z</time>
      </trkpt>
      <trkpt lat="45.8982920" lon="5.6346330">
        <ele>795.7</ele>
        <time>2022-07-26T09:06:58Z</time>
      </trkpt>
      <trkpt lat="45.8982900" lon="5.6346320">
        <ele>795.7</ele>
        <time>2022-07-26T09:06:59Z</time>
      </trkpt>
      <trkpt lat="45.8982870" lon="5.6346310">
        <ele>795.7</ele>
        <time>2022-07-26T09:07:00Z</time>
      </trkpt>
      <trkpt lat="45.8982860" lon="5.6346300">
        <ele>795.7</ele>
        <time>2022-07-26T09:07:01Z</time>
      </trkpt>
      <trkpt lat="45.8982840" lon="5.6346300">
        <ele>795.6</ele>
        <time>2022-07-26T09:07:02Z</time>
      </trkpt>
      <trkpt lat="45.8982830" lon="5.6346320">
        <ele>795.6</ele>
        <time>2022-07-26T09:07:03Z</time>
      </trkpt>
      <trkpt lat="45.8983100" lon="5.6346910">
        <ele>795.2</ele>
        <time>2022-07-26T09:10:48Z</time>
      </trkpt>
      <trkpt lat="45.8983100" lon="5.6346920">
        <ele>795.2</ele>
        <time>2022-07-26T09:10:49Z</time>
      </trkpt>
      <trkpt lat="45.8983090" lon="5.6346930">
        <ele>795.2</ele>
        <time>2022-07-26T09:10:50Z</time>
      </trkpt>
      <trkpt lat="45.8983170" lon="5.6346950">
        <ele>795.1</ele>
        <time>2022-07-26T09:10:51Z</time>
      </trkpt>
      <trkpt lat="45.8983220" lon="5.6346900">
        <ele>795.1</ele>
        <time>2022-07-26T09:10:52Z</time>
      </trkpt>
      <trkpt lat="45.8983270" lon="5.6346840">
        <ele>795.1</ele>
        <time>2022-07-26T09:10:53Z</time>
      </trkpt>
      <trkpt lat="45.8983310" lon="5.6346800">
        <ele>795.0</ele>
        <time>2022-07-26T09:10:54Z</time>
      </trkpt>
      <trkpt lat="45.8983350" lon="5.6346760">
        <ele>795.0</ele>
        <time>2022-07-26T09:10:55Z</time>
      </trkpt>
      <trkpt lat="45.8983370" lon="5.6346730">
        <ele>795.0</ele>
        <time>2022-07-26T09:10:56Z</time>
      </trkpt>
      <trkpt lat="45.8983390" lon="5.6346700">
        <ele>794.9</ele>
        <time>2022-07-26T09:10:57Z</time>
      </trkpt>
      <trkpt lat="45.8983410" lon="5.6346690">
        <ele>794.9</ele>
        <time>2022-07-26T09:10:58Z</time>
      </trkpt>
      <trkpt lat="45.8983430" lon="5.6346680">
        <ele>794.9</ele>
        <time>2022-07-26T09:10:59Z</time>
      </trkpt>
      <trkpt lat="45.8983450" lon="5.6346670">
        <ele>794.9</ele>
        <time>2022-07-26T09:11:00Z</time>
      </trkpt>
      <trkpt lat="45.8983470" lon="5.6346660">
        <ele>794.9</ele>
        <time>2022-07-26T09:11:01Z</time>
      </trkpt>
      <trkpt lat="45.8983480" lon="5.6346650">
        <ele>794.9</ele>
        <time>2022-07-26T09:11:02Z</time>
      </trkpt>
      <trkpt lat="45.8983490" lon="5.6346640">
        <ele>794.9</ele>
        <time>2022-07-26T09:11:03Z</time>
      </trkpt>
      <trkpt lat="45.8983520" lon="5.6346640">
        <ele>794.9</ele>
        <time>2022-07-26T09:11:04Z</time>
      </trkpt>
      <trkpt lat="45.8983660" lon="5.6346660">
        <ele>794.8</ele>
        <time>2022-07-26T09:11:06Z</time>
      </trkpt>
      <trkpt lat="45.8983740" lon="5.6346670">
        <ele>794.7</ele>
        <time>2022-07-26T09:11:07Z</time>
      </trkpt>
      <trkpt lat="45.8983780" lon="5.6346660">
        <ele>794.7</ele>
        <time>2022-07-26T09:11:08Z</time>
      </trkpt>
      <trkpt lat="45.8983800" lon="5.6346640">
        <ele>794.7</ele>
        <time>2022-07-26T09:11:09Z</time>
      </trkpt>
      <trkpt lat="45.8983800" lon="5.6346640">
        <ele>794.7</ele>
        <time>2022-07-26T09:11:10Z</time>
      </trkpt>
      <trkpt lat="45.8983800" lon="5.6346650">
        <ele>794.7</ele>
        <time>2022-07-26T09:11:11Z</time>
      </trkpt>
      <trkpt lat="45.8983790" lon="5.6346650">
        <ele>794.7</ele>
        <time>2022-07-26T09:11:12Z</time>
      </trkpt>
      <trkpt lat="45.8983790" lon="5.6346650">
        <ele>794.7</ele>
        <time>2022-07-26T09:11:13Z</time>
      </trkpt>
      <trkpt lat="45.8983790" lon="5.6346650">
        <ele>794.7</ele>
        <time>2022-07-26T09:11:14Z</time>
      </trkpt>
      <trkpt lat="45.8983790" lon="5.6346650">
        <ele>794.7</ele>
        <time>2022-07-26T09:11:15Z</time>
      </trkpt>
      <trkpt lat="45.8983790" lon="5.6346650">
        <ele>794.7</ele>
        <time>2022-07-26T09:11:16Z</time>
      </trkpt>
      <trkpt lat="45.8983790" lon="5.6346650">
        <ele>794.7</ele>
        <time>2022-07-26T09:11:17Z</time>
      </trkpt>
      <trkpt lat="45.8983790" lon="5.6346660">
        <ele>794.7</ele>
        <time>2022-07-26T09:11:18Z</time>
      </trkpt>
      <trkpt lat="45.8983790" lon="5.6346660">
        <ele>794.7</ele>
        <time>2022-07-26T09:11:19Z</time>
      </trkpt>
      <trkpt lat="45.8984130" lon="5.6347330">
        <ele>794.4</ele>
        <time>2022-07-26T09:11:40Z</time>
      </trkpt>
      <trkpt lat="45.8984230" lon="5.6347460">
        <ele>794.3</ele>
        <time>2022-07-26T09:11:41Z</time>
      </trkpt>
      <trkpt lat="45.8984280" lon="5.6347550">
        <ele>794.3</ele>
        <time>2022-07-26T09:11:42Z</time>
      </trkpt>
      <trkpt lat="45.8984330" lon="5.6347600">
        <ele>794.3</ele>
        <time>2022-07-26T09:11:43Z</time>
      </trkpt>
      <trkpt lat="45.8984360" lon="5.6347620">
        <ele>794.2</ele>
        <time>2022-07-26T09:11:44Z</time>
      </trkpt>
      <trkpt lat="45.8984410" lon="5.6347630">
        <ele>794.2</ele>
        <time>2022-07-26T09:11:45Z</time>
      </trkpt>
      <trkpt lat="45.8984460" lon="5.6347630">
        <ele>794.2</ele>
        <time>2022-07-26T09:11:46Z</time>
      </trkpt>
      <trkpt lat="45.8984500" lon="5.6347670">
        <ele>794.2</ele>
        <time>2022-07-26T09:11:47Z</time>
      </trkpt>
      <trkpt lat="45.8984520" lon="5.6347690">
        <ele>794.2</ele>
        <time>2022-07-26T09:11:48Z</time>
      </trkpt>
      <trkpt lat="45.8984520" lon="5.6347600">
        <ele>794.2</ele>
        <time>2022-07-26T09:11:49Z</time>
      </trkpt>
      <trkpt lat="45.8984510" lon="5.6347530">
        <ele>794.1</ele>
        <time>2022-07-26T09:11:50Z</time>
      </trkpt>
      <trkpt lat="45.8984500" lon="5.6347470">
        <ele>794.1</ele>
        <time>2022-07-26T09:11:51Z</time>
      </trkpt>
      <trkpt lat="45.8984500" lon="5.6347430">
        <ele>794.1</ele>
        <time>2022-07-26T09:11:52Z</time>
      </trkpt>
      <trkpt lat="45.8984490" lon="5.6347420">
        <ele>794.1</ele>
        <time>2022-07-26T09:11:53Z</time>
      </trkpt>
      <trkpt lat="45.8984490" lon="5.6347410">
        <ele>794.1</ele>
        <time>2022-07-26T09:11:54Z</time>
      </trkpt>
      <trkpt lat="45.8984490" lon="5.6347410">
        <ele>794.1</ele>
        <time>2022-07-26T09:11:55Z</time>
      </trkpt>
      <trkpt lat="45.8984490" lon="5.6347410">
        <ele>794.1</ele>
        <time>2022-07-26T09:11:56Z</time>
      </trkpt>
      <trkpt lat="45.8984490" lon="5.6347420">
        <ele>794.1</ele>
        <time>2022-07-26T09:11:57Z</time>
      </trkpt>
      <trkpt lat="45.8984500" lon="5.6347420">
        <ele>794.1</ele>
        <time>2022-07-26T09:11:58Z</time>
      </trkpt>
      <trkpt lat="45.8984500" lon="5.6347420">
        <ele>794.1</ele>
        <time>2022-07-26T09:11:59Z</time>
      </trkpt>
      <trkpt lat="45.8984500" lon="5.6347430">
        <ele>794.1</ele>
        <time>2022-07-26T09:12:00Z</time>
      </trkpt>
      <trkpt lat="45.8984510" lon="5.6347430">
        <ele>794.1</ele>
        <time>2022-07-26T09:12:01Z</time>
      </trkpt>
      <trkpt lat="45.8984510" lon="5.6347440">
        <ele>794.1</ele>
        <time>2022-07-26T09:12:02Z</time>
      </trkpt>
      <trkpt lat="45.8984350" lon="5.6346900">
        <ele>794.0</ele>
        <time>2022-07-26T09:13:02Z</time>
      </trkpt>
      <trkpt lat="45.8984330" lon="5.6346840">
        <ele>794.0</ele>
        <time>2022-07-26T09:13:03Z</time>
      </trkpt>
      <trkpt lat="45.8984320" lon="5.6346760">
        <ele>793.9</ele>
        <time>2022-07-26T09:13:04Z</time>
      </trkpt>
      <trkpt lat="45.8984300" lon="5.6346700">
        <ele>793.9</ele>
        <time>2022-07-26T09:13:05Z</time>
      </trkpt>
      <trkpt lat="45.8984290" lon="5.6346660">
        <ele>793.9</ele>
        <time>2022-07-26T09:13:06Z</time>
      </trkpt>
      <trkpt lat="45.8984280" lon="5.6346640">
        <ele>793.9</ele>
        <time>2022-07-26T09:13:07Z</time>
      </trkpt>
      <trkpt lat="45.8984270" lon="5.6346620">
        <ele>793.9</ele>
        <time>2022-07-26T09:13:08Z</time>
      </trkpt>
      <trkpt lat="45.8984290" lon="5.6346580">
        <ele>793.9</ele>
        <time>2022-07-26T09:13:09Z</time>
      </trkpt>
      <trkpt lat="45.8984280" lon="5.6346540">
        <ele>793.9</ele>
        <time>2022-07-26T09:13:10Z</time>
      </trkpt>
      <trkpt lat="45.8984280" lon="5.6346500">
        <ele>793.9</ele>
        <time>2022-07-26T09:13:11Z</time>
      </trkpt>
      <trkpt lat="45.8984290" lon="5.6346500">
        <ele>793.9</ele>
        <time>2022-07-26T09:13:12Z</time>
      </trkpt>
      <trkpt lat="45.8984320" lon="5.6346490">
        <ele>793.9</ele>
        <time>2022-07-26T09:13:13Z</time>
      </trkpt>
      <trkpt lat="45.8984350" lon="5.6346470">
        <ele>793.9</ele>
        <time>2022-07-26T09:13:14Z</time>
      </trkpt>
      <trkpt lat="45.8984370" lon="5.6346420">
        <ele>793.9</ele>
        <time>2022-07-26T09:13:15Z</time>
      </trkpt>
      <trkpt lat="45.8984420" lon="5.6346400">
        <ele>793.8</ele>
        <time>2022-07-26T09:13:16Z</time>
      </trkpt>
      <trkpt lat="45.8984470" lon="5.6346390">
        <ele>793.8</ele>
        <time>2022-07-26T09:13:17Z</time>
      </trkpt>
      <trkpt lat="45.8984520" lon="5.6346390">
        <ele>793.8</ele>
        <time>2022-07-26T09:13:18Z</time>
      </trkpt>
      <trkpt lat="45.8984520" lon="5.6346380">
        <ele>793.8</ele>
        <time>2022-07-26T09:13:19Z</time>
      </trkpt>
      <trkpt lat="45.8984510" lon="5.6346380">
        <ele>793.8</ele>
        <time>2022-07-26T09:13:20Z</time>
      </trkpt>
      <trkpt lat="45.8984510" lon="5.6346360">
        <ele>793.8</ele>
        <time>2022-07-26T09:13:21Z</time>
      </trkpt>
      <trkpt lat="45.8984480" lon="5.6346350">
        <ele>793.8</ele>
        <time>2022-07-26T09:13:22Z</time>
      </trkpt>
      <trkpt lat="45.8984460" lon="5.6346350">
        <ele>793.8</ele>
        <time>2022-07-26T09:13:23Z</time>
      </trkpt>
      <trkpt lat="45.8984470" lon="5.6346370">
        <ele>793.8</ele>
        <time>2022-07-26T09:13:24Z</time>
      </trkpt>
      <trkpt lat="45.8984490" lon="5.6346400">
        <ele>793.8</ele>
        <time>2022-07-26T09:13:25Z</time>
      </trkpt>
      <trkpt lat="45.8984500" lon="5.6346410">
        <ele>793.8</ele>
        <time>2022-07-26T09:13:26Z</time>
      </trkpt>
      <trkpt lat="45.8984510" lon="5.6346410">
        <ele>793.8</ele>
        <time>2022-07-26T09:13:27Z</time>
      </trkpt>
      <trkpt lat="45.8984510" lon="5.6346420">
        <ele>793.8</ele>
        <time>2022-07-26T09:13:28Z</time>
      </trkpt>
      <trkpt lat="45.8984060" lon="5.6346250">
        <ele>793.7</ele>
        <time>2022-07-26T09:13:42Z</time>
      </trkpt>
      <trkpt lat="45.8983970" lon="5.6346190">
        <ele>793.7</ele>
        <time>2022-07-26T09:13:43Z</time>
      </trkpt>
      <trkpt lat="45.8983900" lon="5.6346150">
        <ele>793.7</ele>
        <time>2022-07-26T09:13:44Z</time>
      </trkpt>
      <trkpt lat="45.8983870" lon="5.6346110">
        <ele>793.6</ele>
        <time>2022-07-26T09:13:45Z</time>
      </trkpt>
      <trkpt lat="45.8983850" lon="5.6346110">
        <ele>793.6</ele>
        <time>2022-07-26T09:13:46Z</time>
      </trkpt>
      <trkpt lat="45.8983840" lon="5.6346120">
        <ele>793.6</ele>
        <time>2022-07-26T09:13:47Z</time>
      </trkpt>
      <trkpt lat="45.8983820" lon="5.6346150">
        <ele>793.6</ele>
        <time>2022-07-26T09:13:48Z</time>
      </trkpt>
      <trkpt lat="45.8983810" lon="5.6346190">
        <ele>793.6</ele>
        <time>2022-07-26T09:13:49Z</time>
      </trkpt>
      <trkpt lat="45.8983790" lon="5.6346220">
        <ele>793.6</ele>
        <time>2022-07-26T09:13:50Z</time>
      </trkpt>
      <trkpt lat="45.8983780" lon="5.6346240">
        <ele>793.6</ele>
        <time>2022-07-26T09:13:51Z</time>
      </trkpt>
      <trkpt lat="45.8983780" lon="5.6346240">
        <ele>793.6</ele>
        <time>2022-07-26T09:13:52Z</time>
      </trkpt>
      <trkpt lat="45.8983790" lon="5.6346230">
        <ele>793.6</ele>
        <time>2022-07-26T09:13:53Z</time>
      </trkpt>
      <trkpt lat="45.8983790" lon="5.6346230">
        <ele>793.6</ele>
        <time>2022-07-26T09:13:54Z</time>
      </trkpt>
      <trkpt lat="45.8983790" lon="5.6346220">
        <ele>793.6</ele>
        <time>2022-07-26T09:13:55Z</time>
      </trkpt>
      <trkpt lat="45.8983790" lon="5.6346210">
        <ele>793.6</ele>
        <time>2022-07-26T09:13:56Z</time>
      </trkpt>
      <trkpt lat="45.8983510" lon="5.6346420">
        <ele>793.5</ele>
        <time>2022-07-26T09:14:47Z</time>
      </trkpt>
      <trkpt lat="45.8983430" lon="5.6346480">
        <ele>793.5</ele>
        <time>2022-07-26T09:14:48Z</time>
      </trkpt>
      <trkpt lat="45.8983340" lon="5.6346460">
        <ele>793.5</ele>
        <time>2022-07-26T09:14:49Z</time>
      </trkpt>
      <trkpt lat="45.8983290" lon="5.6346450">
        <ele>793.4</ele>
        <time>2022-07-26T09:14:50Z</time>
      </trkpt>
      <trkpt lat="45.8983270" lon="5.6346450">
        <ele>793.4</ele>
        <time>2022-07-26T09:14:51Z</time>
      </trkpt>
      <trkpt lat="45.8983260" lon="5.6346440">
        <ele>793.4</ele>
        <time>2022-07-26T09:14:52Z</time>
      </trkpt>
      <trkpt lat="45.8983270" lon="5.6346410">
        <ele>793.4</ele>
        <time>2022-07-26T09:14:53Z</time>
      </trkpt>
      <trkpt lat="45.8983260" lon="5.6346380">
        <ele>793.4</ele>
        <time>2022-07-26T09:14:54Z</time>
      </trkpt>
      <trkpt lat="45.8983250" lon="5.6346360">
        <ele>793.4</ele>
        <time>2022-07-26T09:14:55Z</time>
      </trkpt>
      <trkpt lat="45.8983230" lon="5.6346360">
        <ele>793.4</ele>
        <time>2022-07-26T09:14:56Z</time>
      </trkpt>
      <trkpt lat="45.8983160" lon="5.6346410">
        <ele>793.4</ele>
        <time>2022-07-26T09:14:58Z</time>
      </trkpt>
      <trkpt lat="45.8983130" lon="5.6346430">
        <ele>793.4</ele>
        <time>2022-07-26T09:14:59Z</time>
      </trkpt>
      <trkpt lat="45.8983100" lon="5.6346430">
        <ele>793.4</ele>
        <time>2022-07-26T09:15:00Z</time>
      </trkpt>
      <trkpt lat="45.8983040" lon="5.6346400">
        <ele>793.3</ele>
        <time>2022-07-26T09:15:01Z</time>
      </trkpt>
      <trkpt lat="45.8982980" lon="5.6346380">
        <ele>793.3</ele>
        <time>2022-07-26T09:15:02Z</time>
      </trkpt>
      <trkpt lat="45.8982930" lon="5.6346320">
        <ele>793.3</ele>
        <time>2022-07-26T09:15:03Z</time>
      </trkpt>
      <trkpt lat="45.8982890" lon="5.6346290">
        <ele>793.3</ele>
        <time>2022-07-26T09:15:04Z</time>
      </trkpt>
      <trkpt lat="45.8982840" lon="5.6346270">
        <ele>793.3</ele>
        <time>2022-07-26T09:15:06Z</time>
      </trkpt>
      <trkpt lat="45.8982800" lon="5.6346260">
        <ele>793.2</ele>
        <time>2022-07-26T09:15:07Z</time>
      </trkpt>
      <trkpt lat="45.8982780" lon="5.6346260">
        <ele>793.2</ele>
        <time>2022-07-26T09:15:08Z</time>
      </trkpt>
      <trkpt lat="45.8982760" lon="5.6346250">
        <ele>793.2</ele>
        <time>2022-07-26T09:15:09Z</time>
      </trkpt>
      <trkpt lat="45.8982740" lon="5.6346250">
        <ele>793.2</ele>
        <time>2022-07-26T09:15:10Z</time>
      </trkpt>
      <trkpt lat="45.8982710" lon="5.6346250">
        <ele>793.2</ele>
        <time>2022-07-26T09:15:11Z</time>
      </trkpt>
      <trkpt lat="45.8982650" lon="5.6346260">
        <ele>793.2</ele>
        <time>2022-07-26T09:15:12Z</time>
      </trkpt>
      <trkpt lat="45.8982650" lon="5.6346260">
        <ele>793.2</ele>
        <time>2022-07-26T09:15:12Z</time>
      </trkpt>
      <trkpt lat="45.8982130" lon="5.6346440">
        <ele>793.0</ele>
        <time>2022-07-26T09:15:13Z</time>
      </trkpt>
      <trkpt lat="45.8981870" lon="5.6346560">
        <ele>793.0</ele>
        <time>2022-07-26T09:15:14Z</time>
      </trkpt>
      <trkpt lat="45.8980890" lon="5.6347110">
        <ele>792.9</ele>
        <time>2022-07-26T09:15:16Z</time>
      </trkpt>
      <trkpt lat="45.8980070" lon="5.6347340">
        <ele>792.8</ele>
        <time>2022-07-26T09:15:17Z</time>
      </trkpt>
      <trkpt lat="45.8979380" lon="5.6347640">
        <ele>792.7</ele>
        <time>2022-07-26T09:15:18Z</time>
      </trkpt>
      <trkpt lat="45.8978930" lon="5.6347970">
        <ele>792.6</ele>
        <time>2022-07-26T09:15:19Z</time>
      </trkpt>
      <trkpt lat="45.8978610" lon="5.6348250">
        <ele>792.5</ele>
        <time>2022-07-26T09:15:20Z</time>
      </trkpt>
      <trkpt lat="45.8977930" lon="5.6348720">
        <ele>792.4</ele>
        <time>2022-07-26T09:15:21Z</time>
      </trkpt>
      <trkpt lat="45.8976910" lon="5.6349520">
        <ele>792.4</ele>
        <time>2022-07-26T09:15:23Z</time>
      </trkpt>
      <trkpt lat="45.8976250" lon="5.6349850">
        <ele>792.4</ele>
        <time>2022-07-26T09:15:24Z</time>
      </trkpt>
      <trkpt lat="45.8975620" lon="5.6350180">
        <ele>792.3</ele>
        <time>2022-07-26T09:15:25Z</time>
      </trkpt>
      <trkpt lat="45.8975110" lon="5.6350310">
        <ele>792.2</ele>
        <time>2022-07-26T09:15:26Z</time>
      </trkpt>
      <trkpt lat="45.8974930" lon="5.6350110">
        <ele>792.2</ele>
        <time>2022-07-26T09:15:27Z</time>
      </trkpt>
      <trkpt lat="45.8974760" lon="5.6350120">
        <ele>792.2</ele>
        <time>2022-07-26T09:15:28Z</time>
      </trkpt>
      <trkpt lat="45.8974580" lon="5.6350140">
        <ele>792.1</ele>
        <time>2022-07-26T09:15:29Z</time>
      </trkpt>
      <trkpt lat="45.8974250" lon="5.6350280">
        <ele>792.1</ele>
        <time>2022-07-26T09:15:30Z</time>
      </trkpt>
      <trkpt lat="45.8974170" lon="5.6350320">
        <ele>792.1</ele>
        <time>2022-07-26T09:15:31Z</time>
      </trkpt>
      <trkpt lat="45.8973760" lon="5.6350530">
        <ele>792.1</ele>
        <time>2022-07-26T09:15:32Z</time>
      </trkpt>
      <trkpt lat="45.8973560" lon="5.6350610">
        <ele>792.1</ele>
        <time>2022-07-26T09:15:33Z</time>
      </trkpt>
      <trkpt lat="45.8973140" lon="5.6350850">
        <ele>792.2</ele>
        <time>2022-07-26T09:15:34Z</time>
      </trkpt>
      <trkpt lat="45.8972760" lon="5.6351080">
        <ele>792.3</ele>
        <time>2022-07-26T09:15:35Z</time>
      </trkpt>
      <trkpt lat="45.8972360" lon="5.6351310">
        <ele>792.5</ele>
        <time>2022-07-26T09:15:36Z</time>
      </trkpt>
      <trkpt lat="45.8971930" lon="5.6351490">
        <ele>792.6</ele>
        <time>2022-07-26T09:15:38Z</time>
      </trkpt>
      <trkpt lat="45.8971390" lon="5.6351690">
        <ele>792.9</ele>
        <time>2022-07-26T09:15:39Z</time>
      </trkpt>
      <trkpt lat="45.8971030" lon="5.6351860">
        <ele>793.0</ele>
        <time>2022-07-26T09:15:40Z</time>
      </trkpt>
      <trkpt lat="45.8970660" lon="5.6352030">
        <ele>793.2</ele>
        <time>2022-07-26T09:15:41Z</time>
      </trkpt>
      <trkpt lat="45.8970350" lon="5.6352140">
        <ele>793.3</ele>
        <time>2022-07-26T09:15:42Z</time>
      </trkpt>
      <trkpt lat="45.8969970" lon="5.6352200">
        <ele>793.4</ele>
        <time>2022-07-26T09:15:43Z</time>
      </trkpt>
      <trkpt lat="45.8968930" lon="5.6352510">
        <ele>793.9</ele>
        <time>2022-07-26T09:15:45Z</time>
      </trkpt>
      <trkpt lat="45.8968490" lon="5.6352670">
        <ele>794.2</ele>
        <time>2022-07-26T09:15:46Z</time>
      </trkpt>
      <trkpt lat="45.8968210" lon="5.6352790">
        <ele>794.4</ele>
        <time>2022-07-26T09:15:47Z</time>
      </trkpt>
      <trkpt lat="45.8967560" lon="5.6352840">
        <ele>795.0</ele>
        <time>2022-07-26T09:15:48Z</time>
      </trkpt>
      <trkpt lat="45.8967050" lon="5.6352820">
        <ele>795.4</ele>
        <time>2022-07-26T09:15:50Z</time>
      </trkpt>
      <trkpt lat="45.8966560" lon="5.6352870">
        <ele>795.9</ele>
        <time>2022-07-26T09:15:51Z</time>
      </trkpt>
      <trkpt lat="45.8966160" lon="5.6352920">
        <ele>796.4</ele>
        <time>2022-07-26T09:15:52Z</time>
      </trkpt>
      <trkpt lat="45.8965880" lon="5.6353010">
        <ele>796.8</ele>
        <time>2022-07-26T09:15:53Z</time>
      </trkpt>
      <trkpt lat="45.8965560" lon="5.6353080">
        <ele>797.2</ele>
        <time>2022-07-26T09:15:55Z</time>
      </trkpt>
      <trkpt lat="45.8965260" lon="5.6353090">
        <ele>797.6</ele>
        <time>2022-07-26T09:15:56Z</time>
      </trkpt>
      <trkpt lat="45.8965050" lon="5.6353380">
        <ele>798.0</ele>
        <time>2022-07-26T09:15:57Z</time>
      </trkpt>
      <trkpt lat="45.8964930" lon="5.6353550">
        <ele>798.2</ele>
        <time>2022-07-26T09:15:58Z</time>
      </trkpt>
      <trkpt lat="45.8964780" lon="5.6353660">
        <ele>798.4</ele>
        <time>2022-07-26T09:15:59Z</time>
      </trkpt>
      <trkpt lat="45.8964720" lon="5.6353700">
        <ele>798.5</ele>
        <time>2022-07-26T09:16:00Z</time>
      </trkpt>
      <trkpt lat="45.8964660" lon="5.6353700">
        <ele>798.6</ele>
        <time>2022-07-26T09:16:01Z</time>
      </trkpt>
      <trkpt lat="45.8964460" lon="5.6353770">
        <ele>798.8</ele>
        <time>2022-07-26T09:16:02Z</time>
      </trkpt>
      <trkpt lat="45.8964310" lon="5.6353760">
        <ele>799.0</ele>
        <time>2022-07-26T09:16:03Z</time>
      </trkpt>
      <trkpt lat="45.8964160" lon="5.6353750">
        <ele>799.2</ele>
        <time>2022-07-26T09:16:04Z</time>
      </trkpt>
      <trkpt lat="45.8963890" lon="5.6353730">
        <ele>799.6</ele>
        <time>2022-07-26T09:16:05Z</time>
      </trkpt>
      <trkpt lat="45.8963560" lon="5.6353760">
        <ele>800.0</ele>
        <time>2022-07-26T09:16:07Z</time>
      </trkpt>
      <trkpt lat="45.8963480" lon="5.6353760">
        <ele>800.1</ele>
        <time>2022-07-26T09:16:08Z</time>
      </trkpt>
      <trkpt lat="45.8963330" lon="5.6353690">
        <ele>800.3</ele>
        <time>2022-07-26T09:16:09Z</time>
      </trkpt>
      <trkpt lat="45.8963160" lon="5.6353510">
        <ele>800.5</ele>
        <time>2022-07-26T09:16:10Z</time>
      </trkpt>
      <trkpt lat="45.8963070" lon="5.6353370">
        <ele>800.7</ele>
        <time>2022-07-26T09:16:11Z</time>
      </trkpt>
      <trkpt lat="45.8962840" lon="5.6353200">
        <ele>801.0</ele>
        <time>2022-07-26T09:16:13Z</time>
      </trkpt>
      <trkpt lat="45.8962710" lon="5.6353110">
        <ele>801.2</ele>
        <time>2022-07-26T09:16:14Z</time>
      </trkpt>
      <trkpt lat="45.8962570" lon="5.6352970">
        <ele>801.4</ele>
        <time>2022-07-26T09:16:15Z</time>
      </trkpt>
      <trkpt lat="45.8962490" lon="5.6352910">
        <ele>801.5</ele>
        <time>2022-07-26T09:16:16Z</time>
      </trkpt>
      <trkpt lat="45.8962400" lon="5.6352880">
        <ele>801.6</ele>
        <time>2022-07-26T09:16:17Z</time>
      </trkpt>
      <trkpt lat="45.8962140" lon="5.6352800">
        <ele>801.8</ele>
        <time>2022-07-26T09:16:19Z</time>
      </trkpt>
      <trkpt lat="45.8961940" lon="5.6352730">
        <ele>802.0</ele>
        <time>2022-07-26T09:16:20Z</time>
      </trkpt>
      <trkpt lat="45.8961820" lon="5.6352700">
        <ele>802.2</ele>
        <time>2022-07-26T09:16:21Z</time>
      </trkpt>
      <trkpt lat="45.8961590" lon="5.6352720">
        <ele>802.4</ele>
        <time>2022-07-26T09:16:22Z</time>
      </trkpt>
      <trkpt lat="45.8961500" lon="5.6352730">
        <ele>802.5</ele>
        <time>2022-07-26T09:16:23Z</time>
      </trkpt>
      <trkpt lat="45.8961410" lon="5.6352740">
        <ele>802.6</ele>
        <time>2022-07-26T09:16:24Z</time>
      </trkpt>
      <trkpt lat="45.8961060" lon="5.6352730">
        <ele>803.0</ele>
        <time>2022-07-26T09:16:25Z</time>
      </trkpt>
      <trkpt lat="45.8960730" lon="5.6352750">
        <ele>803.4</ele>
        <time>2022-07-26T09:16:27Z</time>
      </trkpt>
      <trkpt lat="45.8960650" lon="5.6352760">
        <ele>803.5</ele>
        <time>2022-07-26T09:16:28Z</time>
      </trkpt>
      <trkpt lat="45.8960310" lon="5.6352670">
        <ele>804.0</ele>
        <time>2022-07-26T09:16:29Z</time>
      </trkpt>
      <trkpt lat="45.8960200" lon="5.6352640">
        <ele>804.1</ele>
        <time>2022-07-26T09:16:30Z</time>
      </trkpt>
      <trkpt lat="45.8959750" lon="5.6352610">
        <ele>804.9</ele>
        <time>2022-07-26T09:16:32Z</time>
      </trkpt>
      <trkpt lat="45.8959600" lon="5.6352640">
        <ele>805.1</ele>
        <time>2022-07-26T09:16:33Z</time>
      </trkpt>
      <trkpt lat="45.8959440" lon="5.6352670">
        <ele>805.4</ele>
        <time>2022-07-26T09:16:34Z</time>
      </trkpt>
      <trkpt lat="45.8959160" lon="5.6352780">
        <ele>805.9</ele>
        <time>2022-07-26T09:16:36Z</time>
      </trkpt>
      <trkpt lat="45.8959070" lon="5.6352800">
        <ele>806.0</ele>
        <time>2022-07-26T09:16:37Z</time>
      </trkpt>
      <trkpt lat="45.8958750" lon="5.6352850">
        <ele>806.5</ele>
        <time>2022-07-26T09:16:38Z</time>
      </trkpt>
      <trkpt lat="45.8958610" lon="5.6352870">
        <ele>806.8</ele>
        <time>2022-07-26T09:16:39Z</time>
      </trkpt>
      <trkpt lat="45.8958140" lon="5.6352900">
        <ele>807.4</ele>
        <time>2022-07-26T09:16:41Z</time>
      </trkpt>
      <trkpt lat="45.8958020" lon="5.6352850">
        <ele>807.5</ele>
        <time>2022-07-26T09:16:42Z</time>
      </trkpt>
      <trkpt lat="45.8957900" lon="5.6352810">
        <ele>807.7</ele>
        <time>2022-07-26T09:16:43Z</time>
      </trkpt>
      <trkpt lat="45.8957840" lon="5.6352780">
        <ele>807.8</ele>
        <time>2022-07-26T09:16:44Z</time>
      </trkpt>
      <trkpt lat="45.8957900" lon="5.6352710">
        <ele>807.8</ele>
        <time>2022-07-26T09:16:45Z</time>
      </trkpt>
      <trkpt lat="45.8957870" lon="5.6352700">
        <ele>807.9</ele>
        <time>2022-07-26T09:16:46Z</time>
      </trkpt>
      <trkpt lat="45.8957720" lon="5.6352740">
        <ele>808.0</ele>
        <time>2022-07-26T09:16:47Z</time>
      </trkpt>
      <trkpt lat="45.8957550" lon="5.6352780">
        <ele>808.2</ele>
        <time>2022-07-26T09:16:48Z</time>
      </trkpt>
      <trkpt lat="45.8957420" lon="5.6352800">
        <ele>808.3</ele>
        <time>2022-07-26T09:16:49Z</time>
      </trkpt>
      <trkpt lat="45.8957260" lon="5.6352790">
        <ele>808.5</ele>
        <time>2022-07-26T09:16:50Z</time>
      </trkpt>
      <trkpt lat="45.8957100" lon="5.6352820">
        <ele>808.6</ele>
        <time>2022-07-26T09:16:52Z</time>
      </trkpt>
      <trkpt lat="45.8956930" lon="5.6352870">
        <ele>808.8</ele>
        <time>2022-07-26T09:16:53Z</time>
      </trkpt>
      <trkpt lat="45.8956780" lon="5.6352920">
        <ele>809.0</ele>
        <time>2022-07-26T09:16:54Z</time>
      </trkpt>
      <trkpt lat="45.8956630" lon="5.6352950">
        <ele>809.1</ele>
        <time>2022-07-26T09:16:55Z</time>
      </trkpt>
      <trkpt lat="45.8956460" lon="5.6352980">
        <ele>809.2</ele>
        <time>2022-07-26T09:16:56Z</time>
      </trkpt>
      <trkpt lat="45.8956360" lon="5.6353000">
        <ele>809.3</ele>
        <time>2022-07-26T09:16:58Z</time>
      </trkpt>
      <trkpt lat="45.8956270" lon="5.6353020">
        <ele>809.4</ele>
        <time>2022-07-26T09:16:59Z</time>
      </trkpt>
      <trkpt lat="45.8956110" lon="5.6353060">
        <ele>809.5</ele>
        <time>2022-07-26T09:17:00Z</time>
      </trkpt>
      <trkpt lat="45.8955980" lon="5.6353110">
        <ele>809.7</ele>
        <time>2022-07-26T09:17:01Z</time>
      </trkpt>
      <trkpt lat="45.8955750" lon="5.6353160">
        <ele>809.9</ele>
        <time>2022-07-26T09:17:03Z</time>
      </trkpt>
      <trkpt lat="45.8955620" lon="5.6353130">
        <ele>810.0</ele>
        <time>2022-07-26T09:17:04Z</time>
      </trkpt>
      <trkpt lat="45.8955470" lon="5.6353140">
        <ele>810.1</ele>
        <time>2022-07-26T09:17:05Z</time>
      </trkpt>
      <trkpt lat="45.8955340" lon="5.6353180">
        <ele>810.2</ele>
        <time>2022-07-26T09:17:06Z</time>
      </trkpt>
      <trkpt lat="45.8955230" lon="5.6353210">
        <ele>810.3</ele>
        <time>2022-07-26T09:17:07Z</time>
      </trkpt>
      <trkpt lat="45.8955040" lon="5.6353280">
        <ele>810.5</ele>
        <time>2022-07-26T09:17:09Z</time>
      </trkpt>
      <trkpt lat="45.8954950" lon="5.6353320">
        <ele>810.5</ele>
        <time>2022-07-26T09:17:10Z</time>
      </trkpt>
      <trkpt lat="45.8954810" lon="5.6353360">
        <ele>810.6</ele>
        <time>2022-07-26T09:17:11Z</time>
      </trkpt>
      <trkpt lat="45.8954580" lon="5.6353420">
        <ele>810.8</ele>
        <time>2022-07-26T09:17:13Z</time>
      </trkpt>
      <trkpt lat="45.8954410" lon="5.6353460">
        <ele>811.0</ele>
        <time>2022-07-26T09:17:14Z</time>
      </trkpt>
      <trkpt lat="45.8954250" lon="5.6353490">
        <ele>811.1</ele>
        <time>2022-07-26T09:17:15Z</time>
      </trkpt>
      <trkpt lat="45.8954080" lon="5.6353540">
        <ele>811.3</ele>
        <time>2022-07-26T09:17:16Z</time>
      </trkpt>
      <trkpt lat="45.8953910" lon="5.6353640">
        <ele>811.4</ele>
        <time>2022-07-26T09:17:17Z</time>
      </trkpt>
      <trkpt lat="45.8953500" lon="5.6353790">
        <ele>811.8</ele>
        <time>2022-07-26T09:17:19Z</time>
      </trkpt>
      <trkpt lat="45.8953350" lon="5.6353790">
        <ele>811.9</ele>
        <time>2022-07-26T09:17:20Z</time>
      </trkpt>
      <trkpt lat="45.8953210" lon="5.6353790">
        <ele>812.0</ele>
        <time>2022-07-26T09:17:21Z</time>
      </trkpt>
      <trkpt lat="45.8952920" lon="5.6353780">
        <ele>812.3</ele>
        <time>2022-07-26T09:17:22Z</time>
      </trkpt>
      <trkpt lat="45.8952820" lon="5.6353800">
        <ele>812.4</ele>
        <time>2022-07-26T09:17:23Z</time>
      </trkpt>
      <trkpt lat="45.8952500" lon="5.6353800">
        <ele>812.7</ele>
        <time>2022-07-26T09:17:24Z</time>
      </trkpt>
      <trkpt lat="45.8952350" lon="5.6353790">
        <ele>812.8</ele>
        <time>2022-07-26T09:17:25Z</time>
      </trkpt>
      <trkpt lat="45.8951930" lon="5.6353840">
        <ele>813.3</ele>
        <time>2022-07-26T09:17:27Z</time>
      </trkpt>
      <trkpt lat="45.8951800" lon="5.6353850">
        <ele>813.5</ele>
        <time>2022-07-26T09:17:29Z</time>
      </trkpt>
      <trkpt lat="45.8951680" lon="5.6353860">
        <ele>813.6</ele>
        <time>2022-07-26T09:17:30Z</time>
      </trkpt>
      <trkpt lat="45.8951410" lon="5.6354080">
        <ele>814.0</ele>
        <time>2022-07-26T09:17:31Z</time>
      </trkpt>
      <trkpt lat="45.8951350" lon="5.6354110">
        <ele>814.0</ele>
        <time>2022-07-26T09:17:32Z</time>
      </trkpt>
      <trkpt lat="45.8951190" lon="5.6354180">
        <ele>814.3</ele>
        <time>2022-07-26T09:17:33Z</time>
      </trkpt>
      <trkpt lat="45.8951080" lon="5.6354230">
        <ele>814.4</ele>
        <time>2022-07-26T09:17:34Z</time>
      </trkpt>
      <trkpt lat="45.8950770" lon="5.6354310">
        <ele>814.8</ele>
        <time>2022-07-26T09:17:35Z</time>
      </trkpt>
      <trkpt lat="45.8950700" lon="5.6354340">
        <ele>814.9</ele>
        <time>2022-07-26T09:17:36Z</time>
      </trkpt>
      <trkpt lat="45.8950530" lon="5.6354380">
        <ele>815.1</ele>
        <time>2022-07-26T09:17:37Z</time>
      </trkpt>
      <trkpt lat="45.8950380" lon="5.6354410">
        <ele>815.3</ele>
        <time>2022-07-26T09:17:38Z</time>
      </trkpt>
      <trkpt lat="45.8950110" lon="5.6354470">
        <ele>815.6</ele>
        <time>2022-07-26T09:17:39Z</time>
      </trkpt>
      <trkpt lat="45.8949940" lon="5.6354490">
        <ele>815.9</ele>
        <time>2022-07-26T09:17:40Z</time>
      </trkpt>
      <trkpt lat="45.8949860" lon="5.6354490">
        <ele>816.0</ele>
        <time>2022-07-26T09:17:41Z</time>
      </trkpt>
      <trkpt lat="45.8949780" lon="5.6354460">
        <ele>816.1</ele>
        <time>2022-07-26T09:17:42Z</time>
      </trkpt>
      <trkpt lat="45.8949660" lon="5.6354400">
        <ele>816.3</ele>
        <time>2022-07-26T09:17:43Z</time>
      </trkpt>
      <trkpt lat="45.8949510" lon="5.6354340">
        <ele>816.5</ele>
        <time>2022-07-26T09:17:44Z</time>
      </trkpt>
      <trkpt lat="45.8949290" lon="5.6354290">
        <ele>816.8</ele>
        <time>2022-07-26T09:17:45Z</time>
      </trkpt>
      <trkpt lat="45.8949210" lon="5.6354250">
        <ele>816.9</ele>
        <time>2022-07-26T09:17:46Z</time>
      </trkpt>
      <trkpt lat="45.8949120" lon="5.6354220">
        <ele>817.0</ele>
        <time>2022-07-26T09:17:47Z</time>
      </trkpt>
      <trkpt lat="45.8948970" lon="5.6354170">
        <ele>817.2</ele>
        <time>2022-07-26T09:17:48Z</time>
      </trkpt>
      <trkpt lat="45.8948790" lon="5.6354120">
        <ele>817.5</ele>
        <time>2022-07-26T09:17:49Z</time>
      </trkpt>
      <trkpt lat="45.8948610" lon="5.6354090">
        <ele>817.7</ele>
        <time>2022-07-26T09:17:50Z</time>
      </trkpt>
      <trkpt lat="45.8948440" lon="5.6354080">
        <ele>818.0</ele>
        <time>2022-07-26T09:17:51Z</time>
      </trkpt>
      <trkpt lat="45.8948260" lon="5.6354080">
        <ele>818.2</ele>
        <time>2022-07-26T09:17:52Z</time>
      </trkpt>
      <trkpt lat="45.8948200" lon="5.6354070">
        <ele>818.3</ele>
        <time>2022-07-26T09:17:53Z</time>
      </trkpt>
      <trkpt lat="45.8948130" lon="5.6354060">
        <ele>818.4</ele>
        <time>2022-07-26T09:17:54Z</time>
      </trkpt>
      <trkpt lat="45.8948060" lon="5.6354050">
        <ele>818.5</ele>
        <time>2022-07-26T09:17:55Z</time>
      </trkpt>
      <trkpt lat="45.8947870" lon="5.6353960">
        <ele>818.7</ele>
        <time>2022-07-26T09:17:56Z</time>
      </trkpt>
      <trkpt lat="45.8947800" lon="5.6353890">
        <ele>818.9</ele>
        <time>2022-07-26T09:17:57Z</time>
      </trkpt>
      <trkpt lat="45.8947740" lon="5.6353820">
        <ele>819.0</ele>
        <time>2022-07-26T09:17:58Z</time>
      </trkpt>
      <trkpt lat="45.8947620" lon="5.6353680">
        <ele>819.2</ele>
        <time>2022-07-26T09:17:59Z</time>
      </trkpt>
      <trkpt lat="45.8947450" lon="5.6353560">
        <ele>819.4</ele>
        <time>2022-07-26T09:18:00Z</time>
      </trkpt>
      <trkpt lat="45.8947310" lon="5.6353500">
        <ele>819.6</ele>
        <time>2022-07-26T09:18:01Z</time>
      </trkpt>
      <trkpt lat="45.8947310" lon="5.6353480">
        <ele>819.6</ele>
        <time>2022-07-26T09:18:02Z</time>
      </trkpt>
      <trkpt lat="45.8947290" lon="5.6353440">
        <ele>819.6</ele>
        <time>2022-07-26T09:18:03Z</time>
      </trkpt>
      <trkpt lat="45.8947220" lon="5.6353410">
        <ele>819.7</ele>
        <time>2022-07-26T09:18:05Z</time>
      </trkpt>
      <trkpt lat="45.8947170" lon="5.6353410">
        <ele>819.8</ele>
        <time>2022-07-26T09:18:06Z</time>
      </trkpt>
      <trkpt lat="45.8947000" lon="5.6353400">
        <ele>820.0</ele>
        <time>2022-07-26T09:18:07Z</time>
      </trkpt>
      <trkpt lat="45.8946890" lon="5.6353390">
        <ele>820.1</ele>
        <time>2022-07-26T09:18:08Z</time>
      </trkpt>
      <trkpt lat="45.8946790" lon="5.6353370">
        <ele>820.2</ele>
        <time>2022-07-26T09:18:09Z</time>
      </trkpt>
      <trkpt lat="45.8946610" lon="5.6353360">
        <ele>820.4</ele>
        <time>2022-07-26T09:18:10Z</time>
      </trkpt>
      <trkpt lat="45.8946440" lon="5.6353380">
        <ele>820.5</ele>
        <time>2022-07-26T09:18:11Z</time>
      </trkpt>
      <trkpt lat="45.8946150" lon="5.6353430">
        <ele>820.8</ele>
        <time>2022-07-26T09:18:12Z</time>
      </trkpt>
      <trkpt lat="45.8946060" lon="5.6353440">
        <ele>820.9</ele>
        <time>2022-07-26T09:18:13Z</time>
      </trkpt>
      <trkpt lat="45.8945710" lon="5.6353510">
        <ele>821.2</ele>
        <time>2022-07-26T09:18:15Z</time>
      </trkpt>
      <trkpt lat="45.8945580" lon="5.6353530">
        <ele>821.4</ele>
        <time>2022-07-26T09:18:16Z</time>
      </trkpt>
      <trkpt lat="45.8945440" lon="5.6353560">
        <ele>821.5</ele>
        <time>2022-07-26T09:18:17Z</time>
      </trkpt>
      <trkpt lat="45.8945080" lon="5.6353650">
        <ele>821.9</ele>
        <time>2022-07-26T09:18:18Z</time>
      </trkpt>
      <trkpt lat="45.8944940" lon="5.6353720">
        <ele>822.1</ele>
        <time>2022-07-26T09:18:19Z</time>
      </trkpt>
      <trkpt lat="45.8944550" lon="5.6353930">
        <ele>822.5</ele>
        <time>2022-07-26T09:18:21Z</time>
      </trkpt>
      <trkpt lat="45.8944440" lon="5.6353980">
        <ele>822.6</ele>
        <time>2022-07-26T09:18:22Z</time>
      </trkpt>
      <trkpt lat="45.8944330" lon="5.6354030">
        <ele>822.8</ele>
        <time>2022-07-26T09:18:23Z</time>
      </trkpt>
      <trkpt lat="45.8944220" lon="5.6354080">
        <ele>822.9</ele>
        <time>2022-07-26T09:18:24Z</time>
      </trkpt>
      <trkpt lat="45.8943990" lon="5.6354090">
        <ele>823.1</ele>
        <time>2022-07-26T09:18:25Z</time>
      </trkpt>
      <trkpt lat="45.8943880" lon="5.6354100">
        <ele>823.3</ele>
        <time>2022-07-26T09:18:26Z</time>
      </trkpt>
      <trkpt lat="45.8943640" lon="5.6354060">
        <ele>823.5</ele>
        <time>2022-07-26T09:18:27Z</time>
      </trkpt>
      <trkpt lat="45.8943450" lon="5.6354020">
        <ele>823.7</ele>
        <time>2022-07-26T09:18:29Z</time>
      </trkpt>
      <trkpt lat="45.8943260" lon="5.6353990">
        <ele>823.9</ele>
        <time>2022-07-26T09:18:30Z</time>
      </trkpt>
      <trkpt lat="45.8943070" lon="5.6353950">
        <ele>824.1</ele>
        <time>2022-07-26T09:18:31Z</time>
      </trkpt>
      <trkpt lat="45.8942660" lon="5.6354030">
        <ele>824.5</ele>
        <time>2022-07-26T09:18:33Z</time>
      </trkpt>
      <trkpt lat="45.8942460" lon="5.6354080">
        <ele>824.7</ele>
        <time>2022-07-26T09:18:34Z</time>
      </trkpt>
      <trkpt lat="45.8942360" lon="5.6354110">
        <ele>824.9</ele>
        <time>2022-07-26T09:18:35Z</time>
      </trkpt>
      <trkpt lat="45.8942310" lon="5.6354130">
        <ele>824.9</ele>
        <time>2022-07-26T09:18:36Z</time>
      </trkpt>
      <trkpt lat="45.8942280" lon="5.6354140">
        <ele>824.9</ele>
        <time>2022-07-26T09:18:37Z</time>
      </trkpt>
      <trkpt lat="45.8942260" lon="5.6354150">
        <ele>825.0</ele>
        <time>2022-07-26T09:18:38Z</time>
      </trkpt>
      <trkpt lat="45.8942250" lon="5.6354160">
        <ele>825.0</ele>
        <time>2022-07-26T09:18:39Z</time>
      </trkpt>
      <trkpt lat="45.8942250" lon="5.6354160">
        <ele>825.0</ele>
        <time>2022-07-26T09:18:40Z</time>
      </trkpt>
      <trkpt lat="45.8942250" lon="5.6354170">
        <ele>825.0</ele>
        <time>2022-07-26T09:18:41Z</time>
      </trkpt>
      <trkpt lat="45.8942210" lon="5.6354180">
        <ele>825.0</ele>
        <time>2022-07-26T09:18:42Z</time>
      </trkpt>
      <trkpt lat="45.8942110" lon="5.6354200">
        <ele>825.1</ele>
        <time>2022-07-26T09:18:43Z</time>
      </trkpt>
      <trkpt lat="45.8942020" lon="5.6354220">
        <ele>825.2</ele>
        <time>2022-07-26T09:18:44Z</time>
      </trkpt>
      <trkpt lat="45.8941590" lon="5.6354280">
        <ele>825.7</ele>
        <time>2022-07-26T09:18:46Z</time>
      </trkpt>
      <trkpt lat="45.8941440" lon="5.6354300">
        <ele>825.9</ele>
        <time>2022-07-26T09:18:47Z</time>
      </trkpt>
      <trkpt lat="45.8941290" lon="5.6354300">
        <ele>826.1</ele>
        <time>2022-07-26T09:18:48Z</time>
      </trkpt>
      <trkpt lat="45.8940950" lon="5.6354160">
        <ele>826.5</ele>
        <time>2022-07-26T09:18:49Z</time>
      </trkpt>
      <trkpt lat="45.8940680" lon="5.6354140">
        <ele>826.8</ele>
        <time>2022-07-26T09:18:50Z</time>
      </trkpt>
      <trkpt lat="45.8940500" lon="5.6354140">
        <ele>827.0</ele>
        <time>2022-07-26T09:18:52Z</time>
      </trkpt>
      <trkpt lat="45.8940220" lon="5.6354120">
        <ele>827.3</ele>
        <time>2022-07-26T09:18:53Z</time>
      </trkpt>
      <trkpt lat="45.8940110" lon="5.6354120">
        <ele>827.4</ele>
        <time>2022-07-26T09:18:54Z</time>
      </trkpt>
      <trkpt lat="45.8939790" lon="5.6354220">
        <ele>827.8</ele>
        <time>2022-07-26T09:18:55Z</time>
      </trkpt>
      <trkpt lat="45.8939690" lon="5.6354250">
        <ele>827.9</ele>
        <time>2022-07-26T09:18:56Z</time>
      </trkpt>
      <trkpt lat="45.8939370" lon="5.6354300">
        <ele>828.3</ele>
        <time>2022-07-26T09:18:57Z</time>
      </trkpt>
      <trkpt lat="45.8939280" lon="5.6354300">
        <ele>828.4</ele>
        <time>2022-07-26T09:18:58Z</time>
      </trkpt>
      <trkpt lat="45.8938920" lon="5.6354190">
        <ele>828.9</ele>
        <time>2022-07-26T09:18:59Z</time>
      </trkpt>
      <trkpt lat="45.8938560" lon="5.6354100">
        <ele>829.3</ele>
        <time>2022-07-26T09:19:00Z</time>
      </trkpt>
      <trkpt lat="45.8938300" lon="5.6354070">
        <ele>829.6</ele>
        <time>2022-07-26T09:19:01Z</time>
      </trkpt>
      <trkpt lat="45.8938200" lon="5.6354060">
        <ele>829.8</ele>
        <time>2022-07-26T09:19:02Z</time>
      </trkpt>
      <trkpt lat="45.8937750" lon="5.6354130">
        <ele>830.3</ele>
        <time>2022-07-26T09:19:04Z</time>
      </trkpt>
      <trkpt lat="45.8937570" lon="5.6354180">
        <ele>830.5</ele>
        <time>2022-07-26T09:19:05Z</time>
      </trkpt>
      <trkpt lat="45.8937390" lon="5.6354230">
        <ele>830.7</ele>
        <time>2022-07-26T09:19:06Z</time>
      </trkpt>
      <trkpt lat="45.8937010" lon="5.6354270">
        <ele>831.1</ele>
        <time>2022-07-26T09:19:07Z</time>
      </trkpt>
      <trkpt lat="45.8936760" lon="5.6354290">
        <ele>831.4</ele>
        <time>2022-07-26T09:19:08Z</time>
      </trkpt>
      <trkpt lat="45.8936320" lon="5.6354340">
        <ele>831.7</ele>
        <time>2022-07-26T09:19:10Z</time>
      </trkpt>
      <trkpt lat="45.8935960" lon="5.6354610">
        <ele>832.1</ele>
        <time>2022-07-26T09:19:12Z</time>
      </trkpt>
      <trkpt lat="45.8935700" lon="5.6354730">
        <ele>832.3</ele>
        <time>2022-07-26T09:19:13Z</time>
      </trkpt>
      <trkpt lat="45.8935420" lon="5.6354840">
        <ele>832.5</ele>
        <time>2022-07-26T09:19:14Z</time>
      </trkpt>
      <trkpt lat="45.8935110" lon="5.6354970">
        <ele>832.7</ele>
        <time>2022-07-26T09:19:15Z</time>
      </trkpt>
      <trkpt lat="45.8934870" lon="5.6354990">
        <ele>832.9</ele>
        <time>2022-07-26T09:19:16Z</time>
      </trkpt>
      <trkpt lat="45.8934590" lon="5.6355060">
        <ele>833.2</ele>
        <time>2022-07-26T09:19:18Z</time>
      </trkpt>
      <trkpt lat="45.8934230" lon="5.6355250">
        <ele>833.5</ele>
        <time>2022-07-26T09:19:19Z</time>
      </trkpt>
      <trkpt lat="45.8934090" lon="5.6355340">
        <ele>833.7</ele>
        <time>2022-07-26T09:19:20Z</time>
      </trkpt>
      <trkpt lat="45.8933660" lon="5.6355640">
        <ele>834.2</ele>
        <time>2022-07-26T09:19:22Z</time>
      </trkpt>
      <trkpt lat="45.8933320" lon="5.6355960">
        <ele>834.8</ele>
        <time>2022-07-26T09:19:23Z</time>
      </trkpt>
      <trkpt lat="45.8933210" lon="5.6356060">
        <ele>835.0</ele>
        <time>2022-07-26T09:19:24Z</time>
      </trkpt>
      <trkpt lat="45.8932880" lon="5.6356190">
        <ele>835.6</ele>
        <time>2022-07-26T09:19:25Z</time>
      </trkpt>
      <trkpt lat="45.8932750" lon="5.6356240">
        <ele>835.8</ele>
        <time>2022-07-26T09:19:26Z</time>
      </trkpt>
      <trkpt lat="45.8932540" lon="5.6356310">
        <ele>836.2</ele>
        <time>2022-07-26T09:19:27Z</time>
      </trkpt>
      <trkpt lat="45.8932450" lon="5.6356390">
        <ele>836.4</ele>
        <time>2022-07-26T09:19:29Z</time>
      </trkpt>
      <trkpt lat="45.8932350" lon="5.6356450">
        <ele>836.6</ele>
        <time>2022-07-26T09:19:30Z</time>
      </trkpt>
      <trkpt lat="45.8932190" lon="5.6356450">
        <ele>836.8</ele>
        <time>2022-07-26T09:19:31Z</time>
      </trkpt>
      <trkpt lat="45.8932050" lon="5.6356430">
        <ele>837.1</ele>
        <time>2022-07-26T09:19:33Z</time>
      </trkpt>
      <trkpt lat="45.8931860" lon="5.6356370">
        <ele>837.4</ele>
        <time>2022-07-26T09:19:34Z</time>
      </trkpt>
      <trkpt lat="45.8931760" lon="5.6356330">
        <ele>837.5</ele>
        <time>2022-07-26T09:19:35Z</time>
      </trkpt>
      <trkpt lat="45.8931660" lon="5.6356290">
        <ele>837.7</ele>
        <time>2022-07-26T09:19:36Z</time>
      </trkpt>
      <trkpt lat="45.8931390" lon="5.6356160">
        <ele>838.0</ele>
        <time>2022-07-26T09:19:38Z</time>
      </trkpt>
      <trkpt lat="45.8931280" lon="5.6356110">
        <ele>838.1</ele>
        <time>2022-07-26T09:19:39Z</time>
      </trkpt>
      <trkpt lat="45.8930940" lon="5.6355950">
        <ele>838.5</ele>
        <time>2022-07-26T09:19:40Z</time>
      </trkpt>
      <trkpt lat="45.8930780" lon="5.6355830">
        <ele>838.6</ele>
        <time>2022-07-26T09:19:41Z</time>
      </trkpt>
      <trkpt lat="45.8930490" lon="5.6355680">
        <ele>838.8</ele>
        <time>2022-07-26T09:19:42Z</time>
      </trkpt>
      <trkpt lat="45.8930410" lon="5.6355630">
        <ele>838.8</ele>
        <time>2022-07-26T09:19:43Z</time>
      </trkpt>
      <trkpt lat="45.8930130" lon="5.6355630">
        <ele>838.9</ele>
        <time>2022-07-26T09:19:45Z</time>
      </trkpt>
      <trkpt lat="45.8929970" lon="5.6355620">
        <ele>839.0</ele>
        <time>2022-07-26T09:19:46Z</time>
      </trkpt>
      <trkpt lat="45.8929800" lon="5.6355590">
        <ele>839.0</ele>
        <time>2022-07-26T09:19:47Z</time>
      </trkpt>
      <trkpt lat="45.8929630" lon="5.6355590">
        <ele>839.1</ele>
        <time>2022-07-26T09:19:48Z</time>
      </trkpt>
      <trkpt lat="45.8929460" lon="5.6355610">
        <ele>839.1</ele>
        <time>2022-07-26T09:19:49Z</time>
      </trkpt>
      <trkpt lat="45.8929170" lon="5.6355610">
        <ele>839.1</ele>
        <time>2022-07-26T09:19:51Z</time>
      </trkpt>
      <trkpt lat="45.8929040" lon="5.6355630">
        <ele>839.1</ele>
        <time>2022-07-26T09:19:52Z</time>
      </trkpt>
      <trkpt lat="45.8928970" lon="5.6355650">
        <ele>839.1</ele>
        <time>2022-07-26T09:19:53Z</time>
      </trkpt>
      <trkpt lat="45.8928930" lon="5.6355650">
        <ele>839.1</ele>
        <time>2022-07-26T09:19:54Z</time>
      </trkpt>
      <trkpt lat="45.8928910" lon="5.6355650">
        <ele>839.1</ele>
        <time>2022-07-26T09:19:55Z</time>
      </trkpt>
      <trkpt lat="45.8928900" lon="5.6355660">
        <ele>839.1</ele>
        <time>2022-07-26T09:19:56Z</time>
      </trkpt>
      <trkpt lat="45.8928910" lon="5.6355690">
        <ele>839.1</ele>
        <time>2022-07-26T09:19:57Z</time>
      </trkpt>
      <trkpt lat="45.8928950" lon="5.6355730">
        <ele>839.1</ele>
        <time>2022-07-26T09:19:58Z</time>
      </trkpt>
      <trkpt lat="45.8928960" lon="5.6355740">
        <ele>839.1</ele>
        <time>2022-07-26T09:19:59Z</time>
      </trkpt>
      <trkpt lat="45.8928970" lon="5.6355760">
        <ele>839.1</ele>
        <time>2022-07-26T09:20:00Z</time>
      </trkpt>
      <trkpt lat="45.8928980" lon="5.6355770">
        <ele>839.1</ele>
        <time>2022-07-26T09:20:01Z</time>
      </trkpt>
      <trkpt lat="45.8928990" lon="5.6355780">
        <ele>839.1</ele>
        <time>2022-07-26T09:20:02Z</time>
      </trkpt>
      <trkpt lat="45.8928990" lon="5.6355780">
        <ele>839.1</ele>
        <time>2022-07-26T09:20:03Z</time>
      </trkpt>
      <trkpt lat="45.8928990" lon="5.6355780">
        <ele>839.1</ele>
        <time>2022-07-26T09:20:04Z</time>
      </trkpt>
      <trkpt lat="45.8928990" lon="5.6355780">
        <ele>839.1</ele>
        <time>2022-07-26T09:20:05Z</time>
      </trkpt>
      <trkpt lat="45.8928580" lon="5.6355830">
        <ele>839.1</ele>
        <time>2022-07-26T09:20:29Z</time>
      </trkpt>
      <trkpt lat="45.8928490" lon="5.6355840">
        <ele>839.1</ele>
        <time>2022-07-26T09:20:30Z</time>
      </trkpt>
      <trkpt lat="45.8928380" lon="5.6355850">
        <ele>839.1</ele>
        <time>2022-07-26T09:20:31Z</time>
      </trkpt>
      <trkpt lat="45.8928270" lon="5.6355860">
        <ele>839.1</ele>
        <time>2022-07-26T09:20:32Z</time>
      </trkpt>
      <trkpt lat="45.8928090" lon="5.6355910">
        <ele>839.0</ele>
        <time>2022-07-26T09:20:33Z</time>
      </trkpt>
      <trkpt lat="45.8928020" lon="5.6355990">
        <ele>839.0</ele>
        <time>2022-07-26T09:20:34Z</time>
      </trkpt>
      <trkpt lat="45.8927950" lon="5.6356070">
        <ele>839.0</ele>
        <time>2022-07-26T09:20:35Z</time>
      </trkpt>
      <trkpt lat="45.8927880" lon="5.6356150">
        <ele>839.0</ele>
        <time>2022-07-26T09:20:36Z</time>
      </trkpt>
      <trkpt lat="45.8927810" lon="5.6356230">
        <ele>839.0</ele>
        <time>2022-07-26T09:20:37Z</time>
      </trkpt>
      <trkpt lat="45.8927740" lon="5.6356310">
        <ele>839.0</ele>
        <time>2022-07-26T09:20:38Z</time>
      </trkpt>
      <trkpt lat="45.8927340" lon="5.6356490">
        <ele>838.9</ele>
        <time>2022-07-26T09:20:39Z</time>
      </trkpt>
      <trkpt lat="45.8926610" lon="5.6356750">
        <ele>838.9</ele>
        <time>2022-07-26T09:20:40Z</time>
      </trkpt>
      <trkpt lat="45.8925840" lon="5.6356920">
        <ele>839.1</ele>
        <time>2022-07-26T09:20:42Z</time>
      </trkpt>
      <trkpt lat="45.8925350" lon="5.6356960">
        <ele>839.3</ele>
        <time>2022-07-26T09:20:43Z</time>
      </trkpt>
      <trkpt lat="45.8925010" lon="5.6357040">
        <ele>839.5</ele>
        <time>2022-07-26T09:20:44Z</time>
      </trkpt>
      <trkpt lat="45.8924580" lon="5.6357180">
        <ele>839.7</ele>
        <time>2022-07-26T09:20:45Z</time>
      </trkpt>
      <trkpt lat="45.8924050" lon="5.6357310">
        <ele>840.0</ele>
        <time>2022-07-26T09:20:47Z</time>
      </trkpt>
      <trkpt lat="45.8923610" lon="5.6357360">
        <ele>840.2</ele>
        <time>2022-07-26T09:20:48Z</time>
      </trkpt>
      <trkpt lat="45.8923230" lon="5.6357350">
        <ele>840.4</ele>
        <time>2022-07-26T09:20:49Z</time>
      </trkpt>
      <trkpt lat="45.8922720" lon="5.6357390">
        <ele>840.6</ele>
        <time>2022-07-26T09:20:50Z</time>
      </trkpt>
      <trkpt lat="45.8922440" lon="5.6357410">
        <ele>840.8</ele>
        <time>2022-07-26T09:20:51Z</time>
      </trkpt>
      <trkpt lat="45.8922170" lon="5.6357500">
        <ele>840.9</ele>
        <time>2022-07-26T09:20:53Z</time>
      </trkpt>
      <trkpt lat="45.8922080" lon="5.6357530">
        <ele>841.0</ele>
        <time>2022-07-26T09:20:54Z</time>
      </trkpt>
      <trkpt lat="45.8921790" lon="5.6357600">
        <ele>841.2</ele>
        <time>2022-07-26T09:20:55Z</time>
      </trkpt>
      <trkpt lat="45.8921510" lon="5.6357630">
        <ele>841.3</ele>
        <time>2022-07-26T09:20:56Z</time>
      </trkpt>
      <trkpt lat="45.8921060" lon="5.6357600">
        <ele>841.7</ele>
        <time>2022-07-26T09:20:58Z</time>
      </trkpt>
      <trkpt lat="45.8920700" lon="5.6357600">
        <ele>842.0</ele>
        <time>2022-07-26T09:20:59Z</time>
      </trkpt>
      <trkpt lat="45.8920390" lon="5.6357630">
        <ele>842.3</ele>
        <time>2022-07-26T09:21:00Z</time>
      </trkpt>
      <trkpt lat="45.8920100" lon="5.6357620">
        <ele>842.5</ele>
        <time>2022-07-26T09:21:01Z</time>
      </trkpt>
      <trkpt lat="45.8919590" lon="5.6357590">
        <ele>842.9</ele>
        <time>2022-07-26T09:21:02Z</time>
      </trkpt>
      <trkpt lat="45.8919200" lon="5.6357530">
        <ele>843.3</ele>
        <time>2022-07-26T09:21:04Z</time>
      </trkpt>
      <trkpt lat="45.8918900" lon="5.6357490">
        <ele>843.5</ele>
        <time>2022-07-26T09:21:05Z</time>
      </trkpt>
      <trkpt lat="45.8918340" lon="5.6357460">
        <ele>844.0</ele>
        <time>2022-07-26T09:21:06Z</time>
      </trkpt>
      <trkpt lat="45.8917800" lon="5.6357590">
        <ele>844.5</ele>
        <time>2022-07-26T09:21:08Z</time>
      </trkpt>
      <trkpt lat="45.8917500" lon="5.6357690">
        <ele>844.8</ele>
        <time>2022-07-26T09:21:09Z</time>
      </trkpt>
      <trkpt lat="45.8917230" lon="5.6357750">
        <ele>845.0</ele>
        <time>2022-07-26T09:21:10Z</time>
      </trkpt>
      <trkpt lat="45.8917120" lon="5.6357760">
        <ele>845.1</ele>
        <time>2022-07-26T09:21:11Z</time>
      </trkpt>
      <trkpt lat="45.8916810" lon="5.6357790">
        <ele>845.3</ele>
        <time>2022-07-26T09:21:12Z</time>
      </trkpt>
      <trkpt lat="45.8916500" lon="5.6357770">
        <ele>845.6</ele>
        <time>2022-07-26T09:21:13Z</time>
      </trkpt>
      <trkpt lat="45.8916200" lon="5.6357810">
        <ele>845.8</ele>
        <time>2022-07-26T09:21:14Z</time>
      </trkpt>
      <trkpt lat="45.8916130" lon="5.6357840">
        <ele>845.8</ele>
        <time>2022-07-26T09:21:15Z</time>
      </trkpt>
      <trkpt lat="45.8915870" lon="5.6357940">
        <ele>846.0</ele>
        <time>2022-07-26T09:21:16Z</time>
      </trkpt>
      <trkpt lat="45.8915770" lon="5.6357990">
        <ele>846.0</ele>
        <time>2022-07-26T09:21:17Z</time>
      </trkpt>
      <trkpt lat="45.8915490" lon="5.6358180">
        <ele>846.2</ele>
        <time>2022-07-26T09:21:18Z</time>
      </trkpt>
      <trkpt lat="45.8915130" lon="5.6358300">
        <ele>846.4</ele>
        <time>2022-07-26T09:21:20Z</time>
      </trkpt>
      <trkpt lat="45.8914710" lon="5.6358370">
        <ele>846.6</ele>
        <time>2022-07-26T09:21:21Z</time>
      </trkpt>
      <trkpt lat="45.8914470" lon="5.6358370">
        <ele>846.8</ele>
        <time>2022-07-26T09:21:22Z</time>
      </trkpt>
      <trkpt lat="45.8914110" lon="5.6358390">
        <ele>847.0</ele>
        <time>2022-07-26T09:21:23Z</time>
      </trkpt>
      <trkpt lat="45.8914000" lon="5.6358390">
        <ele>847.1</ele>
        <time>2022-07-26T09:21:24Z</time>
      </trkpt>
      <trkpt lat="45.8913550" lon="5.6358370">
        <ele>847.4</ele>
        <time>2022-07-26T09:21:26Z</time>
      </trkpt>
      <trkpt lat="45.8913410" lon="5.6358360">
        <ele>847.5</ele>
        <time>2022-07-26T09:21:27Z</time>
      </trkpt>
      <trkpt lat="45.8913270" lon="5.6358340">
        <ele>847.6</ele>
        <time>2022-07-26T09:21:28Z</time>
      </trkpt>
      <trkpt lat="45.8912890" lon="5.6358370">
        <ele>847.9</ele>
        <time>2022-07-26T09:21:29Z</time>
      </trkpt>
      <trkpt lat="45.8912770" lon="5.6358390">
        <ele>847.9</ele>
        <time>2022-07-26T09:21:30Z</time>
      </trkpt>
      <trkpt lat="45.8912640" lon="5.6358400">
        <ele>848.0</ele>
        <time>2022-07-26T09:21:31Z</time>
      </trkpt>
      <trkpt lat="45.8912480" lon="5.6358440">
        <ele>848.1</ele>
        <time>2022-07-26T09:21:32Z</time>
      </trkpt>
      <trkpt lat="45.8912180" lon="5.6358470">
        <ele>848.3</ele>
        <time>2022-07-26T09:21:33Z</time>
      </trkpt>
      <trkpt lat="45.8911820" lon="5.6358520">
        <ele>848.5</ele>
        <time>2022-07-26T09:21:34Z</time>
      </trkpt>
      <trkpt lat="45.8911440" lon="5.6358560">
        <ele>848.7</ele>
        <time>2022-07-26T09:21:35Z</time>
      </trkpt>
      <trkpt lat="45.8910930" lon="5.6358470">
        <ele>849.0</ele>
        <time>2022-07-26T09:21:37Z</time>
      </trkpt>
      <trkpt lat="45.8910760" lon="5.6358440">
        <ele>849.1</ele>
        <time>2022-07-26T09:21:38Z</time>
      </trkpt>
      <trkpt lat="45.8910590" lon="5.6358410">
        <ele>849.2</ele>
        <time>2022-07-26T09:21:39Z</time>
      </trkpt>
      <trkpt lat="45.8910310" lon="5.6358350">
        <ele>849.4</ele>
        <time>2022-07-26T09:21:40Z</time>
      </trkpt>
      <trkpt lat="45.8910210" lon="5.6358340">
        <ele>849.4</ele>
        <time>2022-07-26T09:21:41Z</time>
      </trkpt>
      <trkpt lat="45.8909840" lon="5.6358370">
        <ele>849.6</ele>
        <time>2022-07-26T09:21:42Z</time>
      </trkpt>
      <trkpt lat="45.8909680" lon="5.6358420">
        <ele>849.7</ele>
        <time>2022-07-26T09:21:43Z</time>
      </trkpt>
      <trkpt lat="45.8909350" lon="5.6358530">
        <ele>849.9</ele>
        <time>2022-07-26T09:21:44Z</time>
      </trkpt>
      <trkpt lat="45.8909010" lon="5.6358630">
        <ele>850.0</ele>
        <time>2022-07-26T09:21:45Z</time>
      </trkpt>
      <trkpt lat="45.8908560" lon="5.6358700">
        <ele>850.2</ele>
        <time>2022-07-26T09:21:46Z</time>
      </trkpt>
      <trkpt lat="45.8908150" lon="5.6358810">
        <ele>850.4</ele>
        <time>2022-07-26T09:21:47Z</time>
      </trkpt>
      <trkpt lat="45.8907930" lon="5.6358920">
        <ele>850.6</ele>
        <time>2022-07-26T09:21:48Z</time>
      </trkpt>
      <trkpt lat="45.8907640" lon="5.6359040">
        <ele>850.8</ele>
        <time>2022-07-26T09:21:50Z</time>
      </trkpt>
      <trkpt lat="45.8907250" lon="5.6359170">
        <ele>851.1</ele>
        <time>2022-07-26T09:21:51Z</time>
      </trkpt>
      <trkpt lat="45.8906830" lon="5.6359230">
        <ele>851.4</ele>
        <time>2022-07-26T09:21:52Z</time>
      </trkpt>
      <trkpt lat="45.8906640" lon="5.6359240">
        <ele>851.5</ele>
        <time>2022-07-26T09:21:53Z</time>
      </trkpt>
      <trkpt lat="45.8906290" lon="5.6359270">
        <ele>851.8</ele>
        <time>2022-07-26T09:21:54Z</time>
      </trkpt>
      <trkpt lat="45.8906010" lon="5.6359370">
        <ele>852.0</ele>
        <time>2022-07-26T09:21:55Z</time>
      </trkpt>
      <trkpt lat="45.8905740" lon="5.6359550">
        <ele>852.2</ele>
        <time>2022-07-26T09:21:56Z</time>
      </trkpt>
      <trkpt lat="45.8905610" lon="5.6359630">
        <ele>852.3</ele>
        <time>2022-07-26T09:21:57Z</time>
      </trkpt>
      <trkpt lat="45.8905290" lon="5.6359790">
        <ele>852.6</ele>
        <time>2022-07-26T09:21:58Z</time>
      </trkpt>
      <trkpt lat="45.8904970" lon="5.6359940">
        <ele>852.8</ele>
        <time>2022-07-26T09:21:59Z</time>
      </trkpt>
      <trkpt lat="45.8904670" lon="5.6360040">
        <ele>852.9</ele>
        <time>2022-07-26T09:22:00Z</time>
      </trkpt>
      <trkpt lat="45.8904360" lon="5.6360140">
        <ele>853.0</ele>
        <time>2022-07-26T09:22:01Z</time>
      </trkpt>
      <trkpt lat="45.8903930" lon="5.6360460">
        <ele>853.2</ele>
        <time>2022-07-26T09:22:03Z</time>
      </trkpt>
      <trkpt lat="45.8903640" lon="5.6360780">
        <ele>853.3</ele>
        <time>2022-07-26T09:22:04Z</time>
      </trkpt>
      <trkpt lat="45.8903300" lon="5.6361040">
        <ele>853.4</ele>
        <time>2022-07-26T09:22:05Z</time>
      </trkpt>
      <trkpt lat="45.8902970" lon="5.6361180">
        <ele>853.5</ele>
        <time>2022-07-26T09:22:06Z</time>
      </trkpt>
      <trkpt lat="45.8902500" lon="5.6361440">
        <ele>853.6</ele>
        <time>2022-07-26T09:22:08Z</time>
      </trkpt>
      <trkpt lat="45.8902190" lon="5.6361700">
        <ele>853.7</ele>
        <time>2022-07-26T09:22:09Z</time>
      </trkpt>
      <trkpt lat="45.8902080" lon="5.6361810">
        <ele>853.7</ele>
        <time>2022-07-26T09:22:10Z</time>
      </trkpt>
      <trkpt lat="45.8901830" lon="5.6362010">
        <ele>853.7</ele>
        <time>2022-07-26T09:22:11Z</time>
      </trkpt>
      <trkpt lat="45.8901560" lon="5.6362200">
        <ele>853.4</ele>
        <time>2022-07-26T09:22:12Z</time>
      </trkpt>
      <trkpt lat="45.8900900" lon="5.6362450">
        <ele>852.6</ele>
        <time>2022-07-26T09:22:13Z</time>
      </trkpt>
      <trkpt lat="45.8899220" lon="5.6362460">
        <ele>850.5</ele>
        <time>2022-07-26T09:22:15Z</time>
      </trkpt>
      <trkpt lat="45.8898440" lon="5.6362790">
        <ele>849.5</ele>
        <time>2022-07-26T09:22:16Z</time>
      </trkpt>
      <trkpt lat="45.8897840" lon="5.6363060">
        <ele>848.8</ele>
        <time>2022-07-26T09:22:17Z</time>
      </trkpt>
      <trkpt lat="45.8897450" lon="5.6363290">
        <ele>848.3</ele>
        <time>2022-07-26T09:22:18Z</time>
      </trkpt>
      <trkpt lat="45.8896840" lon="5.6363540">
        <ele>847.7</ele>
        <time>2022-07-26T09:22:19Z</time>
      </trkpt>
      <trkpt lat="45.8896050" lon="5.6363790">
        <ele>847.1</ele>
        <time>2022-07-26T09:22:20Z</time>
      </trkpt>
      <trkpt lat="45.8895280" lon="5.6364020">
        <ele>846.7</ele>
        <time>2022-07-26T09:22:21Z</time>
      </trkpt>
      <trkpt lat="45.8894820" lon="5.6364140">
        <ele>846.4</ele>
        <time>2022-07-26T09:22:22Z</time>
      </trkpt>
      <trkpt lat="45.8894250" lon="5.6364250">
        <ele>846.1</ele>
        <time>2022-07-26T09:22:23Z</time>
      </trkpt>
      <trkpt lat="45.8893880" lon="5.6364370">
        <ele>845.9</ele>
        <time>2022-07-26T09:22:24Z</time>
      </trkpt>
      <trkpt lat="45.8893670" lon="5.6364400">
        <ele>845.8</ele>
        <time>2022-07-26T09:22:25Z</time>
      </trkpt>
      <trkpt lat="45.8893340" lon="5.6364430">
        <ele>845.7</ele>
        <time>2022-07-26T09:22:26Z</time>
      </trkpt>
      <trkpt lat="45.8893060" lon="5.6364460">
        <ele>845.6</ele>
        <time>2022-07-26T09:22:27Z</time>
      </trkpt>
      <trkpt lat="45.8892550" lon="5.6364540">
        <ele>845.4</ele>
        <time>2022-07-26T09:22:28Z</time>
      </trkpt>
      <trkpt lat="45.8892250" lon="5.6364760">
        <ele>845.3</ele>
        <time>2022-07-26T09:22:30Z</time>
      </trkpt>
      <trkpt lat="45.8891830" lon="5.6364960">
        <ele>845.2</ele>
        <time>2022-07-26T09:22:31Z</time>
      </trkpt>
      <trkpt lat="45.8891520" lon="5.6365130">
        <ele>845.1</ele>
        <time>2022-07-26T09:22:32Z</time>
      </trkpt>
      <trkpt lat="45.8891260" lon="5.6365280">
        <ele>845.0</ele>
        <time>2022-07-26T09:22:33Z</time>
      </trkpt>
      <trkpt lat="45.8890980" lon="5.6365390">
        <ele>844.9</ele>
        <time>2022-07-26T09:22:34Z</time>
      </trkpt>
      <trkpt lat="45.8890620" lon="5.6365530">
        <ele>844.8</ele>
        <time>2022-07-26T09:22:35Z</time>
      </trkpt>
      <trkpt lat="45.8890200" lon="5.6365670">
        <ele>844.6</ele>
        <time>2022-07-26T09:22:36Z</time>
      </trkpt>
      <trkpt lat="45.8890030" lon="5.6365710">
        <ele>844.6</ele>
        <time>2022-07-26T09:22:37Z</time>
      </trkpt>
      <trkpt lat="45.8889670" lon="5.6365810">
        <ele>844.5</ele>
        <time>2022-07-26T09:22:39Z</time>
      </trkpt>
      <trkpt lat="45.8889130" lon="5.6366060">
        <ele>844.2</ele>
        <time>2022-07-26T09:22:40Z</time>
      </trkpt>
      <trkpt lat="45.8888590" lon="5.6366360">
        <ele>843.9</ele>
        <time>2022-07-26T09:22:41Z</time>
      </trkpt>
      <trkpt lat="45.8888040" lon="5.6366670">
        <ele>843.6</ele>
        <time>2022-07-26T09:22:43Z</time>
      </trkpt>
      <trkpt lat="45.8887670" lon="5.6366960">
        <ele>843.3</ele>
        <time>2022-07-26T09:22:44Z</time>
      </trkpt>
      <trkpt lat="45.8887400" lon="5.6367330">
        <ele>843.1</ele>
        <time>2022-07-26T09:22:45Z</time>
      </trkpt>
      <trkpt lat="45.8887200" lon="5.6367710">
        <ele>842.8</ele>
        <time>2022-07-26T09:22:46Z</time>
      </trkpt>
      <trkpt lat="45.8886980" lon="5.6368170">
        <ele>842.6</ele>
        <time>2022-07-26T09:22:47Z</time>
      </trkpt>
      <trkpt lat="45.8886570" lon="5.6368720">
        <ele>842.1</ele>
        <time>2022-07-26T09:22:49Z</time>
      </trkpt>
      <trkpt lat="45.8886120" lon="5.6369080">
        <ele>841.8</ele>
        <time>2022-07-26T09:22:50Z</time>
      </trkpt>
      <trkpt lat="45.8885670" lon="5.6369350">
        <ele>841.3</ele>
        <time>2022-07-26T09:22:51Z</time>
      </trkpt>
      <trkpt lat="45.8885030" lon="5.6369730">
        <ele>840.7</ele>
        <time>2022-07-26T09:22:53Z</time>
      </trkpt>
      <trkpt lat="45.8884700" lon="5.6369950">
        <ele>840.4</ele>
        <time>2022-07-26T09:22:54Z</time>
      </trkpt>
      <trkpt lat="45.8884350" lon="5.6370190">
        <ele>840.0</ele>
        <time>2022-07-26T09:22:55Z</time>
      </trkpt>
      <trkpt lat="45.8884250" lon="5.6370260">
        <ele>839.9</ele>
        <time>2022-07-26T09:22:56Z</time>
      </trkpt>
      <trkpt lat="45.8884040" lon="5.6370420">
        <ele>839.7</ele>
        <time>2022-07-26T09:22:57Z</time>
      </trkpt>
      <trkpt lat="45.8883940" lon="5.6370460">
        <ele>839.6</ele>
        <time>2022-07-26T09:22:58Z</time>
      </trkpt>
      <trkpt lat="45.8883830" lon="5.6370510">
        <ele>839.5</ele>
        <time>2022-07-26T09:22:59Z</time>
      </trkpt>
      <trkpt lat="45.8883610" lon="5.6370600">
        <ele>839.3</ele>
        <time>2022-07-26T09:23:01Z</time>
      </trkpt>
      <trkpt lat="45.8883530" lon="5.6370450">
        <ele>839.1</ele>
        <time>2022-07-26T09:23:03Z</time>
      </trkpt>
      <trkpt lat="45.8883460" lon="5.6370260">
        <ele>839.0</ele>
        <time>2022-07-26T09:23:04Z</time>
      </trkpt>
      <trkpt lat="45.8883420" lon="5.6370150">
        <ele>838.9</ele>
        <time>2022-07-26T09:23:05Z</time>
      </trkpt>
      <trkpt lat="45.8883380" lon="5.6370050">
        <ele>838.9</ele>
        <time>2022-07-26T09:23:06Z</time>
      </trkpt>
      <trkpt lat="45.8883320" lon="5.6369910">
        <ele>838.7</ele>
        <time>2022-07-26T09:23:07Z</time>
      </trkpt>
      <trkpt lat="45.8883230" lon="5.6369720">
        <ele>838.6</ele>
        <time>2022-07-26T09:23:09Z</time>
      </trkpt>
      <trkpt lat="45.8882890" lon="5.6369690">
        <ele>838.3</ele>
        <time>2022-07-26T09:23:14Z</time>
      </trkpt>
      <trkpt lat="45.8882730" lon="5.6369780">
        <ele>838.1</ele>
        <time>2022-07-26T09:23:15Z</time>
      </trkpt>
      <trkpt lat="45.8882680" lon="5.6369810">
        <ele>838.0</ele>
        <time>2022-07-26T09:23:16Z</time>
      </trkpt>
      <trkpt lat="45.8882640" lon="5.6369940">
        <ele>838.0</ele>
        <time>2022-07-26T09:23:17Z</time>
      </trkpt>
      <trkpt lat="45.8882510" lon="5.6370130">
        <ele>837.8</ele>
        <time>2022-07-26T09:23:18Z</time>
      </trkpt>
      <trkpt lat="45.8882200" lon="5.6370430">
        <ele>837.4</ele>
        <time>2022-07-26T09:23:20Z</time>
      </trkpt>
      <trkpt lat="45.8881870" lon="5.6370690">
        <ele>837.1</ele>
        <time>2022-07-26T09:23:21Z</time>
      </trkpt>
      <trkpt lat="45.8881740" lon="5.6370760">
        <ele>836.9</ele>
        <time>2022-07-26T09:23:22Z</time>
      </trkpt>
      <trkpt lat="45.8881370" lon="5.6370880">
        <ele>836.5</ele>
        <time>2022-07-26T09:23:23Z</time>
      </trkpt>
      <trkpt lat="45.8880790" lon="5.6371210">
        <ele>835.9</ele>
        <time>2022-07-26T09:23:25Z</time>
      </trkpt>
      <trkpt lat="45.8880440" lon="5.6371610">
        <ele>835.3</ele>
        <time>2022-07-26T09:23:26Z</time>
      </trkpt>
      <trkpt lat="45.8880120" lon="5.6371920">
        <ele>834.7</ele>
        <time>2022-07-26T09:23:27Z</time>
      </trkpt>
      <trkpt lat="45.8879830" lon="5.6372200">
        <ele>830.6</ele>
        <time>2022-07-26T09:23:28Z</time>
      </trkpt>
      <trkpt lat="45.8879610" lon="5.6372450">
        <ele>830.6</ele>
        <time>2022-07-26T09:23:29Z</time>
      </trkpt>
      <trkpt lat="45.8879540" lon="5.6372660">
        <ele>830.6</ele>
        <time>2022-07-26T09:23:30Z</time>
      </trkpt>
      <trkpt lat="45.8879570" lon="5.6372960">
        <ele>830.6</ele>
        <time>2022-07-26T09:23:31Z</time>
      </trkpt>
      <trkpt lat="45.8879710" lon="5.6373210">
        <ele>830.6</ele>
        <time>2022-07-26T09:23:32Z</time>
      </trkpt>
      <trkpt lat="45.8879790" lon="5.6373340">
        <ele>830.6</ele>
        <time>2022-07-26T09:23:33Z</time>
      </trkpt>
      <trkpt lat="45.8880110" lon="5.6373450">
        <ele>830.6</ele>
        <time>2022-07-26T09:23:35Z</time>
      </trkpt>
      <trkpt lat="45.8880230" lon="5.6373470">
        <ele>828.2</ele>
        <time>2022-07-26T09:23:36Z</time>
      </trkpt>
      <trkpt lat="45.8880510" lon="5.6373430">
        <ele>827.7</ele>
        <time>2022-07-26T09:23:37Z</time>
      </trkpt>
      <trkpt lat="45.8880900" lon="5.6373280">
        <ele>827.0</ele>
        <time>2022-07-26T09:23:38Z</time>
      </trkpt>
      <trkpt lat="45.8881120" lon="5.6373160">
        <ele>826.6</ele>
        <time>2022-07-26T09:23:39Z</time>
      </trkpt>
      <trkpt lat="45.8881450" lon="5.6373070">
        <ele>826.1</ele>
        <time>2022-07-26T09:23:41Z</time>
      </trkpt>
      <trkpt lat="45.8881850" lon="5.6373010">
        <ele>825.5</ele>
        <time>2022-07-26T09:23:42Z</time>
      </trkpt>
      <trkpt lat="45.8882340" lon="5.6373000">
        <ele>824.7</ele>
        <time>2022-07-26T09:23:43Z</time>
      </trkpt>
      <trkpt lat="45.8882740" lon="5.6373020">
        <ele>824.1</ele>
        <time>2022-07-26T09:23:44Z</time>
      </trkpt>
      <trkpt lat="45.8883310" lon="5.6373050">
        <ele>823.3</ele>
        <time>2022-07-26T09:23:45Z</time>
      </trkpt>
      <trkpt lat="45.8883800" lon="5.6373010">
        <ele>822.5</ele>
        <time>2022-07-26T09:23:47Z</time>
      </trkpt>
      <trkpt lat="45.8884810" lon="5.6373320">
        <ele>820.8</ele>
        <time>2022-07-26T09:23:48Z</time>
      </trkpt>
      <trkpt lat="45.8885620" lon="5.6373740">
        <ele>819.5</ele>
        <time>2022-07-26T09:23:49Z</time>
      </trkpt>
      <trkpt lat="45.8886070" lon="5.6373950">
        <ele>818.7</ele>
        <time>2022-07-26T09:23:50Z</time>
      </trkpt>
      <trkpt lat="45.8886650" lon="5.6374000">
        <ele>817.9</ele>
        <time>2022-07-26T09:23:52Z</time>
      </trkpt>
      <trkpt lat="45.8886770" lon="5.6374500">
        <ele>817.3</ele>
        <time>2022-07-26T09:23:53Z</time>
      </trkpt>
      <trkpt lat="45.8886770" lon="5.6374690">
        <ele>817.1</ele>
        <time>2022-07-26T09:23:54Z</time>
      </trkpt>
      <trkpt lat="45.8886610" lon="5.6375180">
        <ele>816.4</ele>
        <time>2022-07-26T09:23:55Z</time>
      </trkpt>
      <trkpt lat="45.8886220" lon="5.6375920">
        <ele>815.4</ele>
        <time>2022-07-26T09:23:56Z</time>
      </trkpt>
      <trkpt lat="45.8885900" lon="5.6376290">
        <ele>814.7</ele>
        <time>2022-07-26T09:23:57Z</time>
      </trkpt>
      <trkpt lat="45.8885520" lon="5.6376580">
        <ele>814.0</ele>
        <time>2022-07-26T09:23:58Z</time>
      </trkpt>
      <trkpt lat="45.8885270" lon="5.6376760">
        <ele>813.6</ele>
        <time>2022-07-26T09:23:59Z</time>
      </trkpt>
      <trkpt lat="45.8884810" lon="5.6377050">
        <ele>812.8</ele>
        <time>2022-07-26T09:24:00Z</time>
      </trkpt>
      <trkpt lat="45.8884290" lon="5.6377480">
        <ele>811.9</ele>
        <time>2022-07-26T09:24:01Z</time>
      </trkpt>
      <trkpt lat="45.8883840" lon="5.6377910">
        <ele>811.1</ele>
        <time>2022-07-26T09:24:02Z</time>
      </trkpt>
      <trkpt lat="45.8883480" lon="5.6378310">
        <ele>810.4</ele>
        <time>2022-07-26T09:24:03Z</time>
      </trkpt>
      <trkpt lat="45.8883030" lon="5.6378690">
        <ele>809.7</ele>
        <time>2022-07-26T09:24:04Z</time>
      </trkpt>
      <trkpt lat="45.8882540" lon="5.6379160">
        <ele>808.9</ele>
        <time>2022-07-26T09:24:05Z</time>
      </trkpt>
      <trkpt lat="45.8882080" lon="5.6379640">
        <ele>808.1</ele>
        <time>2022-07-26T09:24:06Z</time>
      </trkpt>
      <trkpt lat="45.8881830" lon="5.6380010">
        <ele>807.6</ele>
        <time>2022-07-26T09:24:07Z</time>
      </trkpt>
      <trkpt lat="45.8881740" lon="5.6380090">
        <ele>807.4</ele>
        <time>2022-07-26T09:24:08Z</time>
      </trkpt>
      <trkpt lat="45.8881650" lon="5.6380160">
        <ele>807.3</ele>
        <time>2022-07-26T09:24:09Z</time>
      </trkpt>
      <trkpt lat="45.8881340" lon="5.6380520">
        <ele>806.6</ele>
        <time>2022-07-26T09:24:10Z</time>
      </trkpt>
      <trkpt lat="45.8881050" lon="5.6380840">
        <ele>806.1</ele>
        <time>2022-07-26T09:24:11Z</time>
      </trkpt>
      <trkpt lat="45.8880730" lon="5.6381410">
        <ele>805.3</ele>
        <time>2022-07-26T09:24:12Z</time>
      </trkpt>
      <trkpt lat="45.8879640" lon="5.6381820">
        <ele>803.5</ele>
        <time>2022-07-26T09:24:14Z</time>
      </trkpt>
      <trkpt lat="45.8879010" lon="5.6382000">
        <ele>802.4</ele>
        <time>2022-07-26T09:24:15Z</time>
      </trkpt>
      <trkpt lat="45.8878510" lon="5.6382160">
        <ele>801.6</ele>
        <time>2022-07-26T09:24:16Z</time>
      </trkpt>
      <trkpt lat="45.8878120" lon="5.6382240">
        <ele>801.0</ele>
        <time>2022-07-26T09:24:17Z</time>
      </trkpt>
      <trkpt lat="45.8876780" lon="5.6382300">
        <ele>799.2</ele>
        <time>2022-07-26T09:24:18Z</time>
      </trkpt>
      <trkpt lat="45.8875810" lon="5.6382540">
        <ele>798.1</ele>
        <time>2022-07-26T09:24:19Z</time>
      </trkpt>
      <trkpt lat="45.8874910" lon="5.6382890">
        <ele>797.0</ele>
        <time>2022-07-26T09:24:20Z</time>
      </trkpt>
      <trkpt lat="45.8874130" lon="5.6383370">
        <ele>796.1</ele>
        <time>2022-07-26T09:24:21Z</time>
      </trkpt>
      <trkpt lat="45.8873390" lon="5.6383830">
        <ele>795.1</ele>
        <time>2022-07-26T09:24:22Z</time>
      </trkpt>
      <trkpt lat="45.8872600" lon="5.6384400">
        <ele>794.1</ele>
        <time>2022-07-26T09:24:23Z</time>
      </trkpt>
      <trkpt lat="45.8871910" lon="5.6384980">
        <ele>793.2</ele>
        <time>2022-07-26T09:24:24Z</time>
      </trkpt>
      <trkpt lat="45.8871220" lon="5.6385480">
        <ele>792.3</ele>
        <time>2022-07-26T09:24:25Z</time>
      </trkpt>
      <trkpt lat="45.8870640" lon="5.6385890">
        <ele>791.6</ele>
        <time>2022-07-26T09:24:26Z</time>
      </trkpt>
      <trkpt lat="45.8870100" lon="5.6386230">
        <ele>791.0</ele>
        <time>2022-07-26T09:24:27Z</time>
      </trkpt>
      <trkpt lat="45.8869500" lon="5.6386590">
        <ele>790.3</ele>
        <time>2022-07-26T09:24:28Z</time>
      </trkpt>
      <trkpt lat="45.8868930" lon="5.6386940">
        <ele>789.6</ele>
        <time>2022-07-26T09:24:29Z</time>
      </trkpt>
      <trkpt lat="45.8868510" lon="5.6387170">
        <ele>789.0</ele>
        <time>2022-07-26T09:24:30Z</time>
      </trkpt>
      <trkpt lat="45.8868050" lon="5.6387470">
        <ele>788.4</ele>
        <time>2022-07-26T09:24:31Z</time>
      </trkpt>
      <trkpt lat="45.8867830" lon="5.6387660">
        <ele>788.1</ele>
        <time>2022-07-26T09:24:32Z</time>
      </trkpt>
      <trkpt lat="45.8867360" lon="5.6388140">
        <ele>787.4</ele>
        <time>2022-07-26T09:24:33Z</time>
      </trkpt>
      <trkpt lat="45.8866790" lon="5.6388860">
        <ele>786.5</ele>
        <time>2022-07-26T09:24:34Z</time>
      </trkpt>
      <trkpt lat="45.8866290" lon="5.6389340">
        <ele>785.9</ele>
        <time>2022-07-26T09:24:35Z</time>
      </trkpt>
      <trkpt lat="45.8865730" lon="5.6389710">
        <ele>785.2</ele>
        <time>2022-07-26T09:24:36Z</time>
      </trkpt>
      <trkpt lat="45.8864980" lon="5.6390100">
        <ele>784.3</ele>
        <time>2022-07-26T09:24:37Z</time>
      </trkpt>
      <trkpt lat="45.8864210" lon="5.6390490">
        <ele>783.3</ele>
        <time>2022-07-26T09:24:38Z</time>
      </trkpt>
      <trkpt lat="45.8863440" lon="5.6390880">
        <ele>782.3</ele>
        <time>2022-07-26T09:24:39Z</time>
      </trkpt>
      <trkpt lat="45.8862730" lon="5.6391270">
        <ele>781.3</ele>
        <time>2022-07-26T09:24:40Z</time>
      </trkpt>
      <trkpt lat="45.8861840" lon="5.6391490">
        <ele>780.2</ele>
        <time>2022-07-26T09:24:41Z</time>
      </trkpt>
      <trkpt lat="45.8861180" lon="5.6391970">
        <ele>779.2</ele>
        <time>2022-07-26T09:24:42Z</time>
      </trkpt>
      <trkpt lat="45.8860480" lon="5.6392590">
        <ele>778.2</ele>
        <time>2022-07-26T09:24:43Z</time>
      </trkpt>
      <trkpt lat="45.8859850" lon="5.6393220">
        <ele>777.3</ele>
        <time>2022-07-26T09:24:44Z</time>
      </trkpt>
      <trkpt lat="45.8859310" lon="5.6393850">
        <ele>776.5</ele>
        <time>2022-07-26T09:24:45Z</time>
      </trkpt>
      <trkpt lat="45.8858790" lon="5.6394570">
        <ele>775.7</ele>
        <time>2022-07-26T09:24:46Z</time>
      </trkpt>
      <trkpt lat="45.8858270" lon="5.6395180">
        <ele>774.9</ele>
        <time>2022-07-26T09:24:47Z</time>
      </trkpt>
      <trkpt lat="45.8857710" lon="5.6395800">
        <ele>774.1</ele>
        <time>2022-07-26T09:24:48Z</time>
      </trkpt>
      <trkpt lat="45.8857090" lon="5.6396280">
        <ele>773.3</ele>
        <time>2022-07-26T09:24:49Z</time>
      </trkpt>
      <trkpt lat="45.8856730" lon="5.6396610">
        <ele>772.7</ele>
        <time>2022-07-26T09:24:50Z</time>
      </trkpt>
      <trkpt lat="45.8856720" lon="5.6396970">
        <ele>772.4</ele>
        <time>2022-07-26T09:24:51Z</time>
      </trkpt>
      <trkpt lat="45.8856600" lon="5.6397160">
        <ele>772.2</ele>
        <time>2022-07-26T09:24:52Z</time>
      </trkpt>
      <trkpt lat="45.8856140" lon="5.6397740">
        <ele>771.4</ele>
        <time>2022-07-26T09:24:53Z</time>
      </trkpt>
      <trkpt lat="45.8855560" lon="5.6398630">
        <ele>770.2</ele>
        <time>2022-07-26T09:24:54Z</time>
      </trkpt>
      <trkpt lat="45.8854900" lon="5.6399600">
        <ele>769.0</ele>
        <time>2022-07-26T09:24:55Z</time>
      </trkpt>
      <trkpt lat="45.8854310" lon="5.6400440">
        <ele>767.9</ele>
        <time>2022-07-26T09:24:56Z</time>
      </trkpt>
      <trkpt lat="45.8853820" lon="5.6401160">
        <ele>767.1</ele>
        <time>2022-07-26T09:24:57Z</time>
      </trkpt>
      <trkpt lat="45.8853280" lon="5.6401870">
        <ele>766.3</ele>
        <time>2022-07-26T09:24:58Z</time>
      </trkpt>
      <trkpt lat="45.8852640" lon="5.6402670">
        <ele>765.3</ele>
        <time>2022-07-26T09:24:59Z</time>
      </trkpt>
      <trkpt lat="45.8852020" lon="5.6403540">
        <ele>764.3</ele>
        <time>2022-07-26T09:25:00Z</time>
      </trkpt>
      <trkpt lat="45.8851440" lon="5.6404290">
        <ele>763.4</ele>
        <time>2022-07-26T09:25:01Z</time>
      </trkpt>
      <trkpt lat="45.8850910" lon="5.6404990">
        <ele>762.5</ele>
        <time>2022-07-26T09:25:02Z</time>
      </trkpt>
      <trkpt lat="45.8850460" lon="5.6405530">
        <ele>761.8</ele>
        <time>2022-07-26T09:25:03Z</time>
      </trkpt>
      <trkpt lat="45.8850240" lon="5.6405840">
        <ele>761.4</ele>
        <time>2022-07-26T09:25:04Z</time>
      </trkpt>
      <trkpt lat="45.8850080" lon="5.6406160">
        <ele>761.0</ele>
        <time>2022-07-26T09:25:05Z</time>
      </trkpt>
      <trkpt lat="45.8849780" lon="5.6406540">
        <ele>760.5</ele>
        <time>2022-07-26T09:25:06Z</time>
      </trkpt>
      <trkpt lat="45.8849680" lon="5.6406690">
        <ele>760.3</ele>
        <time>2022-07-26T09:25:07Z</time>
      </trkpt>
      <trkpt lat="45.8849500" lon="5.6407120">
        <ele>759.9</ele>
        <time>2022-07-26T09:25:08Z</time>
      </trkpt>
      <trkpt lat="45.8849430" lon="5.6407550">
        <ele>759.5</ele>
        <time>2022-07-26T09:25:09Z</time>
      </trkpt>
      <trkpt lat="45.8849400" lon="5.6407930">
        <ele>758.9</ele>
        <time>2022-07-26T09:25:10Z</time>
      </trkpt>
      <trkpt lat="45.8849620" lon="5.6408240">
        <ele>758.5</ele>
        <time>2022-07-26T09:25:11Z</time>
      </trkpt>
      <trkpt lat="45.8850010" lon="5.6408570">
        <ele>757.9</ele>
        <time>2022-07-26T09:25:12Z</time>
      </trkpt>
      <trkpt lat="45.8850360" lon="5.6408810">
        <ele>757.5</ele>
        <time>2022-07-26T09:25:13Z</time>
      </trkpt>
      <trkpt lat="45.8850630" lon="5.6409020">
        <ele>757.2</ele>
        <time>2022-07-26T09:25:14Z</time>
      </trkpt>
      <trkpt lat="45.8850850" lon="5.6409200">
        <ele>757.3</ele>
        <time>2022-07-26T09:25:15Z</time>
      </trkpt>
      <trkpt lat="45.8850960" lon="5.6409230">
        <ele>757.3</ele>
        <time>2022-07-26T09:25:16Z</time>
      </trkpt>
      <trkpt lat="45.8851010" lon="5.6409200">
        <ele>757.4</ele>
        <time>2022-07-26T09:25:17Z</time>
      </trkpt>
      <trkpt lat="45.8851090" lon="5.6409190">
        <ele>757.4</ele>
        <time>2022-07-26T09:25:18Z</time>
      </trkpt>
      <trkpt lat="45.8851160" lon="5.6409180">
        <ele>757.4</ele>
        <time>2022-07-26T09:25:19Z</time>
      </trkpt>
      <trkpt lat="45.8851230" lon="5.6409180">
        <ele>757.5</ele>
        <time>2022-07-26T09:25:20Z</time>
      </trkpt>
      <trkpt lat="45.8851290" lon="5.6409170">
        <ele>757.5</ele>
        <time>2022-07-26T09:25:21Z</time>
      </trkpt>
      <trkpt lat="45.8851360" lon="5.6409150">
        <ele>757.5</ele>
        <time>2022-07-26T09:25:22Z</time>
      </trkpt>
      <trkpt lat="45.8851370" lon="5.6409240">
        <ele>757.6</ele>
        <time>2022-07-26T09:25:23Z</time>
      </trkpt>
      <trkpt lat="45.8851330" lon="5.6409310">
        <ele>757.6</ele>
        <time>2022-07-26T09:25:24Z</time>
      </trkpt>
      <trkpt lat="45.8851190" lon="5.6409350">
        <ele>757.6</ele>
        <time>2022-07-26T09:25:25Z</time>
      </trkpt>
      <trkpt lat="45.8851070" lon="5.6409340">
        <ele>757.7</ele>
        <time>2022-07-26T09:25:26Z</time>
      </trkpt>
      <trkpt lat="45.8850950" lon="5.6409300">
        <ele>757.8</ele>
        <time>2022-07-26T09:25:27Z</time>
      </trkpt>
      <trkpt lat="45.8850850" lon="5.6409240">
        <ele>757.8</ele>
        <time>2022-07-26T09:25:28Z</time>
      </trkpt>
      <trkpt lat="45.8850750" lon="5.6409180">
        <ele>757.9</ele>
        <time>2022-07-26T09:25:29Z</time>
      </trkpt>
      <trkpt lat="45.8850630" lon="5.6409110">
        <ele>757.9</ele>
        <time>2022-07-26T09:25:30Z</time>
      </trkpt>
      <trkpt lat="45.8850440" lon="5.6409020">
        <ele>758.0</ele>
        <time>2022-07-26T09:25:31Z</time>
      </trkpt>
      <trkpt lat="45.8850350" lon="5.6408990">
        <ele>758.1</ele>
        <time>2022-07-26T09:25:32Z</time>
      </trkpt>
      <trkpt lat="45.8850260" lon="5.6408960">
        <ele>758.1</ele>
        <time>2022-07-26T09:25:33Z</time>
      </trkpt>
      <trkpt lat="45.8850150" lon="5.6408910">
        <ele>758.2</ele>
        <time>2022-07-26T09:25:34Z</time>
      </trkpt>
      <trkpt lat="45.8850070" lon="5.6408870">
        <ele>758.2</ele>
        <time>2022-07-26T09:25:35Z</time>
      </trkpt>
      <trkpt lat="45.8850020" lon="5.6408820">
        <ele>758.2</ele>
        <time>2022-07-26T09:25:36Z</time>
      </trkpt>
      <trkpt lat="45.8849960" lon="5.6408760">
        <ele>758.3</ele>
        <time>2022-07-26T09:25:37Z</time>
      </trkpt>
      <trkpt lat="45.8849830" lon="5.6408660">
        <ele>758.3</ele>
        <time>2022-07-26T09:25:38Z</time>
      </trkpt>
      <trkpt lat="45.8849760" lon="5.6408630">
        <ele>758.4</ele>
        <time>2022-07-26T09:25:39Z</time>
      </trkpt>
      <trkpt lat="45.8849690" lon="5.6408610">
        <ele>758.4</ele>
        <time>2022-07-26T09:25:40Z</time>
      </trkpt>
      <trkpt lat="45.8849620" lon="5.6408580">
        <ele>758.4</ele>
        <time>2022-07-26T09:25:41Z</time>
      </trkpt>
      <trkpt lat="45.8849510" lon="5.6408560">
        <ele>758.5</ele>
        <time>2022-07-26T09:25:42Z</time>
      </trkpt>
      <trkpt lat="45.8849400" lon="5.6408550">
        <ele>758.9</ele>
        <time>2022-07-26T09:25:43Z</time>
      </trkpt>
      <trkpt lat="45.8849300" lon="5.6408540">
        <ele>758.8</ele>
        <time>2022-07-26T09:25:44Z</time>
      </trkpt>
      <trkpt lat="45.8849170" lon="5.6408530">
        <ele>758.8</ele>
        <time>2022-07-26T09:25:45Z</time>
      </trkpt>
      <trkpt lat="45.8849140" lon="5.6408550">
        <ele>758.8</ele>
        <time>2022-07-26T09:25:46Z</time>
      </trkpt>
      <trkpt lat="45.8849110" lon="5.6408570">
        <ele>758.8</ele>
        <time>2022-07-26T09:25:48Z</time>
      </trkpt>
      <trkpt lat="45.8849070" lon="5.6408590">
        <ele>758.8</ele>
        <time>2022-07-26T09:25:50Z</time>
      </trkpt>
      <trkpt lat="45.8849040" lon="5.6408620">
        <ele>758.8</ele>
        <time>2022-07-26T09:25:51Z</time>
      </trkpt>
      <trkpt lat="45.8849010" lon="5.6408640">
        <ele>758.8</ele>
        <time>2022-07-26T09:25:52Z</time>
      </trkpt>
      <trkpt lat="45.8848970" lon="5.6408660">
        <ele>758.8</ele>
        <time>2022-07-26T09:25:53Z</time>
      </trkpt>
      <trkpt lat="45.8848940" lon="5.6408680">
        <ele>758.8</ele>
        <time>2022-07-26T09:25:54Z</time>
      </trkpt>
      <trkpt lat="45.8848700" lon="5.6408970">
        <ele>758.7</ele>
        <time>2022-07-26T09:25:56Z</time>
      </trkpt>
      <trkpt lat="45.8848490" lon="5.6409320">
        <ele>758.7</ele>
        <time>2022-07-26T09:25:57Z</time>
      </trkpt>
      <trkpt lat="45.8848210" lon="5.6409820">
        <ele>758.6</ele>
        <time>2022-07-26T09:25:59Z</time>
      </trkpt>
      <trkpt lat="45.8847780" lon="5.6410350">
        <ele>758.5</ele>
        <time>2022-07-26T09:26:01Z</time>
      </trkpt>
      <trkpt lat="45.8847410" lon="5.6410720">
        <ele>758.4</ele>
        <time>2022-07-26T09:26:02Z</time>
      </trkpt>
      <trkpt lat="45.8847110" lon="5.6411100">
        <ele>758.3</ele>
        <time>2022-07-26T09:26:03Z</time>
      </trkpt>
      <trkpt lat="45.8846880" lon="5.6411560">
        <ele>758.2</ele>
        <time>2022-07-26T09:26:04Z</time>
      </trkpt>
      <trkpt lat="45.8846670" lon="5.6412020">
        <ele>758.1</ele>
        <time>2022-07-26T09:26:06Z</time>
      </trkpt>
      <trkpt lat="45.8846530" lon="5.6412480">
        <ele>758.0</ele>
        <time>2022-07-26T09:26:07Z</time>
      </trkpt>
      <trkpt lat="45.8846540" lon="5.6413000">
        <ele>757.9</ele>
        <time>2022-07-26T09:26:08Z</time>
      </trkpt>
      <trkpt lat="45.8846670" lon="5.6413870">
        <ele>757.7</ele>
        <time>2022-07-26T09:26:09Z</time>
      </trkpt>
      <trkpt lat="45.8846770" lon="5.6414430">
        <ele>757.0</ele>
        <time>2022-07-26T09:26:10Z</time>
      </trkpt>
      <trkpt lat="45.8846940" lon="5.6415070">
        <ele>755.9</ele>
        <time>2022-07-26T09:26:12Z</time>
      </trkpt>
      <trkpt lat="45.8847090" lon="5.6415680">
        <ele>755.0</ele>
        <time>2022-07-26T09:26:13Z</time>
      </trkpt>
      <trkpt lat="45.8847200" lon="5.6416040">
        <ele>754.4</ele>
        <time>2022-07-26T09:26:14Z</time>
      </trkpt>
      <trkpt lat="45.8847290" lon="5.6416540">
        <ele>753.6</ele>
        <time>2022-07-26T09:26:15Z</time>
      </trkpt>
      <trkpt lat="45.8847350" lon="5.6416960">
        <ele>752.9</ele>
        <time>2022-07-26T09:26:16Z</time>
      </trkpt>
      <trkpt lat="45.8847430" lon="5.6417450">
        <ele>752.2</ele>
        <time>2022-07-26T09:26:17Z</time>
      </trkpt>
      <trkpt lat="45.8847480" lon="5.6417980">
        <ele>751.4</ele>
        <time>2022-07-26T09:26:18Z</time>
      </trkpt>
      <trkpt lat="45.8847520" lon="5.6418630">
        <ele>750.4</ele>
        <time>2022-07-26T09:26:20Z</time>
      </trkpt>
      <trkpt lat="45.8847510" lon="5.6419520">
        <ele>749.2</ele>
        <time>2022-07-26T09:26:22Z</time>
      </trkpt>
      <trkpt lat="45.8847440" lon="5.6420050">
        <ele>748.4</ele>
        <time>2022-07-26T09:26:23Z</time>
      </trkpt>
      <trkpt lat="45.8847390" lon="5.6420510">
        <ele>747.7</ele>
        <time>2022-07-26T09:26:24Z</time>
      </trkpt>
      <trkpt lat="45.8847390" lon="5.6421010">
        <ele>747.0</ele>
        <time>2022-07-26T09:26:25Z</time>
      </trkpt>
      <trkpt lat="45.8847460" lon="5.6421620">
        <ele>746.1</ele>
        <time>2022-07-26T09:26:27Z</time>
      </trkpt>
      <trkpt lat="45.8847530" lon="5.6422100">
        <ele>745.4</ele>
        <time>2022-07-26T09:26:28Z</time>
      </trkpt>
      <trkpt lat="45.8847580" lon="5.6422520">
        <ele>744.8</ele>
        <time>2022-07-26T09:26:29Z</time>
      </trkpt>
      <trkpt lat="45.8847650" lon="5.6423280">
        <ele>743.6</ele>
        <time>2022-07-26T09:26:30Z</time>
      </trkpt>
      <trkpt lat="45.8847680" lon="5.6423740">
        <ele>742.9</ele>
        <time>2022-07-26T09:26:32Z</time>
      </trkpt>
      <trkpt lat="45.8847660" lon="5.6424340">
        <ele>741.9</ele>
        <time>2022-07-26T09:26:33Z</time>
      </trkpt>
      <trkpt lat="45.8847700" lon="5.6424760">
        <ele>741.2</ele>
        <time>2022-07-26T09:26:34Z</time>
      </trkpt>
      <trkpt lat="45.8847780" lon="5.6425210">
        <ele>740.5</ele>
        <time>2022-07-26T09:26:35Z</time>
      </trkpt>
      <trkpt lat="45.8847920" lon="5.6425690">
        <ele>739.6</ele>
        <time>2022-07-26T09:26:36Z</time>
      </trkpt>
      <trkpt lat="45.8848030" lon="5.6426220">
        <ele>738.7</ele>
        <time>2022-07-26T09:26:37Z</time>
      </trkpt>
      <trkpt lat="45.8848060" lon="5.6426400">
        <ele>738.4</ele>
        <time>2022-07-26T09:26:38Z</time>
      </trkpt>
      <trkpt lat="45.8848180" lon="5.6426820">
        <ele>737.6</ele>
        <time>2022-07-26T09:26:39Z</time>
      </trkpt>
      <trkpt lat="45.8848360" lon="5.6427200">
        <ele>736.8</ele>
        <time>2022-07-26T09:26:41Z</time>
      </trkpt>
      <trkpt lat="45.8848420" lon="5.6427590">
        <ele>736.2</ele>
        <time>2022-07-26T09:26:42Z</time>
      </trkpt>
      <trkpt lat="45.8848520" lon="5.6428190">
        <ele>735.1</ele>
        <time>2022-07-26T09:26:43Z</time>
      </trkpt>
      <trkpt lat="45.8848670" lon="5.6428860">
        <ele>734.0</ele>
        <time>2022-07-26T09:26:44Z</time>
      </trkpt>
      <trkpt lat="45.8848810" lon="5.6429470">
        <ele>733.0</ele>
        <time>2022-07-26T09:26:45Z</time>
      </trkpt>
      <trkpt lat="45.8848980" lon="5.6430080">
        <ele>732.0</ele>
        <time>2022-07-26T09:26:46Z</time>
      </trkpt>
      <trkpt lat="45.8849250" lon="5.6431050">
        <ele>730.4</ele>
        <time>2022-07-26T09:26:47Z</time>
      </trkpt>
      <trkpt lat="45.8849440" lon="5.6431720">
        <ele>729.2</ele>
        <time>2022-07-26T09:26:49Z</time>
      </trkpt>
      <trkpt lat="45.8849630" lon="5.6432370">
        <ele>728.0</ele>
        <time>2022-07-26T09:26:50Z</time>
      </trkpt>
      <trkpt lat="45.8849760" lon="5.6433100">
        <ele>726.8</ele>
        <time>2022-07-26T09:26:51Z</time>
      </trkpt>
      <trkpt lat="45.8849820" lon="5.6433830">
        <ele>725.6</ele>
        <time>2022-07-26T09:26:52Z</time>
      </trkpt>
      <trkpt lat="45.8849860" lon="5.6434410">
        <ele>724.7</ele>
        <time>2022-07-26T09:26:53Z</time>
      </trkpt>
      <trkpt lat="45.8849960" lon="5.6435060">
        <ele>723.7</ele>
        <time>2022-07-26T09:26:55Z</time>
      </trkpt>
      <trkpt lat="45.8850080" lon="5.6435560">
        <ele>722.9</ele>
        <time>2022-07-26T09:26:56Z</time>
      </trkpt>
      <trkpt lat="45.8850200" lon="5.6436240">
        <ele>722.0</ele>
        <time>2022-07-26T09:26:58Z</time>
      </trkpt>
      <trkpt lat="45.8850320" lon="5.6436610">
        <ele>721.4</ele>
        <time>2022-07-26T09:26:59Z</time>
      </trkpt>
      <trkpt lat="45.8850440" lon="5.6437100">
        <ele>720.7</ele>
        <time>2022-07-26T09:27:00Z</time>
      </trkpt>
      <trkpt lat="45.8850460" lon="5.6437270">
        <ele>720.5</ele>
        <time>2022-07-26T09:27:01Z</time>
      </trkpt>
      <trkpt lat="45.8850430" lon="5.6437780">
        <ele>719.8</ele>
        <time>2022-07-26T09:27:02Z</time>
      </trkpt>
      <trkpt lat="45.8850420" lon="5.6437920">
        <ele>719.6</ele>
        <time>2022-07-26T09:27:03Z</time>
      </trkpt>
      <trkpt lat="45.8850520" lon="5.6438010">
        <ele>719.4</ele>
        <time>2022-07-26T09:27:05Z</time>
      </trkpt>
      <trkpt lat="45.8850540" lon="5.6438080">
        <ele>719.3</ele>
        <time>2022-07-26T09:27:06Z</time>
      </trkpt>
      <trkpt lat="45.8850560" lon="5.6438140">
        <ele>719.2</ele>
        <time>2022-07-26T09:27:07Z</time>
      </trkpt>
      <trkpt lat="45.8850580" lon="5.6438200">
        <ele>719.1</ele>
        <time>2022-07-26T09:27:08Z</time>
      </trkpt>
      <trkpt lat="45.8850600" lon="5.6438270">
        <ele>719.0</ele>
        <time>2022-07-26T09:27:09Z</time>
      </trkpt>
      <trkpt lat="45.8850620" lon="5.6438330">
        <ele>718.9</ele>
        <time>2022-07-26T09:27:10Z</time>
      </trkpt>
      <trkpt lat="45.8850630" lon="5.6438390">
        <ele>718.9</ele>
        <time>2022-07-26T09:27:11Z</time>
      </trkpt>
      <trkpt lat="45.8850650" lon="5.6438450">
        <ele>718.8</ele>
        <time>2022-07-26T09:27:12Z</time>
      </trkpt>
      <trkpt lat="45.8850670" lon="5.6438520">
        <ele>718.7</ele>
        <time>2022-07-26T09:27:13Z</time>
      </trkpt>
      <trkpt lat="45.8850690" lon="5.6438580">
        <ele>718.6</ele>
        <time>2022-07-26T09:27:14Z</time>
      </trkpt>
      <trkpt lat="45.8850710" lon="5.6438640">
        <ele>718.5</ele>
        <time>2022-07-26T09:27:15Z</time>
      </trkpt>
      <trkpt lat="45.8850730" lon="5.6438710">
        <ele>718.4</ele>
        <time>2022-07-26T09:27:16Z</time>
      </trkpt>
      <trkpt lat="45.8850740" lon="5.6438770">
        <ele>718.3</ele>
        <time>2022-07-26T09:27:17Z</time>
      </trkpt>
      <trkpt lat="45.8850760" lon="5.6438830">
        <ele>718.3</ele>
        <time>2022-07-26T09:27:18Z</time>
      </trkpt>
      <trkpt lat="45.8850780" lon="5.6438900">
        <ele>718.2</ele>
        <time>2022-07-26T09:27:19Z</time>
      </trkpt>
      <trkpt lat="45.8850940" lon="5.6439630">
        <ele>717.2</ele>
        <time>2022-07-26T09:27:21Z</time>
      </trkpt>
      <trkpt lat="45.8851230" lon="5.6440550">
        <ele>716.1</ele>
        <time>2022-07-26T09:27:22Z</time>
      </trkpt>
      <trkpt lat="45.8851420" lon="5.6441240">
        <ele>715.2</ele>
        <time>2022-07-26T09:27:23Z</time>
      </trkpt>
      <trkpt lat="45.8851560" lon="5.6441900">
        <ele>714.4</ele>
        <time>2022-07-26T09:27:24Z</time>
      </trkpt>
      <trkpt lat="45.8851680" lon="5.6442520">
        <ele>713.6</ele>
        <time>2022-07-26T09:27:25Z</time>
      </trkpt>
      <trkpt lat="45.8851860" lon="5.6443130">
        <ele>712.8</ele>
        <time>2022-07-26T09:27:26Z</time>
      </trkpt>
      <trkpt lat="45.8852010" lon="5.6443760">
        <ele>712.0</ele>
        <time>2022-07-26T09:27:28Z</time>
      </trkpt>
      <trkpt lat="45.8852520" lon="5.6445570">
        <ele>709.8</ele>
        <time>2022-07-26T09:27:29Z</time>
      </trkpt>
      <trkpt lat="45.8852780" lon="5.6446820">
        <ele>708.5</ele>
        <time>2022-07-26T09:27:30Z</time>
      </trkpt>
      <trkpt lat="45.8852950" lon="5.6447540">
        <ele>707.7</ele>
        <time>2022-07-26T09:27:31Z</time>
      </trkpt>
      <trkpt lat="45.8853170" lon="5.6448260">
        <ele>706.9</ele>
        <time>2022-07-26T09:27:32Z</time>
      </trkpt>
      <trkpt lat="45.8853460" lon="5.6449690">
        <ele>705.3</ele>
        <time>2022-07-26T09:27:34Z</time>
      </trkpt>
      <trkpt lat="45.8853610" lon="5.6450410">
        <ele>704.5</ele>
        <time>2022-07-26T09:27:35Z</time>
      </trkpt>
      <trkpt lat="45.8853930" lon="5.6451150">
        <ele>704.0</ele>
        <time>2022-07-26T09:27:37Z</time>
      </trkpt>
      <trkpt lat="45.8854100" lon="5.6451970">
        <ele>703.6</ele>
        <time>2022-07-26T09:27:38Z</time>
      </trkpt>
      <trkpt lat="45.8854370" lon="5.6452650">
        <ele>703.1</ele>
        <time>2022-07-26T09:27:39Z</time>
      </trkpt>
      <trkpt lat="45.8854640" lon="5.6453230">
        <ele>702.6</ele>
        <time>2022-07-26T09:27:40Z</time>
      </trkpt>
      <trkpt lat="45.8854960" lon="5.6453910">
        <ele>702.0</ele>
        <time>2022-07-26T09:27:41Z</time>
      </trkpt>
      <trkpt lat="45.8855180" lon="5.6455120">
        <ele>701.1</ele>
        <time>2022-07-26T09:27:43Z</time>
      </trkpt>
      <trkpt lat="45.8855330" lon="5.6455830">
        <ele>700.5</ele>
        <time>2022-07-26T09:27:44Z</time>
      </trkpt>
      <trkpt lat="45.8855470" lon="5.6456480">
        <ele>700.0</ele>
        <time>2022-07-26T09:27:45Z</time>
      </trkpt>
      <trkpt lat="45.8855570" lon="5.6456950">
        <ele>699.6</ele>
        <time>2022-07-26T09:27:46Z</time>
      </trkpt>
      <trkpt lat="45.8855710" lon="5.6457630">
        <ele>699.1</ele>
        <time>2022-07-26T09:27:47Z</time>
      </trkpt>
      <trkpt lat="45.8855920" lon="5.6458370">
        <ele>698.5</ele>
        <time>2022-07-26T09:27:48Z</time>
      </trkpt>
      <trkpt lat="45.8856120" lon="5.6459160">
        <ele>697.8</ele>
        <time>2022-07-26T09:27:49Z</time>
      </trkpt>
      <trkpt lat="45.8856290" lon="5.6459890">
        <ele>697.3</ele>
        <time>2022-07-26T09:27:50Z</time>
      </trkpt>
      <trkpt lat="45.8856470" lon="5.6460600">
        <ele>696.7</ele>
        <time>2022-07-26T09:27:51Z</time>
      </trkpt>
      <trkpt lat="45.8856640" lon="5.6461160">
        <ele>696.2</ele>
        <time>2022-07-26T09:27:52Z</time>
      </trkpt>
      <trkpt lat="45.8856890" lon="5.6461890">
        <ele>695.7</ele>
        <time>2022-07-26T09:27:53Z</time>
      </trkpt>
      <trkpt lat="45.8857090" lon="5.6462570">
        <ele>695.2</ele>
        <time>2022-07-26T09:27:54Z</time>
      </trkpt>
      <trkpt lat="45.8857180" lon="5.6463040">
        <ele>694.8</ele>
        <time>2022-07-26T09:27:55Z</time>
      </trkpt>
      <trkpt lat="45.8857220" lon="5.6463590">
        <ele>694.5</ele>
        <time>2022-07-26T09:27:56Z</time>
      </trkpt>
      <trkpt lat="45.8857220" lon="5.6463760">
        <ele>694.4</ele>
        <time>2022-07-26T09:27:57Z</time>
      </trkpt>
      <trkpt lat="45.8857340" lon="5.6464200">
        <ele>694.0</ele>
        <time>2022-07-26T09:27:59Z</time>
      </trkpt>
      <trkpt lat="45.8857460" lon="5.6464780">
        <ele>693.6</ele>
        <time>2022-07-26T09:28:00Z</time>
      </trkpt>
      <trkpt lat="45.8857510" lon="5.6465180">
        <ele>693.3</ele>
        <time>2022-07-26T09:28:01Z</time>
      </trkpt>
      <trkpt lat="45.8857570" lon="5.6465660">
        <ele>692.9</ele>
        <time>2022-07-26T09:28:02Z</time>
      </trkpt>
      <trkpt lat="45.8857530" lon="5.6466410">
        <ele>692.3</ele>
        <time>2022-07-26T09:28:04Z</time>
      </trkpt>
      <trkpt lat="45.8857590" lon="5.6467040">
        <ele>691.8</ele>
        <time>2022-07-26T09:28:05Z</time>
      </trkpt>
      <trkpt lat="45.8857620" lon="5.6467310">
        <ele>691.5</ele>
        <time>2022-07-26T09:28:06Z</time>
      </trkpt>
      <trkpt lat="45.8857750" lon="5.6467840">
        <ele>690.9</ele>
        <time>2022-07-26T09:28:07Z</time>
      </trkpt>
      <trkpt lat="45.8857920" lon="5.6468340">
        <ele>690.3</ele>
        <time>2022-07-26T09:28:08Z</time>
      </trkpt>
      <trkpt lat="45.8858140" lon="5.6468810">
        <ele>689.7</ele>
        <time>2022-07-26T09:28:09Z</time>
      </trkpt>
      <trkpt lat="45.8858380" lon="5.6469460">
        <ele>688.9</ele>
        <time>2022-07-26T09:28:11Z</time>
      </trkpt>
      <trkpt lat="45.8858430" lon="5.6469920">
        <ele>688.3</ele>
        <time>2022-07-26T09:28:12Z</time>
      </trkpt>
      <trkpt lat="45.8858460" lon="5.6470640">
        <ele>687.4</ele>
        <time>2022-07-26T09:28:13Z</time>
      </trkpt>
      <trkpt lat="45.8858490" lon="5.6470960">
        <ele>687.0</ele>
        <time>2022-07-26T09:28:14Z</time>
      </trkpt>
      <trkpt lat="45.8858550" lon="5.6471450">
        <ele>686.4</ele>
        <time>2022-07-26T09:28:15Z</time>
      </trkpt>
      <trkpt lat="45.8858580" lon="5.6471960">
        <ele>685.8</ele>
        <time>2022-07-26T09:28:16Z</time>
      </trkpt>
      <trkpt lat="45.8858550" lon="5.6472440">
        <ele>685.2</ele>
        <time>2022-07-26T09:28:17Z</time>
      </trkpt>
      <trkpt lat="45.8858490" lon="5.6472890">
        <ele>684.7</ele>
        <time>2022-07-26T09:28:18Z</time>
      </trkpt>
      <trkpt lat="45.8858390" lon="5.6473350">
        <ele>684.2</ele>
        <time>2022-07-26T09:28:19Z</time>
      </trkpt>
      <trkpt lat="45.8858240" lon="5.6473980">
        <ele>683.5</ele>
        <time>2022-07-26T09:28:20Z</time>
      </trkpt>
      <trkpt lat="45.8858180" lon="5.6474680">
        <ele>682.7</ele>
        <time>2022-07-26T09:28:22Z</time>
      </trkpt>
      <trkpt lat="45.8858170" lon="5.6475340">
        <ele>682.1</ele>
        <time>2022-07-26T09:28:23Z</time>
      </trkpt>
      <trkpt lat="45.8858180" lon="5.6476020">
        <ele>681.4</ele>
        <time>2022-07-26T09:28:24Z</time>
      </trkpt>
      <trkpt lat="45.8858220" lon="5.6476650">
        <ele>680.7</ele>
        <time>2022-07-26T09:28:25Z</time>
      </trkpt>
      <trkpt lat="45.8858190" lon="5.6477690">
        <ele>679.6</ele>
        <time>2022-07-26T09:28:26Z</time>
      </trkpt>
      <trkpt lat="45.8858670" lon="5.6478830">
        <ele>678.1</ele>
        <time>2022-07-26T09:28:28Z</time>
      </trkpt>
      <trkpt lat="45.8858970" lon="5.6479570">
        <ele>677.2</ele>
        <time>2022-07-26T09:28:29Z</time>
      </trkpt>
      <trkpt lat="45.8859290" lon="5.6480140">
        <ele>676.4</ele>
        <time>2022-07-26T09:28:30Z</time>
      </trkpt>
      <trkpt lat="45.8859740" lon="5.6480650">
        <ele>675.6</ele>
        <time>2022-07-26T09:28:31Z</time>
      </trkpt>
      <trkpt lat="45.8860110" lon="5.6481390">
        <ele>674.8</ele>
        <time>2022-07-26T09:28:33Z</time>
      </trkpt>
      <trkpt lat="45.8860400" lon="5.6481960">
        <ele>674.1</ele>
        <time>2022-07-26T09:28:34Z</time>
      </trkpt>
      <trkpt lat="45.8860730" lon="5.6482410">
        <ele>673.6</ele>
        <time>2022-07-26T09:28:35Z</time>
      </trkpt>
      <trkpt lat="45.8861100" lon="5.6483010">
        <ele>672.9</ele>
        <time>2022-07-26T09:28:36Z</time>
      </trkpt>
      <trkpt lat="45.8861350" lon="5.6483640">
        <ele>672.2</ele>
        <time>2022-07-26T09:28:37Z</time>
      </trkpt>
      <trkpt lat="45.8861810" lon="5.6484320">
        <ele>671.4</ele>
        <time>2022-07-26T09:28:39Z</time>
      </trkpt>
      <trkpt lat="45.8862180" lon="5.6484870">
        <ele>670.7</ele>
        <time>2022-07-26T09:28:40Z</time>
      </trkpt>
      <trkpt lat="45.8862490" lon="5.6485430">
        <ele>670.0</ele>
        <time>2022-07-26T09:28:41Z</time>
      </trkpt>
      <trkpt lat="45.8862750" lon="5.6486040">
        <ele>669.3</ele>
        <time>2022-07-26T09:28:42Z</time>
      </trkpt>
      <trkpt lat="45.8863030" lon="5.6486950">
        <ele>668.3</ele>
        <time>2022-07-26T09:28:43Z</time>
      </trkpt>
      <trkpt lat="45.8863140" lon="5.6487780">
        <ele>667.2</ele>
        <time>2022-07-26T09:28:45Z</time>
      </trkpt>
      <trkpt lat="45.8863180" lon="5.6488590">
        <ele>666.0</ele>
        <time>2022-07-26T09:28:46Z</time>
      </trkpt>
      <trkpt lat="45.8863260" lon="5.6489090">
        <ele>665.4</ele>
        <time>2022-07-26T09:28:47Z</time>
      </trkpt>
      <trkpt lat="45.8863730" lon="5.6490250">
        <ele>664.9</ele>
        <time>2022-07-26T09:28:49Z</time>
      </trkpt>
      <trkpt lat="45.8864060" lon="5.6490830">
        <ele>664.3</ele>
        <time>2022-07-26T09:28:50Z</time>
      </trkpt>
      <trkpt lat="45.8864470" lon="5.6491340">
        <ele>663.8</ele>
        <time>2022-07-26T09:28:51Z</time>
      </trkpt>
      <trkpt lat="45.8864850" lon="5.6491840">
        <ele>663.2</ele>
        <time>2022-07-26T09:28:52Z</time>
      </trkpt>
      <trkpt lat="45.8865270" lon="5.6492270">
        <ele>662.7</ele>
        <time>2022-07-26T09:28:53Z</time>
      </trkpt>
      <trkpt lat="45.8865770" lon="5.6492770">
        <ele>662.1</ele>
        <time>2022-07-26T09:28:54Z</time>
      </trkpt>
      <trkpt lat="45.8866310" lon="5.6493170">
        <ele>661.6</ele>
        <time>2022-07-26T09:28:55Z</time>
      </trkpt>
      <trkpt lat="45.8866920" lon="5.6493580">
        <ele>660.9</ele>
        <time>2022-07-26T09:28:56Z</time>
      </trkpt>
      <trkpt lat="45.8867610" lon="5.6493950">
        <ele>660.3</ele>
        <time>2022-07-26T09:28:57Z</time>
      </trkpt>
      <trkpt lat="45.8868270" lon="5.6494540">
        <ele>659.5</ele>
        <time>2022-07-26T09:28:58Z</time>
      </trkpt>
      <trkpt lat="45.8868930" lon="5.6495250">
        <ele>658.8</ele>
        <time>2022-07-26T09:28:59Z</time>
      </trkpt>
      <trkpt lat="45.8869720" lon="5.6495950">
        <ele>657.8</ele>
        <time>2022-07-26T09:29:00Z</time>
      </trkpt>
      <trkpt lat="45.8870470" lon="5.6496530">
        <ele>656.9</ele>
        <time>2022-07-26T09:29:01Z</time>
      </trkpt>
      <trkpt lat="45.8871330" lon="5.6497040">
        <ele>656.0</ele>
        <time>2022-07-26T09:29:02Z</time>
      </trkpt>
      <trkpt lat="45.8872290" lon="5.6497650">
        <ele>654.8</ele>
        <time>2022-07-26T09:29:03Z</time>
      </trkpt>
      <trkpt lat="45.8873310" lon="5.6498230">
        <ele>653.8</ele>
        <time>2022-07-26T09:29:04Z</time>
      </trkpt>
      <trkpt lat="45.8874430" lon="5.6498790">
        <ele>652.8</ele>
        <time>2022-07-26T09:29:05Z</time>
      </trkpt>
      <trkpt lat="45.8875470" lon="5.6499240">
        <ele>651.9</ele>
        <time>2022-07-26T09:29:06Z</time>
      </trkpt>
      <trkpt lat="45.8876570" lon="5.6499660">
        <ele>651.0</ele>
        <time>2022-07-26T09:29:07Z</time>
      </trkpt>
      <trkpt lat="45.8877760" lon="5.6500030">
        <ele>650.1</ele>
        <time>2022-07-26T09:29:08Z</time>
      </trkpt>
      <trkpt lat="45.8878910" lon="5.6500470">
        <ele>649.2</ele>
        <time>2022-07-26T09:29:09Z</time>
      </trkpt>
      <trkpt lat="45.8880040" lon="5.6500970">
        <ele>648.4</ele>
        <time>2022-07-26T09:29:10Z</time>
      </trkpt>
      <trkpt lat="45.8881000" lon="5.6501560">
        <ele>647.7</ele>
        <time>2022-07-26T09:29:11Z</time>
      </trkpt>
      <trkpt lat="45.8881900" lon="5.6502100">
        <ele>647.0</ele>
        <time>2022-07-26T09:29:12Z</time>
      </trkpt>
      <trkpt lat="45.8882770" lon="5.6502680">
        <ele>646.4</ele>
        <time>2022-07-26T09:29:13Z</time>
      </trkpt>
      <trkpt lat="45.8883620" lon="5.6503230">
        <ele>645.8</ele>
        <time>2022-07-26T09:29:14Z</time>
      </trkpt>
      <trkpt lat="45.8884420" lon="5.6503700">
        <ele>645.2</ele>
        <time>2022-07-26T09:29:15Z</time>
      </trkpt>
      <trkpt lat="45.8885240" lon="5.6504210">
        <ele>644.5</ele>
        <time>2022-07-26T09:29:16Z</time>
      </trkpt>
      <trkpt lat="45.8886030" lon="5.6504650">
        <ele>643.9</ele>
        <time>2022-07-26T09:29:17Z</time>
      </trkpt>
      <trkpt lat="45.8886860" lon="5.6504910">
        <ele>643.2</ele>
        <time>2022-07-26T09:29:18Z</time>
      </trkpt>
      <trkpt lat="45.8887670" lon="5.6505090">
        <ele>642.6</ele>
        <time>2022-07-26T09:29:19Z</time>
      </trkpt>
      <trkpt lat="45.8888480" lon="5.6505220">
        <ele>642.0</ele>
        <time>2022-07-26T09:29:20Z</time>
      </trkpt>
      <trkpt lat="45.8889180" lon="5.6505120">
        <ele>641.4</ele>
        <time>2022-07-26T09:29:21Z</time>
      </trkpt>
      <trkpt lat="45.8889920" lon="5.6504440">
        <ele>640.7</ele>
        <time>2022-07-26T09:29:22Z</time>
      </trkpt>
      <trkpt lat="45.8890740" lon="5.6503990">
        <ele>640.0</ele>
        <time>2022-07-26T09:29:23Z</time>
      </trkpt>
      <trkpt lat="45.8891690" lon="5.6503800">
        <ele>639.2</ele>
        <time>2022-07-26T09:29:24Z</time>
      </trkpt>
      <trkpt lat="45.8892530" lon="5.6503750">
        <ele>638.5</ele>
        <time>2022-07-26T09:29:25Z</time>
      </trkpt>
      <trkpt lat="45.8893390" lon="5.6503910">
        <ele>637.7</ele>
        <time>2022-07-26T09:29:26Z</time>
      </trkpt>
      <trkpt lat="45.8894540" lon="5.6504290">
        <ele>636.7</ele>
        <time>2022-07-26T09:29:27Z</time>
      </trkpt>
      <trkpt lat="45.8895620" lon="5.6504860">
        <ele>635.7</ele>
        <time>2022-07-26T09:29:28Z</time>
      </trkpt>
      <trkpt lat="45.8896530" lon="5.6505540">
        <ele>634.8</ele>
        <time>2022-07-26T09:29:29Z</time>
      </trkpt>
      <trkpt lat="45.8897390" lon="5.6506250">
        <ele>633.9</ele>
        <time>2022-07-26T09:29:30Z</time>
      </trkpt>
      <trkpt lat="45.8898070" lon="5.6506850">
        <ele>633.2</ele>
        <time>2022-07-26T09:29:31Z</time>
      </trkpt>
      <trkpt lat="45.8898410" lon="5.6507130">
        <ele>632.8</ele>
        <time>2022-07-26T09:29:32Z</time>
      </trkpt>
      <trkpt lat="45.8898450" lon="5.6507100">
        <ele>632.7</ele>
        <time>2022-07-26T09:29:33Z</time>
      </trkpt>
      <trkpt lat="45.8898520" lon="5.6507230">
        <ele>632.6</ele>
        <time>2022-07-26T09:29:34Z</time>
      </trkpt>
      <trkpt lat="45.8898600" lon="5.6507270">
        <ele>632.5</ele>
        <time>2022-07-26T09:29:35Z</time>
      </trkpt>
      <trkpt lat="45.8898650" lon="5.6507470">
        <ele>632.4</ele>
        <time>2022-07-26T09:29:36Z</time>
      </trkpt>
      <trkpt lat="45.8898650" lon="5.6507610">
        <ele>632.3</ele>
        <time>2022-07-26T09:29:37Z</time>
      </trkpt>
      <trkpt lat="45.8898640" lon="5.6507750">
        <ele>632.1</ele>
        <time>2022-07-26T09:29:38Z</time>
      </trkpt>
      <trkpt lat="45.8898690" lon="5.6507870">
        <ele>632.0</ele>
        <time>2022-07-26T09:29:39Z</time>
      </trkpt>
      <trkpt lat="45.8898830" lon="5.6507920">
        <ele>631.8</ele>
        <time>2022-07-26T09:29:40Z</time>
      </trkpt>
      <trkpt lat="45.8899010" lon="5.6507880">
        <ele>631.6</ele>
        <time>2022-07-26T09:29:41Z</time>
      </trkpt>
      <trkpt lat="45.8899060" lon="5.6507890">
        <ele>631.6</ele>
        <time>2022-07-26T09:29:42Z</time>
      </trkpt>
      <trkpt lat="45.8899050" lon="5.6507890">
        <ele>631.5</ele>
        <time>2022-07-26T09:29:43Z</time>
      </trkpt>
      <trkpt lat="45.8899030" lon="5.6507920">
        <ele>631.5</ele>
        <time>2022-07-26T09:29:44Z</time>
      </trkpt>
      <trkpt lat="45.8899000" lon="5.6507950">
        <ele>631.5</ele>
        <time>2022-07-26T09:29:45Z</time>
      </trkpt>
      <trkpt lat="45.8898970" lon="5.6507950">
        <ele>631.4</ele>
        <time>2022-07-26T09:29:46Z</time>
      </trkpt>
      <trkpt lat="45.8898930" lon="5.6507930">
        <ele>631.4</ele>
        <time>2022-07-26T09:29:47Z</time>
      </trkpt>
      <trkpt lat="45.8898800" lon="5.6507780">
        <ele>631.1</ele>
        <time>2022-07-26T09:29:48Z</time>
      </trkpt>
      <trkpt lat="45.8898790" lon="5.6507750">
        <ele>631.1</ele>
        <time>2022-07-26T09:29:49Z</time>
      </trkpt>
      <trkpt lat="45.8898780" lon="5.6507700">
        <ele>631.1</ele>
        <time>2022-07-26T09:29:50Z</time>
      </trkpt>
      <trkpt lat="45.8898770" lon="5.6507590">
        <ele>631.0</ele>
        <time>2022-07-26T09:29:51Z</time>
      </trkpt>
      <trkpt lat="45.8898760" lon="5.6507520">
        <ele>630.9</ele>
        <time>2022-07-26T09:29:52Z</time>
      </trkpt>
      <trkpt lat="45.8898750" lon="5.6507500">
        <ele>630.9</ele>
        <time>2022-07-26T09:29:53Z</time>
      </trkpt>
      <trkpt lat="45.8898740" lon="5.6507510">
        <ele>630.9</ele>
        <time>2022-07-26T09:29:54Z</time>
      </trkpt>
      <trkpt lat="45.8898740" lon="5.6507520">
        <ele>630.8</ele>
        <time>2022-07-26T09:29:55Z</time>
      </trkpt>
      <trkpt lat="45.8898730" lon="5.6507540">
        <ele>630.8</ele>
        <time>2022-07-26T09:29:56Z</time>
      </trkpt>
      <trkpt lat="45.8898720" lon="5.6507550">
        <ele>630.8</ele>
        <time>2022-07-26T09:29:57Z</time>
      </trkpt>
      <trkpt lat="45.8898720" lon="5.6507540">
        <ele>630.8</ele>
        <time>2022-07-26T09:29:58Z</time>
      </trkpt>
      <trkpt lat="45.8898700" lon="5.6507550">
        <ele>630.8</ele>
        <time>2022-07-26T09:29:59Z</time>
      </trkpt>
      <trkpt lat="45.8898680" lon="5.6507550">
        <ele>630.7</ele>
        <time>2022-07-26T09:30:00Z</time>
      </trkpt>
      <trkpt lat="45.8898640" lon="5.6507530">
        <ele>630.7</ele>
        <time>2022-07-26T09:30:01Z</time>
      </trkpt>
      <trkpt lat="45.8898600" lon="5.6507520">
        <ele>630.6</ele>
        <time>2022-07-26T09:30:02Z</time>
      </trkpt>
      <trkpt lat="45.8898540" lon="5.6507510">
        <ele>630.5</ele>
        <time>2022-07-26T09:30:03Z</time>
      </trkpt>
      <trkpt lat="45.8898480" lon="5.6507510">
        <ele>630.4</ele>
        <time>2022-07-26T09:30:04Z</time>
      </trkpt>
      <trkpt lat="45.8898400" lon="5.6507530">
        <ele>630.3</ele>
        <time>2022-07-26T09:30:05Z</time>
      </trkpt>
      <trkpt lat="45.8898360" lon="5.6507540">
        <ele>630.3</ele>
        <time>2022-07-26T09:30:06Z</time>
      </trkpt>
      <trkpt lat="45.8898320" lon="5.6507560">
        <ele>630.2</ele>
        <time>2022-07-26T09:30:07Z</time>
      </trkpt>
      <trkpt lat="45.8898270" lon="5.6507590">
        <ele>630.1</ele>
        <time>2022-07-26T09:30:08Z</time>
      </trkpt>
      <trkpt lat="45.8898250" lon="5.6507630">
        <ele>630.1</ele>
        <time>2022-07-26T09:30:09Z</time>
      </trkpt>
      <trkpt lat="45.8898240" lon="5.6507640">
        <ele>630.0</ele>
        <time>2022-07-26T09:30:10Z</time>
      </trkpt>
      <trkpt lat="45.8898240" lon="5.6507640">
        <ele>630.0</ele>
        <time>2022-07-26T09:30:11Z</time>
      </trkpt>
      <trkpt lat="45.8898210" lon="5.6507630">
        <ele>630.0</ele>
        <time>2022-07-26T09:30:12Z</time>
      </trkpt>
      <trkpt lat="45.8898140" lon="5.6507620">
        <ele>629.9</ele>
        <time>2022-07-26T09:30:13Z</time>
      </trkpt>
      <trkpt lat="45.8898090" lon="5.6507620">
        <ele>629.8</ele>
        <time>2022-07-26T09:30:14Z</time>
      </trkpt>
      <trkpt lat="45.8898060" lon="5.6507630">
        <ele>629.8</ele>
        <time>2022-07-26T09:30:15Z</time>
      </trkpt>
      <trkpt lat="45.8898070" lon="5.6507720">
        <ele>629.7</ele>
        <time>2022-07-26T09:30:16Z</time>
      </trkpt>
      <trkpt lat="45.8898070" lon="5.6507830">
        <ele>629.6</ele>
        <time>2022-07-26T09:30:17Z</time>
      </trkpt>
      <trkpt lat="45.8898110" lon="5.6507980">
        <ele>629.4</ele>
        <time>2022-07-26T09:30:18Z</time>
      </trkpt>
      <trkpt lat="45.8898190" lon="5.6508130">
        <ele>629.2</ele>
        <time>2022-07-26T09:30:19Z</time>
      </trkpt>
      <trkpt lat="45.8898290" lon="5.6508290">
        <ele>629.0</ele>
        <time>2022-07-26T09:30:20Z</time>
      </trkpt>
      <trkpt lat="45.8898350" lon="5.6508390">
        <ele>628.8</ele>
        <time>2022-07-26T09:30:21Z</time>
      </trkpt>
      <trkpt lat="45.8898420" lon="5.6508500">
        <ele>628.7</ele>
        <time>2022-07-26T09:30:22Z</time>
      </trkpt>
      <trkpt lat="45.8898490" lon="5.6508560">
        <ele>628.5</ele>
        <time>2022-07-26T09:30:23Z</time>
      </trkpt>
      <trkpt lat="45.8898520" lon="5.6508580">
        <ele>628.5</ele>
        <time>2022-07-26T09:30:24Z</time>
      </trkpt>
      <trkpt lat="45.8898540" lon="5.6508590">
        <ele>628.4</ele>
        <time>2022-07-26T09:30:25Z</time>
      </trkpt>
      <trkpt lat="45.8898550" lon="5.6508590">
        <ele>628.4</ele>
        <time>2022-07-26T09:30:26Z</time>
      </trkpt>
      <trkpt lat="45.8898550" lon="5.6508600">
        <ele>628.4</ele>
        <time>2022-07-26T09:30:27Z</time>
      </trkpt>
      <trkpt lat="45.8898630" lon="5.6508820">
        <ele>628.1</ele>
        <time>2022-07-26T09:30:28Z</time>
      </trkpt>
      <trkpt lat="45.8898880" lon="5.6509270">
        <ele>627.5</ele>
        <time>2022-07-26T09:30:29Z</time>
      </trkpt>
      <trkpt lat="45.8898990" lon="5.6509450">
        <ele>627.2</ele>
        <time>2022-07-26T09:30:30Z</time>
      </trkpt>
      <trkpt lat="45.8899200" lon="5.6509730">
        <ele>626.6</ele>
        <time>2022-07-26T09:30:31Z</time>
      </trkpt>
      <trkpt lat="45.8899330" lon="5.6509870">
        <ele>626.3</ele>
        <time>2022-07-26T09:30:32Z</time>
      </trkpt>
      <trkpt lat="45.8899480" lon="5.6510040">
        <ele>626.0</ele>
        <time>2022-07-26T09:30:33Z</time>
      </trkpt>
      <trkpt lat="45.8899770" lon="5.6510330">
        <ele>625.4</ele>
        <time>2022-07-26T09:30:34Z</time>
      </trkpt>
      <trkpt lat="45.8899880" lon="5.6510440">
        <ele>625.1</ele>
        <time>2022-07-26T09:30:35Z</time>
      </trkpt>
      <trkpt lat="45.8900220" lon="5.6510740">
        <ele>624.4</ele>
        <time>2022-07-26T09:30:36Z</time>
      </trkpt>
      <trkpt lat="45.8900600" lon="5.6511030">
        <ele>623.6</ele>
        <time>2022-07-26T09:30:37Z</time>
      </trkpt>
      <trkpt lat="45.8900990" lon="5.6511450">
        <ele>622.8</ele>
        <time>2022-07-26T09:30:38Z</time>
      </trkpt>
      <trkpt lat="45.8901190" lon="5.6511790">
        <ele>622.2</ele>
        <time>2022-07-26T09:30:39Z</time>
      </trkpt>
      <trkpt lat="45.8901490" lon="5.6512090">
        <ele>621.7</ele>
        <time>2022-07-26T09:30:40Z</time>
      </trkpt>
      <trkpt lat="45.8901710" lon="5.6512330">
        <ele>621.3</ele>
        <time>2022-07-26T09:30:41Z</time>
      </trkpt>
      <trkpt lat="45.8901950" lon="5.6512570">
        <ele>620.8</ele>
        <time>2022-07-26T09:30:42Z</time>
      </trkpt>
      <trkpt lat="45.8902100" lon="5.6512720">
        <ele>620.6</ele>
        <time>2022-07-26T09:30:43Z</time>
      </trkpt>
      <trkpt lat="45.8902200" lon="5.6512820">
        <ele>620.4</ele>
        <time>2022-07-26T09:30:44Z</time>
      </trkpt>
      <trkpt lat="45.8902350" lon="5.6513080">
        <ele>620.1</ele>
        <time>2022-07-26T09:30:45Z</time>
      </trkpt>
      <trkpt lat="45.8902400" lon="5.6513220">
        <ele>619.9</ele>
        <time>2022-07-26T09:30:46Z</time>
      </trkpt>
      <trkpt lat="45.8902450" lon="5.6513350">
        <ele>619.8</ele>
        <time>2022-07-26T09:30:47Z</time>
      </trkpt>
      <trkpt lat="45.8902530" lon="5.6513770">
        <ele>619.4</ele>
        <time>2022-07-26T09:30:48Z</time>
      </trkpt>
      <trkpt lat="45.8902750" lon="5.6514240">
        <ele>619.0</ele>
        <time>2022-07-26T09:30:49Z</time>
      </trkpt>
      <trkpt lat="45.8902860" lon="5.6514390">
        <ele>618.8</ele>
        <time>2022-07-26T09:30:50Z</time>
      </trkpt>
      <trkpt lat="45.8903280" lon="5.6515250">
        <ele>618.0</ele>
        <time>2022-07-26T09:30:52Z</time>
      </trkpt>
      <trkpt lat="45.8903450" lon="5.6515770">
        <ele>617.6</ele>
        <time>2022-07-26T09:30:53Z</time>
      </trkpt>
      <trkpt lat="45.8903630" lon="5.6516400">
        <ele>617.1</ele>
        <time>2022-07-26T09:30:54Z</time>
      </trkpt>
      <trkpt lat="45.8903660" lon="5.6516820">
        <ele>616.8</ele>
        <time>2022-07-26T09:30:55Z</time>
      </trkpt>
      <trkpt lat="45.8903610" lon="5.6517440">
        <ele>616.3</ele>
        <time>2022-07-26T09:30:56Z</time>
      </trkpt>
      <trkpt lat="45.8903770" lon="5.6518340">
        <ele>615.6</ele>
        <time>2022-07-26T09:30:57Z</time>
      </trkpt>
      <trkpt lat="45.8904020" lon="5.6518920">
        <ele>615.1</ele>
        <time>2022-07-26T09:30:58Z</time>
      </trkpt>
      <trkpt lat="45.8903880" lon="5.6519410">
        <ele>614.7</ele>
        <time>2022-07-26T09:31:00Z</time>
      </trkpt>
      <trkpt lat="45.8903870" lon="5.6520040">
        <ele>614.3</ele>
        <time>2022-07-26T09:31:01Z</time>
      </trkpt>
      <trkpt lat="45.8904060" lon="5.6520610">
        <ele>613.8</ele>
        <time>2022-07-26T09:31:02Z</time>
      </trkpt>
      <trkpt lat="45.8903990" lon="5.6521190">
        <ele>613.4</ele>
        <time>2022-07-26T09:31:03Z</time>
      </trkpt>
      <trkpt lat="45.8903890" lon="5.6521740">
        <ele>612.9</ele>
        <time>2022-07-26T09:31:05Z</time>
      </trkpt>
      <trkpt lat="45.8903830" lon="5.6522260">
        <ele>612.4</ele>
        <time>2022-07-26T09:31:06Z</time>
      </trkpt>
      <trkpt lat="45.8903800" lon="5.6522480">
        <ele>612.2</ele>
        <time>2022-07-26T09:31:07Z</time>
      </trkpt>
      <trkpt lat="45.8903630" lon="5.6522650">
        <ele>611.9</ele>
        <time>2022-07-26T09:31:09Z</time>
      </trkpt>
      <trkpt lat="45.8903570" lon="5.6522770">
        <ele>611.8</ele>
        <time>2022-07-26T09:31:10Z</time>
      </trkpt>
      <trkpt lat="45.8903560" lon="5.6523070">
        <ele>611.5</ele>
        <time>2022-07-26T09:31:11Z</time>
      </trkpt>
      <trkpt lat="45.8903600" lon="5.6523470">
        <ele>611.1</ele>
        <time>2022-07-26T09:31:12Z</time>
      </trkpt>
      <trkpt lat="45.8903580" lon="5.6523810">
        <ele>610.8</ele>
        <time>2022-07-26T09:31:13Z</time>
      </trkpt>
      <trkpt lat="45.8903560" lon="5.6523810">
        <ele>610.7</ele>
        <time>2022-07-26T09:31:14Z</time>
      </trkpt>
      <trkpt lat="45.8903560" lon="5.6523950">
        <ele>610.6</ele>
        <time>2022-07-26T09:31:15Z</time>
      </trkpt>
      <trkpt lat="45.8903530" lon="5.6524210">
        <ele>610.3</ele>
        <time>2022-07-26T09:31:16Z</time>
      </trkpt>
      <trkpt lat="45.8903510" lon="5.6524530">
        <ele>610.0</ele>
        <time>2022-07-26T09:31:18Z</time>
      </trkpt>
      <trkpt lat="45.8903540" lon="5.6525200">
        <ele>609.3</ele>
        <time>2022-07-26T09:31:19Z</time>
      </trkpt>
      <trkpt lat="45.8903640" lon="5.6526450">
        <ele>607.9</ele>
        <time>2022-07-26T09:31:20Z</time>
      </trkpt>
      <trkpt lat="45.8903720" lon="5.6527230">
        <ele>607.1</ele>
        <time>2022-07-26T09:31:21Z</time>
      </trkpt>
      <trkpt lat="45.8903800" lon="5.6527890">
        <ele>606.4</ele>
        <time>2022-07-26T09:31:22Z</time>
      </trkpt>
      <trkpt lat="45.8903840" lon="5.6528600">
        <ele>605.6</ele>
        <time>2022-07-26T09:31:23Z</time>
      </trkpt>
      <trkpt lat="45.8903900" lon="5.6528970">
        <ele>605.2</ele>
        <time>2022-07-26T09:31:24Z</time>
      </trkpt>
      <trkpt lat="45.8904150" lon="5.6529480">
        <ele>604.5</ele>
        <time>2022-07-26T09:31:25Z</time>
      </trkpt>
      <trkpt lat="45.8904300" lon="5.6530410">
        <ele>603.9</ele>
        <time>2022-07-26T09:31:27Z</time>
      </trkpt>
      <trkpt lat="45.8904250" lon="5.6531080">
        <ele>603.4</ele>
        <time>2022-07-26T09:31:28Z</time>
      </trkpt>
      <trkpt lat="45.8904230" lon="5.6531620">
        <ele>603.1</ele>
        <time>2022-07-26T09:31:29Z</time>
      </trkpt>
      <trkpt lat="45.8904250" lon="5.6531950">
        <ele>602.9</ele>
        <time>2022-07-26T09:31:30Z</time>
      </trkpt>
      <trkpt lat="45.8904250" lon="5.6532230">
        <ele>602.7</ele>
        <time>2022-07-26T09:31:32Z</time>
      </trkpt>
      <trkpt lat="45.8904180" lon="5.6532050">
        <ele>602.6</ele>
        <time>2022-07-26T09:31:33Z</time>
      </trkpt>
      <trkpt lat="45.8904130" lon="5.6531910">
        <ele>602.5</ele>
        <time>2022-07-26T09:31:34Z</time>
      </trkpt>
      <trkpt lat="45.8904110" lon="5.6531830">
        <ele>602.4</ele>
        <time>2022-07-26T09:31:35Z</time>
      </trkpt>
      <trkpt lat="45.8904120" lon="5.6531790">
        <ele>602.4</ele>
        <time>2022-07-26T09:31:36Z</time>
      </trkpt>
      <trkpt lat="45.8904120" lon="5.6531760">
        <ele>602.4</ele>
        <time>2022-07-26T09:31:37Z</time>
      </trkpt>
      <trkpt lat="45.8904110" lon="5.6531740">
        <ele>602.4</ele>
        <time>2022-07-26T09:31:38Z</time>
      </trkpt>
      <trkpt lat="45.8904100" lon="5.6531730">
        <ele>602.3</ele>
        <time>2022-07-26T09:31:39Z</time>
      </trkpt>
      <trkpt lat="45.8904080" lon="5.6531710">
        <ele>602.3</ele>
        <time>2022-07-26T09:31:40Z</time>
      </trkpt>
      <trkpt lat="45.8903820" lon="5.6531760">
        <ele>602.1</ele>
        <time>2022-07-26T09:31:50Z</time>
      </trkpt>
      <trkpt lat="45.8903840" lon="5.6531720">
        <ele>602.1</ele>
        <time>2022-07-26T09:31:51Z</time>
      </trkpt>
      <trkpt lat="45.8903850" lon="5.6531770">
        <ele>602.0</ele>
        <time>2022-07-26T09:31:52Z</time>
      </trkpt>
      <trkpt lat="45.8903890" lon="5.6531860">
        <ele>602.0</ele>
        <time>2022-07-26T09:31:53Z</time>
      </trkpt>
      <trkpt lat="45.8904000" lon="5.6532100">
        <ele>601.8</ele>
        <time>2022-07-26T09:31:54Z</time>
      </trkpt>
      <trkpt lat="45.8904210" lon="5.6532570">
        <ele>601.5</ele>
        <time>2022-07-26T09:31:55Z</time>
      </trkpt>
      <trkpt lat="45.8904280" lon="5.6532730">
        <ele>601.4</ele>
        <time>2022-07-26T09:31:56Z</time>
      </trkpt>
      <trkpt lat="45.8904450" lon="5.6533110">
        <ele>601.1</ele>
        <time>2022-07-26T09:31:57Z</time>
      </trkpt>
      <trkpt lat="45.8904620" lon="5.6533540">
        <ele>600.8</ele>
        <time>2022-07-26T09:31:58Z</time>
      </trkpt>
      <trkpt lat="45.8904740" lon="5.6533990">
        <ele>600.6</ele>
        <time>2022-07-26T09:31:59Z</time>
      </trkpt>
      <trkpt lat="45.8904850" lon="5.6534380">
        <ele>600.3</ele>
        <time>2022-07-26T09:32:00Z</time>
      </trkpt>
      <trkpt lat="45.8905040" lon="5.6534930">
        <ele>600.0</ele>
        <time>2022-07-26T09:32:01Z</time>
      </trkpt>
      <trkpt lat="45.8905220" lon="5.6535470">
        <ele>599.7</ele>
        <time>2022-07-26T09:32:02Z</time>
      </trkpt>
      <trkpt lat="45.8905380" lon="5.6535940">
        <ele>599.5</ele>
        <time>2022-07-26T09:32:03Z</time>
      </trkpt>
      <trkpt lat="45.8905550" lon="5.6536480">
        <ele>599.2</ele>
        <time>2022-07-26T09:32:04Z</time>
      </trkpt>
      <trkpt lat="45.8905730" lon="5.6537020">
        <ele>598.9</ele>
        <time>2022-07-26T09:32:05Z</time>
      </trkpt>
      <trkpt lat="45.8905920" lon="5.6537520">
        <ele>598.7</ele>
        <time>2022-07-26T09:32:06Z</time>
      </trkpt>
      <trkpt lat="45.8906090" lon="5.6538020">
        <ele>598.4</ele>
        <time>2022-07-26T09:32:07Z</time>
      </trkpt>
      <trkpt lat="45.8906260" lon="5.6538530">
        <ele>598.2</ele>
        <time>2022-07-26T09:32:08Z</time>
      </trkpt>
      <trkpt lat="45.8906420" lon="5.6539010">
        <ele>597.9</ele>
        <time>2022-07-26T09:32:09Z</time>
      </trkpt>
      <trkpt lat="45.8906680" lon="5.6539540">
        <ele>597.7</ele>
        <time>2022-07-26T09:32:10Z</time>
      </trkpt>
      <trkpt lat="45.8906920" lon="5.6540070">
        <ele>597.4</ele>
        <time>2022-07-26T09:32:11Z</time>
      </trkpt>
      <trkpt lat="45.8907110" lon="5.6540380">
        <ele>597.2</ele>
        <time>2022-07-26T09:32:12Z</time>
      </trkpt>
      <trkpt lat="45.8907430" lon="5.6540330">
        <ele>597.0</ele>
        <time>2022-07-26T09:32:13Z</time>
      </trkpt>
      <trkpt lat="45.8907810" lon="5.6540910">
        <ele>596.7</ele>
        <time>2022-07-26T09:32:14Z</time>
      </trkpt>
      <trkpt lat="45.8908550" lon="5.6541150">
        <ele>596.2</ele>
        <time>2022-07-26T09:32:16Z</time>
      </trkpt>
      <trkpt lat="45.8908990" lon="5.6541310">
        <ele>595.9</ele>
        <time>2022-07-26T09:32:17Z</time>
      </trkpt>
      <trkpt lat="45.8909440" lon="5.6541290">
        <ele>595.7</ele>
        <time>2022-07-26T09:32:18Z</time>
      </trkpt>
      <trkpt lat="45.8910000" lon="5.6541250">
        <ele>595.4</ele>
        <time>2022-07-26T09:32:19Z</time>
      </trkpt>
      <trkpt lat="45.8910670" lon="5.6541260">
        <ele>595.0</ele>
        <time>2022-07-26T09:32:20Z</time>
      </trkpt>
      <trkpt lat="45.8911410" lon="5.6541180">
        <ele>594.7</ele>
        <time>2022-07-26T09:32:21Z</time>
      </trkpt>
      <trkpt lat="45.8912220" lon="5.6541140">
        <ele>594.3</ele>
        <time>2022-07-26T09:32:22Z</time>
      </trkpt>
      <trkpt lat="45.8912770" lon="5.6541130">
        <ele>594.1</ele>
        <time>2022-07-26T09:32:23Z</time>
      </trkpt>
      <trkpt lat="45.8913400" lon="5.6541130">
        <ele>593.8</ele>
        <time>2022-07-26T09:32:24Z</time>
      </trkpt>
      <trkpt lat="45.8914020" lon="5.6541230">
        <ele>593.6</ele>
        <time>2022-07-26T09:32:25Z</time>
      </trkpt>
      <trkpt lat="45.8914640" lon="5.6541280">
        <ele>593.3</ele>
        <time>2022-07-26T09:32:26Z</time>
      </trkpt>
      <trkpt lat="45.8915200" lon="5.6541290">
        <ele>593.1</ele>
        <time>2022-07-26T09:32:27Z</time>
      </trkpt>
      <trkpt lat="45.8915780" lon="5.6541290">
        <ele>592.9</ele>
        <time>2022-07-26T09:32:28Z</time>
      </trkpt>
      <trkpt lat="45.8916320" lon="5.6541260">
        <ele>592.8</ele>
        <time>2022-07-26T09:32:29Z</time>
      </trkpt>
      <trkpt lat="45.8916640" lon="5.6541360">
        <ele>592.7</ele>
        <time>2022-07-26T09:32:30Z</time>
      </trkpt>
      <trkpt lat="45.8917250" lon="5.6541530">
        <ele>592.5</ele>
        <time>2022-07-26T09:32:31Z</time>
      </trkpt>
      <trkpt lat="45.8917750" lon="5.6541500">
        <ele>592.3</ele>
        <time>2022-07-26T09:32:32Z</time>
      </trkpt>
      <trkpt lat="45.8918330" lon="5.6541450">
        <ele>592.1</ele>
        <time>2022-07-26T09:32:33Z</time>
      </trkpt>
      <trkpt lat="45.8918990" lon="5.6541350">
        <ele>591.9</ele>
        <time>2022-07-26T09:32:34Z</time>
      </trkpt>
      <trkpt lat="45.8919580" lon="5.6541310">
        <ele>591.7</ele>
        <time>2022-07-26T09:32:35Z</time>
      </trkpt>
      <trkpt lat="45.8920130" lon="5.6541340">
        <ele>591.6</ele>
        <time>2022-07-26T09:32:36Z</time>
      </trkpt>
      <trkpt lat="45.8920640" lon="5.6541330">
        <ele>591.4</ele>
        <time>2022-07-26T09:32:37Z</time>
      </trkpt>
      <trkpt lat="45.8921200" lon="5.6541360">
        <ele>591.2</ele>
        <time>2022-07-26T09:32:38Z</time>
      </trkpt>
      <trkpt lat="45.8921740" lon="5.6541500">
        <ele>591.1</ele>
        <time>2022-07-26T09:32:39Z</time>
      </trkpt>
      <trkpt lat="45.8922270" lon="5.6541650">
        <ele>590.9</ele>
        <time>2022-07-26T09:32:40Z</time>
      </trkpt>
      <trkpt lat="45.8922750" lon="5.6541730">
        <ele>590.7</ele>
        <time>2022-07-26T09:32:41Z</time>
      </trkpt>
      <trkpt lat="45.8923360" lon="5.6541880">
        <ele>590.5</ele>
        <time>2022-07-26T09:32:42Z</time>
      </trkpt>
      <trkpt lat="45.8923860" lon="5.6541990">
        <ele>590.3</ele>
        <time>2022-07-26T09:32:43Z</time>
      </trkpt>
      <trkpt lat="45.8924190" lon="5.6542020">
        <ele>590.2</ele>
        <time>2022-07-26T09:32:44Z</time>
      </trkpt>
      <trkpt lat="45.8924470" lon="5.6542110">
        <ele>590.0</ele>
        <time>2022-07-26T09:32:45Z</time>
      </trkpt>
      <trkpt lat="45.8924600" lon="5.6542150">
        <ele>590.0</ele>
        <time>2022-07-26T09:32:46Z</time>
      </trkpt>
      <trkpt lat="45.8924720" lon="5.6542240">
        <ele>589.9</ele>
        <time>2022-07-26T09:32:47Z</time>
      </trkpt>
      <trkpt lat="45.8924810" lon="5.6542340">
        <ele>589.9</ele>
        <time>2022-07-26T09:32:48Z</time>
      </trkpt>
      <trkpt lat="45.8924840" lon="5.6542400">
        <ele>589.5</ele>
        <time>2022-07-26T09:32:49Z</time>
      </trkpt>
      <trkpt lat="45.8924910" lon="5.6542300">
        <ele>589.4</ele>
        <time>2022-07-26T09:32:50Z</time>
      </trkpt>
      <trkpt lat="45.8924930" lon="5.6542230">
        <ele>589.3</ele>
        <time>2022-07-26T09:32:51Z</time>
      </trkpt>
      <trkpt lat="45.8924990" lon="5.6542110">
        <ele>589.2</ele>
        <time>2022-07-26T09:32:52Z</time>
      </trkpt>
      <trkpt lat="45.8925030" lon="5.6542010">
        <ele>589.1</ele>
        <time>2022-07-26T09:32:53Z</time>
      </trkpt>
      <trkpt lat="45.8925070" lon="5.6541890">
        <ele>589.0</ele>
        <time>2022-07-26T09:32:54Z</time>
      </trkpt>
      <trkpt lat="45.8925080" lon="5.6542160">
        <ele>588.8</ele>
        <time>2022-07-26T09:32:55Z</time>
      </trkpt>
      <trkpt lat="45.8925040" lon="5.6542420">
        <ele>588.6</ele>
        <time>2022-07-26T09:32:56Z</time>
      </trkpt>
      <trkpt lat="45.8924840" lon="5.6542830">
        <ele>588.2</ele>
        <time>2022-07-26T09:32:57Z</time>
      </trkpt>
      <trkpt lat="45.8924800" lon="5.6543040">
        <ele>588.1</ele>
        <time>2022-07-26T09:32:58Z</time>
      </trkpt>
      <trkpt lat="45.8924740" lon="5.6543450">
        <ele>587.8</ele>
        <time>2022-07-26T09:32:59Z</time>
      </trkpt>
      <trkpt lat="45.8924700" lon="5.6543890">
        <ele>587.4</ele>
        <time>2022-07-26T09:33:00Z</time>
      </trkpt>
      <trkpt lat="45.8924660" lon="5.6544370">
        <ele>587.1</ele>
        <time>2022-07-26T09:33:01Z</time>
      </trkpt>
      <trkpt lat="45.8924650" lon="5.6544790">
        <ele>586.8</ele>
        <time>2022-07-26T09:33:02Z</time>
      </trkpt>
      <trkpt lat="45.8924630" lon="5.6545200">
        <ele>586.5</ele>
        <time>2022-07-26T09:33:03Z</time>
      </trkpt>
      <trkpt lat="45.8924610" lon="5.6545760">
        <ele>586.1</ele>
        <time>2022-07-26T09:33:04Z</time>
      </trkpt>
      <trkpt lat="45.8924600" lon="5.6545960">
        <ele>585.9</ele>
        <time>2022-07-26T09:33:05Z</time>
      </trkpt>
      <trkpt lat="45.8924570" lon="5.6546480">
        <ele>585.5</ele>
        <time>2022-07-26T09:33:06Z</time>
      </trkpt>
      <trkpt lat="45.8924550" lon="5.6546660">
        <ele>585.4</ele>
        <time>2022-07-26T09:33:07Z</time>
      </trkpt>
      <trkpt lat="45.8924590" lon="5.6547180">
        <ele>585.0</ele>
        <time>2022-07-26T09:33:08Z</time>
      </trkpt>
      <trkpt lat="45.8924600" lon="5.6547360">
        <ele>584.8</ele>
        <time>2022-07-26T09:33:09Z</time>
      </trkpt>
      <trkpt lat="45.8924740" lon="5.6547830">
        <ele>584.4</ele>
        <time>2022-07-26T09:33:10Z</time>
      </trkpt>
      <trkpt lat="45.8924770" lon="5.6547970">
        <ele>584.3</ele>
        <time>2022-07-26T09:33:11Z</time>
      </trkpt>
      <trkpt lat="45.8924810" lon="5.6548400">
        <ele>584.0</ele>
        <time>2022-07-26T09:33:12Z</time>
      </trkpt>
      <trkpt lat="45.8924810" lon="5.6548520">
        <ele>583.9</ele>
        <time>2022-07-26T09:33:13Z</time>
      </trkpt>
      <trkpt lat="45.8924730" lon="5.6548980">
        <ele>583.5</ele>
        <time>2022-07-26T09:33:14Z</time>
      </trkpt>
      <trkpt lat="45.8924680" lon="5.6549130">
        <ele>583.4</ele>
        <time>2022-07-26T09:33:15Z</time>
      </trkpt>
      <trkpt lat="45.8924380" lon="5.6549590">
        <ele>582.8</ele>
        <time>2022-07-26T09:33:16Z</time>
      </trkpt>
      <trkpt lat="45.8924210" lon="5.6549780">
        <ele>582.6</ele>
        <time>2022-07-26T09:33:17Z</time>
      </trkpt>
      <trkpt lat="45.8923810" lon="5.6550210">
        <ele>582.0</ele>
        <time>2022-07-26T09:33:18Z</time>
      </trkpt>
      <trkpt lat="45.8923350" lon="5.6550620">
        <ele>581.4</ele>
        <time>2022-07-26T09:33:19Z</time>
      </trkpt>
      <trkpt lat="45.8922950" lon="5.6550980">
        <ele>580.9</ele>
        <time>2022-07-26T09:33:20Z</time>
      </trkpt>
      <trkpt lat="45.8922560" lon="5.6551320">
        <ele>580.4</ele>
        <time>2022-07-26T09:33:21Z</time>
      </trkpt>
      <trkpt lat="45.8922300" lon="5.6551540">
        <ele>580.1</ele>
        <time>2022-07-26T09:33:22Z</time>
      </trkpt>
      <trkpt lat="45.8922070" lon="5.6551740">
        <ele>579.8</ele>
        <time>2022-07-26T09:33:23Z</time>
      </trkpt>
      <trkpt lat="45.8921780" lon="5.6552040">
        <ele>579.4</ele>
        <time>2022-07-26T09:33:24Z</time>
      </trkpt>
      <trkpt lat="45.8921680" lon="5.6552130">
        <ele>579.2</ele>
        <time>2022-07-26T09:33:25Z</time>
      </trkpt>
      <trkpt lat="45.8921560" lon="5.6552270">
        <ele>579.0</ele>
        <time>2022-07-26T09:33:26Z</time>
      </trkpt>
      <trkpt lat="45.8921460" lon="5.6552400">
        <ele>578.9</ele>
        <time>2022-07-26T09:33:27Z</time>
      </trkpt>
      <trkpt lat="45.8921380" lon="5.6552560">
        <ele>578.7</ele>
        <time>2022-07-26T09:33:28Z</time>
      </trkpt>
      <trkpt lat="45.8921330" lon="5.6552710">
        <ele>578.5</ele>
        <time>2022-07-26T09:33:29Z</time>
      </trkpt>
      <trkpt lat="45.8921320" lon="5.6552800">
        <ele>578.5</ele>
        <time>2022-07-26T09:33:30Z</time>
      </trkpt>
      <trkpt lat="45.8921330" lon="5.6552850">
        <ele>578.4</ele>
        <time>2022-07-26T09:33:31Z</time>
      </trkpt>
      <trkpt lat="45.8921340" lon="5.6552890">
        <ele>578.4</ele>
        <time>2022-07-26T09:33:32Z</time>
      </trkpt>
      <trkpt lat="45.8921360" lon="5.6552930">
        <ele>578.3</ele>
        <time>2022-07-26T09:33:33Z</time>
      </trkpt>
      <trkpt lat="45.8921370" lon="5.6552970">
        <ele>578.3</ele>
        <time>2022-07-26T09:33:34Z</time>
      </trkpt>
      <trkpt lat="45.8921370" lon="5.6553010">
        <ele>578.3</ele>
        <time>2022-07-26T09:33:35Z</time>
      </trkpt>
      <trkpt lat="45.8921370" lon="5.6553050">
        <ele>578.2</ele>
        <time>2022-07-26T09:33:36Z</time>
      </trkpt>
      <trkpt lat="45.8921370" lon="5.6553070">
        <ele>578.2</ele>
        <time>2022-07-26T09:33:37Z</time>
      </trkpt>
      <trkpt lat="45.8921370" lon="5.6553080">
        <ele>578.2</ele>
        <time>2022-07-26T09:33:38Z</time>
      </trkpt>
      <trkpt lat="45.8921360" lon="5.6553090">
        <ele>578.2</ele>
        <time>2022-07-26T09:33:39Z</time>
      </trkpt>
      <trkpt lat="45.8921360" lon="5.6553080">
        <ele>578.2</ele>
        <time>2022-07-26T09:33:40Z</time>
      </trkpt>
      <trkpt lat="45.8921360" lon="5.6553080">
        <ele>578.2</ele>
        <time>2022-07-26T09:33:41Z</time>
      </trkpt>
      <trkpt lat="45.8921360" lon="5.6553080">
        <ele>578.2</ele>
        <time>2022-07-26T09:33:42Z</time>
      </trkpt>
      <trkpt lat="45.8921360" lon="5.6553080">
        <ele>578.2</ele>
        <time>2022-07-26T09:33:43Z</time>
      </trkpt>
      <trkpt lat="45.8921360" lon="5.6553070">
        <ele>578.2</ele>
        <time>2022-07-26T09:33:44Z</time>
      </trkpt>
      <trkpt lat="45.8921360" lon="5.6553070">
        <ele>578.2</ele>
        <time>2022-07-26T09:33:45Z</time>
      </trkpt>
      <trkpt lat="45.8921360" lon="5.6553070">
        <ele>578.2</ele>
        <time>2022-07-26T09:33:46Z</time>
      </trkpt>
      <trkpt lat="45.8921130" lon="5.6553210">
        <ele>577.8</ele>
        <time>2022-07-26T09:33:49Z</time>
      </trkpt>
      <trkpt lat="45.8921030" lon="5.6553270">
        <ele>577.7</ele>
        <time>2022-07-26T09:33:50Z</time>
      </trkpt>
      <trkpt lat="45.8920940" lon="5.6553300">
        <ele>577.6</ele>
        <time>2022-07-26T09:33:51Z</time>
      </trkpt>
      <trkpt lat="45.8920850" lon="5.6553310">
        <ele>577.4</ele>
        <time>2022-07-26T09:33:52Z</time>
      </trkpt>
      <trkpt lat="45.8920730" lon="5.6553320">
        <ele>577.3</ele>
        <time>2022-07-26T09:33:53Z</time>
      </trkpt>
      <trkpt lat="45.8920620" lon="5.6553310">
        <ele>577.1</ele>
        <time>2022-07-26T09:33:54Z</time>
      </trkpt>
      <trkpt lat="45.8920530" lon="5.6553280">
        <ele>577.0</ele>
        <time>2022-07-26T09:33:55Z</time>
      </trkpt>
      <trkpt lat="45.8920450" lon="5.6553240">
        <ele>576.9</ele>
        <time>2022-07-26T09:33:56Z</time>
      </trkpt>
      <trkpt lat="45.8920380" lon="5.6553210">
        <ele>576.8</ele>
        <time>2022-07-26T09:33:57Z</time>
      </trkpt>
      <trkpt lat="45.8920300" lon="5.6553200">
        <ele>576.7</ele>
        <time>2022-07-26T09:33:58Z</time>
      </trkpt>
      <trkpt lat="45.8920200" lon="5.6553180">
        <ele>576.5</ele>
        <time>2022-07-26T09:33:59Z</time>
      </trkpt>
      <trkpt lat="45.8920090" lon="5.6553160">
        <ele>576.4</ele>
        <time>2022-07-26T09:34:00Z</time>
      </trkpt>
      <trkpt lat="45.8919960" lon="5.6553090">
        <ele>576.2</ele>
        <time>2022-07-26T09:34:01Z</time>
      </trkpt>
      <trkpt lat="45.8919870" lon="5.6553050">
        <ele>576.0</ele>
        <time>2022-07-26T09:34:02Z</time>
      </trkpt>
      <trkpt lat="45.8919800" lon="5.6553020">
        <ele>575.9</ele>
        <time>2022-07-26T09:34:03Z</time>
      </trkpt>
      <trkpt lat="45.8919740" lon="5.6553000">
        <ele>575.8</ele>
        <time>2022-07-26T09:34:04Z</time>
      </trkpt>
      <trkpt lat="45.8919710" lon="5.6552990">
        <ele>575.8</ele>
        <time>2022-07-26T09:34:05Z</time>
      </trkpt>
      <trkpt lat="45.8919680" lon="5.6553000">
        <ele>575.7</ele>
        <time>2022-07-26T09:34:06Z</time>
      </trkpt>
      <trkpt lat="45.8919670" lon="5.6553020">
        <ele>575.7</ele>
        <time>2022-07-26T09:34:07Z</time>
      </trkpt>
      <trkpt lat="45.8919660" lon="5.6553030">
        <ele>575.7</ele>
        <time>2022-07-26T09:34:08Z</time>
      </trkpt>
      <trkpt lat="45.8919660" lon="5.6553030">
        <ele>575.7</ele>
        <time>2022-07-26T09:34:09Z</time>
      </trkpt>
      <trkpt lat="45.8919670" lon="5.6553020">
        <ele>575.7</ele>
        <time>2022-07-26T09:34:10Z</time>
      </trkpt>
      <trkpt lat="45.8919660" lon="5.6553010">
        <ele>575.6</ele>
        <time>2022-07-26T09:34:11Z</time>
      </trkpt>
      <trkpt lat="45.8919600" lon="5.6553010">
        <ele>575.6</ele>
        <time>2022-07-26T09:34:12Z</time>
      </trkpt>
      <trkpt lat="45.8919550" lon="5.6553010">
        <ele>575.5</ele>
        <time>2022-07-26T09:34:13Z</time>
      </trkpt>
      <trkpt lat="45.8919500" lon="5.6553010">
        <ele>575.4</ele>
        <time>2022-07-26T09:34:14Z</time>
      </trkpt>
      <trkpt lat="45.8919430" lon="5.6553010">
        <ele>575.3</ele>
        <time>2022-07-26T09:34:15Z</time>
      </trkpt>
      <trkpt lat="45.8919390" lon="5.6553020">
        <ele>575.2</ele>
        <time>2022-07-26T09:34:16Z</time>
      </trkpt>
      <trkpt lat="45.8919370" lon="5.6553040">
        <ele>575.2</ele>
        <time>2022-07-26T09:34:17Z</time>
      </trkpt>
      <trkpt lat="45.8919370" lon="5.6553090">
        <ele>575.2</ele>
        <time>2022-07-26T09:34:18Z</time>
      </trkpt>
      <trkpt lat="45.8919390" lon="5.6553160">
        <ele>575.1</ele>
        <time>2022-07-26T09:34:19Z</time>
      </trkpt>
      <trkpt lat="45.8919400" lon="5.6553200">
        <ele>575.0</ele>
        <time>2022-07-26T09:34:20Z</time>
      </trkpt>
      <trkpt lat="45.8919420" lon="5.6553220">
        <ele>575.0</ele>
        <time>2022-07-26T09:34:21Z</time>
      </trkpt>
      <trkpt lat="45.8919460" lon="5.6553240">
        <ele>574.9</ele>
        <time>2022-07-26T09:34:22Z</time>
      </trkpt>
      <trkpt lat="45.8919440" lon="5.6553270">
        <ele>574.9</ele>
        <time>2022-07-26T09:34:23Z</time>
      </trkpt>
      <trkpt lat="45.8919390" lon="5.6553290">
        <ele>574.8</ele>
        <time>2022-07-26T09:34:24Z</time>
      </trkpt>
      <trkpt lat="45.8919350" lon="5.6553290">
        <ele>574.8</ele>
        <time>2022-07-26T09:34:25Z</time>
      </trkpt>
      <trkpt lat="45.8919320" lon="5.6553290">
        <ele>574.7</ele>
        <time>2022-07-26T09:34:26Z</time>
      </trkpt>
      <trkpt lat="45.8919330" lon="5.6553300">
        <ele>574.7</ele>
        <time>2022-07-26T09:34:27Z</time>
      </trkpt>
      <trkpt lat="45.8919340" lon="5.6553310">
        <ele>574.7</ele>
        <time>2022-07-26T09:34:28Z</time>
      </trkpt>
      <trkpt lat="45.8919340" lon="5.6553320">
        <ele>574.7</ele>
        <time>2022-07-26T09:34:29Z</time>
      </trkpt>
      <trkpt lat="45.8919340" lon="5.6553330">
        <ele>574.7</ele>
        <time>2022-07-26T09:34:30Z</time>
      </trkpt>
      <trkpt lat="45.8919330" lon="5.6553330">
        <ele>574.6</ele>
        <time>2022-07-26T09:34:31Z</time>
      </trkpt>
      <trkpt lat="45.8919330" lon="5.6553320">
        <ele>574.6</ele>
        <time>2022-07-26T09:34:32Z</time>
      </trkpt>
      <trkpt lat="45.8919340" lon="5.6553340">
        <ele>574.6</ele>
        <time>2022-07-26T09:34:33Z</time>
      </trkpt>
      <trkpt lat="45.8919340" lon="5.6553370">
        <ele>574.6</ele>
        <time>2022-07-26T09:34:34Z</time>
      </trkpt>
      <trkpt lat="45.8919340" lon="5.6553380">
        <ele>574.6</ele>
        <time>2022-07-26T09:34:35Z</time>
      </trkpt>
      <trkpt lat="45.8919220" lon="5.6553370">
        <ele>574.4</ele>
        <time>2022-07-26T09:34:36Z</time>
      </trkpt>
      <trkpt lat="45.8919070" lon="5.6553350">
        <ele>574.2</ele>
        <time>2022-07-26T09:34:37Z</time>
      </trkpt>
      <trkpt lat="45.8918960" lon="5.6553320">
        <ele>574.0</ele>
        <time>2022-07-26T09:34:38Z</time>
      </trkpt>
      <trkpt lat="45.8918890" lon="5.6553310">
        <ele>573.9</ele>
        <time>2022-07-26T09:34:39Z</time>
      </trkpt>
      <trkpt lat="45.8918800" lon="5.6553330">
        <ele>573.8</ele>
        <time>2022-07-26T09:34:40Z</time>
      </trkpt>
      <trkpt lat="45.8918730" lon="5.6553370">
        <ele>573.7</ele>
        <time>2022-07-26T09:34:41Z</time>
      </trkpt>
      <trkpt lat="45.8918670" lon="5.6553420">
        <ele>573.6</ele>
        <time>2022-07-26T09:34:42Z</time>
      </trkpt>
      <trkpt lat="45.8918610" lon="5.6553480">
        <ele>573.4</ele>
        <time>2022-07-26T09:34:43Z</time>
      </trkpt>
      <trkpt lat="45.8918590" lon="5.6553530">
        <ele>573.4</ele>
        <time>2022-07-26T09:34:44Z</time>
      </trkpt>
      <trkpt lat="45.8918610" lon="5.6553570">
        <ele>573.3</ele>
        <time>2022-07-26T09:34:45Z</time>
      </trkpt>
      <trkpt lat="45.8918650" lon="5.6553620">
        <ele>573.3</ele>
        <time>2022-07-26T09:34:46Z</time>
      </trkpt>
      <trkpt lat="45.8918660" lon="5.6553640">
        <ele>573.2</ele>
        <time>2022-07-26T09:34:47Z</time>
      </trkpt>
      <trkpt lat="45.8918670" lon="5.6553580">
        <ele>573.2</ele>
        <time>2022-07-26T09:34:48Z</time>
      </trkpt>
      <trkpt lat="45.8918660" lon="5.6553590">
        <ele>573.2</ele>
        <time>2022-07-26T09:34:49Z</time>
      </trkpt>
      <trkpt lat="45.8918660" lon="5.6553590">
        <ele>573.2</ele>
        <time>2022-07-26T09:34:50Z</time>
      </trkpt>
      <trkpt lat="45.8918660" lon="5.6553590">
        <ele>573.2</ele>
        <time>2022-07-26T09:34:51Z</time>
      </trkpt>
      <trkpt lat="45.8918650" lon="5.6553600">
        <ele>573.1</ele>
        <time>2022-07-26T09:34:52Z</time>
      </trkpt>
      <trkpt lat="45.8918640" lon="5.6553610">
        <ele>573.1</ele>
        <time>2022-07-26T09:34:53Z</time>
      </trkpt>
      <trkpt lat="45.8918640" lon="5.6553620">
        <ele>573.1</ele>
        <time>2022-07-26T09:34:54Z</time>
      </trkpt>
      <trkpt lat="45.8918600" lon="5.6553660">
        <ele>573.0</ele>
        <time>2022-07-26T09:34:55Z</time>
      </trkpt>
      <trkpt lat="45.8918520" lon="5.6553730">
        <ele>572.9</ele>
        <time>2022-07-26T09:34:57Z</time>
      </trkpt>
      <trkpt lat="45.8918470" lon="5.6553760">
        <ele>572.8</ele>
        <time>2022-07-26T09:34:58Z</time>
      </trkpt>
      <trkpt lat="45.8918400" lon="5.6553800">
        <ele>572.7</ele>
        <time>2022-07-26T09:34:59Z</time>
      </trkpt>
      <trkpt lat="45.8918320" lon="5.6553840">
        <ele>572.6</ele>
        <time>2022-07-26T09:35:00Z</time>
      </trkpt>
      <trkpt lat="45.8918270" lon="5.6553850">
        <ele>572.6</ele>
        <time>2022-07-26T09:35:01Z</time>
      </trkpt>
      <trkpt lat="45.8918220" lon="5.6553900">
        <ele>572.5</ele>
        <time>2022-07-26T09:35:03Z</time>
      </trkpt>
      <trkpt lat="45.8918200" lon="5.6553920">
        <ele>572.4</ele>
        <time>2022-07-26T09:35:04Z</time>
      </trkpt>
      <trkpt lat="45.8918140" lon="5.6553960">
        <ele>572.3</ele>
        <time>2022-07-26T09:35:05Z</time>
      </trkpt>
      <trkpt lat="45.8918090" lon="5.6553950">
        <ele>572.3</ele>
        <time>2022-07-26T09:35:06Z</time>
      </trkpt>
      <trkpt lat="45.8918040" lon="5.6553910">
        <ele>572.2</ele>
        <time>2022-07-26T09:35:08Z</time>
      </trkpt>
      <trkpt lat="45.8918020" lon="5.6553880">
        <ele>572.2</ele>
        <time>2022-07-26T09:35:09Z</time>
      </trkpt>
      <trkpt lat="45.8918000" lon="5.6553850">
        <ele>572.1</ele>
        <time>2022-07-26T09:35:10Z</time>
      </trkpt>
      <trkpt lat="45.8917980" lon="5.6553840">
        <ele>572.1</ele>
        <time>2022-07-26T09:35:11Z</time>
      </trkpt>
      <trkpt lat="45.8917950" lon="5.6553840">
        <ele>572.0</ele>
        <time>2022-07-26T09:35:12Z</time>
      </trkpt>
      <trkpt lat="45.8917940" lon="5.6553840">
        <ele>572.0</ele>
        <time>2022-07-26T09:35:13Z</time>
      </trkpt>
      <trkpt lat="45.8917920" lon="5.6553840">
        <ele>572.0</ele>
        <time>2022-07-26T09:35:14Z</time>
      </trkpt>
      <trkpt lat="45.8917900" lon="5.6553850">
        <ele>572.0</ele>
        <time>2022-07-26T09:35:15Z</time>
      </trkpt>
      <trkpt lat="45.8917880" lon="5.6553860">
        <ele>571.9</ele>
        <time>2022-07-26T09:35:16Z</time>
      </trkpt>
      <trkpt lat="45.8917630" lon="5.6553980">
        <ele>571.6</ele>
        <time>2022-07-26T09:35:36Z</time>
      </trkpt>
      <trkpt lat="45.8917470" lon="5.6553950">
        <ele>571.4</ele>
        <time>2022-07-26T09:35:37Z</time>
      </trkpt>
      <trkpt lat="45.8917450" lon="5.6553980">
        <ele>571.4</ele>
        <time>2022-07-26T09:35:38Z</time>
      </trkpt>
      <trkpt lat="45.8917390" lon="5.6553980">
        <ele>571.3</ele>
        <time>2022-07-26T09:35:39Z</time>
      </trkpt>
      <trkpt lat="45.8917320" lon="5.6553990">
        <ele>571.2</ele>
        <time>2022-07-26T09:35:40Z</time>
      </trkpt>
      <trkpt lat="45.8917200" lon="5.6554030">
        <ele>571.0</ele>
        <time>2022-07-26T09:35:42Z</time>
      </trkpt>
      <trkpt lat="45.8917060" lon="5.6554130">
        <ele>570.8</ele>
        <time>2022-07-26T09:35:43Z</time>
      </trkpt>
      <trkpt lat="45.8917000" lon="5.6554160">
        <ele>570.8</ele>
        <time>2022-07-26T09:35:44Z</time>
      </trkpt>
      <trkpt lat="45.8916950" lon="5.6554160">
        <ele>570.7</ele>
        <time>2022-07-26T09:35:45Z</time>
      </trkpt>
      <trkpt lat="45.8916820" lon="5.6554150">
        <ele>570.5</ele>
        <time>2022-07-26T09:35:47Z</time>
      </trkpt>
      <trkpt lat="45.8916740" lon="5.6554150">
        <ele>570.4</ele>
        <time>2022-07-26T09:35:48Z</time>
      </trkpt>
      <trkpt lat="45.8916700" lon="5.6554150">
        <ele>570.4</ele>
        <time>2022-07-26T09:35:49Z</time>
      </trkpt>
      <trkpt lat="45.8916620" lon="5.6554220">
        <ele>570.3</ele>
        <time>2022-07-26T09:35:51Z</time>
      </trkpt>
      <trkpt lat="45.8916540" lon="5.6554310">
        <ele>570.2</ele>
        <time>2022-07-26T09:35:52Z</time>
      </trkpt>
      <trkpt lat="45.8916500" lon="5.6554370">
        <ele>570.1</ele>
        <time>2022-07-26T09:35:53Z</time>
      </trkpt>
      <trkpt lat="45.8916390" lon="5.6554480">
        <ele>569.9</ele>
        <time>2022-07-26T09:35:55Z</time>
      </trkpt>
      <trkpt lat="45.8916220" lon="5.6554660">
        <ele>569.7</ele>
        <time>2022-07-26T09:35:57Z</time>
      </trkpt>
      <trkpt lat="45.8916060" lon="5.6555010">
        <ele>569.3</ele>
        <time>2022-07-26T09:35:59Z</time>
      </trkpt>
      <trkpt lat="45.8915980" lon="5.6555250">
        <ele>569.1</ele>
        <time>2022-07-26T09:36:01Z</time>
      </trkpt>
      <trkpt lat="45.8915910" lon="5.6555400">
        <ele>568.9</ele>
        <time>2022-07-26T09:36:02Z</time>
      </trkpt>
      <trkpt lat="45.8915830" lon="5.6555540">
        <ele>568.8</ele>
        <time>2022-07-26T09:36:04Z</time>
      </trkpt>
      <trkpt lat="45.8915720" lon="5.6555680">
        <ele>568.6</ele>
        <time>2022-07-26T09:36:06Z</time>
      </trkpt>
      <trkpt lat="45.8915640" lon="5.6555750">
        <ele>568.5</ele>
        <time>2022-07-26T09:36:07Z</time>
      </trkpt>
      <trkpt lat="45.8915630" lon="5.6555780">
        <ele>568.5</ele>
        <time>2022-07-26T09:36:08Z</time>
      </trkpt>
      <trkpt lat="45.8915600" lon="5.6555790">
        <ele>568.4</ele>
        <time>2022-07-26T09:36:09Z</time>
      </trkpt>
      <trkpt lat="45.8915510" lon="5.6555740">
        <ele>568.3</ele>
        <time>2022-07-26T09:36:11Z</time>
      </trkpt>
      <trkpt lat="45.8915490" lon="5.6555700">
        <ele>568.3</ele>
        <time>2022-07-26T09:36:12Z</time>
      </trkpt>
      <trkpt lat="45.8915480" lon="5.6555620">
        <ele>568.2</ele>
        <time>2022-07-26T09:36:13Z</time>
      </trkpt>
      <trkpt lat="45.8915490" lon="5.6555550">
        <ele>568.1</ele>
        <time>2022-07-26T09:36:14Z</time>
      </trkpt>
      <trkpt lat="45.8915500" lon="5.6555480">
        <ele>568.1</ele>
        <time>2022-07-26T09:36:15Z</time>
      </trkpt>
      <trkpt lat="45.8915490" lon="5.6555430">
        <ele>568.0</ele>
        <time>2022-07-26T09:36:16Z</time>
      </trkpt>
      <trkpt lat="45.8915490" lon="5.6555420">
        <ele>568.0</ele>
        <time>2022-07-26T09:36:17Z</time>
      </trkpt>
      <trkpt lat="45.8915470" lon="5.6555410">
        <ele>568.0</ele>
        <time>2022-07-26T09:36:18Z</time>
      </trkpt>
      <trkpt lat="45.8915440" lon="5.6555420">
        <ele>567.9</ele>
        <time>2022-07-26T09:36:20Z</time>
      </trkpt>
      <trkpt lat="45.8915430" lon="5.6555410">
        <ele>567.9</ele>
        <time>2022-07-26T09:36:21Z</time>
      </trkpt>
      <trkpt lat="45.8915410" lon="5.6555390">
        <ele>567.9</ele>
        <time>2022-07-26T09:36:22Z</time>
      </trkpt>
      <trkpt lat="45.8915390" lon="5.6555400">
        <ele>567.9</ele>
        <time>2022-07-26T09:36:23Z</time>
      </trkpt>
      <trkpt lat="45.8915340" lon="5.6555440">
        <ele>567.8</ele>
        <time>2022-07-26T09:36:24Z</time>
      </trkpt>
      <trkpt lat="45.8915320" lon="5.6555490">
        <ele>567.7</ele>
        <time>2022-07-26T09:36:25Z</time>
      </trkpt>
      <trkpt lat="45.8915070" lon="5.6555650">
        <ele>567.4</ele>
        <time>2022-07-26T09:36:28Z</time>
      </trkpt>
      <trkpt lat="45.8914940" lon="5.6555650">
        <ele>567.2</ele>
        <time>2022-07-26T09:36:29Z</time>
      </trkpt>
      <trkpt lat="45.8914940" lon="5.6555580">
        <ele>567.2</ele>
        <time>2022-07-26T09:36:30Z</time>
      </trkpt>
      <trkpt lat="45.8914910" lon="5.6555530">
        <ele>567.1</ele>
        <time>2022-07-26T09:36:31Z</time>
      </trkpt>
      <trkpt lat="45.8914900" lon="5.6555470">
        <ele>567.1</ele>
        <time>2022-07-26T09:36:32Z</time>
      </trkpt>
      <trkpt lat="45.8914900" lon="5.6555440">
        <ele>567.0</ele>
        <time>2022-07-26T09:36:33Z</time>
      </trkpt>
      <trkpt lat="45.8914900" lon="5.6555420">
        <ele>567.0</ele>
        <time>2022-07-26T09:36:34Z</time>
      </trkpt>
      <trkpt lat="45.8914910" lon="5.6555400">
        <ele>567.0</ele>
        <time>2022-07-26T09:36:35Z</time>
      </trkpt>
      <trkpt lat="45.8914920" lon="5.6555390">
        <ele>567.0</ele>
        <time>2022-07-26T09:36:36Z</time>
      </trkpt>
      <trkpt lat="45.8914940" lon="5.6555380">
        <ele>566.9</ele>
        <time>2022-07-26T09:36:37Z</time>
      </trkpt>
      <trkpt lat="45.8914960" lon="5.6555380">
        <ele>566.9</ele>
        <time>2022-07-26T09:36:38Z</time>
      </trkpt>
      <trkpt lat="45.8914970" lon="5.6555370">
        <ele>566.9</ele>
        <time>2022-07-26T09:36:40Z</time>
      </trkpt>
      <trkpt lat="45.8914630" lon="5.6555290">
        <ele>566.5</ele>
        <time>2022-07-26T09:36:54Z</time>
      </trkpt>
      <trkpt lat="45.8914490" lon="5.6555290">
        <ele>566.3</ele>
        <time>2022-07-26T09:36:55Z</time>
      </trkpt>
      <trkpt lat="45.8914400" lon="5.6555290">
        <ele>566.2</ele>
        <time>2022-07-26T09:36:56Z</time>
      </trkpt>
      <trkpt lat="45.8914280" lon="5.6555310">
        <ele>566.1</ele>
        <time>2022-07-26T09:36:57Z</time>
      </trkpt>
      <trkpt lat="45.8914110" lon="5.6555360">
        <ele>565.9</ele>
        <time>2022-07-26T09:36:58Z</time>
      </trkpt>
      <trkpt lat="45.8914000" lon="5.6555400">
        <ele>565.7</ele>
        <time>2022-07-26T09:36:59Z</time>
      </trkpt>
      <trkpt lat="45.8913900" lon="5.6555430">
        <ele>565.6</ele>
        <time>2022-07-26T09:37:01Z</time>
      </trkpt>
      <trkpt lat="45.8913780" lon="5.6555470">
        <ele>565.5</ele>
        <time>2022-07-26T09:37:02Z</time>
      </trkpt>
      <trkpt lat="45.8913680" lon="5.6555500">
        <ele>565.4</ele>
        <time>2022-07-26T09:37:03Z</time>
      </trkpt>
      <trkpt lat="45.8913530" lon="5.6555540">
        <ele>565.2</ele>
        <time>2022-07-26T09:37:04Z</time>
      </trkpt>
      <trkpt lat="45.8913380" lon="5.6555600">
        <ele>565.0</ele>
        <time>2022-07-26T09:37:05Z</time>
      </trkpt>
      <trkpt lat="45.8913060" lon="5.6555860">
        <ele>564.6</ele>
        <time>2022-07-26T09:37:07Z</time>
      </trkpt>
      <trkpt lat="45.8912970" lon="5.6555940">
        <ele>564.5</ele>
        <time>2022-07-26T09:37:08Z</time>
      </trkpt>
      <trkpt lat="45.8912830" lon="5.6556060">
        <ele>564.3</ele>
        <time>2022-07-26T09:37:09Z</time>
      </trkpt>
      <trkpt lat="45.8912750" lon="5.6556160">
        <ele>564.2</ele>
        <time>2022-07-26T09:37:10Z</time>
      </trkpt>
      <trkpt lat="45.8912680" lon="5.6556230">
        <ele>564.1</ele>
        <time>2022-07-26T09:37:11Z</time>
      </trkpt>
      <trkpt lat="45.8912620" lon="5.6556280">
        <ele>564.0</ele>
        <time>2022-07-26T09:37:12Z</time>
      </trkpt>
      <trkpt lat="45.8912570" lon="5.6556320">
        <ele>564.0</ele>
        <time>2022-07-26T09:37:13Z</time>
      </trkpt>
      <trkpt lat="45.8912480" lon="5.6556380">
        <ele>563.9</ele>
        <time>2022-07-26T09:37:15Z</time>
      </trkpt>
      <trkpt lat="45.8912450" lon="5.6556370">
        <ele>563.8</ele>
        <time>2022-07-26T09:37:16Z</time>
      </trkpt>
      <trkpt lat="45.8912470" lon="5.6556330">
        <ele>563.8</ele>
        <time>2022-07-26T09:37:17Z</time>
      </trkpt>
      <trkpt lat="45.8912480" lon="5.6556310">
        <ele>563.8</ele>
        <time>2022-07-26T09:37:18Z</time>
      </trkpt>
      <trkpt lat="45.8912470" lon="5.6556280">
        <ele>563.7</ele>
        <time>2022-07-26T09:37:19Z</time>
      </trkpt>
      <trkpt lat="45.8912460" lon="5.6556290">
        <ele>563.7</ele>
        <time>2022-07-26T09:37:20Z</time>
      </trkpt>
      <trkpt lat="45.8912460" lon="5.6556290">
        <ele>563.7</ele>
        <time>2022-07-26T09:37:21Z</time>
      </trkpt>
      <trkpt lat="45.8912450" lon="5.6556300">
        <ele>563.7</ele>
        <time>2022-07-26T09:37:22Z</time>
      </trkpt>
      <trkpt lat="45.8912450" lon="5.6556310">
        <ele>563.7</ele>
        <time>2022-07-26T09:37:23Z</time>
      </trkpt>
      <trkpt lat="45.8912440" lon="5.6556320">
        <ele>563.7</ele>
        <time>2022-07-26T09:37:24Z</time>
      </trkpt>
      <trkpt lat="45.8912430" lon="5.6556330">
        <ele>563.7</ele>
        <time>2022-07-26T09:37:25Z</time>
      </trkpt>
      <trkpt lat="45.8912140" lon="5.6556440">
        <ele>563.4</ele>
        <time>2022-07-26T09:37:59Z</time>
      </trkpt>
      <trkpt lat="45.8912050" lon="5.6556480">
        <ele>563.3</ele>
        <time>2022-07-26T09:38:01Z</time>
      </trkpt>
      <trkpt lat="45.8911930" lon="5.6556580">
        <ele>563.1</ele>
        <time>2022-07-26T09:38:02Z</time>
      </trkpt>
      <trkpt lat="45.8911890" lon="5.6556620">
        <ele>563.0</ele>
        <time>2022-07-26T09:38:03Z</time>
      </trkpt>
      <trkpt lat="45.8911860" lon="5.6556610">
        <ele>563.0</ele>
        <time>2022-07-26T09:38:04Z</time>
      </trkpt>
      <trkpt lat="45.8911840" lon="5.6556620">
        <ele>563.0</ele>
        <time>2022-07-26T09:38:05Z</time>
      </trkpt>
      <trkpt lat="45.8911790" lon="5.6556650">
        <ele>562.9</ele>
        <time>2022-07-26T09:38:06Z</time>
      </trkpt>
      <trkpt lat="45.8911760" lon="5.6556660">
        <ele>562.9</ele>
        <time>2022-07-26T09:38:07Z</time>
      </trkpt>
      <trkpt lat="45.8911720" lon="5.6556680">
        <ele>562.9</ele>
        <time>2022-07-26T09:38:08Z</time>
      </trkpt>
      <trkpt lat="45.8911700" lon="5.6556690">
        <ele>562.8</ele>
        <time>2022-07-26T09:38:09Z</time>
      </trkpt>
      <trkpt lat="45.8911670" lon="5.6556710">
        <ele>562.8</ele>
        <time>2022-07-26T09:38:10Z</time>
      </trkpt>
      <trkpt lat="45.8911620" lon="5.6556740">
        <ele>562.7</ele>
        <time>2022-07-26T09:38:11Z</time>
      </trkpt>
      <trkpt lat="45.8911500" lon="5.6556800">
        <ele>562.6</ele>
        <time>2022-07-26T09:38:12Z</time>
      </trkpt>
      <trkpt lat="45.8911340" lon="5.6556890">
        <ele>562.4</ele>
        <time>2022-07-26T09:38:13Z</time>
      </trkpt>
      <trkpt lat="45.8911180" lon="5.6556930">
        <ele>562.3</ele>
        <time>2022-07-26T09:38:14Z</time>
      </trkpt>
      <trkpt lat="45.8910930" lon="5.6556960">
        <ele>562.0</ele>
        <time>2022-07-26T09:38:16Z</time>
      </trkpt>
      <trkpt lat="45.8910630" lon="5.6557020">
        <ele>561.7</ele>
        <time>2022-07-26T09:38:17Z</time>
      </trkpt>
      <trkpt lat="45.8910230" lon="5.6557110">
        <ele>561.3</ele>
        <time>2022-07-26T09:38:19Z</time>
      </trkpt>
      <trkpt lat="45.8909900" lon="5.6557180">
        <ele>560.9</ele>
        <time>2022-07-26T09:38:20Z</time>
      </trkpt>
      <trkpt lat="45.8909770" lon="5.6557200">
        <ele>560.8</ele>
        <time>2022-07-26T09:38:21Z</time>
      </trkpt>
      <trkpt lat="45.8909460" lon="5.6557270">
        <ele>560.5</ele>
        <time>2022-07-26T09:38:22Z</time>
      </trkpt>
      <trkpt lat="45.8909340" lon="5.6557310">
        <ele>560.3</ele>
        <time>2022-07-26T09:38:23Z</time>
      </trkpt>
      <trkpt lat="45.8909010" lon="5.6557430">
        <ele>560.0</ele>
        <time>2022-07-26T09:38:25Z</time>
      </trkpt>
      <trkpt lat="45.8908920" lon="5.6557450">
        <ele>559.9</ele>
        <time>2022-07-26T09:38:26Z</time>
      </trkpt>
      <trkpt lat="45.8908630" lon="5.6557540">
        <ele>559.5</ele>
        <time>2022-07-26T09:38:27Z</time>
      </trkpt>
      <trkpt lat="45.8908530" lon="5.6557590">
        <ele>559.4</ele>
        <time>2022-07-26T09:38:28Z</time>
      </trkpt>
      <trkpt lat="45.8908400" lon="5.6557650">
        <ele>559.2</ele>
        <time>2022-07-26T09:38:29Z</time>
      </trkpt>
      <trkpt lat="45.8908190" lon="5.6557710">
        <ele>559.0</ele>
        <time>2022-07-26T09:38:30Z</time>
      </trkpt>
      <trkpt lat="45.8907940" lon="5.6557730">
        <ele>558.7</ele>
        <time>2022-07-26T09:38:31Z</time>
      </trkpt>
      <trkpt lat="45.8907790" lon="5.6557750">
        <ele>558.5</ele>
        <time>2022-07-26T09:38:33Z</time>
      </trkpt>
      <trkpt lat="45.8907440" lon="5.6557890">
        <ele>558.0</ele>
        <time>2022-07-26T09:38:34Z</time>
      </trkpt>
      <trkpt lat="45.8907330" lon="5.6557920">
        <ele>557.9</ele>
        <time>2022-07-26T09:38:35Z</time>
      </trkpt>
      <trkpt lat="45.8907090" lon="5.6557960">
        <ele>557.6</ele>
        <time>2022-07-26T09:38:36Z</time>
      </trkpt>
      <trkpt lat="45.8907030" lon="5.6557960">
        <ele>557.5</ele>
        <time>2022-07-26T09:38:38Z</time>
      </trkpt>
      <trkpt lat="45.8906960" lon="5.6557970">
        <ele>557.4</ele>
        <time>2022-07-26T09:38:39Z</time>
      </trkpt>
      <trkpt lat="45.8906670" lon="5.6557940">
        <ele>557.1</ele>
        <time>2022-07-26T09:38:40Z</time>
      </trkpt>
      <trkpt lat="45.8906540" lon="5.6557940">
        <ele>557.0</ele>
        <time>2022-07-26T09:38:41Z</time>
      </trkpt>
      <trkpt lat="45.8906240" lon="5.6557860">
        <ele>556.7</ele>
        <time>2022-07-26T09:38:42Z</time>
      </trkpt>
      <trkpt lat="45.8906160" lon="5.6557850">
        <ele>556.6</ele>
        <time>2022-07-26T09:38:43Z</time>
      </trkpt>
      <trkpt lat="45.8905820" lon="5.6557820">
        <ele>556.2</ele>
        <time>2022-07-26T09:38:45Z</time>
      </trkpt>
      <trkpt lat="45.8905530" lon="5.6557790">
        <ele>556.0</ele>
        <time>2022-07-26T09:38:46Z</time>
      </trkpt>
      <trkpt lat="45.8905340" lon="5.6557770">
        <ele>555.8</ele>
        <time>2022-07-26T09:38:47Z</time>
      </trkpt>
      <trkpt lat="45.8905200" lon="5.6557750">
        <ele>555.7</ele>
        <time>2022-07-26T09:38:48Z</time>
      </trkpt>
      <trkpt lat="45.8905030" lon="5.6557710">
        <ele>555.5</ele>
        <time>2022-07-26T09:38:49Z</time>
      </trkpt>
      <trkpt lat="45.8904960" lon="5.6557690">
        <ele>555.5</ele>
        <time>2022-07-26T09:38:50Z</time>
      </trkpt>
      <trkpt lat="45.8904860" lon="5.6557640">
        <ele>555.4</ele>
        <time>2022-07-26T09:38:51Z</time>
      </trkpt>
      <trkpt lat="45.8904780" lon="5.6557580">
        <ele>555.3</ele>
        <time>2022-07-26T09:38:52Z</time>
      </trkpt>
      <trkpt lat="45.8904700" lon="5.6557540">
        <ele>555.2</ele>
        <time>2022-07-26T09:38:53Z</time>
      </trkpt>
      <trkpt lat="45.8904580" lon="5.6557510">
        <ele>555.1</ele>
        <time>2022-07-26T09:38:55Z</time>
      </trkpt>
      <trkpt lat="45.8904490" lon="5.6557510">
        <ele>555.0</ele>
        <time>2022-07-26T09:38:56Z</time>
      </trkpt>
      <trkpt lat="45.8904400" lon="5.6557510">
        <ele>555.0</ele>
        <time>2022-07-26T09:38:57Z</time>
      </trkpt>
      <trkpt lat="45.8904320" lon="5.6557510">
        <ele>554.9</ele>
        <time>2022-07-26T09:38:58Z</time>
      </trkpt>
      <trkpt lat="45.8904250" lon="5.6557520">
        <ele>554.8</ele>
        <time>2022-07-26T09:38:59Z</time>
      </trkpt>
      <trkpt lat="45.8904150" lon="5.6557510">
        <ele>554.7</ele>
        <time>2022-07-26T09:39:00Z</time>
      </trkpt>
      <trkpt lat="45.8904060" lon="5.6557480">
        <ele>554.7</ele>
        <time>2022-07-26T09:39:01Z</time>
      </trkpt>
      <trkpt lat="45.8903930" lon="5.6557390">
        <ele>554.6</ele>
        <time>2022-07-26T09:39:02Z</time>
      </trkpt>
      <trkpt lat="45.8903820" lon="5.6557300">
        <ele>554.5</ele>
        <time>2022-07-26T09:39:03Z</time>
      </trkpt>
      <trkpt lat="45.8903730" lon="5.6557250">
        <ele>554.4</ele>
        <time>2022-07-26T09:39:04Z</time>
      </trkpt>
      <trkpt lat="45.8903650" lon="5.6557210">
        <ele>554.3</ele>
        <time>2022-07-26T09:39:05Z</time>
      </trkpt>
      <trkpt lat="45.8903560" lon="5.6557180">
        <ele>554.3</ele>
        <time>2022-07-26T09:39:06Z</time>
      </trkpt>
      <trkpt lat="45.8903500" lon="5.6557150">
        <ele>554.2</ele>
        <time>2022-07-26T09:39:07Z</time>
      </trkpt>
      <trkpt lat="45.8903380" lon="5.6557100">
        <ele>554.1</ele>
        <time>2022-07-26T09:39:08Z</time>
      </trkpt>
      <trkpt lat="45.8903190" lon="5.6557010">
        <ele>554.0</ele>
        <time>2022-07-26T09:39:09Z</time>
      </trkpt>
      <trkpt lat="45.8903090" lon="5.6556960">
        <ele>553.9</ele>
        <time>2022-07-26T09:39:11Z</time>
      </trkpt>
      <trkpt lat="45.8902980" lon="5.6556920">
        <ele>553.8</ele>
        <time>2022-07-26T09:39:12Z</time>
      </trkpt>
      <trkpt lat="45.8902560" lon="5.6556720">
        <ele>553.5</ele>
        <time>2022-07-26T09:39:13Z</time>
      </trkpt>
      <trkpt lat="45.8902360" lon="5.6556650">
        <ele>553.3</ele>
        <time>2022-07-26T09:39:14Z</time>
      </trkpt>
      <trkpt lat="45.8901990" lon="5.6556530">
        <ele>553.0</ele>
        <time>2022-07-26T09:39:15Z</time>
      </trkpt>
      <trkpt lat="45.8901700" lon="5.6556380">
        <ele>552.8</ele>
        <time>2022-07-26T09:39:16Z</time>
      </trkpt>
      <trkpt lat="45.8901210" lon="5.6556100">
        <ele>552.4</ele>
        <time>2022-07-26T09:39:18Z</time>
      </trkpt>
      <trkpt lat="45.8900760" lon="5.6555860">
        <ele>552.0</ele>
        <time>2022-07-26T09:39:20Z</time>
      </trkpt>
      <trkpt lat="45.8900460" lon="5.6555660">
        <ele>551.8</ele>
        <time>2022-07-26T09:39:21Z</time>
      </trkpt>
      <trkpt lat="45.8900390" lon="5.6555570">
        <ele>551.7</ele>
        <time>2022-07-26T09:39:22Z</time>
      </trkpt>
      <trkpt lat="45.8900120" lon="5.6555170">
        <ele>551.4</ele>
        <time>2022-07-26T09:39:23Z</time>
      </trkpt>
      <trkpt lat="45.8900030" lon="5.6555040">
        <ele>551.3</ele>
        <time>2022-07-26T09:39:24Z</time>
      </trkpt>
      <trkpt lat="45.8899880" lon="5.6554850">
        <ele>551.1</ele>
        <time>2022-07-26T09:39:25Z</time>
      </trkpt>
      <trkpt lat="45.8899650" lon="5.6554660">
        <ele>550.9</ele>
        <time>2022-07-26T09:39:27Z</time>
      </trkpt>
      <trkpt lat="45.8899390" lon="5.6554430">
        <ele>550.6</ele>
        <time>2022-07-26T09:39:28Z</time>
      </trkpt>
      <trkpt lat="45.8899110" lon="5.6554250">
        <ele>550.3</ele>
        <time>2022-07-26T09:39:29Z</time>
      </trkpt>
      <trkpt lat="45.8899010" lon="5.6554170">
        <ele>550.2</ele>
        <time>2022-07-26T09:39:30Z</time>
      </trkpt>
      <trkpt lat="45.8898480" lon="5.6553960">
        <ele>549.5</ele>
        <time>2022-07-26T09:39:32Z</time>
      </trkpt>
      <trkpt lat="45.8898280" lon="5.6553920">
        <ele>549.3</ele>
        <time>2022-07-26T09:39:33Z</time>
      </trkpt>
      <trkpt lat="45.8898080" lon="5.6553880">
        <ele>549.0</ele>
        <time>2022-07-26T09:39:34Z</time>
      </trkpt>
      <trkpt lat="45.8897800" lon="5.6553860">
        <ele>548.7</ele>
        <time>2022-07-26T09:39:35Z</time>
      </trkpt>
      <trkpt lat="45.8897270" lon="5.6553830">
        <ele>548.0</ele>
        <time>2022-07-26T09:39:36Z</time>
      </trkpt>
      <trkpt lat="45.8896770" lon="5.6553840">
        <ele>547.3</ele>
        <time>2022-07-26T09:39:38Z</time>
      </trkpt>
      <trkpt lat="45.8896490" lon="5.6553970">
        <ele>546.9</ele>
        <time>2022-07-26T09:39:39Z</time>
      </trkpt>
      <trkpt lat="45.8896210" lon="5.6554200">
        <ele>546.4</ele>
        <time>2022-07-26T09:39:40Z</time>
      </trkpt>
      <trkpt lat="45.8895850" lon="5.6554500">
        <ele>545.8</ele>
        <time>2022-07-26T09:39:42Z</time>
      </trkpt>
      <trkpt lat="45.8895490" lon="5.6554660">
        <ele>545.3</ele>
        <time>2022-07-26T09:39:43Z</time>
      </trkpt>
      <trkpt lat="45.8895170" lon="5.6554920">
        <ele>544.8</ele>
        <time>2022-07-26T09:39:44Z</time>
      </trkpt>
      <trkpt lat="45.8895070" lon="5.6555010">
        <ele>544.6</ele>
        <time>2022-07-26T09:39:45Z</time>
      </trkpt>
      <trkpt lat="45.8894710" lon="5.6555350">
        <ele>544.0</ele>
        <time>2022-07-26T09:39:46Z</time>
      </trkpt>
      <trkpt lat="45.8894350" lon="5.6555630">
        <ele>543.4</ele>
        <time>2022-07-26T09:39:47Z</time>
      </trkpt>
      <trkpt lat="45.8894250" lon="5.6555980">
        <ele>543.0</ele>
        <time>2022-07-26T09:39:48Z</time>
      </trkpt>
      <trkpt lat="45.8894190" lon="5.6556190">
        <ele>542.8</ele>
        <time>2022-07-26T09:39:49Z</time>
      </trkpt>
      <trkpt lat="45.8893590" lon="5.6556740">
        <ele>541.7</ele>
        <time>2022-07-26T09:39:51Z</time>
      </trkpt>
      <trkpt lat="45.8893200" lon="5.6557160">
        <ele>541.0</ele>
        <time>2022-07-26T09:39:52Z</time>
      </trkpt>
      <trkpt lat="45.8892970" lon="5.6557600">
        <ele>539.8</ele>
        <time>2022-07-26T09:39:53Z</time>
      </trkpt>
      <trkpt lat="45.8892750" lon="5.6558190">
        <ele>538.6</ele>
        <time>2022-07-26T09:39:54Z</time>
      </trkpt>
      <trkpt lat="45.8892490" lon="5.6558860">
        <ele>537.4</ele>
        <time>2022-07-26T09:39:55Z</time>
      </trkpt>
      <trkpt lat="45.8892240" lon="5.6559450">
        <ele>536.3</ele>
        <time>2022-07-26T09:39:56Z</time>
      </trkpt>
      <trkpt lat="45.8892020" lon="5.6560030">
        <ele>535.3</ele>
        <time>2022-07-26T09:39:57Z</time>
      </trkpt>
      <trkpt lat="45.8891780" lon="5.6560910">
        <ele>534.0</ele>
        <time>2022-07-26T09:39:59Z</time>
      </trkpt>
      <trkpt lat="45.8891660" lon="5.6561530">
        <ele>533.1</ele>
        <time>2022-07-26T09:40:00Z</time>
      </trkpt>
      <trkpt lat="45.8891620" lon="5.6561960">
        <ele>532.4</ele>
        <time>2022-07-26T09:40:01Z</time>
      </trkpt>
      <trkpt lat="45.8891590" lon="5.6562370">
        <ele>531.9</ele>
        <time>2022-07-26T09:40:02Z</time>
      </trkpt>
      <trkpt lat="45.8891590" lon="5.6562610">
        <ele>531.5</ele>
        <time>2022-07-26T09:40:03Z</time>
      </trkpt>
      <trkpt lat="45.8891570" lon="5.6562850">
        <ele>531.2</ele>
        <time>2022-07-26T09:40:04Z</time>
      </trkpt>
      <trkpt lat="45.8891480" lon="5.6563160">
        <ele>530.9</ele>
        <time>2022-07-26T09:40:05Z</time>
      </trkpt>
      <trkpt lat="45.8891400" lon="5.6563270">
        <ele>530.9</ele>
        <time>2022-07-26T09:40:06Z</time>
      </trkpt>
      <trkpt lat="45.8891330" lon="5.6563390">
        <ele>530.9</ele>
        <time>2022-07-26T09:40:07Z</time>
      </trkpt>
      <trkpt lat="45.8891080" lon="5.6563570">
        <ele>530.8</ele>
        <time>2022-07-26T09:40:08Z</time>
      </trkpt>
      <trkpt lat="45.8890810" lon="5.6563850">
        <ele>530.7</ele>
        <time>2022-07-26T09:40:09Z</time>
      </trkpt>
      <trkpt lat="45.8890540" lon="5.6564090">
        <ele>530.7</ele>
        <time>2022-07-26T09:40:10Z</time>
      </trkpt>
      <trkpt lat="45.8890320" lon="5.6564370">
        <ele>530.6</ele>
        <time>2022-07-26T09:40:11Z</time>
      </trkpt>
      <trkpt lat="45.8890280" lon="5.6564470">
        <ele>530.0</ele>
        <time>2022-07-26T09:40:12Z</time>
      </trkpt>
      <trkpt lat="45.8890480" lon="5.6565270">
        <ele>529.1</ele>
        <time>2022-07-26T09:40:14Z</time>
      </trkpt>
      <trkpt lat="45.8891080" lon="5.6566550">
        <ele>527.6</ele>
        <time>2022-07-26T09:40:15Z</time>
      </trkpt>
      <trkpt lat="45.8891390" lon="5.6567540">
        <ele>526.5</ele>
        <time>2022-07-26T09:40:16Z</time>
      </trkpt>
      <trkpt lat="45.8891750" lon="5.6568510">
        <ele>525.4</ele>
        <time>2022-07-26T09:40:17Z</time>
      </trkpt>
      <trkpt lat="45.8892020" lon="5.6569520">
        <ele>524.5</ele>
        <time>2022-07-26T09:40:18Z</time>
      </trkpt>
      <trkpt lat="45.8892210" lon="5.6570560">
        <ele>523.7</ele>
        <time>2022-07-26T09:40:19Z</time>
      </trkpt>
      <trkpt lat="45.8892410" lon="5.6571570">
        <ele>522.9</ele>
        <time>2022-07-26T09:40:20Z</time>
      </trkpt>
      <trkpt lat="45.8892570" lon="5.6572480">
        <ele>522.1</ele>
        <time>2022-07-26T09:40:21Z</time>
      </trkpt>
      <trkpt lat="45.8892730" lon="5.6573370">
        <ele>521.4</ele>
        <time>2022-07-26T09:40:22Z</time>
      </trkpt>
      <trkpt lat="45.8892840" lon="5.6574330">
        <ele>520.6</ele>
        <time>2022-07-26T09:40:23Z</time>
      </trkpt>
      <trkpt lat="45.8892990" lon="5.6575280">
        <ele>519.7</ele>
        <time>2022-07-26T09:40:24Z</time>
      </trkpt>
      <trkpt lat="45.8893190" lon="5.6576260">
        <ele>518.8</ele>
        <time>2022-07-26T09:40:25Z</time>
      </trkpt>
      <trkpt lat="45.8893340" lon="5.6577360">
        <ele>517.8</ele>
        <time>2022-07-26T09:40:26Z</time>
      </trkpt>
      <trkpt lat="45.8893500" lon="5.6578440">
        <ele>516.7</ele>
        <time>2022-07-26T09:40:27Z</time>
      </trkpt>
      <trkpt lat="45.8893680" lon="5.6579300">
        <ele>515.9</ele>
        <time>2022-07-26T09:40:28Z</time>
      </trkpt>
      <trkpt lat="45.8893860" lon="5.6580020">
        <ele>515.1</ele>
        <time>2022-07-26T09:40:29Z</time>
      </trkpt>
      <trkpt lat="45.8893950" lon="5.6580820">
        <ele>514.3</ele>
        <time>2022-07-26T09:40:30Z</time>
      </trkpt>
      <trkpt lat="45.8894050" lon="5.6581670">
        <ele>513.4</ele>
        <time>2022-07-26T09:40:31Z</time>
      </trkpt>
      <trkpt lat="45.8894070" lon="5.6582620">
        <ele>512.4</ele>
        <time>2022-07-26T09:40:32Z</time>
      </trkpt>
      <trkpt lat="45.8893920" lon="5.6583670">
        <ele>511.3</ele>
        <time>2022-07-26T09:40:33Z</time>
      </trkpt>
      <trkpt lat="45.8893710" lon="5.6584750">
        <ele>510.2</ele>
        <time>2022-07-26T09:40:34Z</time>
      </trkpt>
      <trkpt lat="45.8893560" lon="5.6585740">
        <ele>509.3</ele>
        <time>2022-07-26T09:40:35Z</time>
      </trkpt>
      <trkpt lat="45.8893540" lon="5.6586820">
        <ele>508.2</ele>
        <time>2022-07-26T09:40:36Z</time>
      </trkpt>
      <trkpt lat="45.8893430" lon="5.6587770">
        <ele>507.3</ele>
        <time>2022-07-26T09:40:37Z</time>
      </trkpt>
      <trkpt lat="45.8893230" lon="5.6588600">
        <ele>506.3</ele>
        <time>2022-07-26T09:40:38Z</time>
      </trkpt>
      <trkpt lat="45.8892990" lon="5.6589390">
        <ele>505.4</ele>
        <time>2022-07-26T09:40:39Z</time>
      </trkpt>
      <trkpt lat="45.8892750" lon="5.6590140">
        <ele>504.6</ele>
        <time>2022-07-26T09:40:40Z</time>
      </trkpt>
      <trkpt lat="45.8892490" lon="5.6590800">
        <ele>503.8</ele>
        <time>2022-07-26T09:40:41Z</time>
      </trkpt>
      <trkpt lat="45.8892210" lon="5.6591390">
        <ele>503.1</ele>
        <time>2022-07-26T09:40:42Z</time>
      </trkpt>
      <trkpt lat="45.8891930" lon="5.6591890">
        <ele>502.4</ele>
        <time>2022-07-26T09:40:43Z</time>
      </trkpt>
      <trkpt lat="45.8891530" lon="5.6592340">
        <ele>501.6</ele>
        <time>2022-07-26T09:40:44Z</time>
      </trkpt>
      <trkpt lat="45.8891340" lon="5.6592880">
        <ele>501.0</ele>
        <time>2022-07-26T09:40:45Z</time>
      </trkpt>
      <trkpt lat="45.8891330" lon="5.6593610">
        <ele>500.2</ele>
        <time>2022-07-26T09:40:46Z</time>
      </trkpt>
      <trkpt lat="45.8891450" lon="5.6594480">
        <ele>499.2</ele>
        <time>2022-07-26T09:40:47Z</time>
      </trkpt>
      <trkpt lat="45.8891580" lon="5.6595380">
        <ele>498.3</ele>
        <time>2022-07-26T09:40:48Z</time>
      </trkpt>
      <trkpt lat="45.8891900" lon="5.6596250">
        <ele>497.3</ele>
        <time>2022-07-26T09:40:49Z</time>
      </trkpt>
      <trkpt lat="45.8892110" lon="5.6597150">
        <ele>496.5</ele>
        <time>2022-07-26T09:40:50Z</time>
      </trkpt>
      <trkpt lat="45.8892330" lon="5.6597920">
        <ele>495.8</ele>
        <time>2022-07-26T09:40:51Z</time>
      </trkpt>
      <trkpt lat="45.8892570" lon="5.6598650">
        <ele>495.2</ele>
        <time>2022-07-26T09:40:52Z</time>
      </trkpt>
      <trkpt lat="45.8892790" lon="5.6599190">
        <ele>494.7</ele>
        <time>2022-07-26T09:40:53Z</time>
      </trkpt>
      <trkpt lat="45.8892920" lon="5.6599770">
        <ele>494.3</ele>
        <time>2022-07-26T09:40:54Z</time>
      </trkpt>
      <trkpt lat="45.8892970" lon="5.6600000">
        <ele>494.1</ele>
        <time>2022-07-26T09:40:55Z</time>
      </trkpt>
      <trkpt lat="45.8893120" lon="5.6600400">
        <ele>493.8</ele>
        <time>2022-07-26T09:40:56Z</time>
      </trkpt>
      <trkpt lat="45.8893280" lon="5.6600830">
        <ele>493.5</ele>
        <time>2022-07-26T09:40:57Z</time>
      </trkpt>
      <trkpt lat="45.8893330" lon="5.6600950">
        <ele>493.4</ele>
        <time>2022-07-26T09:40:58Z</time>
      </trkpt>
      <trkpt lat="45.8893450" lon="5.6601460">
        <ele>493.0</ele>
        <time>2022-07-26T09:40:59Z</time>
      </trkpt>
      <trkpt lat="45.8893510" lon="5.6601610">
        <ele>492.9</ele>
        <time>2022-07-26T09:41:00Z</time>
      </trkpt>
      <trkpt lat="45.8893700" lon="5.6601960">
        <ele>492.6</ele>
        <time>2022-07-26T09:41:01Z</time>
      </trkpt>
      <trkpt lat="45.8893900" lon="5.6602390">
        <ele>492.3</ele>
        <time>2022-07-26T09:41:02Z</time>
      </trkpt>
      <trkpt lat="45.8894090" lon="5.6602850">
        <ele>491.9</ele>
        <time>2022-07-26T09:41:03Z</time>
      </trkpt>
      <trkpt lat="45.8894320" lon="5.6603520">
        <ele>491.4</ele>
        <time>2022-07-26T09:41:04Z</time>
      </trkpt>
      <trkpt lat="45.8894490" lon="5.6603990">
        <ele>491.0</ele>
        <time>2022-07-26T09:41:05Z</time>
      </trkpt>
      <trkpt lat="45.8894710" lon="5.6604660">
        <ele>490.4</ele>
        <time>2022-07-26T09:41:06Z</time>
      </trkpt>
      <trkpt lat="45.8894910" lon="5.6605420">
        <ele>489.8</ele>
        <time>2022-07-26T09:41:07Z</time>
      </trkpt>
      <trkpt lat="45.8895050" lon="5.6606190">
        <ele>489.0</ele>
        <time>2022-07-26T09:41:08Z</time>
      </trkpt>
      <trkpt lat="45.8895110" lon="5.6606980">
        <ele>488.2</ele>
        <time>2022-07-26T09:41:09Z</time>
      </trkpt>
      <trkpt lat="45.8895200" lon="5.6607720">
        <ele>487.5</ele>
        <time>2022-07-26T09:41:10Z</time>
      </trkpt>
      <trkpt lat="45.8895390" lon="5.6608400">
        <ele>486.7</ele>
        <time>2022-07-26T09:41:11Z</time>
      </trkpt>
      <trkpt lat="45.8895660" lon="5.6609180">
        <ele>485.8</ele>
        <time>2022-07-26T09:41:12Z</time>
      </trkpt>
      <trkpt lat="45.8895890" lon="5.6609890">
        <ele>485.1</ele>
        <time>2022-07-26T09:41:13Z</time>
      </trkpt>
      <trkpt lat="45.8896140" lon="5.6610660">
        <ele>484.3</ele>
        <time>2022-07-26T09:41:14Z</time>
      </trkpt>
      <trkpt lat="45.8896380" lon="5.6611350">
        <ele>483.6</ele>
        <time>2022-07-26T09:41:15Z</time>
      </trkpt>
      <trkpt lat="45.8896550" lon="5.6612100">
        <ele>483.0</ele>
        <time>2022-07-26T09:41:16Z</time>
      </trkpt>
      <trkpt lat="45.8896540" lon="5.6612810">
        <ele>482.5</ele>
        <time>2022-07-26T09:41:17Z</time>
      </trkpt>
      <trkpt lat="45.8896410" lon="5.6613260">
        <ele>482.2</ele>
        <time>2022-07-26T09:41:18Z</time>
      </trkpt>
      <trkpt lat="45.8896490" lon="5.6613780">
        <ele>481.9</ele>
        <time>2022-07-26T09:41:19Z</time>
      </trkpt>
      <trkpt lat="45.8896540" lon="5.6614510">
        <ele>481.4</ele>
        <time>2022-07-26T09:41:20Z</time>
      </trkpt>
      <trkpt lat="45.8896550" lon="5.6615110">
        <ele>481.1</ele>
        <time>2022-07-26T09:41:21Z</time>
      </trkpt>
      <trkpt lat="45.8896480" lon="5.6615590">
        <ele>480.8</ele>
        <time>2022-07-26T09:41:22Z</time>
      </trkpt>
      <trkpt lat="45.8896500" lon="5.6616090">
        <ele>480.6</ele>
        <time>2022-07-26T09:41:23Z</time>
      </trkpt>
      <trkpt lat="45.8896610" lon="5.6616550">
        <ele>480.3</ele>
        <time>2022-07-26T09:41:24Z</time>
      </trkpt>
      <trkpt lat="45.8896620" lon="5.6616650">
        <ele>480.3</ele>
        <time>2022-07-26T09:41:25Z</time>
      </trkpt>
      <trkpt lat="45.8896650" lon="5.6616790">
        <ele>480.2</ele>
        <time>2022-07-26T09:41:26Z</time>
      </trkpt>
      <trkpt lat="45.8896600" lon="5.6616930">
        <ele>480.1</ele>
        <time>2022-07-26T09:41:27Z</time>
      </trkpt>
      <trkpt lat="45.8896550" lon="5.6617130">
        <ele>480.0</ele>
        <time>2022-07-26T09:41:28Z</time>
      </trkpt>
      <trkpt lat="45.8896410" lon="5.6617610">
        <ele>479.8</ele>
        <time>2022-07-26T09:41:29Z</time>
      </trkpt>
      <trkpt lat="45.8896380" lon="5.6617760">
        <ele>479.7</ele>
        <time>2022-07-26T09:41:30Z</time>
      </trkpt>
      <trkpt lat="45.8896340" lon="5.6618200">
        <ele>479.9</ele>
        <time>2022-07-26T09:41:31Z</time>
      </trkpt>
      <trkpt lat="45.8896370" lon="5.6618540">
        <ele>480.1</ele>
        <time>2022-07-26T09:41:32Z</time>
      </trkpt>
      <trkpt lat="45.8896370" lon="5.6618710">
        <ele>480.2</ele>
        <time>2022-07-26T09:41:33Z</time>
      </trkpt>
      <trkpt lat="45.8896410" lon="5.6618870">
        <ele>480.3</ele>
        <time>2022-07-26T09:41:34Z</time>
      </trkpt>
      <trkpt lat="45.8896450" lon="5.6619160">
        <ele>480.5</ele>
        <time>2022-07-26T09:41:35Z</time>
      </trkpt>
      <trkpt lat="45.8896490" lon="5.6619600">
        <ele>480.8</ele>
        <time>2022-07-26T09:41:36Z</time>
      </trkpt>
      <trkpt lat="45.8896500" lon="5.6619760">
        <ele>480.9</ele>
        <time>2022-07-26T09:41:37Z</time>
      </trkpt>
      <trkpt lat="45.8896480" lon="5.6620190">
        <ele>481.2</ele>
        <time>2022-07-26T09:41:38Z</time>
      </trkpt>
      <trkpt lat="45.8896470" lon="5.6620330">
        <ele>481.3</ele>
        <time>2022-07-26T09:41:39Z</time>
      </trkpt>
      <trkpt lat="45.8896410" lon="5.6620820">
        <ele>481.7</ele>
        <time>2022-07-26T09:41:40Z</time>
      </trkpt>
      <trkpt lat="45.8896390" lon="5.6620960">
        <ele>481.9</ele>
        <time>2022-07-26T09:41:41Z</time>
      </trkpt>
      <trkpt lat="45.8896390" lon="5.6621380">
        <ele>482.2</ele>
        <time>2022-07-26T09:41:42Z</time>
      </trkpt>
      <trkpt lat="45.8896400" lon="5.6621520">
        <ele>482.3</ele>
        <time>2022-07-26T09:41:43Z</time>
      </trkpt>
      <trkpt lat="45.8896450" lon="5.6621950">
        <ele>482.6</ele>
        <time>2022-07-26T09:41:44Z</time>
      </trkpt>
      <trkpt lat="45.8896470" lon="5.6622090">
        <ele>482.8</ele>
        <time>2022-07-26T09:41:45Z</time>
      </trkpt>
      <trkpt lat="45.8896520" lon="5.6622350">
        <ele>483.0</ele>
        <time>2022-07-26T09:41:46Z</time>
      </trkpt>
      <trkpt lat="45.8896580" lon="5.6622580">
        <ele>483.2</ele>
        <time>2022-07-26T09:41:47Z</time>
      </trkpt>
      <trkpt lat="45.8896680" lon="5.6622780">
        <ele>483.5</ele>
        <time>2022-07-26T09:41:48Z</time>
      </trkpt>
      <trkpt lat="45.8896770" lon="5.6622950">
        <ele>483.6</ele>
        <time>2022-07-26T09:41:49Z</time>
      </trkpt>
      <trkpt lat="45.8896960" lon="5.6623290">
        <ele>483.7</ele>
        <time>2022-07-26T09:41:50Z</time>
      </trkpt>
      <trkpt lat="45.8897030" lon="5.6623400">
        <ele>483.7</ele>
        <time>2022-07-26T09:41:51Z</time>
      </trkpt>
      <trkpt lat="45.8897150" lon="5.6623640">
        <ele>483.8</ele>
        <time>2022-07-26T09:41:52Z</time>
      </trkpt>
      <trkpt lat="45.8897240" lon="5.6623810">
        <ele>483.9</ele>
        <time>2022-07-26T09:41:53Z</time>
      </trkpt>
      <trkpt lat="45.8897410" lon="5.6624120">
        <ele>484.0</ele>
        <time>2022-07-26T09:41:54Z</time>
      </trkpt>
      <trkpt lat="45.8897470" lon="5.6624230">
        <ele>484.0</ele>
        <time>2022-07-26T09:41:55Z</time>
      </trkpt>
      <trkpt lat="45.8897640" lon="5.6624550">
        <ele>484.1</ele>
        <time>2022-07-26T09:41:56Z</time>
      </trkpt>
      <trkpt lat="45.8897690" lon="5.6624650">
        <ele>484.2</ele>
        <time>2022-07-26T09:41:57Z</time>
      </trkpt>
      <trkpt lat="45.8897850" lon="5.6624990">
        <ele>484.3</ele>
        <time>2022-07-26T09:41:58Z</time>
      </trkpt>
      <trkpt lat="45.8897900" lon="5.6625100">
        <ele>484.4</ele>
        <time>2022-07-26T09:41:59Z</time>
      </trkpt>
      <trkpt lat="45.8898040" lon="5.6625390">
        <ele>484.5</ele>
        <time>2022-07-26T09:42:00Z</time>
      </trkpt>
      <trkpt lat="45.8898100" lon="5.6625500">
        <ele>484.5</ele>
        <time>2022-07-26T09:42:01Z</time>
      </trkpt>
      <trkpt lat="45.8898150" lon="5.6625610">
        <ele>484.5</ele>
        <time>2022-07-26T09:42:02Z</time>
      </trkpt>
      <trkpt lat="45.8898340" lon="5.6625900">
        <ele>484.7</ele>
        <time>2022-07-26T09:42:03Z</time>
      </trkpt>
      <trkpt lat="45.8898410" lon="5.6626000">
        <ele>484.7</ele>
        <time>2022-07-26T09:42:04Z</time>
      </trkpt>
      <trkpt lat="45.8898620" lon="5.6626240">
        <ele>484.8</ele>
        <time>2022-07-26T09:42:05Z</time>
      </trkpt>
      <trkpt lat="45.8898700" lon="5.6626330">
        <ele>484.9</ele>
        <time>2022-07-26T09:42:06Z</time>
      </trkpt>
      <trkpt lat="45.8898980" lon="5.6626670">
        <ele>485.0</ele>
        <time>2022-07-26T09:42:07Z</time>
      </trkpt>
      <trkpt lat="45.8899080" lon="5.6626790">
        <ele>485.1</ele>
        <time>2022-07-26T09:42:08Z</time>
      </trkpt>
      <trkpt lat="45.8899300" lon="5.6627070">
        <ele>485.2</ele>
        <time>2022-07-26T09:42:09Z</time>
      </trkpt>
      <trkpt lat="45.8899390" lon="5.6627190">
        <ele>485.2</ele>
        <time>2022-07-26T09:42:10Z</time>
      </trkpt>
      <trkpt lat="45.8899590" lon="5.6627470">
        <ele>485.3</ele>
        <time>2022-07-26T09:42:11Z</time>
      </trkpt>
      <trkpt lat="45.8899640" lon="5.6627560">
        <ele>485.3</ele>
        <time>2022-07-26T09:42:12Z</time>
      </trkpt>
      <trkpt lat="45.8899870" lon="5.6627910">
        <ele>485.4</ele>
        <time>2022-07-26T09:42:13Z</time>
      </trkpt>
      <trkpt lat="45.8899950" lon="5.6628030">
        <ele>485.4</ele>
        <time>2022-07-26T09:42:14Z</time>
      </trkpt>
      <trkpt lat="45.8900210" lon="5.6628350">
        <ele>485.5</ele>
        <time>2022-07-26T09:42:15Z</time>
      </trkpt>
      <trkpt lat="45.8900310" lon="5.6628450">
        <ele>485.6</ele>
        <time>2022-07-26T09:42:16Z</time>
      </trkpt>
      <trkpt lat="45.8900590" lon="5.6628750">
        <ele>485.7</ele>
        <time>2022-07-26T09:42:17Z</time>
      </trkpt>
      <trkpt lat="45.8900680" lon="5.6628850">
        <ele>485.7</ele>
        <time>2022-07-26T09:42:18Z</time>
      </trkpt>
      <trkpt lat="45.8900930" lon="5.6629170">
        <ele>485.8</ele>
        <time>2022-07-26T09:42:19Z</time>
      </trkpt>
      <trkpt lat="45.8901010" lon="5.6629290">
        <ele>485.8</ele>
        <time>2022-07-26T09:42:20Z</time>
      </trkpt>
      <trkpt lat="45.8901260" lon="5.6629580">
        <ele>485.9</ele>
        <time>2022-07-26T09:42:21Z</time>
      </trkpt>
      <trkpt lat="45.8901350" lon="5.6629690">
        <ele>485.9</ele>
        <time>2022-07-26T09:42:22Z</time>
      </trkpt>
      <trkpt lat="45.8901610" lon="5.6630030">
        <ele>486.0</ele>
        <time>2022-07-26T09:42:23Z</time>
      </trkpt>
      <trkpt lat="45.8901680" lon="5.6630130">
        <ele>486.1</ele>
        <time>2022-07-26T09:42:24Z</time>
      </trkpt>
      <trkpt lat="45.8901980" lon="5.6630500">
        <ele>486.2</ele>
        <time>2022-07-26T09:42:25Z</time>
      </trkpt>
      <trkpt lat="45.8902110" lon="5.6630640">
        <ele>486.3</ele>
        <time>2022-07-26T09:42:26Z</time>
      </trkpt>
      <trkpt lat="45.8902350" lon="5.6630950">
        <ele>486.4</ele>
        <time>2022-07-26T09:42:27Z</time>
      </trkpt>
      <trkpt lat="45.8902590" lon="5.6631320">
        <ele>486.6</ele>
        <time>2022-07-26T09:42:28Z</time>
      </trkpt>
      <trkpt lat="45.8902860" lon="5.6631710">
        <ele>486.8</ele>
        <time>2022-07-26T09:42:29Z</time>
      </trkpt>
      <trkpt lat="45.8902940" lon="5.6631820">
        <ele>486.8</ele>
        <time>2022-07-26T09:42:30Z</time>
      </trkpt>
      <trkpt lat="45.8903180" lon="5.6632100">
        <ele>487.0</ele>
        <time>2022-07-26T09:42:31Z</time>
      </trkpt>
      <trkpt lat="45.8903230" lon="5.6632170">
        <ele>487.0</ele>
        <time>2022-07-26T09:42:32Z</time>
      </trkpt>
      <trkpt lat="45.8903440" lon="5.6632470">
        <ele>487.2</ele>
        <time>2022-07-26T09:42:33Z</time>
      </trkpt>
      <trkpt lat="45.8903500" lon="5.6632580">
        <ele>487.2</ele>
        <time>2022-07-26T09:42:34Z</time>
      </trkpt>
      <trkpt lat="45.8903760" lon="5.6632920">
        <ele>487.3</ele>
        <time>2022-07-26T09:42:35Z</time>
      </trkpt>
      <trkpt lat="45.8903850" lon="5.6633030">
        <ele>487.4</ele>
        <time>2022-07-26T09:42:36Z</time>
      </trkpt>
      <trkpt lat="45.8904110" lon="5.6633330">
        <ele>487.5</ele>
        <time>2022-07-26T09:42:37Z</time>
      </trkpt>
      <trkpt lat="45.8904200" lon="5.6633430">
        <ele>487.6</ele>
        <time>2022-07-26T09:42:38Z</time>
      </trkpt>
      <trkpt lat="45.8904510" lon="5.6633780">
        <ele>487.7</ele>
        <time>2022-07-26T09:42:39Z</time>
      </trkpt>
      <trkpt lat="45.8904620" lon="5.6633880">
        <ele>487.8</ele>
        <time>2022-07-26T09:42:40Z</time>
      </trkpt>
      <trkpt lat="45.8904890" lon="5.6634160">
        <ele>488.0</ele>
        <time>2022-07-26T09:42:41Z</time>
      </trkpt>
      <trkpt lat="45.8904980" lon="5.6634250">
        <ele>488.0</ele>
        <time>2022-07-26T09:42:42Z</time>
      </trkpt>
      <trkpt lat="45.8905240" lon="5.6634550">
        <ele>488.2</ele>
        <time>2022-07-26T09:42:43Z</time>
      </trkpt>
      <trkpt lat="45.8905300" lon="5.6634630">
        <ele>488.2</ele>
        <time>2022-07-26T09:42:44Z</time>
      </trkpt>
      <trkpt lat="45.8905520" lon="5.6634950">
        <ele>488.4</ele>
        <time>2022-07-26T09:42:45Z</time>
      </trkpt>
      <trkpt lat="45.8905600" lon="5.6635070">
        <ele>488.4</ele>
        <time>2022-07-26T09:42:46Z</time>
      </trkpt>
      <trkpt lat="45.8905860" lon="5.6635400">
        <ele>488.6</ele>
        <time>2022-07-26T09:42:47Z</time>
      </trkpt>
      <trkpt lat="45.8905940" lon="5.6635490">
        <ele>488.6</ele>
        <time>2022-07-26T09:42:48Z</time>
      </trkpt>
      <trkpt lat="45.8906190" lon="5.6635770">
        <ele>488.8</ele>
        <time>2022-07-26T09:42:49Z</time>
      </trkpt>
      <trkpt lat="45.8906270" lon="5.6635860">
        <ele>488.9</ele>
        <time>2022-07-26T09:42:50Z</time>
      </trkpt>
      <trkpt lat="45.8906540" lon="5.6636120">
        <ele>489.1</ele>
        <time>2022-07-26T09:42:51Z</time>
      </trkpt>
      <trkpt lat="45.8906600" lon="5.6636170">
        <ele>489.1</ele>
        <time>2022-07-26T09:42:52Z</time>
      </trkpt>
      <trkpt lat="45.8906950" lon="5.6636430">
        <ele>489.3</ele>
        <time>2022-07-26T09:42:53Z</time>
      </trkpt>
      <trkpt lat="45.8907060" lon="5.6636520">
        <ele>489.4</ele>
        <time>2022-07-26T09:42:54Z</time>
      </trkpt>
      <trkpt lat="45.8907350" lon="5.6636810">
        <ele>489.6</ele>
        <time>2022-07-26T09:42:55Z</time>
      </trkpt>
      <trkpt lat="45.8907450" lon="5.6636920">
        <ele>489.7</ele>
        <time>2022-07-26T09:42:56Z</time>
      </trkpt>
      <trkpt lat="45.8907680" lon="5.6637200">
        <ele>489.9</ele>
        <time>2022-07-26T09:42:57Z</time>
      </trkpt>
      <trkpt lat="45.8907890" lon="5.6637510">
        <ele>490.0</ele>
        <time>2022-07-26T09:42:58Z</time>
      </trkpt>
      <trkpt lat="45.8908060" lon="5.6637880">
        <ele>490.2</ele>
        <time>2022-07-26T09:42:59Z</time>
      </trkpt>
      <trkpt lat="45.8908110" lon="5.6638010">
        <ele>490.3</ele>
        <time>2022-07-26T09:43:00Z</time>
      </trkpt>
      <trkpt lat="45.8908250" lon="5.6638350">
        <ele>490.4</ele>
        <time>2022-07-26T09:43:01Z</time>
      </trkpt>
      <trkpt lat="45.8908360" lon="5.6638690">
        <ele>490.5</ele>
        <time>2022-07-26T09:43:02Z</time>
      </trkpt>
      <trkpt lat="45.8908410" lon="5.6638830">
        <ele>490.6</ele>
        <time>2022-07-26T09:43:03Z</time>
      </trkpt>
      <trkpt lat="45.8908440" lon="5.6639030">
        <ele>490.7</ele>
        <time>2022-07-26T09:43:04Z</time>
      </trkpt>
      <trkpt lat="45.8908470" lon="5.6639250">
        <ele>490.8</ele>
        <time>2022-07-26T09:43:05Z</time>
      </trkpt>
      <trkpt lat="45.8908540" lon="5.6639630">
        <ele>490.9</ele>
        <time>2022-07-26T09:43:06Z</time>
      </trkpt>
      <trkpt lat="45.8908560" lon="5.6639780">
        <ele>490.9</ele>
        <time>2022-07-26T09:43:07Z</time>
      </trkpt>
      <trkpt lat="45.8908580" lon="5.6639990">
        <ele>491.0</ele>
        <time>2022-07-26T09:43:08Z</time>
      </trkpt>
      <trkpt lat="45.8908630" lon="5.6640250">
        <ele>491.1</ele>
        <time>2022-07-26T09:43:09Z</time>
      </trkpt>
      <trkpt lat="45.8908730" lon="5.6640660">
        <ele>491.2</ele>
        <time>2022-07-26T09:43:10Z</time>
      </trkpt>
      <trkpt lat="45.8908750" lon="5.6640790">
        <ele>491.2</ele>
        <time>2022-07-26T09:43:11Z</time>
      </trkpt>
      <trkpt lat="45.8908850" lon="5.6641220">
        <ele>491.3</ele>
        <time>2022-07-26T09:43:12Z</time>
      </trkpt>
      <trkpt lat="45.8908870" lon="5.6641350">
        <ele>491.3</ele>
        <time>2022-07-26T09:43:13Z</time>
      </trkpt>
      <trkpt lat="45.8908950" lon="5.6641650">
        <ele>491.3</ele>
        <time>2022-07-26T09:43:14Z</time>
      </trkpt>
      <trkpt lat="45.8908990" lon="5.6641820">
        <ele>491.3</ele>
        <time>2022-07-26T09:43:15Z</time>
      </trkpt>
      <trkpt lat="45.8909030" lon="5.6641990">
        <ele>491.3</ele>
        <time>2022-07-26T09:43:16Z</time>
      </trkpt>
      <trkpt lat="45.8909140" lon="5.6642350">
        <ele>491.2</ele>
        <time>2022-07-26T09:43:17Z</time>
      </trkpt>
      <trkpt lat="45.8909250" lon="5.6642740">
        <ele>491.1</ele>
        <time>2022-07-26T09:43:18Z</time>
      </trkpt>
      <trkpt lat="45.8909330" lon="5.6643160">
        <ele>490.9</ele>
        <time>2022-07-26T09:43:19Z</time>
      </trkpt>
      <trkpt lat="45.8909390" lon="5.6643620">
        <ele>490.7</ele>
        <time>2022-07-26T09:43:20Z</time>
      </trkpt>
      <trkpt lat="45.8909500" lon="5.6644200">
        <ele>490.4</ele>
        <time>2022-07-26T09:43:21Z</time>
      </trkpt>
      <trkpt lat="45.8909610" lon="5.6644780">
        <ele>490.1</ele>
        <time>2022-07-26T09:43:22Z</time>
      </trkpt>
      <trkpt lat="45.8909770" lon="5.6645600">
        <ele>489.5</ele>
        <time>2022-07-26T09:43:23Z</time>
      </trkpt>
      <trkpt lat="45.8909760" lon="5.6646690">
        <ele>488.7</ele>
        <time>2022-07-26T09:43:25Z</time>
      </trkpt>
      <trkpt lat="45.8909850" lon="5.6647300">
        <ele>488.2</ele>
        <time>2022-07-26T09:43:26Z</time>
      </trkpt>
      <trkpt lat="45.8910040" lon="5.6648510">
        <ele>487.2</ele>
        <time>2022-07-26T09:43:28Z</time>
      </trkpt>
      <trkpt lat="45.8910160" lon="5.6649000">
        <ele>486.8</ele>
        <time>2022-07-26T09:43:29Z</time>
      </trkpt>
      <trkpt lat="45.8910260" lon="5.6649830">
        <ele>486.2</ele>
        <time>2022-07-26T09:43:30Z</time>
      </trkpt>
      <trkpt lat="45.8910360" lon="5.6650620">
        <ele>485.5</ele>
        <time>2022-07-26T09:43:31Z</time>
      </trkpt>
      <trkpt lat="45.8910530" lon="5.6651540">
        <ele>484.8</ele>
        <time>2022-07-26T09:43:33Z</time>
      </trkpt>
      <trkpt lat="45.8910560" lon="5.6652250">
        <ele>484.1</ele>
        <time>2022-07-26T09:43:34Z</time>
      </trkpt>
      <trkpt lat="45.8910570" lon="5.6652950">
        <ele>483.5</ele>
        <time>2022-07-26T09:43:35Z</time>
      </trkpt>
      <trkpt lat="45.8910560" lon="5.6653630">
        <ele>482.9</ele>
        <time>2022-07-26T09:43:36Z</time>
      </trkpt>
      <trkpt lat="45.8910540" lon="5.6654310">
        <ele>482.4</ele>
        <time>2022-07-26T09:43:37Z</time>
      </trkpt>
      <trkpt lat="45.8910420" lon="5.6654820">
        <ele>481.9</ele>
        <time>2022-07-26T09:43:38Z</time>
      </trkpt>
      <trkpt lat="45.8910400" lon="5.6655110">
        <ele>481.6</ele>
        <time>2022-07-26T09:43:39Z</time>
      </trkpt>
      <trkpt lat="45.8910390" lon="5.6655920">
        <ele>480.9</ele>
        <time>2022-07-26T09:43:41Z</time>
      </trkpt>
      <trkpt lat="45.8910200" lon="5.6657370">
        <ele>479.7</ele>
        <time>2022-07-26T09:43:42Z</time>
      </trkpt>
      <trkpt lat="45.8910150" lon="5.6658070">
        <ele>479.1</ele>
        <time>2022-07-26T09:43:43Z</time>
      </trkpt>
      <trkpt lat="45.8910040" lon="5.6658680">
        <ele>478.6</ele>
        <time>2022-07-26T09:43:44Z</time>
      </trkpt>
      <trkpt lat="45.8909730" lon="5.6659770">
        <ele>477.8</ele>
        <time>2022-07-26T09:43:46Z</time>
      </trkpt>
      <trkpt lat="45.8909510" lon="5.6660310">
        <ele>477.4</ele>
        <time>2022-07-26T09:43:47Z</time>
      </trkpt>
      <trkpt lat="45.8909340" lon="5.6660840">
        <ele>477.0</ele>
        <time>2022-07-26T09:43:48Z</time>
      </trkpt>
      <trkpt lat="45.8909090" lon="5.6661420">
        <ele>476.6</ele>
        <time>2022-07-26T09:43:49Z</time>
      </trkpt>
      <trkpt lat="45.8908860" lon="5.6661930">
        <ele>476.2</ele>
        <time>2022-07-26T09:43:50Z</time>
      </trkpt>
      <trkpt lat="45.8908640" lon="5.6662680">
        <ele>475.7</ele>
        <time>2022-07-26T09:43:52Z</time>
      </trkpt>
      <trkpt lat="45.8908460" lon="5.6663140">
        <ele>475.3</ele>
        <time>2022-07-26T09:43:53Z</time>
      </trkpt>
      <trkpt lat="45.8908310" lon="5.6663510">
        <ele>475.0</ele>
        <time>2022-07-26T09:43:54Z</time>
      </trkpt>
      <trkpt lat="45.8908100" lon="5.6663880">
        <ele>474.6</ele>
        <time>2022-07-26T09:43:55Z</time>
      </trkpt>
      <trkpt lat="45.8907950" lon="5.6664270">
        <ele>474.3</ele>
        <time>2022-07-26T09:43:56Z</time>
      </trkpt>
      <trkpt lat="45.8907850" lon="5.6664800">
        <ele>473.9</ele>
        <time>2022-07-26T09:43:57Z</time>
      </trkpt>
      <trkpt lat="45.8907840" lon="5.6664970">
        <ele>473.7</ele>
        <time>2022-07-26T09:43:58Z</time>
      </trkpt>
      <trkpt lat="45.8907820" lon="5.6665440">
        <ele>473.3</ele>
        <time>2022-07-26T09:43:59Z</time>
      </trkpt>
      <trkpt lat="45.8907810" lon="5.6665610">
        <ele>473.2</ele>
        <time>2022-07-26T09:44:00Z</time>
      </trkpt>
      <trkpt lat="45.8907620" lon="5.6666080">
        <ele>472.7</ele>
        <time>2022-07-26T09:44:01Z</time>
      </trkpt>
      <trkpt lat="45.8907260" lon="5.6666550">
        <ele>472.2</ele>
        <time>2022-07-26T09:44:03Z</time>
      </trkpt>
      <trkpt lat="45.8906950" lon="5.6667130">
        <ele>471.6</ele>
        <time>2022-07-26T09:44:04Z</time>
      </trkpt>
      <trkpt lat="45.8906640" lon="5.6667570">
        <ele>471.0</ele>
        <time>2022-07-26T09:44:05Z</time>
      </trkpt>
      <trkpt lat="45.8906350" lon="5.6667930">
        <ele>470.5</ele>
        <time>2022-07-26T09:44:06Z</time>
      </trkpt>
      <trkpt lat="45.8906090" lon="5.6668280">
        <ele>470.1</ele>
        <time>2022-07-26T09:44:07Z</time>
      </trkpt>
      <trkpt lat="45.8905910" lon="5.6668680">
        <ele>469.7</ele>
        <time>2022-07-26T09:44:08Z</time>
      </trkpt>
      <trkpt lat="45.8905720" lon="5.6669200">
        <ele>469.2</ele>
        <time>2022-07-26T09:44:09Z</time>
      </trkpt>
      <trkpt lat="45.8905560" lon="5.6669640">
        <ele>468.7</ele>
        <time>2022-07-26T09:44:10Z</time>
      </trkpt>
      <trkpt lat="45.8905340" lon="5.6670170">
        <ele>468.1</ele>
        <time>2022-07-26T09:44:11Z</time>
      </trkpt>
      <trkpt lat="45.8905160" lon="5.6670580">
        <ele>467.7</ele>
        <time>2022-07-26T09:44:12Z</time>
      </trkpt>
      <trkpt lat="45.8904970" lon="5.6670930">
        <ele>467.3</ele>
        <time>2022-07-26T09:44:13Z</time>
      </trkpt>
      <trkpt lat="45.8904730" lon="5.6671330">
        <ele>466.8</ele>
        <time>2022-07-26T09:44:14Z</time>
      </trkpt>
      <trkpt lat="45.8904340" lon="5.6672030">
        <ele>466.0</ele>
        <time>2022-07-26T09:44:16Z</time>
      </trkpt>
      <trkpt lat="45.8904120" lon="5.6672610">
        <ele>465.5</ele>
        <time>2022-07-26T09:44:17Z</time>
      </trkpt>
      <trkpt lat="45.8903900" lon="5.6673180">
        <ele>464.9</ele>
        <time>2022-07-26T09:44:18Z</time>
      </trkpt>
      <trkpt lat="45.8903580" lon="5.6673860">
        <ele>464.3</ele>
        <time>2022-07-26T09:44:19Z</time>
      </trkpt>
      <trkpt lat="45.8903050" lon="5.6674760">
        <ele>463.4</ele>
        <time>2022-07-26T09:44:21Z</time>
      </trkpt>
      <trkpt lat="45.8902610" lon="5.6675300">
        <ele>462.8</ele>
        <time>2022-07-26T09:44:22Z</time>
      </trkpt>
      <trkpt lat="45.8902310" lon="5.6675620">
        <ele>462.4</ele>
        <time>2022-07-26T09:44:23Z</time>
      </trkpt>
      <trkpt lat="45.8902070" lon="5.6676020">
        <ele>461.9</ele>
        <time>2022-07-26T09:44:25Z</time>
      </trkpt>
      <trkpt lat="45.8901950" lon="5.6676190">
        <ele>461.7</ele>
        <time>2022-07-26T09:44:26Z</time>
      </trkpt>
      <trkpt lat="45.8901730" lon="5.6676450">
        <ele>461.3</ele>
        <time>2022-07-26T09:44:27Z</time>
      </trkpt>
      <trkpt lat="45.8901460" lon="5.6676730">
        <ele>460.8</ele>
        <time>2022-07-26T09:44:28Z</time>
      </trkpt>
      <trkpt lat="45.8901380" lon="5.6676810">
        <ele>460.7</ele>
        <time>2022-07-26T09:44:29Z</time>
      </trkpt>
      <trkpt lat="45.8901140" lon="5.6677180">
        <ele>460.1</ele>
        <time>2022-07-26T09:44:30Z</time>
      </trkpt>
      <trkpt lat="45.8900900" lon="5.6677650">
        <ele>459.5</ele>
        <time>2022-07-26T09:44:31Z</time>
      </trkpt>
      <trkpt lat="45.8900590" lon="5.6678150">
        <ele>458.6</ele>
        <time>2022-07-26T09:44:33Z</time>
      </trkpt>
      <trkpt lat="45.8900490" lon="5.6678300">
        <ele>458.4</ele>
        <time>2022-07-26T09:44:34Z</time>
      </trkpt>
      <trkpt lat="45.8900390" lon="5.6678450">
        <ele>458.2</ele>
        <time>2022-07-26T09:44:35Z</time>
      </trkpt>
      <trkpt lat="45.8900300" lon="5.6678630">
        <ele>457.9</ele>
        <time>2022-07-26T09:44:37Z</time>
      </trkpt>
      <trkpt lat="45.8900240" lon="5.6678750">
        <ele>457.7</ele>
        <time>2022-07-26T09:44:38Z</time>
      </trkpt>
      <trkpt lat="45.8900180" lon="5.6678860">
        <ele>457.5</ele>
        <time>2022-07-26T09:44:39Z</time>
      </trkpt>
      <trkpt lat="45.8900130" lon="5.6678970">
        <ele>457.3</ele>
        <time>2022-07-26T09:44:40Z</time>
      </trkpt>
      <trkpt lat="45.8900070" lon="5.6679100">
        <ele>457.1</ele>
        <time>2022-07-26T09:44:41Z</time>
      </trkpt>
      <trkpt lat="45.8900030" lon="5.6679190">
        <ele>457.0</ele>
        <time>2022-07-26T09:44:42Z</time>
      </trkpt>
      <trkpt lat="45.8899980" lon="5.6679290">
        <ele>456.8</ele>
        <time>2022-07-26T09:44:43Z</time>
      </trkpt>
      <trkpt lat="45.8899920" lon="5.6679400">
        <ele>456.7</ele>
        <time>2022-07-26T09:44:44Z</time>
      </trkpt>
      <trkpt lat="45.8899830" lon="5.6679500">
        <ele>456.4</ele>
        <time>2022-07-26T09:44:45Z</time>
      </trkpt>
      <trkpt lat="45.8899700" lon="5.6679650">
        <ele>456.1</ele>
        <time>2022-07-26T09:44:46Z</time>
      </trkpt>
      <trkpt lat="45.8899570" lon="5.6679790">
        <ele>455.8</ele>
        <time>2022-07-26T09:44:47Z</time>
      </trkpt>
      <trkpt lat="45.8899430" lon="5.6679940">
        <ele>455.5</ele>
        <time>2022-07-26T09:44:49Z</time>
      </trkpt>
      <trkpt lat="45.8899290" lon="5.6680100">
        <ele>455.1</ele>
        <time>2022-07-26T09:44:50Z</time>
      </trkpt>
      <trkpt lat="45.8899170" lon="5.6680210">
        <ele>454.8</ele>
        <time>2022-07-26T09:44:51Z</time>
      </trkpt>
      <trkpt lat="45.8899050" lon="5.6680340">
        <ele>454.5</ele>
        <time>2022-07-26T09:44:52Z</time>
      </trkpt>
      <trkpt lat="45.8898880" lon="5.6680530">
        <ele>454.1</ele>
        <time>2022-07-26T09:44:53Z</time>
      </trkpt>
      <trkpt lat="45.8898780" lon="5.6680640">
        <ele>453.8</ele>
        <time>2022-07-26T09:44:54Z</time>
      </trkpt>
      <trkpt lat="45.8898650" lon="5.6680770">
        <ele>453.5</ele>
        <time>2022-07-26T09:44:55Z</time>
      </trkpt>
      <trkpt lat="45.8898530" lon="5.6680890">
        <ele>453.2</ele>
        <time>2022-07-26T09:44:56Z</time>
      </trkpt>
      <trkpt lat="45.8898410" lon="5.6681000">
        <ele>452.9</ele>
        <time>2022-07-26T09:44:58Z</time>
      </trkpt>
      <trkpt lat="45.8898300" lon="5.6681100">
        <ele>452.7</ele>
        <time>2022-07-26T09:44:59Z</time>
      </trkpt>
      <trkpt lat="45.8898120" lon="5.6681330">
        <ele>452.2</ele>
        <time>2022-07-26T09:45:01Z</time>
      </trkpt>
      <trkpt lat="45.8897950" lon="5.6681660">
        <ele>451.6</ele>
        <time>2022-07-26T09:45:02Z</time>
      </trkpt>
      <trkpt lat="45.8897890" lon="5.6681750">
        <ele>451.5</ele>
        <time>2022-07-26T09:45:03Z</time>
      </trkpt>
      <trkpt lat="45.8897800" lon="5.6681930">
        <ele>451.2</ele>
        <time>2022-07-26T09:45:04Z</time>
      </trkpt>
      <trkpt lat="45.8897730" lon="5.6682100">
        <ele>450.9</ele>
        <time>2022-07-26T09:45:05Z</time>
      </trkpt>
      <trkpt lat="45.8897680" lon="5.6682270">
        <ele>450.7</ele>
        <time>2022-07-26T09:45:06Z</time>
      </trkpt>
      <trkpt lat="45.8897680" lon="5.6682430">
        <ele>450.5</ele>
        <time>2022-07-26T09:45:07Z</time>
      </trkpt>
      <trkpt lat="45.8897680" lon="5.6682580">
        <ele>450.3</ele>
        <time>2022-07-26T09:45:08Z</time>
      </trkpt>
      <trkpt lat="45.8897670" lon="5.6682740">
        <ele>450.1</ele>
        <time>2022-07-26T09:45:09Z</time>
      </trkpt>
      <trkpt lat="45.8897640" lon="5.6682910">
        <ele>449.9</ele>
        <time>2022-07-26T09:45:10Z</time>
      </trkpt>
      <trkpt lat="45.8897590" lon="5.6683060">
        <ele>449.7</ele>
        <time>2022-07-26T09:45:11Z</time>
      </trkpt>
      <trkpt lat="45.8897530" lon="5.6683190">
        <ele>449.5</ele>
        <time>2022-07-26T09:45:12Z</time>
      </trkpt>
      <trkpt lat="45.8897460" lon="5.6683330">
        <ele>449.3</ele>
        <time>2022-07-26T09:45:13Z</time>
      </trkpt>
      <trkpt lat="45.8897410" lon="5.6683460">
        <ele>449.2</ele>
        <time>2022-07-26T09:45:14Z</time>
      </trkpt>
      <trkpt lat="45.8897380" lon="5.6683600">
        <ele>449.0</ele>
        <time>2022-07-26T09:45:15Z</time>
      </trkpt>
      <trkpt lat="45.8897340" lon="5.6683770">
        <ele>448.8</ele>
        <time>2022-07-26T09:45:16Z</time>
      </trkpt>
      <trkpt lat="45.8897340" lon="5.6683850">
        <ele>448.7</ele>
        <time>2022-07-26T09:45:17Z</time>
      </trkpt>
      <trkpt lat="45.8897330" lon="5.6683960">
        <ele>448.6</ele>
        <time>2022-07-26T09:45:18Z</time>
      </trkpt>
      <trkpt lat="45.8897330" lon="5.6684120">
        <ele>448.4</ele>
        <time>2022-07-26T09:45:19Z</time>
      </trkpt>
      <trkpt lat="45.8897280" lon="5.6684290">
        <ele>448.1</ele>
        <time>2022-07-26T09:45:20Z</time>
      </trkpt>
      <trkpt lat="45.8897210" lon="5.6684470">
        <ele>447.9</ele>
        <time>2022-07-26T09:45:21Z</time>
      </trkpt>
      <trkpt lat="45.8897170" lon="5.6684560">
        <ele>447.8</ele>
        <time>2022-07-26T09:45:22Z</time>
      </trkpt>
      <trkpt lat="45.8897150" lon="5.6684610">
        <ele>447.7</ele>
        <time>2022-07-26T09:45:23Z</time>
      </trkpt>
      <trkpt lat="45.8897140" lon="5.6684670">
        <ele>447.6</ele>
        <time>2022-07-26T09:45:24Z</time>
      </trkpt>
      <trkpt lat="45.8897130" lon="5.6684720">
        <ele>447.6</ele>
        <time>2022-07-26T09:45:25Z</time>
      </trkpt>
      <trkpt lat="45.8897110" lon="5.6684800">
        <ele>447.5</ele>
        <time>2022-07-26T09:45:26Z</time>
      </trkpt>
      <trkpt lat="45.8897100" lon="5.6684870">
        <ele>447.4</ele>
        <time>2022-07-26T09:45:27Z</time>
      </trkpt>
      <trkpt lat="45.8897050" lon="5.6685060">
        <ele>447.2</ele>
        <time>2022-07-26T09:45:28Z</time>
      </trkpt>
      <trkpt lat="45.8896970" lon="5.6685230">
        <ele>446.9</ele>
        <time>2022-07-26T09:45:29Z</time>
      </trkpt>
      <trkpt lat="45.8896900" lon="5.6685400">
        <ele>446.7</ele>
        <time>2022-07-26T09:45:30Z</time>
      </trkpt>
      <trkpt lat="45.8896860" lon="5.6685490">
        <ele>446.6</ele>
        <time>2022-07-26T09:45:31Z</time>
      </trkpt>
      <trkpt lat="45.8896810" lon="5.6685570">
        <ele>446.5</ele>
        <time>2022-07-26T09:45:33Z</time>
      </trkpt>
      <trkpt lat="45.8896800" lon="5.6685580">
        <ele>446.4</ele>
        <time>2022-07-26T09:45:34Z</time>
      </trkpt>
      <trkpt lat="45.8896780" lon="5.6685610">
        <ele>446.4</ele>
        <time>2022-07-26T09:45:35Z</time>
      </trkpt>
      <trkpt lat="45.8896760" lon="5.6685630">
        <ele>446.4</ele>
        <time>2022-07-26T09:45:37Z</time>
      </trkpt>
      <trkpt lat="45.8896730" lon="5.6685670">
        <ele>446.3</ele>
        <time>2022-07-26T09:45:38Z</time>
      </trkpt>
      <trkpt lat="45.8896580" lon="5.6685930">
        <ele>445.9</ele>
        <time>2022-07-26T09:45:40Z</time>
      </trkpt>
      <trkpt lat="45.8896520" lon="5.6686250">
        <ele>445.5</ele>
        <time>2022-07-26T09:45:41Z</time>
      </trkpt>
      <trkpt lat="45.8896500" lon="5.6686430">
        <ele>445.3</ele>
        <time>2022-07-26T09:45:42Z</time>
      </trkpt>
      <trkpt lat="45.8896470" lon="5.6686620">
        <ele>445.1</ele>
        <time>2022-07-26T09:45:43Z</time>
      </trkpt>
      <trkpt lat="45.8896410" lon="5.6687170">
        <ele>444.6</ele>
        <time>2022-07-26T09:45:45Z</time>
      </trkpt>
      <trkpt lat="45.8896200" lon="5.6687680">
        <ele>443.9</ele>
        <time>2022-07-26T09:45:46Z</time>
      </trkpt>
      <trkpt lat="45.8896010" lon="5.6688110">
        <ele>443.5</ele>
        <time>2022-07-26T09:45:47Z</time>
      </trkpt>
      <trkpt lat="45.8895820" lon="5.6688590">
        <ele>442.9</ele>
        <time>2022-07-26T09:45:48Z</time>
      </trkpt>
      <trkpt lat="45.8895760" lon="5.6688750">
        <ele>442.8</ele>
        <time>2022-07-26T09:45:49Z</time>
      </trkpt>
      <trkpt lat="45.8895480" lon="5.6689110">
        <ele>442.3</ele>
        <time>2022-07-26T09:45:50Z</time>
      </trkpt>
      <trkpt lat="45.8895330" lon="5.6689220">
        <ele>442.1</ele>
        <time>2022-07-26T09:45:51Z</time>
      </trkpt>
      <trkpt lat="45.8894790" lon="5.6689550">
        <ele>441.4</ele>
        <time>2022-07-26T09:45:53Z</time>
      </trkpt>
      <trkpt lat="45.8894500" lon="5.6689880">
        <ele>441.1</ele>
        <time>2022-07-26T09:45:54Z</time>
      </trkpt>
      <trkpt lat="45.8894240" lon="5.6690390">
        <ele>440.6</ele>
        <time>2022-07-26T09:45:55Z</time>
      </trkpt>
      <trkpt lat="45.8894160" lon="5.6690660">
        <ele>440.4</ele>
        <time>2022-07-26T09:45:56Z</time>
      </trkpt>
      <trkpt lat="45.8894040" lon="5.6691080">
        <ele>440.0</ele>
        <time>2022-07-26T09:45:57Z</time>
      </trkpt>
      <trkpt lat="45.8894050" lon="5.6691430">
        <ele>439.7</ele>
        <time>2022-07-26T09:45:58Z</time>
      </trkpt>
      <trkpt lat="45.8894240" lon="5.6691550">
        <ele>439.4</ele>
        <time>2022-07-26T09:46:00Z</time>
      </trkpt>
      <trkpt lat="45.8894420" lon="5.6691590">
        <ele>439.1</ele>
        <time>2022-07-26T09:46:01Z</time>
      </trkpt>
      <trkpt lat="45.8894590" lon="5.6691580">
        <ele>438.9</ele>
        <time>2022-07-26T09:46:02Z</time>
      </trkpt>
      <trkpt lat="45.8894950" lon="5.6691490">
        <ele>437.6</ele>
        <time>2022-07-26T09:46:03Z</time>
      </trkpt>
      <trkpt lat="45.8895120" lon="5.6691470">
        <ele>437.3</ele>
        <time>2022-07-26T09:46:04Z</time>
      </trkpt>
      <trkpt lat="45.8895460" lon="5.6691560">
        <ele>436.7</ele>
        <time>2022-07-26T09:46:06Z</time>
      </trkpt>
      <trkpt lat="45.8895550" lon="5.6691590">
        <ele>436.5</ele>
        <time>2022-07-26T09:46:07Z</time>
      </trkpt>
      <trkpt lat="45.8895880" lon="5.6691600">
        <ele>435.9</ele>
        <time>2022-07-26T09:46:09Z</time>
      </trkpt>
      <trkpt lat="45.8895960" lon="5.6691610">
        <ele>435.8</ele>
        <time>2022-07-26T09:46:10Z</time>
      </trkpt>
      <trkpt lat="45.8896270" lon="5.6691650">
        <ele>435.2</ele>
        <time>2022-07-26T09:46:11Z</time>
      </trkpt>
      <trkpt lat="45.8896370" lon="5.6691670">
        <ele>435.0</ele>
        <time>2022-07-26T09:46:12Z</time>
      </trkpt>
      <trkpt lat="45.8896650" lon="5.6691720">
        <ele>434.5</ele>
        <time>2022-07-26T09:46:13Z</time>
      </trkpt>
      <trkpt lat="45.8896990" lon="5.6691750">
        <ele>433.9</ele>
        <time>2022-07-26T09:46:14Z</time>
      </trkpt>
      <trkpt lat="45.8897420" lon="5.6691790">
        <ele>433.2</ele>
        <time>2022-07-26T09:46:16Z</time>
      </trkpt>
      <trkpt lat="45.8897870" lon="5.6692000">
        <ele>432.4</ele>
        <time>2022-07-26T09:46:17Z</time>
      </trkpt>
      <trkpt lat="45.8898360" lon="5.6692460">
        <ele>431.4</ele>
        <time>2022-07-26T09:46:18Z</time>
      </trkpt>
      <trkpt lat="45.8898760" lon="5.6693170">
        <ele>430.4</ele>
        <time>2022-07-26T09:46:19Z</time>
      </trkpt>
      <trkpt lat="45.8899790" lon="5.6694620">
        <ele>428.2</ele>
        <time>2022-07-26T09:46:21Z</time>
      </trkpt>
      <trkpt lat="45.8900430" lon="5.6695450">
        <ele>426.9</ele>
        <time>2022-07-26T09:46:22Z</time>
      </trkpt>
      <trkpt lat="45.8900450" lon="5.6696280">
        <ele>426.1</ele>
        <time>2022-07-26T09:46:23Z</time>
      </trkpt>
      <trkpt lat="45.8900390" lon="5.6696940">
        <ele>425.4</ele>
        <time>2022-07-26T09:46:24Z</time>
      </trkpt>
      <trkpt lat="45.8900520" lon="5.6697420">
        <ele>425.0</ele>
        <time>2022-07-26T09:46:25Z</time>
      </trkpt>
      <trkpt lat="45.8900380" lon="5.6697840">
        <ele>424.6</ele>
        <time>2022-07-26T09:46:26Z</time>
      </trkpt>
      <trkpt lat="45.8900320" lon="5.6698340">
        <ele>424.1</ele>
        <time>2022-07-26T09:46:27Z</time>
      </trkpt>
      <trkpt lat="45.8900470" lon="5.6699090">
        <ele>423.5</ele>
        <time>2022-07-26T09:46:28Z</time>
      </trkpt>
      <trkpt lat="45.8900520" lon="5.6699780">
        <ele>422.9</ele>
        <time>2022-07-26T09:46:29Z</time>
      </trkpt>
      <trkpt lat="45.8900590" lon="5.6700340">
        <ele>422.4</ele>
        <time>2022-07-26T09:46:30Z</time>
      </trkpt>
      <trkpt lat="45.8900800" lon="5.6700940">
        <ele>421.8</ele>
        <time>2022-07-26T09:46:31Z</time>
      </trkpt>
      <trkpt lat="45.8900900" lon="5.6701550">
        <ele>421.1</ele>
        <time>2022-07-26T09:46:32Z</time>
      </trkpt>
      <trkpt lat="45.8901040" lon="5.6702100">
        <ele>420.6</ele>
        <time>2022-07-26T09:46:33Z</time>
      </trkpt>
      <trkpt lat="45.8901100" lon="5.6702830">
        <ele>419.8</ele>
        <time>2022-07-26T09:46:34Z</time>
      </trkpt>
      <trkpt lat="45.8901180" lon="5.6703260">
        <ele>419.3</ele>
        <time>2022-07-26T09:46:35Z</time>
      </trkpt>
      <trkpt lat="45.8901260" lon="5.6703660">
        <ele>418.9</ele>
        <time>2022-07-26T09:46:37Z</time>
      </trkpt>
      <trkpt lat="45.8901310" lon="5.6703890">
        <ele>418.6</ele>
        <time>2022-07-26T09:46:38Z</time>
      </trkpt>
      <trkpt lat="45.8901340" lon="5.6704160">
        <ele>418.3</ele>
        <time>2022-07-26T09:46:39Z</time>
      </trkpt>
      <trkpt lat="45.8901350" lon="5.6704410">
        <ele>417.9</ele>
        <time>2022-07-26T09:46:40Z</time>
      </trkpt>
      <trkpt lat="45.8901410" lon="5.6704590">
        <ele>417.7</ele>
        <time>2022-07-26T09:46:41Z</time>
      </trkpt>
      <trkpt lat="45.8901700" lon="5.6705000">
        <ele>416.9</ele>
        <time>2022-07-26T09:46:43Z</time>
      </trkpt>
      <trkpt lat="45.8901820" lon="5.6705140">
        <ele>416.6</ele>
        <time>2022-07-26T09:46:44Z</time>
      </trkpt>
      <trkpt lat="45.8902260" lon="5.6705370">
        <ele>414.6</ele>
        <time>2022-07-26T09:46:45Z</time>
      </trkpt>
      <trkpt lat="45.8902700" lon="5.6705480">
        <ele>414.3</ele>
        <time>2022-07-26T09:46:46Z</time>
      </trkpt>
      <trkpt lat="45.8903370" lon="5.6705640">
        <ele>413.8</ele>
        <time>2022-07-26T09:46:47Z</time>
      </trkpt>
      <trkpt lat="45.8903950" lon="5.6705860">
        <ele>413.4</ele>
        <time>2022-07-26T09:46:48Z</time>
      </trkpt>
      <trkpt lat="45.8904500" lon="5.6706120">
        <ele>413.1</ele>
        <time>2022-07-26T09:46:49Z</time>
      </trkpt>
      <trkpt lat="45.8905030" lon="5.6706290">
        <ele>412.8</ele>
        <time>2022-07-26T09:46:50Z</time>
      </trkpt>
      <trkpt lat="45.8905650" lon="5.6706440">
        <ele>412.6</ele>
        <time>2022-07-26T09:46:51Z</time>
      </trkpt>
      <trkpt lat="45.8906200" lon="5.6706630">
        <ele>412.4</ele>
        <time>2022-07-26T09:46:52Z</time>
      </trkpt>
      <trkpt lat="45.8906800" lon="5.6706820">
        <ele>412.2</ele>
        <time>2022-07-26T09:46:53Z</time>
      </trkpt>
      <trkpt lat="45.8907450" lon="5.6706960">
        <ele>412.1</ele>
        <time>2022-07-26T09:46:54Z</time>
      </trkpt>
      <trkpt lat="45.8908080" lon="5.6706950">
        <ele>412.0</ele>
        <time>2022-07-26T09:46:55Z</time>
      </trkpt>
      <trkpt lat="45.8908740" lon="5.6707000">
        <ele>411.9</ele>
        <time>2022-07-26T09:46:56Z</time>
      </trkpt>
      <trkpt lat="45.8909330" lon="5.6706980">
        <ele>411.9</ele>
        <time>2022-07-26T09:46:57Z</time>
      </trkpt>
      <trkpt lat="45.8909950" lon="5.6706850">
        <ele>411.9</ele>
        <time>2022-07-26T09:46:58Z</time>
      </trkpt>
      <trkpt lat="45.8910540" lon="5.6706510">
        <ele>411.9</ele>
        <time>2022-07-26T09:46:59Z</time>
      </trkpt>
      <trkpt lat="45.8911050" lon="5.6706100">
        <ele>411.9</ele>
        <time>2022-07-26T09:47:00Z</time>
      </trkpt>
      <trkpt lat="45.8911520" lon="5.6705720">
        <ele>412.0</ele>
        <time>2022-07-26T09:47:01Z</time>
      </trkpt>
      <trkpt lat="45.8911900" lon="5.6705300">
        <ele>412.0</ele>
        <time>2022-07-26T09:47:02Z</time>
      </trkpt>
      <trkpt lat="45.8912210" lon="5.6704840">
        <ele>412.0</ele>
        <time>2022-07-26T09:47:03Z</time>
      </trkpt>
      <trkpt lat="45.8912460" lon="5.6704410">
        <ele>412.0</ele>
        <time>2022-07-26T09:47:04Z</time>
      </trkpt>
      <trkpt lat="45.8912840" lon="5.6703820">
        <ele>412.1</ele>
        <time>2022-07-26T09:47:05Z</time>
      </trkpt>
      <trkpt lat="45.8913160" lon="5.6703400">
        <ele>412.1</ele>
        <time>2022-07-26T09:47:06Z</time>
      </trkpt>
      <trkpt lat="45.8913460" lon="5.6702970">
        <ele>412.2</ele>
        <time>2022-07-26T09:47:07Z</time>
      </trkpt>
      <trkpt lat="45.8913760" lon="5.6702610">
        <ele>412.3</ele>
        <time>2022-07-26T09:47:08Z</time>
      </trkpt>
      <trkpt lat="45.8914140" lon="5.6702270">
        <ele>412.3</ele>
        <time>2022-07-26T09:47:09Z</time>
      </trkpt>
      <trkpt lat="45.8914400" lon="5.6702020">
        <ele>412.3</ele>
        <time>2022-07-26T09:47:10Z</time>
      </trkpt>
      <trkpt lat="45.8914490" lon="5.6701960">
        <ele>412.2</ele>
        <time>2022-07-26T09:47:11Z</time>
      </trkpt>
      <trkpt lat="45.8914410" lon="5.6702120">
        <ele>412.2</ele>
        <time>2022-07-26T09:47:12Z</time>
      </trkpt>
      <trkpt lat="45.8914380" lon="5.6702180">
        <ele>412.2</ele>
        <time>2022-07-26T09:47:13Z</time>
      </trkpt>
      <trkpt lat="45.8914370" lon="5.6702270">
        <ele>412.2</ele>
        <time>2022-07-26T09:47:14Z</time>
      </trkpt>
      <trkpt lat="45.8914440" lon="5.6702380">
        <ele>412.2</ele>
        <time>2022-07-26T09:47:15Z</time>
      </trkpt>
      <trkpt lat="45.8914480" lon="5.6702450">
        <ele>412.2</ele>
        <time>2022-07-26T09:47:16Z</time>
      </trkpt>
      <trkpt lat="45.8914580" lon="5.6702600">
        <ele>412.2</ele>
        <time>2022-07-26T09:47:17Z</time>
      </trkpt>
      <trkpt lat="45.8914690" lon="5.6702760">
        <ele>412.1</ele>
        <time>2022-07-26T09:47:18Z</time>
      </trkpt>
      <trkpt lat="45.8914820" lon="5.6702930">
        <ele>412.1</ele>
        <time>2022-07-26T09:47:19Z</time>
      </trkpt>
      <trkpt lat="45.8914910" lon="5.6703120">
        <ele>412.1</ele>
        <time>2022-07-26T09:47:20Z</time>
      </trkpt>
      <trkpt lat="45.8915000" lon="5.6703300">
        <ele>412.1</ele>
        <time>2022-07-26T09:47:21Z</time>
      </trkpt>
      <trkpt lat="45.8915050" lon="5.6703960">
        <ele>412.0</ele>
        <time>2022-07-26T09:47:23Z</time>
      </trkpt>
      <trkpt lat="45.8915150" lon="5.6704390">
        <ele>412.0</ele>
        <time>2022-07-26T09:47:24Z</time>
      </trkpt>
      <trkpt lat="45.8915200" lon="5.6704500">
        <ele>412.0</ele>
        <time>2022-07-26T09:47:25Z</time>
      </trkpt>
      <trkpt lat="45.8915330" lon="5.6704750">
        <ele>412.0</ele>
        <time>2022-07-26T09:47:26Z</time>
      </trkpt>
      <trkpt lat="45.8915510" lon="5.6705150">
        <ele>412.0</ele>
        <time>2022-07-26T09:47:28Z</time>
      </trkpt>
      <trkpt lat="45.8915790" lon="5.6705420">
        <ele>412.0</ele>
        <time>2022-07-26T09:47:29Z</time>
      </trkpt>
      <trkpt lat="45.8915870" lon="5.6705470">
        <ele>412.0</ele>
        <time>2022-07-26T09:47:30Z</time>
      </trkpt>
      <trkpt lat="45.8916080" lon="5.6705550">
        <ele>411.9</ele>
        <time>2022-07-26T09:47:31Z</time>
      </trkpt>
      <trkpt lat="45.8916160" lon="5.6705570">
        <ele>411.9</ele>
        <time>2022-07-26T09:47:32Z</time>
      </trkpt>
      <trkpt lat="45.8916240" lon="5.6705580">
        <ele>411.9</ele>
        <time>2022-07-26T09:47:33Z</time>
      </trkpt>
      <trkpt lat="45.8916330" lon="5.6705630">
        <ele>411.9</ele>
        <time>2022-07-26T09:47:34Z</time>
      </trkpt>
      <trkpt lat="45.8916380" lon="5.6705650">
        <ele>411.9</ele>
        <time>2022-07-26T09:47:35Z</time>
      </trkpt>
      <trkpt lat="45.8916410" lon="5.6705650">
        <ele>411.9</ele>
        <time>2022-07-26T09:47:36Z</time>
      </trkpt>
      <trkpt lat="45.8916400" lon="5.6705610">
        <ele>411.9</ele>
        <time>2022-07-26T09:47:37Z</time>
      </trkpt>
      <trkpt lat="45.8916380" lon="5.6705570">
        <ele>411.9</ele>
        <time>2022-07-26T09:47:38Z</time>
      </trkpt>
      <trkpt lat="45.8916370" lon="5.6705550">
        <ele>411.9</ele>
        <time>2022-07-26T09:47:39Z</time>
      </trkpt>
      <trkpt lat="45.8916370" lon="5.6705530">
        <ele>411.9</ele>
        <time>2022-07-26T09:47:40Z</time>
      </trkpt>
      <trkpt lat="45.8916370" lon="5.6705520">
        <ele>411.9</ele>
        <time>2022-07-26T09:47:41Z</time>
      </trkpt>
      <trkpt lat="45.8916370" lon="5.6705510">
        <ele>411.9</ele>
        <time>2022-07-26T09:47:42Z</time>
      </trkpt>
      <trkpt lat="45.8916390" lon="5.6705520">
        <ele>411.9</ele>
        <time>2022-07-26T09:47:43Z</time>
      </trkpt>
      <trkpt lat="45.8916380" lon="5.6705520">
        <ele>411.9</ele>
        <time>2022-07-26T09:47:44Z</time>
      </trkpt>
      <trkpt lat="45.8916380" lon="5.6705530">
        <ele>411.9</ele>
        <time>2022-07-26T09:47:45Z</time>
      </trkpt>
      <trkpt lat="45.8916440" lon="5.6705970">
        <ele>411.9</ele>
        <time>2022-07-26T09:48:18Z</time>
      </trkpt>
      <trkpt lat="45.8916600" lon="5.6706170">
        <ele>411.9</ele>
        <time>2022-07-26T09:48:20Z</time>
      </trkpt>
      <trkpt lat="45.8916830" lon="5.6706150">
        <ele>411.9</ele>
        <time>2022-07-26T09:48:21Z</time>
      </trkpt>
      <trkpt lat="45.8916990" lon="5.6706070">
        <ele>411.9</ele>
        <time>2022-07-26T09:48:23Z</time>
      </trkpt>
      <trkpt lat="45.8917180" lon="5.6705970">
        <ele>411.9</ele>
        <time>2022-07-26T09:48:24Z</time>
      </trkpt>
      <trkpt lat="45.8917300" lon="5.6705910">
        <ele>411.9</ele>
        <time>2022-07-26T09:48:26Z</time>
      </trkpt>
      <trkpt lat="45.8917380" lon="5.6705830">
        <ele>411.9</ele>
        <time>2022-07-26T09:48:27Z</time>
      </trkpt>
      <trkpt lat="45.8917450" lon="5.6705760">
        <ele>411.9</ele>
        <time>2022-07-26T09:48:28Z</time>
      </trkpt>
      <trkpt lat="45.8917510" lon="5.6705710">
        <ele>411.9</ele>
        <time>2022-07-26T09:48:29Z</time>
      </trkpt>
      <trkpt lat="45.8917550" lon="5.6705680">
        <ele>411.9</ele>
        <time>2022-07-26T09:48:30Z</time>
      </trkpt>
      <trkpt lat="45.8917590" lon="5.6705650">
        <ele>411.9</ele>
        <time>2022-07-26T09:48:31Z</time>
      </trkpt>
      <trkpt lat="45.8917630" lon="5.6705630">
        <ele>411.9</ele>
        <time>2022-07-26T09:48:32Z</time>
      </trkpt>
      <trkpt lat="45.8917650" lon="5.6705610">
        <ele>411.9</ele>
        <time>2022-07-26T09:48:33Z</time>
      </trkpt>
      <trkpt lat="45.8917660" lon="5.6705590">
        <ele>411.9</ele>
        <time>2022-07-26T09:48:34Z</time>
      </trkpt>
      <trkpt lat="45.8917690" lon="5.6705570">
        <ele>411.9</ele>
        <time>2022-07-26T09:48:35Z</time>
      </trkpt>
      <trkpt lat="45.8917510" lon="5.6705180">
        <ele>411.9</ele>
        <time>2022-07-26T09:49:19Z</time>
      </trkpt>
      <trkpt lat="45.8917480" lon="5.6705170">
        <ele>411.9</ele>
        <time>2022-07-26T09:49:20Z</time>
      </trkpt>
      <trkpt lat="45.8917490" lon="5.6705180">
        <ele>411.9</ele>
        <time>2022-07-26T09:49:21Z</time>
      </trkpt>
      <trkpt lat="45.8917530" lon="5.6705220">
        <ele>411.9</ele>
        <time>2022-07-26T09:49:22Z</time>
      </trkpt>
      <trkpt lat="45.8917570" lon="5.6705280">
        <ele>411.9</ele>
        <time>2022-07-26T09:49:23Z</time>
      </trkpt>
      <trkpt lat="45.8917610" lon="5.6705370">
        <ele>411.9</ele>
        <time>2022-07-26T09:49:24Z</time>
      </trkpt>
      <trkpt lat="45.8917640" lon="5.6705440">
        <ele>411.9</ele>
        <time>2022-07-26T09:49:25Z</time>
      </trkpt>
      <trkpt lat="45.8917650" lon="5.6705490">
        <ele>411.9</ele>
        <time>2022-07-26T09:49:26Z</time>
      </trkpt>
      <trkpt lat="45.8917650" lon="5.6705520">
        <ele>411.9</ele>
        <time>2022-07-26T09:49:27Z</time>
      </trkpt>
      <trkpt lat="45.8917630" lon="5.6705530">
        <ele>411.9</ele>
        <time>2022-07-26T09:49:28Z</time>
      </trkpt>
      <trkpt lat="45.8917610" lon="5.6705520">
        <ele>411.9</ele>
        <time>2022-07-26T09:49:29Z</time>
      </trkpt>
      <trkpt lat="45.8917620" lon="5.6705530">
        <ele>411.9</ele>
        <time>2022-07-26T09:49:30Z</time>
      </trkpt>
      <trkpt lat="45.8917650" lon="5.6705540">
        <ele>411.9</ele>
        <time>2022-07-26T09:49:31Z</time>
      </trkpt>
      <trkpt lat="45.8917690" lon="5.6705560">
        <ele>411.9</ele>
        <time>2022-07-26T09:49:32Z</time>
      </trkpt>
      <trkpt lat="45.8917700" lon="5.6705580">
        <ele>411.9</ele>
        <time>2022-07-26T09:49:33Z</time>
      </trkpt>
      <trkpt lat="45.8917690" lon="5.6705580">
        <ele>411.9</ele>
        <time>2022-07-26T09:49:34Z</time>
      </trkpt>
      <trkpt lat="45.8917670" lon="5.6705560">
        <ele>411.9</ele>
        <time>2022-07-26T09:49:35Z</time>
      </trkpt>
      <trkpt lat="45.8917580" lon="5.6705510">
        <ele>411.9</ele>
        <time>2022-07-26T09:49:36Z</time>
      </trkpt>
      <trkpt lat="45.8917560" lon="5.6705500">
        <ele>411.9</ele>
        <time>2022-07-26T09:49:37Z</time>
      </trkpt>
      <trkpt lat="45.8917860" lon="5.6705770">
        <ele>412.0</ele>
        <time>2022-07-26T09:49:46Z</time>
      </trkpt>
      <trkpt lat="45.8917910" lon="5.6705820">
        <ele>412.0</ele>
        <time>2022-07-26T09:49:47Z</time>
      </trkpt>
      <trkpt lat="45.8917960" lon="5.6705850">
        <ele>412.0</ele>
        <time>2022-07-26T09:49:48Z</time>
      </trkpt>
      <trkpt lat="45.8917970" lon="5.6705850">
        <ele>412.0</ele>
        <time>2022-07-26T09:49:49Z</time>
      </trkpt>
      <trkpt lat="45.8917970" lon="5.6705860">
        <ele>412.0</ele>
        <time>2022-07-26T09:49:50Z</time>
      </trkpt>
      <trkpt lat="45.8917960" lon="5.6705890">
        <ele>412.0</ele>
        <time>2022-07-26T09:49:51Z</time>
      </trkpt>
      <trkpt lat="45.8917910" lon="5.6705880">
        <ele>412.1</ele>
        <time>2022-07-26T09:49:52Z</time>
      </trkpt>
      <trkpt lat="45.8917850" lon="5.6705870">
        <ele>412.1</ele>
        <time>2022-07-26T09:49:53Z</time>
      </trkpt>
      <trkpt lat="45.8917810" lon="5.6705870">
        <ele>412.1</ele>
        <time>2022-07-26T09:49:54Z</time>
      </trkpt>
      <trkpt lat="45.8917770" lon="5.6705890">
        <ele>412.1</ele>
        <time>2022-07-26T09:49:55Z</time>
      </trkpt>
      <trkpt lat="45.8917750" lon="5.6705880">
        <ele>412.1</ele>
        <time>2022-07-26T09:49:56Z</time>
      </trkpt>
      <trkpt lat="45.8917740" lon="5.6705870">
        <ele>412.1</ele>
        <time>2022-07-26T09:49:57Z</time>
      </trkpt>
      <trkpt lat="45.8917740" lon="5.6705840">
        <ele>412.1</ele>
        <time>2022-07-26T09:49:58Z</time>
      </trkpt>
      <trkpt lat="45.8917730" lon="5.6705850">
        <ele>412.1</ele>
        <time>2022-07-26T09:49:59Z</time>
      </trkpt>
      <trkpt lat="45.8917710" lon="5.6705840">
        <ele>412.1</ele>
        <time>2022-07-26T09:50:00Z</time>
      </trkpt>
      <trkpt lat="45.8917700" lon="5.6705830">
        <ele>412.1</ele>
        <time>2022-07-26T09:50:01Z</time>
      </trkpt>
      <trkpt lat="45.8917700" lon="5.6705810">
        <ele>412.1</ele>
        <time>2022-07-26T09:50:02Z</time>
      </trkpt>
      <trkpt lat="45.8917710" lon="5.6705780">
        <ele>412.1</ele>
        <time>2022-07-26T09:50:03Z</time>
      </trkpt>
      <trkpt lat="45.8917750" lon="5.6705770">
        <ele>412.1</ele>
        <time>2022-07-26T09:50:04Z</time>
      </trkpt>
      <trkpt lat="45.8917810" lon="5.6705850">
        <ele>412.2</ele>
        <time>2022-07-26T09:50:05Z</time>
      </trkpt>
      <trkpt lat="45.8917850" lon="5.6705900">
        <ele>412.2</ele>
        <time>2022-07-26T09:50:06Z</time>
      </trkpt>
      <trkpt lat="45.8917880" lon="5.6705920">
        <ele>412.2</ele>
        <time>2022-07-26T09:50:07Z</time>
      </trkpt>
      <trkpt lat="45.8917900" lon="5.6705920">
        <ele>412.2</ele>
        <time>2022-07-26T09:50:08Z</time>
      </trkpt>
      <trkpt lat="45.8917920" lon="5.6705920">
        <ele>412.2</ele>
        <time>2022-07-26T09:50:09Z</time>
      </trkpt>
      <trkpt lat="45.8917930" lon="5.6705910">
        <ele>412.2</ele>
        <time>2022-07-26T09:50:10Z</time>
      </trkpt>
      <trkpt lat="45.8917920" lon="5.6705890">
        <ele>412.2</ele>
        <time>2022-07-26T09:50:11Z</time>
      </trkpt>
      <trkpt lat="45.8917920" lon="5.6705880">
        <ele>412.2</ele>
        <time>2022-07-26T09:50:12Z</time>
      </trkpt>
      <trkpt lat="45.8917910" lon="5.6705880">
        <ele>412.2</ele>
        <time>2022-07-26T09:50:13Z</time>
      </trkpt>
      <trkpt lat="45.8917920" lon="5.6705880">
        <ele>412.2</ele>
        <time>2022-07-26T09:50:14Z</time>
      </trkpt>
      <trkpt lat="45.8917920" lon="5.6705900">
        <ele>412.2</ele>
        <time>2022-07-26T09:50:15Z</time>
      </trkpt>
      <trkpt lat="45.8917890" lon="5.6706260">
        <ele>412.3</ele>
        <time>2022-07-26T09:50:29Z</time>
      </trkpt>
      <trkpt lat="45.8917920" lon="5.6706310">
        <ele>412.3</ele>
        <time>2022-07-26T09:50:30Z</time>
      </trkpt>
      <trkpt lat="45.8918020" lon="5.6706360">
        <ele>412.3</ele>
        <time>2022-07-26T09:50:31Z</time>
      </trkpt>
      <trkpt lat="45.8918150" lon="5.6706490">
        <ele>412.4</ele>
        <time>2022-07-26T09:50:33Z</time>
      </trkpt>
      <trkpt lat="45.8918230" lon="5.6706620">
        <ele>412.4</ele>
        <time>2022-07-26T09:50:34Z</time>
      </trkpt>
      <trkpt lat="45.8918290" lon="5.6706690">
        <ele>412.4</ele>
        <time>2022-07-26T09:50:35Z</time>
      </trkpt>
      <trkpt lat="45.8918360" lon="5.6706750">
        <ele>412.4</ele>
        <time>2022-07-26T09:50:36Z</time>
      </trkpt>
      <trkpt lat="45.8918430" lon="5.6706760">
        <ele>412.6</ele>
        <time>2022-07-26T09:50:37Z</time>
      </trkpt>
      <trkpt lat="45.8918480" lon="5.6706720">
        <ele>412.7</ele>
        <time>2022-07-26T09:50:38Z</time>
      </trkpt>
      <trkpt lat="45.8918510" lon="5.6706700">
        <ele>412.7</ele>
        <time>2022-07-26T09:50:39Z</time>
      </trkpt>
      <trkpt lat="45.8918570" lon="5.6706680">
        <ele>412.8</ele>
        <time>2022-07-26T09:50:40Z</time>
      </trkpt>
      <trkpt lat="45.8918630" lon="5.6706670">
        <ele>412.9</ele>
        <time>2022-07-26T09:50:41Z</time>
      </trkpt>
      <trkpt lat="45.8918680" lon="5.6706690">
        <ele>413.0</ele>
        <time>2022-07-26T09:50:42Z</time>
      </trkpt>
      <trkpt lat="45.8918720" lon="5.6706690">
        <ele>413.1</ele>
        <time>2022-07-26T09:50:43Z</time>
      </trkpt>
      <trkpt lat="45.8918780" lon="5.6706690">
        <ele>413.1</ele>
        <time>2022-07-26T09:50:44Z</time>
      </trkpt>
      <trkpt lat="45.8918860" lon="5.6706680">
        <ele>413.3</ele>
        <time>2022-07-26T09:50:45Z</time>
      </trkpt>
      <trkpt lat="45.8918900" lon="5.6706700">
        <ele>413.3</ele>
        <time>2022-07-26T09:50:47Z</time>
      </trkpt>
      <trkpt lat="45.8918940" lon="5.6706740">
        <ele>413.4</ele>
        <time>2022-07-26T09:50:48Z</time>
      </trkpt>
      <trkpt lat="45.8918940" lon="5.6706760">
        <ele>413.4</ele>
        <time>2022-07-26T09:50:49Z</time>
      </trkpt>
      <trkpt lat="45.8918950" lon="5.6706780">
        <ele>413.4</ele>
        <time>2022-07-26T09:50:50Z</time>
      </trkpt>
      <trkpt lat="45.8918960" lon="5.6706800">
        <ele>413.5</ele>
        <time>2022-07-26T09:50:51Z</time>
      </trkpt>
      <trkpt lat="45.8918970" lon="5.6706820">
        <ele>413.5</ele>
        <time>2022-07-26T09:50:52Z</time>
      </trkpt>
      <trkpt lat="45.8918980" lon="5.6706850">
        <ele>413.5</ele>
        <time>2022-07-26T09:50:53Z</time>
      </trkpt>
      <trkpt lat="45.8919040" lon="5.6706900">
        <ele>413.6</ele>
        <time>2022-07-26T09:50:54Z</time>
      </trkpt>
      <trkpt lat="45.8919070" lon="5.6706930">
        <ele>413.7</ele>
        <time>2022-07-26T09:50:55Z</time>
      </trkpt>
      <trkpt lat="45.8919050" lon="5.6706920">
        <ele>413.7</ele>
        <time>2022-07-26T09:50:56Z</time>
      </trkpt>
      <trkpt lat="45.8919040" lon="5.6706920">
        <ele>413.7</ele>
        <time>2022-07-26T09:50:57Z</time>
      </trkpt>
      <trkpt lat="45.8919030" lon="5.6706920">
        <ele>413.7</ele>
        <time>2022-07-26T09:50:58Z</time>
      </trkpt>
      <trkpt lat="45.8919020" lon="5.6706920">
        <ele>413.8</ele>
        <time>2022-07-26T09:50:59Z</time>
      </trkpt>
      <trkpt lat="45.8919020" lon="5.6706930">
        <ele>413.8</ele>
        <time>2022-07-26T09:51:00Z</time>
      </trkpt>
      <trkpt lat="45.8919010" lon="5.6706940">
        <ele>413.8</ele>
        <time>2022-07-26T09:51:01Z</time>
      </trkpt>
      <trkpt lat="45.8919010" lon="5.6706990">
        <ele>413.8</ele>
        <time>2022-07-26T09:51:02Z</time>
      </trkpt>
      <trkpt lat="45.8919030" lon="5.6707040">
        <ele>413.9</ele>
        <time>2022-07-26T09:51:03Z</time>
      </trkpt>
      <trkpt lat="45.8919050" lon="5.6707080">
        <ele>413.9</ele>
        <time>2022-07-26T09:51:04Z</time>
      </trkpt>
      <trkpt lat="45.8919170" lon="5.6706710">
        <ele>414.3</ele>
        <time>2022-07-26T09:52:03Z</time>
      </trkpt>
      <trkpt lat="45.8919170" lon="5.6706600">
        <ele>414.4</ele>
        <time>2022-07-26T09:52:04Z</time>
      </trkpt>
      <trkpt lat="45.8919150" lon="5.6706610">
        <ele>414.5</ele>
        <time>2022-07-26T09:52:05Z</time>
      </trkpt>
      <trkpt lat="45.8919140" lon="5.6706640">
        <ele>414.5</ele>
        <time>2022-07-26T09:52:06Z</time>
      </trkpt>
      <trkpt lat="45.8919150" lon="5.6706560">
        <ele>414.6</ele>
        <time>2022-07-26T09:52:08Z</time>
      </trkpt>
      <trkpt lat="45.8919150" lon="5.6706520">
        <ele>414.6</ele>
        <time>2022-07-26T09:52:09Z</time>
      </trkpt>
      <trkpt lat="45.8919150" lon="5.6706500">
        <ele>414.6</ele>
        <time>2022-07-26T09:52:10Z</time>
      </trkpt>
      <trkpt lat="45.8919150" lon="5.6706480">
        <ele>414.6</ele>
        <time>2022-07-26T09:52:11Z</time>
      </trkpt>
      <trkpt lat="45.8919140" lon="5.6706470">
        <ele>414.6</ele>
        <time>2022-07-26T09:52:12Z</time>
      </trkpt>
      <trkpt lat="45.8919140" lon="5.6706460">
        <ele>414.6</ele>
        <time>2022-07-26T09:52:13Z</time>
      </trkpt>
      <trkpt lat="45.8919140" lon="5.6706460">
        <ele>414.6</ele>
        <time>2022-07-26T09:52:14Z</time>
      </trkpt>
      <trkpt lat="45.8919140" lon="5.6706460">
        <ele>414.6</ele>
        <time>2022-07-26T09:52:15Z</time>
      </trkpt>
      <trkpt lat="45.8919660" lon="5.6706440">
        <ele>415.2</ele>
        <time>2022-07-26T09:52:29Z</time>
      </trkpt>
      <trkpt lat="45.8919730" lon="5.6706460">
        <ele>415.3</ele>
        <time>2022-07-26T09:52:30Z</time>
      </trkpt>
      <trkpt lat="45.8919750" lon="5.6706470">
        <ele>415.3</ele>
        <time>2022-07-26T09:52:31Z</time>
      </trkpt>
      <trkpt lat="45.8919750" lon="5.6706470">
        <ele>415.3</ele>
        <time>2022-07-26T09:52:32Z</time>
      </trkpt>
      <trkpt lat="45.8919750" lon="5.6706470">
        <ele>415.3</ele>
        <time>2022-07-26T09:52:33Z</time>
      </trkpt>
      <trkpt lat="45.8919760" lon="5.6706480">
        <ele>415.3</ele>
        <time>2022-07-26T09:52:34Z</time>
      </trkpt>
      <trkpt lat="45.8919770" lon="5.6706420">
        <ele>415.4</ele>
        <time>2022-07-26T09:52:35Z</time>
      </trkpt>
      <trkpt lat="45.8919770" lon="5.6706350">
        <ele>415.4</ele>
        <time>2022-07-26T09:52:36Z</time>
      </trkpt>
      <trkpt lat="45.8919760" lon="5.6706300">
        <ele>415.4</ele>
        <time>2022-07-26T09:52:37Z</time>
      </trkpt>
      <trkpt lat="45.8919760" lon="5.6706230">
        <ele>415.5</ele>
        <time>2022-07-26T09:52:38Z</time>
      </trkpt>
      <trkpt lat="45.8919790" lon="5.6706160">
        <ele>415.5</ele>
        <time>2022-07-26T09:52:39Z</time>
      </trkpt>
      <trkpt lat="45.8919850" lon="5.6706110">
        <ele>415.6</ele>
        <time>2022-07-26T09:52:40Z</time>
      </trkpt>
      <trkpt lat="45.8919910" lon="5.6706070">
        <ele>415.7</ele>
        <time>2022-07-26T09:52:41Z</time>
      </trkpt>
      <trkpt lat="45.8919980" lon="5.6706030">
        <ele>415.7</ele>
        <time>2022-07-26T09:52:42Z</time>
      </trkpt>
      <trkpt lat="45.8919980" lon="5.6706040">
        <ele>415.7</ele>
        <time>2022-07-26T09:52:43Z</time>
      </trkpt>
      <trkpt lat="45.8920000" lon="5.6706050">
        <ele>415.8</ele>
        <time>2022-07-26T09:52:44Z</time>
      </trkpt>
      <trkpt lat="45.8920100" lon="5.6706020">
        <ele>415.8</ele>
        <time>2022-07-26T09:52:45Z</time>
      </trkpt>
      <trkpt lat="45.8920160" lon="5.6706000">
        <ele>415.9</ele>
        <time>2022-07-26T09:52:46Z</time>
      </trkpt>
      <trkpt lat="45.8920210" lon="5.6705960">
        <ele>416.0</ele>
        <time>2022-07-26T09:52:47Z</time>
      </trkpt>
      <trkpt lat="45.8920260" lon="5.6705950">
        <ele>416.0</ele>
        <time>2022-07-26T09:52:48Z</time>
      </trkpt>
      <trkpt lat="45.8920370" lon="5.6705930">
        <ele>416.1</ele>
        <time>2022-07-26T09:52:50Z</time>
      </trkpt>
      <trkpt lat="45.8920440" lon="5.6705910">
        <ele>416.2</ele>
        <time>2022-07-26T09:52:51Z</time>
      </trkpt>
      <trkpt lat="45.8920510" lon="5.6705870">
        <ele>416.2</ele>
        <time>2022-07-26T09:52:52Z</time>
      </trkpt>
      <trkpt lat="45.8920580" lon="5.6705830">
        <ele>416.3</ele>
        <time>2022-07-26T09:52:53Z</time>
      </trkpt>
      <trkpt lat="45.8920730" lon="5.6705690">
        <ele>416.5</ele>
        <time>2022-07-26T09:52:54Z</time>
      </trkpt>
      <trkpt lat="45.8920800" lon="5.6705650">
        <ele>416.6</ele>
        <time>2022-07-26T09:52:56Z</time>
      </trkpt>
      <trkpt lat="45.8920890" lon="5.6705650">
        <ele>416.7</ele>
        <time>2022-07-26T09:52:57Z</time>
      </trkpt>
      <trkpt lat="45.8920960" lon="5.6705660">
        <ele>416.7</ele>
        <time>2022-07-26T09:52:58Z</time>
      </trkpt>
      <trkpt lat="45.8921020" lon="5.6705680">
        <ele>416.8</ele>
        <time>2022-07-26T09:52:59Z</time>
      </trkpt>
      <trkpt lat="45.8921070" lon="5.6705710">
        <ele>416.8</ele>
        <time>2022-07-26T09:53:00Z</time>
      </trkpt>
      <trkpt lat="45.8921110" lon="5.6705730">
        <ele>416.9</ele>
        <time>2022-07-26T09:53:01Z</time>
      </trkpt>
      <trkpt lat="45.8921160" lon="5.6705740">
        <ele>417.3</ele>
        <time>2022-07-26T09:53:02Z</time>
      </trkpt>
      <trkpt lat="45.8921200" lon="5.6705730">
        <ele>417.4</ele>
        <time>2022-07-26T09:53:03Z</time>
      </trkpt>
      <trkpt lat="45.8921190" lon="5.6705710">
        <ele>417.4</ele>
        <time>2022-07-26T09:53:04Z</time>
      </trkpt>
      <trkpt lat="45.8921190" lon="5.6705700">
        <ele>417.4</ele>
        <time>2022-07-26T09:53:05Z</time>
      </trkpt>
      <trkpt lat="45.8921210" lon="5.6705680">
        <ele>417.5</ele>
        <time>2022-07-26T09:53:06Z</time>
      </trkpt>
      <trkpt lat="45.8921230" lon="5.6705660">
        <ele>417.5</ele>
        <time>2022-07-26T09:53:07Z</time>
      </trkpt>
      <trkpt lat="45.8921270" lon="5.6705640">
        <ele>417.6</ele>
        <time>2022-07-26T09:53:08Z</time>
      </trkpt>
      <trkpt lat="45.8921280" lon="5.6705640">
        <ele>417.7</ele>
        <time>2022-07-26T09:53:09Z</time>
      </trkpt>
      <trkpt lat="45.8921310" lon="5.6705660">
        <ele>417.7</ele>
        <time>2022-07-26T09:53:10Z</time>
      </trkpt>
      <trkpt lat="45.8921340" lon="5.6705700">
        <ele>417.8</ele>
        <time>2022-07-26T09:53:11Z</time>
      </trkpt>
      <trkpt lat="45.8921350" lon="5.6705710">
        <ele>417.9</ele>
        <time>2022-07-26T09:53:12Z</time>
      </trkpt>
      <trkpt lat="45.8921370" lon="5.6705700">
        <ele>417.9</ele>
        <time>2022-07-26T09:53:13Z</time>
      </trkpt>
      <trkpt lat="45.8921380" lon="5.6705710">
        <ele>417.9</ele>
        <time>2022-07-26T09:53:14Z</time>
      </trkpt>
      <trkpt lat="45.8921390" lon="5.6705710">
        <ele>418.0</ele>
        <time>2022-07-26T09:53:15Z</time>
      </trkpt>
      <trkpt lat="45.8921400" lon="5.6705730">
        <ele>418.0</ele>
        <time>2022-07-26T09:53:16Z</time>
      </trkpt>
      <trkpt lat="45.8921410" lon="5.6705740">
        <ele>418.0</ele>
        <time>2022-07-26T09:53:17Z</time>
      </trkpt>
      <trkpt lat="45.8921420" lon="5.6705780">
        <ele>418.1</ele>
        <time>2022-07-26T09:53:18Z</time>
      </trkpt>
      <trkpt lat="45.8921430" lon="5.6705780">
        <ele>418.1</ele>
        <time>2022-07-26T09:53:19Z</time>
      </trkpt>
      <trkpt lat="45.8921430" lon="5.6705780">
        <ele>418.1</ele>
        <time>2022-07-26T09:53:20Z</time>
      </trkpt>
      <trkpt lat="45.8921440" lon="5.6705790">
        <ele>418.1</ele>
        <time>2022-07-26T09:53:21Z</time>
      </trkpt>
      <trkpt lat="45.8921470" lon="5.6705770">
        <ele>418.2</ele>
        <time>2022-07-26T09:53:22Z</time>
      </trkpt>
      <trkpt lat="45.8921500" lon="5.6705750">
        <ele>418.3</ele>
        <time>2022-07-26T09:53:23Z</time>
      </trkpt>
      <trkpt lat="45.8921530" lon="5.6705730">
        <ele>418.4</ele>
        <time>2022-07-26T09:53:24Z</time>
      </trkpt>
      <trkpt lat="45.8921540" lon="5.6705700">
        <ele>418.4</ele>
        <time>2022-07-26T09:53:25Z</time>
      </trkpt>
      <trkpt lat="45.8921540" lon="5.6705700">
        <ele>418.4</ele>
        <time>2022-07-26T09:53:26Z</time>
      </trkpt>
      <trkpt lat="45.8921520" lon="5.6705710">
        <ele>418.5</ele>
        <time>2022-07-26T09:53:27Z</time>
      </trkpt>
      <trkpt lat="45.8921990" lon="5.6706360">
        <ele>420.1</ele>
        <time>2022-07-26T09:54:03Z</time>
      </trkpt>
      <trkpt lat="45.8922010" lon="5.6706360">
        <ele>420.1</ele>
        <time>2022-07-26T09:54:04Z</time>
      </trkpt>
      <trkpt lat="45.8922010" lon="5.6706350">
        <ele>420.1</ele>
        <time>2022-07-26T09:54:05Z</time>
      </trkpt>
      <trkpt lat="45.8922010" lon="5.6706350">
        <ele>420.1</ele>
        <time>2022-07-26T09:54:06Z</time>
      </trkpt>
      <trkpt lat="45.8922020" lon="5.6706350">
        <ele>420.2</ele>
        <time>2022-07-26T09:54:07Z</time>
      </trkpt>
      <trkpt lat="45.8922040" lon="5.6706340">
        <ele>420.2</ele>
        <time>2022-07-26T09:54:08Z</time>
      </trkpt>
      <trkpt lat="45.8922060" lon="5.6706240">
        <ele>420.4</ele>
        <time>2022-07-26T09:54:09Z</time>
      </trkpt>
      <trkpt lat="45.8922030" lon="5.6706170">
        <ele>420.5</ele>
        <time>2022-07-26T09:54:10Z</time>
      </trkpt>
      <trkpt lat="45.8922000" lon="5.6706170">
        <ele>420.6</ele>
        <time>2022-07-26T09:54:11Z</time>
      </trkpt>
      <trkpt lat="45.8921970" lon="5.6706160">
        <ele>420.6</ele>
        <time>2022-07-26T09:54:12Z</time>
      </trkpt>
      <trkpt lat="45.8921990" lon="5.6706130">
        <ele>420.7</ele>
        <time>2022-07-26T09:54:13Z</time>
      </trkpt>
      <trkpt lat="45.8921980" lon="5.6706120">
        <ele>420.7</ele>
        <time>2022-07-26T09:54:14Z</time>
      </trkpt>
      <trkpt lat="45.8921970" lon="5.6706120">
        <ele>420.8</ele>
        <time>2022-07-26T09:54:15Z</time>
      </trkpt>
      <trkpt lat="45.8921990" lon="5.6706150">
        <ele>420.8</ele>
        <time>2022-07-26T09:54:16Z</time>
      </trkpt>
      <trkpt lat="45.8922010" lon="5.6706180">
        <ele>420.9</ele>
        <time>2022-07-26T09:54:17Z</time>
      </trkpt>
      <trkpt lat="45.8922020" lon="5.6706190">
        <ele>421.0</ele>
        <time>2022-07-26T09:54:18Z</time>
      </trkpt>
      <trkpt lat="45.8922030" lon="5.6706200">
        <ele>421.1</ele>
        <time>2022-07-26T09:54:19Z</time>
      </trkpt>
      <trkpt lat="45.8922080" lon="5.6706190">
        <ele>421.2</ele>
        <time>2022-07-26T09:54:20Z</time>
      </trkpt>
      <trkpt lat="45.8922180" lon="5.6706170">
        <ele>421.4</ele>
        <time>2022-07-26T09:54:21Z</time>
      </trkpt>
      <trkpt lat="45.8922100" lon="5.6706200">
        <ele>421.6</ele>
        <time>2022-07-26T09:54:22Z</time>
      </trkpt>
      <trkpt lat="45.8922080" lon="5.6706200">
        <ele>421.6</ele>
        <time>2022-07-26T09:54:23Z</time>
      </trkpt>
      <trkpt lat="45.8922080" lon="5.6706200">
        <ele>421.6</ele>
        <time>2022-07-26T09:54:24Z</time>
      </trkpt>
      <trkpt lat="45.8922090" lon="5.6706200">
        <ele>421.7</ele>
        <time>2022-07-26T09:54:25Z</time>
      </trkpt>
      <trkpt lat="45.8922110" lon="5.6706210">
        <ele>421.7</ele>
        <time>2022-07-26T09:54:26Z</time>
      </trkpt>
      <trkpt lat="45.8922130" lon="5.6706220">
        <ele>421.8</ele>
        <time>2022-07-26T09:54:27Z</time>
      </trkpt>
      <trkpt lat="45.8922170" lon="5.6706240">
        <ele>421.9</ele>
        <time>2022-07-26T09:54:28Z</time>
      </trkpt>
      <trkpt lat="45.8922200" lon="5.6706250">
        <ele>421.9</ele>
        <time>2022-07-26T09:54:29Z</time>
      </trkpt>
      <trkpt lat="45.8922260" lon="5.6706280">
        <ele>422.2</ele>
        <time>2022-07-26T09:54:30Z</time>
      </trkpt>
      <trkpt lat="45.8922330" lon="5.6706330">
        <ele>422.4</ele>
        <time>2022-07-26T09:54:32Z</time>
      </trkpt>
      <trkpt lat="45.8922410" lon="5.6706370">
        <ele>422.5</ele>
        <time>2022-07-26T09:54:33Z</time>
      </trkpt>
      <trkpt lat="45.8922470" lon="5.6706390">
        <ele>422.7</ele>
        <time>2022-07-26T09:54:34Z</time>
      </trkpt>
      <trkpt lat="45.8922530" lon="5.6706440">
        <ele>422.9</ele>
        <time>2022-07-26T09:54:35Z</time>
      </trkpt>
      <trkpt lat="45.8922580" lon="5.6706520">
        <ele>423.1</ele>
        <time>2022-07-26T09:54:36Z</time>
      </trkpt>
      <trkpt lat="45.8922630" lon="5.6706610">
        <ele>423.3</ele>
        <time>2022-07-26T09:54:37Z</time>
      </trkpt>
      <trkpt lat="45.8922680" lon="5.6706740">
        <ele>423.6</ele>
        <time>2022-07-26T09:54:38Z</time>
      </trkpt>
      <trkpt lat="45.8922690" lon="5.6706770">
        <ele>423.6</ele>
        <time>2022-07-26T09:54:39Z</time>
      </trkpt>
      <trkpt lat="45.8922710" lon="5.6706810">
        <ele>423.7</ele>
        <time>2022-07-26T09:54:40Z</time>
      </trkpt>
      <trkpt lat="45.8922740" lon="5.6706920">
        <ele>424.0</ele>
        <time>2022-07-26T09:54:41Z</time>
      </trkpt>
      <trkpt lat="45.8922760" lon="5.6707010">
        <ele>424.2</ele>
        <time>2022-07-26T09:54:42Z</time>
      </trkpt>
      <trkpt lat="45.8922760" lon="5.6707070">
        <ele>424.3</ele>
        <time>2022-07-26T09:54:43Z</time>
      </trkpt>
      <trkpt lat="45.8922770" lon="5.6707110">
        <ele>424.4</ele>
        <time>2022-07-26T09:54:44Z</time>
      </trkpt>
      <trkpt lat="45.8922760" lon="5.6707130">
        <ele>424.4</ele>
        <time>2022-07-26T09:54:45Z</time>
      </trkpt>
      <trkpt lat="45.8922760" lon="5.6707160">
        <ele>424.5</ele>
        <time>2022-07-26T09:54:46Z</time>
      </trkpt>
      <trkpt lat="45.8922750" lon="5.6707210">
        <ele>424.6</ele>
        <time>2022-07-26T09:54:47Z</time>
      </trkpt>
      <trkpt lat="45.8922740" lon="5.6707270">
        <ele>424.7</ele>
        <time>2022-07-26T09:54:48Z</time>
      </trkpt>
      <trkpt lat="45.8922740" lon="5.6707290">
        <ele>424.8</ele>
        <time>2022-07-26T09:54:49Z</time>
      </trkpt>
      <trkpt lat="45.8922760" lon="5.6707310">
        <ele>424.9</ele>
        <time>2022-07-26T09:54:50Z</time>
      </trkpt>
      <trkpt lat="45.8922780" lon="5.6707340">
        <ele>424.9</ele>
        <time>2022-07-26T09:54:51Z</time>
      </trkpt>
      <trkpt lat="45.8922800" lon="5.6707360">
        <ele>425.0</ele>
        <time>2022-07-26T09:54:52Z</time>
      </trkpt>
      <trkpt lat="45.8922840" lon="5.6707410">
        <ele>425.1</ele>
        <time>2022-07-26T09:54:53Z</time>
      </trkpt>
      <trkpt lat="45.8922850" lon="5.6707430">
        <ele>425.3</ele>
        <time>2022-07-26T09:54:54Z</time>
      </trkpt>
      <trkpt lat="45.8922860" lon="5.6707450">
        <ele>425.3</ele>
        <time>2022-07-26T09:54:55Z</time>
      </trkpt>
      <trkpt lat="45.8922860" lon="5.6707480">
        <ele>425.4</ele>
        <time>2022-07-26T09:54:56Z</time>
      </trkpt>
      <trkpt lat="45.8922860" lon="5.6707530">
        <ele>425.5</ele>
        <time>2022-07-26T09:54:57Z</time>
      </trkpt>
      <trkpt lat="45.8922880" lon="5.6707560">
        <ele>425.6</ele>
        <time>2022-07-26T09:54:58Z</time>
      </trkpt>
      <trkpt lat="45.8922890" lon="5.6707570">
        <ele>425.6</ele>
        <time>2022-07-26T09:54:59Z</time>
      </trkpt>
      <trkpt lat="45.8922910" lon="5.6707590">
        <ele>425.7</ele>
        <time>2022-07-26T09:55:00Z</time>
      </trkpt>
      <trkpt lat="45.8922920" lon="5.6707610">
        <ele>425.7</ele>
        <time>2022-07-26T09:55:01Z</time>
      </trkpt>
      <trkpt lat="45.8922950" lon="5.6707640">
        <ele>425.8</ele>
        <time>2022-07-26T09:55:02Z</time>
      </trkpt>
      <trkpt lat="45.8922960" lon="5.6707660">
        <ele>425.9</ele>
        <time>2022-07-26T09:55:03Z</time>
      </trkpt>
      <trkpt lat="45.8922980" lon="5.6707680">
        <ele>426.0</ele>
        <time>2022-07-26T09:55:04Z</time>
      </trkpt>
      <trkpt lat="45.8923010" lon="5.6707720">
        <ele>426.1</ele>
        <time>2022-07-26T09:55:06Z</time>
      </trkpt>
      <trkpt lat="45.8922970" lon="5.6708290">
        <ele>427.3</ele>
        <time>2022-07-26T09:55:29Z</time>
      </trkpt>
      <trkpt lat="45.8922950" lon="5.6708330">
        <ele>427.4</ele>
        <time>2022-07-26T09:55:30Z</time>
      </trkpt>
      <trkpt lat="45.8922930" lon="5.6708360">
        <ele>427.5</ele>
        <time>2022-07-26T09:55:31Z</time>
      </trkpt>
      <trkpt lat="45.8922900" lon="5.6708410">
        <ele>427.7</ele>
        <time>2022-07-26T09:55:32Z</time>
      </trkpt>
      <trkpt lat="45.8922870" lon="5.6708490">
        <ele>427.9</ele>
        <time>2022-07-26T09:55:33Z</time>
      </trkpt>
      <trkpt lat="45.8922850" lon="5.6708540">
        <ele>428.1</ele>
        <time>2022-07-26T09:55:34Z</time>
      </trkpt>
      <trkpt lat="45.8922850" lon="5.6708550">
        <ele>428.1</ele>
        <time>2022-07-26T09:55:35Z</time>
      </trkpt>
      <trkpt lat="45.8922850" lon="5.6708550">
        <ele>428.1</ele>
        <time>2022-07-26T09:55:36Z</time>
      </trkpt>
      <trkpt lat="45.8922810" lon="5.6708660">
        <ele>428.4</ele>
        <time>2022-07-26T09:55:37Z</time>
      </trkpt>
      <trkpt lat="45.8922770" lon="5.6708800">
        <ele>428.7</ele>
        <time>2022-07-26T09:55:38Z</time>
      </trkpt>
      <trkpt lat="45.8922730" lon="5.6708940">
        <ele>429.1</ele>
        <time>2022-07-26T09:55:39Z</time>
      </trkpt>
      <trkpt lat="45.8922720" lon="5.6709020">
        <ele>429.2</ele>
        <time>2022-07-26T09:55:40Z</time>
      </trkpt>
      <trkpt lat="45.8922720" lon="5.6709040">
        <ele>429.4</ele>
        <time>2022-07-26T09:55:41Z</time>
      </trkpt>
      <trkpt lat="45.8922740" lon="5.6709040">
        <ele>429.5</ele>
        <time>2022-07-26T09:55:42Z</time>
      </trkpt>
      <trkpt lat="45.8922760" lon="5.6709040">
        <ele>429.5</ele>
        <time>2022-07-26T09:55:43Z</time>
      </trkpt>
      <trkpt lat="45.8922770" lon="5.6709040">
        <ele>429.5</ele>
        <time>2022-07-26T09:55:44Z</time>
      </trkpt>
      <trkpt lat="45.8922770" lon="5.6709050">
        <ele>429.6</ele>
        <time>2022-07-26T09:55:45Z</time>
      </trkpt>
      <trkpt lat="45.8922770" lon="5.6709060">
        <ele>429.6</ele>
        <time>2022-07-26T09:55:46Z</time>
      </trkpt>
      <trkpt lat="45.8922770" lon="5.6709060">
        <ele>429.6</ele>
        <time>2022-07-26T09:55:47Z</time>
      </trkpt>
      <trkpt lat="45.8922760" lon="5.6709070">
        <ele>429.6</ele>
        <time>2022-07-26T09:55:48Z</time>
      </trkpt>
      <trkpt lat="45.8922730" lon="5.6709090">
        <ele>429.7</ele>
        <time>2022-07-26T09:55:49Z</time>
      </trkpt>
      <trkpt lat="45.8922700" lon="5.6709110">
        <ele>429.9</ele>
        <time>2022-07-26T09:55:50Z</time>
      </trkpt>
      <trkpt lat="45.8922660" lon="5.6709180">
        <ele>430.1</ele>
        <time>2022-07-26T09:55:51Z</time>
      </trkpt>
      <trkpt lat="45.8922620" lon="5.6709250">
        <ele>430.3</ele>
        <time>2022-07-26T09:55:52Z</time>
      </trkpt>
      <trkpt lat="45.8922580" lon="5.6709310">
        <ele>430.5</ele>
        <time>2022-07-26T09:55:53Z</time>
      </trkpt>
      <trkpt lat="45.8922530" lon="5.6709370">
        <ele>430.7</ele>
        <time>2022-07-26T09:55:54Z</time>
      </trkpt>
      <trkpt lat="45.8922480" lon="5.6709440">
        <ele>430.9</ele>
        <time>2022-07-26T09:55:55Z</time>
      </trkpt>
      <trkpt lat="45.8922440" lon="5.6709510">
        <ele>431.1</ele>
        <time>2022-07-26T09:55:56Z</time>
      </trkpt>
      <trkpt lat="45.8922420" lon="5.6709580">
        <ele>431.3</ele>
        <time>2022-07-26T09:55:57Z</time>
      </trkpt>
      <trkpt lat="45.8922410" lon="5.6709630">
        <ele>431.4</ele>
        <time>2022-07-26T09:55:58Z</time>
      </trkpt>
      <trkpt lat="45.8922400" lon="5.6709670">
        <ele>431.5</ele>
        <time>2022-07-26T09:55:59Z</time>
      </trkpt>
      <trkpt lat="45.8922410" lon="5.6709700">
        <ele>431.6</ele>
        <time>2022-07-26T09:56:00Z</time>
      </trkpt>
      <trkpt lat="45.8922410" lon="5.6709730">
        <ele>431.6</ele>
        <time>2022-07-26T09:56:01Z</time>
      </trkpt>
      <trkpt lat="45.8922410" lon="5.6709740">
        <ele>431.7</ele>
        <time>2022-07-26T09:56:02Z</time>
      </trkpt>
      <trkpt lat="45.8922420" lon="5.6709740">
        <ele>431.7</ele>
        <time>2022-07-26T09:56:03Z</time>
      </trkpt>
      <trkpt lat="45.8922430" lon="5.6709750">
        <ele>431.7</ele>
        <time>2022-07-26T09:56:04Z</time>
      </trkpt>
      <trkpt lat="45.8922430" lon="5.6709750">
        <ele>431.7</ele>
        <time>2022-07-26T09:56:05Z</time>
      </trkpt>
      <trkpt lat="45.8922420" lon="5.6709760">
        <ele>431.8</ele>
        <time>2022-07-26T09:56:06Z</time>
      </trkpt>
      <trkpt lat="45.8922410" lon="5.6709770">
        <ele>431.8</ele>
        <time>2022-07-26T09:56:07Z</time>
      </trkpt>
      <trkpt lat="45.8922400" lon="5.6709770">
        <ele>431.8</ele>
        <time>2022-07-26T09:56:08Z</time>
      </trkpt>
      <trkpt lat="45.8922400" lon="5.6709780">
        <ele>431.9</ele>
        <time>2022-07-26T09:56:09Z</time>
      </trkpt>
      <trkpt lat="45.8922400" lon="5.6710170">
        <ele>432.8</ele>
        <time>2022-07-26T09:56:33Z</time>
      </trkpt>
      <trkpt lat="45.8922410" lon="5.6710270">
        <ele>433.0</ele>
        <time>2022-07-26T09:56:34Z</time>
      </trkpt>
      <trkpt lat="45.8922400" lon="5.6710380">
        <ele>433.3</ele>
        <time>2022-07-26T09:56:35Z</time>
      </trkpt>
      <trkpt lat="45.8922400" lon="5.6710490">
        <ele>433.6</ele>
        <time>2022-07-26T09:56:36Z</time>
      </trkpt>
      <trkpt lat="45.8922390" lon="5.6710580">
        <ele>433.8</ele>
        <time>2022-07-26T09:56:37Z</time>
      </trkpt>
      <trkpt lat="45.8922390" lon="5.6710620">
        <ele>433.9</ele>
        <time>2022-07-26T09:56:38Z</time>
      </trkpt>
      <trkpt lat="45.8922420" lon="5.6710650">
        <ele>434.0</ele>
        <time>2022-07-26T09:56:39Z</time>
      </trkpt>
      <trkpt lat="45.8922410" lon="5.6710650">
        <ele>434.0</ele>
        <time>2022-07-26T09:56:40Z</time>
      </trkpt>
      <trkpt lat="45.8922390" lon="5.6710630">
        <ele>434.1</ele>
        <time>2022-07-26T09:56:41Z</time>
      </trkpt>
      <trkpt lat="45.8922370" lon="5.6710610">
        <ele>434.2</ele>
        <time>2022-07-26T09:56:42Z</time>
      </trkpt>
      <trkpt lat="45.8922350" lon="5.6710590">
        <ele>434.3</ele>
        <time>2022-07-26T09:56:43Z</time>
      </trkpt>
      <trkpt lat="45.8922350" lon="5.6710580">
        <ele>434.3</ele>
        <time>2022-07-26T09:56:44Z</time>
      </trkpt>
      <trkpt lat="45.8922360" lon="5.6710610">
        <ele>434.4</ele>
        <time>2022-07-26T09:56:45Z</time>
      </trkpt>
      <trkpt lat="45.8922380" lon="5.6710650">
        <ele>434.5</ele>
        <time>2022-07-26T09:56:46Z</time>
      </trkpt>
      <trkpt lat="45.8922390" lon="5.6710680">
        <ele>434.6</ele>
        <time>2022-07-26T09:56:47Z</time>
      </trkpt>
      <trkpt lat="45.8922390" lon="5.6710680">
        <ele>434.6</ele>
        <time>2022-07-26T09:56:48Z</time>
      </trkpt>
      <trkpt lat="45.8922340" lon="5.6711010">
        <ele>435.4</ele>
        <time>2022-07-26T09:57:15Z</time>
      </trkpt>
      <trkpt lat="45.8922310" lon="5.6711060">
        <ele>435.5</ele>
        <time>2022-07-26T09:57:16Z</time>
      </trkpt>
      <trkpt lat="45.8922310" lon="5.6711120">
        <ele>435.7</ele>
        <time>2022-07-26T09:57:17Z</time>
      </trkpt>
      <trkpt lat="45.8922320" lon="5.6711200">
        <ele>435.9</ele>
        <time>2022-07-26T09:57:18Z</time>
      </trkpt>
      <trkpt lat="45.8922340" lon="5.6711260">
        <ele>436.0</ele>
        <time>2022-07-26T09:57:19Z</time>
      </trkpt>
      <trkpt lat="45.8922350" lon="5.6711280">
        <ele>436.1</ele>
        <time>2022-07-26T09:57:20Z</time>
      </trkpt>
      <trkpt lat="45.8922360" lon="5.6711360">
        <ele>436.3</ele>
        <time>2022-07-26T09:57:21Z</time>
      </trkpt>
      <trkpt lat="45.8922380" lon="5.6711450">
        <ele>436.5</ele>
        <time>2022-07-26T09:57:22Z</time>
      </trkpt>
      <trkpt lat="45.8922380" lon="5.6711520">
        <ele>436.7</ele>
        <time>2022-07-26T09:57:23Z</time>
      </trkpt>
      <trkpt lat="45.8922390" lon="5.6711600">
        <ele>436.9</ele>
        <time>2022-07-26T09:57:24Z</time>
      </trkpt>
      <trkpt lat="45.8922420" lon="5.6711650">
        <ele>437.0</ele>
        <time>2022-07-26T09:57:25Z</time>
      </trkpt>
      <trkpt lat="45.8922450" lon="5.6711690">
        <ele>437.1</ele>
        <time>2022-07-26T09:57:26Z</time>
      </trkpt>
      <trkpt lat="45.8922460" lon="5.6711720">
        <ele>437.2</ele>
        <time>2022-07-26T09:57:27Z</time>
      </trkpt>
      <trkpt lat="45.8922440" lon="5.6711750">
        <ele>437.3</ele>
        <time>2022-07-26T09:57:28Z</time>
      </trkpt>
      <trkpt lat="45.8922420" lon="5.6711790">
        <ele>437.4</ele>
        <time>2022-07-26T09:57:29Z</time>
      </trkpt>
      <trkpt lat="45.8922410" lon="5.6711830">
        <ele>437.5</ele>
        <time>2022-07-26T09:57:30Z</time>
      </trkpt>
      <trkpt lat="45.8922380" lon="5.6711880">
        <ele>437.7</ele>
        <time>2022-07-26T09:57:31Z</time>
      </trkpt>
      <trkpt lat="45.8922350" lon="5.6711930">
        <ele>437.9</ele>
        <time>2022-07-26T09:57:32Z</time>
      </trkpt>
      <trkpt lat="45.8922320" lon="5.6711980">
        <ele>438.0</ele>
        <time>2022-07-26T09:57:33Z</time>
      </trkpt>
      <trkpt lat="45.8922280" lon="5.6712000">
        <ele>438.2</ele>
        <time>2022-07-26T09:57:34Z</time>
      </trkpt>
      <trkpt lat="45.8922260" lon="5.6712020">
        <ele>438.2</ele>
        <time>2022-07-26T09:57:35Z</time>
      </trkpt>
      <trkpt lat="45.8922260" lon="5.6712040">
        <ele>438.3</ele>
        <time>2022-07-26T09:57:36Z</time>
      </trkpt>
      <trkpt lat="45.8922260" lon="5.6712060">
        <ele>438.3</ele>
        <time>2022-07-26T09:57:37Z</time>
      </trkpt>
      <trkpt lat="45.8922260" lon="5.6712060">
        <ele>438.3</ele>
        <time>2022-07-26T09:57:38Z</time>
      </trkpt>
      <trkpt lat="45.8922250" lon="5.6712060">
        <ele>438.4</ele>
        <time>2022-07-26T09:57:39Z</time>
      </trkpt>
      <trkpt lat="45.8922260" lon="5.6712050">
        <ele>438.4</ele>
        <time>2022-07-26T09:57:40Z</time>
      </trkpt>
      <trkpt lat="45.8922260" lon="5.6712040">
        <ele>438.4</ele>
        <time>2022-07-26T09:57:41Z</time>
      </trkpt>
      <trkpt lat="45.8922270" lon="5.6712040">
        <ele>438.5</ele>
        <time>2022-07-26T09:57:42Z</time>
      </trkpt>
      <trkpt lat="45.8922270" lon="5.6712030">
        <ele>438.5</ele>
        <time>2022-07-26T09:57:43Z</time>
      </trkpt>
      <trkpt lat="45.8922270" lon="5.6712030">
        <ele>438.5</ele>
        <time>2022-07-26T09:57:44Z</time>
      </trkpt>
      <trkpt lat="45.8922270" lon="5.6712020">
        <ele>438.5</ele>
        <time>2022-07-26T09:57:45Z</time>
      </trkpt>
      <trkpt lat="45.8922390" lon="5.6712330">
        <ele>439.3</ele>
        <time>2022-07-26T09:59:10Z</time>
      </trkpt>
      <trkpt lat="45.8922450" lon="5.6712460">
        <ele>439.7</ele>
        <time>2022-07-26T09:59:11Z</time>
      </trkpt>
      <trkpt lat="45.8922450" lon="5.6712590">
        <ele>440.0</ele>
        <time>2022-07-26T09:59:12Z</time>
      </trkpt>
      <trkpt lat="45.8922390" lon="5.6712680">
        <ele>440.3</ele>
        <time>2022-07-26T09:59:13Z</time>
      </trkpt>
      <trkpt lat="45.8922310" lon="5.6712730">
        <ele>440.6</ele>
        <time>2022-07-26T09:59:14Z</time>
      </trkpt>
      <trkpt lat="45.8922270" lon="5.6712790">
        <ele>440.8</ele>
        <time>2022-07-26T09:59:15Z</time>
      </trkpt>
      <trkpt lat="45.8922250" lon="5.6712880">
        <ele>441.0</ele>
        <time>2022-07-26T09:59:16Z</time>
      </trkpt>
      <trkpt lat="45.8922210" lon="5.6712960">
        <ele>441.2</ele>
        <time>2022-07-26T09:59:17Z</time>
      </trkpt>
      <trkpt lat="45.8922160" lon="5.6713050">
        <ele>441.4</ele>
        <time>2022-07-26T09:59:18Z</time>
      </trkpt>
      <trkpt lat="45.8922120" lon="5.6713150">
        <ele>441.7</ele>
        <time>2022-07-26T09:59:19Z</time>
      </trkpt>
      <trkpt lat="45.8922080" lon="5.6713270">
        <ele>442.0</ele>
        <time>2022-07-26T09:59:20Z</time>
      </trkpt>
      <trkpt lat="45.8922120" lon="5.6713400">
        <ele>442.3</ele>
        <time>2022-07-26T09:59:21Z</time>
      </trkpt>
      <trkpt lat="45.8922160" lon="5.6713510">
        <ele>442.5</ele>
        <time>2022-07-26T09:59:22Z</time>
      </trkpt>
      <trkpt lat="45.8922180" lon="5.6713700">
        <ele>442.9</ele>
        <time>2022-07-26T09:59:23Z</time>
      </trkpt>
      <trkpt lat="45.8922160" lon="5.6713810">
        <ele>443.1</ele>
        <time>2022-07-26T09:59:24Z</time>
      </trkpt>
      <trkpt lat="45.8922140" lon="5.6713920">
        <ele>443.4</ele>
        <time>2022-07-26T09:59:25Z</time>
      </trkpt>
      <trkpt lat="45.8922130" lon="5.6714040">
        <ele>443.6</ele>
        <time>2022-07-26T09:59:26Z</time>
      </trkpt>
      <trkpt lat="45.8922170" lon="5.6714260">
        <ele>444.0</ele>
        <time>2022-07-26T09:59:27Z</time>
      </trkpt>
      <trkpt lat="45.8922220" lon="5.6714530">
        <ele>444.5</ele>
        <time>2022-07-26T09:59:28Z</time>
      </trkpt>
      <trkpt lat="45.8922230" lon="5.6714650">
        <ele>444.7</ele>
        <time>2022-07-26T09:59:29Z</time>
      </trkpt>
      <trkpt lat="45.8922210" lon="5.6714770">
        <ele>445.0</ele>
        <time>2022-07-26T09:59:30Z</time>
      </trkpt>
      <trkpt lat="45.8922190" lon="5.6714930">
        <ele>445.2</ele>
        <time>2022-07-26T09:59:31Z</time>
      </trkpt>
      <trkpt lat="45.8922160" lon="5.6715110">
        <ele>445.6</ele>
        <time>2022-07-26T09:59:32Z</time>
      </trkpt>
      <trkpt lat="45.8922120" lon="5.6715290">
        <ele>445.9</ele>
        <time>2022-07-26T09:59:33Z</time>
      </trkpt>
      <trkpt lat="45.8922120" lon="5.6715440">
        <ele>446.1</ele>
        <time>2022-07-26T09:59:34Z</time>
      </trkpt>
      <trkpt lat="45.8922150" lon="5.6715570">
        <ele>446.4</ele>
        <time>2022-07-26T09:59:35Z</time>
      </trkpt>
      <trkpt lat="45.8922200" lon="5.6715650">
        <ele>446.5</ele>
        <time>2022-07-26T09:59:36Z</time>
      </trkpt>
      <trkpt lat="45.8922240" lon="5.6715690">
        <ele>446.7</ele>
        <time>2022-07-26T09:59:37Z</time>
      </trkpt>
      <trkpt lat="45.8922260" lon="5.6715710">
        <ele>446.7</ele>
        <time>2022-07-26T09:59:38Z</time>
      </trkpt>
      <trkpt lat="45.8922280" lon="5.6715720">
        <ele>446.8</ele>
        <time>2022-07-26T09:59:39Z</time>
      </trkpt>
      <trkpt lat="45.8922280" lon="5.6715720">
        <ele>446.8</ele>
        <time>2022-07-26T09:59:40Z</time>
      </trkpt>
      <trkpt lat="45.8922280" lon="5.6715710">
        <ele>446.8</ele>
        <time>2022-07-26T09:59:41Z</time>
      </trkpt>
      <trkpt lat="45.8922280" lon="5.6715690">
        <ele>446.8</ele>
        <time>2022-07-26T09:59:42Z</time>
      </trkpt>
      <trkpt lat="45.8922290" lon="5.6715660">
        <ele>446.8</ele>
        <time>2022-07-26T09:59:43Z</time>
      </trkpt>
      <trkpt lat="45.8922310" lon="5.6715640">
        <ele>446.9</ele>
        <time>2022-07-26T09:59:44Z</time>
      </trkpt>
      <trkpt lat="45.8922300" lon="5.6715630">
        <ele>446.9</ele>
        <time>2022-07-26T09:59:45Z</time>
      </trkpt>
      <trkpt lat="45.8922300" lon="5.6715610">
        <ele>447.0</ele>
        <time>2022-07-26T09:59:46Z</time>
      </trkpt>
      <trkpt lat="45.8922290" lon="5.6715600">
        <ele>447.0</ele>
        <time>2022-07-26T09:59:47Z</time>
      </trkpt>
      <trkpt lat="45.8922280" lon="5.6715600">
        <ele>447.0</ele>
        <time>2022-07-26T09:59:48Z</time>
      </trkpt>
      <trkpt lat="45.8922270" lon="5.6715790">
        <ele>447.3</ele>
        <time>2022-07-26T09:59:53Z</time>
      </trkpt>
      <trkpt lat="45.8922290" lon="5.6715910">
        <ele>447.5</ele>
        <time>2022-07-26T09:59:54Z</time>
      </trkpt>
      <trkpt lat="45.8922310" lon="5.6716020">
        <ele>447.7</ele>
        <time>2022-07-26T09:59:55Z</time>
      </trkpt>
      <trkpt lat="45.8922330" lon="5.6716140">
        <ele>447.8</ele>
        <time>2022-07-26T09:59:56Z</time>
      </trkpt>
      <trkpt lat="45.8922340" lon="5.6716240">
        <ele>448.0</ele>
        <time>2022-07-26T09:59:57Z</time>
      </trkpt>
      <trkpt lat="45.8922350" lon="5.6716340">
        <ele>448.1</ele>
        <time>2022-07-26T09:59:58Z</time>
      </trkpt>
      <trkpt lat="45.8922440" lon="5.6716490">
        <ele>448.4</ele>
        <time>2022-07-26T09:59:59Z</time>
      </trkpt>
      <trkpt lat="45.8922450" lon="5.6716580">
        <ele>448.6</ele>
        <time>2022-07-26T10:00:00Z</time>
      </trkpt>
      <trkpt lat="45.8922460" lon="5.6716700">
        <ele>448.8</ele>
        <time>2022-07-26T10:00:01Z</time>
      </trkpt>
      <trkpt lat="45.8922450" lon="5.6716800">
        <ele>448.9</ele>
        <time>2022-07-26T10:00:02Z</time>
      </trkpt>
      <trkpt lat="45.8922450" lon="5.6716940">
        <ele>449.2</ele>
        <time>2022-07-26T10:00:03Z</time>
      </trkpt>
      <trkpt lat="45.8922490" lon="5.6717050">
        <ele>449.4</ele>
        <time>2022-07-26T10:00:04Z</time>
      </trkpt>
      <trkpt lat="45.8922570" lon="5.6717170">
        <ele>449.6</ele>
        <time>2022-07-26T10:00:05Z</time>
      </trkpt>
      <trkpt lat="45.8922640" lon="5.6717240">
        <ele>449.8</ele>
        <time>2022-07-26T10:00:06Z</time>
      </trkpt>
      <trkpt lat="45.8922710" lon="5.6717300">
        <ele>450.0</ele>
        <time>2022-07-26T10:00:07Z</time>
      </trkpt>
      <trkpt lat="45.8922720" lon="5.6717340">
        <ele>450.1</ele>
        <time>2022-07-26T10:00:08Z</time>
      </trkpt>
      <trkpt lat="45.8922780" lon="5.6717430">
        <ele>450.3</ele>
        <time>2022-07-26T10:00:09Z</time>
      </trkpt>
      <trkpt lat="45.8922940" lon="5.6717640">
        <ele>450.8</ele>
        <time>2022-07-26T10:00:10Z</time>
      </trkpt>
      <trkpt lat="45.8923010" lon="5.6717740">
        <ele>451.0</ele>
        <time>2022-07-26T10:00:11Z</time>
      </trkpt>
      <trkpt lat="45.8923080" lon="5.6717840">
        <ele>451.3</ele>
        <time>2022-07-26T10:00:12Z</time>
      </trkpt>
      <trkpt lat="45.8923200" lon="5.6718080">
        <ele>451.7</ele>
        <time>2022-07-26T10:00:13Z</time>
      </trkpt>
      <trkpt lat="45.8923250" lon="5.6718190">
        <ele>451.9</ele>
        <time>2022-07-26T10:00:14Z</time>
      </trkpt>
      <trkpt lat="45.8923290" lon="5.6718300">
        <ele>452.1</ele>
        <time>2022-07-26T10:00:15Z</time>
      </trkpt>
      <trkpt lat="45.8923300" lon="5.6718530">
        <ele>452.5</ele>
        <time>2022-07-26T10:00:16Z</time>
      </trkpt>
      <trkpt lat="45.8923280" lon="5.6718780">
        <ele>452.9</ele>
        <time>2022-07-26T10:00:17Z</time>
      </trkpt>
      <trkpt lat="45.8923210" lon="5.6718980">
        <ele>453.3</ele>
        <time>2022-07-26T10:00:18Z</time>
      </trkpt>
      <trkpt lat="45.8923160" lon="5.6719110">
        <ele>453.5</ele>
        <time>2022-07-26T10:00:19Z</time>
      </trkpt>
      <trkpt lat="45.8923160" lon="5.6719140">
        <ele>453.6</ele>
        <time>2022-07-26T10:00:20Z</time>
      </trkpt>
      <trkpt lat="45.8923160" lon="5.6719140">
        <ele>453.6</ele>
        <time>2022-07-26T10:00:21Z</time>
      </trkpt>
      <trkpt lat="45.8923160" lon="5.6719150">
        <ele>453.6</ele>
        <time>2022-07-26T10:00:22Z</time>
      </trkpt>
      <trkpt lat="45.8923160" lon="5.6719160">
        <ele>453.6</ele>
        <time>2022-07-26T10:00:23Z</time>
      </trkpt>
      <trkpt lat="45.8923140" lon="5.6719210">
        <ele>453.7</ele>
        <time>2022-07-26T10:00:24Z</time>
      </trkpt>
      <trkpt lat="45.8923130" lon="5.6719230">
        <ele>453.8</ele>
        <time>2022-07-26T10:00:25Z</time>
      </trkpt>
      <trkpt lat="45.8923120" lon="5.6719310">
        <ele>453.9</ele>
        <time>2022-07-26T10:00:26Z</time>
      </trkpt>
      <trkpt lat="45.8923110" lon="5.6719420">
        <ele>454.0</ele>
        <time>2022-07-26T10:00:27Z</time>
      </trkpt>
      <trkpt lat="45.8923110" lon="5.6719560">
        <ele>454.3</ele>
        <time>2022-07-26T10:00:28Z</time>
      </trkpt>
      <trkpt lat="45.8923140" lon="5.6719660">
        <ele>454.4</ele>
        <time>2022-07-26T10:00:29Z</time>
      </trkpt>
      <trkpt lat="45.8923160" lon="5.6719710">
        <ele>454.5</ele>
        <time>2022-07-26T10:00:30Z</time>
      </trkpt>
      <trkpt lat="45.8923180" lon="5.6719740">
        <ele>454.6</ele>
        <time>2022-07-26T10:00:31Z</time>
      </trkpt>
      <trkpt lat="45.8923200" lon="5.6719800">
        <ele>454.7</ele>
        <time>2022-07-26T10:00:32Z</time>
      </trkpt>
      <trkpt lat="45.8923240" lon="5.6719890">
        <ele>454.8</ele>
        <time>2022-07-26T10:00:33Z</time>
      </trkpt>
      <trkpt lat="45.8923300" lon="5.6719950">
        <ele>455.0</ele>
        <time>2022-07-26T10:00:34Z</time>
      </trkpt>
      <trkpt lat="45.8923310" lon="5.6719870">
        <ele>455.1</ele>
        <time>2022-07-26T10:00:35Z</time>
      </trkpt>
      <trkpt lat="45.8923350" lon="5.6719910">
        <ele>455.2</ele>
        <time>2022-07-26T10:00:37Z</time>
      </trkpt>
      <trkpt lat="45.8923350" lon="5.6719910">
        <ele>455.2</ele>
        <time>2022-07-26T10:00:38Z</time>
      </trkpt>
      <trkpt lat="45.8923370" lon="5.6719930">
        <ele>455.2</ele>
        <time>2022-07-26T10:00:39Z</time>
      </trkpt>
      <trkpt lat="45.8923420" lon="5.6719980">
        <ele>455.3</ele>
        <time>2022-07-26T10:00:40Z</time>
      </trkpt>
      <trkpt lat="45.8923460" lon="5.6720030">
        <ele>455.4</ele>
        <time>2022-07-26T10:00:41Z</time>
      </trkpt>
      <trkpt lat="45.8923510" lon="5.6720080">
        <ele>455.6</ele>
        <time>2022-07-26T10:00:42Z</time>
      </trkpt>
      <trkpt lat="45.8923570" lon="5.6720120">
        <ele>455.7</ele>
        <time>2022-07-26T10:00:43Z</time>
      </trkpt>
      <trkpt lat="45.8923610" lon="5.6720150">
        <ele>455.8</ele>
        <time>2022-07-26T10:00:44Z</time>
      </trkpt>
      <trkpt lat="45.8923650" lon="5.6720180">
        <ele>455.9</ele>
        <time>2022-07-26T10:00:45Z</time>
      </trkpt>
      <trkpt lat="45.8923690" lon="5.6720200">
        <ele>455.9</ele>
        <time>2022-07-26T10:00:46Z</time>
      </trkpt>
      <trkpt lat="45.8923750" lon="5.6720210">
        <ele>456.0</ele>
        <time>2022-07-26T10:00:47Z</time>
      </trkpt>
      <trkpt lat="45.8923850" lon="5.6720250">
        <ele>456.2</ele>
        <time>2022-07-26T10:00:48Z</time>
      </trkpt>
      <trkpt lat="45.8924030" lon="5.6720340">
        <ele>456.5</ele>
        <time>2022-07-26T10:00:49Z</time>
      </trkpt>
      <trkpt lat="45.8924110" lon="5.6720390">
        <ele>456.7</ele>
        <time>2022-07-26T10:00:50Z</time>
      </trkpt>
      <trkpt lat="45.8924190" lon="5.6720450">
        <ele>456.8</ele>
        <time>2022-07-26T10:00:51Z</time>
      </trkpt>
      <trkpt lat="45.8924290" lon="5.6720530">
        <ele>457.0</ele>
        <time>2022-07-26T10:00:52Z</time>
      </trkpt>
      <trkpt lat="45.8924440" lon="5.6720690">
        <ele>457.2</ele>
        <time>2022-07-26T10:00:53Z</time>
      </trkpt>
      <trkpt lat="45.8924520" lon="5.6720770">
        <ele>457.4</ele>
        <time>2022-07-26T10:00:54Z</time>
      </trkpt>
      <trkpt lat="45.8924610" lon="5.6720860">
        <ele>457.5</ele>
        <time>2022-07-26T10:00:55Z</time>
      </trkpt>
      <trkpt lat="45.8924710" lon="5.6720930">
        <ele>457.6</ele>
        <time>2022-07-26T10:00:56Z</time>
      </trkpt>
      <trkpt lat="45.8924770" lon="5.6720970">
        <ele>457.7</ele>
        <time>2022-07-26T10:00:57Z</time>
      </trkpt>
      <trkpt lat="45.8924820" lon="5.6721000">
        <ele>457.8</ele>
        <time>2022-07-26T10:00:58Z</time>
      </trkpt>
      <trkpt lat="45.8924840" lon="5.6721010">
        <ele>457.8</ele>
        <time>2022-07-26T10:00:59Z</time>
      </trkpt>
      <trkpt lat="45.8924830" lon="5.6721000">
        <ele>457.8</ele>
        <time>2022-07-26T10:01:00Z</time>
      </trkpt>
      <trkpt lat="45.8924830" lon="5.6721000">
        <ele>457.8</ele>
        <time>2022-07-26T10:01:01Z</time>
      </trkpt>
      <trkpt lat="45.8924840" lon="5.6721000">
        <ele>457.8</ele>
        <time>2022-07-26T10:01:02Z</time>
      </trkpt>
      <trkpt lat="45.8924840" lon="5.6721010">
        <ele>457.8</ele>
        <time>2022-07-26T10:01:03Z</time>
      </trkpt>
      <trkpt lat="45.8924830" lon="5.6721020">
        <ele>457.9</ele>
        <time>2022-07-26T10:01:04Z</time>
      </trkpt>
      <trkpt lat="45.8924830" lon="5.6721020">
        <ele>457.9</ele>
        <time>2022-07-26T10:01:05Z</time>
      </trkpt>
      <trkpt lat="45.8924820" lon="5.6721040">
        <ele>457.9</ele>
        <time>2022-07-26T10:01:06Z</time>
      </trkpt>
      <trkpt lat="45.8924790" lon="5.6721050">
        <ele>457.9</ele>
        <time>2022-07-26T10:01:07Z</time>
      </trkpt>
      <trkpt lat="45.8924760" lon="5.6721060">
        <ele>457.9</ele>
        <time>2022-07-26T10:01:08Z</time>
      </trkpt>
      <trkpt lat="45.8925180" lon="5.6721390">
        <ele>458.4</ele>
        <time>2022-07-26T10:02:01Z</time>
      </trkpt>
      <trkpt lat="45.8925240" lon="5.6721450">
        <ele>458.5</ele>
        <time>2022-07-26T10:02:02Z</time>
      </trkpt>
      <trkpt lat="45.8925270" lon="5.6721440">
        <ele>458.5</ele>
        <time>2022-07-26T10:02:03Z</time>
      </trkpt>
      <trkpt lat="45.8925290" lon="5.6721410">
        <ele>458.6</ele>
        <time>2022-07-26T10:02:04Z</time>
      </trkpt>
      <trkpt lat="45.8925300" lon="5.6721390">
        <ele>458.6</ele>
        <time>2022-07-26T10:02:05Z</time>
      </trkpt>
      <trkpt lat="45.8925310" lon="5.6721370">
        <ele>458.6</ele>
        <time>2022-07-26T10:02:06Z</time>
      </trkpt>
      <trkpt lat="45.8925320" lon="5.6721360">
        <ele>458.6</ele>
        <time>2022-07-26T10:02:07Z</time>
      </trkpt>
      <trkpt lat="45.8925330" lon="5.6721350">
        <ele>458.6</ele>
        <time>2022-07-26T10:02:08Z</time>
      </trkpt>
      <trkpt lat="45.8925370" lon="5.6721350">
        <ele>458.7</ele>
        <time>2022-07-26T10:02:09Z</time>
      </trkpt>
      <trkpt lat="45.8925500" lon="5.6721390">
        <ele>458.8</ele>
        <time>2022-07-26T10:02:10Z</time>
      </trkpt>
      <trkpt lat="45.8925650" lon="5.6721330">
        <ele>458.9</ele>
        <time>2022-07-26T10:02:11Z</time>
      </trkpt>
      <trkpt lat="45.8925790" lon="5.6721290">
        <ele>459.0</ele>
        <time>2022-07-26T10:02:12Z</time>
      </trkpt>
      <trkpt lat="45.8925900" lon="5.6721260">
        <ele>459.1</ele>
        <time>2022-07-26T10:02:13Z</time>
      </trkpt>
      <trkpt lat="45.8925990" lon="5.6721270">
        <ele>459.2</ele>
        <time>2022-07-26T10:02:14Z</time>
      </trkpt>
      <trkpt lat="45.8926340" lon="5.6721460">
        <ele>459.4</ele>
        <time>2022-07-26T10:02:16Z</time>
      </trkpt>
      <trkpt lat="45.8926500" lon="5.6721580">
        <ele>459.6</ele>
        <time>2022-07-26T10:02:17Z</time>
      </trkpt>
      <trkpt lat="45.8926600" lon="5.6721710">
        <ele>459.7</ele>
        <time>2022-07-26T10:02:18Z</time>
      </trkpt>
      <trkpt lat="45.8926670" lon="5.6721910">
        <ele>459.8</ele>
        <time>2022-07-26T10:02:19Z</time>
      </trkpt>
      <trkpt lat="45.8926840" lon="5.6722250">
        <ele>460.0</ele>
        <time>2022-07-26T10:02:21Z</time>
      </trkpt>
      <trkpt lat="45.8926980" lon="5.6722430">
        <ele>460.1</ele>
        <time>2022-07-26T10:02:22Z</time>
      </trkpt>
      <trkpt lat="45.8927110" lon="5.6722520">
        <ele>460.3</ele>
        <time>2022-07-26T10:02:23Z</time>
      </trkpt>
      <trkpt lat="45.8927240" lon="5.6722610">
        <ele>460.4</ele>
        <time>2022-07-26T10:02:24Z</time>
      </trkpt>
      <trkpt lat="45.8927360" lon="5.6722740">
        <ele>460.5</ele>
        <time>2022-07-26T10:02:25Z</time>
      </trkpt>
      <trkpt lat="45.8927480" lon="5.6722860">
        <ele>460.6</ele>
        <time>2022-07-26T10:02:26Z</time>
      </trkpt>
      <trkpt lat="45.8927600" lon="5.6723020">
        <ele>460.8</ele>
        <time>2022-07-26T10:02:27Z</time>
      </trkpt>
      <trkpt lat="45.8927710" lon="5.6723150">
        <ele>460.9</ele>
        <time>2022-07-26T10:02:28Z</time>
      </trkpt>
      <trkpt lat="45.8927800" lon="5.6723310">
        <ele>461.0</ele>
        <time>2022-07-26T10:02:29Z</time>
      </trkpt>
      <trkpt lat="45.8927920" lon="5.6723440">
        <ele>461.1</ele>
        <time>2022-07-26T10:02:30Z</time>
      </trkpt>
      <trkpt lat="45.8928140" lon="5.6723690">
        <ele>461.4</ele>
        <time>2022-07-26T10:02:32Z</time>
      </trkpt>
      <trkpt lat="45.8928290" lon="5.6723830">
        <ele>461.5</ele>
        <time>2022-07-26T10:02:33Z</time>
      </trkpt>
      <trkpt lat="45.8928430" lon="5.6723930">
        <ele>461.6</ele>
        <time>2022-07-26T10:02:34Z</time>
      </trkpt>
      <trkpt lat="45.8928540" lon="5.6724020">
        <ele>461.7</ele>
        <time>2022-07-26T10:02:35Z</time>
      </trkpt>
      <trkpt lat="45.8928670" lon="5.6724130">
        <ele>461.9</ele>
        <time>2022-07-26T10:02:36Z</time>
      </trkpt>
      <trkpt lat="45.8928800" lon="5.6724270">
        <ele>462.0</ele>
        <time>2022-07-26T10:02:37Z</time>
      </trkpt>
      <trkpt lat="45.8928880" lon="5.6724420">
        <ele>462.1</ele>
        <time>2022-07-26T10:02:38Z</time>
      </trkpt>
      <trkpt lat="45.8928920" lon="5.6724560">
        <ele>462.1</ele>
        <time>2022-07-26T10:02:39Z</time>
      </trkpt>
      <trkpt lat="45.8928980" lon="5.6724800">
        <ele>462.3</ele>
        <time>2022-07-26T10:02:40Z</time>
      </trkpt>
      <trkpt lat="45.8929040" lon="5.6725090">
        <ele>462.4</ele>
        <time>2022-07-26T10:02:41Z</time>
      </trkpt>
      <trkpt lat="45.8929060" lon="5.6725190">
        <ele>462.5</ele>
        <time>2022-07-26T10:02:42Z</time>
      </trkpt>
      <trkpt lat="45.8929070" lon="5.6725300">
        <ele>462.5</ele>
        <time>2022-07-26T10:02:43Z</time>
      </trkpt>
      <trkpt lat="45.8929070" lon="5.6725410">
        <ele>462.6</ele>
        <time>2022-07-26T10:02:44Z</time>
      </trkpt>
      <trkpt lat="45.8929060" lon="5.6725550">
        <ele>462.6</ele>
        <time>2022-07-26T10:02:45Z</time>
      </trkpt>
      <trkpt lat="45.8929080" lon="5.6725700">
        <ele>462.7</ele>
        <time>2022-07-26T10:02:46Z</time>
      </trkpt>
      <trkpt lat="45.8929060" lon="5.6725780">
        <ele>462.7</ele>
        <time>2022-07-26T10:02:47Z</time>
      </trkpt>
      <trkpt lat="45.8929040" lon="5.6725930">
        <ele>462.8</ele>
        <time>2022-07-26T10:02:48Z</time>
      </trkpt>
      <trkpt lat="45.8929050" lon="5.6726090">
        <ele>462.9</ele>
        <time>2022-07-26T10:02:49Z</time>
      </trkpt>
      <trkpt lat="45.8929050" lon="5.6726240">
        <ele>463.0</ele>
        <time>2022-07-26T10:02:50Z</time>
      </trkpt>
      <trkpt lat="45.8929010" lon="5.6726500">
        <ele>463.1</ele>
        <time>2022-07-26T10:02:51Z</time>
      </trkpt>
      <trkpt lat="45.8929030" lon="5.6726760">
        <ele>463.2</ele>
        <time>2022-07-26T10:02:52Z</time>
      </trkpt>
      <trkpt lat="45.8929060" lon="5.6726930">
        <ele>463.3</ele>
        <time>2022-07-26T10:02:53Z</time>
      </trkpt>
      <trkpt lat="45.8929100" lon="5.6727140">
        <ele>463.4</ele>
        <time>2022-07-26T10:02:54Z</time>
      </trkpt>
      <trkpt lat="45.8929130" lon="5.6727330">
        <ele>463.6</ele>
        <time>2022-07-26T10:02:55Z</time>
      </trkpt>
      <trkpt lat="45.8929190" lon="5.6727600">
        <ele>463.7</ele>
        <time>2022-07-26T10:02:56Z</time>
      </trkpt>
      <trkpt lat="45.8929230" lon="5.6727730">
        <ele>463.8</ele>
        <time>2022-07-26T10:02:57Z</time>
      </trkpt>
      <trkpt lat="45.8929270" lon="5.6727860">
        <ele>463.9</ele>
        <time>2022-07-26T10:02:58Z</time>
      </trkpt>
      <trkpt lat="45.8929330" lon="5.6728020">
        <ele>464.4</ele>
        <time>2022-07-26T10:02:59Z</time>
      </trkpt>
      <trkpt lat="45.8929390" lon="5.6728140">
        <ele>464.5</ele>
        <time>2022-07-26T10:03:00Z</time>
      </trkpt>
      <trkpt lat="45.8929440" lon="5.6728270">
        <ele>464.5</ele>
        <time>2022-07-26T10:03:01Z</time>
      </trkpt>
      <trkpt lat="45.8929560" lon="5.6728500">
        <ele>464.6</ele>
        <time>2022-07-26T10:03:02Z</time>
      </trkpt>
      <trkpt lat="45.8929640" lon="5.6728650">
        <ele>464.7</ele>
        <time>2022-07-26T10:03:03Z</time>
      </trkpt>
      <trkpt lat="45.8929730" lon="5.6728830">
        <ele>464.8</ele>
        <time>2022-07-26T10:03:04Z</time>
      </trkpt>
      <trkpt lat="45.8929850" lon="5.6729040">
        <ele>464.8</ele>
        <time>2022-07-26T10:03:05Z</time>
      </trkpt>
      <trkpt lat="45.8929980" lon="5.6729220">
        <ele>464.9</ele>
        <time>2022-07-26T10:03:06Z</time>
      </trkpt>
      <trkpt lat="45.8930090" lon="5.6729340">
        <ele>465.0</ele>
        <time>2022-07-26T10:03:07Z</time>
      </trkpt>
      <trkpt lat="45.8930370" lon="5.6729680">
        <ele>465.1</ele>
        <time>2022-07-26T10:03:08Z</time>
      </trkpt>
      <trkpt lat="45.8930450" lon="5.6729800">
        <ele>465.2</ele>
        <time>2022-07-26T10:03:09Z</time>
      </trkpt>
      <trkpt lat="45.8930690" lon="5.6730190">
        <ele>465.3</ele>
        <time>2022-07-26T10:03:10Z</time>
      </trkpt>
      <trkpt lat="45.8930760" lon="5.6730310">
        <ele>465.4</ele>
        <time>2022-07-26T10:03:11Z</time>
      </trkpt>
      <trkpt lat="45.8930970" lon="5.6730630">
        <ele>465.5</ele>
        <time>2022-07-26T10:03:12Z</time>
      </trkpt>
      <trkpt lat="45.8931020" lon="5.6730710">
        <ele>465.5</ele>
        <time>2022-07-26T10:03:13Z</time>
      </trkpt>
      <trkpt lat="45.8931140" lon="5.6730870">
        <ele>465.5</ele>
        <time>2022-07-26T10:03:14Z</time>
      </trkpt>
      <trkpt lat="45.8931260" lon="5.6731040">
        <ele>465.6</ele>
        <time>2022-07-26T10:03:15Z</time>
      </trkpt>
      <trkpt lat="45.8931390" lon="5.6731210">
        <ele>465.6</ele>
        <time>2022-07-26T10:03:16Z</time>
      </trkpt>
      <trkpt lat="45.8931520" lon="5.6731370">
        <ele>465.7</ele>
        <time>2022-07-26T10:03:17Z</time>
      </trkpt>
      <trkpt lat="45.8931810" lon="5.6731680">
        <ele>465.8</ele>
        <time>2022-07-26T10:03:18Z</time>
      </trkpt>
      <trkpt lat="45.8931890" lon="5.6731780">
        <ele>465.8</ele>
        <time>2022-07-26T10:03:19Z</time>
      </trkpt>
      <trkpt lat="45.8932090" lon="5.6732060">
        <ele>465.8</ele>
        <time>2022-07-26T10:03:20Z</time>
      </trkpt>
      <trkpt lat="45.8932160" lon="5.6732170">
        <ele>465.8</ele>
        <time>2022-07-26T10:03:21Z</time>
      </trkpt>
      <trkpt lat="45.8932420" lon="5.6732450">
        <ele>465.9</ele>
        <time>2022-07-26T10:03:22Z</time>
      </trkpt>
      <trkpt lat="45.8932500" lon="5.6732530">
        <ele>465.9</ele>
        <time>2022-07-26T10:03:23Z</time>
      </trkpt>
      <trkpt lat="45.8932740" lon="5.6732780">
        <ele>465.9</ele>
        <time>2022-07-26T10:03:24Z</time>
      </trkpt>
      <trkpt lat="45.8932830" lon="5.6732860">
        <ele>465.9</ele>
        <time>2022-07-26T10:03:25Z</time>
      </trkpt>
      <trkpt lat="45.8933070" lon="5.6733160">
        <ele>465.9</ele>
        <time>2022-07-26T10:03:26Z</time>
      </trkpt>
      <trkpt lat="45.8933150" lon="5.6733260">
        <ele>465.9</ele>
        <time>2022-07-26T10:03:27Z</time>
      </trkpt>
      <trkpt lat="45.8933400" lon="5.6733670">
        <ele>465.9</ele>
        <time>2022-07-26T10:03:28Z</time>
      </trkpt>
      <trkpt lat="45.8933490" lon="5.6733820">
        <ele>465.8</ele>
        <time>2022-07-26T10:03:29Z</time>
      </trkpt>
      <trkpt lat="45.8933660" lon="5.6734180">
        <ele>465.8</ele>
        <time>2022-07-26T10:03:30Z</time>
      </trkpt>
      <trkpt lat="45.8933820" lon="5.6734510">
        <ele>465.7</ele>
        <time>2022-07-26T10:03:31Z</time>
      </trkpt>
      <trkpt lat="45.8934000" lon="5.6734990">
        <ele>465.6</ele>
        <time>2022-07-26T10:03:32Z</time>
      </trkpt>
      <trkpt lat="45.8934060" lon="5.6735140">
        <ele>465.5</ele>
        <time>2022-07-26T10:03:33Z</time>
      </trkpt>
      <trkpt lat="45.8934170" lon="5.6735500">
        <ele>465.4</ele>
        <time>2022-07-26T10:03:34Z</time>
      </trkpt>
      <trkpt lat="45.8934310" lon="5.6735940">
        <ele>465.3</ele>
        <time>2022-07-26T10:03:35Z</time>
      </trkpt>
      <trkpt lat="45.8934480" lon="5.6736430">
        <ele>465.1</ele>
        <time>2022-07-26T10:03:36Z</time>
      </trkpt>
      <trkpt lat="45.8934700" lon="5.6736910">
        <ele>464.9</ele>
        <time>2022-07-26T10:03:37Z</time>
      </trkpt>
      <trkpt lat="45.8934950" lon="5.6737390">
        <ele>464.7</ele>
        <time>2022-07-26T10:03:38Z</time>
      </trkpt>
      <trkpt lat="45.8935190" lon="5.6737740">
        <ele>464.5</ele>
        <time>2022-07-26T10:03:39Z</time>
      </trkpt>
      <trkpt lat="45.8935430" lon="5.6738130">
        <ele>464.2</ele>
        <time>2022-07-26T10:03:40Z</time>
      </trkpt>
      <trkpt lat="45.8935730" lon="5.6738530">
        <ele>464.0</ele>
        <time>2022-07-26T10:03:41Z</time>
      </trkpt>
      <trkpt lat="45.8936120" lon="5.6739040">
        <ele>463.6</ele>
        <time>2022-07-26T10:03:42Z</time>
      </trkpt>
      <trkpt lat="45.8936570" lon="5.6739620">
        <ele>463.1</ele>
        <time>2022-07-26T10:03:43Z</time>
      </trkpt>
      <trkpt lat="45.8936970" lon="5.6740240">
        <ele>462.6</ele>
        <time>2022-07-26T10:03:44Z</time>
      </trkpt>
      <trkpt lat="45.8937440" lon="5.6740760">
        <ele>462.1</ele>
        <time>2022-07-26T10:03:45Z</time>
      </trkpt>
      <trkpt lat="45.8937900" lon="5.6741200">
        <ele>461.7</ele>
        <time>2022-07-26T10:03:46Z</time>
      </trkpt>
      <trkpt lat="45.8938470" lon="5.6741640">
        <ele>461.4</ele>
        <time>2022-07-26T10:03:47Z</time>
      </trkpt>
      <trkpt lat="45.8939020" lon="5.6741980">
        <ele>461.1</ele>
        <time>2022-07-26T10:03:48Z</time>
      </trkpt>
      <trkpt lat="45.8939430" lon="5.6742360">
        <ele>460.8</ele>
        <time>2022-07-26T10:03:49Z</time>
      </trkpt>
      <trkpt lat="45.8939620" lon="5.6742670">
        <ele>460.7</ele>
        <time>2022-07-26T10:03:50Z</time>
      </trkpt>
      <trkpt lat="45.8939810" lon="5.6743060">
        <ele>460.4</ele>
        <time>2022-07-26T10:03:51Z</time>
      </trkpt>
      <trkpt lat="45.8939950" lon="5.6743560">
        <ele>460.3</ele>
        <time>2022-07-26T10:03:52Z</time>
      </trkpt>
      <trkpt lat="45.8939900" lon="5.6744090">
        <ele>460.1</ele>
        <time>2022-07-26T10:03:53Z</time>
      </trkpt>
      <trkpt lat="45.8939770" lon="5.6744630">
        <ele>459.9</ele>
        <time>2022-07-26T10:03:54Z</time>
      </trkpt>
      <trkpt lat="45.8939560" lon="5.6745130">
        <ele>459.7</ele>
        <time>2022-07-26T10:03:55Z</time>
      </trkpt>
      <trkpt lat="45.8939260" lon="5.6745710">
        <ele>459.5</ele>
        <time>2022-07-26T10:03:56Z</time>
      </trkpt>
      <trkpt lat="45.8938890" lon="5.6746270">
        <ele>459.2</ele>
        <time>2022-07-26T10:03:57Z</time>
      </trkpt>
      <trkpt lat="45.8938610" lon="5.6747020">
        <ele>459.0</ele>
        <time>2022-07-26T10:03:58Z</time>
      </trkpt>
      <trkpt lat="45.8938350" lon="5.6747740">
        <ele>458.7</ele>
        <time>2022-07-26T10:03:59Z</time>
      </trkpt>
      <trkpt lat="45.8938080" lon="5.6748400">
        <ele>458.5</ele>
        <time>2022-07-26T10:04:00Z</time>
      </trkpt>
      <trkpt lat="45.8937770" lon="5.6749130">
        <ele>458.3</ele>
        <time>2022-07-26T10:04:01Z</time>
      </trkpt>
      <trkpt lat="45.8937410" lon="5.6749870">
        <ele>458.1</ele>
        <time>2022-07-26T10:04:02Z</time>
      </trkpt>
      <trkpt lat="45.8937020" lon="5.6750590">
        <ele>457.9</ele>
        <time>2022-07-26T10:04:03Z</time>
      </trkpt>
      <trkpt lat="45.8936660" lon="5.6751280">
        <ele>457.7</ele>
        <time>2022-07-26T10:04:04Z</time>
      </trkpt>
      <trkpt lat="45.8936390" lon="5.6751890">
        <ele>457.6</ele>
        <time>2022-07-26T10:04:05Z</time>
      </trkpt>
      <trkpt lat="45.8936220" lon="5.6752230">
        <ele>457.5</ele>
        <time>2022-07-26T10:04:06Z</time>
      </trkpt>
      <trkpt lat="45.8936050" lon="5.6752580">
        <ele>457.5</ele>
        <time>2022-07-26T10:04:07Z</time>
      </trkpt>
      <trkpt lat="45.8935840" lon="5.6753050">
        <ele>457.4</ele>
        <time>2022-07-26T10:04:08Z</time>
      </trkpt>
      <trkpt lat="45.8935760" lon="5.6753230">
        <ele>457.4</ele>
        <time>2022-07-26T10:04:09Z</time>
      </trkpt>
      <trkpt lat="45.8935650" lon="5.6753430">
        <ele>457.4</ele>
        <time>2022-07-26T10:04:10Z</time>
      </trkpt>
      <trkpt lat="45.8935480" lon="5.6753550">
        <ele>457.4</ele>
        <time>2022-07-26T10:04:11Z</time>
      </trkpt>
      <trkpt lat="45.8935330" lon="5.6753600">
        <ele>457.3</ele>
        <time>2022-07-26T10:04:12Z</time>
      </trkpt>
      <trkpt lat="45.8935190" lon="5.6753750">
        <ele>457.3</ele>
        <time>2022-07-26T10:04:13Z</time>
      </trkpt>
      <trkpt lat="45.8934900" lon="5.6754130">
        <ele>457.3</ele>
        <time>2022-07-26T10:04:14Z</time>
      </trkpt>
      <trkpt lat="45.8934790" lon="5.6754290">
        <ele>457.2</ele>
        <time>2022-07-26T10:04:15Z</time>
      </trkpt>
      <trkpt lat="45.8934580" lon="5.6754600">
        <ele>457.1</ele>
        <time>2022-07-26T10:04:16Z</time>
      </trkpt>
      <trkpt lat="45.8934390" lon="5.6754960">
        <ele>457.1</ele>
        <time>2022-07-26T10:04:17Z</time>
      </trkpt>
      <trkpt lat="45.8934240" lon="5.6755390">
        <ele>457.1</ele>
        <time>2022-07-26T10:04:18Z</time>
      </trkpt>
      <trkpt lat="45.8934390" lon="5.6755970">
        <ele>457.0</ele>
        <time>2022-07-26T10:04:19Z</time>
      </trkpt>
      <trkpt lat="45.8934770" lon="5.6756580">
        <ele>457.0</ele>
        <time>2022-07-26T10:04:20Z</time>
      </trkpt>
      <trkpt lat="45.8935170" lon="5.6756920">
        <ele>457.0</ele>
        <time>2022-07-26T10:04:21Z</time>
      </trkpt>
      <trkpt lat="45.8935540" lon="5.6756950">
        <ele>457.0</ele>
        <time>2022-07-26T10:04:22Z</time>
      </trkpt>
      <trkpt lat="45.8935840" lon="5.6756950">
        <ele>456.9</ele>
        <time>2022-07-26T10:04:23Z</time>
      </trkpt>
      <trkpt lat="45.8936130" lon="5.6756920">
        <ele>456.9</ele>
        <time>2022-07-26T10:04:24Z</time>
      </trkpt>
      <trkpt lat="45.8936450" lon="5.6756860">
        <ele>456.9</ele>
        <time>2022-07-26T10:04:25Z</time>
      </trkpt>
      <trkpt lat="45.8936540" lon="5.6756840">
        <ele>456.9</ele>
        <time>2022-07-26T10:04:26Z</time>
      </trkpt>
      <trkpt lat="45.8936810" lon="5.6756770">
        <ele>456.9</ele>
        <time>2022-07-26T10:04:27Z</time>
      </trkpt>
      <trkpt lat="45.8937120" lon="5.6756690">
        <ele>456.9</ele>
        <time>2022-07-26T10:04:28Z</time>
      </trkpt>
      <trkpt lat="45.8937250" lon="5.6756650">
        <ele>456.9</ele>
        <time>2022-07-26T10:04:29Z</time>
      </trkpt>
      <trkpt lat="45.8937590" lon="5.6756460">
        <ele>457.0</ele>
        <time>2022-07-26T10:04:30Z</time>
      </trkpt>
      <trkpt lat="45.8937690" lon="5.6756430">
        <ele>457.0</ele>
        <time>2022-07-26T10:04:31Z</time>
      </trkpt>
      <trkpt lat="45.8938000" lon="5.6756320">
        <ele>457.2</ele>
        <time>2022-07-26T10:04:32Z</time>
      </trkpt>
      <trkpt lat="45.8938120" lon="5.6756270">
        <ele>457.2</ele>
        <time>2022-07-26T10:04:33Z</time>
      </trkpt>
      <trkpt lat="45.8938450" lon="5.6756170">
        <ele>457.4</ele>
        <time>2022-07-26T10:04:34Z</time>
      </trkpt>
      <trkpt lat="45.8938570" lon="5.6756130">
        <ele>457.5</ele>
        <time>2022-07-26T10:04:35Z</time>
      </trkpt>
      <trkpt lat="45.8938870" lon="5.6755970">
        <ele>457.6</ele>
        <time>2022-07-26T10:04:36Z</time>
      </trkpt>
      <trkpt lat="45.8938990" lon="5.6755900">
        <ele>457.7</ele>
        <time>2022-07-26T10:04:37Z</time>
      </trkpt>
      <trkpt lat="45.8939280" lon="5.6755730">
        <ele>457.9</ele>
        <time>2022-07-26T10:04:38Z</time>
      </trkpt>
      <trkpt lat="45.8939400" lon="5.6755670">
        <ele>458.0</ele>
        <time>2022-07-26T10:04:39Z</time>
      </trkpt>
      <trkpt lat="45.8939680" lon="5.6755540">
        <ele>458.1</ele>
        <time>2022-07-26T10:04:40Z</time>
      </trkpt>
      <trkpt lat="45.8939770" lon="5.6755510">
        <ele>458.2</ele>
        <time>2022-07-26T10:04:41Z</time>
      </trkpt>
      <trkpt lat="45.8940050" lon="5.6755380">
        <ele>458.3</ele>
        <time>2022-07-26T10:04:42Z</time>
      </trkpt>
      <trkpt lat="45.8940150" lon="5.6755340">
        <ele>458.4</ele>
        <time>2022-07-26T10:04:43Z</time>
      </trkpt>
      <trkpt lat="45.8940450" lon="5.6755240">
        <ele>458.6</ele>
        <time>2022-07-26T10:04:44Z</time>
      </trkpt>
      <trkpt lat="45.8940540" lon="5.6755210">
        <ele>458.6</ele>
        <time>2022-07-26T10:04:45Z</time>
      </trkpt>
      <trkpt lat="45.8940800" lon="5.6755140">
        <ele>458.8</ele>
        <time>2022-07-26T10:04:46Z</time>
      </trkpt>
      <trkpt lat="45.8940910" lon="5.6755110">
        <ele>458.9</ele>
        <time>2022-07-26T10:04:47Z</time>
      </trkpt>
      <trkpt lat="45.8941250" lon="5.6755030">
        <ele>459.1</ele>
        <time>2022-07-26T10:04:48Z</time>
      </trkpt>
      <trkpt lat="45.8941350" lon="5.6755000">
        <ele>459.1</ele>
        <time>2022-07-26T10:04:49Z</time>
      </trkpt>
      <trkpt lat="45.8941640" lon="5.6754870">
        <ele>459.3</ele>
        <time>2022-07-26T10:04:50Z</time>
      </trkpt>
      <trkpt lat="45.8941730" lon="5.6754830">
        <ele>459.3</ele>
        <time>2022-07-26T10:04:51Z</time>
      </trkpt>
      <trkpt lat="45.8941890" lon="5.6754770">
        <ele>459.5</ele>
        <time>2022-07-26T10:04:52Z</time>
      </trkpt>
      <trkpt lat="45.8942080" lon="5.6754740">
        <ele>459.6</ele>
        <time>2022-07-26T10:04:53Z</time>
      </trkpt>
      <trkpt lat="45.8942230" lon="5.6754720">
        <ele>459.7</ele>
        <time>2022-07-26T10:04:54Z</time>
      </trkpt>
      <trkpt lat="45.8942400" lon="5.6754710">
        <ele>459.8</ele>
        <time>2022-07-26T10:04:55Z</time>
      </trkpt>
      <trkpt lat="45.8942580" lon="5.6754690">
        <ele>459.9</ele>
        <time>2022-07-26T10:04:56Z</time>
      </trkpt>
      <trkpt lat="45.8942740" lon="5.6754650">
        <ele>460.0</ele>
        <time>2022-07-26T10:04:57Z</time>
      </trkpt>
      <trkpt lat="45.8942900" lon="5.6754590">
        <ele>460.1</ele>
        <time>2022-07-26T10:04:58Z</time>
      </trkpt>
      <trkpt lat="45.8943070" lon="5.6754520">
        <ele>460.2</ele>
        <time>2022-07-26T10:04:59Z</time>
      </trkpt>
      <trkpt lat="45.8943230" lon="5.6754450">
        <ele>460.3</ele>
        <time>2022-07-26T10:05:00Z</time>
      </trkpt>
      <trkpt lat="45.8943420" lon="5.6754390">
        <ele>460.4</ele>
        <time>2022-07-26T10:05:01Z</time>
      </trkpt>
      <trkpt lat="45.8943580" lon="5.6754350">
        <ele>460.5</ele>
        <time>2022-07-26T10:05:02Z</time>
      </trkpt>
      <trkpt lat="45.8943710" lon="5.6754330">
        <ele>460.6</ele>
        <time>2022-07-26T10:05:03Z</time>
      </trkpt>
      <trkpt lat="45.8943980" lon="5.6754250">
        <ele>460.8</ele>
        <time>2022-07-26T10:05:04Z</time>
      </trkpt>
      <trkpt lat="45.8944080" lon="5.6754220">
        <ele>460.8</ele>
        <time>2022-07-26T10:05:05Z</time>
      </trkpt>
      <trkpt lat="45.8944240" lon="5.6754180">
        <ele>460.9</ele>
        <time>2022-07-26T10:05:06Z</time>
      </trkpt>
      <trkpt lat="45.8944420" lon="5.6754150">
        <ele>461.1</ele>
        <time>2022-07-26T10:05:07Z</time>
      </trkpt>
      <trkpt lat="45.8944710" lon="5.6754100">
        <ele>461.2</ele>
        <time>2022-07-26T10:05:08Z</time>
      </trkpt>
      <trkpt lat="45.8944810" lon="5.6754090">
        <ele>461.3</ele>
        <time>2022-07-26T10:05:09Z</time>
      </trkpt>
      <trkpt lat="45.8945000" lon="5.6754070">
        <ele>461.4</ele>
        <time>2022-07-26T10:05:10Z</time>
      </trkpt>
      <trkpt lat="45.8945150" lon="5.6754060">
        <ele>461.5</ele>
        <time>2022-07-26T10:05:11Z</time>
      </trkpt>
      <trkpt lat="45.8945470" lon="5.6754050">
        <ele>461.7</ele>
        <time>2022-07-26T10:05:12Z</time>
      </trkpt>
      <trkpt lat="45.8945570" lon="5.6754060">
        <ele>461.8</ele>
        <time>2022-07-26T10:05:13Z</time>
      </trkpt>
      <trkpt lat="45.8945860" lon="5.6754080">
        <ele>462.0</ele>
        <time>2022-07-26T10:05:14Z</time>
      </trkpt>
      <trkpt lat="45.8945950" lon="5.6754090">
        <ele>462.0</ele>
        <time>2022-07-26T10:05:15Z</time>
      </trkpt>
      <trkpt lat="45.8946240" lon="5.6754070">
        <ele>462.2</ele>
        <time>2022-07-26T10:05:16Z</time>
      </trkpt>
      <trkpt lat="45.8946340" lon="5.6754060">
        <ele>462.3</ele>
        <time>2022-07-26T10:05:17Z</time>
      </trkpt>
      <trkpt lat="45.8946480" lon="5.6754030">
        <ele>462.4</ele>
        <time>2022-07-26T10:05:18Z</time>
      </trkpt>
      <trkpt lat="45.8946660" lon="5.6753990">
        <ele>462.5</ele>
        <time>2022-07-26T10:05:19Z</time>
      </trkpt>
      <trkpt lat="45.8946940" lon="5.6753920">
        <ele>462.7</ele>
        <time>2022-07-26T10:05:20Z</time>
      </trkpt>
      <trkpt lat="45.8947030" lon="5.6753900">
        <ele>462.7</ele>
        <time>2022-07-26T10:05:21Z</time>
      </trkpt>
      <trkpt lat="45.8947330" lon="5.6753820">
        <ele>462.9</ele>
        <time>2022-07-26T10:05:22Z</time>
      </trkpt>
      <trkpt lat="45.8947420" lon="5.6753800">
        <ele>463.0</ele>
        <time>2022-07-26T10:05:23Z</time>
      </trkpt>
      <trkpt lat="45.8947590" lon="5.6753750">
        <ele>463.1</ele>
        <time>2022-07-26T10:05:24Z</time>
      </trkpt>
      <trkpt lat="45.8947740" lon="5.6753700">
        <ele>463.2</ele>
        <time>2022-07-26T10:05:25Z</time>
      </trkpt>
      <trkpt lat="45.8948050" lon="5.6753720">
        <ele>463.4</ele>
        <time>2022-07-26T10:05:26Z</time>
      </trkpt>
      <trkpt lat="45.8948130" lon="5.6753740">
        <ele>463.5</ele>
        <time>2022-07-26T10:05:27Z</time>
      </trkpt>
      <trkpt lat="45.8948440" lon="5.6753970">
        <ele>463.9</ele>
        <time>2022-07-26T10:05:28Z</time>
      </trkpt>
      <trkpt lat="45.8948540" lon="5.6754070">
        <ele>464.1</ele>
        <time>2022-07-26T10:05:29Z</time>
      </trkpt>
      <trkpt lat="45.8948720" lon="5.6754450">
        <ele>464.5</ele>
        <time>2022-07-26T10:05:30Z</time>
      </trkpt>
      <trkpt lat="45.8948770" lon="5.6754600">
        <ele>464.7</ele>
        <time>2022-07-26T10:05:31Z</time>
      </trkpt>
      <trkpt lat="45.8948790" lon="5.6754850">
        <ele>464.9</ele>
        <time>2022-07-26T10:05:32Z</time>
      </trkpt>
      <trkpt lat="45.8948790" lon="5.6755020">
        <ele>465.0</ele>
        <time>2022-07-26T10:05:33Z</time>
      </trkpt>
      <trkpt lat="45.8948810" lon="5.6755270">
        <ele>465.3</ele>
        <time>2022-07-26T10:05:34Z</time>
      </trkpt>
      <trkpt lat="45.8948820" lon="5.6755480">
        <ele>465.5</ele>
        <time>2022-07-26T10:05:35Z</time>
      </trkpt>
      <trkpt lat="45.8948820" lon="5.6755660">
        <ele>465.6</ele>
        <time>2022-07-26T10:05:36Z</time>
      </trkpt>
      <trkpt lat="45.8948810" lon="5.6755840">
        <ele>465.8</ele>
        <time>2022-07-26T10:05:37Z</time>
      </trkpt>
      <trkpt lat="45.8948800" lon="5.6755970">
        <ele>465.9</ele>
        <time>2022-07-26T10:05:38Z</time>
      </trkpt>
      <trkpt lat="45.8948810" lon="5.6756140">
        <ele>466.9</ele>
        <time>2022-07-26T10:05:39Z</time>
      </trkpt>
      <trkpt lat="45.8948880" lon="5.6756240">
        <ele>467.0</ele>
        <time>2022-07-26T10:05:40Z</time>
      </trkpt>
      <trkpt lat="45.8948910" lon="5.6756290">
        <ele>467.0</ele>
        <time>2022-07-26T10:05:41Z</time>
      </trkpt>
      <trkpt lat="45.8948990" lon="5.6756350">
        <ele>467.1</ele>
        <time>2022-07-26T10:05:42Z</time>
      </trkpt>
      <trkpt lat="45.8949070" lon="5.6756400">
        <ele>467.2</ele>
        <time>2022-07-26T10:05:43Z</time>
      </trkpt>
      <trkpt lat="45.8949190" lon="5.6756460">
        <ele>467.4</ele>
        <time>2022-07-26T10:05:44Z</time>
      </trkpt>
      <trkpt lat="45.8949300" lon="5.6756540">
        <ele>467.5</ele>
        <time>2022-07-26T10:05:45Z</time>
      </trkpt>
      <trkpt lat="45.8949490" lon="5.6756720">
        <ele>467.8</ele>
        <time>2022-07-26T10:05:46Z</time>
      </trkpt>
      <trkpt lat="45.8949550" lon="5.6756780">
        <ele>467.9</ele>
        <time>2022-07-26T10:05:47Z</time>
      </trkpt>
      <trkpt lat="45.8949610" lon="5.6756840">
        <ele>468.0</ele>
        <time>2022-07-26T10:05:48Z</time>
      </trkpt>
      <trkpt lat="45.8949770" lon="5.6757060">
        <ele>468.2</ele>
        <time>2022-07-26T10:05:49Z</time>
      </trkpt>
      <trkpt lat="45.8949830" lon="5.6757150">
        <ele>468.3</ele>
        <time>2022-07-26T10:05:50Z</time>
      </trkpt>
      <trkpt lat="45.8949900" lon="5.6757240">
        <ele>468.5</ele>
        <time>2022-07-26T10:05:51Z</time>
      </trkpt>
      <trkpt lat="45.8949950" lon="5.6757320">
        <ele>468.6</ele>
        <time>2022-07-26T10:05:52Z</time>
      </trkpt>
      <trkpt lat="45.8950040" lon="5.6757450">
        <ele>468.7</ele>
        <time>2022-07-26T10:05:53Z</time>
      </trkpt>
      <trkpt lat="45.8950120" lon="5.6757560">
        <ele>468.9</ele>
        <time>2022-07-26T10:05:54Z</time>
      </trkpt>
      <trkpt lat="45.8950200" lon="5.6757680">
        <ele>469.0</ele>
        <time>2022-07-26T10:05:55Z</time>
      </trkpt>
      <trkpt lat="45.8950290" lon="5.6757810">
        <ele>469.2</ele>
        <time>2022-07-26T10:05:56Z</time>
      </trkpt>
      <trkpt lat="45.8950460" lon="5.6758030">
        <ele>469.5</ele>
        <time>2022-07-26T10:05:58Z</time>
      </trkpt>
      <trkpt lat="45.8950600" lon="5.6758280">
        <ele>469.8</ele>
        <time>2022-07-26T10:05:59Z</time>
      </trkpt>
      <trkpt lat="45.8950650" lon="5.6758390">
        <ele>469.9</ele>
        <time>2022-07-26T10:06:00Z</time>
      </trkpt>
      <trkpt lat="45.8950710" lon="5.6758500">
        <ele>470.1</ele>
        <time>2022-07-26T10:06:01Z</time>
      </trkpt>
      <trkpt lat="45.8950770" lon="5.6758610">
        <ele>470.2</ele>
        <time>2022-07-26T10:06:02Z</time>
      </trkpt>
      <trkpt lat="45.8950850" lon="5.6758730">
        <ele>470.3</ele>
        <time>2022-07-26T10:06:03Z</time>
      </trkpt>
      <trkpt lat="45.8950940" lon="5.6758870">
        <ele>470.5</ele>
        <time>2022-07-26T10:06:04Z</time>
      </trkpt>
      <trkpt lat="45.8951000" lon="5.6759000">
        <ele>470.7</ele>
        <time>2022-07-26T10:06:05Z</time>
      </trkpt>
      <trkpt lat="45.8951070" lon="5.6759120">
        <ele>470.8</ele>
        <time>2022-07-26T10:06:06Z</time>
      </trkpt>
      <trkpt lat="45.8951120" lon="5.6759200">
        <ele>470.9</ele>
        <time>2022-07-26T10:06:07Z</time>
      </trkpt>
      <trkpt lat="45.8951150" lon="5.6759320">
        <ele>471.0</ele>
        <time>2022-07-26T10:06:08Z</time>
      </trkpt>
      <trkpt lat="45.8951180" lon="5.6759450">
        <ele>471.2</ele>
        <time>2022-07-26T10:06:09Z</time>
      </trkpt>
      <trkpt lat="45.8951220" lon="5.6759600">
        <ele>471.3</ele>
        <time>2022-07-26T10:06:10Z</time>
      </trkpt>
      <trkpt lat="45.8951320" lon="5.6759880">
        <ele>471.6</ele>
        <time>2022-07-26T10:06:12Z</time>
      </trkpt>
      <trkpt lat="45.8951430" lon="5.6760150">
        <ele>471.9</ele>
        <time>2022-07-26T10:06:14Z</time>
      </trkpt>
      <trkpt lat="45.8951510" lon="5.6760320">
        <ele>472.1</ele>
        <time>2022-07-26T10:06:15Z</time>
      </trkpt>
      <trkpt lat="45.8951580" lon="5.6760440">
        <ele>472.2</ele>
        <time>2022-07-26T10:06:16Z</time>
      </trkpt>
      <trkpt lat="45.8951650" lon="5.6760540">
        <ele>472.4</ele>
        <time>2022-07-26T10:06:17Z</time>
      </trkpt>
      <trkpt lat="45.8951760" lon="5.6760700">
        <ele>472.6</ele>
        <time>2022-07-26T10:06:18Z</time>
      </trkpt>
      <trkpt lat="45.8951830" lon="5.6760850">
        <ele>472.8</ele>
        <time>2022-07-26T10:06:19Z</time>
      </trkpt>
      <trkpt lat="45.8951970" lon="5.6761230">
        <ele>473.2</ele>
        <time>2022-07-26T10:06:21Z</time>
      </trkpt>
      <trkpt lat="45.8952020" lon="5.6761320">
        <ele>473.3</ele>
        <time>2022-07-26T10:06:22Z</time>
      </trkpt>
      <trkpt lat="45.8952080" lon="5.6761420">
        <ele>473.4</ele>
        <time>2022-07-26T10:06:23Z</time>
      </trkpt>
      <trkpt lat="45.8952140" lon="5.6761520">
        <ele>473.5</ele>
        <time>2022-07-26T10:06:24Z</time>
      </trkpt>
      <trkpt lat="45.8952200" lon="5.6761620">
        <ele>473.7</ele>
        <time>2022-07-26T10:06:25Z</time>
      </trkpt>
      <trkpt lat="45.8952280" lon="5.6761710">
        <ele>473.8</ele>
        <time>2022-07-26T10:06:26Z</time>
      </trkpt>
      <trkpt lat="45.8952370" lon="5.6761780">
        <ele>474.0</ele>
        <time>2022-07-26T10:06:27Z</time>
      </trkpt>
      <trkpt lat="45.8952430" lon="5.6761820">
        <ele>474.0</ele>
        <time>2022-07-26T10:06:28Z</time>
      </trkpt>
      <trkpt lat="45.8952510" lon="5.6761920">
        <ele>474.2</ele>
        <time>2022-07-26T10:06:29Z</time>
      </trkpt>
      <trkpt lat="45.8952570" lon="5.6762010">
        <ele>474.3</ele>
        <time>2022-07-26T10:06:30Z</time>
      </trkpt>
      <trkpt lat="45.8952640" lon="5.6762140">
        <ele>474.5</ele>
        <time>2022-07-26T10:06:31Z</time>
      </trkpt>
      <trkpt lat="45.8952680" lon="5.6762220">
        <ele>474.6</ele>
        <time>2022-07-26T10:06:32Z</time>
      </trkpt>
      <trkpt lat="45.8952720" lon="5.6762310">
        <ele>474.7</ele>
        <time>2022-07-26T10:06:33Z</time>
      </trkpt>
      <trkpt lat="45.8952770" lon="5.6762380">
        <ele>474.8</ele>
        <time>2022-07-26T10:06:34Z</time>
      </trkpt>
      <trkpt lat="45.8952810" lon="5.6762420">
        <ele>474.9</ele>
        <time>2022-07-26T10:06:35Z</time>
      </trkpt>
      <trkpt lat="45.8952840" lon="5.6762450">
        <ele>474.9</ele>
        <time>2022-07-26T10:06:36Z</time>
      </trkpt>
      <trkpt lat="45.8952900" lon="5.6762560">
        <ele>475.1</ele>
        <time>2022-07-26T10:06:37Z</time>
      </trkpt>
      <trkpt lat="45.8952960" lon="5.6762720">
        <ele>475.3</ele>
        <time>2022-07-26T10:06:38Z</time>
      </trkpt>
      <trkpt lat="45.8953030" lon="5.6762890">
        <ele>475.5</ele>
        <time>2022-07-26T10:06:39Z</time>
      </trkpt>
      <trkpt lat="45.8953100" lon="5.6763070">
        <ele>475.7</ele>
        <time>2022-07-26T10:06:40Z</time>
      </trkpt>
      <trkpt lat="45.8953160" lon="5.6763160">
        <ele>475.9</ele>
        <time>2022-07-26T10:06:41Z</time>
      </trkpt>
      <trkpt lat="45.8953240" lon="5.6763290">
        <ele>476.1</ele>
        <time>2022-07-26T10:06:42Z</time>
      </trkpt>
      <trkpt lat="45.8953310" lon="5.6763410">
        <ele>476.3</ele>
        <time>2022-07-26T10:06:43Z</time>
      </trkpt>
      <trkpt lat="45.8953380" lon="5.6763520">
        <ele>476.4</ele>
        <time>2022-07-26T10:06:44Z</time>
      </trkpt>
      <trkpt lat="45.8953430" lon="5.6763600">
        <ele>476.6</ele>
        <time>2022-07-26T10:06:45Z</time>
      </trkpt>
      <trkpt lat="45.8953470" lon="5.6763690">
        <ele>476.7</ele>
        <time>2022-07-26T10:06:46Z</time>
      </trkpt>
      <trkpt lat="45.8953510" lon="5.6763760">
        <ele>476.8</ele>
        <time>2022-07-26T10:06:47Z</time>
      </trkpt>
      <trkpt lat="45.8953560" lon="5.6763820">
        <ele>476.9</ele>
        <time>2022-07-26T10:06:48Z</time>
      </trkpt>
      <trkpt lat="45.8953610" lon="5.6763890">
        <ele>477.1</ele>
        <time>2022-07-26T10:06:49Z</time>
      </trkpt>
      <trkpt lat="45.8953640" lon="5.6763950">
        <ele>477.2</ele>
        <time>2022-07-26T10:06:50Z</time>
      </trkpt>
      <trkpt lat="45.8953670" lon="5.6764070">
        <ele>477.3</ele>
        <time>2022-07-26T10:06:51Z</time>
      </trkpt>
      <trkpt lat="45.8953710" lon="5.6764250">
        <ele>477.6</ele>
        <time>2022-07-26T10:06:52Z</time>
      </trkpt>
      <trkpt lat="45.8953790" lon="5.6764350">
        <ele>477.8</ele>
        <time>2022-07-26T10:06:53Z</time>
      </trkpt>
      <trkpt lat="45.8953890" lon="5.6764420">
        <ele>478.0</ele>
        <time>2022-07-26T10:06:54Z</time>
      </trkpt>
      <trkpt lat="45.8954020" lon="5.6764500">
        <ele>478.2</ele>
        <time>2022-07-26T10:06:55Z</time>
      </trkpt>
      <trkpt lat="45.8954200" lon="5.6764630">
        <ele>478.6</ele>
        <time>2022-07-26T10:06:56Z</time>
      </trkpt>
      <trkpt lat="45.8954280" lon="5.6764670">
        <ele>478.8</ele>
        <time>2022-07-26T10:06:57Z</time>
      </trkpt>
      <trkpt lat="45.8954360" lon="5.6764720">
        <ele>478.9</ele>
        <time>2022-07-26T10:06:58Z</time>
      </trkpt>
      <trkpt lat="45.8954540" lon="5.6764870">
        <ele>479.3</ele>
        <time>2022-07-26T10:06:59Z</time>
      </trkpt>
      <trkpt lat="45.8954610" lon="5.6764950">
        <ele>479.5</ele>
        <time>2022-07-26T10:07:00Z</time>
      </trkpt>
      <trkpt lat="45.8954670" lon="5.6765020">
        <ele>479.6</ele>
        <time>2022-07-26T10:07:01Z</time>
      </trkpt>
      <trkpt lat="45.8954750" lon="5.6765140">
        <ele>479.9</ele>
        <time>2022-07-26T10:07:02Z</time>
      </trkpt>
      <trkpt lat="45.8954840" lon="5.6765310">
        <ele>480.1</ele>
        <time>2022-07-26T10:07:03Z</time>
      </trkpt>
      <trkpt lat="45.8954900" lon="5.6765420">
        <ele>480.3</ele>
        <time>2022-07-26T10:07:04Z</time>
      </trkpt>
      <trkpt lat="45.8954970" lon="5.6765530">
        <ele>480.5</ele>
        <time>2022-07-26T10:07:05Z</time>
      </trkpt>
      <trkpt lat="45.8955020" lon="5.6765650">
        <ele>480.7</ele>
        <time>2022-07-26T10:07:06Z</time>
      </trkpt>
      <trkpt lat="45.8955060" lon="5.6765740">
        <ele>480.8</ele>
        <time>2022-07-26T10:07:07Z</time>
      </trkpt>
      <trkpt lat="45.8955090" lon="5.6765800">
        <ele>480.9</ele>
        <time>2022-07-26T10:07:08Z</time>
      </trkpt>
      <trkpt lat="45.8955150" lon="5.6765900">
        <ele>481.1</ele>
        <time>2022-07-26T10:07:09Z</time>
      </trkpt>
      <trkpt lat="45.8955220" lon="5.6766040">
        <ele>481.3</ele>
        <time>2022-07-26T10:07:10Z</time>
      </trkpt>
      <trkpt lat="45.8955250" lon="5.6766140">
        <ele>481.4</ele>
        <time>2022-07-26T10:07:11Z</time>
      </trkpt>
      <trkpt lat="45.8955240" lon="5.6766190">
        <ele>481.5</ele>
        <time>2022-07-26T10:07:12Z</time>
      </trkpt>
      <trkpt lat="45.8955260" lon="5.6766280">
        <ele>481.6</ele>
        <time>2022-07-26T10:07:13Z</time>
      </trkpt>
      <trkpt lat="45.8955270" lon="5.6766380">
        <ele>481.7</ele>
        <time>2022-07-26T10:07:14Z</time>
      </trkpt>
      <trkpt lat="45.8955310" lon="5.6766540">
        <ele>481.9</ele>
        <time>2022-07-26T10:07:15Z</time>
      </trkpt>
      <trkpt lat="45.8955340" lon="5.6766660">
        <ele>482.1</ele>
        <time>2022-07-26T10:07:16Z</time>
      </trkpt>
      <trkpt lat="45.8955370" lon="5.6766760">
        <ele>482.2</ele>
        <time>2022-07-26T10:07:17Z</time>
      </trkpt>
      <trkpt lat="45.8955410" lon="5.6766910">
        <ele>482.4</ele>
        <time>2022-07-26T10:07:18Z</time>
      </trkpt>
      <trkpt lat="45.8955450" lon="5.6766970">
        <ele>482.5</ele>
        <time>2022-07-26T10:07:19Z</time>
      </trkpt>
      <trkpt lat="45.8955490" lon="5.6767010">
        <ele>482.6</ele>
        <time>2022-07-26T10:07:20Z</time>
      </trkpt>
      <trkpt lat="45.8955490" lon="5.6766980">
        <ele>482.6</ele>
        <time>2022-07-26T10:07:21Z</time>
      </trkpt>
      <trkpt lat="45.8955500" lon="5.6767010">
        <ele>482.6</ele>
        <time>2022-07-26T10:07:22Z</time>
      </trkpt>
      <trkpt lat="45.8955550" lon="5.6767110">
        <ele>482.8</ele>
        <time>2022-07-26T10:07:23Z</time>
      </trkpt>
      <trkpt lat="45.8955600" lon="5.6767220">
        <ele>482.9</ele>
        <time>2022-07-26T10:07:24Z</time>
      </trkpt>
      <trkpt lat="45.8955660" lon="5.6767380">
        <ele>483.1</ele>
        <time>2022-07-26T10:07:25Z</time>
      </trkpt>
      <trkpt lat="45.8955720" lon="5.6767500">
        <ele>483.3</ele>
        <time>2022-07-26T10:07:26Z</time>
      </trkpt>
      <trkpt lat="45.8955670" lon="5.6767490">
        <ele>483.4</ele>
        <time>2022-07-26T10:07:27Z</time>
      </trkpt>
      <trkpt lat="45.8955670" lon="5.6767590">
        <ele>483.5</ele>
        <time>2022-07-26T10:07:29Z</time>
      </trkpt>
      <trkpt lat="45.8955710" lon="5.6767690">
        <ele>483.6</ele>
        <time>2022-07-26T10:07:30Z</time>
      </trkpt>
      <trkpt lat="45.8955820" lon="5.6767850">
        <ele>483.9</ele>
        <time>2022-07-26T10:07:31Z</time>
      </trkpt>
      <trkpt lat="45.8955900" lon="5.6767980">
        <ele>484.1</ele>
        <time>2022-07-26T10:07:32Z</time>
      </trkpt>
      <trkpt lat="45.8955990" lon="5.6768120">
        <ele>484.3</ele>
        <time>2022-07-26T10:07:33Z</time>
      </trkpt>
      <trkpt lat="45.8956100" lon="5.6768300">
        <ele>484.6</ele>
        <time>2022-07-26T10:07:34Z</time>
      </trkpt>
      <trkpt lat="45.8956290" lon="5.6768500">
        <ele>485.0</ele>
        <time>2022-07-26T10:07:35Z</time>
      </trkpt>
      <trkpt lat="45.8956370" lon="5.6768570">
        <ele>485.1</ele>
        <time>2022-07-26T10:07:36Z</time>
      </trkpt>
      <trkpt lat="45.8956450" lon="5.6768640">
        <ele>485.3</ele>
        <time>2022-07-26T10:07:37Z</time>
      </trkpt>
      <trkpt lat="45.8956660" lon="5.6768860">
        <ele>485.7</ele>
        <time>2022-07-26T10:07:39Z</time>
      </trkpt>
      <trkpt lat="45.8956760" lon="5.6768980">
        <ele>486.0</ele>
        <time>2022-07-26T10:07:40Z</time>
      </trkpt>
      <trkpt lat="45.8956860" lon="5.6769120">
        <ele>486.2</ele>
        <time>2022-07-26T10:07:42Z</time>
      </trkpt>
      <trkpt lat="45.8956940" lon="5.6769230">
        <ele>486.4</ele>
        <time>2022-07-26T10:07:43Z</time>
      </trkpt>
      <trkpt lat="45.8957010" lon="5.6769330">
        <ele>486.5</ele>
        <time>2022-07-26T10:07:44Z</time>
      </trkpt>
      <trkpt lat="45.8957120" lon="5.6769490">
        <ele>486.8</ele>
        <time>2022-07-26T10:07:45Z</time>
      </trkpt>
      <trkpt lat="45.8957230" lon="5.6769630">
        <ele>487.0</ele>
        <time>2022-07-26T10:07:46Z</time>
      </trkpt>
      <trkpt lat="45.8957350" lon="5.6769760">
        <ele>487.3</ele>
        <time>2022-07-26T10:07:47Z</time>
      </trkpt>
      <trkpt lat="45.8957480" lon="5.6769890">
        <ele>487.5</ele>
        <time>2022-07-26T10:07:48Z</time>
      </trkpt>
      <trkpt lat="45.8957730" lon="5.6770160">
        <ele>488.0</ele>
        <time>2022-07-26T10:07:50Z</time>
      </trkpt>
      <trkpt lat="45.8957790" lon="5.6770210">
        <ele>488.1</ele>
        <time>2022-07-26T10:07:51Z</time>
      </trkpt>
      <trkpt lat="45.8957960" lon="5.6770320">
        <ele>488.4</ele>
        <time>2022-07-26T10:07:52Z</time>
      </trkpt>
      <trkpt lat="45.8958050" lon="5.6770400">
        <ele>488.6</ele>
        <time>2022-07-26T10:07:53Z</time>
      </trkpt>
      <trkpt lat="45.8958220" lon="5.6770600">
        <ele>488.9</ele>
        <time>2022-07-26T10:07:54Z</time>
      </trkpt>
      <trkpt lat="45.8958280" lon="5.6770690">
        <ele>489.0</ele>
        <time>2022-07-26T10:07:55Z</time>
      </trkpt>
      <trkpt lat="45.8958340" lon="5.6770780">
        <ele>489.1</ele>
        <time>2022-07-26T10:07:56Z</time>
      </trkpt>
      <trkpt lat="45.8958370" lon="5.6770860">
        <ele>489.2</ele>
        <time>2022-07-26T10:07:57Z</time>
      </trkpt>
      <trkpt lat="45.8958390" lon="5.6770900">
        <ele>489.3</ele>
        <time>2022-07-26T10:07:58Z</time>
      </trkpt>
      <trkpt lat="45.8958430" lon="5.6770980">
        <ele>489.4</ele>
        <time>2022-07-26T10:07:59Z</time>
      </trkpt>
      <trkpt lat="45.8958460" lon="5.6771050">
        <ele>489.5</ele>
        <time>2022-07-26T10:08:00Z</time>
      </trkpt>
      <trkpt lat="45.8958540" lon="5.6771160">
        <ele>489.6</ele>
        <time>2022-07-26T10:08:01Z</time>
      </trkpt>
      <trkpt lat="45.8958620" lon="5.6771270">
        <ele>489.8</ele>
        <time>2022-07-26T10:08:02Z</time>
      </trkpt>
      <trkpt lat="45.8958730" lon="5.6771400">
        <ele>490.0</ele>
        <time>2022-07-26T10:08:03Z</time>
      </trkpt>
      <trkpt lat="45.8958810" lon="5.6771490">
        <ele>490.2</ele>
        <time>2022-07-26T10:08:04Z</time>
      </trkpt>
      <trkpt lat="45.8958860" lon="5.6771570">
        <ele>490.3</ele>
        <time>2022-07-26T10:08:05Z</time>
      </trkpt>
      <trkpt lat="45.8958880" lon="5.6771610">
        <ele>490.3</ele>
        <time>2022-07-26T10:08:06Z</time>
      </trkpt>
      <trkpt lat="45.8958870" lon="5.6771610">
        <ele>490.3</ele>
        <time>2022-07-26T10:08:07Z</time>
      </trkpt>
      <trkpt lat="45.8958880" lon="5.6771680">
        <ele>490.4</ele>
        <time>2022-07-26T10:08:08Z</time>
      </trkpt>
      <trkpt lat="45.8958910" lon="5.6771760">
        <ele>490.5</ele>
        <time>2022-07-26T10:08:09Z</time>
      </trkpt>
      <trkpt lat="45.8958940" lon="5.6771850">
        <ele>490.6</ele>
        <time>2022-07-26T10:08:10Z</time>
      </trkpt>
      <trkpt lat="45.8959020" lon="5.6772000">
        <ele>490.8</ele>
        <time>2022-07-26T10:08:11Z</time>
      </trkpt>
      <trkpt lat="45.8959070" lon="5.6772100">
        <ele>490.9</ele>
        <time>2022-07-26T10:08:12Z</time>
      </trkpt>
      <trkpt lat="45.8959120" lon="5.6772190">
        <ele>491.1</ele>
        <time>2022-07-26T10:08:13Z</time>
      </trkpt>
      <trkpt lat="45.8959160" lon="5.6772260">
        <ele>491.2</ele>
        <time>2022-07-26T10:08:14Z</time>
      </trkpt>
      <trkpt lat="45.8959210" lon="5.6772330">
        <ele>491.3</ele>
        <time>2022-07-26T10:08:15Z</time>
      </trkpt>
      <trkpt lat="45.8959230" lon="5.6772360">
        <ele>491.3</ele>
        <time>2022-07-26T10:08:16Z</time>
      </trkpt>
      <trkpt lat="45.8959250" lon="5.6772400">
        <ele>491.4</ele>
        <time>2022-07-26T10:08:17Z</time>
      </trkpt>
      <trkpt lat="45.8959290" lon="5.6772450">
        <ele>491.4</ele>
        <time>2022-07-26T10:08:18Z</time>
      </trkpt>
      <trkpt lat="45.8959330" lon="5.6772490">
        <ele>491.5</ele>
        <time>2022-07-26T10:08:19Z</time>
      </trkpt>
      <trkpt lat="45.8959400" lon="5.6772590">
        <ele>491.7</ele>
        <time>2022-07-26T10:08:20Z</time>
      </trkpt>
      <trkpt lat="45.8959470" lon="5.6772680">
        <ele>491.8</ele>
        <time>2022-07-26T10:08:21Z</time>
      </trkpt>
      <trkpt lat="45.8959540" lon="5.6772770">
        <ele>491.9</ele>
        <time>2022-07-26T10:08:22Z</time>
      </trkpt>
      <trkpt lat="45.8959630" lon="5.6772890">
        <ele>492.1</ele>
        <time>2022-07-26T10:08:23Z</time>
      </trkpt>
      <trkpt lat="45.8959730" lon="5.6773010">
        <ele>492.3</ele>
        <time>2022-07-26T10:08:24Z</time>
      </trkpt>
      <trkpt lat="45.8959790" lon="5.6773080">
        <ele>492.5</ele>
        <time>2022-07-26T10:08:25Z</time>
      </trkpt>
      <trkpt lat="45.8959870" lon="5.6773170">
        <ele>492.6</ele>
        <time>2022-07-26T10:08:26Z</time>
      </trkpt>
      <trkpt lat="45.8959950" lon="5.6773260">
        <ele>492.8</ele>
        <time>2022-07-26T10:08:27Z</time>
      </trkpt>
      <trkpt lat="45.8960040" lon="5.6773340">
        <ele>493.0</ele>
        <time>2022-07-26T10:08:28Z</time>
      </trkpt>
      <trkpt lat="45.8960120" lon="5.6773420">
        <ele>493.1</ele>
        <time>2022-07-26T10:08:29Z</time>
      </trkpt>
      <trkpt lat="45.8960230" lon="5.6773510">
        <ele>493.4</ele>
        <time>2022-07-26T10:08:30Z</time>
      </trkpt>
      <trkpt lat="45.8960350" lon="5.6773590">
        <ele>493.6</ele>
        <time>2022-07-26T10:08:31Z</time>
      </trkpt>
      <trkpt lat="45.8960480" lon="5.6773700">
        <ele>493.8</ele>
        <time>2022-07-26T10:08:32Z</time>
      </trkpt>
      <trkpt lat="45.8960540" lon="5.6773760">
        <ele>494.0</ele>
        <time>2022-07-26T10:08:33Z</time>
      </trkpt>
      <trkpt lat="45.8960600" lon="5.6773830">
        <ele>494.1</ele>
        <time>2022-07-26T10:08:34Z</time>
      </trkpt>
      <trkpt lat="45.8960660" lon="5.6773890">
        <ele>494.2</ele>
        <time>2022-07-26T10:08:35Z</time>
      </trkpt>
      <trkpt lat="45.8960710" lon="5.6773970">
        <ele>494.3</ele>
        <time>2022-07-26T10:08:36Z</time>
      </trkpt>
      <trkpt lat="45.8960770" lon="5.6774060">
        <ele>494.5</ele>
        <time>2022-07-26T10:08:37Z</time>
      </trkpt>
      <trkpt lat="45.8960800" lon="5.6774110">
        <ele>494.6</ele>
        <time>2022-07-26T10:08:38Z</time>
      </trkpt>
      <trkpt lat="45.8960770" lon="5.6774170">
        <ele>494.6</ele>
        <time>2022-07-26T10:08:39Z</time>
      </trkpt>
      <trkpt lat="45.8960720" lon="5.6774190">
        <ele>494.7</ele>
        <time>2022-07-26T10:08:40Z</time>
      </trkpt>
      <trkpt lat="45.8960650" lon="5.6774230">
        <ele>494.9</ele>
        <time>2022-07-26T10:08:41Z</time>
      </trkpt>
      <trkpt lat="45.8960610" lon="5.6774280">
        <ele>494.9</ele>
        <time>2022-07-26T10:08:42Z</time>
      </trkpt>
      <trkpt lat="45.8960600" lon="5.6774350">
        <ele>495.0</ele>
        <time>2022-07-26T10:08:43Z</time>
      </trkpt>
      <trkpt lat="45.8960590" lon="5.6774430">
        <ele>495.1</ele>
        <time>2022-07-26T10:08:44Z</time>
      </trkpt>
      <trkpt lat="45.8960620" lon="5.6774510">
        <ele>495.2</ele>
        <time>2022-07-26T10:08:45Z</time>
      </trkpt>
      <trkpt lat="45.8960650" lon="5.6774570">
        <ele>495.3</ele>
        <time>2022-07-26T10:08:46Z</time>
      </trkpt>
      <trkpt lat="45.8960690" lon="5.6774640">
        <ele>495.4</ele>
        <time>2022-07-26T10:08:47Z</time>
      </trkpt>
      <trkpt lat="45.8960730" lon="5.6774720">
        <ele>495.5</ele>
        <time>2022-07-26T10:08:48Z</time>
      </trkpt>
      <trkpt lat="45.8960780" lon="5.6774790">
        <ele>495.7</ele>
        <time>2022-07-26T10:08:49Z</time>
      </trkpt>
      <trkpt lat="45.8960860" lon="5.6774850">
        <ele>495.8</ele>
        <time>2022-07-26T10:08:50Z</time>
      </trkpt>
      <trkpt lat="45.8960940" lon="5.6774900">
        <ele>496.0</ele>
        <time>2022-07-26T10:08:51Z</time>
      </trkpt>
      <trkpt lat="45.8961040" lon="5.6774910">
        <ele>496.1</ele>
        <time>2022-07-26T10:08:52Z</time>
      </trkpt>
      <trkpt lat="45.8961130" lon="5.6774930">
        <ele>496.3</ele>
        <time>2022-07-26T10:08:53Z</time>
      </trkpt>
      <trkpt lat="45.8961230" lon="5.6774970">
        <ele>496.4</ele>
        <time>2022-07-26T10:08:54Z</time>
      </trkpt>
      <trkpt lat="45.8961330" lon="5.6775070">
        <ele>496.6</ele>
        <time>2022-07-26T10:08:55Z</time>
      </trkpt>
      <trkpt lat="45.8961370" lon="5.6775150">
        <ele>496.7</ele>
        <time>2022-07-26T10:08:56Z</time>
      </trkpt>
      <trkpt lat="45.8961430" lon="5.6775230">
        <ele>496.9</ele>
        <time>2022-07-26T10:08:57Z</time>
      </trkpt>
      <trkpt lat="45.8961540" lon="5.6775340">
        <ele>497.1</ele>
        <time>2022-07-26T10:08:58Z</time>
      </trkpt>
      <trkpt lat="45.8961640" lon="5.6775410">
        <ele>497.2</ele>
        <time>2022-07-26T10:08:59Z</time>
      </trkpt>
      <trkpt lat="45.8961750" lon="5.6775470">
        <ele>497.4</ele>
        <time>2022-07-26T10:09:00Z</time>
      </trkpt>
      <trkpt lat="45.8961820" lon="5.6775510">
        <ele>497.5</ele>
        <time>2022-07-26T10:09:01Z</time>
      </trkpt>
      <trkpt lat="45.8961890" lon="5.6775580">
        <ele>497.6</ele>
        <time>2022-07-26T10:09:02Z</time>
      </trkpt>
      <trkpt lat="45.8961930" lon="5.6775700">
        <ele>497.8</ele>
        <time>2022-07-26T10:09:03Z</time>
      </trkpt>
      <trkpt lat="45.8961950" lon="5.6775820">
        <ele>497.9</ele>
        <time>2022-07-26T10:09:04Z</time>
      </trkpt>
      <trkpt lat="45.8961930" lon="5.6775960">
        <ele>498.0</ele>
        <time>2022-07-26T10:09:05Z</time>
      </trkpt>
      <trkpt lat="45.8961920" lon="5.6776040">
        <ele>498.1</ele>
        <time>2022-07-26T10:09:06Z</time>
      </trkpt>
      <trkpt lat="45.8961900" lon="5.6776070">
        <ele>498.1</ele>
        <time>2022-07-26T10:09:07Z</time>
      </trkpt>
      <trkpt lat="45.8961910" lon="5.6776080">
        <ele>498.1</ele>
        <time>2022-07-26T10:09:08Z</time>
      </trkpt>
      <trkpt lat="45.8961990" lon="5.6776160">
        <ele>498.2</ele>
        <time>2022-07-26T10:09:09Z</time>
      </trkpt>
      <trkpt lat="45.8962040" lon="5.6776210">
        <ele>498.3</ele>
        <time>2022-07-26T10:09:10Z</time>
      </trkpt>
      <trkpt lat="45.8962080" lon="5.6776250">
        <ele>498.4</ele>
        <time>2022-07-26T10:09:11Z</time>
      </trkpt>
      <trkpt lat="45.8962140" lon="5.6776340">
        <ele>498.5</ele>
        <time>2022-07-26T10:09:12Z</time>
      </trkpt>
      <trkpt lat="45.8962170" lon="5.6776410">
        <ele>498.5</ele>
        <time>2022-07-26T10:09:13Z</time>
      </trkpt>
      <trkpt lat="45.8962190" lon="5.6776500">
        <ele>498.6</ele>
        <time>2022-07-26T10:09:14Z</time>
      </trkpt>
      <trkpt lat="45.8962200" lon="5.6776580">
        <ele>498.6</ele>
        <time>2022-07-26T10:09:15Z</time>
      </trkpt>
      <trkpt lat="45.8962210" lon="5.6776660">
        <ele>498.7</ele>
        <time>2022-07-26T10:09:16Z</time>
      </trkpt>
      <trkpt lat="45.8962220" lon="5.6776740">
        <ele>498.8</ele>
        <time>2022-07-26T10:09:17Z</time>
      </trkpt>
      <trkpt lat="45.8962210" lon="5.6776840">
        <ele>498.8</ele>
        <time>2022-07-26T10:09:18Z</time>
      </trkpt>
      <trkpt lat="45.8962190" lon="5.6776900">
        <ele>498.9</ele>
        <time>2022-07-26T10:09:19Z</time>
      </trkpt>
      <trkpt lat="45.8962180" lon="5.6776920">
        <ele>498.9</ele>
        <time>2022-07-26T10:09:20Z</time>
      </trkpt>
      <trkpt lat="45.8962170" lon="5.6777000">
        <ele>498.9</ele>
        <time>2022-07-26T10:09:21Z</time>
      </trkpt>
      <trkpt lat="45.8962140" lon="5.6777140">
        <ele>499.0</ele>
        <time>2022-07-26T10:09:22Z</time>
      </trkpt>
      <trkpt lat="45.8962180" lon="5.6777160">
        <ele>499.0</ele>
        <time>2022-07-26T10:09:23Z</time>
      </trkpt>
      <trkpt lat="45.8962160" lon="5.6777190">
        <ele>499.1</ele>
        <time>2022-07-26T10:09:24Z</time>
      </trkpt>
      <trkpt lat="45.8962160" lon="5.6777180">
        <ele>499.1</ele>
        <time>2022-07-26T10:09:25Z</time>
      </trkpt>
      <trkpt lat="45.8962190" lon="5.6777170">
        <ele>499.1</ele>
        <time>2022-07-26T10:09:26Z</time>
      </trkpt>
      <trkpt lat="45.8962210" lon="5.6777160">
        <ele>499.1</ele>
        <time>2022-07-26T10:09:27Z</time>
      </trkpt>
      <trkpt lat="45.8962240" lon="5.6777160">
        <ele>499.1</ele>
        <time>2022-07-26T10:09:28Z</time>
      </trkpt>
      <trkpt lat="45.8962260" lon="5.6777190">
        <ele>499.1</ele>
        <time>2022-07-26T10:09:29Z</time>
      </trkpt>
      <trkpt lat="45.8962260" lon="5.6777300">
        <ele>499.2</ele>
        <time>2022-07-26T10:09:30Z</time>
      </trkpt>
      <trkpt lat="45.8962240" lon="5.6777540">
        <ele>499.3</ele>
        <time>2022-07-26T10:09:31Z</time>
      </trkpt>
      <trkpt lat="45.8962160" lon="5.6777920">
        <ele>499.4</ele>
        <time>2022-07-26T10:09:33Z</time>
      </trkpt>
      <trkpt lat="45.8962120" lon="5.6778050">
        <ele>499.5</ele>
        <time>2022-07-26T10:09:34Z</time>
      </trkpt>
      <trkpt lat="45.8962030" lon="5.6778470">
        <ele>499.6</ele>
        <time>2022-07-26T10:09:35Z</time>
      </trkpt>
      <trkpt lat="45.8962000" lon="5.6778600">
        <ele>499.6</ele>
        <time>2022-07-26T10:09:36Z</time>
      </trkpt>
      <trkpt lat="45.8961960" lon="5.6779070">
        <ele>499.8</ele>
        <time>2022-07-26T10:09:38Z</time>
      </trkpt>
      <trkpt lat="45.8961940" lon="5.6779180">
        <ele>499.8</ele>
        <time>2022-07-26T10:09:39Z</time>
      </trkpt>
      <trkpt lat="45.8961950" lon="5.6779590">
        <ele>499.9</ele>
        <time>2022-07-26T10:09:40Z</time>
      </trkpt>
      <trkpt lat="45.8961960" lon="5.6779750">
        <ele>499.9</ele>
        <time>2022-07-26T10:09:41Z</time>
      </trkpt>
      <trkpt lat="45.8961990" lon="5.6780270">
        <ele>500.0</ele>
        <time>2022-07-26T10:09:42Z</time>
      </trkpt>
      <trkpt lat="45.8961990" lon="5.6780470">
        <ele>500.1</ele>
        <time>2022-07-26T10:09:43Z</time>
      </trkpt>
      <trkpt lat="45.8962000" lon="5.6780970">
        <ele>500.2</ele>
        <time>2022-07-26T10:09:45Z</time>
      </trkpt>
      <trkpt lat="45.8961960" lon="5.6781460">
        <ele>500.3</ele>
        <time>2022-07-26T10:09:46Z</time>
      </trkpt>
      <trkpt lat="45.8962000" lon="5.6781950">
        <ele>500.4</ele>
        <time>2022-07-26T10:09:47Z</time>
      </trkpt>
      <trkpt lat="45.8962030" lon="5.6782130">
        <ele>500.4</ele>
        <time>2022-07-26T10:09:48Z</time>
      </trkpt>
      <trkpt lat="45.8962060" lon="5.6782570">
        <ele>500.5</ele>
        <time>2022-07-26T10:09:50Z</time>
      </trkpt>
      <trkpt lat="45.8962060" lon="5.6782680">
        <ele>500.5</ele>
        <time>2022-07-26T10:09:51Z</time>
      </trkpt>
      <trkpt lat="45.8962040" lon="5.6782920">
        <ele>500.6</ele>
        <time>2022-07-26T10:09:52Z</time>
      </trkpt>
      <trkpt lat="45.8962020" lon="5.6783120">
        <ele>500.6</ele>
        <time>2022-07-26T10:09:53Z</time>
      </trkpt>
      <trkpt lat="45.8962010" lon="5.6783630">
        <ele>500.8</ele>
        <time>2022-07-26T10:09:54Z</time>
      </trkpt>
      <trkpt lat="45.8962020" lon="5.6783810">
        <ele>500.8</ele>
        <time>2022-07-26T10:09:55Z</time>
      </trkpt>
      <trkpt lat="45.8962010" lon="5.6784110">
        <ele>500.9</ele>
        <time>2022-07-26T10:09:56Z</time>
      </trkpt>
      <trkpt lat="45.8961970" lon="5.6784470">
        <ele>501.0</ele>
        <time>2022-07-26T10:09:58Z</time>
      </trkpt>
      <trkpt lat="45.8961940" lon="5.6784890">
        <ele>501.1</ele>
        <time>2022-07-26T10:09:59Z</time>
      </trkpt>
      <trkpt lat="45.8961890" lon="5.6785110">
        <ele>501.1</ele>
        <time>2022-07-26T10:10:00Z</time>
      </trkpt>
      <trkpt lat="45.8961840" lon="5.6785340">
        <ele>501.1</ele>
        <time>2022-07-26T10:10:01Z</time>
      </trkpt>
      <trkpt lat="45.8961730" lon="5.6785810">
        <ele>501.2</ele>
        <time>2022-07-26T10:10:02Z</time>
      </trkpt>
      <trkpt lat="45.8961650" lon="5.6786200">
        <ele>501.2</ele>
        <time>2022-07-26T10:10:03Z</time>
      </trkpt>
      <trkpt lat="45.8961600" lon="5.6786650">
        <ele>501.2</ele>
        <time>2022-07-26T10:10:05Z</time>
      </trkpt>
      <trkpt lat="45.8961570" lon="5.6787130">
        <ele>501.2</ele>
        <time>2022-07-26T10:10:06Z</time>
      </trkpt>
      <trkpt lat="45.8961600" lon="5.6787640">
        <ele>501.2</ele>
        <time>2022-07-26T10:10:07Z</time>
      </trkpt>
      <trkpt lat="45.8961610" lon="5.6788030">
        <ele>501.2</ele>
        <time>2022-07-26T10:10:08Z</time>
      </trkpt>
      <trkpt lat="45.8961620" lon="5.6788520">
        <ele>501.2</ele>
        <time>2022-07-26T10:10:09Z</time>
      </trkpt>
      <trkpt lat="45.8961620" lon="5.6789050">
        <ele>501.2</ele>
        <time>2022-07-26T10:10:10Z</time>
      </trkpt>
      <trkpt lat="45.8961570" lon="5.6789580">
        <ele>501.1</ele>
        <time>2022-07-26T10:10:11Z</time>
      </trkpt>
      <trkpt lat="45.8961510" lon="5.6790340">
        <ele>501.1</ele>
        <time>2022-07-26T10:10:12Z</time>
      </trkpt>
      <trkpt lat="45.8961480" lon="5.6790850">
        <ele>501.0</ele>
        <time>2022-07-26T10:10:13Z</time>
      </trkpt>
      <trkpt lat="45.8961470" lon="5.6791520">
        <ele>500.9</ele>
        <time>2022-07-26T10:10:14Z</time>
      </trkpt>
      <trkpt lat="45.8961490" lon="5.6792120">
        <ele>500.9</ele>
        <time>2022-07-26T10:10:16Z</time>
      </trkpt>
      <trkpt lat="45.8961510" lon="5.6792760">
        <ele>500.8</ele>
        <time>2022-07-26T10:10:17Z</time>
      </trkpt>
      <trkpt lat="45.8961490" lon="5.6793150">
        <ele>500.7</ele>
        <time>2022-07-26T10:10:18Z</time>
      </trkpt>
      <trkpt lat="45.8961520" lon="5.6793590">
        <ele>500.6</ele>
        <time>2022-07-26T10:10:19Z</time>
      </trkpt>
      <trkpt lat="45.8961530" lon="5.6794210">
        <ele>500.6</ele>
        <time>2022-07-26T10:10:20Z</time>
      </trkpt>
      <trkpt lat="45.8961500" lon="5.6794880">
        <ele>500.5</ele>
        <time>2022-07-26T10:10:21Z</time>
      </trkpt>
      <trkpt lat="45.8961480" lon="5.6795510">
        <ele>500.4</ele>
        <time>2022-07-26T10:10:22Z</time>
      </trkpt>
      <trkpt lat="45.8961470" lon="5.6795980">
        <ele>500.3</ele>
        <time>2022-07-26T10:10:23Z</time>
      </trkpt>
      <trkpt lat="45.8961480" lon="5.6796500">
        <ele>500.3</ele>
        <time>2022-07-26T10:10:24Z</time>
      </trkpt>
      <trkpt lat="45.8961480" lon="5.6797100">
        <ele>500.2</ele>
        <time>2022-07-26T10:10:26Z</time>
      </trkpt>
      <trkpt lat="45.8961460" lon="5.6797630">
        <ele>500.2</ele>
        <time>2022-07-26T10:10:27Z</time>
      </trkpt>
      <trkpt lat="45.8961450" lon="5.6798130">
        <ele>500.2</ele>
        <time>2022-07-26T10:10:28Z</time>
      </trkpt>
      <trkpt lat="45.8961440" lon="5.6798760">
        <ele>500.1</ele>
        <time>2022-07-26T10:10:29Z</time>
      </trkpt>
      <trkpt lat="45.8961430" lon="5.6799240">
        <ele>500.1</ele>
        <time>2022-07-26T10:10:30Z</time>
      </trkpt>
      <trkpt lat="45.8961420" lon="5.6800120">
        <ele>500.0</ele>
        <time>2022-07-26T10:10:32Z</time>
      </trkpt>
      <trkpt lat="45.8961400" lon="5.6800620">
        <ele>500.0</ele>
        <time>2022-07-26T10:10:33Z</time>
      </trkpt>
      <trkpt lat="45.8961380" lon="5.6801210">
        <ele>499.9</ele>
        <time>2022-07-26T10:10:34Z</time>
      </trkpt>
      <trkpt lat="45.8961380" lon="5.6801640">
        <ele>499.9</ele>
        <time>2022-07-26T10:10:35Z</time>
      </trkpt>
      <trkpt lat="45.8961410" lon="5.6801950">
        <ele>499.9</ele>
        <time>2022-07-26T10:10:36Z</time>
      </trkpt>
      <trkpt lat="45.8961500" lon="5.6802290">
        <ele>499.9</ele>
        <time>2022-07-26T10:10:38Z</time>
      </trkpt>
      <trkpt lat="45.8961760" lon="5.6802570">
        <ele>500.3</ele>
        <time>2022-07-26T10:10:39Z</time>
      </trkpt>
      <trkpt lat="45.8961900" lon="5.6802670">
        <ele>500.4</ele>
        <time>2022-07-26T10:10:40Z</time>
      </trkpt>
      <trkpt lat="45.8962370" lon="5.6802700">
        <ele>500.7</ele>
        <time>2022-07-26T10:10:42Z</time>
      </trkpt>
      <trkpt lat="45.8962530" lon="5.6802650">
        <ele>500.8</ele>
        <time>2022-07-26T10:10:43Z</time>
      </trkpt>
      <trkpt lat="45.8962690" lon="5.6802600">
        <ele>500.9</ele>
        <time>2022-07-26T10:10:44Z</time>
      </trkpt>
      <trkpt lat="45.8962970" lon="5.6802450">
        <ele>501.1</ele>
        <time>2022-07-26T10:10:45Z</time>
      </trkpt>
      <trkpt lat="45.8963210" lon="5.6802360">
        <ele>501.3</ele>
        <time>2022-07-26T10:10:46Z</time>
      </trkpt>
      <trkpt lat="45.8963500" lon="5.6802270">
        <ele>501.5</ele>
        <time>2022-07-26T10:10:48Z</time>
      </trkpt>
      <trkpt lat="45.8963660" lon="5.6802230">
        <ele>501.6</ele>
        <time>2022-07-26T10:10:49Z</time>
      </trkpt>
      <trkpt lat="45.8963850" lon="5.6802200">
        <ele>501.8</ele>
        <time>2022-07-26T10:10:50Z</time>
      </trkpt>
      <trkpt lat="45.8964180" lon="5.6802120">
        <ele>502.0</ele>
        <time>2022-07-26T10:10:51Z</time>
      </trkpt>
      <trkpt lat="45.8964380" lon="5.6802050">
        <ele>502.2</ele>
        <time>2022-07-26T10:10:52Z</time>
      </trkpt>
      <trkpt lat="45.8964640" lon="5.6801970">
        <ele>502.4</ele>
        <time>2022-07-26T10:10:54Z</time>
      </trkpt>
      <trkpt lat="45.8964960" lon="5.6801820">
        <ele>502.6</ele>
        <time>2022-07-26T10:10:56Z</time>
      </trkpt>
      <trkpt lat="45.8965140" lon="5.6801770">
        <ele>502.8</ele>
        <time>2022-07-26T10:10:57Z</time>
      </trkpt>
      <trkpt lat="45.8965310" lon="5.6801740">
        <ele>502.9</ele>
        <time>2022-07-26T10:10:58Z</time>
      </trkpt>
      <trkpt lat="45.8965570" lon="5.6801720">
        <ele>503.1</ele>
        <time>2022-07-26T10:10:59Z</time>
      </trkpt>
      <trkpt lat="45.8965670" lon="5.6801710">
        <ele>503.2</ele>
        <time>2022-07-26T10:11:00Z</time>
      </trkpt>
      <trkpt lat="45.8965950" lon="5.6801640">
        <ele>503.4</ele>
        <time>2022-07-26T10:11:02Z</time>
      </trkpt>
      <trkpt lat="45.8966100" lon="5.6801660">
        <ele>503.5</ele>
        <time>2022-07-26T10:11:03Z</time>
      </trkpt>
      <trkpt lat="45.8966270" lon="5.6801680">
        <ele>503.6</ele>
        <time>2022-07-26T10:11:04Z</time>
      </trkpt>
      <trkpt lat="45.8966510" lon="5.6801850">
        <ele>503.8</ele>
        <time>2022-07-26T10:11:05Z</time>
      </trkpt>
      <trkpt lat="45.8966700" lon="5.6802050">
        <ele>504.2</ele>
        <time>2022-07-26T10:11:07Z</time>
      </trkpt>
      <trkpt lat="45.8966790" lon="5.6802420">
        <ele>504.4</ele>
        <time>2022-07-26T10:11:08Z</time>
      </trkpt>
      <trkpt lat="45.8966780" lon="5.6802590">
        <ele>504.5</ele>
        <time>2022-07-26T10:11:09Z</time>
      </trkpt>
      <trkpt lat="45.8966760" lon="5.6802830">
        <ele>504.6</ele>
        <time>2022-07-26T10:11:10Z</time>
      </trkpt>
      <trkpt lat="45.8966750" lon="5.6803080">
        <ele>504.7</ele>
        <time>2022-07-26T10:11:11Z</time>
      </trkpt>
      <trkpt lat="45.8966750" lon="5.6803800">
        <ele>504.9</ele>
        <time>2022-07-26T10:11:13Z</time>
      </trkpt>
      <trkpt lat="45.8966770" lon="5.6804030">
        <ele>505.0</ele>
        <time>2022-07-26T10:11:14Z</time>
      </trkpt>
      <trkpt lat="45.8966790" lon="5.6804270">
        <ele>505.1</ele>
        <time>2022-07-26T10:11:15Z</time>
      </trkpt>
      <trkpt lat="45.8966940" lon="5.6804900">
        <ele>505.4</ele>
        <time>2022-07-26T10:11:17Z</time>
      </trkpt>
      <trkpt lat="45.8967040" lon="5.6805350">
        <ele>505.5</ele>
        <time>2022-07-26T10:11:18Z</time>
      </trkpt>
      <trkpt lat="45.8967060" lon="5.6805500">
        <ele>505.6</ele>
        <time>2022-07-26T10:11:19Z</time>
      </trkpt>
      <trkpt lat="45.8967190" lon="5.6806080">
        <ele>505.8</ele>
        <time>2022-07-26T10:11:21Z</time>
      </trkpt>
      <trkpt lat="45.8967230" lon="5.6806300">
        <ele>505.9</ele>
        <time>2022-07-26T10:11:22Z</time>
      </trkpt>
      <trkpt lat="45.8967270" lon="5.6806530">
        <ele>506.0</ele>
        <time>2022-07-26T10:11:23Z</time>
      </trkpt>
      <trkpt lat="45.8967310" lon="5.6806810">
        <ele>506.1</ele>
        <time>2022-07-26T10:11:24Z</time>
      </trkpt>
      <trkpt lat="45.8967370" lon="5.6807280">
        <ele>506.3</ele>
        <time>2022-07-26T10:11:26Z</time>
      </trkpt>
      <trkpt lat="45.8967360" lon="5.6807670">
        <ele>506.5</ele>
        <time>2022-07-26T10:11:27Z</time>
      </trkpt>
      <trkpt lat="45.8967350" lon="5.6807840">
        <ele>506.6</ele>
        <time>2022-07-26T10:11:28Z</time>
      </trkpt>
      <trkpt lat="45.8967350" lon="5.6808360">
        <ele>506.8</ele>
        <time>2022-07-26T10:11:29Z</time>
      </trkpt>
      <trkpt lat="45.8967370" lon="5.6808550">
        <ele>506.9</ele>
        <time>2022-07-26T10:11:30Z</time>
      </trkpt>
      <trkpt lat="45.8967470" lon="5.6809100">
        <ele>507.2</ele>
        <time>2022-07-26T10:11:32Z</time>
      </trkpt>
      <trkpt lat="45.8967500" lon="5.6809580">
        <ele>507.4</ele>
        <time>2022-07-26T10:11:33Z</time>
      </trkpt>
      <trkpt lat="45.8967490" lon="5.6809740">
        <ele>507.5</ele>
        <time>2022-07-26T10:11:34Z</time>
      </trkpt>
      <trkpt lat="45.8967520" lon="5.6810350">
        <ele>507.9</ele>
        <time>2022-07-26T10:11:36Z</time>
      </trkpt>
      <trkpt lat="45.8967630" lon="5.6810770">
        <ele>508.1</ele>
        <time>2022-07-26T10:11:37Z</time>
      </trkpt>
      <trkpt lat="45.8967670" lon="5.6810930">
        <ele>508.2</ele>
        <time>2022-07-26T10:11:38Z</time>
      </trkpt>
      <trkpt lat="45.8967760" lon="5.6811360">
        <ele>508.5</ele>
        <time>2022-07-26T10:11:39Z</time>
      </trkpt>
      <trkpt lat="45.8967790" lon="5.6811510">
        <ele>508.6</ele>
        <time>2022-07-26T10:11:40Z</time>
      </trkpt>
      <trkpt lat="45.8967930" lon="5.6812090">
        <ele>508.9</ele>
        <time>2022-07-26T10:11:42Z</time>
      </trkpt>
      <trkpt lat="45.8968010" lon="5.6812490">
        <ele>509.2</ele>
        <time>2022-07-26T10:11:43Z</time>
      </trkpt>
      <trkpt lat="45.8968030" lon="5.6812630">
        <ele>509.2</ele>
        <time>2022-07-26T10:11:44Z</time>
      </trkpt>
      <trkpt lat="45.8968170" lon="5.6813070">
        <ele>509.5</ele>
        <time>2022-07-26T10:11:45Z</time>
      </trkpt>
      <trkpt lat="45.8968230" lon="5.6813220">
        <ele>509.6</ele>
        <time>2022-07-26T10:11:46Z</time>
      </trkpt>
      <trkpt lat="45.8968330" lon="5.6813420">
        <ele>509.7</ele>
        <time>2022-07-26T10:11:47Z</time>
      </trkpt>
      <trkpt lat="45.8968400" lon="5.6813620">
        <ele>509.8</ele>
        <time>2022-07-26T10:11:48Z</time>
      </trkpt>
      <trkpt lat="45.8968480" lon="5.6814130">
        <ele>510.1</ele>
        <time>2022-07-26T10:11:49Z</time>
      </trkpt>
      <trkpt lat="45.8968500" lon="5.6814360">
        <ele>510.2</ele>
        <time>2022-07-26T10:11:50Z</time>
      </trkpt>
      <trkpt lat="45.8968530" lon="5.6814980">
        <ele>510.5</ele>
        <time>2022-07-26T10:11:52Z</time>
      </trkpt>
      <trkpt lat="45.8968620" lon="5.6815430">
        <ele>510.7</ele>
        <time>2022-07-26T10:11:53Z</time>
      </trkpt>
      <trkpt lat="45.8968650" lon="5.6815550">
        <ele>510.8</ele>
        <time>2022-07-26T10:11:54Z</time>
      </trkpt>
      <trkpt lat="45.8968790" lon="5.6816100">
        <ele>511.0</ele>
        <time>2022-07-26T10:11:56Z</time>
      </trkpt>
      <trkpt lat="45.8968850" lon="5.6816530">
        <ele>511.2</ele>
        <time>2022-07-26T10:11:57Z</time>
      </trkpt>
      <trkpt lat="45.8968880" lon="5.6816670">
        <ele>511.3</ele>
        <time>2022-07-26T10:11:58Z</time>
      </trkpt>
      <trkpt lat="45.8968980" lon="5.6817100">
        <ele>511.5</ele>
        <time>2022-07-26T10:11:59Z</time>
      </trkpt>
      <trkpt lat="45.8969010" lon="5.6817230">
        <ele>511.6</ele>
        <time>2022-07-26T10:12:00Z</time>
      </trkpt>
      <trkpt lat="45.8969080" lon="5.6817500">
        <ele>511.7</ele>
        <time>2022-07-26T10:12:01Z</time>
      </trkpt>
      <trkpt lat="45.8969110" lon="5.6817700">
        <ele>511.8</ele>
        <time>2022-07-26T10:12:02Z</time>
      </trkpt>
      <trkpt lat="45.8969120" lon="5.6817890">
        <ele>511.9</ele>
        <time>2022-07-26T10:12:03Z</time>
      </trkpt>
      <trkpt lat="45.8969160" lon="5.6818420">
        <ele>512.1</ele>
        <time>2022-07-26T10:12:05Z</time>
      </trkpt>
      <trkpt lat="45.8969250" lon="5.6818730">
        <ele>512.2</ele>
        <time>2022-07-26T10:12:06Z</time>
      </trkpt>
      <trkpt lat="45.8969460" lon="5.6819370">
        <ele>512.5</ele>
        <time>2022-07-26T10:12:08Z</time>
      </trkpt>
      <trkpt lat="45.8969590" lon="5.6819790">
        <ele>512.7</ele>
        <time>2022-07-26T10:12:09Z</time>
      </trkpt>
      <trkpt lat="45.8969620" lon="5.6819920">
        <ele>512.7</ele>
        <time>2022-07-26T10:12:10Z</time>
      </trkpt>
      <trkpt lat="45.8969730" lon="5.6820290">
        <ele>512.8</ele>
        <time>2022-07-26T10:12:11Z</time>
      </trkpt>
      <trkpt lat="45.8969760" lon="5.6820430">
        <ele>512.9</ele>
        <time>2022-07-26T10:12:12Z</time>
      </trkpt>
      <trkpt lat="45.8969850" lon="5.6820960">
        <ele>513.1</ele>
        <time>2022-07-26T10:12:14Z</time>
      </trkpt>
      <trkpt lat="45.8969860" lon="5.6821360">
        <ele>513.2</ele>
        <time>2022-07-26T10:12:15Z</time>
      </trkpt>
      <trkpt lat="45.8969840" lon="5.6821720">
        <ele>513.2</ele>
        <time>2022-07-26T10:12:16Z</time>
      </trkpt>
      <trkpt lat="45.8969820" lon="5.6822370">
        <ele>513.4</ele>
        <time>2022-07-26T10:12:18Z</time>
      </trkpt>
      <trkpt lat="45.8969810" lon="5.6822790">
        <ele>513.5</ele>
        <time>2022-07-26T10:12:19Z</time>
      </trkpt>
      <trkpt lat="45.8969770" lon="5.6823190">
        <ele>513.5</ele>
        <time>2022-07-26T10:12:20Z</time>
      </trkpt>
      <trkpt lat="45.8969760" lon="5.6823750">
        <ele>513.6</ele>
        <time>2022-07-26T10:12:21Z</time>
      </trkpt>
      <trkpt lat="45.8969760" lon="5.6823940">
        <ele>513.6</ele>
        <time>2022-07-26T10:12:22Z</time>
      </trkpt>
      <trkpt lat="45.8969780" lon="5.6824230">
        <ele>513.6</ele>
        <time>2022-07-26T10:12:23Z</time>
      </trkpt>
      <trkpt lat="45.8969790" lon="5.6824440">
        <ele>513.8</ele>
        <time>2022-07-26T10:12:24Z</time>
      </trkpt>
      <trkpt lat="45.8969980" lon="5.6824770">
        <ele>513.9</ele>
        <time>2022-07-26T10:12:25Z</time>
      </trkpt>
      <trkpt lat="45.8970080" lon="5.6824840">
        <ele>513.9</ele>
        <time>2022-07-26T10:12:26Z</time>
      </trkpt>
      <trkpt lat="45.8970490" lon="5.6824730">
        <ele>514.0</ele>
        <time>2022-07-26T10:12:27Z</time>
      </trkpt>
      <trkpt lat="45.8970660" lon="5.6824660">
        <ele>514.0</ele>
        <time>2022-07-26T10:12:28Z</time>
      </trkpt>
      <trkpt lat="45.8970970" lon="5.6824570">
        <ele>514.1</ele>
        <time>2022-07-26T10:12:29Z</time>
      </trkpt>
      <trkpt lat="45.8971300" lon="5.6824470">
        <ele>514.2</ele>
        <time>2022-07-26T10:12:30Z</time>
      </trkpt>
      <trkpt lat="45.8971630" lon="5.6824360">
        <ele>514.3</ele>
        <time>2022-07-26T10:12:31Z</time>
      </trkpt>
      <trkpt lat="45.8972020" lon="5.6824270">
        <ele>514.4</ele>
        <time>2022-07-26T10:12:32Z</time>
      </trkpt>
      <trkpt lat="45.8972150" lon="5.6824240">
        <ele>514.4</ele>
        <time>2022-07-26T10:12:33Z</time>
      </trkpt>
      <trkpt lat="45.8972430" lon="5.6824210">
        <ele>514.5</ele>
        <time>2022-07-26T10:12:34Z</time>
      </trkpt>
      <trkpt lat="45.8972810" lon="5.6824220">
        <ele>514.6</ele>
        <time>2022-07-26T10:12:35Z</time>
      </trkpt>
      <trkpt lat="45.8972950" lon="5.6824220">
        <ele>514.7</ele>
        <time>2022-07-26T10:12:36Z</time>
      </trkpt>
      <trkpt lat="45.8973300" lon="5.6824280">
        <ele>514.8</ele>
        <time>2022-07-26T10:12:37Z</time>
      </trkpt>
      <trkpt lat="45.8973420" lon="5.6824300">
        <ele>514.9</ele>
        <time>2022-07-26T10:12:38Z</time>
      </trkpt>
      <trkpt lat="45.8973750" lon="5.6824330">
        <ele>515.0</ele>
        <time>2022-07-26T10:12:39Z</time>
      </trkpt>
      <trkpt lat="45.8973870" lon="5.6824330">
        <ele>515.0</ele>
        <time>2022-07-26T10:12:40Z</time>
      </trkpt>
      <trkpt lat="45.8974150" lon="5.6824390">
        <ele>515.1</ele>
        <time>2022-07-26T10:12:41Z</time>
      </trkpt>
      <trkpt lat="45.8974580" lon="5.6824390">
        <ele>515.4</ele>
        <time>2022-07-26T10:12:43Z</time>
      </trkpt>
      <trkpt lat="45.8974730" lon="5.6824350">
        <ele>515.4</ele>
        <time>2022-07-26T10:12:44Z</time>
      </trkpt>
      <trkpt lat="45.8974880" lon="5.6824300">
        <ele>515.5</ele>
        <time>2022-07-26T10:12:45Z</time>
      </trkpt>
      <trkpt lat="45.8974980" lon="5.6824160">
        <ele>515.6</ele>
        <time>2022-07-26T10:12:46Z</time>
      </trkpt>
      <trkpt lat="45.8975050" lon="5.6823980">
        <ele>515.6</ele>
        <time>2022-07-26T10:12:47Z</time>
      </trkpt>
      <trkpt lat="45.8975180" lon="5.6823900">
        <ele>515.7</ele>
        <time>2022-07-26T10:12:48Z</time>
      </trkpt>
      <trkpt lat="45.8975220" lon="5.6823940">
        <ele>515.7</ele>
        <time>2022-07-26T10:12:50Z</time>
      </trkpt>
      <trkpt lat="45.8975260" lon="5.6823980">
        <ele>515.7</ele>
        <time>2022-07-26T10:12:51Z</time>
      </trkpt>
      <trkpt lat="45.8975300" lon="5.6824030">
        <ele>515.7</ele>
        <time>2022-07-26T10:12:52Z</time>
      </trkpt>
      <trkpt lat="45.8975340" lon="5.6824070">
        <ele>515.8</ele>
        <time>2022-07-26T10:12:53Z</time>
      </trkpt>
      <trkpt lat="45.8975380" lon="5.6824120">
        <ele>515.8</ele>
        <time>2022-07-26T10:12:54Z</time>
      </trkpt>
      <trkpt lat="45.8975420" lon="5.6824160">
        <ele>515.8</ele>
        <time>2022-07-26T10:12:55Z</time>
      </trkpt>
      <trkpt lat="45.8975460" lon="5.6824200">
        <ele>515.8</ele>
        <time>2022-07-26T10:12:56Z</time>
      </trkpt>
      <trkpt lat="45.8975500" lon="5.6824250">
        <ele>515.9</ele>
        <time>2022-07-26T10:12:57Z</time>
      </trkpt>
      <trkpt lat="45.8975540" lon="5.6824290">
        <ele>515.9</ele>
        <time>2022-07-26T10:12:58Z</time>
      </trkpt>
      <trkpt lat="45.8975570" lon="5.6824340">
        <ele>515.9</ele>
        <time>2022-07-26T10:13:28Z</time>
      </trkpt>
      <trkpt lat="45.8975610" lon="5.6824380">
        <ele>515.9</ele>
        <time>2022-07-26T10:13:29Z</time>
      </trkpt>
      <trkpt lat="45.8975650" lon="5.6824420">
        <ele>515.9</ele>
        <time>2022-07-26T10:13:30Z</time>
      </trkpt>
      <trkpt lat="45.8975950" lon="5.6824580">
        <ele>516.1</ele>
        <time>2022-07-26T10:13:31Z</time>
      </trkpt>
      <trkpt lat="45.8976040" lon="5.6824600">
        <ele>516.1</ele>
        <time>2022-07-26T10:13:32Z</time>
      </trkpt>
      <trkpt lat="45.8976330" lon="5.6824610">
        <ele>516.3</ele>
        <time>2022-07-26T10:13:33Z</time>
      </trkpt>
      <trkpt lat="45.8976420" lon="5.6824600">
        <ele>516.3</ele>
        <time>2022-07-26T10:13:34Z</time>
      </trkpt>
      <trkpt lat="45.8976710" lon="5.6824580">
        <ele>516.5</ele>
        <time>2022-07-26T10:13:35Z</time>
      </trkpt>
      <trkpt lat="45.8976800" lon="5.6824570">
        <ele>516.5</ele>
        <time>2022-07-26T10:13:36Z</time>
      </trkpt>
      <trkpt lat="45.8976920" lon="5.6824530">
        <ele>516.6</ele>
        <time>2022-07-26T10:13:37Z</time>
      </trkpt>
      <trkpt lat="45.8976950" lon="5.6824460">
        <ele>516.6</ele>
        <time>2022-07-26T10:13:38Z</time>
      </trkpt>
      <trkpt lat="45.8976960" lon="5.6824330">
        <ele>516.7</ele>
        <time>2022-07-26T10:13:39Z</time>
      </trkpt>
      <trkpt lat="45.8976960" lon="5.6824230">
        <ele>516.7</ele>
        <time>2022-07-26T10:13:40Z</time>
      </trkpt>
      <trkpt lat="45.8976940" lon="5.6824120">
        <ele>516.7</ele>
        <time>2022-07-26T10:13:41Z</time>
      </trkpt>
      <trkpt lat="45.8976940" lon="5.6824060">
        <ele>516.8</ele>
        <time>2022-07-26T10:13:42Z</time>
      </trkpt>
      <trkpt lat="45.8976950" lon="5.6824020">
        <ele>516.8</ele>
        <time>2022-07-26T10:13:43Z</time>
      </trkpt>
      <trkpt lat="45.8976970" lon="5.6823980">
        <ele>516.8</ele>
        <time>2022-07-26T10:13:44Z</time>
      </trkpt>
      <trkpt lat="45.8977000" lon="5.6823940">
        <ele>516.8</ele>
        <time>2022-07-26T10:13:45Z</time>
      </trkpt>
      <trkpt lat="45.8977020" lon="5.6823920">
        <ele>516.8</ele>
        <time>2022-07-26T10:13:46Z</time>
      </trkpt>
      <trkpt lat="45.8977030" lon="5.6823910">
        <ele>516.8</ele>
        <time>2022-07-26T10:13:47Z</time>
      </trkpt>
      <trkpt lat="45.8976990" lon="5.6823890">
        <ele>516.8</ele>
        <time>2022-07-26T10:13:48Z</time>
      </trkpt>
      <trkpt lat="45.8976970" lon="5.6823880">
        <ele>516.9</ele>
        <time>2022-07-26T10:13:49Z</time>
      </trkpt>
      <trkpt lat="45.8976950" lon="5.6823880">
        <ele>516.9</ele>
        <time>2022-07-26T10:13:50Z</time>
      </trkpt>
      <trkpt lat="45.8976930" lon="5.6823880">
        <ele>516.9</ele>
        <time>2022-07-26T10:13:51Z</time>
      </trkpt>
      <trkpt lat="45.8976920" lon="5.6823880">
        <ele>516.9</ele>
        <time>2022-07-26T10:13:52Z</time>
      </trkpt>
      <trkpt lat="45.8976920" lon="5.6823880">
        <ele>516.9</ele>
        <time>2022-07-26T10:13:53Z</time>
      </trkpt>
      <trkpt lat="45.8976920" lon="5.6823880">
        <ele>516.9</ele>
        <time>2022-07-26T10:13:54Z</time>
      </trkpt>
      <trkpt lat="45.8976920" lon="5.6823880">
        <ele>516.9</ele>
        <time>2022-07-26T10:13:55Z</time>
      </trkpt>
      <trkpt lat="45.8976920" lon="5.6823880">
        <ele>516.9</ele>
        <time>2022-07-26T10:13:56Z</time>
      </trkpt>
      <trkpt lat="45.8977110" lon="5.6823870">
        <ele>517.0</ele>
        <time>2022-07-26T10:14:58Z</time>
      </trkpt>
      <trkpt lat="45.8977170" lon="5.6823810">
        <ele>517.0</ele>
        <time>2022-07-26T10:14:59Z</time>
      </trkpt>
      <trkpt lat="45.8977210" lon="5.6823770">
        <ele>517.0</ele>
        <time>2022-07-26T10:15:00Z</time>
      </trkpt>
      <trkpt lat="45.8977250" lon="5.6823800">
        <ele>517.1</ele>
        <time>2022-07-26T10:15:01Z</time>
      </trkpt>
      <trkpt lat="45.8977280" lon="5.6823860">
        <ele>517.1</ele>
        <time>2022-07-26T10:15:02Z</time>
      </trkpt>
      <trkpt lat="45.8977300" lon="5.6823910">
        <ele>517.1</ele>
        <time>2022-07-26T10:15:03Z</time>
      </trkpt>
      <trkpt lat="45.8977330" lon="5.6823960">
        <ele>517.1</ele>
        <time>2022-07-26T10:15:04Z</time>
      </trkpt>
      <trkpt lat="45.8977370" lon="5.6824000">
        <ele>517.2</ele>
        <time>2022-07-26T10:15:05Z</time>
      </trkpt>
      <trkpt lat="45.8977420" lon="5.6824020">
        <ele>517.2</ele>
        <time>2022-07-26T10:15:06Z</time>
      </trkpt>
      <trkpt lat="45.8977450" lon="5.6824040">
        <ele>517.2</ele>
        <time>2022-07-26T10:15:07Z</time>
      </trkpt>
      <trkpt lat="45.8977460" lon="5.6824060">
        <ele>517.2</ele>
        <time>2022-07-26T10:15:08Z</time>
      </trkpt>
      <trkpt lat="45.8977450" lon="5.6824050">
        <ele>517.2</ele>
        <time>2022-07-26T10:15:09Z</time>
      </trkpt>
      <trkpt lat="45.8977460" lon="5.6824050">
        <ele>517.2</ele>
        <time>2022-07-26T10:15:10Z</time>
      </trkpt>
      <trkpt lat="45.8977470" lon="5.6824080">
        <ele>517.2</ele>
        <time>2022-07-26T10:15:11Z</time>
      </trkpt>
      <trkpt lat="45.8977500" lon="5.6824060">
        <ele>517.2</ele>
        <time>2022-07-26T10:15:12Z</time>
      </trkpt>
      <trkpt lat="45.8977530" lon="5.6824000">
        <ele>517.3</ele>
        <time>2022-07-26T10:15:13Z</time>
      </trkpt>
      <trkpt lat="45.8977540" lon="5.6823940">
        <ele>517.3</ele>
        <time>2022-07-26T10:15:14Z</time>
      </trkpt>
      <trkpt lat="45.8977550" lon="5.6823920">
        <ele>517.3</ele>
        <time>2022-07-26T10:15:15Z</time>
      </trkpt>
      <trkpt lat="45.8977560" lon="5.6823920">
        <ele>517.3</ele>
        <time>2022-07-26T10:15:16Z</time>
      </trkpt>
      <trkpt lat="45.8977540" lon="5.6823930">
        <ele>517.3</ele>
        <time>2022-07-26T10:15:17Z</time>
      </trkpt>
      <trkpt lat="45.8977540" lon="5.6823950">
        <ele>517.3</ele>
        <time>2022-07-26T10:15:18Z</time>
      </trkpt>
      <trkpt lat="45.8977540" lon="5.6823970">
        <ele>517.3</ele>
        <time>2022-07-26T10:15:19Z</time>
      </trkpt>
      <trkpt lat="45.8977550" lon="5.6823990">
        <ele>517.3</ele>
        <time>2022-07-26T10:15:20Z</time>
      </trkpt>
      <trkpt lat="45.8977560" lon="5.6824010">
        <ele>517.3</ele>
        <time>2022-07-26T10:15:21Z</time>
      </trkpt>
      <trkpt lat="45.8977570" lon="5.6824020">
        <ele>517.4</ele>
        <time>2022-07-26T10:15:22Z</time>
      </trkpt>
      <trkpt lat="45.8977560" lon="5.6824020">
        <ele>517.4</ele>
        <time>2022-07-26T10:15:23Z</time>
      </trkpt>
      <trkpt lat="45.8977550" lon="5.6824030">
        <ele>517.4</ele>
        <time>2022-07-26T10:15:24Z</time>
      </trkpt>
      <trkpt lat="45.8977110" lon="5.6823880">
        <ele>517.6</ele>
        <time>2022-07-26T10:16:32Z</time>
      </trkpt>
      <trkpt lat="45.8977090" lon="5.6823920">
        <ele>517.6</ele>
        <time>2022-07-26T10:16:33Z</time>
      </trkpt>
      <trkpt lat="45.8977060" lon="5.6823940">
        <ele>517.6</ele>
        <time>2022-07-26T10:16:34Z</time>
      </trkpt>
      <trkpt lat="45.8977030" lon="5.6823980">
        <ele>517.6</ele>
        <time>2022-07-26T10:16:35Z</time>
      </trkpt>
      <trkpt lat="45.8977020" lon="5.6824020">
        <ele>517.7</ele>
        <time>2022-07-26T10:16:36Z</time>
      </trkpt>
      <trkpt lat="45.8977040" lon="5.6824040">
        <ele>517.7</ele>
        <time>2022-07-26T10:16:37Z</time>
      </trkpt>
      <trkpt lat="45.8977060" lon="5.6824030">
        <ele>517.7</ele>
        <time>2022-07-26T10:16:38Z</time>
      </trkpt>
      <trkpt lat="45.8977070" lon="5.6823990">
        <ele>517.7</ele>
        <time>2022-07-26T10:16:39Z</time>
      </trkpt>
      <trkpt lat="45.8977090" lon="5.6823950">
        <ele>517.7</ele>
        <time>2022-07-26T10:16:40Z</time>
      </trkpt>
      <trkpt lat="45.8977100" lon="5.6823940">
        <ele>517.7</ele>
        <time>2022-07-26T10:16:41Z</time>
      </trkpt>
      <trkpt lat="45.8977100" lon="5.6823960">
        <ele>517.7</ele>
        <time>2022-07-26T10:16:42Z</time>
      </trkpt>
      <trkpt lat="45.8977100" lon="5.6823970">
        <ele>517.7</ele>
        <time>2022-07-26T10:16:43Z</time>
      </trkpt>
      <trkpt lat="45.8977100" lon="5.6823980">
        <ele>517.7</ele>
        <time>2022-07-26T10:16:44Z</time>
      </trkpt>
      <trkpt lat="45.8977110" lon="5.6823990">
        <ele>517.7</ele>
        <time>2022-07-26T10:16:45Z</time>
      </trkpt>
      <trkpt lat="45.8977110" lon="5.6824000">
        <ele>517.7</ele>
        <time>2022-07-26T10:16:46Z</time>
      </trkpt>
      <trkpt lat="45.8977090" lon="5.6824020">
        <ele>517.7</ele>
        <time>2022-07-26T10:16:47Z</time>
      </trkpt>
      <trkpt lat="45.8977070" lon="5.6824040">
        <ele>517.8</ele>
        <time>2022-07-26T10:16:48Z</time>
      </trkpt>
      <trkpt lat="45.8977060" lon="5.6824060">
        <ele>517.8</ele>
        <time>2022-07-26T10:16:49Z</time>
      </trkpt>
      <trkpt lat="45.8977500" lon="5.6823940">
        <ele>518.0</ele>
        <time>2022-07-26T10:17:13Z</time>
      </trkpt>
      <trkpt lat="45.8977640" lon="5.6823910">
        <ele>518.0</ele>
        <time>2022-07-26T10:17:14Z</time>
      </trkpt>
      <trkpt lat="45.8977770" lon="5.6823890">
        <ele>518.1</ele>
        <time>2022-07-26T10:17:15Z</time>
      </trkpt>
      <trkpt lat="45.8977940" lon="5.6823880">
        <ele>518.2</ele>
        <time>2022-07-26T10:17:16Z</time>
      </trkpt>
      <trkpt lat="45.8978080" lon="5.6823880">
        <ele>518.2</ele>
        <time>2022-07-26T10:17:17Z</time>
      </trkpt>
      <trkpt lat="45.8978220" lon="5.6823810">
        <ele>518.3</ele>
        <time>2022-07-26T10:17:18Z</time>
      </trkpt>
      <trkpt lat="45.8978350" lon="5.6823600">
        <ele>518.4</ele>
        <time>2022-07-26T10:17:19Z</time>
      </trkpt>
      <trkpt lat="45.8978450" lon="5.6823350">
        <ele>518.4</ele>
        <time>2022-07-26T10:17:20Z</time>
      </trkpt>
      <trkpt lat="45.8978520" lon="5.6823200">
        <ele>518.5</ele>
        <time>2022-07-26T10:17:21Z</time>
      </trkpt>
      <trkpt lat="45.8978590" lon="5.6823070">
        <ele>518.5</ele>
        <time>2022-07-26T10:17:22Z</time>
      </trkpt>
      <trkpt lat="45.8978640" lon="5.6822990">
        <ele>518.6</ele>
        <time>2022-07-26T10:17:23Z</time>
      </trkpt>
      <trkpt lat="45.8978670" lon="5.6822960">
        <ele>518.6</ele>
        <time>2022-07-26T10:17:24Z</time>
      </trkpt>
      <trkpt lat="45.8978680" lon="5.6822950">
        <ele>518.6</ele>
        <time>2022-07-26T10:17:25Z</time>
      </trkpt>
      <trkpt lat="45.8978700" lon="5.6822940">
        <ele>518.6</ele>
        <time>2022-07-26T10:17:26Z</time>
      </trkpt>
      <trkpt lat="45.8978740" lon="5.6822930">
        <ele>518.6</ele>
        <time>2022-07-26T10:17:27Z</time>
      </trkpt>
      <trkpt lat="45.8978820" lon="5.6822960">
        <ele>518.6</ele>
        <time>2022-07-26T10:17:28Z</time>
      </trkpt>
      <trkpt lat="45.8978860" lon="5.6822970">
        <ele>518.6</ele>
        <time>2022-07-26T10:17:29Z</time>
      </trkpt>
      <trkpt lat="45.8978900" lon="5.6822980">
        <ele>518.7</ele>
        <time>2022-07-26T10:17:30Z</time>
      </trkpt>
      <trkpt lat="45.8978940" lon="5.6822980">
        <ele>518.7</ele>
        <time>2022-07-26T10:17:31Z</time>
      </trkpt>
      <trkpt lat="45.8978980" lon="5.6822990">
        <ele>518.7</ele>
        <time>2022-07-26T10:17:32Z</time>
      </trkpt>
      <trkpt lat="45.8979020" lon="5.6823000">
        <ele>518.7</ele>
        <time>2022-07-26T10:17:33Z</time>
      </trkpt>
      <trkpt lat="45.8979060" lon="5.6823010">
        <ele>518.7</ele>
        <time>2022-07-26T10:17:34Z</time>
      </trkpt>
      <trkpt lat="45.8979100" lon="5.6823020">
        <ele>518.7</ele>
        <time>2022-07-26T10:17:35Z</time>
      </trkpt>
      <trkpt lat="45.8979140" lon="5.6823030">
        <ele>518.8</ele>
        <time>2022-07-26T10:17:36Z</time>
      </trkpt>
      <trkpt lat="45.8979180" lon="5.6823030">
        <ele>518.8</ele>
        <time>2022-07-26T10:17:37Z</time>
      </trkpt>
      <trkpt lat="45.8979220" lon="5.6823040">
        <ele>518.8</ele>
        <time>2022-07-26T10:17:38Z</time>
      </trkpt>
      <trkpt lat="45.8979260" lon="5.6823050">
        <ele>518.8</ele>
        <time>2022-07-26T10:17:39Z</time>
      </trkpt>
      <trkpt lat="45.8979300" lon="5.6823060">
        <ele>518.8</ele>
        <time>2022-07-26T10:17:49Z</time>
      </trkpt>
      <trkpt lat="45.8979340" lon="5.6823070">
        <ele>518.8</ele>
        <time>2022-07-26T10:17:50Z</time>
      </trkpt>
      <trkpt lat="45.8979380" lon="5.6823080">
        <ele>518.8</ele>
        <time>2022-07-26T10:17:51Z</time>
      </trkpt>
      <trkpt lat="45.8979430" lon="5.6823080">
        <ele>518.9</ele>
        <time>2022-07-26T10:17:52Z</time>
      </trkpt>
      <trkpt lat="45.8979740" lon="5.6822960">
        <ele>519.0</ele>
        <time>2022-07-26T10:17:53Z</time>
      </trkpt>
      <trkpt lat="45.8979830" lon="5.6822930">
        <ele>519.0</ele>
        <time>2022-07-26T10:17:54Z</time>
      </trkpt>
      <trkpt lat="45.8980170" lon="5.6822860">
        <ele>519.2</ele>
        <time>2022-07-26T10:17:55Z</time>
      </trkpt>
      <trkpt lat="45.8980270" lon="5.6822830">
        <ele>519.2</ele>
        <time>2022-07-26T10:17:56Z</time>
      </trkpt>
      <trkpt lat="45.8980540" lon="5.6822690">
        <ele>519.3</ele>
        <time>2022-07-26T10:17:57Z</time>
      </trkpt>
      <trkpt lat="45.8980670" lon="5.6822640">
        <ele>519.4</ele>
        <time>2022-07-26T10:17:58Z</time>
      </trkpt>
      <trkpt lat="45.8980940" lon="5.6822550">
        <ele>519.5</ele>
        <time>2022-07-26T10:17:59Z</time>
      </trkpt>
      <trkpt lat="45.8981220" lon="5.6822520">
        <ele>519.6</ele>
        <time>2022-07-26T10:18:00Z</time>
      </trkpt>
      <trkpt lat="45.8981340" lon="5.6822510">
        <ele>519.6</ele>
        <time>2022-07-26T10:18:01Z</time>
      </trkpt>
      <trkpt lat="45.8981700" lon="5.6822460">
        <ele>519.8</ele>
        <time>2022-07-26T10:18:02Z</time>
      </trkpt>
      <trkpt lat="45.8981830" lon="5.6822450">
        <ele>519.8</ele>
        <time>2022-07-26T10:18:03Z</time>
      </trkpt>
      <trkpt lat="45.8982200" lon="5.6822390">
        <ele>520.0</ele>
        <time>2022-07-26T10:18:04Z</time>
      </trkpt>
      <trkpt lat="45.8982320" lon="5.6822360">
        <ele>520.0</ele>
        <time>2022-07-26T10:18:05Z</time>
      </trkpt>
      <trkpt lat="45.8982690" lon="5.6822290">
        <ele>520.2</ele>
        <time>2022-07-26T10:18:06Z</time>
      </trkpt>
      <trkpt lat="45.8982800" lon="5.6822270">
        <ele>520.2</ele>
        <time>2022-07-26T10:18:07Z</time>
      </trkpt>
      <trkpt lat="45.8983170" lon="5.6822240">
        <ele>520.4</ele>
        <time>2022-07-26T10:18:08Z</time>
      </trkpt>
      <trkpt lat="45.8983290" lon="5.6822230">
        <ele>520.4</ele>
        <time>2022-07-26T10:18:09Z</time>
      </trkpt>
      <trkpt lat="45.8983410" lon="5.6822270">
        <ele>520.5</ele>
        <time>2022-07-26T10:18:10Z</time>
      </trkpt>
      <trkpt lat="45.8983600" lon="5.6822320">
        <ele>520.5</ele>
        <time>2022-07-26T10:18:11Z</time>
      </trkpt>
      <trkpt lat="45.8983900" lon="5.6822330">
        <ele>520.6</ele>
        <time>2022-07-26T10:18:12Z</time>
      </trkpt>
      <trkpt lat="45.8983990" lon="5.6822310">
        <ele>520.7</ele>
        <time>2022-07-26T10:18:13Z</time>
      </trkpt>
      <trkpt lat="45.8984170" lon="5.6822300">
        <ele>520.7</ele>
        <time>2022-07-26T10:18:14Z</time>
      </trkpt>
      <trkpt lat="45.8984600" lon="5.6822360">
        <ele>520.8</ele>
        <time>2022-07-26T10:18:16Z</time>
      </trkpt>
      <trkpt lat="45.8984900" lon="5.6822350">
        <ele>520.9</ele>
        <time>2022-07-26T10:18:17Z</time>
      </trkpt>
      <trkpt lat="45.8985110" lon="5.6822320">
        <ele>521.0</ele>
        <time>2022-07-26T10:18:18Z</time>
      </trkpt>
      <trkpt lat="45.8985620" lon="5.6822370">
        <ele>521.1</ele>
        <time>2022-07-26T10:18:20Z</time>
      </trkpt>
      <trkpt lat="45.8986010" lon="5.6822370">
        <ele>521.3</ele>
        <time>2022-07-26T10:18:21Z</time>
      </trkpt>
      <trkpt lat="45.8986150" lon="5.6822350">
        <ele>521.3</ele>
        <time>2022-07-26T10:18:22Z</time>
      </trkpt>
      <trkpt lat="45.8986510" lon="5.6822230">
        <ele>521.5</ele>
        <time>2022-07-26T10:18:23Z</time>
      </trkpt>
      <trkpt lat="45.8986630" lon="5.6822200">
        <ele>521.5</ele>
        <time>2022-07-26T10:18:24Z</time>
      </trkpt>
      <trkpt lat="45.8986980" lon="5.6822170">
        <ele>521.7</ele>
        <time>2022-07-26T10:18:25Z</time>
      </trkpt>
      <trkpt lat="45.8987110" lon="5.6822160">
        <ele>521.7</ele>
        <time>2022-07-26T10:18:26Z</time>
      </trkpt>
      <trkpt lat="45.8987440" lon="5.6822120">
        <ele>521.9</ele>
        <time>2022-07-26T10:18:27Z</time>
      </trkpt>
      <trkpt lat="45.8987520" lon="5.6822090">
        <ele>521.9</ele>
        <time>2022-07-26T10:18:28Z</time>
      </trkpt>
      <trkpt lat="45.8987890" lon="5.6822020">
        <ele>522.1</ele>
        <time>2022-07-26T10:18:29Z</time>
      </trkpt>
      <trkpt lat="45.8988010" lon="5.6822000">
        <ele>522.2</ele>
        <time>2022-07-26T10:18:30Z</time>
      </trkpt>
      <trkpt lat="45.8988430" lon="5.6821950">
        <ele>522.4</ele>
        <time>2022-07-26T10:18:32Z</time>
      </trkpt>
      <trkpt lat="45.8988710" lon="5.6821900">
        <ele>522.6</ele>
        <time>2022-07-26T10:18:33Z</time>
      </trkpt>
      <trkpt lat="45.8989050" lon="5.6821880">
        <ele>522.8</ele>
        <time>2022-07-26T10:18:34Z</time>
      </trkpt>
      <trkpt lat="45.8989160" lon="5.6821880">
        <ele>522.9</ele>
        <time>2022-07-26T10:18:35Z</time>
      </trkpt>
      <trkpt lat="45.8989520" lon="5.6821930">
        <ele>523.1</ele>
        <time>2022-07-26T10:18:36Z</time>
      </trkpt>
      <trkpt lat="45.8989640" lon="5.6821950">
        <ele>523.2</ele>
        <time>2022-07-26T10:18:37Z</time>
      </trkpt>
      <trkpt lat="45.8989970" lon="5.6821980">
        <ele>523.4</ele>
        <time>2022-07-26T10:18:38Z</time>
      </trkpt>
      <trkpt lat="45.8990090" lon="5.6821980">
        <ele>523.4</ele>
        <time>2022-07-26T10:18:39Z</time>
      </trkpt>
      <trkpt lat="45.8990420" lon="5.6821880">
        <ele>523.7</ele>
        <time>2022-07-26T10:18:41Z</time>
      </trkpt>
      <trkpt lat="45.8990520" lon="5.6821860">
        <ele>523.7</ele>
        <time>2022-07-26T10:18:42Z</time>
      </trkpt>
      <trkpt lat="45.8990710" lon="5.6821860">
        <ele>523.8</ele>
        <time>2022-07-26T10:18:43Z</time>
      </trkpt>
      <trkpt lat="45.8990740" lon="5.6821870">
        <ele>523.9</ele>
        <time>2022-07-26T10:18:44Z</time>
      </trkpt>
      <trkpt lat="45.8990770" lon="5.6821870">
        <ele>523.9</ele>
        <time>2022-07-26T10:18:45Z</time>
      </trkpt>
      <trkpt lat="45.8990800" lon="5.6821880">
        <ele>523.9</ele>
        <time>2022-07-26T10:18:46Z</time>
      </trkpt>
      <trkpt lat="45.8990820" lon="5.6821880">
        <ele>523.9</ele>
        <time>2022-07-26T10:18:47Z</time>
      </trkpt>
      <trkpt lat="45.8990850" lon="5.6821890">
        <ele>523.9</ele>
        <time>2022-07-26T10:18:48Z</time>
      </trkpt>
      <trkpt lat="45.8990880" lon="5.6821890">
        <ele>523.9</ele>
        <time>2022-07-26T10:18:49Z</time>
      </trkpt>
      <trkpt lat="45.8990910" lon="5.6821890">
        <ele>524.0</ele>
        <time>2022-07-26T10:18:50Z</time>
      </trkpt>
      <trkpt lat="45.8990930" lon="5.6821900">
        <ele>524.0</ele>
        <time>2022-07-26T10:18:51Z</time>
      </trkpt>
      <trkpt lat="45.8990960" lon="5.6821900">
        <ele>524.0</ele>
        <time>2022-07-26T10:18:52Z</time>
      </trkpt>
      <trkpt lat="45.8990990" lon="5.6821910">
        <ele>524.0</ele>
        <time>2022-07-26T10:18:53Z</time>
      </trkpt>
      <trkpt lat="45.8991010" lon="5.6821910">
        <ele>524.0</ele>
        <time>2022-07-26T10:19:11Z</time>
      </trkpt>
      <trkpt lat="45.8991040" lon="5.6821920">
        <ele>524.0</ele>
        <time>2022-07-26T10:19:12Z</time>
      </trkpt>
      <trkpt lat="45.8991070" lon="5.6821920">
        <ele>524.1</ele>
        <time>2022-07-26T10:19:13Z</time>
      </trkpt>
      <trkpt lat="45.8991410" lon="5.6821900">
        <ele>524.3</ele>
        <time>2022-07-26T10:19:14Z</time>
      </trkpt>
      <trkpt lat="45.8991520" lon="5.6821890">
        <ele>524.3</ele>
        <time>2022-07-26T10:19:15Z</time>
      </trkpt>
      <trkpt lat="45.8991850" lon="5.6821920">
        <ele>524.5</ele>
        <time>2022-07-26T10:19:16Z</time>
      </trkpt>
      <trkpt lat="45.8991960" lon="5.6821940">
        <ele>524.6</ele>
        <time>2022-07-26T10:19:17Z</time>
      </trkpt>
      <trkpt lat="45.8992290" lon="5.6822020">
        <ele>524.7</ele>
        <time>2022-07-26T10:19:18Z</time>
      </trkpt>
      <trkpt lat="45.8992440" lon="5.6822060">
        <ele>524.8</ele>
        <time>2022-07-26T10:19:19Z</time>
      </trkpt>
      <trkpt lat="45.8992730" lon="5.6822130">
        <ele>524.9</ele>
        <time>2022-07-26T10:19:20Z</time>
      </trkpt>
      <trkpt lat="45.8993070" lon="5.6822160">
        <ele>525.1</ele>
        <time>2022-07-26T10:19:21Z</time>
      </trkpt>
      <trkpt lat="45.8993190" lon="5.6822170">
        <ele>525.1</ele>
        <time>2022-07-26T10:19:22Z</time>
      </trkpt>
      <trkpt lat="45.8993590" lon="5.6822210">
        <ele>525.3</ele>
        <time>2022-07-26T10:19:23Z</time>
      </trkpt>
      <trkpt lat="45.8993730" lon="5.6822220">
        <ele>525.3</ele>
        <time>2022-07-26T10:19:24Z</time>
      </trkpt>
      <trkpt lat="45.8994010" lon="5.6822260">
        <ele>525.5</ele>
        <time>2022-07-26T10:19:25Z</time>
      </trkpt>
      <trkpt lat="45.8994340" lon="5.6822330">
        <ele>525.6</ele>
        <time>2022-07-26T10:19:26Z</time>
      </trkpt>
      <trkpt lat="45.8994450" lon="5.6822330">
        <ele>525.6</ele>
        <time>2022-07-26T10:19:27Z</time>
      </trkpt>
      <trkpt lat="45.8994810" lon="5.6822320">
        <ele>525.8</ele>
        <time>2022-07-26T10:19:28Z</time>
      </trkpt>
      <trkpt lat="45.8994930" lon="5.6822320">
        <ele>525.8</ele>
        <time>2022-07-26T10:19:29Z</time>
      </trkpt>
      <trkpt lat="45.8995200" lon="5.6822300">
        <ele>525.9</ele>
        <time>2022-07-26T10:19:30Z</time>
      </trkpt>
      <trkpt lat="45.8995650" lon="5.6822400">
        <ele>526.1</ele>
        <time>2022-07-26T10:19:32Z</time>
      </trkpt>
      <trkpt lat="45.8995920" lon="5.6822410">
        <ele>526.2</ele>
        <time>2022-07-26T10:19:33Z</time>
      </trkpt>
      <trkpt lat="45.8996310" lon="5.6822360">
        <ele>526.3</ele>
        <time>2022-07-26T10:19:34Z</time>
      </trkpt>
      <trkpt lat="45.8996440" lon="5.6822340">
        <ele>526.4</ele>
        <time>2022-07-26T10:19:35Z</time>
      </trkpt>
      <trkpt lat="45.8996840" lon="5.6822250">
        <ele>526.6</ele>
        <time>2022-07-26T10:19:36Z</time>
      </trkpt>
      <trkpt lat="45.8996980" lon="5.6822210">
        <ele>526.6</ele>
        <time>2022-07-26T10:19:37Z</time>
      </trkpt>
      <trkpt lat="45.8997340" lon="5.6822040">
        <ele>526.7</ele>
        <time>2022-07-26T10:19:38Z</time>
      </trkpt>
      <trkpt lat="45.8997450" lon="5.6821970">
        <ele>526.8</ele>
        <time>2022-07-26T10:19:39Z</time>
      </trkpt>
      <trkpt lat="45.8997760" lon="5.6821660">
        <ele>526.9</ele>
        <time>2022-07-26T10:19:40Z</time>
      </trkpt>
      <trkpt lat="45.8997860" lon="5.6821560">
        <ele>526.9</ele>
        <time>2022-07-26T10:19:41Z</time>
      </trkpt>
      <trkpt lat="45.8998140" lon="5.6821210">
        <ele>527.1</ele>
        <time>2022-07-26T10:19:42Z</time>
      </trkpt>
      <trkpt lat="45.8998230" lon="5.6821080">
        <ele>527.1</ele>
        <time>2022-07-26T10:19:43Z</time>
      </trkpt>
      <trkpt lat="45.8998480" lon="5.6820590">
        <ele>527.3</ele>
        <time>2022-07-26T10:19:44Z</time>
      </trkpt>
      <trkpt lat="45.8998560" lon="5.6820400">
        <ele>527.4</ele>
        <time>2022-07-26T10:19:45Z</time>
      </trkpt>
      <trkpt lat="45.8998740" lon="5.6819970">
        <ele>527.5</ele>
        <time>2022-07-26T10:19:46Z</time>
      </trkpt>
      <trkpt lat="45.8998800" lon="5.6819820">
        <ele>527.6</ele>
        <time>2022-07-26T10:19:47Z</time>
      </trkpt>
      <trkpt lat="45.8998980" lon="5.6819290">
        <ele>527.7</ele>
        <time>2022-07-26T10:19:48Z</time>
      </trkpt>
      <trkpt lat="45.8999060" lon="5.6819090">
        <ele>527.8</ele>
        <time>2022-07-26T10:19:49Z</time>
      </trkpt>
      <trkpt lat="45.8999180" lon="5.6818730">
        <ele>527.9</ele>
        <time>2022-07-26T10:19:50Z</time>
      </trkpt>
      <trkpt lat="45.8999360" lon="5.6818220">
        <ele>528.0</ele>
        <time>2022-07-26T10:19:51Z</time>
      </trkpt>
      <trkpt lat="45.8999430" lon="5.6818030">
        <ele>528.1</ele>
        <time>2022-07-26T10:19:52Z</time>
      </trkpt>
      <trkpt lat="45.8999660" lon="5.6817650">
        <ele>528.2</ele>
        <time>2022-07-26T10:19:53Z</time>
      </trkpt>
      <trkpt lat="45.8999750" lon="5.6817510">
        <ele>528.2</ele>
        <time>2022-07-26T10:19:54Z</time>
      </trkpt>
      <trkpt lat="45.8999920" lon="5.6817180">
        <ele>528.3</ele>
        <time>2022-07-26T10:19:55Z</time>
      </trkpt>
      <trkpt lat="45.9000130" lon="5.6816720">
        <ele>528.4</ele>
        <time>2022-07-26T10:19:56Z</time>
      </trkpt>
      <trkpt lat="45.9000210" lon="5.6816560">
        <ele>528.5</ele>
        <time>2022-07-26T10:19:57Z</time>
      </trkpt>
      <trkpt lat="45.9000390" lon="5.6816260">
        <ele>528.5</ele>
        <time>2022-07-26T10:19:58Z</time>
      </trkpt>
      <trkpt lat="45.9000610" lon="5.6816010">
        <ele>528.6</ele>
        <time>2022-07-26T10:19:59Z</time>
      </trkpt>
      <trkpt lat="45.9000800" lon="5.6815720">
        <ele>528.7</ele>
        <time>2022-07-26T10:20:00Z</time>
      </trkpt>
      <trkpt lat="45.9000970" lon="5.6815370">
        <ele>528.8</ele>
        <time>2022-07-26T10:20:01Z</time>
      </trkpt>
      <trkpt lat="45.9001150" lon="5.6815030">
        <ele>528.8</ele>
        <time>2022-07-26T10:20:02Z</time>
      </trkpt>
      <trkpt lat="45.9001310" lon="5.6814660">
        <ele>528.9</ele>
        <time>2022-07-26T10:20:03Z</time>
      </trkpt>
      <trkpt lat="45.9001500" lon="5.6814270">
        <ele>529.0</ele>
        <time>2022-07-26T10:20:04Z</time>
      </trkpt>
      <trkpt lat="45.9001670" lon="5.6813900">
        <ele>529.0</ele>
        <time>2022-07-26T10:20:05Z</time>
      </trkpt>
      <trkpt lat="45.9001830" lon="5.6813580">
        <ele>529.1</ele>
        <time>2022-07-26T10:20:06Z</time>
      </trkpt>
      <trkpt lat="45.9002060" lon="5.6813100">
        <ele>529.2</ele>
        <time>2022-07-26T10:20:07Z</time>
      </trkpt>
      <trkpt lat="45.9002150" lon="5.6812920">
        <ele>529.2</ele>
        <time>2022-07-26T10:20:08Z</time>
      </trkpt>
      <trkpt lat="45.9002320" lon="5.6812590">
        <ele>529.3</ele>
        <time>2022-07-26T10:20:09Z</time>
      </trkpt>
      <trkpt lat="45.9002510" lon="5.6812230">
        <ele>529.4</ele>
        <time>2022-07-26T10:20:10Z</time>
      </trkpt>
      <trkpt lat="45.9002910" lon="5.6811540">
        <ele>529.5</ele>
        <time>2022-07-26T10:20:12Z</time>
      </trkpt>
      <trkpt lat="45.9003110" lon="5.6811200">
        <ele>529.6</ele>
        <time>2022-07-26T10:20:13Z</time>
      </trkpt>
      <trkpt lat="45.9003460" lon="5.6810420">
        <ele>529.8</ele>
        <time>2022-07-26T10:20:15Z</time>
      </trkpt>
      <trkpt lat="45.9003630" lon="5.6810060">
        <ele>529.9</ele>
        <time>2022-07-26T10:20:16Z</time>
      </trkpt>
      <trkpt lat="45.9003900" lon="5.6809600">
        <ele>530.0</ele>
        <time>2022-07-26T10:20:17Z</time>
      </trkpt>
      <trkpt lat="45.9004200" lon="5.6809100">
        <ele>530.1</ele>
        <time>2022-07-26T10:20:19Z</time>
      </trkpt>
      <trkpt lat="45.9004400" lon="5.6808760">
        <ele>530.2</ele>
        <time>2022-07-26T10:20:20Z</time>
      </trkpt>
      <trkpt lat="45.9004590" lon="5.6808420">
        <ele>530.3</ele>
        <time>2022-07-26T10:20:21Z</time>
      </trkpt>
      <trkpt lat="45.9004780" lon="5.6808090">
        <ele>530.3</ele>
        <time>2022-07-26T10:20:22Z</time>
      </trkpt>
      <trkpt lat="45.9004960" lon="5.6807790">
        <ele>530.4</ele>
        <time>2022-07-26T10:20:23Z</time>
      </trkpt>
      <trkpt lat="45.9005160" lon="5.6807430">
        <ele>530.5</ele>
        <time>2022-07-26T10:20:24Z</time>
      </trkpt>
      <trkpt lat="45.9005380" lon="5.6807080">
        <ele>530.6</ele>
        <time>2022-07-26T10:20:25Z</time>
      </trkpt>
      <trkpt lat="45.9005580" lon="5.6806740">
        <ele>530.7</ele>
        <time>2022-07-26T10:20:26Z</time>
      </trkpt>
      <trkpt lat="45.9005770" lon="5.6806380">
        <ele>530.8</ele>
        <time>2022-07-26T10:20:27Z</time>
      </trkpt>
      <trkpt lat="45.9005980" lon="5.6806040">
        <ele>530.9</ele>
        <time>2022-07-26T10:20:28Z</time>
      </trkpt>
      <trkpt lat="45.9006190" lon="5.6805720">
        <ele>531.0</ele>
        <time>2022-07-26T10:20:29Z</time>
      </trkpt>
      <trkpt lat="45.9006360" lon="5.6805400">
        <ele>531.1</ele>
        <time>2022-07-26T10:20:30Z</time>
      </trkpt>
      <trkpt lat="45.9006520" lon="5.6805040">
        <ele>531.2</ele>
        <time>2022-07-26T10:20:31Z</time>
      </trkpt>
      <trkpt lat="45.9006670" lon="5.6804620">
        <ele>531.3</ele>
        <time>2022-07-26T10:20:32Z</time>
      </trkpt>
      <trkpt lat="45.9006840" lon="5.6804280">
        <ele>531.4</ele>
        <time>2022-07-26T10:20:33Z</time>
      </trkpt>
      <trkpt lat="45.9007040" lon="5.6803930">
        <ele>531.5</ele>
        <time>2022-07-26T10:20:34Z</time>
      </trkpt>
      <trkpt lat="45.9007250" lon="5.6803600">
        <ele>531.6</ele>
        <time>2022-07-26T10:20:35Z</time>
      </trkpt>
      <trkpt lat="45.9007450" lon="5.6803310">
        <ele>531.8</ele>
        <time>2022-07-26T10:20:36Z</time>
      </trkpt>
      <trkpt lat="45.9007640" lon="5.6803000">
        <ele>531.9</ele>
        <time>2022-07-26T10:20:37Z</time>
      </trkpt>
      <trkpt lat="45.9007810" lon="5.6802660">
        <ele>532.0</ele>
        <time>2022-07-26T10:20:38Z</time>
      </trkpt>
      <trkpt lat="45.9008010" lon="5.6802180">
        <ele>532.2</ele>
        <time>2022-07-26T10:20:39Z</time>
      </trkpt>
      <trkpt lat="45.9008070" lon="5.6802030">
        <ele>532.2</ele>
        <time>2022-07-26T10:20:40Z</time>
      </trkpt>
      <trkpt lat="45.9008330" lon="5.6801440">
        <ele>532.5</ele>
        <time>2022-07-26T10:20:42Z</time>
      </trkpt>
      <trkpt lat="45.9008530" lon="5.6801140">
        <ele>532.6</ele>
        <time>2022-07-26T10:20:43Z</time>
      </trkpt>
      <trkpt lat="45.9008790" lon="5.6800730">
        <ele>532.8</ele>
        <time>2022-07-26T10:20:44Z</time>
      </trkpt>
      <trkpt lat="45.9008870" lon="5.6800590">
        <ele>532.8</ele>
        <time>2022-07-26T10:20:45Z</time>
      </trkpt>
      <trkpt lat="45.9009100" lon="5.6800160">
        <ele>533.0</ele>
        <time>2022-07-26T10:20:46Z</time>
      </trkpt>
      <trkpt lat="45.9009170" lon="5.6800020">
        <ele>533.0</ele>
        <time>2022-07-26T10:20:47Z</time>
      </trkpt>
      <trkpt lat="45.9009340" lon="5.6799710">
        <ele>533.2</ele>
        <time>2022-07-26T10:20:48Z</time>
      </trkpt>
      <trkpt lat="45.9009530" lon="5.6799290">
        <ele>533.3</ele>
        <time>2022-07-26T10:20:49Z</time>
      </trkpt>
      <trkpt lat="45.9009600" lon="5.6799140">
        <ele>533.4</ele>
        <time>2022-07-26T10:20:50Z</time>
      </trkpt>
      <trkpt lat="45.9009780" lon="5.6798700">
        <ele>533.5</ele>
        <time>2022-07-26T10:20:51Z</time>
      </trkpt>
      <trkpt lat="45.9009840" lon="5.6798540">
        <ele>533.5</ele>
        <time>2022-07-26T10:20:52Z</time>
      </trkpt>
      <trkpt lat="45.9010050" lon="5.6798060">
        <ele>533.7</ele>
        <time>2022-07-26T10:20:53Z</time>
      </trkpt>
      <trkpt lat="45.9010130" lon="5.6797890">
        <ele>533.8</ele>
        <time>2022-07-26T10:20:54Z</time>
      </trkpt>
      <trkpt lat="45.9010320" lon="5.6797610">
        <ele>533.9</ele>
        <time>2022-07-26T10:20:55Z</time>
      </trkpt>
      <trkpt lat="45.9010590" lon="5.6797220">
        <ele>534.0</ele>
        <time>2022-07-26T10:20:56Z</time>
      </trkpt>
      <trkpt lat="45.9010680" lon="5.6797090">
        <ele>534.0</ele>
        <time>2022-07-26T10:20:57Z</time>
      </trkpt>
      <trkpt lat="45.9010920" lon="5.6796800">
        <ele>534.2</ele>
        <time>2022-07-26T10:20:58Z</time>
      </trkpt>
      <trkpt lat="45.9011170" lon="5.6796450">
        <ele>534.3</ele>
        <time>2022-07-26T10:20:59Z</time>
      </trkpt>
      <trkpt lat="45.9011360" lon="5.6796150">
        <ele>534.3</ele>
        <time>2022-07-26T10:21:00Z</time>
      </trkpt>
      <trkpt lat="45.9011620" lon="5.6795710">
        <ele>534.4</ele>
        <time>2022-07-26T10:21:01Z</time>
      </trkpt>
      <trkpt lat="45.9011710" lon="5.6795560">
        <ele>534.5</ele>
        <time>2022-07-26T10:21:02Z</time>
      </trkpt>
      <trkpt lat="45.9011900" lon="5.6795260">
        <ele>534.5</ele>
        <time>2022-07-26T10:21:03Z</time>
      </trkpt>
      <trkpt lat="45.9012090" lon="5.6794950">
        <ele>534.6</ele>
        <time>2022-07-26T10:21:04Z</time>
      </trkpt>
      <trkpt lat="45.9012340" lon="5.6794550">
        <ele>534.7</ele>
        <time>2022-07-26T10:21:05Z</time>
      </trkpt>
      <trkpt lat="45.9012420" lon="5.6794410">
        <ele>534.7</ele>
        <time>2022-07-26T10:21:06Z</time>
      </trkpt>
      <trkpt lat="45.9012670" lon="5.6793970">
        <ele>534.8</ele>
        <time>2022-07-26T10:21:07Z</time>
      </trkpt>
      <trkpt lat="45.9012760" lon="5.6793820">
        <ele>534.8</ele>
        <time>2022-07-26T10:21:08Z</time>
      </trkpt>
      <trkpt lat="45.9012910" lon="5.6793490">
        <ele>534.9</ele>
        <time>2022-07-26T10:21:09Z</time>
      </trkpt>
      <trkpt lat="45.9013130" lon="5.6793050">
        <ele>535.0</ele>
        <time>2022-07-26T10:21:10Z</time>
      </trkpt>
      <trkpt lat="45.9013200" lon="5.6792910">
        <ele>535.0</ele>
        <time>2022-07-26T10:21:11Z</time>
      </trkpt>
      <trkpt lat="45.9013360" lon="5.6792510">
        <ele>535.1</ele>
        <time>2022-07-26T10:21:12Z</time>
      </trkpt>
      <trkpt lat="45.9013400" lon="5.6792360">
        <ele>535.1</ele>
        <time>2022-07-26T10:21:13Z</time>
      </trkpt>
      <trkpt lat="45.9013490" lon="5.6791990">
        <ele>535.2</ele>
        <time>2022-07-26T10:21:14Z</time>
      </trkpt>
      <trkpt lat="45.9013570" lon="5.6791600">
        <ele>535.3</ele>
        <time>2022-07-26T10:21:15Z</time>
      </trkpt>
      <trkpt lat="45.9013640" lon="5.6791070">
        <ele>535.4</ele>
        <time>2022-07-26T10:21:16Z</time>
      </trkpt>
      <trkpt lat="45.9013660" lon="5.6790900">
        <ele>535.4</ele>
        <time>2022-07-26T10:21:17Z</time>
      </trkpt>
      <trkpt lat="45.9013710" lon="5.6790320">
        <ele>535.5</ele>
        <time>2022-07-26T10:21:18Z</time>
      </trkpt>
      <trkpt lat="45.9013710" lon="5.6790100">
        <ele>535.5</ele>
        <time>2022-07-26T10:21:19Z</time>
      </trkpt>
      <trkpt lat="45.9013720" lon="5.6789660">
        <ele>535.5</ele>
        <time>2022-07-26T10:21:20Z</time>
      </trkpt>
      <trkpt lat="45.9013700" lon="5.6788820">
        <ele>535.6</ele>
        <time>2022-07-26T10:21:22Z</time>
      </trkpt>
      <trkpt lat="45.9013690" lon="5.6788410">
        <ele>535.7</ele>
        <time>2022-07-26T10:21:23Z</time>
      </trkpt>
      <trkpt lat="45.9013630" lon="5.6787850">
        <ele>535.7</ele>
        <time>2022-07-26T10:21:24Z</time>
      </trkpt>
      <trkpt lat="45.9013620" lon="5.6787660">
        <ele>535.8</ele>
        <time>2022-07-26T10:21:25Z</time>
      </trkpt>
      <trkpt lat="45.9013650" lon="5.6787090">
        <ele>535.8</ele>
        <time>2022-07-26T10:21:26Z</time>
      </trkpt>
      <trkpt lat="45.9013680" lon="5.6786890">
        <ele>535.8</ele>
        <time>2022-07-26T10:21:27Z</time>
      </trkpt>
      <trkpt lat="45.9013800" lon="5.6786540">
        <ele>535.9</ele>
        <time>2022-07-26T10:21:28Z</time>
      </trkpt>
      <trkpt lat="45.9014040" lon="5.6786110">
        <ele>535.9</ele>
        <time>2022-07-26T10:21:29Z</time>
      </trkpt>
      <trkpt lat="45.9014140" lon="5.6786020">
        <ele>536.0</ele>
        <time>2022-07-26T10:21:30Z</time>
      </trkpt>
      <trkpt lat="45.9014530" lon="5.6785830">
        <ele>536.0</ele>
        <time>2022-07-26T10:21:31Z</time>
      </trkpt>
      <trkpt lat="45.9014660" lon="5.6785790">
        <ele>536.0</ele>
        <time>2022-07-26T10:21:32Z</time>
      </trkpt>
      <trkpt lat="45.9014970" lon="5.6785720">
        <ele>536.0</ele>
        <time>2022-07-26T10:21:33Z</time>
      </trkpt>
      <trkpt lat="45.9015300" lon="5.6785680">
        <ele>536.0</ele>
        <time>2022-07-26T10:21:34Z</time>
      </trkpt>
      <trkpt lat="45.9015590" lon="5.6785650">
        <ele>536.0</ele>
        <time>2022-07-26T10:21:35Z</time>
      </trkpt>
      <trkpt lat="45.9015880" lon="5.6785590">
        <ele>536.0</ele>
        <time>2022-07-26T10:21:36Z</time>
      </trkpt>
      <trkpt lat="45.9016190" lon="5.6785540">
        <ele>536.0</ele>
        <time>2022-07-26T10:21:37Z</time>
      </trkpt>
      <trkpt lat="45.9016490" lon="5.6785490">
        <ele>536.0</ele>
        <time>2022-07-26T10:21:38Z</time>
      </trkpt>
      <trkpt lat="45.9016800" lon="5.6785400">
        <ele>536.0</ele>
        <time>2022-07-26T10:21:39Z</time>
      </trkpt>
      <trkpt lat="45.9017110" lon="5.6785300">
        <ele>536.0</ele>
        <time>2022-07-26T10:21:40Z</time>
      </trkpt>
      <trkpt lat="45.9017700" lon="5.6785080">
        <ele>536.0</ele>
        <time>2022-07-26T10:21:42Z</time>
      </trkpt>
      <trkpt lat="45.9018000" lon="5.6784980">
        <ele>535.9</ele>
        <time>2022-07-26T10:21:43Z</time>
      </trkpt>
      <trkpt lat="45.9018320" lon="5.6784900">
        <ele>535.9</ele>
        <time>2022-07-26T10:21:44Z</time>
      </trkpt>
      <trkpt lat="45.9018610" lon="5.6784840">
        <ele>535.9</ele>
        <time>2022-07-26T10:21:45Z</time>
      </trkpt>
      <trkpt lat="45.9018900" lon="5.6784760">
        <ele>535.8</ele>
        <time>2022-07-26T10:21:46Z</time>
      </trkpt>
      <trkpt lat="45.9019210" lon="5.6784630">
        <ele>535.8</ele>
        <time>2022-07-26T10:21:47Z</time>
      </trkpt>
      <trkpt lat="45.9019510" lon="5.6784500">
        <ele>535.8</ele>
        <time>2022-07-26T10:21:48Z</time>
      </trkpt>
      <trkpt lat="45.9019830" lon="5.6784500">
        <ele>535.7</ele>
        <time>2022-07-26T10:21:49Z</time>
      </trkpt>
      <trkpt lat="45.9020170" lon="5.6784450">
        <ele>535.7</ele>
        <time>2022-07-26T10:21:50Z</time>
      </trkpt>
      <trkpt lat="45.9020460" lon="5.6784340">
        <ele>535.6</ele>
        <time>2022-07-26T10:21:51Z</time>
      </trkpt>
      <trkpt lat="45.9020770" lon="5.6784260">
        <ele>535.6</ele>
        <time>2022-07-26T10:21:52Z</time>
      </trkpt>
      <trkpt lat="45.9021100" lon="5.6784170">
        <ele>535.6</ele>
        <time>2022-07-26T10:21:53Z</time>
      </trkpt>
      <trkpt lat="45.9021420" lon="5.6784080">
        <ele>535.5</ele>
        <time>2022-07-26T10:21:54Z</time>
      </trkpt>
      <trkpt lat="45.9021690" lon="5.6783980">
        <ele>535.5</ele>
        <time>2022-07-26T10:21:55Z</time>
      </trkpt>
      <trkpt lat="45.9022100" lon="5.6783860">
        <ele>535.4</ele>
        <time>2022-07-26T10:21:56Z</time>
      </trkpt>
      <trkpt lat="45.9022250" lon="5.6783810">
        <ele>535.4</ele>
        <time>2022-07-26T10:21:57Z</time>
      </trkpt>
      <trkpt lat="45.9022580" lon="5.6783760">
        <ele>535.4</ele>
        <time>2022-07-26T10:21:58Z</time>
      </trkpt>
      <trkpt lat="45.9022850" lon="5.6783720">
        <ele>535.3</ele>
        <time>2022-07-26T10:21:59Z</time>
      </trkpt>
      <trkpt lat="45.9023120" lon="5.6783640">
        <ele>535.3</ele>
        <time>2022-07-26T10:22:00Z</time>
      </trkpt>
      <trkpt lat="45.9023400" lon="5.6783520">
        <ele>535.3</ele>
        <time>2022-07-26T10:22:01Z</time>
      </trkpt>
      <trkpt lat="45.9023730" lon="5.6783390">
        <ele>535.2</ele>
        <time>2022-07-26T10:22:02Z</time>
      </trkpt>
      <trkpt lat="45.9024060" lon="5.6783290">
        <ele>535.2</ele>
        <time>2022-07-26T10:22:03Z</time>
      </trkpt>
      <trkpt lat="45.9024390" lon="5.6783190">
        <ele>535.2</ele>
        <time>2022-07-26T10:22:04Z</time>
      </trkpt>
      <trkpt lat="45.9024730" lon="5.6783090">
        <ele>535.1</ele>
        <time>2022-07-26T10:22:05Z</time>
      </trkpt>
      <trkpt lat="45.9025020" lon="5.6782980">
        <ele>535.1</ele>
        <time>2022-07-26T10:22:06Z</time>
      </trkpt>
      <trkpt lat="45.9025310" lon="5.6782900">
        <ele>535.1</ele>
        <time>2022-07-26T10:22:07Z</time>
      </trkpt>
      <trkpt lat="45.9025730" lon="5.6782830">
        <ele>535.1</ele>
        <time>2022-07-26T10:22:08Z</time>
      </trkpt>
      <trkpt lat="45.9026100" lon="5.6782760">
        <ele>535.0</ele>
        <time>2022-07-26T10:22:09Z</time>
      </trkpt>
      <trkpt lat="45.9026430" lon="5.6782680">
        <ele>535.0</ele>
        <time>2022-07-26T10:22:10Z</time>
      </trkpt>
      <trkpt lat="45.9026750" lon="5.6782560">
        <ele>535.0</ele>
        <time>2022-07-26T10:22:11Z</time>
      </trkpt>
      <trkpt lat="45.9027100" lon="5.6782410">
        <ele>535.0</ele>
        <time>2022-07-26T10:22:12Z</time>
      </trkpt>
      <trkpt lat="45.9027440" lon="5.6782250">
        <ele>535.0</ele>
        <time>2022-07-26T10:22:13Z</time>
      </trkpt>
      <trkpt lat="45.9027750" lon="5.6782120">
        <ele>535.0</ele>
        <time>2022-07-26T10:22:14Z</time>
      </trkpt>
      <trkpt lat="45.9028080" lon="5.6781990">
        <ele>535.0</ele>
        <time>2022-07-26T10:22:15Z</time>
      </trkpt>
      <trkpt lat="45.9028380" lon="5.6781870">
        <ele>535.0</ele>
        <time>2022-07-26T10:22:16Z</time>
      </trkpt>
      <trkpt lat="45.9028960" lon="5.6781630">
        <ele>535.0</ele>
        <time>2022-07-26T10:22:18Z</time>
      </trkpt>
      <trkpt lat="45.9029230" lon="5.6781520">
        <ele>535.0</ele>
        <time>2022-07-26T10:22:19Z</time>
      </trkpt>
      <trkpt lat="45.9029500" lon="5.6781420">
        <ele>535.0</ele>
        <time>2022-07-26T10:22:20Z</time>
      </trkpt>
      <trkpt lat="45.9029780" lon="5.6781310">
        <ele>535.0</ele>
        <time>2022-07-26T10:22:21Z</time>
      </trkpt>
      <trkpt lat="45.9030190" lon="5.6781190">
        <ele>535.0</ele>
        <time>2022-07-26T10:22:22Z</time>
      </trkpt>
      <trkpt lat="45.9030560" lon="5.6781140">
        <ele>535.0</ele>
        <time>2022-07-26T10:22:23Z</time>
      </trkpt>
      <trkpt lat="45.9030990" lon="5.6781170">
        <ele>535.0</ele>
        <time>2022-07-26T10:22:24Z</time>
      </trkpt>
      <trkpt lat="45.9031660" lon="5.6781120">
        <ele>535.0</ele>
        <time>2022-07-26T10:22:26Z</time>
      </trkpt>
      <trkpt lat="45.9032260" lon="5.6780980">
        <ele>535.0</ele>
        <time>2022-07-26T10:22:27Z</time>
      </trkpt>
      <trkpt lat="45.9032740" lon="5.6780850">
        <ele>535.0</ele>
        <time>2022-07-26T10:22:29Z</time>
      </trkpt>
      <trkpt lat="45.9033290" lon="5.6780700">
        <ele>535.1</ele>
        <time>2022-07-26T10:22:30Z</time>
      </trkpt>
      <trkpt lat="45.9033620" lon="5.6780670">
        <ele>535.1</ele>
        <time>2022-07-26T10:22:31Z</time>
      </trkpt>
      <trkpt lat="45.9034050" lon="5.6780700">
        <ele>535.1</ele>
        <time>2022-07-26T10:22:32Z</time>
      </trkpt>
      <trkpt lat="45.9034350" lon="5.6780730">
        <ele>535.1</ele>
        <time>2022-07-26T10:22:33Z</time>
      </trkpt>
      <trkpt lat="45.9034670" lon="5.6780610">
        <ele>535.2</ele>
        <time>2022-07-26T10:22:35Z</time>
      </trkpt>
      <trkpt lat="45.9034830" lon="5.6780530">
        <ele>535.2</ele>
        <time>2022-07-26T10:22:36Z</time>
      </trkpt>
      <trkpt lat="45.9035150" lon="5.6780410">
        <ele>535.2</ele>
        <time>2022-07-26T10:22:37Z</time>
      </trkpt>
      <trkpt lat="45.9035260" lon="5.6780390">
        <ele>535.2</ele>
        <time>2022-07-26T10:22:38Z</time>
      </trkpt>
      <trkpt lat="45.9035650" lon="5.6780420">
        <ele>535.3</ele>
        <time>2022-07-26T10:22:39Z</time>
      </trkpt>
      <trkpt lat="45.9036040" lon="5.6780430">
        <ele>535.3</ele>
        <time>2022-07-26T10:22:40Z</time>
      </trkpt>
      <trkpt lat="45.9036380" lon="5.6780400">
        <ele>535.3</ele>
        <time>2022-07-26T10:22:41Z</time>
      </trkpt>
      <trkpt lat="45.9036680" lon="5.6780390">
        <ele>535.3</ele>
        <time>2022-07-26T10:22:42Z</time>
      </trkpt>
      <trkpt lat="45.9037020" lon="5.6780490">
        <ele>535.4</ele>
        <time>2022-07-26T10:22:43Z</time>
      </trkpt>
      <trkpt lat="45.9037120" lon="5.6780540">
        <ele>535.4</ele>
        <time>2022-07-26T10:22:44Z</time>
      </trkpt>
      <trkpt lat="45.9037400" lon="5.6780530">
        <ele>535.4</ele>
        <time>2022-07-26T10:22:45Z</time>
      </trkpt>
      <trkpt lat="45.9037680" lon="5.6780460">
        <ele>535.4</ele>
        <time>2022-07-26T10:22:46Z</time>
      </trkpt>
      <trkpt lat="45.9038070" lon="5.6780370">
        <ele>535.4</ele>
        <time>2022-07-26T10:22:47Z</time>
      </trkpt>
      <trkpt lat="45.9038610" lon="5.6780270">
        <ele>535.4</ele>
        <time>2022-07-26T10:22:49Z</time>
      </trkpt>
      <trkpt lat="45.9038940" lon="5.6780190">
        <ele>535.4</ele>
        <time>2022-07-26T10:22:50Z</time>
      </trkpt>
      <trkpt lat="45.9039250" lon="5.6780160">
        <ele>535.5</ele>
        <time>2022-07-26T10:22:51Z</time>
      </trkpt>
      <trkpt lat="45.9039740" lon="5.6780180">
        <ele>535.5</ele>
        <time>2022-07-26T10:22:53Z</time>
      </trkpt>
      <trkpt lat="45.9039960" lon="5.6780220">
        <ele>535.5</ele>
        <time>2022-07-26T10:22:54Z</time>
      </trkpt>
      <trkpt lat="45.9040090" lon="5.6780260">
        <ele>535.5</ele>
        <time>2022-07-26T10:22:55Z</time>
      </trkpt>
      <trkpt lat="45.9040350" lon="5.6780270">
        <ele>535.5</ele>
        <time>2022-07-26T10:22:56Z</time>
      </trkpt>
      <trkpt lat="45.9040450" lon="5.6780270">
        <ele>535.5</ele>
        <time>2022-07-26T10:22:57Z</time>
      </trkpt>
      <trkpt lat="45.9040750" lon="5.6780330">
        <ele>535.5</ele>
        <time>2022-07-26T10:22:58Z</time>
      </trkpt>
      <trkpt lat="45.9040840" lon="5.6780360">
        <ele>535.5</ele>
        <time>2022-07-26T10:22:59Z</time>
      </trkpt>
      <trkpt lat="45.9041130" lon="5.6780340">
        <ele>535.5</ele>
        <time>2022-07-26T10:23:00Z</time>
      </trkpt>
      <trkpt lat="45.9041220" lon="5.6780320">
        <ele>535.5</ele>
        <time>2022-07-26T10:23:01Z</time>
      </trkpt>
      <trkpt lat="45.9041510" lon="5.6780230">
        <ele>535.5</ele>
        <time>2022-07-26T10:23:02Z</time>
      </trkpt>
      <trkpt lat="45.9041600" lon="5.6780210">
        <ele>535.5</ele>
        <time>2022-07-26T10:23:03Z</time>
      </trkpt>
      <trkpt lat="45.9041700" lon="5.6780210">
        <ele>535.5</ele>
        <time>2022-07-26T10:23:04Z</time>
      </trkpt>
      <trkpt lat="45.9041750" lon="5.6780200">
        <ele>535.5</ele>
        <time>2022-07-26T10:23:05Z</time>
      </trkpt>
      <trkpt lat="45.9041780" lon="5.6780190">
        <ele>535.5</ele>
        <time>2022-07-26T10:23:06Z</time>
      </trkpt>
      <trkpt lat="45.9041790" lon="5.6780190">
        <ele>535.5</ele>
        <time>2022-07-26T10:23:07Z</time>
      </trkpt>
      <trkpt lat="45.9041770" lon="5.6780220">
        <ele>535.5</ele>
        <time>2022-07-26T10:23:08Z</time>
      </trkpt>
      <trkpt lat="45.9041740" lon="5.6780270">
        <ele>535.5</ele>
        <time>2022-07-26T10:23:09Z</time>
      </trkpt>
      <trkpt lat="45.9041740" lon="5.6780330">
        <ele>535.5</ele>
        <time>2022-07-26T10:23:10Z</time>
      </trkpt>
      <trkpt lat="45.9041760" lon="5.6780390">
        <ele>535.5</ele>
        <time>2022-07-26T10:23:11Z</time>
      </trkpt>
      <trkpt lat="45.9041820" lon="5.6780470">
        <ele>535.5</ele>
        <time>2022-07-26T10:23:12Z</time>
      </trkpt>
      <trkpt lat="45.9041910" lon="5.6780600">
        <ele>535.5</ele>
        <time>2022-07-26T10:23:13Z</time>
      </trkpt>
      <trkpt lat="45.9041960" lon="5.6780720">
        <ele>535.5</ele>
        <time>2022-07-26T10:23:14Z</time>
      </trkpt>
      <trkpt lat="45.9041970" lon="5.6780760">
        <ele>535.5</ele>
        <time>2022-07-26T10:23:15Z</time>
      </trkpt>
      <trkpt lat="45.9042000" lon="5.6780830">
        <ele>535.5</ele>
        <time>2022-07-26T10:23:16Z</time>
      </trkpt>
      <trkpt lat="45.9042080" lon="5.6780970">
        <ele>535.5</ele>
        <time>2022-07-26T10:23:17Z</time>
      </trkpt>
      <trkpt lat="45.9042140" lon="5.6781060">
        <ele>535.5</ele>
        <time>2022-07-26T10:23:18Z</time>
      </trkpt>
      <trkpt lat="45.9042190" lon="5.6781150">
        <ele>535.6</ele>
        <time>2022-07-26T10:23:19Z</time>
      </trkpt>
      <trkpt lat="45.9042250" lon="5.6781240">
        <ele>535.6</ele>
        <time>2022-07-26T10:23:20Z</time>
      </trkpt>
      <trkpt lat="45.9042330" lon="5.6781290">
        <ele>535.6</ele>
        <time>2022-07-26T10:23:21Z</time>
      </trkpt>
      <trkpt lat="45.9042320" lon="5.6781270">
        <ele>535.6</ele>
        <time>2022-07-26T10:23:22Z</time>
      </trkpt>
      <trkpt lat="45.9042300" lon="5.6781280">
        <ele>535.6</ele>
        <time>2022-07-26T10:23:23Z</time>
      </trkpt>
      <trkpt lat="45.9042280" lon="5.6781260">
        <ele>535.6</ele>
        <time>2022-07-26T10:23:24Z</time>
      </trkpt>
      <trkpt lat="45.9042250" lon="5.6781240">
        <ele>535.6</ele>
        <time>2022-07-26T10:23:25Z</time>
      </trkpt>
      <trkpt lat="45.9042250" lon="5.6781170">
        <ele>535.6</ele>
        <time>2022-07-26T10:23:26Z</time>
      </trkpt>
      <trkpt lat="45.9042240" lon="5.6781120">
        <ele>535.6</ele>
        <time>2022-07-26T10:23:27Z</time>
      </trkpt>
      <trkpt lat="45.9042230" lon="5.6781080">
        <ele>535.6</ele>
        <time>2022-07-26T10:23:28Z</time>
      </trkpt>
      <trkpt lat="45.9042210" lon="5.6781060">
        <ele>535.6</ele>
        <time>2022-07-26T10:23:29Z</time>
      </trkpt>
      <trkpt lat="45.9042200" lon="5.6781050">
        <ele>535.6</ele>
        <time>2022-07-26T10:23:30Z</time>
      </trkpt>
      <trkpt lat="45.9042190" lon="5.6781050">
        <ele>535.6</ele>
        <time>2022-07-26T10:23:31Z</time>
      </trkpt>
      <trkpt lat="45.9042190" lon="5.6781060">
        <ele>535.6</ele>
        <time>2022-07-26T10:23:32Z</time>
      </trkpt>
      <trkpt lat="45.9042190" lon="5.6781060">
        <ele>535.6</ele>
        <time>2022-07-26T10:23:33Z</time>
      </trkpt>
      <trkpt lat="45.9042190" lon="5.6781050">
        <ele>535.6</ele>
        <time>2022-07-26T10:23:34Z</time>
      </trkpt>
      <trkpt lat="45.9042190" lon="5.6781050">
        <ele>535.6</ele>
        <time>2022-07-26T10:23:35Z</time>
      </trkpt>
      <trkpt lat="45.9042200" lon="5.6781050">
        <ele>535.6</ele>
        <time>2022-07-26T10:23:36Z</time>
      </trkpt>
      <trkpt lat="45.9042260" lon="5.6781000">
        <ele>535.6</ele>
        <time>2022-07-26T10:23:37Z</time>
      </trkpt>
      <trkpt lat="45.9042330" lon="5.6780900">
        <ele>535.6</ele>
        <time>2022-07-26T10:23:38Z</time>
      </trkpt>
      <trkpt lat="45.9042370" lon="5.6780780">
        <ele>535.6</ele>
        <time>2022-07-26T10:23:39Z</time>
      </trkpt>
      <trkpt lat="45.9042380" lon="5.6780690">
        <ele>535.6</ele>
        <time>2022-07-26T10:23:40Z</time>
      </trkpt>
      <trkpt lat="45.9042380" lon="5.6780650">
        <ele>535.6</ele>
        <time>2022-07-26T10:23:41Z</time>
      </trkpt>
      <trkpt lat="45.9042370" lon="5.6780660">
        <ele>535.6</ele>
        <time>2022-07-26T10:23:42Z</time>
      </trkpt>
      <trkpt lat="45.9042370" lon="5.6780690">
        <ele>535.6</ele>
        <time>2022-07-26T10:23:43Z</time>
      </trkpt>
      <trkpt lat="45.9042360" lon="5.6780730">
        <ele>535.6</ele>
        <time>2022-07-26T10:23:44Z</time>
      </trkpt>
      <trkpt lat="45.9042380" lon="5.6780740">
        <ele>535.6</ele>
        <time>2022-07-26T10:23:45Z</time>
      </trkpt>
      <trkpt lat="45.9042390" lon="5.6780740">
        <ele>535.6</ele>
        <time>2022-07-26T10:23:46Z</time>
      </trkpt>
      <trkpt lat="45.9042400" lon="5.6780750">
        <ele>535.6</ele>
        <time>2022-07-26T10:23:47Z</time>
      </trkpt>
      <trkpt lat="45.9042400" lon="5.6780760">
        <ele>535.6</ele>
        <time>2022-07-26T10:23:48Z</time>
      </trkpt>
      <trkpt lat="45.9042400" lon="5.6780770">
        <ele>535.6</ele>
        <time>2022-07-26T10:23:49Z</time>
      </trkpt>
      <trkpt lat="45.9042390" lon="5.6780770">
        <ele>535.6</ele>
        <time>2022-07-26T10:23:50Z</time>
      </trkpt>
      <trkpt lat="45.9042390" lon="5.6780770">
        <ele>535.6</ele>
        <time>2022-07-26T10:23:51Z</time>
      </trkpt>
      <trkpt lat="45.9042170" lon="5.6781130">
        <ele>535.6</ele>
        <time>2022-07-26T10:24:24Z</time>
      </trkpt>
      <trkpt lat="45.9042130" lon="5.6781130">
        <ele>535.6</ele>
        <time>2022-07-26T10:24:25Z</time>
      </trkpt>
      <trkpt lat="45.9042090" lon="5.6781080">
        <ele>535.6</ele>
        <time>2022-07-26T10:24:26Z</time>
      </trkpt>
      <trkpt lat="45.9042050" lon="5.6781010">
        <ele>535.6</ele>
        <time>2022-07-26T10:24:27Z</time>
      </trkpt>
      <trkpt lat="45.9042020" lon="5.6780980">
        <ele>535.6</ele>
        <time>2022-07-26T10:24:28Z</time>
      </trkpt>
      <trkpt lat="45.9041990" lon="5.6780970">
        <ele>535.6</ele>
        <time>2022-07-26T10:24:29Z</time>
      </trkpt>
      <trkpt lat="45.9041970" lon="5.6780950">
        <ele>535.6</ele>
        <time>2022-07-26T10:24:30Z</time>
      </trkpt>
      <trkpt lat="45.9041960" lon="5.6780940">
        <ele>535.6</ele>
        <time>2022-07-26T10:24:31Z</time>
      </trkpt>
      <trkpt lat="45.9041970" lon="5.6780950">
        <ele>535.6</ele>
        <time>2022-07-26T10:24:32Z</time>
      </trkpt>
      <trkpt lat="45.9041980" lon="5.6780960">
        <ele>535.6</ele>
        <time>2022-07-26T10:24:33Z</time>
      </trkpt>
      <trkpt lat="45.9041990" lon="5.6780960">
        <ele>535.6</ele>
        <time>2022-07-26T10:24:34Z</time>
      </trkpt>
      <trkpt lat="45.9042000" lon="5.6780950">
        <ele>535.6</ele>
        <time>2022-07-26T10:24:35Z</time>
      </trkpt>
      <trkpt lat="45.9042000" lon="5.6780950">
        <ele>535.6</ele>
        <time>2022-07-26T10:24:36Z</time>
      </trkpt>
      <trkpt lat="45.9042000" lon="5.6780940">
        <ele>535.6</ele>
        <time>2022-07-26T10:24:37Z</time>
      </trkpt>
      <trkpt lat="45.9042010" lon="5.6780940">
        <ele>535.6</ele>
        <time>2022-07-26T10:24:38Z</time>
      </trkpt>
      <trkpt lat="45.9042010" lon="5.6780940">
        <ele>535.6</ele>
        <time>2022-07-26T10:24:39Z</time>
      </trkpt>
      <trkpt lat="45.9042000" lon="5.6780940">
        <ele>535.6</ele>
        <time>2022-07-26T10:24:40Z</time>
      </trkpt>
      <trkpt lat="45.9041970" lon="5.6780830">
        <ele>535.6</ele>
        <time>2022-07-26T10:24:52Z</time>
      </trkpt>
      <trkpt lat="45.9041940" lon="5.6780660">
        <ele>535.6</ele>
        <time>2022-07-26T10:24:53Z</time>
      </trkpt>
      <trkpt lat="45.9041940" lon="5.6780500">
        <ele>535.6</ele>
        <time>2022-07-26T10:24:54Z</time>
      </trkpt>
      <trkpt lat="45.9041940" lon="5.6780330">
        <ele>535.6</ele>
        <time>2022-07-26T10:24:55Z</time>
      </trkpt>
      <trkpt lat="45.9041940" lon="5.6780220">
        <ele>535.6</ele>
        <time>2022-07-26T10:24:56Z</time>
      </trkpt>
      <trkpt lat="45.9041910" lon="5.6780100">
        <ele>535.6</ele>
        <time>2022-07-26T10:24:57Z</time>
      </trkpt>
      <trkpt lat="45.9041880" lon="5.6780040">
        <ele>535.6</ele>
        <time>2022-07-26T10:24:58Z</time>
      </trkpt>
      <trkpt lat="45.9041890" lon="5.6780030">
        <ele>535.6</ele>
        <time>2022-07-26T10:24:59Z</time>
      </trkpt>
      <trkpt lat="45.9041910" lon="5.6780070">
        <ele>535.6</ele>
        <time>2022-07-26T10:25:00Z</time>
      </trkpt>
      <trkpt lat="45.9041880" lon="5.6780080">
        <ele>535.6</ele>
        <time>2022-07-26T10:25:01Z</time>
      </trkpt>
      <trkpt lat="45.9041830" lon="5.6780080">
        <ele>535.6</ele>
        <time>2022-07-26T10:25:02Z</time>
      </trkpt>
      <trkpt lat="45.9041840" lon="5.6780170">
        <ele>535.6</ele>
        <time>2022-07-26T10:25:03Z</time>
      </trkpt>
      <trkpt lat="45.9041920" lon="5.6780270">
        <ele>535.6</ele>
        <time>2022-07-26T10:25:04Z</time>
      </trkpt>
      <trkpt lat="45.9041990" lon="5.6780360">
        <ele>535.6</ele>
        <time>2022-07-26T10:25:05Z</time>
      </trkpt>
      <trkpt lat="45.9042050" lon="5.6780430">
        <ele>535.6</ele>
        <time>2022-07-26T10:25:06Z</time>
      </trkpt>
      <trkpt lat="45.9042100" lon="5.6780510">
        <ele>535.6</ele>
        <time>2022-07-26T10:25:07Z</time>
      </trkpt>
      <trkpt lat="45.9042150" lon="5.6780580">
        <ele>535.6</ele>
        <time>2022-07-26T10:25:08Z</time>
      </trkpt>
      <trkpt lat="45.9042210" lon="5.6780600">
        <ele>535.6</ele>
        <time>2022-07-26T10:25:09Z</time>
      </trkpt>
      <trkpt lat="45.9042260" lon="5.6780630">
        <ele>535.6</ele>
        <time>2022-07-26T10:25:10Z</time>
      </trkpt>
      <trkpt lat="45.9042290" lon="5.6780690">
        <ele>535.6</ele>
        <time>2022-07-26T10:25:11Z</time>
      </trkpt>
      <trkpt lat="45.9042300" lon="5.6780730">
        <ele>535.6</ele>
        <time>2022-07-26T10:25:12Z</time>
      </trkpt>
      <trkpt lat="45.9042310" lon="5.6780760">
        <ele>535.6</ele>
        <time>2022-07-26T10:25:13Z</time>
      </trkpt>
      <trkpt lat="45.9042310" lon="5.6780780">
        <ele>535.6</ele>
        <time>2022-07-26T10:25:14Z</time>
      </trkpt>
      <trkpt lat="45.9042310" lon="5.6780790">
        <ele>535.6</ele>
        <time>2022-07-26T10:25:15Z</time>
      </trkpt>
      <trkpt lat="45.9042310" lon="5.6780790">
        <ele>535.6</ele>
        <time>2022-07-26T10:25:16Z</time>
      </trkpt>
      <trkpt lat="45.9042310" lon="5.6780790">
        <ele>535.6</ele>
        <time>2022-07-26T10:25:17Z</time>
      </trkpt>
      <trkpt lat="45.9042310" lon="5.6780790">
        <ele>535.6</ele>
        <time>2022-07-26T10:25:18Z</time>
      </trkpt>
      <trkpt lat="45.9042310" lon="5.6780790">
        <ele>535.6</ele>
        <time>2022-07-26T10:25:19Z</time>
      </trkpt>
      <trkpt lat="45.9042210" lon="5.6780730">
        <ele>535.6</ele>
        <time>2022-07-26T10:25:20Z</time>
      </trkpt>
      <trkpt lat="45.9042110" lon="5.6780680">
        <ele>535.6</ele>
        <time>2022-07-26T10:25:21Z</time>
      </trkpt>
      <trkpt lat="45.9042050" lon="5.6780680">
        <ele>535.6</ele>
        <time>2022-07-26T10:25:22Z</time>
      </trkpt>
      <trkpt lat="45.9042030" lon="5.6780700">
        <ele>535.6</ele>
        <time>2022-07-26T10:25:23Z</time>
      </trkpt>
      <trkpt lat="45.9042030" lon="5.6780750">
        <ele>535.6</ele>
        <time>2022-07-26T10:25:24Z</time>
      </trkpt>
      <trkpt lat="45.9042040" lon="5.6780780">
        <ele>535.6</ele>
        <time>2022-07-26T10:25:25Z</time>
      </trkpt>
      <trkpt lat="45.9042050" lon="5.6780800">
        <ele>535.6</ele>
        <time>2022-07-26T10:25:26Z</time>
      </trkpt>
      <trkpt lat="45.9042040" lon="5.6780800">
        <ele>535.6</ele>
        <time>2022-07-26T10:25:27Z</time>
      </trkpt>
      <trkpt lat="45.9042050" lon="5.6780760">
        <ele>535.6</ele>
        <time>2022-07-26T10:25:28Z</time>
      </trkpt>
      <trkpt lat="45.9042060" lon="5.6780750">
        <ele>535.6</ele>
        <time>2022-07-26T10:25:29Z</time>
      </trkpt>
      <trkpt lat="45.9042060" lon="5.6780730">
        <ele>535.6</ele>
        <time>2022-07-26T10:25:30Z</time>
      </trkpt>
      <trkpt lat="45.9042060" lon="5.6780720">
        <ele>535.6</ele>
        <time>2022-07-26T10:25:31Z</time>
      </trkpt>
      <trkpt lat="45.9042070" lon="5.6780720">
        <ele>535.6</ele>
        <time>2022-07-26T10:25:32Z</time>
      </trkpt>
      <trkpt lat="45.9042070" lon="5.6780720">
        <ele>535.6</ele>
        <time>2022-07-26T10:25:33Z</time>
      </trkpt>
      <trkpt lat="45.9042020" lon="5.6780970">
        <ele>535.6</ele>
        <time>2022-07-26T10:26:17Z</time>
      </trkpt>
      <trkpt lat="45.9042010" lon="5.6780960">
        <ele>535.6</ele>
        <time>2022-07-26T10:26:18Z</time>
      </trkpt>
      <trkpt lat="45.9042030" lon="5.6780930">
        <ele>535.6</ele>
        <time>2022-07-26T10:26:19Z</time>
      </trkpt>
      <trkpt lat="45.9042040" lon="5.6780890">
        <ele>535.6</ele>
        <time>2022-07-26T10:26:20Z</time>
      </trkpt>
      <trkpt lat="45.9042060" lon="5.6780880">
        <ele>535.6</ele>
        <time>2022-07-26T10:26:21Z</time>
      </trkpt>
      <trkpt lat="45.9042070" lon="5.6780910">
        <ele>535.6</ele>
        <time>2022-07-26T10:26:22Z</time>
      </trkpt>
      <trkpt lat="45.9042080" lon="5.6780920">
        <ele>535.6</ele>
        <time>2022-07-26T10:26:23Z</time>
      </trkpt>
      <trkpt lat="45.9042090" lon="5.6780940">
        <ele>535.6</ele>
        <time>2022-07-26T10:26:24Z</time>
      </trkpt>
      <trkpt lat="45.9042090" lon="5.6780950">
        <ele>535.6</ele>
        <time>2022-07-26T10:26:25Z</time>
      </trkpt>
      <trkpt lat="45.9042090" lon="5.6780950">
        <ele>535.6</ele>
        <time>2022-07-26T10:26:26Z</time>
      </trkpt>
      <trkpt lat="45.9042090" lon="5.6780950">
        <ele>535.6</ele>
        <time>2022-07-26T10:26:27Z</time>
      </trkpt>
      <trkpt lat="45.9042090" lon="5.6780950">
        <ele>535.6</ele>
        <time>2022-07-26T10:26:28Z</time>
      </trkpt>
      <trkpt lat="45.9042090" lon="5.6780950">
        <ele>535.6</ele>
        <time>2022-07-26T10:26:29Z</time>
      </trkpt>
      <trkpt lat="45.9042090" lon="5.6780950">
        <ele>535.6</ele>
        <time>2022-07-26T10:26:30Z</time>
      </trkpt>
      <trkpt lat="45.9042090" lon="5.6780950">
        <ele>535.6</ele>
        <time>2022-07-26T10:26:31Z</time>
      </trkpt>
      <trkpt lat="45.9042090" lon="5.6780950">
        <ele>535.6</ele>
        <time>2022-07-26T10:26:32Z</time>
      </trkpt>
      <trkpt lat="45.9042090" lon="5.6780950">
        <ele>535.6</ele>
        <time>2022-07-26T10:26:33Z</time>
      </trkpt>
      <trkpt lat="45.9042090" lon="5.6780950">
        <ele>535.6</ele>
        <time>2022-07-26T10:26:34Z</time>
      </trkpt>
      <trkpt lat="45.9042090" lon="5.6780950">
        <ele>535.6</ele>
        <time>2022-07-26T10:26:35Z</time>
      </trkpt>
      <trkpt lat="45.9042090" lon="5.6780950">
        <ele>535.6</ele>
        <time>2022-07-26T10:26:36Z</time>
      </trkpt>
      <trkpt lat="45.9042090" lon="5.6780950">
        <ele>535.6</ele>
        <time>2022-07-26T10:26:37Z</time>
      </trkpt>
      <trkpt lat="45.9042100" lon="5.6780950">
        <ele>535.6</ele>
        <time>2022-07-26T10:26:38Z</time>
      </trkpt>
      <trkpt lat="45.9042100" lon="5.6780950">
        <ele>535.6</ele>
        <time>2022-07-26T10:26:39Z</time>
      </trkpt>
      <trkpt lat="45.9042100" lon="5.6780950">
        <ele>535.6</ele>
        <time>2022-07-26T10:26:40Z</time>
      </trkpt>
      <trkpt lat="45.9042050" lon="5.6780960">
        <ele>535.6</ele>
        <time>2022-07-26T10:26:41Z</time>
      </trkpt>
      <trkpt lat="45.9042010" lon="5.6780980">
        <ele>535.6</ele>
        <time>2022-07-26T10:26:42Z</time>
      </trkpt>
      <trkpt lat="45.9042000" lon="5.6781010">
        <ele>535.6</ele>
        <time>2022-07-26T10:26:43Z</time>
      </trkpt>
      <trkpt lat="45.9042020" lon="5.6781040">
        <ele>535.6</ele>
        <time>2022-07-26T10:26:44Z</time>
      </trkpt>
      <trkpt lat="45.9042040" lon="5.6781050">
        <ele>535.6</ele>
        <time>2022-07-26T10:26:45Z</time>
      </trkpt>
      <trkpt lat="45.9042040" lon="5.6781050">
        <ele>535.6</ele>
        <time>2022-07-26T10:26:46Z</time>
      </trkpt>
      <trkpt lat="45.9042020" lon="5.6781030">
        <ele>535.6</ele>
        <time>2022-07-26T10:26:47Z</time>
      </trkpt>
      <trkpt lat="45.9042000" lon="5.6781000">
        <ele>535.6</ele>
        <time>2022-07-26T10:26:48Z</time>
      </trkpt>
      <trkpt lat="45.9041970" lon="5.6780960">
        <ele>535.6</ele>
        <time>2022-07-26T10:26:49Z</time>
      </trkpt>
      <trkpt lat="45.9041950" lon="5.6780930">
        <ele>535.6</ele>
        <time>2022-07-26T10:26:50Z</time>
      </trkpt>
      <trkpt lat="45.9041910" lon="5.6780890">
        <ele>535.6</ele>
        <time>2022-07-26T10:26:51Z</time>
      </trkpt>
      <trkpt lat="45.9041890" lon="5.6780850">
        <ele>535.6</ele>
        <time>2022-07-26T10:26:52Z</time>
      </trkpt>
      <trkpt lat="45.9041880" lon="5.6780830">
        <ele>535.6</ele>
        <time>2022-07-26T10:26:53Z</time>
      </trkpt>
      <trkpt lat="45.9041880" lon="5.6780810">
        <ele>535.6</ele>
        <time>2022-07-26T10:26:54Z</time>
      </trkpt>
      <trkpt lat="45.9041890" lon="5.6780810">
        <ele>535.6</ele>
        <time>2022-07-26T10:26:55Z</time>
      </trkpt>
      <trkpt lat="45.9041890" lon="5.6780800">
        <ele>535.6</ele>
        <time>2022-07-26T10:26:56Z</time>
      </trkpt>
      <trkpt lat="45.9041890" lon="5.6780800">
        <ele>535.6</ele>
        <time>2022-07-26T10:26:57Z</time>
      </trkpt>
      <trkpt lat="45.9041890" lon="5.6780800">
        <ele>535.6</ele>
        <time>2022-07-26T10:26:58Z</time>
      </trkpt>
      <trkpt lat="45.9041890" lon="5.6780800">
        <ele>535.6</ele>
        <time>2022-07-26T10:26:59Z</time>
      </trkpt>
      <trkpt lat="45.9041890" lon="5.6780800">
        <ele>535.6</ele>
        <time>2022-07-26T10:27:00Z</time>
      </trkpt>
      <trkpt lat="45.9041890" lon="5.6780800">
        <ele>535.6</ele>
        <time>2022-07-26T10:27:01Z</time>
      </trkpt>
      <trkpt lat="45.9041890" lon="5.6780800">
        <ele>535.6</ele>
        <time>2022-07-26T10:27:02Z</time>
      </trkpt>
      <trkpt lat="45.9042080" lon="5.6780510">
        <ele>535.6</ele>
        <time>2022-07-26T10:27:22Z</time>
      </trkpt>
      <trkpt lat="45.9042060" lon="5.6780280">
        <ele>535.6</ele>
        <time>2022-07-26T10:27:23Z</time>
      </trkpt>
      <trkpt lat="45.9041990" lon="5.6780120">
        <ele>535.6</ele>
        <time>2022-07-26T10:27:24Z</time>
      </trkpt>
      <trkpt lat="45.9041940" lon="5.6780050">
        <ele>535.6</ele>
        <time>2022-07-26T10:27:25Z</time>
      </trkpt>
      <trkpt lat="45.9041890" lon="5.6780040">
        <ele>535.6</ele>
        <time>2022-07-26T10:27:26Z</time>
      </trkpt>
      <trkpt lat="45.9041850" lon="5.6780030">
        <ele>535.6</ele>
        <time>2022-07-26T10:27:27Z</time>
      </trkpt>
      <trkpt lat="45.9041810" lon="5.6780010">
        <ele>535.6</ele>
        <time>2022-07-26T10:27:28Z</time>
      </trkpt>
      <trkpt lat="45.9041760" lon="5.6779830">
        <ele>535.6</ele>
        <time>2022-07-26T10:27:29Z</time>
      </trkpt>
      <trkpt lat="45.9041700" lon="5.6779710">
        <ele>535.6</ele>
        <time>2022-07-26T10:27:30Z</time>
      </trkpt>
      <trkpt lat="45.9041660" lon="5.6779700">
        <ele>535.6</ele>
        <time>2022-07-26T10:27:31Z</time>
      </trkpt>
      <trkpt lat="45.9041650" lon="5.6779750">
        <ele>535.6</ele>
        <time>2022-07-26T10:27:32Z</time>
      </trkpt>
      <trkpt lat="45.9041650" lon="5.6779810">
        <ele>535.6</ele>
        <time>2022-07-26T10:27:33Z</time>
      </trkpt>
      <trkpt lat="45.9041680" lon="5.6779820">
        <ele>535.6</ele>
        <time>2022-07-26T10:27:34Z</time>
      </trkpt>
      <trkpt lat="45.9041700" lon="5.6779810">
        <ele>535.6</ele>
        <time>2022-07-26T10:27:35Z</time>
      </trkpt>
      <trkpt lat="45.9041730" lon="5.6779780">
        <ele>535.6</ele>
        <time>2022-07-26T10:27:36Z</time>
      </trkpt>
      <trkpt lat="45.9041750" lon="5.6779750">
        <ele>535.6</ele>
        <time>2022-07-26T10:27:37Z</time>
      </trkpt>
      <trkpt lat="45.9041760" lon="5.6779720">
        <ele>535.6</ele>
        <time>2022-07-26T10:27:38Z</time>
      </trkpt>
      <trkpt lat="45.9041780" lon="5.6779690">
        <ele>535.6</ele>
        <time>2022-07-26T10:27:39Z</time>
      </trkpt>
      <trkpt lat="45.9041800" lon="5.6779670">
        <ele>535.6</ele>
        <time>2022-07-26T10:27:40Z</time>
      </trkpt>
      <trkpt lat="45.9041810" lon="5.6779660">
        <ele>535.6</ele>
        <time>2022-07-26T10:27:41Z</time>
      </trkpt>
      <trkpt lat="45.9041820" lon="5.6779660">
        <ele>535.6</ele>
        <time>2022-07-26T10:27:42Z</time>
      </trkpt>
      <trkpt lat="45.9041690" lon="5.6780630">
        <ele>535.6</ele>
        <time>2022-07-26T10:28:24Z</time>
      </trkpt>
      <trkpt lat="45.9041690" lon="5.6780770">
        <ele>535.6</ele>
        <time>2022-07-26T10:28:25Z</time>
      </trkpt>
      <trkpt lat="45.9041700" lon="5.6780840">
        <ele>535.6</ele>
        <time>2022-07-26T10:28:26Z</time>
      </trkpt>
      <trkpt lat="45.9041710" lon="5.6780870">
        <ele>535.6</ele>
        <time>2022-07-26T10:28:27Z</time>
      </trkpt>
      <trkpt lat="45.9041730" lon="5.6780880">
        <ele>535.6</ele>
        <time>2022-07-26T10:28:28Z</time>
      </trkpt>
      <trkpt lat="45.9041760" lon="5.6780890">
        <ele>535.6</ele>
        <time>2022-07-26T10:28:29Z</time>
      </trkpt>
      <trkpt lat="45.9041770" lon="5.6780930">
        <ele>535.6</ele>
        <time>2022-07-26T10:28:30Z</time>
      </trkpt>
      <trkpt lat="45.9041770" lon="5.6780980">
        <ele>535.6</ele>
        <time>2022-07-26T10:28:31Z</time>
      </trkpt>
      <trkpt lat="45.9041790" lon="5.6781050">
        <ele>535.6</ele>
        <time>2022-07-26T10:28:32Z</time>
      </trkpt>
      <trkpt lat="45.9041810" lon="5.6781100">
        <ele>535.6</ele>
        <time>2022-07-26T10:28:33Z</time>
      </trkpt>
      <trkpt lat="45.9041830" lon="5.6781140">
        <ele>535.6</ele>
        <time>2022-07-26T10:28:34Z</time>
      </trkpt>
      <trkpt lat="45.9041840" lon="5.6781160">
        <ele>535.6</ele>
        <time>2022-07-26T10:28:35Z</time>
      </trkpt>
      <trkpt lat="45.9041860" lon="5.6781170">
        <ele>535.6</ele>
        <time>2022-07-26T10:28:36Z</time>
      </trkpt>
      <trkpt lat="45.9041860" lon="5.6781180">
        <ele>535.6</ele>
        <time>2022-07-26T10:28:37Z</time>
      </trkpt>
      <trkpt lat="45.9041880" lon="5.6781190">
        <ele>535.6</ele>
        <time>2022-07-26T10:28:38Z</time>
      </trkpt>
      <trkpt lat="45.9041900" lon="5.6781190">
        <ele>535.6</ele>
        <time>2022-07-26T10:28:39Z</time>
      </trkpt>
      <trkpt lat="45.9041910" lon="5.6781190">
        <ele>535.6</ele>
        <time>2022-07-26T10:28:40Z</time>
      </trkpt>
      <trkpt lat="45.9041930" lon="5.6781200">
        <ele>535.6</ele>
        <time>2022-07-26T10:28:41Z</time>
      </trkpt>
      <trkpt lat="45.9041940" lon="5.6781200">
        <ele>535.6</ele>
        <time>2022-07-26T10:28:42Z</time>
      </trkpt>
      <trkpt lat="45.9041930" lon="5.6781200">
        <ele>535.6</ele>
        <time>2022-07-26T10:28:43Z</time>
      </trkpt>
      <trkpt lat="45.9041920" lon="5.6781200">
        <ele>535.6</ele>
        <time>2022-07-26T10:28:44Z</time>
      </trkpt>
      <trkpt lat="45.9042020" lon="5.6780790">
        <ele>535.6</ele>
        <time>2022-07-26T10:29:05Z</time>
      </trkpt>
      <trkpt lat="45.9042040" lon="5.6780760">
        <ele>535.6</ele>
        <time>2022-07-26T10:29:06Z</time>
      </trkpt>
      <trkpt lat="45.9042060" lon="5.6780770">
        <ele>535.6</ele>
        <time>2022-07-26T10:29:07Z</time>
      </trkpt>
      <trkpt lat="45.9042070" lon="5.6780790">
        <ele>535.6</ele>
        <time>2022-07-26T10:29:08Z</time>
      </trkpt>
      <trkpt lat="45.9042070" lon="5.6780800">
        <ele>535.6</ele>
        <time>2022-07-26T10:29:09Z</time>
      </trkpt>
      <trkpt lat="45.9042070" lon="5.6780810">
        <ele>535.6</ele>
        <time>2022-07-26T10:29:10Z</time>
      </trkpt>
      <trkpt lat="45.9042070" lon="5.6780810">
        <ele>535.6</ele>
        <time>2022-07-26T10:29:11Z</time>
      </trkpt>
      <trkpt lat="45.9042070" lon="5.6780810">
        <ele>535.6</ele>
        <time>2022-07-26T10:29:12Z</time>
      </trkpt>
      <trkpt lat="45.9042070" lon="5.6780810">
        <ele>535.6</ele>
        <time>2022-07-26T10:29:13Z</time>
      </trkpt>
      <trkpt lat="45.9042070" lon="5.6780810">
        <ele>535.6</ele>
        <time>2022-07-26T10:29:14Z</time>
      </trkpt>
      <trkpt lat="45.9042070" lon="5.6780810">
        <ele>535.6</ele>
        <time>2022-07-26T10:29:15Z</time>
      </trkpt>
      <trkpt lat="45.9042070" lon="5.6780820">
        <ele>535.6</ele>
        <time>2022-07-26T10:29:16Z</time>
      </trkpt>
      <trkpt lat="45.9042070" lon="5.6781170">
        <ele>535.6</ele>
        <time>2022-07-26T10:29:43Z</time>
      </trkpt>
      <trkpt lat="45.9042070" lon="5.6781220">
        <ele>535.6</ele>
        <time>2022-07-26T10:29:44Z</time>
      </trkpt>
      <trkpt lat="45.9042080" lon="5.6781270">
        <ele>535.6</ele>
        <time>2022-07-26T10:29:45Z</time>
      </trkpt>
      <trkpt lat="45.9042080" lon="5.6781290">
        <ele>535.6</ele>
        <time>2022-07-26T10:29:46Z</time>
      </trkpt>
      <trkpt lat="45.9042080" lon="5.6781310">
        <ele>535.6</ele>
        <time>2022-07-26T10:29:47Z</time>
      </trkpt>
      <trkpt lat="45.9042070" lon="5.6781320">
        <ele>535.6</ele>
        <time>2022-07-26T10:29:48Z</time>
      </trkpt>
      <trkpt lat="45.9042070" lon="5.6781330">
        <ele>535.6</ele>
        <time>2022-07-26T10:29:49Z</time>
      </trkpt>
      <trkpt lat="45.9042070" lon="5.6781340">
        <ele>535.6</ele>
        <time>2022-07-26T10:29:50Z</time>
      </trkpt>
      <trkpt lat="45.9042060" lon="5.6781360">
        <ele>535.6</ele>
        <time>2022-07-26T10:29:51Z</time>
      </trkpt>
      <trkpt lat="45.9042050" lon="5.6781370">
        <ele>535.6</ele>
        <time>2022-07-26T10:29:52Z</time>
      </trkpt>
      <trkpt lat="45.9042050" lon="5.6781390">
        <ele>535.6</ele>
        <time>2022-07-26T10:29:53Z</time>
      </trkpt>
      <trkpt lat="45.9042040" lon="5.6781410">
        <ele>535.6</ele>
        <time>2022-07-26T10:29:54Z</time>
      </trkpt>
      <trkpt lat="45.9042040" lon="5.6781420">
        <ele>535.6</ele>
        <time>2022-07-26T10:29:55Z</time>
      </trkpt>
      <trkpt lat="45.9041510" lon="5.6781320">
        <ele>535.6</ele>
        <time>2022-07-26T10:31:54Z</time>
      </trkpt>
      <trkpt lat="45.9041510" lon="5.6781320">
        <ele>535.6</ele>
        <time>2022-07-26T10:31:55Z</time>
      </trkpt>
      <trkpt lat="45.9041510" lon="5.6781320">
        <ele>535.6</ele>
        <time>2022-07-26T10:31:56Z</time>
      </trkpt>
      <trkpt lat="45.9041520" lon="5.6781320">
        <ele>535.6</ele>
        <time>2022-07-26T10:31:57Z</time>
      </trkpt>
      <trkpt lat="45.9041530" lon="5.6781310">
        <ele>535.6</ele>
        <time>2022-07-26T10:31:58Z</time>
      </trkpt>
      <trkpt lat="45.9041570" lon="5.6781250">
        <ele>535.6</ele>
        <time>2022-07-26T10:31:59Z</time>
      </trkpt>
      <trkpt lat="45.9041590" lon="5.6781240">
        <ele>535.6</ele>
        <time>2022-07-26T10:32:00Z</time>
      </trkpt>
      <trkpt lat="45.9041590" lon="5.6781240">
        <ele>535.6</ele>
        <time>2022-07-26T10:32:01Z</time>
      </trkpt>
      <trkpt lat="45.9041590" lon="5.6781100">
        <ele>535.6</ele>
        <time>2022-07-26T10:32:02Z</time>
      </trkpt>
      <trkpt lat="45.9041600" lon="5.6780890">
        <ele>535.6</ele>
        <time>2022-07-26T10:32:03Z</time>
      </trkpt>
      <trkpt lat="45.9041590" lon="5.6780760">
        <ele>535.6</ele>
        <time>2022-07-26T10:32:04Z</time>
      </trkpt>
      <trkpt lat="45.9041590" lon="5.6780720">
        <ele>535.6</ele>
        <time>2022-07-26T10:32:05Z</time>
      </trkpt>
      <trkpt lat="45.9041570" lon="5.6780730">
        <ele>535.6</ele>
        <time>2022-07-26T10:32:06Z</time>
      </trkpt>
      <trkpt lat="45.9041540" lon="5.6780750">
        <ele>535.6</ele>
        <time>2022-07-26T10:32:07Z</time>
      </trkpt>
      <trkpt lat="45.9041500" lon="5.6780790">
        <ele>535.6</ele>
        <time>2022-07-26T10:32:08Z</time>
      </trkpt>
      <trkpt lat="45.9041480" lon="5.6780810">
        <ele>535.6</ele>
        <time>2022-07-26T10:32:09Z</time>
      </trkpt>
      <trkpt lat="45.9041470" lon="5.6780800">
        <ele>535.6</ele>
        <time>2022-07-26T10:32:10Z</time>
      </trkpt>
      <trkpt lat="45.9041460" lon="5.6780780">
        <ele>535.6</ele>
        <time>2022-07-26T10:32:11Z</time>
      </trkpt>
      <trkpt lat="45.9041450" lon="5.6780770">
        <ele>535.6</ele>
        <time>2022-07-26T10:32:12Z</time>
      </trkpt>
      <trkpt lat="45.9041450" lon="5.6780770">
        <ele>535.6</ele>
        <time>2022-07-26T10:32:13Z</time>
      </trkpt>
      <trkpt lat="45.9041450" lon="5.6780760">
        <ele>535.6</ele>
        <time>2022-07-26T10:32:14Z</time>
      </trkpt>
      <trkpt lat="45.9041440" lon="5.6780760">
        <ele>535.6</ele>
        <time>2022-07-26T10:32:15Z</time>
      </trkpt>
      <trkpt lat="45.9041440" lon="5.6780760">
        <ele>535.6</ele>
        <time>2022-07-26T10:32:16Z</time>
      </trkpt>
      <trkpt lat="45.9041440" lon="5.6780760">
        <ele>535.6</ele>
        <time>2022-07-26T10:32:17Z</time>
      </trkpt>
      <trkpt lat="45.9041440" lon="5.6780760">
        <ele>535.6</ele>
        <time>2022-07-26T10:32:18Z</time>
      </trkpt>
      <trkpt lat="45.9041440" lon="5.6780760">
        <ele>535.6</ele>
        <time>2022-07-26T10:32:19Z</time>
      </trkpt>
      <trkpt lat="45.9041550" lon="5.6781280">
        <ele>535.6</ele>
        <time>2022-07-26T10:32:28Z</time>
      </trkpt>
      <trkpt lat="45.9041550" lon="5.6781320">
        <ele>535.6</ele>
        <time>2022-07-26T10:32:29Z</time>
      </trkpt>
      <trkpt lat="45.9041550" lon="5.6781280">
        <ele>535.6</ele>
        <time>2022-07-26T10:32:30Z</time>
      </trkpt>
      <trkpt lat="45.9041540" lon="5.6781240">
        <ele>535.6</ele>
        <time>2022-07-26T10:32:31Z</time>
      </trkpt>
      <trkpt lat="45.9041540" lon="5.6781180">
        <ele>535.6</ele>
        <time>2022-07-26T10:32:32Z</time>
      </trkpt>
      <trkpt lat="45.9041540" lon="5.6781080">
        <ele>535.6</ele>
        <time>2022-07-26T10:32:33Z</time>
      </trkpt>
      <trkpt lat="45.9041540" lon="5.6781030">
        <ele>535.6</ele>
        <time>2022-07-26T10:32:34Z</time>
      </trkpt>
      <trkpt lat="45.9041540" lon="5.6781010">
        <ele>535.6</ele>
        <time>2022-07-26T10:32:35Z</time>
      </trkpt>
      <trkpt lat="45.9041540" lon="5.6781010">
        <ele>535.6</ele>
        <time>2022-07-26T10:32:36Z</time>
      </trkpt>
      <trkpt lat="45.9041540" lon="5.6781010">
        <ele>535.6</ele>
        <time>2022-07-26T10:32:37Z</time>
      </trkpt>
      <trkpt lat="45.9041540" lon="5.6781010">
        <ele>535.6</ele>
        <time>2022-07-26T10:32:38Z</time>
      </trkpt>
      <trkpt lat="45.9041540" lon="5.6781010">
        <ele>535.6</ele>
        <time>2022-07-26T10:32:39Z</time>
      </trkpt>
      <trkpt lat="45.9041540" lon="5.6781010">
        <ele>535.6</ele>
        <time>2022-07-26T10:32:40Z</time>
      </trkpt>
      <trkpt lat="45.9041540" lon="5.6781010">
        <ele>535.6</ele>
        <time>2022-07-26T10:32:41Z</time>
      </trkpt>
      <trkpt lat="45.9041540" lon="5.6781010">
        <ele>535.6</ele>
        <time>2022-07-26T10:32:42Z</time>
      </trkpt>
      <trkpt lat="45.9041540" lon="5.6781010">
        <ele>535.6</ele>
        <time>2022-07-26T10:32:43Z</time>
      </trkpt>
      <trkpt lat="45.9041540" lon="5.6781010">
        <ele>535.6</ele>
        <time>2022-07-26T10:32:44Z</time>
      </trkpt>
      <trkpt lat="45.9041570" lon="5.6781700">
        <ele>535.6</ele>
        <time>2022-07-26T10:33:14Z</time>
      </trkpt>
      <trkpt lat="45.9041550" lon="5.6781730">
        <ele>535.6</ele>
        <time>2022-07-26T10:33:15Z</time>
      </trkpt>
      <trkpt lat="45.9041580" lon="5.6781760">
        <ele>535.6</ele>
        <time>2022-07-26T10:33:16Z</time>
      </trkpt>
      <trkpt lat="45.9041600" lon="5.6781810">
        <ele>535.6</ele>
        <time>2022-07-26T10:33:17Z</time>
      </trkpt>
      <trkpt lat="45.9041600" lon="5.6781860">
        <ele>535.6</ele>
        <time>2022-07-26T10:33:18Z</time>
      </trkpt>
      <trkpt lat="45.9041580" lon="5.6781930">
        <ele>535.6</ele>
        <time>2022-07-26T10:33:19Z</time>
      </trkpt>
      <trkpt lat="45.9041550" lon="5.6781980">
        <ele>535.6</ele>
        <time>2022-07-26T10:33:20Z</time>
      </trkpt>
      <trkpt lat="45.9041530" lon="5.6782020">
        <ele>535.6</ele>
        <time>2022-07-26T10:33:21Z</time>
      </trkpt>
      <trkpt lat="45.9041530" lon="5.6782060">
        <ele>535.6</ele>
        <time>2022-07-26T10:33:22Z</time>
      </trkpt>
      <trkpt lat="45.9041520" lon="5.6782090">
        <ele>535.6</ele>
        <time>2022-07-26T10:33:23Z</time>
      </trkpt>
      <trkpt lat="45.9041560" lon="5.6782100">
        <ele>535.6</ele>
        <time>2022-07-26T10:33:24Z</time>
      </trkpt>
      <trkpt lat="45.9041580" lon="5.6782130">
        <ele>535.6</ele>
        <time>2022-07-26T10:33:25Z</time>
      </trkpt>
      <trkpt lat="45.9041590" lon="5.6782170">
        <ele>535.6</ele>
        <time>2022-07-26T10:33:26Z</time>
      </trkpt>
      <trkpt lat="45.9041570" lon="5.6782220">
        <ele>535.6</ele>
        <time>2022-07-26T10:33:27Z</time>
      </trkpt>
      <trkpt lat="45.9041570" lon="5.6782270">
        <ele>535.6</ele>
        <time>2022-07-26T10:33:28Z</time>
      </trkpt>
      <trkpt lat="45.9041620" lon="5.6782250">
        <ele>535.6</ele>
        <time>2022-07-26T10:33:29Z</time>
      </trkpt>
      <trkpt lat="45.9041670" lon="5.6782250">
        <ele>535.6</ele>
        <time>2022-07-26T10:33:30Z</time>
      </trkpt>
      <trkpt lat="45.9041700" lon="5.6782240">
        <ele>535.6</ele>
        <time>2022-07-26T10:33:31Z</time>
      </trkpt>
      <trkpt lat="45.9041730" lon="5.6782240">
        <ele>535.6</ele>
        <time>2022-07-26T10:33:32Z</time>
      </trkpt>
      <trkpt lat="45.9041740" lon="5.6782240">
        <ele>535.6</ele>
        <time>2022-07-26T10:33:33Z</time>
      </trkpt>
      <trkpt lat="45.9041750" lon="5.6782240">
        <ele>535.6</ele>
        <time>2022-07-26T10:33:34Z</time>
      </trkpt>
      <trkpt lat="45.9041750" lon="5.6782240">
        <ele>535.6</ele>
        <time>2022-07-26T10:33:35Z</time>
      </trkpt>
      <trkpt lat="45.9041750" lon="5.6782240">
        <ele>535.6</ele>
        <time>2022-07-26T10:33:36Z</time>
      </trkpt>
      <trkpt lat="45.9041750" lon="5.6782230">
        <ele>535.6</ele>
        <time>2022-07-26T10:33:37Z</time>
      </trkpt>
      <trkpt lat="45.9041790" lon="5.6782220">
        <ele>535.6</ele>
        <time>2022-07-26T10:33:38Z</time>
      </trkpt>
      <trkpt lat="45.9041820" lon="5.6782220">
        <ele>535.6</ele>
        <time>2022-07-26T10:33:39Z</time>
      </trkpt>
      <trkpt lat="45.9041810" lon="5.6782230">
        <ele>535.6</ele>
        <time>2022-07-26T10:33:40Z</time>
      </trkpt>
      <trkpt lat="45.9041750" lon="5.6782240">
        <ele>535.6</ele>
        <time>2022-07-26T10:33:41Z</time>
      </trkpt>
      <trkpt lat="45.9041670" lon="5.6782250">
        <ele>535.6</ele>
        <time>2022-07-26T10:33:42Z</time>
      </trkpt>
      <trkpt lat="45.9041610" lon="5.6782260">
        <ele>535.6</ele>
        <time>2022-07-26T10:33:43Z</time>
      </trkpt>
      <trkpt lat="45.9041570" lon="5.6782260">
        <ele>535.6</ele>
        <time>2022-07-26T10:33:44Z</time>
      </trkpt>
      <trkpt lat="45.9041530" lon="5.6782250">
        <ele>535.6</ele>
        <time>2022-07-26T10:33:45Z</time>
      </trkpt>
      <trkpt lat="45.9041510" lon="5.6782240">
        <ele>535.6</ele>
        <time>2022-07-26T10:33:46Z</time>
      </trkpt>
      <trkpt lat="45.9041480" lon="5.6782230">
        <ele>535.6</ele>
        <time>2022-07-26T10:33:47Z</time>
      </trkpt>
      <trkpt lat="45.9041440" lon="5.6782220">
        <ele>535.6</ele>
        <time>2022-07-26T10:33:48Z</time>
      </trkpt>
      <trkpt lat="45.9041420" lon="5.6782210">
        <ele>535.6</ele>
        <time>2022-07-26T10:33:49Z</time>
      </trkpt>
      <trkpt lat="45.9041400" lon="5.6782200">
        <ele>535.6</ele>
        <time>2022-07-26T10:33:50Z</time>
      </trkpt>
      <trkpt lat="45.9041390" lon="5.6782200">
        <ele>535.6</ele>
        <time>2022-07-26T10:33:51Z</time>
      </trkpt>
      <trkpt lat="45.9041390" lon="5.6782200">
        <ele>535.6</ele>
        <time>2022-07-26T10:33:52Z</time>
      </trkpt>
      <trkpt lat="45.9041390" lon="5.6782200">
        <ele>535.6</ele>
        <time>2022-07-26T10:33:53Z</time>
      </trkpt>
      <trkpt lat="45.9041450" lon="5.6782180">
        <ele>535.6</ele>
        <time>2022-07-26T10:33:54Z</time>
      </trkpt>
      <trkpt lat="45.9041500" lon="5.6782170">
        <ele>535.6</ele>
        <time>2022-07-26T10:33:55Z</time>
      </trkpt>
      <trkpt lat="45.9041540" lon="5.6782150">
        <ele>535.6</ele>
        <time>2022-07-26T10:33:56Z</time>
      </trkpt>
      <trkpt lat="45.9041560" lon="5.6782140">
        <ele>535.6</ele>
        <time>2022-07-26T10:33:57Z</time>
      </trkpt>
      <trkpt lat="45.9041580" lon="5.6782130">
        <ele>535.6</ele>
        <time>2022-07-26T10:33:58Z</time>
      </trkpt>
      <trkpt lat="45.9041600" lon="5.6782100">
        <ele>535.6</ele>
        <time>2022-07-26T10:33:59Z</time>
      </trkpt>
      <trkpt lat="45.9041640" lon="5.6782020">
        <ele>535.6</ele>
        <time>2022-07-26T10:34:00Z</time>
      </trkpt>
      <trkpt lat="45.9041680" lon="5.6781950">
        <ele>535.6</ele>
        <time>2022-07-26T10:34:01Z</time>
      </trkpt>
      <trkpt lat="45.9041730" lon="5.6781900">
        <ele>535.6</ele>
        <time>2022-07-26T10:34:02Z</time>
      </trkpt>
      <trkpt lat="45.9041760" lon="5.6781870">
        <ele>535.6</ele>
        <time>2022-07-26T10:34:03Z</time>
      </trkpt>
      <trkpt lat="45.9041800" lon="5.6781850">
        <ele>535.6</ele>
        <time>2022-07-26T10:34:04Z</time>
      </trkpt>
      <trkpt lat="45.9041810" lon="5.6781840">
        <ele>535.6</ele>
        <time>2022-07-26T10:34:05Z</time>
      </trkpt>
      <trkpt lat="45.9041820" lon="5.6781830">
        <ele>535.6</ele>
        <time>2022-07-26T10:34:06Z</time>
      </trkpt>
      <trkpt lat="45.9041830" lon="5.6781820">
        <ele>535.6</ele>
        <time>2022-07-26T10:34:07Z</time>
      </trkpt>
      <trkpt lat="45.9041830" lon="5.6781810">
        <ele>535.6</ele>
        <time>2022-07-26T10:34:08Z</time>
      </trkpt>
      <trkpt lat="45.9041820" lon="5.6781800">
        <ele>535.6</ele>
        <time>2022-07-26T10:34:09Z</time>
      </trkpt>
      <trkpt lat="45.9041820" lon="5.6781800">
        <ele>535.6</ele>
        <time>2022-07-26T10:34:10Z</time>
      </trkpt>
      <trkpt lat="45.9041820" lon="5.6781800">
        <ele>535.6</ele>
        <time>2022-07-26T10:34:11Z</time>
      </trkpt>
      <trkpt lat="45.9041820" lon="5.6781800">
        <ele>535.6</ele>
        <time>2022-07-26T10:34:12Z</time>
      </trkpt>
      <trkpt lat="45.9041820" lon="5.6781800">
        <ele>535.6</ele>
        <time>2022-07-26T10:34:13Z</time>
      </trkpt>
      <trkpt lat="45.9041820" lon="5.6781800">
        <ele>535.6</ele>
        <time>2022-07-26T10:34:14Z</time>
      </trkpt>
      <trkpt lat="45.9041820" lon="5.6781800">
        <ele>535.6</ele>
        <time>2022-07-26T10:34:15Z</time>
      </trkpt>
      <trkpt lat="45.9041540" lon="5.6781620">
        <ele>535.6</ele>
        <time>2022-07-26T10:34:42Z</time>
      </trkpt>
      <trkpt lat="45.9041470" lon="5.6781640">
        <ele>535.6</ele>
        <time>2022-07-26T10:34:43Z</time>
      </trkpt>
      <trkpt lat="45.9041400" lon="5.6781680">
        <ele>535.6</ele>
        <time>2022-07-26T10:34:44Z</time>
      </trkpt>
      <trkpt lat="45.9041370" lon="5.6781710">
        <ele>535.6</ele>
        <time>2022-07-26T10:34:45Z</time>
      </trkpt>
      <trkpt lat="45.9041340" lon="5.6781710">
        <ele>535.6</ele>
        <time>2022-07-26T10:34:46Z</time>
      </trkpt>
      <trkpt lat="45.9041330" lon="5.6781690">
        <ele>535.6</ele>
        <time>2022-07-26T10:34:47Z</time>
      </trkpt>
      <trkpt lat="45.9041360" lon="5.6781650">
        <ele>535.6</ele>
        <time>2022-07-26T10:34:48Z</time>
      </trkpt>
      <trkpt lat="45.9041390" lon="5.6781630">
        <ele>535.6</ele>
        <time>2022-07-26T10:34:49Z</time>
      </trkpt>
      <trkpt lat="45.9041380" lon="5.6781620">
        <ele>535.6</ele>
        <time>2022-07-26T10:34:50Z</time>
      </trkpt>
      <trkpt lat="45.9041350" lon="5.6781630">
        <ele>535.6</ele>
        <time>2022-07-26T10:34:51Z</time>
      </trkpt>
      <trkpt lat="45.9041340" lon="5.6781640">
        <ele>535.6</ele>
        <time>2022-07-26T10:34:52Z</time>
      </trkpt>
      <trkpt lat="45.9041350" lon="5.6781640">
        <ele>535.6</ele>
        <time>2022-07-26T10:34:53Z</time>
      </trkpt>
      <trkpt lat="45.9041380" lon="5.6781630">
        <ele>535.6</ele>
        <time>2022-07-26T10:34:54Z</time>
      </trkpt>
      <trkpt lat="45.9041400" lon="5.6781620">
        <ele>535.6</ele>
        <time>2022-07-26T10:34:55Z</time>
      </trkpt>
      <trkpt lat="45.9041410" lon="5.6781630">
        <ele>535.6</ele>
        <time>2022-07-26T10:34:56Z</time>
      </trkpt>
      <trkpt lat="45.9041400" lon="5.6781640">
        <ele>535.6</ele>
        <time>2022-07-26T10:34:57Z</time>
      </trkpt>
      <trkpt lat="45.9041430" lon="5.6781650">
        <ele>535.6</ele>
        <time>2022-07-26T10:34:58Z</time>
      </trkpt>
      <trkpt lat="45.9041450" lon="5.6781660">
        <ele>535.6</ele>
        <time>2022-07-26T10:34:59Z</time>
      </trkpt>
      <trkpt lat="45.9041450" lon="5.6781680">
        <ele>535.6</ele>
        <time>2022-07-26T10:35:00Z</time>
      </trkpt>
      <trkpt lat="45.9041420" lon="5.6781690">
        <ele>535.6</ele>
        <time>2022-07-26T10:35:01Z</time>
      </trkpt>
      <trkpt lat="45.9041400" lon="5.6781680">
        <ele>535.6</ele>
        <time>2022-07-26T10:35:02Z</time>
      </trkpt>
      <trkpt lat="45.9041380" lon="5.6781680">
        <ele>535.6</ele>
        <time>2022-07-26T10:35:03Z</time>
      </trkpt>
      <trkpt lat="45.9041380" lon="5.6781660">
        <ele>535.6</ele>
        <time>2022-07-26T10:35:04Z</time>
      </trkpt>
      <trkpt lat="45.9041380" lon="5.6781650">
        <ele>535.6</ele>
        <time>2022-07-26T10:35:05Z</time>
      </trkpt>
      <trkpt lat="45.9041380" lon="5.6781650">
        <ele>535.6</ele>
        <time>2022-07-26T10:35:06Z</time>
      </trkpt>
      <trkpt lat="45.9041360" lon="5.6781670">
        <ele>535.6</ele>
        <time>2022-07-26T10:35:07Z</time>
      </trkpt>
      <trkpt lat="45.9041360" lon="5.6781690">
        <ele>535.6</ele>
        <time>2022-07-26T10:35:08Z</time>
      </trkpt>
      <trkpt lat="45.9041350" lon="5.6781710">
        <ele>535.6</ele>
        <time>2022-07-26T10:35:09Z</time>
      </trkpt>
      <trkpt lat="45.9041360" lon="5.6781730">
        <ele>535.6</ele>
        <time>2022-07-26T10:35:10Z</time>
      </trkpt>
      <trkpt lat="45.9041270" lon="5.6781730">
        <ele>535.6</ele>
        <time>2022-07-26T10:35:35Z</time>
      </trkpt>
      <trkpt lat="45.9041260" lon="5.6781770">
        <ele>535.6</ele>
        <time>2022-07-26T10:35:36Z</time>
      </trkpt>
      <trkpt lat="45.9041270" lon="5.6781800">
        <ele>535.6</ele>
        <time>2022-07-26T10:35:37Z</time>
      </trkpt>
      <trkpt lat="45.9041250" lon="5.6781810">
        <ele>535.6</ele>
        <time>2022-07-26T10:35:38Z</time>
      </trkpt>
      <trkpt lat="45.9041240" lon="5.6781800">
        <ele>535.6</ele>
        <time>2022-07-26T10:35:39Z</time>
      </trkpt>
      <trkpt lat="45.9041240" lon="5.6781790">
        <ele>535.6</ele>
        <time>2022-07-26T10:35:40Z</time>
      </trkpt>
      <trkpt lat="45.9041270" lon="5.6781780">
        <ele>535.6</ele>
        <time>2022-07-26T10:35:41Z</time>
      </trkpt>
      <trkpt lat="45.9041340" lon="5.6781800">
        <ele>535.6</ele>
        <time>2022-07-26T10:35:42Z</time>
      </trkpt>
      <trkpt lat="45.9041400" lon="5.6781860">
        <ele>535.6</ele>
        <time>2022-07-26T10:35:43Z</time>
      </trkpt>
      <trkpt lat="45.9041440" lon="5.6781910">
        <ele>535.6</ele>
        <time>2022-07-26T10:35:44Z</time>
      </trkpt>
      <trkpt lat="45.9041450" lon="5.6781940">
        <ele>535.6</ele>
        <time>2022-07-26T10:35:45Z</time>
      </trkpt>
      <trkpt lat="45.9041450" lon="5.6781950">
        <ele>535.6</ele>
        <time>2022-07-26T10:35:46Z</time>
      </trkpt>
      <trkpt lat="45.9041440" lon="5.6781960">
        <ele>535.6</ele>
        <time>2022-07-26T10:35:47Z</time>
      </trkpt>
      <trkpt lat="45.9041430" lon="5.6781970">
        <ele>535.6</ele>
        <time>2022-07-26T10:35:48Z</time>
      </trkpt>
      <trkpt lat="45.9041420" lon="5.6781980">
        <ele>535.6</ele>
        <time>2022-07-26T10:35:49Z</time>
      </trkpt>
      <trkpt lat="45.9041420" lon="5.6781990">
        <ele>535.6</ele>
        <time>2022-07-26T10:35:50Z</time>
      </trkpt>
      <trkpt lat="45.9041420" lon="5.6781990">
        <ele>535.6</ele>
        <time>2022-07-26T10:35:51Z</time>
      </trkpt>
      <trkpt lat="45.9041430" lon="5.6781990">
        <ele>535.6</ele>
        <time>2022-07-26T10:35:52Z</time>
      </trkpt>
      <trkpt lat="45.9041430" lon="5.6781990">
        <ele>535.6</ele>
        <time>2022-07-26T10:35:53Z</time>
      </trkpt>
      <trkpt lat="45.9041430" lon="5.6782000">
        <ele>535.6</ele>
        <time>2022-07-26T10:35:54Z</time>
      </trkpt>
      <trkpt lat="45.9041430" lon="5.6782000">
        <ele>535.6</ele>
        <time>2022-07-26T10:35:55Z</time>
      </trkpt>
      <trkpt lat="45.9041040" lon="5.6781970">
        <ele>535.6</ele>
        <time>2022-07-26T10:36:32Z</time>
      </trkpt>
      <trkpt lat="45.9040910" lon="5.6781920">
        <ele>535.6</ele>
        <time>2022-07-26T10:36:33Z</time>
      </trkpt>
      <trkpt lat="45.9040760" lon="5.6781870">
        <ele>535.6</ele>
        <time>2022-07-26T10:36:34Z</time>
      </trkpt>
      <trkpt lat="45.9040580" lon="5.6781820">
        <ele>535.6</ele>
        <time>2022-07-26T10:36:35Z</time>
      </trkpt>
      <trkpt lat="45.9040450" lon="5.6781830">
        <ele>535.6</ele>
        <time>2022-07-26T10:36:36Z</time>
      </trkpt>
      <trkpt lat="45.9040470" lon="5.6781820">
        <ele>535.6</ele>
        <time>2022-07-26T10:36:37Z</time>
      </trkpt>
      <trkpt lat="45.9040370" lon="5.6781920">
        <ele>535.6</ele>
        <time>2022-07-26T10:36:38Z</time>
      </trkpt>
      <trkpt lat="45.9040280" lon="5.6781930">
        <ele>535.6</ele>
        <time>2022-07-26T10:36:39Z</time>
      </trkpt>
      <trkpt lat="45.9040310" lon="5.6781930">
        <ele>535.6</ele>
        <time>2022-07-26T10:36:40Z</time>
      </trkpt>
      <trkpt lat="45.9040440" lon="5.6781830">
        <ele>535.6</ele>
        <time>2022-07-26T10:36:42Z</time>
      </trkpt>
      <trkpt lat="45.9040520" lon="5.6781770">
        <ele>535.6</ele>
        <time>2022-07-26T10:36:43Z</time>
      </trkpt>
      <trkpt lat="45.9040600" lon="5.6781710">
        <ele>535.6</ele>
        <time>2022-07-26T10:36:44Z</time>
      </trkpt>
      <trkpt lat="45.9040640" lon="5.6781690">
        <ele>535.6</ele>
        <time>2022-07-26T10:36:45Z</time>
      </trkpt>
      <trkpt lat="45.9040680" lon="5.6781680">
        <ele>535.6</ele>
        <time>2022-07-26T10:36:46Z</time>
      </trkpt>
      <trkpt lat="45.9040710" lon="5.6781650">
        <ele>535.6</ele>
        <time>2022-07-26T10:36:47Z</time>
      </trkpt>
      <trkpt lat="45.9040750" lon="5.6781630">
        <ele>535.6</ele>
        <time>2022-07-26T10:36:48Z</time>
      </trkpt>
      <trkpt lat="45.9040800" lon="5.6781590">
        <ele>535.6</ele>
        <time>2022-07-26T10:36:49Z</time>
      </trkpt>
      <trkpt lat="45.9040840" lon="5.6781540">
        <ele>535.6</ele>
        <time>2022-07-26T10:36:50Z</time>
      </trkpt>
      <trkpt lat="45.9041360" lon="5.6780200">
        <ele>535.6</ele>
        <time>2022-07-26T10:37:25Z</time>
      </trkpt>
      <trkpt lat="45.9041520" lon="5.6780100">
        <ele>535.6</ele>
        <time>2022-07-26T10:37:26Z</time>
      </trkpt>
      <trkpt lat="45.9041630" lon="5.6780060">
        <ele>535.6</ele>
        <time>2022-07-26T10:37:27Z</time>
      </trkpt>
      <trkpt lat="45.9041680" lon="5.6780050">
        <ele>535.6</ele>
        <time>2022-07-26T10:37:28Z</time>
      </trkpt>
      <trkpt lat="45.9041660" lon="5.6780080">
        <ele>535.6</ele>
        <time>2022-07-26T10:37:29Z</time>
      </trkpt>
      <trkpt lat="45.9041640" lon="5.6780110">
        <ele>535.6</ele>
        <time>2022-07-26T10:37:30Z</time>
      </trkpt>
      <trkpt lat="45.9041600" lon="5.6780110">
        <ele>535.6</ele>
        <time>2022-07-26T10:37:31Z</time>
      </trkpt>
      <trkpt lat="45.9041560" lon="5.6780100">
        <ele>535.6</ele>
        <time>2022-07-26T10:37:32Z</time>
      </trkpt>
      <trkpt lat="45.9041550" lon="5.6780100">
        <ele>535.6</ele>
        <time>2022-07-26T10:37:33Z</time>
      </trkpt>
      <trkpt lat="45.9041540" lon="5.6780100">
        <ele>535.6</ele>
        <time>2022-07-26T10:37:34Z</time>
      </trkpt>
      <trkpt lat="45.9041560" lon="5.6780080">
        <ele>535.6</ele>
        <time>2022-07-26T10:37:35Z</time>
      </trkpt>
      <trkpt lat="45.9041570" lon="5.6780060">
        <ele>535.6</ele>
        <time>2022-07-26T10:37:36Z</time>
      </trkpt>
      <trkpt lat="45.9041570" lon="5.6780040">
        <ele>535.6</ele>
        <time>2022-07-26T10:37:37Z</time>
      </trkpt>
      <trkpt lat="45.9041570" lon="5.6780030">
        <ele>535.6</ele>
        <time>2022-07-26T10:37:38Z</time>
      </trkpt>
      <trkpt lat="45.9041580" lon="5.6780020">
        <ele>535.6</ele>
        <time>2022-07-26T10:37:39Z</time>
      </trkpt>
      <trkpt lat="45.9041300" lon="5.6780920">
        <ele>535.6</ele>
        <time>2022-07-26T10:39:16Z</time>
      </trkpt>
      <trkpt lat="45.9041260" lon="5.6781010">
        <ele>535.6</ele>
        <time>2022-07-26T10:39:17Z</time>
      </trkpt>
      <trkpt lat="45.9041220" lon="5.6781080">
        <ele>535.6</ele>
        <time>2022-07-26T10:39:18Z</time>
      </trkpt>
      <trkpt lat="45.9041180" lon="5.6781130">
        <ele>535.6</ele>
        <time>2022-07-26T10:39:19Z</time>
      </trkpt>
      <trkpt lat="45.9041180" lon="5.6781160">
        <ele>535.6</ele>
        <time>2022-07-26T10:39:20Z</time>
      </trkpt>
      <trkpt lat="45.9041180" lon="5.6781170">
        <ele>535.6</ele>
        <time>2022-07-26T10:39:21Z</time>
      </trkpt>
      <trkpt lat="45.9041200" lon="5.6781180">
        <ele>535.6</ele>
        <time>2022-07-26T10:39:22Z</time>
      </trkpt>
      <trkpt lat="45.9041210" lon="5.6781180">
        <ele>535.6</ele>
        <time>2022-07-26T10:39:23Z</time>
      </trkpt>
      <trkpt lat="45.9041250" lon="5.6781140">
        <ele>535.6</ele>
        <time>2022-07-26T10:39:24Z</time>
      </trkpt>
      <trkpt lat="45.9041290" lon="5.6781050">
        <ele>535.6</ele>
        <time>2022-07-26T10:39:25Z</time>
      </trkpt>
      <trkpt lat="45.9041320" lon="5.6781010">
        <ele>535.6</ele>
        <time>2022-07-26T10:39:26Z</time>
      </trkpt>
      <trkpt lat="45.9041330" lon="5.6781010">
        <ele>535.6</ele>
        <time>2022-07-26T10:39:27Z</time>
      </trkpt>
      <trkpt lat="45.9041330" lon="5.6781000">
        <ele>535.6</ele>
        <time>2022-07-26T10:39:28Z</time>
      </trkpt>
      <trkpt lat="45.9041340" lon="5.6781000">
        <ele>535.6</ele>
        <time>2022-07-26T10:39:29Z</time>
      </trkpt>
      <trkpt lat="45.9041340" lon="5.6780980">
        <ele>535.6</ele>
        <time>2022-07-26T10:39:30Z</time>
      </trkpt>
      <trkpt lat="45.9041350" lon="5.6780970">
        <ele>535.6</ele>
        <time>2022-07-26T10:39:31Z</time>
      </trkpt>
      <trkpt lat="45.9041370" lon="5.6780890">
        <ele>535.6</ele>
        <time>2022-07-26T10:39:32Z</time>
      </trkpt>
      <trkpt lat="45.9041380" lon="5.6780830">
        <ele>535.6</ele>
        <time>2022-07-26T10:39:33Z</time>
      </trkpt>
      <trkpt lat="45.9041380" lon="5.6780790">
        <ele>535.6</ele>
        <time>2022-07-26T10:39:34Z</time>
      </trkpt>
      <trkpt lat="45.9041380" lon="5.6780780">
        <ele>535.6</ele>
        <time>2022-07-26T10:39:35Z</time>
      </trkpt>
      <trkpt lat="45.9041380" lon="5.6780780">
        <ele>535.6</ele>
        <time>2022-07-26T10:39:36Z</time>
      </trkpt>
      <trkpt lat="45.9041380" lon="5.6780780">
        <ele>535.6</ele>
        <time>2022-07-26T10:39:37Z</time>
      </trkpt>
      <trkpt lat="45.9041380" lon="5.6780780">
        <ele>535.6</ele>
        <time>2022-07-26T10:39:38Z</time>
      </trkpt>
      <trkpt lat="45.9041380" lon="5.6780780">
        <ele>535.6</ele>
        <time>2022-07-26T10:39:39Z</time>
      </trkpt>
      <trkpt lat="45.9041380" lon="5.6780790">
        <ele>535.6</ele>
        <time>2022-07-26T10:39:40Z</time>
      </trkpt>
      <trkpt lat="45.9041390" lon="5.6780780">
        <ele>535.6</ele>
        <time>2022-07-26T10:39:41Z</time>
      </trkpt>
      <trkpt lat="45.9041390" lon="5.6780780">
        <ele>535.6</ele>
        <time>2022-07-26T10:39:42Z</time>
      </trkpt>
      <trkpt lat="45.9041390" lon="5.6780780">
        <ele>535.6</ele>
        <time>2022-07-26T10:39:43Z</time>
      </trkpt>
      <trkpt lat="45.9041390" lon="5.6780770">
        <ele>535.6</ele>
        <time>2022-07-26T10:39:44Z</time>
      </trkpt>
      <trkpt lat="45.9041470" lon="5.6780600">
        <ele>535.6</ele>
        <time>2022-07-26T10:41:48Z</time>
      </trkpt>
      <trkpt lat="45.9041510" lon="5.6780560">
        <ele>535.6</ele>
        <time>2022-07-26T10:41:49Z</time>
      </trkpt>
      <trkpt lat="45.9041540" lon="5.6780530">
        <ele>535.6</ele>
        <time>2022-07-26T10:41:50Z</time>
      </trkpt>
      <trkpt lat="45.9041550" lon="5.6780500">
        <ele>535.6</ele>
        <time>2022-07-26T10:41:51Z</time>
      </trkpt>
      <trkpt lat="45.9041550" lon="5.6780490">
        <ele>535.6</ele>
        <time>2022-07-26T10:41:52Z</time>
      </trkpt>
      <trkpt lat="45.9041540" lon="5.6780500">
        <ele>535.6</ele>
        <time>2022-07-26T10:41:53Z</time>
      </trkpt>
      <trkpt lat="45.9041520" lon="5.6780540">
        <ele>535.6</ele>
        <time>2022-07-26T10:41:54Z</time>
      </trkpt>
      <trkpt lat="45.9041500" lon="5.6780580">
        <ele>535.6</ele>
        <time>2022-07-26T10:41:55Z</time>
      </trkpt>
      <trkpt lat="45.9041480" lon="5.6780610">
        <ele>535.6</ele>
        <time>2022-07-26T10:41:56Z</time>
      </trkpt>
      <trkpt lat="45.9041470" lon="5.6780630">
        <ele>535.6</ele>
        <time>2022-07-26T10:41:57Z</time>
      </trkpt>
      <trkpt lat="45.9041470" lon="5.6780640">
        <ele>535.6</ele>
        <time>2022-07-26T10:41:58Z</time>
      </trkpt>
      <trkpt lat="45.9041460" lon="5.6780640">
        <ele>535.6</ele>
        <time>2022-07-26T10:41:59Z</time>
      </trkpt>
      <trkpt lat="45.9041460" lon="5.6780640">
        <ele>535.6</ele>
        <time>2022-07-26T10:42:00Z</time>
      </trkpt>
      <trkpt lat="45.9041470" lon="5.6780640">
        <ele>535.6</ele>
        <time>2022-07-26T10:42:01Z</time>
      </trkpt>
      <trkpt lat="45.9041380" lon="5.6781240">
        <ele>535.6</ele>
        <time>2022-07-26T10:43:29Z</time>
      </trkpt>
      <trkpt lat="45.9041330" lon="5.6781410">
        <ele>535.6</ele>
        <time>2022-07-26T10:43:30Z</time>
      </trkpt>
      <trkpt lat="45.9041270" lon="5.6781450">
        <ele>535.6</ele>
        <time>2022-07-26T10:43:31Z</time>
      </trkpt>
      <trkpt lat="45.9041220" lon="5.6781460">
        <ele>535.6</ele>
        <time>2022-07-26T10:43:32Z</time>
      </trkpt>
      <trkpt lat="45.9041190" lon="5.6781460">
        <ele>535.6</ele>
        <time>2022-07-26T10:43:33Z</time>
      </trkpt>
      <trkpt lat="45.9041180" lon="5.6781430">
        <ele>535.6</ele>
        <time>2022-07-26T10:43:34Z</time>
      </trkpt>
      <trkpt lat="45.9041170" lon="5.6781390">
        <ele>535.6</ele>
        <time>2022-07-26T10:43:35Z</time>
      </trkpt>
      <trkpt lat="45.9041190" lon="5.6781280">
        <ele>535.6</ele>
        <time>2022-07-26T10:43:36Z</time>
      </trkpt>
      <trkpt lat="45.9041220" lon="5.6781160">
        <ele>535.6</ele>
        <time>2022-07-26T10:43:37Z</time>
      </trkpt>
      <trkpt lat="45.9041230" lon="5.6781020">
        <ele>535.6</ele>
        <time>2022-07-26T10:43:38Z</time>
      </trkpt>
      <trkpt lat="45.9041240" lon="5.6780920">
        <ele>535.6</ele>
        <time>2022-07-26T10:43:39Z</time>
      </trkpt>
      <trkpt lat="45.9041240" lon="5.6780870">
        <ele>535.6</ele>
        <time>2022-07-26T10:43:40Z</time>
      </trkpt>
      <trkpt lat="45.9041230" lon="5.6780850">
        <ele>535.6</ele>
        <time>2022-07-26T10:43:41Z</time>
      </trkpt>
      <trkpt lat="45.9041220" lon="5.6780830">
        <ele>535.6</ele>
        <time>2022-07-26T10:43:42Z</time>
      </trkpt>
      <trkpt lat="45.9041220" lon="5.6780820">
        <ele>535.6</ele>
        <time>2022-07-26T10:43:43Z</time>
      </trkpt>
      <trkpt lat="45.9041210" lon="5.6780810">
        <ele>535.6</ele>
        <time>2022-07-26T10:43:44Z</time>
      </trkpt>
      <trkpt lat="45.9041210" lon="5.6780810">
        <ele>535.6</ele>
        <time>2022-07-26T10:43:45Z</time>
      </trkpt>
      <trkpt lat="45.9041210" lon="5.6780800">
        <ele>535.6</ele>
        <time>2022-07-26T10:43:46Z</time>
      </trkpt>
      <trkpt lat="45.9041210" lon="5.6780800">
        <ele>535.6</ele>
        <time>2022-07-26T10:43:47Z</time>
      </trkpt>
      <trkpt lat="45.9041210" lon="5.6780800">
        <ele>535.6</ele>
        <time>2022-07-26T10:43:48Z</time>
      </trkpt>
      <trkpt lat="45.9041210" lon="5.6780800">
        <ele>535.6</ele>
        <time>2022-07-26T10:43:49Z</time>
      </trkpt>
      <trkpt lat="45.9041210" lon="5.6780800">
        <ele>535.6</ele>
        <time>2022-07-26T10:43:50Z</time>
      </trkpt>
      <trkpt lat="45.9041210" lon="5.6780800">
        <ele>535.6</ele>
        <time>2022-07-26T10:43:51Z</time>
      </trkpt>
      <trkpt lat="45.9041540" lon="5.6780160">
        <ele>535.6</ele>
        <time>2022-07-26T10:45:47Z</time>
      </trkpt>
      <trkpt lat="45.9041670" lon="5.6780040">
        <ele>535.6</ele>
        <time>2022-07-26T10:45:48Z</time>
      </trkpt>
      <trkpt lat="45.9041770" lon="5.6779970">
        <ele>535.6</ele>
        <time>2022-07-26T10:45:49Z</time>
      </trkpt>
      <trkpt lat="45.9041820" lon="5.6779940">
        <ele>535.6</ele>
        <time>2022-07-26T10:45:50Z</time>
      </trkpt>
      <trkpt lat="45.9041860" lon="5.6779930">
        <ele>535.6</ele>
        <time>2022-07-26T10:45:51Z</time>
      </trkpt>
      <trkpt lat="45.9041890" lon="5.6779910">
        <ele>535.6</ele>
        <time>2022-07-26T10:45:52Z</time>
      </trkpt>
      <trkpt lat="45.9041930" lon="5.6779890">
        <ele>535.6</ele>
        <time>2022-07-26T10:45:53Z</time>
      </trkpt>
      <trkpt lat="45.9041960" lon="5.6779870">
        <ele>535.6</ele>
        <time>2022-07-26T10:45:54Z</time>
      </trkpt>
      <trkpt lat="45.9041990" lon="5.6779850">
        <ele>535.6</ele>
        <time>2022-07-26T10:45:55Z</time>
      </trkpt>
      <trkpt lat="45.9042030" lon="5.6779830">
        <ele>535.6</ele>
        <time>2022-07-26T10:45:56Z</time>
      </trkpt>
      <trkpt lat="45.9042060" lon="5.6779810">
        <ele>535.6</ele>
        <time>2022-07-26T10:45:57Z</time>
      </trkpt>
      <trkpt lat="45.9042100" lon="5.6779790">
        <ele>535.6</ele>
        <time>2022-07-26T10:45:58Z</time>
      </trkpt>
      <trkpt lat="45.9042130" lon="5.6779760">
        <ele>535.6</ele>
        <time>2022-07-26T10:45:59Z</time>
      </trkpt>
      <trkpt lat="45.9042160" lon="5.6779740">
        <ele>535.6</ele>
        <time>2022-07-26T10:46:00Z</time>
      </trkpt>
      <trkpt lat="45.9042200" lon="5.6779720">
        <ele>535.6</ele>
        <time>2022-07-26T10:46:01Z</time>
      </trkpt>
      <trkpt lat="45.9042230" lon="5.6779700">
        <ele>535.6</ele>
        <time>2022-07-26T10:46:02Z</time>
      </trkpt>
      <trkpt lat="45.9042270" lon="5.6779680">
        <ele>535.6</ele>
        <time>2022-07-26T10:46:03Z</time>
      </trkpt>
      <trkpt lat="45.9042300" lon="5.6779660">
        <ele>535.6</ele>
        <time>2022-07-26T10:46:04Z</time>
      </trkpt>
      <trkpt lat="45.9042330" lon="5.6779640">
        <ele>535.6</ele>
        <time>2022-07-26T10:46:05Z</time>
      </trkpt>
      <trkpt lat="45.9042370" lon="5.6779620">
        <ele>535.6</ele>
        <time>2022-07-26T10:46:06Z</time>
      </trkpt>
      <trkpt lat="45.9042400" lon="5.6779600">
        <ele>535.6</ele>
        <time>2022-07-26T10:46:11Z</time>
      </trkpt>
      <trkpt lat="45.9042440" lon="5.6779580">
        <ele>535.6</ele>
        <time>2022-07-26T10:46:12Z</time>
      </trkpt>
      <trkpt lat="45.9042470" lon="5.6779560">
        <ele>535.6</ele>
        <time>2022-07-26T10:46:13Z</time>
      </trkpt>
      <trkpt lat="45.9042500" lon="5.6779540">
        <ele>535.6</ele>
        <time>2022-07-26T10:46:14Z</time>
      </trkpt>
      <trkpt lat="45.9042580" lon="5.6779480">
        <ele>535.6</ele>
        <time>2022-07-26T10:46:15Z</time>
      </trkpt>
      <trkpt lat="45.9042590" lon="5.6779440">
        <ele>535.6</ele>
        <time>2022-07-26T10:46:16Z</time>
      </trkpt>
      <trkpt lat="45.9042550" lon="5.6779440">
        <ele>535.6</ele>
        <time>2022-07-26T10:46:17Z</time>
      </trkpt>
      <trkpt lat="45.9042500" lon="5.6779440">
        <ele>535.6</ele>
        <time>2022-07-26T10:46:18Z</time>
      </trkpt>
      <trkpt lat="45.9042500" lon="5.6779450">
        <ele>535.6</ele>
        <time>2022-07-26T10:46:19Z</time>
      </trkpt>
      <trkpt lat="45.9042490" lon="5.6779450">
        <ele>535.6</ele>
        <time>2022-07-26T10:46:20Z</time>
      </trkpt>
      <trkpt lat="45.9042500" lon="5.6779450">
        <ele>535.6</ele>
        <time>2022-07-26T10:46:21Z</time>
      </trkpt>
      <trkpt lat="45.9042500" lon="5.6779460">
        <ele>535.6</ele>
        <time>2022-07-26T10:46:22Z</time>
      </trkpt>
      <trkpt lat="45.9042490" lon="5.6779560">
        <ele>535.6</ele>
        <time>2022-07-26T10:46:23Z</time>
      </trkpt>
      <trkpt lat="45.9042480" lon="5.6779640">
        <ele>535.6</ele>
        <time>2022-07-26T10:46:24Z</time>
      </trkpt>
      <trkpt lat="45.9042470" lon="5.6779680">
        <ele>535.6</ele>
        <time>2022-07-26T10:46:25Z</time>
      </trkpt>
      <trkpt lat="45.9042450" lon="5.6779710">
        <ele>535.6</ele>
        <time>2022-07-26T10:46:26Z</time>
      </trkpt>
      <trkpt lat="45.9042490" lon="5.6779700">
        <ele>535.6</ele>
        <time>2022-07-26T10:46:27Z</time>
      </trkpt>
      <trkpt lat="45.9042560" lon="5.6779670">
        <ele>535.6</ele>
        <time>2022-07-26T10:46:28Z</time>
      </trkpt>
      <trkpt lat="45.9042640" lon="5.6779630">
        <ele>535.6</ele>
        <time>2022-07-26T10:46:29Z</time>
      </trkpt>
      <trkpt lat="45.9042800" lon="5.6779760">
        <ele>535.6</ele>
        <time>2022-07-26T10:46:30Z</time>
      </trkpt>
      <trkpt lat="45.9042950" lon="5.6779830">
        <ele>535.6</ele>
        <time>2022-07-26T10:46:31Z</time>
      </trkpt>
      <trkpt lat="45.9043090" lon="5.6779850">
        <ele>535.6</ele>
        <time>2022-07-26T10:46:32Z</time>
      </trkpt>
      <trkpt lat="45.9043190" lon="5.6779800">
        <ele>535.6</ele>
        <time>2022-07-26T10:46:33Z</time>
      </trkpt>
      <trkpt lat="45.9043280" lon="5.6779730">
        <ele>535.6</ele>
        <time>2022-07-26T10:46:34Z</time>
      </trkpt>
      <trkpt lat="45.9043330" lon="5.6779660">
        <ele>535.6</ele>
        <time>2022-07-26T10:46:35Z</time>
      </trkpt>
      <trkpt lat="45.9043410" lon="5.6779610">
        <ele>535.6</ele>
        <time>2022-07-26T10:46:36Z</time>
      </trkpt>
      <trkpt lat="45.9043460" lon="5.6779590">
        <ele>535.6</ele>
        <time>2022-07-26T10:46:37Z</time>
      </trkpt>
      <trkpt lat="45.9043500" lon="5.6779570">
        <ele>535.6</ele>
        <time>2022-07-26T10:46:38Z</time>
      </trkpt>
      <trkpt lat="45.9043490" lon="5.6779580">
        <ele>535.6</ele>
        <time>2022-07-26T10:46:39Z</time>
      </trkpt>
      <trkpt lat="45.9043510" lon="5.6779610">
        <ele>535.6</ele>
        <time>2022-07-26T10:46:40Z</time>
      </trkpt>
      <trkpt lat="45.9043520" lon="5.6779690">
        <ele>535.6</ele>
        <time>2022-07-26T10:46:41Z</time>
      </trkpt>
      <trkpt lat="45.9043520" lon="5.6779740">
        <ele>535.6</ele>
        <time>2022-07-26T10:46:42Z</time>
      </trkpt>
      <trkpt lat="45.9043500" lon="5.6779730">
        <ele>535.6</ele>
        <time>2022-07-26T10:46:43Z</time>
      </trkpt>
      <trkpt lat="45.9043480" lon="5.6779690">
        <ele>535.6</ele>
        <time>2022-07-26T10:46:44Z</time>
      </trkpt>
      <trkpt lat="45.9043470" lon="5.6779650">
        <ele>535.6</ele>
        <time>2022-07-26T10:46:45Z</time>
      </trkpt>
      <trkpt lat="45.9043370" lon="5.6779500">
        <ele>535.6</ele>
        <time>2022-07-26T10:46:46Z</time>
      </trkpt>
      <trkpt lat="45.9043280" lon="5.6779390">
        <ele>535.6</ele>
        <time>2022-07-26T10:46:47Z</time>
      </trkpt>
      <trkpt lat="45.9043220" lon="5.6779320">
        <ele>535.6</ele>
        <time>2022-07-26T10:46:48Z</time>
      </trkpt>
      <trkpt lat="45.9043210" lon="5.6779280">
        <ele>535.6</ele>
        <time>2022-07-26T10:46:49Z</time>
      </trkpt>
      <trkpt lat="45.9043180" lon="5.6779250">
        <ele>535.6</ele>
        <time>2022-07-26T10:46:50Z</time>
      </trkpt>
      <trkpt lat="45.9043120" lon="5.6779220">
        <ele>535.6</ele>
        <time>2022-07-26T10:46:51Z</time>
      </trkpt>
      <trkpt lat="45.9043050" lon="5.6779220">
        <ele>535.6</ele>
        <time>2022-07-26T10:46:52Z</time>
      </trkpt>
      <trkpt lat="45.9042970" lon="5.6779230">
        <ele>535.6</ele>
        <time>2022-07-26T10:46:53Z</time>
      </trkpt>
      <trkpt lat="45.9042890" lon="5.6779230">
        <ele>535.6</ele>
        <time>2022-07-26T10:46:54Z</time>
      </trkpt>
      <trkpt lat="45.9042830" lon="5.6779220">
        <ele>535.6</ele>
        <time>2022-07-26T10:46:55Z</time>
      </trkpt>
      <trkpt lat="45.9042780" lon="5.6779210">
        <ele>535.6</ele>
        <time>2022-07-26T10:46:56Z</time>
      </trkpt>
      <trkpt lat="45.9042740" lon="5.6779200">
        <ele>535.6</ele>
        <time>2022-07-26T10:46:57Z</time>
      </trkpt>
      <trkpt lat="45.9042710" lon="5.6779190">
        <ele>535.6</ele>
        <time>2022-07-26T10:46:58Z</time>
      </trkpt>
      <trkpt lat="45.9042690" lon="5.6779180">
        <ele>535.6</ele>
        <time>2022-07-26T10:46:59Z</time>
      </trkpt>
      <trkpt lat="45.9042680" lon="5.6779170">
        <ele>535.6</ele>
        <time>2022-07-26T10:47:00Z</time>
      </trkpt>
      <trkpt lat="45.9042680" lon="5.6779170">
        <ele>535.6</ele>
        <time>2022-07-26T10:47:01Z</time>
      </trkpt>
      <trkpt lat="45.9042680" lon="5.6779170">
        <ele>535.6</ele>
        <time>2022-07-26T10:47:02Z</time>
      </trkpt>
      <trkpt lat="45.9042680" lon="5.6779170">
        <ele>535.6</ele>
        <time>2022-07-26T10:47:03Z</time>
      </trkpt>
      <trkpt lat="45.9042680" lon="5.6779170">
        <ele>535.6</ele>
        <time>2022-07-26T10:47:04Z</time>
      </trkpt>
      <trkpt lat="45.9042690" lon="5.6779170">
        <ele>535.6</ele>
        <time>2022-07-26T10:47:05Z</time>
      </trkpt>
      <trkpt lat="45.9042690" lon="5.6779170">
        <ele>535.6</ele>
        <time>2022-07-26T10:47:06Z</time>
      </trkpt>
      <trkpt lat="45.9042690" lon="5.6779170">
        <ele>535.6</ele>
        <time>2022-07-26T10:47:07Z</time>
      </trkpt>
      <trkpt lat="45.9042690" lon="5.6779170">
        <ele>535.6</ele>
        <time>2022-07-26T10:47:08Z</time>
      </trkpt>
      <trkpt lat="45.9042690" lon="5.6779170">
        <ele>535.6</ele>
        <time>2022-07-26T10:47:09Z</time>
      </trkpt>
      <trkpt lat="45.9042650" lon="5.6779030">
        <ele>535.6</ele>
        <time>2022-07-26T10:53:23Z</time>
      </trkpt>
      <trkpt lat="45.9042640" lon="5.6779010">
        <ele>535.6</ele>
        <time>2022-07-26T10:53:24Z</time>
      </trkpt>
      <trkpt lat="45.9042610" lon="5.6779020">
        <ele>535.6</ele>
        <time>2022-07-26T10:53:25Z</time>
      </trkpt>
      <trkpt lat="45.9042590" lon="5.6779060">
        <ele>535.6</ele>
        <time>2022-07-26T10:53:26Z</time>
      </trkpt>
      <trkpt lat="45.9042560" lon="5.6779140">
        <ele>535.6</ele>
        <time>2022-07-26T10:53:27Z</time>
      </trkpt>
      <trkpt lat="45.9042530" lon="5.6779240">
        <ele>535.6</ele>
        <time>2022-07-26T10:53:28Z</time>
      </trkpt>
      <trkpt lat="45.9042480" lon="5.6779310">
        <ele>535.6</ele>
        <time>2022-07-26T10:53:29Z</time>
      </trkpt>
      <trkpt lat="45.9042420" lon="5.6779370">
        <ele>535.6</ele>
        <time>2022-07-26T10:53:30Z</time>
      </trkpt>
      <trkpt lat="45.9042370" lon="5.6779390">
        <ele>535.6</ele>
        <time>2022-07-26T10:53:31Z</time>
      </trkpt>
      <trkpt lat="45.9042310" lon="5.6779380">
        <ele>535.6</ele>
        <time>2022-07-26T10:53:32Z</time>
      </trkpt>
      <trkpt lat="45.9042290" lon="5.6779380">
        <ele>535.6</ele>
        <time>2022-07-26T10:53:33Z</time>
      </trkpt>
      <trkpt lat="45.9042300" lon="5.6779380">
        <ele>535.6</ele>
        <time>2022-07-26T10:53:34Z</time>
      </trkpt>
      <trkpt lat="45.9042290" lon="5.6779380">
        <ele>535.6</ele>
        <time>2022-07-26T10:53:35Z</time>
      </trkpt>
      <trkpt lat="45.9042280" lon="5.6779380">
        <ele>535.6</ele>
        <time>2022-07-26T10:53:36Z</time>
      </trkpt>
      <trkpt lat="45.9042290" lon="5.6779380">
        <ele>535.6</ele>
        <time>2022-07-26T10:53:37Z</time>
      </trkpt>
      <trkpt lat="45.9042320" lon="5.6779360">
        <ele>535.6</ele>
        <time>2022-07-26T10:53:38Z</time>
      </trkpt>
      <trkpt lat="45.9042340" lon="5.6779340">
        <ele>535.6</ele>
        <time>2022-07-26T10:53:39Z</time>
      </trkpt>
      <trkpt lat="45.9042360" lon="5.6779320">
        <ele>535.6</ele>
        <time>2022-07-26T10:53:40Z</time>
      </trkpt>
      <trkpt lat="45.9042370" lon="5.6779300">
        <ele>535.6</ele>
        <time>2022-07-26T10:53:41Z</time>
      </trkpt>
      <trkpt lat="45.9042370" lon="5.6779300">
        <ele>535.6</ele>
        <time>2022-07-26T10:53:42Z</time>
      </trkpt>
      <trkpt lat="45.9042370" lon="5.6779300">
        <ele>535.6</ele>
        <time>2022-07-26T10:53:43Z</time>
      </trkpt>
      <trkpt lat="45.9042220" lon="5.6779700">
        <ele>535.6</ele>
        <time>2022-07-26T10:54:47Z</time>
      </trkpt>
      <trkpt lat="45.9042230" lon="5.6779750">
        <ele>535.6</ele>
        <time>2022-07-26T10:54:48Z</time>
      </trkpt>
      <trkpt lat="45.9042240" lon="5.6779770">
        <ele>535.6</ele>
        <time>2022-07-26T10:54:49Z</time>
      </trkpt>
      <trkpt lat="45.9042230" lon="5.6779780">
        <ele>535.6</ele>
        <time>2022-07-26T10:54:50Z</time>
      </trkpt>
      <trkpt lat="45.9042230" lon="5.6779780">
        <ele>535.6</ele>
        <time>2022-07-26T10:54:51Z</time>
      </trkpt>
      <trkpt lat="45.9042230" lon="5.6779770">
        <ele>535.6</ele>
        <time>2022-07-26T10:54:52Z</time>
      </trkpt>
      <trkpt lat="45.9042220" lon="5.6779770">
        <ele>535.6</ele>
        <time>2022-07-26T10:54:53Z</time>
      </trkpt>
      <trkpt lat="45.9042220" lon="5.6779760">
        <ele>535.6</ele>
        <time>2022-07-26T10:54:54Z</time>
      </trkpt>
      <trkpt lat="45.9042220" lon="5.6779760">
        <ele>535.6</ele>
        <time>2022-07-26T10:54:55Z</time>
      </trkpt>
      <trkpt lat="45.9042220" lon="5.6779760">
        <ele>535.6</ele>
        <time>2022-07-26T10:54:56Z</time>
      </trkpt>
      <trkpt lat="45.9042220" lon="5.6779760">
        <ele>535.6</ele>
        <time>2022-07-26T10:54:57Z</time>
      </trkpt>
      <trkpt lat="45.9042220" lon="5.6779760">
        <ele>535.6</ele>
        <time>2022-07-26T10:54:58Z</time>
      </trkpt>
      <trkpt lat="45.9042220" lon="5.6779760">
        <ele>535.6</ele>
        <time>2022-07-26T10:54:59Z</time>
      </trkpt>
      <trkpt lat="45.9041890" lon="5.6779830">
        <ele>535.6</ele>
        <time>2022-07-26T10:55:29Z</time>
      </trkpt>
      <trkpt lat="45.9041770" lon="5.6779930">
        <ele>535.6</ele>
        <time>2022-07-26T10:55:30Z</time>
      </trkpt>
      <trkpt lat="45.9041650" lon="5.6780030">
        <ele>535.6</ele>
        <time>2022-07-26T10:55:31Z</time>
      </trkpt>
      <trkpt lat="45.9041540" lon="5.6780130">
        <ele>535.6</ele>
        <time>2022-07-26T10:55:32Z</time>
      </trkpt>
      <trkpt lat="45.9041440" lon="5.6780210">
        <ele>535.6</ele>
        <time>2022-07-26T10:55:33Z</time>
      </trkpt>
      <trkpt lat="45.9041360" lon="5.6780270">
        <ele>535.6</ele>
        <time>2022-07-26T10:55:34Z</time>
      </trkpt>
      <trkpt lat="45.9041320" lon="5.6780310">
        <ele>535.6</ele>
        <time>2022-07-26T10:55:35Z</time>
      </trkpt>
      <trkpt lat="45.9041300" lon="5.6780320">
        <ele>535.6</ele>
        <time>2022-07-26T10:55:36Z</time>
      </trkpt>
      <trkpt lat="45.9041280" lon="5.6780330">
        <ele>535.6</ele>
        <time>2022-07-26T10:55:37Z</time>
      </trkpt>
      <trkpt lat="45.9041280" lon="5.6780330">
        <ele>535.6</ele>
        <time>2022-07-26T10:55:38Z</time>
      </trkpt>
      <trkpt lat="45.9041280" lon="5.6780330">
        <ele>535.6</ele>
        <time>2022-07-26T10:55:39Z</time>
      </trkpt>
      <trkpt lat="45.9041280" lon="5.6780330">
        <ele>535.6</ele>
        <time>2022-07-26T10:55:40Z</time>
      </trkpt>
      <trkpt lat="45.9041280" lon="5.6780330">
        <ele>535.6</ele>
        <time>2022-07-26T10:55:41Z</time>
      </trkpt>
      <trkpt lat="45.9041290" lon="5.6780330">
        <ele>535.6</ele>
        <time>2022-07-26T10:55:42Z</time>
      </trkpt>
      <trkpt lat="45.9041290" lon="5.6780330">
        <ele>535.6</ele>
        <time>2022-07-26T10:55:43Z</time>
      </trkpt>
      <trkpt lat="45.9041290" lon="5.6780330">
        <ele>535.6</ele>
        <time>2022-07-26T10:55:44Z</time>
      </trkpt>
      <trkpt lat="45.9041290" lon="5.6780330">
        <ele>535.6</ele>
        <time>2022-07-26T10:55:45Z</time>
      </trkpt>
      <trkpt lat="45.9041290" lon="5.6780330">
        <ele>535.6</ele>
        <time>2022-07-26T10:55:46Z</time>
      </trkpt>
      <trkpt lat="45.9041290" lon="5.6780330">
        <ele>535.6</ele>
        <time>2022-07-26T10:55:47Z</time>
      </trkpt>
      <trkpt lat="45.9041080" lon="5.6780270">
        <ele>535.6</ele>
        <time>2022-07-26T10:55:53Z</time>
      </trkpt>
      <trkpt lat="45.9040820" lon="5.6780180">
        <ele>535.5</ele>
        <time>2022-07-26T10:55:54Z</time>
      </trkpt>
      <trkpt lat="45.9040520" lon="5.6780060">
        <ele>535.5</ele>
        <time>2022-07-26T10:55:55Z</time>
      </trkpt>
      <trkpt lat="45.9040420" lon="5.6780020">
        <ele>535.5</ele>
        <time>2022-07-26T10:55:56Z</time>
      </trkpt>
      <trkpt lat="45.9040230" lon="5.6779970">
        <ele>535.5</ele>
        <time>2022-07-26T10:55:57Z</time>
      </trkpt>
      <trkpt lat="45.9039640" lon="5.6779900">
        <ele>535.5</ele>
        <time>2022-07-26T10:55:59Z</time>
      </trkpt>
      <trkpt lat="45.9039230" lon="5.6779910">
        <ele>535.5</ele>
        <time>2022-07-26T10:56:00Z</time>
      </trkpt>
      <trkpt lat="45.9038860" lon="5.6779940">
        <ele>535.4</ele>
        <time>2022-07-26T10:56:01Z</time>
      </trkpt>
      <trkpt lat="45.9038410" lon="5.6780010">
        <ele>535.4</ele>
        <time>2022-07-26T10:56:02Z</time>
      </trkpt>
      <trkpt lat="45.9038080" lon="5.6780080">
        <ele>535.4</ele>
        <time>2022-07-26T10:56:03Z</time>
      </trkpt>
      <trkpt lat="45.9037750" lon="5.6780140">
        <ele>535.4</ele>
        <time>2022-07-26T10:56:04Z</time>
      </trkpt>
      <trkpt lat="45.9037340" lon="5.6780180">
        <ele>535.4</ele>
        <time>2022-07-26T10:56:06Z</time>
      </trkpt>
      <trkpt lat="45.9036990" lon="5.6780280">
        <ele>535.4</ele>
        <time>2022-07-26T10:56:07Z</time>
      </trkpt>
      <trkpt lat="45.9036680" lon="5.6780410">
        <ele>535.3</ele>
        <time>2022-07-26T10:56:08Z</time>
      </trkpt>
      <trkpt lat="45.9036410" lon="5.6780550">
        <ele>535.3</ele>
        <time>2022-07-26T10:56:09Z</time>
      </trkpt>
      <trkpt lat="45.9036120" lon="5.6780690">
        <ele>535.3</ele>
        <time>2022-07-26T10:56:10Z</time>
      </trkpt>
      <trkpt lat="45.9035820" lon="5.6780840">
        <ele>535.3</ele>
        <time>2022-07-26T10:56:11Z</time>
      </trkpt>
      <trkpt lat="45.9035340" lon="5.6781070">
        <ele>535.2</ele>
        <time>2022-07-26T10:56:12Z</time>
      </trkpt>
      <trkpt lat="45.9034790" lon="5.6781330">
        <ele>535.2</ele>
        <time>2022-07-26T10:56:14Z</time>
      </trkpt>
      <trkpt lat="45.9034450" lon="5.6781460">
        <ele>535.1</ele>
        <time>2022-07-26T10:56:15Z</time>
      </trkpt>
      <trkpt lat="45.9034120" lon="5.6781540">
        <ele>535.1</ele>
        <time>2022-07-26T10:56:16Z</time>
      </trkpt>
      <trkpt lat="45.9033630" lon="5.6781460">
        <ele>535.1</ele>
        <time>2022-07-26T10:56:17Z</time>
      </trkpt>
      <trkpt lat="45.9033380" lon="5.6781410">
        <ele>535.1</ele>
        <time>2022-07-26T10:56:18Z</time>
      </trkpt>
      <trkpt lat="45.9032930" lon="5.6781270">
        <ele>535.1</ele>
        <time>2022-07-26T10:56:20Z</time>
      </trkpt>
      <trkpt lat="45.9032510" lon="5.6781230">
        <ele>535.0</ele>
        <time>2022-07-26T10:56:21Z</time>
      </trkpt>
      <trkpt lat="45.9032360" lon="5.6781230">
        <ele>535.0</ele>
        <time>2022-07-26T10:56:22Z</time>
      </trkpt>
      <trkpt lat="45.9031930" lon="5.6781270">
        <ele>535.0</ele>
        <time>2022-07-26T10:56:23Z</time>
      </trkpt>
      <trkpt lat="45.9031340" lon="5.6781150">
        <ele>535.0</ele>
        <time>2022-07-26T10:56:25Z</time>
      </trkpt>
      <trkpt lat="45.9030840" lon="5.6781100">
        <ele>535.0</ele>
        <time>2022-07-26T10:56:26Z</time>
      </trkpt>
      <trkpt lat="45.9030510" lon="5.6781130">
        <ele>535.0</ele>
        <time>2022-07-26T10:56:27Z</time>
      </trkpt>
      <trkpt lat="45.9029960" lon="5.6781160">
        <ele>535.0</ele>
        <time>2022-07-26T10:56:28Z</time>
      </trkpt>
      <trkpt lat="45.9029500" lon="5.6781170">
        <ele>535.0</ele>
        <time>2022-07-26T10:56:29Z</time>
      </trkpt>
      <trkpt lat="45.9029140" lon="5.6781110">
        <ele>535.0</ele>
        <time>2022-07-26T10:56:30Z</time>
      </trkpt>
      <trkpt lat="45.9029040" lon="5.6781020">
        <ele>535.0</ele>
        <time>2022-07-26T10:56:31Z</time>
      </trkpt>
      <trkpt lat="45.9028740" lon="5.6781030">
        <ele>535.0</ele>
        <time>2022-07-26T10:56:32Z</time>
      </trkpt>
      <trkpt lat="45.9028390" lon="5.6781190">
        <ele>535.0</ele>
        <time>2022-07-26T10:56:33Z</time>
      </trkpt>
      <trkpt lat="45.9027940" lon="5.6781410">
        <ele>535.0</ele>
        <time>2022-07-26T10:56:34Z</time>
      </trkpt>
      <trkpt lat="45.9027580" lon="5.6781590">
        <ele>535.0</ele>
        <time>2022-07-26T10:56:35Z</time>
      </trkpt>
      <trkpt lat="45.9027230" lon="5.6781730">
        <ele>535.0</ele>
        <time>2022-07-26T10:56:36Z</time>
      </trkpt>
      <trkpt lat="45.9026830" lon="5.6781860">
        <ele>535.0</ele>
        <time>2022-07-26T10:56:37Z</time>
      </trkpt>
      <trkpt lat="45.9026390" lon="5.6781990">
        <ele>535.0</ele>
        <time>2022-07-26T10:56:38Z</time>
      </trkpt>
      <trkpt lat="45.9025950" lon="5.6782140">
        <ele>535.0</ele>
        <time>2022-07-26T10:56:39Z</time>
      </trkpt>
      <trkpt lat="45.9025200" lon="5.6782320">
        <ele>535.1</ele>
        <time>2022-07-26T10:56:41Z</time>
      </trkpt>
      <trkpt lat="45.9024770" lon="5.6782390">
        <ele>535.1</ele>
        <time>2022-07-26T10:56:42Z</time>
      </trkpt>
      <trkpt lat="45.9024350" lon="5.6782530">
        <ele>535.2</ele>
        <time>2022-07-26T10:56:43Z</time>
      </trkpt>
      <trkpt lat="45.9023930" lon="5.6782710">
        <ele>535.2</ele>
        <time>2022-07-26T10:56:44Z</time>
      </trkpt>
      <trkpt lat="45.9023570" lon="5.6782900">
        <ele>535.2</ele>
        <time>2022-07-26T10:56:45Z</time>
      </trkpt>
      <trkpt lat="45.9023220" lon="5.6783060">
        <ele>535.3</ele>
        <time>2022-07-26T10:56:46Z</time>
      </trkpt>
      <trkpt lat="45.9022730" lon="5.6783130">
        <ele>535.3</ele>
        <time>2022-07-26T10:56:47Z</time>
      </trkpt>
      <trkpt lat="45.9022330" lon="5.6783210">
        <ele>535.4</ele>
        <time>2022-07-26T10:56:48Z</time>
      </trkpt>
      <trkpt lat="45.9021960" lon="5.6783300">
        <ele>535.4</ele>
        <time>2022-07-26T10:56:49Z</time>
      </trkpt>
      <trkpt lat="45.9021620" lon="5.6783410">
        <ele>535.5</ele>
        <time>2022-07-26T10:56:50Z</time>
      </trkpt>
      <trkpt lat="45.9021260" lon="5.6783550">
        <ele>535.5</ele>
        <time>2022-07-26T10:56:51Z</time>
      </trkpt>
      <trkpt lat="45.9020930" lon="5.6783670">
        <ele>535.6</ele>
        <time>2022-07-26T10:56:52Z</time>
      </trkpt>
      <trkpt lat="45.9020640" lon="5.6783770">
        <ele>535.6</ele>
        <time>2022-07-26T10:56:53Z</time>
      </trkpt>
      <trkpt lat="45.9020360" lon="5.6783860">
        <ele>535.6</ele>
        <time>2022-07-26T10:56:54Z</time>
      </trkpt>
      <trkpt lat="45.9020020" lon="5.6783950">
        <ele>535.7</ele>
        <time>2022-07-26T10:56:55Z</time>
      </trkpt>
      <trkpt lat="45.9019870" lon="5.6784000">
        <ele>535.7</ele>
        <time>2022-07-26T10:56:56Z</time>
      </trkpt>
      <trkpt lat="45.9019590" lon="5.6784080">
        <ele>535.7</ele>
        <time>2022-07-26T10:56:57Z</time>
      </trkpt>
      <trkpt lat="45.9019250" lon="5.6784180">
        <ele>535.8</ele>
        <time>2022-07-26T10:56:58Z</time>
      </trkpt>
      <trkpt lat="45.9018910" lon="5.6784210">
        <ele>535.8</ele>
        <time>2022-07-26T10:56:59Z</time>
      </trkpt>
      <trkpt lat="45.9018590" lon="5.6784290">
        <ele>535.9</ele>
        <time>2022-07-26T10:57:00Z</time>
      </trkpt>
      <trkpt lat="45.9018290" lon="5.6784400">
        <ele>535.9</ele>
        <time>2022-07-26T10:57:01Z</time>
      </trkpt>
      <trkpt lat="45.9017990" lon="5.6784530">
        <ele>535.9</ele>
        <time>2022-07-26T10:57:02Z</time>
      </trkpt>
      <trkpt lat="45.9017650" lon="5.6784630">
        <ele>536.0</ele>
        <time>2022-07-26T10:57:03Z</time>
      </trkpt>
      <trkpt lat="45.9017330" lon="5.6784690">
        <ele>536.0</ele>
        <time>2022-07-26T10:57:04Z</time>
      </trkpt>
      <trkpt lat="45.9016910" lon="5.6784790">
        <ele>536.0</ele>
        <time>2022-07-26T10:57:05Z</time>
      </trkpt>
      <trkpt lat="45.9016750" lon="5.6784820">
        <ele>536.0</ele>
        <time>2022-07-26T10:57:06Z</time>
      </trkpt>
      <trkpt lat="45.9016420" lon="5.6784940">
        <ele>536.0</ele>
        <time>2022-07-26T10:57:07Z</time>
      </trkpt>
      <trkpt lat="45.9016100" lon="5.6785070">
        <ele>536.0</ele>
        <time>2022-07-26T10:57:08Z</time>
      </trkpt>
      <trkpt lat="45.9015790" lon="5.6785200">
        <ele>536.0</ele>
        <time>2022-07-26T10:57:09Z</time>
      </trkpt>
      <trkpt lat="45.9015460" lon="5.6785290">
        <ele>536.0</ele>
        <time>2022-07-26T10:57:10Z</time>
      </trkpt>
      <trkpt lat="45.9015110" lon="5.6785380">
        <ele>536.0</ele>
        <time>2022-07-26T10:57:11Z</time>
      </trkpt>
      <trkpt lat="45.9014370" lon="5.6785520">
        <ele>536.0</ele>
        <time>2022-07-26T10:57:13Z</time>
      </trkpt>
      <trkpt lat="45.9014040" lon="5.6785620">
        <ele>536.0</ele>
        <time>2022-07-26T10:57:14Z</time>
      </trkpt>
      <trkpt lat="45.9013720" lon="5.6785740">
        <ele>535.9</ele>
        <time>2022-07-26T10:57:15Z</time>
      </trkpt>
      <trkpt lat="45.9013390" lon="5.6785930">
        <ele>535.9</ele>
        <time>2022-07-26T10:57:16Z</time>
      </trkpt>
      <trkpt lat="45.9013130" lon="5.6786200">
        <ele>535.9</ele>
        <time>2022-07-26T10:57:17Z</time>
      </trkpt>
      <trkpt lat="45.9012900" lon="5.6786630">
        <ele>535.9</ele>
        <time>2022-07-26T10:57:18Z</time>
      </trkpt>
      <trkpt lat="45.9012720" lon="5.6787110">
        <ele>535.8</ele>
        <time>2022-07-26T10:57:19Z</time>
      </trkpt>
      <trkpt lat="45.9012640" lon="5.6787610">
        <ele>535.8</ele>
        <time>2022-07-26T10:57:20Z</time>
      </trkpt>
      <trkpt lat="45.9012730" lon="5.6788380">
        <ele>535.7</ele>
        <time>2022-07-26T10:57:21Z</time>
      </trkpt>
      <trkpt lat="45.9012770" lon="5.6789310">
        <ele>535.6</ele>
        <time>2022-07-26T10:57:23Z</time>
      </trkpt>
      <trkpt lat="45.9012790" lon="5.6790000">
        <ele>535.5</ele>
        <time>2022-07-26T10:57:24Z</time>
      </trkpt>
      <trkpt lat="45.9012770" lon="5.6790590">
        <ele>535.4</ele>
        <time>2022-07-26T10:57:25Z</time>
      </trkpt>
      <trkpt lat="45.9012740" lon="5.6791220">
        <ele>535.3</ele>
        <time>2022-07-26T10:57:26Z</time>
      </trkpt>
      <trkpt lat="45.9012600" lon="5.6792200">
        <ele>535.2</ele>
        <time>2022-07-26T10:57:27Z</time>
      </trkpt>
      <trkpt lat="45.9012340" lon="5.6792880">
        <ele>535.0</ele>
        <time>2022-07-26T10:57:28Z</time>
      </trkpt>
      <trkpt lat="45.9012120" lon="5.6793500">
        <ele>534.9</ele>
        <time>2022-07-26T10:57:29Z</time>
      </trkpt>
      <trkpt lat="45.9011820" lon="5.6793930">
        <ele>534.8</ele>
        <time>2022-07-26T10:57:30Z</time>
      </trkpt>
      <trkpt lat="45.9011570" lon="5.6794530">
        <ele>534.7</ele>
        <time>2022-07-26T10:57:31Z</time>
      </trkpt>
      <trkpt lat="45.9011280" lon="5.6795090">
        <ele>534.6</ele>
        <time>2022-07-26T10:57:32Z</time>
      </trkpt>
      <trkpt lat="45.9010930" lon="5.6795670">
        <ele>534.5</ele>
        <time>2022-07-26T10:57:33Z</time>
      </trkpt>
      <trkpt lat="45.9010690" lon="5.6796260">
        <ele>534.3</ele>
        <time>2022-07-26T10:57:34Z</time>
      </trkpt>
      <trkpt lat="45.9010410" lon="5.6796820">
        <ele>534.2</ele>
        <time>2022-07-26T10:57:35Z</time>
      </trkpt>
      <trkpt lat="45.9010080" lon="5.6797450">
        <ele>534.0</ele>
        <time>2022-07-26T10:57:36Z</time>
      </trkpt>
      <trkpt lat="45.9009740" lon="5.6798130">
        <ele>533.8</ele>
        <time>2022-07-26T10:57:37Z</time>
      </trkpt>
      <trkpt lat="45.9009410" lon="5.6798770">
        <ele>533.6</ele>
        <time>2022-07-26T10:57:38Z</time>
      </trkpt>
      <trkpt lat="45.9009050" lon="5.6799470">
        <ele>533.3</ele>
        <time>2022-07-26T10:57:39Z</time>
      </trkpt>
      <trkpt lat="45.9008640" lon="5.6800130">
        <ele>533.0</ele>
        <time>2022-07-26T10:57:40Z</time>
      </trkpt>
      <trkpt lat="45.9008180" lon="5.6800760">
        <ele>532.7</ele>
        <time>2022-07-26T10:57:41Z</time>
      </trkpt>
      <trkpt lat="45.9007770" lon="5.6801530">
        <ele>532.4</ele>
        <time>2022-07-26T10:57:42Z</time>
      </trkpt>
      <trkpt lat="45.9007370" lon="5.6802270">
        <ele>532.1</ele>
        <time>2022-07-26T10:57:43Z</time>
      </trkpt>
      <trkpt lat="45.9006940" lon="5.6802960">
        <ele>531.9</ele>
        <time>2022-07-26T10:57:44Z</time>
      </trkpt>
      <trkpt lat="45.9006550" lon="5.6803540">
        <ele>531.6</ele>
        <time>2022-07-26T10:57:45Z</time>
      </trkpt>
      <trkpt lat="45.9006220" lon="5.6804190">
        <ele>531.4</ele>
        <time>2022-07-26T10:57:46Z</time>
      </trkpt>
      <trkpt lat="45.9005860" lon="5.6805060">
        <ele>531.1</ele>
        <time>2022-07-26T10:57:47Z</time>
      </trkpt>
      <trkpt lat="45.9005390" lon="5.6805920">
        <ele>530.9</ele>
        <time>2022-07-26T10:57:48Z</time>
      </trkpt>
      <trkpt lat="45.9004930" lon="5.6806780">
        <ele>530.6</ele>
        <time>2022-07-26T10:57:49Z</time>
      </trkpt>
      <trkpt lat="45.9004450" lon="5.6807670">
        <ele>530.4</ele>
        <time>2022-07-26T10:57:50Z</time>
      </trkpt>
      <trkpt lat="45.9004000" lon="5.6808560">
        <ele>530.2</ele>
        <time>2022-07-26T10:57:51Z</time>
      </trkpt>
      <trkpt lat="45.9003580" lon="5.6809410">
        <ele>530.0</ele>
        <time>2022-07-26T10:57:52Z</time>
      </trkpt>
      <trkpt lat="45.9003140" lon="5.6810280">
        <ele>529.8</ele>
        <time>2022-07-26T10:57:53Z</time>
      </trkpt>
      <trkpt lat="45.9002660" lon="5.6811120">
        <ele>529.6</ele>
        <time>2022-07-26T10:57:54Z</time>
      </trkpt>
      <trkpt lat="45.9002220" lon="5.6811950">
        <ele>529.4</ele>
        <time>2022-07-26T10:57:55Z</time>
      </trkpt>
      <trkpt lat="45.9001780" lon="5.6812800">
        <ele>529.2</ele>
        <time>2022-07-26T10:57:56Z</time>
      </trkpt>
      <trkpt lat="45.9001350" lon="5.6813640">
        <ele>529.1</ele>
        <time>2022-07-26T10:57:57Z</time>
      </trkpt>
      <trkpt lat="45.9000950" lon="5.6814430">
        <ele>528.9</ele>
        <time>2022-07-26T10:57:58Z</time>
      </trkpt>
      <trkpt lat="45.9000580" lon="5.6815230">
        <ele>528.7</ele>
        <time>2022-07-26T10:57:59Z</time>
      </trkpt>
      <trkpt lat="45.9000160" lon="5.6816090">
        <ele>528.6</ele>
        <time>2022-07-26T10:58:00Z</time>
      </trkpt>
      <trkpt lat="45.8999780" lon="5.6816840">
        <ele>528.4</ele>
        <time>2022-07-26T10:58:01Z</time>
      </trkpt>
      <trkpt lat="45.8999490" lon="5.6817580">
        <ele>528.2</ele>
        <time>2022-07-26T10:58:02Z</time>
      </trkpt>
      <trkpt lat="45.8999230" lon="5.6818240">
        <ele>528.0</ele>
        <time>2022-07-26T10:58:03Z</time>
      </trkpt>
      <trkpt lat="45.8998930" lon="5.6818900">
        <ele>527.8</ele>
        <time>2022-07-26T10:58:04Z</time>
      </trkpt>
      <trkpt lat="45.8998580" lon="5.6819640">
        <ele>527.6</ele>
        <time>2022-07-26T10:58:05Z</time>
      </trkpt>
      <trkpt lat="45.8998180" lon="5.6820340">
        <ele>527.3</ele>
        <time>2022-07-26T10:58:06Z</time>
      </trkpt>
      <trkpt lat="45.8997830" lon="5.6820960">
        <ele>527.1</ele>
        <time>2022-07-26T10:58:07Z</time>
      </trkpt>
      <trkpt lat="45.8997430" lon="5.6821590">
        <ele>526.8</ele>
        <time>2022-07-26T10:58:08Z</time>
      </trkpt>
      <trkpt lat="45.8996900" lon="5.6822040">
        <ele>526.6</ele>
        <time>2022-07-26T10:58:09Z</time>
      </trkpt>
      <trkpt lat="45.8996280" lon="5.6822280">
        <ele>526.3</ele>
        <time>2022-07-26T10:58:10Z</time>
      </trkpt>
      <trkpt lat="45.8995700" lon="5.6822410">
        <ele>526.0</ele>
        <time>2022-07-26T10:58:11Z</time>
      </trkpt>
      <trkpt lat="45.8995120" lon="5.6822480">
        <ele>525.8</ele>
        <time>2022-07-26T10:58:12Z</time>
      </trkpt>
      <trkpt lat="45.8994560" lon="5.6822610">
        <ele>525.5</ele>
        <time>2022-07-26T10:58:13Z</time>
      </trkpt>
      <trkpt lat="45.8993970" lon="5.6822750">
        <ele>525.3</ele>
        <time>2022-07-26T10:58:14Z</time>
      </trkpt>
      <trkpt lat="45.8993340" lon="5.6822810">
        <ele>525.0</ele>
        <time>2022-07-26T10:58:15Z</time>
      </trkpt>
      <trkpt lat="45.8992720" lon="5.6822680">
        <ele>524.7</ele>
        <time>2022-07-26T10:58:16Z</time>
      </trkpt>
      <trkpt lat="45.8992120" lon="5.6822530">
        <ele>524.3</ele>
        <time>2022-07-26T10:58:17Z</time>
      </trkpt>
      <trkpt lat="45.8991410" lon="5.6822450">
        <ele>523.8</ele>
        <time>2022-07-26T10:58:18Z</time>
      </trkpt>
      <trkpt lat="45.8990640" lon="5.6822280">
        <ele>523.3</ele>
        <time>2022-07-26T10:58:19Z</time>
      </trkpt>
      <trkpt lat="45.8989830" lon="5.6822130">
        <ele>522.7</ele>
        <time>2022-07-26T10:58:20Z</time>
      </trkpt>
      <trkpt lat="45.8988980" lon="5.6822050">
        <ele>522.2</ele>
        <time>2022-07-26T10:58:21Z</time>
      </trkpt>
      <trkpt lat="45.8988200" lon="5.6822080">
        <ele>521.7</ele>
        <time>2022-07-26T10:58:22Z</time>
      </trkpt>
      <trkpt lat="45.8987460" lon="5.6822050">
        <ele>521.4</ele>
        <time>2022-07-26T10:58:23Z</time>
      </trkpt>
      <trkpt lat="45.8986710" lon="5.6822120">
        <ele>521.1</ele>
        <time>2022-07-26T10:58:24Z</time>
      </trkpt>
      <trkpt lat="45.8985930" lon="5.6822330">
        <ele>520.8</ele>
        <time>2022-07-26T10:58:25Z</time>
      </trkpt>
      <trkpt lat="45.8985170" lon="5.6822510">
        <ele>520.6</ele>
        <time>2022-07-26T10:58:26Z</time>
      </trkpt>
      <trkpt lat="45.8984450" lon="5.6822590">
        <ele>520.3</ele>
        <time>2022-07-26T10:58:27Z</time>
      </trkpt>
      <trkpt lat="45.8983750" lon="5.6822600">
        <ele>520.0</ele>
        <time>2022-07-26T10:58:28Z</time>
      </trkpt>
      <trkpt lat="45.8983040" lon="5.6822570">
        <ele>519.7</ele>
        <time>2022-07-26T10:58:29Z</time>
      </trkpt>
      <trkpt lat="45.8982280" lon="5.6822470">
        <ele>519.3</ele>
        <time>2022-07-26T10:58:30Z</time>
      </trkpt>
      <trkpt lat="45.8981550" lon="5.6822450">
        <ele>519.0</ele>
        <time>2022-07-26T10:58:31Z</time>
      </trkpt>
      <trkpt lat="45.8980910" lon="5.6822640">
        <ele>518.7</ele>
        <time>2022-07-26T10:58:32Z</time>
      </trkpt>
      <trkpt lat="45.8980270" lon="5.6822920">
        <ele>518.4</ele>
        <time>2022-07-26T10:58:33Z</time>
      </trkpt>
      <trkpt lat="45.8979560" lon="5.6823130">
        <ele>518.1</ele>
        <time>2022-07-26T10:58:34Z</time>
      </trkpt>
      <trkpt lat="45.8978840" lon="5.6823300">
        <ele>517.7</ele>
        <time>2022-07-26T10:58:35Z</time>
      </trkpt>
      <trkpt lat="45.8978080" lon="5.6823410">
        <ele>517.3</ele>
        <time>2022-07-26T10:58:36Z</time>
      </trkpt>
      <trkpt lat="45.8977340" lon="5.6823500">
        <ele>516.9</ele>
        <time>2022-07-26T10:58:37Z</time>
      </trkpt>
      <trkpt lat="45.8976730" lon="5.6823560">
        <ele>516.6</ele>
        <time>2022-07-26T10:58:38Z</time>
      </trkpt>
      <trkpt lat="45.8976130" lon="5.6823680">
        <ele>516.2</ele>
        <time>2022-07-26T10:58:39Z</time>
      </trkpt>
      <trkpt lat="45.8975560" lon="5.6823840">
        <ele>515.9</ele>
        <time>2022-07-26T10:58:40Z</time>
      </trkpt>
      <trkpt lat="45.8975140" lon="5.6824010">
        <ele>515.7</ele>
        <time>2022-07-26T10:58:41Z</time>
      </trkpt>
      <trkpt lat="45.8974800" lon="5.6824000">
        <ele>515.5</ele>
        <time>2022-07-26T10:58:42Z</time>
      </trkpt>
      <trkpt lat="45.8974480" lon="5.6824310">
        <ele>515.3</ele>
        <time>2022-07-26T10:58:43Z</time>
      </trkpt>
      <trkpt lat="45.8974360" lon="5.6824510">
        <ele>515.2</ele>
        <time>2022-07-26T10:58:44Z</time>
      </trkpt>
      <trkpt lat="45.8974270" lon="5.6824960">
        <ele>515.2</ele>
        <time>2022-07-26T10:58:45Z</time>
      </trkpt>
      <trkpt lat="45.8974230" lon="5.6825480">
        <ele>515.2</ele>
        <time>2022-07-26T10:58:46Z</time>
      </trkpt>
      <trkpt lat="45.8974270" lon="5.6826040">
        <ele>515.2</ele>
        <time>2022-07-26T10:58:47Z</time>
      </trkpt>
      <trkpt lat="45.8974310" lon="5.6826510">
        <ele>515.3</ele>
        <time>2022-07-26T10:58:48Z</time>
      </trkpt>
      <trkpt lat="45.8974400" lon="5.6827140">
        <ele>515.3</ele>
        <time>2022-07-26T10:58:49Z</time>
      </trkpt>
      <trkpt lat="45.8974420" lon="5.6827690">
        <ele>515.3</ele>
        <time>2022-07-26T10:58:50Z</time>
      </trkpt>
      <trkpt lat="45.8974500" lon="5.6828190">
        <ele>515.3</ele>
        <time>2022-07-26T10:58:51Z</time>
      </trkpt>
      <trkpt lat="45.8974570" lon="5.6828650">
        <ele>515.3</ele>
        <time>2022-07-26T10:58:52Z</time>
      </trkpt>
      <trkpt lat="45.8974630" lon="5.6829200">
        <ele>515.3</ele>
        <time>2022-07-26T10:58:53Z</time>
      </trkpt>
      <trkpt lat="45.8974660" lon="5.6829750">
        <ele>515.3</ele>
        <time>2022-07-26T10:58:54Z</time>
      </trkpt>
      <trkpt lat="45.8974710" lon="5.6830360">
        <ele>515.4</ele>
        <time>2022-07-26T10:58:55Z</time>
      </trkpt>
      <trkpt lat="45.8974820" lon="5.6830890">
        <ele>515.4</ele>
        <time>2022-07-26T10:58:56Z</time>
      </trkpt>
      <trkpt lat="45.8975000" lon="5.6831350">
        <ele>515.4</ele>
        <time>2022-07-26T10:58:57Z</time>
      </trkpt>
      <trkpt lat="45.8975250" lon="5.6831770">
        <ele>515.4</ele>
        <time>2022-07-26T10:58:58Z</time>
      </trkpt>
      <trkpt lat="45.8975580" lon="5.6832220">
        <ele>515.4</ele>
        <time>2022-07-26T10:58:59Z</time>
      </trkpt>
      <trkpt lat="45.8975950" lon="5.6832590">
        <ele>515.4</ele>
        <time>2022-07-26T10:59:00Z</time>
      </trkpt>
      <trkpt lat="45.8976290" lon="5.6832940">
        <ele>515.4</ele>
        <time>2022-07-26T10:59:01Z</time>
      </trkpt>
      <trkpt lat="45.8976530" lon="5.6833180">
        <ele>515.4</ele>
        <time>2022-07-26T10:59:02Z</time>
      </trkpt>
      <trkpt lat="45.8976800" lon="5.6833460">
        <ele>515.4</ele>
        <time>2022-07-26T10:59:03Z</time>
      </trkpt>
      <trkpt lat="45.8977070" lon="5.6833720">
        <ele>515.4</ele>
        <time>2022-07-26T10:59:04Z</time>
      </trkpt>
      <trkpt lat="45.8977340" lon="5.6833980">
        <ele>515.3</ele>
        <time>2022-07-26T10:59:05Z</time>
      </trkpt>
      <trkpt lat="45.8977650" lon="5.6834300">
        <ele>515.3</ele>
        <time>2022-07-26T10:59:06Z</time>
      </trkpt>
      <trkpt lat="45.8977990" lon="5.6834710">
        <ele>515.2</ele>
        <time>2022-07-26T10:59:07Z</time>
      </trkpt>
      <trkpt lat="45.8978350" lon="5.6835180">
        <ele>515.2</ele>
        <time>2022-07-26T10:59:08Z</time>
      </trkpt>
      <trkpt lat="45.8978630" lon="5.6835590">
        <ele>515.2</ele>
        <time>2022-07-26T10:59:09Z</time>
      </trkpt>
      <trkpt lat="45.8978790" lon="5.6836010">
        <ele>515.1</ele>
        <time>2022-07-26T10:59:10Z</time>
      </trkpt>
      <trkpt lat="45.8979010" lon="5.6836570">
        <ele>515.1</ele>
        <time>2022-07-26T10:59:11Z</time>
      </trkpt>
      <trkpt lat="45.8979120" lon="5.6836950">
        <ele>515.0</ele>
        <time>2022-07-26T10:59:12Z</time>
      </trkpt>
      <trkpt lat="45.8979310" lon="5.6837560">
        <ele>514.9</ele>
        <time>2022-07-26T10:59:13Z</time>
      </trkpt>
      <trkpt lat="45.8979430" lon="5.6837810">
        <ele>514.9</ele>
        <time>2022-07-26T10:59:14Z</time>
      </trkpt>
      <trkpt lat="45.8979770" lon="5.6838420">
        <ele>514.7</ele>
        <time>2022-07-26T10:59:15Z</time>
      </trkpt>
      <trkpt lat="45.8979990" lon="5.6839040">
        <ele>514.5</ele>
        <time>2022-07-26T10:59:16Z</time>
      </trkpt>
      <trkpt lat="45.8980350" lon="5.6839700">
        <ele>514.3</ele>
        <time>2022-07-26T10:59:17Z</time>
      </trkpt>
      <trkpt lat="45.8980700" lon="5.6840360">
        <ele>514.1</ele>
        <time>2022-07-26T10:59:18Z</time>
      </trkpt>
      <trkpt lat="45.8980950" lon="5.6841050">
        <ele>513.9</ele>
        <time>2022-07-26T10:59:19Z</time>
      </trkpt>
      <trkpt lat="45.8981230" lon="5.6841770">
        <ele>513.7</ele>
        <time>2022-07-26T10:59:20Z</time>
      </trkpt>
      <trkpt lat="45.8981570" lon="5.6842490">
        <ele>513.6</ele>
        <time>2022-07-26T10:59:21Z</time>
      </trkpt>
      <trkpt lat="45.8981930" lon="5.6843210">
        <ele>513.4</ele>
        <time>2022-07-26T10:59:22Z</time>
      </trkpt>
      <trkpt lat="45.8982320" lon="5.6843940">
        <ele>513.3</ele>
        <time>2022-07-26T10:59:23Z</time>
      </trkpt>
      <trkpt lat="45.8982690" lon="5.6844580">
        <ele>513.2</ele>
        <time>2022-07-26T10:59:24Z</time>
      </trkpt>
      <trkpt lat="45.8983090" lon="5.6845190">
        <ele>513.1</ele>
        <time>2022-07-26T10:59:25Z</time>
      </trkpt>
      <trkpt lat="45.8983490" lon="5.6845740">
        <ele>513.0</ele>
        <time>2022-07-26T10:59:26Z</time>
      </trkpt>
      <trkpt lat="45.8983860" lon="5.6846320">
        <ele>512.9</ele>
        <time>2022-07-26T10:59:27Z</time>
      </trkpt>
      <trkpt lat="45.8984270" lon="5.6846720">
        <ele>512.8</ele>
        <time>2022-07-26T10:59:28Z</time>
      </trkpt>
      <trkpt lat="45.8984690" lon="5.6847150">
        <ele>512.7</ele>
        <time>2022-07-26T10:59:29Z</time>
      </trkpt>
      <trkpt lat="45.8985030" lon="5.6847620">
        <ele>512.7</ele>
        <time>2022-07-26T10:59:30Z</time>
      </trkpt>
      <trkpt lat="45.8985370" lon="5.6848120">
        <ele>512.6</ele>
        <time>2022-07-26T10:59:31Z</time>
      </trkpt>
      <trkpt lat="45.8985830" lon="5.6848610">
        <ele>512.5</ele>
        <time>2022-07-26T10:59:32Z</time>
      </trkpt>
      <trkpt lat="45.8986270" lon="5.6849100">
        <ele>512.5</ele>
        <time>2022-07-26T10:59:33Z</time>
      </trkpt>
      <trkpt lat="45.8986700" lon="5.6849580">
        <ele>512.5</ele>
        <time>2022-07-26T10:59:34Z</time>
      </trkpt>
      <trkpt lat="45.8987190" lon="5.6849990">
        <ele>512.4</ele>
        <time>2022-07-26T10:59:35Z</time>
      </trkpt>
      <trkpt lat="45.8987560" lon="5.6850380">
        <ele>512.4</ele>
        <time>2022-07-26T10:59:36Z</time>
      </trkpt>
      <trkpt lat="45.8987800" lon="5.6850620">
        <ele>512.4</ele>
        <time>2022-07-26T10:59:37Z</time>
      </trkpt>
      <trkpt lat="45.8988090" lon="5.6851000">
        <ele>512.4</ele>
        <time>2022-07-26T10:59:38Z</time>
      </trkpt>
      <trkpt lat="45.8988440" lon="5.6851360">
        <ele>512.4</ele>
        <time>2022-07-26T10:59:39Z</time>
      </trkpt>
      <trkpt lat="45.8988760" lon="5.6851810">
        <ele>512.4</ele>
        <time>2022-07-26T10:59:40Z</time>
      </trkpt>
      <trkpt lat="45.8989010" lon="5.6852300">
        <ele>512.4</ele>
        <time>2022-07-26T10:59:41Z</time>
      </trkpt>
      <trkpt lat="45.8989190" lon="5.6852790">
        <ele>512.3</ele>
        <time>2022-07-26T10:59:42Z</time>
      </trkpt>
      <trkpt lat="45.8989370" lon="5.6853310">
        <ele>512.3</ele>
        <time>2022-07-26T10:59:43Z</time>
      </trkpt>
      <trkpt lat="45.8989560" lon="5.6854080">
        <ele>512.3</ele>
        <time>2022-07-26T10:59:44Z</time>
      </trkpt>
      <trkpt lat="45.8989790" lon="5.6854730">
        <ele>512.3</ele>
        <time>2022-07-26T10:59:45Z</time>
      </trkpt>
      <trkpt lat="45.8990030" lon="5.6855340">
        <ele>512.2</ele>
        <time>2022-07-26T10:59:46Z</time>
      </trkpt>
      <trkpt lat="45.8990120" lon="5.6856120">
        <ele>512.2</ele>
        <time>2022-07-26T10:59:47Z</time>
      </trkpt>
      <trkpt lat="45.8990340" lon="5.6856710">
        <ele>512.1</ele>
        <time>2022-07-26T10:59:49Z</time>
      </trkpt>
      <trkpt lat="45.8990630" lon="5.6857370">
        <ele>512.1</ele>
        <time>2022-07-26T10:59:50Z</time>
      </trkpt>
      <trkpt lat="45.8990880" lon="5.6857920">
        <ele>512.0</ele>
        <time>2022-07-26T10:59:51Z</time>
      </trkpt>
      <trkpt lat="45.8991160" lon="5.6858380">
        <ele>511.9</ele>
        <time>2022-07-26T10:59:52Z</time>
      </trkpt>
      <trkpt lat="45.8991600" lon="5.6859130">
        <ele>511.8</ele>
        <time>2022-07-26T10:59:54Z</time>
      </trkpt>
      <trkpt lat="45.8991860" lon="5.6859570">
        <ele>511.7</ele>
        <time>2022-07-26T10:59:55Z</time>
      </trkpt>
      <trkpt lat="45.8992090" lon="5.6859970">
        <ele>511.5</ele>
        <time>2022-07-26T10:59:56Z</time>
      </trkpt>
      <trkpt lat="45.8992370" lon="5.6860220">
        <ele>511.4</ele>
        <time>2022-07-26T10:59:57Z</time>
      </trkpt>
      <trkpt lat="45.8992620" lon="5.6860510">
        <ele>511.2</ele>
        <time>2022-07-26T10:59:58Z</time>
      </trkpt>
      <trkpt lat="45.8992820" lon="5.6860800">
        <ele>511.0</ele>
        <time>2022-07-26T10:59:59Z</time>
      </trkpt>
      <trkpt lat="45.8993100" lon="5.6861090">
        <ele>510.8</ele>
        <time>2022-07-26T11:00:00Z</time>
      </trkpt>
      <trkpt lat="45.8993470" lon="5.6861520">
        <ele>510.5</ele>
        <time>2022-07-26T11:00:02Z</time>
      </trkpt>
      <trkpt lat="45.8993900" lon="5.6862110">
        <ele>510.1</ele>
        <time>2022-07-26T11:00:03Z</time>
      </trkpt>
      <trkpt lat="45.8994290" lon="5.6862700">
        <ele>509.7</ele>
        <time>2022-07-26T11:00:04Z</time>
      </trkpt>
      <trkpt lat="45.8994510" lon="5.6863160">
        <ele>509.5</ele>
        <time>2022-07-26T11:00:05Z</time>
      </trkpt>
      <trkpt lat="45.8994780" lon="5.6863840">
        <ele>509.2</ele>
        <time>2022-07-26T11:00:06Z</time>
      </trkpt>
      <trkpt lat="45.8994970" lon="5.6864650">
        <ele>509.0</ele>
        <time>2022-07-26T11:00:07Z</time>
      </trkpt>
      <trkpt lat="45.8994980" lon="5.6865530">
        <ele>508.7</ele>
        <time>2022-07-26T11:00:08Z</time>
      </trkpt>
      <trkpt lat="45.8994980" lon="5.6866260">
        <ele>508.5</ele>
        <time>2022-07-26T11:00:09Z</time>
      </trkpt>
      <trkpt lat="45.8994780" lon="5.6867020">
        <ele>508.3</ele>
        <time>2022-07-26T11:00:10Z</time>
      </trkpt>
      <trkpt lat="45.8994540" lon="5.6867740">
        <ele>508.2</ele>
        <time>2022-07-26T11:00:11Z</time>
      </trkpt>
      <trkpt lat="45.8994340" lon="5.6868340">
        <ele>508.0</ele>
        <time>2022-07-26T11:00:12Z</time>
      </trkpt>
      <trkpt lat="45.8994080" lon="5.6868940">
        <ele>507.9</ele>
        <time>2022-07-26T11:00:13Z</time>
      </trkpt>
      <trkpt lat="45.8993820" lon="5.6869360">
        <ele>507.8</ele>
        <time>2022-07-26T11:00:14Z</time>
      </trkpt>
      <trkpt lat="45.8993530" lon="5.6869790">
        <ele>507.6</ele>
        <time>2022-07-26T11:00:15Z</time>
      </trkpt>
      <trkpt lat="45.8993200" lon="5.6869950">
        <ele>507.5</ele>
        <time>2022-07-26T11:00:16Z</time>
      </trkpt>
      <trkpt lat="45.8993070" lon="5.6869990">
        <ele>507.4</ele>
        <time>2022-07-26T11:00:17Z</time>
      </trkpt>
      <trkpt lat="45.8992670" lon="5.6870040">
        <ele>507.2</ele>
        <time>2022-07-26T11:00:18Z</time>
      </trkpt>
      <trkpt lat="45.8992120" lon="5.6870040">
        <ele>506.9</ele>
        <time>2022-07-26T11:00:19Z</time>
      </trkpt>
      <trkpt lat="45.8991380" lon="5.6870060">
        <ele>506.5</ele>
        <time>2022-07-26T11:00:20Z</time>
      </trkpt>
      <trkpt lat="45.8990760" lon="5.6870160">
        <ele>506.1</ele>
        <time>2022-07-26T11:00:21Z</time>
      </trkpt>
      <trkpt lat="45.8990410" lon="5.6870370">
        <ele>505.8</ele>
        <time>2022-07-26T11:00:22Z</time>
      </trkpt>
      <trkpt lat="45.8989850" lon="5.6870800">
        <ele>505.3</ele>
        <time>2022-07-26T11:00:23Z</time>
      </trkpt>
      <trkpt lat="45.8989300" lon="5.6871450">
        <ele>504.7</ele>
        <time>2022-07-26T11:00:24Z</time>
      </trkpt>
      <trkpt lat="45.8989140" lon="5.6872300">
        <ele>504.3</ele>
        <time>2022-07-26T11:00:25Z</time>
      </trkpt>
      <trkpt lat="45.8989210" lon="5.6873070">
        <ele>504.0</ele>
        <time>2022-07-26T11:00:26Z</time>
      </trkpt>
      <trkpt lat="45.8989260" lon="5.6873550">
        <ele>503.9</ele>
        <time>2022-07-26T11:00:27Z</time>
      </trkpt>
      <trkpt lat="45.8989110" lon="5.6874390">
        <ele>503.6</ele>
        <time>2022-07-26T11:00:28Z</time>
      </trkpt>
      <trkpt lat="45.8988990" lon="5.6875170">
        <ele>503.3</ele>
        <time>2022-07-26T11:00:29Z</time>
      </trkpt>
      <trkpt lat="45.8988970" lon="5.6875700">
        <ele>503.0</ele>
        <time>2022-07-26T11:00:30Z</time>
      </trkpt>
      <trkpt lat="45.8988950" lon="5.6876220">
        <ele>502.7</ele>
        <time>2022-07-26T11:00:31Z</time>
      </trkpt>
      <trkpt lat="45.8989040" lon="5.6876760">
        <ele>502.4</ele>
        <time>2022-07-26T11:00:32Z</time>
      </trkpt>
      <trkpt lat="45.8989160" lon="5.6877200">
        <ele>502.0</ele>
        <time>2022-07-26T11:00:33Z</time>
      </trkpt>
      <trkpt lat="45.8989270" lon="5.6877570">
        <ele>501.6</ele>
        <time>2022-07-26T11:00:34Z</time>
      </trkpt>
      <trkpt lat="45.8989270" lon="5.6878130">
        <ele>501.1</ele>
        <time>2022-07-26T11:00:35Z</time>
      </trkpt>
      <trkpt lat="45.8989290" lon="5.6878710">
        <ele>500.5</ele>
        <time>2022-07-26T11:00:36Z</time>
      </trkpt>
      <trkpt lat="45.8989320" lon="5.6879270">
        <ele>499.9</ele>
        <time>2022-07-26T11:00:37Z</time>
      </trkpt>
      <trkpt lat="45.8989290" lon="5.6879920">
        <ele>499.3</ele>
        <time>2022-07-26T11:00:38Z</time>
      </trkpt>
      <trkpt lat="45.8989280" lon="5.6880410">
        <ele>498.8</ele>
        <time>2022-07-26T11:00:39Z</time>
      </trkpt>
      <trkpt lat="45.8989410" lon="5.6880930">
        <ele>498.2</ele>
        <time>2022-07-26T11:00:40Z</time>
      </trkpt>
      <trkpt lat="45.8989430" lon="5.6881130">
        <ele>498.0</ele>
        <time>2022-07-26T11:00:41Z</time>
      </trkpt>
      <trkpt lat="45.8989350" lon="5.6881610">
        <ele>497.5</ele>
        <time>2022-07-26T11:00:42Z</time>
      </trkpt>
      <trkpt lat="45.8989170" lon="5.6882060">
        <ele>497.1</ele>
        <time>2022-07-26T11:00:43Z</time>
      </trkpt>
      <trkpt lat="45.8988880" lon="5.6882500">
        <ele>496.6</ele>
        <time>2022-07-26T11:00:44Z</time>
      </trkpt>
      <trkpt lat="45.8988150" lon="5.6882890">
        <ele>495.8</ele>
        <time>2022-07-26T11:00:45Z</time>
      </trkpt>
      <trkpt lat="45.8987210" lon="5.6883170">
        <ele>494.9</ele>
        <time>2022-07-26T11:00:46Z</time>
      </trkpt>
      <trkpt lat="45.8986260" lon="5.6883390">
        <ele>494.1</ele>
        <time>2022-07-26T11:00:47Z</time>
      </trkpt>
      <trkpt lat="45.8985520" lon="5.6883670">
        <ele>493.4</ele>
        <time>2022-07-26T11:00:48Z</time>
      </trkpt>
      <trkpt lat="45.8984890" lon="5.6884050">
        <ele>492.8</ele>
        <time>2022-07-26T11:00:49Z</time>
      </trkpt>
      <trkpt lat="45.8984320" lon="5.6884460">
        <ele>492.2</ele>
        <time>2022-07-26T11:00:50Z</time>
      </trkpt>
      <trkpt lat="45.8983850" lon="5.6885100">
        <ele>491.6</ele>
        <time>2022-07-26T11:00:51Z</time>
      </trkpt>
      <trkpt lat="45.8983440" lon="5.6885960">
        <ele>490.9</ele>
        <time>2022-07-26T11:00:52Z</time>
      </trkpt>
      <trkpt lat="45.8983050" lon="5.6886520">
        <ele>490.3</ele>
        <time>2022-07-26T11:00:53Z</time>
      </trkpt>
      <trkpt lat="45.8982750" lon="5.6886850">
        <ele>489.9</ele>
        <time>2022-07-26T11:00:54Z</time>
      </trkpt>
      <trkpt lat="45.8982490" lon="5.6887240">
        <ele>489.5</ele>
        <time>2022-07-26T11:00:55Z</time>
      </trkpt>
      <trkpt lat="45.8982290" lon="5.6887820">
        <ele>489.1</ele>
        <time>2022-07-26T11:00:56Z</time>
      </trkpt>
      <trkpt lat="45.8982170" lon="5.6888050">
        <ele>488.9</ele>
        <time>2022-07-26T11:00:57Z</time>
      </trkpt>
      <trkpt lat="45.8981920" lon="5.6888530">
        <ele>488.4</ele>
        <time>2022-07-26T11:00:58Z</time>
      </trkpt>
      <trkpt lat="45.8981670" lon="5.6888840">
        <ele>488.1</ele>
        <time>2022-07-26T11:00:59Z</time>
      </trkpt>
      <trkpt lat="45.8981290" lon="5.6888990">
        <ele>487.7</ele>
        <time>2022-07-26T11:01:00Z</time>
      </trkpt>
      <trkpt lat="45.8980710" lon="5.6888970">
        <ele>487.2</ele>
        <time>2022-07-26T11:01:01Z</time>
      </trkpt>
      <trkpt lat="45.8980110" lon="5.6889020">
        <ele>486.8</ele>
        <time>2022-07-26T11:01:02Z</time>
      </trkpt>
      <trkpt lat="45.8979510" lon="5.6889180">
        <ele>486.4</ele>
        <time>2022-07-26T11:01:03Z</time>
      </trkpt>
      <trkpt lat="45.8978890" lon="5.6889290">
        <ele>486.0</ele>
        <time>2022-07-26T11:01:04Z</time>
      </trkpt>
      <trkpt lat="45.8978260" lon="5.6889460">
        <ele>485.7</ele>
        <time>2022-07-26T11:01:05Z</time>
      </trkpt>
      <trkpt lat="45.8977620" lon="5.6889680">
        <ele>485.4</ele>
        <time>2022-07-26T11:01:06Z</time>
      </trkpt>
      <trkpt lat="45.8977010" lon="5.6889830">
        <ele>485.1</ele>
        <time>2022-07-26T11:01:07Z</time>
      </trkpt>
      <trkpt lat="45.8976380" lon="5.6890010">
        <ele>484.9</ele>
        <time>2022-07-26T11:01:08Z</time>
      </trkpt>
      <trkpt lat="45.8975700" lon="5.6890200">
        <ele>484.7</ele>
        <time>2022-07-26T11:01:09Z</time>
      </trkpt>
      <trkpt lat="45.8975050" lon="5.6890370">
        <ele>484.5</ele>
        <time>2022-07-26T11:01:10Z</time>
      </trkpt>
      <trkpt lat="45.8974420" lon="5.6890530">
        <ele>484.4</ele>
        <time>2022-07-26T11:01:11Z</time>
      </trkpt>
      <trkpt lat="45.8973750" lon="5.6890740">
        <ele>484.3</ele>
        <time>2022-07-26T11:01:12Z</time>
      </trkpt>
      <trkpt lat="45.8973130" lon="5.6890900">
        <ele>484.2</ele>
        <time>2022-07-26T11:01:13Z</time>
      </trkpt>
      <trkpt lat="45.8972570" lon="5.6891010">
        <ele>484.1</ele>
        <time>2022-07-26T11:01:14Z</time>
      </trkpt>
      <trkpt lat="45.8972000" lon="5.6891170">
        <ele>484.0</ele>
        <time>2022-07-26T11:01:15Z</time>
      </trkpt>
      <trkpt lat="45.8971420" lon="5.6891360">
        <ele>484.0</ele>
        <time>2022-07-26T11:01:16Z</time>
      </trkpt>
      <trkpt lat="45.8970900" lon="5.6891510">
        <ele>484.0</ele>
        <time>2022-07-26T11:01:17Z</time>
      </trkpt>
      <trkpt lat="45.8970420" lon="5.6891630">
        <ele>484.0</ele>
        <time>2022-07-26T11:01:18Z</time>
      </trkpt>
      <trkpt lat="45.8969930" lon="5.6891750">
        <ele>484.0</ele>
        <time>2022-07-26T11:01:19Z</time>
      </trkpt>
      <trkpt lat="45.8969510" lon="5.6891870">
        <ele>484.0</ele>
        <time>2022-07-26T11:01:20Z</time>
      </trkpt>
      <trkpt lat="45.8969120" lon="5.6891990">
        <ele>484.1</ele>
        <time>2022-07-26T11:01:21Z</time>
      </trkpt>
      <trkpt lat="45.8968940" lon="5.6892020">
        <ele>484.1</ele>
        <time>2022-07-26T11:01:22Z</time>
      </trkpt>
      <trkpt lat="45.8968540" lon="5.6892100">
        <ele>484.1</ele>
        <time>2022-07-26T11:01:23Z</time>
      </trkpt>
      <trkpt lat="45.8968150" lon="5.6892220">
        <ele>484.0</ele>
        <time>2022-07-26T11:01:24Z</time>
      </trkpt>
      <trkpt lat="45.8967740" lon="5.6892350">
        <ele>484.0</ele>
        <time>2022-07-26T11:01:25Z</time>
      </trkpt>
      <trkpt lat="45.8967370" lon="5.6892450">
        <ele>483.9</ele>
        <time>2022-07-26T11:01:26Z</time>
      </trkpt>
      <trkpt lat="45.8967030" lon="5.6892470">
        <ele>483.8</ele>
        <time>2022-07-26T11:01:27Z</time>
      </trkpt>
      <trkpt lat="45.8966620" lon="5.6892510">
        <ele>483.6</ele>
        <time>2022-07-26T11:01:28Z</time>
      </trkpt>
      <trkpt lat="45.8966260" lon="5.6892490">
        <ele>483.4</ele>
        <time>2022-07-26T11:01:29Z</time>
      </trkpt>
      <trkpt lat="45.8965890" lon="5.6892510">
        <ele>483.2</ele>
        <time>2022-07-26T11:01:30Z</time>
      </trkpt>
      <trkpt lat="45.8965440" lon="5.6892570">
        <ele>483.0</ele>
        <time>2022-07-26T11:01:31Z</time>
      </trkpt>
      <trkpt lat="45.8964830" lon="5.6892470">
        <ele>482.6</ele>
        <time>2022-07-26T11:01:32Z</time>
      </trkpt>
      <trkpt lat="45.8964260" lon="5.6892460">
        <ele>482.2</ele>
        <time>2022-07-26T11:01:33Z</time>
      </trkpt>
      <trkpt lat="45.8963730" lon="5.6892530">
        <ele>481.8</ele>
        <time>2022-07-26T11:01:34Z</time>
      </trkpt>
      <trkpt lat="45.8963390" lon="5.6892730">
        <ele>481.5</ele>
        <time>2022-07-26T11:01:35Z</time>
      </trkpt>
      <trkpt lat="45.8962990" lon="5.6893140">
        <ele>481.0</ele>
        <time>2022-07-26T11:01:36Z</time>
      </trkpt>
      <trkpt lat="45.8962560" lon="5.6893710">
        <ele>480.5</ele>
        <time>2022-07-26T11:01:37Z</time>
      </trkpt>
      <trkpt lat="45.8962140" lon="5.6894390">
        <ele>479.9</ele>
        <time>2022-07-26T11:01:38Z</time>
      </trkpt>
      <trkpt lat="45.8961750" lon="5.6895170">
        <ele>479.4</ele>
        <time>2022-07-26T11:01:39Z</time>
      </trkpt>
      <trkpt lat="45.8961420" lon="5.6895880">
        <ele>479.1</ele>
        <time>2022-07-26T11:01:40Z</time>
      </trkpt>
      <trkpt lat="45.8961070" lon="5.6896450">
        <ele>479.0</ele>
        <time>2022-07-26T11:01:41Z</time>
      </trkpt>
      <trkpt lat="45.8960650" lon="5.6896870">
        <ele>478.9</ele>
        <time>2022-07-26T11:01:42Z</time>
      </trkpt>
      <trkpt lat="45.8960100" lon="5.6897190">
        <ele>479.0</ele>
        <time>2022-07-26T11:01:43Z</time>
      </trkpt>
      <trkpt lat="45.8959710" lon="5.6897300">
        <ele>479.1</ele>
        <time>2022-07-26T11:01:44Z</time>
      </trkpt>
      <trkpt lat="45.8959350" lon="5.6897310">
        <ele>479.2</ele>
        <time>2022-07-26T11:01:45Z</time>
      </trkpt>
      <trkpt lat="45.8959230" lon="5.6897320">
        <ele>479.3</ele>
        <time>2022-07-26T11:01:46Z</time>
      </trkpt>
      <trkpt lat="45.8958920" lon="5.6897270">
        <ele>479.4</ele>
        <time>2022-07-26T11:01:47Z</time>
      </trkpt>
      <trkpt lat="45.8958830" lon="5.6897240">
        <ele>479.5</ele>
        <time>2022-07-26T11:01:48Z</time>
      </trkpt>
      <trkpt lat="45.8958460" lon="5.6897190">
        <ele>479.7</ele>
        <time>2022-07-26T11:01:49Z</time>
      </trkpt>
      <trkpt lat="45.8958330" lon="5.6897160">
        <ele>479.8</ele>
        <time>2022-07-26T11:01:50Z</time>
      </trkpt>
      <trkpt lat="45.8958010" lon="5.6897160">
        <ele>479.9</ele>
        <time>2022-07-26T11:01:51Z</time>
      </trkpt>
      <trkpt lat="45.8957900" lon="5.6897160">
        <ele>480.0</ele>
        <time>2022-07-26T11:01:52Z</time>
      </trkpt>
      <trkpt lat="45.8957750" lon="5.6897150">
        <ele>480.1</ele>
        <time>2022-07-26T11:01:53Z</time>
      </trkpt>
      <trkpt lat="45.8957620" lon="5.6897130">
        <ele>480.1</ele>
        <time>2022-07-26T11:01:54Z</time>
      </trkpt>
      <trkpt lat="45.8957330" lon="5.6897070">
        <ele>480.3</ele>
        <time>2022-07-26T11:01:55Z</time>
      </trkpt>
      <trkpt lat="45.8957240" lon="5.6897060">
        <ele>480.3</ele>
        <time>2022-07-26T11:01:56Z</time>
      </trkpt>
      <trkpt lat="45.8957050" lon="5.6897050">
        <ele>480.4</ele>
        <time>2022-07-26T11:01:57Z</time>
      </trkpt>
      <trkpt lat="45.8956890" lon="5.6897050">
        <ele>480.5</ele>
        <time>2022-07-26T11:01:58Z</time>
      </trkpt>
      <trkpt lat="45.8956620" lon="5.6897020">
        <ele>480.7</ele>
        <time>2022-07-26T11:01:59Z</time>
      </trkpt>
      <trkpt lat="45.8956530" lon="5.6897010">
        <ele>480.7</ele>
        <time>2022-07-26T11:02:00Z</time>
      </trkpt>
      <trkpt lat="45.8956360" lon="5.6896980">
        <ele>480.8</ele>
        <time>2022-07-26T11:02:01Z</time>
      </trkpt>
      <trkpt lat="45.8956200" lon="5.6896970">
        <ele>480.8</ele>
        <time>2022-07-26T11:02:02Z</time>
      </trkpt>
      <trkpt lat="45.8956090" lon="5.6896960">
        <ele>480.9</ele>
        <time>2022-07-26T11:02:03Z</time>
      </trkpt>
      <trkpt lat="45.8955990" lon="5.6896950">
        <ele>480.9</ele>
        <time>2022-07-26T11:02:04Z</time>
      </trkpt>
      <trkpt lat="45.8955850" lon="5.6896940">
        <ele>481.0</ele>
        <time>2022-07-26T11:02:05Z</time>
      </trkpt>
      <trkpt lat="45.8955560" lon="5.6896890">
        <ele>481.1</ele>
        <time>2022-07-26T11:02:06Z</time>
      </trkpt>
      <trkpt lat="45.8955440" lon="5.6896860">
        <ele>481.1</ele>
        <time>2022-07-26T11:02:07Z</time>
      </trkpt>
      <trkpt lat="45.8955090" lon="5.6896770">
        <ele>481.2</ele>
        <time>2022-07-26T11:02:08Z</time>
      </trkpt>
      <trkpt lat="45.8954960" lon="5.6896730">
        <ele>481.3</ele>
        <time>2022-07-26T11:02:09Z</time>
      </trkpt>
      <trkpt lat="45.8954670" lon="5.6896650">
        <ele>481.4</ele>
        <time>2022-07-26T11:02:10Z</time>
      </trkpt>
      <trkpt lat="45.8954540" lon="5.6896610">
        <ele>481.4</ele>
        <time>2022-07-26T11:02:11Z</time>
      </trkpt>
      <trkpt lat="45.8954220" lon="5.6896440">
        <ele>481.4</ele>
        <time>2022-07-26T11:02:12Z</time>
      </trkpt>
      <trkpt lat="45.8954120" lon="5.6896370">
        <ele>481.5</ele>
        <time>2022-07-26T11:02:13Z</time>
      </trkpt>
      <trkpt lat="45.8953790" lon="5.6896060">
        <ele>481.5</ele>
        <time>2022-07-26T11:02:14Z</time>
      </trkpt>
      <trkpt lat="45.8953680" lon="5.6895970">
        <ele>481.5</ele>
        <time>2022-07-26T11:02:15Z</time>
      </trkpt>
      <trkpt lat="45.8953320" lon="5.6895690">
        <ele>481.6</ele>
        <time>2022-07-26T11:02:16Z</time>
      </trkpt>
      <trkpt lat="45.8953190" lon="5.6895590">
        <ele>481.6</ele>
        <time>2022-07-26T11:02:17Z</time>
      </trkpt>
      <trkpt lat="45.8952840" lon="5.6895300">
        <ele>481.6</ele>
        <time>2022-07-26T11:02:18Z</time>
      </trkpt>
      <trkpt lat="45.8952700" lon="5.6895170">
        <ele>481.6</ele>
        <time>2022-07-26T11:02:19Z</time>
      </trkpt>
      <trkpt lat="45.8952430" lon="5.6894950">
        <ele>481.6</ele>
        <time>2022-07-26T11:02:20Z</time>
      </trkpt>
      <trkpt lat="45.8952200" lon="5.6894730">
        <ele>481.6</ele>
        <time>2022-07-26T11:02:21Z</time>
      </trkpt>
      <trkpt lat="45.8951900" lon="5.6894430">
        <ele>481.7</ele>
        <time>2022-07-26T11:02:22Z</time>
      </trkpt>
      <trkpt lat="45.8951650" lon="5.6894170">
        <ele>481.7</ele>
        <time>2022-07-26T11:02:23Z</time>
      </trkpt>
      <trkpt lat="45.8951400" lon="5.6893920">
        <ele>481.7</ele>
        <time>2022-07-26T11:02:24Z</time>
      </trkpt>
      <trkpt lat="45.8951120" lon="5.6893660">
        <ele>481.7</ele>
        <time>2022-07-26T11:02:25Z</time>
      </trkpt>
      <trkpt lat="45.8950850" lon="5.6893430">
        <ele>481.7</ele>
        <time>2022-07-26T11:02:26Z</time>
      </trkpt>
      <trkpt lat="45.8950510" lon="5.6893180">
        <ele>481.8</ele>
        <time>2022-07-26T11:02:27Z</time>
      </trkpt>
      <trkpt lat="45.8950380" lon="5.6893090">
        <ele>481.8</ele>
        <time>2022-07-26T11:02:28Z</time>
      </trkpt>
      <trkpt lat="45.8950040" lon="5.6892820">
        <ele>481.8</ele>
        <time>2022-07-26T11:02:29Z</time>
      </trkpt>
      <trkpt lat="45.8949910" lon="5.6892730">
        <ele>481.9</ele>
        <time>2022-07-26T11:02:30Z</time>
      </trkpt>
      <trkpt lat="45.8949630" lon="5.6892520">
        <ele>481.9</ele>
        <time>2022-07-26T11:02:31Z</time>
      </trkpt>
      <trkpt lat="45.8949510" lon="5.6892440">
        <ele>481.9</ele>
        <time>2022-07-26T11:02:32Z</time>
      </trkpt>
      <trkpt lat="45.8949190" lon="5.6892210">
        <ele>481.9</ele>
        <time>2022-07-26T11:02:33Z</time>
      </trkpt>
      <trkpt lat="45.8949070" lon="5.6892130">
        <ele>481.9</ele>
        <time>2022-07-26T11:02:34Z</time>
      </trkpt>
      <trkpt lat="45.8948770" lon="5.6891910">
        <ele>481.9</ele>
        <time>2022-07-26T11:02:35Z</time>
      </trkpt>
      <trkpt lat="45.8948660" lon="5.6891830">
        <ele>481.9</ele>
        <time>2022-07-26T11:02:36Z</time>
      </trkpt>
      <trkpt lat="45.8948410" lon="5.6891600">
        <ele>481.8</ele>
        <time>2022-07-26T11:02:37Z</time>
      </trkpt>
      <trkpt lat="45.8948170" lon="5.6891290">
        <ele>481.8</ele>
        <time>2022-07-26T11:02:38Z</time>
      </trkpt>
      <trkpt lat="45.8947960" lon="5.6890960">
        <ele>481.7</ele>
        <time>2022-07-26T11:02:39Z</time>
      </trkpt>
      <trkpt lat="45.8947740" lon="5.6890620">
        <ele>481.6</ele>
        <time>2022-07-26T11:02:40Z</time>
      </trkpt>
      <trkpt lat="45.8947470" lon="5.6890260">
        <ele>481.6</ele>
        <time>2022-07-26T11:02:41Z</time>
      </trkpt>
      <trkpt lat="45.8947180" lon="5.6889900">
        <ele>481.5</ele>
        <time>2022-07-26T11:02:42Z</time>
      </trkpt>
      <trkpt lat="45.8946940" lon="5.6889590">
        <ele>481.5</ele>
        <time>2022-07-26T11:02:43Z</time>
      </trkpt>
      <trkpt lat="45.8946620" lon="5.6889110">
        <ele>481.4</ele>
        <time>2022-07-26T11:02:44Z</time>
      </trkpt>
      <trkpt lat="45.8946310" lon="5.6888760">
        <ele>481.4</ele>
        <time>2022-07-26T11:02:45Z</time>
      </trkpt>
      <trkpt lat="45.8945930" lon="5.6888280">
        <ele>481.3</ele>
        <time>2022-07-26T11:02:47Z</time>
      </trkpt>
      <trkpt lat="45.8945640" lon="5.6887990">
        <ele>481.3</ele>
        <time>2022-07-26T11:02:48Z</time>
      </trkpt>
      <trkpt lat="45.8945400" lon="5.6887780">
        <ele>481.3</ele>
        <time>2022-07-26T11:02:49Z</time>
      </trkpt>
      <trkpt lat="45.8945020" lon="5.6887390">
        <ele>481.3</ele>
        <time>2022-07-26T11:02:50Z</time>
      </trkpt>
      <trkpt lat="45.8944600" lon="5.6886950">
        <ele>481.2</ele>
        <time>2022-07-26T11:02:51Z</time>
      </trkpt>
      <trkpt lat="45.8944220" lon="5.6886420">
        <ele>481.1</ele>
        <time>2022-07-26T11:02:53Z</time>
      </trkpt>
      <trkpt lat="45.8943900" lon="5.6885820">
        <ele>481.0</ele>
        <time>2022-07-26T11:02:54Z</time>
      </trkpt>
      <trkpt lat="45.8943680" lon="5.6885330">
        <ele>481.0</ele>
        <time>2022-07-26T11:02:55Z</time>
      </trkpt>
      <trkpt lat="45.8943370" lon="5.6884480">
        <ele>480.9</ele>
        <time>2022-07-26T11:02:56Z</time>
      </trkpt>
      <trkpt lat="45.8943120" lon="5.6884350">
        <ele>480.9</ele>
        <time>2022-07-26T11:02:57Z</time>
      </trkpt>
      <trkpt lat="45.8942700" lon="5.6884000">
        <ele>480.9</ele>
        <time>2022-07-26T11:02:59Z</time>
      </trkpt>
      <trkpt lat="45.8942240" lon="5.6883610">
        <ele>480.8</ele>
        <time>2022-07-26T11:03:00Z</time>
      </trkpt>
      <trkpt lat="45.8941760" lon="5.6883340">
        <ele>480.7</ele>
        <time>2022-07-26T11:03:01Z</time>
      </trkpt>
      <trkpt lat="45.8941290" lon="5.6883180">
        <ele>480.6</ele>
        <time>2022-07-26T11:03:02Z</time>
      </trkpt>
      <trkpt lat="45.8940910" lon="5.6883030">
        <ele>480.5</ele>
        <time>2022-07-26T11:03:03Z</time>
      </trkpt>
      <trkpt lat="45.8940570" lon="5.6882810">
        <ele>480.4</ele>
        <time>2022-07-26T11:03:04Z</time>
      </trkpt>
      <trkpt lat="45.8940170" lon="5.6882560">
        <ele>480.3</ele>
        <time>2022-07-26T11:03:05Z</time>
      </trkpt>
      <trkpt lat="45.8939590" lon="5.6882310">
        <ele>480.2</ele>
        <time>2022-07-26T11:03:06Z</time>
      </trkpt>
      <trkpt lat="45.8939120" lon="5.6882130">
        <ele>480.1</ele>
        <time>2022-07-26T11:03:07Z</time>
      </trkpt>
      <trkpt lat="45.8938660" lon="5.6881940">
        <ele>480.0</ele>
        <time>2022-07-26T11:03:08Z</time>
      </trkpt>
      <trkpt lat="45.8938210" lon="5.6881730">
        <ele>479.9</ele>
        <time>2022-07-26T11:03:09Z</time>
      </trkpt>
      <trkpt lat="45.8937810" lon="5.6881480">
        <ele>479.8</ele>
        <time>2022-07-26T11:03:10Z</time>
      </trkpt>
      <trkpt lat="45.8937390" lon="5.6881210">
        <ele>479.7</ele>
        <time>2022-07-26T11:03:11Z</time>
      </trkpt>
      <trkpt lat="45.8937010" lon="5.6881030">
        <ele>479.6</ele>
        <time>2022-07-26T11:03:12Z</time>
      </trkpt>
      <trkpt lat="45.8936370" lon="5.6880700">
        <ele>479.5</ele>
        <time>2022-07-26T11:03:13Z</time>
      </trkpt>
      <trkpt lat="45.8935840" lon="5.6880420">
        <ele>479.4</ele>
        <time>2022-07-26T11:03:15Z</time>
      </trkpt>
      <trkpt lat="45.8935390" lon="5.6880140">
        <ele>479.4</ele>
        <time>2022-07-26T11:03:16Z</time>
      </trkpt>
      <trkpt lat="45.8934680" lon="5.6879490">
        <ele>479.2</ele>
        <time>2022-07-26T11:03:18Z</time>
      </trkpt>
      <trkpt lat="45.8934250" lon="5.6879150">
        <ele>479.1</ele>
        <time>2022-07-26T11:03:19Z</time>
      </trkpt>
      <trkpt lat="45.8933870" lon="5.6878750">
        <ele>479.0</ele>
        <time>2022-07-26T11:03:20Z</time>
      </trkpt>
      <trkpt lat="45.8933510" lon="5.6878400">
        <ele>478.9</ele>
        <time>2022-07-26T11:03:21Z</time>
      </trkpt>
      <trkpt lat="45.8933080" lon="5.6877980">
        <ele>478.8</ele>
        <time>2022-07-26T11:03:22Z</time>
      </trkpt>
      <trkpt lat="45.8932760" lon="5.6877620">
        <ele>478.8</ele>
        <time>2022-07-26T11:03:23Z</time>
      </trkpt>
      <trkpt lat="45.8932200" lon="5.6876810">
        <ele>478.7</ele>
        <time>2022-07-26T11:03:25Z</time>
      </trkpt>
      <trkpt lat="45.8931920" lon="5.6876210">
        <ele>478.6</ele>
        <time>2022-07-26T11:03:26Z</time>
      </trkpt>
      <trkpt lat="45.8931750" lon="5.6875710">
        <ele>478.6</ele>
        <time>2022-07-26T11:03:27Z</time>
      </trkpt>
      <trkpt lat="45.8931580" lon="5.6875160">
        <ele>478.6</ele>
        <time>2022-07-26T11:03:28Z</time>
      </trkpt>
      <trkpt lat="45.8931390" lon="5.6874400">
        <ele>478.5</ele>
        <time>2022-07-26T11:03:29Z</time>
      </trkpt>
      <trkpt lat="45.8931200" lon="5.6873600">
        <ele>478.5</ele>
        <time>2022-07-26T11:03:31Z</time>
      </trkpt>
      <trkpt lat="45.8931060" lon="5.6872850">
        <ele>478.6</ele>
        <time>2022-07-26T11:03:32Z</time>
      </trkpt>
      <trkpt lat="45.8930950" lon="5.6872240">
        <ele>478.6</ele>
        <time>2022-07-26T11:03:33Z</time>
      </trkpt>
      <trkpt lat="45.8930870" lon="5.6871720">
        <ele>478.7</ele>
        <time>2022-07-26T11:03:34Z</time>
      </trkpt>
      <trkpt lat="45.8930790" lon="5.6871180">
        <ele>478.7</ele>
        <time>2022-07-26T11:03:35Z</time>
      </trkpt>
      <trkpt lat="45.8930720" lon="5.6870590">
        <ele>478.8</ele>
        <time>2022-07-26T11:03:36Z</time>
      </trkpt>
      <trkpt lat="45.8930620" lon="5.6870030">
        <ele>478.9</ele>
        <time>2022-07-26T11:03:37Z</time>
      </trkpt>
      <trkpt lat="45.8930550" lon="5.6869460">
        <ele>479.0</ele>
        <time>2022-07-26T11:03:38Z</time>
      </trkpt>
      <trkpt lat="45.8930470" lon="5.6868980">
        <ele>479.0</ele>
        <time>2022-07-26T11:03:39Z</time>
      </trkpt>
      <trkpt lat="45.8930370" lon="5.6868190">
        <ele>479.1</ele>
        <time>2022-07-26T11:03:41Z</time>
      </trkpt>
      <trkpt lat="45.8930330" lon="5.6867740">
        <ele>479.1</ele>
        <time>2022-07-26T11:03:42Z</time>
      </trkpt>
      <trkpt lat="45.8930300" lon="5.6867290">
        <ele>479.2</ele>
        <time>2022-07-26T11:03:43Z</time>
      </trkpt>
      <trkpt lat="45.8930260" lon="5.6866640">
        <ele>479.2</ele>
        <time>2022-07-26T11:03:44Z</time>
      </trkpt>
      <trkpt lat="45.8930240" lon="5.6866250">
        <ele>479.2</ele>
        <time>2022-07-26T11:03:45Z</time>
      </trkpt>
      <trkpt lat="45.8930170" lon="5.6865710">
        <ele>479.3</ele>
        <time>2022-07-26T11:03:47Z</time>
      </trkpt>
      <trkpt lat="45.8930110" lon="5.6865030">
        <ele>479.3</ele>
        <time>2022-07-26T11:03:48Z</time>
      </trkpt>
      <trkpt lat="45.8930100" lon="5.6864520">
        <ele>479.3</ele>
        <time>2022-07-26T11:03:49Z</time>
      </trkpt>
      <trkpt lat="45.8930130" lon="5.6863960">
        <ele>479.4</ele>
        <time>2022-07-26T11:03:51Z</time>
      </trkpt>
      <trkpt lat="45.8930110" lon="5.6863360">
        <ele>479.4</ele>
        <time>2022-07-26T11:03:52Z</time>
      </trkpt>
      <trkpt lat="45.8930110" lon="5.6862840">
        <ele>479.4</ele>
        <time>2022-07-26T11:03:53Z</time>
      </trkpt>
      <trkpt lat="45.8930080" lon="5.6862080">
        <ele>479.5</ele>
        <time>2022-07-26T11:03:55Z</time>
      </trkpt>
      <trkpt lat="45.8930010" lon="5.6861470">
        <ele>479.5</ele>
        <time>2022-07-26T11:03:56Z</time>
      </trkpt>
      <trkpt lat="45.8929950" lon="5.6861000">
        <ele>479.5</ele>
        <time>2022-07-26T11:03:57Z</time>
      </trkpt>
      <trkpt lat="45.8929890" lon="5.6860570">
        <ele>479.5</ele>
        <time>2022-07-26T11:03:58Z</time>
      </trkpt>
      <trkpt lat="45.8929800" lon="5.6860140">
        <ele>479.5</ele>
        <time>2022-07-26T11:03:59Z</time>
      </trkpt>
      <trkpt lat="45.8929670" lon="5.6859660">
        <ele>479.5</ele>
        <time>2022-07-26T11:04:00Z</time>
      </trkpt>
      <trkpt lat="45.8929570" lon="5.6859180">
        <ele>479.5</ele>
        <time>2022-07-26T11:04:01Z</time>
      </trkpt>
      <trkpt lat="45.8929410" lon="5.6858700">
        <ele>479.4</ele>
        <time>2022-07-26T11:04:02Z</time>
      </trkpt>
      <trkpt lat="45.8929230" lon="5.6858100">
        <ele>479.3</ele>
        <time>2022-07-26T11:04:03Z</time>
      </trkpt>
      <trkpt lat="45.8928990" lon="5.6857510">
        <ele>479.0</ele>
        <time>2022-07-26T11:04:05Z</time>
      </trkpt>
      <trkpt lat="45.8928910" lon="5.6857340">
        <ele>478.7</ele>
        <time>2022-07-26T11:04:06Z</time>
      </trkpt>
      <trkpt lat="45.8928880" lon="5.6857350">
        <ele>478.6</ele>
        <time>2022-07-26T11:04:07Z</time>
      </trkpt>
      <trkpt lat="45.8928880" lon="5.6857590">
        <ele>478.3</ele>
        <time>2022-07-26T11:04:09Z</time>
      </trkpt>
      <trkpt lat="45.8928760" lon="5.6857590">
        <ele>478.0</ele>
        <time>2022-07-26T11:04:11Z</time>
      </trkpt>
      <trkpt lat="45.8928680" lon="5.6857600">
        <ele>477.9</ele>
        <time>2022-07-26T11:04:12Z</time>
      </trkpt>
      <trkpt lat="45.8928550" lon="5.6857610">
        <ele>477.6</ele>
        <time>2022-07-26T11:04:13Z</time>
      </trkpt>
      <trkpt lat="45.8928460" lon="5.6857590">
        <ele>477.4</ele>
        <time>2022-07-26T11:04:14Z</time>
      </trkpt>
      <trkpt lat="45.8928360" lon="5.6857570">
        <ele>477.2</ele>
        <time>2022-07-26T11:04:15Z</time>
      </trkpt>
      <trkpt lat="45.8928150" lon="5.6857480">
        <ele>476.7</ele>
        <time>2022-07-26T11:04:17Z</time>
      </trkpt>
      <trkpt lat="45.8928070" lon="5.6857430">
        <ele>476.6</ele>
        <time>2022-07-26T11:04:18Z</time>
      </trkpt>
      <trkpt lat="45.8927980" lon="5.6857390">
        <ele>476.3</ele>
        <time>2022-07-26T11:04:19Z</time>
      </trkpt>
      <trkpt lat="45.8927890" lon="5.6857320">
        <ele>476.1</ele>
        <time>2022-07-26T11:04:20Z</time>
      </trkpt>
      <trkpt lat="45.8927830" lon="5.6857270">
        <ele>475.9</ele>
        <time>2022-07-26T11:04:21Z</time>
      </trkpt>
      <trkpt lat="45.8927760" lon="5.6857220">
        <ele>475.8</ele>
        <time>2022-07-26T11:04:23Z</time>
      </trkpt>
      <trkpt lat="45.8927700" lon="5.6857170">
        <ele>475.6</ele>
        <time>2022-07-26T11:04:24Z</time>
      </trkpt>
      <trkpt lat="45.8927640" lon="5.6857120">
        <ele>475.5</ele>
        <time>2022-07-26T11:04:25Z</time>
      </trkpt>
      <trkpt lat="45.8927520" lon="5.6857040">
        <ele>475.2</ele>
        <time>2022-07-26T11:04:26Z</time>
      </trkpt>
      <trkpt lat="45.8927370" lon="5.6856900">
        <ele>474.7</ele>
        <time>2022-07-26T11:04:28Z</time>
      </trkpt>
      <trkpt lat="45.8927260" lon="5.6856800">
        <ele>474.4</ele>
        <time>2022-07-26T11:04:29Z</time>
      </trkpt>
      <trkpt lat="45.8927200" lon="5.6856740">
        <ele>474.3</ele>
        <time>2022-07-26T11:04:30Z</time>
      </trkpt>
      <trkpt lat="45.8927080" lon="5.6856650">
        <ele>474.0</ele>
        <time>2022-07-26T11:04:31Z</time>
      </trkpt>
      <trkpt lat="45.8926970" lon="5.6856610">
        <ele>473.7</ele>
        <time>2022-07-26T11:04:32Z</time>
      </trkpt>
      <trkpt lat="45.8926860" lon="5.6856580">
        <ele>473.5</ele>
        <time>2022-07-26T11:04:33Z</time>
      </trkpt>
      <trkpt lat="45.8926760" lon="5.6856580">
        <ele>473.2</ele>
        <time>2022-07-26T11:04:35Z</time>
      </trkpt>
      <trkpt lat="45.8926680" lon="5.6856590">
        <ele>473.1</ele>
        <time>2022-07-26T11:04:36Z</time>
      </trkpt>
      <trkpt lat="45.8926570" lon="5.6856600">
        <ele>472.8</ele>
        <time>2022-07-26T11:04:37Z</time>
      </trkpt>
      <trkpt lat="45.8926440" lon="5.6856620">
        <ele>472.5</ele>
        <time>2022-07-26T11:04:38Z</time>
      </trkpt>
      <trkpt lat="45.8926350" lon="5.6856660">
        <ele>472.3</ele>
        <time>2022-07-26T11:04:39Z</time>
      </trkpt>
      <trkpt lat="45.8926280" lon="5.6856710">
        <ele>472.1</ele>
        <time>2022-07-26T11:04:40Z</time>
      </trkpt>
      <trkpt lat="45.8926180" lon="5.6856740">
        <ele>471.9</ele>
        <time>2022-07-26T11:04:41Z</time>
      </trkpt>
      <trkpt lat="45.8926070" lon="5.6856760">
        <ele>471.7</ele>
        <time>2022-07-26T11:04:43Z</time>
      </trkpt>
      <trkpt lat="45.8926020" lon="5.6856730">
        <ele>471.5</ele>
        <time>2022-07-26T11:04:44Z</time>
      </trkpt>
      <trkpt lat="45.8925940" lon="5.6856660">
        <ele>471.3</ele>
        <time>2022-07-26T11:04:45Z</time>
      </trkpt>
      <trkpt lat="45.8925790" lon="5.6856580">
        <ele>471.0</ele>
        <time>2022-07-26T11:04:47Z</time>
      </trkpt>
      <trkpt lat="45.8925730" lon="5.6856530">
        <ele>470.8</ele>
        <time>2022-07-26T11:04:48Z</time>
      </trkpt>
      <trkpt lat="45.8925680" lon="5.6856510">
        <ele>470.7</ele>
        <time>2022-07-26T11:04:49Z</time>
      </trkpt>
      <trkpt lat="45.8925640" lon="5.6856480">
        <ele>470.6</ele>
        <time>2022-07-26T11:04:50Z</time>
      </trkpt>
      <trkpt lat="45.8925560" lon="5.6856410">
        <ele>470.4</ele>
        <time>2022-07-26T11:04:51Z</time>
      </trkpt>
      <trkpt lat="45.8925490" lon="5.6856340">
        <ele>470.3</ele>
        <time>2022-07-26T11:04:52Z</time>
      </trkpt>
      <trkpt lat="45.8925430" lon="5.6856190">
        <ele>470.0</ele>
        <time>2022-07-26T11:04:54Z</time>
      </trkpt>
      <trkpt lat="45.8925320" lon="5.6856020">
        <ele>469.6</ele>
        <time>2022-07-26T11:04:55Z</time>
      </trkpt>
      <trkpt lat="45.8925260" lon="5.6855940">
        <ele>469.5</ele>
        <time>2022-07-26T11:04:56Z</time>
      </trkpt>
      <trkpt lat="45.8925210" lon="5.6855880">
        <ele>469.3</ele>
        <time>2022-07-26T11:04:57Z</time>
      </trkpt>
      <trkpt lat="45.8925120" lon="5.6855750">
        <ele>469.1</ele>
        <time>2022-07-26T11:04:58Z</time>
      </trkpt>
      <trkpt lat="45.8925060" lon="5.6855710">
        <ele>468.9</ele>
        <time>2022-07-26T11:04:59Z</time>
      </trkpt>
      <trkpt lat="45.8924990" lon="5.6855660">
        <ele>468.8</ele>
        <time>2022-07-26T11:05:00Z</time>
      </trkpt>
      <trkpt lat="45.8924910" lon="5.6855620">
        <ele>468.2</ele>
        <time>2022-07-26T11:05:01Z</time>
      </trkpt>
      <trkpt lat="45.8924840" lon="5.6855600">
        <ele>468.1</ele>
        <time>2022-07-26T11:05:02Z</time>
      </trkpt>
      <trkpt lat="45.8924790" lon="5.6855550">
        <ele>468.0</ele>
        <time>2022-07-26T11:05:03Z</time>
      </trkpt>
      <trkpt lat="45.8924780" lon="5.6855550">
        <ele>468.0</ele>
        <time>2022-07-26T11:05:04Z</time>
      </trkpt>
      <trkpt lat="45.8924820" lon="5.6855550">
        <ele>468.0</ele>
        <time>2022-07-26T11:05:05Z</time>
      </trkpt>
      <trkpt lat="45.8924870" lon="5.6855550">
        <ele>467.9</ele>
        <time>2022-07-26T11:05:06Z</time>
      </trkpt>
      <trkpt lat="45.8924890" lon="5.6855560">
        <ele>467.8</ele>
        <time>2022-07-26T11:05:07Z</time>
      </trkpt>
      <trkpt lat="45.8924900" lon="5.6855550">
        <ele>467.8</ele>
        <time>2022-07-26T11:05:08Z</time>
      </trkpt>
      <trkpt lat="45.8924890" lon="5.6855440">
        <ele>467.7</ele>
        <time>2022-07-26T11:05:09Z</time>
      </trkpt>
      <trkpt lat="45.8924880" lon="5.6855310">
        <ele>467.6</ele>
        <time>2022-07-26T11:05:10Z</time>
      </trkpt>
      <trkpt lat="45.8924860" lon="5.6855190">
        <ele>467.5</ele>
        <time>2022-07-26T11:05:11Z</time>
      </trkpt>
      <trkpt lat="45.8924840" lon="5.6855060">
        <ele>467.4</ele>
        <time>2022-07-26T11:05:12Z</time>
      </trkpt>
      <trkpt lat="45.8924830" lon="5.6854980">
        <ele>467.3</ele>
        <time>2022-07-26T11:05:13Z</time>
      </trkpt>
      <trkpt lat="45.8924800" lon="5.6854880">
        <ele>467.2</ele>
        <time>2022-07-26T11:05:14Z</time>
      </trkpt>
      <trkpt lat="45.8924780" lon="5.6854780">
        <ele>467.1</ele>
        <time>2022-07-26T11:05:15Z</time>
      </trkpt>
      <trkpt lat="45.8924760" lon="5.6854660">
        <ele>467.0</ele>
        <time>2022-07-26T11:05:16Z</time>
      </trkpt>
      <trkpt lat="45.8924760" lon="5.6854530">
        <ele>466.9</ele>
        <time>2022-07-26T11:05:17Z</time>
      </trkpt>
      <trkpt lat="45.8924750" lon="5.6854420">
        <ele>466.8</ele>
        <time>2022-07-26T11:05:18Z</time>
      </trkpt>
      <trkpt lat="45.8924750" lon="5.6854330">
        <ele>466.7</ele>
        <time>2022-07-26T11:05:19Z</time>
      </trkpt>
      <trkpt lat="45.8924720" lon="5.6854240">
        <ele>466.7</ele>
        <time>2022-07-26T11:05:20Z</time>
      </trkpt>
      <trkpt lat="45.8924680" lon="5.6854110">
        <ele>466.6</ele>
        <time>2022-07-26T11:05:21Z</time>
      </trkpt>
      <trkpt lat="45.8924630" lon="5.6853990">
        <ele>466.5</ele>
        <time>2022-07-26T11:05:22Z</time>
      </trkpt>
      <trkpt lat="45.8924660" lon="5.6854010">
        <ele>466.5</ele>
        <time>2022-07-26T11:05:23Z</time>
      </trkpt>
      <trkpt lat="45.8924660" lon="5.6853950">
        <ele>466.4</ele>
        <time>2022-07-26T11:05:24Z</time>
      </trkpt>
      <trkpt lat="45.8924560" lon="5.6853720">
        <ele>466.3</ele>
        <time>2022-07-26T11:05:25Z</time>
      </trkpt>
      <trkpt lat="45.8924450" lon="5.6853480">
        <ele>466.1</ele>
        <time>2022-07-26T11:05:27Z</time>
      </trkpt>
      <trkpt lat="45.8924370" lon="5.6853330">
        <ele>466.1</ele>
        <time>2022-07-26T11:05:28Z</time>
      </trkpt>
      <trkpt lat="45.8924320" lon="5.6853190">
        <ele>466.0</ele>
        <time>2022-07-26T11:05:29Z</time>
      </trkpt>
      <trkpt lat="45.8924240" lon="5.6852940">
        <ele>466.0</ele>
        <time>2022-07-26T11:05:31Z</time>
      </trkpt>
      <trkpt lat="45.8924220" lon="5.6852850">
        <ele>465.9</ele>
        <time>2022-07-26T11:05:32Z</time>
      </trkpt>
      <trkpt lat="45.8924210" lon="5.6852780">
        <ele>465.9</ele>
        <time>2022-07-26T11:05:33Z</time>
      </trkpt>
      <trkpt lat="45.8924180" lon="5.6852710">
        <ele>465.9</ele>
        <time>2022-07-26T11:05:34Z</time>
      </trkpt>
      <trkpt lat="45.8924160" lon="5.6852670">
        <ele>465.9</ele>
        <time>2022-07-26T11:05:35Z</time>
      </trkpt>
      <trkpt lat="45.8924150" lon="5.6852690">
        <ele>465.9</ele>
        <time>2022-07-26T11:05:36Z</time>
      </trkpt>
      <trkpt lat="45.8924130" lon="5.6852700">
        <ele>465.9</ele>
        <time>2022-07-26T11:05:37Z</time>
      </trkpt>
      <trkpt lat="45.8924120" lon="5.6852700">
        <ele>465.9</ele>
        <time>2022-07-26T11:05:38Z</time>
      </trkpt>
      <trkpt lat="45.8924100" lon="5.6852690">
        <ele>465.9</ele>
        <time>2022-07-26T11:05:39Z</time>
      </trkpt>
      <trkpt lat="45.8924090" lon="5.6852690">
        <ele>465.9</ele>
        <time>2022-07-26T11:05:40Z</time>
      </trkpt>
      <trkpt lat="45.8924080" lon="5.6852680">
        <ele>465.9</ele>
        <time>2022-07-26T11:05:41Z</time>
      </trkpt>
      <trkpt lat="45.8924070" lon="5.6852660">
        <ele>465.9</ele>
        <time>2022-07-26T11:05:42Z</time>
      </trkpt>
      <trkpt lat="45.8924060" lon="5.6852650">
        <ele>465.9</ele>
        <time>2022-07-26T11:05:43Z</time>
      </trkpt>
      <trkpt lat="45.8924010" lon="5.6852590">
        <ele>465.9</ele>
        <time>2022-07-26T11:05:44Z</time>
      </trkpt>
      <trkpt lat="45.8923970" lon="5.6852550">
        <ele>465.9</ele>
        <time>2022-07-26T11:06:35Z</time>
      </trkpt>
      <trkpt lat="45.8923930" lon="5.6852510">
        <ele>465.9</ele>
        <time>2022-07-26T11:06:36Z</time>
      </trkpt>
      <trkpt lat="45.8923890" lon="5.6852470">
        <ele>465.9</ele>
        <time>2022-07-26T11:06:37Z</time>
      </trkpt>
      <trkpt lat="45.8923850" lon="5.6852430">
        <ele>465.9</ele>
        <time>2022-07-26T11:06:38Z</time>
      </trkpt>
      <trkpt lat="45.8923810" lon="5.6852390">
        <ele>465.9</ele>
        <time>2022-07-26T11:06:39Z</time>
      </trkpt>
      <trkpt lat="45.8923770" lon="5.6852350">
        <ele>466.0</ele>
        <time>2022-07-26T11:06:40Z</time>
      </trkpt>
      <trkpt lat="45.8923730" lon="5.6852310">
        <ele>466.0</ele>
        <time>2022-07-26T11:06:41Z</time>
      </trkpt>
      <trkpt lat="45.8923690" lon="5.6852270">
        <ele>466.0</ele>
        <time>2022-07-26T11:06:42Z</time>
      </trkpt>
      <trkpt lat="45.8923660" lon="5.6852230">
        <ele>466.0</ele>
        <time>2022-07-26T11:06:43Z</time>
      </trkpt>
      <trkpt lat="45.8923620" lon="5.6852190">
        <ele>466.0</ele>
        <time>2022-07-26T11:06:44Z</time>
      </trkpt>
      <trkpt lat="45.8923580" lon="5.6852150">
        <ele>466.0</ele>
        <time>2022-07-26T11:06:45Z</time>
      </trkpt>
      <trkpt lat="45.8923540" lon="5.6852100">
        <ele>466.1</ele>
        <time>2022-07-26T11:06:46Z</time>
      </trkpt>
      <trkpt lat="45.8923500" lon="5.6852060">
        <ele>466.1</ele>
        <time>2022-07-26T11:08:00Z</time>
      </trkpt>
      <trkpt lat="45.8923460" lon="5.6852020">
        <ele>466.1</ele>
        <time>2022-07-26T11:08:02Z</time>
      </trkpt>
      <trkpt lat="45.8923420" lon="5.6851980">
        <ele>466.1</ele>
        <time>2022-07-26T11:08:03Z</time>
      </trkpt>
      <trkpt lat="45.8923260" lon="5.6851620">
        <ele>466.3</ele>
        <time>2022-07-26T11:08:04Z</time>
      </trkpt>
      <trkpt lat="45.8923020" lon="5.6850990">
        <ele>466.5</ele>
        <time>2022-07-26T11:08:06Z</time>
      </trkpt>
      <trkpt lat="45.8922930" lon="5.6850790">
        <ele>466.6</ele>
        <time>2022-07-26T11:08:07Z</time>
      </trkpt>
      <trkpt lat="45.8922850" lon="5.6850580">
        <ele>466.7</ele>
        <time>2022-07-26T11:08:08Z</time>
      </trkpt>
      <trkpt lat="45.8922730" lon="5.6850110">
        <ele>466.9</ele>
        <time>2022-07-26T11:08:09Z</time>
      </trkpt>
      <trkpt lat="45.8922680" lon="5.6849600">
        <ele>467.0</ele>
        <time>2022-07-26T11:08:10Z</time>
      </trkpt>
      <trkpt lat="45.8922590" lon="5.6849020">
        <ele>467.2</ele>
        <time>2022-07-26T11:08:12Z</time>
      </trkpt>
      <trkpt lat="45.8922560" lon="5.6848810">
        <ele>467.2</ele>
        <time>2022-07-26T11:08:13Z</time>
      </trkpt>
      <trkpt lat="45.8922540" lon="5.6848400">
        <ele>467.3</ele>
        <time>2022-07-26T11:08:14Z</time>
      </trkpt>
      <trkpt lat="45.8922510" lon="5.6847910">
        <ele>467.4</ele>
        <time>2022-07-26T11:08:15Z</time>
      </trkpt>
      <trkpt lat="45.8922500" lon="5.6847730">
        <ele>467.4</ele>
        <time>2022-07-26T11:08:16Z</time>
      </trkpt>
      <trkpt lat="45.8922480" lon="5.6847230">
        <ele>467.4</ele>
        <time>2022-07-26T11:08:18Z</time>
      </trkpt>
      <trkpt lat="45.8922470" lon="5.6847030">
        <ele>467.4</ele>
        <time>2022-07-26T11:08:19Z</time>
      </trkpt>
      <trkpt lat="45.8922490" lon="5.6846740">
        <ele>467.4</ele>
        <time>2022-07-26T11:08:20Z</time>
      </trkpt>
      <trkpt lat="45.8922530" lon="5.6846280">
        <ele>467.4</ele>
        <time>2022-07-26T11:08:22Z</time>
      </trkpt>
      <trkpt lat="45.8922560" lon="5.6846040">
        <ele>467.4</ele>
        <time>2022-07-26T11:08:23Z</time>
      </trkpt>
      <trkpt lat="45.8922580" lon="5.6845820">
        <ele>467.3</ele>
        <time>2022-07-26T11:08:24Z</time>
      </trkpt>
      <trkpt lat="45.8922600" lon="5.6845600">
        <ele>467.3</ele>
        <time>2022-07-26T11:08:25Z</time>
      </trkpt>
      <trkpt lat="45.8922630" lon="5.6845390">
        <ele>467.2</ele>
        <time>2022-07-26T11:08:26Z</time>
      </trkpt>
      <trkpt lat="45.8922660" lon="5.6845170">
        <ele>467.1</ele>
        <time>2022-07-26T11:08:27Z</time>
      </trkpt>
      <trkpt lat="45.8922660" lon="5.6844950">
        <ele>467.0</ele>
        <time>2022-07-26T11:08:28Z</time>
      </trkpt>
      <trkpt lat="45.8922710" lon="5.6844560">
        <ele>466.9</ele>
        <time>2022-07-26T11:08:29Z</time>
      </trkpt>
      <trkpt lat="45.8922710" lon="5.6844160">
        <ele>466.7</ele>
        <time>2022-07-26T11:08:30Z</time>
      </trkpt>
      <trkpt lat="45.8922600" lon="5.6843580">
        <ele>466.5</ele>
        <time>2022-07-26T11:08:32Z</time>
      </trkpt>
      <trkpt lat="45.8922390" lon="5.6842900">
        <ele>466.2</ele>
        <time>2022-07-26T11:08:33Z</time>
      </trkpt>
      <trkpt lat="45.8922210" lon="5.6842290">
        <ele>465.8</ele>
        <time>2022-07-26T11:08:35Z</time>
      </trkpt>
      <trkpt lat="45.8922080" lon="5.6841760">
        <ele>465.5</ele>
        <time>2022-07-26T11:08:36Z</time>
      </trkpt>
      <trkpt lat="45.8921920" lon="5.6841270">
        <ele>465.1</ele>
        <time>2022-07-26T11:08:37Z</time>
      </trkpt>
      <trkpt lat="45.8921870" lon="5.6841130">
        <ele>465.0</ele>
        <time>2022-07-26T11:08:38Z</time>
      </trkpt>
      <trkpt lat="45.8921530" lon="5.6840880">
        <ele>464.6</ele>
        <time>2022-07-26T11:08:39Z</time>
      </trkpt>
      <trkpt lat="45.8921380" lon="5.6840830">
        <ele>464.5</ele>
        <time>2022-07-26T11:08:40Z</time>
      </trkpt>
      <trkpt lat="45.8921050" lon="5.6840940">
        <ele>463.7</ele>
        <time>2022-07-26T11:08:42Z</time>
      </trkpt>
      <trkpt lat="45.8920970" lon="5.6840980">
        <ele>463.5</ele>
        <time>2022-07-26T11:08:43Z</time>
      </trkpt>
      <trkpt lat="45.8920650" lon="5.6841240">
        <ele>462.6</ele>
        <time>2022-07-26T11:08:44Z</time>
      </trkpt>
      <trkpt lat="45.8920550" lon="5.6841310">
        <ele>462.4</ele>
        <time>2022-07-26T11:08:45Z</time>
      </trkpt>
      <trkpt lat="45.8920290" lon="5.6841500">
        <ele>461.7</ele>
        <time>2022-07-26T11:08:46Z</time>
      </trkpt>
      <trkpt lat="45.8920030" lon="5.6841700">
        <ele>461.0</ele>
        <time>2022-07-26T11:08:47Z</time>
      </trkpt>
      <trkpt lat="45.8919710" lon="5.6842020">
        <ele>460.0</ele>
        <time>2022-07-26T11:08:48Z</time>
      </trkpt>
      <trkpt lat="45.8919570" lon="5.6842120">
        <ele>459.7</ele>
        <time>2022-07-26T11:08:49Z</time>
      </trkpt>
      <trkpt lat="45.8919270" lon="5.6842360">
        <ele>458.8</ele>
        <time>2022-07-26T11:08:50Z</time>
      </trkpt>
      <trkpt lat="45.8918930" lon="5.6842680">
        <ele>457.8</ele>
        <time>2022-07-26T11:08:52Z</time>
      </trkpt>
      <trkpt lat="45.8918720" lon="5.6842970">
        <ele>457.1</ele>
        <time>2022-07-26T11:08:53Z</time>
      </trkpt>
      <trkpt lat="45.8918550" lon="5.6843300">
        <ele>456.4</ele>
        <time>2022-07-26T11:08:54Z</time>
      </trkpt>
      <trkpt lat="45.8918340" lon="5.6843690">
        <ele>455.6</ele>
        <time>2022-07-26T11:08:55Z</time>
      </trkpt>
      <trkpt lat="45.8918280" lon="5.6843820">
        <ele>455.4</ele>
        <time>2022-07-26T11:08:56Z</time>
      </trkpt>
      <trkpt lat="45.8918130" lon="5.6844140">
        <ele>454.8</ele>
        <time>2022-07-26T11:08:57Z</time>
      </trkpt>
      <trkpt lat="45.8918070" lon="5.6844280">
        <ele>454.5</ele>
        <time>2022-07-26T11:08:58Z</time>
      </trkpt>
      <trkpt lat="45.8917870" lon="5.6844780">
        <ele>453.7</ele>
        <time>2022-07-26T11:08:59Z</time>
      </trkpt>
      <trkpt lat="45.8917820" lon="5.6844970">
        <ele>453.5</ele>
        <time>2022-07-26T11:09:00Z</time>
      </trkpt>
      <trkpt lat="45.8917720" lon="5.6845560">
        <ele>452.7</ele>
        <time>2022-07-26T11:09:01Z</time>
      </trkpt>
      <trkpt lat="45.8917700" lon="5.6846220">
        <ele>452.4</ele>
        <time>2022-07-26T11:09:02Z</time>
      </trkpt>
      <trkpt lat="45.8917770" lon="5.6846720">
        <ele>452.0</ele>
        <time>2022-07-26T11:09:03Z</time>
      </trkpt>
      <trkpt lat="45.8917880" lon="5.6847310">
        <ele>451.6</ele>
        <time>2022-07-26T11:09:04Z</time>
      </trkpt>
      <trkpt lat="45.8918050" lon="5.6847860">
        <ele>451.1</ele>
        <time>2022-07-26T11:09:05Z</time>
      </trkpt>
      <trkpt lat="45.8918190" lon="5.6848330">
        <ele>450.8</ele>
        <time>2022-07-26T11:09:06Z</time>
      </trkpt>
      <trkpt lat="45.8918380" lon="5.6848840">
        <ele>450.3</ele>
        <time>2022-07-26T11:09:07Z</time>
      </trkpt>
      <trkpt lat="45.8918580" lon="5.6849450">
        <ele>449.7</ele>
        <time>2022-07-26T11:09:08Z</time>
      </trkpt>
      <trkpt lat="45.8918760" lon="5.6850030">
        <ele>449.0</ele>
        <time>2022-07-26T11:09:09Z</time>
      </trkpt>
      <trkpt lat="45.8918940" lon="5.6850760">
        <ele>448.2</ele>
        <time>2022-07-26T11:09:10Z</time>
      </trkpt>
      <trkpt lat="45.8918930" lon="5.6851520">
        <ele>447.4</ele>
        <time>2022-07-26T11:09:11Z</time>
      </trkpt>
      <trkpt lat="45.8918810" lon="5.6852310">
        <ele>446.5</ele>
        <time>2022-07-26T11:09:12Z</time>
      </trkpt>
      <trkpt lat="45.8918510" lon="5.6853080">
        <ele>445.6</ele>
        <time>2022-07-26T11:09:13Z</time>
      </trkpt>
      <trkpt lat="45.8918130" lon="5.6853840">
        <ele>444.6</ele>
        <time>2022-07-26T11:09:14Z</time>
      </trkpt>
      <trkpt lat="45.8917760" lon="5.6854640">
        <ele>443.8</ele>
        <time>2022-07-26T11:09:15Z</time>
      </trkpt>
      <trkpt lat="45.8917540" lon="5.6855390">
        <ele>443.1</ele>
        <time>2022-07-26T11:09:16Z</time>
      </trkpt>
      <trkpt lat="45.8917390" lon="5.6856150">
        <ele>442.5</ele>
        <time>2022-07-26T11:09:17Z</time>
      </trkpt>
      <trkpt lat="45.8917280" lon="5.6856980">
        <ele>441.8</ele>
        <time>2022-07-26T11:09:18Z</time>
      </trkpt>
      <trkpt lat="45.8917290" lon="5.6857800">
        <ele>441.3</ele>
        <time>2022-07-26T11:09:19Z</time>
      </trkpt>
      <trkpt lat="45.8917440" lon="5.6858780">
        <ele>440.6</ele>
        <time>2022-07-26T11:09:20Z</time>
      </trkpt>
      <trkpt lat="45.8917540" lon="5.6859910">
        <ele>439.8</ele>
        <time>2022-07-26T11:09:21Z</time>
      </trkpt>
      <trkpt lat="45.8917590" lon="5.6860990">
        <ele>439.1</ele>
        <time>2022-07-26T11:09:22Z</time>
      </trkpt>
      <trkpt lat="45.8917690" lon="5.6862050">
        <ele>438.4</ele>
        <time>2022-07-26T11:09:23Z</time>
      </trkpt>
      <trkpt lat="45.8917960" lon="5.6862970">
        <ele>437.8</ele>
        <time>2022-07-26T11:09:24Z</time>
      </trkpt>
      <trkpt lat="45.8918120" lon="5.6863940">
        <ele>437.2</ele>
        <time>2022-07-26T11:09:25Z</time>
      </trkpt>
      <trkpt lat="45.8918130" lon="5.6864900">
        <ele>436.7</ele>
        <time>2022-07-26T11:09:26Z</time>
      </trkpt>
      <trkpt lat="45.8918110" lon="5.6865770">
        <ele>436.2</ele>
        <time>2022-07-26T11:09:27Z</time>
      </trkpt>
      <trkpt lat="45.8918140" lon="5.6866710">
        <ele>435.8</ele>
        <time>2022-07-26T11:09:28Z</time>
      </trkpt>
      <trkpt lat="45.8918320" lon="5.6867660">
        <ele>435.4</ele>
        <time>2022-07-26T11:09:29Z</time>
      </trkpt>
      <trkpt lat="45.8918610" lon="5.6868610">
        <ele>435.1</ele>
        <time>2022-07-26T11:09:30Z</time>
      </trkpt>
      <trkpt lat="45.8918900" lon="5.6869630">
        <ele>434.7</ele>
        <time>2022-07-26T11:09:31Z</time>
      </trkpt>
      <trkpt lat="45.8919200" lon="5.6870560">
        <ele>434.5</ele>
        <time>2022-07-26T11:09:32Z</time>
      </trkpt>
      <trkpt lat="45.8919410" lon="5.6871370">
        <ele>434.3</ele>
        <time>2022-07-26T11:09:33Z</time>
      </trkpt>
      <trkpt lat="45.8919640" lon="5.6872240">
        <ele>434.2</ele>
        <time>2022-07-26T11:09:34Z</time>
      </trkpt>
      <trkpt lat="45.8919910" lon="5.6873090">
        <ele>434.1</ele>
        <time>2022-07-26T11:09:35Z</time>
      </trkpt>
      <trkpt lat="45.8920120" lon="5.6873960">
        <ele>434.0</ele>
        <time>2022-07-26T11:09:36Z</time>
      </trkpt>
      <trkpt lat="45.8920260" lon="5.6874830">
        <ele>433.9</ele>
        <time>2022-07-26T11:09:37Z</time>
      </trkpt>
      <trkpt lat="45.8920320" lon="5.6875730">
        <ele>433.7</ele>
        <time>2022-07-26T11:09:38Z</time>
      </trkpt>
      <trkpt lat="45.8920430" lon="5.6876710">
        <ele>433.5</ele>
        <time>2022-07-26T11:09:39Z</time>
      </trkpt>
      <trkpt lat="45.8920600" lon="5.6877640">
        <ele>433.3</ele>
        <time>2022-07-26T11:09:40Z</time>
      </trkpt>
      <trkpt lat="45.8920820" lon="5.6878490">
        <ele>432.9</ele>
        <time>2022-07-26T11:09:41Z</time>
      </trkpt>
      <trkpt lat="45.8921130" lon="5.6879400">
        <ele>432.5</ele>
        <time>2022-07-26T11:09:42Z</time>
      </trkpt>
      <trkpt lat="45.8921550" lon="5.6880300">
        <ele>432.0</ele>
        <time>2022-07-26T11:09:43Z</time>
      </trkpt>
      <trkpt lat="45.8921940" lon="5.6881170">
        <ele>431.5</ele>
        <time>2022-07-26T11:09:44Z</time>
      </trkpt>
      <trkpt lat="45.8922230" lon="5.6882020">
        <ele>431.0</ele>
        <time>2022-07-26T11:09:45Z</time>
      </trkpt>
      <trkpt lat="45.8922530" lon="5.6882950">
        <ele>430.4</ele>
        <time>2022-07-26T11:09:46Z</time>
      </trkpt>
      <trkpt lat="45.8922850" lon="5.6883880">
        <ele>429.8</ele>
        <time>2022-07-26T11:09:47Z</time>
      </trkpt>
      <trkpt lat="45.8923200" lon="5.6884790">
        <ele>429.2</ele>
        <time>2022-07-26T11:09:48Z</time>
      </trkpt>
      <trkpt lat="45.8923730" lon="5.6885740">
        <ele>428.3</ele>
        <time>2022-07-26T11:09:49Z</time>
      </trkpt>
      <trkpt lat="45.8924320" lon="5.6886570">
        <ele>427.5</ele>
        <time>2022-07-26T11:09:50Z</time>
      </trkpt>
      <trkpt lat="45.8925190" lon="5.6887140">
        <ele>426.5</ele>
        <time>2022-07-26T11:09:51Z</time>
      </trkpt>
      <trkpt lat="45.8926000" lon="5.6887660">
        <ele>425.7</ele>
        <time>2022-07-26T11:09:52Z</time>
      </trkpt>
      <trkpt lat="45.8926770" lon="5.6888320">
        <ele>424.9</ele>
        <time>2022-07-26T11:09:53Z</time>
      </trkpt>
      <trkpt lat="45.8927380" lon="5.6889050">
        <ele>424.1</ele>
        <time>2022-07-26T11:09:54Z</time>
      </trkpt>
      <trkpt lat="45.8927910" lon="5.6889800">
        <ele>423.4</ele>
        <time>2022-07-26T11:09:55Z</time>
      </trkpt>
      <trkpt lat="45.8928330" lon="5.6890520">
        <ele>422.8</ele>
        <time>2022-07-26T11:09:56Z</time>
      </trkpt>
      <trkpt lat="45.8928650" lon="5.6891100">
        <ele>422.4</ele>
        <time>2022-07-26T11:09:57Z</time>
      </trkpt>
      <trkpt lat="45.8928830" lon="5.6891670">
        <ele>421.9</ele>
        <time>2022-07-26T11:09:58Z</time>
      </trkpt>
      <trkpt lat="45.8928980" lon="5.6892180">
        <ele>421.6</ele>
        <time>2022-07-26T11:09:59Z</time>
      </trkpt>
      <trkpt lat="45.8929130" lon="5.6892540">
        <ele>421.3</ele>
        <time>2022-07-26T11:10:00Z</time>
      </trkpt>
      <trkpt lat="45.8929160" lon="5.6893020">
        <ele>421.0</ele>
        <time>2022-07-26T11:10:01Z</time>
      </trkpt>
      <trkpt lat="45.8929150" lon="5.6893140">
        <ele>420.9</ele>
        <time>2022-07-26T11:10:02Z</time>
      </trkpt>
      <trkpt lat="45.8929140" lon="5.6893370">
        <ele>420.7</ele>
        <time>2022-07-26T11:10:03Z</time>
      </trkpt>
      <trkpt lat="45.8929270" lon="5.6893590">
        <ele>420.5</ele>
        <time>2022-07-26T11:10:04Z</time>
      </trkpt>
      <trkpt lat="45.8929470" lon="5.6893940">
        <ele>420.1</ele>
        <time>2022-07-26T11:10:05Z</time>
      </trkpt>
      <trkpt lat="45.8929770" lon="5.6894210">
        <ele>419.5</ele>
        <time>2022-07-26T11:10:06Z</time>
      </trkpt>
      <trkpt lat="45.8930090" lon="5.6894460">
        <ele>418.8</ele>
        <time>2022-07-26T11:10:07Z</time>
      </trkpt>
      <trkpt lat="45.8930360" lon="5.6894750">
        <ele>418.2</ele>
        <time>2022-07-26T11:10:08Z</time>
      </trkpt>
      <trkpt lat="45.8930640" lon="5.6895010">
        <ele>417.6</ele>
        <time>2022-07-26T11:10:09Z</time>
      </trkpt>
      <trkpt lat="45.8931140" lon="5.6895430">
        <ele>416.5</ele>
        <time>2022-07-26T11:10:10Z</time>
      </trkpt>
      <trkpt lat="45.8931650" lon="5.6895760">
        <ele>415.5</ele>
        <time>2022-07-26T11:10:11Z</time>
      </trkpt>
      <trkpt lat="45.8932150" lon="5.6896100">
        <ele>414.5</ele>
        <time>2022-07-26T11:10:12Z</time>
      </trkpt>
      <trkpt lat="45.8932690" lon="5.6896540">
        <ele>413.5</ele>
        <time>2022-07-26T11:10:13Z</time>
      </trkpt>
      <trkpt lat="45.8932950" lon="5.6896840">
        <ele>413.0</ele>
        <time>2022-07-26T11:10:14Z</time>
      </trkpt>
      <trkpt lat="45.8933230" lon="5.6897140">
        <ele>412.4</ele>
        <time>2022-07-26T11:10:15Z</time>
      </trkpt>
      <trkpt lat="45.8933480" lon="5.6897460">
        <ele>412.0</ele>
        <time>2022-07-26T11:10:16Z</time>
      </trkpt>
      <trkpt lat="45.8933850" lon="5.6897750">
        <ele>411.4</ele>
        <time>2022-07-26T11:10:17Z</time>
      </trkpt>
      <trkpt lat="45.8934250" lon="5.6898140">
        <ele>410.7</ele>
        <time>2022-07-26T11:10:18Z</time>
      </trkpt>
      <trkpt lat="45.8934780" lon="5.6898590">
        <ele>409.9</ele>
        <time>2022-07-26T11:10:19Z</time>
      </trkpt>
      <trkpt lat="45.8935270" lon="5.6899030">
        <ele>409.3</ele>
        <time>2022-07-26T11:10:20Z</time>
      </trkpt>
      <trkpt lat="45.8935710" lon="5.6899580">
        <ele>408.6</ele>
        <time>2022-07-26T11:10:21Z</time>
      </trkpt>
      <trkpt lat="45.8936050" lon="5.6900110">
        <ele>408.0</ele>
        <time>2022-07-26T11:10:22Z</time>
      </trkpt>
      <trkpt lat="45.8936350" lon="5.6900930">
        <ele>407.3</ele>
        <time>2022-07-26T11:10:23Z</time>
      </trkpt>
      <trkpt lat="45.8936600" lon="5.6901960">
        <ele>406.5</ele>
        <time>2022-07-26T11:10:24Z</time>
      </trkpt>
      <trkpt lat="45.8936870" lon="5.6902950">
        <ele>405.8</ele>
        <time>2022-07-26T11:10:25Z</time>
      </trkpt>
      <trkpt lat="45.8937190" lon="5.6903860">
        <ele>405.1</ele>
        <time>2022-07-26T11:10:26Z</time>
      </trkpt>
      <trkpt lat="45.8937370" lon="5.6904480">
        <ele>404.7</ele>
        <time>2022-07-26T11:10:27Z</time>
      </trkpt>
      <trkpt lat="45.8937390" lon="5.6905050">
        <ele>404.2</ele>
        <time>2022-07-26T11:10:28Z</time>
      </trkpt>
      <trkpt lat="45.8937160" lon="5.6905400">
        <ele>403.9</ele>
        <time>2022-07-26T11:10:29Z</time>
      </trkpt>
      <trkpt lat="45.8936900" lon="5.6905800">
        <ele>403.4</ele>
        <time>2022-07-26T11:10:30Z</time>
      </trkpt>
      <trkpt lat="45.8936690" lon="5.6906440">
        <ele>402.8</ele>
        <time>2022-07-26T11:10:31Z</time>
      </trkpt>
      <trkpt lat="45.8936360" lon="5.6907000">
        <ele>402.1</ele>
        <time>2022-07-26T11:10:32Z</time>
      </trkpt>
      <trkpt lat="45.8935920" lon="5.6907420">
        <ele>401.3</ele>
        <time>2022-07-26T11:10:33Z</time>
      </trkpt>
      <trkpt lat="45.8935610" lon="5.6907890">
        <ele>400.7</ele>
        <time>2022-07-26T11:10:34Z</time>
      </trkpt>
      <trkpt lat="45.8935270" lon="5.6908280">
        <ele>400.1</ele>
        <time>2022-07-26T11:10:35Z</time>
      </trkpt>
      <trkpt lat="45.8935040" lon="5.6908630">
        <ele>399.7</ele>
        <time>2022-07-26T11:10:36Z</time>
      </trkpt>
      <trkpt lat="45.8934620" lon="5.6909210">
        <ele>398.9</ele>
        <time>2022-07-26T11:10:37Z</time>
      </trkpt>
      <trkpt lat="45.8934170" lon="5.6909730">
        <ele>398.1</ele>
        <time>2022-07-26T11:10:38Z</time>
      </trkpt>
      <trkpt lat="45.8933810" lon="5.6910080">
        <ele>397.6</ele>
        <time>2022-07-26T11:10:39Z</time>
      </trkpt>
      <trkpt lat="45.8933500" lon="5.6910310">
        <ele>397.1</ele>
        <time>2022-07-26T11:10:40Z</time>
      </trkpt>
      <trkpt lat="45.8933250" lon="5.6910600">
        <ele>396.7</ele>
        <time>2022-07-26T11:10:41Z</time>
      </trkpt>
      <trkpt lat="45.8933110" lon="5.6911010">
        <ele>396.3</ele>
        <time>2022-07-26T11:10:42Z</time>
      </trkpt>
      <trkpt lat="45.8932960" lon="5.6911460">
        <ele>395.8</ele>
        <time>2022-07-26T11:10:43Z</time>
      </trkpt>
      <trkpt lat="45.8932830" lon="5.6911830">
        <ele>395.3</ele>
        <time>2022-07-26T11:10:44Z</time>
      </trkpt>
      <trkpt lat="45.8932760" lon="5.6912270">
        <ele>394.9</ele>
        <time>2022-07-26T11:10:45Z</time>
      </trkpt>
      <trkpt lat="45.8932930" lon="5.6912800">
        <ele>394.1</ele>
        <time>2022-07-26T11:10:46Z</time>
      </trkpt>
      <trkpt lat="45.8933010" lon="5.6912980">
        <ele>394.0</ele>
        <time>2022-07-26T11:10:47Z</time>
      </trkpt>
      <trkpt lat="45.8933260" lon="5.6913810">
        <ele>393.3</ele>
        <time>2022-07-26T11:10:48Z</time>
      </trkpt>
      <trkpt lat="45.8933690" lon="5.6914850">
        <ele>392.4</ele>
        <time>2022-07-26T11:10:49Z</time>
      </trkpt>
      <trkpt lat="45.8934020" lon="5.6915830">
        <ele>391.6</ele>
        <time>2022-07-26T11:10:50Z</time>
      </trkpt>
      <trkpt lat="45.8934390" lon="5.6916850">
        <ele>390.9</ele>
        <time>2022-07-26T11:10:51Z</time>
      </trkpt>
      <trkpt lat="45.8934720" lon="5.6917720">
        <ele>390.3</ele>
        <time>2022-07-26T11:10:52Z</time>
      </trkpt>
      <trkpt lat="45.8935070" lon="5.6918460">
        <ele>389.8</ele>
        <time>2022-07-26T11:10:53Z</time>
      </trkpt>
      <trkpt lat="45.8935320" lon="5.6919230">
        <ele>389.4</ele>
        <time>2022-07-26T11:10:54Z</time>
      </trkpt>
      <trkpt lat="45.8935470" lon="5.6919950">
        <ele>388.9</ele>
        <time>2022-07-26T11:10:55Z</time>
      </trkpt>
      <trkpt lat="45.8935670" lon="5.6920460">
        <ele>388.6</ele>
        <time>2022-07-26T11:10:56Z</time>
      </trkpt>
      <trkpt lat="45.8935920" lon="5.6921070">
        <ele>388.1</ele>
        <time>2022-07-26T11:10:57Z</time>
      </trkpt>
      <trkpt lat="45.8936030" lon="5.6921460">
        <ele>387.8</ele>
        <time>2022-07-26T11:10:58Z</time>
      </trkpt>
      <trkpt lat="45.8936000" lon="5.6921970">
        <ele>387.4</ele>
        <time>2022-07-26T11:10:59Z</time>
      </trkpt>
      <trkpt lat="45.8935800" lon="5.6922430">
        <ele>386.9</ele>
        <time>2022-07-26T11:11:00Z</time>
      </trkpt>
      <trkpt lat="45.8935610" lon="5.6922710">
        <ele>386.3</ele>
        <time>2022-07-26T11:11:01Z</time>
      </trkpt>
      <trkpt lat="45.8935370" lon="5.6923100">
        <ele>386.1</ele>
        <time>2022-07-26T11:11:02Z</time>
      </trkpt>
      <trkpt lat="45.8935040" lon="5.6923480">
        <ele>385.7</ele>
        <time>2022-07-26T11:11:03Z</time>
      </trkpt>
      <trkpt lat="45.8934610" lon="5.6923660">
        <ele>385.2</ele>
        <time>2022-07-26T11:11:04Z</time>
      </trkpt>
      <trkpt lat="45.8934080" lon="5.6923630">
        <ele>384.6</ele>
        <time>2022-07-26T11:11:05Z</time>
      </trkpt>
      <trkpt lat="45.8933550" lon="5.6923810">
        <ele>384.3</ele>
        <time>2022-07-26T11:11:06Z</time>
      </trkpt>
      <trkpt lat="45.8933040" lon="5.6924040">
        <ele>384.3</ele>
        <time>2022-07-26T11:11:07Z</time>
      </trkpt>
      <trkpt lat="45.8932680" lon="5.6924190">
        <ele>384.3</ele>
        <time>2022-07-26T11:11:08Z</time>
      </trkpt>
      <trkpt lat="45.8932190" lon="5.6924520">
        <ele>384.4</ele>
        <time>2022-07-26T11:11:09Z</time>
      </trkpt>
      <trkpt lat="45.8931760" lon="5.6924960">
        <ele>384.4</ele>
        <time>2022-07-26T11:11:10Z</time>
      </trkpt>
      <trkpt lat="45.8931390" lon="5.6925280">
        <ele>384.5</ele>
        <time>2022-07-26T11:11:11Z</time>
      </trkpt>
      <trkpt lat="45.8930920" lon="5.6925610">
        <ele>384.6</ele>
        <time>2022-07-26T11:11:12Z</time>
      </trkpt>
      <trkpt lat="45.8930570" lon="5.6925980">
        <ele>384.7</ele>
        <time>2022-07-26T11:11:13Z</time>
      </trkpt>
      <trkpt lat="45.8930270" lon="5.6926400">
        <ele>384.9</ele>
        <time>2022-07-26T11:11:14Z</time>
      </trkpt>
      <trkpt lat="45.8930110" lon="5.6926720">
        <ele>385.0</ele>
        <time>2022-07-26T11:11:15Z</time>
      </trkpt>
      <trkpt lat="45.8930020" lon="5.6927200">
        <ele>385.1</ele>
        <time>2022-07-26T11:11:16Z</time>
      </trkpt>
      <trkpt lat="45.8930010" lon="5.6927590">
        <ele>385.2</ele>
        <time>2022-07-26T11:11:17Z</time>
      </trkpt>
      <trkpt lat="45.8929950" lon="5.6928120">
        <ele>385.4</ele>
        <time>2022-07-26T11:11:18Z</time>
      </trkpt>
      <trkpt lat="45.8929930" lon="5.6928290">
        <ele>385.5</ele>
        <time>2022-07-26T11:11:19Z</time>
      </trkpt>
      <trkpt lat="45.8929920" lon="5.6928730">
        <ele>385.6</ele>
        <time>2022-07-26T11:11:20Z</time>
      </trkpt>
      <trkpt lat="45.8929910" lon="5.6928860">
        <ele>385.7</ele>
        <time>2022-07-26T11:11:21Z</time>
      </trkpt>
      <trkpt lat="45.8929920" lon="5.6929080">
        <ele>385.7</ele>
        <time>2022-07-26T11:11:22Z</time>
      </trkpt>
      <trkpt lat="45.8929910" lon="5.6929250">
        <ele>385.8</ele>
        <time>2022-07-26T11:11:23Z</time>
      </trkpt>
      <trkpt lat="45.8929900" lon="5.6929670">
        <ele>386.0</ele>
        <time>2022-07-26T11:11:24Z</time>
      </trkpt>
      <trkpt lat="45.8929890" lon="5.6929820">
        <ele>386.0</ele>
        <time>2022-07-26T11:11:25Z</time>
      </trkpt>
      <trkpt lat="45.8929880" lon="5.6930110">
        <ele>386.1</ele>
        <time>2022-07-26T11:11:26Z</time>
      </trkpt>
      <trkpt lat="45.8929870" lon="5.6930300">
        <ele>386.2</ele>
        <time>2022-07-26T11:11:27Z</time>
      </trkpt>
      <trkpt lat="45.8929840" lon="5.6930730">
        <ele>386.4</ele>
        <time>2022-07-26T11:11:28Z</time>
      </trkpt>
      <trkpt lat="45.8929820" lon="5.6930890">
        <ele>386.5</ele>
        <time>2022-07-26T11:11:29Z</time>
      </trkpt>
      <trkpt lat="45.8929750" lon="5.6931320">
        <ele>386.7</ele>
        <time>2022-07-26T11:11:30Z</time>
      </trkpt>
      <trkpt lat="45.8929720" lon="5.6931480">
        <ele>386.8</ele>
        <time>2022-07-26T11:11:31Z</time>
      </trkpt>
      <trkpt lat="45.8929680" lon="5.6931720">
        <ele>386.9</ele>
        <time>2022-07-26T11:11:32Z</time>
      </trkpt>
      <trkpt lat="45.8929650" lon="5.6931900">
        <ele>387.0</ele>
        <time>2022-07-26T11:11:33Z</time>
      </trkpt>
      <trkpt lat="45.8929630" lon="5.6932180">
        <ele>387.1</ele>
        <time>2022-07-26T11:11:34Z</time>
      </trkpt>
      <trkpt lat="45.8929620" lon="5.6932300">
        <ele>387.2</ele>
        <time>2022-07-26T11:11:35Z</time>
      </trkpt>
      <trkpt lat="45.8929610" lon="5.6932420">
        <ele>387.2</ele>
        <time>2022-07-26T11:11:36Z</time>
      </trkpt>
      <trkpt lat="45.8929600" lon="5.6932650">
        <ele>387.3</ele>
        <time>2022-07-26T11:11:37Z</time>
      </trkpt>
      <trkpt lat="45.8929600" lon="5.6932870">
        <ele>387.4</ele>
        <time>2022-07-26T11:11:38Z</time>
      </trkpt>
      <trkpt lat="45.8929600" lon="5.6933120">
        <ele>387.6</ele>
        <time>2022-07-26T11:11:39Z</time>
      </trkpt>
      <trkpt lat="45.8929590" lon="5.6933350">
        <ele>387.7</ele>
        <time>2022-07-26T11:11:40Z</time>
      </trkpt>
      <trkpt lat="45.8929600" lon="5.6933530">
        <ele>387.8</ele>
        <time>2022-07-26T11:11:41Z</time>
      </trkpt>
      <trkpt lat="45.8929580" lon="5.6933700">
        <ele>387.9</ele>
        <time>2022-07-26T11:11:42Z</time>
      </trkpt>
      <trkpt lat="45.8929580" lon="5.6933850">
        <ele>388.0</ele>
        <time>2022-07-26T11:11:43Z</time>
      </trkpt>
      <trkpt lat="45.8929530" lon="5.6934110">
        <ele>388.1</ele>
        <time>2022-07-26T11:11:44Z</time>
      </trkpt>
      <trkpt lat="45.8929510" lon="5.6934250">
        <ele>388.2</ele>
        <time>2022-07-26T11:11:45Z</time>
      </trkpt>
      <trkpt lat="45.8929490" lon="5.6934390">
        <ele>388.3</ele>
        <time>2022-07-26T11:11:46Z</time>
      </trkpt>
      <trkpt lat="45.8929510" lon="5.6934620">
        <ele>388.4</ele>
        <time>2022-07-26T11:11:47Z</time>
      </trkpt>
      <trkpt lat="45.8929530" lon="5.6934810">
        <ele>388.5</ele>
        <time>2022-07-26T11:11:48Z</time>
      </trkpt>
      <trkpt lat="45.8929510" lon="5.6935010">
        <ele>388.7</ele>
        <time>2022-07-26T11:11:49Z</time>
      </trkpt>
      <trkpt lat="45.8929490" lon="5.6935110">
        <ele>388.7</ele>
        <time>2022-07-26T11:11:50Z</time>
      </trkpt>
      <trkpt lat="45.8929440" lon="5.6935240">
        <ele>388.8</ele>
        <time>2022-07-26T11:11:51Z</time>
      </trkpt>
      <trkpt lat="45.8929340" lon="5.6935390">
        <ele>389.0</ele>
        <time>2022-07-26T11:11:52Z</time>
      </trkpt>
      <trkpt lat="45.8929260" lon="5.6935480">
        <ele>389.1</ele>
        <time>2022-07-26T11:11:53Z</time>
      </trkpt>
      <trkpt lat="45.8929210" lon="5.6935560">
        <ele>389.1</ele>
        <time>2022-07-26T11:11:54Z</time>
      </trkpt>
      <trkpt lat="45.8929150" lon="5.6935830">
        <ele>389.3</ele>
        <time>2022-07-26T11:11:55Z</time>
      </trkpt>
      <trkpt lat="45.8929120" lon="5.6935960">
        <ele>389.4</ele>
        <time>2022-07-26T11:11:56Z</time>
      </trkpt>
      <trkpt lat="45.8929090" lon="5.6936080">
        <ele>389.5</ele>
        <time>2022-07-26T11:11:57Z</time>
      </trkpt>
      <trkpt lat="45.8929050" lon="5.6936330">
        <ele>389.7</ele>
        <time>2022-07-26T11:11:58Z</time>
      </trkpt>
      <trkpt lat="45.8928980" lon="5.6936550">
        <ele>389.9</ele>
        <time>2022-07-26T11:11:59Z</time>
      </trkpt>
      <trkpt lat="45.8928950" lon="5.6936670">
        <ele>390.0</ele>
        <time>2022-07-26T11:12:00Z</time>
      </trkpt>
      <trkpt lat="45.8928890" lon="5.6936870">
        <ele>390.1</ele>
        <time>2022-07-26T11:12:01Z</time>
      </trkpt>
      <trkpt lat="45.8928860" lon="5.6937030">
        <ele>390.3</ele>
        <time>2022-07-26T11:12:02Z</time>
      </trkpt>
      <trkpt lat="45.8928790" lon="5.6937340">
        <ele>390.5</ele>
        <time>2022-07-26T11:12:03Z</time>
      </trkpt>
      <trkpt lat="45.8928770" lon="5.6937480">
        <ele>390.6</ele>
        <time>2022-07-26T11:12:04Z</time>
      </trkpt>
      <trkpt lat="45.8928750" lon="5.6937610">
        <ele>390.7</ele>
        <time>2022-07-26T11:12:05Z</time>
      </trkpt>
      <trkpt lat="45.8928740" lon="5.6937930">
        <ele>391.0</ele>
        <time>2022-07-26T11:12:06Z</time>
      </trkpt>
      <trkpt lat="45.8928730" lon="5.6938050">
        <ele>391.1</ele>
        <time>2022-07-26T11:12:07Z</time>
      </trkpt>
      <trkpt lat="45.8928720" lon="5.6938170">
        <ele>391.2</ele>
        <time>2022-07-26T11:12:08Z</time>
      </trkpt>
      <trkpt lat="45.8928720" lon="5.6938320">
        <ele>391.3</ele>
        <time>2022-07-26T11:12:09Z</time>
      </trkpt>
      <trkpt lat="45.8928760" lon="5.6938450">
        <ele>391.4</ele>
        <time>2022-07-26T11:12:10Z</time>
      </trkpt>
      <trkpt lat="45.8928790" lon="5.6938600">
        <ele>391.6</ele>
        <time>2022-07-26T11:12:11Z</time>
      </trkpt>
      <trkpt lat="45.8928800" lon="5.6938770">
        <ele>391.7</ele>
        <time>2022-07-26T11:12:12Z</time>
      </trkpt>
      <trkpt lat="45.8928800" lon="5.6938890">
        <ele>391.8</ele>
        <time>2022-07-26T11:12:13Z</time>
      </trkpt>
      <trkpt lat="45.8928780" lon="5.6939010">
        <ele>391.9</ele>
        <time>2022-07-26T11:12:14Z</time>
      </trkpt>
      <trkpt lat="45.8928760" lon="5.6939120">
        <ele>392.0</ele>
        <time>2022-07-26T11:12:15Z</time>
      </trkpt>
      <trkpt lat="45.8928730" lon="5.6939320">
        <ele>392.2</ele>
        <time>2022-07-26T11:12:16Z</time>
      </trkpt>
      <trkpt lat="45.8928700" lon="5.6939450">
        <ele>392.3</ele>
        <time>2022-07-26T11:12:17Z</time>
      </trkpt>
      <trkpt lat="45.8928680" lon="5.6939620">
        <ele>392.5</ele>
        <time>2022-07-26T11:12:18Z</time>
      </trkpt>
      <trkpt lat="45.8928660" lon="5.6939740">
        <ele>392.6</ele>
        <time>2022-07-26T11:12:19Z</time>
      </trkpt>
      <trkpt lat="45.8928650" lon="5.6939890">
        <ele>392.8</ele>
        <time>2022-07-26T11:12:20Z</time>
      </trkpt>
      <trkpt lat="45.8928630" lon="5.6940040">
        <ele>392.9</ele>
        <time>2022-07-26T11:12:21Z</time>
      </trkpt>
      <trkpt lat="45.8928620" lon="5.6940160">
        <ele>393.0</ele>
        <time>2022-07-26T11:12:22Z</time>
      </trkpt>
      <trkpt lat="45.8928610" lon="5.6940260">
        <ele>393.1</ele>
        <time>2022-07-26T11:12:23Z</time>
      </trkpt>
      <trkpt lat="45.8928600" lon="5.6940370">
        <ele>393.2</ele>
        <time>2022-07-26T11:12:24Z</time>
      </trkpt>
      <trkpt lat="45.8928570" lon="5.6940490">
        <ele>393.4</ele>
        <time>2022-07-26T11:12:25Z</time>
      </trkpt>
      <trkpt lat="45.8928520" lon="5.6940640">
        <ele>393.5</ele>
        <time>2022-07-26T11:12:26Z</time>
      </trkpt>
      <trkpt lat="45.8928460" lon="5.6940740">
        <ele>393.6</ele>
        <time>2022-07-26T11:12:27Z</time>
      </trkpt>
      <trkpt lat="45.8928340" lon="5.6940990">
        <ele>393.9</ele>
        <time>2022-07-26T11:12:28Z</time>
      </trkpt>
      <trkpt lat="45.8928300" lon="5.6941080">
        <ele>394.0</ele>
        <time>2022-07-26T11:12:29Z</time>
      </trkpt>
      <trkpt lat="45.8928260" lon="5.6941170">
        <ele>394.1</ele>
        <time>2022-07-26T11:12:30Z</time>
      </trkpt>
      <trkpt lat="45.8928230" lon="5.6941310">
        <ele>394.3</ele>
        <time>2022-07-26T11:12:31Z</time>
      </trkpt>
      <trkpt lat="45.8928270" lon="5.6941460">
        <ele>394.5</ele>
        <time>2022-07-26T11:12:32Z</time>
      </trkpt>
      <trkpt lat="45.8928330" lon="5.6941600">
        <ele>394.6</ele>
        <time>2022-07-26T11:12:33Z</time>
      </trkpt>
      <trkpt lat="45.8928370" lon="5.6941730">
        <ele>394.8</ele>
        <time>2022-07-26T11:12:34Z</time>
      </trkpt>
      <trkpt lat="45.8928410" lon="5.6941850">
        <ele>394.9</ele>
        <time>2022-07-26T11:12:35Z</time>
      </trkpt>
      <trkpt lat="45.8928390" lon="5.6941980">
        <ele>395.0</ele>
        <time>2022-07-26T11:12:36Z</time>
      </trkpt>
      <trkpt lat="45.8928360" lon="5.6942090">
        <ele>395.1</ele>
        <time>2022-07-26T11:12:37Z</time>
      </trkpt>
      <trkpt lat="45.8928320" lon="5.6942230">
        <ele>395.3</ele>
        <time>2022-07-26T11:12:38Z</time>
      </trkpt>
      <trkpt lat="45.8928260" lon="5.6942350">
        <ele>395.5</ele>
        <time>2022-07-26T11:12:39Z</time>
      </trkpt>
      <trkpt lat="45.8928250" lon="5.6942390">
        <ele>395.5</ele>
        <time>2022-07-26T11:12:40Z</time>
      </trkpt>
      <trkpt lat="45.8928240" lon="5.6942440">
        <ele>395.6</ele>
        <time>2022-07-26T11:12:41Z</time>
      </trkpt>
      <trkpt lat="45.8928220" lon="5.6942530">
        <ele>395.7</ele>
        <time>2022-07-26T11:12:42Z</time>
      </trkpt>
      <trkpt lat="45.8928190" lon="5.6942620">
        <ele>395.8</ele>
        <time>2022-07-26T11:12:43Z</time>
      </trkpt>
      <trkpt lat="45.8928160" lon="5.6942700">
        <ele>395.9</ele>
        <time>2022-07-26T11:12:44Z</time>
      </trkpt>
      <trkpt lat="45.8928140" lon="5.6942770">
        <ele>396.0</ele>
        <time>2022-07-26T11:12:45Z</time>
      </trkpt>
      <trkpt lat="45.8928110" lon="5.6942860">
        <ele>396.2</ele>
        <time>2022-07-26T11:12:46Z</time>
      </trkpt>
      <trkpt lat="45.8928090" lon="5.6943000">
        <ele>396.4</ele>
        <time>2022-07-26T11:12:47Z</time>
      </trkpt>
      <trkpt lat="45.8928050" lon="5.6943160">
        <ele>396.6</ele>
        <time>2022-07-26T11:12:48Z</time>
      </trkpt>
      <trkpt lat="45.8928030" lon="5.6943290">
        <ele>396.8</ele>
        <time>2022-07-26T11:12:49Z</time>
      </trkpt>
      <trkpt lat="45.8927990" lon="5.6943450">
        <ele>397.0</ele>
        <time>2022-07-26T11:12:50Z</time>
      </trkpt>
      <trkpt lat="45.8927940" lon="5.6943590">
        <ele>397.2</ele>
        <time>2022-07-26T11:12:51Z</time>
      </trkpt>
      <trkpt lat="45.8927870" lon="5.6943870">
        <ele>397.6</ele>
        <time>2022-07-26T11:12:52Z</time>
      </trkpt>
      <trkpt lat="45.8927850" lon="5.6943980">
        <ele>397.7</ele>
        <time>2022-07-26T11:12:53Z</time>
      </trkpt>
      <trkpt lat="45.8927820" lon="5.6944090">
        <ele>397.9</ele>
        <time>2022-07-26T11:12:54Z</time>
      </trkpt>
      <trkpt lat="45.8927800" lon="5.6944230">
        <ele>398.1</ele>
        <time>2022-07-26T11:12:55Z</time>
      </trkpt>
      <trkpt lat="45.8927770" lon="5.6944390">
        <ele>398.3</ele>
        <time>2022-07-26T11:12:56Z</time>
      </trkpt>
      <trkpt lat="45.8927740" lon="5.6944530">
        <ele>398.5</ele>
        <time>2022-07-26T11:12:57Z</time>
      </trkpt>
      <trkpt lat="45.8927670" lon="5.6944690">
        <ele>398.9</ele>
        <time>2022-07-26T11:12:58Z</time>
      </trkpt>
      <trkpt lat="45.8927620" lon="5.6944780">
        <ele>399.0</ele>
        <time>2022-07-26T11:12:59Z</time>
      </trkpt>
      <trkpt lat="45.8927570" lon="5.6944870">
        <ele>399.0</ele>
        <time>2022-07-26T11:13:00Z</time>
      </trkpt>
      <trkpt lat="45.8927520" lon="5.6944960">
        <ele>399.1</ele>
        <time>2022-07-26T11:13:01Z</time>
      </trkpt>
      <trkpt lat="45.8927470" lon="5.6945050">
        <ele>399.2</ele>
        <time>2022-07-26T11:13:02Z</time>
      </trkpt>
      <trkpt lat="45.8927430" lon="5.6945120">
        <ele>399.3</ele>
        <time>2022-07-26T11:13:03Z</time>
      </trkpt>
      <trkpt lat="45.8927370" lon="5.6945200">
        <ele>399.3</ele>
        <time>2022-07-26T11:13:04Z</time>
      </trkpt>
      <trkpt lat="45.8927330" lon="5.6945260">
        <ele>399.4</ele>
        <time>2022-07-26T11:13:05Z</time>
      </trkpt>
      <trkpt lat="45.8927220" lon="5.6945330">
        <ele>399.5</ele>
        <time>2022-07-26T11:13:06Z</time>
      </trkpt>
      <trkpt lat="45.8927140" lon="5.6945380">
        <ele>399.6</ele>
        <time>2022-07-26T11:13:07Z</time>
      </trkpt>
      <trkpt lat="45.8927060" lon="5.6945430">
        <ele>399.7</ele>
        <time>2022-07-26T11:13:08Z</time>
      </trkpt>
      <trkpt lat="45.8926960" lon="5.6945480">
        <ele>399.8</ele>
        <time>2022-07-26T11:13:09Z</time>
      </trkpt>
      <trkpt lat="45.8926850" lon="5.6945550">
        <ele>399.9</ele>
        <time>2022-07-26T11:13:10Z</time>
      </trkpt>
      <trkpt lat="45.8926720" lon="5.6945610">
        <ele>400.0</ele>
        <time>2022-07-26T11:13:11Z</time>
      </trkpt>
      <trkpt lat="45.8926610" lon="5.6945640">
        <ele>400.1</ele>
        <time>2022-07-26T11:13:12Z</time>
      </trkpt>
      <trkpt lat="45.8926510" lon="5.6945670">
        <ele>400.2</ele>
        <time>2022-07-26T11:13:13Z</time>
      </trkpt>
      <trkpt lat="45.8926400" lon="5.6945700">
        <ele>400.3</ele>
        <time>2022-07-26T11:13:14Z</time>
      </trkpt>
      <trkpt lat="45.8926210" lon="5.6945740">
        <ele>400.5</ele>
        <time>2022-07-26T11:13:15Z</time>
      </trkpt>
      <trkpt lat="45.8926120" lon="5.6945750">
        <ele>400.8</ele>
        <time>2022-07-26T11:13:16Z</time>
      </trkpt>
      <trkpt lat="45.8926030" lon="5.6945770">
        <ele>400.9</ele>
        <time>2022-07-26T11:13:17Z</time>
      </trkpt>
      <trkpt lat="45.8925910" lon="5.6945780">
        <ele>401.1</ele>
        <time>2022-07-26T11:13:18Z</time>
      </trkpt>
      <trkpt lat="45.8925740" lon="5.6945780">
        <ele>401.3</ele>
        <time>2022-07-26T11:13:19Z</time>
      </trkpt>
      <trkpt lat="45.8925580" lon="5.6945770">
        <ele>401.5</ele>
        <time>2022-07-26T11:13:20Z</time>
      </trkpt>
      <trkpt lat="45.8925500" lon="5.6945770">
        <ele>401.7</ele>
        <time>2022-07-26T11:13:21Z</time>
      </trkpt>
      <trkpt lat="45.8925410" lon="5.6945750">
        <ele>401.8</ele>
        <time>2022-07-26T11:13:22Z</time>
      </trkpt>
      <trkpt lat="45.8925370" lon="5.6945760">
        <ele>401.8</ele>
        <time>2022-07-26T11:13:23Z</time>
      </trkpt>
      <trkpt lat="45.8925340" lon="5.6945770">
        <ele>401.9</ele>
        <time>2022-07-26T11:13:24Z</time>
      </trkpt>
      <trkpt lat="45.8925290" lon="5.6945790">
        <ele>402.0</ele>
        <time>2022-07-26T11:13:25Z</time>
      </trkpt>
      <trkpt lat="45.8925220" lon="5.6945770">
        <ele>402.1</ele>
        <time>2022-07-26T11:13:26Z</time>
      </trkpt>
      <trkpt lat="45.8925160" lon="5.6945750">
        <ele>402.2</ele>
        <time>2022-07-26T11:13:27Z</time>
      </trkpt>
      <trkpt lat="45.8925080" lon="5.6945740">
        <ele>402.3</ele>
        <time>2022-07-26T11:13:28Z</time>
      </trkpt>
      <trkpt lat="45.8924910" lon="5.6945750">
        <ele>402.5</ele>
        <time>2022-07-26T11:13:29Z</time>
      </trkpt>
      <trkpt lat="45.8924830" lon="5.6945760">
        <ele>402.6</ele>
        <time>2022-07-26T11:13:30Z</time>
      </trkpt>
      <trkpt lat="45.8924760" lon="5.6945780">
        <ele>402.7</ele>
        <time>2022-07-26T11:13:31Z</time>
      </trkpt>
      <trkpt lat="45.8924680" lon="5.6945790">
        <ele>402.9</ele>
        <time>2022-07-26T11:13:32Z</time>
      </trkpt>
      <trkpt lat="45.8924540" lon="5.6945810">
        <ele>403.1</ele>
        <time>2022-07-26T11:13:33Z</time>
      </trkpt>
      <trkpt lat="45.8924370" lon="5.6945830">
        <ele>403.3</ele>
        <time>2022-07-26T11:13:34Z</time>
      </trkpt>
      <trkpt lat="45.8924160" lon="5.6945770">
        <ele>403.6</ele>
        <time>2022-07-26T11:13:35Z</time>
      </trkpt>
      <trkpt lat="45.8924070" lon="5.6945730">
        <ele>403.8</ele>
        <time>2022-07-26T11:13:36Z</time>
      </trkpt>
      <trkpt lat="45.8923980" lon="5.6945690">
        <ele>403.9</ele>
        <time>2022-07-26T11:13:37Z</time>
      </trkpt>
      <trkpt lat="45.8923890" lon="5.6945670">
        <ele>404.0</ele>
        <time>2022-07-26T11:13:38Z</time>
      </trkpt>
      <trkpt lat="45.8923840" lon="5.6945650">
        <ele>404.1</ele>
        <time>2022-07-26T11:13:39Z</time>
      </trkpt>
      <trkpt lat="45.8923790" lon="5.6945620">
        <ele>404.2</ele>
        <time>2022-07-26T11:13:40Z</time>
      </trkpt>
      <trkpt lat="45.8923700" lon="5.6945590">
        <ele>404.3</ele>
        <time>2022-07-26T11:13:41Z</time>
      </trkpt>
      <trkpt lat="45.8923620" lon="5.6945570">
        <ele>404.4</ele>
        <time>2022-07-26T11:13:42Z</time>
      </trkpt>
      <trkpt lat="45.8923650" lon="5.6945590">
        <ele>404.5</ele>
        <time>2022-07-26T11:13:43Z</time>
      </trkpt>
      <trkpt lat="45.8923570" lon="5.6945570">
        <ele>404.6</ele>
        <time>2022-07-26T11:13:44Z</time>
      </trkpt>
      <trkpt lat="45.8923450" lon="5.6945550">
        <ele>404.8</ele>
        <time>2022-07-26T11:13:45Z</time>
      </trkpt>
      <trkpt lat="45.8923340" lon="5.6945540">
        <ele>404.9</ele>
        <time>2022-07-26T11:13:46Z</time>
      </trkpt>
      <trkpt lat="45.8923360" lon="5.6945580">
        <ele>405.0</ele>
        <time>2022-07-26T11:13:47Z</time>
      </trkpt>
      <trkpt lat="45.8923340" lon="5.6945590">
        <ele>405.0</ele>
        <time>2022-07-26T11:13:48Z</time>
      </trkpt>
      <trkpt lat="45.8923230" lon="5.6945570">
        <ele>405.2</ele>
        <time>2022-07-26T11:13:49Z</time>
      </trkpt>
      <trkpt lat="45.8923100" lon="5.6945540">
        <ele>405.3</ele>
        <time>2022-07-26T11:13:50Z</time>
      </trkpt>
      <trkpt lat="45.8922990" lon="5.6945490">
        <ele>405.5</ele>
        <time>2022-07-26T11:13:51Z</time>
      </trkpt>
      <trkpt lat="45.8922930" lon="5.6945450">
        <ele>405.6</ele>
        <time>2022-07-26T11:13:52Z</time>
      </trkpt>
      <trkpt lat="45.8922830" lon="5.6945370">
        <ele>405.7</ele>
        <time>2022-07-26T11:13:53Z</time>
      </trkpt>
      <trkpt lat="45.8922660" lon="5.6945320">
        <ele>406.0</ele>
        <time>2022-07-26T11:13:54Z</time>
      </trkpt>
      <trkpt lat="45.8922480" lon="5.6945300">
        <ele>406.2</ele>
        <time>2022-07-26T11:13:55Z</time>
      </trkpt>
      <trkpt lat="45.8922350" lon="5.6945290">
        <ele>406.4</ele>
        <time>2022-07-26T11:13:56Z</time>
      </trkpt>
      <trkpt lat="45.8922230" lon="5.6945260">
        <ele>406.6</ele>
        <time>2022-07-26T11:13:57Z</time>
      </trkpt>
      <trkpt lat="45.8922030" lon="5.6945230">
        <ele>406.8</ele>
        <time>2022-07-26T11:13:58Z</time>
      </trkpt>
      <trkpt lat="45.8921870" lon="5.6945190">
        <ele>407.0</ele>
        <time>2022-07-26T11:13:59Z</time>
      </trkpt>
      <trkpt lat="45.8921700" lon="5.6945130">
        <ele>407.3</ele>
        <time>2022-07-26T11:14:00Z</time>
      </trkpt>
      <trkpt lat="45.8921480" lon="5.6945120">
        <ele>407.6</ele>
        <time>2022-07-26T11:14:01Z</time>
      </trkpt>
      <trkpt lat="45.8921370" lon="5.6945130">
        <ele>407.7</ele>
        <time>2022-07-26T11:14:02Z</time>
      </trkpt>
      <trkpt lat="45.8921260" lon="5.6945130">
        <ele>407.9</ele>
        <time>2022-07-26T11:14:03Z</time>
      </trkpt>
      <trkpt lat="45.8921150" lon="5.6945100">
        <ele>407.9</ele>
        <time>2022-07-26T11:14:04Z</time>
      </trkpt>
      <trkpt lat="45.8921100" lon="5.6945080">
        <ele>407.9</ele>
        <time>2022-07-26T11:14:05Z</time>
      </trkpt>
      <trkpt lat="45.8920980" lon="5.6945060">
        <ele>407.9</ele>
        <time>2022-07-26T11:14:06Z</time>
      </trkpt>
      <trkpt lat="45.8920940" lon="5.6945080">
        <ele>407.9</ele>
        <time>2022-07-26T11:14:07Z</time>
      </trkpt>
      <trkpt lat="45.8920880" lon="5.6945110">
        <ele>407.9</ele>
        <time>2022-07-26T11:14:08Z</time>
      </trkpt>
      <trkpt lat="45.8920830" lon="5.6945150">
        <ele>407.9</ele>
        <time>2022-07-26T11:14:09Z</time>
      </trkpt>
      <trkpt lat="45.8920790" lon="5.6945180">
        <ele>407.9</ele>
        <time>2022-07-26T11:14:10Z</time>
      </trkpt>
      <trkpt lat="45.8920730" lon="5.6945200">
        <ele>407.9</ele>
        <time>2022-07-26T11:14:11Z</time>
      </trkpt>
      <trkpt lat="45.8920540" lon="5.6945180">
        <ele>407.9</ele>
        <time>2022-07-26T11:14:12Z</time>
      </trkpt>
      <trkpt lat="45.8920440" lon="5.6945160">
        <ele>407.9</ele>
        <time>2022-07-26T11:14:13Z</time>
      </trkpt>
      <trkpt lat="45.8920350" lon="5.6945130">
        <ele>407.9</ele>
        <time>2022-07-26T11:14:14Z</time>
      </trkpt>
      <trkpt lat="45.8920190" lon="5.6945140">
        <ele>408.0</ele>
        <time>2022-07-26T11:14:15Z</time>
      </trkpt>
      <trkpt lat="45.8920040" lon="5.6945150">
        <ele>408.1</ele>
        <time>2022-07-26T11:14:16Z</time>
      </trkpt>
      <trkpt lat="45.8919710" lon="5.6945220">
        <ele>408.4</ele>
        <time>2022-07-26T11:14:17Z</time>
      </trkpt>
      <trkpt lat="45.8919600" lon="5.6945250">
        <ele>408.5</ele>
        <time>2022-07-26T11:14:18Z</time>
      </trkpt>
      <trkpt lat="45.8919290" lon="5.6945350">
        <ele>408.8</ele>
        <time>2022-07-26T11:14:19Z</time>
      </trkpt>
      <trkpt lat="45.8918980" lon="5.6945450">
        <ele>409.1</ele>
        <time>2022-07-26T11:14:20Z</time>
      </trkpt>
      <trkpt lat="45.8918900" lon="5.6945480">
        <ele>409.2</ele>
        <time>2022-07-26T11:14:21Z</time>
      </trkpt>
      <trkpt lat="45.8918650" lon="5.6945640">
        <ele>409.4</ele>
        <time>2022-07-26T11:14:22Z</time>
      </trkpt>
      <trkpt lat="45.8918560" lon="5.6945690">
        <ele>409.5</ele>
        <time>2022-07-26T11:14:23Z</time>
      </trkpt>
      <trkpt lat="45.8918270" lon="5.6945760">
        <ele>409.8</ele>
        <time>2022-07-26T11:14:24Z</time>
      </trkpt>
      <trkpt lat="45.8918170" lon="5.6945760">
        <ele>409.9</ele>
        <time>2022-07-26T11:14:25Z</time>
      </trkpt>
      <trkpt lat="45.8918000" lon="5.6945740">
        <ele>410.0</ele>
        <time>2022-07-26T11:14:26Z</time>
      </trkpt>
      <trkpt lat="45.8917840" lon="5.6945750">
        <ele>410.2</ele>
        <time>2022-07-26T11:14:27Z</time>
      </trkpt>
      <trkpt lat="45.8917680" lon="5.6945760">
        <ele>410.3</ele>
        <time>2022-07-26T11:14:28Z</time>
      </trkpt>
      <trkpt lat="45.8917560" lon="5.6945740">
        <ele>410.4</ele>
        <time>2022-07-26T11:14:29Z</time>
      </trkpt>
      <trkpt lat="45.8917380" lon="5.6945730">
        <ele>410.6</ele>
        <time>2022-07-26T11:14:30Z</time>
      </trkpt>
      <trkpt lat="45.8917270" lon="5.6945760">
        <ele>410.7</ele>
        <time>2022-07-26T11:14:31Z</time>
      </trkpt>
      <trkpt lat="45.8917150" lon="5.6945790">
        <ele>410.8</ele>
        <time>2022-07-26T11:14:32Z</time>
      </trkpt>
      <trkpt lat="45.8916940" lon="5.6945830">
        <ele>411.0</ele>
        <time>2022-07-26T11:14:33Z</time>
      </trkpt>
      <trkpt lat="45.8916860" lon="5.6945840">
        <ele>411.1</ele>
        <time>2022-07-26T11:14:34Z</time>
      </trkpt>
      <trkpt lat="45.8916780" lon="5.6945850">
        <ele>411.2</ele>
        <time>2022-07-26T11:14:35Z</time>
      </trkpt>
      <trkpt lat="45.8916580" lon="5.6945890">
        <ele>411.4</ele>
        <time>2022-07-26T11:14:36Z</time>
      </trkpt>
      <trkpt lat="45.8916430" lon="5.6945930">
        <ele>411.5</ele>
        <time>2022-07-26T11:14:37Z</time>
      </trkpt>
      <trkpt lat="45.8916310" lon="5.6945980">
        <ele>411.7</ele>
        <time>2022-07-26T11:14:38Z</time>
      </trkpt>
      <trkpt lat="45.8916170" lon="5.6946020">
        <ele>411.8</ele>
        <time>2022-07-26T11:14:39Z</time>
      </trkpt>
      <trkpt lat="45.8915880" lon="5.6946030">
        <ele>412.2</ele>
        <time>2022-07-26T11:14:40Z</time>
      </trkpt>
      <trkpt lat="45.8915770" lon="5.6946030">
        <ele>412.3</ele>
        <time>2022-07-26T11:14:41Z</time>
      </trkpt>
      <trkpt lat="45.8915570" lon="5.6946010">
        <ele>412.5</ele>
        <time>2022-07-26T11:14:42Z</time>
      </trkpt>
      <trkpt lat="45.8915430" lon="5.6946010">
        <ele>412.7</ele>
        <time>2022-07-26T11:14:43Z</time>
      </trkpt>
      <trkpt lat="45.8915280" lon="5.6946040">
        <ele>412.9</ele>
        <time>2022-07-26T11:14:44Z</time>
      </trkpt>
      <trkpt lat="45.8915140" lon="5.6946060">
        <ele>413.0</ele>
        <time>2022-07-26T11:14:45Z</time>
      </trkpt>
      <trkpt lat="45.8914940" lon="5.6946050">
        <ele>413.3</ele>
        <time>2022-07-26T11:14:46Z</time>
      </trkpt>
      <trkpt lat="45.8914840" lon="5.6946050">
        <ele>413.4</ele>
        <time>2022-07-26T11:14:47Z</time>
      </trkpt>
      <trkpt lat="45.8914740" lon="5.6946040">
        <ele>413.5</ele>
        <time>2022-07-26T11:14:48Z</time>
      </trkpt>
      <trkpt lat="45.8914580" lon="5.6945990">
        <ele>413.7</ele>
        <time>2022-07-26T11:14:49Z</time>
      </trkpt>
      <trkpt lat="45.8914450" lon="5.6945960">
        <ele>413.9</ele>
        <time>2022-07-26T11:14:50Z</time>
      </trkpt>
      <trkpt lat="45.8914310" lon="5.6945910">
        <ele>414.0</ele>
        <time>2022-07-26T11:14:51Z</time>
      </trkpt>
      <trkpt lat="45.8914180" lon="5.6945830">
        <ele>414.2</ele>
        <time>2022-07-26T11:14:52Z</time>
      </trkpt>
      <trkpt lat="45.8914100" lon="5.6945780">
        <ele>414.3</ele>
        <time>2022-07-26T11:14:53Z</time>
      </trkpt>
      <trkpt lat="45.8914040" lon="5.6945720">
        <ele>414.4</ele>
        <time>2022-07-26T11:14:54Z</time>
      </trkpt>
      <trkpt lat="45.8913940" lon="5.6945610">
        <ele>414.5</ele>
        <time>2022-07-26T11:14:55Z</time>
      </trkpt>
      <trkpt lat="45.8913860" lon="5.6945510">
        <ele>414.6</ele>
        <time>2022-07-26T11:14:56Z</time>
      </trkpt>
      <trkpt lat="45.8913810" lon="5.6945440">
        <ele>414.7</ele>
        <time>2022-07-26T11:14:57Z</time>
      </trkpt>
      <trkpt lat="45.8913730" lon="5.6945350">
        <ele>414.8</ele>
        <time>2022-07-26T11:14:58Z</time>
      </trkpt>
      <trkpt lat="45.8913670" lon="5.6945280">
        <ele>414.9</ele>
        <time>2022-07-26T11:14:59Z</time>
      </trkpt>
      <trkpt lat="45.8913570" lon="5.6945140">
        <ele>415.1</ele>
        <time>2022-07-26T11:15:00Z</time>
      </trkpt>
      <trkpt lat="45.8913520" lon="5.6945060">
        <ele>415.2</ele>
        <time>2022-07-26T11:15:01Z</time>
      </trkpt>
      <trkpt lat="45.8913470" lon="5.6944980">
        <ele>415.2</ele>
        <time>2022-07-26T11:15:02Z</time>
      </trkpt>
      <trkpt lat="45.8913420" lon="5.6944900">
        <ele>415.3</ele>
        <time>2022-07-26T11:15:03Z</time>
      </trkpt>
      <trkpt lat="45.8913380" lon="5.6944850">
        <ele>415.4</ele>
        <time>2022-07-26T11:15:04Z</time>
      </trkpt>
      <trkpt lat="45.8913290" lon="5.6944800">
        <ele>415.5</ele>
        <time>2022-07-26T11:15:05Z</time>
      </trkpt>
      <trkpt lat="45.8913240" lon="5.6944770">
        <ele>415.6</ele>
        <time>2022-07-26T11:15:06Z</time>
      </trkpt>
      <trkpt lat="45.8913250" lon="5.6944790">
        <ele>415.6</ele>
        <time>2022-07-26T11:15:07Z</time>
      </trkpt>
      <trkpt lat="45.8913200" lon="5.6944740">
        <ele>415.6</ele>
        <time>2022-07-26T11:15:08Z</time>
      </trkpt>
      <trkpt lat="45.8913140" lon="5.6944670">
        <ele>415.7</ele>
        <time>2022-07-26T11:15:09Z</time>
      </trkpt>
      <trkpt lat="45.8913080" lon="5.6944560">
        <ele>415.8</ele>
        <time>2022-07-26T11:15:10Z</time>
      </trkpt>
      <trkpt lat="45.8913010" lon="5.6944430">
        <ele>416.0</ele>
        <time>2022-07-26T11:15:11Z</time>
      </trkpt>
      <trkpt lat="45.8912940" lon="5.6944340">
        <ele>416.1</ele>
        <time>2022-07-26T11:15:12Z</time>
      </trkpt>
      <trkpt lat="45.8912800" lon="5.6944240">
        <ele>416.3</ele>
        <time>2022-07-26T11:15:13Z</time>
      </trkpt>
      <trkpt lat="45.8912680" lon="5.6944130">
        <ele>416.4</ele>
        <time>2022-07-26T11:15:14Z</time>
      </trkpt>
      <trkpt lat="45.8912450" lon="5.6943870">
        <ele>416.7</ele>
        <time>2022-07-26T11:15:15Z</time>
      </trkpt>
      <trkpt lat="45.8912370" lon="5.6943780">
        <ele>416.9</ele>
        <time>2022-07-26T11:15:16Z</time>
      </trkpt>
      <trkpt lat="45.8912110" lon="5.6943520">
        <ele>417.2</ele>
        <time>2022-07-26T11:15:17Z</time>
      </trkpt>
      <trkpt lat="45.8912030" lon="5.6943440">
        <ele>417.3</ele>
        <time>2022-07-26T11:15:18Z</time>
      </trkpt>
      <trkpt lat="45.8911760" lon="5.6943200">
        <ele>417.6</ele>
        <time>2022-07-26T11:15:19Z</time>
      </trkpt>
      <trkpt lat="45.8911700" lon="5.6943140">
        <ele>417.7</ele>
        <time>2022-07-26T11:15:20Z</time>
      </trkpt>
      <trkpt lat="45.8911570" lon="5.6943010">
        <ele>417.8</ele>
        <time>2022-07-26T11:15:21Z</time>
      </trkpt>
      <trkpt lat="45.8911420" lon="5.6942830">
        <ele>418.0</ele>
        <time>2022-07-26T11:15:22Z</time>
      </trkpt>
      <trkpt lat="45.8911180" lon="5.6942570">
        <ele>418.3</ele>
        <time>2022-07-26T11:15:23Z</time>
      </trkpt>
      <trkpt lat="45.8911120" lon="5.6942510">
        <ele>418.4</ele>
        <time>2022-07-26T11:15:24Z</time>
      </trkpt>
      <trkpt lat="45.8910940" lon="5.6942390">
        <ele>418.6</ele>
        <time>2022-07-26T11:15:25Z</time>
      </trkpt>
      <trkpt lat="45.8910820" lon="5.6942320">
        <ele>418.7</ele>
        <time>2022-07-26T11:15:26Z</time>
      </trkpt>
      <trkpt lat="45.8910710" lon="5.6942250">
        <ele>418.8</ele>
        <time>2022-07-26T11:15:27Z</time>
      </trkpt>
      <trkpt lat="45.8910570" lon="5.6942160">
        <ele>419.0</ele>
        <time>2022-07-26T11:15:28Z</time>
      </trkpt>
      <trkpt lat="45.8910460" lon="5.6942080">
        <ele>419.1</ele>
        <time>2022-07-26T11:15:29Z</time>
      </trkpt>
      <trkpt lat="45.8910330" lon="5.6941970">
        <ele>419.2</ele>
        <time>2022-07-26T11:15:30Z</time>
      </trkpt>
      <trkpt lat="45.8910180" lon="5.6941830">
        <ele>419.4</ele>
        <time>2022-07-26T11:15:31Z</time>
      </trkpt>
      <trkpt lat="45.8910000" lon="5.6941720">
        <ele>419.7</ele>
        <time>2022-07-26T11:15:32Z</time>
      </trkpt>
      <trkpt lat="45.8909910" lon="5.6941700">
        <ele>419.8</ele>
        <time>2022-07-26T11:15:33Z</time>
      </trkpt>
      <trkpt lat="45.8909820" lon="5.6941670">
        <ele>419.9</ele>
        <time>2022-07-26T11:15:34Z</time>
      </trkpt>
      <trkpt lat="45.8909640" lon="5.6941620">
        <ele>420.1</ele>
        <time>2022-07-26T11:15:35Z</time>
      </trkpt>
      <trkpt lat="45.8909490" lon="5.6941580">
        <ele>420.2</ele>
        <time>2022-07-26T11:15:36Z</time>
      </trkpt>
      <trkpt lat="45.8909350" lon="5.6941530">
        <ele>420.4</ele>
        <time>2022-07-26T11:15:37Z</time>
      </trkpt>
      <trkpt lat="45.8909170" lon="5.6941460">
        <ele>420.6</ele>
        <time>2022-07-26T11:15:38Z</time>
      </trkpt>
      <trkpt lat="45.8908980" lon="5.6941370">
        <ele>420.8</ele>
        <time>2022-07-26T11:15:39Z</time>
      </trkpt>
      <trkpt lat="45.8908850" lon="5.6941300">
        <ele>420.9</ele>
        <time>2022-07-26T11:15:40Z</time>
      </trkpt>
      <trkpt lat="45.8908730" lon="5.6941220">
        <ele>421.1</ele>
        <time>2022-07-26T11:15:41Z</time>
      </trkpt>
      <trkpt lat="45.8908590" lon="5.6941130">
        <ele>421.2</ele>
        <time>2022-07-26T11:15:42Z</time>
      </trkpt>
      <trkpt lat="45.8908430" lon="5.6940990">
        <ele>421.5</ele>
        <time>2022-07-26T11:15:43Z</time>
      </trkpt>
      <trkpt lat="45.8908340" lon="5.6940900">
        <ele>421.6</ele>
        <time>2022-07-26T11:15:44Z</time>
      </trkpt>
      <trkpt lat="45.8908250" lon="5.6940820">
        <ele>421.7</ele>
        <time>2022-07-26T11:15:45Z</time>
      </trkpt>
      <trkpt lat="45.8908090" lon="5.6940680">
        <ele>421.9</ele>
        <time>2022-07-26T11:15:46Z</time>
      </trkpt>
      <trkpt lat="45.8907950" lon="5.6940590">
        <ele>422.1</ele>
        <time>2022-07-26T11:15:47Z</time>
      </trkpt>
      <trkpt lat="45.8907740" lon="5.6940550">
        <ele>422.3</ele>
        <time>2022-07-26T11:15:48Z</time>
      </trkpt>
      <trkpt lat="45.8907650" lon="5.6940540">
        <ele>422.4</ele>
        <time>2022-07-26T11:15:49Z</time>
      </trkpt>
      <trkpt lat="45.8907570" lon="5.6940520">
        <ele>422.5</ele>
        <time>2022-07-26T11:15:50Z</time>
      </trkpt>
      <trkpt lat="45.8907300" lon="5.6940420">
        <ele>422.8</ele>
        <time>2022-07-26T11:15:51Z</time>
      </trkpt>
      <trkpt lat="45.8907210" lon="5.6940380">
        <ele>422.9</ele>
        <time>2022-07-26T11:15:52Z</time>
      </trkpt>
      <trkpt lat="45.8907080" lon="5.6940320">
        <ele>423.0</ele>
        <time>2022-07-26T11:15:53Z</time>
      </trkpt>
      <trkpt lat="45.8906890" lon="5.6940210">
        <ele>423.3</ele>
        <time>2022-07-26T11:15:54Z</time>
      </trkpt>
      <trkpt lat="45.8906560" lon="5.6940150">
        <ele>423.6</ele>
        <time>2022-07-26T11:15:55Z</time>
      </trkpt>
      <trkpt lat="45.8906460" lon="5.6940150">
        <ele>423.7</ele>
        <time>2022-07-26T11:15:56Z</time>
      </trkpt>
      <trkpt lat="45.8906260" lon="5.6940180">
        <ele>424.0</ele>
        <time>2022-07-26T11:15:57Z</time>
      </trkpt>
      <trkpt lat="45.8906130" lon="5.6940200">
        <ele>424.1</ele>
        <time>2022-07-26T11:15:58Z</time>
      </trkpt>
      <trkpt lat="45.8905980" lon="5.6940220">
        <ele>424.3</ele>
        <time>2022-07-26T11:15:59Z</time>
      </trkpt>
      <trkpt lat="45.8905810" lon="5.6940240">
        <ele>424.5</ele>
        <time>2022-07-26T11:16:00Z</time>
      </trkpt>
      <trkpt lat="45.8905700" lon="5.6940250">
        <ele>424.6</ele>
        <time>2022-07-26T11:16:01Z</time>
      </trkpt>
      <trkpt lat="45.8905610" lon="5.6940260">
        <ele>424.7</ele>
        <time>2022-07-26T11:16:02Z</time>
      </trkpt>
      <trkpt lat="45.8905480" lon="5.6940230">
        <ele>424.9</ele>
        <time>2022-07-26T11:16:03Z</time>
      </trkpt>
      <trkpt lat="45.8905280" lon="5.6940250">
        <ele>425.1</ele>
        <time>2022-07-26T11:16:04Z</time>
      </trkpt>
      <trkpt lat="45.8905160" lon="5.6940280">
        <ele>425.3</ele>
        <time>2022-07-26T11:16:05Z</time>
      </trkpt>
      <trkpt lat="45.8905040" lon="5.6940300">
        <ele>425.4</ele>
        <time>2022-07-26T11:16:06Z</time>
      </trkpt>
      <trkpt lat="45.8904790" lon="5.6940440">
        <ele>425.7</ele>
        <time>2022-07-26T11:16:07Z</time>
      </trkpt>
      <trkpt lat="45.8904700" lon="5.6940490">
        <ele>425.9</ele>
        <time>2022-07-26T11:16:08Z</time>
      </trkpt>
      <trkpt lat="45.8904430" lon="5.6940570">
        <ele>426.2</ele>
        <time>2022-07-26T11:16:09Z</time>
      </trkpt>
      <trkpt lat="45.8904340" lon="5.6940630">
        <ele>426.3</ele>
        <time>2022-07-26T11:16:10Z</time>
      </trkpt>
      <trkpt lat="45.8904050" lon="5.6940810">
        <ele>426.8</ele>
        <time>2022-07-26T11:16:11Z</time>
      </trkpt>
      <trkpt lat="45.8903980" lon="5.6940850">
        <ele>426.8</ele>
        <time>2022-07-26T11:16:12Z</time>
      </trkpt>
      <trkpt lat="45.8903840" lon="5.6940970">
        <ele>427.1</ele>
        <time>2022-07-26T11:16:13Z</time>
      </trkpt>
      <trkpt lat="45.8903710" lon="5.6941100">
        <ele>427.3</ele>
        <time>2022-07-26T11:16:14Z</time>
      </trkpt>
      <trkpt lat="45.8903630" lon="5.6941250">
        <ele>427.4</ele>
        <time>2022-07-26T11:16:15Z</time>
      </trkpt>
      <trkpt lat="45.8903540" lon="5.6941370">
        <ele>427.6</ele>
        <time>2022-07-26T11:16:16Z</time>
      </trkpt>
      <trkpt lat="45.8903470" lon="5.6941480">
        <ele>427.7</ele>
        <time>2022-07-26T11:16:17Z</time>
      </trkpt>
      <trkpt lat="45.8903400" lon="5.6941620">
        <ele>427.9</ele>
        <time>2022-07-26T11:16:18Z</time>
      </trkpt>
      <trkpt lat="45.8903280" lon="5.6941770">
        <ele>428.1</ele>
        <time>2022-07-26T11:16:19Z</time>
      </trkpt>
      <trkpt lat="45.8903130" lon="5.6941990">
        <ele>428.4</ele>
        <time>2022-07-26T11:16:20Z</time>
      </trkpt>
      <trkpt lat="45.8903060" lon="5.6942080">
        <ele>428.5</ele>
        <time>2022-07-26T11:16:21Z</time>
      </trkpt>
      <trkpt lat="45.8902990" lon="5.6942180">
        <ele>428.6</ele>
        <time>2022-07-26T11:16:22Z</time>
      </trkpt>
      <trkpt lat="45.8902940" lon="5.6942270">
        <ele>428.7</ele>
        <time>2022-07-26T11:16:23Z</time>
      </trkpt>
      <trkpt lat="45.8902880" lon="5.6942380">
        <ele>428.8</ele>
        <time>2022-07-26T11:16:24Z</time>
      </trkpt>
      <trkpt lat="45.8902830" lon="5.6942540">
        <ele>429.0</ele>
        <time>2022-07-26T11:16:25Z</time>
      </trkpt>
      <trkpt lat="45.8902810" lon="5.6942760">
        <ele>429.2</ele>
        <time>2022-07-26T11:16:26Z</time>
      </trkpt>
      <trkpt lat="45.8902800" lon="5.6942950">
        <ele>429.4</ele>
        <time>2022-07-26T11:16:27Z</time>
      </trkpt>
      <trkpt lat="45.8902800" lon="5.6943090">
        <ele>429.5</ele>
        <time>2022-07-26T11:16:28Z</time>
      </trkpt>
      <trkpt lat="45.8902800" lon="5.6943280">
        <ele>429.7</ele>
        <time>2022-07-26T11:16:29Z</time>
      </trkpt>
      <trkpt lat="45.8902810" lon="5.6943420">
        <ele>429.8</ele>
        <time>2022-07-26T11:16:30Z</time>
      </trkpt>
      <trkpt lat="45.8902780" lon="5.6943680">
        <ele>430.1</ele>
        <time>2022-07-26T11:16:31Z</time>
      </trkpt>
      <trkpt lat="45.8902770" lon="5.6943810">
        <ele>430.2</ele>
        <time>2022-07-26T11:16:32Z</time>
      </trkpt>
      <trkpt lat="45.8902750" lon="5.6943930">
        <ele>430.3</ele>
        <time>2022-07-26T11:16:33Z</time>
      </trkpt>
      <trkpt lat="45.8902710" lon="5.6944070">
        <ele>430.4</ele>
        <time>2022-07-26T11:16:34Z</time>
      </trkpt>
      <trkpt lat="45.8902680" lon="5.6944250">
        <ele>430.6</ele>
        <time>2022-07-26T11:16:35Z</time>
      </trkpt>
      <trkpt lat="45.8902680" lon="5.6944400">
        <ele>430.7</ele>
        <time>2022-07-26T11:16:36Z</time>
      </trkpt>
      <trkpt lat="45.8902670" lon="5.6944740">
        <ele>431.0</ele>
        <time>2022-07-26T11:16:37Z</time>
      </trkpt>
      <trkpt lat="45.8902670" lon="5.6944850">
        <ele>431.1</ele>
        <time>2022-07-26T11:16:38Z</time>
      </trkpt>
      <trkpt lat="45.8902660" lon="5.6944970">
        <ele>431.3</ele>
        <time>2022-07-26T11:16:39Z</time>
      </trkpt>
      <trkpt lat="45.8902650" lon="5.6945160">
        <ele>431.4</ele>
        <time>2022-07-26T11:16:40Z</time>
      </trkpt>
      <trkpt lat="45.8902640" lon="5.6945390">
        <ele>431.6</ele>
        <time>2022-07-26T11:16:41Z</time>
      </trkpt>
      <trkpt lat="45.8902630" lon="5.6945610">
        <ele>431.8</ele>
        <time>2022-07-26T11:16:42Z</time>
      </trkpt>
      <trkpt lat="45.8902620" lon="5.6945700">
        <ele>431.9</ele>
        <time>2022-07-26T11:16:43Z</time>
      </trkpt>
      <trkpt lat="45.8902610" lon="5.6945850">
        <ele>432.1</ele>
        <time>2022-07-26T11:16:44Z</time>
      </trkpt>
      <trkpt lat="45.8902610" lon="5.6946020">
        <ele>432.2</ele>
        <time>2022-07-26T11:16:45Z</time>
      </trkpt>
      <trkpt lat="45.8902610" lon="5.6946240">
        <ele>432.4</ele>
        <time>2022-07-26T11:16:46Z</time>
      </trkpt>
      <trkpt lat="45.8902610" lon="5.6946440">
        <ele>432.6</ele>
        <time>2022-07-26T11:16:47Z</time>
      </trkpt>
      <trkpt lat="45.8902600" lon="5.6946560">
        <ele>432.7</ele>
        <time>2022-07-26T11:16:48Z</time>
      </trkpt>
      <trkpt lat="45.8902600" lon="5.6946740">
        <ele>432.9</ele>
        <time>2022-07-26T11:16:49Z</time>
      </trkpt>
      <trkpt lat="45.8902620" lon="5.6947070">
        <ele>433.2</ele>
        <time>2022-07-26T11:16:50Z</time>
      </trkpt>
      <trkpt lat="45.8902640" lon="5.6947200">
        <ele>433.3</ele>
        <time>2022-07-26T11:16:51Z</time>
      </trkpt>
      <trkpt lat="45.8902650" lon="5.6947330">
        <ele>433.4</ele>
        <time>2022-07-26T11:16:52Z</time>
      </trkpt>
      <trkpt lat="45.8902700" lon="5.6947570">
        <ele>433.7</ele>
        <time>2022-07-26T11:16:53Z</time>
      </trkpt>
      <trkpt lat="45.8902720" lon="5.6947720">
        <ele>433.8</ele>
        <time>2022-07-26T11:16:54Z</time>
      </trkpt>
      <trkpt lat="45.8902750" lon="5.6947860">
        <ele>434.0</ele>
        <time>2022-07-26T11:16:55Z</time>
      </trkpt>
      <trkpt lat="45.8902770" lon="5.6947980">
        <ele>434.1</ele>
        <time>2022-07-26T11:16:56Z</time>
      </trkpt>
      <trkpt lat="45.8902780" lon="5.6948100">
        <ele>434.2</ele>
        <time>2022-07-26T11:16:57Z</time>
      </trkpt>
      <trkpt lat="45.8902800" lon="5.6948220">
        <ele>434.3</ele>
        <time>2022-07-26T11:16:58Z</time>
      </trkpt>
      <trkpt lat="45.8902810" lon="5.6948330">
        <ele>434.4</ele>
        <time>2022-07-26T11:16:59Z</time>
      </trkpt>
      <trkpt lat="45.8902820" lon="5.6948450">
        <ele>434.5</ele>
        <time>2022-07-26T11:17:00Z</time>
      </trkpt>
      <trkpt lat="45.8902820" lon="5.6948540">
        <ele>434.6</ele>
        <time>2022-07-26T11:17:01Z</time>
      </trkpt>
      <trkpt lat="45.8902830" lon="5.6948700">
        <ele>434.7</ele>
        <time>2022-07-26T11:17:02Z</time>
      </trkpt>
      <trkpt lat="45.8902860" lon="5.6948850">
        <ele>434.9</ele>
        <time>2022-07-26T11:17:03Z</time>
      </trkpt>
      <trkpt lat="45.8902890" lon="5.6949030">
        <ele>435.0</ele>
        <time>2022-07-26T11:17:04Z</time>
      </trkpt>
      <trkpt lat="45.8902930" lon="5.6949290">
        <ele>435.3</ele>
        <time>2022-07-26T11:17:05Z</time>
      </trkpt>
      <trkpt lat="45.8902930" lon="5.6949490">
        <ele>435.5</ele>
        <time>2022-07-26T11:17:06Z</time>
      </trkpt>
      <trkpt lat="45.8902920" lon="5.6949730">
        <ele>435.7</ele>
        <time>2022-07-26T11:17:07Z</time>
      </trkpt>
      <trkpt lat="45.8902880" lon="5.6949970">
        <ele>435.9</ele>
        <time>2022-07-26T11:17:08Z</time>
      </trkpt>
      <trkpt lat="45.8902860" lon="5.6950100">
        <ele>436.0</ele>
        <time>2022-07-26T11:17:09Z</time>
      </trkpt>
      <trkpt lat="45.8902840" lon="5.6950210">
        <ele>436.1</ele>
        <time>2022-07-26T11:17:10Z</time>
      </trkpt>
      <trkpt lat="45.8902790" lon="5.6950320">
        <ele>436.2</ele>
        <time>2022-07-26T11:17:11Z</time>
      </trkpt>
      <trkpt lat="45.8902780" lon="5.6950430">
        <ele>436.3</ele>
        <time>2022-07-26T11:17:12Z</time>
      </trkpt>
      <trkpt lat="45.8902770" lon="5.6950540">
        <ele>436.4</ele>
        <time>2022-07-26T11:17:13Z</time>
      </trkpt>
      <trkpt lat="45.8902770" lon="5.6950650">
        <ele>436.5</ele>
        <time>2022-07-26T11:17:14Z</time>
      </trkpt>
      <trkpt lat="45.8902760" lon="5.6950760">
        <ele>436.5</ele>
        <time>2022-07-26T11:17:15Z</time>
      </trkpt>
      <trkpt lat="45.8902760" lon="5.6951140">
        <ele>436.9</ele>
        <time>2022-07-26T11:17:16Z</time>
      </trkpt>
      <trkpt lat="45.8902760" lon="5.6951290">
        <ele>437.0</ele>
        <time>2022-07-26T11:17:17Z</time>
      </trkpt>
      <trkpt lat="45.8902780" lon="5.6951780">
        <ele>437.4</ele>
        <time>2022-07-26T11:17:18Z</time>
      </trkpt>
      <trkpt lat="45.8902790" lon="5.6951910">
        <ele>437.5</ele>
        <time>2022-07-26T11:17:19Z</time>
      </trkpt>
      <trkpt lat="45.8902840" lon="5.6952340">
        <ele>437.8</ele>
        <time>2022-07-26T11:17:20Z</time>
      </trkpt>
      <trkpt lat="45.8902860" lon="5.6952490">
        <ele>437.9</ele>
        <time>2022-07-26T11:17:21Z</time>
      </trkpt>
      <trkpt lat="45.8902880" lon="5.6952680">
        <ele>438.1</ele>
        <time>2022-07-26T11:17:22Z</time>
      </trkpt>
      <trkpt lat="45.8902890" lon="5.6952920">
        <ele>438.3</ele>
        <time>2022-07-26T11:17:23Z</time>
      </trkpt>
      <trkpt lat="45.8902890" lon="5.6953210">
        <ele>438.5</ele>
        <time>2022-07-26T11:17:24Z</time>
      </trkpt>
      <trkpt lat="45.8902880" lon="5.6953340">
        <ele>438.6</ele>
        <time>2022-07-26T11:17:25Z</time>
      </trkpt>
      <trkpt lat="45.8902880" lon="5.6953470">
        <ele>438.7</ele>
        <time>2022-07-26T11:17:26Z</time>
      </trkpt>
      <trkpt lat="45.8902870" lon="5.6953910">
        <ele>439.1</ele>
        <time>2022-07-26T11:17:27Z</time>
      </trkpt>
      <trkpt lat="45.8902860" lon="5.6954030">
        <ele>439.2</ele>
        <time>2022-07-26T11:17:28Z</time>
      </trkpt>
      <trkpt lat="45.8902840" lon="5.6954270">
        <ele>439.3</ele>
        <time>2022-07-26T11:17:29Z</time>
      </trkpt>
      <trkpt lat="45.8902820" lon="5.6954440">
        <ele>439.5</ele>
        <time>2022-07-26T11:17:30Z</time>
      </trkpt>
      <trkpt lat="45.8902760" lon="5.6954610">
        <ele>439.4</ele>
        <time>2022-07-26T11:17:31Z</time>
      </trkpt>
      <trkpt lat="45.8902650" lon="5.6954780">
        <ele>439.4</ele>
        <time>2022-07-26T11:17:32Z</time>
      </trkpt>
      <trkpt lat="45.8902510" lon="5.6954930">
        <ele>439.3</ele>
        <time>2022-07-26T11:17:33Z</time>
      </trkpt>
      <trkpt lat="45.8902350" lon="5.6955060">
        <ele>438.9</ele>
        <time>2022-07-26T11:17:34Z</time>
      </trkpt>
      <trkpt lat="45.8902040" lon="5.6955070">
        <ele>438.6</ele>
        <time>2022-07-26T11:17:35Z</time>
      </trkpt>
      <trkpt lat="45.8901910" lon="5.6955070">
        <ele>438.5</ele>
        <time>2022-07-26T11:17:36Z</time>
      </trkpt>
      <trkpt lat="45.8901550" lon="5.6955000">
        <ele>438.3</ele>
        <time>2022-07-26T11:17:37Z</time>
      </trkpt>
      <trkpt lat="45.8901260" lon="5.6954910">
        <ele>438.0</ele>
        <time>2022-07-26T11:17:38Z</time>
      </trkpt>
      <trkpt lat="45.8900870" lon="5.6954800">
        <ele>437.7</ele>
        <time>2022-07-26T11:17:39Z</time>
      </trkpt>
      <trkpt lat="45.8900750" lon="5.6954760">
        <ele>437.6</ele>
        <time>2022-07-26T11:17:40Z</time>
      </trkpt>
      <trkpt lat="45.8900570" lon="5.6954660">
        <ele>437.5</ele>
        <time>2022-07-26T11:17:41Z</time>
      </trkpt>
      <trkpt lat="45.8900420" lon="5.6954590">
        <ele>437.4</ele>
        <time>2022-07-26T11:17:42Z</time>
      </trkpt>
      <trkpt lat="45.8900270" lon="5.6954550">
        <ele>437.3</ele>
        <time>2022-07-26T11:17:43Z</time>
      </trkpt>
      <trkpt lat="45.8900190" lon="5.6954550">
        <ele>437.2</ele>
        <time>2022-07-26T11:17:44Z</time>
      </trkpt>
      <trkpt lat="45.8900110" lon="5.6954550">
        <ele>437.1</ele>
        <time>2022-07-26T11:17:45Z</time>
      </trkpt>
      <trkpt lat="45.8900040" lon="5.6954560">
        <ele>437.1</ele>
        <time>2022-07-26T11:17:46Z</time>
      </trkpt>
      <trkpt lat="45.8899920" lon="5.6954670">
        <ele>437.0</ele>
        <time>2022-07-26T11:17:47Z</time>
      </trkpt>
      <trkpt lat="45.8899880" lon="5.6954800">
        <ele>437.0</ele>
        <time>2022-07-26T11:17:48Z</time>
      </trkpt>
      <trkpt lat="45.8899870" lon="5.6954940">
        <ele>437.0</ele>
        <time>2022-07-26T11:17:49Z</time>
      </trkpt>
      <trkpt lat="45.8899970" lon="5.6955110">
        <ele>436.9</ele>
        <time>2022-07-26T11:17:50Z</time>
      </trkpt>
      <trkpt lat="45.8900010" lon="5.6955140">
        <ele>436.9</ele>
        <time>2022-07-26T11:17:51Z</time>
      </trkpt>
      <trkpt lat="45.8900030" lon="5.6955150">
        <ele>436.9</ele>
        <time>2022-07-26T11:17:52Z</time>
      </trkpt>
      <trkpt lat="45.8900050" lon="5.6955170">
        <ele>436.9</ele>
        <time>2022-07-26T11:17:53Z</time>
      </trkpt>
      <trkpt lat="45.8900060" lon="5.6955190">
        <ele>436.9</ele>
        <time>2022-07-26T11:17:54Z</time>
      </trkpt>
      <trkpt lat="45.8900050" lon="5.6955210">
        <ele>436.9</ele>
        <time>2022-07-26T11:17:55Z</time>
      </trkpt>
      <trkpt lat="45.8900040" lon="5.6955230">
        <ele>436.9</ele>
        <time>2022-07-26T11:17:56Z</time>
      </trkpt>
      <trkpt lat="45.8900030" lon="5.6955240">
        <ele>436.9</ele>
        <time>2022-07-26T11:17:57Z</time>
      </trkpt>
      <trkpt lat="45.8900020" lon="5.6955250">
        <ele>436.9</ele>
        <time>2022-07-26T11:17:58Z</time>
      </trkpt>
      <trkpt lat="45.8900010" lon="5.6955270">
        <ele>436.9</ele>
        <time>2022-07-26T11:17:59Z</time>
      </trkpt>
      <trkpt lat="45.8899530" lon="5.6955350">
        <ele>436.7</ele>
        <time>2022-07-26T11:18:36Z</time>
      </trkpt>
      <trkpt lat="45.8899410" lon="5.6955410">
        <ele>436.7</ele>
        <time>2022-07-26T11:18:37Z</time>
      </trkpt>
      <trkpt lat="45.8899250" lon="5.6955450">
        <ele>436.7</ele>
        <time>2022-07-26T11:18:38Z</time>
      </trkpt>
      <trkpt lat="45.8898970" lon="5.6955500">
        <ele>436.6</ele>
        <time>2022-07-26T11:18:39Z</time>
      </trkpt>
      <trkpt lat="45.8898880" lon="5.6955500">
        <ele>436.6</ele>
        <time>2022-07-26T11:18:40Z</time>
      </trkpt>
      <trkpt lat="45.8898740" lon="5.6955490">
        <ele>436.6</ele>
        <time>2022-07-26T11:18:41Z</time>
      </trkpt>
      <trkpt lat="45.8898520" lon="5.6955470">
        <ele>436.7</ele>
        <time>2022-07-26T11:18:42Z</time>
      </trkpt>
      <trkpt lat="45.8898220" lon="5.6955450">
        <ele>436.7</ele>
        <time>2022-07-26T11:18:43Z</time>
      </trkpt>
      <trkpt lat="45.8898120" lon="5.6955440">
        <ele>436.7</ele>
        <time>2022-07-26T11:18:44Z</time>
      </trkpt>
      <trkpt lat="45.8897990" lon="5.6955420">
        <ele>436.7</ele>
        <time>2022-07-26T11:18:45Z</time>
      </trkpt>
      <trkpt lat="45.8897790" lon="5.6955380">
        <ele>436.8</ele>
        <time>2022-07-26T11:18:46Z</time>
      </trkpt>
      <trkpt lat="45.8897620" lon="5.6955340">
        <ele>436.9</ele>
        <time>2022-07-26T11:18:47Z</time>
      </trkpt>
      <trkpt lat="45.8897460" lon="5.6955320">
        <ele>436.9</ele>
        <time>2022-07-26T11:18:48Z</time>
      </trkpt>
      <trkpt lat="45.8897280" lon="5.6955350">
        <ele>437.0</ele>
        <time>2022-07-26T11:18:49Z</time>
      </trkpt>
      <trkpt lat="45.8897130" lon="5.6955390">
        <ele>437.1</ele>
        <time>2022-07-26T11:18:50Z</time>
      </trkpt>
      <trkpt lat="45.8896970" lon="5.6955410">
        <ele>437.2</ele>
        <time>2022-07-26T11:18:51Z</time>
      </trkpt>
      <trkpt lat="45.8896840" lon="5.6955420">
        <ele>437.2</ele>
        <time>2022-07-26T11:18:52Z</time>
      </trkpt>
      <trkpt lat="45.8896620" lon="5.6955440">
        <ele>437.4</ele>
        <time>2022-07-26T11:18:53Z</time>
      </trkpt>
      <trkpt lat="45.8896520" lon="5.6955450">
        <ele>437.4</ele>
        <time>2022-07-26T11:18:54Z</time>
      </trkpt>
      <trkpt lat="45.8896410" lon="5.6955470">
        <ele>437.5</ele>
        <time>2022-07-26T11:18:55Z</time>
      </trkpt>
      <trkpt lat="45.8896260" lon="5.6955530">
        <ele>437.6</ele>
        <time>2022-07-26T11:18:56Z</time>
      </trkpt>
      <trkpt lat="45.8896140" lon="5.6955580">
        <ele>437.6</ele>
        <time>2022-07-26T11:18:57Z</time>
      </trkpt>
      <trkpt lat="45.8896020" lon="5.6955650">
        <ele>437.7</ele>
        <time>2022-07-26T11:18:58Z</time>
      </trkpt>
      <trkpt lat="45.8895920" lon="5.6955760">
        <ele>437.8</ele>
        <time>2022-07-26T11:18:59Z</time>
      </trkpt>
      <trkpt lat="45.8895890" lon="5.6955810">
        <ele>437.8</ele>
        <time>2022-07-26T11:19:00Z</time>
      </trkpt>
      <trkpt lat="45.8895840" lon="5.6955900">
        <ele>437.8</ele>
        <time>2022-07-26T11:19:01Z</time>
      </trkpt>
      <trkpt lat="45.8895810" lon="5.6956030">
        <ele>438.0</ele>
        <time>2022-07-26T11:19:02Z</time>
      </trkpt>
      <trkpt lat="45.8895750" lon="5.6956150">
        <ele>438.1</ele>
        <time>2022-07-26T11:19:03Z</time>
      </trkpt>
      <trkpt lat="45.8895720" lon="5.6956240">
        <ele>438.2</ele>
        <time>2022-07-26T11:19:04Z</time>
      </trkpt>
      <trkpt lat="45.8895690" lon="5.6956360">
        <ele>438.3</ele>
        <time>2022-07-26T11:19:05Z</time>
      </trkpt>
      <trkpt lat="45.8895700" lon="5.6956530">
        <ele>438.4</ele>
        <time>2022-07-26T11:19:06Z</time>
      </trkpt>
      <trkpt lat="45.8895730" lon="5.6956670">
        <ele>438.5</ele>
        <time>2022-07-26T11:19:07Z</time>
      </trkpt>
      <trkpt lat="45.8895740" lon="5.6956860">
        <ele>438.7</ele>
        <time>2022-07-26T11:19:08Z</time>
      </trkpt>
      <trkpt lat="45.8895750" lon="5.6957000">
        <ele>438.8</ele>
        <time>2022-07-26T11:19:09Z</time>
      </trkpt>
      <trkpt lat="45.8895750" lon="5.6957100">
        <ele>438.9</ele>
        <time>2022-07-26T11:19:10Z</time>
      </trkpt>
      <trkpt lat="45.8895770" lon="5.6957200">
        <ele>439.0</ele>
        <time>2022-07-26T11:19:11Z</time>
      </trkpt>
      <trkpt lat="45.8895810" lon="5.6957310">
        <ele>439.1</ele>
        <time>2022-07-26T11:19:12Z</time>
      </trkpt>
      <trkpt lat="45.8895840" lon="5.6957470">
        <ele>439.2</ele>
        <time>2022-07-26T11:19:13Z</time>
      </trkpt>
      <trkpt lat="45.8895850" lon="5.6957640">
        <ele>439.4</ele>
        <time>2022-07-26T11:19:14Z</time>
      </trkpt>
      <trkpt lat="45.8895830" lon="5.6957770">
        <ele>439.5</ele>
        <time>2022-07-26T11:19:15Z</time>
      </trkpt>
      <trkpt lat="45.8895810" lon="5.6957920">
        <ele>439.6</ele>
        <time>2022-07-26T11:19:16Z</time>
      </trkpt>
      <trkpt lat="45.8895790" lon="5.6958120">
        <ele>439.8</ele>
        <time>2022-07-26T11:19:17Z</time>
      </trkpt>
      <trkpt lat="45.8895780" lon="5.6958240">
        <ele>439.9</ele>
        <time>2022-07-26T11:19:18Z</time>
      </trkpt>
      <trkpt lat="45.8895780" lon="5.6958360">
        <ele>440.1</ele>
        <time>2022-07-26T11:19:19Z</time>
      </trkpt>
      <trkpt lat="45.8895770" lon="5.6958470">
        <ele>440.2</ele>
        <time>2022-07-26T11:19:20Z</time>
      </trkpt>
      <trkpt lat="45.8895770" lon="5.6958810">
        <ele>440.5</ele>
        <time>2022-07-26T11:19:21Z</time>
      </trkpt>
      <trkpt lat="45.8895760" lon="5.6958920">
        <ele>440.6</ele>
        <time>2022-07-26T11:19:22Z</time>
      </trkpt>
      <trkpt lat="45.8895760" lon="5.6959020">
        <ele>440.7</ele>
        <time>2022-07-26T11:19:23Z</time>
      </trkpt>
      <trkpt lat="45.8895770" lon="5.6959290">
        <ele>441.0</ele>
        <time>2022-07-26T11:19:25Z</time>
      </trkpt>
      <trkpt lat="45.8895780" lon="5.6959420">
        <ele>441.1</ele>
        <time>2022-07-26T11:19:26Z</time>
      </trkpt>
      <trkpt lat="45.8895800" lon="5.6959550">
        <ele>441.2</ele>
        <time>2022-07-26T11:19:27Z</time>
      </trkpt>
      <trkpt lat="45.8895820" lon="5.6959840">
        <ele>441.5</ele>
        <time>2022-07-26T11:19:28Z</time>
      </trkpt>
      <trkpt lat="45.8895840" lon="5.6959980">
        <ele>441.6</ele>
        <time>2022-07-26T11:19:30Z</time>
      </trkpt>
      <trkpt lat="45.8895850" lon="5.6960120">
        <ele>441.8</ele>
        <time>2022-07-26T11:19:31Z</time>
      </trkpt>
      <trkpt lat="45.8895910" lon="5.6960460">
        <ele>442.1</ele>
        <time>2022-07-26T11:19:32Z</time>
      </trkpt>
      <trkpt lat="45.8895920" lon="5.6960570">
        <ele>442.2</ele>
        <time>2022-07-26T11:19:33Z</time>
      </trkpt>
      <trkpt lat="45.8895930" lon="5.6960680">
        <ele>442.3</ele>
        <time>2022-07-26T11:19:34Z</time>
      </trkpt>
      <trkpt lat="45.8895940" lon="5.6960790">
        <ele>442.5</ele>
        <time>2022-07-26T11:19:35Z</time>
      </trkpt>
      <trkpt lat="45.8895920" lon="5.6961030">
        <ele>442.7</ele>
        <time>2022-07-26T11:19:37Z</time>
      </trkpt>
      <trkpt lat="45.8895930" lon="5.6961260">
        <ele>442.9</ele>
        <time>2022-07-26T11:19:38Z</time>
      </trkpt>
      <trkpt lat="45.8895950" lon="5.6961730">
        <ele>443.3</ele>
        <time>2022-07-26T11:19:39Z</time>
      </trkpt>
      <trkpt lat="45.8895960" lon="5.6961900">
        <ele>443.5</ele>
        <time>2022-07-26T11:19:40Z</time>
      </trkpt>
      <trkpt lat="45.8895950" lon="5.6962140">
        <ele>443.7</ele>
        <time>2022-07-26T11:19:42Z</time>
      </trkpt>
      <trkpt lat="45.8895900" lon="5.6962320">
        <ele>443.9</ele>
        <time>2022-07-26T11:19:43Z</time>
      </trkpt>
      <trkpt lat="45.8895910" lon="5.6962480">
        <ele>444.1</ele>
        <time>2022-07-26T11:19:44Z</time>
      </trkpt>
      <trkpt lat="45.8895980" lon="5.6962780">
        <ele>444.3</ele>
        <time>2022-07-26T11:19:46Z</time>
      </trkpt>
      <trkpt lat="45.8895980" lon="5.6962930">
        <ele>444.5</ele>
        <time>2022-07-26T11:19:47Z</time>
      </trkpt>
      <trkpt lat="45.8895960" lon="5.6962900">
        <ele>444.5</ele>
        <time>2022-07-26T11:19:48Z</time>
      </trkpt>
      <trkpt lat="45.8895940" lon="5.6962950">
        <ele>444.6</ele>
        <time>2022-07-26T11:19:49Z</time>
      </trkpt>
      <trkpt lat="45.8895960" lon="5.6963100">
        <ele>444.7</ele>
        <time>2022-07-26T11:19:50Z</time>
      </trkpt>
      <trkpt lat="45.8895980" lon="5.6963290">
        <ele>444.9</ele>
        <time>2022-07-26T11:19:51Z</time>
      </trkpt>
      <trkpt lat="45.8896020" lon="5.6963570">
        <ele>445.1</ele>
        <time>2022-07-26T11:19:52Z</time>
      </trkpt>
      <trkpt lat="45.8896030" lon="5.6963720">
        <ele>445.2</ele>
        <time>2022-07-26T11:19:53Z</time>
      </trkpt>
      <trkpt lat="45.8896050" lon="5.6963870">
        <ele>445.3</ele>
        <time>2022-07-26T11:19:54Z</time>
      </trkpt>
      <trkpt lat="45.8896100" lon="5.6964150">
        <ele>445.5</ele>
        <time>2022-07-26T11:19:56Z</time>
      </trkpt>
      <trkpt lat="45.8896130" lon="5.6964310">
        <ele>445.6</ele>
        <time>2022-07-26T11:19:57Z</time>
      </trkpt>
      <trkpt lat="45.8896160" lon="5.6964460">
        <ele>445.7</ele>
        <time>2022-07-26T11:19:58Z</time>
      </trkpt>
      <trkpt lat="45.8896230" lon="5.6964710">
        <ele>445.9</ele>
        <time>2022-07-26T11:19:59Z</time>
      </trkpt>
      <trkpt lat="45.8896320" lon="5.6965030">
        <ele>446.1</ele>
        <time>2022-07-26T11:20:00Z</time>
      </trkpt>
      <trkpt lat="45.8896370" lon="5.6965280">
        <ele>446.3</ele>
        <time>2022-07-26T11:20:02Z</time>
      </trkpt>
      <trkpt lat="45.8896420" lon="5.6965530">
        <ele>446.4</ele>
        <time>2022-07-26T11:20:03Z</time>
      </trkpt>
      <trkpt lat="45.8896460" lon="5.6965790">
        <ele>446.6</ele>
        <time>2022-07-26T11:20:04Z</time>
      </trkpt>
      <trkpt lat="45.8896580" lon="5.6966230">
        <ele>446.9</ele>
        <time>2022-07-26T11:20:06Z</time>
      </trkpt>
      <trkpt lat="45.8896670" lon="5.6966440">
        <ele>447.0</ele>
        <time>2022-07-26T11:20:07Z</time>
      </trkpt>
      <trkpt lat="45.8896750" lon="5.6966620">
        <ele>447.2</ele>
        <time>2022-07-26T11:20:08Z</time>
      </trkpt>
      <trkpt lat="45.8896790" lon="5.6966840">
        <ele>447.3</ele>
        <time>2022-07-26T11:20:09Z</time>
      </trkpt>
      <trkpt lat="45.8896790" lon="5.6967050">
        <ele>447.5</ele>
        <time>2022-07-26T11:20:10Z</time>
      </trkpt>
      <trkpt lat="45.8896810" lon="5.6967280">
        <ele>447.6</ele>
        <time>2022-07-26T11:20:11Z</time>
      </trkpt>
      <trkpt lat="45.8896840" lon="5.6967520">
        <ele>447.8</ele>
        <time>2022-07-26T11:20:12Z</time>
      </trkpt>
      <trkpt lat="45.8896900" lon="5.6967950">
        <ele>448.1</ele>
        <time>2022-07-26T11:20:13Z</time>
      </trkpt>
      <trkpt lat="45.8896920" lon="5.6968100">
        <ele>448.2</ele>
        <time>2022-07-26T11:20:14Z</time>
      </trkpt>
      <trkpt lat="45.8896960" lon="5.6968650">
        <ele>448.6</ele>
        <time>2022-07-26T11:20:16Z</time>
      </trkpt>
      <trkpt lat="45.8896970" lon="5.6969050">
        <ele>448.8</ele>
        <time>2022-07-26T11:20:17Z</time>
      </trkpt>
      <trkpt lat="45.8896940" lon="5.6969460">
        <ele>449.1</ele>
        <time>2022-07-26T11:20:18Z</time>
      </trkpt>
      <trkpt lat="45.8896890" lon="5.6969970">
        <ele>449.5</ele>
        <time>2022-07-26T11:20:20Z</time>
      </trkpt>
      <trkpt lat="45.8896840" lon="5.6970420">
        <ele>449.8</ele>
        <time>2022-07-26T11:20:21Z</time>
      </trkpt>
      <trkpt lat="45.8896800" lon="5.6970670">
        <ele>449.9</ele>
        <time>2022-07-26T11:20:22Z</time>
      </trkpt>
      <trkpt lat="45.8896750" lon="5.6970920">
        <ele>450.1</ele>
        <time>2022-07-26T11:20:23Z</time>
      </trkpt>
      <trkpt lat="45.8896670" lon="5.6971270">
        <ele>450.4</ele>
        <time>2022-07-26T11:20:24Z</time>
      </trkpt>
      <trkpt lat="45.8896570" lon="5.6971650">
        <ele>450.7</ele>
        <time>2022-07-26T11:20:26Z</time>
      </trkpt>
      <trkpt lat="45.8896530" lon="5.6972040">
        <ele>451.0</ele>
        <time>2022-07-26T11:20:27Z</time>
      </trkpt>
      <trkpt lat="45.8896510" lon="5.6972170">
        <ele>451.1</ele>
        <time>2022-07-26T11:20:28Z</time>
      </trkpt>
      <trkpt lat="45.8896500" lon="5.6972580">
        <ele>451.4</ele>
        <time>2022-07-26T11:20:29Z</time>
      </trkpt>
      <trkpt lat="45.8896460" lon="5.6972920">
        <ele>451.7</ele>
        <time>2022-07-26T11:20:31Z</time>
      </trkpt>
      <trkpt lat="45.8896470" lon="5.6973070">
        <ele>451.8</ele>
        <time>2022-07-26T11:20:32Z</time>
      </trkpt>
      <trkpt lat="45.8896440" lon="5.6973190">
        <ele>451.9</ele>
        <time>2022-07-26T11:20:33Z</time>
      </trkpt>
      <trkpt lat="45.8896370" lon="5.6973550">
        <ele>452.1</ele>
        <time>2022-07-26T11:20:34Z</time>
      </trkpt>
      <trkpt lat="45.8896220" lon="5.6973970">
        <ele>452.4</ele>
        <time>2022-07-26T11:20:36Z</time>
      </trkpt>
      <trkpt lat="45.8896190" lon="5.6974100">
        <ele>452.5</ele>
        <time>2022-07-26T11:20:37Z</time>
      </trkpt>
      <trkpt lat="45.8896040" lon="5.6974480">
        <ele>452.8</ele>
        <time>2022-07-26T11:20:39Z</time>
      </trkpt>
      <trkpt lat="45.8895940" lon="5.6974710">
        <ele>453.0</ele>
        <time>2022-07-26T11:20:40Z</time>
      </trkpt>
      <trkpt lat="45.8895820" lon="5.6974840">
        <ele>453.2</ele>
        <time>2022-07-26T11:20:41Z</time>
      </trkpt>
      <trkpt lat="45.8895720" lon="5.6974970">
        <ele>453.3</ele>
        <time>2022-07-26T11:20:42Z</time>
      </trkpt>
      <trkpt lat="45.8895590" lon="5.6975200">
        <ele>453.6</ele>
        <time>2022-07-26T11:20:43Z</time>
      </trkpt>
      <trkpt lat="45.8895520" lon="5.6975390">
        <ele>453.7</ele>
        <time>2022-07-26T11:20:44Z</time>
      </trkpt>
      <trkpt lat="45.8895440" lon="5.6975570">
        <ele>453.9</ele>
        <time>2022-07-26T11:20:45Z</time>
      </trkpt>
      <trkpt lat="45.8895320" lon="5.6975950">
        <ele>454.2</ele>
        <time>2022-07-26T11:20:47Z</time>
      </trkpt>
      <trkpt lat="45.8895280" lon="5.6976090">
        <ele>454.3</ele>
        <time>2022-07-26T11:20:48Z</time>
      </trkpt>
      <trkpt lat="45.8895180" lon="5.6976340">
        <ele>454.4</ele>
        <time>2022-07-26T11:20:50Z</time>
      </trkpt>
      <trkpt lat="45.8895030" lon="5.6976470">
        <ele>454.6</ele>
        <time>2022-07-26T11:20:51Z</time>
      </trkpt>
      <trkpt lat="45.8894780" lon="5.6976680">
        <ele>454.9</ele>
        <time>2022-07-26T11:20:52Z</time>
      </trkpt>
      <trkpt lat="45.8894690" lon="5.6976780">
        <ele>455.0</ele>
        <time>2022-07-26T11:20:53Z</time>
      </trkpt>
      <trkpt lat="45.8894400" lon="5.6977110">
        <ele>455.2</ele>
        <time>2022-07-26T11:20:54Z</time>
      </trkpt>
      <trkpt lat="45.8894300" lon="5.6977250">
        <ele>455.3</ele>
        <time>2022-07-26T11:20:55Z</time>
      </trkpt>
      <trkpt lat="45.8894090" lon="5.6977530">
        <ele>455.4</ele>
        <time>2022-07-26T11:20:56Z</time>
      </trkpt>
      <trkpt lat="45.8893900" lon="5.6977830">
        <ele>455.6</ele>
        <time>2022-07-26T11:20:57Z</time>
      </trkpt>
      <trkpt lat="45.8893720" lon="5.6978120">
        <ele>455.7</ele>
        <time>2022-07-26T11:20:58Z</time>
      </trkpt>
      <trkpt lat="45.8893530" lon="5.6978470">
        <ele>455.8</ele>
        <time>2022-07-26T11:20:59Z</time>
      </trkpt>
      <trkpt lat="45.8893320" lon="5.6978940">
        <ele>456.0</ele>
        <time>2022-07-26T11:21:00Z</time>
      </trkpt>
      <trkpt lat="45.8893260" lon="5.6979100">
        <ele>456.1</ele>
        <time>2022-07-26T11:21:01Z</time>
      </trkpt>
      <trkpt lat="45.8893130" lon="5.6979590">
        <ele>456.2</ele>
        <time>2022-07-26T11:21:02Z</time>
      </trkpt>
      <trkpt lat="45.8893090" lon="5.6979790">
        <ele>456.3</ele>
        <time>2022-07-26T11:21:03Z</time>
      </trkpt>
      <trkpt lat="45.8893000" lon="5.6980320">
        <ele>456.5</ele>
        <time>2022-07-26T11:21:04Z</time>
      </trkpt>
      <trkpt lat="45.8892980" lon="5.6980480">
        <ele>456.5</ele>
        <time>2022-07-26T11:21:05Z</time>
      </trkpt>
      <trkpt lat="45.8892890" lon="5.6981030">
        <ele>456.7</ele>
        <time>2022-07-26T11:21:06Z</time>
      </trkpt>
      <trkpt lat="45.8892870" lon="5.6981220">
        <ele>456.8</ele>
        <time>2022-07-26T11:21:07Z</time>
      </trkpt>
      <trkpt lat="45.8892840" lon="5.6981800">
        <ele>457.0</ele>
        <time>2022-07-26T11:21:09Z</time>
      </trkpt>
      <trkpt lat="45.8892840" lon="5.6982240">
        <ele>457.1</ele>
        <time>2022-07-26T11:21:10Z</time>
      </trkpt>
      <trkpt lat="45.8892830" lon="5.6982380">
        <ele>457.2</ele>
        <time>2022-07-26T11:21:11Z</time>
      </trkpt>
      <trkpt lat="45.8892820" lon="5.6982860">
        <ele>457.4</ele>
        <time>2022-07-26T11:21:12Z</time>
      </trkpt>
      <trkpt lat="45.8892810" lon="5.6983030">
        <ele>457.4</ele>
        <time>2022-07-26T11:21:13Z</time>
      </trkpt>
      <trkpt lat="45.8892850" lon="5.6983580">
        <ele>457.6</ele>
        <time>2022-07-26T11:21:14Z</time>
      </trkpt>
      <trkpt lat="45.8892860" lon="5.6983770">
        <ele>457.7</ele>
        <time>2022-07-26T11:21:15Z</time>
      </trkpt>
      <trkpt lat="45.8892850" lon="5.6984210">
        <ele>457.8</ele>
        <time>2022-07-26T11:21:16Z</time>
      </trkpt>
      <trkpt lat="45.8892840" lon="5.6984330">
        <ele>457.9</ele>
        <time>2022-07-26T11:21:17Z</time>
      </trkpt>
      <trkpt lat="45.8892790" lon="5.6984850">
        <ele>458.1</ele>
        <time>2022-07-26T11:21:18Z</time>
      </trkpt>
      <trkpt lat="45.8892780" lon="5.6985030">
        <ele>458.1</ele>
        <time>2022-07-26T11:21:19Z</time>
      </trkpt>
      <trkpt lat="45.8892750" lon="5.6985510">
        <ele>458.3</ele>
        <time>2022-07-26T11:21:20Z</time>
      </trkpt>
      <trkpt lat="45.8892750" lon="5.6985670">
        <ele>458.4</ele>
        <time>2022-07-26T11:21:21Z</time>
      </trkpt>
      <trkpt lat="45.8892730" lon="5.6986140">
        <ele>458.5</ele>
        <time>2022-07-26T11:21:22Z</time>
      </trkpt>
      <trkpt lat="45.8892730" lon="5.6986300">
        <ele>458.6</ele>
        <time>2022-07-26T11:21:23Z</time>
      </trkpt>
      <trkpt lat="45.8892700" lon="5.6986850">
        <ele>458.8</ele>
        <time>2022-07-26T11:21:24Z</time>
      </trkpt>
      <trkpt lat="45.8892680" lon="5.6987040">
        <ele>458.9</ele>
        <time>2022-07-26T11:21:25Z</time>
      </trkpt>
      <trkpt lat="45.8892640" lon="5.6987560">
        <ele>459.1</ele>
        <time>2022-07-26T11:21:26Z</time>
      </trkpt>
      <trkpt lat="45.8892630" lon="5.6987700">
        <ele>459.1</ele>
        <time>2022-07-26T11:21:27Z</time>
      </trkpt>
      <trkpt lat="45.8892590" lon="5.6988170">
        <ele>459.3</ele>
        <time>2022-07-26T11:21:28Z</time>
      </trkpt>
      <trkpt lat="45.8892580" lon="5.6988320">
        <ele>459.3</ele>
        <time>2022-07-26T11:21:29Z</time>
      </trkpt>
      <trkpt lat="45.8892560" lon="5.6988730">
        <ele>459.5</ele>
        <time>2022-07-26T11:21:30Z</time>
      </trkpt>
      <trkpt lat="45.8892550" lon="5.6988870">
        <ele>459.6</ele>
        <time>2022-07-26T11:21:31Z</time>
      </trkpt>
      <trkpt lat="45.8892500" lon="5.6989310">
        <ele>459.7</ele>
        <time>2022-07-26T11:21:32Z</time>
      </trkpt>
      <trkpt lat="45.8892490" lon="5.6989440">
        <ele>459.8</ele>
        <time>2022-07-26T11:21:33Z</time>
      </trkpt>
      <trkpt lat="45.8892470" lon="5.6989960">
        <ele>460.0</ele>
        <time>2022-07-26T11:21:34Z</time>
      </trkpt>
      <trkpt lat="45.8892470" lon="5.6990100">
        <ele>460.0</ele>
        <time>2022-07-26T11:21:35Z</time>
      </trkpt>
      <trkpt lat="45.8892480" lon="5.6990570">
        <ele>460.2</ele>
        <time>2022-07-26T11:21:36Z</time>
      </trkpt>
      <trkpt lat="45.8892480" lon="5.6990730">
        <ele>460.3</ele>
        <time>2022-07-26T11:21:37Z</time>
      </trkpt>
      <trkpt lat="45.8892460" lon="5.6991430">
        <ele>460.6</ele>
        <time>2022-07-26T11:21:39Z</time>
      </trkpt>
      <trkpt lat="45.8892440" lon="5.6991960">
        <ele>460.8</ele>
        <time>2022-07-26T11:21:40Z</time>
      </trkpt>
      <trkpt lat="45.8892430" lon="5.6992120">
        <ele>460.8</ele>
        <time>2022-07-26T11:21:41Z</time>
      </trkpt>
      <trkpt lat="45.8892410" lon="5.6992610">
        <ele>461.0</ele>
        <time>2022-07-26T11:21:42Z</time>
      </trkpt>
      <trkpt lat="45.8892400" lon="5.6992790">
        <ele>461.1</ele>
        <time>2022-07-26T11:21:43Z</time>
      </trkpt>
      <trkpt lat="45.8892370" lon="5.6993250">
        <ele>461.3</ele>
        <time>2022-07-26T11:21:44Z</time>
      </trkpt>
      <trkpt lat="45.8892340" lon="5.6993390">
        <ele>461.4</ele>
        <time>2022-07-26T11:21:45Z</time>
      </trkpt>
      <trkpt lat="45.8892300" lon="5.6993810">
        <ele>461.5</ele>
        <time>2022-07-26T11:21:46Z</time>
      </trkpt>
      <trkpt lat="45.8892280" lon="5.6993950">
        <ele>461.6</ele>
        <time>2022-07-26T11:21:47Z</time>
      </trkpt>
      <trkpt lat="45.8892270" lon="5.6994370">
        <ele>461.8</ele>
        <time>2022-07-26T11:21:48Z</time>
      </trkpt>
      <trkpt lat="45.8892270" lon="5.6994510">
        <ele>461.8</ele>
        <time>2022-07-26T11:21:49Z</time>
      </trkpt>
      <trkpt lat="45.8892250" lon="5.6994950">
        <ele>462.0</ele>
        <time>2022-07-26T11:21:50Z</time>
      </trkpt>
      <trkpt lat="45.8892250" lon="5.6995090">
        <ele>462.1</ele>
        <time>2022-07-26T11:21:51Z</time>
      </trkpt>
      <trkpt lat="45.8892220" lon="5.6995520">
        <ele>462.3</ele>
        <time>2022-07-26T11:21:52Z</time>
      </trkpt>
      <trkpt lat="45.8892220" lon="5.6995680">
        <ele>462.3</ele>
        <time>2022-07-26T11:21:53Z</time>
      </trkpt>
      <trkpt lat="45.8892170" lon="5.6996100">
        <ele>462.5</ele>
        <time>2022-07-26T11:21:54Z</time>
      </trkpt>
      <trkpt lat="45.8892160" lon="5.6996240">
        <ele>462.6</ele>
        <time>2022-07-26T11:21:55Z</time>
      </trkpt>
      <trkpt lat="45.8892160" lon="5.6996520">
        <ele>462.7</ele>
        <time>2022-07-26T11:21:56Z</time>
      </trkpt>
      <trkpt lat="45.8892170" lon="5.6996750">
        <ele>462.8</ele>
        <time>2022-07-26T11:21:57Z</time>
      </trkpt>
      <trkpt lat="45.8892190" lon="5.6997170">
        <ele>463.0</ele>
        <time>2022-07-26T11:21:58Z</time>
      </trkpt>
      <trkpt lat="45.8892200" lon="5.6997290">
        <ele>463.1</ele>
        <time>2022-07-26T11:21:59Z</time>
      </trkpt>
      <trkpt lat="45.8892160" lon="5.6997730">
        <ele>463.3</ele>
        <time>2022-07-26T11:22:00Z</time>
      </trkpt>
      <trkpt lat="45.8892060" lon="5.6998200">
        <ele>463.5</ele>
        <time>2022-07-26T11:22:01Z</time>
      </trkpt>
      <trkpt lat="45.8892010" lon="5.6998320">
        <ele>463.6</ele>
        <time>2022-07-26T11:22:02Z</time>
      </trkpt>
      <trkpt lat="45.8891820" lon="5.6998640">
        <ele>463.8</ele>
        <time>2022-07-26T11:22:03Z</time>
      </trkpt>
      <trkpt lat="45.8891550" lon="5.6998840">
        <ele>464.1</ele>
        <time>2022-07-26T11:22:05Z</time>
      </trkpt>
      <trkpt lat="45.8891250" lon="5.6999000">
        <ele>464.1</ele>
        <time>2022-07-26T11:22:06Z</time>
      </trkpt>
      <trkpt lat="45.8890920" lon="5.6999150">
        <ele>464.2</ele>
        <time>2022-07-26T11:22:07Z</time>
      </trkpt>
      <trkpt lat="45.8890570" lon="5.6999220">
        <ele>464.3</ele>
        <time>2022-07-26T11:22:08Z</time>
      </trkpt>
      <trkpt lat="45.8890260" lon="5.6999210">
        <ele>464.3</ele>
        <time>2022-07-26T11:22:09Z</time>
      </trkpt>
      <trkpt lat="45.8889890" lon="5.6999180">
        <ele>464.4</ele>
        <time>2022-07-26T11:22:10Z</time>
      </trkpt>
      <trkpt lat="45.8889460" lon="5.6999150">
        <ele>464.5</ele>
        <time>2022-07-26T11:22:11Z</time>
      </trkpt>
      <trkpt lat="45.8889060" lon="5.6999110">
        <ele>464.6</ele>
        <time>2022-07-26T11:22:13Z</time>
      </trkpt>
      <trkpt lat="45.8888720" lon="5.6998990">
        <ele>464.6</ele>
        <time>2022-07-26T11:22:14Z</time>
      </trkpt>
      <trkpt lat="45.8888420" lon="5.6998820">
        <ele>464.7</ele>
        <time>2022-07-26T11:22:15Z</time>
      </trkpt>
      <trkpt lat="45.8888120" lon="5.6998610">
        <ele>464.7</ele>
        <time>2022-07-26T11:22:16Z</time>
      </trkpt>
      <trkpt lat="45.8887540" lon="5.6998180">
        <ele>464.8</ele>
        <time>2022-07-26T11:22:17Z</time>
      </trkpt>
      <trkpt lat="45.8887150" lon="5.6997830">
        <ele>464.9</ele>
        <time>2022-07-26T11:22:19Z</time>
      </trkpt>
      <trkpt lat="45.8886880" lon="5.6997510">
        <ele>464.9</ele>
        <time>2022-07-26T11:22:20Z</time>
      </trkpt>
      <trkpt lat="45.8886540" lon="5.6997110">
        <ele>465.0</ele>
        <time>2022-07-26T11:22:21Z</time>
      </trkpt>
      <trkpt lat="45.8886140" lon="5.6996660">
        <ele>465.1</ele>
        <time>2022-07-26T11:22:23Z</time>
      </trkpt>
      <trkpt lat="45.8885910" lon="5.6996400">
        <ele>465.1</ele>
        <time>2022-07-26T11:22:24Z</time>
      </trkpt>
      <trkpt lat="45.8885670" lon="5.6996110">
        <ele>465.1</ele>
        <time>2022-07-26T11:22:25Z</time>
      </trkpt>
      <trkpt lat="45.8885450" lon="5.6995830">
        <ele>465.2</ele>
        <time>2022-07-26T11:22:26Z</time>
      </trkpt>
      <trkpt lat="45.8885050" lon="5.6995450">
        <ele>465.2</ele>
        <time>2022-07-26T11:22:28Z</time>
      </trkpt>
      <trkpt lat="45.8884710" lon="5.6995180">
        <ele>465.3</ele>
        <time>2022-07-26T11:22:29Z</time>
      </trkpt>
      <trkpt lat="45.8884390" lon="5.6994980">
        <ele>465.3</ele>
        <time>2022-07-26T11:22:30Z</time>
      </trkpt>
      <trkpt lat="45.8884080" lon="5.6994840">
        <ele>465.3</ele>
        <time>2022-07-26T11:22:31Z</time>
      </trkpt>
      <trkpt lat="45.8883690" lon="5.6994780">
        <ele>465.3</ele>
        <time>2022-07-26T11:22:32Z</time>
      </trkpt>
      <trkpt lat="45.8883150" lon="5.6994770">
        <ele>465.3</ele>
        <time>2022-07-26T11:22:33Z</time>
      </trkpt>
      <trkpt lat="45.8882570" lon="5.6994950">
        <ele>465.5</ele>
        <time>2022-07-26T11:22:35Z</time>
      </trkpt>
      <trkpt lat="45.8882110" lon="5.6995400">
        <ele>465.8</ele>
        <time>2022-07-26T11:22:36Z</time>
      </trkpt>
      <trkpt lat="45.8881720" lon="5.6995760">
        <ele>466.0</ele>
        <time>2022-07-26T11:22:37Z</time>
      </trkpt>
      <trkpt lat="45.8881500" lon="5.6995930">
        <ele>466.1</ele>
        <time>2022-07-26T11:22:38Z</time>
      </trkpt>
      <trkpt lat="45.8881440" lon="5.6996080">
        <ele>466.2</ele>
        <time>2022-07-26T11:22:39Z</time>
      </trkpt>
      <trkpt lat="45.8881250" lon="5.6996640">
        <ele>466.4</ele>
        <time>2022-07-26T11:22:40Z</time>
      </trkpt>
      <trkpt lat="45.8881040" lon="5.6997180">
        <ele>466.7</ele>
        <time>2022-07-26T11:22:41Z</time>
      </trkpt>
      <trkpt lat="45.8880810" lon="5.6997770">
        <ele>466.9</ele>
        <time>2022-07-26T11:22:42Z</time>
      </trkpt>
      <trkpt lat="45.8880610" lon="5.6998500">
        <ele>467.2</ele>
        <time>2022-07-26T11:22:43Z</time>
      </trkpt>
      <trkpt lat="45.8880430" lon="5.6999130">
        <ele>467.4</ele>
        <time>2022-07-26T11:22:45Z</time>
      </trkpt>
      <trkpt lat="45.8880340" lon="5.6999600">
        <ele>467.5</ele>
        <time>2022-07-26T11:22:46Z</time>
      </trkpt>
      <trkpt lat="45.8880240" lon="5.7000000">
        <ele>467.6</ele>
        <time>2022-07-26T11:22:47Z</time>
      </trkpt>
      <trkpt lat="45.8879990" lon="5.7000550">
        <ele>467.8</ele>
        <time>2022-07-26T11:22:48Z</time>
      </trkpt>
      <trkpt lat="45.8879880" lon="5.7000760">
        <ele>467.9</ele>
        <time>2022-07-26T11:22:49Z</time>
      </trkpt>
      <trkpt lat="45.8879720" lon="5.7001220">
        <ele>468.0</ele>
        <time>2022-07-26T11:22:50Z</time>
      </trkpt>
      <trkpt lat="45.8879560" lon="5.7001790">
        <ele>468.1</ele>
        <time>2022-07-26T11:22:52Z</time>
      </trkpt>
      <trkpt lat="45.8879420" lon="5.7002560">
        <ele>468.2</ele>
        <time>2022-07-26T11:22:54Z</time>
      </trkpt>
      <trkpt lat="45.8879340" lon="5.7002970">
        <ele>468.3</ele>
        <time>2022-07-26T11:22:55Z</time>
      </trkpt>
      <trkpt lat="45.8879250" lon="5.7003400">
        <ele>468.3</ele>
        <time>2022-07-26T11:22:56Z</time>
      </trkpt>
      <trkpt lat="45.8879130" lon="5.7003790">
        <ele>468.4</ele>
        <time>2022-07-26T11:22:57Z</time>
      </trkpt>
      <trkpt lat="45.8879020" lon="5.7004210">
        <ele>468.4</ele>
        <time>2022-07-26T11:22:58Z</time>
      </trkpt>
      <trkpt lat="45.8878830" lon="5.7004830">
        <ele>468.5</ele>
        <time>2022-07-26T11:22:59Z</time>
      </trkpt>
      <trkpt lat="45.8878620" lon="5.7005550">
        <ele>468.5</ele>
        <time>2022-07-26T11:23:01Z</time>
      </trkpt>
      <trkpt lat="45.8878480" lon="5.7006020">
        <ele>468.5</ele>
        <time>2022-07-26T11:23:02Z</time>
      </trkpt>
      <trkpt lat="45.8878360" lon="5.7006460">
        <ele>468.6</ele>
        <time>2022-07-26T11:23:03Z</time>
      </trkpt>
      <trkpt lat="45.8878200" lon="5.7006900">
        <ele>468.6</ele>
        <time>2022-07-26T11:23:04Z</time>
      </trkpt>
      <trkpt lat="45.8877910" lon="5.7007660">
        <ele>468.6</ele>
        <time>2022-07-26T11:23:06Z</time>
      </trkpt>
      <trkpt lat="45.8877710" lon="5.7008260">
        <ele>468.7</ele>
        <time>2022-07-26T11:23:07Z</time>
      </trkpt>
      <trkpt lat="45.8877560" lon="5.7008720">
        <ele>468.7</ele>
        <time>2022-07-26T11:23:08Z</time>
      </trkpt>
      <trkpt lat="45.8877430" lon="5.7009120">
        <ele>468.7</ele>
        <time>2022-07-26T11:23:09Z</time>
      </trkpt>
      <trkpt lat="45.8877180" lon="5.7009720">
        <ele>468.7</ele>
        <time>2022-07-26T11:23:10Z</time>
      </trkpt>
      <trkpt lat="45.8876990" lon="5.7010130">
        <ele>468.7</ele>
        <time>2022-07-26T11:23:12Z</time>
      </trkpt>
      <trkpt lat="45.8876730" lon="5.7010590">
        <ele>468.6</ele>
        <time>2022-07-26T11:23:13Z</time>
      </trkpt>
      <trkpt lat="45.8876470" lon="5.7010880">
        <ele>468.6</ele>
        <time>2022-07-26T11:23:14Z</time>
      </trkpt>
      <trkpt lat="45.8876150" lon="5.7011110">
        <ele>468.5</ele>
        <time>2022-07-26T11:23:15Z</time>
      </trkpt>
      <trkpt lat="45.8875530" lon="5.7011310">
        <ele>468.3</ele>
        <time>2022-07-26T11:23:16Z</time>
      </trkpt>
      <trkpt lat="45.8875020" lon="5.7011400">
        <ele>468.2</ele>
        <time>2022-07-26T11:23:18Z</time>
      </trkpt>
      <trkpt lat="45.8874520" lon="5.7011280">
        <ele>468.0</ele>
        <time>2022-07-26T11:23:19Z</time>
      </trkpt>
      <trkpt lat="45.8873940" lon="5.7011070">
        <ele>467.8</ele>
        <time>2022-07-26T11:23:20Z</time>
      </trkpt>
      <trkpt lat="45.8873540" lon="5.7010980">
        <ele>467.7</ele>
        <time>2022-07-26T11:23:21Z</time>
      </trkpt>
      <trkpt lat="45.8872970" lon="5.7010960">
        <ele>467.5</ele>
        <time>2022-07-26T11:23:22Z</time>
      </trkpt>
      <trkpt lat="45.8872390" lon="5.7011000">
        <ele>467.4</ele>
        <time>2022-07-26T11:23:23Z</time>
      </trkpt>
      <trkpt lat="45.8871830" lon="5.7011110">
        <ele>467.4</ele>
        <time>2022-07-26T11:23:24Z</time>
      </trkpt>
      <trkpt lat="45.8871340" lon="5.7011260">
        <ele>467.4</ele>
        <time>2022-07-26T11:23:25Z</time>
      </trkpt>
      <trkpt lat="45.8871050" lon="5.7011330">
        <ele>467.3</ele>
        <time>2022-07-26T11:23:26Z</time>
      </trkpt>
      <trkpt lat="45.8870940" lon="5.7011330">
        <ele>467.3</ele>
        <time>2022-07-26T11:23:27Z</time>
      </trkpt>
      <trkpt lat="45.8870760" lon="5.7011630">
        <ele>467.3</ele>
        <time>2022-07-26T11:23:28Z</time>
      </trkpt>
      <trkpt lat="45.8870680" lon="5.7012080">
        <ele>467.3</ele>
        <time>2022-07-26T11:23:29Z</time>
      </trkpt>
      <trkpt lat="45.8870690" lon="5.7012510">
        <ele>467.3</ele>
        <time>2022-07-26T11:23:30Z</time>
      </trkpt>
      <trkpt lat="45.8870720" lon="5.7012980">
        <ele>467.3</ele>
        <time>2022-07-26T11:23:31Z</time>
      </trkpt>
      <trkpt lat="45.8870740" lon="5.7013370">
        <ele>467.2</ele>
        <time>2022-07-26T11:23:32Z</time>
      </trkpt>
      <trkpt lat="45.8870760" lon="5.7013990">
        <ele>467.2</ele>
        <time>2022-07-26T11:23:33Z</time>
      </trkpt>
      <trkpt lat="45.8870720" lon="5.7014490">
        <ele>467.1</ele>
        <time>2022-07-26T11:23:34Z</time>
      </trkpt>
      <trkpt lat="45.8870750" lon="5.7015270">
        <ele>467.0</ele>
        <time>2022-07-26T11:23:36Z</time>
      </trkpt>
      <trkpt lat="45.8870730" lon="5.7016170">
        <ele>466.9</ele>
        <time>2022-07-26T11:23:37Z</time>
      </trkpt>
      <trkpt lat="45.8870750" lon="5.7017010">
        <ele>466.7</ele>
        <time>2022-07-26T11:23:39Z</time>
      </trkpt>
      <trkpt lat="45.8870750" lon="5.7017670">
        <ele>466.6</ele>
        <time>2022-07-26T11:23:40Z</time>
      </trkpt>
      <trkpt lat="45.8870770" lon="5.7018400">
        <ele>466.5</ele>
        <time>2022-07-26T11:23:41Z</time>
      </trkpt>
      <trkpt lat="45.8870800" lon="5.7019240">
        <ele>466.4</ele>
        <time>2022-07-26T11:23:42Z</time>
      </trkpt>
      <trkpt lat="45.8870760" lon="5.7020230">
        <ele>466.2</ele>
        <time>2022-07-26T11:23:44Z</time>
      </trkpt>
      <trkpt lat="45.8870760" lon="5.7020740">
        <ele>465.9</ele>
        <time>2022-07-26T11:23:45Z</time>
      </trkpt>
      <trkpt lat="45.8870590" lon="5.7021300">
        <ele>465.7</ele>
        <time>2022-07-26T11:23:46Z</time>
      </trkpt>
      <trkpt lat="45.8869890" lon="5.7022360">
        <ele>465.2</ele>
        <time>2022-07-26T11:23:48Z</time>
      </trkpt>
      <trkpt lat="45.8869580" lon="5.7022960">
        <ele>464.9</ele>
        <time>2022-07-26T11:23:49Z</time>
      </trkpt>
      <trkpt lat="45.8869280" lon="5.7023560">
        <ele>464.7</ele>
        <time>2022-07-26T11:23:50Z</time>
      </trkpt>
      <trkpt lat="45.8868960" lon="5.7024160">
        <ele>464.5</ele>
        <time>2022-07-26T11:23:51Z</time>
      </trkpt>
      <trkpt lat="45.8868630" lon="5.7024820">
        <ele>464.3</ele>
        <time>2022-07-26T11:23:52Z</time>
      </trkpt>
      <trkpt lat="45.8868280" lon="5.7025450">
        <ele>464.1</ele>
        <time>2022-07-26T11:23:53Z</time>
      </trkpt>
      <trkpt lat="45.8867930" lon="5.7026110">
        <ele>463.9</ele>
        <time>2022-07-26T11:23:54Z</time>
      </trkpt>
      <trkpt lat="45.8867540" lon="5.7026790">
        <ele>463.7</ele>
        <time>2022-07-26T11:23:55Z</time>
      </trkpt>
      <trkpt lat="45.8867160" lon="5.7027410">
        <ele>463.5</ele>
        <time>2022-07-26T11:23:56Z</time>
      </trkpt>
      <trkpt lat="45.8866840" lon="5.7027990">
        <ele>463.4</ele>
        <time>2022-07-26T11:23:57Z</time>
      </trkpt>
      <trkpt lat="45.8866490" lon="5.7028620">
        <ele>463.2</ele>
        <time>2022-07-26T11:23:58Z</time>
      </trkpt>
      <trkpt lat="45.8866110" lon="5.7029240">
        <ele>463.1</ele>
        <time>2022-07-26T11:23:59Z</time>
      </trkpt>
      <trkpt lat="45.8865760" lon="5.7029880">
        <ele>462.9</ele>
        <time>2022-07-26T11:24:00Z</time>
      </trkpt>
      <trkpt lat="45.8865390" lon="5.7030470">
        <ele>462.7</ele>
        <time>2022-07-26T11:24:01Z</time>
      </trkpt>
      <trkpt lat="45.8865000" lon="5.7031070">
        <ele>462.5</ele>
        <time>2022-07-26T11:24:02Z</time>
      </trkpt>
      <trkpt lat="45.8864610" lon="5.7031630">
        <ele>462.3</ele>
        <time>2022-07-26T11:24:03Z</time>
      </trkpt>
      <trkpt lat="45.8864200" lon="5.7032170">
        <ele>462.0</ele>
        <time>2022-07-26T11:24:04Z</time>
      </trkpt>
      <trkpt lat="45.8863790" lon="5.7032760">
        <ele>461.7</ele>
        <time>2022-07-26T11:24:05Z</time>
      </trkpt>
      <trkpt lat="45.8863310" lon="5.7033310">
        <ele>461.4</ele>
        <time>2022-07-26T11:24:06Z</time>
      </trkpt>
      <trkpt lat="45.8862860" lon="5.7033910">
        <ele>461.1</ele>
        <time>2022-07-26T11:24:07Z</time>
      </trkpt>
      <trkpt lat="45.8862400" lon="5.7034560">
        <ele>460.8</ele>
        <time>2022-07-26T11:24:08Z</time>
      </trkpt>
      <trkpt lat="45.8861890" lon="5.7035220">
        <ele>460.5</ele>
        <time>2022-07-26T11:24:09Z</time>
      </trkpt>
      <trkpt lat="45.8861340" lon="5.7035800">
        <ele>460.2</ele>
        <time>2022-07-26T11:24:10Z</time>
      </trkpt>
      <trkpt lat="45.8860800" lon="5.7036410">
        <ele>459.9</ele>
        <time>2022-07-26T11:24:11Z</time>
      </trkpt>
      <trkpt lat="45.8860230" lon="5.7036990">
        <ele>459.6</ele>
        <time>2022-07-26T11:24:12Z</time>
      </trkpt>
      <trkpt lat="45.8859720" lon="5.7037660">
        <ele>459.3</ele>
        <time>2022-07-26T11:24:13Z</time>
      </trkpt>
      <trkpt lat="45.8859250" lon="5.7038450">
        <ele>458.9</ele>
        <time>2022-07-26T11:24:14Z</time>
      </trkpt>
      <trkpt lat="45.8858860" lon="5.7039360">
        <ele>458.6</ele>
        <time>2022-07-26T11:24:15Z</time>
      </trkpt>
      <trkpt lat="45.8858550" lon="5.7040320">
        <ele>458.4</ele>
        <time>2022-07-26T11:24:16Z</time>
      </trkpt>
      <trkpt lat="45.8858350" lon="5.7041310">
        <ele>458.2</ele>
        <time>2022-07-26T11:24:17Z</time>
      </trkpt>
      <trkpt lat="45.8858150" lon="5.7042240">
        <ele>458.1</ele>
        <time>2022-07-26T11:24:18Z</time>
      </trkpt>
      <trkpt lat="45.8857950" lon="5.7043120">
        <ele>458.0</ele>
        <time>2022-07-26T11:24:19Z</time>
      </trkpt>
      <trkpt lat="45.8857620" lon="5.7043940">
        <ele>457.9</ele>
        <time>2022-07-26T11:24:20Z</time>
      </trkpt>
      <trkpt lat="45.8857290" lon="5.7044690">
        <ele>457.8</ele>
        <time>2022-07-26T11:24:21Z</time>
      </trkpt>
      <trkpt lat="45.8856980" lon="5.7045400">
        <ele>457.7</ele>
        <time>2022-07-26T11:24:22Z</time>
      </trkpt>
      <trkpt lat="45.8856620" lon="5.7046070">
        <ele>457.5</ele>
        <time>2022-07-26T11:24:23Z</time>
      </trkpt>
      <trkpt lat="45.8856220" lon="5.7046760">
        <ele>457.3</ele>
        <time>2022-07-26T11:24:24Z</time>
      </trkpt>
      <trkpt lat="45.8855850" lon="5.7047430">
        <ele>457.0</ele>
        <time>2022-07-26T11:24:25Z</time>
      </trkpt>
      <trkpt lat="45.8855460" lon="5.7048050">
        <ele>456.7</ele>
        <time>2022-07-26T11:24:26Z</time>
      </trkpt>
      <trkpt lat="45.8855020" lon="5.7048740">
        <ele>456.3</ele>
        <time>2022-07-26T11:24:27Z</time>
      </trkpt>
      <trkpt lat="45.8854490" lon="5.7049460">
        <ele>456.1</ele>
        <time>2022-07-26T11:24:28Z</time>
      </trkpt>
      <trkpt lat="45.8854020" lon="5.7050110">
        <ele>455.9</ele>
        <time>2022-07-26T11:24:29Z</time>
      </trkpt>
      <trkpt lat="45.8853560" lon="5.7050770">
        <ele>455.7</ele>
        <time>2022-07-26T11:24:30Z</time>
      </trkpt>
      <trkpt lat="45.8853160" lon="5.7051360">
        <ele>455.6</ele>
        <time>2022-07-26T11:24:31Z</time>
      </trkpt>
      <trkpt lat="45.8852750" lon="5.7051980">
        <ele>455.4</ele>
        <time>2022-07-26T11:24:32Z</time>
      </trkpt>
      <trkpt lat="45.8852310" lon="5.7052670">
        <ele>455.2</ele>
        <time>2022-07-26T11:24:33Z</time>
      </trkpt>
      <trkpt lat="45.8851940" lon="5.7053340">
        <ele>455.0</ele>
        <time>2022-07-26T11:24:34Z</time>
      </trkpt>
      <trkpt lat="45.8851570" lon="5.7054030">
        <ele>454.8</ele>
        <time>2022-07-26T11:24:35Z</time>
      </trkpt>
      <trkpt lat="45.8851240" lon="5.7054700">
        <ele>454.5</ele>
        <time>2022-07-26T11:24:36Z</time>
      </trkpt>
      <trkpt lat="45.8850900" lon="5.7055340">
        <ele>454.1</ele>
        <time>2022-07-26T11:24:37Z</time>
      </trkpt>
      <trkpt lat="45.8850630" lon="5.7055910">
        <ele>453.7</ele>
        <time>2022-07-26T11:24:38Z</time>
      </trkpt>
      <trkpt lat="45.8850460" lon="5.7056330">
        <ele>453.4</ele>
        <time>2022-07-26T11:24:39Z</time>
      </trkpt>
      <trkpt lat="45.8850150" lon="5.7057100">
        <ele>452.9</ele>
        <time>2022-07-26T11:24:40Z</time>
      </trkpt>
      <trkpt lat="45.8849930" lon="5.7057820">
        <ele>452.4</ele>
        <time>2022-07-26T11:24:41Z</time>
      </trkpt>
      <trkpt lat="45.8849720" lon="5.7058580">
        <ele>451.8</ele>
        <time>2022-07-26T11:24:42Z</time>
      </trkpt>
      <trkpt lat="45.8849550" lon="5.7059320">
        <ele>451.3</ele>
        <time>2022-07-26T11:24:43Z</time>
      </trkpt>
      <trkpt lat="45.8849370" lon="5.7060060">
        <ele>450.9</ele>
        <time>2022-07-26T11:24:44Z</time>
      </trkpt>
      <trkpt lat="45.8849180" lon="5.7060790">
        <ele>450.4</ele>
        <time>2022-07-26T11:24:45Z</time>
      </trkpt>
      <trkpt lat="45.8849080" lon="5.7061300">
        <ele>450.1</ele>
        <time>2022-07-26T11:24:46Z</time>
      </trkpt>
      <trkpt lat="45.8848950" lon="5.7061720">
        <ele>449.9</ele>
        <time>2022-07-26T11:24:47Z</time>
      </trkpt>
      <trkpt lat="45.8848870" lon="5.7061910">
        <ele>449.8</ele>
        <time>2022-07-26T11:24:48Z</time>
      </trkpt>
      <trkpt lat="45.8848560" lon="5.7062150">
        <ele>449.3</ele>
        <time>2022-07-26T11:24:49Z</time>
      </trkpt>
      <trkpt lat="45.8848090" lon="5.7062330">
        <ele>449.0</ele>
        <time>2022-07-26T11:24:50Z</time>
      </trkpt>
      <trkpt lat="45.8847580" lon="5.7062360">
        <ele>448.6</ele>
        <time>2022-07-26T11:24:51Z</time>
      </trkpt>
      <trkpt lat="45.8847070" lon="5.7062380">
        <ele>448.2</ele>
        <time>2022-07-26T11:24:52Z</time>
      </trkpt>
      <trkpt lat="45.8846570" lon="5.7062440">
        <ele>447.9</ele>
        <time>2022-07-26T11:24:53Z</time>
      </trkpt>
      <trkpt lat="45.8846060" lon="5.7062490">
        <ele>447.6</ele>
        <time>2022-07-26T11:24:54Z</time>
      </trkpt>
      <trkpt lat="45.8845500" lon="5.7062580">
        <ele>447.3</ele>
        <time>2022-07-26T11:24:55Z</time>
      </trkpt>
      <trkpt lat="45.8844940" lon="5.7062690">
        <ele>447.0</ele>
        <time>2022-07-26T11:24:56Z</time>
      </trkpt>
      <trkpt lat="45.8844410" lon="5.7062770">
        <ele>446.7</ele>
        <time>2022-07-26T11:24:57Z</time>
      </trkpt>
      <trkpt lat="45.8843900" lon="5.7062840">
        <ele>446.4</ele>
        <time>2022-07-26T11:24:58Z</time>
      </trkpt>
      <trkpt lat="45.8843320" lon="5.7062930">
        <ele>446.2</ele>
        <time>2022-07-26T11:24:59Z</time>
      </trkpt>
      <trkpt lat="45.8842750" lon="5.7063000">
        <ele>445.8</ele>
        <time>2022-07-26T11:25:00Z</time>
      </trkpt>
      <trkpt lat="45.8842170" lon="5.7063090">
        <ele>445.5</ele>
        <time>2022-07-26T11:25:01Z</time>
      </trkpt>
      <trkpt lat="45.8841620" lon="5.7063170">
        <ele>445.2</ele>
        <time>2022-07-26T11:25:02Z</time>
      </trkpt>
      <trkpt lat="45.8841050" lon="5.7063230">
        <ele>444.8</ele>
        <time>2022-07-26T11:25:03Z</time>
      </trkpt>
      <trkpt lat="45.8840470" lon="5.7063240">
        <ele>444.5</ele>
        <time>2022-07-26T11:25:04Z</time>
      </trkpt>
      <trkpt lat="45.8839900" lon="5.7063340">
        <ele>444.2</ele>
        <time>2022-07-26T11:25:05Z</time>
      </trkpt>
      <trkpt lat="45.8839330" lon="5.7063430">
        <ele>443.8</ele>
        <time>2022-07-26T11:25:06Z</time>
      </trkpt>
      <trkpt lat="45.8838760" lon="5.7063510">
        <ele>443.5</ele>
        <time>2022-07-26T11:25:07Z</time>
      </trkpt>
      <trkpt lat="45.8838200" lon="5.7063600">
        <ele>443.1</ele>
        <time>2022-07-26T11:25:08Z</time>
      </trkpt>
      <trkpt lat="45.8837610" lon="5.7063670">
        <ele>442.8</ele>
        <time>2022-07-26T11:25:09Z</time>
      </trkpt>
      <trkpt lat="45.8837010" lon="5.7063730">
        <ele>442.4</ele>
        <time>2022-07-26T11:25:10Z</time>
      </trkpt>
      <trkpt lat="45.8836370" lon="5.7063780">
        <ele>442.0</ele>
        <time>2022-07-26T11:25:11Z</time>
      </trkpt>
      <trkpt lat="45.8835730" lon="5.7063840">
        <ele>441.6</ele>
        <time>2022-07-26T11:25:12Z</time>
      </trkpt>
      <trkpt lat="45.8835100" lon="5.7063900">
        <ele>441.2</ele>
        <time>2022-07-26T11:25:13Z</time>
      </trkpt>
      <trkpt lat="45.8834420" lon="5.7063940">
        <ele>440.8</ele>
        <time>2022-07-26T11:25:14Z</time>
      </trkpt>
      <trkpt lat="45.8833740" lon="5.7063960">
        <ele>440.3</ele>
        <time>2022-07-26T11:25:15Z</time>
      </trkpt>
      <trkpt lat="45.8833010" lon="5.7064010">
        <ele>439.9</ele>
        <time>2022-07-26T11:25:16Z</time>
      </trkpt>
      <trkpt lat="45.8832250" lon="5.7064090">
        <ele>439.4</ele>
        <time>2022-07-26T11:25:17Z</time>
      </trkpt>
      <trkpt lat="45.8831520" lon="5.7064170">
        <ele>438.9</ele>
        <time>2022-07-26T11:25:18Z</time>
      </trkpt>
      <trkpt lat="45.8830840" lon="5.7064220">
        <ele>438.4</ele>
        <time>2022-07-26T11:25:19Z</time>
      </trkpt>
      <trkpt lat="45.8830140" lon="5.7064260">
        <ele>437.9</ele>
        <time>2022-07-26T11:25:20Z</time>
      </trkpt>
      <trkpt lat="45.8829440" lon="5.7064310">
        <ele>437.3</ele>
        <time>2022-07-26T11:25:21Z</time>
      </trkpt>
      <trkpt lat="45.8828780" lon="5.7064370">
        <ele>437.2</ele>
        <time>2022-07-26T11:25:22Z</time>
      </trkpt>
      <trkpt lat="45.8828120" lon="5.7064420">
        <ele>437.2</ele>
        <time>2022-07-26T11:25:23Z</time>
      </trkpt>
      <trkpt lat="45.8827460" lon="5.7064450">
        <ele>437.2</ele>
        <time>2022-07-26T11:25:24Z</time>
      </trkpt>
      <trkpt lat="45.8826790" lon="5.7064490">
        <ele>437.1</ele>
        <time>2022-07-26T11:25:25Z</time>
      </trkpt>
      <trkpt lat="45.8826130" lon="5.7064640">
        <ele>437.0</ele>
        <time>2022-07-26T11:25:26Z</time>
      </trkpt>
      <trkpt lat="45.8825480" lon="5.7064880">
        <ele>436.8</ele>
        <time>2022-07-26T11:25:27Z</time>
      </trkpt>
      <trkpt lat="45.8824780" lon="5.7065110">
        <ele>436.5</ele>
        <time>2022-07-26T11:25:28Z</time>
      </trkpt>
      <trkpt lat="45.8824070" lon="5.7065400">
        <ele>436.1</ele>
        <time>2022-07-26T11:25:29Z</time>
      </trkpt>
      <trkpt lat="45.8823330" lon="5.7065680">
        <ele>435.7</ele>
        <time>2022-07-26T11:25:30Z</time>
      </trkpt>
      <trkpt lat="45.8822550" lon="5.7065960">
        <ele>435.3</ele>
        <time>2022-07-26T11:25:31Z</time>
      </trkpt>
      <trkpt lat="45.8821810" lon="5.7066140">
        <ele>435.0</ele>
        <time>2022-07-26T11:25:32Z</time>
      </trkpt>
      <trkpt lat="45.8821090" lon="5.7066210">
        <ele>434.6</ele>
        <time>2022-07-26T11:25:33Z</time>
      </trkpt>
      <trkpt lat="45.8820290" lon="5.7066160">
        <ele>434.1</ele>
        <time>2022-07-26T11:25:34Z</time>
      </trkpt>
      <trkpt lat="45.8819520" lon="5.7066050">
        <ele>433.6</ele>
        <time>2022-07-26T11:25:35Z</time>
      </trkpt>
      <trkpt lat="45.8818800" lon="5.7065950">
        <ele>433.0</ele>
        <time>2022-07-26T11:25:36Z</time>
      </trkpt>
      <trkpt lat="45.8818120" lon="5.7065800">
        <ele>432.3</ele>
        <time>2022-07-26T11:25:37Z</time>
      </trkpt>
      <trkpt lat="45.8817330" lon="5.7065610">
        <ele>431.5</ele>
        <time>2022-07-26T11:25:38Z</time>
      </trkpt>
      <trkpt lat="45.8816600" lon="5.7065470">
        <ele>430.8</ele>
        <time>2022-07-26T11:25:39Z</time>
      </trkpt>
      <trkpt lat="45.8815940" lon="5.7065260">
        <ele>430.2</ele>
        <time>2022-07-26T11:25:40Z</time>
      </trkpt>
      <trkpt lat="45.8815250" lon="5.7065090">
        <ele>429.7</ele>
        <time>2022-07-26T11:25:41Z</time>
      </trkpt>
      <trkpt lat="45.8814560" lon="5.7064940">
        <ele>429.2</ele>
        <time>2022-07-26T11:25:42Z</time>
      </trkpt>
      <trkpt lat="45.8813850" lon="5.7064800">
        <ele>428.7</ele>
        <time>2022-07-26T11:25:43Z</time>
      </trkpt>
      <trkpt lat="45.8813170" lon="5.7064480">
        <ele>428.4</ele>
        <time>2022-07-26T11:25:44Z</time>
      </trkpt>
      <trkpt lat="45.8812490" lon="5.7064100">
        <ele>428.0</ele>
        <time>2022-07-26T11:25:45Z</time>
      </trkpt>
      <trkpt lat="45.8811870" lon="5.7063820">
        <ele>427.7</ele>
        <time>2022-07-26T11:25:46Z</time>
      </trkpt>
      <trkpt lat="45.8811290" lon="5.7063540">
        <ele>427.5</ele>
        <time>2022-07-26T11:25:47Z</time>
      </trkpt>
      <trkpt lat="45.8810800" lon="5.7063190">
        <ele>427.2</ele>
        <time>2022-07-26T11:25:48Z</time>
      </trkpt>
      <trkpt lat="45.8810340" lon="5.7062810">
        <ele>427.0</ele>
        <time>2022-07-26T11:25:49Z</time>
      </trkpt>
      <trkpt lat="45.8809950" lon="5.7062520">
        <ele>426.7</ele>
        <time>2022-07-26T11:25:50Z</time>
      </trkpt>
      <trkpt lat="45.8809370" lon="5.7062430">
        <ele>426.3</ele>
        <time>2022-07-26T11:25:51Z</time>
      </trkpt>
      <trkpt lat="45.8808740" lon="5.7062470">
        <ele>425.8</ele>
        <time>2022-07-26T11:25:52Z</time>
      </trkpt>
      <trkpt lat="45.8808050" lon="5.7062560">
        <ele>425.2</ele>
        <time>2022-07-26T11:25:53Z</time>
      </trkpt>
      <trkpt lat="45.8807430" lon="5.7062740">
        <ele>424.6</ele>
        <time>2022-07-26T11:25:54Z</time>
      </trkpt>
      <trkpt lat="45.8806870" lon="5.7062920">
        <ele>424.0</ele>
        <time>2022-07-26T11:25:55Z</time>
      </trkpt>
      <trkpt lat="45.8806390" lon="5.7063220">
        <ele>423.3</ele>
        <time>2022-07-26T11:25:56Z</time>
      </trkpt>
      <trkpt lat="45.8805890" lon="5.7063570">
        <ele>422.6</ele>
        <time>2022-07-26T11:25:57Z</time>
      </trkpt>
      <trkpt lat="45.8805440" lon="5.7063910">
        <ele>421.9</ele>
        <time>2022-07-26T11:25:58Z</time>
      </trkpt>
      <trkpt lat="45.8805060" lon="5.7064300">
        <ele>421.3</ele>
        <time>2022-07-26T11:25:59Z</time>
      </trkpt>
      <trkpt lat="45.8804760" lon="5.7064760">
        <ele>420.8</ele>
        <time>2022-07-26T11:26:00Z</time>
      </trkpt>
      <trkpt lat="45.8804490" lon="5.7065250">
        <ele>420.5</ele>
        <time>2022-07-26T11:26:01Z</time>
      </trkpt>
      <trkpt lat="45.8804330" lon="5.7065600">
        <ele>420.3</ele>
        <time>2022-07-26T11:26:02Z</time>
      </trkpt>
      <trkpt lat="45.8804170" lon="5.7066080">
        <ele>420.2</ele>
        <time>2022-07-26T11:26:03Z</time>
      </trkpt>
      <trkpt lat="45.8804100" lon="5.7066290">
        <ele>420.1</ele>
        <time>2022-07-26T11:26:04Z</time>
      </trkpt>
      <trkpt lat="45.8804000" lon="5.7066870">
        <ele>420.0</ele>
        <time>2022-07-26T11:26:05Z</time>
      </trkpt>
      <trkpt lat="45.8804160" lon="5.7067350">
        <ele>420.1</ele>
        <time>2022-07-26T11:26:06Z</time>
      </trkpt>
      <trkpt lat="45.8804340" lon="5.7067980">
        <ele>420.1</ele>
        <time>2022-07-26T11:26:07Z</time>
      </trkpt>
      <trkpt lat="45.8804540" lon="5.7068470">
        <ele>420.1</ele>
        <time>2022-07-26T11:26:08Z</time>
      </trkpt>
      <trkpt lat="45.8804730" lon="5.7068890">
        <ele>420.2</ele>
        <time>2022-07-26T11:26:09Z</time>
      </trkpt>
      <trkpt lat="45.8804950" lon="5.7069460">
        <ele>420.2</ele>
        <time>2022-07-26T11:26:10Z</time>
      </trkpt>
      <trkpt lat="45.8805170" lon="5.7069980">
        <ele>420.3</ele>
        <time>2022-07-26T11:26:11Z</time>
      </trkpt>
      <trkpt lat="45.8805380" lon="5.7070580">
        <ele>420.3</ele>
        <time>2022-07-26T11:26:12Z</time>
      </trkpt>
      <trkpt lat="45.8805580" lon="5.7071130">
        <ele>420.4</ele>
        <time>2022-07-26T11:26:13Z</time>
      </trkpt>
      <trkpt lat="45.8805770" lon="5.7071630">
        <ele>420.5</ele>
        <time>2022-07-26T11:26:14Z</time>
      </trkpt>
      <trkpt lat="45.8805930" lon="5.7072050">
        <ele>420.6</ele>
        <time>2022-07-26T11:26:15Z</time>
      </trkpt>
      <trkpt lat="45.8806120" lon="5.7072520">
        <ele>420.7</ele>
        <time>2022-07-26T11:26:16Z</time>
      </trkpt>
      <trkpt lat="45.8806330" lon="5.7073050">
        <ele>420.8</ele>
        <time>2022-07-26T11:26:17Z</time>
      </trkpt>
      <trkpt lat="45.8806420" lon="5.7073280">
        <ele>420.8</ele>
        <time>2022-07-26T11:26:18Z</time>
      </trkpt>
      <trkpt lat="45.8806590" lon="5.7073720">
        <ele>420.9</ele>
        <time>2022-07-26T11:26:19Z</time>
      </trkpt>
      <trkpt lat="45.8806790" lon="5.7074200">
        <ele>421.0</ele>
        <time>2022-07-26T11:26:20Z</time>
      </trkpt>
      <trkpt lat="45.8806890" lon="5.7074390">
        <ele>421.0</ele>
        <time>2022-07-26T11:26:21Z</time>
      </trkpt>
      <trkpt lat="45.8807100" lon="5.7074800">
        <ele>421.1</ele>
        <time>2022-07-26T11:26:22Z</time>
      </trkpt>
      <trkpt lat="45.8807320" lon="5.7075190">
        <ele>421.1</ele>
        <time>2022-07-26T11:26:23Z</time>
      </trkpt>
      <trkpt lat="45.8807610" lon="5.7075630">
        <ele>421.2</ele>
        <time>2022-07-26T11:26:24Z</time>
      </trkpt>
      <trkpt lat="45.8807720" lon="5.7075790">
        <ele>421.2</ele>
        <time>2022-07-26T11:26:25Z</time>
      </trkpt>
      <trkpt lat="45.8807960" lon="5.7076120">
        <ele>421.2</ele>
        <time>2022-07-26T11:26:26Z</time>
      </trkpt>
      <trkpt lat="45.8808260" lon="5.7076500">
        <ele>421.2</ele>
        <time>2022-07-26T11:26:27Z</time>
      </trkpt>
      <trkpt lat="45.8808590" lon="5.7076820">
        <ele>421.2</ele>
        <time>2022-07-26T11:26:28Z</time>
      </trkpt>
      <trkpt lat="45.8808930" lon="5.7077120">
        <ele>421.2</ele>
        <time>2022-07-26T11:26:29Z</time>
      </trkpt>
      <trkpt lat="45.8809230" lon="5.7077420">
        <ele>421.1</ele>
        <time>2022-07-26T11:26:30Z</time>
      </trkpt>
      <trkpt lat="45.8809530" lon="5.7077730">
        <ele>421.1</ele>
        <time>2022-07-26T11:26:31Z</time>
      </trkpt>
      <trkpt lat="45.8809870" lon="5.7078070">
        <ele>421.0</ele>
        <time>2022-07-26T11:26:32Z</time>
      </trkpt>
      <trkpt lat="45.8810180" lon="5.7078360">
        <ele>420.9</ele>
        <time>2022-07-26T11:26:33Z</time>
      </trkpt>
      <trkpt lat="45.8810540" lon="5.7078640">
        <ele>420.8</ele>
        <time>2022-07-26T11:26:34Z</time>
      </trkpt>
      <trkpt lat="45.8810830" lon="5.7078840">
        <ele>420.7</ele>
        <time>2022-07-26T11:26:35Z</time>
      </trkpt>
      <trkpt lat="45.8811200" lon="5.7079110">
        <ele>420.6</ele>
        <time>2022-07-26T11:26:36Z</time>
      </trkpt>
      <trkpt lat="45.8811620" lon="5.7079410">
        <ele>420.4</ele>
        <time>2022-07-26T11:26:37Z</time>
      </trkpt>
      <trkpt lat="45.8812040" lon="5.7079740">
        <ele>420.2</ele>
        <time>2022-07-26T11:26:38Z</time>
      </trkpt>
      <trkpt lat="45.8812520" lon="5.7080030">
        <ele>420.0</ele>
        <time>2022-07-26T11:26:39Z</time>
      </trkpt>
      <trkpt lat="45.8812960" lon="5.7080280">
        <ele>419.8</ele>
        <time>2022-07-26T11:26:40Z</time>
      </trkpt>
      <trkpt lat="45.8813390" lon="5.7080580">
        <ele>419.6</ele>
        <time>2022-07-26T11:26:41Z</time>
      </trkpt>
      <trkpt lat="45.8813860" lon="5.7080880">
        <ele>419.4</ele>
        <time>2022-07-26T11:26:42Z</time>
      </trkpt>
      <trkpt lat="45.8814320" lon="5.7081240">
        <ele>419.1</ele>
        <time>2022-07-26T11:26:43Z</time>
      </trkpt>
      <trkpt lat="45.8814810" lon="5.7081610">
        <ele>418.8</ele>
        <time>2022-07-26T11:26:44Z</time>
      </trkpt>
      <trkpt lat="45.8815360" lon="5.7081940">
        <ele>418.5</ele>
        <time>2022-07-26T11:26:45Z</time>
      </trkpt>
      <trkpt lat="45.8815940" lon="5.7082290">
        <ele>418.1</ele>
        <time>2022-07-26T11:26:46Z</time>
      </trkpt>
      <trkpt lat="45.8816520" lon="5.7082650">
        <ele>417.7</ele>
        <time>2022-07-26T11:26:47Z</time>
      </trkpt>
      <trkpt lat="45.8817070" lon="5.7083020">
        <ele>417.3</ele>
        <time>2022-07-26T11:26:48Z</time>
      </trkpt>
      <trkpt lat="45.8817480" lon="5.7083390">
        <ele>417.0</ele>
        <time>2022-07-26T11:26:49Z</time>
      </trkpt>
      <trkpt lat="45.8817760" lon="5.7083620">
        <ele>416.8</ele>
        <time>2022-07-26T11:26:50Z</time>
      </trkpt>
      <trkpt lat="45.8818070" lon="5.7083830">
        <ele>416.6</ele>
        <time>2022-07-26T11:26:51Z</time>
      </trkpt>
      <trkpt lat="45.8818420" lon="5.7084030">
        <ele>416.3</ele>
        <time>2022-07-26T11:26:52Z</time>
      </trkpt>
      <trkpt lat="45.8818690" lon="5.7084180">
        <ele>416.2</ele>
        <time>2022-07-26T11:26:53Z</time>
      </trkpt>
      <trkpt lat="45.8818850" lon="5.7084300">
        <ele>416.0</ele>
        <time>2022-07-26T11:26:54Z</time>
      </trkpt>
      <trkpt lat="45.8818930" lon="5.7084460">
        <ele>415.9</ele>
        <time>2022-07-26T11:26:55Z</time>
      </trkpt>
      <trkpt lat="45.8818960" lon="5.7084550">
        <ele>415.9</ele>
        <time>2022-07-26T11:26:56Z</time>
      </trkpt>
      <trkpt lat="45.8818950" lon="5.7084660">
        <ele>415.9</ele>
        <time>2022-07-26T11:26:57Z</time>
      </trkpt>
      <trkpt lat="45.8818880" lon="5.7084800">
        <ele>414.5</ele>
        <time>2022-07-26T11:26:58Z</time>
      </trkpt>
      <trkpt lat="45.8818890" lon="5.7084830">
        <ele>414.5</ele>
        <time>2022-07-26T11:26:59Z</time>
      </trkpt>
      <trkpt lat="45.8818850" lon="5.7084850">
        <ele>414.4</ele>
        <time>2022-07-26T11:27:00Z</time>
      </trkpt>
      <trkpt lat="45.8818630" lon="5.7084880">
        <ele>414.2</ele>
        <time>2022-07-26T11:27:01Z</time>
      </trkpt>
      <trkpt lat="45.8818490" lon="5.7084900">
        <ele>414.1</ele>
        <time>2022-07-26T11:27:02Z</time>
      </trkpt>
      <trkpt lat="45.8818160" lon="5.7084960">
        <ele>413.7</ele>
        <time>2022-07-26T11:27:03Z</time>
      </trkpt>
      <trkpt lat="45.8818040" lon="5.7084980">
        <ele>413.6</ele>
        <time>2022-07-26T11:27:04Z</time>
      </trkpt>
      <trkpt lat="45.8817690" lon="5.7085060">
        <ele>413.2</ele>
        <time>2022-07-26T11:27:05Z</time>
      </trkpt>
      <trkpt lat="45.8817410" lon="5.7085120">
        <ele>412.8</ele>
        <time>2022-07-26T11:27:06Z</time>
      </trkpt>
      <trkpt lat="45.8817040" lon="5.7085190">
        <ele>412.4</ele>
        <time>2022-07-26T11:27:07Z</time>
      </trkpt>
      <trkpt lat="45.8816680" lon="5.7085230">
        <ele>412.0</ele>
        <time>2022-07-26T11:27:08Z</time>
      </trkpt>
      <trkpt lat="45.8816250" lon="5.7085270">
        <ele>411.6</ele>
        <time>2022-07-26T11:27:09Z</time>
      </trkpt>
      <trkpt lat="45.8815820" lon="5.7085290">
        <ele>411.1</ele>
        <time>2022-07-26T11:27:10Z</time>
      </trkpt>
      <trkpt lat="45.8815670" lon="5.7085330">
        <ele>411.0</ele>
        <time>2022-07-26T11:27:11Z</time>
      </trkpt>
      <trkpt lat="45.8815500" lon="5.7085360">
        <ele>410.8</ele>
        <time>2022-07-26T11:27:12Z</time>
      </trkpt>
      <trkpt lat="45.8815210" lon="5.7085470">
        <ele>410.5</ele>
        <time>2022-07-26T11:27:13Z</time>
      </trkpt>
      <trkpt lat="45.8814900" lon="5.7085650">
        <ele>410.1</ele>
        <time>2022-07-26T11:27:14Z</time>
      </trkpt>
      <trkpt lat="45.8814590" lon="5.7085740">
        <ele>409.7</ele>
        <time>2022-07-26T11:27:15Z</time>
      </trkpt>
      <trkpt lat="45.8814240" lon="5.7085790">
        <ele>409.3</ele>
        <time>2022-07-26T11:27:16Z</time>
      </trkpt>
      <trkpt lat="45.8813830" lon="5.7085790">
        <ele>408.8</ele>
        <time>2022-07-26T11:27:17Z</time>
      </trkpt>
      <trkpt lat="45.8813180" lon="5.7085930">
        <ele>408.0</ele>
        <time>2022-07-26T11:27:18Z</time>
      </trkpt>
      <trkpt lat="45.8812350" lon="5.7086100">
        <ele>406.9</ele>
        <time>2022-07-26T11:27:19Z</time>
      </trkpt>
      <trkpt lat="45.8811630" lon="5.7086110">
        <ele>406.1</ele>
        <time>2022-07-26T11:27:20Z</time>
      </trkpt>
      <trkpt lat="45.8811200" lon="5.7086070">
        <ele>405.7</ele>
        <time>2022-07-26T11:27:21Z</time>
      </trkpt>
      <trkpt lat="45.8810840" lon="5.7086090">
        <ele>405.3</ele>
        <time>2022-07-26T11:27:22Z</time>
      </trkpt>
      <trkpt lat="45.8810620" lon="5.7086120">
        <ele>405.0</ele>
        <time>2022-07-26T11:27:23Z</time>
      </trkpt>
      <trkpt lat="45.8810210" lon="5.7086250">
        <ele>404.6</ele>
        <time>2022-07-26T11:27:24Z</time>
      </trkpt>
      <trkpt lat="45.8809820" lon="5.7086390">
        <ele>404.1</ele>
        <time>2022-07-26T11:27:25Z</time>
      </trkpt>
      <trkpt lat="45.8809340" lon="5.7086510">
        <ele>403.5</ele>
        <time>2022-07-26T11:27:26Z</time>
      </trkpt>
      <trkpt lat="45.8808650" lon="5.7086640">
        <ele>402.7</ele>
        <time>2022-07-26T11:27:27Z</time>
      </trkpt>
      <trkpt lat="45.8808080" lon="5.7086880">
        <ele>402.0</ele>
        <time>2022-07-26T11:27:28Z</time>
      </trkpt>
      <trkpt lat="45.8807570" lon="5.7087090">
        <ele>401.4</ele>
        <time>2022-07-26T11:27:29Z</time>
      </trkpt>
      <trkpt lat="45.8806950" lon="5.7087240">
        <ele>400.8</ele>
        <time>2022-07-26T11:27:30Z</time>
      </trkpt>
      <trkpt lat="45.8806410" lon="5.7087130">
        <ele>400.3</ele>
        <time>2022-07-26T11:27:31Z</time>
      </trkpt>
      <trkpt lat="45.8805860" lon="5.7087100">
        <ele>399.8</ele>
        <time>2022-07-26T11:27:32Z</time>
      </trkpt>
      <trkpt lat="45.8805280" lon="5.7087140">
        <ele>399.3</ele>
        <time>2022-07-26T11:27:33Z</time>
      </trkpt>
      <trkpt lat="45.8804910" lon="5.7087230">
        <ele>399.0</ele>
        <time>2022-07-26T11:27:34Z</time>
      </trkpt>
      <trkpt lat="45.8804530" lon="5.7087250">
        <ele>398.7</ele>
        <time>2022-07-26T11:27:35Z</time>
      </trkpt>
      <trkpt lat="45.8803890" lon="5.7087190">
        <ele>398.3</ele>
        <time>2022-07-26T11:27:36Z</time>
      </trkpt>
      <trkpt lat="45.8803270" lon="5.7087080">
        <ele>397.8</ele>
        <time>2022-07-26T11:27:37Z</time>
      </trkpt>
      <trkpt lat="45.8802620" lon="5.7086950">
        <ele>397.4</ele>
        <time>2022-07-26T11:27:38Z</time>
      </trkpt>
      <trkpt lat="45.8801870" lon="5.7087000">
        <ele>396.9</ele>
        <time>2022-07-26T11:27:39Z</time>
      </trkpt>
      <trkpt lat="45.8801120" lon="5.7086990">
        <ele>396.4</ele>
        <time>2022-07-26T11:27:40Z</time>
      </trkpt>
      <trkpt lat="45.8800600" lon="5.7086970">
        <ele>396.1</ele>
        <time>2022-07-26T11:27:41Z</time>
      </trkpt>
      <trkpt lat="45.8800220" lon="5.7086900">
        <ele>395.8</ele>
        <time>2022-07-26T11:27:42Z</time>
      </trkpt>
      <trkpt lat="45.8799640" lon="5.7086720">
        <ele>395.4</ele>
        <time>2022-07-26T11:27:43Z</time>
      </trkpt>
      <trkpt lat="45.8798870" lon="5.7086630">
        <ele>394.8</ele>
        <time>2022-07-26T11:27:44Z</time>
      </trkpt>
      <trkpt lat="45.8798210" lon="5.7086550">
        <ele>394.3</ele>
        <time>2022-07-26T11:27:45Z</time>
      </trkpt>
      <trkpt lat="45.8797490" lon="5.7086530">
        <ele>393.8</ele>
        <time>2022-07-26T11:27:46Z</time>
      </trkpt>
      <trkpt lat="45.8796760" lon="5.7086560">
        <ele>393.2</ele>
        <time>2022-07-26T11:27:47Z</time>
      </trkpt>
      <trkpt lat="45.8796080" lon="5.7086520">
        <ele>392.6</ele>
        <time>2022-07-26T11:27:48Z</time>
      </trkpt>
      <trkpt lat="45.8795570" lon="5.7086490">
        <ele>392.2</ele>
        <time>2022-07-26T11:27:49Z</time>
      </trkpt>
      <trkpt lat="45.8795070" lon="5.7086330">
        <ele>391.8</ele>
        <time>2022-07-26T11:27:50Z</time>
      </trkpt>
      <trkpt lat="45.8794450" lon="5.7086070">
        <ele>391.4</ele>
        <time>2022-07-26T11:27:51Z</time>
      </trkpt>
      <trkpt lat="45.8793910" lon="5.7085760">
        <ele>391.0</ele>
        <time>2022-07-26T11:27:52Z</time>
      </trkpt>
      <trkpt lat="45.8793400" lon="5.7085310">
        <ele>390.6</ele>
        <time>2022-07-26T11:27:53Z</time>
      </trkpt>
      <trkpt lat="45.8793010" lon="5.7085060">
        <ele>390.3</ele>
        <time>2022-07-26T11:27:54Z</time>
      </trkpt>
      <trkpt lat="45.8792510" lon="5.7085090">
        <ele>390.0</ele>
        <time>2022-07-26T11:27:55Z</time>
      </trkpt>
      <trkpt lat="45.8792110" lon="5.7085340">
        <ele>389.6</ele>
        <time>2022-07-26T11:27:56Z</time>
      </trkpt>
      <trkpt lat="45.8791830" lon="5.7085620">
        <ele>389.4</ele>
        <time>2022-07-26T11:27:57Z</time>
      </trkpt>
      <trkpt lat="45.8791530" lon="5.7085580">
        <ele>389.1</ele>
        <time>2022-07-26T11:27:58Z</time>
      </trkpt>
      <trkpt lat="45.8791150" lon="5.7085470">
        <ele>388.9</ele>
        <time>2022-07-26T11:27:59Z</time>
      </trkpt>
      <trkpt lat="45.8790500" lon="5.7085800">
        <ele>388.3</ele>
        <time>2022-07-26T11:28:00Z</time>
      </trkpt>
      <trkpt lat="45.8789800" lon="5.7086140">
        <ele>387.8</ele>
        <time>2022-07-26T11:28:01Z</time>
      </trkpt>
      <trkpt lat="45.8789130" lon="5.7086390">
        <ele>387.2</ele>
        <time>2022-07-26T11:28:02Z</time>
      </trkpt>
      <trkpt lat="45.8788630" lon="5.7086520">
        <ele>386.9</ele>
        <time>2022-07-26T11:28:03Z</time>
      </trkpt>
      <trkpt lat="45.8787950" lon="5.7086760">
        <ele>386.3</ele>
        <time>2022-07-26T11:28:04Z</time>
      </trkpt>
      <trkpt lat="45.8787280" lon="5.7087020">
        <ele>385.8</ele>
        <time>2022-07-26T11:28:05Z</time>
      </trkpt>
      <trkpt lat="45.8786730" lon="5.7087240">
        <ele>385.5</ele>
        <time>2022-07-26T11:28:06Z</time>
      </trkpt>
      <trkpt lat="45.8786300" lon="5.7087330">
        <ele>385.2</ele>
        <time>2022-07-26T11:28:07Z</time>
      </trkpt>
      <trkpt lat="45.8785710" lon="5.7087310">
        <ele>384.9</ele>
        <time>2022-07-26T11:28:08Z</time>
      </trkpt>
      <trkpt lat="45.8785190" lon="5.7087250">
        <ele>384.6</ele>
        <time>2022-07-26T11:28:09Z</time>
      </trkpt>
      <trkpt lat="45.8784920" lon="5.7087170">
        <ele>384.5</ele>
        <time>2022-07-26T11:28:10Z</time>
      </trkpt>
      <trkpt lat="45.8784480" lon="5.7087100">
        <ele>384.2</ele>
        <time>2022-07-26T11:28:11Z</time>
      </trkpt>
      <trkpt lat="45.8784300" lon="5.7087100">
        <ele>384.1</ele>
        <time>2022-07-26T11:28:12Z</time>
      </trkpt>
      <trkpt lat="45.8783950" lon="5.7087290">
        <ele>383.9</ele>
        <time>2022-07-26T11:28:13Z</time>
      </trkpt>
      <trkpt lat="45.8783720" lon="5.7087510">
        <ele>383.7</ele>
        <time>2022-07-26T11:28:14Z</time>
      </trkpt>
      <trkpt lat="45.8783460" lon="5.7087770">
        <ele>383.5</ele>
        <time>2022-07-26T11:28:15Z</time>
      </trkpt>
      <trkpt lat="45.8783110" lon="5.7088150">
        <ele>383.1</ele>
        <time>2022-07-26T11:28:16Z</time>
      </trkpt>
      <trkpt lat="45.8782780" lon="5.7088540">
        <ele>382.5</ele>
        <time>2022-07-26T11:28:17Z</time>
      </trkpt>
      <trkpt lat="45.8782420" lon="5.7089010">
        <ele>381.9</ele>
        <time>2022-07-26T11:28:18Z</time>
      </trkpt>
      <trkpt lat="45.8782110" lon="5.7089310">
        <ele>381.4</ele>
        <time>2022-07-26T11:28:19Z</time>
      </trkpt>
      <trkpt lat="45.8781840" lon="5.7089690">
        <ele>381.0</ele>
        <time>2022-07-26T11:28:20Z</time>
      </trkpt>
      <trkpt lat="45.8781580" lon="5.7090030">
        <ele>380.6</ele>
        <time>2022-07-26T11:28:21Z</time>
      </trkpt>
      <trkpt lat="45.8781320" lon="5.7090360">
        <ele>380.2</ele>
        <time>2022-07-26T11:28:22Z</time>
      </trkpt>
      <trkpt lat="45.8781240" lon="5.7090470">
        <ele>380.1</ele>
        <time>2022-07-26T11:28:23Z</time>
      </trkpt>
      <trkpt lat="45.8781080" lon="5.7090700">
        <ele>379.9</ele>
        <time>2022-07-26T11:28:24Z</time>
      </trkpt>
      <trkpt lat="45.8781030" lon="5.7090780">
        <ele>379.8</ele>
        <time>2022-07-26T11:28:25Z</time>
      </trkpt>
      <trkpt lat="45.8780990" lon="5.7090850">
        <ele>379.7</ele>
        <time>2022-07-26T11:28:26Z</time>
      </trkpt>
      <trkpt lat="45.8780930" lon="5.7090960">
        <ele>379.6</ele>
        <time>2022-07-26T11:28:27Z</time>
      </trkpt>
      <trkpt lat="45.8780910" lon="5.7091010">
        <ele>379.6</ele>
        <time>2022-07-26T11:28:28Z</time>
      </trkpt>
      <trkpt lat="45.8780890" lon="5.7091030">
        <ele>379.5</ele>
        <time>2022-07-26T11:28:29Z</time>
      </trkpt>
      <trkpt lat="45.8780920" lon="5.7091010">
        <ele>379.5</ele>
        <time>2022-07-26T11:28:30Z</time>
      </trkpt>
      <trkpt lat="45.8780980" lon="5.7090990">
        <ele>379.4</ele>
        <time>2022-07-26T11:28:31Z</time>
      </trkpt>
      <trkpt lat="45.8781030" lon="5.7090990">
        <ele>379.4</ele>
        <time>2022-07-26T11:28:32Z</time>
      </trkpt>
      <trkpt lat="45.8781060" lon="5.7090990">
        <ele>379.3</ele>
        <time>2022-07-26T11:28:33Z</time>
      </trkpt>
      <trkpt lat="45.8781070" lon="5.7090990">
        <ele>379.3</ele>
        <time>2022-07-26T11:28:34Z</time>
      </trkpt>
      <trkpt lat="45.8781060" lon="5.7090990">
        <ele>379.3</ele>
        <time>2022-07-26T11:28:35Z</time>
      </trkpt>
      <trkpt lat="45.8781040" lon="5.7090990">
        <ele>379.3</ele>
        <time>2022-07-26T11:28:36Z</time>
      </trkpt>
      <trkpt lat="45.8781020" lon="5.7090990">
        <ele>379.3</ele>
        <time>2022-07-26T11:28:37Z</time>
      </trkpt>
      <trkpt lat="45.8781000" lon="5.7091010">
        <ele>379.2</ele>
        <time>2022-07-26T11:28:38Z</time>
      </trkpt>
      <trkpt lat="45.8781000" lon="5.7091030">
        <ele>379.2</ele>
        <time>2022-07-26T11:28:39Z</time>
      </trkpt>
      <trkpt lat="45.8781000" lon="5.7091060">
        <ele>379.2</ele>
        <time>2022-07-26T11:28:40Z</time>
      </trkpt>
      <trkpt lat="45.8780990" lon="5.7091090">
        <ele>379.2</ele>
        <time>2022-07-26T11:28:41Z</time>
      </trkpt>
      <trkpt lat="45.8780980" lon="5.7091120">
        <ele>379.1</ele>
        <time>2022-07-26T11:28:42Z</time>
      </trkpt>
      <trkpt lat="45.8780940" lon="5.7091140">
        <ele>379.1</ele>
        <time>2022-07-26T11:28:43Z</time>
      </trkpt>
      <trkpt lat="45.8780590" lon="5.7091230">
        <ele>378.7</ele>
        <time>2022-07-26T11:28:45Z</time>
      </trkpt>
      <trkpt lat="45.8780220" lon="5.7091350">
        <ele>378.3</ele>
        <time>2022-07-26T11:28:46Z</time>
      </trkpt>
      <trkpt lat="45.8780100" lon="5.7091410">
        <ele>378.1</ele>
        <time>2022-07-26T11:28:47Z</time>
      </trkpt>
      <trkpt lat="45.8779670" lon="5.7091760">
        <ele>377.5</ele>
        <time>2022-07-26T11:28:48Z</time>
      </trkpt>
      <trkpt lat="45.8779470" lon="5.7091910">
        <ele>377.3</ele>
        <time>2022-07-26T11:28:49Z</time>
      </trkpt>
      <trkpt lat="45.8779050" lon="5.7092260">
        <ele>376.7</ele>
        <time>2022-07-26T11:28:50Z</time>
      </trkpt>
      <trkpt lat="45.8778670" lon="5.7092640">
        <ele>376.0</ele>
        <time>2022-07-26T11:28:51Z</time>
      </trkpt>
      <trkpt lat="45.8778270" lon="5.7093080">
        <ele>375.4</ele>
        <time>2022-07-26T11:28:52Z</time>
      </trkpt>
      <trkpt lat="45.8777810" lon="5.7093380">
        <ele>374.8</ele>
        <time>2022-07-26T11:28:53Z</time>
      </trkpt>
      <trkpt lat="45.8777130" lon="5.7093520">
        <ele>374.0</ele>
        <time>2022-07-26T11:28:54Z</time>
      </trkpt>
      <trkpt lat="45.8776340" lon="5.7093570">
        <ele>373.3</ele>
        <time>2022-07-26T11:28:55Z</time>
      </trkpt>
      <trkpt lat="45.8775920" lon="5.7093610">
        <ele>373.0</ele>
        <time>2022-07-26T11:28:56Z</time>
      </trkpt>
      <trkpt lat="45.8775610" lon="5.7093490">
        <ele>372.8</ele>
        <time>2022-07-26T11:28:57Z</time>
      </trkpt>
      <trkpt lat="45.8775160" lon="5.7093350">
        <ele>372.4</ele>
        <time>2022-07-26T11:28:58Z</time>
      </trkpt>
      <trkpt lat="45.8774800" lon="5.7093190">
        <ele>372.2</ele>
        <time>2022-07-26T11:28:59Z</time>
      </trkpt>
      <trkpt lat="45.8774490" lon="5.7092890">
        <ele>372.0</ele>
        <time>2022-07-26T11:29:00Z</time>
      </trkpt>
      <trkpt lat="45.8774260" lon="5.7092420">
        <ele>371.8</ele>
        <time>2022-07-26T11:29:01Z</time>
      </trkpt>
      <trkpt lat="45.8773870" lon="5.7091840">
        <ele>371.6</ele>
        <time>2022-07-26T11:29:02Z</time>
      </trkpt>
      <trkpt lat="45.8773480" lon="5.7091390">
        <ele>371.5</ele>
        <time>2022-07-26T11:29:04Z</time>
      </trkpt>
      <trkpt lat="45.8773040" lon="5.7090990">
        <ele>371.4</ele>
        <time>2022-07-26T11:29:05Z</time>
      </trkpt>
      <trkpt lat="45.8772630" lon="5.7090670">
        <ele>371.4</ele>
        <time>2022-07-26T11:29:06Z</time>
      </trkpt>
      <trkpt lat="45.8772310" lon="5.7090300">
        <ele>371.4</ele>
        <time>2022-07-26T11:29:07Z</time>
      </trkpt>
      <trkpt lat="45.8771980" lon="5.7089780">
        <ele>371.4</ele>
        <time>2022-07-26T11:29:08Z</time>
      </trkpt>
      <trkpt lat="45.8771780" lon="5.7089380">
        <ele>371.4</ele>
        <time>2022-07-26T11:29:10Z</time>
      </trkpt>
      <trkpt lat="45.8771570" lon="5.7089020">
        <ele>371.5</ele>
        <time>2022-07-26T11:29:11Z</time>
      </trkpt>
      <trkpt lat="45.8771410" lon="5.7088780">
        <ele>371.5</ele>
        <time>2022-07-26T11:29:12Z</time>
      </trkpt>
      <trkpt lat="45.8771170" lon="5.7088230">
        <ele>371.5</ele>
        <time>2022-07-26T11:29:14Z</time>
      </trkpt>
      <trkpt lat="45.8771110" lon="5.7087840">
        <ele>371.5</ele>
        <time>2022-07-26T11:29:15Z</time>
      </trkpt>
      <trkpt lat="45.8771110" lon="5.7087490">
        <ele>371.5</ele>
        <time>2022-07-26T11:29:16Z</time>
      </trkpt>
      <trkpt lat="45.8771110" lon="5.7087340">
        <ele>371.6</ele>
        <time>2022-07-26T11:29:17Z</time>
      </trkpt>
      <trkpt lat="45.8771110" lon="5.7087190">
        <ele>371.6</ele>
        <time>2022-07-26T11:29:18Z</time>
      </trkpt>
      <trkpt lat="45.8771120" lon="5.7086960">
        <ele>371.6</ele>
        <time>2022-07-26T11:29:19Z</time>
      </trkpt>
      <trkpt lat="45.8771130" lon="5.7086730">
        <ele>371.6</ele>
        <time>2022-07-26T11:29:20Z</time>
      </trkpt>
      <trkpt lat="45.8771130" lon="5.7086480">
        <ele>371.6</ele>
        <time>2022-07-26T11:29:21Z</time>
      </trkpt>
      <trkpt lat="45.8771140" lon="5.7086430">
        <ele>371.6</ele>
        <time>2022-07-26T11:29:22Z</time>
      </trkpt>
      <trkpt lat="45.8771160" lon="5.7086370">
        <ele>371.6</ele>
        <time>2022-07-26T11:29:23Z</time>
      </trkpt>
      <trkpt lat="45.8771180" lon="5.7086320">
        <ele>371.6</ele>
        <time>2022-07-26T11:29:24Z</time>
      </trkpt>
      <trkpt lat="45.8771200" lon="5.7086270">
        <ele>371.7</ele>
        <time>2022-07-26T11:29:25Z</time>
      </trkpt>
      <trkpt lat="45.8771220" lon="5.7086210">
        <ele>371.7</ele>
        <time>2022-07-26T11:29:26Z</time>
      </trkpt>
      <trkpt lat="45.8771240" lon="5.7086160">
        <ele>371.7</ele>
        <time>2022-07-26T11:29:27Z</time>
      </trkpt>
      <trkpt lat="45.8771250" lon="5.7086110">
        <ele>371.7</ele>
        <time>2022-07-26T11:29:28Z</time>
      </trkpt>
      <trkpt lat="45.8771270" lon="5.7086050">
        <ele>371.7</ele>
        <time>2022-07-26T11:29:29Z</time>
      </trkpt>
      <trkpt lat="45.8771290" lon="5.7086000">
        <ele>371.7</ele>
        <time>2022-07-26T11:29:30Z</time>
      </trkpt>
      <trkpt lat="45.8771310" lon="5.7085950">
        <ele>371.7</ele>
        <time>2022-07-26T11:29:31Z</time>
      </trkpt>
      <trkpt lat="45.8771330" lon="5.7085900">
        <ele>371.7</ele>
        <time>2022-07-26T11:29:33Z</time>
      </trkpt>
      <trkpt lat="45.8771350" lon="5.7085840">
        <ele>371.7</ele>
        <time>2022-07-26T11:29:34Z</time>
      </trkpt>
      <trkpt lat="45.8771360" lon="5.7085790">
        <ele>371.7</ele>
        <time>2022-07-26T11:29:35Z</time>
      </trkpt>
      <trkpt lat="45.8771320" lon="5.7085400">
        <ele>371.8</ele>
        <time>2022-07-26T11:29:36Z</time>
      </trkpt>
      <trkpt lat="45.8771240" lon="5.7084910">
        <ele>371.9</ele>
        <time>2022-07-26T11:29:37Z</time>
      </trkpt>
      <trkpt lat="45.8771210" lon="5.7084750">
        <ele>371.9</ele>
        <time>2022-07-26T11:29:38Z</time>
      </trkpt>
      <trkpt lat="45.8771180" lon="5.7084340">
        <ele>371.9</ele>
        <time>2022-07-26T11:29:39Z</time>
      </trkpt>
      <trkpt lat="45.8771160" lon="5.7084210">
        <ele>372.0</ele>
        <time>2022-07-26T11:29:40Z</time>
      </trkpt>
      <trkpt lat="45.8771080" lon="5.7083980">
        <ele>372.0</ele>
        <time>2022-07-26T11:29:41Z</time>
      </trkpt>
      <trkpt lat="45.8770950" lon="5.7083860">
        <ele>371.8</ele>
        <time>2022-07-26T11:29:42Z</time>
      </trkpt>
      <trkpt lat="45.8770720" lon="5.7083680">
        <ele>371.4</ele>
        <time>2022-07-26T11:29:43Z</time>
      </trkpt>
      <trkpt lat="45.8770460" lon="5.7083830">
        <ele>370.9</ele>
        <time>2022-07-26T11:29:45Z</time>
      </trkpt>
      <trkpt lat="45.8770160" lon="5.7084150">
        <ele>370.3</ele>
        <time>2022-07-26T11:29:46Z</time>
      </trkpt>
      <trkpt lat="45.8769860" lon="5.7084330">
        <ele>369.8</ele>
        <time>2022-07-26T11:29:47Z</time>
      </trkpt>
      <trkpt lat="45.8769580" lon="5.7084460">
        <ele>369.4</ele>
        <time>2022-07-26T11:29:48Z</time>
      </trkpt>
      <trkpt lat="45.8769200" lon="5.7084620">
        <ele>368.8</ele>
        <time>2022-07-26T11:29:49Z</time>
      </trkpt>
      <trkpt lat="45.8768840" lon="5.7084750">
        <ele>368.2</ele>
        <time>2022-07-26T11:29:50Z</time>
      </trkpt>
      <trkpt lat="45.8768490" lon="5.7084930">
        <ele>367.6</ele>
        <time>2022-07-26T11:29:51Z</time>
      </trkpt>
      <trkpt lat="45.8768090" lon="5.7085140">
        <ele>367.0</ele>
        <time>2022-07-26T11:29:52Z</time>
      </trkpt>
      <trkpt lat="45.8767750" lon="5.7085300">
        <ele>366.4</ele>
        <time>2022-07-26T11:29:53Z</time>
      </trkpt>
      <trkpt lat="45.8767400" lon="5.7085570">
        <ele>365.9</ele>
        <time>2022-07-26T11:29:54Z</time>
      </trkpt>
      <trkpt lat="45.8767140" lon="5.7085850">
        <ele>365.4</ele>
        <time>2022-07-26T11:29:55Z</time>
      </trkpt>
      <trkpt lat="45.8766850" lon="5.7086140">
        <ele>364.9</ele>
        <time>2022-07-26T11:29:56Z</time>
      </trkpt>
      <trkpt lat="45.8766200" lon="5.7086470">
        <ele>363.9</ele>
        <time>2022-07-26T11:29:58Z</time>
      </trkpt>
      <trkpt lat="45.8765540" lon="5.7087110">
        <ele>362.7</ele>
        <time>2022-07-26T11:30:00Z</time>
      </trkpt>
      <trkpt lat="45.8765210" lon="5.7087480">
        <ele>362.1</ele>
        <time>2022-07-26T11:30:01Z</time>
      </trkpt>
      <trkpt lat="45.8764940" lon="5.7087780">
        <ele>361.5</ele>
        <time>2022-07-26T11:30:02Z</time>
      </trkpt>
      <trkpt lat="45.8764490" lon="5.7088290">
        <ele>360.6</ele>
        <time>2022-07-26T11:30:03Z</time>
      </trkpt>
      <trkpt lat="45.8764050" lon="5.7088720">
        <ele>359.8</ele>
        <time>2022-07-26T11:30:04Z</time>
      </trkpt>
      <trkpt lat="45.8763660" lon="5.7089010">
        <ele>359.2</ele>
        <time>2022-07-26T11:30:05Z</time>
      </trkpt>
      <trkpt lat="45.8763250" lon="5.7089450">
        <ele>358.5</ele>
        <time>2022-07-26T11:30:07Z</time>
      </trkpt>
      <trkpt lat="45.8762890" lon="5.7089800">
        <ele>358.0</ele>
        <time>2022-07-26T11:30:08Z</time>
      </trkpt>
      <trkpt lat="45.8762550" lon="5.7090120">
        <ele>357.5</ele>
        <time>2022-07-26T11:30:09Z</time>
      </trkpt>
      <trkpt lat="45.8762280" lon="5.7090370">
        <ele>357.0</ele>
        <time>2022-07-26T11:30:10Z</time>
      </trkpt>
      <trkpt lat="45.8761840" lon="5.7090800">
        <ele>356.3</ele>
        <time>2022-07-26T11:30:12Z</time>
      </trkpt>
      <trkpt lat="45.8761490" lon="5.7091130">
        <ele>355.8</ele>
        <time>2022-07-26T11:30:13Z</time>
      </trkpt>
      <trkpt lat="45.8760960" lon="5.7091410">
        <ele>355.0</ele>
        <time>2022-07-26T11:30:14Z</time>
      </trkpt>
      <trkpt lat="45.8760640" lon="5.7091660">
        <ele>354.6</ele>
        <time>2022-07-26T11:30:15Z</time>
      </trkpt>
      <trkpt lat="45.8760310" lon="5.7091840">
        <ele>354.0</ele>
        <time>2022-07-26T11:30:16Z</time>
      </trkpt>
      <trkpt lat="45.8760160" lon="5.7091900">
        <ele>353.8</ele>
        <time>2022-07-26T11:30:17Z</time>
      </trkpt>
      <trkpt lat="45.8759780" lon="5.7092000">
        <ele>353.2</ele>
        <time>2022-07-26T11:30:18Z</time>
      </trkpt>
      <trkpt lat="45.8759430" lon="5.7092060">
        <ele>352.5</ele>
        <time>2022-07-26T11:30:19Z</time>
      </trkpt>
      <trkpt lat="45.8759060" lon="5.7092120">
        <ele>351.8</ele>
        <time>2022-07-26T11:30:20Z</time>
      </trkpt>
      <trkpt lat="45.8758950" lon="5.7092130">
        <ele>351.5</ele>
        <time>2022-07-26T11:30:21Z</time>
      </trkpt>
      <trkpt lat="45.8758670" lon="5.7091900">
        <ele>350.8</ele>
        <time>2022-07-26T11:30:23Z</time>
      </trkpt>
      <trkpt lat="45.8758620" lon="5.7091800">
        <ele>350.6</ele>
        <time>2022-07-26T11:30:24Z</time>
      </trkpt>
      <trkpt lat="45.8758580" lon="5.7091620">
        <ele>350.2</ele>
        <time>2022-07-26T11:30:25Z</time>
      </trkpt>
      <trkpt lat="45.8758550" lon="5.7091480">
        <ele>350.0</ele>
        <time>2022-07-26T11:30:26Z</time>
      </trkpt>
      <trkpt lat="45.8758530" lon="5.7091410">
        <ele>349.8</ele>
        <time>2022-07-26T11:30:27Z</time>
      </trkpt>
      <trkpt lat="45.8758510" lon="5.7091370">
        <ele>349.7</ele>
        <time>2022-07-26T11:30:28Z</time>
      </trkpt>
      <trkpt lat="45.8758480" lon="5.7091380">
        <ele>349.6</ele>
        <time>2022-07-26T11:30:29Z</time>
      </trkpt>
      <trkpt lat="45.8758450" lon="5.7091360">
        <ele>349.5</ele>
        <time>2022-07-26T11:30:30Z</time>
      </trkpt>
      <trkpt lat="45.8758490" lon="5.7091400">
        <ele>349.4</ele>
        <time>2022-07-26T11:30:31Z</time>
      </trkpt>
      <trkpt lat="45.8758540" lon="5.7091340">
        <ele>349.2</ele>
        <time>2022-07-26T11:30:33Z</time>
      </trkpt>
      <trkpt lat="45.8758530" lon="5.7091070">
        <ele>348.7</ele>
        <time>2022-07-26T11:30:34Z</time>
      </trkpt>
      <trkpt lat="45.8758460" lon="5.7090880">
        <ele>348.2</ele>
        <time>2022-07-26T11:30:35Z</time>
      </trkpt>
      <trkpt lat="45.8758390" lon="5.7090890">
        <ele>348.0</ele>
        <time>2022-07-26T11:30:36Z</time>
      </trkpt>
      <trkpt lat="45.8758330" lon="5.7090900">
        <ele>347.8</ele>
        <time>2022-07-26T11:30:37Z</time>
      </trkpt>
      <trkpt lat="45.8758260" lon="5.7090900">
        <ele>347.6</ele>
        <time>2022-07-26T11:30:38Z</time>
      </trkpt>
      <trkpt lat="45.8758200" lon="5.7090910">
        <ele>347.4</ele>
        <time>2022-07-26T11:30:39Z</time>
      </trkpt>
      <trkpt lat="45.8758130" lon="5.7090920">
        <ele>347.2</ele>
        <time>2022-07-26T11:30:40Z</time>
      </trkpt>
      <trkpt lat="45.8758070" lon="5.7090930">
        <ele>347.0</ele>
        <time>2022-07-26T11:30:41Z</time>
      </trkpt>
      <trkpt lat="45.8758000" lon="5.7090940">
        <ele>346.8</ele>
        <time>2022-07-26T11:30:43Z</time>
      </trkpt>
      <trkpt lat="45.8757940" lon="5.7090950">
        <ele>346.5</ele>
        <time>2022-07-26T11:30:44Z</time>
      </trkpt>
      <trkpt lat="45.8757870" lon="5.7090960">
        <ele>346.3</ele>
        <time>2022-07-26T11:30:45Z</time>
      </trkpt>
      <trkpt lat="45.8757810" lon="5.7090970">
        <ele>346.1</ele>
        <time>2022-07-26T11:30:47Z</time>
      </trkpt>
      <trkpt lat="45.8757750" lon="5.7090980">
        <ele>345.9</ele>
        <time>2022-07-26T11:30:48Z</time>
      </trkpt>
      <trkpt lat="45.8757680" lon="5.7090980">
        <ele>345.7</ele>
        <time>2022-07-26T11:30:49Z</time>
      </trkpt>
      <trkpt lat="45.8757620" lon="5.7090990">
        <ele>345.5</ele>
        <time>2022-07-26T11:30:50Z</time>
      </trkpt>
      <trkpt lat="45.8757550" lon="5.7091000">
        <ele>345.3</ele>
        <time>2022-07-26T11:30:52Z</time>
      </trkpt>
      <trkpt lat="45.8757490" lon="5.7091010">
        <ele>345.1</ele>
        <time>2022-07-26T11:30:53Z</time>
      </trkpt>
      <trkpt lat="45.8757420" lon="5.7091020">
        <ele>344.9</ele>
        <time>2022-07-26T11:30:54Z</time>
      </trkpt>
      <trkpt lat="45.8757360" lon="5.7091030">
        <ele>344.7</ele>
        <time>2022-07-26T11:30:55Z</time>
      </trkpt>
      <trkpt lat="45.8757290" lon="5.7091040">
        <ele>344.4</ele>
        <time>2022-07-26T11:30:56Z</time>
      </trkpt>
      <trkpt lat="45.8757230" lon="5.7091050">
        <ele>344.3</ele>
        <time>2022-07-26T11:30:58Z</time>
      </trkpt>
      <trkpt lat="45.8757160" lon="5.7091060">
        <ele>344.0</ele>
        <time>2022-07-26T11:31:09Z</time>
      </trkpt>
      <trkpt lat="45.8757100" lon="5.7091060">
        <ele>343.8</ele>
        <time>2022-07-26T11:31:10Z</time>
      </trkpt>
      <trkpt lat="45.8757040" lon="5.7091070">
        <ele>343.6</ele>
        <time>2022-07-26T11:31:12Z</time>
      </trkpt>
      <trkpt lat="45.8756970" lon="5.7091080">
        <ele>343.4</ele>
        <time>2022-07-26T11:31:13Z</time>
      </trkpt>
      <trkpt lat="45.8756910" lon="5.7091090">
        <ele>343.2</ele>
        <time>2022-07-26T11:31:14Z</time>
      </trkpt>
      <trkpt lat="45.8756640" lon="5.7091050">
        <ele>342.3</ele>
        <time>2022-07-26T11:31:16Z</time>
      </trkpt>
      <trkpt lat="45.8756540" lon="5.7091040">
        <ele>341.9</ele>
        <time>2022-07-26T11:31:17Z</time>
      </trkpt>
      <trkpt lat="45.8756240" lon="5.7091030">
        <ele>341.0</ele>
        <time>2022-07-26T11:31:18Z</time>
      </trkpt>
      <trkpt lat="45.8756140" lon="5.7091050">
        <ele>340.7</ele>
        <time>2022-07-26T11:31:19Z</time>
      </trkpt>
      <trkpt lat="45.8755750" lon="5.7091160">
        <ele>339.4</ele>
        <time>2022-07-26T11:31:20Z</time>
      </trkpt>
      <trkpt lat="45.8755610" lon="5.7091210">
        <ele>338.9</ele>
        <time>2022-07-26T11:31:21Z</time>
      </trkpt>
      <trkpt lat="45.8755280" lon="5.7091310">
        <ele>337.9</ele>
        <time>2022-07-26T11:31:22Z</time>
      </trkpt>
      <trkpt lat="45.8754970" lon="5.7091410">
        <ele>336.9</ele>
        <time>2022-07-26T11:31:24Z</time>
      </trkpt>
      <trkpt lat="45.8754900" lon="5.7091430">
        <ele>336.7</ele>
        <time>2022-07-26T11:31:25Z</time>
      </trkpt>
      <trkpt lat="45.8754620" lon="5.7091520">
        <ele>335.9</ele>
        <time>2022-07-26T11:31:26Z</time>
      </trkpt>
      <trkpt lat="45.8754520" lon="5.7091550">
        <ele>335.6</ele>
        <time>2022-07-26T11:31:27Z</time>
      </trkpt>
      <trkpt lat="45.8754230" lon="5.7091650">
        <ele>334.7</ele>
        <time>2022-07-26T11:31:28Z</time>
      </trkpt>
      <trkpt lat="45.8754150" lon="5.7091680">
        <ele>334.4</ele>
        <time>2022-07-26T11:31:29Z</time>
      </trkpt>
      <trkpt lat="45.8754070" lon="5.7091710">
        <ele>334.2</ele>
        <time>2022-07-26T11:31:30Z</time>
      </trkpt>
      <trkpt lat="45.8753890" lon="5.7091760">
        <ele>333.7</ele>
        <time>2022-07-26T11:31:31Z</time>
      </trkpt>
      <trkpt lat="45.8753780" lon="5.7091780">
        <ele>333.3</ele>
        <time>2022-07-26T11:31:33Z</time>
      </trkpt>
      <trkpt lat="45.8753680" lon="5.7091790">
        <ele>333.0</ele>
        <time>2022-07-26T11:31:34Z</time>
      </trkpt>
      <trkpt lat="45.8753620" lon="5.7091780">
        <ele>332.8</ele>
        <time>2022-07-26T11:31:35Z</time>
      </trkpt>
      <trkpt lat="45.8753560" lon="5.7091780">
        <ele>332.7</ele>
        <time>2022-07-26T11:31:36Z</time>
      </trkpt>
      <trkpt lat="45.8753510" lon="5.7091790">
        <ele>332.5</ele>
        <time>2022-07-26T11:31:37Z</time>
      </trkpt>
      <trkpt lat="45.8753450" lon="5.7091800">
        <ele>332.3</ele>
        <time>2022-07-26T11:31:38Z</time>
      </trkpt>
      <trkpt lat="45.8753390" lon="5.7091810">
        <ele>332.1</ele>
        <time>2022-07-26T11:31:39Z</time>
      </trkpt>
      <trkpt lat="45.8753360" lon="5.7091840">
        <ele>332.0</ele>
        <time>2022-07-26T11:31:40Z</time>
      </trkpt>
      <trkpt lat="45.8753270" lon="5.7091870">
        <ele>331.7</ele>
        <time>2022-07-26T11:31:42Z</time>
      </trkpt>
      <trkpt lat="45.8753190" lon="5.7091880">
        <ele>331.5</ele>
        <time>2022-07-26T11:31:43Z</time>
      </trkpt>
      <trkpt lat="45.8753120" lon="5.7091880">
        <ele>331.3</ele>
        <time>2022-07-26T11:31:44Z</time>
      </trkpt>
      <trkpt lat="45.8752950" lon="5.7091870">
        <ele>330.7</ele>
        <time>2022-07-26T11:31:45Z</time>
      </trkpt>
      <trkpt lat="45.8752860" lon="5.7091850">
        <ele>330.4</ele>
        <time>2022-07-26T11:31:47Z</time>
      </trkpt>
      <trkpt lat="45.8752800" lon="5.7091830">
        <ele>330.2</ele>
        <time>2022-07-26T11:31:48Z</time>
      </trkpt>
      <trkpt lat="45.8752730" lon="5.7091800">
        <ele>330.0</ele>
        <time>2022-07-26T11:31:49Z</time>
      </trkpt>
      <trkpt lat="45.8752670" lon="5.7091790">
        <ele>329.8</ele>
        <time>2022-07-26T11:31:50Z</time>
      </trkpt>
      <trkpt lat="45.8752600" lon="5.7091780">
        <ele>329.6</ele>
        <time>2022-07-26T11:31:51Z</time>
      </trkpt>
      <trkpt lat="45.8752530" lon="5.7091760">
        <ele>329.3</ele>
        <time>2022-07-26T11:31:52Z</time>
      </trkpt>
      <trkpt lat="45.8752440" lon="5.7091750">
        <ele>329.0</ele>
        <time>2022-07-26T11:31:53Z</time>
      </trkpt>
      <trkpt lat="45.8752300" lon="5.7091730">
        <ele>328.6</ele>
        <time>2022-07-26T11:31:55Z</time>
      </trkpt>
      <trkpt lat="45.8752150" lon="5.7091760">
        <ele>328.1</ele>
        <time>2022-07-26T11:31:56Z</time>
      </trkpt>
      <trkpt lat="45.8752010" lon="5.7091830">
        <ele>327.6</ele>
        <time>2022-07-26T11:31:57Z</time>
      </trkpt>
      <trkpt lat="45.8751880" lon="5.7091920">
        <ele>327.2</ele>
        <time>2022-07-26T11:31:58Z</time>
      </trkpt>
      <trkpt lat="45.8751710" lon="5.7092050">
        <ele>326.5</ele>
        <time>2022-07-26T11:31:59Z</time>
      </trkpt>
      <trkpt lat="45.8751570" lon="5.7092150">
        <ele>326.1</ele>
        <time>2022-07-26T11:32:00Z</time>
      </trkpt>
      <trkpt lat="45.8751410" lon="5.7092230">
        <ele>325.6</ele>
        <time>2022-07-26T11:32:01Z</time>
      </trkpt>
      <trkpt lat="45.8751220" lon="5.7092310">
        <ele>325.0</ele>
        <time>2022-07-26T11:32:03Z</time>
      </trkpt>
      <trkpt lat="45.8751140" lon="5.7092360">
        <ele>324.7</ele>
        <time>2022-07-26T11:32:04Z</time>
      </trkpt>
      <trkpt lat="45.8751060" lon="5.7092400">
        <ele>324.5</ele>
        <time>2022-07-26T11:32:05Z</time>
      </trkpt>
      <trkpt lat="45.8750990" lon="5.7092430">
        <ele>324.3</ele>
        <time>2022-07-26T11:32:06Z</time>
      </trkpt>
      <trkpt lat="45.8750970" lon="5.7092440">
        <ele>324.2</ele>
        <time>2022-07-26T11:32:07Z</time>
      </trkpt>
      <trkpt lat="45.8750970" lon="5.7092440">
        <ele>324.2</ele>
        <time>2022-07-26T11:32:08Z</time>
      </trkpt>
      <trkpt lat="45.8750970" lon="5.7092450">
        <ele>324.2</ele>
        <time>2022-07-26T11:32:09Z</time>
      </trkpt>
      <trkpt lat="45.8750910" lon="5.7092460">
        <ele>324.0</ele>
        <time>2022-07-26T11:32:10Z</time>
      </trkpt>
      <trkpt lat="45.8750810" lon="5.7092470">
        <ele>323.7</ele>
        <time>2022-07-26T11:32:12Z</time>
      </trkpt>
      <trkpt lat="45.8750750" lon="5.7092450">
        <ele>323.5</ele>
        <time>2022-07-26T11:32:13Z</time>
      </trkpt>
      <trkpt lat="45.8750680" lon="5.7092420">
        <ele>323.3</ele>
        <time>2022-07-26T11:32:14Z</time>
      </trkpt>
      <trkpt lat="45.8750630" lon="5.7092390">
        <ele>323.2</ele>
        <time>2022-07-26T11:32:15Z</time>
      </trkpt>
      <trkpt lat="45.8750550" lon="5.7092360">
        <ele>322.9</ele>
        <time>2022-07-26T11:32:16Z</time>
      </trkpt>
      <trkpt lat="45.8750520" lon="5.7092350">
        <ele>322.8</ele>
        <time>2022-07-26T11:32:17Z</time>
      </trkpt>
      <trkpt lat="45.8750490" lon="5.7092340">
        <ele>322.8</ele>
        <time>2022-07-26T11:32:18Z</time>
      </trkpt>
      <trkpt lat="45.8750400" lon="5.7092280">
        <ele>322.5</ele>
        <time>2022-07-26T11:32:20Z</time>
      </trkpt>
      <trkpt lat="45.8750300" lon="5.7092220">
        <ele>322.2</ele>
        <time>2022-07-26T11:32:21Z</time>
      </trkpt>
      <trkpt lat="45.8750220" lon="5.7092150">
        <ele>321.9</ele>
        <time>2022-07-26T11:32:22Z</time>
      </trkpt>
      <trkpt lat="45.8750080" lon="5.7092050">
        <ele>321.5</ele>
        <time>2022-07-26T11:32:23Z</time>
      </trkpt>
      <trkpt lat="45.8750020" lon="5.7092000">
        <ele>321.3</ele>
        <time>2022-07-26T11:32:25Z</time>
      </trkpt>
      <trkpt lat="45.8749950" lon="5.7091950">
        <ele>321.1</ele>
        <time>2022-07-26T11:32:26Z</time>
      </trkpt>
      <trkpt lat="45.8749890" lon="5.7091900">
        <ele>320.9</ele>
        <time>2022-07-26T11:32:27Z</time>
      </trkpt>
      <trkpt lat="45.8749800" lon="5.7091830">
        <ele>320.7</ele>
        <time>2022-07-26T11:32:28Z</time>
      </trkpt>
      <trkpt lat="45.8749650" lon="5.7091740">
        <ele>320.3</ele>
        <time>2022-07-26T11:32:29Z</time>
      </trkpt>
      <trkpt lat="45.8749520" lon="5.7091690">
        <ele>319.9</ele>
        <time>2022-07-26T11:32:31Z</time>
      </trkpt>
      <trkpt lat="45.8749390" lon="5.7091630">
        <ele>319.6</ele>
        <time>2022-07-26T11:32:32Z</time>
      </trkpt>
      <trkpt lat="45.8749270" lon="5.7091600">
        <ele>319.3</ele>
        <time>2022-07-26T11:32:33Z</time>
      </trkpt>
      <trkpt lat="45.8749110" lon="5.7091580">
        <ele>318.9</ele>
        <time>2022-07-26T11:32:35Z</time>
      </trkpt>
      <trkpt lat="45.8748940" lon="5.7091570">
        <ele>318.5</ele>
        <time>2022-07-26T11:32:37Z</time>
      </trkpt>
      <trkpt lat="45.8748840" lon="5.7091580">
        <ele>318.3</ele>
        <time>2022-07-26T11:32:38Z</time>
      </trkpt>
      <trkpt lat="45.8748760" lon="5.7091590">
        <ele>318.1</ele>
        <time>2022-07-26T11:32:39Z</time>
      </trkpt>
      <trkpt lat="45.8748670" lon="5.7091610">
        <ele>317.9</ele>
        <time>2022-07-26T11:32:40Z</time>
      </trkpt>
      <trkpt lat="45.8748550" lon="5.7091640">
        <ele>317.6</ele>
        <time>2022-07-26T11:32:41Z</time>
      </trkpt>
      <trkpt lat="45.8748440" lon="5.7091660">
        <ele>317.3</ele>
        <time>2022-07-26T11:32:42Z</time>
      </trkpt>
      <trkpt lat="45.8748300" lon="5.7091660">
        <ele>317.0</ele>
        <time>2022-07-26T11:32:43Z</time>
      </trkpt>
      <trkpt lat="45.8748220" lon="5.7091660">
        <ele>316.8</ele>
        <time>2022-07-26T11:32:44Z</time>
      </trkpt>
      <trkpt lat="45.8748140" lon="5.7091650">
        <ele>316.6</ele>
        <time>2022-07-26T11:32:46Z</time>
      </trkpt>
      <trkpt lat="45.8748020" lon="5.7091650">
        <ele>316.3</ele>
        <time>2022-07-26T11:32:47Z</time>
      </trkpt>
      <trkpt lat="45.8747910" lon="5.7091660">
        <ele>316.1</ele>
        <time>2022-07-26T11:32:48Z</time>
      </trkpt>
      <trkpt lat="45.8747830" lon="5.7091650">
        <ele>315.9</ele>
        <time>2022-07-26T11:32:49Z</time>
      </trkpt>
      <trkpt lat="45.8747710" lon="5.7091630">
        <ele>315.6</ele>
        <time>2022-07-26T11:32:50Z</time>
      </trkpt>
      <trkpt lat="45.8747600" lon="5.7091610">
        <ele>315.4</ele>
        <time>2022-07-26T11:32:51Z</time>
      </trkpt>
      <trkpt lat="45.8747400" lon="5.7091560">
        <ele>314.9</ele>
        <time>2022-07-26T11:32:53Z</time>
      </trkpt>
      <trkpt lat="45.8747270" lon="5.7091530">
        <ele>314.6</ele>
        <time>2022-07-26T11:32:54Z</time>
      </trkpt>
      <trkpt lat="45.8747160" lon="5.7091530">
        <ele>314.3</ele>
        <time>2022-07-26T11:32:55Z</time>
      </trkpt>
      <trkpt lat="45.8746990" lon="5.7091540">
        <ele>313.9</ele>
        <time>2022-07-26T11:32:57Z</time>
      </trkpt>
      <trkpt lat="45.8746960" lon="5.7091560">
        <ele>313.9</ele>
        <time>2022-07-26T11:32:58Z</time>
      </trkpt>
      <trkpt lat="45.8746960" lon="5.7091570">
        <ele>313.8</ele>
        <time>2022-07-26T11:32:59Z</time>
      </trkpt>
      <trkpt lat="45.8746960" lon="5.7091580">
        <ele>313.8</ele>
        <time>2022-07-26T11:33:00Z</time>
      </trkpt>
      <trkpt lat="45.8746980" lon="5.7091590">
        <ele>313.8</ele>
        <time>2022-07-26T11:33:01Z</time>
      </trkpt>
      <trkpt lat="45.8746990" lon="5.7091600">
        <ele>313.8</ele>
        <time>2022-07-26T11:33:02Z</time>
      </trkpt>
      <trkpt lat="45.8746990" lon="5.7091620">
        <ele>313.7</ele>
        <time>2022-07-26T11:33:03Z</time>
      </trkpt>
      <trkpt lat="45.8746980" lon="5.7091640">
        <ele>313.7</ele>
        <time>2022-07-26T11:33:04Z</time>
      </trkpt>
      <trkpt lat="45.8746970" lon="5.7091660">
        <ele>313.6</ele>
        <time>2022-07-26T11:33:05Z</time>
      </trkpt>
      <trkpt lat="45.8746950" lon="5.7091690">
        <ele>313.6</ele>
        <time>2022-07-26T11:33:06Z</time>
      </trkpt>
      <trkpt lat="45.8746940" lon="5.7091710">
        <ele>313.5</ele>
        <time>2022-07-26T11:33:07Z</time>
      </trkpt>
      <trkpt lat="45.8746520" lon="5.7091620">
        <ele>312.5</ele>
        <time>2022-07-26T11:33:22Z</time>
      </trkpt>
      <trkpt lat="45.8746480" lon="5.7091540">
        <ele>312.4</ele>
        <time>2022-07-26T11:33:23Z</time>
      </trkpt>
      <trkpt lat="45.8746470" lon="5.7091530">
        <ele>312.4</ele>
        <time>2022-07-26T11:33:24Z</time>
      </trkpt>
      <trkpt lat="45.8746470" lon="5.7091520">
        <ele>312.4</ele>
        <time>2022-07-26T11:33:25Z</time>
      </trkpt>
      <trkpt lat="45.8746450" lon="5.7091490">
        <ele>312.3</ele>
        <time>2022-07-26T11:33:26Z</time>
      </trkpt>
      <trkpt lat="45.8746420" lon="5.7091440">
        <ele>312.2</ele>
        <time>2022-07-26T11:33:27Z</time>
      </trkpt>
      <trkpt lat="45.8746400" lon="5.7091380">
        <ele>312.1</ele>
        <time>2022-07-26T11:33:28Z</time>
      </trkpt>
      <trkpt lat="45.8746380" lon="5.7091310">
        <ele>312.0</ele>
        <time>2022-07-26T11:33:29Z</time>
      </trkpt>
      <trkpt lat="45.8746370" lon="5.7091250">
        <ele>311.9</ele>
        <time>2022-07-26T11:33:31Z</time>
      </trkpt>
      <trkpt lat="45.8746370" lon="5.7091220">
        <ele>311.8</ele>
        <time>2022-07-26T11:33:32Z</time>
      </trkpt>
      <trkpt lat="45.8746360" lon="5.7091200">
        <ele>311.8</ele>
        <time>2022-07-26T11:33:33Z</time>
      </trkpt>
      <trkpt lat="45.8746110" lon="5.7090980">
        <ele>311.2</ele>
        <time>2022-07-26T11:33:41Z</time>
      </trkpt>
      <trkpt lat="45.8746000" lon="5.7090810">
        <ele>310.8</ele>
        <time>2022-07-26T11:33:42Z</time>
      </trkpt>
      <trkpt lat="45.8745680" lon="5.7090570">
        <ele>310.1</ele>
        <time>2022-07-26T11:33:44Z</time>
      </trkpt>
      <trkpt lat="45.8745440" lon="5.7090310">
        <ele>309.5</ele>
        <time>2022-07-26T11:33:45Z</time>
      </trkpt>
      <trkpt lat="45.8745360" lon="5.7090220">
        <ele>309.4</ele>
        <time>2022-07-26T11:33:46Z</time>
      </trkpt>
      <trkpt lat="45.8745130" lon="5.7089900">
        <ele>308.8</ele>
        <time>2022-07-26T11:33:47Z</time>
      </trkpt>
      <trkpt lat="45.8745060" lon="5.7089810">
        <ele>308.6</ele>
        <time>2022-07-26T11:33:48Z</time>
      </trkpt>
      <trkpt lat="45.8744890" lon="5.7089560">
        <ele>308.2</ele>
        <time>2022-07-26T11:33:49Z</time>
      </trkpt>
      <trkpt lat="45.8744670" lon="5.7089300">
        <ele>307.8</ele>
        <time>2022-07-26T11:33:51Z</time>
      </trkpt>
      <trkpt lat="45.8744440" lon="5.7089000">
        <ele>307.3</ele>
        <time>2022-07-26T11:33:52Z</time>
      </trkpt>
      <trkpt lat="45.8744400" lon="5.7088950">
        <ele>307.2</ele>
        <time>2022-07-26T11:33:53Z</time>
      </trkpt>
      <trkpt lat="45.8744210" lon="5.7088760">
        <ele>306.9</ele>
        <time>2022-07-26T11:33:54Z</time>
      </trkpt>
      <trkpt lat="45.8744090" lon="5.7088630">
        <ele>306.6</ele>
        <time>2022-07-26T11:33:55Z</time>
      </trkpt>
      <trkpt lat="45.8743960" lon="5.7088510">
        <ele>306.4</ele>
        <time>2022-07-26T11:33:56Z</time>
      </trkpt>
      <trkpt lat="45.8743650" lon="5.7088160">
        <ele>305.8</ele>
        <time>2022-07-26T11:33:57Z</time>
      </trkpt>
      <trkpt lat="45.8743520" lon="5.7087970">
        <ele>305.5</ele>
        <time>2022-07-26T11:33:59Z</time>
      </trkpt>
      <trkpt lat="45.8743450" lon="5.7087870">
        <ele>305.3</ele>
        <time>2022-07-26T11:34:00Z</time>
      </trkpt>
      <trkpt lat="45.8743320" lon="5.7087740">
        <ele>305.1</ele>
        <time>2022-07-26T11:34:01Z</time>
      </trkpt>
      <trkpt lat="45.8743230" lon="5.7087670">
        <ele>304.9</ele>
        <time>2022-07-26T11:34:02Z</time>
      </trkpt>
      <trkpt lat="45.8743150" lon="5.7087620">
        <ele>304.8</ele>
        <time>2022-07-26T11:34:03Z</time>
      </trkpt>
      <trkpt lat="45.8743070" lon="5.7087560">
        <ele>304.6</ele>
        <time>2022-07-26T11:34:04Z</time>
      </trkpt>
      <trkpt lat="45.8742990" lon="5.7087500">
        <ele>304.4</ele>
        <time>2022-07-26T11:34:05Z</time>
      </trkpt>
      <trkpt lat="45.8742930" lon="5.7087470">
        <ele>304.3</ele>
        <time>2022-07-26T11:34:06Z</time>
      </trkpt>
      <trkpt lat="45.8742840" lon="5.7087440">
        <ele>304.1</ele>
        <time>2022-07-26T11:34:07Z</time>
      </trkpt>
      <trkpt lat="45.8742740" lon="5.7087420">
        <ele>303.9</ele>
        <time>2022-07-26T11:34:08Z</time>
      </trkpt>
      <trkpt lat="45.8742650" lon="5.7087450">
        <ele>303.7</ele>
        <time>2022-07-26T11:34:10Z</time>
      </trkpt>
      <trkpt lat="45.8742590" lon="5.7087450">
        <ele>303.6</ele>
        <time>2022-07-26T11:34:11Z</time>
      </trkpt>
      <trkpt lat="45.8742550" lon="5.7087480">
        <ele>303.5</ele>
        <time>2022-07-26T11:34:12Z</time>
      </trkpt>
      <trkpt lat="45.8742460" lon="5.7087520">
        <ele>303.3</ele>
        <time>2022-07-26T11:34:13Z</time>
      </trkpt>
      <trkpt lat="45.8742340" lon="5.7087590">
        <ele>303.0</ele>
        <time>2022-07-26T11:34:15Z</time>
      </trkpt>
      <trkpt lat="45.8742260" lon="5.7087620">
        <ele>302.8</ele>
        <time>2022-07-26T11:34:16Z</time>
      </trkpt>
      <trkpt lat="45.8742120" lon="5.7087650">
        <ele>302.4</ele>
        <time>2022-07-26T11:34:17Z</time>
      </trkpt>
      <trkpt lat="45.8741980" lon="5.7087720">
        <ele>302.1</ele>
        <time>2022-07-26T11:34:19Z</time>
      </trkpt>
      <trkpt lat="45.8741890" lon="5.7087760">
        <ele>301.8</ele>
        <time>2022-07-26T11:34:20Z</time>
      </trkpt>
      <trkpt lat="45.8741800" lon="5.7087840">
        <ele>301.5</ele>
        <time>2022-07-26T11:34:21Z</time>
      </trkpt>
      <trkpt lat="45.8741690" lon="5.7087910">
        <ele>301.2</ele>
        <time>2022-07-26T11:34:22Z</time>
      </trkpt>
      <trkpt lat="45.8741520" lon="5.7087930">
        <ele>300.7</ele>
        <time>2022-07-26T11:34:23Z</time>
      </trkpt>
      <trkpt lat="45.8741440" lon="5.7087930">
        <ele>300.4</ele>
        <time>2022-07-26T11:34:24Z</time>
      </trkpt>
      <trkpt lat="45.8741350" lon="5.7087930">
        <ele>300.1</ele>
        <time>2022-07-26T11:34:26Z</time>
      </trkpt>
      <trkpt lat="45.8741270" lon="5.7087930">
        <ele>299.9</ele>
        <time>2022-07-26T11:34:27Z</time>
      </trkpt>
      <trkpt lat="45.8741180" lon="5.7087930">
        <ele>299.6</ele>
        <time>2022-07-26T11:34:28Z</time>
      </trkpt>
      <trkpt lat="45.8741100" lon="5.7087930">
        <ele>299.4</ele>
        <time>2022-07-26T11:34:29Z</time>
      </trkpt>
      <trkpt lat="45.8741020" lon="5.7087930">
        <ele>299.1</ele>
        <time>2022-07-26T11:34:30Z</time>
      </trkpt>
      <trkpt lat="45.8740920" lon="5.7087940">
        <ele>298.8</ele>
        <time>2022-07-26T11:34:31Z</time>
      </trkpt>
      <trkpt lat="45.8740830" lon="5.7087940">
        <ele>298.5</ele>
        <time>2022-07-26T11:34:32Z</time>
      </trkpt>
      <trkpt lat="45.8740680" lon="5.7087900">
        <ele>298.1</ele>
        <time>2022-07-26T11:34:34Z</time>
      </trkpt>
      <trkpt lat="45.8740610" lon="5.7087910">
        <ele>297.8</ele>
        <time>2022-07-26T11:34:35Z</time>
      </trkpt>
      <trkpt lat="45.8740480" lon="5.7087890">
        <ele>297.4</ele>
        <time>2022-07-26T11:34:37Z</time>
      </trkpt>
      <trkpt lat="45.8740410" lon="5.7087880">
        <ele>297.2</ele>
        <time>2022-07-26T11:34:38Z</time>
      </trkpt>
      <trkpt lat="45.8740350" lon="5.7087880">
        <ele>297.0</ele>
        <time>2022-07-26T11:34:39Z</time>
      </trkpt>
      <trkpt lat="45.8740290" lon="5.7087880">
        <ele>296.8</ele>
        <time>2022-07-26T11:34:40Z</time>
      </trkpt>
      <trkpt lat="45.8740200" lon="5.7087890">
        <ele>296.6</ele>
        <time>2022-07-26T11:34:41Z</time>
      </trkpt>
      <trkpt lat="45.8740150" lon="5.7087890">
        <ele>296.4</ele>
        <time>2022-07-26T11:34:42Z</time>
      </trkpt>
      <trkpt lat="45.8740100" lon="5.7087900">
        <ele>296.3</ele>
        <time>2022-07-26T11:34:43Z</time>
      </trkpt>
      <trkpt lat="45.8740020" lon="5.7087900">
        <ele>296.0</ele>
        <time>2022-07-26T11:34:45Z</time>
      </trkpt>
      <trkpt lat="45.8739940" lon="5.7087920">
        <ele>295.7</ele>
        <time>2022-07-26T11:34:46Z</time>
      </trkpt>
      <trkpt lat="45.8739880" lon="5.7087940">
        <ele>295.6</ele>
        <time>2022-07-26T11:34:47Z</time>
      </trkpt>
      <trkpt lat="45.8739790" lon="5.7088000">
        <ele>295.2</ele>
        <time>2022-07-26T11:34:48Z</time>
      </trkpt>
      <trkpt lat="45.8739710" lon="5.7088070">
        <ele>295.0</ele>
        <time>2022-07-26T11:34:49Z</time>
      </trkpt>
      <trkpt lat="45.8739630" lon="5.7088140">
        <ele>294.7</ele>
        <time>2022-07-26T11:34:50Z</time>
      </trkpt>
      <trkpt lat="45.8739560" lon="5.7088230">
        <ele>294.4</ele>
        <time>2022-07-26T11:34:51Z</time>
      </trkpt>
      <trkpt lat="45.8739460" lon="5.7088350">
        <ele>294.0</ele>
        <time>2022-07-26T11:34:52Z</time>
      </trkpt>
      <trkpt lat="45.8739360" lon="5.7088490">
        <ele>293.5</ele>
        <time>2022-07-26T11:34:53Z</time>
      </trkpt>
      <trkpt lat="45.8739310" lon="5.7088580">
        <ele>293.3</ele>
        <time>2022-07-26T11:34:54Z</time>
      </trkpt>
      <trkpt lat="45.8739200" lon="5.7088810">
        <ele>292.7</ele>
        <time>2022-07-26T11:34:56Z</time>
      </trkpt>
      <trkpt lat="45.8739130" lon="5.7088990">
        <ele>292.2</ele>
        <time>2022-07-26T11:34:57Z</time>
      </trkpt>
      <trkpt lat="45.8739040" lon="5.7089300">
        <ele>291.5</ele>
        <time>2022-07-26T11:34:58Z</time>
      </trkpt>
      <trkpt lat="45.8739000" lon="5.7089440">
        <ele>291.2</ele>
        <time>2022-07-26T11:34:59Z</time>
      </trkpt>
      <trkpt lat="45.8738960" lon="5.7089580">
        <ele>290.8</ele>
        <time>2022-07-26T11:35:00Z</time>
      </trkpt>
      <trkpt lat="45.8738910" lon="5.7089760">
        <ele>290.4</ele>
        <time>2022-07-26T11:35:01Z</time>
      </trkpt>
      <trkpt lat="45.8738850" lon="5.7089920">
        <ele>290.0</ele>
        <time>2022-07-26T11:35:02Z</time>
      </trkpt>
      <trkpt lat="45.8738780" lon="5.7090140">
        <ele>289.5</ele>
        <time>2022-07-26T11:35:04Z</time>
      </trkpt>
      <trkpt lat="45.8738720" lon="5.7090360">
        <ele>289.0</ele>
        <time>2022-07-26T11:35:05Z</time>
      </trkpt>
      <trkpt lat="45.8738680" lon="5.7090530">
        <ele>288.7</ele>
        <time>2022-07-26T11:35:06Z</time>
      </trkpt>
      <trkpt lat="45.8738640" lon="5.7090700">
        <ele>288.3</ele>
        <time>2022-07-26T11:35:07Z</time>
      </trkpt>
      <trkpt lat="45.8738590" lon="5.7091020">
        <ele>287.7</ele>
        <time>2022-07-26T11:35:08Z</time>
      </trkpt>
      <trkpt lat="45.8738510" lon="5.7091240">
        <ele>287.2</ele>
        <time>2022-07-26T11:35:10Z</time>
      </trkpt>
      <trkpt lat="45.8738430" lon="5.7091380">
        <ele>286.8</ele>
        <time>2022-07-26T11:35:11Z</time>
      </trkpt>
      <trkpt lat="45.8738290" lon="5.7091590">
        <ele>286.3</ele>
        <time>2022-07-26T11:35:12Z</time>
      </trkpt>
      <trkpt lat="45.8738230" lon="5.7091680">
        <ele>286.1</ele>
        <time>2022-07-26T11:35:13Z</time>
      </trkpt>
      <trkpt lat="45.8738160" lon="5.7091770">
        <ele>285.8</ele>
        <time>2022-07-26T11:35:14Z</time>
      </trkpt>
      <trkpt lat="45.8738000" lon="5.7091950">
        <ele>285.3</ele>
        <time>2022-07-26T11:35:16Z</time>
      </trkpt>
      <trkpt lat="45.8737930" lon="5.7092020">
        <ele>285.1</ele>
        <time>2022-07-26T11:35:17Z</time>
      </trkpt>
      <trkpt lat="45.8737870" lon="5.7092070">
        <ele>284.9</ele>
        <time>2022-07-26T11:35:18Z</time>
      </trkpt>
      <trkpt lat="45.8737810" lon="5.7092140">
        <ele>284.7</ele>
        <time>2022-07-26T11:35:19Z</time>
      </trkpt>
      <trkpt lat="45.8737760" lon="5.7092200">
        <ele>284.5</ele>
        <time>2022-07-26T11:35:20Z</time>
      </trkpt>
      <trkpt lat="45.8737640" lon="5.7092300">
        <ele>284.2</ele>
        <time>2022-07-26T11:35:21Z</time>
      </trkpt>
      <trkpt lat="45.8737570" lon="5.7092330">
        <ele>284.0</ele>
        <time>2022-07-26T11:35:22Z</time>
      </trkpt>
      <trkpt lat="45.8737530" lon="5.7092360">
        <ele>283.9</ele>
        <time>2022-07-26T11:35:23Z</time>
      </trkpt>
      <trkpt lat="45.8737460" lon="5.7092400">
        <ele>283.7</ele>
        <time>2022-07-26T11:35:24Z</time>
      </trkpt>
      <trkpt lat="45.8737210" lon="5.7092520">
        <ele>283.0</ele>
        <time>2022-07-26T11:35:26Z</time>
      </trkpt>
      <trkpt lat="45.8737090" lon="5.7092600">
        <ele>282.7</ele>
        <time>2022-07-26T11:35:27Z</time>
      </trkpt>
      <trkpt lat="45.8737080" lon="5.7092660">
        <ele>282.6</ele>
        <time>2022-07-26T11:35:28Z</time>
      </trkpt>
      <trkpt lat="45.8737070" lon="5.7092760">
        <ele>282.4</ele>
        <time>2022-07-26T11:35:29Z</time>
      </trkpt>
      <trkpt lat="45.8736960" lon="5.7092850">
        <ele>282.1</ele>
        <time>2022-07-26T11:35:31Z</time>
      </trkpt>
      <trkpt lat="45.8736890" lon="5.7092900">
        <ele>281.9</ele>
        <time>2022-07-26T11:35:32Z</time>
      </trkpt>
      <trkpt lat="45.8736780" lon="5.7092950">
        <ele>281.6</ele>
        <time>2022-07-26T11:35:33Z</time>
      </trkpt>
      <trkpt lat="45.8736690" lon="5.7093000">
        <ele>281.3</ele>
        <time>2022-07-26T11:35:34Z</time>
      </trkpt>
      <trkpt lat="45.8736610" lon="5.7093030">
        <ele>281.1</ele>
        <time>2022-07-26T11:35:35Z</time>
      </trkpt>
      <trkpt lat="45.8736540" lon="5.7093050">
        <ele>280.9</ele>
        <time>2022-07-26T11:35:36Z</time>
      </trkpt>
      <trkpt lat="45.8736460" lon="5.7093080">
        <ele>280.7</ele>
        <time>2022-07-26T11:35:37Z</time>
      </trkpt>
      <trkpt lat="45.8736380" lon="5.7093120">
        <ele>280.5</ele>
        <time>2022-07-26T11:35:38Z</time>
      </trkpt>
      <trkpt lat="45.8736220" lon="5.7093220">
        <ele>280.0</ele>
        <time>2022-07-26T11:35:39Z</time>
      </trkpt>
      <trkpt lat="45.8736110" lon="5.7093300">
        <ele>279.7</ele>
        <time>2022-07-26T11:35:40Z</time>
      </trkpt>
      <trkpt lat="45.8735920" lon="5.7093440">
        <ele>279.2</ele>
        <time>2022-07-26T11:35:42Z</time>
      </trkpt>
      <trkpt lat="45.8735830" lon="5.7093490">
        <ele>278.9</ele>
        <time>2022-07-26T11:35:43Z</time>
      </trkpt>
      <trkpt lat="45.8735730" lon="5.7093540">
        <ele>278.6</ele>
        <time>2022-07-26T11:35:44Z</time>
      </trkpt>
      <trkpt lat="45.8735570" lon="5.7093610">
        <ele>278.2</ele>
        <time>2022-07-26T11:35:46Z</time>
      </trkpt>
      <trkpt lat="45.8735410" lon="5.7093660">
        <ele>277.8</ele>
        <time>2022-07-26T11:35:47Z</time>
      </trkpt>
      <trkpt lat="45.8735300" lon="5.7093720">
        <ele>277.5</ele>
        <time>2022-07-26T11:35:48Z</time>
      </trkpt>
      <trkpt lat="45.8735200" lon="5.7093770">
        <ele>277.2</ele>
        <time>2022-07-26T11:35:49Z</time>
      </trkpt>
      <trkpt lat="45.8735080" lon="5.7093830">
        <ele>276.8</ele>
        <time>2022-07-26T11:35:50Z</time>
      </trkpt>
      <trkpt lat="45.8734910" lon="5.7093870">
        <ele>276.4</ele>
        <time>2022-07-26T11:35:51Z</time>
      </trkpt>
      <trkpt lat="45.8734810" lon="5.7093870">
        <ele>276.1</ele>
        <time>2022-07-26T11:35:53Z</time>
      </trkpt>
      <trkpt lat="45.8734680" lon="5.7093810">
        <ele>275.8</ele>
        <time>2022-07-26T11:35:54Z</time>
      </trkpt>
      <trkpt lat="45.8734500" lon="5.7093710">
        <ele>275.3</ele>
        <time>2022-07-26T11:35:56Z</time>
      </trkpt>
      <trkpt lat="45.8734420" lon="5.7093630">
        <ele>275.0</ele>
        <time>2022-07-26T11:35:57Z</time>
      </trkpt>
      <trkpt lat="45.8734330" lon="5.7093520">
        <ele>274.7</ele>
        <time>2022-07-26T11:35:58Z</time>
      </trkpt>
      <trkpt lat="45.8734240" lon="5.7093400">
        <ele>274.4</ele>
        <time>2022-07-26T11:35:59Z</time>
      </trkpt>
      <trkpt lat="45.8734130" lon="5.7093270">
        <ele>274.0</ele>
        <time>2022-07-26T11:36:01Z</time>
      </trkpt>
      <trkpt lat="45.8734070" lon="5.7093160">
        <ele>273.8</ele>
        <time>2022-07-26T11:36:02Z</time>
      </trkpt>
      <trkpt lat="45.8734010" lon="5.7093030">
        <ele>273.5</ele>
        <time>2022-07-26T11:36:04Z</time>
      </trkpt>
      <trkpt lat="45.8734000" lon="5.7092940">
        <ele>273.3</ele>
        <time>2022-07-26T11:36:05Z</time>
      </trkpt>
      <trkpt lat="45.8734020" lon="5.7092890">
        <ele>273.2</ele>
        <time>2022-07-26T11:36:06Z</time>
      </trkpt>
      <trkpt lat="45.8734020" lon="5.7092810">
        <ele>273.1</ele>
        <time>2022-07-26T11:36:07Z</time>
      </trkpt>
      <trkpt lat="45.8734010" lon="5.7092700">
        <ele>272.9</ele>
        <time>2022-07-26T11:36:08Z</time>
      </trkpt>
      <trkpt lat="45.8733980" lon="5.7092570">
        <ele>272.7</ele>
        <time>2022-07-26T11:36:09Z</time>
      </trkpt>
      <trkpt lat="45.8733900" lon="5.7092380">
        <ele>272.3</ele>
        <time>2022-07-26T11:36:10Z</time>
      </trkpt>
      <trkpt lat="45.8733850" lon="5.7092300">
        <ele>272.2</ele>
        <time>2022-07-26T11:36:11Z</time>
      </trkpt>
      <trkpt lat="45.8733800" lon="5.7092220">
        <ele>272.0</ele>
        <time>2022-07-26T11:36:12Z</time>
      </trkpt>
      <trkpt lat="45.8733750" lon="5.7092130">
        <ele>271.8</ele>
        <time>2022-07-26T11:36:13Z</time>
      </trkpt>
      <trkpt lat="45.8733690" lon="5.7092040">
        <ele>271.6</ele>
        <time>2022-07-26T11:36:14Z</time>
      </trkpt>
      <trkpt lat="45.8733640" lon="5.7092010">
        <ele>271.5</ele>
        <time>2022-07-26T11:36:15Z</time>
      </trkpt>
      <trkpt lat="45.8733550" lon="5.7091990">
        <ele>271.3</ele>
        <time>2022-07-26T11:36:16Z</time>
      </trkpt>
      <trkpt lat="45.8733470" lon="5.7091960">
        <ele>271.1</ele>
        <time>2022-07-26T11:36:17Z</time>
      </trkpt>
      <trkpt lat="45.8733350" lon="5.7091870">
        <ele>270.8</ele>
        <time>2022-07-26T11:36:18Z</time>
      </trkpt>
      <trkpt lat="45.8733230" lon="5.7091810">
        <ele>270.6</ele>
        <time>2022-07-26T11:36:19Z</time>
      </trkpt>
      <trkpt lat="45.8733160" lon="5.7091740">
        <ele>270.4</ele>
        <time>2022-07-26T11:36:20Z</time>
      </trkpt>
      <trkpt lat="45.8732920" lon="5.7091480">
        <ele>269.8</ele>
        <time>2022-07-26T11:36:21Z</time>
      </trkpt>
      <trkpt lat="45.8732850" lon="5.7091380">
        <ele>269.6</ele>
        <time>2022-07-26T11:36:22Z</time>
      </trkpt>
      <trkpt lat="45.8732780" lon="5.7091220">
        <ele>269.3</ele>
        <time>2022-07-26T11:36:23Z</time>
      </trkpt>
      <trkpt lat="45.8732650" lon="5.7090970">
        <ele>268.9</ele>
        <time>2022-07-26T11:36:25Z</time>
      </trkpt>
      <trkpt lat="45.8732520" lon="5.7090760">
        <ele>268.6</ele>
        <time>2022-07-26T11:36:26Z</time>
      </trkpt>
      <trkpt lat="45.8732440" lon="5.7090610">
        <ele>268.3</ele>
        <time>2022-07-26T11:36:28Z</time>
      </trkpt>
      <trkpt lat="45.8732370" lon="5.7090470">
        <ele>268.1</ele>
        <time>2022-07-26T11:36:29Z</time>
      </trkpt>
      <trkpt lat="45.8732280" lon="5.7090300">
        <ele>267.8</ele>
        <time>2022-07-26T11:36:30Z</time>
      </trkpt>
      <trkpt lat="45.8732210" lon="5.7090210">
        <ele>267.7</ele>
        <time>2022-07-26T11:36:31Z</time>
      </trkpt>
      <trkpt lat="45.8732130" lon="5.7090130">
        <ele>267.5</ele>
        <time>2022-07-26T11:36:32Z</time>
      </trkpt>
      <trkpt lat="45.8732050" lon="5.7090030">
        <ele>267.3</ele>
        <time>2022-07-26T11:36:33Z</time>
      </trkpt>
      <trkpt lat="45.8731960" lon="5.7089890">
        <ele>267.0</ele>
        <time>2022-07-26T11:36:34Z</time>
      </trkpt>
      <trkpt lat="45.8731930" lon="5.7089820">
        <ele>266.9</ele>
        <time>2022-07-26T11:36:35Z</time>
      </trkpt>
      <trkpt lat="45.8731890" lon="5.7089740">
        <ele>266.8</ele>
        <time>2022-07-26T11:36:36Z</time>
      </trkpt>
      <trkpt lat="45.8731860" lon="5.7089660">
        <ele>266.7</ele>
        <time>2022-07-26T11:36:37Z</time>
      </trkpt>
      <trkpt lat="45.8731820" lon="5.7089580">
        <ele>266.5</ele>
        <time>2022-07-26T11:36:39Z</time>
      </trkpt>
      <trkpt lat="45.8731790" lon="5.7089510">
        <ele>266.4</ele>
        <time>2022-07-26T11:36:40Z</time>
      </trkpt>
      <trkpt lat="45.8731630" lon="5.7089140">
        <ele>265.9</ele>
        <time>2022-07-26T11:36:41Z</time>
      </trkpt>
      <trkpt lat="45.8731380" lon="5.7088750">
        <ele>265.2</ele>
        <time>2022-07-26T11:36:42Z</time>
      </trkpt>
      <trkpt lat="45.8731040" lon="5.7088440">
        <ele>264.4</ele>
        <time>2022-07-26T11:36:44Z</time>
      </trkpt>
      <trkpt lat="45.8730740" lon="5.7088270">
        <ele>263.8</ele>
        <time>2022-07-26T11:36:45Z</time>
      </trkpt>
      <trkpt lat="45.8730650" lon="5.7088220">
        <ele>263.6</ele>
        <time>2022-07-26T11:36:46Z</time>
      </trkpt>
      <trkpt lat="45.8730350" lon="5.7088040">
        <ele>263.1</ele>
        <time>2022-07-26T11:36:47Z</time>
      </trkpt>
      <trkpt lat="45.8730240" lon="5.7087980">
        <ele>262.9</ele>
        <time>2022-07-26T11:36:48Z</time>
      </trkpt>
      <trkpt lat="45.8729990" lon="5.7087770">
        <ele>262.5</ele>
        <time>2022-07-26T11:36:49Z</time>
      </trkpt>
      <trkpt lat="45.8729640" lon="5.7087520">
        <ele>262.0</ele>
        <time>2022-07-26T11:36:50Z</time>
      </trkpt>
      <trkpt lat="45.8729320" lon="5.7087290">
        <ele>261.6</ele>
        <time>2022-07-26T11:36:51Z</time>
      </trkpt>
      <trkpt lat="45.8729070" lon="5.7087060">
        <ele>261.5</ele>
        <time>2022-07-26T11:36:52Z</time>
      </trkpt>
      <trkpt lat="45.8729050" lon="5.7086870">
        <ele>261.6</ele>
        <time>2022-07-26T11:36:53Z</time>
      </trkpt>
      <trkpt lat="45.8729100" lon="5.7086800">
        <ele>261.6</ele>
        <time>2022-07-26T11:36:54Z</time>
      </trkpt>
      <trkpt lat="45.8729150" lon="5.7086730">
        <ele>261.6</ele>
        <time>2022-07-26T11:36:55Z</time>
      </trkpt>
      <trkpt lat="45.8729210" lon="5.7086660">
        <ele>261.6</ele>
        <time>2022-07-26T11:36:56Z</time>
      </trkpt>
      <trkpt lat="45.8729260" lon="5.7086590">
        <ele>261.6</ele>
        <time>2022-07-26T11:36:57Z</time>
      </trkpt>
      <trkpt lat="45.8729310" lon="5.7086520">
        <ele>261.6</ele>
        <time>2022-07-26T11:36:58Z</time>
      </trkpt>
      <trkpt lat="45.8729370" lon="5.7086450">
        <ele>261.6</ele>
        <time>2022-07-26T11:36:59Z</time>
      </trkpt>
      <trkpt lat="45.8729420" lon="5.7086370">
        <ele>261.6</ele>
        <time>2022-07-26T11:37:00Z</time>
      </trkpt>
      <trkpt lat="45.8729480" lon="5.7086300">
        <ele>261.6</ele>
        <time>2022-07-26T11:37:01Z</time>
      </trkpt>
      <trkpt lat="45.8729530" lon="5.7086230">
        <ele>261.6</ele>
        <time>2022-07-26T11:37:02Z</time>
      </trkpt>
      <trkpt lat="45.8729580" lon="5.7086160">
        <ele>261.6</ele>
        <time>2022-07-26T11:37:03Z</time>
      </trkpt>
      <trkpt lat="45.8729640" lon="5.7086090">
        <ele>261.6</ele>
        <time>2022-07-26T11:37:15Z</time>
      </trkpt>
      <trkpt lat="45.8729690" lon="5.7086020">
        <ele>261.6</ele>
        <time>2022-07-26T11:37:16Z</time>
      </trkpt>
      <trkpt lat="45.8729740" lon="5.7085950">
        <ele>261.7</ele>
        <time>2022-07-26T11:37:17Z</time>
      </trkpt>
      <trkpt lat="45.8729810" lon="5.7085810">
        <ele>261.7</ele>
        <time>2022-07-26T11:37:18Z</time>
      </trkpt>
      <trkpt lat="45.8729870" lon="5.7085570">
        <ele>261.7</ele>
        <time>2022-07-26T11:37:19Z</time>
      </trkpt>
      <trkpt lat="45.8729850" lon="5.7085380">
        <ele>261.7</ele>
        <time>2022-07-26T11:37:20Z</time>
      </trkpt>
      <trkpt lat="45.8729780" lon="5.7084820">
        <ele>261.4</ele>
        <time>2022-07-26T11:37:22Z</time>
      </trkpt>
      <trkpt lat="45.8729620" lon="5.7084390">
        <ele>260.9</ele>
        <time>2022-07-26T11:37:23Z</time>
      </trkpt>
      <trkpt lat="45.8729540" lon="5.7084200">
        <ele>260.6</ele>
        <time>2022-07-26T11:37:24Z</time>
      </trkpt>
      <trkpt lat="45.8729340" lon="5.7083860">
        <ele>260.1</ele>
        <time>2022-07-26T11:37:25Z</time>
      </trkpt>
      <trkpt lat="45.8729040" lon="5.7083350">
        <ele>259.4</ele>
        <time>2022-07-26T11:37:26Z</time>
      </trkpt>
      <trkpt lat="45.8728900" lon="5.7083140">
        <ele>259.0</ele>
        <time>2022-07-26T11:37:27Z</time>
      </trkpt>
      <trkpt lat="45.8728560" lon="5.7082600">
        <ele>258.2</ele>
        <time>2022-07-26T11:37:28Z</time>
      </trkpt>
      <trkpt lat="45.8728210" lon="5.7081960">
        <ele>257.3</ele>
        <time>2022-07-26T11:37:29Z</time>
      </trkpt>
      <trkpt lat="45.8727750" lon="5.7080830">
        <ele>255.8</ele>
        <time>2022-07-26T11:37:31Z</time>
      </trkpt>
      <trkpt lat="45.8727560" lon="5.7080180">
        <ele>255.0</ele>
        <time>2022-07-26T11:37:32Z</time>
      </trkpt>
      <trkpt lat="45.8727470" lon="5.7079680">
        <ele>254.5</ele>
        <time>2022-07-26T11:37:33Z</time>
      </trkpt>
      <trkpt lat="45.8727420" lon="5.7079020">
        <ele>253.8</ele>
        <time>2022-07-26T11:37:34Z</time>
      </trkpt>
      <trkpt lat="45.8727720" lon="5.7078450">
        <ele>253.1</ele>
        <time>2022-07-26T11:37:35Z</time>
      </trkpt>
      <trkpt lat="45.8727310" lon="5.7077060">
        <ele>251.7</ele>
        <time>2022-07-26T11:37:37Z</time>
      </trkpt>
      <trkpt lat="45.8727210" lon="5.7076170">
        <ele>251.0</ele>
        <time>2022-07-26T11:37:38Z</time>
      </trkpt>
      <trkpt lat="45.8727060" lon="5.7075450">
        <ele>250.7</ele>
        <time>2022-07-26T11:37:39Z</time>
      </trkpt>
      <trkpt lat="45.8726740" lon="5.7074770">
        <ele>250.4</ele>
        <time>2022-07-26T11:37:40Z</time>
      </trkpt>
      <trkpt lat="45.8726260" lon="5.7074150">
        <ele>250.1</ele>
        <time>2022-07-26T11:37:41Z</time>
      </trkpt>
      <trkpt lat="45.8725560" lon="5.7073690">
        <ele>249.8</ele>
        <time>2022-07-26T11:37:42Z</time>
      </trkpt>
      <trkpt lat="45.8724880" lon="5.7073340">
        <ele>249.6</ele>
        <time>2022-07-26T11:37:43Z</time>
      </trkpt>
      <trkpt lat="45.8724180" lon="5.7073030">
        <ele>249.6</ele>
        <time>2022-07-26T11:37:44Z</time>
      </trkpt>
      <trkpt lat="45.8723600" lon="5.7072800">
        <ele>249.6</ele>
        <time>2022-07-26T11:37:45Z</time>
      </trkpt>
      <trkpt lat="45.8723230" lon="5.7072520">
        <ele>249.6</ele>
        <time>2022-07-26T11:37:46Z</time>
      </trkpt>
      <trkpt lat="45.8723030" lon="5.7072040">
        <ele>249.6</ele>
        <time>2022-07-26T11:37:47Z</time>
      </trkpt>
      <trkpt lat="45.8722490" lon="5.7071840">
        <ele>249.7</ele>
        <time>2022-07-26T11:37:48Z</time>
      </trkpt>
      <trkpt lat="45.8722150" lon="5.7071760">
        <ele>249.7</ele>
        <time>2022-07-26T11:37:50Z</time>
      </trkpt>
      <trkpt lat="45.8722050" lon="5.7071810">
        <ele>249.7</ele>
        <time>2022-07-26T11:37:51Z</time>
      </trkpt>
      <trkpt lat="45.8721880" lon="5.7071880">
        <ele>249.7</ele>
        <time>2022-07-26T11:37:53Z</time>
      </trkpt>
      <trkpt lat="45.8721840" lon="5.7071880">
        <ele>249.7</ele>
        <time>2022-07-26T11:37:54Z</time>
      </trkpt>
      <trkpt lat="45.8721800" lon="5.7071870">
        <ele>249.7</ele>
        <time>2022-07-26T11:37:55Z</time>
      </trkpt>
      <trkpt lat="45.8721770" lon="5.7071870">
        <ele>249.7</ele>
        <time>2022-07-26T11:37:56Z</time>
      </trkpt>
      <trkpt lat="45.8721730" lon="5.7071870">
        <ele>249.7</ele>
        <time>2022-07-26T11:37:57Z</time>
      </trkpt>
      <trkpt lat="45.8721690" lon="5.7071870">
        <ele>249.7</ele>
        <time>2022-07-26T11:37:58Z</time>
      </trkpt>
      <trkpt lat="45.8721650" lon="5.7071870">
        <ele>249.6</ele>
        <time>2022-07-26T11:37:59Z</time>
      </trkpt>
      <trkpt lat="45.8721610" lon="5.7071870">
        <ele>249.6</ele>
        <time>2022-07-26T11:38:00Z</time>
      </trkpt>
      <trkpt lat="45.8721580" lon="5.7071870">
        <ele>249.6</ele>
        <time>2022-07-26T11:38:01Z</time>
      </trkpt>
      <trkpt lat="45.8721540" lon="5.7071870">
        <ele>249.5</ele>
        <time>2022-07-26T11:38:02Z</time>
      </trkpt>
      <trkpt lat="45.8721500" lon="5.7071860">
        <ele>249.5</ele>
        <time>2022-07-26T11:38:03Z</time>
      </trkpt>
      <trkpt lat="45.8721460" lon="5.7071860">
        <ele>249.5</ele>
        <time>2022-07-26T11:38:04Z</time>
      </trkpt>
      <trkpt lat="45.8721420" lon="5.7071860">
        <ele>249.4</ele>
        <time>2022-07-26T11:38:15Z</time>
      </trkpt>
      <trkpt lat="45.8721390" lon="5.7071860">
        <ele>249.4</ele>
        <time>2022-07-26T11:38:16Z</time>
      </trkpt>
      <trkpt lat="45.8721350" lon="5.7071860">
        <ele>249.4</ele>
        <time>2022-07-26T11:38:17Z</time>
      </trkpt>
      <trkpt lat="45.8720990" lon="5.7071820">
        <ele>249.1</ele>
        <time>2022-07-26T11:38:18Z</time>
      </trkpt>
      <trkpt lat="45.8720850" lon="5.7071820">
        <ele>249.0</ele>
        <time>2022-07-26T11:38:19Z</time>
      </trkpt>
      <trkpt lat="45.8720530" lon="5.7071840">
        <ele>248.7</ele>
        <time>2022-07-26T11:38:20Z</time>
      </trkpt>
      <trkpt lat="45.8720250" lon="5.7071890">
        <ele>248.5</ele>
        <time>2022-07-26T11:38:21Z</time>
      </trkpt>
      <trkpt lat="45.8719920" lon="5.7071960">
        <ele>248.2</ele>
        <time>2022-07-26T11:38:22Z</time>
      </trkpt>
      <trkpt lat="45.8719510" lon="5.7072110">
        <ele>247.9</ele>
        <time>2022-07-26T11:38:23Z</time>
      </trkpt>
      <trkpt lat="45.8719120" lon="5.7072280">
        <ele>247.6</ele>
        <time>2022-07-26T11:38:24Z</time>
      </trkpt>
      <trkpt lat="45.8718760" lon="5.7072480">
        <ele>247.4</ele>
        <time>2022-07-26T11:38:25Z</time>
      </trkpt>
      <trkpt lat="45.8718480" lon="5.7072670">
        <ele>247.2</ele>
        <time>2022-07-26T11:38:26Z</time>
      </trkpt>
      <trkpt lat="45.8718160" lon="5.7072930">
        <ele>247.2</ele>
        <time>2022-07-26T11:38:27Z</time>
      </trkpt>
      <trkpt lat="45.8717870" lon="5.7073190">
        <ele>247.3</ele>
        <time>2022-07-26T11:38:28Z</time>
      </trkpt>
      <trkpt lat="45.8717570" lon="5.7073520">
        <ele>247.4</ele>
        <time>2022-07-26T11:38:29Z</time>
      </trkpt>
      <trkpt lat="45.8717290" lon="5.7073930">
        <ele>247.5</ele>
        <time>2022-07-26T11:38:30Z</time>
      </trkpt>
      <trkpt lat="45.8717010" lon="5.7074390">
        <ele>247.6</ele>
        <time>2022-07-26T11:38:31Z</time>
      </trkpt>
      <trkpt lat="45.8716770" lon="5.7074850">
        <ele>247.7</ele>
        <time>2022-07-26T11:38:32Z</time>
      </trkpt>
      <trkpt lat="45.8716510" lon="5.7075320">
        <ele>247.9</ele>
        <time>2022-07-26T11:38:33Z</time>
      </trkpt>
      <trkpt lat="45.8716290" lon="5.7075780">
        <ele>248.0</ele>
        <time>2022-07-26T11:38:34Z</time>
      </trkpt>
      <trkpt lat="45.8716110" lon="5.7076150">
        <ele>248.1</ele>
        <time>2022-07-26T11:38:35Z</time>
      </trkpt>
      <trkpt lat="45.8715960" lon="5.7076530">
        <ele>248.2</ele>
        <time>2022-07-26T11:38:36Z</time>
      </trkpt>
      <trkpt lat="45.8715860" lon="5.7076950">
        <ele>248.4</ele>
        <time>2022-07-26T11:38:37Z</time>
      </trkpt>
      <trkpt lat="45.8715810" lon="5.7077120">
        <ele>248.4</ele>
        <time>2022-07-26T11:38:38Z</time>
      </trkpt>
      <trkpt lat="45.8715710" lon="5.7077500">
        <ele>248.6</ele>
        <time>2022-07-26T11:38:39Z</time>
      </trkpt>
      <trkpt lat="45.8715580" lon="5.7077910">
        <ele>248.7</ele>
        <time>2022-07-26T11:38:40Z</time>
      </trkpt>
      <trkpt lat="45.8715410" lon="5.7078330">
        <ele>248.8</ele>
        <time>2022-07-26T11:38:41Z</time>
      </trkpt>
      <trkpt lat="45.8715200" lon="5.7078760">
        <ele>249.0</ele>
        <time>2022-07-26T11:38:42Z</time>
      </trkpt>
      <trkpt lat="45.8715050" lon="5.7079090">
        <ele>249.1</ele>
        <time>2022-07-26T11:38:43Z</time>
      </trkpt>
      <trkpt lat="45.8714910" lon="5.7079440">
        <ele>249.3</ele>
        <time>2022-07-26T11:38:44Z</time>
      </trkpt>
      <trkpt lat="45.8714790" lon="5.7079810">
        <ele>249.4</ele>
        <time>2022-07-26T11:38:45Z</time>
      </trkpt>
      <trkpt lat="45.8714600" lon="5.7080340">
        <ele>249.6</ele>
        <time>2022-07-26T11:38:46Z</time>
      </trkpt>
      <trkpt lat="45.8714530" lon="5.7080520">
        <ele>249.6</ele>
        <time>2022-07-26T11:38:47Z</time>
      </trkpt>
      <trkpt lat="45.8714420" lon="5.7080890">
        <ele>249.8</ele>
        <time>2022-07-26T11:38:48Z</time>
      </trkpt>
      <trkpt lat="45.8714300" lon="5.7081290">
        <ele>249.9</ele>
        <time>2022-07-26T11:38:49Z</time>
      </trkpt>
      <trkpt lat="45.8714170" lon="5.7081720">
        <ele>250.1</ele>
        <time>2022-07-26T11:38:50Z</time>
      </trkpt>
      <trkpt lat="45.8714110" lon="5.7081900">
        <ele>250.1</ele>
        <time>2022-07-26T11:38:51Z</time>
      </trkpt>
      <trkpt lat="45.8714000" lon="5.7082270">
        <ele>250.2</ele>
        <time>2022-07-26T11:38:52Z</time>
      </trkpt>
      <trkpt lat="45.8713860" lon="5.7082660">
        <ele>250.4</ele>
        <time>2022-07-26T11:38:53Z</time>
      </trkpt>
      <trkpt lat="45.8713710" lon="5.7082980">
        <ele>250.5</ele>
        <time>2022-07-26T11:38:54Z</time>
      </trkpt>
      <trkpt lat="45.8713540" lon="5.7083330">
        <ele>250.5</ele>
        <time>2022-07-26T11:38:55Z</time>
      </trkpt>
      <trkpt lat="45.8713360" lon="5.7083730">
        <ele>250.4</ele>
        <time>2022-07-26T11:38:56Z</time>
      </trkpt>
      <trkpt lat="45.8713220" lon="5.7084050">
        <ele>250.4</ele>
        <time>2022-07-26T11:38:57Z</time>
      </trkpt>
      <trkpt lat="45.8713160" lon="5.7084170">
        <ele>250.4</ele>
        <time>2022-07-26T11:38:58Z</time>
      </trkpt>
      <trkpt lat="45.8712970" lon="5.7084580">
        <ele>250.4</ele>
        <time>2022-07-26T11:38:59Z</time>
      </trkpt>
      <trkpt lat="45.8712910" lon="5.7084730">
        <ele>250.4</ele>
        <time>2022-07-26T11:39:00Z</time>
      </trkpt>
      <trkpt lat="45.8712770" lon="5.7085100">
        <ele>250.4</ele>
        <time>2022-07-26T11:39:01Z</time>
      </trkpt>
      <trkpt lat="45.8712600" lon="5.7085400">
        <ele>250.4</ele>
        <time>2022-07-26T11:39:02Z</time>
      </trkpt>
      <trkpt lat="45.8712230" lon="5.7085630">
        <ele>250.1</ele>
        <time>2022-07-26T11:39:03Z</time>
      </trkpt>
      <trkpt lat="45.8711660" lon="5.7085720">
        <ele>250.0</ele>
        <time>2022-07-26T11:39:04Z</time>
      </trkpt>
      <trkpt lat="45.8711100" lon="5.7085850">
        <ele>249.9</ele>
        <time>2022-07-26T11:39:05Z</time>
      </trkpt>
      <trkpt lat="45.8710600" lon="5.7085970">
        <ele>249.7</ele>
        <time>2022-07-26T11:39:06Z</time>
      </trkpt>
      <trkpt lat="45.8710280" lon="5.7086000">
        <ele>249.7</ele>
        <time>2022-07-26T11:39:07Z</time>
      </trkpt>
      <trkpt lat="45.8709770" lon="5.7086100">
        <ele>249.6</ele>
        <time>2022-07-26T11:39:08Z</time>
      </trkpt>
      <trkpt lat="45.8709330" lon="5.7086180">
        <ele>249.5</ele>
        <time>2022-07-26T11:39:09Z</time>
      </trkpt>
      <trkpt lat="45.8708990" lon="5.7086240">
        <ele>249.5</ele>
        <time>2022-07-26T11:39:10Z</time>
      </trkpt>
      <trkpt lat="45.8708420" lon="5.7086370">
        <ele>249.4</ele>
        <time>2022-07-26T11:39:11Z</time>
      </trkpt>
      <trkpt lat="45.8707940" lon="5.7086480">
        <ele>249.3</ele>
        <time>2022-07-26T11:39:12Z</time>
      </trkpt>
      <trkpt lat="45.8707460" lon="5.7086480">
        <ele>249.3</ele>
        <time>2022-07-26T11:39:13Z</time>
      </trkpt>
      <trkpt lat="45.8706960" lon="5.7086400">
        <ele>249.2</ele>
        <time>2022-07-26T11:39:14Z</time>
      </trkpt>
      <trkpt lat="45.8706460" lon="5.7086300">
        <ele>249.2</ele>
        <time>2022-07-26T11:39:15Z</time>
      </trkpt>
      <trkpt lat="45.8706070" lon="5.7086150">
        <ele>249.1</ele>
        <time>2022-07-26T11:39:16Z</time>
      </trkpt>
      <trkpt lat="45.8705690" lon="5.7085990">
        <ele>249.1</ele>
        <time>2022-07-26T11:39:17Z</time>
      </trkpt>
      <trkpt lat="45.8705140" lon="5.7085780">
        <ele>249.0</ele>
        <time>2022-07-26T11:39:18Z</time>
      </trkpt>
      <trkpt lat="45.8704610" lon="5.7085530">
        <ele>248.9</ele>
        <time>2022-07-26T11:39:19Z</time>
      </trkpt>
      <trkpt lat="45.8704280" lon="5.7085330">
        <ele>248.9</ele>
        <time>2022-07-26T11:39:20Z</time>
      </trkpt>
      <trkpt lat="45.8703800" lon="5.7085110">
        <ele>248.8</ele>
        <time>2022-07-26T11:39:21Z</time>
      </trkpt>
      <trkpt lat="45.8703420" lon="5.7085060">
        <ele>248.8</ele>
        <time>2022-07-26T11:39:22Z</time>
      </trkpt>
      <trkpt lat="45.8702900" lon="5.7085130">
        <ele>248.7</ele>
        <time>2022-07-26T11:39:23Z</time>
      </trkpt>
      <trkpt lat="45.8702360" lon="5.7085300">
        <ele>248.7</ele>
        <time>2022-07-26T11:39:24Z</time>
      </trkpt>
      <trkpt lat="45.8701850" lon="5.7085430">
        <ele>248.7</ele>
        <time>2022-07-26T11:39:25Z</time>
      </trkpt>
      <trkpt lat="45.8701400" lon="5.7085460">
        <ele>248.6</ele>
        <time>2022-07-26T11:39:26Z</time>
      </trkpt>
      <trkpt lat="45.8700920" lon="5.7085410">
        <ele>248.6</ele>
        <time>2022-07-26T11:39:27Z</time>
      </trkpt>
      <trkpt lat="45.8700600" lon="5.7085370">
        <ele>248.6</ele>
        <time>2022-07-26T11:39:28Z</time>
      </trkpt>
      <trkpt lat="45.8700070" lon="5.7085210">
        <ele>248.5</ele>
        <time>2022-07-26T11:39:29Z</time>
      </trkpt>
      <trkpt lat="45.8699560" lon="5.7085020">
        <ele>248.4</ele>
        <time>2022-07-26T11:39:30Z</time>
      </trkpt>
      <trkpt lat="45.8699110" lon="5.7084750">
        <ele>248.3</ele>
        <time>2022-07-26T11:39:31Z</time>
      </trkpt>
      <trkpt lat="45.8698680" lon="5.7084430">
        <ele>248.3</ele>
        <time>2022-07-26T11:39:32Z</time>
      </trkpt>
      <trkpt lat="45.8698190" lon="5.7084160">
        <ele>248.2</ele>
        <time>2022-07-26T11:39:33Z</time>
      </trkpt>
      <trkpt lat="45.8697720" lon="5.7083900">
        <ele>248.1</ele>
        <time>2022-07-26T11:39:34Z</time>
      </trkpt>
      <trkpt lat="45.8697200" lon="5.7083570">
        <ele>248.0</ele>
        <time>2022-07-26T11:39:35Z</time>
      </trkpt>
      <trkpt lat="45.8696760" lon="5.7083340">
        <ele>247.9</ele>
        <time>2022-07-26T11:39:36Z</time>
      </trkpt>
      <trkpt lat="45.8696310" lon="5.7083100">
        <ele>247.8</ele>
        <time>2022-07-26T11:39:37Z</time>
      </trkpt>
      <trkpt lat="45.8695900" lon="5.7082860">
        <ele>247.7</ele>
        <time>2022-07-26T11:39:38Z</time>
      </trkpt>
      <trkpt lat="45.8695380" lon="5.7082720">
        <ele>247.6</ele>
        <time>2022-07-26T11:39:39Z</time>
      </trkpt>
      <trkpt lat="45.8694850" lon="5.7082610">
        <ele>247.4</ele>
        <time>2022-07-26T11:39:40Z</time>
      </trkpt>
      <trkpt lat="45.8694410" lon="5.7082490">
        <ele>247.2</ele>
        <time>2022-07-26T11:39:41Z</time>
      </trkpt>
      <trkpt lat="45.8693950" lon="5.7082240">
        <ele>247.0</ele>
        <time>2022-07-26T11:39:42Z</time>
      </trkpt>
      <trkpt lat="45.8693600" lon="5.7081990">
        <ele>246.8</ele>
        <time>2022-07-26T11:39:43Z</time>
      </trkpt>
      <trkpt lat="45.8693340" lon="5.7081860">
        <ele>246.7</ele>
        <time>2022-07-26T11:39:44Z</time>
      </trkpt>
      <trkpt lat="45.8692770" lon="5.7081630">
        <ele>246.5</ele>
        <time>2022-07-26T11:39:45Z</time>
      </trkpt>
      <trkpt lat="45.8692120" lon="5.7081440">
        <ele>246.4</ele>
        <time>2022-07-26T11:39:46Z</time>
      </trkpt>
      <trkpt lat="45.8691500" lon="5.7081190">
        <ele>246.4</ele>
        <time>2022-07-26T11:39:47Z</time>
      </trkpt>
      <trkpt lat="45.8691030" lon="5.7080990">
        <ele>246.5</ele>
        <time>2022-07-26T11:39:48Z</time>
      </trkpt>
      <trkpt lat="45.8690610" lon="5.7080860">
        <ele>246.6</ele>
        <time>2022-07-26T11:39:49Z</time>
      </trkpt>
      <trkpt lat="45.8690280" lon="5.7080700">
        <ele>246.6</ele>
        <time>2022-07-26T11:39:50Z</time>
      </trkpt>
      <trkpt lat="45.8689960" lon="5.7080660">
        <ele>246.7</ele>
        <time>2022-07-26T11:39:51Z</time>
      </trkpt>
      <trkpt lat="45.8689610" lon="5.7080620">
        <ele>246.7</ele>
        <time>2022-07-26T11:39:52Z</time>
      </trkpt>
      <trkpt lat="45.8689330" lon="5.7080600">
        <ele>246.7</ele>
        <time>2022-07-26T11:39:53Z</time>
      </trkpt>
      <trkpt lat="45.8688940" lon="5.7080550">
        <ele>246.7</ele>
        <time>2022-07-26T11:39:54Z</time>
      </trkpt>
      <trkpt lat="45.8688500" lon="5.7080510">
        <ele>246.7</ele>
        <time>2022-07-26T11:39:55Z</time>
      </trkpt>
      <trkpt lat="45.8688090" lon="5.7080490">
        <ele>246.7</ele>
        <time>2022-07-26T11:39:56Z</time>
      </trkpt>
      <trkpt lat="45.8687660" lon="5.7080520">
        <ele>246.6</ele>
        <time>2022-07-26T11:39:57Z</time>
      </trkpt>
      <trkpt lat="45.8687250" lon="5.7080580">
        <ele>246.6</ele>
        <time>2022-07-26T11:39:58Z</time>
      </trkpt>
      <trkpt lat="45.8686840" lon="5.7080660">
        <ele>246.5</ele>
        <time>2022-07-26T11:39:59Z</time>
      </trkpt>
      <trkpt lat="45.8686440" lon="5.7080790">
        <ele>246.4</ele>
        <time>2022-07-26T11:40:00Z</time>
      </trkpt>
      <trkpt lat="45.8685960" lon="5.7080970">
        <ele>246.3</ele>
        <time>2022-07-26T11:40:01Z</time>
      </trkpt>
      <trkpt lat="45.8685490" lon="5.7081100">
        <ele>246.3</ele>
        <time>2022-07-26T11:40:02Z</time>
      </trkpt>
      <trkpt lat="45.8684930" lon="5.7081230">
        <ele>246.2</ele>
        <time>2022-07-26T11:40:03Z</time>
      </trkpt>
      <trkpt lat="45.8684400" lon="5.7081360">
        <ele>246.1</ele>
        <time>2022-07-26T11:40:04Z</time>
      </trkpt>
      <trkpt lat="45.8683900" lon="5.7081500">
        <ele>246.0</ele>
        <time>2022-07-26T11:40:05Z</time>
      </trkpt>
      <trkpt lat="45.8683430" lon="5.7081580">
        <ele>245.9</ele>
        <time>2022-07-26T11:40:06Z</time>
      </trkpt>
      <trkpt lat="45.8682970" lon="5.7081670">
        <ele>245.8</ele>
        <time>2022-07-26T11:40:07Z</time>
      </trkpt>
      <trkpt lat="45.8682570" lon="5.7081760">
        <ele>245.8</ele>
        <time>2022-07-26T11:40:08Z</time>
      </trkpt>
      <trkpt lat="45.8682230" lon="5.7081820">
        <ele>245.7</ele>
        <time>2022-07-26T11:40:09Z</time>
      </trkpt>
      <trkpt lat="45.8681720" lon="5.7081940">
        <ele>245.6</ele>
        <time>2022-07-26T11:40:10Z</time>
      </trkpt>
      <trkpt lat="45.8681330" lon="5.7082010">
        <ele>245.5</ele>
        <time>2022-07-26T11:40:11Z</time>
      </trkpt>
      <trkpt lat="45.8680790" lon="5.7082080">
        <ele>245.4</ele>
        <time>2022-07-26T11:40:12Z</time>
      </trkpt>
      <trkpt lat="45.8680260" lon="5.7082070">
        <ele>245.3</ele>
        <time>2022-07-26T11:40:13Z</time>
      </trkpt>
      <trkpt lat="45.8679790" lon="5.7082000">
        <ele>245.2</ele>
        <time>2022-07-26T11:40:14Z</time>
      </trkpt>
      <trkpt lat="45.8679370" lon="5.7081830">
        <ele>245.1</ele>
        <time>2022-07-26T11:40:15Z</time>
      </trkpt>
      <trkpt lat="45.8678840" lon="5.7081540">
        <ele>245.0</ele>
        <time>2022-07-26T11:40:16Z</time>
      </trkpt>
      <trkpt lat="45.8678380" lon="5.7081180">
        <ele>244.9</ele>
        <time>2022-07-26T11:40:17Z</time>
      </trkpt>
      <trkpt lat="45.8677940" lon="5.7080760">
        <ele>244.7</ele>
        <time>2022-07-26T11:40:18Z</time>
      </trkpt>
      <trkpt lat="45.8677590" lon="5.7080300">
        <ele>244.6</ele>
        <time>2022-07-26T11:40:19Z</time>
      </trkpt>
      <trkpt lat="45.8677220" lon="5.7079840">
        <ele>244.5</ele>
        <time>2022-07-26T11:40:20Z</time>
      </trkpt>
      <trkpt lat="45.8676880" lon="5.7079350">
        <ele>244.4</ele>
        <time>2022-07-26T11:40:21Z</time>
      </trkpt>
      <trkpt lat="45.8676500" lon="5.7078890">
        <ele>244.2</ele>
        <time>2022-07-26T11:40:22Z</time>
      </trkpt>
      <trkpt lat="45.8676090" lon="5.7078360">
        <ele>244.2</ele>
        <time>2022-07-26T11:40:23Z</time>
      </trkpt>
      <trkpt lat="45.8675610" lon="5.7077840">
        <ele>244.1</ele>
        <time>2022-07-26T11:40:24Z</time>
      </trkpt>
      <trkpt lat="45.8675180" lon="5.7077320">
        <ele>244.1</ele>
        <time>2022-07-26T11:40:25Z</time>
      </trkpt>
      <trkpt lat="45.8674820" lon="5.7076830">
        <ele>244.1</ele>
        <time>2022-07-26T11:40:26Z</time>
      </trkpt>
      <trkpt lat="45.8674500" lon="5.7076430">
        <ele>244.1</ele>
        <time>2022-07-26T11:40:27Z</time>
      </trkpt>
      <trkpt lat="45.8674130" lon="5.7075970">
        <ele>244.1</ele>
        <time>2022-07-26T11:40:28Z</time>
      </trkpt>
      <trkpt lat="45.8673930" lon="5.7075750">
        <ele>244.1</ele>
        <time>2022-07-26T11:40:29Z</time>
      </trkpt>
      <trkpt lat="45.8673490" lon="5.7075420">
        <ele>244.1</ele>
        <time>2022-07-26T11:40:30Z</time>
      </trkpt>
      <trkpt lat="45.8673140" lon="5.7075150">
        <ele>244.1</ele>
        <time>2022-07-26T11:40:31Z</time>
      </trkpt>
      <trkpt lat="45.8672700" lon="5.7074760">
        <ele>244.0</ele>
        <time>2022-07-26T11:40:32Z</time>
      </trkpt>
      <trkpt lat="45.8672380" lon="5.7074410">
        <ele>244.0</ele>
        <time>2022-07-26T11:40:33Z</time>
      </trkpt>
      <trkpt lat="45.8672030" lon="5.7073920">
        <ele>243.9</ele>
        <time>2022-07-26T11:40:34Z</time>
      </trkpt>
      <trkpt lat="45.8671830" lon="5.7073520">
        <ele>243.8</ele>
        <time>2022-07-26T11:40:35Z</time>
      </trkpt>
      <trkpt lat="45.8671600" lon="5.7073050">
        <ele>243.8</ele>
        <time>2022-07-26T11:40:36Z</time>
      </trkpt>
      <trkpt lat="45.8671230" lon="5.7072520">
        <ele>243.7</ele>
        <time>2022-07-26T11:40:37Z</time>
      </trkpt>
      <trkpt lat="45.8670870" lon="5.7071950">
        <ele>243.6</ele>
        <time>2022-07-26T11:40:38Z</time>
      </trkpt>
      <trkpt lat="45.8670480" lon="5.7071460">
        <ele>243.6</ele>
        <time>2022-07-26T11:40:39Z</time>
      </trkpt>
      <trkpt lat="45.8670040" lon="5.7071060">
        <ele>243.5</ele>
        <time>2022-07-26T11:40:40Z</time>
      </trkpt>
      <trkpt lat="45.8669640" lon="5.7070760">
        <ele>243.5</ele>
        <time>2022-07-26T11:40:41Z</time>
      </trkpt>
      <trkpt lat="45.8669310" lon="5.7070620">
        <ele>243.5</ele>
        <time>2022-07-26T11:40:42Z</time>
      </trkpt>
      <trkpt lat="45.8668910" lon="5.7070460">
        <ele>243.4</ele>
        <time>2022-07-26T11:40:43Z</time>
      </trkpt>
      <trkpt lat="45.8668250" lon="5.7070100">
        <ele>243.4</ele>
        <time>2022-07-26T11:40:44Z</time>
      </trkpt>
      <trkpt lat="45.8667430" lon="5.7069720">
        <ele>243.3</ele>
        <time>2022-07-26T11:40:46Z</time>
      </trkpt>
      <trkpt lat="45.8666970" lon="5.7069580">
        <ele>243.3</ele>
        <time>2022-07-26T11:40:47Z</time>
      </trkpt>
      <trkpt lat="45.8666720" lon="5.7069700">
        <ele>243.3</ele>
        <time>2022-07-26T11:40:48Z</time>
      </trkpt>
      <trkpt lat="45.8665830" lon="5.7069250">
        <ele>243.2</ele>
        <time>2022-07-26T11:40:50Z</time>
      </trkpt>
      <trkpt lat="45.8665430" lon="5.7068980">
        <ele>243.2</ele>
        <time>2022-07-26T11:40:51Z</time>
      </trkpt>
      <trkpt lat="45.8664980" lon="5.7068790">
        <ele>243.1</ele>
        <time>2022-07-26T11:40:52Z</time>
      </trkpt>
      <trkpt lat="45.8664510" lon="5.7068610">
        <ele>243.1</ele>
        <time>2022-07-26T11:40:53Z</time>
      </trkpt>
      <trkpt lat="45.8664220" lon="5.7068450">
        <ele>243.1</ele>
        <time>2022-07-26T11:40:54Z</time>
      </trkpt>
      <trkpt lat="45.8663740" lon="5.7068290">
        <ele>243.0</ele>
        <time>2022-07-26T11:40:55Z</time>
      </trkpt>
      <trkpt lat="45.8663180" lon="5.7068130">
        <ele>243.0</ele>
        <time>2022-07-26T11:40:56Z</time>
      </trkpt>
      <trkpt lat="45.8662670" lon="5.7068000">
        <ele>242.9</ele>
        <time>2022-07-26T11:40:57Z</time>
      </trkpt>
      <trkpt lat="45.8662170" lon="5.7067820">
        <ele>242.9</ele>
        <time>2022-07-26T11:40:58Z</time>
      </trkpt>
      <trkpt lat="45.8661670" lon="5.7067620">
        <ele>242.8</ele>
        <time>2022-07-26T11:40:59Z</time>
      </trkpt>
      <trkpt lat="45.8661220" lon="5.7067440">
        <ele>242.8</ele>
        <time>2022-07-26T11:41:00Z</time>
      </trkpt>
      <trkpt lat="45.8660790" lon="5.7067190">
        <ele>242.8</ele>
        <time>2022-07-26T11:41:01Z</time>
      </trkpt>
      <trkpt lat="45.8660300" lon="5.7066920">
        <ele>242.7</ele>
        <time>2022-07-26T11:41:02Z</time>
      </trkpt>
      <trkpt lat="45.8659860" lon="5.7066610">
        <ele>242.7</ele>
        <time>2022-07-26T11:41:03Z</time>
      </trkpt>
      <trkpt lat="45.8659400" lon="5.7066260">
        <ele>242.7</ele>
        <time>2022-07-26T11:41:04Z</time>
      </trkpt>
      <trkpt lat="45.8659030" lon="5.7065610">
        <ele>242.6</ele>
        <time>2022-07-26T11:41:05Z</time>
      </trkpt>
      <trkpt lat="45.8658170" lon="5.7064970">
        <ele>242.6</ele>
        <time>2022-07-26T11:41:07Z</time>
      </trkpt>
      <trkpt lat="45.8657740" lon="5.7064590">
        <ele>242.5</ele>
        <time>2022-07-26T11:41:08Z</time>
      </trkpt>
      <trkpt lat="45.8657440" lon="5.7064380">
        <ele>242.5</ele>
        <time>2022-07-26T11:41:09Z</time>
      </trkpt>
      <trkpt lat="45.8656980" lon="5.7064070">
        <ele>242.4</ele>
        <time>2022-07-26T11:41:10Z</time>
      </trkpt>
      <trkpt lat="45.8656560" lon="5.7063770">
        <ele>242.4</ele>
        <time>2022-07-26T11:41:11Z</time>
      </trkpt>
      <trkpt lat="45.8656210" lon="5.7063550">
        <ele>242.3</ele>
        <time>2022-07-26T11:41:12Z</time>
      </trkpt>
      <trkpt lat="45.8655810" lon="5.7063270">
        <ele>242.2</ele>
        <time>2022-07-26T11:41:13Z</time>
      </trkpt>
      <trkpt lat="45.8655400" lon="5.7063080">
        <ele>242.0</ele>
        <time>2022-07-26T11:41:14Z</time>
      </trkpt>
      <trkpt lat="45.8654910" lon="5.7063020">
        <ele>241.8</ele>
        <time>2022-07-26T11:41:15Z</time>
      </trkpt>
      <trkpt lat="45.8654330" lon="5.7062980">
        <ele>241.5</ele>
        <time>2022-07-26T11:41:16Z</time>
      </trkpt>
      <trkpt lat="45.8653740" lon="5.7063040">
        <ele>241.3</ele>
        <time>2022-07-26T11:41:17Z</time>
      </trkpt>
      <trkpt lat="45.8653160" lon="5.7063090">
        <ele>241.1</ele>
        <time>2022-07-26T11:41:18Z</time>
      </trkpt>
      <trkpt lat="45.8652540" lon="5.7063180">
        <ele>240.9</ele>
        <time>2022-07-26T11:41:19Z</time>
      </trkpt>
      <trkpt lat="45.8651960" lon="5.7063250">
        <ele>240.7</ele>
        <time>2022-07-26T11:41:20Z</time>
      </trkpt>
      <trkpt lat="45.8651390" lon="5.7063300">
        <ele>240.7</ele>
        <time>2022-07-26T11:41:21Z</time>
      </trkpt>
      <trkpt lat="45.8650810" lon="5.7063410">
        <ele>240.6</ele>
        <time>2022-07-26T11:41:22Z</time>
      </trkpt>
      <trkpt lat="45.8650310" lon="5.7063560">
        <ele>240.6</ele>
        <time>2022-07-26T11:41:23Z</time>
      </trkpt>
      <trkpt lat="45.8649830" lon="5.7063730">
        <ele>240.5</ele>
        <time>2022-07-26T11:41:24Z</time>
      </trkpt>
      <trkpt lat="45.8649370" lon="5.7064000">
        <ele>240.5</ele>
        <time>2022-07-26T11:41:25Z</time>
      </trkpt>
      <trkpt lat="45.8648960" lon="5.7064280">
        <ele>240.5</ele>
        <time>2022-07-26T11:41:26Z</time>
      </trkpt>
      <trkpt lat="45.8648520" lon="5.7064590">
        <ele>240.5</ele>
        <time>2022-07-26T11:41:27Z</time>
      </trkpt>
      <trkpt lat="45.8648200" lon="5.7064830">
        <ele>240.5</ele>
        <time>2022-07-26T11:41:28Z</time>
      </trkpt>
      <trkpt lat="45.8647610" lon="5.7065220">
        <ele>240.4</ele>
        <time>2022-07-26T11:41:29Z</time>
      </trkpt>
      <trkpt lat="45.8647080" lon="5.7065580">
        <ele>240.4</ele>
        <time>2022-07-26T11:41:30Z</time>
      </trkpt>
      <trkpt lat="45.8646570" lon="5.7065890">
        <ele>240.4</ele>
        <time>2022-07-26T11:41:31Z</time>
      </trkpt>
      <trkpt lat="45.8646070" lon="5.7066100">
        <ele>240.4</ele>
        <time>2022-07-26T11:41:32Z</time>
      </trkpt>
      <trkpt lat="45.8645570" lon="5.7066320">
        <ele>240.4</ele>
        <time>2022-07-26T11:41:33Z</time>
      </trkpt>
      <trkpt lat="45.8645100" lon="5.7066560">
        <ele>240.4</ele>
        <time>2022-07-26T11:41:34Z</time>
      </trkpt>
      <trkpt lat="45.8644770" lon="5.7066970">
        <ele>240.4</ele>
        <time>2022-07-26T11:41:35Z</time>
      </trkpt>
      <trkpt lat="45.8644410" lon="5.7067380">
        <ele>240.4</ele>
        <time>2022-07-26T11:41:36Z</time>
      </trkpt>
      <trkpt lat="45.8644060" lon="5.7067900">
        <ele>240.4</ele>
        <time>2022-07-26T11:41:37Z</time>
      </trkpt>
      <trkpt lat="45.8643680" lon="5.7068360">
        <ele>240.4</ele>
        <time>2022-07-26T11:41:38Z</time>
      </trkpt>
      <trkpt lat="45.8643300" lon="5.7068830">
        <ele>240.4</ele>
        <time>2022-07-26T11:41:39Z</time>
      </trkpt>
      <trkpt lat="45.8642840" lon="5.7069210">
        <ele>240.3</ele>
        <time>2022-07-26T11:41:40Z</time>
      </trkpt>
      <trkpt lat="45.8642370" lon="5.7069600">
        <ele>240.3</ele>
        <time>2022-07-26T11:41:41Z</time>
      </trkpt>
      <trkpt lat="45.8641940" lon="5.7069930">
        <ele>240.3</ele>
        <time>2022-07-26T11:41:42Z</time>
      </trkpt>
      <trkpt lat="45.8641490" lon="5.7070330">
        <ele>240.3</ele>
        <time>2022-07-26T11:41:43Z</time>
      </trkpt>
      <trkpt lat="45.8641240" lon="5.7070620">
        <ele>240.3</ele>
        <time>2022-07-26T11:41:44Z</time>
      </trkpt>
      <trkpt lat="45.8640880" lon="5.7070980">
        <ele>240.3</ele>
        <time>2022-07-26T11:41:45Z</time>
      </trkpt>
      <trkpt lat="45.8640480" lon="5.7071370">
        <ele>240.3</ele>
        <time>2022-07-26T11:41:46Z</time>
      </trkpt>
      <trkpt lat="45.8640220" lon="5.7071650">
        <ele>240.3</ele>
        <time>2022-07-26T11:41:47Z</time>
      </trkpt>
      <trkpt lat="45.8639800" lon="5.7072000">
        <ele>240.3</ele>
        <time>2022-07-26T11:41:48Z</time>
      </trkpt>
      <trkpt lat="45.8639420" lon="5.7072350">
        <ele>240.3</ele>
        <time>2022-07-26T11:41:49Z</time>
      </trkpt>
      <trkpt lat="45.8638990" lon="5.7072760">
        <ele>240.3</ele>
        <time>2022-07-26T11:41:50Z</time>
      </trkpt>
      <trkpt lat="45.8638520" lon="5.7073180">
        <ele>240.3</ele>
        <time>2022-07-26T11:41:51Z</time>
      </trkpt>
      <trkpt lat="45.8638050" lon="5.7073620">
        <ele>240.3</ele>
        <time>2022-07-26T11:41:52Z</time>
      </trkpt>
      <trkpt lat="45.8637650" lon="5.7073970">
        <ele>240.3</ele>
        <time>2022-07-26T11:41:53Z</time>
      </trkpt>
      <trkpt lat="45.8637270" lon="5.7074420">
        <ele>240.3</ele>
        <time>2022-07-26T11:41:54Z</time>
      </trkpt>
      <trkpt lat="45.8636880" lon="5.7074880">
        <ele>240.3</ele>
        <time>2022-07-26T11:41:55Z</time>
      </trkpt>
      <trkpt lat="45.8636420" lon="5.7075280">
        <ele>240.3</ele>
        <time>2022-07-26T11:41:56Z</time>
      </trkpt>
      <trkpt lat="45.8635970" lon="5.7075570">
        <ele>240.3</ele>
        <time>2022-07-26T11:41:57Z</time>
      </trkpt>
      <trkpt lat="45.8635570" lon="5.7075870">
        <ele>240.2</ele>
        <time>2022-07-26T11:41:58Z</time>
      </trkpt>
      <trkpt lat="45.8635160" lon="5.7076220">
        <ele>240.2</ele>
        <time>2022-07-26T11:41:59Z</time>
      </trkpt>
      <trkpt lat="45.8634720" lon="5.7076270">
        <ele>240.2</ele>
        <time>2022-07-26T11:42:00Z</time>
      </trkpt>
      <trkpt lat="45.8634300" lon="5.7076550">
        <ele>240.2</ele>
        <time>2022-07-26T11:42:02Z</time>
      </trkpt>
      <trkpt lat="45.8633970" lon="5.7076840">
        <ele>240.2</ele>
        <time>2022-07-26T11:42:03Z</time>
      </trkpt>
      <trkpt lat="45.8633360" lon="5.7077880">
        <ele>240.2</ele>
        <time>2022-07-26T11:42:04Z</time>
      </trkpt>
      <trkpt lat="45.8632940" lon="5.7078310">
        <ele>240.2</ele>
        <time>2022-07-26T11:42:05Z</time>
      </trkpt>
      <trkpt lat="45.8632580" lon="5.7078090">
        <ele>240.2</ele>
        <time>2022-07-26T11:42:07Z</time>
      </trkpt>
      <trkpt lat="45.8631700" lon="5.7079360">
        <ele>240.1</ele>
        <time>2022-07-26T11:42:08Z</time>
      </trkpt>
      <trkpt lat="45.8631220" lon="5.7079990">
        <ele>240.1</ele>
        <time>2022-07-26T11:42:09Z</time>
      </trkpt>
      <trkpt lat="45.8630770" lon="5.7080450">
        <ele>240.2</ele>
        <time>2022-07-26T11:42:10Z</time>
      </trkpt>
      <trkpt lat="45.8630410" lon="5.7080840">
        <ele>240.2</ele>
        <time>2022-07-26T11:42:11Z</time>
      </trkpt>
      <trkpt lat="45.8630070" lon="5.7080990">
        <ele>240.2</ele>
        <time>2022-07-26T11:42:12Z</time>
      </trkpt>
      <trkpt lat="45.8629820" lon="5.7081420">
        <ele>240.2</ele>
        <time>2022-07-26T11:42:13Z</time>
      </trkpt>
      <trkpt lat="45.8629540" lon="5.7081510">
        <ele>240.2</ele>
        <time>2022-07-26T11:42:14Z</time>
      </trkpt>
      <trkpt lat="45.8629250" lon="5.7081850">
        <ele>240.2</ele>
        <time>2022-07-26T11:42:15Z</time>
      </trkpt>
      <trkpt lat="45.8628910" lon="5.7082290">
        <ele>240.2</ele>
        <time>2022-07-26T11:42:16Z</time>
      </trkpt>
      <trkpt lat="45.8628720" lon="5.7082920">
        <ele>240.1</ele>
        <time>2022-07-26T11:42:17Z</time>
      </trkpt>
      <trkpt lat="45.8628580" lon="5.7083930">
        <ele>240.1</ele>
        <time>2022-07-26T11:42:18Z</time>
      </trkpt>
      <trkpt lat="45.8628820" lon="5.7085030">
        <ele>240.1</ele>
        <time>2022-07-26T11:42:20Z</time>
      </trkpt>
      <trkpt lat="45.8628810" lon="5.7085840">
        <ele>240.1</ele>
        <time>2022-07-26T11:42:21Z</time>
      </trkpt>
      <trkpt lat="45.8628770" lon="5.7086580">
        <ele>240.0</ele>
        <time>2022-07-26T11:42:22Z</time>
      </trkpt>
      <trkpt lat="45.8628730" lon="5.7087280">
        <ele>240.0</ele>
        <time>2022-07-26T11:42:23Z</time>
      </trkpt>
      <trkpt lat="45.8628630" lon="5.7087930">
        <ele>240.0</ele>
        <time>2022-07-26T11:42:24Z</time>
      </trkpt>
      <trkpt lat="45.8628650" lon="5.7088560">
        <ele>240.1</ele>
        <time>2022-07-26T11:42:25Z</time>
      </trkpt>
      <trkpt lat="45.8628950" lon="5.7089190">
        <ele>240.1</ele>
        <time>2022-07-26T11:42:26Z</time>
      </trkpt>
      <trkpt lat="45.8629150" lon="5.7089940">
        <ele>240.1</ele>
        <time>2022-07-26T11:42:27Z</time>
      </trkpt>
      <trkpt lat="45.8628630" lon="5.7091030">
        <ele>240.2</ele>
        <time>2022-07-26T11:42:29Z</time>
      </trkpt>
      <trkpt lat="45.8628470" lon="5.7091660">
        <ele>240.3</ele>
        <time>2022-07-26T11:42:30Z</time>
      </trkpt>
      <trkpt lat="45.8628300" lon="5.7092050">
        <ele>240.3</ele>
        <time>2022-07-26T11:42:31Z</time>
      </trkpt>
      <trkpt lat="45.8628110" lon="5.7092480">
        <ele>240.4</ele>
        <time>2022-07-26T11:42:32Z</time>
      </trkpt>
      <trkpt lat="45.8627850" lon="5.7092610">
        <ele>240.5</ele>
        <time>2022-07-26T11:42:33Z</time>
      </trkpt>
      <trkpt lat="45.8627390" lon="5.7092470">
        <ele>240.6</ele>
        <time>2022-07-26T11:42:35Z</time>
      </trkpt>
      <trkpt lat="45.8627090" lon="5.7092380">
        <ele>240.6</ele>
        <time>2022-07-26T11:42:36Z</time>
      </trkpt>
      <trkpt lat="45.8626980" lon="5.7092400">
        <ele>240.6</ele>
        <time>2022-07-26T11:42:37Z</time>
      </trkpt>
      <trkpt lat="45.8626830" lon="5.7092330">
        <ele>240.6</ele>
        <time>2022-07-26T11:42:38Z</time>
      </trkpt>
      <trkpt lat="45.8626020" lon="5.7092010">
        <ele>240.7</ele>
        <time>2022-07-26T11:42:40Z</time>
      </trkpt>
      <trkpt lat="45.8625410" lon="5.7092040">
        <ele>240.7</ele>
        <time>2022-07-26T11:42:41Z</time>
      </trkpt>
      <trkpt lat="45.8624890" lon="5.7092110">
        <ele>240.8</ele>
        <time>2022-07-26T11:42:42Z</time>
      </trkpt>
      <trkpt lat="45.8624310" lon="5.7092120">
        <ele>240.9</ele>
        <time>2022-07-26T11:42:43Z</time>
      </trkpt>
      <trkpt lat="45.8623790" lon="5.7092140">
        <ele>240.9</ele>
        <time>2022-07-26T11:42:44Z</time>
      </trkpt>
      <trkpt lat="45.8622960" lon="5.7092390">
        <ele>241.1</ele>
        <time>2022-07-26T11:42:46Z</time>
      </trkpt>
      <trkpt lat="45.8622630" lon="5.7092710">
        <ele>241.1</ele>
        <time>2022-07-26T11:42:47Z</time>
      </trkpt>
      <trkpt lat="45.8622410" lon="5.7093100">
        <ele>241.2</ele>
        <time>2022-07-26T11:42:48Z</time>
      </trkpt>
      <trkpt lat="45.8622340" lon="5.7093240">
        <ele>241.2</ele>
        <time>2022-07-26T11:42:49Z</time>
      </trkpt>
      <trkpt lat="45.8622080" lon="5.7093660">
        <ele>241.2</ele>
        <time>2022-07-26T11:42:51Z</time>
      </trkpt>
      <trkpt lat="45.8621980" lon="5.7094060">
        <ele>241.3</ele>
        <time>2022-07-26T11:42:52Z</time>
      </trkpt>
      <trkpt lat="45.8621680" lon="5.7094270">
        <ele>241.3</ele>
        <time>2022-07-26T11:42:53Z</time>
      </trkpt>
      <trkpt lat="45.8621600" lon="5.7094370">
        <ele>241.3</ele>
        <time>2022-07-26T11:42:54Z</time>
      </trkpt>
      <trkpt lat="45.8621200" lon="5.7094910">
        <ele>241.3</ele>
        <time>2022-07-26T11:42:56Z</time>
      </trkpt>
      <trkpt lat="45.8620980" lon="5.7095230">
        <ele>241.3</ele>
        <time>2022-07-26T11:42:58Z</time>
      </trkpt>
      <trkpt lat="45.8620950" lon="5.7095460">
        <ele>241.3</ele>
        <time>2022-07-26T11:42:59Z</time>
      </trkpt>
      <trkpt lat="45.8620950" lon="5.7095630">
        <ele>241.3</ele>
        <time>2022-07-26T11:43:00Z</time>
      </trkpt>
      <trkpt lat="45.8620950" lon="5.7095790">
        <ele>241.3</ele>
        <time>2022-07-26T11:43:01Z</time>
      </trkpt>
      <trkpt lat="45.8620820" lon="5.7096150">
        <ele>241.3</ele>
        <time>2022-07-26T11:43:02Z</time>
      </trkpt>
      <trkpt lat="45.8620570" lon="5.7096610">
        <ele>241.3</ele>
        <time>2022-07-26T11:43:03Z</time>
      </trkpt>
      <trkpt lat="45.8620340" lon="5.7097140">
        <ele>241.3</ele>
        <time>2022-07-26T11:43:05Z</time>
      </trkpt>
      <trkpt lat="45.8620100" lon="5.7097580">
        <ele>241.3</ele>
        <time>2022-07-26T11:43:06Z</time>
      </trkpt>
      <trkpt lat="45.8619860" lon="5.7097930">
        <ele>241.3</ele>
        <time>2022-07-26T11:43:07Z</time>
      </trkpt>
      <trkpt lat="45.8619570" lon="5.7098450">
        <ele>241.3</ele>
        <time>2022-07-26T11:43:09Z</time>
      </trkpt>
      <trkpt lat="45.8619380" lon="5.7098920">
        <ele>241.3</ele>
        <time>2022-07-26T11:43:10Z</time>
      </trkpt>
      <trkpt lat="45.8619250" lon="5.7099270">
        <ele>241.3</ele>
        <time>2022-07-26T11:43:11Z</time>
      </trkpt>
      <trkpt lat="45.8618990" lon="5.7099850">
        <ele>241.3</ele>
        <time>2022-07-26T11:43:13Z</time>
      </trkpt>
      <trkpt lat="45.8618730" lon="5.7100250">
        <ele>241.2</ele>
        <time>2022-07-26T11:43:14Z</time>
      </trkpt>
      <trkpt lat="45.8618520" lon="5.7100570">
        <ele>241.2</ele>
        <time>2022-07-26T11:43:15Z</time>
      </trkpt>
      <trkpt lat="45.8618410" lon="5.7100960">
        <ele>241.2</ele>
        <time>2022-07-26T11:43:16Z</time>
      </trkpt>
      <trkpt lat="45.8618260" lon="5.7101420">
        <ele>241.2</ele>
        <time>2022-07-26T11:43:17Z</time>
      </trkpt>
      <trkpt lat="45.8618110" lon="5.7101820">
        <ele>241.2</ele>
        <time>2022-07-26T11:43:18Z</time>
      </trkpt>
      <trkpt lat="45.8618060" lon="5.7101950">
        <ele>241.2</ele>
        <time>2022-07-26T11:43:19Z</time>
      </trkpt>
      <trkpt lat="45.8617910" lon="5.7102340">
        <ele>241.2</ele>
        <time>2022-07-26T11:43:20Z</time>
      </trkpt>
      <trkpt lat="45.8617800" lon="5.7102790">
        <ele>241.2</ele>
        <time>2022-07-26T11:43:21Z</time>
      </trkpt>
      <trkpt lat="45.8617780" lon="5.7102940">
        <ele>241.2</ele>
        <time>2022-07-26T11:43:22Z</time>
      </trkpt>
      <trkpt lat="45.8617630" lon="5.7103420">
        <ele>241.2</ele>
        <time>2022-07-26T11:43:23Z</time>
      </trkpt>
      <trkpt lat="45.8617560" lon="5.7103570">
        <ele>241.2</ele>
        <time>2022-07-26T11:43:24Z</time>
      </trkpt>
      <trkpt lat="45.8617360" lon="5.7104020">
        <ele>241.1</ele>
        <time>2022-07-26T11:43:25Z</time>
      </trkpt>
      <trkpt lat="45.8617310" lon="5.7104150">
        <ele>241.1</ele>
        <time>2022-07-26T11:43:26Z</time>
      </trkpt>
      <trkpt lat="45.8617140" lon="5.7104520">
        <ele>241.1</ele>
        <time>2022-07-26T11:43:27Z</time>
      </trkpt>
      <trkpt lat="45.8616960" lon="5.7104930">
        <ele>241.1</ele>
        <time>2022-07-26T11:43:29Z</time>
      </trkpt>
      <trkpt lat="45.8616800" lon="5.7105260">
        <ele>241.1</ele>
        <time>2022-07-26T11:43:30Z</time>
      </trkpt>
      <trkpt lat="45.8616630" lon="5.7105710">
        <ele>241.1</ele>
        <time>2022-07-26T11:43:31Z</time>
      </trkpt>
      <trkpt lat="45.8616480" lon="5.7106160">
        <ele>241.1</ele>
        <time>2022-07-26T11:43:32Z</time>
      </trkpt>
      <trkpt lat="45.8616330" lon="5.7106660">
        <ele>241.1</ele>
        <time>2022-07-26T11:43:33Z</time>
      </trkpt>
      <trkpt lat="45.8616160" lon="5.7107130">
        <ele>241.0</ele>
        <time>2022-07-26T11:43:34Z</time>
      </trkpt>
      <trkpt lat="45.8615930" lon="5.7107690">
        <ele>241.0</ele>
        <time>2022-07-26T11:43:35Z</time>
      </trkpt>
      <trkpt lat="45.8615630" lon="5.7108310">
        <ele>241.0</ele>
        <time>2022-07-26T11:43:37Z</time>
      </trkpt>
      <trkpt lat="45.8615360" lon="5.7108720">
        <ele>241.0</ele>
        <time>2022-07-26T11:43:38Z</time>
      </trkpt>
      <trkpt lat="45.8615110" lon="5.7109110">
        <ele>241.0</ele>
        <time>2022-07-26T11:43:39Z</time>
      </trkpt>
      <trkpt lat="45.8614800" lon="5.7109620">
        <ele>241.0</ele>
        <time>2022-07-26T11:43:40Z</time>
      </trkpt>
      <trkpt lat="45.8614570" lon="5.7109970">
        <ele>240.9</ele>
        <time>2022-07-26T11:43:42Z</time>
      </trkpt>
      <trkpt lat="45.8614380" lon="5.7110320">
        <ele>240.9</ele>
        <time>2022-07-26T11:43:43Z</time>
      </trkpt>
      <trkpt lat="45.8614290" lon="5.7110850">
        <ele>240.9</ele>
        <time>2022-07-26T11:43:44Z</time>
      </trkpt>
      <trkpt lat="45.8614210" lon="5.7111350">
        <ele>240.9</ele>
        <time>2022-07-26T11:43:45Z</time>
      </trkpt>
      <trkpt lat="45.8614110" lon="5.7111780">
        <ele>240.9</ele>
        <time>2022-07-26T11:43:47Z</time>
      </trkpt>
      <trkpt lat="45.8613980" lon="5.7112300">
        <ele>241.0</ele>
        <time>2022-07-26T11:43:48Z</time>
      </trkpt>
      <trkpt lat="45.8613890" lon="5.7112680">
        <ele>241.0</ele>
        <time>2022-07-26T11:43:49Z</time>
      </trkpt>
      <trkpt lat="45.8613760" lon="5.7113110">
        <ele>241.0</ele>
        <time>2022-07-26T11:43:50Z</time>
      </trkpt>
      <trkpt lat="45.8613640" lon="5.7113420">
        <ele>241.0</ele>
        <time>2022-07-26T11:43:51Z</time>
      </trkpt>
      <trkpt lat="45.8613470" lon="5.7113770">
        <ele>241.0</ele>
        <time>2022-07-26T11:43:53Z</time>
      </trkpt>
      <trkpt lat="45.8613230" lon="5.7114170">
        <ele>241.1</ele>
        <time>2022-07-26T11:43:54Z</time>
      </trkpt>
      <trkpt lat="45.8613120" lon="5.7114340">
        <ele>241.1</ele>
        <time>2022-07-26T11:43:55Z</time>
      </trkpt>
      <trkpt lat="45.8612940" lon="5.7114670">
        <ele>241.1</ele>
        <time>2022-07-26T11:43:56Z</time>
      </trkpt>
      <trkpt lat="45.8612760" lon="5.7115020">
        <ele>241.1</ele>
        <time>2022-07-26T11:43:57Z</time>
      </trkpt>
      <trkpt lat="45.8612570" lon="5.7115370">
        <ele>241.2</ele>
        <time>2022-07-26T11:43:58Z</time>
      </trkpt>
      <trkpt lat="45.8612370" lon="5.7115800">
        <ele>241.2</ele>
        <time>2022-07-26T11:43:59Z</time>
      </trkpt>
      <trkpt lat="45.8612130" lon="5.7116360">
        <ele>241.2</ele>
        <time>2022-07-26T11:44:00Z</time>
      </trkpt>
      <trkpt lat="45.8611890" lon="5.7116740">
        <ele>241.2</ele>
        <time>2022-07-26T11:44:01Z</time>
      </trkpt>
      <trkpt lat="45.8611630" lon="5.7117150">
        <ele>241.2</ele>
        <time>2022-07-26T11:44:02Z</time>
      </trkpt>
      <trkpt lat="45.8611330" lon="5.7117590">
        <ele>241.1</ele>
        <time>2022-07-26T11:44:04Z</time>
      </trkpt>
      <trkpt lat="45.8610660" lon="5.7118750">
        <ele>241.0</ele>
        <time>2022-07-26T11:44:05Z</time>
      </trkpt>
      <trkpt lat="45.8610390" lon="5.7119240">
        <ele>241.0</ele>
        <time>2022-07-26T11:44:06Z</time>
      </trkpt>
      <trkpt lat="45.8610050" lon="5.7119340">
        <ele>241.0</ele>
        <time>2022-07-26T11:44:07Z</time>
      </trkpt>
      <trkpt lat="45.8609580" lon="5.7119910">
        <ele>240.9</ele>
        <time>2022-07-26T11:44:09Z</time>
      </trkpt>
      <trkpt lat="45.8609330" lon="5.7120350">
        <ele>240.9</ele>
        <time>2022-07-26T11:44:10Z</time>
      </trkpt>
      <trkpt lat="45.8609130" lon="5.7120700">
        <ele>240.9</ele>
        <time>2022-07-26T11:44:11Z</time>
      </trkpt>
      <trkpt lat="45.8608990" lon="5.7121350">
        <ele>240.9</ele>
        <time>2022-07-26T11:44:12Z</time>
      </trkpt>
      <trkpt lat="45.8608790" lon="5.7121920">
        <ele>240.8</ele>
        <time>2022-07-26T11:44:14Z</time>
      </trkpt>
      <trkpt lat="45.8608630" lon="5.7122360">
        <ele>240.8</ele>
        <time>2022-07-26T11:44:15Z</time>
      </trkpt>
      <trkpt lat="45.8608450" lon="5.7122690">
        <ele>240.8</ele>
        <time>2022-07-26T11:44:16Z</time>
      </trkpt>
      <trkpt lat="45.8608200" lon="5.7123060">
        <ele>240.8</ele>
        <time>2022-07-26T11:44:17Z</time>
      </trkpt>
      <trkpt lat="45.8607900" lon="5.7123720">
        <ele>240.8</ele>
        <time>2022-07-26T11:44:18Z</time>
      </trkpt>
      <trkpt lat="45.8607700" lon="5.7124170">
        <ele>240.8</ele>
        <time>2022-07-26T11:44:19Z</time>
      </trkpt>
      <trkpt lat="45.8607440" lon="5.7124790">
        <ele>240.8</ele>
        <time>2022-07-26T11:44:21Z</time>
      </trkpt>
      <trkpt lat="45.8607200" lon="5.7125350">
        <ele>240.8</ele>
        <time>2022-07-26T11:44:22Z</time>
      </trkpt>
      <trkpt lat="45.8606890" lon="5.7126080">
        <ele>240.8</ele>
        <time>2022-07-26T11:44:23Z</time>
      </trkpt>
      <trkpt lat="45.8606700" lon="5.7126470">
        <ele>240.9</ele>
        <time>2022-07-26T11:44:24Z</time>
      </trkpt>
      <trkpt lat="45.8606540" lon="5.7126840">
        <ele>240.9</ele>
        <time>2022-07-26T11:44:26Z</time>
      </trkpt>
      <trkpt lat="45.8606390" lon="5.7127200">
        <ele>240.9</ele>
        <time>2022-07-26T11:44:27Z</time>
      </trkpt>
      <trkpt lat="45.8606190" lon="5.7127680">
        <ele>240.9</ele>
        <time>2022-07-26T11:44:28Z</time>
      </trkpt>
      <trkpt lat="45.8605900" lon="5.7128540">
        <ele>241.0</ele>
        <time>2022-07-26T11:44:30Z</time>
      </trkpt>
      <trkpt lat="45.8605660" lon="5.7129020">
        <ele>241.0</ele>
        <time>2022-07-26T11:44:31Z</time>
      </trkpt>
      <trkpt lat="45.8605350" lon="5.7129780">
        <ele>241.0</ele>
        <time>2022-07-26T11:44:32Z</time>
      </trkpt>
      <trkpt lat="45.8605150" lon="5.7130310">
        <ele>241.1</ele>
        <time>2022-07-26T11:44:33Z</time>
      </trkpt>
      <trkpt lat="45.8604890" lon="5.7130930">
        <ele>241.1</ele>
        <time>2022-07-26T11:44:35Z</time>
      </trkpt>
      <trkpt lat="45.8604640" lon="5.7131510">
        <ele>241.0</ele>
        <time>2022-07-26T11:44:36Z</time>
      </trkpt>
      <trkpt lat="45.8604440" lon="5.7131930">
        <ele>241.0</ele>
        <time>2022-07-26T11:44:37Z</time>
      </trkpt>
      <trkpt lat="45.8604180" lon="5.7132360">
        <ele>241.0</ele>
        <time>2022-07-26T11:44:38Z</time>
      </trkpt>
      <trkpt lat="45.8603960" lon="5.7132720">
        <ele>241.0</ele>
        <time>2022-07-26T11:44:39Z</time>
      </trkpt>
      <trkpt lat="45.8603740" lon="5.7133120">
        <ele>241.0</ele>
        <time>2022-07-26T11:44:40Z</time>
      </trkpt>
      <trkpt lat="45.8603510" lon="5.7133490">
        <ele>241.0</ele>
        <time>2022-07-26T11:44:41Z</time>
      </trkpt>
      <trkpt lat="45.8603280" lon="5.7133910">
        <ele>241.0</ele>
        <time>2022-07-26T11:44:42Z</time>
      </trkpt>
      <trkpt lat="45.8603030" lon="5.7134410">
        <ele>241.0</ele>
        <time>2022-07-26T11:44:43Z</time>
      </trkpt>
      <trkpt lat="45.8602810" lon="5.7134850">
        <ele>241.0</ele>
        <time>2022-07-26T11:44:44Z</time>
      </trkpt>
      <trkpt lat="45.8602580" lon="5.7135300">
        <ele>241.0</ele>
        <time>2022-07-26T11:44:45Z</time>
      </trkpt>
      <trkpt lat="45.8602240" lon="5.7135910">
        <ele>241.0</ele>
        <time>2022-07-26T11:44:46Z</time>
      </trkpt>
      <trkpt lat="45.8601970" lon="5.7136540">
        <ele>241.0</ele>
        <time>2022-07-26T11:44:48Z</time>
      </trkpt>
      <trkpt lat="45.8601730" lon="5.7137040">
        <ele>241.0</ele>
        <time>2022-07-26T11:44:49Z</time>
      </trkpt>
      <trkpt lat="45.8601490" lon="5.7137510">
        <ele>241.0</ele>
        <time>2022-07-26T11:44:50Z</time>
      </trkpt>
      <trkpt lat="45.8601150" lon="5.7138040">
        <ele>241.0</ele>
        <time>2022-07-26T11:44:51Z</time>
      </trkpt>
      <trkpt lat="45.8600630" lon="5.7138890">
        <ele>241.0</ele>
        <time>2022-07-26T11:44:53Z</time>
      </trkpt>
      <trkpt lat="45.8600380" lon="5.7139330">
        <ele>241.0</ele>
        <time>2022-07-26T11:44:54Z</time>
      </trkpt>
      <trkpt lat="45.8600110" lon="5.7139730">
        <ele>241.0</ele>
        <time>2022-07-26T11:44:55Z</time>
      </trkpt>
      <trkpt lat="45.8599840" lon="5.7140100">
        <ele>241.0</ele>
        <time>2022-07-26T11:44:56Z</time>
      </trkpt>
      <trkpt lat="45.8599530" lon="5.7140530">
        <ele>241.0</ele>
        <time>2022-07-26T11:44:57Z</time>
      </trkpt>
      <trkpt lat="45.8599240" lon="5.7140970">
        <ele>241.0</ele>
        <time>2022-07-26T11:44:58Z</time>
      </trkpt>
      <trkpt lat="45.8598980" lon="5.7141410">
        <ele>241.0</ele>
        <time>2022-07-26T11:44:59Z</time>
      </trkpt>
      <trkpt lat="45.8598760" lon="5.7141850">
        <ele>241.0</ele>
        <time>2022-07-26T11:45:00Z</time>
      </trkpt>
      <trkpt lat="45.8598500" lon="5.7142330">
        <ele>241.0</ele>
        <time>2022-07-26T11:45:01Z</time>
      </trkpt>
      <trkpt lat="45.8598110" lon="5.7142970">
        <ele>241.0</ele>
        <time>2022-07-26T11:45:02Z</time>
      </trkpt>
      <trkpt lat="45.8597860" lon="5.7143370">
        <ele>241.0</ele>
        <time>2022-07-26T11:45:03Z</time>
      </trkpt>
      <trkpt lat="45.8597640" lon="5.7143730">
        <ele>241.0</ele>
        <time>2022-07-26T11:45:04Z</time>
      </trkpt>
      <trkpt lat="45.8597320" lon="5.7144280">
        <ele>241.0</ele>
        <time>2022-07-26T11:45:06Z</time>
      </trkpt>
      <trkpt lat="45.8596950" lon="5.7144800">
        <ele>241.0</ele>
        <time>2022-07-26T11:45:07Z</time>
      </trkpt>
      <trkpt lat="45.8596790" lon="5.7145080">
        <ele>240.9</ele>
        <time>2022-07-26T11:45:08Z</time>
      </trkpt>
      <trkpt lat="45.8596560" lon="5.7145540">
        <ele>240.9</ele>
        <time>2022-07-26T11:45:10Z</time>
      </trkpt>
      <trkpt lat="45.8595940" lon="5.7146610">
        <ele>240.8</ele>
        <time>2022-07-26T11:45:11Z</time>
      </trkpt>
      <trkpt lat="45.8595590" lon="5.7147010">
        <ele>240.8</ele>
        <time>2022-07-26T11:45:12Z</time>
      </trkpt>
      <trkpt lat="45.8595330" lon="5.7147520">
        <ele>240.7</ele>
        <time>2022-07-26T11:45:13Z</time>
      </trkpt>
      <trkpt lat="45.8595130" lon="5.7148000">
        <ele>240.7</ele>
        <time>2022-07-26T11:45:14Z</time>
      </trkpt>
      <trkpt lat="45.8594880" lon="5.7148470">
        <ele>240.7</ele>
        <time>2022-07-26T11:45:15Z</time>
      </trkpt>
      <trkpt lat="45.8594550" lon="5.7149270">
        <ele>240.7</ele>
        <time>2022-07-26T11:45:17Z</time>
      </trkpt>
      <trkpt lat="45.8594400" lon="5.7149660">
        <ele>240.6</ele>
        <time>2022-07-26T11:45:18Z</time>
      </trkpt>
      <trkpt lat="45.8594200" lon="5.7150330">
        <ele>240.6</ele>
        <time>2022-07-26T11:45:19Z</time>
      </trkpt>
      <trkpt lat="45.8593990" lon="5.7151010">
        <ele>240.6</ele>
        <time>2022-07-26T11:45:21Z</time>
      </trkpt>
      <trkpt lat="45.8593850" lon="5.7151670">
        <ele>240.6</ele>
        <time>2022-07-26T11:45:22Z</time>
      </trkpt>
      <trkpt lat="45.8593750" lon="5.7152140">
        <ele>240.6</ele>
        <time>2022-07-26T11:45:23Z</time>
      </trkpt>
      <trkpt lat="45.8593650" lon="5.7152660">
        <ele>240.6</ele>
        <time>2022-07-26T11:45:24Z</time>
      </trkpt>
      <trkpt lat="45.8593560" lon="5.7153410">
        <ele>240.5</ele>
        <time>2022-07-26T11:45:25Z</time>
      </trkpt>
      <trkpt lat="45.8593470" lon="5.7153990">
        <ele>240.5</ele>
        <time>2022-07-26T11:45:26Z</time>
      </trkpt>
      <trkpt lat="45.8593390" lon="5.7154570">
        <ele>240.5</ele>
        <time>2022-07-26T11:45:27Z</time>
      </trkpt>
      <trkpt lat="45.8593250" lon="5.7155330">
        <ele>240.5</ele>
        <time>2022-07-26T11:45:29Z</time>
      </trkpt>
      <trkpt lat="45.8593140" lon="5.7155900">
        <ele>240.5</ele>
        <time>2022-07-26T11:45:30Z</time>
      </trkpt>
      <trkpt lat="45.8592970" lon="5.7156820">
        <ele>240.5</ele>
        <time>2022-07-26T11:45:32Z</time>
      </trkpt>
      <trkpt lat="45.8592840" lon="5.7157380">
        <ele>240.5</ele>
        <time>2022-07-26T11:45:33Z</time>
      </trkpt>
      <trkpt lat="45.8592720" lon="5.7157810">
        <ele>240.6</ele>
        <time>2022-07-26T11:45:34Z</time>
      </trkpt>
      <trkpt lat="45.8592620" lon="5.7158350">
        <ele>240.6</ele>
        <time>2022-07-26T11:45:35Z</time>
      </trkpt>
      <trkpt lat="45.8592480" lon="5.7159140">
        <ele>240.6</ele>
        <time>2022-07-26T11:45:36Z</time>
      </trkpt>
      <trkpt lat="45.8592420" lon="5.7159950">
        <ele>240.5</ele>
        <time>2022-07-26T11:45:38Z</time>
      </trkpt>
      <trkpt lat="45.8592290" lon="5.7160630">
        <ele>240.5</ele>
        <time>2022-07-26T11:45:39Z</time>
      </trkpt>
      <trkpt lat="45.8592150" lon="5.7161110">
        <ele>240.5</ele>
        <time>2022-07-26T11:45:40Z</time>
      </trkpt>
      <trkpt lat="45.8591860" lon="5.7162040">
        <ele>240.5</ele>
        <time>2022-07-26T11:45:42Z</time>
      </trkpt>
      <trkpt lat="45.8591710" lon="5.7162470">
        <ele>240.5</ele>
        <time>2022-07-26T11:45:43Z</time>
      </trkpt>
      <trkpt lat="45.8591570" lon="5.7162890">
        <ele>240.5</ele>
        <time>2022-07-26T11:45:44Z</time>
      </trkpt>
      <trkpt lat="45.8591410" lon="5.7163280">
        <ele>240.5</ele>
        <time>2022-07-26T11:45:45Z</time>
      </trkpt>
      <trkpt lat="45.8591250" lon="5.7163680">
        <ele>240.5</ele>
        <time>2022-07-26T11:45:46Z</time>
      </trkpt>
      <trkpt lat="45.8591080" lon="5.7164100">
        <ele>240.5</ele>
        <time>2022-07-26T11:45:47Z</time>
      </trkpt>
      <trkpt lat="45.8590910" lon="5.7164590">
        <ele>240.5</ele>
        <time>2022-07-26T11:45:48Z</time>
      </trkpt>
      <trkpt lat="45.8590720" lon="5.7165120">
        <ele>240.5</ele>
        <time>2022-07-26T11:45:49Z</time>
      </trkpt>
      <trkpt lat="45.8590470" lon="5.7165810">
        <ele>240.5</ele>
        <time>2022-07-26T11:45:50Z</time>
      </trkpt>
      <trkpt lat="45.8590240" lon="5.7166330">
        <ele>240.5</ele>
        <time>2022-07-26T11:45:51Z</time>
      </trkpt>
      <trkpt lat="45.8589840" lon="5.7167000">
        <ele>240.5</ele>
        <time>2022-07-26T11:45:53Z</time>
      </trkpt>
      <trkpt lat="45.8589580" lon="5.7167420">
        <ele>240.5</ele>
        <time>2022-07-26T11:45:54Z</time>
      </trkpt>
      <trkpt lat="45.8589220" lon="5.7168250">
        <ele>240.5</ele>
        <time>2022-07-26T11:45:56Z</time>
      </trkpt>
      <trkpt lat="45.8589060" lon="5.7168660">
        <ele>240.5</ele>
        <time>2022-07-26T11:45:57Z</time>
      </trkpt>
      <trkpt lat="45.8588860" lon="5.7169180">
        <ele>240.5</ele>
        <time>2022-07-26T11:45:58Z</time>
      </trkpt>
      <trkpt lat="45.8588680" lon="5.7169620">
        <ele>240.5</ele>
        <time>2022-07-26T11:45:59Z</time>
      </trkpt>
      <trkpt lat="45.8588500" lon="5.7170070">
        <ele>240.5</ele>
        <time>2022-07-26T11:46:00Z</time>
      </trkpt>
      <trkpt lat="45.8588350" lon="5.7170520">
        <ele>240.5</ele>
        <time>2022-07-26T11:46:01Z</time>
      </trkpt>
      <trkpt lat="45.8588120" lon="5.7171240">
        <ele>240.5</ele>
        <time>2022-07-26T11:46:02Z</time>
      </trkpt>
      <trkpt lat="45.8587950" lon="5.7171660">
        <ele>240.4</ele>
        <time>2022-07-26T11:46:04Z</time>
      </trkpt>
      <trkpt lat="45.8587740" lon="5.7172190">
        <ele>240.4</ele>
        <time>2022-07-26T11:46:05Z</time>
      </trkpt>
      <trkpt lat="45.8587450" lon="5.7172760">
        <ele>240.4</ele>
        <time>2022-07-26T11:46:06Z</time>
      </trkpt>
      <trkpt lat="45.8587240" lon="5.7173280">
        <ele>240.4</ele>
        <time>2022-07-26T11:46:08Z</time>
      </trkpt>
      <trkpt lat="45.8587030" lon="5.7173710">
        <ele>240.4</ele>
        <time>2022-07-26T11:46:09Z</time>
      </trkpt>
      <trkpt lat="45.8586830" lon="5.7174090">
        <ele>240.4</ele>
        <time>2022-07-26T11:46:10Z</time>
      </trkpt>
      <trkpt lat="45.8586600" lon="5.7174440">
        <ele>240.4</ele>
        <time>2022-07-26T11:46:11Z</time>
      </trkpt>
      <trkpt lat="45.8586230" lon="5.7174850">
        <ele>240.3</ele>
        <time>2022-07-26T11:46:13Z</time>
      </trkpt>
      <trkpt lat="45.8585870" lon="5.7175260">
        <ele>240.3</ele>
        <time>2022-07-26T11:46:14Z</time>
      </trkpt>
      <trkpt lat="45.8585570" lon="5.7175670">
        <ele>240.2</ele>
        <time>2022-07-26T11:46:15Z</time>
      </trkpt>
      <trkpt lat="45.8585240" lon="5.7176160">
        <ele>240.2</ele>
        <time>2022-07-26T11:46:16Z</time>
      </trkpt>
      <trkpt lat="45.8584780" lon="5.7176900">
        <ele>240.2</ele>
        <time>2022-07-26T11:46:18Z</time>
      </trkpt>
      <trkpt lat="45.8584310" lon="5.7177630">
        <ele>240.1</ele>
        <time>2022-07-26T11:46:19Z</time>
      </trkpt>
      <trkpt lat="45.8583950" lon="5.7178160">
        <ele>240.1</ele>
        <time>2022-07-26T11:46:21Z</time>
      </trkpt>
      <trkpt lat="45.8583720" lon="5.7178630">
        <ele>240.1</ele>
        <time>2022-07-26T11:46:22Z</time>
      </trkpt>
      <trkpt lat="45.8583490" lon="5.7179040">
        <ele>240.2</ele>
        <time>2022-07-26T11:46:24Z</time>
      </trkpt>
      <trkpt lat="45.8583320" lon="5.7179360">
        <ele>240.2</ele>
        <time>2022-07-26T11:46:25Z</time>
      </trkpt>
      <trkpt lat="45.8583120" lon="5.7179690">
        <ele>240.2</ele>
        <time>2022-07-26T11:46:26Z</time>
      </trkpt>
      <trkpt lat="45.8582880" lon="5.7180190">
        <ele>240.2</ele>
        <time>2022-07-26T11:46:27Z</time>
      </trkpt>
      <trkpt lat="45.8582810" lon="5.7180370">
        <ele>240.2</ele>
        <time>2022-07-26T11:46:28Z</time>
      </trkpt>
      <trkpt lat="45.8582470" lon="5.7180920">
        <ele>240.2</ele>
        <time>2022-07-26T11:46:29Z</time>
      </trkpt>
      <trkpt lat="45.8582070" lon="5.7181470">
        <ele>240.2</ele>
        <time>2022-07-26T11:46:31Z</time>
      </trkpt>
      <trkpt lat="45.8581700" lon="5.7182000">
        <ele>240.1</ele>
        <time>2022-07-26T11:46:32Z</time>
      </trkpt>
      <trkpt lat="45.8581450" lon="5.7182350">
        <ele>240.1</ele>
        <time>2022-07-26T11:46:33Z</time>
      </trkpt>
      <trkpt lat="45.8581170" lon="5.7182870">
        <ele>240.1</ele>
        <time>2022-07-26T11:46:34Z</time>
      </trkpt>
      <trkpt lat="45.8581060" lon="5.7183090">
        <ele>240.1</ele>
        <time>2022-07-26T11:46:35Z</time>
      </trkpt>
      <trkpt lat="45.8580800" lon="5.7183500">
        <ele>240.1</ele>
        <time>2022-07-26T11:46:36Z</time>
      </trkpt>
      <trkpt lat="45.8580510" lon="5.7183880">
        <ele>240.1</ele>
        <time>2022-07-26T11:46:37Z</time>
      </trkpt>
      <trkpt lat="45.8580090" lon="5.7184420">
        <ele>240.1</ele>
        <time>2022-07-26T11:46:38Z</time>
      </trkpt>
      <trkpt lat="45.8579710" lon="5.7184910">
        <ele>240.1</ele>
        <time>2022-07-26T11:46:40Z</time>
      </trkpt>
      <trkpt lat="45.8578990" lon="5.7185840">
        <ele>240.0</ele>
        <time>2022-07-26T11:46:42Z</time>
      </trkpt>
      <trkpt lat="45.8578620" lon="5.7186260">
        <ele>240.0</ele>
        <time>2022-07-26T11:46:43Z</time>
      </trkpt>
      <trkpt lat="45.8578330" lon="5.7186600">
        <ele>240.0</ele>
        <time>2022-07-26T11:46:44Z</time>
      </trkpt>
      <trkpt lat="45.8578020" lon="5.7186980">
        <ele>240.0</ele>
        <time>2022-07-26T11:46:45Z</time>
      </trkpt>
      <trkpt lat="45.8577680" lon="5.7187410">
        <ele>240.0</ele>
        <time>2022-07-26T11:46:46Z</time>
      </trkpt>
      <trkpt lat="45.8577390" lon="5.7187760">
        <ele>239.9</ele>
        <time>2022-07-26T11:46:47Z</time>
      </trkpt>
      <trkpt lat="45.8577090" lon="5.7188080">
        <ele>239.9</ele>
        <time>2022-07-26T11:46:48Z</time>
      </trkpt>
      <trkpt lat="45.8576540" lon="5.7188650">
        <ele>239.9</ele>
        <time>2022-07-26T11:46:49Z</time>
      </trkpt>
      <trkpt lat="45.8576060" lon="5.7189200">
        <ele>239.9</ele>
        <time>2022-07-26T11:46:51Z</time>
      </trkpt>
      <trkpt lat="45.8575630" lon="5.7189780">
        <ele>239.9</ele>
        <time>2022-07-26T11:46:52Z</time>
      </trkpt>
      <trkpt lat="45.8575300" lon="5.7190190">
        <ele>239.9</ele>
        <time>2022-07-26T11:46:53Z</time>
      </trkpt>
      <trkpt lat="45.8574980" lon="5.7190660">
        <ele>239.9</ele>
        <time>2022-07-26T11:46:54Z</time>
      </trkpt>
      <trkpt lat="45.8574500" lon="5.7191380">
        <ele>239.8</ele>
        <time>2022-07-26T11:46:56Z</time>
      </trkpt>
      <trkpt lat="45.8574140" lon="5.7191910">
        <ele>239.8</ele>
        <time>2022-07-26T11:46:57Z</time>
      </trkpt>
      <trkpt lat="45.8573800" lon="5.7192290">
        <ele>239.8</ele>
        <time>2022-07-26T11:46:58Z</time>
      </trkpt>
      <trkpt lat="45.8573440" lon="5.7192680">
        <ele>239.8</ele>
        <time>2022-07-26T11:46:59Z</time>
      </trkpt>
      <trkpt lat="45.8572920" lon="5.7193300">
        <ele>239.8</ele>
        <time>2022-07-26T11:47:00Z</time>
      </trkpt>
      <trkpt lat="45.8572490" lon="5.7193690">
        <ele>239.8</ele>
        <time>2022-07-26T11:47:02Z</time>
      </trkpt>
      <trkpt lat="45.8572110" lon="5.7194020">
        <ele>239.8</ele>
        <time>2022-07-26T11:47:03Z</time>
      </trkpt>
      <trkpt lat="45.8571770" lon="5.7194360">
        <ele>239.8</ele>
        <time>2022-07-26T11:47:04Z</time>
      </trkpt>
      <trkpt lat="45.8571110" lon="5.7194890">
        <ele>239.8</ele>
        <time>2022-07-26T11:47:06Z</time>
      </trkpt>
      <trkpt lat="45.8570620" lon="5.7195250">
        <ele>239.7</ele>
        <time>2022-07-26T11:47:07Z</time>
      </trkpt>
      <trkpt lat="45.8570070" lon="5.7195730">
        <ele>239.7</ele>
        <time>2022-07-26T11:47:08Z</time>
      </trkpt>
      <trkpt lat="45.8569680" lon="5.7196140">
        <ele>239.7</ele>
        <time>2022-07-26T11:47:10Z</time>
      </trkpt>
      <trkpt lat="45.8569290" lon="5.7196420">
        <ele>239.7</ele>
        <time>2022-07-26T11:47:11Z</time>
      </trkpt>
      <trkpt lat="45.8568930" lon="5.7196690">
        <ele>239.7</ele>
        <time>2022-07-26T11:47:12Z</time>
      </trkpt>
      <trkpt lat="45.8568590" lon="5.7196920">
        <ele>239.7</ele>
        <time>2022-07-26T11:47:13Z</time>
      </trkpt>
      <trkpt lat="45.8568240" lon="5.7197170">
        <ele>239.7</ele>
        <time>2022-07-26T11:47:14Z</time>
      </trkpt>
      <trkpt lat="45.8567880" lon="5.7197400">
        <ele>239.7</ele>
        <time>2022-07-26T11:47:15Z</time>
      </trkpt>
      <trkpt lat="45.8567460" lon="5.7197600">
        <ele>239.7</ele>
        <time>2022-07-26T11:47:16Z</time>
      </trkpt>
      <trkpt lat="45.8567070" lon="5.7197790">
        <ele>239.7</ele>
        <time>2022-07-26T11:47:17Z</time>
      </trkpt>
      <trkpt lat="45.8566700" lon="5.7198050">
        <ele>239.7</ele>
        <time>2022-07-26T11:47:18Z</time>
      </trkpt>
      <trkpt lat="45.8566240" lon="5.7198560">
        <ele>239.7</ele>
        <time>2022-07-26T11:47:19Z</time>
      </trkpt>
      <trkpt lat="45.8565770" lon="5.7198960">
        <ele>239.7</ele>
        <time>2022-07-26T11:47:20Z</time>
      </trkpt>
      <trkpt lat="45.8565230" lon="5.7199380">
        <ele>239.7</ele>
        <time>2022-07-26T11:47:22Z</time>
      </trkpt>
      <trkpt lat="45.8564810" lon="5.7199660">
        <ele>239.6</ele>
        <time>2022-07-26T11:47:23Z</time>
      </trkpt>
      <trkpt lat="45.8564400" lon="5.7199960">
        <ele>239.6</ele>
        <time>2022-07-26T11:47:24Z</time>
      </trkpt>
      <trkpt lat="45.8563990" lon="5.7200290">
        <ele>239.6</ele>
        <time>2022-07-26T11:47:25Z</time>
      </trkpt>
      <trkpt lat="45.8563600" lon="5.7200710">
        <ele>239.6</ele>
        <time>2022-07-26T11:47:26Z</time>
      </trkpt>
      <trkpt lat="45.8563260" lon="5.7200970">
        <ele>239.6</ele>
        <time>2022-07-26T11:47:27Z</time>
      </trkpt>
      <trkpt lat="45.8562760" lon="5.7201470">
        <ele>239.6</ele>
        <time>2022-07-26T11:47:29Z</time>
      </trkpt>
      <trkpt lat="45.8562260" lon="5.7202080">
        <ele>239.6</ele>
        <time>2022-07-26T11:47:30Z</time>
      </trkpt>
      <trkpt lat="45.8561900" lon="5.7202470">
        <ele>239.6</ele>
        <time>2022-07-26T11:47:32Z</time>
      </trkpt>
      <trkpt lat="45.8561490" lon="5.7203000">
        <ele>239.6</ele>
        <time>2022-07-26T11:47:33Z</time>
      </trkpt>
      <trkpt lat="45.8561180" lon="5.7203490">
        <ele>239.6</ele>
        <time>2022-07-26T11:47:34Z</time>
      </trkpt>
      <trkpt lat="45.8560880" lon="5.7203940">
        <ele>239.6</ele>
        <time>2022-07-26T11:47:35Z</time>
      </trkpt>
      <trkpt lat="45.8560500" lon="5.7204550">
        <ele>239.6</ele>
        <time>2022-07-26T11:47:36Z</time>
      </trkpt>
      <trkpt lat="45.8560110" lon="5.7205090">
        <ele>239.6</ele>
        <time>2022-07-26T11:47:38Z</time>
      </trkpt>
      <trkpt lat="45.8559790" lon="5.7205430">
        <ele>239.6</ele>
        <time>2022-07-26T11:47:39Z</time>
      </trkpt>
      <trkpt lat="45.8559400" lon="5.7205950">
        <ele>239.6</ele>
        <time>2022-07-26T11:47:40Z</time>
      </trkpt>
      <trkpt lat="45.8559030" lon="5.7206460">
        <ele>239.6</ele>
        <time>2022-07-26T11:47:41Z</time>
      </trkpt>
      <trkpt lat="45.8558630" lon="5.7207130">
        <ele>239.6</ele>
        <time>2022-07-26T11:47:43Z</time>
      </trkpt>
      <trkpt lat="45.8558400" lon="5.7207570">
        <ele>239.6</ele>
        <time>2022-07-26T11:47:44Z</time>
      </trkpt>
      <trkpt lat="45.8558140" lon="5.7208110">
        <ele>239.6</ele>
        <time>2022-07-26T11:47:45Z</time>
      </trkpt>
      <trkpt lat="45.8557890" lon="5.7208580">
        <ele>239.6</ele>
        <time>2022-07-26T11:47:47Z</time>
      </trkpt>
      <trkpt lat="45.8557700" lon="5.7208960">
        <ele>239.6</ele>
        <time>2022-07-26T11:47:48Z</time>
      </trkpt>
      <trkpt lat="45.8557540" lon="5.7209420">
        <ele>239.6</ele>
        <time>2022-07-26T11:47:49Z</time>
      </trkpt>
      <trkpt lat="45.8557470" lon="5.7209620">
        <ele>239.6</ele>
        <time>2022-07-26T11:47:50Z</time>
      </trkpt>
      <trkpt lat="45.8557300" lon="5.7210170">
        <ele>239.6</ele>
        <time>2022-07-26T11:47:51Z</time>
      </trkpt>
      <trkpt lat="45.8557140" lon="5.7210820">
        <ele>239.7</ele>
        <time>2022-07-26T11:47:53Z</time>
      </trkpt>
      <trkpt lat="45.8557040" lon="5.7211210">
        <ele>239.7</ele>
        <time>2022-07-26T11:47:54Z</time>
      </trkpt>
      <trkpt lat="45.8556920" lon="5.7211680">
        <ele>239.7</ele>
        <time>2022-07-26T11:47:55Z</time>
      </trkpt>
      <trkpt lat="45.8556740" lon="5.7212320">
        <ele>239.7</ele>
        <time>2022-07-26T11:47:57Z</time>
      </trkpt>
      <trkpt lat="45.8556560" lon="5.7212770">
        <ele>239.8</ele>
        <time>2022-07-26T11:47:58Z</time>
      </trkpt>
      <trkpt lat="45.8556350" lon="5.7213130">
        <ele>239.8</ele>
        <time>2022-07-26T11:47:59Z</time>
      </trkpt>
      <trkpt lat="45.8556060" lon="5.7213460">
        <ele>239.9</ele>
        <time>2022-07-26T11:48:00Z</time>
      </trkpt>
      <trkpt lat="45.8555950" lon="5.7213550">
        <ele>239.9</ele>
        <time>2022-07-26T11:48:01Z</time>
      </trkpt>
      <trkpt lat="45.8555610" lon="5.7213930">
        <ele>239.9</ele>
        <time>2022-07-26T11:48:02Z</time>
      </trkpt>
      <trkpt lat="45.8555270" lon="5.7214340">
        <ele>239.8</ele>
        <time>2022-07-26T11:48:03Z</time>
      </trkpt>
      <trkpt lat="45.8554920" lon="5.7214780">
        <ele>239.7</ele>
        <time>2022-07-26T11:48:04Z</time>
      </trkpt>
      <trkpt lat="45.8554570" lon="5.7215400">
        <ele>239.5</ele>
        <time>2022-07-26T11:48:05Z</time>
      </trkpt>
      <trkpt lat="45.8554070" lon="5.7216690">
        <ele>239.2</ele>
        <time>2022-07-26T11:48:07Z</time>
      </trkpt>
      <trkpt lat="45.8553970" lon="5.7216990">
        <ele>239.1</ele>
        <time>2022-07-26T11:48:08Z</time>
      </trkpt>
      <trkpt lat="45.8553880" lon="5.7217660">
        <ele>238.9</ele>
        <time>2022-07-26T11:48:10Z</time>
      </trkpt>
      <trkpt lat="45.8553760" lon="5.7218300">
        <ele>238.8</ele>
        <time>2022-07-26T11:48:11Z</time>
      </trkpt>
      <trkpt lat="45.8553720" lon="5.7218820">
        <ele>238.7</ele>
        <time>2022-07-26T11:48:12Z</time>
      </trkpt>
      <trkpt lat="45.8553690" lon="5.7219660">
        <ele>238.6</ele>
        <time>2022-07-26T11:48:13Z</time>
      </trkpt>
      <trkpt lat="45.8553700" lon="5.7221260">
        <ele>238.5</ele>
        <time>2022-07-26T11:48:15Z</time>
      </trkpt>
      <trkpt lat="45.8553520" lon="5.7222130">
        <ele>238.4</ele>
        <time>2022-07-26T11:48:16Z</time>
      </trkpt>
      <trkpt lat="45.8553410" lon="5.7222750">
        <ele>238.4</ele>
        <time>2022-07-26T11:48:18Z</time>
      </trkpt>
      <trkpt lat="45.8553420" lon="5.7223300">
        <ele>238.3</ele>
        <time>2022-07-26T11:48:19Z</time>
      </trkpt>
      <trkpt lat="45.8553360" lon="5.7223990">
        <ele>238.3</ele>
        <time>2022-07-26T11:48:20Z</time>
      </trkpt>
      <trkpt lat="45.8553250" lon="5.7224700">
        <ele>238.2</ele>
        <time>2022-07-26T11:48:21Z</time>
      </trkpt>
      <trkpt lat="45.8553020" lon="5.7225350">
        <ele>238.2</ele>
        <time>2022-07-26T11:48:22Z</time>
      </trkpt>
      <trkpt lat="45.8552860" lon="5.7225900">
        <ele>238.2</ele>
        <time>2022-07-26T11:48:23Z</time>
      </trkpt>
      <trkpt lat="45.8552710" lon="5.7226460">
        <ele>238.1</ele>
        <time>2022-07-26T11:48:25Z</time>
      </trkpt>
      <trkpt lat="45.8552750" lon="5.7227000">
        <ele>238.1</ele>
        <time>2022-07-26T11:48:26Z</time>
      </trkpt>
      <trkpt lat="45.8552750" lon="5.7227590">
        <ele>238.1</ele>
        <time>2022-07-26T11:48:27Z</time>
      </trkpt>
      <trkpt lat="45.8552620" lon="5.7228090">
        <ele>238.0</ele>
        <time>2022-07-26T11:48:28Z</time>
      </trkpt>
      <trkpt lat="45.8552390" lon="5.7228700">
        <ele>238.0</ele>
        <time>2022-07-26T11:48:29Z</time>
      </trkpt>
      <trkpt lat="45.8552130" lon="5.7229330">
        <ele>238.0</ele>
        <time>2022-07-26T11:48:31Z</time>
      </trkpt>
      <trkpt lat="45.8551940" lon="5.7229750">
        <ele>238.0</ele>
        <time>2022-07-26T11:48:32Z</time>
      </trkpt>
      <trkpt lat="45.8551620" lon="5.7230260">
        <ele>238.0</ele>
        <time>2022-07-26T11:48:33Z</time>
      </trkpt>
      <trkpt lat="45.8551260" lon="5.7230690">
        <ele>238.0</ele>
        <time>2022-07-26T11:48:35Z</time>
      </trkpt>
      <trkpt lat="45.8550920" lon="5.7231050">
        <ele>238.0</ele>
        <time>2022-07-26T11:48:36Z</time>
      </trkpt>
      <trkpt lat="45.8550620" lon="5.7231310">
        <ele>238.0</ele>
        <time>2022-07-26T11:48:37Z</time>
      </trkpt>
      <trkpt lat="45.8550330" lon="5.7231540">
        <ele>238.0</ele>
        <time>2022-07-26T11:48:38Z</time>
      </trkpt>
      <trkpt lat="45.8549820" lon="5.7231820">
        <ele>238.0</ele>
        <time>2022-07-26T11:48:39Z</time>
      </trkpt>
      <trkpt lat="45.8549530" lon="5.7232060">
        <ele>238.0</ele>
        <time>2022-07-26T11:48:40Z</time>
      </trkpt>
      <trkpt lat="45.8549240" lon="5.7232380">
        <ele>238.0</ele>
        <time>2022-07-26T11:48:42Z</time>
      </trkpt>
      <trkpt lat="45.8549040" lon="5.7232740">
        <ele>238.0</ele>
        <time>2022-07-26T11:48:43Z</time>
      </trkpt>
      <trkpt lat="45.8548910" lon="5.7233160">
        <ele>238.0</ele>
        <time>2022-07-26T11:48:44Z</time>
      </trkpt>
      <trkpt lat="45.8548800" lon="5.7233950">
        <ele>237.9</ele>
        <time>2022-07-26T11:48:45Z</time>
      </trkpt>
      <trkpt lat="45.8548760" lon="5.7234650">
        <ele>238.0</ele>
        <time>2022-07-26T11:48:47Z</time>
      </trkpt>
      <trkpt lat="45.8548710" lon="5.7235390">
        <ele>238.1</ele>
        <time>2022-07-26T11:48:48Z</time>
      </trkpt>
      <trkpt lat="45.8548700" lon="5.7236080">
        <ele>238.1</ele>
        <time>2022-07-26T11:48:49Z</time>
      </trkpt>
      <trkpt lat="45.8548760" lon="5.7236640">
        <ele>238.2</ele>
        <time>2022-07-26T11:48:50Z</time>
      </trkpt>
      <trkpt lat="45.8548960" lon="5.7237550">
        <ele>238.2</ele>
        <time>2022-07-26T11:48:52Z</time>
      </trkpt>
      <trkpt lat="45.8549060" lon="5.7238300">
        <ele>238.3</ele>
        <time>2022-07-26T11:48:53Z</time>
      </trkpt>
      <trkpt lat="45.8549130" lon="5.7238840">
        <ele>238.3</ele>
        <time>2022-07-26T11:48:54Z</time>
      </trkpt>
      <trkpt lat="45.8549150" lon="5.7239590">
        <ele>238.4</ele>
        <time>2022-07-26T11:48:55Z</time>
      </trkpt>
      <trkpt lat="45.8549150" lon="5.7240000">
        <ele>238.4</ele>
        <time>2022-07-26T11:48:56Z</time>
      </trkpt>
      <trkpt lat="45.8549170" lon="5.7240500">
        <ele>238.5</ele>
        <time>2022-07-26T11:48:57Z</time>
      </trkpt>
      <trkpt lat="45.8549240" lon="5.7241090">
        <ele>238.5</ele>
        <time>2022-07-26T11:48:58Z</time>
      </trkpt>
      <trkpt lat="45.8549320" lon="5.7241690">
        <ele>238.6</ele>
        <time>2022-07-26T11:48:59Z</time>
      </trkpt>
      <trkpt lat="45.8549450" lon="5.7242250">
        <ele>238.6</ele>
        <time>2022-07-26T11:49:00Z</time>
      </trkpt>
      <trkpt lat="45.8549570" lon="5.7242750">
        <ele>238.7</ele>
        <time>2022-07-26T11:49:01Z</time>
      </trkpt>
      <trkpt lat="45.8549710" lon="5.7243270">
        <ele>238.8</ele>
        <time>2022-07-26T11:49:02Z</time>
      </trkpt>
      <trkpt lat="45.8549810" lon="5.7243860">
        <ele>238.9</ele>
        <time>2022-07-26T11:49:03Z</time>
      </trkpt>
      <trkpt lat="45.8549830" lon="5.7244370">
        <ele>238.9</ele>
        <time>2022-07-26T11:49:04Z</time>
      </trkpt>
      <trkpt lat="45.8549820" lon="5.7244740">
        <ele>239.0</ele>
        <time>2022-07-26T11:49:05Z</time>
      </trkpt>
      <trkpt lat="45.8549600" lon="5.7245490">
        <ele>239.1</ele>
        <time>2022-07-26T11:49:07Z</time>
      </trkpt>
      <trkpt lat="45.8549350" lon="5.7246090">
        <ele>239.2</ele>
        <time>2022-07-26T11:49:08Z</time>
      </trkpt>
      <trkpt lat="45.8549140" lon="5.7246490">
        <ele>239.2</ele>
        <time>2022-07-26T11:49:09Z</time>
      </trkpt>
      <trkpt lat="45.8548890" lon="5.7246880">
        <ele>239.2</ele>
        <time>2022-07-26T11:49:10Z</time>
      </trkpt>
      <trkpt lat="45.8548650" lon="5.7247200">
        <ele>239.1</ele>
        <time>2022-07-26T11:49:11Z</time>
      </trkpt>
      <trkpt lat="45.8548250" lon="5.7247730">
        <ele>239.0</ele>
        <time>2022-07-26T11:49:12Z</time>
      </trkpt>
      <trkpt lat="45.8547910" lon="5.7248160">
        <ele>238.9</ele>
        <time>2022-07-26T11:49:14Z</time>
      </trkpt>
      <trkpt lat="45.8547640" lon="5.7248530">
        <ele>238.8</ele>
        <time>2022-07-26T11:49:15Z</time>
      </trkpt>
      <trkpt lat="45.8547380" lon="5.7248910">
        <ele>238.7</ele>
        <time>2022-07-26T11:49:16Z</time>
      </trkpt>
      <trkpt lat="45.8546920" lon="5.7249550">
        <ele>238.6</ele>
        <time>2022-07-26T11:49:18Z</time>
      </trkpt>
      <trkpt lat="45.8546730" lon="5.7250040">
        <ele>238.5</ele>
        <time>2022-07-26T11:49:19Z</time>
      </trkpt>
      <trkpt lat="45.8546680" lon="5.7250200">
        <ele>238.5</ele>
        <time>2022-07-26T11:49:20Z</time>
      </trkpt>
      <trkpt lat="45.8546540" lon="5.7250630">
        <ele>238.4</ele>
        <time>2022-07-26T11:49:21Z</time>
      </trkpt>
      <trkpt lat="45.8546440" lon="5.7251050">
        <ele>238.3</ele>
        <time>2022-07-26T11:49:22Z</time>
      </trkpt>
      <trkpt lat="45.8546410" lon="5.7251170">
        <ele>238.3</ele>
        <time>2022-07-26T11:49:23Z</time>
      </trkpt>
      <trkpt lat="45.8546250" lon="5.7251820">
        <ele>238.2</ele>
        <time>2022-07-26T11:49:25Z</time>
      </trkpt>
      <trkpt lat="45.8546190" lon="5.7252060">
        <ele>238.1</ele>
        <time>2022-07-26T11:49:26Z</time>
      </trkpt>
      <trkpt lat="45.8546130" lon="5.7252310">
        <ele>238.1</ele>
        <time>2022-07-26T11:49:27Z</time>
      </trkpt>
      <trkpt lat="45.8546020" lon="5.7252840">
        <ele>238.0</ele>
        <time>2022-07-26T11:49:28Z</time>
      </trkpt>
      <trkpt lat="45.8545920" lon="5.7253320">
        <ele>237.9</ele>
        <time>2022-07-26T11:49:30Z</time>
      </trkpt>
      <trkpt lat="45.8545750" lon="5.7253770">
        <ele>237.8</ele>
        <time>2022-07-26T11:49:31Z</time>
      </trkpt>
      <trkpt lat="45.8545630" lon="5.7254190">
        <ele>237.8</ele>
        <time>2022-07-26T11:49:32Z</time>
      </trkpt>
      <trkpt lat="45.8545280" lon="5.7254660">
        <ele>237.7</ele>
        <time>2022-07-26T11:49:33Z</time>
      </trkpt>
      <trkpt lat="45.8544900" lon="5.7254950">
        <ele>237.6</ele>
        <time>2022-07-26T11:49:35Z</time>
      </trkpt>
      <trkpt lat="45.8544610" lon="5.7255260">
        <ele>237.5</ele>
        <time>2022-07-26T11:49:36Z</time>
      </trkpt>
      <trkpt lat="45.8544250" lon="5.7255760">
        <ele>237.4</ele>
        <time>2022-07-26T11:49:37Z</time>
      </trkpt>
      <trkpt lat="45.8543900" lon="5.7256340">
        <ele>237.2</ele>
        <time>2022-07-26T11:49:38Z</time>
      </trkpt>
      <trkpt lat="45.8543420" lon="5.7257800">
        <ele>236.9</ele>
        <time>2022-07-26T11:49:39Z</time>
      </trkpt>
      <trkpt lat="45.8543170" lon="5.7258350">
        <ele>236.8</ele>
        <time>2022-07-26T11:49:40Z</time>
      </trkpt>
      <trkpt lat="45.8542960" lon="5.7258660">
        <ele>236.7</ele>
        <time>2022-07-26T11:49:41Z</time>
      </trkpt>
      <trkpt lat="45.8542610" lon="5.7259460">
        <ele>236.5</ele>
        <time>2022-07-26T11:49:43Z</time>
      </trkpt>
      <trkpt lat="45.8542230" lon="5.7259800">
        <ele>236.4</ele>
        <time>2022-07-26T11:49:44Z</time>
      </trkpt>
      <trkpt lat="45.8542050" lon="5.7260090">
        <ele>236.3</ele>
        <time>2022-07-26T11:49:45Z</time>
      </trkpt>
      <trkpt lat="45.8541780" lon="5.7260470">
        <ele>236.2</ele>
        <time>2022-07-26T11:49:46Z</time>
      </trkpt>
      <trkpt lat="45.8541680" lon="5.7260580">
        <ele>236.1</ele>
        <time>2022-07-26T11:49:47Z</time>
      </trkpt>
      <trkpt lat="45.8541310" lon="5.7260890">
        <ele>236.0</ele>
        <time>2022-07-26T11:49:48Z</time>
      </trkpt>
      <trkpt lat="45.8541180" lon="5.7261050">
        <ele>236.0</ele>
        <time>2022-07-26T11:49:49Z</time>
      </trkpt>
      <trkpt lat="45.8540930" lon="5.7261400">
        <ele>235.9</ele>
        <time>2022-07-26T11:49:50Z</time>
      </trkpt>
      <trkpt lat="45.8540680" lon="5.7261570">
        <ele>235.9</ele>
        <time>2022-07-26T11:49:51Z</time>
      </trkpt>
      <trkpt lat="45.8540310" lon="5.7261830">
        <ele>235.9</ele>
        <time>2022-07-26T11:49:52Z</time>
      </trkpt>
      <trkpt lat="45.8540060" lon="5.7262040">
        <ele>235.9</ele>
        <time>2022-07-26T11:49:53Z</time>
      </trkpt>
      <trkpt lat="45.8539770" lon="5.7262390">
        <ele>235.9</ele>
        <time>2022-07-26T11:49:54Z</time>
      </trkpt>
      <trkpt lat="45.8539670" lon="5.7262500">
        <ele>235.8</ele>
        <time>2022-07-26T11:49:55Z</time>
      </trkpt>
      <trkpt lat="45.8539490" lon="5.7262680">
        <ele>235.8</ele>
        <time>2022-07-26T11:49:56Z</time>
      </trkpt>
      <trkpt lat="45.8539320" lon="5.7262970">
        <ele>235.8</ele>
        <time>2022-07-26T11:49:58Z</time>
      </trkpt>
      <trkpt lat="45.8539170" lon="5.7263370">
        <ele>235.8</ele>
        <time>2022-07-26T11:49:59Z</time>
      </trkpt>
      <trkpt lat="45.8539040" lon="5.7263790">
        <ele>235.8</ele>
        <time>2022-07-26T11:50:00Z</time>
      </trkpt>
      <trkpt lat="45.8538880" lon="5.7264210">
        <ele>235.8</ele>
        <time>2022-07-26T11:50:01Z</time>
      </trkpt>
      <trkpt lat="45.8538700" lon="5.7264660">
        <ele>235.8</ele>
        <time>2022-07-26T11:50:02Z</time>
      </trkpt>
      <trkpt lat="45.8538530" lon="5.7265100">
        <ele>235.8</ele>
        <time>2022-07-26T11:50:03Z</time>
      </trkpt>
      <trkpt lat="45.8538330" lon="5.7265590">
        <ele>235.8</ele>
        <time>2022-07-26T11:50:04Z</time>
      </trkpt>
      <trkpt lat="45.8538080" lon="5.7265990">
        <ele>235.8</ele>
        <time>2022-07-26T11:50:05Z</time>
      </trkpt>
      <trkpt lat="45.8537800" lon="5.7266470">
        <ele>235.7</ele>
        <time>2022-07-26T11:50:07Z</time>
      </trkpt>
      <trkpt lat="45.8537560" lon="5.7266940">
        <ele>235.7</ele>
        <time>2022-07-26T11:50:08Z</time>
      </trkpt>
      <trkpt lat="45.8537340" lon="5.7267470">
        <ele>235.7</ele>
        <time>2022-07-26T11:50:09Z</time>
      </trkpt>
      <trkpt lat="45.8537050" lon="5.7268000">
        <ele>235.7</ele>
        <time>2022-07-26T11:50:10Z</time>
      </trkpt>
      <trkpt lat="45.8536780" lon="5.7268520">
        <ele>235.7</ele>
        <time>2022-07-26T11:50:12Z</time>
      </trkpt>
      <trkpt lat="45.8536660" lon="5.7268720">
        <ele>235.7</ele>
        <time>2022-07-26T11:50:13Z</time>
      </trkpt>
      <trkpt lat="45.8536540" lon="5.7268910">
        <ele>235.7</ele>
        <time>2022-07-26T11:50:14Z</time>
      </trkpt>
      <trkpt lat="45.8536230" lon="5.7269340">
        <ele>235.7</ele>
        <time>2022-07-26T11:50:15Z</time>
      </trkpt>
      <trkpt lat="45.8535920" lon="5.7269830">
        <ele>235.8</ele>
        <time>2022-07-26T11:50:17Z</time>
      </trkpt>
      <trkpt lat="45.8535720" lon="5.7270200">
        <ele>235.8</ele>
        <time>2022-07-26T11:50:18Z</time>
      </trkpt>
      <trkpt lat="45.8535550" lon="5.7270720">
        <ele>235.8</ele>
        <time>2022-07-26T11:50:19Z</time>
      </trkpt>
      <trkpt lat="45.8535500" lon="5.7270910">
        <ele>235.8</ele>
        <time>2022-07-26T11:50:20Z</time>
      </trkpt>
      <trkpt lat="45.8535170" lon="5.7271550">
        <ele>235.8</ele>
        <time>2022-07-26T11:50:22Z</time>
      </trkpt>
      <trkpt lat="45.8535070" lon="5.7271730">
        <ele>235.8</ele>
        <time>2022-07-26T11:50:23Z</time>
      </trkpt>
      <trkpt lat="45.8534990" lon="5.7271860">
        <ele>235.8</ele>
        <time>2022-07-26T11:50:24Z</time>
      </trkpt>
      <trkpt lat="45.8534750" lon="5.7272410">
        <ele>235.7</ele>
        <time>2022-07-26T11:50:25Z</time>
      </trkpt>
      <trkpt lat="45.8534440" lon="5.7273140">
        <ele>235.7</ele>
        <time>2022-07-26T11:50:27Z</time>
      </trkpt>
      <trkpt lat="45.8534250" lon="5.7273600">
        <ele>235.7</ele>
        <time>2022-07-26T11:50:28Z</time>
      </trkpt>
      <trkpt lat="45.8534070" lon="5.7273990">
        <ele>235.6</ele>
        <time>2022-07-26T11:50:29Z</time>
      </trkpt>
      <trkpt lat="45.8533900" lon="5.7274300">
        <ele>235.6</ele>
        <time>2022-07-26T11:50:30Z</time>
      </trkpt>
      <trkpt lat="45.8533680" lon="5.7274620">
        <ele>235.6</ele>
        <time>2022-07-26T11:50:31Z</time>
      </trkpt>
      <trkpt lat="45.8533470" lon="5.7274920">
        <ele>235.6</ele>
        <time>2022-07-26T11:50:32Z</time>
      </trkpt>
      <trkpt lat="45.8533210" lon="5.7275150">
        <ele>235.5</ele>
        <time>2022-07-26T11:50:33Z</time>
      </trkpt>
      <trkpt lat="45.8532860" lon="5.7275380">
        <ele>235.5</ele>
        <time>2022-07-26T11:50:34Z</time>
      </trkpt>
      <trkpt lat="45.8532560" lon="5.7275540">
        <ele>235.5</ele>
        <time>2022-07-26T11:50:35Z</time>
      </trkpt>
      <trkpt lat="45.8532300" lon="5.7275670">
        <ele>235.5</ele>
        <time>2022-07-26T11:50:36Z</time>
      </trkpt>
      <trkpt lat="45.8531890" lon="5.7275860">
        <ele>235.4</ele>
        <time>2022-07-26T11:50:37Z</time>
      </trkpt>
      <trkpt lat="45.8531510" lon="5.7276000">
        <ele>235.4</ele>
        <time>2022-07-26T11:50:38Z</time>
      </trkpt>
      <trkpt lat="45.8531180" lon="5.7276170">
        <ele>235.4</ele>
        <time>2022-07-26T11:50:39Z</time>
      </trkpt>
      <trkpt lat="45.8530900" lon="5.7276400">
        <ele>235.4</ele>
        <time>2022-07-26T11:50:40Z</time>
      </trkpt>
      <trkpt lat="45.8530650" lon="5.7276660">
        <ele>235.4</ele>
        <time>2022-07-26T11:50:41Z</time>
      </trkpt>
      <trkpt lat="45.8530430" lon="5.7276930">
        <ele>235.3</ele>
        <time>2022-07-26T11:50:42Z</time>
      </trkpt>
      <trkpt lat="45.8530120" lon="5.7277300">
        <ele>235.3</ele>
        <time>2022-07-26T11:50:44Z</time>
      </trkpt>
      <trkpt lat="45.8529840" lon="5.7277770">
        <ele>235.3</ele>
        <time>2022-07-26T11:50:45Z</time>
      </trkpt>
      <trkpt lat="45.8529500" lon="5.7278490">
        <ele>235.2</ele>
        <time>2022-07-26T11:50:47Z</time>
      </trkpt>
      <trkpt lat="45.8529260" lon="5.7278990">
        <ele>235.2</ele>
        <time>2022-07-26T11:50:48Z</time>
      </trkpt>
      <trkpt lat="45.8529050" lon="5.7279280">
        <ele>235.1</ele>
        <time>2022-07-26T11:50:49Z</time>
      </trkpt>
      <trkpt lat="45.8528760" lon="5.7279730">
        <ele>235.1</ele>
        <time>2022-07-26T11:50:50Z</time>
      </trkpt>
      <trkpt lat="45.8528600" lon="5.7279950">
        <ele>235.1</ele>
        <time>2022-07-26T11:50:51Z</time>
      </trkpt>
      <trkpt lat="45.8528310" lon="5.7280410">
        <ele>235.1</ele>
        <time>2022-07-26T11:50:53Z</time>
      </trkpt>
      <trkpt lat="45.8528070" lon="5.7280920">
        <ele>235.1</ele>
        <time>2022-07-26T11:50:54Z</time>
      </trkpt>
      <trkpt lat="45.8527830" lon="5.7281400">
        <ele>235.1</ele>
        <time>2022-07-26T11:50:55Z</time>
      </trkpt>
      <trkpt lat="45.8527650" lon="5.7281790">
        <ele>235.0</ele>
        <time>2022-07-26T11:50:56Z</time>
      </trkpt>
      <trkpt lat="45.8527410" lon="5.7282210">
        <ele>235.0</ele>
        <time>2022-07-26T11:50:57Z</time>
      </trkpt>
      <trkpt lat="45.8527340" lon="5.7282330">
        <ele>235.0</ele>
        <time>2022-07-26T11:50:58Z</time>
      </trkpt>
      <trkpt lat="45.8527110" lon="5.7282580">
        <ele>235.0</ele>
        <time>2022-07-26T11:50:59Z</time>
      </trkpt>
      <trkpt lat="45.8526880" lon="5.7282820">
        <ele>235.0</ele>
        <time>2022-07-26T11:51:00Z</time>
      </trkpt>
      <trkpt lat="45.8526590" lon="5.7283020">
        <ele>235.0</ele>
        <time>2022-07-26T11:51:01Z</time>
      </trkpt>
      <trkpt lat="45.8526250" lon="5.7283170">
        <ele>235.0</ele>
        <time>2022-07-26T11:51:02Z</time>
      </trkpt>
      <trkpt lat="45.8525810" lon="5.7283270">
        <ele>235.0</ele>
        <time>2022-07-26T11:51:03Z</time>
      </trkpt>
      <trkpt lat="45.8525470" lon="5.7283380">
        <ele>235.0</ele>
        <time>2022-07-26T11:51:04Z</time>
      </trkpt>
      <trkpt lat="45.8524940" lon="5.7283500">
        <ele>235.0</ele>
        <time>2022-07-26T11:51:06Z</time>
      </trkpt>
      <trkpt lat="45.8524580" lon="5.7283580">
        <ele>235.0</ele>
        <time>2022-07-26T11:51:07Z</time>
      </trkpt>
      <trkpt lat="45.8524200" lon="5.7283710">
        <ele>235.0</ele>
        <time>2022-07-26T11:51:08Z</time>
      </trkpt>
      <trkpt lat="45.8523800" lon="5.7283830">
        <ele>235.0</ele>
        <time>2022-07-26T11:51:10Z</time>
      </trkpt>
      <trkpt lat="45.8523370" lon="5.7283970">
        <ele>235.0</ele>
        <time>2022-07-26T11:51:11Z</time>
      </trkpt>
      <trkpt lat="45.8523010" lon="5.7284150">
        <ele>235.0</ele>
        <time>2022-07-26T11:51:12Z</time>
      </trkpt>
      <trkpt lat="45.8522270" lon="5.7284630">
        <ele>235.0</ele>
        <time>2022-07-26T11:51:14Z</time>
      </trkpt>
      <trkpt lat="45.8521960" lon="5.7284920">
        <ele>235.0</ele>
        <time>2022-07-26T11:51:15Z</time>
      </trkpt>
      <trkpt lat="45.8521690" lon="5.7285120">
        <ele>235.0</ele>
        <time>2022-07-26T11:51:16Z</time>
      </trkpt>
      <trkpt lat="45.8521430" lon="5.7285370">
        <ele>235.0</ele>
        <time>2022-07-26T11:51:17Z</time>
      </trkpt>
      <trkpt lat="45.8520990" lon="5.7285660">
        <ele>235.0</ele>
        <time>2022-07-26T11:51:18Z</time>
      </trkpt>
      <trkpt lat="45.8520570" lon="5.7285900">
        <ele>235.0</ele>
        <time>2022-07-26T11:51:19Z</time>
      </trkpt>
      <trkpt lat="45.8520200" lon="5.7286100">
        <ele>235.0</ele>
        <time>2022-07-26T11:51:20Z</time>
      </trkpt>
      <trkpt lat="45.8519740" lon="5.7286360">
        <ele>235.0</ele>
        <time>2022-07-26T11:51:22Z</time>
      </trkpt>
      <trkpt lat="45.8519320" lon="5.7286660">
        <ele>235.1</ele>
        <time>2022-07-26T11:51:23Z</time>
      </trkpt>
      <trkpt lat="45.8518940" lon="5.7286990">
        <ele>235.1</ele>
        <time>2022-07-26T11:51:24Z</time>
      </trkpt>
      <trkpt lat="45.8518750" lon="5.7287210">
        <ele>235.1</ele>
        <time>2022-07-26T11:51:25Z</time>
      </trkpt>
      <trkpt lat="45.8518470" lon="5.7287450">
        <ele>235.2</ele>
        <time>2022-07-26T11:51:27Z</time>
      </trkpt>
      <trkpt lat="45.8518210" lon="5.7287620">
        <ele>235.2</ele>
        <time>2022-07-26T11:51:28Z</time>
      </trkpt>
      <trkpt lat="45.8517940" lon="5.7287780">
        <ele>235.2</ele>
        <time>2022-07-26T11:51:29Z</time>
      </trkpt>
      <trkpt lat="45.8517630" lon="5.7287970">
        <ele>235.3</ele>
        <time>2022-07-26T11:51:30Z</time>
      </trkpt>
      <trkpt lat="45.8517340" lon="5.7288150">
        <ele>235.3</ele>
        <time>2022-07-26T11:51:31Z</time>
      </trkpt>
      <trkpt lat="45.8517060" lon="5.7288400">
        <ele>235.3</ele>
        <time>2022-07-26T11:51:32Z</time>
      </trkpt>
      <trkpt lat="45.8516770" lon="5.7288600">
        <ele>235.3</ele>
        <time>2022-07-26T11:51:33Z</time>
      </trkpt>
      <trkpt lat="45.8516460" lon="5.7288760">
        <ele>235.3</ele>
        <time>2022-07-26T11:51:34Z</time>
      </trkpt>
      <trkpt lat="45.8516120" lon="5.7288790">
        <ele>235.4</ele>
        <time>2022-07-26T11:51:35Z</time>
      </trkpt>
      <trkpt lat="45.8515700" lon="5.7288940">
        <ele>235.4</ele>
        <time>2022-07-26T11:51:37Z</time>
      </trkpt>
      <trkpt lat="45.8515260" lon="5.7289240">
        <ele>235.4</ele>
        <time>2022-07-26T11:51:38Z</time>
      </trkpt>
      <trkpt lat="45.8514800" lon="5.7289640">
        <ele>235.4</ele>
        <time>2022-07-26T11:51:40Z</time>
      </trkpt>
      <trkpt lat="45.8514430" lon="5.7290000">
        <ele>235.4</ele>
        <time>2022-07-26T11:51:41Z</time>
      </trkpt>
      <trkpt lat="45.8514130" lon="5.7290290">
        <ele>235.4</ele>
        <time>2022-07-26T11:51:42Z</time>
      </trkpt>
      <trkpt lat="45.8513750" lon="5.7290730">
        <ele>235.4</ele>
        <time>2022-07-26T11:51:43Z</time>
      </trkpt>
      <trkpt lat="45.8513280" lon="5.7291150">
        <ele>235.4</ele>
        <time>2022-07-26T11:51:45Z</time>
      </trkpt>
      <trkpt lat="45.8512890" lon="5.7291530">
        <ele>235.4</ele>
        <time>2022-07-26T11:51:46Z</time>
      </trkpt>
      <trkpt lat="45.8512530" lon="5.7291870">
        <ele>235.4</ele>
        <time>2022-07-26T11:51:47Z</time>
      </trkpt>
      <trkpt lat="45.8511930" lon="5.7292390">
        <ele>235.4</ele>
        <time>2022-07-26T11:51:49Z</time>
      </trkpt>
      <trkpt lat="45.8511510" lon="5.7292810">
        <ele>235.4</ele>
        <time>2022-07-26T11:51:50Z</time>
      </trkpt>
      <trkpt lat="45.8511110" lon="5.7293180">
        <ele>235.4</ele>
        <time>2022-07-26T11:51:52Z</time>
      </trkpt>
      <trkpt lat="45.8510660" lon="5.7293500">
        <ele>235.4</ele>
        <time>2022-07-26T11:51:53Z</time>
      </trkpt>
      <trkpt lat="45.8510360" lon="5.7293720">
        <ele>235.4</ele>
        <time>2022-07-26T11:51:54Z</time>
      </trkpt>
      <trkpt lat="45.8510090" lon="5.7293910">
        <ele>235.4</ele>
        <time>2022-07-26T11:51:55Z</time>
      </trkpt>
      <trkpt lat="45.8509580" lon="5.7294280">
        <ele>235.4</ele>
        <time>2022-07-26T11:51:56Z</time>
      </trkpt>
      <trkpt lat="45.8508850" lon="5.7294970">
        <ele>235.3</ele>
        <time>2022-07-26T11:51:58Z</time>
      </trkpt>
      <trkpt lat="45.8508530" lon="5.7295190">
        <ele>235.3</ele>
        <time>2022-07-26T11:51:59Z</time>
      </trkpt>
      <trkpt lat="45.8508080" lon="5.7295550">
        <ele>235.3</ele>
        <time>2022-07-26T11:52:00Z</time>
      </trkpt>
      <trkpt lat="45.8507710" lon="5.7295870">
        <ele>235.3</ele>
        <time>2022-07-26T11:52:01Z</time>
      </trkpt>
      <trkpt lat="45.8507230" lon="5.7296230">
        <ele>235.3</ele>
        <time>2022-07-26T11:52:03Z</time>
      </trkpt>
      <trkpt lat="45.8506730" lon="5.7296520">
        <ele>235.3</ele>
        <time>2022-07-26T11:52:04Z</time>
      </trkpt>
      <trkpt lat="45.8506300" lon="5.7296730">
        <ele>235.3</ele>
        <time>2022-07-26T11:52:05Z</time>
      </trkpt>
      <trkpt lat="45.8506020" lon="5.7297160">
        <ele>235.3</ele>
        <time>2022-07-26T11:52:06Z</time>
      </trkpt>
      <trkpt lat="45.8505870" lon="5.7297340">
        <ele>235.3</ele>
        <time>2022-07-26T11:52:07Z</time>
      </trkpt>
      <trkpt lat="45.8505580" lon="5.7297670">
        <ele>235.3</ele>
        <time>2022-07-26T11:52:08Z</time>
      </trkpt>
      <trkpt lat="45.8505240" lon="5.7297930">
        <ele>235.3</ele>
        <time>2022-07-26T11:52:10Z</time>
      </trkpt>
      <trkpt lat="45.8504930" lon="5.7298190">
        <ele>235.3</ele>
        <time>2022-07-26T11:52:11Z</time>
      </trkpt>
      <trkpt lat="45.8504600" lon="5.7298500">
        <ele>235.3</ele>
        <time>2022-07-26T11:52:12Z</time>
      </trkpt>
      <trkpt lat="45.8504290" lon="5.7298790">
        <ele>235.3</ele>
        <time>2022-07-26T11:52:13Z</time>
      </trkpt>
      <trkpt lat="45.8503990" lon="5.7299110">
        <ele>235.3</ele>
        <time>2022-07-26T11:52:14Z</time>
      </trkpt>
      <trkpt lat="45.8503710" lon="5.7299400">
        <ele>235.3</ele>
        <time>2022-07-26T11:52:15Z</time>
      </trkpt>
      <trkpt lat="45.8503320" lon="5.7299810">
        <ele>235.3</ele>
        <time>2022-07-26T11:52:16Z</time>
      </trkpt>
      <trkpt lat="45.8503010" lon="5.7300140">
        <ele>235.3</ele>
        <time>2022-07-26T11:52:17Z</time>
      </trkpt>
      <trkpt lat="45.8502670" lon="5.7300490">
        <ele>235.3</ele>
        <time>2022-07-26T11:52:18Z</time>
      </trkpt>
      <trkpt lat="45.8502280" lon="5.7300860">
        <ele>235.3</ele>
        <time>2022-07-26T11:52:20Z</time>
      </trkpt>
      <trkpt lat="45.8501990" lon="5.7301170">
        <ele>235.3</ele>
        <time>2022-07-26T11:52:21Z</time>
      </trkpt>
      <trkpt lat="45.8501500" lon="5.7301610">
        <ele>235.3</ele>
        <time>2022-07-26T11:52:22Z</time>
      </trkpt>
      <trkpt lat="45.8501120" lon="5.7302030">
        <ele>235.3</ele>
        <time>2022-07-26T11:52:24Z</time>
      </trkpt>
      <trkpt lat="45.8500810" lon="5.7302390">
        <ele>235.4</ele>
        <time>2022-07-26T11:52:25Z</time>
      </trkpt>
      <trkpt lat="45.8500540" lon="5.7302640">
        <ele>235.4</ele>
        <time>2022-07-26T11:52:26Z</time>
      </trkpt>
      <trkpt lat="45.8499980" lon="5.7303260">
        <ele>235.5</ele>
        <time>2022-07-26T11:52:28Z</time>
      </trkpt>
      <trkpt lat="45.8499640" lon="5.7303600">
        <ele>235.5</ele>
        <time>2022-07-26T11:52:29Z</time>
      </trkpt>
      <trkpt lat="45.8499390" lon="5.7303880">
        <ele>235.5</ele>
        <time>2022-07-26T11:52:30Z</time>
      </trkpt>
      <trkpt lat="45.8499010" lon="5.7304280">
        <ele>235.5</ele>
        <time>2022-07-26T11:52:31Z</time>
      </trkpt>
      <trkpt lat="45.8498700" lon="5.7304650">
        <ele>235.5</ele>
        <time>2022-07-26T11:52:32Z</time>
      </trkpt>
      <trkpt lat="45.8498350" lon="5.7305090">
        <ele>235.4</ele>
        <time>2022-07-26T11:52:33Z</time>
      </trkpt>
      <trkpt lat="45.8497920" lon="5.7305550">
        <ele>235.4</ele>
        <time>2022-07-26T11:52:35Z</time>
      </trkpt>
      <trkpt lat="45.8497530" lon="5.7305930">
        <ele>235.4</ele>
        <time>2022-07-26T11:52:36Z</time>
      </trkpt>
      <trkpt lat="45.8497110" lon="5.7306370">
        <ele>235.3</ele>
        <time>2022-07-26T11:52:37Z</time>
      </trkpt>
      <trkpt lat="45.8496640" lon="5.7306860">
        <ele>235.3</ele>
        <time>2022-07-26T11:52:39Z</time>
      </trkpt>
      <trkpt lat="45.8496330" lon="5.7307190">
        <ele>235.3</ele>
        <time>2022-07-26T11:52:40Z</time>
      </trkpt>
      <trkpt lat="45.8496050" lon="5.7307460">
        <ele>235.3</ele>
        <time>2022-07-26T11:52:41Z</time>
      </trkpt>
      <trkpt lat="45.8495780" lon="5.7307740">
        <ele>235.2</ele>
        <time>2022-07-26T11:52:42Z</time>
      </trkpt>
      <trkpt lat="45.8495290" lon="5.7308250">
        <ele>235.2</ele>
        <time>2022-07-26T11:52:44Z</time>
      </trkpt>
      <trkpt lat="45.8494990" lon="5.7308460">
        <ele>235.2</ele>
        <time>2022-07-26T11:52:45Z</time>
      </trkpt>
      <trkpt lat="45.8494710" lon="5.7308850">
        <ele>235.2</ele>
        <time>2022-07-26T11:52:46Z</time>
      </trkpt>
      <trkpt lat="45.8494590" lon="5.7308990">
        <ele>235.2</ele>
        <time>2022-07-26T11:52:47Z</time>
      </trkpt>
      <trkpt lat="45.8494310" lon="5.7309320">
        <ele>235.3</ele>
        <time>2022-07-26T11:52:48Z</time>
      </trkpt>
      <trkpt lat="45.8493980" lon="5.7309680">
        <ele>235.3</ele>
        <time>2022-07-26T11:52:49Z</time>
      </trkpt>
      <trkpt lat="45.8493560" lon="5.7310260">
        <ele>235.3</ele>
        <time>2022-07-26T11:52:51Z</time>
      </trkpt>
      <trkpt lat="45.8493250" lon="5.7310660">
        <ele>235.4</ele>
        <time>2022-07-26T11:52:52Z</time>
      </trkpt>
      <trkpt lat="45.8492780" lon="5.7311160">
        <ele>235.4</ele>
        <time>2022-07-26T11:52:54Z</time>
      </trkpt>
      <trkpt lat="45.8492390" lon="5.7311550">
        <ele>235.4</ele>
        <time>2022-07-26T11:52:55Z</time>
      </trkpt>
      <trkpt lat="45.8492100" lon="5.7311900">
        <ele>235.4</ele>
        <time>2022-07-26T11:52:56Z</time>
      </trkpt>
      <trkpt lat="45.8491800" lon="5.7312200">
        <ele>235.3</ele>
        <time>2022-07-26T11:52:57Z</time>
      </trkpt>
      <trkpt lat="45.8491440" lon="5.7312560">
        <ele>235.3</ele>
        <time>2022-07-26T11:52:58Z</time>
      </trkpt>
      <trkpt lat="45.8491100" lon="5.7312920">
        <ele>235.3</ele>
        <time>2022-07-26T11:52:59Z</time>
      </trkpt>
      <trkpt lat="45.8490660" lon="5.7313370">
        <ele>235.3</ele>
        <time>2022-07-26T11:53:00Z</time>
      </trkpt>
      <trkpt lat="45.8490170" lon="5.7313960">
        <ele>235.3</ele>
        <time>2022-07-26T11:53:02Z</time>
      </trkpt>
      <trkpt lat="45.8489880" lon="5.7314330">
        <ele>235.3</ele>
        <time>2022-07-26T11:53:03Z</time>
      </trkpt>
      <trkpt lat="45.8489560" lon="5.7314690">
        <ele>235.3</ele>
        <time>2022-07-26T11:53:04Z</time>
      </trkpt>
      <trkpt lat="45.8489270" lon="5.7315080">
        <ele>235.3</ele>
        <time>2022-07-26T11:53:05Z</time>
      </trkpt>
      <trkpt lat="45.8488840" lon="5.7315700">
        <ele>235.2</ele>
        <time>2022-07-26T11:53:06Z</time>
      </trkpt>
      <trkpt lat="45.8488550" lon="5.7316100">
        <ele>235.2</ele>
        <time>2022-07-26T11:53:07Z</time>
      </trkpt>
      <trkpt lat="45.8488190" lon="5.7316730">
        <ele>235.2</ele>
        <time>2022-07-26T11:53:09Z</time>
      </trkpt>
      <trkpt lat="45.8487940" lon="5.7317120">
        <ele>235.2</ele>
        <time>2022-07-26T11:53:10Z</time>
      </trkpt>
      <trkpt lat="45.8487630" lon="5.7317630">
        <ele>235.2</ele>
        <time>2022-07-26T11:53:11Z</time>
      </trkpt>
      <trkpt lat="45.8487270" lon="5.7318170">
        <ele>235.2</ele>
        <time>2022-07-26T11:53:13Z</time>
      </trkpt>
      <trkpt lat="45.8487000" lon="5.7318640">
        <ele>235.3</ele>
        <time>2022-07-26T11:53:14Z</time>
      </trkpt>
      <trkpt lat="45.8486790" lon="5.7319030">
        <ele>235.3</ele>
        <time>2022-07-26T11:53:15Z</time>
      </trkpt>
      <trkpt lat="45.8486620" lon="5.7319370">
        <ele>235.3</ele>
        <time>2022-07-26T11:53:16Z</time>
      </trkpt>
      <trkpt lat="45.8486430" lon="5.7319830">
        <ele>235.3</ele>
        <time>2022-07-26T11:53:17Z</time>
      </trkpt>
      <trkpt lat="45.8486220" lon="5.7320300">
        <ele>235.3</ele>
        <time>2022-07-26T11:53:18Z</time>
      </trkpt>
      <trkpt lat="45.8486000" lon="5.7320770">
        <ele>235.3</ele>
        <time>2022-07-26T11:53:19Z</time>
      </trkpt>
      <trkpt lat="45.8485770" lon="5.7321240">
        <ele>235.2</ele>
        <time>2022-07-26T11:53:20Z</time>
      </trkpt>
      <trkpt lat="45.8485560" lon="5.7321600">
        <ele>235.2</ele>
        <time>2022-07-26T11:53:21Z</time>
      </trkpt>
      <trkpt lat="45.8485290" lon="5.7322050">
        <ele>235.2</ele>
        <time>2022-07-26T11:53:22Z</time>
      </trkpt>
      <trkpt lat="45.8485040" lon="5.7322520">
        <ele>235.2</ele>
        <time>2022-07-26T11:53:23Z</time>
      </trkpt>
      <trkpt lat="45.8484840" lon="5.7322980">
        <ele>235.3</ele>
        <time>2022-07-26T11:53:24Z</time>
      </trkpt>
      <trkpt lat="45.8484630" lon="5.7323530">
        <ele>235.3</ele>
        <time>2022-07-26T11:53:25Z</time>
      </trkpt>
      <trkpt lat="45.8484400" lon="5.7324050">
        <ele>235.3</ele>
        <time>2022-07-26T11:53:26Z</time>
      </trkpt>
      <trkpt lat="45.8484400" lon="5.7324570">
        <ele>235.3</ele>
        <time>2022-07-26T11:53:27Z</time>
      </trkpt>
      <trkpt lat="45.8484450" lon="5.7324770">
        <ele>235.3</ele>
        <time>2022-07-26T11:53:28Z</time>
      </trkpt>
      <trkpt lat="45.8484150" lon="5.7325580">
        <ele>235.2</ele>
        <time>2022-07-26T11:53:29Z</time>
      </trkpt>
      <trkpt lat="45.8483900" lon="5.7326140">
        <ele>235.2</ele>
        <time>2022-07-26T11:53:30Z</time>
      </trkpt>
      <trkpt lat="45.8483690" lon="5.7326710">
        <ele>235.2</ele>
        <time>2022-07-26T11:53:32Z</time>
      </trkpt>
      <trkpt lat="45.8483470" lon="5.7327340">
        <ele>235.1</ele>
        <time>2022-07-26T11:53:33Z</time>
      </trkpt>
      <trkpt lat="45.8483310" lon="5.7327830">
        <ele>235.1</ele>
        <time>2022-07-26T11:53:34Z</time>
      </trkpt>
      <trkpt lat="45.8483100" lon="5.7328370">
        <ele>235.1</ele>
        <time>2022-07-26T11:53:35Z</time>
      </trkpt>
      <trkpt lat="45.8482960" lon="5.7328870">
        <ele>235.1</ele>
        <time>2022-07-26T11:53:36Z</time>
      </trkpt>
      <trkpt lat="45.8482710" lon="5.7329770">
        <ele>235.1</ele>
        <time>2022-07-26T11:53:38Z</time>
      </trkpt>
      <trkpt lat="45.8482520" lon="5.7330300">
        <ele>235.1</ele>
        <time>2022-07-26T11:53:39Z</time>
      </trkpt>
      <trkpt lat="45.8482340" lon="5.7330970">
        <ele>235.1</ele>
        <time>2022-07-26T11:53:40Z</time>
      </trkpt>
      <trkpt lat="45.8482210" lon="5.7331460">
        <ele>235.2</ele>
        <time>2022-07-26T11:53:41Z</time>
      </trkpt>
      <trkpt lat="45.8482100" lon="5.7331900">
        <ele>235.2</ele>
        <time>2022-07-26T11:53:42Z</time>
      </trkpt>
      <trkpt lat="45.8481970" lon="5.7332400">
        <ele>235.2</ele>
        <time>2022-07-26T11:53:43Z</time>
      </trkpt>
      <trkpt lat="45.8481740" lon="5.7333190">
        <ele>235.2</ele>
        <time>2022-07-26T11:53:44Z</time>
      </trkpt>
      <trkpt lat="45.8481690" lon="5.7333690">
        <ele>235.2</ele>
        <time>2022-07-26T11:53:46Z</time>
      </trkpt>
      <trkpt lat="45.8481560" lon="5.7334240">
        <ele>235.2</ele>
        <time>2022-07-26T11:53:47Z</time>
      </trkpt>
      <trkpt lat="45.8481420" lon="5.7334910">
        <ele>235.3</ele>
        <time>2022-07-26T11:53:48Z</time>
      </trkpt>
      <trkpt lat="45.8481280" lon="5.7335690">
        <ele>235.3</ele>
        <time>2022-07-26T11:53:50Z</time>
      </trkpt>
      <trkpt lat="45.8481160" lon="5.7336390">
        <ele>235.3</ele>
        <time>2022-07-26T11:53:51Z</time>
      </trkpt>
      <trkpt lat="45.8480970" lon="5.7337260">
        <ele>235.3</ele>
        <time>2022-07-26T11:53:52Z</time>
      </trkpt>
      <trkpt lat="45.8480800" lon="5.7337920">
        <ele>235.3</ele>
        <time>2022-07-26T11:53:54Z</time>
      </trkpt>
      <trkpt lat="45.8480660" lon="5.7338610">
        <ele>235.3</ele>
        <time>2022-07-26T11:53:55Z</time>
      </trkpt>
      <trkpt lat="45.8480540" lon="5.7339160">
        <ele>235.3</ele>
        <time>2022-07-26T11:53:56Z</time>
      </trkpt>
      <trkpt lat="45.8480440" lon="5.7339600">
        <ele>235.4</ele>
        <time>2022-07-26T11:53:57Z</time>
      </trkpt>
      <trkpt lat="45.8480350" lon="5.7340100">
        <ele>235.4</ele>
        <time>2022-07-26T11:53:58Z</time>
      </trkpt>
      <trkpt lat="45.8480260" lon="5.7340810">
        <ele>235.4</ele>
        <time>2022-07-26T11:53:59Z</time>
      </trkpt>
      <trkpt lat="45.8480170" lon="5.7341440">
        <ele>235.5</ele>
        <time>2022-07-26T11:54:01Z</time>
      </trkpt>
      <trkpt lat="45.8480070" lon="5.7341920">
        <ele>235.5</ele>
        <time>2022-07-26T11:54:02Z</time>
      </trkpt>
      <trkpt lat="45.8479960" lon="5.7342440">
        <ele>235.5</ele>
        <time>2022-07-26T11:54:03Z</time>
      </trkpt>
      <trkpt lat="45.8479840" lon="5.7343030">
        <ele>235.5</ele>
        <time>2022-07-26T11:54:04Z</time>
      </trkpt>
      <trkpt lat="45.8479740" lon="5.7343530">
        <ele>235.6</ele>
        <time>2022-07-26T11:54:05Z</time>
      </trkpt>
      <trkpt lat="45.8479620" lon="5.7344010">
        <ele>235.6</ele>
        <time>2022-07-26T11:54:06Z</time>
      </trkpt>
      <trkpt lat="45.8479530" lon="5.7344400">
        <ele>235.6</ele>
        <time>2022-07-26T11:54:07Z</time>
      </trkpt>
      <trkpt lat="45.8479410" lon="5.7344910">
        <ele>235.6</ele>
        <time>2022-07-26T11:54:08Z</time>
      </trkpt>
      <trkpt lat="45.8479350" lon="5.7345070">
        <ele>235.6</ele>
        <time>2022-07-26T11:54:09Z</time>
      </trkpt>
      <trkpt lat="45.8479300" lon="5.7345290">
        <ele>235.6</ele>
        <time>2022-07-26T11:54:10Z</time>
      </trkpt>
      <trkpt lat="45.8479270" lon="5.7345330">
        <ele>235.6</ele>
        <time>2022-07-26T11:54:11Z</time>
      </trkpt>
      <trkpt lat="45.8479240" lon="5.7345370">
        <ele>235.6</ele>
        <time>2022-07-26T11:54:12Z</time>
      </trkpt>
      <trkpt lat="45.8479220" lon="5.7345410">
        <ele>235.6</ele>
        <time>2022-07-26T11:54:13Z</time>
      </trkpt>
      <trkpt lat="45.8479190" lon="5.7345450">
        <ele>235.6</ele>
        <time>2022-07-26T11:54:14Z</time>
      </trkpt>
      <trkpt lat="45.8479160" lon="5.7345490">
        <ele>235.6</ele>
        <time>2022-07-26T11:54:15Z</time>
      </trkpt>
      <trkpt lat="45.8479130" lon="5.7345530">
        <ele>235.6</ele>
        <time>2022-07-26T11:54:16Z</time>
      </trkpt>
      <trkpt lat="45.8479100" lon="5.7345580">
        <ele>235.6</ele>
        <time>2022-07-26T11:54:17Z</time>
      </trkpt>
      <trkpt lat="45.8479070" lon="5.7345620">
        <ele>235.7</ele>
        <time>2022-07-26T11:54:18Z</time>
      </trkpt>
      <trkpt lat="45.8479040" lon="5.7345660">
        <ele>235.7</ele>
        <time>2022-07-26T11:54:19Z</time>
      </trkpt>
      <trkpt lat="45.8479020" lon="5.7345700">
        <ele>235.7</ele>
        <time>2022-07-26T11:54:20Z</time>
      </trkpt>
      <trkpt lat="45.8478990" lon="5.7345740">
        <ele>235.7</ele>
        <time>2022-07-26T11:54:31Z</time>
      </trkpt>
      <trkpt lat="45.8478960" lon="5.7345780">
        <ele>235.7</ele>
        <time>2022-07-26T11:54:32Z</time>
      </trkpt>
      <trkpt lat="45.8478930" lon="5.7345820">
        <ele>235.7</ele>
        <time>2022-07-26T11:54:33Z</time>
      </trkpt>
      <trkpt lat="45.8478820" lon="5.7346260">
        <ele>235.7</ele>
        <time>2022-07-26T11:54:34Z</time>
      </trkpt>
      <trkpt lat="45.8478730" lon="5.7346640">
        <ele>235.7</ele>
        <time>2022-07-26T11:54:35Z</time>
      </trkpt>
      <trkpt lat="45.8478600" lon="5.7347100">
        <ele>235.7</ele>
        <time>2022-07-26T11:54:36Z</time>
      </trkpt>
      <trkpt lat="45.8478490" lon="5.7347500">
        <ele>235.7</ele>
        <time>2022-07-26T11:54:38Z</time>
      </trkpt>
      <trkpt lat="45.8478400" lon="5.7347910">
        <ele>235.7</ele>
        <time>2022-07-26T11:54:39Z</time>
      </trkpt>
      <trkpt lat="45.8478280" lon="5.7348500">
        <ele>235.7</ele>
        <time>2022-07-26T11:54:40Z</time>
      </trkpt>
      <trkpt lat="45.8478230" lon="5.7348730">
        <ele>235.7</ele>
        <time>2022-07-26T11:54:41Z</time>
      </trkpt>
      <trkpt lat="45.8478130" lon="5.7349230">
        <ele>235.7</ele>
        <time>2022-07-26T11:54:42Z</time>
      </trkpt>
      <trkpt lat="45.8478000" lon="5.7349640">
        <ele>235.7</ele>
        <time>2022-07-26T11:54:43Z</time>
      </trkpt>
      <trkpt lat="45.8477830" lon="5.7350130">
        <ele>235.7</ele>
        <time>2022-07-26T11:54:44Z</time>
      </trkpt>
      <trkpt lat="45.8477620" lon="5.7350740">
        <ele>235.7</ele>
        <time>2022-07-26T11:54:46Z</time>
      </trkpt>
      <trkpt lat="45.8477420" lon="5.7351300">
        <ele>235.7</ele>
        <time>2022-07-26T11:54:47Z</time>
      </trkpt>
      <trkpt lat="45.8477280" lon="5.7351740">
        <ele>235.7</ele>
        <time>2022-07-26T11:54:48Z</time>
      </trkpt>
      <trkpt lat="45.8477190" lon="5.7352120">
        <ele>235.7</ele>
        <time>2022-07-26T11:54:49Z</time>
      </trkpt>
      <trkpt lat="45.8477080" lon="5.7352600">
        <ele>235.7</ele>
        <time>2022-07-26T11:54:50Z</time>
      </trkpt>
      <trkpt lat="45.8476890" lon="5.7353260">
        <ele>235.7</ele>
        <time>2022-07-26T11:54:51Z</time>
      </trkpt>
      <trkpt lat="45.8476700" lon="5.7353780">
        <ele>235.7</ele>
        <time>2022-07-26T11:54:53Z</time>
      </trkpt>
      <trkpt lat="45.8476520" lon="5.7354240">
        <ele>235.7</ele>
        <time>2022-07-26T11:54:54Z</time>
      </trkpt>
      <trkpt lat="45.8476340" lon="5.7354770">
        <ele>235.7</ele>
        <time>2022-07-26T11:54:55Z</time>
      </trkpt>
      <trkpt lat="45.8476180" lon="5.7355330">
        <ele>235.7</ele>
        <time>2022-07-26T11:54:56Z</time>
      </trkpt>
      <trkpt lat="45.8475980" lon="5.7355760">
        <ele>235.7</ele>
        <time>2022-07-26T11:54:57Z</time>
      </trkpt>
      <trkpt lat="45.8475790" lon="5.7356230">
        <ele>235.7</ele>
        <time>2022-07-26T11:54:58Z</time>
      </trkpt>
      <trkpt lat="45.8475580" lon="5.7356750">
        <ele>235.6</ele>
        <time>2022-07-26T11:55:00Z</time>
      </trkpt>
      <trkpt lat="45.8475390" lon="5.7357350">
        <ele>235.6</ele>
        <time>2022-07-26T11:55:01Z</time>
      </trkpt>
      <trkpt lat="45.8475220" lon="5.7357860">
        <ele>235.6</ele>
        <time>2022-07-26T11:55:02Z</time>
      </trkpt>
      <trkpt lat="45.8475020" lon="5.7358570">
        <ele>235.6</ele>
        <time>2022-07-26T11:55:03Z</time>
      </trkpt>
      <trkpt lat="45.8474860" lon="5.7359090">
        <ele>235.6</ele>
        <time>2022-07-26T11:55:04Z</time>
      </trkpt>
      <trkpt lat="45.8474590" lon="5.7359790">
        <ele>235.6</ele>
        <time>2022-07-26T11:55:06Z</time>
      </trkpt>
      <trkpt lat="45.8474370" lon="5.7360240">
        <ele>235.5</ele>
        <time>2022-07-26T11:55:07Z</time>
      </trkpt>
      <trkpt lat="45.8474210" lon="5.7360660">
        <ele>235.5</ele>
        <time>2022-07-26T11:55:08Z</time>
      </trkpt>
      <trkpt lat="45.8474080" lon="5.7361150">
        <ele>235.5</ele>
        <time>2022-07-26T11:55:09Z</time>
      </trkpt>
      <trkpt lat="45.8473950" lon="5.7361680">
        <ele>235.5</ele>
        <time>2022-07-26T11:55:10Z</time>
      </trkpt>
      <trkpt lat="45.8473810" lon="5.7362230">
        <ele>235.5</ele>
        <time>2022-07-26T11:55:11Z</time>
      </trkpt>
      <trkpt lat="45.8473640" lon="5.7362750">
        <ele>235.5</ele>
        <time>2022-07-26T11:55:12Z</time>
      </trkpt>
      <trkpt lat="45.8473460" lon="5.7363300">
        <ele>235.5</ele>
        <time>2022-07-26T11:55:13Z</time>
      </trkpt>
      <trkpt lat="45.8473270" lon="5.7363890">
        <ele>235.5</ele>
        <time>2022-07-26T11:55:14Z</time>
      </trkpt>
      <trkpt lat="45.8473090" lon="5.7364470">
        <ele>235.5</ele>
        <time>2022-07-26T11:55:15Z</time>
      </trkpt>
      <trkpt lat="45.8472850" lon="5.7365300">
        <ele>235.5</ele>
        <time>2022-07-26T11:55:17Z</time>
      </trkpt>
      <trkpt lat="45.8472690" lon="5.7365830">
        <ele>235.4</ele>
        <time>2022-07-26T11:55:18Z</time>
      </trkpt>
      <trkpt lat="45.8472380" lon="5.7366740">
        <ele>235.4</ele>
        <time>2022-07-26T11:55:20Z</time>
      </trkpt>
      <trkpt lat="45.8472220" lon="5.7367310">
        <ele>235.4</ele>
        <time>2022-07-26T11:55:21Z</time>
      </trkpt>
      <trkpt lat="45.8472080" lon="5.7367800">
        <ele>235.4</ele>
        <time>2022-07-26T11:55:22Z</time>
      </trkpt>
      <trkpt lat="45.8471950" lon="5.7368300">
        <ele>235.4</ele>
        <time>2022-07-26T11:55:23Z</time>
      </trkpt>
      <trkpt lat="45.8471840" lon="5.7368760">
        <ele>235.4</ele>
        <time>2022-07-26T11:55:24Z</time>
      </trkpt>
      <trkpt lat="45.8471710" lon="5.7369210">
        <ele>235.4</ele>
        <time>2022-07-26T11:55:25Z</time>
      </trkpt>
      <trkpt lat="45.8471530" lon="5.7369830">
        <ele>235.4</ele>
        <time>2022-07-26T11:55:26Z</time>
      </trkpt>
      <trkpt lat="45.8471290" lon="5.7370540">
        <ele>235.5</ele>
        <time>2022-07-26T11:55:28Z</time>
      </trkpt>
      <trkpt lat="45.8471140" lon="5.7371050">
        <ele>235.5</ele>
        <time>2022-07-26T11:55:29Z</time>
      </trkpt>
      <trkpt lat="45.8471010" lon="5.7371510">
        <ele>235.5</ele>
        <time>2022-07-26T11:55:30Z</time>
      </trkpt>
      <trkpt lat="45.8470840" lon="5.7372030">
        <ele>235.5</ele>
        <time>2022-07-26T11:55:31Z</time>
      </trkpt>
      <trkpt lat="45.8470680" lon="5.7372540">
        <ele>235.6</ele>
        <time>2022-07-26T11:55:32Z</time>
      </trkpt>
      <trkpt lat="45.8470530" lon="5.7373000">
        <ele>235.6</ele>
        <time>2022-07-26T11:55:33Z</time>
      </trkpt>
      <trkpt lat="45.8470370" lon="5.7373440">
        <ele>235.6</ele>
        <time>2022-07-26T11:55:34Z</time>
      </trkpt>
      <trkpt lat="45.8470070" lon="5.7374330">
        <ele>235.6</ele>
        <time>2022-07-26T11:55:36Z</time>
      </trkpt>
      <trkpt lat="45.8469860" lon="5.7374980">
        <ele>235.6</ele>
        <time>2022-07-26T11:55:37Z</time>
      </trkpt>
      <trkpt lat="45.8469730" lon="5.7375550">
        <ele>235.6</ele>
        <time>2022-07-26T11:55:38Z</time>
      </trkpt>
      <trkpt lat="45.8469570" lon="5.7376230">
        <ele>235.6</ele>
        <time>2022-07-26T11:55:39Z</time>
      </trkpt>
      <trkpt lat="45.8469410" lon="5.7376840">
        <ele>235.7</ele>
        <time>2022-07-26T11:55:41Z</time>
      </trkpt>
      <trkpt lat="45.8469290" lon="5.7377410">
        <ele>235.7</ele>
        <time>2022-07-26T11:55:42Z</time>
      </trkpt>
      <trkpt lat="45.8469140" lon="5.7377960">
        <ele>235.7</ele>
        <time>2022-07-26T11:55:43Z</time>
      </trkpt>
      <trkpt lat="45.8468980" lon="5.7378350">
        <ele>235.7</ele>
        <time>2022-07-26T11:55:44Z</time>
      </trkpt>
      <trkpt lat="45.8468840" lon="5.7378720">
        <ele>235.7</ele>
        <time>2022-07-26T11:55:45Z</time>
      </trkpt>
      <trkpt lat="45.8468640" lon="5.7379320">
        <ele>235.6</ele>
        <time>2022-07-26T11:55:46Z</time>
      </trkpt>
      <trkpt lat="45.8468450" lon="5.7379780">
        <ele>235.6</ele>
        <time>2022-07-26T11:55:47Z</time>
      </trkpt>
      <trkpt lat="45.8468100" lon="5.7380320">
        <ele>235.5</ele>
        <time>2022-07-26T11:55:49Z</time>
      </trkpt>
      <trkpt lat="45.8467810" lon="5.7380940">
        <ele>235.4</ele>
        <time>2022-07-26T11:55:50Z</time>
      </trkpt>
      <trkpt lat="45.8467610" lon="5.7381470">
        <ele>235.4</ele>
        <time>2022-07-26T11:55:51Z</time>
      </trkpt>
      <trkpt lat="45.8467440" lon="5.7382010">
        <ele>235.4</ele>
        <time>2022-07-26T11:55:52Z</time>
      </trkpt>
      <trkpt lat="45.8467200" lon="5.7382680">
        <ele>235.3</ele>
        <time>2022-07-26T11:55:53Z</time>
      </trkpt>
      <trkpt lat="45.8467040" lon="5.7383330">
        <ele>235.3</ele>
        <time>2022-07-26T11:55:55Z</time>
      </trkpt>
      <trkpt lat="45.8466860" lon="5.7384130">
        <ele>235.3</ele>
        <time>2022-07-26T11:55:56Z</time>
      </trkpt>
      <trkpt lat="45.8466770" lon="5.7384570">
        <ele>235.4</ele>
        <time>2022-07-26T11:55:57Z</time>
      </trkpt>
      <trkpt lat="45.8466540" lon="5.7385260">
        <ele>235.4</ele>
        <time>2022-07-26T11:55:59Z</time>
      </trkpt>
      <trkpt lat="45.8466290" lon="5.7385620">
        <ele>235.4</ele>
        <time>2022-07-26T11:56:00Z</time>
      </trkpt>
      <trkpt lat="45.8466200" lon="5.7385700">
        <ele>235.5</ele>
        <time>2022-07-26T11:56:01Z</time>
      </trkpt>
      <trkpt lat="45.8465970" lon="5.7385740">
        <ele>235.5</ele>
        <time>2022-07-26T11:56:02Z</time>
      </trkpt>
      <trkpt lat="45.8465510" lon="5.7385550">
        <ele>235.6</ele>
        <time>2022-07-26T11:56:04Z</time>
      </trkpt>
      <trkpt lat="45.8465230" lon="5.7385430">
        <ele>235.6</ele>
        <time>2022-07-26T11:56:05Z</time>
      </trkpt>
      <trkpt lat="45.8464980" lon="5.7385260">
        <ele>235.6</ele>
        <time>2022-07-26T11:56:06Z</time>
      </trkpt>
      <trkpt lat="45.8464810" lon="5.7385110">
        <ele>235.7</ele>
        <time>2022-07-26T11:56:07Z</time>
      </trkpt>
      <trkpt lat="45.8464300" lon="5.7384810">
        <ele>235.8</ele>
        <time>2022-07-26T11:56:09Z</time>
      </trkpt>
      <trkpt lat="45.8463950" lon="5.7384640">
        <ele>235.9</ele>
        <time>2022-07-26T11:56:10Z</time>
      </trkpt>
      <trkpt lat="45.8463640" lon="5.7384500">
        <ele>236.0</ele>
        <time>2022-07-26T11:56:11Z</time>
      </trkpt>
      <trkpt lat="45.8463310" lon="5.7384390">
        <ele>236.1</ele>
        <time>2022-07-26T11:56:12Z</time>
      </trkpt>
      <trkpt lat="45.8463220" lon="5.7384380">
        <ele>236.1</ele>
        <time>2022-07-26T11:56:13Z</time>
      </trkpt>
      <trkpt lat="45.8462990" lon="5.7384410">
        <ele>236.2</ele>
        <time>2022-07-26T11:56:15Z</time>
      </trkpt>
      <trkpt lat="45.8462820" lon="5.7384570">
        <ele>236.3</ele>
        <time>2022-07-26T11:56:16Z</time>
      </trkpt>
      <trkpt lat="45.8462740" lon="5.7384740">
        <ele>236.3</ele>
        <time>2022-07-26T11:56:17Z</time>
      </trkpt>
      <trkpt lat="45.8462730" lon="5.7385050">
        <ele>236.4</ele>
        <time>2022-07-26T11:56:18Z</time>
      </trkpt>
      <trkpt lat="45.8462700" lon="5.7385590">
        <ele>236.6</ele>
        <time>2022-07-26T11:56:20Z</time>
      </trkpt>
      <trkpt lat="45.8462730" lon="5.7386030">
        <ele>236.5</ele>
        <time>2022-07-26T11:56:21Z</time>
      </trkpt>
      <trkpt lat="45.8462860" lon="5.7386550">
        <ele>236.5</ele>
        <time>2022-07-26T11:56:22Z</time>
      </trkpt>
      <trkpt lat="45.8463050" lon="5.7386950">
        <ele>236.4</ele>
        <time>2022-07-26T11:56:23Z</time>
      </trkpt>
      <trkpt lat="45.8463260" lon="5.7387350">
        <ele>236.4</ele>
        <time>2022-07-26T11:56:24Z</time>
      </trkpt>
      <trkpt lat="45.8463550" lon="5.7388040">
        <ele>236.3</ele>
        <time>2022-07-26T11:56:26Z</time>
      </trkpt>
      <trkpt lat="45.8463760" lon="5.7388430">
        <ele>236.3</ele>
        <time>2022-07-26T11:56:27Z</time>
      </trkpt>
      <trkpt lat="45.8464020" lon="5.7388950">
        <ele>236.2</ele>
        <time>2022-07-26T11:56:28Z</time>
      </trkpt>
      <trkpt lat="45.8464400" lon="5.7389800">
        <ele>236.2</ele>
        <time>2022-07-26T11:56:30Z</time>
      </trkpt>
      <trkpt lat="45.8464550" lon="5.7390370">
        <ele>236.1</ele>
        <time>2022-07-26T11:56:31Z</time>
      </trkpt>
      <trkpt lat="45.8464670" lon="5.7390890">
        <ele>236.1</ele>
        <time>2022-07-26T11:56:32Z</time>
      </trkpt>
      <trkpt lat="45.8464730" lon="5.7391290">
        <ele>236.1</ele>
        <time>2022-07-26T11:56:33Z</time>
      </trkpt>
      <trkpt lat="45.8464800" lon="5.7391710">
        <ele>236.0</ele>
        <time>2022-07-26T11:56:34Z</time>
      </trkpt>
      <trkpt lat="45.8465090" lon="5.7392600">
        <ele>236.0</ele>
        <time>2022-07-26T11:56:36Z</time>
      </trkpt>
      <trkpt lat="45.8465260" lon="5.7393240">
        <ele>236.0</ele>
        <time>2022-07-26T11:56:37Z</time>
      </trkpt>
      <trkpt lat="45.8465400" lon="5.7393810">
        <ele>236.0</ele>
        <time>2022-07-26T11:56:38Z</time>
      </trkpt>
      <trkpt lat="45.8465630" lon="5.7394490">
        <ele>235.9</ele>
        <time>2022-07-26T11:56:39Z</time>
      </trkpt>
      <trkpt lat="45.8466200" lon="5.7395940">
        <ele>235.9</ele>
        <time>2022-07-26T11:56:41Z</time>
      </trkpt>
      <trkpt lat="45.8466440" lon="5.7396500">
        <ele>235.9</ele>
        <time>2022-07-26T11:56:42Z</time>
      </trkpt>
      <trkpt lat="45.8466690" lon="5.7396960">
        <ele>235.9</ele>
        <time>2022-07-26T11:56:43Z</time>
      </trkpt>
      <trkpt lat="45.8467130" lon="5.7397730">
        <ele>235.8</ele>
        <time>2022-07-26T11:56:44Z</time>
      </trkpt>
      <trkpt lat="45.8467630" lon="5.7398840">
        <ele>235.8</ele>
        <time>2022-07-26T11:56:46Z</time>
      </trkpt>
      <trkpt lat="45.8467920" lon="5.7399480">
        <ele>235.8</ele>
        <time>2022-07-26T11:56:47Z</time>
      </trkpt>
      <trkpt lat="45.8468140" lon="5.7400040">
        <ele>235.7</ele>
        <time>2022-07-26T11:56:48Z</time>
      </trkpt>
      <trkpt lat="45.8468330" lon="5.7400270">
        <ele>235.7</ele>
        <time>2022-07-26T11:56:49Z</time>
      </trkpt>
      <trkpt lat="45.8468830" lon="5.7401350">
        <ele>235.7</ele>
        <time>2022-07-26T11:56:51Z</time>
      </trkpt>
      <trkpt lat="45.8469030" lon="5.7401860">
        <ele>235.7</ele>
        <time>2022-07-26T11:56:52Z</time>
      </trkpt>
      <trkpt lat="45.8469320" lon="5.7402630">
        <ele>235.7</ele>
        <time>2022-07-26T11:56:53Z</time>
      </trkpt>
      <trkpt lat="45.8469590" lon="5.7403330">
        <ele>235.7</ele>
        <time>2022-07-26T11:56:54Z</time>
      </trkpt>
      <trkpt lat="45.8469880" lon="5.7403930">
        <ele>235.7</ele>
        <time>2022-07-26T11:56:55Z</time>
      </trkpt>
      <trkpt lat="45.8470080" lon="5.7404650">
        <ele>235.7</ele>
        <time>2022-07-26T11:56:56Z</time>
      </trkpt>
      <trkpt lat="45.8470250" lon="5.7405040">
        <ele>235.7</ele>
        <time>2022-07-26T11:56:57Z</time>
      </trkpt>
      <trkpt lat="45.8470530" lon="5.7405720">
        <ele>235.7</ele>
        <time>2022-07-26T11:56:58Z</time>
      </trkpt>
      <trkpt lat="45.8470810" lon="5.7406250">
        <ele>235.7</ele>
        <time>2022-07-26T11:56:59Z</time>
      </trkpt>
      <trkpt lat="45.8470950" lon="5.7406740">
        <ele>235.7</ele>
        <time>2022-07-26T11:57:00Z</time>
      </trkpt>
      <trkpt lat="45.8470980" lon="5.7407380">
        <ele>235.7</ele>
        <time>2022-07-26T11:57:01Z</time>
      </trkpt>
      <trkpt lat="45.8471240" lon="5.7407970">
        <ele>235.7</ele>
        <time>2022-07-26T11:57:02Z</time>
      </trkpt>
      <trkpt lat="45.8471570" lon="5.7408640">
        <ele>235.7</ele>
        <time>2022-07-26T11:57:04Z</time>
      </trkpt>
      <trkpt lat="45.8471900" lon="5.7409300">
        <ele>235.7</ele>
        <time>2022-07-26T11:57:05Z</time>
      </trkpt>
      <trkpt lat="45.8472170" lon="5.7410010">
        <ele>235.7</ele>
        <time>2022-07-26T11:57:06Z</time>
      </trkpt>
      <trkpt lat="45.8472530" lon="5.7410940">
        <ele>235.7</ele>
        <time>2022-07-26T11:57:08Z</time>
      </trkpt>
      <trkpt lat="45.8472960" lon="5.7411910">
        <ele>235.7</ele>
        <time>2022-07-26T11:57:09Z</time>
      </trkpt>
      <trkpt lat="45.8473020" lon="5.7412250">
        <ele>235.7</ele>
        <time>2022-07-26T11:57:10Z</time>
      </trkpt>
      <trkpt lat="45.8473300" lon="5.7413040">
        <ele>235.7</ele>
        <time>2022-07-26T11:57:12Z</time>
      </trkpt>
      <trkpt lat="45.8473690" lon="5.7413940">
        <ele>235.7</ele>
        <time>2022-07-26T11:57:13Z</time>
      </trkpt>
      <trkpt lat="45.8473970" lon="5.7414600">
        <ele>235.7</ele>
        <time>2022-07-26T11:57:14Z</time>
      </trkpt>
      <trkpt lat="45.8474220" lon="5.7415220">
        <ele>235.7</ele>
        <time>2022-07-26T11:57:15Z</time>
      </trkpt>
      <trkpt lat="45.8474430" lon="5.7415810">
        <ele>235.7</ele>
        <time>2022-07-26T11:57:16Z</time>
      </trkpt>
      <trkpt lat="45.8474860" lon="5.7416250">
        <ele>235.7</ele>
        <time>2022-07-26T11:57:18Z</time>
      </trkpt>
      <trkpt lat="45.8475000" lon="5.7416670">
        <ele>235.7</ele>
        <time>2022-07-26T11:57:19Z</time>
      </trkpt>
      <trkpt lat="45.8475210" lon="5.7417400">
        <ele>235.7</ele>
        <time>2022-07-26T11:57:20Z</time>
      </trkpt>
      <trkpt lat="45.8475490" lon="5.7418480">
        <ele>235.7</ele>
        <time>2022-07-26T11:57:21Z</time>
      </trkpt>
      <trkpt lat="45.8475780" lon="5.7419290">
        <ele>235.7</ele>
        <time>2022-07-26T11:57:22Z</time>
      </trkpt>
      <trkpt lat="45.8476070" lon="5.7419940">
        <ele>235.7</ele>
        <time>2022-07-26T11:57:23Z</time>
      </trkpt>
      <trkpt lat="45.8476300" lon="5.7420580">
        <ele>235.7</ele>
        <time>2022-07-26T11:57:24Z</time>
      </trkpt>
      <trkpt lat="45.8476550" lon="5.7421190">
        <ele>235.7</ele>
        <time>2022-07-26T11:57:25Z</time>
      </trkpt>
      <trkpt lat="45.8476790" lon="5.7421840">
        <ele>235.6</ele>
        <time>2022-07-26T11:57:26Z</time>
      </trkpt>
      <trkpt lat="45.8477030" lon="5.7422510">
        <ele>235.6</ele>
        <time>2022-07-26T11:57:27Z</time>
      </trkpt>
      <trkpt lat="45.8477260" lon="5.7423130">
        <ele>235.6</ele>
        <time>2022-07-26T11:57:28Z</time>
      </trkpt>
      <trkpt lat="45.8477470" lon="5.7423740">
        <ele>235.6</ele>
        <time>2022-07-26T11:57:29Z</time>
      </trkpt>
      <trkpt lat="45.8477700" lon="5.7424310">
        <ele>235.6</ele>
        <time>2022-07-26T11:57:30Z</time>
      </trkpt>
      <trkpt lat="45.8478010" lon="5.7424690">
        <ele>235.6</ele>
        <time>2022-07-26T11:57:31Z</time>
      </trkpt>
      <trkpt lat="45.8478410" lon="5.7425920">
        <ele>235.6</ele>
        <time>2022-07-26T11:57:33Z</time>
      </trkpt>
      <trkpt lat="45.8478650" lon="5.7426620">
        <ele>235.5</ele>
        <time>2022-07-26T11:57:34Z</time>
      </trkpt>
      <trkpt lat="45.8478930" lon="5.7427290">
        <ele>235.5</ele>
        <time>2022-07-26T11:57:35Z</time>
      </trkpt>
      <trkpt lat="45.8479230" lon="5.7427960">
        <ele>235.5</ele>
        <time>2022-07-26T11:57:36Z</time>
      </trkpt>
      <trkpt lat="45.8479510" lon="5.7428640">
        <ele>235.5</ele>
        <time>2022-07-26T11:57:37Z</time>
      </trkpt>
      <trkpt lat="45.8479780" lon="5.7429260">
        <ele>235.4</ele>
        <time>2022-07-26T11:57:38Z</time>
      </trkpt>
      <trkpt lat="45.8480070" lon="5.7429910">
        <ele>235.4</ele>
        <time>2022-07-26T11:57:39Z</time>
      </trkpt>
      <trkpt lat="45.8480370" lon="5.7430540">
        <ele>235.4</ele>
        <time>2022-07-26T11:57:40Z</time>
      </trkpt>
      <trkpt lat="45.8480590" lon="5.7431150">
        <ele>235.4</ele>
        <time>2022-07-26T11:57:41Z</time>
      </trkpt>
      <trkpt lat="45.8480840" lon="5.7431830">
        <ele>235.3</ele>
        <time>2022-07-26T11:57:42Z</time>
      </trkpt>
      <trkpt lat="45.8481090" lon="5.7432490">
        <ele>235.3</ele>
        <time>2022-07-26T11:57:43Z</time>
      </trkpt>
      <trkpt lat="45.8481310" lon="5.7433100">
        <ele>235.3</ele>
        <time>2022-07-26T11:57:44Z</time>
      </trkpt>
      <trkpt lat="45.8481590" lon="5.7433700">
        <ele>235.3</ele>
        <time>2022-07-26T11:57:45Z</time>
      </trkpt>
      <trkpt lat="45.8481930" lon="5.7434330">
        <ele>235.2</ele>
        <time>2022-07-26T11:57:46Z</time>
      </trkpt>
      <trkpt lat="45.8482220" lon="5.7434950">
        <ele>235.2</ele>
        <time>2022-07-26T11:57:47Z</time>
      </trkpt>
      <trkpt lat="45.8482400" lon="5.7435500">
        <ele>235.2</ele>
        <time>2022-07-26T11:57:48Z</time>
      </trkpt>
      <trkpt lat="45.8482570" lon="5.7435950">
        <ele>235.2</ele>
        <time>2022-07-26T11:57:49Z</time>
      </trkpt>
      <trkpt lat="45.8482780" lon="5.7436470">
        <ele>235.2</ele>
        <time>2022-07-26T11:57:50Z</time>
      </trkpt>
      <trkpt lat="45.8483060" lon="5.7437180">
        <ele>235.2</ele>
        <time>2022-07-26T11:57:51Z</time>
      </trkpt>
      <trkpt lat="45.8483300" lon="5.7437800">
        <ele>235.2</ele>
        <time>2022-07-26T11:57:52Z</time>
      </trkpt>
      <trkpt lat="45.8483550" lon="5.7438410">
        <ele>235.2</ele>
        <time>2022-07-26T11:57:53Z</time>
      </trkpt>
      <trkpt lat="45.8483780" lon="5.7439030">
        <ele>235.2</ele>
        <time>2022-07-26T11:57:54Z</time>
      </trkpt>
      <trkpt lat="45.8484030" lon="5.7439690">
        <ele>235.2</ele>
        <time>2022-07-26T11:57:55Z</time>
      </trkpt>
      <trkpt lat="45.8484240" lon="5.7440250">
        <ele>235.3</ele>
        <time>2022-07-26T11:57:56Z</time>
      </trkpt>
      <trkpt lat="45.8484370" lon="5.7440620">
        <ele>235.3</ele>
        <time>2022-07-26T11:57:57Z</time>
      </trkpt>
      <trkpt lat="45.8484560" lon="5.7441140">
        <ele>235.2</ele>
        <time>2022-07-26T11:57:58Z</time>
      </trkpt>
      <trkpt lat="45.8484760" lon="5.7441640">
        <ele>235.2</ele>
        <time>2022-07-26T11:57:59Z</time>
      </trkpt>
      <trkpt lat="45.8485090" lon="5.7442320">
        <ele>235.2</ele>
        <time>2022-07-26T11:58:00Z</time>
      </trkpt>
      <trkpt lat="45.8485360" lon="5.7442930">
        <ele>235.2</ele>
        <time>2022-07-26T11:58:01Z</time>
      </trkpt>
      <trkpt lat="45.8485600" lon="5.7443510">
        <ele>235.2</ele>
        <time>2022-07-26T11:58:02Z</time>
      </trkpt>
      <trkpt lat="45.8485830" lon="5.7444080">
        <ele>235.1</ele>
        <time>2022-07-26T11:58:03Z</time>
      </trkpt>
      <trkpt lat="45.8486110" lon="5.7444710">
        <ele>235.1</ele>
        <time>2022-07-26T11:58:04Z</time>
      </trkpt>
      <trkpt lat="45.8486420" lon="5.7445310">
        <ele>235.1</ele>
        <time>2022-07-26T11:58:05Z</time>
      </trkpt>
      <trkpt lat="45.8486660" lon="5.7445890">
        <ele>235.1</ele>
        <time>2022-07-26T11:58:06Z</time>
      </trkpt>
      <trkpt lat="45.8486730" lon="5.7446270">
        <ele>235.1</ele>
        <time>2022-07-26T11:58:07Z</time>
      </trkpt>
      <trkpt lat="45.8486720" lon="5.7446740">
        <ele>235.0</ele>
        <time>2022-07-26T11:58:08Z</time>
      </trkpt>
      <trkpt lat="45.8486990" lon="5.7447260">
        <ele>235.0</ele>
        <time>2022-07-26T11:58:09Z</time>
      </trkpt>
      <trkpt lat="45.8487390" lon="5.7448030">
        <ele>235.0</ele>
        <time>2022-07-26T11:58:10Z</time>
      </trkpt>
      <trkpt lat="45.8487600" lon="5.7448420">
        <ele>235.0</ele>
        <time>2022-07-26T11:58:11Z</time>
      </trkpt>
      <trkpt lat="45.8487850" lon="5.7448960">
        <ele>235.0</ele>
        <time>2022-07-26T11:58:12Z</time>
      </trkpt>
      <trkpt lat="45.8488080" lon="5.7449630">
        <ele>235.0</ele>
        <time>2022-07-26T11:58:13Z</time>
      </trkpt>
      <trkpt lat="45.8488330" lon="5.7450300">
        <ele>235.0</ele>
        <time>2022-07-26T11:58:14Z</time>
      </trkpt>
      <trkpt lat="45.8488560" lon="5.7450850">
        <ele>234.9</ele>
        <time>2022-07-26T11:58:15Z</time>
      </trkpt>
      <trkpt lat="45.8488730" lon="5.7451340">
        <ele>234.9</ele>
        <time>2022-07-26T11:58:16Z</time>
      </trkpt>
      <trkpt lat="45.8488980" lon="5.7451890">
        <ele>235.0</ele>
        <time>2022-07-26T11:58:17Z</time>
      </trkpt>
      <trkpt lat="45.8489090" lon="5.7452000">
        <ele>235.0</ele>
        <time>2022-07-26T11:58:18Z</time>
      </trkpt>
      <trkpt lat="45.8489360" lon="5.7452790">
        <ele>235.0</ele>
        <time>2022-07-26T11:58:20Z</time>
      </trkpt>
      <trkpt lat="45.8489590" lon="5.7453420">
        <ele>235.0</ele>
        <time>2022-07-26T11:58:21Z</time>
      </trkpt>
      <trkpt lat="45.8489850" lon="5.7454130">
        <ele>235.0</ele>
        <time>2022-07-26T11:58:22Z</time>
      </trkpt>
      <trkpt lat="45.8490080" lon="5.7454800">
        <ele>235.0</ele>
        <time>2022-07-26T11:58:23Z</time>
      </trkpt>
      <trkpt lat="45.8490310" lon="5.7455370">
        <ele>235.1</ele>
        <time>2022-07-26T11:58:24Z</time>
      </trkpt>
      <trkpt lat="45.8490520" lon="5.7455920">
        <ele>235.1</ele>
        <time>2022-07-26T11:58:25Z</time>
      </trkpt>
      <trkpt lat="45.8490720" lon="5.7456510">
        <ele>235.1</ele>
        <time>2022-07-26T11:58:26Z</time>
      </trkpt>
      <trkpt lat="45.8490910" lon="5.7456960">
        <ele>235.2</ele>
        <time>2022-07-26T11:58:27Z</time>
      </trkpt>
      <trkpt lat="45.8491040" lon="5.7457330">
        <ele>235.2</ele>
        <time>2022-07-26T11:58:28Z</time>
      </trkpt>
      <trkpt lat="45.8491190" lon="5.7457820">
        <ele>235.2</ele>
        <time>2022-07-26T11:58:29Z</time>
      </trkpt>
      <trkpt lat="45.8491370" lon="5.7458310">
        <ele>235.3</ele>
        <time>2022-07-26T11:58:30Z</time>
      </trkpt>
      <trkpt lat="45.8491550" lon="5.7458770">
        <ele>235.3</ele>
        <time>2022-07-26T11:58:31Z</time>
      </trkpt>
      <trkpt lat="45.8491700" lon="5.7459170">
        <ele>235.3</ele>
        <time>2022-07-26T11:58:32Z</time>
      </trkpt>
      <trkpt lat="45.8491860" lon="5.7459620">
        <ele>235.4</ele>
        <time>2022-07-26T11:58:33Z</time>
      </trkpt>
      <trkpt lat="45.8492050" lon="5.7460200">
        <ele>235.4</ele>
        <time>2022-07-26T11:58:34Z</time>
      </trkpt>
      <trkpt lat="45.8492510" lon="5.7461380">
        <ele>235.4</ele>
        <time>2022-07-26T11:58:36Z</time>
      </trkpt>
      <trkpt lat="45.8492730" lon="5.7462000">
        <ele>235.4</ele>
        <time>2022-07-26T11:58:37Z</time>
      </trkpt>
      <trkpt lat="45.8493010" lon="5.7462560">
        <ele>235.4</ele>
        <time>2022-07-26T11:58:38Z</time>
      </trkpt>
      <trkpt lat="45.8493170" lon="5.7463120">
        <ele>235.4</ele>
        <time>2022-07-26T11:58:39Z</time>
      </trkpt>
      <trkpt lat="45.8493240" lon="5.7463330">
        <ele>235.3</ele>
        <time>2022-07-26T11:58:40Z</time>
      </trkpt>
      <trkpt lat="45.8493620" lon="5.7464210">
        <ele>235.3</ele>
        <time>2022-07-26T11:58:41Z</time>
      </trkpt>
      <trkpt lat="45.8493920" lon="5.7464850">
        <ele>235.2</ele>
        <time>2022-07-26T11:58:42Z</time>
      </trkpt>
      <trkpt lat="45.8494120" lon="5.7465420">
        <ele>235.2</ele>
        <time>2022-07-26T11:58:43Z</time>
      </trkpt>
      <trkpt lat="45.8494400" lon="5.7466110">
        <ele>235.2</ele>
        <time>2022-07-26T11:58:44Z</time>
      </trkpt>
      <trkpt lat="45.8494650" lon="5.7466760">
        <ele>235.2</ele>
        <time>2022-07-26T11:58:45Z</time>
      </trkpt>
      <trkpt lat="45.8494900" lon="5.7467430">
        <ele>235.1</ele>
        <time>2022-07-26T11:58:46Z</time>
      </trkpt>
      <trkpt lat="45.8495150" lon="5.7468050">
        <ele>235.1</ele>
        <time>2022-07-26T11:58:47Z</time>
      </trkpt>
      <trkpt lat="45.8495440" lon="5.7468650">
        <ele>235.1</ele>
        <time>2022-07-26T11:58:48Z</time>
      </trkpt>
      <trkpt lat="45.8495690" lon="5.7469250">
        <ele>235.1</ele>
        <time>2022-07-26T11:58:49Z</time>
      </trkpt>
      <trkpt lat="45.8495930" lon="5.7469880">
        <ele>235.2</ele>
        <time>2022-07-26T11:58:50Z</time>
      </trkpt>
      <trkpt lat="45.8496230" lon="5.7470550">
        <ele>235.2</ele>
        <time>2022-07-26T11:58:51Z</time>
      </trkpt>
      <trkpt lat="45.8496540" lon="5.7471220">
        <ele>235.2</ele>
        <time>2022-07-26T11:58:52Z</time>
      </trkpt>
      <trkpt lat="45.8496780" lon="5.7471790">
        <ele>235.2</ele>
        <time>2022-07-26T11:58:53Z</time>
      </trkpt>
      <trkpt lat="45.8496940" lon="5.7472180">
        <ele>235.2</ele>
        <time>2022-07-26T11:58:54Z</time>
      </trkpt>
      <trkpt lat="45.8496840" lon="5.7472680">
        <ele>235.2</ele>
        <time>2022-07-26T11:58:55Z</time>
      </trkpt>
      <trkpt lat="45.8497150" lon="5.7473400">
        <ele>235.2</ele>
        <time>2022-07-26T11:58:56Z</time>
      </trkpt>
      <trkpt lat="45.8497400" lon="5.7473990">
        <ele>235.2</ele>
        <time>2022-07-26T11:58:57Z</time>
      </trkpt>
      <trkpt lat="45.8497660" lon="5.7474530">
        <ele>235.2</ele>
        <time>2022-07-26T11:58:58Z</time>
      </trkpt>
      <trkpt lat="45.8498150" lon="5.7475210">
        <ele>235.2</ele>
        <time>2022-07-26T11:59:00Z</time>
      </trkpt>
      <trkpt lat="45.8498370" lon="5.7475930">
        <ele>235.2</ele>
        <time>2022-07-26T11:59:01Z</time>
      </trkpt>
      <trkpt lat="45.8498540" lon="5.7476570">
        <ele>235.2</ele>
        <time>2022-07-26T11:59:02Z</time>
      </trkpt>
      <trkpt lat="45.8498760" lon="5.7477300">
        <ele>235.2</ele>
        <time>2022-07-26T11:59:03Z</time>
      </trkpt>
      <trkpt lat="45.8499060" lon="5.7478030">
        <ele>235.3</ele>
        <time>2022-07-26T11:59:04Z</time>
      </trkpt>
      <trkpt lat="45.8499330" lon="5.7478650">
        <ele>235.3</ele>
        <time>2022-07-26T11:59:05Z</time>
      </trkpt>
      <trkpt lat="45.8499550" lon="5.7479230">
        <ele>235.3</ele>
        <time>2022-07-26T11:59:06Z</time>
      </trkpt>
      <trkpt lat="45.8499910" lon="5.7479680">
        <ele>235.3</ele>
        <time>2022-07-26T11:59:07Z</time>
      </trkpt>
      <trkpt lat="45.8500190" lon="5.7480820">
        <ele>235.3</ele>
        <time>2022-07-26T11:59:09Z</time>
      </trkpt>
      <trkpt lat="45.8500300" lon="5.7481290">
        <ele>235.3</ele>
        <time>2022-07-26T11:59:10Z</time>
      </trkpt>
      <trkpt lat="45.8500570" lon="5.7482020">
        <ele>235.3</ele>
        <time>2022-07-26T11:59:11Z</time>
      </trkpt>
      <trkpt lat="45.8500830" lon="5.7482570">
        <ele>235.3</ele>
        <time>2022-07-26T11:59:12Z</time>
      </trkpt>
      <trkpt lat="45.8501110" lon="5.7483230">
        <ele>235.3</ele>
        <time>2022-07-26T11:59:13Z</time>
      </trkpt>
      <trkpt lat="45.8501430" lon="5.7483970">
        <ele>235.3</ele>
        <time>2022-07-26T11:59:14Z</time>
      </trkpt>
      <trkpt lat="45.8501690" lon="5.7484570">
        <ele>235.3</ele>
        <time>2022-07-26T11:59:15Z</time>
      </trkpt>
      <trkpt lat="45.8501870" lon="5.7485210">
        <ele>235.3</ele>
        <time>2022-07-26T11:59:16Z</time>
      </trkpt>
      <trkpt lat="45.8502110" lon="5.7485790">
        <ele>235.3</ele>
        <time>2022-07-26T11:59:17Z</time>
      </trkpt>
      <trkpt lat="45.8502370" lon="5.7486410">
        <ele>235.3</ele>
        <time>2022-07-26T11:59:18Z</time>
      </trkpt>
      <trkpt lat="45.8502610" lon="5.7486980">
        <ele>235.4</ele>
        <time>2022-07-26T11:59:19Z</time>
      </trkpt>
      <trkpt lat="45.8502880" lon="5.7487550">
        <ele>235.4</ele>
        <time>2022-07-26T11:59:20Z</time>
      </trkpt>
      <trkpt lat="45.8503180" lon="5.7488170">
        <ele>235.4</ele>
        <time>2022-07-26T11:59:21Z</time>
      </trkpt>
      <trkpt lat="45.8503430" lon="5.7488700">
        <ele>235.4</ele>
        <time>2022-07-26T11:59:22Z</time>
      </trkpt>
      <trkpt lat="45.8503730" lon="5.7489270">
        <ele>235.5</ele>
        <time>2022-07-26T11:59:23Z</time>
      </trkpt>
      <trkpt lat="45.8504020" lon="5.7489900">
        <ele>235.5</ele>
        <time>2022-07-26T11:59:24Z</time>
      </trkpt>
      <trkpt lat="45.8504250" lon="5.7490490">
        <ele>235.5</ele>
        <time>2022-07-26T11:59:25Z</time>
      </trkpt>
      <trkpt lat="45.8504420" lon="5.7491150">
        <ele>235.5</ele>
        <time>2022-07-26T11:59:26Z</time>
      </trkpt>
      <trkpt lat="45.8504220" lon="5.7491600">
        <ele>235.5</ele>
        <time>2022-07-26T11:59:27Z</time>
      </trkpt>
      <trkpt lat="45.8504850" lon="5.7492630">
        <ele>235.6</ele>
        <time>2022-07-26T11:59:29Z</time>
      </trkpt>
      <trkpt lat="45.8505170" lon="5.7493240">
        <ele>235.6</ele>
        <time>2022-07-26T11:59:30Z</time>
      </trkpt>
      <trkpt lat="45.8505440" lon="5.7493810">
        <ele>235.6</ele>
        <time>2022-07-26T11:59:31Z</time>
      </trkpt>
      <trkpt lat="45.8505670" lon="5.7494420">
        <ele>235.6</ele>
        <time>2022-07-26T11:59:32Z</time>
      </trkpt>
      <trkpt lat="45.8505850" lon="5.7494990">
        <ele>235.7</ele>
        <time>2022-07-26T11:59:33Z</time>
      </trkpt>
      <trkpt lat="45.8506080" lon="5.7495590">
        <ele>235.7</ele>
        <time>2022-07-26T11:59:34Z</time>
      </trkpt>
      <trkpt lat="45.8506320" lon="5.7496150">
        <ele>235.8</ele>
        <time>2022-07-26T11:59:35Z</time>
      </trkpt>
      <trkpt lat="45.8506330" lon="5.7496620">
        <ele>235.8</ele>
        <time>2022-07-26T11:59:36Z</time>
      </trkpt>
      <trkpt lat="45.8506300" lon="5.7497110">
        <ele>235.8</ele>
        <time>2022-07-26T11:59:37Z</time>
      </trkpt>
      <trkpt lat="45.8506500" lon="5.7497650">
        <ele>235.8</ele>
        <time>2022-07-26T11:59:38Z</time>
      </trkpt>
      <trkpt lat="45.8506980" lon="5.7498380">
        <ele>235.9</ele>
        <time>2022-07-26T11:59:39Z</time>
      </trkpt>
      <trkpt lat="45.8507240" lon="5.7498930">
        <ele>235.9</ele>
        <time>2022-07-26T11:59:40Z</time>
      </trkpt>
      <trkpt lat="45.8507350" lon="5.7499360">
        <ele>235.9</ele>
        <time>2022-07-26T11:59:41Z</time>
      </trkpt>
      <trkpt lat="45.8507470" lon="5.7499910">
        <ele>236.0</ele>
        <time>2022-07-26T11:59:42Z</time>
      </trkpt>
      <trkpt lat="45.8507680" lon="5.7500480">
        <ele>236.0</ele>
        <time>2022-07-26T11:59:43Z</time>
      </trkpt>
      <trkpt lat="45.8507770" lon="5.7500860">
        <ele>236.0</ele>
        <time>2022-07-26T11:59:44Z</time>
      </trkpt>
      <trkpt lat="45.8508000" lon="5.7501700">
        <ele>236.1</ele>
        <time>2022-07-26T11:59:45Z</time>
      </trkpt>
      <trkpt lat="45.8508200" lon="5.7502340">
        <ele>236.1</ele>
        <time>2022-07-26T11:59:46Z</time>
      </trkpt>
      <trkpt lat="45.8508340" lon="5.7502850">
        <ele>236.1</ele>
        <time>2022-07-26T11:59:47Z</time>
      </trkpt>
      <trkpt lat="45.8508520" lon="5.7503190">
        <ele>236.2</ele>
        <time>2022-07-26T11:59:48Z</time>
      </trkpt>
      <trkpt lat="45.8508760" lon="5.7503850">
        <ele>236.2</ele>
        <time>2022-07-26T11:59:49Z</time>
      </trkpt>
      <trkpt lat="45.8508940" lon="5.7504400">
        <ele>236.2</ele>
        <time>2022-07-26T11:59:50Z</time>
      </trkpt>
      <trkpt lat="45.8509150" lon="5.7504660">
        <ele>236.2</ele>
        <time>2022-07-26T11:59:51Z</time>
      </trkpt>
      <trkpt lat="45.8509260" lon="5.7504910">
        <ele>236.2</ele>
        <time>2022-07-26T11:59:52Z</time>
      </trkpt>
      <trkpt lat="45.8509860" lon="5.7506600">
        <ele>236.3</ele>
        <time>2022-07-26T11:59:54Z</time>
      </trkpt>
      <trkpt lat="45.8510080" lon="5.7507200">
        <ele>236.3</ele>
        <time>2022-07-26T11:59:55Z</time>
      </trkpt>
      <trkpt lat="45.8510290" lon="5.7507600">
        <ele>236.3</ele>
        <time>2022-07-26T11:59:56Z</time>
      </trkpt>
      <trkpt lat="45.8510530" lon="5.7507940">
        <ele>236.3</ele>
        <time>2022-07-26T11:59:57Z</time>
      </trkpt>
      <trkpt lat="45.8510760" lon="5.7508630">
        <ele>236.4</ele>
        <time>2022-07-26T11:59:58Z</time>
      </trkpt>
      <trkpt lat="45.8511010" lon="5.7509230">
        <ele>236.4</ele>
        <time>2022-07-26T11:59:59Z</time>
      </trkpt>
      <trkpt lat="45.8511270" lon="5.7509810">
        <ele>236.4</ele>
        <time>2022-07-26T12:00:00Z</time>
      </trkpt>
      <trkpt lat="45.8511470" lon="5.7510270">
        <ele>236.5</ele>
        <time>2022-07-26T12:00:01Z</time>
      </trkpt>
      <trkpt lat="45.8511880" lon="5.7511090">
        <ele>236.5</ele>
        <time>2022-07-26T12:00:02Z</time>
      </trkpt>
      <trkpt lat="45.8512130" lon="5.7511720">
        <ele>236.6</ele>
        <time>2022-07-26T12:00:03Z</time>
      </trkpt>
      <trkpt lat="45.8512400" lon="5.7512340">
        <ele>236.6</ele>
        <time>2022-07-26T12:00:05Z</time>
      </trkpt>
      <trkpt lat="45.8512630" lon="5.7512950">
        <ele>236.6</ele>
        <time>2022-07-26T12:00:06Z</time>
      </trkpt>
      <trkpt lat="45.8512830" lon="5.7513430">
        <ele>236.6</ele>
        <time>2022-07-26T12:00:07Z</time>
      </trkpt>
      <trkpt lat="45.8513270" lon="5.7514540">
        <ele>236.7</ele>
        <time>2022-07-26T12:00:09Z</time>
      </trkpt>
      <trkpt lat="45.8513470" lon="5.7515010">
        <ele>236.7</ele>
        <time>2022-07-26T12:00:10Z</time>
      </trkpt>
      <trkpt lat="45.8513690" lon="5.7515540">
        <ele>236.8</ele>
        <time>2022-07-26T12:00:11Z</time>
      </trkpt>
      <trkpt lat="45.8513870" lon="5.7516000">
        <ele>236.8</ele>
        <time>2022-07-26T12:00:12Z</time>
      </trkpt>
      <trkpt lat="45.8514070" lon="5.7516540">
        <ele>236.8</ele>
        <time>2022-07-26T12:00:13Z</time>
      </trkpt>
      <trkpt lat="45.8514310" lon="5.7517080">
        <ele>236.9</ele>
        <time>2022-07-26T12:00:14Z</time>
      </trkpt>
      <trkpt lat="45.8514540" lon="5.7517600">
        <ele>236.9</ele>
        <time>2022-07-26T12:00:15Z</time>
      </trkpt>
      <trkpt lat="45.8514810" lon="5.7518180">
        <ele>237.0</ele>
        <time>2022-07-26T12:00:16Z</time>
      </trkpt>
      <trkpt lat="45.8515030" lon="5.7518720">
        <ele>237.0</ele>
        <time>2022-07-26T12:00:17Z</time>
      </trkpt>
      <trkpt lat="45.8515260" lon="5.7519260">
        <ele>237.1</ele>
        <time>2022-07-26T12:00:18Z</time>
      </trkpt>
      <trkpt lat="45.8515430" lon="5.7519730">
        <ele>237.1</ele>
        <time>2022-07-26T12:00:19Z</time>
      </trkpt>
      <trkpt lat="45.8515590" lon="5.7520120">
        <ele>237.2</ele>
        <time>2022-07-26T12:00:20Z</time>
      </trkpt>
      <trkpt lat="45.8515750" lon="5.7520450">
        <ele>237.2</ele>
        <time>2022-07-26T12:00:21Z</time>
      </trkpt>
      <trkpt lat="45.8516030" lon="5.7520930">
        <ele>237.3</ele>
        <time>2022-07-26T12:00:22Z</time>
      </trkpt>
      <trkpt lat="45.8516150" lon="5.7521120">
        <ele>237.3</ele>
        <time>2022-07-26T12:00:23Z</time>
      </trkpt>
      <trkpt lat="45.8516350" lon="5.7521570">
        <ele>237.4</ele>
        <time>2022-07-26T12:00:24Z</time>
      </trkpt>
      <trkpt lat="45.8516510" lon="5.7522000">
        <ele>237.4</ele>
        <time>2022-07-26T12:00:25Z</time>
      </trkpt>
      <trkpt lat="45.8516700" lon="5.7522440">
        <ele>237.4</ele>
        <time>2022-07-26T12:00:26Z</time>
      </trkpt>
      <trkpt lat="45.8516760" lon="5.7522580">
        <ele>237.4</ele>
        <time>2022-07-26T12:00:27Z</time>
      </trkpt>
      <trkpt lat="45.8517120" lon="5.7523440">
        <ele>237.5</ele>
        <time>2022-07-26T12:00:28Z</time>
      </trkpt>
      <trkpt lat="45.8517350" lon="5.7524000">
        <ele>237.5</ele>
        <time>2022-07-26T12:00:29Z</time>
      </trkpt>
      <trkpt lat="45.8517510" lon="5.7524860">
        <ele>237.6</ele>
        <time>2022-07-26T12:00:31Z</time>
      </trkpt>
      <trkpt lat="45.8517860" lon="5.7525570">
        <ele>237.6</ele>
        <time>2022-07-26T12:00:32Z</time>
      </trkpt>
      <trkpt lat="45.8518260" lon="5.7526130">
        <ele>237.7</ele>
        <time>2022-07-26T12:00:34Z</time>
      </trkpt>
      <trkpt lat="45.8518480" lon="5.7526770">
        <ele>237.8</ele>
        <time>2022-07-26T12:00:35Z</time>
      </trkpt>
      <trkpt lat="45.8518680" lon="5.7527330">
        <ele>237.9</ele>
        <time>2022-07-26T12:00:36Z</time>
      </trkpt>
      <trkpt lat="45.8518860" lon="5.7527790">
        <ele>237.9</ele>
        <time>2022-07-26T12:00:37Z</time>
      </trkpt>
      <trkpt lat="45.8519030" lon="5.7528340">
        <ele>238.0</ele>
        <time>2022-07-26T12:00:38Z</time>
      </trkpt>
      <trkpt lat="45.8519230" lon="5.7529000">
        <ele>238.1</ele>
        <time>2022-07-26T12:00:40Z</time>
      </trkpt>
      <trkpt lat="45.8519640" lon="5.7529820">
        <ele>238.3</ele>
        <time>2022-07-26T12:00:41Z</time>
      </trkpt>
      <trkpt lat="45.8519830" lon="5.7530070">
        <ele>238.3</ele>
        <time>2022-07-26T12:00:42Z</time>
      </trkpt>
      <trkpt lat="45.8519900" lon="5.7530270">
        <ele>238.4</ele>
        <time>2022-07-26T12:00:43Z</time>
      </trkpt>
      <trkpt lat="45.8520050" lon="5.7530870">
        <ele>238.5</ele>
        <time>2022-07-26T12:00:44Z</time>
      </trkpt>
      <trkpt lat="45.8520280" lon="5.7531680">
        <ele>238.7</ele>
        <time>2022-07-26T12:00:46Z</time>
      </trkpt>
      <trkpt lat="45.8520500" lon="5.7532520">
        <ele>238.8</ele>
        <time>2022-07-26T12:00:47Z</time>
      </trkpt>
      <trkpt lat="45.8520720" lon="5.7533090">
        <ele>239.0</ele>
        <time>2022-07-26T12:00:49Z</time>
      </trkpt>
      <trkpt lat="45.8520880" lon="5.7533510">
        <ele>239.1</ele>
        <time>2022-07-26T12:00:50Z</time>
      </trkpt>
      <trkpt lat="45.8520970" lon="5.7534050">
        <ele>239.2</ele>
        <time>2022-07-26T12:00:51Z</time>
      </trkpt>
      <trkpt lat="45.8521110" lon="5.7534590">
        <ele>239.3</ele>
        <time>2022-07-26T12:00:52Z</time>
      </trkpt>
      <trkpt lat="45.8521290" lon="5.7535180">
        <ele>239.5</ele>
        <time>2022-07-26T12:00:54Z</time>
      </trkpt>
      <trkpt lat="45.8521500" lon="5.7535750">
        <ele>239.6</ele>
        <time>2022-07-26T12:00:55Z</time>
      </trkpt>
      <trkpt lat="45.8521680" lon="5.7536200">
        <ele>239.7</ele>
        <time>2022-07-26T12:00:56Z</time>
      </trkpt>
      <trkpt lat="45.8521850" lon="5.7536590">
        <ele>239.8</ele>
        <time>2022-07-26T12:00:57Z</time>
      </trkpt>
      <trkpt lat="45.8522190" lon="5.7537300">
        <ele>240.0</ele>
        <time>2022-07-26T12:00:59Z</time>
      </trkpt>
      <trkpt lat="45.8522410" lon="5.7537840">
        <ele>240.2</ele>
        <time>2022-07-26T12:01:00Z</time>
      </trkpt>
      <trkpt lat="45.8522630" lon="5.7538370">
        <ele>240.3</ele>
        <time>2022-07-26T12:01:01Z</time>
      </trkpt>
      <trkpt lat="45.8522880" lon="5.7538880">
        <ele>240.5</ele>
        <time>2022-07-26T12:01:02Z</time>
      </trkpt>
      <trkpt lat="45.8523000" lon="5.7539210">
        <ele>240.6</ele>
        <time>2022-07-26T12:01:03Z</time>
      </trkpt>
      <trkpt lat="45.8523180" lon="5.7539830">
        <ele>240.7</ele>
        <time>2022-07-26T12:01:05Z</time>
      </trkpt>
      <trkpt lat="45.8523380" lon="5.7540340">
        <ele>240.9</ele>
        <time>2022-07-26T12:01:06Z</time>
      </trkpt>
      <trkpt lat="45.8523540" lon="5.7540730">
        <ele>241.0</ele>
        <time>2022-07-26T12:01:07Z</time>
      </trkpt>
      <trkpt lat="45.8523630" lon="5.7541090">
        <ele>241.1</ele>
        <time>2022-07-26T12:01:08Z</time>
      </trkpt>
      <trkpt lat="45.8523670" lon="5.7541260">
        <ele>241.1</ele>
        <time>2022-07-26T12:01:09Z</time>
      </trkpt>
      <trkpt lat="45.8523820" lon="5.7541760">
        <ele>241.3</ele>
        <time>2022-07-26T12:01:10Z</time>
      </trkpt>
      <trkpt lat="45.8524000" lon="5.7542180">
        <ele>241.5</ele>
        <time>2022-07-26T12:01:11Z</time>
      </trkpt>
      <trkpt lat="45.8524250" lon="5.7542650">
        <ele>241.7</ele>
        <time>2022-07-26T12:01:12Z</time>
      </trkpt>
      <trkpt lat="45.8524430" lon="5.7543000">
        <ele>241.8</ele>
        <time>2022-07-26T12:01:13Z</time>
      </trkpt>
      <trkpt lat="45.8524660" lon="5.7543450">
        <ele>241.9</ele>
        <time>2022-07-26T12:01:15Z</time>
      </trkpt>
      <trkpt lat="45.8524840" lon="5.7543940">
        <ele>242.1</ele>
        <time>2022-07-26T12:01:16Z</time>
      </trkpt>
      <trkpt lat="45.8524910" lon="5.7544090">
        <ele>242.2</ele>
        <time>2022-07-26T12:01:17Z</time>
      </trkpt>
      <trkpt lat="45.8525120" lon="5.7544530">
        <ele>242.3</ele>
        <time>2022-07-26T12:01:18Z</time>
      </trkpt>
      <trkpt lat="45.8525190" lon="5.7544670">
        <ele>242.4</ele>
        <time>2022-07-26T12:01:19Z</time>
      </trkpt>
      <trkpt lat="45.8525410" lon="5.7545110">
        <ele>242.5</ele>
        <time>2022-07-26T12:01:20Z</time>
      </trkpt>
      <trkpt lat="45.8525490" lon="5.7545260">
        <ele>242.6</ele>
        <time>2022-07-26T12:01:21Z</time>
      </trkpt>
      <trkpt lat="45.8525650" lon="5.7545680">
        <ele>242.7</ele>
        <time>2022-07-26T12:01:22Z</time>
      </trkpt>
      <trkpt lat="45.8525730" lon="5.7546170">
        <ele>242.6</ele>
        <time>2022-07-26T12:01:23Z</time>
      </trkpt>
      <trkpt lat="45.8525760" lon="5.7546700">
        <ele>242.4</ele>
        <time>2022-07-26T12:01:24Z</time>
      </trkpt>
      <trkpt lat="45.8525500" lon="5.7547680">
        <ele>242.2</ele>
        <time>2022-07-26T12:01:25Z</time>
      </trkpt>
      <trkpt lat="45.8525290" lon="5.7548370">
        <ele>242.0</ele>
        <time>2022-07-26T12:01:26Z</time>
      </trkpt>
      <trkpt lat="45.8525170" lon="5.7549080">
        <ele>241.8</ele>
        <time>2022-07-26T12:01:27Z</time>
      </trkpt>
      <trkpt lat="45.8525020" lon="5.7549850">
        <ele>241.6</ele>
        <time>2022-07-26T12:01:28Z</time>
      </trkpt>
      <trkpt lat="45.8524860" lon="5.7550590">
        <ele>241.4</ele>
        <time>2022-07-26T12:01:29Z</time>
      </trkpt>
      <trkpt lat="45.8524790" lon="5.7551450">
        <ele>241.2</ele>
        <time>2022-07-26T12:01:30Z</time>
      </trkpt>
      <trkpt lat="45.8524720" lon="5.7552300">
        <ele>240.9</ele>
        <time>2022-07-26T12:01:31Z</time>
      </trkpt>
      <trkpt lat="45.8524590" lon="5.7553210">
        <ele>240.7</ele>
        <time>2022-07-26T12:01:32Z</time>
      </trkpt>
      <trkpt lat="45.8524440" lon="5.7554160">
        <ele>240.5</ele>
        <time>2022-07-26T12:01:33Z</time>
      </trkpt>
      <trkpt lat="45.8524320" lon="5.7555150">
        <ele>240.2</ele>
        <time>2022-07-26T12:01:34Z</time>
      </trkpt>
      <trkpt lat="45.8524220" lon="5.7556150">
        <ele>240.0</ele>
        <time>2022-07-26T12:01:35Z</time>
      </trkpt>
      <trkpt lat="45.8524140" lon="5.7557180">
        <ele>239.8</ele>
        <time>2022-07-26T12:01:36Z</time>
      </trkpt>
      <trkpt lat="45.8524040" lon="5.7558250">
        <ele>239.7</ele>
        <time>2022-07-26T12:01:37Z</time>
      </trkpt>
      <trkpt lat="45.8523930" lon="5.7559280">
        <ele>239.5</ele>
        <time>2022-07-26T12:01:38Z</time>
      </trkpt>
      <trkpt lat="45.8523790" lon="5.7560340">
        <ele>239.4</ele>
        <time>2022-07-26T12:01:39Z</time>
      </trkpt>
      <trkpt lat="45.8523640" lon="5.7561440">
        <ele>239.2</ele>
        <time>2022-07-26T12:01:40Z</time>
      </trkpt>
      <trkpt lat="45.8523560" lon="5.7562440">
        <ele>239.2</ele>
        <time>2022-07-26T12:01:41Z</time>
      </trkpt>
      <trkpt lat="45.8523460" lon="5.7563500">
        <ele>239.1</ele>
        <time>2022-07-26T12:01:42Z</time>
      </trkpt>
      <trkpt lat="45.8523340" lon="5.7564580">
        <ele>239.0</ele>
        <time>2022-07-26T12:01:43Z</time>
      </trkpt>
      <trkpt lat="45.8523180" lon="5.7565670">
        <ele>238.8</ele>
        <time>2022-07-26T12:01:44Z</time>
      </trkpt>
      <trkpt lat="45.8523070" lon="5.7566780">
        <ele>238.7</ele>
        <time>2022-07-26T12:01:45Z</time>
      </trkpt>
      <trkpt lat="45.8522940" lon="5.7567830">
        <ele>238.5</ele>
        <time>2022-07-26T12:01:46Z</time>
      </trkpt>
      <trkpt lat="45.8522830" lon="5.7568940">
        <ele>238.4</ele>
        <time>2022-07-26T12:01:47Z</time>
      </trkpt>
      <trkpt lat="45.8522750" lon="5.7570020">
        <ele>238.3</ele>
        <time>2022-07-26T12:01:48Z</time>
      </trkpt>
      <trkpt lat="45.8522630" lon="5.7571100">
        <ele>238.3</ele>
        <time>2022-07-26T12:01:49Z</time>
      </trkpt>
      <trkpt lat="45.8522500" lon="5.7572160">
        <ele>238.2</ele>
        <time>2022-07-26T12:01:50Z</time>
      </trkpt>
      <trkpt lat="45.8522410" lon="5.7573200">
        <ele>238.2</ele>
        <time>2022-07-26T12:01:51Z</time>
      </trkpt>
      <trkpt lat="45.8522240" lon="5.7574250">
        <ele>238.1</ele>
        <time>2022-07-26T12:01:52Z</time>
      </trkpt>
      <trkpt lat="45.8522080" lon="5.7575310">
        <ele>238.1</ele>
        <time>2022-07-26T12:01:53Z</time>
      </trkpt>
      <trkpt lat="45.8521980" lon="5.7576350">
        <ele>238.0</ele>
        <time>2022-07-26T12:01:54Z</time>
      </trkpt>
      <trkpt lat="45.8522040" lon="5.7577370">
        <ele>238.0</ele>
        <time>2022-07-26T12:01:55Z</time>
      </trkpt>
      <trkpt lat="45.8521910" lon="5.7578400">
        <ele>237.9</ele>
        <time>2022-07-26T12:01:56Z</time>
      </trkpt>
      <trkpt lat="45.8521710" lon="5.7579350">
        <ele>237.9</ele>
        <time>2022-07-26T12:01:57Z</time>
      </trkpt>
      <trkpt lat="45.8521520" lon="5.7580340">
        <ele>237.8</ele>
        <time>2022-07-26T12:01:58Z</time>
      </trkpt>
      <trkpt lat="45.8521410" lon="5.7581250">
        <ele>237.7</ele>
        <time>2022-07-26T12:01:59Z</time>
      </trkpt>
      <trkpt lat="45.8521230" lon="5.7582190">
        <ele>237.6</ele>
        <time>2022-07-26T12:02:00Z</time>
      </trkpt>
      <trkpt lat="45.8521080" lon="5.7583200">
        <ele>237.6</ele>
        <time>2022-07-26T12:02:01Z</time>
      </trkpt>
      <trkpt lat="45.8520960" lon="5.7584220">
        <ele>237.5</ele>
        <time>2022-07-26T12:02:02Z</time>
      </trkpt>
      <trkpt lat="45.8520740" lon="5.7585220">
        <ele>237.4</ele>
        <time>2022-07-26T12:02:03Z</time>
      </trkpt>
      <trkpt lat="45.8520530" lon="5.7586100">
        <ele>237.3</ele>
        <time>2022-07-26T12:02:04Z</time>
      </trkpt>
      <trkpt lat="45.8520340" lon="5.7586950">
        <ele>237.3</ele>
        <time>2022-07-26T12:02:05Z</time>
      </trkpt>
      <trkpt lat="45.8520060" lon="5.7587870">
        <ele>237.2</ele>
        <time>2022-07-26T12:02:06Z</time>
      </trkpt>
      <trkpt lat="45.8519710" lon="5.7588810">
        <ele>237.1</ele>
        <time>2022-07-26T12:02:07Z</time>
      </trkpt>
      <trkpt lat="45.8519410" lon="5.7589720">
        <ele>237.0</ele>
        <time>2022-07-26T12:02:08Z</time>
      </trkpt>
      <trkpt lat="45.8519200" lon="5.7590650">
        <ele>237.0</ele>
        <time>2022-07-26T12:02:09Z</time>
      </trkpt>
      <trkpt lat="45.8518950" lon="5.7591650">
        <ele>236.9</ele>
        <time>2022-07-26T12:02:10Z</time>
      </trkpt>
      <trkpt lat="45.8518610" lon="5.7592570">
        <ele>236.8</ele>
        <time>2022-07-26T12:02:11Z</time>
      </trkpt>
      <trkpt lat="45.8518290" lon="5.7593480">
        <ele>236.8</ele>
        <time>2022-07-26T12:02:12Z</time>
      </trkpt>
      <trkpt lat="45.8518010" lon="5.7594380">
        <ele>236.8</ele>
        <time>2022-07-26T12:02:13Z</time>
      </trkpt>
      <trkpt lat="45.8517710" lon="5.7595170">
        <ele>236.8</ele>
        <time>2022-07-26T12:02:14Z</time>
      </trkpt>
      <trkpt lat="45.8517400" lon="5.7595990">
        <ele>236.8</ele>
        <time>2022-07-26T12:02:15Z</time>
      </trkpt>
      <trkpt lat="45.8517030" lon="5.7596870">
        <ele>236.8</ele>
        <time>2022-07-26T12:02:16Z</time>
      </trkpt>
      <trkpt lat="45.8516610" lon="5.7597790">
        <ele>236.8</ele>
        <time>2022-07-26T12:02:17Z</time>
      </trkpt>
      <trkpt lat="45.8516200" lon="5.7598570">
        <ele>236.8</ele>
        <time>2022-07-26T12:02:18Z</time>
      </trkpt>
      <trkpt lat="45.8515830" lon="5.7599310">
        <ele>236.8</ele>
        <time>2022-07-26T12:02:19Z</time>
      </trkpt>
      <trkpt lat="45.8515470" lon="5.7600070">
        <ele>236.8</ele>
        <time>2022-07-26T12:02:20Z</time>
      </trkpt>
      <trkpt lat="45.8515100" lon="5.7600800">
        <ele>236.8</ele>
        <time>2022-07-26T12:02:21Z</time>
      </trkpt>
      <trkpt lat="45.8514730" lon="5.7601570">
        <ele>236.9</ele>
        <time>2022-07-26T12:02:22Z</time>
      </trkpt>
      <trkpt lat="45.8514360" lon="5.7602270">
        <ele>236.9</ele>
        <time>2022-07-26T12:02:23Z</time>
      </trkpt>
      <trkpt lat="45.8514000" lon="5.7602940">
        <ele>237.0</ele>
        <time>2022-07-26T12:02:24Z</time>
      </trkpt>
      <trkpt lat="45.8513650" lon="5.7603630">
        <ele>237.1</ele>
        <time>2022-07-26T12:02:25Z</time>
      </trkpt>
      <trkpt lat="45.8513290" lon="5.7604320">
        <ele>237.2</ele>
        <time>2022-07-26T12:02:26Z</time>
      </trkpt>
      <trkpt lat="45.8512980" lon="5.7604990">
        <ele>237.3</ele>
        <time>2022-07-26T12:02:27Z</time>
      </trkpt>
      <trkpt lat="45.8512730" lon="5.7605650">
        <ele>237.4</ele>
        <time>2022-07-26T12:02:28Z</time>
      </trkpt>
      <trkpt lat="45.8512410" lon="5.7606300">
        <ele>237.5</ele>
        <time>2022-07-26T12:02:29Z</time>
      </trkpt>
      <trkpt lat="45.8512120" lon="5.7606930">
        <ele>237.6</ele>
        <time>2022-07-26T12:02:30Z</time>
      </trkpt>
      <trkpt lat="45.8511760" lon="5.7607530">
        <ele>237.7</ele>
        <time>2022-07-26T12:02:31Z</time>
      </trkpt>
      <trkpt lat="45.8511470" lon="5.7608100">
        <ele>237.8</ele>
        <time>2022-07-26T12:02:32Z</time>
      </trkpt>
      <trkpt lat="45.8511090" lon="5.7608640">
        <ele>237.9</ele>
        <time>2022-07-26T12:02:33Z</time>
      </trkpt>
      <trkpt lat="45.8510680" lon="5.7609270">
        <ele>238.0</ele>
        <time>2022-07-26T12:02:34Z</time>
      </trkpt>
      <trkpt lat="45.8510310" lon="5.7609850">
        <ele>238.1</ele>
        <time>2022-07-26T12:02:35Z</time>
      </trkpt>
      <trkpt lat="45.8509900" lon="5.7610430">
        <ele>238.2</ele>
        <time>2022-07-26T12:02:36Z</time>
      </trkpt>
      <trkpt lat="45.8509570" lon="5.7610910">
        <ele>238.3</ele>
        <time>2022-07-26T12:02:37Z</time>
      </trkpt>
      <trkpt lat="45.8509350" lon="5.7611330">
        <ele>238.4</ele>
        <time>2022-07-26T12:02:38Z</time>
      </trkpt>
      <trkpt lat="45.8509060" lon="5.7611890">
        <ele>238.5</ele>
        <time>2022-07-26T12:02:39Z</time>
      </trkpt>
      <trkpt lat="45.8508840" lon="5.7612480">
        <ele>238.5</ele>
        <time>2022-07-26T12:02:40Z</time>
      </trkpt>
      <trkpt lat="45.8508570" lon="5.7612990">
        <ele>238.6</ele>
        <time>2022-07-26T12:02:41Z</time>
      </trkpt>
      <trkpt lat="45.8508280" lon="5.7613510">
        <ele>238.7</ele>
        <time>2022-07-26T12:02:42Z</time>
      </trkpt>
      <trkpt lat="45.8508060" lon="5.7613860">
        <ele>238.7</ele>
        <time>2022-07-26T12:02:43Z</time>
      </trkpt>
      <trkpt lat="45.8507700" lon="5.7614440">
        <ele>238.8</ele>
        <time>2022-07-26T12:02:44Z</time>
      </trkpt>
      <trkpt lat="45.8507460" lon="5.7614990">
        <ele>238.8</ele>
        <time>2022-07-26T12:02:45Z</time>
      </trkpt>
      <trkpt lat="45.8507200" lon="5.7615550">
        <ele>238.8</ele>
        <time>2022-07-26T12:02:46Z</time>
      </trkpt>
      <trkpt lat="45.8506950" lon="5.7616090">
        <ele>238.9</ele>
        <time>2022-07-26T12:02:47Z</time>
      </trkpt>
      <trkpt lat="45.8506630" lon="5.7616670">
        <ele>238.9</ele>
        <time>2022-07-26T12:02:48Z</time>
      </trkpt>
      <trkpt lat="45.8506290" lon="5.7617300">
        <ele>238.9</ele>
        <time>2022-07-26T12:02:49Z</time>
      </trkpt>
      <trkpt lat="45.8505980" lon="5.7617930">
        <ele>238.9</ele>
        <time>2022-07-26T12:02:50Z</time>
      </trkpt>
      <trkpt lat="45.8505800" lon="5.7618650">
        <ele>238.9</ele>
        <time>2022-07-26T12:02:51Z</time>
      </trkpt>
      <trkpt lat="45.8505470" lon="5.7619320">
        <ele>238.9</ele>
        <time>2022-07-26T12:02:52Z</time>
      </trkpt>
      <trkpt lat="45.8505140" lon="5.7620020">
        <ele>238.9</ele>
        <time>2022-07-26T12:02:53Z</time>
      </trkpt>
      <trkpt lat="45.8504880" lon="5.7620640">
        <ele>238.9</ele>
        <time>2022-07-26T12:02:54Z</time>
      </trkpt>
      <trkpt lat="45.8504640" lon="5.7621140">
        <ele>238.9</ele>
        <time>2022-07-26T12:02:55Z</time>
      </trkpt>
      <trkpt lat="45.8504340" lon="5.7621710">
        <ele>238.8</ele>
        <time>2022-07-26T12:02:56Z</time>
      </trkpt>
      <trkpt lat="45.8504120" lon="5.7622290">
        <ele>238.8</ele>
        <time>2022-07-26T12:02:57Z</time>
      </trkpt>
      <trkpt lat="45.8503820" lon="5.7622910">
        <ele>238.8</ele>
        <time>2022-07-26T12:02:58Z</time>
      </trkpt>
      <trkpt lat="45.8503440" lon="5.7623510">
        <ele>238.8</ele>
        <time>2022-07-26T12:02:59Z</time>
      </trkpt>
      <trkpt lat="45.8503160" lon="5.7624160">
        <ele>238.8</ele>
        <time>2022-07-26T12:03:00Z</time>
      </trkpt>
      <trkpt lat="45.8502890" lon="5.7624830">
        <ele>238.9</ele>
        <time>2022-07-26T12:03:01Z</time>
      </trkpt>
      <trkpt lat="45.8502580" lon="5.7625500">
        <ele>238.9</ele>
        <time>2022-07-26T12:03:02Z</time>
      </trkpt>
      <trkpt lat="45.8502240" lon="5.7626190">
        <ele>238.9</ele>
        <time>2022-07-26T12:03:03Z</time>
      </trkpt>
      <trkpt lat="45.8501920" lon="5.7626880">
        <ele>238.9</ele>
        <time>2022-07-26T12:03:04Z</time>
      </trkpt>
      <trkpt lat="45.8501670" lon="5.7627470">
        <ele>239.0</ele>
        <time>2022-07-26T12:03:05Z</time>
      </trkpt>
      <trkpt lat="45.8501420" lon="5.7628020">
        <ele>239.0</ele>
        <time>2022-07-26T12:03:06Z</time>
      </trkpt>
      <trkpt lat="45.8501180" lon="5.7628580">
        <ele>239.0</ele>
        <time>2022-07-26T12:03:07Z</time>
      </trkpt>
      <trkpt lat="45.8500930" lon="5.7629330">
        <ele>239.1</ele>
        <time>2022-07-26T12:03:08Z</time>
      </trkpt>
      <trkpt lat="45.8500620" lon="5.7630000">
        <ele>239.1</ele>
        <time>2022-07-26T12:03:09Z</time>
      </trkpt>
      <trkpt lat="45.8500330" lon="5.7630650">
        <ele>239.1</ele>
        <time>2022-07-26T12:03:10Z</time>
      </trkpt>
      <trkpt lat="45.8500060" lon="5.7631320">
        <ele>239.2</ele>
        <time>2022-07-26T12:03:11Z</time>
      </trkpt>
      <trkpt lat="45.8499800" lon="5.7631970">
        <ele>239.2</ele>
        <time>2022-07-26T12:03:12Z</time>
      </trkpt>
      <trkpt lat="45.8499470" lon="5.7632640">
        <ele>239.2</ele>
        <time>2022-07-26T12:03:13Z</time>
      </trkpt>
      <trkpt lat="45.8499060" lon="5.7633310">
        <ele>239.3</ele>
        <time>2022-07-26T12:03:14Z</time>
      </trkpt>
      <trkpt lat="45.8498680" lon="5.7633960">
        <ele>239.3</ele>
        <time>2022-07-26T12:03:15Z</time>
      </trkpt>
      <trkpt lat="45.8498340" lon="5.7634550">
        <ele>239.3</ele>
        <time>2022-07-26T12:03:16Z</time>
      </trkpt>
      <trkpt lat="45.8498070" lon="5.7635080">
        <ele>239.3</ele>
        <time>2022-07-26T12:03:17Z</time>
      </trkpt>
      <trkpt lat="45.8497820" lon="5.7635660">
        <ele>239.3</ele>
        <time>2022-07-26T12:03:18Z</time>
      </trkpt>
      <trkpt lat="45.8497600" lon="5.7636350">
        <ele>239.3</ele>
        <time>2022-07-26T12:03:19Z</time>
      </trkpt>
      <trkpt lat="45.8497420" lon="5.7636950">
        <ele>239.2</ele>
        <time>2022-07-26T12:03:20Z</time>
      </trkpt>
      <trkpt lat="45.8497130" lon="5.7637550">
        <ele>239.2</ele>
        <time>2022-07-26T12:03:21Z</time>
      </trkpt>
      <trkpt lat="45.8496850" lon="5.7638080">
        <ele>239.2</ele>
        <time>2022-07-26T12:03:22Z</time>
      </trkpt>
      <trkpt lat="45.8496610" lon="5.7638610">
        <ele>239.1</ele>
        <time>2022-07-26T12:03:23Z</time>
      </trkpt>
      <trkpt lat="45.8496330" lon="5.7639280">
        <ele>239.1</ele>
        <time>2022-07-26T12:03:24Z</time>
      </trkpt>
      <trkpt lat="45.8496080" lon="5.7640160">
        <ele>239.0</ele>
        <time>2022-07-26T12:03:25Z</time>
      </trkpt>
      <trkpt lat="45.8495770" lon="5.7640960">
        <ele>238.9</ele>
        <time>2022-07-26T12:03:26Z</time>
      </trkpt>
      <trkpt lat="45.8495420" lon="5.7641740">
        <ele>238.8</ele>
        <time>2022-07-26T12:03:27Z</time>
      </trkpt>
      <trkpt lat="45.8495090" lon="5.7642530">
        <ele>238.7</ele>
        <time>2022-07-26T12:03:28Z</time>
      </trkpt>
      <trkpt lat="45.8494730" lon="5.7643380">
        <ele>238.6</ele>
        <time>2022-07-26T12:03:29Z</time>
      </trkpt>
      <trkpt lat="45.8494460" lon="5.7644030">
        <ele>238.5</ele>
        <time>2022-07-26T12:03:30Z</time>
      </trkpt>
      <trkpt lat="45.8494200" lon="5.7644700">
        <ele>238.4</ele>
        <time>2022-07-26T12:03:31Z</time>
      </trkpt>
      <trkpt lat="45.8493940" lon="5.7645470">
        <ele>238.4</ele>
        <time>2022-07-26T12:03:32Z</time>
      </trkpt>
      <trkpt lat="45.8493620" lon="5.7646220">
        <ele>238.3</ele>
        <time>2022-07-26T12:03:33Z</time>
      </trkpt>
      <trkpt lat="45.8493270" lon="5.7646960">
        <ele>238.2</ele>
        <time>2022-07-26T12:03:34Z</time>
      </trkpt>
      <trkpt lat="45.8493010" lon="5.7647670">
        <ele>238.2</ele>
        <time>2022-07-26T12:03:35Z</time>
      </trkpt>
      <trkpt lat="45.8492770" lon="5.7648390">
        <ele>238.1</ele>
        <time>2022-07-26T12:03:36Z</time>
      </trkpt>
      <trkpt lat="45.8492470" lon="5.7649100">
        <ele>238.0</ele>
        <time>2022-07-26T12:03:37Z</time>
      </trkpt>
      <trkpt lat="45.8492190" lon="5.7649760">
        <ele>238.0</ele>
        <time>2022-07-26T12:03:38Z</time>
      </trkpt>
      <trkpt lat="45.8491900" lon="5.7650540">
        <ele>237.9</ele>
        <time>2022-07-26T12:03:39Z</time>
      </trkpt>
      <trkpt lat="45.8491610" lon="5.7651270">
        <ele>237.8</ele>
        <time>2022-07-26T12:03:40Z</time>
      </trkpt>
      <trkpt lat="45.8491270" lon="5.7652020">
        <ele>237.7</ele>
        <time>2022-07-26T12:03:41Z</time>
      </trkpt>
      <trkpt lat="45.8490870" lon="5.7652840">
        <ele>237.6</ele>
        <time>2022-07-26T12:03:42Z</time>
      </trkpt>
      <trkpt lat="45.8490460" lon="5.7653630">
        <ele>237.5</ele>
        <time>2022-07-26T12:03:43Z</time>
      </trkpt>
      <trkpt lat="45.8490140" lon="5.7654390">
        <ele>237.4</ele>
        <time>2022-07-26T12:03:44Z</time>
      </trkpt>
      <trkpt lat="45.8489790" lon="5.7655170">
        <ele>237.3</ele>
        <time>2022-07-26T12:03:45Z</time>
      </trkpt>
      <trkpt lat="45.8489470" lon="5.7655970">
        <ele>237.3</ele>
        <time>2022-07-26T12:03:46Z</time>
      </trkpt>
      <trkpt lat="45.8489090" lon="5.7656770">
        <ele>237.2</ele>
        <time>2022-07-26T12:03:47Z</time>
      </trkpt>
      <trkpt lat="45.8488700" lon="5.7657520">
        <ele>237.1</ele>
        <time>2022-07-26T12:03:48Z</time>
      </trkpt>
      <trkpt lat="45.8488330" lon="5.7658200">
        <ele>237.1</ele>
        <time>2022-07-26T12:03:49Z</time>
      </trkpt>
      <trkpt lat="45.8487970" lon="5.7658960">
        <ele>237.1</ele>
        <time>2022-07-26T12:03:50Z</time>
      </trkpt>
      <trkpt lat="45.8487630" lon="5.7659780">
        <ele>237.0</ele>
        <time>2022-07-26T12:03:51Z</time>
      </trkpt>
      <trkpt lat="45.8487270" lon="5.7660600">
        <ele>237.0</ele>
        <time>2022-07-26T12:03:52Z</time>
      </trkpt>
      <trkpt lat="45.8486930" lon="5.7661370">
        <ele>237.0</ele>
        <time>2022-07-26T12:03:53Z</time>
      </trkpt>
      <trkpt lat="45.8486560" lon="5.7662100">
        <ele>237.0</ele>
        <time>2022-07-26T12:03:54Z</time>
      </trkpt>
      <trkpt lat="45.8486160" lon="5.7662850">
        <ele>236.9</ele>
        <time>2022-07-26T12:03:55Z</time>
      </trkpt>
      <trkpt lat="45.8485830" lon="5.7663550">
        <ele>236.9</ele>
        <time>2022-07-26T12:03:56Z</time>
      </trkpt>
      <trkpt lat="45.8485510" lon="5.7664260">
        <ele>236.9</ele>
        <time>2022-07-26T12:03:57Z</time>
      </trkpt>
      <trkpt lat="45.8485190" lon="5.7664960">
        <ele>236.8</ele>
        <time>2022-07-26T12:03:58Z</time>
      </trkpt>
      <trkpt lat="45.8484810" lon="5.7665610">
        <ele>236.8</ele>
        <time>2022-07-26T12:03:59Z</time>
      </trkpt>
      <trkpt lat="45.8484430" lon="5.7666260">
        <ele>236.8</ele>
        <time>2022-07-26T12:04:00Z</time>
      </trkpt>
      <trkpt lat="45.8484150" lon="5.7666950">
        <ele>236.8</ele>
        <time>2022-07-26T12:04:01Z</time>
      </trkpt>
      <trkpt lat="45.8483880" lon="5.7667650">
        <ele>236.8</ele>
        <time>2022-07-26T12:04:02Z</time>
      </trkpt>
      <trkpt lat="45.8483560" lon="5.7668400">
        <ele>236.8</ele>
        <time>2022-07-26T12:04:03Z</time>
      </trkpt>
      <trkpt lat="45.8483290" lon="5.7669100">
        <ele>236.8</ele>
        <time>2022-07-26T12:04:04Z</time>
      </trkpt>
      <trkpt lat="45.8483020" lon="5.7669780">
        <ele>236.8</ele>
        <time>2022-07-26T12:04:05Z</time>
      </trkpt>
      <trkpt lat="45.8482670" lon="5.7670450">
        <ele>236.9</ele>
        <time>2022-07-26T12:04:06Z</time>
      </trkpt>
      <trkpt lat="45.8482320" lon="5.7671170">
        <ele>236.9</ele>
        <time>2022-07-26T12:04:07Z</time>
      </trkpt>
      <trkpt lat="45.8482060" lon="5.7671900">
        <ele>236.9</ele>
        <time>2022-07-26T12:04:08Z</time>
      </trkpt>
      <trkpt lat="45.8481730" lon="5.7672620">
        <ele>237.0</ele>
        <time>2022-07-26T12:04:09Z</time>
      </trkpt>
      <trkpt lat="45.8481400" lon="5.7673320">
        <ele>237.0</ele>
        <time>2022-07-26T12:04:10Z</time>
      </trkpt>
      <trkpt lat="45.8481040" lon="5.7674060">
        <ele>237.1</ele>
        <time>2022-07-26T12:04:11Z</time>
      </trkpt>
      <trkpt lat="45.8480690" lon="5.7674770">
        <ele>237.2</ele>
        <time>2022-07-26T12:04:12Z</time>
      </trkpt>
      <trkpt lat="45.8480380" lon="5.7675500">
        <ele>237.2</ele>
        <time>2022-07-26T12:04:13Z</time>
      </trkpt>
      <trkpt lat="45.8480120" lon="5.7676240">
        <ele>237.3</ele>
        <time>2022-07-26T12:04:14Z</time>
      </trkpt>
      <trkpt lat="45.8479920" lon="5.7676950">
        <ele>237.4</ele>
        <time>2022-07-26T12:04:15Z</time>
      </trkpt>
      <trkpt lat="45.8479720" lon="5.7677660">
        <ele>237.5</ele>
        <time>2022-07-26T12:04:16Z</time>
      </trkpt>
      <trkpt lat="45.8479540" lon="5.7678420">
        <ele>237.6</ele>
        <time>2022-07-26T12:04:17Z</time>
      </trkpt>
      <trkpt lat="45.8479430" lon="5.7679050">
        <ele>237.7</ele>
        <time>2022-07-26T12:04:18Z</time>
      </trkpt>
      <trkpt lat="45.8479210" lon="5.7679710">
        <ele>237.9</ele>
        <time>2022-07-26T12:04:19Z</time>
      </trkpt>
      <trkpt lat="45.8479030" lon="5.7680350">
        <ele>238.0</ele>
        <time>2022-07-26T12:04:20Z</time>
      </trkpt>
      <trkpt lat="45.8478820" lon="5.7680980">
        <ele>238.2</ele>
        <time>2022-07-26T12:04:21Z</time>
      </trkpt>
      <trkpt lat="45.8478710" lon="5.7681570">
        <ele>238.3</ele>
        <time>2022-07-26T12:04:22Z</time>
      </trkpt>
      <trkpt lat="45.8478570" lon="5.7682050">
        <ele>238.4</ele>
        <time>2022-07-26T12:04:23Z</time>
      </trkpt>
      <trkpt lat="45.8478370" lon="5.7682450">
        <ele>238.5</ele>
        <time>2022-07-26T12:04:24Z</time>
      </trkpt>
      <trkpt lat="45.8478190" lon="5.7682800">
        <ele>238.6</ele>
        <time>2022-07-26T12:04:25Z</time>
      </trkpt>
      <trkpt lat="45.8477980" lon="5.7683180">
        <ele>238.7</ele>
        <time>2022-07-26T12:04:26Z</time>
      </trkpt>
      <trkpt lat="45.8477910" lon="5.7683250">
        <ele>238.7</ele>
        <time>2022-07-26T12:04:27Z</time>
      </trkpt>
      <trkpt lat="45.8477650" lon="5.7683510">
        <ele>238.8</ele>
        <time>2022-07-26T12:04:28Z</time>
      </trkpt>
      <trkpt lat="45.8477400" lon="5.7683790">
        <ele>238.8</ele>
        <time>2022-07-26T12:04:29Z</time>
      </trkpt>
      <trkpt lat="45.8477100" lon="5.7684040">
        <ele>238.8</ele>
        <time>2022-07-26T12:04:30Z</time>
      </trkpt>
      <trkpt lat="45.8476770" lon="5.7684270">
        <ele>238.7</ele>
        <time>2022-07-26T12:04:31Z</time>
      </trkpt>
      <trkpt lat="45.8476420" lon="5.7684500">
        <ele>238.7</ele>
        <time>2022-07-26T12:04:32Z</time>
      </trkpt>
      <trkpt lat="45.8476090" lon="5.7684820">
        <ele>238.7</ele>
        <time>2022-07-26T12:04:33Z</time>
      </trkpt>
      <trkpt lat="45.8475930" lon="5.7685150">
        <ele>238.7</ele>
        <time>2022-07-26T12:04:34Z</time>
      </trkpt>
      <trkpt lat="45.8475720" lon="5.7685530">
        <ele>238.7</ele>
        <time>2022-07-26T12:04:35Z</time>
      </trkpt>
      <trkpt lat="45.8475550" lon="5.7686070">
        <ele>238.8</ele>
        <time>2022-07-26T12:04:36Z</time>
      </trkpt>
      <trkpt lat="45.8475510" lon="5.7686540">
        <ele>238.8</ele>
        <time>2022-07-26T12:04:37Z</time>
      </trkpt>
      <trkpt lat="45.8475460" lon="5.7687010">
        <ele>238.8</ele>
        <time>2022-07-26T12:04:38Z</time>
      </trkpt>
      <trkpt lat="45.8475440" lon="5.7687450">
        <ele>238.8</ele>
        <time>2022-07-26T12:04:39Z</time>
      </trkpt>
      <trkpt lat="45.8475430" lon="5.7687890">
        <ele>238.9</ele>
        <time>2022-07-26T12:04:40Z</time>
      </trkpt>
      <trkpt lat="45.8475400" lon="5.7688440">
        <ele>238.9</ele>
        <time>2022-07-26T12:04:41Z</time>
      </trkpt>
      <trkpt lat="45.8475390" lon="5.7688600">
        <ele>238.9</ele>
        <time>2022-07-26T12:04:42Z</time>
      </trkpt>
      <trkpt lat="45.8475390" lon="5.7688880">
        <ele>238.9</ele>
        <time>2022-07-26T12:04:43Z</time>
      </trkpt>
      <trkpt lat="45.8475400" lon="5.7688930">
        <ele>238.9</ele>
        <time>2022-07-26T12:04:44Z</time>
      </trkpt>
      <trkpt lat="45.8475400" lon="5.7688800">
        <ele>239.0</ele>
        <time>2022-07-26T12:04:45Z</time>
      </trkpt>
      <trkpt lat="45.8475390" lon="5.7688680">
        <ele>239.0</ele>
        <time>2022-07-26T12:04:46Z</time>
      </trkpt>
      <trkpt lat="45.8475380" lon="5.7688620">
        <ele>239.0</ele>
        <time>2022-07-26T12:04:47Z</time>
      </trkpt>
      <trkpt lat="45.8475370" lon="5.7688600">
        <ele>239.0</ele>
        <time>2022-07-26T12:04:48Z</time>
      </trkpt>
      <trkpt lat="45.8475360" lon="5.7688570">
        <ele>239.0</ele>
        <time>2022-07-26T12:04:49Z</time>
      </trkpt>
      <trkpt lat="45.8475360" lon="5.7688540">
        <ele>239.0</ele>
        <time>2022-07-26T12:04:50Z</time>
      </trkpt>
      <trkpt lat="45.8475350" lon="5.7688520">
        <ele>239.0</ele>
        <time>2022-07-26T12:04:51Z</time>
      </trkpt>
      <trkpt lat="45.8475330" lon="5.7688500">
        <ele>239.0</ele>
        <time>2022-07-26T12:04:52Z</time>
      </trkpt>
      <trkpt lat="45.8475310" lon="5.7688490">
        <ele>239.0</ele>
        <time>2022-07-26T12:04:53Z</time>
      </trkpt>
      <trkpt lat="45.8475310" lon="5.7688480">
        <ele>239.0</ele>
        <time>2022-07-26T12:04:54Z</time>
      </trkpt>
      <trkpt lat="45.8475300" lon="5.7688480">
        <ele>239.0</ele>
        <time>2022-07-26T12:04:55Z</time>
      </trkpt>
      <trkpt lat="45.8475300" lon="5.7688480">
        <ele>239.0</ele>
        <time>2022-07-26T12:04:56Z</time>
      </trkpt>
      <trkpt lat="45.8475300" lon="5.7688400">
        <ele>239.0</ele>
        <time>2022-07-26T12:04:57Z</time>
      </trkpt>
      <trkpt lat="45.8475770" lon="5.7688400">
        <ele>239.0</ele>
        <time>2022-07-26T12:05:04Z</time>
      </trkpt>
      <trkpt lat="45.8475870" lon="5.7688250">
        <ele>239.0</ele>
        <time>2022-07-26T12:05:05Z</time>
      </trkpt>
      <trkpt lat="45.8475990" lon="5.7688170">
        <ele>239.1</ele>
        <time>2022-07-26T12:05:06Z</time>
      </trkpt>
      <trkpt lat="45.8476330" lon="5.7688350">
        <ele>239.1</ele>
        <time>2022-07-26T12:05:07Z</time>
      </trkpt>
      <trkpt lat="45.8476420" lon="5.7688430">
        <ele>239.1</ele>
        <time>2022-07-26T12:05:08Z</time>
      </trkpt>
      <trkpt lat="45.8476710" lon="5.7688720">
        <ele>239.1</ele>
        <time>2022-07-26T12:05:09Z</time>
      </trkpt>
      <trkpt lat="45.8476810" lon="5.7688830">
        <ele>239.1</ele>
        <time>2022-07-26T12:05:10Z</time>
      </trkpt>
      <trkpt lat="45.8477320" lon="5.7689140">
        <ele>239.2</ele>
        <time>2022-07-26T12:05:12Z</time>
      </trkpt>
      <trkpt lat="45.8477620" lon="5.7689200">
        <ele>239.2</ele>
        <time>2022-07-26T12:05:13Z</time>
      </trkpt>
      <trkpt lat="45.8478060" lon="5.7689400">
        <ele>239.3</ele>
        <time>2022-07-26T12:05:14Z</time>
      </trkpt>
      <trkpt lat="45.8478590" lon="5.7689870">
        <ele>239.6</ele>
        <time>2022-07-26T12:05:16Z</time>
      </trkpt>
      <trkpt lat="45.8478830" lon="5.7690250">
        <ele>239.7</ele>
        <time>2022-07-26T12:05:17Z</time>
      </trkpt>
      <trkpt lat="45.8479020" lon="5.7690680">
        <ele>239.9</ele>
        <time>2022-07-26T12:05:18Z</time>
      </trkpt>
      <trkpt lat="45.8479180" lon="5.7691120">
        <ele>240.0</ele>
        <time>2022-07-26T12:05:19Z</time>
      </trkpt>
      <trkpt lat="45.8479330" lon="5.7691600">
        <ele>240.2</ele>
        <time>2022-07-26T12:05:20Z</time>
      </trkpt>
      <trkpt lat="45.8479480" lon="5.7692070">
        <ele>240.3</ele>
        <time>2022-07-26T12:05:21Z</time>
      </trkpt>
      <trkpt lat="45.8479650" lon="5.7692550">
        <ele>240.5</ele>
        <time>2022-07-26T12:05:22Z</time>
      </trkpt>
      <trkpt lat="45.8479790" lon="5.7692920">
        <ele>240.6</ele>
        <time>2022-07-26T12:05:23Z</time>
      </trkpt>
      <trkpt lat="45.8479890" lon="5.7693310">
        <ele>240.8</ele>
        <time>2022-07-26T12:05:24Z</time>
      </trkpt>
      <trkpt lat="45.8479970" lon="5.7693740">
        <ele>240.9</ele>
        <time>2022-07-26T12:05:25Z</time>
      </trkpt>
      <trkpt lat="45.8480060" lon="5.7694260">
        <ele>241.1</ele>
        <time>2022-07-26T12:05:26Z</time>
      </trkpt>
      <trkpt lat="45.8480140" lon="5.7694780">
        <ele>241.3</ele>
        <time>2022-07-26T12:05:27Z</time>
      </trkpt>
      <trkpt lat="45.8480240" lon="5.7695240">
        <ele>241.4</ele>
        <time>2022-07-26T12:05:28Z</time>
      </trkpt>
      <trkpt lat="45.8480330" lon="5.7695680">
        <ele>241.6</ele>
        <time>2022-07-26T12:05:29Z</time>
      </trkpt>
      <trkpt lat="45.8480410" lon="5.7696150">
        <ele>241.8</ele>
        <time>2022-07-26T12:05:30Z</time>
      </trkpt>
      <trkpt lat="45.8480480" lon="5.7696620">
        <ele>241.9</ele>
        <time>2022-07-26T12:05:31Z</time>
      </trkpt>
      <trkpt lat="45.8480550" lon="5.7697050">
        <ele>242.0</ele>
        <time>2022-07-26T12:05:32Z</time>
      </trkpt>
      <trkpt lat="45.8480620" lon="5.7697480">
        <ele>242.0</ele>
        <time>2022-07-26T12:05:33Z</time>
      </trkpt>
      <trkpt lat="45.8480710" lon="5.7697930">
        <ele>242.1</ele>
        <time>2022-07-26T12:05:34Z</time>
      </trkpt>
      <trkpt lat="45.8480770" lon="5.7698360">
        <ele>242.2</ele>
        <time>2022-07-26T12:05:35Z</time>
      </trkpt>
      <trkpt lat="45.8480840" lon="5.7698790">
        <ele>242.2</ele>
        <time>2022-07-26T12:05:36Z</time>
      </trkpt>
      <trkpt lat="45.8480910" lon="5.7699250">
        <ele>242.3</ele>
        <time>2022-07-26T12:05:37Z</time>
      </trkpt>
      <trkpt lat="45.8480980" lon="5.7699700">
        <ele>242.4</ele>
        <time>2022-07-26T12:05:38Z</time>
      </trkpt>
      <trkpt lat="45.8481040" lon="5.7700220">
        <ele>242.6</ele>
        <time>2022-07-26T12:05:39Z</time>
      </trkpt>
      <trkpt lat="45.8481060" lon="5.7700410">
        <ele>242.6</ele>
        <time>2022-07-26T12:05:40Z</time>
      </trkpt>
      <trkpt lat="45.8481130" lon="5.7700870">
        <ele>242.7</ele>
        <time>2022-07-26T12:05:41Z</time>
      </trkpt>
      <trkpt lat="45.8481200" lon="5.7701280">
        <ele>242.8</ele>
        <time>2022-07-26T12:05:42Z</time>
      </trkpt>
      <trkpt lat="45.8481280" lon="5.7701680">
        <ele>242.9</ele>
        <time>2022-07-26T12:05:43Z</time>
      </trkpt>
      <trkpt lat="45.8481360" lon="5.7702170">
        <ele>243.1</ele>
        <time>2022-07-26T12:05:44Z</time>
      </trkpt>
      <trkpt lat="45.8481460" lon="5.7702670">
        <ele>243.2</ele>
        <time>2022-07-26T12:05:45Z</time>
      </trkpt>
      <trkpt lat="45.8481550" lon="5.7703120">
        <ele>243.3</ele>
        <time>2022-07-26T12:05:46Z</time>
      </trkpt>
      <trkpt lat="45.8481640" lon="5.7703550">
        <ele>243.4</ele>
        <time>2022-07-26T12:05:47Z</time>
      </trkpt>
      <trkpt lat="45.8481740" lon="5.7704010">
        <ele>243.5</ele>
        <time>2022-07-26T12:05:48Z</time>
      </trkpt>
      <trkpt lat="45.8481830" lon="5.7704450">
        <ele>243.7</ele>
        <time>2022-07-26T12:05:49Z</time>
      </trkpt>
      <trkpt lat="45.8481930" lon="5.7704880">
        <ele>243.8</ele>
        <time>2022-07-26T12:05:50Z</time>
      </trkpt>
      <trkpt lat="45.8482050" lon="5.7705350">
        <ele>244.0</ele>
        <time>2022-07-26T12:05:51Z</time>
      </trkpt>
      <trkpt lat="45.8482150" lon="5.7705790">
        <ele>244.1</ele>
        <time>2022-07-26T12:05:52Z</time>
      </trkpt>
      <trkpt lat="45.8482210" lon="5.7706260">
        <ele>244.1</ele>
        <time>2022-07-26T12:05:53Z</time>
      </trkpt>
      <trkpt lat="45.8482220" lon="5.7706410">
        <ele>244.1</ele>
        <time>2022-07-26T12:05:54Z</time>
      </trkpt>
      <trkpt lat="45.8482200" lon="5.7706650">
        <ele>244.0</ele>
        <time>2022-07-26T12:05:55Z</time>
      </trkpt>
      <trkpt lat="45.8482190" lon="5.7706860">
        <ele>244.0</ele>
        <time>2022-07-26T12:05:56Z</time>
      </trkpt>
      <trkpt lat="45.8482190" lon="5.7707070">
        <ele>244.0</ele>
        <time>2022-07-26T12:05:57Z</time>
      </trkpt>
      <trkpt lat="45.8482210" lon="5.7707270">
        <ele>244.0</ele>
        <time>2022-07-26T12:05:58Z</time>
      </trkpt>
      <trkpt lat="45.8482230" lon="5.7707410">
        <ele>244.0</ele>
        <time>2022-07-26T12:05:59Z</time>
      </trkpt>
      <trkpt lat="45.8482240" lon="5.7707440">
        <ele>244.0</ele>
        <time>2022-07-26T12:06:00Z</time>
      </trkpt>
      <trkpt lat="45.8482280" lon="5.7707530">
        <ele>244.0</ele>
        <time>2022-07-26T12:06:01Z</time>
      </trkpt>
      <trkpt lat="45.8482320" lon="5.7707550">
        <ele>244.0</ele>
        <time>2022-07-26T12:06:02Z</time>
      </trkpt>
      <trkpt lat="45.8482330" lon="5.7707510">
        <ele>244.0</ele>
        <time>2022-07-26T12:06:03Z</time>
      </trkpt>
      <trkpt lat="45.8482320" lon="5.7707470">
        <ele>244.0</ele>
        <time>2022-07-26T12:06:04Z</time>
      </trkpt>
      <trkpt lat="45.8482300" lon="5.7707450">
        <ele>244.0</ele>
        <time>2022-07-26T12:06:05Z</time>
      </trkpt>
      <trkpt lat="45.8482290" lon="5.7707440">
        <ele>244.0</ele>
        <time>2022-07-26T12:06:06Z</time>
      </trkpt>
      <trkpt lat="45.8482290" lon="5.7707450">
        <ele>244.0</ele>
        <time>2022-07-26T12:06:07Z</time>
      </trkpt>
      <trkpt lat="45.8482360" lon="5.7707530">
        <ele>243.9</ele>
        <time>2022-07-26T12:06:08Z</time>
      </trkpt>
      <trkpt lat="45.8482460" lon="5.7707590">
        <ele>243.9</ele>
        <time>2022-07-26T12:06:09Z</time>
      </trkpt>
      <trkpt lat="45.8482580" lon="5.7707440">
        <ele>243.9</ele>
        <time>2022-07-26T12:06:10Z</time>
      </trkpt>
      <trkpt lat="45.8482720" lon="5.7707230">
        <ele>243.9</ele>
        <time>2022-07-26T12:06:11Z</time>
      </trkpt>
      <trkpt lat="45.8482780" lon="5.7707020">
        <ele>243.9</ele>
        <time>2022-07-26T12:06:12Z</time>
      </trkpt>
      <trkpt lat="45.8482780" lon="5.7706740">
        <ele>243.8</ele>
        <time>2022-07-26T12:06:13Z</time>
      </trkpt>
      <trkpt lat="45.8482670" lon="5.7706190">
        <ele>243.8</ele>
        <time>2022-07-26T12:06:14Z</time>
      </trkpt>
      <trkpt lat="45.8482630" lon="5.7705980">
        <ele>243.8</ele>
        <time>2022-07-26T12:06:15Z</time>
      </trkpt>
      <trkpt lat="45.8482570" lon="5.7705520">
        <ele>243.7</ele>
        <time>2022-07-26T12:06:16Z</time>
      </trkpt>
      <trkpt lat="45.8482500" lon="5.7705060">
        <ele>243.7</ele>
        <time>2022-07-26T12:06:17Z</time>
      </trkpt>
      <trkpt lat="45.8482440" lon="5.7704580">
        <ele>243.7</ele>
        <time>2022-07-26T12:06:18Z</time>
      </trkpt>
      <trkpt lat="45.8482360" lon="5.7704070">
        <ele>243.6</ele>
        <time>2022-07-26T12:06:19Z</time>
      </trkpt>
      <trkpt lat="45.8482280" lon="5.7703480">
        <ele>243.4</ele>
        <time>2022-07-26T12:06:20Z</time>
      </trkpt>
      <trkpt lat="45.8482180" lon="5.7702820">
        <ele>243.3</ele>
        <time>2022-07-26T12:06:21Z</time>
      </trkpt>
      <trkpt lat="45.8482070" lon="5.7702280">
        <ele>243.1</ele>
        <time>2022-07-26T12:06:22Z</time>
      </trkpt>
      <trkpt lat="45.8481940" lon="5.7701730">
        <ele>243.0</ele>
        <time>2022-07-26T12:06:23Z</time>
      </trkpt>
      <trkpt lat="45.8481790" lon="5.7701110">
        <ele>242.8</ele>
        <time>2022-07-26T12:06:24Z</time>
      </trkpt>
      <trkpt lat="45.8481690" lon="5.7700500">
        <ele>242.7</ele>
        <time>2022-07-26T12:06:25Z</time>
      </trkpt>
      <trkpt lat="45.8481580" lon="5.7699810">
        <ele>242.5</ele>
        <time>2022-07-26T12:06:26Z</time>
      </trkpt>
      <trkpt lat="45.8481390" lon="5.7699110">
        <ele>242.3</ele>
        <time>2022-07-26T12:06:27Z</time>
      </trkpt>
      <trkpt lat="45.8481170" lon="5.7698390">
        <ele>242.2</ele>
        <time>2022-07-26T12:06:28Z</time>
      </trkpt>
      <trkpt lat="45.8481010" lon="5.7697740">
        <ele>242.1</ele>
        <time>2022-07-26T12:06:29Z</time>
      </trkpt>
      <trkpt lat="45.8480910" lon="5.7697090">
        <ele>242.0</ele>
        <time>2022-07-26T12:06:30Z</time>
      </trkpt>
      <trkpt lat="45.8480850" lon="5.7696330">
        <ele>241.9</ele>
        <time>2022-07-26T12:06:31Z</time>
      </trkpt>
      <trkpt lat="45.8480720" lon="5.7695580">
        <ele>241.6</ele>
        <time>2022-07-26T12:06:32Z</time>
      </trkpt>
      <trkpt lat="45.8480580" lon="5.7694850">
        <ele>241.4</ele>
        <time>2022-07-26T12:06:33Z</time>
      </trkpt>
      <trkpt lat="45.8480400" lon="5.7694120">
        <ele>241.1</ele>
        <time>2022-07-26T12:06:34Z</time>
      </trkpt>
      <trkpt lat="45.8480210" lon="5.7693390">
        <ele>240.8</ele>
        <time>2022-07-26T12:06:35Z</time>
      </trkpt>
      <trkpt lat="45.8480020" lon="5.7692640">
        <ele>240.6</ele>
        <time>2022-07-26T12:06:36Z</time>
      </trkpt>
      <trkpt lat="45.8479830" lon="5.7691810">
        <ele>240.3</ele>
        <time>2022-07-26T12:06:37Z</time>
      </trkpt>
      <trkpt lat="45.8479680" lon="5.7691030">
        <ele>240.1</ele>
        <time>2022-07-26T12:06:38Z</time>
      </trkpt>
      <trkpt lat="45.8479520" lon="5.7690280">
        <ele>239.8</ele>
        <time>2022-07-26T12:06:39Z</time>
      </trkpt>
      <trkpt lat="45.8479350" lon="5.7689450">
        <ele>239.6</ele>
        <time>2022-07-26T12:06:40Z</time>
      </trkpt>
      <trkpt lat="45.8479280" lon="5.7688630">
        <ele>239.4</ele>
        <time>2022-07-26T12:06:41Z</time>
      </trkpt>
      <trkpt lat="45.8479290" lon="5.7687800">
        <ele>239.4</ele>
        <time>2022-07-26T12:06:42Z</time>
      </trkpt>
      <trkpt lat="45.8479320" lon="5.7686970">
        <ele>239.4</ele>
        <time>2022-07-26T12:06:43Z</time>
      </trkpt>
      <trkpt lat="45.8479240" lon="5.7686200">
        <ele>239.3</ele>
        <time>2022-07-26T12:06:44Z</time>
      </trkpt>
      <trkpt lat="45.8478920" lon="5.7685500">
        <ele>239.3</ele>
        <time>2022-07-26T12:06:45Z</time>
      </trkpt>
      <trkpt lat="45.8478480" lon="5.7684880">
        <ele>239.0</ele>
        <time>2022-07-26T12:06:46Z</time>
      </trkpt>
      <trkpt lat="45.8477930" lon="5.7684520">
        <ele>238.9</ele>
        <time>2022-07-26T12:06:47Z</time>
      </trkpt>
      <trkpt lat="45.8477340" lon="5.7684440">
        <ele>238.8</ele>
        <time>2022-07-26T12:06:48Z</time>
      </trkpt>
      <trkpt lat="45.8476770" lon="5.7684700">
        <ele>238.7</ele>
        <time>2022-07-26T12:06:49Z</time>
      </trkpt>
      <trkpt lat="45.8476320" lon="5.7685210">
        <ele>238.7</ele>
        <time>2022-07-26T12:06:50Z</time>
      </trkpt>
      <trkpt lat="45.8476040" lon="5.7685920">
        <ele>238.8</ele>
        <time>2022-07-26T12:06:51Z</time>
      </trkpt>
      <trkpt lat="45.8475880" lon="5.7686550">
        <ele>238.8</ele>
        <time>2022-07-26T12:06:52Z</time>
      </trkpt>
      <trkpt lat="45.8475750" lon="5.7687200">
        <ele>238.9</ele>
        <time>2022-07-26T12:06:53Z</time>
      </trkpt>
      <trkpt lat="45.8475650" lon="5.7687870">
        <ele>239.0</ele>
        <time>2022-07-26T12:06:54Z</time>
      </trkpt>
      <trkpt lat="45.8475560" lon="5.7688510">
        <ele>239.1</ele>
        <time>2022-07-26T12:06:55Z</time>
      </trkpt>
      <trkpt lat="45.8475400" lon="5.7689130">
        <ele>239.2</ele>
        <time>2022-07-26T12:06:56Z</time>
      </trkpt>
      <trkpt lat="45.8475320" lon="5.7689700">
        <ele>239.2</ele>
        <time>2022-07-26T12:06:57Z</time>
      </trkpt>
      <trkpt lat="45.8475220" lon="5.7690180">
        <ele>239.2</ele>
        <time>2022-07-26T12:06:58Z</time>
      </trkpt>
      <trkpt lat="45.8475130" lon="5.7690740">
        <ele>239.3</ele>
        <time>2022-07-26T12:06:59Z</time>
      </trkpt>
      <trkpt lat="45.8474970" lon="5.7691400">
        <ele>239.3</ele>
        <time>2022-07-26T12:07:00Z</time>
      </trkpt>
      <trkpt lat="45.8474830" lon="5.7692070">
        <ele>239.4</ele>
        <time>2022-07-26T12:07:01Z</time>
      </trkpt>
      <trkpt lat="45.8474710" lon="5.7692740">
        <ele>239.5</ele>
        <time>2022-07-26T12:07:02Z</time>
      </trkpt>
      <trkpt lat="45.8474620" lon="5.7693380">
        <ele>239.6</ele>
        <time>2022-07-26T12:07:03Z</time>
      </trkpt>
      <trkpt lat="45.8474510" lon="5.7694020">
        <ele>239.7</ele>
        <time>2022-07-26T12:07:04Z</time>
      </trkpt>
      <trkpt lat="45.8474390" lon="5.7694650">
        <ele>239.8</ele>
        <time>2022-07-26T12:07:05Z</time>
      </trkpt>
      <trkpt lat="45.8474260" lon="5.7695280">
        <ele>240.0</ele>
        <time>2022-07-26T12:07:06Z</time>
      </trkpt>
      <trkpt lat="45.8474150" lon="5.7695850">
        <ele>240.1</ele>
        <time>2022-07-26T12:07:07Z</time>
      </trkpt>
      <trkpt lat="45.8474070" lon="5.7696330">
        <ele>240.2</ele>
        <time>2022-07-26T12:07:08Z</time>
      </trkpt>
      <trkpt lat="45.8474000" lon="5.7696890">
        <ele>240.3</ele>
        <time>2022-07-26T12:07:09Z</time>
      </trkpt>
      <trkpt lat="45.8473980" lon="5.7697440">
        <ele>240.3</ele>
        <time>2022-07-26T12:07:10Z</time>
      </trkpt>
      <trkpt lat="45.8473930" lon="5.7697980">
        <ele>240.3</ele>
        <time>2022-07-26T12:07:11Z</time>
      </trkpt>
      <trkpt lat="45.8473830" lon="5.7698500">
        <ele>240.4</ele>
        <time>2022-07-26T12:07:12Z</time>
      </trkpt>
      <trkpt lat="45.8473700" lon="5.7698920">
        <ele>240.4</ele>
        <time>2022-07-26T12:07:13Z</time>
      </trkpt>
      <trkpt lat="45.8473500" lon="5.7699370">
        <ele>240.4</ele>
        <time>2022-07-26T12:07:14Z</time>
      </trkpt>
      <trkpt lat="45.8473280" lon="5.7699720">
        <ele>240.4</ele>
        <time>2022-07-26T12:07:15Z</time>
      </trkpt>
      <trkpt lat="45.8473020" lon="5.7700080">
        <ele>240.4</ele>
        <time>2022-07-26T12:07:16Z</time>
      </trkpt>
      <trkpt lat="45.8472660" lon="5.7700590">
        <ele>240.4</ele>
        <time>2022-07-26T12:07:17Z</time>
      </trkpt>
      <trkpt lat="45.8472310" lon="5.7701090">
        <ele>240.4</ele>
        <time>2022-07-26T12:07:18Z</time>
      </trkpt>
      <trkpt lat="45.8471970" lon="5.7701550">
        <ele>240.4</ele>
        <time>2022-07-26T12:07:19Z</time>
      </trkpt>
      <trkpt lat="45.8471650" lon="5.7701960">
        <ele>240.3</ele>
        <time>2022-07-26T12:07:20Z</time>
      </trkpt>
      <trkpt lat="45.8471240" lon="5.7702370">
        <ele>240.3</ele>
        <time>2022-07-26T12:07:21Z</time>
      </trkpt>
      <trkpt lat="45.8470800" lon="5.7702820">
        <ele>240.3</ele>
        <time>2022-07-26T12:07:22Z</time>
      </trkpt>
      <trkpt lat="45.8470390" lon="5.7703200">
        <ele>240.2</ele>
        <time>2022-07-26T12:07:23Z</time>
      </trkpt>
      <trkpt lat="45.8469990" lon="5.7703610">
        <ele>240.2</ele>
        <time>2022-07-26T12:07:24Z</time>
      </trkpt>
      <trkpt lat="45.8469580" lon="5.7704000">
        <ele>240.2</ele>
        <time>2022-07-26T12:07:25Z</time>
      </trkpt>
      <trkpt lat="45.8469190" lon="5.7704420">
        <ele>240.2</ele>
        <time>2022-07-26T12:07:26Z</time>
      </trkpt>
      <trkpt lat="45.8468820" lon="5.7704880">
        <ele>240.2</ele>
        <time>2022-07-26T12:07:27Z</time>
      </trkpt>
      <trkpt lat="45.8468510" lon="5.7705240">
        <ele>240.2</ele>
        <time>2022-07-26T12:07:28Z</time>
      </trkpt>
      <trkpt lat="45.8468120" lon="5.7705660">
        <ele>240.2</ele>
        <time>2022-07-26T12:07:29Z</time>
      </trkpt>
      <trkpt lat="45.8467650" lon="5.7706020">
        <ele>240.2</ele>
        <time>2022-07-26T12:07:30Z</time>
      </trkpt>
      <trkpt lat="45.8467210" lon="5.7706390">
        <ele>240.2</ele>
        <time>2022-07-26T12:07:31Z</time>
      </trkpt>
      <trkpt lat="45.8466790" lon="5.7706780">
        <ele>240.1</ele>
        <time>2022-07-26T12:07:32Z</time>
      </trkpt>
      <trkpt lat="45.8466390" lon="5.7707110">
        <ele>240.1</ele>
        <time>2022-07-26T12:07:33Z</time>
      </trkpt>
      <trkpt lat="45.8466040" lon="5.7707400">
        <ele>240.1</ele>
        <time>2022-07-26T12:07:34Z</time>
      </trkpt>
      <trkpt lat="45.8465560" lon="5.7707690">
        <ele>240.1</ele>
        <time>2022-07-26T12:07:35Z</time>
      </trkpt>
      <trkpt lat="45.8465070" lon="5.7707940">
        <ele>240.2</ele>
        <time>2022-07-26T12:07:36Z</time>
      </trkpt>
      <trkpt lat="45.8464590" lon="5.7708160">
        <ele>240.2</ele>
        <time>2022-07-26T12:07:37Z</time>
      </trkpt>
      <trkpt lat="45.8464150" lon="5.7708390">
        <ele>240.2</ele>
        <time>2022-07-26T12:07:38Z</time>
      </trkpt>
      <trkpt lat="45.8463690" lon="5.7708610">
        <ele>240.2</ele>
        <time>2022-07-26T12:07:39Z</time>
      </trkpt>
      <trkpt lat="45.8463220" lon="5.7708800">
        <ele>240.2</ele>
        <time>2022-07-26T12:07:40Z</time>
      </trkpt>
      <trkpt lat="45.8462790" lon="5.7708940">
        <ele>240.2</ele>
        <time>2022-07-26T12:07:41Z</time>
      </trkpt>
      <trkpt lat="45.8462350" lon="5.7709060">
        <ele>240.2</ele>
        <time>2022-07-26T12:07:42Z</time>
      </trkpt>
      <trkpt lat="45.8461920" lon="5.7709260">
        <ele>240.2</ele>
        <time>2022-07-26T12:07:43Z</time>
      </trkpt>
      <trkpt lat="45.8461470" lon="5.7709490">
        <ele>240.3</ele>
        <time>2022-07-26T12:07:44Z</time>
      </trkpt>
      <trkpt lat="45.8461000" lon="5.7709690">
        <ele>240.3</ele>
        <time>2022-07-26T12:07:45Z</time>
      </trkpt>
      <trkpt lat="45.8460610" lon="5.7709890">
        <ele>240.3</ele>
        <time>2022-07-26T12:07:46Z</time>
      </trkpt>
      <trkpt lat="45.8460260" lon="5.7710040">
        <ele>240.3</ele>
        <time>2022-07-26T12:07:47Z</time>
      </trkpt>
      <trkpt lat="45.8459800" lon="5.7710220">
        <ele>240.3</ele>
        <time>2022-07-26T12:07:48Z</time>
      </trkpt>
      <trkpt lat="45.8459460" lon="5.7710340">
        <ele>240.3</ele>
        <time>2022-07-26T12:07:49Z</time>
      </trkpt>
      <trkpt lat="45.8458980" lon="5.7710510">
        <ele>240.3</ele>
        <time>2022-07-26T12:07:50Z</time>
      </trkpt>
      <trkpt lat="45.8458510" lon="5.7710730">
        <ele>240.3</ele>
        <time>2022-07-26T12:07:51Z</time>
      </trkpt>
      <trkpt lat="45.8458020" lon="5.7710900">
        <ele>240.3</ele>
        <time>2022-07-26T12:07:52Z</time>
      </trkpt>
      <trkpt lat="45.8457520" lon="5.7710990">
        <ele>240.3</ele>
        <time>2022-07-26T12:07:53Z</time>
      </trkpt>
      <trkpt lat="45.8456990" lon="5.7711100">
        <ele>240.3</ele>
        <time>2022-07-26T12:07:54Z</time>
      </trkpt>
      <trkpt lat="45.8456490" lon="5.7711250">
        <ele>240.2</ele>
        <time>2022-07-26T12:07:55Z</time>
      </trkpt>
      <trkpt lat="45.8455970" lon="5.7711320">
        <ele>240.2</ele>
        <time>2022-07-26T12:07:56Z</time>
      </trkpt>
      <trkpt lat="45.8455460" lon="5.7711460">
        <ele>240.2</ele>
        <time>2022-07-26T12:07:57Z</time>
      </trkpt>
      <trkpt lat="45.8455000" lon="5.7711590">
        <ele>240.2</ele>
        <time>2022-07-26T12:07:58Z</time>
      </trkpt>
      <trkpt lat="45.8454630" lon="5.7711590">
        <ele>240.2</ele>
        <time>2022-07-26T12:07:59Z</time>
      </trkpt>
      <trkpt lat="45.8454090" lon="5.7711580">
        <ele>240.2</ele>
        <time>2022-07-26T12:08:00Z</time>
      </trkpt>
      <trkpt lat="45.8453580" lon="5.7711620">
        <ele>240.2</ele>
        <time>2022-07-26T12:08:01Z</time>
      </trkpt>
      <trkpt lat="45.8453090" lon="5.7711590">
        <ele>240.2</ele>
        <time>2022-07-26T12:08:02Z</time>
      </trkpt>
      <trkpt lat="45.8452620" lon="5.7711640">
        <ele>240.2</ele>
        <time>2022-07-26T12:08:03Z</time>
      </trkpt>
      <trkpt lat="45.8452170" lon="5.7711680">
        <ele>240.3</ele>
        <time>2022-07-26T12:08:04Z</time>
      </trkpt>
      <trkpt lat="45.8451730" lon="5.7711730">
        <ele>240.3</ele>
        <time>2022-07-26T12:08:05Z</time>
      </trkpt>
      <trkpt lat="45.8451060" lon="5.7711860">
        <ele>240.3</ele>
        <time>2022-07-26T12:08:06Z</time>
      </trkpt>
      <trkpt lat="45.8450360" lon="5.7712230">
        <ele>240.3</ele>
        <time>2022-07-26T12:08:08Z</time>
      </trkpt>
      <trkpt lat="45.8449900" lon="5.7712500">
        <ele>240.3</ele>
        <time>2022-07-26T12:08:09Z</time>
      </trkpt>
      <trkpt lat="45.8449790" lon="5.7712770">
        <ele>240.3</ele>
        <time>2022-07-26T12:08:10Z</time>
      </trkpt>
      <trkpt lat="45.8448670" lon="5.7713160">
        <ele>240.4</ele>
        <time>2022-07-26T12:08:12Z</time>
      </trkpt>
      <trkpt lat="45.8448150" lon="5.7713410">
        <ele>240.4</ele>
        <time>2022-07-26T12:08:13Z</time>
      </trkpt>
      <trkpt lat="45.8447680" lon="5.7713640">
        <ele>240.4</ele>
        <time>2022-07-26T12:08:14Z</time>
      </trkpt>
      <trkpt lat="45.8447270" lon="5.7713930">
        <ele>240.4</ele>
        <time>2022-07-26T12:08:15Z</time>
      </trkpt>
      <trkpt lat="45.8446570" lon="5.7714660">
        <ele>240.4</ele>
        <time>2022-07-26T12:08:17Z</time>
      </trkpt>
      <trkpt lat="45.8446080" lon="5.7715000">
        <ele>240.3</ele>
        <time>2022-07-26T12:08:18Z</time>
      </trkpt>
      <trkpt lat="45.8445660" lon="5.7715270">
        <ele>240.3</ele>
        <time>2022-07-26T12:08:19Z</time>
      </trkpt>
      <trkpt lat="45.8445420" lon="5.7715630">
        <ele>240.3</ele>
        <time>2022-07-26T12:08:20Z</time>
      </trkpt>
      <trkpt lat="45.8445210" lon="5.7716120">
        <ele>240.3</ele>
        <time>2022-07-26T12:08:21Z</time>
      </trkpt>
      <trkpt lat="45.8444830" lon="5.7716550">
        <ele>240.3</ele>
        <time>2022-07-26T12:08:22Z</time>
      </trkpt>
      <trkpt lat="45.8444310" lon="5.7717080">
        <ele>240.2</ele>
        <time>2022-07-26T12:08:23Z</time>
      </trkpt>
      <trkpt lat="45.8443960" lon="5.7717500">
        <ele>240.2</ele>
        <time>2022-07-26T12:08:24Z</time>
      </trkpt>
      <trkpt lat="45.8443330" lon="5.7717640">
        <ele>240.2</ele>
        <time>2022-07-26T12:08:26Z</time>
      </trkpt>
      <trkpt lat="45.8443040" lon="5.7718140">
        <ele>240.2</ele>
        <time>2022-07-26T12:08:27Z</time>
      </trkpt>
      <trkpt lat="45.8442810" lon="5.7718840">
        <ele>240.2</ele>
        <time>2022-07-26T12:08:28Z</time>
      </trkpt>
      <trkpt lat="45.8442570" lon="5.7719450">
        <ele>240.2</ele>
        <time>2022-07-26T12:08:29Z</time>
      </trkpt>
      <trkpt lat="45.8442330" lon="5.7720070">
        <ele>240.2</ele>
        <time>2022-07-26T12:08:30Z</time>
      </trkpt>
      <trkpt lat="45.8442120" lon="5.7720680">
        <ele>240.3</ele>
        <time>2022-07-26T12:08:31Z</time>
      </trkpt>
      <trkpt lat="45.8441920" lon="5.7721240">
        <ele>240.3</ele>
        <time>2022-07-26T12:08:32Z</time>
      </trkpt>
      <trkpt lat="45.8441770" lon="5.7721770">
        <ele>240.2</ele>
        <time>2022-07-26T12:08:33Z</time>
      </trkpt>
      <trkpt lat="45.8441610" lon="5.7722250">
        <ele>240.2</ele>
        <time>2022-07-26T12:08:34Z</time>
      </trkpt>
      <trkpt lat="45.8441480" lon="5.7722750">
        <ele>240.2</ele>
        <time>2022-07-26T12:08:35Z</time>
      </trkpt>
      <trkpt lat="45.8441380" lon="5.7723220">
        <ele>240.2</ele>
        <time>2022-07-26T12:08:36Z</time>
      </trkpt>
      <trkpt lat="45.8441300" lon="5.7723700">
        <ele>240.1</ele>
        <time>2022-07-26T12:08:37Z</time>
      </trkpt>
      <trkpt lat="45.8441220" lon="5.7724090">
        <ele>240.1</ele>
        <time>2022-07-26T12:08:38Z</time>
      </trkpt>
      <trkpt lat="45.8441170" lon="5.7724660">
        <ele>240.0</ele>
        <time>2022-07-26T12:08:39Z</time>
      </trkpt>
      <trkpt lat="45.8441150" lon="5.7725060">
        <ele>240.0</ele>
        <time>2022-07-26T12:08:41Z</time>
      </trkpt>
      <trkpt lat="45.8441140" lon="5.7725080">
        <ele>240.0</ele>
        <time>2022-07-26T12:08:42Z</time>
      </trkpt>
      <trkpt lat="45.8441140" lon="5.7724870">
        <ele>239.9</ele>
        <time>2022-07-26T12:08:43Z</time>
      </trkpt>
      <trkpt lat="45.8441140" lon="5.7724800">
        <ele>239.9</ele>
        <time>2022-07-26T12:08:44Z</time>
      </trkpt>
      <trkpt lat="45.8441120" lon="5.7724820">
        <ele>239.9</ele>
        <time>2022-07-26T12:08:45Z</time>
      </trkpt>
      <trkpt lat="45.8441100" lon="5.7724840">
        <ele>239.9</ele>
        <time>2022-07-26T12:08:46Z</time>
      </trkpt>
      <trkpt lat="45.8441110" lon="5.7724820">
        <ele>239.9</ele>
        <time>2022-07-26T12:08:47Z</time>
      </trkpt>
      <trkpt lat="45.8441130" lon="5.7724780">
        <ele>239.9</ele>
        <time>2022-07-26T12:08:48Z</time>
      </trkpt>
      <trkpt lat="45.8441120" lon="5.7724730">
        <ele>239.9</ele>
        <time>2022-07-26T12:08:49Z</time>
      </trkpt>
      <trkpt lat="45.8441110" lon="5.7724690">
        <ele>239.9</ele>
        <time>2022-07-26T12:08:50Z</time>
      </trkpt>
      <trkpt lat="45.8441110" lon="5.7724660">
        <ele>239.9</ele>
        <time>2022-07-26T12:08:52Z</time>
      </trkpt>
      <trkpt lat="45.8441110" lon="5.7724660">
        <ele>239.9</ele>
        <time>2022-07-26T12:08:53Z</time>
      </trkpt>
      <trkpt lat="45.8441110" lon="5.7724650">
        <ele>239.9</ele>
        <time>2022-07-26T12:08:54Z</time>
      </trkpt>
      <trkpt lat="45.8441100" lon="5.7724650">
        <ele>239.9</ele>
        <time>2022-07-26T12:08:55Z</time>
      </trkpt>
      <trkpt lat="45.8441100" lon="5.7724640">
        <ele>239.9</ele>
        <time>2022-07-26T12:08:56Z</time>
      </trkpt>
      <trkpt lat="45.8440860" lon="5.7725060">
        <ele>239.8</ele>
        <time>2022-07-26T12:10:11Z</time>
      </trkpt>
      <trkpt lat="45.8440860" lon="5.7725200">
        <ele>239.8</ele>
        <time>2022-07-26T12:10:12Z</time>
      </trkpt>
      <trkpt lat="45.8440850" lon="5.7725510">
        <ele>239.7</ele>
        <time>2022-07-26T12:10:13Z</time>
      </trkpt>
      <trkpt lat="45.8440740" lon="5.7726130">
        <ele>239.7</ele>
        <time>2022-07-26T12:10:14Z</time>
      </trkpt>
      <trkpt lat="45.8440690" lon="5.7726370">
        <ele>239.7</ele>
        <time>2022-07-26T12:10:15Z</time>
      </trkpt>
      <trkpt lat="45.8440570" lon="5.7726900">
        <ele>239.6</ele>
        <time>2022-07-26T12:10:16Z</time>
      </trkpt>
      <trkpt lat="45.8440520" lon="5.7727300">
        <ele>239.6</ele>
        <time>2022-07-26T12:10:17Z</time>
      </trkpt>
      <trkpt lat="45.8440460" lon="5.7727920">
        <ele>239.6</ele>
        <time>2022-07-26T12:10:18Z</time>
      </trkpt>
      <trkpt lat="45.8440450" lon="5.7728560">
        <ele>239.6</ele>
        <time>2022-07-26T12:10:19Z</time>
      </trkpt>
      <trkpt lat="45.8440490" lon="5.7729170">
        <ele>239.6</ele>
        <time>2022-07-26T12:10:20Z</time>
      </trkpt>
      <trkpt lat="45.8440480" lon="5.7729810">
        <ele>239.5</ele>
        <time>2022-07-26T12:10:21Z</time>
      </trkpt>
      <trkpt lat="45.8440470" lon="5.7730270">
        <ele>239.5</ele>
        <time>2022-07-26T12:10:22Z</time>
      </trkpt>
      <trkpt lat="45.8440450" lon="5.7730980">
        <ele>239.5</ele>
        <time>2022-07-26T12:10:23Z</time>
      </trkpt>
      <trkpt lat="45.8440370" lon="5.7731630">
        <ele>239.5</ele>
        <time>2022-07-26T12:10:24Z</time>
      </trkpt>
      <trkpt lat="45.8440280" lon="5.7732360">
        <ele>239.5</ele>
        <time>2022-07-26T12:10:25Z</time>
      </trkpt>
      <trkpt lat="45.8440230" lon="5.7733090">
        <ele>239.4</ele>
        <time>2022-07-26T12:10:26Z</time>
      </trkpt>
      <trkpt lat="45.8440170" lon="5.7733810">
        <ele>239.4</ele>
        <time>2022-07-26T12:10:27Z</time>
      </trkpt>
      <trkpt lat="45.8440130" lon="5.7734520">
        <ele>239.4</ele>
        <time>2022-07-26T12:10:28Z</time>
      </trkpt>
      <trkpt lat="45.8440080" lon="5.7735280">
        <ele>239.4</ele>
        <time>2022-07-26T12:10:29Z</time>
      </trkpt>
      <trkpt lat="45.8440000" lon="5.7735990">
        <ele>239.4</ele>
        <time>2022-07-26T12:10:30Z</time>
      </trkpt>
      <trkpt lat="45.8439920" lon="5.7736630">
        <ele>239.3</ele>
        <time>2022-07-26T12:10:31Z</time>
      </trkpt>
      <trkpt lat="45.8439920" lon="5.7737140">
        <ele>239.3</ele>
        <time>2022-07-26T12:10:32Z</time>
      </trkpt>
      <trkpt lat="45.8439970" lon="5.7737700">
        <ele>239.3</ele>
        <time>2022-07-26T12:10:33Z</time>
      </trkpt>
      <trkpt lat="45.8439720" lon="5.7738470">
        <ele>239.3</ele>
        <time>2022-07-26T12:10:34Z</time>
      </trkpt>
      <trkpt lat="45.8439630" lon="5.7739140">
        <ele>239.2</ele>
        <time>2022-07-26T12:10:35Z</time>
      </trkpt>
      <trkpt lat="45.8439510" lon="5.7739790">
        <ele>239.2</ele>
        <time>2022-07-26T12:10:36Z</time>
      </trkpt>
      <trkpt lat="45.8439380" lon="5.7740390">
        <ele>239.2</ele>
        <time>2022-07-26T12:10:37Z</time>
      </trkpt>
      <trkpt lat="45.8439270" lon="5.7741030">
        <ele>239.1</ele>
        <time>2022-07-26T12:10:38Z</time>
      </trkpt>
      <trkpt lat="45.8439090" lon="5.7741700">
        <ele>239.1</ele>
        <time>2022-07-26T12:10:39Z</time>
      </trkpt>
      <trkpt lat="45.8438960" lon="5.7742370">
        <ele>239.1</ele>
        <time>2022-07-26T12:10:40Z</time>
      </trkpt>
      <trkpt lat="45.8438660" lon="5.7743110">
        <ele>239.1</ele>
        <time>2022-07-26T12:10:41Z</time>
      </trkpt>
      <trkpt lat="45.8438440" lon="5.7744260">
        <ele>239.1</ele>
        <time>2022-07-26T12:10:43Z</time>
      </trkpt>
      <trkpt lat="45.8438230" lon="5.7744900">
        <ele>239.0</ele>
        <time>2022-07-26T12:10:44Z</time>
      </trkpt>
      <trkpt lat="45.8438070" lon="5.7745530">
        <ele>239.0</ele>
        <time>2022-07-26T12:10:45Z</time>
      </trkpt>
      <trkpt lat="45.8437960" lon="5.7746150">
        <ele>239.0</ele>
        <time>2022-07-26T12:10:46Z</time>
      </trkpt>
      <trkpt lat="45.8437810" lon="5.7746770">
        <ele>239.0</ele>
        <time>2022-07-26T12:10:47Z</time>
      </trkpt>
      <trkpt lat="45.8437660" lon="5.7747390">
        <ele>239.0</ele>
        <time>2022-07-26T12:10:48Z</time>
      </trkpt>
      <trkpt lat="45.8437500" lon="5.7747900">
        <ele>238.9</ele>
        <time>2022-07-26T12:10:49Z</time>
      </trkpt>
      <trkpt lat="45.8437330" lon="5.7748570">
        <ele>238.9</ele>
        <time>2022-07-26T12:10:50Z</time>
      </trkpt>
      <trkpt lat="45.8437160" lon="5.7749150">
        <ele>238.9</ele>
        <time>2022-07-26T12:10:51Z</time>
      </trkpt>
      <trkpt lat="45.8436980" lon="5.7749750">
        <ele>238.9</ele>
        <time>2022-07-26T12:10:52Z</time>
      </trkpt>
      <trkpt lat="45.8436810" lon="5.7750380">
        <ele>238.9</ele>
        <time>2022-07-26T12:10:53Z</time>
      </trkpt>
      <trkpt lat="45.8436650" lon="5.7751030">
        <ele>238.9</ele>
        <time>2022-07-26T12:10:54Z</time>
      </trkpt>
      <trkpt lat="45.8436450" lon="5.7751650">
        <ele>238.9</ele>
        <time>2022-07-26T12:10:55Z</time>
      </trkpt>
      <trkpt lat="45.8436270" lon="5.7752280">
        <ele>238.9</ele>
        <time>2022-07-26T12:10:56Z</time>
      </trkpt>
      <trkpt lat="45.8436070" lon="5.7752880">
        <ele>238.9</ele>
        <time>2022-07-26T12:10:57Z</time>
      </trkpt>
      <trkpt lat="45.8435940" lon="5.7753290">
        <ele>238.9</ele>
        <time>2022-07-26T12:10:58Z</time>
      </trkpt>
      <trkpt lat="45.8435640" lon="5.7753990">
        <ele>239.0</ele>
        <time>2022-07-26T12:10:59Z</time>
      </trkpt>
      <trkpt lat="45.8435450" lon="5.7754720">
        <ele>239.0</ele>
        <time>2022-07-26T12:11:00Z</time>
      </trkpt>
      <trkpt lat="45.8435280" lon="5.7755330">
        <ele>239.0</ele>
        <time>2022-07-26T12:11:01Z</time>
      </trkpt>
      <trkpt lat="45.8435080" lon="5.7755940">
        <ele>239.1</ele>
        <time>2022-07-26T12:11:02Z</time>
      </trkpt>
      <trkpt lat="45.8434860" lon="5.7756590">
        <ele>239.1</ele>
        <time>2022-07-26T12:11:03Z</time>
      </trkpt>
      <trkpt lat="45.8434650" lon="5.7757270">
        <ele>239.2</ele>
        <time>2022-07-26T12:11:04Z</time>
      </trkpt>
      <trkpt lat="45.8434450" lon="5.7757770">
        <ele>239.3</ele>
        <time>2022-07-26T12:11:05Z</time>
      </trkpt>
      <trkpt lat="45.8434180" lon="5.7758150">
        <ele>239.3</ele>
        <time>2022-07-26T12:11:06Z</time>
      </trkpt>
      <trkpt lat="45.8433960" lon="5.7758670">
        <ele>239.4</ele>
        <time>2022-07-26T12:11:07Z</time>
      </trkpt>
      <trkpt lat="45.8433750" lon="5.7759630">
        <ele>239.5</ele>
        <time>2022-07-26T12:11:08Z</time>
      </trkpt>
      <trkpt lat="45.8433560" lon="5.7760310">
        <ele>239.6</ele>
        <time>2022-07-26T12:11:09Z</time>
      </trkpt>
      <trkpt lat="45.8433310" lon="5.7760870">
        <ele>239.7</ele>
        <time>2022-07-26T12:11:10Z</time>
      </trkpt>
      <trkpt lat="45.8433840" lon="5.7761510">
        <ele>239.8</ele>
        <time>2022-07-26T12:11:12Z</time>
      </trkpt>
      <trkpt lat="45.8433240" lon="5.7762600">
        <ele>240.0</ele>
        <time>2022-07-26T12:11:13Z</time>
      </trkpt>
      <trkpt lat="45.8433080" lon="5.7763210">
        <ele>240.1</ele>
        <time>2022-07-26T12:11:14Z</time>
      </trkpt>
      <trkpt lat="45.8432980" lon="5.7763980">
        <ele>240.2</ele>
        <time>2022-07-26T12:11:15Z</time>
      </trkpt>
      <trkpt lat="45.8432940" lon="5.7764550">
        <ele>240.3</ele>
        <time>2022-07-26T12:11:16Z</time>
      </trkpt>
      <trkpt lat="45.8432650" lon="5.7765600">
        <ele>240.5</ele>
        <time>2022-07-26T12:11:18Z</time>
      </trkpt>
      <trkpt lat="45.8432490" lon="5.7766230">
        <ele>240.6</ele>
        <time>2022-07-26T12:11:19Z</time>
      </trkpt>
      <trkpt lat="45.8432320" lon="5.7766690">
        <ele>240.6</ele>
        <time>2022-07-26T12:11:20Z</time>
      </trkpt>
      <trkpt lat="45.8432140" lon="5.7767200">
        <ele>240.7</ele>
        <time>2022-07-26T12:11:21Z</time>
      </trkpt>
      <trkpt lat="45.8432030" lon="5.7767790">
        <ele>240.8</ele>
        <time>2022-07-26T12:11:22Z</time>
      </trkpt>
      <trkpt lat="45.8432070" lon="5.7768480">
        <ele>240.9</ele>
        <time>2022-07-26T12:11:23Z</time>
      </trkpt>
      <trkpt lat="45.8432100" lon="5.7769120">
        <ele>241.0</ele>
        <time>2022-07-26T12:11:24Z</time>
      </trkpt>
      <trkpt lat="45.8432090" lon="5.7769660">
        <ele>241.1</ele>
        <time>2022-07-26T12:11:25Z</time>
      </trkpt>
      <trkpt lat="45.8431990" lon="5.7770240">
        <ele>241.1</ele>
        <time>2022-07-26T12:11:26Z</time>
      </trkpt>
      <trkpt lat="45.8431860" lon="5.7771610">
        <ele>241.3</ele>
        <time>2022-07-26T12:11:28Z</time>
      </trkpt>
      <trkpt lat="45.8431890" lon="5.7772250">
        <ele>241.4</ele>
        <time>2022-07-26T12:11:29Z</time>
      </trkpt>
      <trkpt lat="45.8431950" lon="5.7773170">
        <ele>241.5</ele>
        <time>2022-07-26T12:11:31Z</time>
      </trkpt>
      <trkpt lat="45.8431990" lon="5.7773970">
        <ele>241.5</ele>
        <time>2022-07-26T12:11:32Z</time>
      </trkpt>
      <trkpt lat="45.8431980" lon="5.7774570">
        <ele>241.5</ele>
        <time>2022-07-26T12:11:33Z</time>
      </trkpt>
      <trkpt lat="45.8431960" lon="5.7775150">
        <ele>241.5</ele>
        <time>2022-07-26T12:11:34Z</time>
      </trkpt>
      <trkpt lat="45.8431920" lon="5.7775880">
        <ele>241.4</ele>
        <time>2022-07-26T12:11:35Z</time>
      </trkpt>
      <trkpt lat="45.8431880" lon="5.7777190">
        <ele>241.3</ele>
        <time>2022-07-26T12:11:37Z</time>
      </trkpt>
      <trkpt lat="45.8431990" lon="5.7778010">
        <ele>241.2</ele>
        <time>2022-07-26T12:11:38Z</time>
      </trkpt>
      <trkpt lat="45.8432130" lon="5.7778780">
        <ele>241.2</ele>
        <time>2022-07-26T12:11:39Z</time>
      </trkpt>
      <trkpt lat="45.8432200" lon="5.7779490">
        <ele>241.1</ele>
        <time>2022-07-26T12:11:40Z</time>
      </trkpt>
      <trkpt lat="45.8432270" lon="5.7780230">
        <ele>241.1</ele>
        <time>2022-07-26T12:11:41Z</time>
      </trkpt>
      <trkpt lat="45.8432290" lon="5.7780890">
        <ele>241.1</ele>
        <time>2022-07-26T12:11:42Z</time>
      </trkpt>
      <trkpt lat="45.8432360" lon="5.7781500">
        <ele>241.1</ele>
        <time>2022-07-26T12:11:43Z</time>
      </trkpt>
      <trkpt lat="45.8432470" lon="5.7782150">
        <ele>241.1</ele>
        <time>2022-07-26T12:11:44Z</time>
      </trkpt>
      <trkpt lat="45.8432610" lon="5.7782820">
        <ele>241.1</ele>
        <time>2022-07-26T12:11:45Z</time>
      </trkpt>
      <trkpt lat="45.8432780" lon="5.7783510">
        <ele>241.2</ele>
        <time>2022-07-26T12:11:46Z</time>
      </trkpt>
      <trkpt lat="45.8432980" lon="5.7784190">
        <ele>241.2</ele>
        <time>2022-07-26T12:11:47Z</time>
      </trkpt>
      <trkpt lat="45.8433150" lon="5.7784850">
        <ele>241.2</ele>
        <time>2022-07-26T12:11:48Z</time>
      </trkpt>
      <trkpt lat="45.8433200" lon="5.7785490">
        <ele>241.3</ele>
        <time>2022-07-26T12:11:49Z</time>
      </trkpt>
      <trkpt lat="45.8433000" lon="5.7786410">
        <ele>241.5</ele>
        <time>2022-07-26T12:11:51Z</time>
      </trkpt>
      <trkpt lat="45.8432970" lon="5.7786810">
        <ele>241.5</ele>
        <time>2022-07-26T12:11:52Z</time>
      </trkpt>
      <trkpt lat="45.8432940" lon="5.7787220">
        <ele>241.5</ele>
        <time>2022-07-26T12:11:53Z</time>
      </trkpt>
      <trkpt lat="45.8432930" lon="5.7787610">
        <ele>241.6</ele>
        <time>2022-07-26T12:11:54Z</time>
      </trkpt>
      <trkpt lat="45.8432970" lon="5.7787890">
        <ele>241.6</ele>
        <time>2022-07-26T12:11:55Z</time>
      </trkpt>
      <trkpt lat="45.8432910" lon="5.7787680">
        <ele>241.6</ele>
        <time>2022-07-26T12:11:56Z</time>
      </trkpt>
      <trkpt lat="45.8432850" lon="5.7787430">
        <ele>241.6</ele>
        <time>2022-07-26T12:11:57Z</time>
      </trkpt>
      <trkpt lat="45.8432830" lon="5.7787360">
        <ele>241.6</ele>
        <time>2022-07-26T12:11:58Z</time>
      </trkpt>
      <trkpt lat="45.8432740" lon="5.7787360">
        <ele>241.6</ele>
        <time>2022-07-26T12:11:59Z</time>
      </trkpt>
      <trkpt lat="45.8432690" lon="5.7787400">
        <ele>241.6</ele>
        <time>2022-07-26T12:12:00Z</time>
      </trkpt>
      <trkpt lat="45.8432640" lon="5.7787430">
        <ele>241.6</ele>
        <time>2022-07-26T12:12:01Z</time>
      </trkpt>
      <trkpt lat="45.8432600" lon="5.7787450">
        <ele>241.6</ele>
        <time>2022-07-26T12:12:02Z</time>
      </trkpt>
      <trkpt lat="45.8432550" lon="5.7787460">
        <ele>241.6</ele>
        <time>2022-07-26T12:12:03Z</time>
      </trkpt>
      <trkpt lat="45.8432510" lon="5.7787510">
        <ele>241.6</ele>
        <time>2022-07-26T12:12:04Z</time>
      </trkpt>
      <trkpt lat="45.8432450" lon="5.7787530">
        <ele>241.6</ele>
        <time>2022-07-26T12:12:05Z</time>
      </trkpt>
      <trkpt lat="45.8432400" lon="5.7787590">
        <ele>241.7</ele>
        <time>2022-07-26T12:12:06Z</time>
      </trkpt>
      <trkpt lat="45.8432340" lon="5.7787630">
        <ele>241.7</ele>
        <time>2022-07-26T12:12:07Z</time>
      </trkpt>
      <trkpt lat="45.8432300" lon="5.7787650">
        <ele>241.7</ele>
        <time>2022-07-26T12:12:08Z</time>
      </trkpt>
      <trkpt lat="45.8432250" lon="5.7787660">
        <ele>241.7</ele>
        <time>2022-07-26T12:12:09Z</time>
      </trkpt>
      <trkpt lat="45.8432310" lon="5.7787660">
        <ele>241.7</ele>
        <time>2022-07-26T12:12:10Z</time>
      </trkpt>
      <trkpt lat="45.8432320" lon="5.7787680">
        <ele>241.7</ele>
        <time>2022-07-26T12:12:11Z</time>
      </trkpt>
      <trkpt lat="45.8432290" lon="5.7787700">
        <ele>241.7</ele>
        <time>2022-07-26T12:12:12Z</time>
      </trkpt>
      <trkpt lat="45.8432320" lon="5.7787710">
        <ele>241.7</ele>
        <time>2022-07-26T12:12:13Z</time>
      </trkpt>
      <trkpt lat="45.8432390" lon="5.7787730">
        <ele>241.7</ele>
        <time>2022-07-26T12:12:14Z</time>
      </trkpt>
      <trkpt lat="45.8432460" lon="5.7787740">
        <ele>241.7</ele>
        <time>2022-07-26T12:12:15Z</time>
      </trkpt>
      <trkpt lat="45.8432530" lon="5.7787710">
        <ele>241.7</ele>
        <time>2022-07-26T12:12:16Z</time>
      </trkpt>
      <trkpt lat="45.8432570" lon="5.7787690">
        <ele>241.7</ele>
        <time>2022-07-26T12:12:17Z</time>
      </trkpt>
      <trkpt lat="45.8432590" lon="5.7787670">
        <ele>241.7</ele>
        <time>2022-07-26T12:12:18Z</time>
      </trkpt>
      <trkpt lat="45.8432590" lon="5.7787660">
        <ele>241.7</ele>
        <time>2022-07-26T12:12:19Z</time>
      </trkpt>
      <trkpt lat="45.8432580" lon="5.7787660">
        <ele>241.7</ele>
        <time>2022-07-26T12:12:20Z</time>
      </trkpt>
      <trkpt lat="45.8432580" lon="5.7787680">
        <ele>241.7</ele>
        <time>2022-07-26T12:12:21Z</time>
      </trkpt>
      <trkpt lat="45.8432590" lon="5.7787710">
        <ele>241.7</ele>
        <time>2022-07-26T12:12:22Z</time>
      </trkpt>
      <trkpt lat="45.8432590" lon="5.7787720">
        <ele>241.7</ele>
        <time>2022-07-26T12:12:23Z</time>
      </trkpt>
      <trkpt lat="45.8432590" lon="5.7787710">
        <ele>241.7</ele>
        <time>2022-07-26T12:12:24Z</time>
      </trkpt>
      <trkpt lat="45.8432600" lon="5.7787700">
        <ele>241.7</ele>
        <time>2022-07-26T12:12:25Z</time>
      </trkpt>
      <trkpt lat="45.8432600" lon="5.7787700">
        <ele>241.7</ele>
        <time>2022-07-26T12:12:26Z</time>
      </trkpt>
      <trkpt lat="45.8432600" lon="5.7787700">
        <ele>241.7</ele>
        <time>2022-07-26T12:12:27Z</time>
      </trkpt>
      <trkpt lat="45.8432600" lon="5.7787710">
        <ele>241.7</ele>
        <time>2022-07-26T12:12:28Z</time>
      </trkpt>
      <trkpt lat="45.8432900" lon="5.7787700">
        <ele>241.7</ele>
        <time>2022-07-26T12:13:46Z</time>
      </trkpt>
      <trkpt lat="45.8432960" lon="5.7787670">
        <ele>241.7</ele>
        <time>2022-07-26T12:13:47Z</time>
      </trkpt>
      <trkpt lat="45.8433000" lon="5.7787620">
        <ele>241.7</ele>
        <time>2022-07-26T12:13:48Z</time>
      </trkpt>
      <trkpt lat="45.8433010" lon="5.7787580">
        <ele>241.7</ele>
        <time>2022-07-26T12:13:49Z</time>
      </trkpt>
      <trkpt lat="45.8433030" lon="5.7787560">
        <ele>241.7</ele>
        <time>2022-07-26T12:13:50Z</time>
      </trkpt>
      <trkpt lat="45.8433040" lon="5.7787550">
        <ele>241.7</ele>
        <time>2022-07-26T12:13:51Z</time>
      </trkpt>
      <trkpt lat="45.8433050" lon="5.7787560">
        <ele>241.7</ele>
        <time>2022-07-26T12:13:52Z</time>
      </trkpt>
      <trkpt lat="45.8433050" lon="5.7787600">
        <ele>241.8</ele>
        <time>2022-07-26T12:13:53Z</time>
      </trkpt>
      <trkpt lat="45.8433050" lon="5.7787660">
        <ele>241.8</ele>
        <time>2022-07-26T12:13:54Z</time>
      </trkpt>
      <trkpt lat="45.8433050" lon="5.7787710">
        <ele>241.8</ele>
        <time>2022-07-26T12:13:55Z</time>
      </trkpt>
      <trkpt lat="45.8433090" lon="5.7787760">
        <ele>241.8</ele>
        <time>2022-07-26T12:13:56Z</time>
      </trkpt>
      <trkpt lat="45.8433150" lon="5.7787790">
        <ele>241.8</ele>
        <time>2022-07-26T12:13:57Z</time>
      </trkpt>
      <trkpt lat="45.8433210" lon="5.7787800">
        <ele>241.8</ele>
        <time>2022-07-26T12:13:58Z</time>
      </trkpt>
      <trkpt lat="45.8433240" lon="5.7787800">
        <ele>241.8</ele>
        <time>2022-07-26T12:13:59Z</time>
      </trkpt>
      <trkpt lat="45.8433250" lon="5.7787800">
        <ele>241.8</ele>
        <time>2022-07-26T12:14:00Z</time>
      </trkpt>
      <trkpt lat="45.8433250" lon="5.7787800">
        <ele>241.8</ele>
        <time>2022-07-26T12:14:01Z</time>
      </trkpt>
      <trkpt lat="45.8433240" lon="5.7787800">
        <ele>241.8</ele>
        <time>2022-07-26T12:14:02Z</time>
      </trkpt>
      <trkpt lat="45.8433240" lon="5.7787790">
        <ele>241.8</ele>
        <time>2022-07-26T12:14:03Z</time>
      </trkpt>
      <trkpt lat="45.8433250" lon="5.7787790">
        <ele>241.8</ele>
        <time>2022-07-26T12:14:04Z</time>
      </trkpt>
      <trkpt lat="45.8433260" lon="5.7787780">
        <ele>241.8</ele>
        <time>2022-07-26T12:14:05Z</time>
      </trkpt>
      <trkpt lat="45.8433270" lon="5.7787770">
        <ele>241.8</ele>
        <time>2022-07-26T12:14:06Z</time>
      </trkpt>
      <trkpt lat="45.8433280" lon="5.7787770">
        <ele>241.8</ele>
        <time>2022-07-26T12:14:07Z</time>
      </trkpt>
      <trkpt lat="45.8433290" lon="5.7787760">
        <ele>241.8</ele>
        <time>2022-07-26T12:14:08Z</time>
      </trkpt>
      <trkpt lat="45.8433300" lon="5.7787750">
        <ele>241.8</ele>
        <time>2022-07-26T12:14:09Z</time>
      </trkpt>
      <trkpt lat="45.8433770" lon="5.7787720">
        <ele>241.8</ele>
        <time>2022-07-26T12:16:15Z</time>
      </trkpt>
      <trkpt lat="45.8433790" lon="5.7787730">
        <ele>241.8</ele>
        <time>2022-07-26T12:16:16Z</time>
      </trkpt>
      <trkpt lat="45.8433810" lon="5.7787870">
        <ele>241.8</ele>
        <time>2022-07-26T12:16:17Z</time>
      </trkpt>
      <trkpt lat="45.8433830" lon="5.7788020">
        <ele>241.8</ele>
        <time>2022-07-26T12:16:18Z</time>
      </trkpt>
      <trkpt lat="45.8433850" lon="5.7788140">
        <ele>241.8</ele>
        <time>2022-07-26T12:16:19Z</time>
      </trkpt>
      <trkpt lat="45.8433860" lon="5.7788300">
        <ele>241.8</ele>
        <time>2022-07-26T12:16:20Z</time>
      </trkpt>
      <trkpt lat="45.8433850" lon="5.7788480">
        <ele>241.9</ele>
        <time>2022-07-26T12:16:21Z</time>
      </trkpt>
      <trkpt lat="45.8433820" lon="5.7788650">
        <ele>241.9</ele>
        <time>2022-07-26T12:16:22Z</time>
      </trkpt>
      <trkpt lat="45.8433850" lon="5.7788640">
        <ele>241.9</ele>
        <time>2022-07-26T12:16:23Z</time>
      </trkpt>
      <trkpt lat="45.8433920" lon="5.7788560">
        <ele>241.9</ele>
        <time>2022-07-26T12:16:24Z</time>
      </trkpt>
      <trkpt lat="45.8433890" lon="5.7788370">
        <ele>241.9</ele>
        <time>2022-07-26T12:16:25Z</time>
      </trkpt>
      <trkpt lat="45.8433830" lon="5.7788200">
        <ele>241.9</ele>
        <time>2022-07-26T12:16:26Z</time>
      </trkpt>
      <trkpt lat="45.8433780" lon="5.7788130">
        <ele>241.9</ele>
        <time>2022-07-26T12:16:27Z</time>
      </trkpt>
      <trkpt lat="45.8433750" lon="5.7788120">
        <ele>241.9</ele>
        <time>2022-07-26T12:16:28Z</time>
      </trkpt>
      <trkpt lat="45.8433750" lon="5.7788120">
        <ele>241.9</ele>
        <time>2022-07-26T12:16:29Z</time>
      </trkpt>
      <trkpt lat="45.8433760" lon="5.7788130">
        <ele>241.9</ele>
        <time>2022-07-26T12:16:30Z</time>
      </trkpt>
      <trkpt lat="45.8433760" lon="5.7788120">
        <ele>241.9</ele>
        <time>2022-07-26T12:16:31Z</time>
      </trkpt>
      <trkpt lat="45.8433760" lon="5.7788120">
        <ele>241.9</ele>
        <time>2022-07-26T12:16:32Z</time>
      </trkpt>
      <trkpt lat="45.8433750" lon="5.7788140">
        <ele>241.9</ele>
        <time>2022-07-26T12:16:33Z</time>
      </trkpt>
      <trkpt lat="45.8433750" lon="5.7788170">
        <ele>241.9</ele>
        <time>2022-07-26T12:16:34Z</time>
      </trkpt>
      <trkpt lat="45.8433770" lon="5.7788230">
        <ele>241.9</ele>
        <time>2022-07-26T12:16:35Z</time>
      </trkpt>
      <trkpt lat="45.8433810" lon="5.7788260">
        <ele>241.9</ele>
        <time>2022-07-26T12:16:36Z</time>
      </trkpt>
      <trkpt lat="45.8433840" lon="5.7788280">
        <ele>241.9</ele>
        <time>2022-07-26T12:16:37Z</time>
      </trkpt>
      <trkpt lat="45.8433860" lon="5.7788270">
        <ele>241.9</ele>
        <time>2022-07-26T12:16:38Z</time>
      </trkpt>
      <trkpt lat="45.8433860" lon="5.7788260">
        <ele>241.9</ele>
        <time>2022-07-26T12:16:39Z</time>
      </trkpt>
      <trkpt lat="45.8433860" lon="5.7788260">
        <ele>241.9</ele>
        <time>2022-07-26T12:16:40Z</time>
      </trkpt>
      <trkpt lat="45.8433860" lon="5.7788260">
        <ele>241.9</ele>
        <time>2022-07-26T12:16:41Z</time>
      </trkpt>
      <trkpt lat="45.8433860" lon="5.7788270">
        <ele>241.9</ele>
        <time>2022-07-26T12:16:42Z</time>
      </trkpt>
      <trkpt lat="45.8433870" lon="5.7788270">
        <ele>241.9</ele>
        <time>2022-07-26T12:16:43Z</time>
      </trkpt>
      <trkpt lat="45.8433880" lon="5.7788270">
        <ele>241.9</ele>
        <time>2022-07-26T12:16:44Z</time>
      </trkpt>
      <trkpt lat="45.8433890" lon="5.7788270">
        <ele>241.9</ele>
        <time>2022-07-26T12:16:45Z</time>
      </trkpt>
      <trkpt lat="45.8433900" lon="5.7788280">
        <ele>241.9</ele>
        <time>2022-07-26T12:16:46Z</time>
      </trkpt>
      <trkpt lat="45.8433880" lon="5.7788340">
        <ele>241.9</ele>
        <time>2022-07-26T12:16:47Z</time>
      </trkpt>
      <trkpt lat="45.8433630" lon="5.7788150">
        <ele>241.9</ele>
        <time>2022-07-26T12:19:26Z</time>
      </trkpt>
      <trkpt lat="45.8433680" lon="5.7788270">
        <ele>241.9</ele>
        <time>2022-07-26T12:19:27Z</time>
      </trkpt>
      <trkpt lat="45.8433700" lon="5.7788410">
        <ele>241.9</ele>
        <time>2022-07-26T12:19:28Z</time>
      </trkpt>
      <trkpt lat="45.8433710" lon="5.7788510">
        <ele>241.9</ele>
        <time>2022-07-26T12:19:29Z</time>
      </trkpt>
      <trkpt lat="45.8433700" lon="5.7788590">
        <ele>241.9</ele>
        <time>2022-07-26T12:19:30Z</time>
      </trkpt>
      <trkpt lat="45.8433680" lon="5.7788660">
        <ele>242.0</ele>
        <time>2022-07-26T12:19:31Z</time>
      </trkpt>
      <trkpt lat="45.8433690" lon="5.7788780">
        <ele>242.0</ele>
        <time>2022-07-26T12:19:32Z</time>
      </trkpt>
      <trkpt lat="45.8433690" lon="5.7788900">
        <ele>242.0</ele>
        <time>2022-07-26T12:19:33Z</time>
      </trkpt>
      <trkpt lat="45.8433690" lon="5.7788660">
        <ele>242.0</ele>
        <time>2022-07-26T12:19:34Z</time>
      </trkpt>
      <trkpt lat="45.8433690" lon="5.7788570">
        <ele>242.0</ele>
        <time>2022-07-26T12:19:35Z</time>
      </trkpt>
      <trkpt lat="45.8433690" lon="5.7788550">
        <ele>242.0</ele>
        <time>2022-07-26T12:19:36Z</time>
      </trkpt>
      <trkpt lat="45.8433660" lon="5.7788550">
        <ele>242.0</ele>
        <time>2022-07-26T12:19:37Z</time>
      </trkpt>
      <trkpt lat="45.8433630" lon="5.7788570">
        <ele>242.0</ele>
        <time>2022-07-26T12:19:39Z</time>
      </trkpt>
      <trkpt lat="45.8433600" lon="5.7788610">
        <ele>242.0</ele>
        <time>2022-07-26T12:19:40Z</time>
      </trkpt>
      <trkpt lat="45.8433550" lon="5.7788770">
        <ele>242.0</ele>
        <time>2022-07-26T12:19:41Z</time>
      </trkpt>
      <trkpt lat="45.8433520" lon="5.7788870">
        <ele>242.0</ele>
        <time>2022-07-26T12:19:42Z</time>
      </trkpt>
      <trkpt lat="45.8433400" lon="5.7789030">
        <ele>242.0</ele>
        <time>2022-07-26T12:19:43Z</time>
      </trkpt>
      <trkpt lat="45.8433470" lon="5.7789280">
        <ele>242.0</ele>
        <time>2022-07-26T12:20:14Z</time>
      </trkpt>
      <trkpt lat="45.8433530" lon="5.7789240">
        <ele>242.0</ele>
        <time>2022-07-26T12:20:15Z</time>
      </trkpt>
      <trkpt lat="45.8433600" lon="5.7789200">
        <ele>242.0</ele>
        <time>2022-07-26T12:20:16Z</time>
      </trkpt>
      <trkpt lat="45.8433650" lon="5.7789180">
        <ele>242.0</ele>
        <time>2022-07-26T12:20:17Z</time>
      </trkpt>
      <trkpt lat="45.8433590" lon="5.7789160">
        <ele>242.0</ele>
        <time>2022-07-26T12:20:18Z</time>
      </trkpt>
      <trkpt lat="45.8433490" lon="5.7789150">
        <ele>242.0</ele>
        <time>2022-07-26T12:20:19Z</time>
      </trkpt>
      <trkpt lat="45.8433430" lon="5.7789150">
        <ele>242.0</ele>
        <time>2022-07-26T12:20:20Z</time>
      </trkpt>
      <trkpt lat="45.8433400" lon="5.7789160">
        <ele>242.0</ele>
        <time>2022-07-26T12:20:21Z</time>
      </trkpt>
      <trkpt lat="45.8433420" lon="5.7789170">
        <ele>242.0</ele>
        <time>2022-07-26T12:20:22Z</time>
      </trkpt>
      <trkpt lat="45.8433420" lon="5.7789180">
        <ele>242.0</ele>
        <time>2022-07-26T12:20:23Z</time>
      </trkpt>
      <trkpt lat="45.8433420" lon="5.7789180">
        <ele>242.0</ele>
        <time>2022-07-26T12:20:24Z</time>
      </trkpt>
      <trkpt lat="45.8433440" lon="5.7789180">
        <ele>242.0</ele>
        <time>2022-07-26T12:20:25Z</time>
      </trkpt>
      <trkpt lat="45.8433470" lon="5.7789170">
        <ele>242.0</ele>
        <time>2022-07-26T12:20:26Z</time>
      </trkpt>
      <trkpt lat="45.8433490" lon="5.7789160">
        <ele>242.0</ele>
        <time>2022-07-26T12:20:27Z</time>
      </trkpt>
      <trkpt lat="45.8433510" lon="5.7789170">
        <ele>242.0</ele>
        <time>2022-07-26T12:20:28Z</time>
      </trkpt>
      <trkpt lat="45.8433530" lon="5.7789180">
        <ele>242.0</ele>
        <time>2022-07-26T12:20:29Z</time>
      </trkpt>
      <trkpt lat="45.8433540" lon="5.7789180">
        <ele>242.0</ele>
        <time>2022-07-26T12:20:30Z</time>
      </trkpt>
      <trkpt lat="45.8433550" lon="5.7789190">
        <ele>242.0</ele>
        <time>2022-07-26T12:20:31Z</time>
      </trkpt>
      <trkpt lat="45.8433790" lon="5.7789220">
        <ele>242.0</ele>
        <time>2022-07-26T12:20:44Z</time>
      </trkpt>
      <trkpt lat="45.8433840" lon="5.7789220">
        <ele>242.0</ele>
        <time>2022-07-26T12:20:45Z</time>
      </trkpt>
      <trkpt lat="45.8433880" lon="5.7789210">
        <ele>242.0</ele>
        <time>2022-07-26T12:20:46Z</time>
      </trkpt>
      <trkpt lat="45.8433900" lon="5.7789210">
        <ele>242.0</ele>
        <time>2022-07-26T12:20:47Z</time>
      </trkpt>
      <trkpt lat="45.8433920" lon="5.7789210">
        <ele>242.0</ele>
        <time>2022-07-26T12:20:48Z</time>
      </trkpt>
      <trkpt lat="45.8433940" lon="5.7789210">
        <ele>242.0</ele>
        <time>2022-07-26T12:20:49Z</time>
      </trkpt>
      <trkpt lat="45.8433940" lon="5.7789220">
        <ele>242.0</ele>
        <time>2022-07-26T12:20:50Z</time>
      </trkpt>
      <trkpt lat="45.8433950" lon="5.7789220">
        <ele>242.0</ele>
        <time>2022-07-26T12:20:51Z</time>
      </trkpt>
      <trkpt lat="45.8433950" lon="5.7789220">
        <ele>242.0</ele>
        <time>2022-07-26T12:20:52Z</time>
      </trkpt>
      <trkpt lat="45.8433960" lon="5.7789220">
        <ele>242.0</ele>
        <time>2022-07-26T12:20:53Z</time>
      </trkpt>
      <trkpt lat="45.8433950" lon="5.7789220">
        <ele>242.0</ele>
        <time>2022-07-26T12:20:54Z</time>
      </trkpt>
      <trkpt lat="45.8433980" lon="5.7789210">
        <ele>242.0</ele>
        <time>2022-07-26T12:20:55Z</time>
      </trkpt>
      <trkpt lat="45.8434010" lon="5.7789210">
        <ele>242.0</ele>
        <time>2022-07-26T12:20:56Z</time>
      </trkpt>
      <trkpt lat="45.8434080" lon="5.7789220">
        <ele>242.0</ele>
        <time>2022-07-26T12:20:57Z</time>
      </trkpt>
      <trkpt lat="45.8434150" lon="5.7789260">
        <ele>242.1</ele>
        <time>2022-07-26T12:20:58Z</time>
      </trkpt>
      <trkpt lat="45.8434170" lon="5.7789290">
        <ele>242.1</ele>
        <time>2022-07-26T12:20:59Z</time>
      </trkpt>
      <trkpt lat="45.8434150" lon="5.7789330">
        <ele>242.1</ele>
        <time>2022-07-26T12:21:00Z</time>
      </trkpt>
      <trkpt lat="45.8434160" lon="5.7789340">
        <ele>242.1</ele>
        <time>2022-07-26T12:21:01Z</time>
      </trkpt>
      <trkpt lat="45.8434170" lon="5.7789340">
        <ele>242.1</ele>
        <time>2022-07-26T12:21:02Z</time>
      </trkpt>
      <trkpt lat="45.8434160" lon="5.7789340">
        <ele>242.1</ele>
        <time>2022-07-26T12:21:03Z</time>
      </trkpt>
      <trkpt lat="45.8434140" lon="5.7789340">
        <ele>242.1</ele>
        <time>2022-07-26T12:21:04Z</time>
      </trkpt>
      <trkpt lat="45.8434110" lon="5.7789340">
        <ele>242.1</ele>
        <time>2022-07-26T12:21:05Z</time>
      </trkpt>
      <trkpt lat="45.8434090" lon="5.7789340">
        <ele>242.1</ele>
        <time>2022-07-26T12:21:06Z</time>
      </trkpt>
      <trkpt lat="45.8434080" lon="5.7789340">
        <ele>242.1</ele>
        <time>2022-07-26T12:21:07Z</time>
      </trkpt>
      <trkpt lat="45.8434070" lon="5.7789340">
        <ele>242.1</ele>
        <time>2022-07-26T12:21:08Z</time>
      </trkpt>
      <trkpt lat="45.8434070" lon="5.7789340">
        <ele>242.1</ele>
        <time>2022-07-26T12:21:09Z</time>
      </trkpt>
      <trkpt lat="45.8433840" lon="5.7789460">
        <ele>242.1</ele>
        <time>2022-07-26T12:21:50Z</time>
      </trkpt>
      <trkpt lat="45.8433780" lon="5.7789500">
        <ele>242.1</ele>
        <time>2022-07-26T12:21:51Z</time>
      </trkpt>
      <trkpt lat="45.8433740" lon="5.7789520">
        <ele>242.1</ele>
        <time>2022-07-26T12:21:52Z</time>
      </trkpt>
      <trkpt lat="45.8433680" lon="5.7789540">
        <ele>242.1</ele>
        <time>2022-07-26T12:21:53Z</time>
      </trkpt>
      <trkpt lat="45.8433620" lon="5.7789550">
        <ele>242.1</ele>
        <time>2022-07-26T12:21:54Z</time>
      </trkpt>
      <trkpt lat="45.8433570" lon="5.7789560">
        <ele>242.1</ele>
        <time>2022-07-26T12:21:55Z</time>
      </trkpt>
      <trkpt lat="45.8433500" lon="5.7789560">
        <ele>242.1</ele>
        <time>2022-07-26T12:21:56Z</time>
      </trkpt>
      <trkpt lat="45.8433450" lon="5.7789560">
        <ele>242.1</ele>
        <time>2022-07-26T12:21:57Z</time>
      </trkpt>
      <trkpt lat="45.8433430" lon="5.7789550">
        <ele>242.1</ele>
        <time>2022-07-26T12:21:58Z</time>
      </trkpt>
      <trkpt lat="45.8433400" lon="5.7789550">
        <ele>242.1</ele>
        <time>2022-07-26T12:21:59Z</time>
      </trkpt>
      <trkpt lat="45.8433380" lon="5.7789540">
        <ele>242.1</ele>
        <time>2022-07-26T12:22:00Z</time>
      </trkpt>
      <trkpt lat="45.8433350" lon="5.7789540">
        <ele>242.1</ele>
        <time>2022-07-26T12:22:01Z</time>
      </trkpt>
      <trkpt lat="45.8433320" lon="5.7789560">
        <ele>242.1</ele>
        <time>2022-07-26T12:22:02Z</time>
      </trkpt>
      <trkpt lat="45.8433300" lon="5.7789560">
        <ele>242.1</ele>
        <time>2022-07-26T12:22:03Z</time>
      </trkpt>
      <trkpt lat="45.8433270" lon="5.7789560">
        <ele>242.1</ele>
        <time>2022-07-26T12:22:04Z</time>
      </trkpt>
      <trkpt lat="45.8433250" lon="5.7789570">
        <ele>242.1</ele>
        <time>2022-07-26T12:22:05Z</time>
      </trkpt>
      <trkpt lat="45.8433230" lon="5.7789580">
        <ele>242.1</ele>
        <time>2022-07-26T12:22:06Z</time>
      </trkpt>
      <trkpt lat="45.8433220" lon="5.7789590">
        <ele>242.1</ele>
        <time>2022-07-26T12:22:07Z</time>
      </trkpt>
      <trkpt lat="45.8433200" lon="5.7789590">
        <ele>242.1</ele>
        <time>2022-07-26T12:22:08Z</time>
      </trkpt>
      <trkpt lat="45.8433190" lon="5.7789590">
        <ele>242.1</ele>
        <time>2022-07-26T12:22:09Z</time>
      </trkpt>
      <trkpt lat="45.8433180" lon="5.7789590">
        <ele>242.1</ele>
        <time>2022-07-26T12:22:10Z</time>
      </trkpt>
      <trkpt lat="45.8433180" lon="5.7789590">
        <ele>242.1</ele>
        <time>2022-07-26T12:22:11Z</time>
      </trkpt>
      <trkpt lat="45.8433180" lon="5.7789590">
        <ele>242.1</ele>
        <time>2022-07-26T12:22:12Z</time>
      </trkpt>
      <trkpt lat="45.8433180" lon="5.7789590">
        <ele>242.1</ele>
        <time>2022-07-26T12:22:13Z</time>
      </trkpt>
      <trkpt lat="45.8433180" lon="5.7789590">
        <ele>242.1</ele>
        <time>2022-07-26T12:22:14Z</time>
      </trkpt>
      <trkpt lat="45.8433180" lon="5.7789590">
        <ele>242.1</ele>
        <time>2022-07-26T12:22:15Z</time>
      </trkpt>
      <trkpt lat="45.8433180" lon="5.7789590">
        <ele>242.1</ele>
        <time>2022-07-26T12:22:16Z</time>
      </trkpt>
      <trkpt lat="45.8433180" lon="5.7789590">
        <ele>242.1</ele>
        <time>2022-07-26T12:22:17Z</time>
      </trkpt>
      <trkpt lat="45.8433170" lon="5.7789630">
        <ele>242.1</ele>
        <time>2022-07-26T12:22:18Z</time>
      </trkpt>
      <trkpt lat="45.8433210" lon="5.7789640">
        <ele>242.1</ele>
        <time>2022-07-26T12:22:19Z</time>
      </trkpt>
      <trkpt lat="45.8433290" lon="5.7789610">
        <ele>242.1</ele>
        <time>2022-07-26T12:22:20Z</time>
      </trkpt>
      <trkpt lat="45.8433460" lon="5.7789540">
        <ele>242.1</ele>
        <time>2022-07-26T12:22:21Z</time>
      </trkpt>
      <trkpt lat="45.8433600" lon="5.7789510">
        <ele>242.1</ele>
        <time>2022-07-26T12:22:22Z</time>
      </trkpt>
      <trkpt lat="45.8433670" lon="5.7789510">
        <ele>242.1</ele>
        <time>2022-07-26T12:22:23Z</time>
      </trkpt>
      <trkpt lat="45.8433710" lon="5.7789540">
        <ele>242.1</ele>
        <time>2022-07-26T12:22:24Z</time>
      </trkpt>
      <trkpt lat="45.8433680" lon="5.7789560">
        <ele>242.1</ele>
        <time>2022-07-26T12:22:25Z</time>
      </trkpt>
      <trkpt lat="45.8433660" lon="5.7789570">
        <ele>242.1</ele>
        <time>2022-07-26T12:22:26Z</time>
      </trkpt>
      <trkpt lat="45.8433640" lon="5.7789590">
        <ele>242.1</ele>
        <time>2022-07-26T12:22:27Z</time>
      </trkpt>
      <trkpt lat="45.8433630" lon="5.7789610">
        <ele>242.1</ele>
        <time>2022-07-26T12:22:28Z</time>
      </trkpt>
      <trkpt lat="45.8433640" lon="5.7789630">
        <ele>242.1</ele>
        <time>2022-07-26T12:22:29Z</time>
      </trkpt>
      <trkpt lat="45.8433670" lon="5.7789620">
        <ele>242.1</ele>
        <time>2022-07-26T12:22:30Z</time>
      </trkpt>
      <trkpt lat="45.8433700" lon="5.7789590">
        <ele>242.1</ele>
        <time>2022-07-26T12:22:31Z</time>
      </trkpt>
      <trkpt lat="45.8433680" lon="5.7789560">
        <ele>242.1</ele>
        <time>2022-07-26T12:22:32Z</time>
      </trkpt>
      <trkpt lat="45.8433650" lon="5.7789520">
        <ele>242.1</ele>
        <time>2022-07-26T12:22:33Z</time>
      </trkpt>
      <trkpt lat="45.8433600" lon="5.7789490">
        <ele>242.1</ele>
        <time>2022-07-26T12:22:34Z</time>
      </trkpt>
      <trkpt lat="45.8433560" lon="5.7789460">
        <ele>242.1</ele>
        <time>2022-07-26T12:22:35Z</time>
      </trkpt>
      <trkpt lat="45.8433520" lon="5.7789430">
        <ele>242.1</ele>
        <time>2022-07-26T12:22:36Z</time>
      </trkpt>
      <trkpt lat="45.8433500" lon="5.7789420">
        <ele>242.1</ele>
        <time>2022-07-26T12:22:37Z</time>
      </trkpt>
      <trkpt lat="45.8433490" lon="5.7789420">
        <ele>242.1</ele>
        <time>2022-07-26T12:22:38Z</time>
      </trkpt>
      <trkpt lat="45.8433460" lon="5.7789420">
        <ele>242.1</ele>
        <time>2022-07-26T12:22:39Z</time>
      </trkpt>
      <trkpt lat="45.8433450" lon="5.7789430">
        <ele>242.1</ele>
        <time>2022-07-26T12:22:40Z</time>
      </trkpt>
      <trkpt lat="45.8433410" lon="5.7789430">
        <ele>242.1</ele>
        <time>2022-07-26T12:22:41Z</time>
      </trkpt>
      <trkpt lat="45.8433360" lon="5.7789440">
        <ele>242.1</ele>
        <time>2022-07-26T12:22:42Z</time>
      </trkpt>
      <trkpt lat="45.8433320" lon="5.7789440">
        <ele>242.1</ele>
        <time>2022-07-26T12:22:43Z</time>
      </trkpt>
      <trkpt lat="45.8433310" lon="5.7789420">
        <ele>242.1</ele>
        <time>2022-07-26T12:22:44Z</time>
      </trkpt>
      <trkpt lat="45.8433370" lon="5.7789400">
        <ele>242.1</ele>
        <time>2022-07-26T12:22:45Z</time>
      </trkpt>
      <trkpt lat="45.8433400" lon="5.7789370">
        <ele>242.1</ele>
        <time>2022-07-26T12:22:46Z</time>
      </trkpt>
      <trkpt lat="45.8433390" lon="5.7789340">
        <ele>242.1</ele>
        <time>2022-07-26T12:22:47Z</time>
      </trkpt>
      <trkpt lat="45.8433390" lon="5.7789320">
        <ele>242.1</ele>
        <time>2022-07-26T12:22:48Z</time>
      </trkpt>
      <trkpt lat="45.8433430" lon="5.7789300">
        <ele>242.1</ele>
        <time>2022-07-26T12:22:49Z</time>
      </trkpt>
      <trkpt lat="45.8433470" lon="5.7789290">
        <ele>242.1</ele>
        <time>2022-07-26T12:22:50Z</time>
      </trkpt>
      <trkpt lat="45.8433470" lon="5.7789290">
        <ele>242.1</ele>
        <time>2022-07-26T12:22:51Z</time>
      </trkpt>
      <trkpt lat="45.8433470" lon="5.7789290">
        <ele>242.1</ele>
        <time>2022-07-26T12:22:52Z</time>
      </trkpt>
      <trkpt lat="45.8433410" lon="5.7789260">
        <ele>242.1</ele>
        <time>2022-07-26T12:22:53Z</time>
      </trkpt>
      <trkpt lat="45.8433420" lon="5.7789240">
        <ele>242.1</ele>
        <time>2022-07-26T12:22:54Z</time>
      </trkpt>
      <trkpt lat="45.8433430" lon="5.7789210">
        <ele>242.1</ele>
        <time>2022-07-26T12:22:55Z</time>
      </trkpt>
      <trkpt lat="45.8433410" lon="5.7789200">
        <ele>242.1</ele>
        <time>2022-07-26T12:22:56Z</time>
      </trkpt>
      <trkpt lat="45.8433410" lon="5.7789200">
        <ele>242.1</ele>
        <time>2022-07-26T12:22:58Z</time>
      </trkpt>
      <trkpt lat="45.8433410" lon="5.7789200">
        <ele>242.1</ele>
        <time>2022-07-26T12:22:59Z</time>
      </trkpt>
      <trkpt lat="45.8433420" lon="5.7789220">
        <ele>242.1</ele>
        <time>2022-07-26T12:23:00Z</time>
      </trkpt>
      <trkpt lat="45.8433430" lon="5.7789230">
        <ele>242.1</ele>
        <time>2022-07-26T12:23:01Z</time>
      </trkpt>
      <trkpt lat="45.8433480" lon="5.7789230">
        <ele>242.1</ele>
        <time>2022-07-26T12:23:02Z</time>
      </trkpt>
      <trkpt lat="45.8433520" lon="5.7789210">
        <ele>242.1</ele>
        <time>2022-07-26T12:23:03Z</time>
      </trkpt>
      <trkpt lat="45.8433530" lon="5.7789200">
        <ele>242.1</ele>
        <time>2022-07-26T12:23:04Z</time>
      </trkpt>
      <trkpt lat="45.8433480" lon="5.7789170">
        <ele>242.1</ele>
        <time>2022-07-26T12:23:05Z</time>
      </trkpt>
      <trkpt lat="45.8433430" lon="5.7789140">
        <ele>242.1</ele>
        <time>2022-07-26T12:23:06Z</time>
      </trkpt>
      <trkpt lat="45.8433420" lon="5.7789130">
        <ele>242.1</ele>
        <time>2022-07-26T12:23:07Z</time>
      </trkpt>
      <trkpt lat="45.8433430" lon="5.7789140">
        <ele>242.1</ele>
        <time>2022-07-26T12:23:08Z</time>
      </trkpt>
      <trkpt lat="45.8433450" lon="5.7789140">
        <ele>242.1</ele>
        <time>2022-07-26T12:23:09Z</time>
      </trkpt>
      <trkpt lat="45.8433510" lon="5.7789150">
        <ele>242.1</ele>
        <time>2022-07-26T12:23:10Z</time>
      </trkpt>
      <trkpt lat="45.8433570" lon="5.7789160">
        <ele>242.1</ele>
        <time>2022-07-26T12:23:11Z</time>
      </trkpt>
      <trkpt lat="45.8433600" lon="5.7789140">
        <ele>242.1</ele>
        <time>2022-07-26T12:23:12Z</time>
      </trkpt>
      <trkpt lat="45.8433610" lon="5.7789120">
        <ele>242.1</ele>
        <time>2022-07-26T12:23:13Z</time>
      </trkpt>
      <trkpt lat="45.8433630" lon="5.7789090">
        <ele>242.1</ele>
        <time>2022-07-26T12:23:14Z</time>
      </trkpt>
      <trkpt lat="45.8433640" lon="5.7789100">
        <ele>242.1</ele>
        <time>2022-07-26T12:23:15Z</time>
      </trkpt>
      <trkpt lat="45.8433640" lon="5.7789110">
        <ele>242.1</ele>
        <time>2022-07-26T12:23:16Z</time>
      </trkpt>
      <trkpt lat="45.8433650" lon="5.7789120">
        <ele>242.1</ele>
        <time>2022-07-26T12:23:17Z</time>
      </trkpt>
      <trkpt lat="45.8433650" lon="5.7789130">
        <ele>242.1</ele>
        <time>2022-07-26T12:23:18Z</time>
      </trkpt>
      <trkpt lat="45.8433650" lon="5.7789130">
        <ele>242.1</ele>
        <time>2022-07-26T12:23:19Z</time>
      </trkpt>
      <trkpt lat="45.8433650" lon="5.7789130">
        <ele>242.1</ele>
        <time>2022-07-26T12:23:20Z</time>
      </trkpt>
      <trkpt lat="45.8433650" lon="5.7789130">
        <ele>242.1</ele>
        <time>2022-07-26T12:23:21Z</time>
      </trkpt>
      <trkpt lat="45.8433650" lon="5.7789130">
        <ele>242.1</ele>
        <time>2022-07-26T12:23:22Z</time>
      </trkpt>
      <trkpt lat="45.8433770" lon="5.7789440">
        <ele>242.2</ele>
        <time>2022-07-26T12:23:33Z</time>
      </trkpt>
      <trkpt lat="45.8433810" lon="5.7789490">
        <ele>242.2</ele>
        <time>2022-07-26T12:23:34Z</time>
      </trkpt>
      <trkpt lat="45.8433830" lon="5.7789540">
        <ele>242.2</ele>
        <time>2022-07-26T12:23:35Z</time>
      </trkpt>
      <trkpt lat="45.8433820" lon="5.7789570">
        <ele>242.2</ele>
        <time>2022-07-26T12:23:36Z</time>
      </trkpt>
      <trkpt lat="45.8433780" lon="5.7789580">
        <ele>242.2</ele>
        <time>2022-07-26T12:23:37Z</time>
      </trkpt>
      <trkpt lat="45.8433720" lon="5.7789580">
        <ele>242.2</ele>
        <time>2022-07-26T12:23:38Z</time>
      </trkpt>
      <trkpt lat="45.8433680" lon="5.7789570">
        <ele>242.2</ele>
        <time>2022-07-26T12:23:39Z</time>
      </trkpt>
      <trkpt lat="45.8433670" lon="5.7789560">
        <ele>242.2</ele>
        <time>2022-07-26T12:23:40Z</time>
      </trkpt>
      <trkpt lat="45.8433700" lon="5.7789550">
        <ele>242.2</ele>
        <time>2022-07-26T12:23:41Z</time>
      </trkpt>
      <trkpt lat="45.8433740" lon="5.7789540">
        <ele>242.2</ele>
        <time>2022-07-26T12:23:42Z</time>
      </trkpt>
      <trkpt lat="45.8433790" lon="5.7789550">
        <ele>242.2</ele>
        <time>2022-07-26T12:23:43Z</time>
      </trkpt>
      <trkpt lat="45.8433830" lon="5.7789550">
        <ele>242.2</ele>
        <time>2022-07-26T12:23:44Z</time>
      </trkpt>
      <trkpt lat="45.8433860" lon="5.7789560">
        <ele>242.2</ele>
        <time>2022-07-26T12:23:45Z</time>
      </trkpt>
      <trkpt lat="45.8433870" lon="5.7789560">
        <ele>242.2</ele>
        <time>2022-07-26T12:23:46Z</time>
      </trkpt>
      <trkpt lat="45.8433880" lon="5.7789560">
        <ele>242.2</ele>
        <time>2022-07-26T12:23:47Z</time>
      </trkpt>
      <trkpt lat="45.8433880" lon="5.7789560">
        <ele>242.2</ele>
        <time>2022-07-26T12:23:48Z</time>
      </trkpt>
      <trkpt lat="45.8433880" lon="5.7789560">
        <ele>242.2</ele>
        <time>2022-07-26T12:23:49Z</time>
      </trkpt>
      <trkpt lat="45.8433890" lon="5.7789560">
        <ele>242.2</ele>
        <time>2022-07-26T12:23:50Z</time>
      </trkpt>
      <trkpt lat="45.8433890" lon="5.7789560">
        <ele>242.2</ele>
        <time>2022-07-26T12:23:51Z</time>
      </trkpt>
      <trkpt lat="45.8433880" lon="5.7789560">
        <ele>242.2</ele>
        <time>2022-07-26T12:23:52Z</time>
      </trkpt>
      <trkpt lat="45.8433880" lon="5.7789560">
        <ele>242.2</ele>
        <time>2022-07-26T12:23:53Z</time>
      </trkpt>
      <trkpt lat="45.8433880" lon="5.7789560">
        <ele>242.2</ele>
        <time>2022-07-26T12:23:54Z</time>
      </trkpt>
      <trkpt lat="45.8433880" lon="5.7789560">
        <ele>242.2</ele>
        <time>2022-07-26T12:23:55Z</time>
      </trkpt>
    </trkseg>
  </trk>
</gpx>
